<?xml version="1.0" encoding="UTF-8" standalone="no" ?>
<gpx xmlns="http://www.topografix.com/GPX/1/1" xmlns:xsi="http://www.w3.org/2001/XMLSchema-instance" xsi:schemaLocation="http://www.topografix.com/GPX/1/1 http://www.topografix.com/GPX/1/1/gpx.xsd" version="1.1" creator="VisuGPX - https://www.visugpx.com">
  <metadata>
    <name>Thiers- Roanne 2024(en marchant)</name>
  </metadata>
  <trk>
    <name><![CDATA[Thiers- Roanne 2024(en marchant)_1]]></name>
    <trkseg>
      <trkpt lat="45.86327" lon="3.53651">
        <ele>459</ele>
        <time>2024-12-07T23:06:49.620Z</time>
      </trkpt>
      <trkpt lat="45.86326" lon="3.53654">
        <ele>459</ele>
        <time>2024-12-07T23:06:50.619Z</time>
      </trkpt>
      <trkpt lat="45.86325" lon="3.53658">
        <ele>460</ele>
        <time>2024-12-07T23:06:51.619Z</time>
      </trkpt>
      <trkpt lat="45.86326" lon="3.53663">
        <ele>460</ele>
        <time>2024-12-07T23:06:52.619Z</time>
      </trkpt>
      <trkpt lat="45.86325" lon="3.53665">
        <ele>460</ele>
        <time>2024-12-07T23:06:53.620Z</time>
      </trkpt>
      <trkpt lat="45.86326" lon="3.53667">
        <ele>460</ele>
        <time>2024-12-07T23:06:54.619Z</time>
      </trkpt>
      <trkpt lat="45.86326" lon="3.5367">
        <ele>459</ele>
        <time>2024-12-07T23:06:55.620Z</time>
      </trkpt>
      <trkpt lat="45.86326" lon="3.53672">
        <ele>459</ele>
        <time>2024-12-07T23:06:56.620Z</time>
      </trkpt>
      <trkpt lat="45.86326" lon="3.53674">
        <ele>459</ele>
        <time>2024-12-07T23:06:57.619Z</time>
      </trkpt>
      <trkpt lat="45.86325" lon="3.53676">
        <ele>459</ele>
        <time>2024-12-07T23:06:58.619Z</time>
      </trkpt>
      <trkpt lat="45.86326" lon="3.53679">
        <ele>459</ele>
        <time>2024-12-07T23:06:59.620Z</time>
      </trkpt>
      <trkpt lat="45.86326" lon="3.53682">
        <ele>459</ele>
        <time>2024-12-07T23:07:00.620Z</time>
      </trkpt>
      <trkpt lat="45.86326" lon="3.53685">
        <ele>459</ele>
        <time>2024-12-07T23:07:01.620Z</time>
      </trkpt>
      <trkpt lat="45.86326" lon="3.53688">
        <ele>459</ele>
        <time>2024-12-07T23:07:02.620Z</time>
      </trkpt>
      <trkpt lat="45.86326" lon="3.53691">
        <ele>459</ele>
        <time>2024-12-07T23:07:03.619Z</time>
      </trkpt>
      <trkpt lat="45.86326" lon="3.53693">
        <ele>459</ele>
        <time>2024-12-07T23:07:04.620Z</time>
      </trkpt>
      <trkpt lat="45.86326" lon="3.53696">
        <ele>459</ele>
        <time>2024-12-07T23:07:05.619Z</time>
      </trkpt>
      <trkpt lat="45.86326" lon="3.53699">
        <ele>459</ele>
        <time>2024-12-07T23:07:06.620Z</time>
      </trkpt>
      <trkpt lat="45.86326" lon="3.53701">
        <ele>459</ele>
        <time>2024-12-07T23:07:07.619Z</time>
      </trkpt>
      <trkpt lat="45.86326" lon="3.53704">
        <ele>458</ele>
        <time>2024-12-07T23:07:08.619Z</time>
      </trkpt>
      <trkpt lat="45.86326" lon="3.53706">
        <ele>458</ele>
        <time>2024-12-07T23:07:09.620Z</time>
      </trkpt>
      <trkpt lat="45.86326" lon="3.53709">
        <ele>458</ele>
        <time>2024-12-07T23:07:10.620Z</time>
      </trkpt>
      <trkpt lat="45.86326" lon="3.53711">
        <ele>457</ele>
        <time>2024-12-07T23:07:11.620Z</time>
      </trkpt>
      <trkpt lat="45.86326" lon="3.53714">
        <ele>457</ele>
        <time>2024-12-07T23:07:12.619Z</time>
      </trkpt>
      <trkpt lat="45.86327" lon="3.53716">
        <ele>457</ele>
        <time>2024-12-07T23:07:13.620Z</time>
      </trkpt>
      <trkpt lat="45.86327" lon="3.53718">
        <ele>456</ele>
        <time>2024-12-07T23:07:14.619Z</time>
      </trkpt>
      <trkpt lat="45.86328" lon="3.53721">
        <ele>456</ele>
        <time>2024-12-07T23:07:15.619Z</time>
      </trkpt>
      <trkpt lat="45.86328" lon="3.53723">
        <ele>456</ele>
        <time>2024-12-07T23:07:16.620Z</time>
      </trkpt>
      <trkpt lat="45.86328" lon="3.53726">
        <ele>456</ele>
        <time>2024-12-07T23:07:17.620Z</time>
      </trkpt>
      <trkpt lat="45.86328" lon="3.53728">
        <ele>456</ele>
        <time>2024-12-07T23:07:18.619Z</time>
      </trkpt>
      <trkpt lat="45.86328" lon="3.53731">
        <ele>456</ele>
        <time>2024-12-07T23:07:19.620Z</time>
      </trkpt>
      <trkpt lat="45.86328" lon="3.53733">
        <ele>455</ele>
        <time>2024-12-07T23:07:20.619Z</time>
      </trkpt>
      <trkpt lat="45.86328" lon="3.53735">
        <ele>455</ele>
        <time>2024-12-07T23:07:21.619Z</time>
      </trkpt>
      <trkpt lat="45.86329" lon="3.53738">
        <ele>455</ele>
        <time>2024-12-07T23:07:22.619Z</time>
      </trkpt>
      <trkpt lat="45.86329" lon="3.5374">
        <ele>454</ele>
        <time>2024-12-07T23:07:23.620Z</time>
      </trkpt>
      <trkpt lat="45.8633" lon="3.53742">
        <ele>454</ele>
        <time>2024-12-07T23:07:24.619Z</time>
      </trkpt>
      <trkpt lat="45.8633" lon="3.53745">
        <ele>454</ele>
        <time>2024-12-07T23:07:25.620Z</time>
      </trkpt>
      <trkpt lat="45.86331" lon="3.53747">
        <ele>454</ele>
        <time>2024-12-07T23:07:26.619Z</time>
      </trkpt>
      <trkpt lat="45.86332" lon="3.53749">
        <ele>453</ele>
        <time>2024-12-07T23:07:27.619Z</time>
      </trkpt>
      <trkpt lat="45.86333" lon="3.53751">
        <ele>453</ele>
        <time>2024-12-07T23:07:28.619Z</time>
      </trkpt>
      <trkpt lat="45.86334" lon="3.53752">
        <ele>453</ele>
        <time>2024-12-07T23:07:29.619Z</time>
      </trkpt>
      <trkpt lat="45.86336" lon="3.53754">
        <ele>452</ele>
        <time>2024-12-07T23:07:30.620Z</time>
      </trkpt>
      <trkpt lat="45.86337" lon="3.53755">
        <ele>452</ele>
        <time>2024-12-07T23:07:31.619Z</time>
      </trkpt>
      <trkpt lat="45.86338" lon="3.53756">
        <ele>452</ele>
        <time>2024-12-07T23:07:32.620Z</time>
      </trkpt>
      <trkpt lat="45.86338" lon="3.53758">
        <ele>451</ele>
        <time>2024-12-07T23:07:33.619Z</time>
      </trkpt>
      <trkpt lat="45.86339" lon="3.53759">
        <ele>451</ele>
        <time>2024-12-07T23:07:34.620Z</time>
      </trkpt>
      <trkpt lat="45.86339" lon="3.5376">
        <ele>451</ele>
        <time>2024-12-07T23:07:35.619Z</time>
      </trkpt>
      <trkpt lat="45.8634" lon="3.53761">
        <ele>451</ele>
        <time>2024-12-07T23:07:36.620Z</time>
      </trkpt>
      <trkpt lat="45.86341" lon="3.53762">
        <ele>451</ele>
        <time>2024-12-07T23:07:37.619Z</time>
      </trkpt>
      <trkpt lat="45.86342" lon="3.53762">
        <ele>450</ele>
        <time>2024-12-07T23:07:38.620Z</time>
      </trkpt>
      <trkpt lat="45.86344" lon="3.53762">
        <ele>450</ele>
        <time>2024-12-07T23:07:39.619Z</time>
      </trkpt>
      <trkpt lat="45.86345" lon="3.53762">
        <ele>450</ele>
        <time>2024-12-07T23:07:40.620Z</time>
      </trkpt>
      <trkpt lat="45.86346" lon="3.53764">
        <ele>450</ele>
        <time>2024-12-07T23:07:41.619Z</time>
      </trkpt>
      <trkpt lat="45.86348" lon="3.53764">
        <ele>450</ele>
        <time>2024-12-07T23:07:42.620Z</time>
      </trkpt>
      <trkpt lat="45.8635" lon="3.53765">
        <ele>450</ele>
        <time>2024-12-07T23:07:43.619Z</time>
      </trkpt>
      <trkpt lat="45.86352" lon="3.53766">
        <ele>450</ele>
        <time>2024-12-07T23:07:44.619Z</time>
      </trkpt>
      <trkpt lat="45.86354" lon="3.53767">
        <ele>451</ele>
        <time>2024-12-07T23:07:45.620Z</time>
      </trkpt>
      <trkpt lat="45.86356" lon="3.53768">
        <ele>451</ele>
        <time>2024-12-07T23:07:46.619Z</time>
      </trkpt>
      <trkpt lat="45.86357" lon="3.53769">
        <ele>452</ele>
        <time>2024-12-07T23:07:47.619Z</time>
      </trkpt>
      <trkpt lat="45.86359" lon="3.5377">
        <ele>452</ele>
        <time>2024-12-07T23:07:48.619Z</time>
      </trkpt>
      <trkpt lat="45.8636" lon="3.53771">
        <ele>452</ele>
        <time>2024-12-07T23:07:49.620Z</time>
      </trkpt>
      <trkpt lat="45.86362" lon="3.53772">
        <ele>453</ele>
        <time>2024-12-07T23:07:50.619Z</time>
      </trkpt>
      <trkpt lat="45.86364" lon="3.53772">
        <ele>453</ele>
        <time>2024-12-07T23:07:51.620Z</time>
      </trkpt>
      <trkpt lat="45.86367" lon="3.53773">
        <ele>454</ele>
        <time>2024-12-07T23:07:52.619Z</time>
      </trkpt>
      <trkpt lat="45.86369" lon="3.53773">
        <ele>454</ele>
        <time>2024-12-07T23:07:53.619Z</time>
      </trkpt>
      <trkpt lat="45.86371" lon="3.53773">
        <ele>454</ele>
        <time>2024-12-07T23:07:54.620Z</time>
      </trkpt>
      <trkpt lat="45.86372" lon="3.53773">
        <ele>455</ele>
        <time>2024-12-07T23:07:55.619Z</time>
      </trkpt>
      <trkpt lat="45.86374" lon="3.53773">
        <ele>455</ele>
        <time>2024-12-07T23:07:56.619Z</time>
      </trkpt>
      <trkpt lat="45.86376" lon="3.53773">
        <ele>456</ele>
        <time>2024-12-07T23:07:57.620Z</time>
      </trkpt>
      <trkpt lat="45.86377" lon="3.53773">
        <ele>456</ele>
        <time>2024-12-07T23:07:58.620Z</time>
      </trkpt>
      <trkpt lat="45.8638" lon="3.53773">
        <ele>457</ele>
        <time>2024-12-07T23:07:59.620Z</time>
      </trkpt>
      <trkpt lat="45.86382" lon="3.53772">
        <ele>457</ele>
        <time>2024-12-07T23:08:00.619Z</time>
      </trkpt>
      <trkpt lat="45.86385" lon="3.53772">
        <ele>458</ele>
        <time>2024-12-07T23:08:01.620Z</time>
      </trkpt>
      <trkpt lat="45.86387" lon="3.53772">
        <ele>458</ele>
        <time>2024-12-07T23:08:02.620Z</time>
      </trkpt>
      <trkpt lat="45.86388" lon="3.53772">
        <ele>459</ele>
        <time>2024-12-07T23:08:03.619Z</time>
      </trkpt>
      <trkpt lat="45.86389" lon="3.53772">
        <ele>459</ele>
        <time>2024-12-07T23:08:04.619Z</time>
      </trkpt>
      <trkpt lat="45.86391" lon="3.53772">
        <ele>459</ele>
        <time>2024-12-07T23:08:05.620Z</time>
      </trkpt>
      <trkpt lat="45.86394" lon="3.53771">
        <ele>460</ele>
        <time>2024-12-07T23:08:06.620Z</time>
      </trkpt>
      <trkpt lat="45.86397" lon="3.5377">
        <ele>460</ele>
        <time>2024-12-07T23:08:07.619Z</time>
      </trkpt>
      <trkpt lat="45.86399" lon="3.53769">
        <ele>461</ele>
        <time>2024-12-07T23:08:08.619Z</time>
      </trkpt>
      <trkpt lat="45.86401" lon="3.53768">
        <ele>461</ele>
        <time>2024-12-07T23:08:09.619Z</time>
      </trkpt>
      <trkpt lat="45.86403" lon="3.53767">
        <ele>461</ele>
        <time>2024-12-07T23:08:10.619Z</time>
      </trkpt>
      <trkpt lat="45.86405" lon="3.53766">
        <ele>462</ele>
        <time>2024-12-07T23:08:11.620Z</time>
      </trkpt>
      <trkpt lat="45.86406" lon="3.53766">
        <ele>462</ele>
        <time>2024-12-07T23:08:12.619Z</time>
      </trkpt>
      <trkpt lat="45.86408" lon="3.53765">
        <ele>462</ele>
        <time>2024-12-07T23:08:13.619Z</time>
      </trkpt>
      <trkpt lat="45.8641" lon="3.53764">
        <ele>463</ele>
        <time>2024-12-07T23:08:14.620Z</time>
      </trkpt>
      <trkpt lat="45.86413" lon="3.53764">
        <ele>463</ele>
        <time>2024-12-07T23:08:15.619Z</time>
      </trkpt>
      <trkpt lat="45.86415" lon="3.53763">
        <ele>463</ele>
        <time>2024-12-07T23:08:16.620Z</time>
      </trkpt>
      <trkpt lat="45.86418" lon="3.53763">
        <ele>464</ele>
        <time>2024-12-07T23:08:17.619Z</time>
      </trkpt>
      <trkpt lat="45.8642" lon="3.53762">
        <ele>464</ele>
        <time>2024-12-07T23:08:18.619Z</time>
      </trkpt>
      <trkpt lat="45.86423" lon="3.53762">
        <ele>464</ele>
        <time>2024-12-07T23:08:19.619Z</time>
      </trkpt>
      <trkpt lat="45.86424" lon="3.53762">
        <ele>464</ele>
        <time>2024-12-07T23:08:20.620Z</time>
      </trkpt>
      <trkpt lat="45.86425" lon="3.53762">
        <ele>464</ele>
        <time>2024-12-07T23:08:21.620Z</time>
      </trkpt>
      <trkpt lat="45.86427" lon="3.53761">
        <ele>464</ele>
        <time>2024-12-07T23:08:22.619Z</time>
      </trkpt>
      <trkpt lat="45.86428" lon="3.53761">
        <ele>464</ele>
        <time>2024-12-07T23:08:23.620Z</time>
      </trkpt>
      <trkpt lat="45.8643" lon="3.53761">
        <ele>464</ele>
        <time>2024-12-07T23:08:24.620Z</time>
      </trkpt>
      <trkpt lat="45.86431" lon="3.53761">
        <ele>464</ele>
        <time>2024-12-07T23:08:25.620Z</time>
      </trkpt>
      <trkpt lat="45.86433" lon="3.5376">
        <ele>464</ele>
        <time>2024-12-07T23:08:26.620Z</time>
      </trkpt>
      <trkpt lat="45.86435" lon="3.5376">
        <ele>464</ele>
        <time>2024-12-07T23:08:27.620Z</time>
      </trkpt>
      <trkpt lat="45.86436" lon="3.53759">
        <ele>464</ele>
        <time>2024-12-07T23:08:28.619Z</time>
      </trkpt>
      <trkpt lat="45.86438" lon="3.53759">
        <ele>465</ele>
        <time>2024-12-07T23:08:29.620Z</time>
      </trkpt>
      <trkpt lat="45.86439" lon="3.5376">
        <ele>465</ele>
        <time>2024-12-07T23:08:30.620Z</time>
      </trkpt>
      <trkpt lat="45.86441" lon="3.5376">
        <ele>465</ele>
        <time>2024-12-07T23:08:31.619Z</time>
      </trkpt>
      <trkpt lat="45.86443" lon="3.53761">
        <ele>465</ele>
        <time>2024-12-07T23:08:32.620Z</time>
      </trkpt>
      <trkpt lat="45.86444" lon="3.53762">
        <ele>465</ele>
        <time>2024-12-07T23:08:33.619Z</time>
      </trkpt>
      <trkpt lat="45.86446" lon="3.53763">
        <ele>465</ele>
        <time>2024-12-07T23:08:34.620Z</time>
      </trkpt>
      <trkpt lat="45.86447" lon="3.53765">
        <ele>466</ele>
        <time>2024-12-07T23:08:35.620Z</time>
      </trkpt>
      <trkpt lat="45.86448" lon="3.53767">
        <ele>466</ele>
        <time>2024-12-07T23:08:36.619Z</time>
      </trkpt>
      <trkpt lat="45.86449" lon="3.53769">
        <ele>465</ele>
        <time>2024-12-07T23:08:37.620Z</time>
      </trkpt>
      <trkpt lat="45.86449" lon="3.53771">
        <ele>465</ele>
        <time>2024-12-07T23:08:38.619Z</time>
      </trkpt>
      <trkpt lat="45.8645" lon="3.53772">
        <ele>465</ele>
        <time>2024-12-07T23:08:39.620Z</time>
      </trkpt>
      <trkpt lat="45.86451" lon="3.53774">
        <ele>466</ele>
        <time>2024-12-07T23:08:40.619Z</time>
      </trkpt>
      <trkpt lat="45.86452" lon="3.53777">
        <ele>466</ele>
        <time>2024-12-07T23:08:41.620Z</time>
      </trkpt>
      <trkpt lat="45.86452" lon="3.53779">
        <ele>466</ele>
        <time>2024-12-07T23:08:42.620Z</time>
      </trkpt>
      <trkpt lat="45.86453" lon="3.53781">
        <ele>466</ele>
        <time>2024-12-07T23:08:43.620Z</time>
      </trkpt>
      <trkpt lat="45.86453" lon="3.53783">
        <ele>466</ele>
        <time>2024-12-07T23:08:44.619Z</time>
      </trkpt>
      <trkpt lat="45.86454" lon="3.53785">
        <ele>467</ele>
        <time>2024-12-07T23:08:45.619Z</time>
      </trkpt>
      <trkpt lat="45.86454" lon="3.53788">
        <ele>467</ele>
        <time>2024-12-07T23:08:46.620Z</time>
      </trkpt>
      <trkpt lat="45.86455" lon="3.5379">
        <ele>467</ele>
        <time>2024-12-07T23:08:47.620Z</time>
      </trkpt>
      <trkpt lat="45.86455" lon="3.53792">
        <ele>467</ele>
        <time>2024-12-07T23:08:48.619Z</time>
      </trkpt>
      <trkpt lat="45.86455" lon="3.53795">
        <ele>467</ele>
        <time>2024-12-07T23:08:49.619Z</time>
      </trkpt>
      <trkpt lat="45.86455" lon="3.53797">
        <ele>467</ele>
        <time>2024-12-07T23:08:50.620Z</time>
      </trkpt>
      <trkpt lat="45.86455" lon="3.53799">
        <ele>467</ele>
        <time>2024-12-07T23:08:51.619Z</time>
      </trkpt>
      <trkpt lat="45.86456" lon="3.53801">
        <ele>467</ele>
        <time>2024-12-07T23:08:52.620Z</time>
      </trkpt>
      <trkpt lat="45.86457" lon="3.53803">
        <ele>467</ele>
        <time>2024-12-07T23:08:53.619Z</time>
      </trkpt>
      <trkpt lat="45.86458" lon="3.53805">
        <ele>467</ele>
        <time>2024-12-07T23:08:54.620Z</time>
      </trkpt>
      <trkpt lat="45.86458" lon="3.53807">
        <ele>468</ele>
        <time>2024-12-07T23:08:55.620Z</time>
      </trkpt>
      <trkpt lat="45.86459" lon="3.53808">
        <ele>468</ele>
        <time>2024-12-07T23:08:56.619Z</time>
      </trkpt>
      <trkpt lat="45.8646" lon="3.5381">
        <ele>469</ele>
        <time>2024-12-07T23:08:57.619Z</time>
      </trkpt>
      <trkpt lat="45.8646" lon="3.53812">
        <ele>469</ele>
        <time>2024-12-07T23:08:58.620Z</time>
      </trkpt>
      <trkpt lat="45.86462" lon="3.53814">
        <ele>469</ele>
        <time>2024-12-07T23:08:59.620Z</time>
      </trkpt>
      <trkpt lat="45.86463" lon="3.53817">
        <ele>470</ele>
        <time>2024-12-07T23:09:00.620Z</time>
      </trkpt>
      <trkpt lat="45.86465" lon="3.53819">
        <ele>471</ele>
        <time>2024-12-07T23:09:01.620Z</time>
      </trkpt>
      <trkpt lat="45.86466" lon="3.53821">
        <ele>471</ele>
        <time>2024-12-07T23:09:02.620Z</time>
      </trkpt>
      <trkpt lat="45.86467" lon="3.53823">
        <ele>472</ele>
        <time>2024-12-07T23:09:03.620Z</time>
      </trkpt>
      <trkpt lat="45.86467" lon="3.53826">
        <ele>473</ele>
        <time>2024-12-07T23:09:04.620Z</time>
      </trkpt>
      <trkpt lat="45.86467" lon="3.53828">
        <ele>473</ele>
        <time>2024-12-07T23:09:05.619Z</time>
      </trkpt>
      <trkpt lat="45.86467" lon="3.53831">
        <ele>473</ele>
        <time>2024-12-07T23:09:06.619Z</time>
      </trkpt>
      <trkpt lat="45.86468" lon="3.53833">
        <ele>473</ele>
        <time>2024-12-07T23:09:07.619Z</time>
      </trkpt>
      <trkpt lat="45.86468" lon="3.53835">
        <ele>474</ele>
        <time>2024-12-07T23:09:08.620Z</time>
      </trkpt>
      <trkpt lat="45.86469" lon="3.53837">
        <ele>474</ele>
        <time>2024-12-07T23:09:09.620Z</time>
      </trkpt>
      <trkpt lat="45.8647" lon="3.53839">
        <ele>474</ele>
        <time>2024-12-07T23:09:10.619Z</time>
      </trkpt>
      <trkpt lat="45.86471" lon="3.53841">
        <ele>474</ele>
        <time>2024-12-07T23:09:11.619Z</time>
      </trkpt>
      <trkpt lat="45.86471" lon="3.53842">
        <ele>474</ele>
        <time>2024-12-07T23:09:12.619Z</time>
      </trkpt>
      <trkpt lat="45.86471" lon="3.53844">
        <ele>474</ele>
        <time>2024-12-07T23:09:13.619Z</time>
      </trkpt>
      <trkpt lat="45.86472" lon="3.53845">
        <ele>475</ele>
        <time>2024-12-07T23:09:14.619Z</time>
      </trkpt>
      <trkpt lat="45.86472" lon="3.53848">
        <ele>475</ele>
        <time>2024-12-07T23:09:15.619Z</time>
      </trkpt>
      <trkpt lat="45.86473" lon="3.5385">
        <ele>475</ele>
        <time>2024-12-07T23:09:16.620Z</time>
      </trkpt>
      <trkpt lat="45.86473" lon="3.53852">
        <ele>474</ele>
        <time>2024-12-07T23:09:17.620Z</time>
      </trkpt>
      <trkpt lat="45.86474" lon="3.53854">
        <ele>475</ele>
        <time>2024-12-07T23:09:18.619Z</time>
      </trkpt>
      <trkpt lat="45.86474" lon="3.53856">
        <ele>475</ele>
        <time>2024-12-07T23:09:19.619Z</time>
      </trkpt>
      <trkpt lat="45.86475" lon="3.53858">
        <ele>475</ele>
        <time>2024-12-07T23:09:20.619Z</time>
      </trkpt>
      <trkpt lat="45.86476" lon="3.5386">
        <ele>476</ele>
        <time>2024-12-07T23:09:21.620Z</time>
      </trkpt>
      <trkpt lat="45.86477" lon="3.53862">
        <ele>476</ele>
        <time>2024-12-07T23:09:22.620Z</time>
      </trkpt>
      <trkpt lat="45.86478" lon="3.53864">
        <ele>476</ele>
        <time>2024-12-07T23:09:23.620Z</time>
      </trkpt>
      <trkpt lat="45.86478" lon="3.53866">
        <ele>476</ele>
        <time>2024-12-07T23:09:24.619Z</time>
      </trkpt>
      <trkpt lat="45.86479" lon="3.53868">
        <ele>477</ele>
        <time>2024-12-07T23:09:25.619Z</time>
      </trkpt>
      <trkpt lat="45.86479" lon="3.5387">
        <ele>477</ele>
        <time>2024-12-07T23:09:26.619Z</time>
      </trkpt>
      <trkpt lat="45.86479" lon="3.53872">
        <ele>477</ele>
        <time>2024-12-07T23:09:27.619Z</time>
      </trkpt>
      <trkpt lat="45.86479" lon="3.53874">
        <ele>478</ele>
        <time>2024-12-07T23:09:28.619Z</time>
      </trkpt>
      <trkpt lat="45.86479" lon="3.53877">
        <ele>478</ele>
        <time>2024-12-07T23:09:29.620Z</time>
      </trkpt>
      <trkpt lat="45.86479" lon="3.5388">
        <ele>478</ele>
        <time>2024-12-07T23:09:30.619Z</time>
      </trkpt>
      <trkpt lat="45.86478" lon="3.53883">
        <ele>479</ele>
        <time>2024-12-07T23:09:31.619Z</time>
      </trkpt>
      <trkpt lat="45.86479" lon="3.53885">
        <ele>479</ele>
        <time>2024-12-07T23:09:32.619Z</time>
      </trkpt>
      <trkpt lat="45.86479" lon="3.53888">
        <ele>480</ele>
        <time>2024-12-07T23:09:33.619Z</time>
      </trkpt>
      <trkpt lat="45.8648" lon="3.5389">
        <ele>480</ele>
        <time>2024-12-07T23:09:34.620Z</time>
      </trkpt>
      <trkpt lat="45.86481" lon="3.53893">
        <ele>481</ele>
        <time>2024-12-07T23:09:35.619Z</time>
      </trkpt>
      <trkpt lat="45.8648" lon="3.53896">
        <ele>481</ele>
        <time>2024-12-07T23:09:36.620Z</time>
      </trkpt>
      <trkpt lat="45.86479" lon="3.53899">
        <ele>481</ele>
        <time>2024-12-07T23:09:37.620Z</time>
      </trkpt>
      <trkpt lat="45.86479" lon="3.53902">
        <ele>481</ele>
        <time>2024-12-07T23:09:38.619Z</time>
      </trkpt>
      <trkpt lat="45.86479" lon="3.53905">
        <ele>481</ele>
        <time>2024-12-07T23:09:39.620Z</time>
      </trkpt>
      <trkpt lat="45.86477" lon="3.53908">
        <ele>481</ele>
        <time>2024-12-07T23:09:40.619Z</time>
      </trkpt>
      <trkpt lat="45.86477" lon="3.53911">
        <ele>482</ele>
        <time>2024-12-07T23:09:41.620Z</time>
      </trkpt>
      <trkpt lat="45.86477" lon="3.53913">
        <ele>482</ele>
        <time>2024-12-07T23:09:42.619Z</time>
      </trkpt>
      <trkpt lat="45.86477" lon="3.53916">
        <ele>482</ele>
        <time>2024-12-07T23:09:43.620Z</time>
      </trkpt>
      <trkpt lat="45.86477" lon="3.53918">
        <ele>482</ele>
        <time>2024-12-07T23:09:44.619Z</time>
      </trkpt>
      <trkpt lat="45.86477" lon="3.5392">
        <ele>482</ele>
        <time>2024-12-07T23:09:45.620Z</time>
      </trkpt>
      <trkpt lat="45.86477" lon="3.53922">
        <ele>482</ele>
        <time>2024-12-07T23:09:46.619Z</time>
      </trkpt>
      <trkpt lat="45.86477" lon="3.53924">
        <ele>482</ele>
        <time>2024-12-07T23:09:47.620Z</time>
      </trkpt>
      <trkpt lat="45.86477" lon="3.53926">
        <ele>482</ele>
        <time>2024-12-07T23:09:48.619Z</time>
      </trkpt>
      <trkpt lat="45.86477" lon="3.53928">
        <ele>482</ele>
        <time>2024-12-07T23:09:49.620Z</time>
      </trkpt>
      <trkpt lat="45.86477" lon="3.53931">
        <ele>482</ele>
        <time>2024-12-07T23:09:50.619Z</time>
      </trkpt>
      <trkpt lat="45.86477" lon="3.53934">
        <ele>482</ele>
        <time>2024-12-07T23:09:51.620Z</time>
      </trkpt>
      <trkpt lat="45.86477" lon="3.53936">
        <ele>483</ele>
        <time>2024-12-07T23:09:52.620Z</time>
      </trkpt>
      <trkpt lat="45.86478" lon="3.53939">
        <ele>483</ele>
        <time>2024-12-07T23:09:53.619Z</time>
      </trkpt>
      <trkpt lat="45.86478" lon="3.53942">
        <ele>483</ele>
        <time>2024-12-07T23:09:54.620Z</time>
      </trkpt>
      <trkpt lat="45.86479" lon="3.53945">
        <ele>483</ele>
        <time>2024-12-07T23:09:55.620Z</time>
      </trkpt>
      <trkpt lat="45.8648" lon="3.53947">
        <ele>483</ele>
        <time>2024-12-07T23:09:56.619Z</time>
      </trkpt>
      <trkpt lat="45.8648" lon="3.5395">
        <ele>483</ele>
        <time>2024-12-07T23:09:57.620Z</time>
      </trkpt>
      <trkpt lat="45.86481" lon="3.53953">
        <ele>483</ele>
        <time>2024-12-07T23:09:58.620Z</time>
      </trkpt>
      <trkpt lat="45.86482" lon="3.53955">
        <ele>483</ele>
        <time>2024-12-07T23:09:59.620Z</time>
      </trkpt>
      <trkpt lat="45.86483" lon="3.53958">
        <ele>483</ele>
        <time>2024-12-07T23:10:00.620Z</time>
      </trkpt>
      <trkpt lat="45.86483" lon="3.5396">
        <ele>483</ele>
        <time>2024-12-07T23:10:01.619Z</time>
      </trkpt>
      <trkpt lat="45.86484" lon="3.53963">
        <ele>483</ele>
        <time>2024-12-07T23:10:02.619Z</time>
      </trkpt>
      <trkpt lat="45.86484" lon="3.53965">
        <ele>483</ele>
        <time>2024-12-07T23:10:03.620Z</time>
      </trkpt>
      <trkpt lat="45.86485" lon="3.53968">
        <ele>483</ele>
        <time>2024-12-07T23:10:04.619Z</time>
      </trkpt>
      <trkpt lat="45.86486" lon="3.5397">
        <ele>483</ele>
        <time>2024-12-07T23:10:05.620Z</time>
      </trkpt>
      <trkpt lat="45.86486" lon="3.53973">
        <ele>483</ele>
        <time>2024-12-07T23:10:06.619Z</time>
      </trkpt>
      <trkpt lat="45.86487" lon="3.53975">
        <ele>483</ele>
        <time>2024-12-07T23:10:07.620Z</time>
      </trkpt>
      <trkpt lat="45.86488" lon="3.53977">
        <ele>483</ele>
        <time>2024-12-07T23:10:08.619Z</time>
      </trkpt>
      <trkpt lat="45.86489" lon="3.53979">
        <ele>483</ele>
        <time>2024-12-07T23:10:09.619Z</time>
      </trkpt>
      <trkpt lat="45.8649" lon="3.53981">
        <ele>483</ele>
        <time>2024-12-07T23:10:10.620Z</time>
      </trkpt>
      <trkpt lat="45.86491" lon="3.53983">
        <ele>483</ele>
        <time>2024-12-07T23:10:11.620Z</time>
      </trkpt>
      <trkpt lat="45.86492" lon="3.53986">
        <ele>483</ele>
        <time>2024-12-07T23:10:12.620Z</time>
      </trkpt>
      <trkpt lat="45.86493" lon="3.53988">
        <ele>484</ele>
        <time>2024-12-07T23:10:13.619Z</time>
      </trkpt>
      <trkpt lat="45.86493" lon="3.5399">
        <ele>484</ele>
        <time>2024-12-07T23:10:14.619Z</time>
      </trkpt>
      <trkpt lat="45.86494" lon="3.53993">
        <ele>484</ele>
        <time>2024-12-07T23:10:15.620Z</time>
      </trkpt>
      <trkpt lat="45.86494" lon="3.53995">
        <ele>484</ele>
        <time>2024-12-07T23:10:16.620Z</time>
      </trkpt>
      <trkpt lat="45.86495" lon="3.53997">
        <ele>484</ele>
        <time>2024-12-07T23:10:17.620Z</time>
      </trkpt>
      <trkpt lat="45.86495" lon="3.54">
        <ele>484</ele>
        <time>2024-12-07T23:10:18.619Z</time>
      </trkpt>
      <trkpt lat="45.86495" lon="3.54002">
        <ele>485</ele>
        <time>2024-12-07T23:10:19.620Z</time>
      </trkpt>
      <trkpt lat="45.86496" lon="3.54004">
        <ele>485</ele>
        <time>2024-12-07T23:10:20.620Z</time>
      </trkpt>
      <trkpt lat="45.86496" lon="3.54007">
        <ele>485</ele>
        <time>2024-12-07T23:10:21.619Z</time>
      </trkpt>
      <trkpt lat="45.86497" lon="3.54009">
        <ele>485</ele>
        <time>2024-12-07T23:10:22.620Z</time>
      </trkpt>
      <trkpt lat="45.86497" lon="3.54011">
        <ele>486</ele>
        <time>2024-12-07T23:10:23.619Z</time>
      </trkpt>
      <trkpt lat="45.86498" lon="3.54013">
        <ele>486</ele>
        <time>2024-12-07T23:10:24.619Z</time>
      </trkpt>
      <trkpt lat="45.86498" lon="3.54015">
        <ele>486</ele>
        <time>2024-12-07T23:10:25.620Z</time>
      </trkpt>
      <trkpt lat="45.86498" lon="3.54017">
        <ele>487</ele>
        <time>2024-12-07T23:10:26.620Z</time>
      </trkpt>
      <trkpt lat="45.86499" lon="3.54019">
        <ele>487</ele>
        <time>2024-12-07T23:10:27.620Z</time>
      </trkpt>
      <trkpt lat="45.865" lon="3.54021">
        <ele>488</ele>
        <time>2024-12-07T23:10:28.619Z</time>
      </trkpt>
      <trkpt lat="45.86502" lon="3.54023">
        <ele>488</ele>
        <time>2024-12-07T23:10:29.619Z</time>
      </trkpt>
      <trkpt lat="45.86503" lon="3.54025">
        <ele>488</ele>
        <time>2024-12-07T23:10:30.620Z</time>
      </trkpt>
      <trkpt lat="45.86504" lon="3.54026">
        <ele>488</ele>
        <time>2024-12-07T23:10:31.620Z</time>
      </trkpt>
      <trkpt lat="45.86506" lon="3.54028">
        <ele>488</ele>
        <time>2024-12-07T23:10:32.620Z</time>
      </trkpt>
      <trkpt lat="45.86507" lon="3.54029">
        <ele>488</ele>
        <time>2024-12-07T23:10:33.620Z</time>
      </trkpt>
      <trkpt lat="45.86509" lon="3.5403">
        <ele>488</ele>
        <time>2024-12-07T23:10:34.619Z</time>
      </trkpt>
      <trkpt lat="45.8651" lon="3.54031">
        <ele>488</ele>
        <time>2024-12-07T23:10:35.619Z</time>
      </trkpt>
      <trkpt lat="45.8651" lon="3.54033">
        <ele>487</ele>
        <time>2024-12-07T23:10:36.619Z</time>
      </trkpt>
      <trkpt lat="45.86512" lon="3.54033">
        <ele>487</ele>
        <time>2024-12-07T23:10:37.619Z</time>
      </trkpt>
      <trkpt lat="45.86513" lon="3.54034">
        <ele>487</ele>
        <time>2024-12-07T23:10:38.620Z</time>
      </trkpt>
      <trkpt lat="45.86515" lon="3.54035">
        <ele>488</ele>
        <time>2024-12-07T23:10:39.620Z</time>
      </trkpt>
      <trkpt lat="45.86516" lon="3.54035">
        <ele>488</ele>
        <time>2024-12-07T23:10:40.620Z</time>
      </trkpt>
      <trkpt lat="45.86518" lon="3.54036">
        <ele>488</ele>
        <time>2024-12-07T23:10:41.620Z</time>
      </trkpt>
      <trkpt lat="45.86519" lon="3.54036">
        <ele>488</ele>
        <time>2024-12-07T23:10:42.619Z</time>
      </trkpt>
      <trkpt lat="45.8652" lon="3.54037">
        <ele>488</ele>
        <time>2024-12-07T23:10:43.620Z</time>
      </trkpt>
      <trkpt lat="45.86521" lon="3.54037">
        <ele>488</ele>
        <time>2024-12-07T23:10:44.620Z</time>
      </trkpt>
      <trkpt lat="45.86522" lon="3.54037">
        <ele>489</ele>
        <time>2024-12-07T23:10:45.620Z</time>
      </trkpt>
      <trkpt lat="45.86523" lon="3.54037">
        <ele>489</ele>
        <time>2024-12-07T23:10:46.619Z</time>
      </trkpt>
      <trkpt lat="45.86524" lon="3.54038">
        <ele>489</ele>
        <time>2024-12-07T23:10:47.620Z</time>
      </trkpt>
      <trkpt lat="45.86525" lon="3.54038">
        <ele>490</ele>
        <time>2024-12-07T23:10:48.619Z</time>
      </trkpt>
      <trkpt lat="45.86525" lon="3.54038">
        <ele>490</ele>
        <time>2024-12-07T23:10:49.619Z</time>
      </trkpt>
      <trkpt lat="45.86527" lon="3.54038">
        <ele>490</ele>
        <time>2024-12-07T23:10:50.619Z</time>
      </trkpt>
      <trkpt lat="45.86528" lon="3.54039">
        <ele>490</ele>
        <time>2024-12-07T23:10:51.619Z</time>
      </trkpt>
      <trkpt lat="45.8653" lon="3.54039">
        <ele>490</ele>
        <time>2024-12-07T23:10:52.619Z</time>
      </trkpt>
      <trkpt lat="45.86532" lon="3.54039">
        <ele>490</ele>
        <time>2024-12-07T23:10:53.620Z</time>
      </trkpt>
      <trkpt lat="45.86534" lon="3.54039">
        <ele>491</ele>
        <time>2024-12-07T23:10:54.620Z</time>
      </trkpt>
      <trkpt lat="45.86537" lon="3.5404">
        <ele>491</ele>
        <time>2024-12-07T23:10:55.619Z</time>
      </trkpt>
      <trkpt lat="45.86539" lon="3.5404">
        <ele>492</ele>
        <time>2024-12-07T23:10:56.619Z</time>
      </trkpt>
      <trkpt lat="45.86542" lon="3.5404">
        <ele>493</ele>
        <time>2024-12-07T23:10:57.619Z</time>
      </trkpt>
      <trkpt lat="45.86544" lon="3.54041">
        <ele>494</ele>
        <time>2024-12-07T23:10:58.620Z</time>
      </trkpt>
      <trkpt lat="45.86545" lon="3.54042">
        <ele>495</ele>
        <time>2024-12-07T23:10:59.620Z</time>
      </trkpt>
      <trkpt lat="45.86546" lon="3.54043">
        <ele>495</ele>
        <time>2024-12-07T23:11:00.620Z</time>
      </trkpt>
      <trkpt lat="45.86547" lon="3.54044">
        <ele>495</ele>
        <time>2024-12-07T23:11:01.620Z</time>
      </trkpt>
      <trkpt lat="45.86549" lon="3.54045">
        <ele>495</ele>
        <time>2024-12-07T23:11:02.620Z</time>
      </trkpt>
      <trkpt lat="45.8655" lon="3.54046">
        <ele>496</ele>
        <time>2024-12-07T23:11:03.620Z</time>
      </trkpt>
      <trkpt lat="45.8655" lon="3.54047">
        <ele>496</ele>
        <time>2024-12-07T23:11:04.620Z</time>
      </trkpt>
      <trkpt lat="45.86551" lon="3.54049">
        <ele>496</ele>
        <time>2024-12-07T23:11:05.620Z</time>
      </trkpt>
      <trkpt lat="45.86552" lon="3.54051">
        <ele>496</ele>
        <time>2024-12-07T23:11:06.620Z</time>
      </trkpt>
      <trkpt lat="45.86553" lon="3.54052">
        <ele>496</ele>
        <time>2024-12-07T23:11:07.619Z</time>
      </trkpt>
      <trkpt lat="45.86554" lon="3.54054">
        <ele>496</ele>
        <time>2024-12-07T23:11:08.619Z</time>
      </trkpt>
      <trkpt lat="45.86555" lon="3.54056">
        <ele>496</ele>
        <time>2024-12-07T23:11:09.620Z</time>
      </trkpt>
      <trkpt lat="45.86556" lon="3.54058">
        <ele>496</ele>
        <time>2024-12-07T23:11:10.619Z</time>
      </trkpt>
      <trkpt lat="45.86556" lon="3.5406">
        <ele>496</ele>
        <time>2024-12-07T23:11:11.619Z</time>
      </trkpt>
      <trkpt lat="45.86557" lon="3.54062">
        <ele>496</ele>
        <time>2024-12-07T23:11:12.619Z</time>
      </trkpt>
      <trkpt lat="45.86558" lon="3.54064">
        <ele>497</ele>
        <time>2024-12-07T23:11:13.619Z</time>
      </trkpt>
      <trkpt lat="45.86559" lon="3.54066">
        <ele>497</ele>
        <time>2024-12-07T23:11:14.620Z</time>
      </trkpt>
      <trkpt lat="45.8656" lon="3.54068">
        <ele>497</ele>
        <time>2024-12-07T23:11:15.620Z</time>
      </trkpt>
      <trkpt lat="45.8656" lon="3.5407">
        <ele>497</ele>
        <time>2024-12-07T23:11:16.620Z</time>
      </trkpt>
      <trkpt lat="45.86561" lon="3.54072">
        <ele>497</ele>
        <time>2024-12-07T23:11:17.619Z</time>
      </trkpt>
      <trkpt lat="45.86562" lon="3.54074">
        <ele>498</ele>
        <time>2024-12-07T23:11:18.620Z</time>
      </trkpt>
      <trkpt lat="45.86562" lon="3.54076">
        <ele>498</ele>
        <time>2024-12-07T23:11:19.619Z</time>
      </trkpt>
      <trkpt lat="45.86563" lon="3.54078">
        <ele>498</ele>
        <time>2024-12-07T23:11:20.619Z</time>
      </trkpt>
      <trkpt lat="45.86563" lon="3.5408">
        <ele>498</ele>
        <time>2024-12-07T23:11:21.620Z</time>
      </trkpt>
      <trkpt lat="45.86563" lon="3.54082">
        <ele>498</ele>
        <time>2024-12-07T23:11:22.619Z</time>
      </trkpt>
      <trkpt lat="45.86564" lon="3.54084">
        <ele>499</ele>
        <time>2024-12-07T23:11:23.619Z</time>
      </trkpt>
      <trkpt lat="45.86565" lon="3.54086">
        <ele>499</ele>
        <time>2024-12-07T23:11:24.619Z</time>
      </trkpt>
      <trkpt lat="45.86566" lon="3.54088">
        <ele>499</ele>
        <time>2024-12-07T23:11:25.619Z</time>
      </trkpt>
      <trkpt lat="45.86567" lon="3.5409">
        <ele>499</ele>
        <time>2024-12-07T23:11:26.620Z</time>
      </trkpt>
      <trkpt lat="45.86569" lon="3.54092">
        <ele>500</ele>
        <time>2024-12-07T23:11:27.619Z</time>
      </trkpt>
      <trkpt lat="45.8657" lon="3.54093">
        <ele>500</ele>
        <time>2024-12-07T23:11:28.619Z</time>
      </trkpt>
      <trkpt lat="45.86572" lon="3.54095">
        <ele>500</ele>
        <time>2024-12-07T23:11:29.619Z</time>
      </trkpt>
      <trkpt lat="45.86572" lon="3.54097">
        <ele>500</ele>
        <time>2024-12-07T23:11:30.620Z</time>
      </trkpt>
      <trkpt lat="45.86574" lon="3.54099">
        <ele>500</ele>
        <time>2024-12-07T23:11:31.619Z</time>
      </trkpt>
      <trkpt lat="45.86575" lon="3.54101">
        <ele>500</ele>
        <time>2024-12-07T23:11:32.620Z</time>
      </trkpt>
      <trkpt lat="45.86576" lon="3.54103">
        <ele>500</ele>
        <time>2024-12-07T23:11:33.620Z</time>
      </trkpt>
      <trkpt lat="45.86578" lon="3.54106">
        <ele>500</ele>
        <time>2024-12-07T23:11:34.620Z</time>
      </trkpt>
      <trkpt lat="45.86577" lon="3.54108">
        <ele>500</ele>
        <time>2024-12-07T23:11:35.620Z</time>
      </trkpt>
      <trkpt lat="45.86577" lon="3.54111">
        <ele>500</ele>
        <time>2024-12-07T23:11:36.619Z</time>
      </trkpt>
      <trkpt lat="45.86578" lon="3.54113">
        <ele>500</ele>
        <time>2024-12-07T23:11:37.619Z</time>
      </trkpt>
      <trkpt lat="45.86577" lon="3.54116">
        <ele>500</ele>
        <time>2024-12-07T23:11:38.620Z</time>
      </trkpt>
      <trkpt lat="45.86578" lon="3.54118">
        <ele>500</ele>
        <time>2024-12-07T23:11:39.619Z</time>
      </trkpt>
      <trkpt lat="45.86577" lon="3.54121">
        <ele>500</ele>
        <time>2024-12-07T23:11:40.620Z</time>
      </trkpt>
      <trkpt lat="45.86577" lon="3.54124">
        <ele>501</ele>
        <time>2024-12-07T23:11:41.620Z</time>
      </trkpt>
      <trkpt lat="45.86577" lon="3.54127">
        <ele>501</ele>
        <time>2024-12-07T23:11:42.620Z</time>
      </trkpt>
      <trkpt lat="45.86577" lon="3.5413">
        <ele>501</ele>
        <time>2024-12-07T23:11:43.619Z</time>
      </trkpt>
      <trkpt lat="45.86577" lon="3.54133">
        <ele>501</ele>
        <time>2024-12-07T23:11:44.619Z</time>
      </trkpt>
      <trkpt lat="45.86576" lon="3.54135">
        <ele>502</ele>
        <time>2024-12-07T23:11:45.619Z</time>
      </trkpt>
      <trkpt lat="45.86576" lon="3.54138">
        <ele>502</ele>
        <time>2024-12-07T23:11:46.619Z</time>
      </trkpt>
      <trkpt lat="45.86576" lon="3.5414">
        <ele>502</ele>
        <time>2024-12-07T23:11:47.620Z</time>
      </trkpt>
      <trkpt lat="45.86576" lon="3.54142">
        <ele>502</ele>
        <time>2024-12-07T23:11:48.620Z</time>
      </trkpt>
      <trkpt lat="45.86576" lon="3.54145">
        <ele>503</ele>
        <time>2024-12-07T23:11:49.619Z</time>
      </trkpt>
      <trkpt lat="45.86576" lon="3.54147">
        <ele>503</ele>
        <time>2024-12-07T23:11:50.619Z</time>
      </trkpt>
      <trkpt lat="45.86575" lon="3.5415">
        <ele>503</ele>
        <time>2024-12-07T23:11:51.619Z</time>
      </trkpt>
      <trkpt lat="45.86575" lon="3.54152">
        <ele>503</ele>
        <time>2024-12-07T23:11:52.619Z</time>
      </trkpt>
      <trkpt lat="45.86575" lon="3.54155">
        <ele>503</ele>
        <time>2024-12-07T23:11:53.619Z</time>
      </trkpt>
      <trkpt lat="45.86575" lon="3.54158">
        <ele>503</ele>
        <time>2024-12-07T23:11:54.619Z</time>
      </trkpt>
      <trkpt lat="45.86575" lon="3.5416">
        <ele>503</ele>
        <time>2024-12-07T23:11:55.620Z</time>
      </trkpt>
      <trkpt lat="45.86575" lon="3.54163">
        <ele>503</ele>
        <time>2024-12-07T23:11:56.619Z</time>
      </trkpt>
      <trkpt lat="45.86575" lon="3.54166">
        <ele>503</ele>
        <time>2024-12-07T23:11:57.620Z</time>
      </trkpt>
      <trkpt lat="45.86575" lon="3.54168">
        <ele>503</ele>
        <time>2024-12-07T23:11:58.620Z</time>
      </trkpt>
      <trkpt lat="45.86575" lon="3.54171">
        <ele>503</ele>
        <time>2024-12-07T23:11:59.620Z</time>
      </trkpt>
      <trkpt lat="45.86574" lon="3.54174">
        <ele>503</ele>
        <time>2024-12-07T23:12:00.620Z</time>
      </trkpt>
      <trkpt lat="45.86574" lon="3.54177">
        <ele>502</ele>
        <time>2024-12-07T23:12:01.620Z</time>
      </trkpt>
      <trkpt lat="45.86574" lon="3.54179">
        <ele>502</ele>
        <time>2024-12-07T23:12:02.619Z</time>
      </trkpt>
      <trkpt lat="45.86574" lon="3.54182">
        <ele>502</ele>
        <time>2024-12-07T23:12:03.620Z</time>
      </trkpt>
      <trkpt lat="45.86574" lon="3.54185">
        <ele>502</ele>
        <time>2024-12-07T23:12:04.620Z</time>
      </trkpt>
      <trkpt lat="45.86573" lon="3.54188">
        <ele>502</ele>
        <time>2024-12-07T23:12:05.619Z</time>
      </trkpt>
      <trkpt lat="45.86573" lon="3.5419">
        <ele>501</ele>
        <time>2024-12-07T23:12:06.619Z</time>
      </trkpt>
      <trkpt lat="45.86573" lon="3.54193">
        <ele>501</ele>
        <time>2024-12-07T23:12:07.619Z</time>
      </trkpt>
      <trkpt lat="45.86573" lon="3.54195">
        <ele>501</ele>
        <time>2024-12-07T23:12:08.619Z</time>
      </trkpt>
      <trkpt lat="45.86573" lon="3.54198">
        <ele>501</ele>
        <time>2024-12-07T23:12:09.620Z</time>
      </trkpt>
      <trkpt lat="45.86572" lon="3.54201">
        <ele>501</ele>
        <time>2024-12-07T23:12:10.619Z</time>
      </trkpt>
      <trkpt lat="45.86572" lon="3.54204">
        <ele>501</ele>
        <time>2024-12-07T23:12:11.620Z</time>
      </trkpt>
      <trkpt lat="45.86572" lon="3.54206">
        <ele>501</ele>
        <time>2024-12-07T23:12:12.619Z</time>
      </trkpt>
      <trkpt lat="45.86572" lon="3.54209">
        <ele>501</ele>
        <time>2024-12-07T23:12:13.619Z</time>
      </trkpt>
      <trkpt lat="45.86572" lon="3.54212">
        <ele>501</ele>
        <time>2024-12-07T23:12:14.619Z</time>
      </trkpt>
      <trkpt lat="45.86572" lon="3.54215">
        <ele>501</ele>
        <time>2024-12-07T23:12:15.619Z</time>
      </trkpt>
      <trkpt lat="45.86572" lon="3.54217">
        <ele>501</ele>
        <time>2024-12-07T23:12:16.620Z</time>
      </trkpt>
      <trkpt lat="45.86572" lon="3.5422">
        <ele>501</ele>
        <time>2024-12-07T23:12:17.620Z</time>
      </trkpt>
      <trkpt lat="45.86572" lon="3.54222">
        <ele>502</ele>
        <time>2024-12-07T23:12:18.620Z</time>
      </trkpt>
      <trkpt lat="45.86571" lon="3.54225">
        <ele>502</ele>
        <time>2024-12-07T23:12:19.619Z</time>
      </trkpt>
      <trkpt lat="45.86571" lon="3.54228">
        <ele>502</ele>
        <time>2024-12-07T23:12:20.620Z</time>
      </trkpt>
      <trkpt lat="45.86571" lon="3.54231">
        <ele>503</ele>
        <time>2024-12-07T23:12:21.619Z</time>
      </trkpt>
      <trkpt lat="45.8657" lon="3.54234">
        <ele>503</ele>
        <time>2024-12-07T23:12:22.619Z</time>
      </trkpt>
      <trkpt lat="45.8657" lon="3.54236">
        <ele>503</ele>
        <time>2024-12-07T23:12:23.619Z</time>
      </trkpt>
      <trkpt lat="45.8657" lon="3.54239">
        <ele>503</ele>
        <time>2024-12-07T23:12:24.619Z</time>
      </trkpt>
      <trkpt lat="45.86569" lon="3.54242">
        <ele>503</ele>
        <time>2024-12-07T23:12:25.619Z</time>
      </trkpt>
      <trkpt lat="45.86569" lon="3.54245">
        <ele>503</ele>
        <time>2024-12-07T23:12:26.619Z</time>
      </trkpt>
      <trkpt lat="45.86569" lon="3.54247">
        <ele>504</ele>
        <time>2024-12-07T23:12:27.620Z</time>
      </trkpt>
      <trkpt lat="45.86569" lon="3.5425">
        <ele>504</ele>
        <time>2024-12-07T23:12:28.619Z</time>
      </trkpt>
      <trkpt lat="45.86569" lon="3.54253">
        <ele>505</ele>
        <time>2024-12-07T23:12:29.619Z</time>
      </trkpt>
      <trkpt lat="45.86568" lon="3.54255">
        <ele>505</ele>
        <time>2024-12-07T23:12:30.620Z</time>
      </trkpt>
      <trkpt lat="45.86568" lon="3.54258">
        <ele>505</ele>
        <time>2024-12-07T23:12:31.620Z</time>
      </trkpt>
      <trkpt lat="45.86568" lon="3.54261">
        <ele>505</ele>
        <time>2024-12-07T23:12:32.619Z</time>
      </trkpt>
      <trkpt lat="45.86568" lon="3.54264">
        <ele>505</ele>
        <time>2024-12-07T23:12:33.620Z</time>
      </trkpt>
      <trkpt lat="45.86568" lon="3.54267">
        <ele>506</ele>
        <time>2024-12-07T23:12:34.620Z</time>
      </trkpt>
      <trkpt lat="45.86568" lon="3.5427">
        <ele>506</ele>
        <time>2024-12-07T23:12:35.620Z</time>
      </trkpt>
      <trkpt lat="45.86567" lon="3.54273">
        <ele>506</ele>
        <time>2024-12-07T23:12:36.620Z</time>
      </trkpt>
      <trkpt lat="45.86567" lon="3.54276">
        <ele>506</ele>
        <time>2024-12-07T23:12:37.619Z</time>
      </trkpt>
      <trkpt lat="45.86568" lon="3.54278">
        <ele>506</ele>
        <time>2024-12-07T23:12:38.619Z</time>
      </trkpt>
      <trkpt lat="45.86567" lon="3.54281">
        <ele>506</ele>
        <time>2024-12-07T23:12:39.619Z</time>
      </trkpt>
      <trkpt lat="45.86567" lon="3.54284">
        <ele>505</ele>
        <time>2024-12-07T23:12:40.619Z</time>
      </trkpt>
      <trkpt lat="45.86568" lon="3.54287">
        <ele>505</ele>
        <time>2024-12-07T23:12:41.619Z</time>
      </trkpt>
      <trkpt lat="45.86568" lon="3.54289">
        <ele>505</ele>
        <time>2024-12-07T23:12:42.619Z</time>
      </trkpt>
      <trkpt lat="45.86567" lon="3.54292">
        <ele>504</ele>
        <time>2024-12-07T23:12:43.620Z</time>
      </trkpt>
      <trkpt lat="45.86567" lon="3.54296">
        <ele>504</ele>
        <time>2024-12-07T23:12:44.620Z</time>
      </trkpt>
      <trkpt lat="45.86568" lon="3.54299">
        <ele>504</ele>
        <time>2024-12-07T23:12:45.619Z</time>
      </trkpt>
      <trkpt lat="45.86568" lon="3.54301">
        <ele>504</ele>
        <time>2024-12-07T23:12:46.619Z</time>
      </trkpt>
      <trkpt lat="45.86568" lon="3.54304">
        <ele>503</ele>
        <time>2024-12-07T23:12:47.619Z</time>
      </trkpt>
      <trkpt lat="45.86568" lon="3.54307">
        <ele>503</ele>
        <time>2024-12-07T23:12:48.619Z</time>
      </trkpt>
      <trkpt lat="45.86568" lon="3.54309">
        <ele>503</ele>
        <time>2024-12-07T23:12:49.620Z</time>
      </trkpt>
      <trkpt lat="45.86569" lon="3.54312">
        <ele>503</ele>
        <time>2024-12-07T23:12:50.619Z</time>
      </trkpt>
      <trkpt lat="45.86569" lon="3.54315">
        <ele>503</ele>
        <time>2024-12-07T23:12:51.619Z</time>
      </trkpt>
      <trkpt lat="45.8657" lon="3.54318">
        <ele>503</ele>
        <time>2024-12-07T23:12:52.619Z</time>
      </trkpt>
      <trkpt lat="45.8657" lon="3.54321">
        <ele>503</ele>
        <time>2024-12-07T23:12:53.619Z</time>
      </trkpt>
      <trkpt lat="45.8657" lon="3.54324">
        <ele>503</ele>
        <time>2024-12-07T23:12:54.619Z</time>
      </trkpt>
      <trkpt lat="45.86571" lon="3.54327">
        <ele>503</ele>
        <time>2024-12-07T23:12:55.619Z</time>
      </trkpt>
      <trkpt lat="45.86571" lon="3.54329">
        <ele>503</ele>
        <time>2024-12-07T23:12:56.620Z</time>
      </trkpt>
      <trkpt lat="45.86572" lon="3.54332">
        <ele>503</ele>
        <time>2024-12-07T23:12:57.619Z</time>
      </trkpt>
      <trkpt lat="45.86572" lon="3.54334">
        <ele>503</ele>
        <time>2024-12-07T23:12:58.619Z</time>
      </trkpt>
      <trkpt lat="45.86572" lon="3.54337">
        <ele>503</ele>
        <time>2024-12-07T23:12:59.619Z</time>
      </trkpt>
      <trkpt lat="45.86573" lon="3.54339">
        <ele>503</ele>
        <time>2024-12-07T23:13:00.619Z</time>
      </trkpt>
      <trkpt lat="45.86574" lon="3.54341">
        <ele>503</ele>
        <time>2024-12-07T23:13:01.619Z</time>
      </trkpt>
      <trkpt lat="45.86575" lon="3.54344">
        <ele>503</ele>
        <time>2024-12-07T23:13:02.619Z</time>
      </trkpt>
      <trkpt lat="45.86576" lon="3.54347">
        <ele>503</ele>
        <time>2024-12-07T23:13:03.619Z</time>
      </trkpt>
      <trkpt lat="45.86577" lon="3.5435">
        <ele>503</ele>
        <time>2024-12-07T23:13:04.620Z</time>
      </trkpt>
      <trkpt lat="45.86577" lon="3.54353">
        <ele>503</ele>
        <time>2024-12-07T23:13:05.620Z</time>
      </trkpt>
      <trkpt lat="45.86578" lon="3.54355">
        <ele>503</ele>
        <time>2024-12-07T23:13:06.620Z</time>
      </trkpt>
      <trkpt lat="45.86579" lon="3.54357">
        <ele>503</ele>
        <time>2024-12-07T23:13:07.619Z</time>
      </trkpt>
      <trkpt lat="45.8658" lon="3.54359">
        <ele>503</ele>
        <time>2024-12-07T23:13:08.619Z</time>
      </trkpt>
      <trkpt lat="45.86581" lon="3.54362">
        <ele>503</ele>
        <time>2024-12-07T23:13:09.619Z</time>
      </trkpt>
      <trkpt lat="45.86582" lon="3.54364">
        <ele>503</ele>
        <time>2024-12-07T23:13:10.620Z</time>
      </trkpt>
      <trkpt lat="45.86583" lon="3.54366">
        <ele>503</ele>
        <time>2024-12-07T23:13:11.620Z</time>
      </trkpt>
      <trkpt lat="45.86584" lon="3.54369">
        <ele>502</ele>
        <time>2024-12-07T23:13:12.620Z</time>
      </trkpt>
      <trkpt lat="45.86584" lon="3.54372">
        <ele>502</ele>
        <time>2024-12-07T23:13:13.620Z</time>
      </trkpt>
      <trkpt lat="45.86585" lon="3.54375">
        <ele>502</ele>
        <time>2024-12-07T23:13:14.619Z</time>
      </trkpt>
      <trkpt lat="45.86585" lon="3.54378">
        <ele>501</ele>
        <time>2024-12-07T23:13:15.619Z</time>
      </trkpt>
      <trkpt lat="45.86586" lon="3.54381">
        <ele>501</ele>
        <time>2024-12-07T23:13:16.620Z</time>
      </trkpt>
      <trkpt lat="45.86586" lon="3.54384">
        <ele>501</ele>
        <time>2024-12-07T23:13:17.620Z</time>
      </trkpt>
      <trkpt lat="45.86587" lon="3.54386">
        <ele>500</ele>
        <time>2024-12-07T23:13:18.619Z</time>
      </trkpt>
      <trkpt lat="45.86587" lon="3.54389">
        <ele>500</ele>
        <time>2024-12-07T23:13:19.619Z</time>
      </trkpt>
      <trkpt lat="45.86588" lon="3.54391">
        <ele>500</ele>
        <time>2024-12-07T23:13:20.619Z</time>
      </trkpt>
      <trkpt lat="45.86588" lon="3.54394">
        <ele>500</ele>
        <time>2024-12-07T23:13:21.619Z</time>
      </trkpt>
      <trkpt lat="45.86588" lon="3.54397">
        <ele>499</ele>
        <time>2024-12-07T23:13:22.619Z</time>
      </trkpt>
      <trkpt lat="45.86588" lon="3.54399">
        <ele>499</ele>
        <time>2024-12-07T23:13:23.620Z</time>
      </trkpt>
      <trkpt lat="45.86588" lon="3.54402">
        <ele>499</ele>
        <time>2024-12-07T23:13:24.619Z</time>
      </trkpt>
      <trkpt lat="45.86588" lon="3.54405">
        <ele>499</ele>
        <time>2024-12-07T23:13:25.619Z</time>
      </trkpt>
      <trkpt lat="45.86588" lon="3.54408">
        <ele>499</ele>
        <time>2024-12-07T23:13:26.620Z</time>
      </trkpt>
      <trkpt lat="45.86589" lon="3.5441">
        <ele>499</ele>
        <time>2024-12-07T23:13:27.619Z</time>
      </trkpt>
      <trkpt lat="45.86588" lon="3.54413">
        <ele>499</ele>
        <time>2024-12-07T23:13:28.620Z</time>
      </trkpt>
      <trkpt lat="45.86588" lon="3.54416">
        <ele>499</ele>
        <time>2024-12-07T23:13:29.619Z</time>
      </trkpt>
      <trkpt lat="45.86588" lon="3.54418">
        <ele>499</ele>
        <time>2024-12-07T23:13:30.619Z</time>
      </trkpt>
      <trkpt lat="45.86588" lon="3.54421">
        <ele>499</ele>
        <time>2024-12-07T23:13:31.620Z</time>
      </trkpt>
      <trkpt lat="45.86588" lon="3.54424">
        <ele>499</ele>
        <time>2024-12-07T23:13:32.619Z</time>
      </trkpt>
      <trkpt lat="45.86588" lon="3.54427">
        <ele>500</ele>
        <time>2024-12-07T23:13:33.619Z</time>
      </trkpt>
      <trkpt lat="45.86588" lon="3.54429">
        <ele>500</ele>
        <time>2024-12-07T23:13:34.620Z</time>
      </trkpt>
      <trkpt lat="45.86588" lon="3.54431">
        <ele>500</ele>
        <time>2024-12-07T23:13:35.620Z</time>
      </trkpt>
      <trkpt lat="45.86587" lon="3.54434">
        <ele>500</ele>
        <time>2024-12-07T23:13:36.620Z</time>
      </trkpt>
      <trkpt lat="45.86587" lon="3.54437">
        <ele>500</ele>
        <time>2024-12-07T23:13:37.620Z</time>
      </trkpt>
      <trkpt lat="45.86587" lon="3.5444">
        <ele>500</ele>
        <time>2024-12-07T23:13:38.619Z</time>
      </trkpt>
      <trkpt lat="45.86586" lon="3.54442">
        <ele>500</ele>
        <time>2024-12-07T23:13:39.619Z</time>
      </trkpt>
      <trkpt lat="45.86586" lon="3.54445">
        <ele>500</ele>
        <time>2024-12-07T23:13:40.620Z</time>
      </trkpt>
      <trkpt lat="45.86585" lon="3.54447">
        <ele>501</ele>
        <time>2024-12-07T23:13:41.619Z</time>
      </trkpt>
      <trkpt lat="45.86585" lon="3.54449">
        <ele>501</ele>
        <time>2024-12-07T23:13:42.619Z</time>
      </trkpt>
      <trkpt lat="45.86583" lon="3.54452">
        <ele>501</ele>
        <time>2024-12-07T23:13:43.619Z</time>
      </trkpt>
      <trkpt lat="45.86582" lon="3.54454">
        <ele>502</ele>
        <time>2024-12-07T23:13:44.619Z</time>
      </trkpt>
      <trkpt lat="45.86581" lon="3.54457">
        <ele>502</ele>
        <time>2024-12-07T23:13:45.620Z</time>
      </trkpt>
      <trkpt lat="45.8658" lon="3.54459">
        <ele>502</ele>
        <time>2024-12-07T23:13:46.619Z</time>
      </trkpt>
      <trkpt lat="45.86579" lon="3.54462">
        <ele>502</ele>
        <time>2024-12-07T23:13:47.620Z</time>
      </trkpt>
      <trkpt lat="45.86578" lon="3.54464">
        <ele>503</ele>
        <time>2024-12-07T23:13:48.619Z</time>
      </trkpt>
      <trkpt lat="45.86576" lon="3.54466">
        <ele>503</ele>
        <time>2024-12-07T23:13:49.619Z</time>
      </trkpt>
      <trkpt lat="45.86575" lon="3.54468">
        <ele>504</ele>
        <time>2024-12-07T23:13:50.620Z</time>
      </trkpt>
      <trkpt lat="45.86574" lon="3.54471">
        <ele>505</ele>
        <time>2024-12-07T23:13:51.620Z</time>
      </trkpt>
      <trkpt lat="45.86574" lon="3.54473">
        <ele>505</ele>
        <time>2024-12-07T23:13:52.620Z</time>
      </trkpt>
      <trkpt lat="45.86573" lon="3.54476">
        <ele>506</ele>
        <time>2024-12-07T23:13:53.620Z</time>
      </trkpt>
      <trkpt lat="45.86572" lon="3.54478">
        <ele>507</ele>
        <time>2024-12-07T23:13:54.620Z</time>
      </trkpt>
      <trkpt lat="45.86571" lon="3.5448">
        <ele>507</ele>
        <time>2024-12-07T23:13:55.619Z</time>
      </trkpt>
      <trkpt lat="45.8657" lon="3.54482">
        <ele>508</ele>
        <time>2024-12-07T23:13:56.619Z</time>
      </trkpt>
      <trkpt lat="45.86568" lon="3.54485">
        <ele>509</ele>
        <time>2024-12-07T23:13:57.619Z</time>
      </trkpt>
      <trkpt lat="45.86567" lon="3.54487">
        <ele>509</ele>
        <time>2024-12-07T23:13:58.620Z</time>
      </trkpt>
      <trkpt lat="45.86566" lon="3.54489">
        <ele>510</ele>
        <time>2024-12-07T23:13:59.619Z</time>
      </trkpt>
      <trkpt lat="45.86565" lon="3.54491">
        <ele>510</ele>
        <time>2024-12-07T23:14:00.619Z</time>
      </trkpt>
      <trkpt lat="45.86564" lon="3.54493">
        <ele>510</ele>
        <time>2024-12-07T23:14:01.620Z</time>
      </trkpt>
      <trkpt lat="45.86563" lon="3.54495">
        <ele>510</ele>
        <time>2024-12-07T23:14:02.620Z</time>
      </trkpt>
      <trkpt lat="45.86562" lon="3.54497">
        <ele>510</ele>
        <time>2024-12-07T23:14:03.619Z</time>
      </trkpt>
      <trkpt lat="45.86561" lon="3.54499">
        <ele>510</ele>
        <time>2024-12-07T23:14:04.619Z</time>
      </trkpt>
      <trkpt lat="45.86559" lon="3.54501">
        <ele>511</ele>
        <time>2024-12-07T23:14:05.619Z</time>
      </trkpt>
      <trkpt lat="45.86558" lon="3.54502">
        <ele>511</ele>
        <time>2024-12-07T23:14:06.620Z</time>
      </trkpt>
      <trkpt lat="45.86556" lon="3.54504">
        <ele>510</ele>
        <time>2024-12-07T23:14:07.619Z</time>
      </trkpt>
      <trkpt lat="45.86555" lon="3.54506">
        <ele>510</ele>
        <time>2024-12-07T23:14:08.619Z</time>
      </trkpt>
      <trkpt lat="45.86553" lon="3.54508">
        <ele>510</ele>
        <time>2024-12-07T23:14:09.619Z</time>
      </trkpt>
      <trkpt lat="45.86552" lon="3.5451">
        <ele>510</ele>
        <time>2024-12-07T23:14:10.620Z</time>
      </trkpt>
      <trkpt lat="45.86551" lon="3.54513">
        <ele>510</ele>
        <time>2024-12-07T23:14:11.619Z</time>
      </trkpt>
      <trkpt lat="45.8655" lon="3.54515">
        <ele>509</ele>
        <time>2024-12-07T23:14:12.620Z</time>
      </trkpt>
      <trkpt lat="45.86549" lon="3.54517">
        <ele>509</ele>
        <time>2024-12-07T23:14:13.620Z</time>
      </trkpt>
      <trkpt lat="45.86547" lon="3.54518">
        <ele>509</ele>
        <time>2024-12-07T23:14:14.620Z</time>
      </trkpt>
      <trkpt lat="45.86546" lon="3.5452">
        <ele>509</ele>
        <time>2024-12-07T23:14:15.620Z</time>
      </trkpt>
      <trkpt lat="45.86544" lon="3.54522">
        <ele>509</ele>
        <time>2024-12-07T23:14:16.620Z</time>
      </trkpt>
      <trkpt lat="45.86543" lon="3.54523">
        <ele>508</ele>
        <time>2024-12-07T23:14:17.619Z</time>
      </trkpt>
      <trkpt lat="45.86541" lon="3.54525">
        <ele>508</ele>
        <time>2024-12-07T23:14:18.620Z</time>
      </trkpt>
      <trkpt lat="45.8654" lon="3.54527">
        <ele>508</ele>
        <time>2024-12-07T23:14:19.620Z</time>
      </trkpt>
      <trkpt lat="45.86538" lon="3.54529">
        <ele>508</ele>
        <time>2024-12-07T23:14:20.619Z</time>
      </trkpt>
      <trkpt lat="45.86537" lon="3.5453">
        <ele>508</ele>
        <time>2024-12-07T23:14:21.620Z</time>
      </trkpt>
      <trkpt lat="45.86535" lon="3.54532">
        <ele>508</ele>
        <time>2024-12-07T23:14:22.619Z</time>
      </trkpt>
      <trkpt lat="45.86533" lon="3.54533">
        <ele>507</ele>
        <time>2024-12-07T23:14:23.620Z</time>
      </trkpt>
      <trkpt lat="45.86532" lon="3.54534">
        <ele>507</ele>
        <time>2024-12-07T23:14:24.619Z</time>
      </trkpt>
      <trkpt lat="45.8653" lon="3.54535">
        <ele>507</ele>
        <time>2024-12-07T23:14:25.619Z</time>
      </trkpt>
      <trkpt lat="45.86528" lon="3.54536">
        <ele>507</ele>
        <time>2024-12-07T23:14:26.619Z</time>
      </trkpt>
      <trkpt lat="45.86527" lon="3.54537">
        <ele>507</ele>
        <time>2024-12-07T23:14:27.620Z</time>
      </trkpt>
      <trkpt lat="45.86525" lon="3.54537">
        <ele>507</ele>
        <time>2024-12-07T23:14:28.620Z</time>
      </trkpt>
      <trkpt lat="45.86523" lon="3.54538">
        <ele>507</ele>
        <time>2024-12-07T23:14:29.619Z</time>
      </trkpt>
      <trkpt lat="45.86521" lon="3.54539">
        <ele>507</ele>
        <time>2024-12-07T23:14:30.619Z</time>
      </trkpt>
      <trkpt lat="45.86519" lon="3.5454">
        <ele>507</ele>
        <time>2024-12-07T23:14:31.620Z</time>
      </trkpt>
      <trkpt lat="45.86517" lon="3.5454">
        <ele>508</ele>
        <time>2024-12-07T23:14:32.620Z</time>
      </trkpt>
      <trkpt lat="45.86516" lon="3.5454">
        <ele>508</ele>
        <time>2024-12-07T23:14:33.620Z</time>
      </trkpt>
      <trkpt lat="45.86514" lon="3.54541">
        <ele>508</ele>
        <time>2024-12-07T23:14:34.619Z</time>
      </trkpt>
      <trkpt lat="45.86513" lon="3.54542">
        <ele>509</ele>
        <time>2024-12-07T23:14:35.620Z</time>
      </trkpt>
      <trkpt lat="45.86512" lon="3.54543">
        <ele>509</ele>
        <time>2024-12-07T23:14:36.619Z</time>
      </trkpt>
      <trkpt lat="45.8651" lon="3.54543">
        <ele>509</ele>
        <time>2024-12-07T23:14:37.620Z</time>
      </trkpt>
      <trkpt lat="45.86508" lon="3.54544">
        <ele>509</ele>
        <time>2024-12-07T23:14:38.620Z</time>
      </trkpt>
      <trkpt lat="45.86506" lon="3.54544">
        <ele>510</ele>
        <time>2024-12-07T23:14:39.619Z</time>
      </trkpt>
      <trkpt lat="45.86504" lon="3.54545">
        <ele>510</ele>
        <time>2024-12-07T23:14:40.620Z</time>
      </trkpt>
      <trkpt lat="45.86502" lon="3.54545">
        <ele>510</ele>
        <time>2024-12-07T23:14:41.620Z</time>
      </trkpt>
      <trkpt lat="45.865" lon="3.54545">
        <ele>510</ele>
        <time>2024-12-07T23:14:42.619Z</time>
      </trkpt>
      <trkpt lat="45.86498" lon="3.54545">
        <ele>510</ele>
        <time>2024-12-07T23:14:43.620Z</time>
      </trkpt>
      <trkpt lat="45.86497" lon="3.54545">
        <ele>510</ele>
        <time>2024-12-07T23:14:44.619Z</time>
      </trkpt>
      <trkpt lat="45.86495" lon="3.54546">
        <ele>510</ele>
        <time>2024-12-07T23:14:45.619Z</time>
      </trkpt>
      <trkpt lat="45.86493" lon="3.54546">
        <ele>510</ele>
        <time>2024-12-07T23:14:46.619Z</time>
      </trkpt>
      <trkpt lat="45.86492" lon="3.54546">
        <ele>510</ele>
        <time>2024-12-07T23:14:47.619Z</time>
      </trkpt>
      <trkpt lat="45.8649" lon="3.54546">
        <ele>510</ele>
        <time>2024-12-07T23:14:48.619Z</time>
      </trkpt>
      <trkpt lat="45.86488" lon="3.54545">
        <ele>510</ele>
        <time>2024-12-07T23:14:49.619Z</time>
      </trkpt>
      <trkpt lat="45.86486" lon="3.54545">
        <ele>510</ele>
        <time>2024-12-07T23:14:50.620Z</time>
      </trkpt>
      <trkpt lat="45.86484" lon="3.54544">
        <ele>510</ele>
        <time>2024-12-07T23:14:51.620Z</time>
      </trkpt>
      <trkpt lat="45.86482" lon="3.54543">
        <ele>511</ele>
        <time>2024-12-07T23:14:52.619Z</time>
      </trkpt>
      <trkpt lat="45.8648" lon="3.54543">
        <ele>511</ele>
        <time>2024-12-07T23:14:53.620Z</time>
      </trkpt>
      <trkpt lat="45.86478" lon="3.54543">
        <ele>512</ele>
        <time>2024-12-07T23:14:54.620Z</time>
      </trkpt>
      <trkpt lat="45.86476" lon="3.54543">
        <ele>512</ele>
        <time>2024-12-07T23:14:55.619Z</time>
      </trkpt>
      <trkpt lat="45.86474" lon="3.54543">
        <ele>512</ele>
        <time>2024-12-07T23:14:56.620Z</time>
      </trkpt>
      <trkpt lat="45.86472" lon="3.54543">
        <ele>512</ele>
        <time>2024-12-07T23:14:57.619Z</time>
      </trkpt>
      <trkpt lat="45.86471" lon="3.54543">
        <ele>512</ele>
        <time>2024-12-07T23:14:58.620Z</time>
      </trkpt>
      <trkpt lat="45.86469" lon="3.54543">
        <ele>512</ele>
        <time>2024-12-07T23:14:59.619Z</time>
      </trkpt>
      <trkpt lat="45.86467" lon="3.54542">
        <ele>512</ele>
        <time>2024-12-07T23:15:00.620Z</time>
      </trkpt>
      <trkpt lat="45.86465" lon="3.54542">
        <ele>512</ele>
        <time>2024-12-07T23:15:01.619Z</time>
      </trkpt>
      <trkpt lat="45.86463" lon="3.54542">
        <ele>512</ele>
        <time>2024-12-07T23:15:02.619Z</time>
      </trkpt>
      <trkpt lat="45.86461" lon="3.54541">
        <ele>512</ele>
        <time>2024-12-07T23:15:03.620Z</time>
      </trkpt>
      <trkpt lat="45.86459" lon="3.54541">
        <ele>512</ele>
        <time>2024-12-07T23:15:04.620Z</time>
      </trkpt>
      <trkpt lat="45.86458" lon="3.5454">
        <ele>511</ele>
        <time>2024-12-07T23:15:05.620Z</time>
      </trkpt>
      <trkpt lat="45.86456" lon="3.5454">
        <ele>511</ele>
        <time>2024-12-07T23:15:06.619Z</time>
      </trkpt>
      <trkpt lat="45.86454" lon="3.5454">
        <ele>511</ele>
        <time>2024-12-07T23:15:07.619Z</time>
      </trkpt>
      <trkpt lat="45.86453" lon="3.5454">
        <ele>511</ele>
        <time>2024-12-07T23:15:08.619Z</time>
      </trkpt>
      <trkpt lat="45.86451" lon="3.5454">
        <ele>511</ele>
        <time>2024-12-07T23:15:09.619Z</time>
      </trkpt>
      <trkpt lat="45.86449" lon="3.5454">
        <ele>510</ele>
        <time>2024-12-07T23:15:10.619Z</time>
      </trkpt>
      <trkpt lat="45.86448" lon="3.5454">
        <ele>510</ele>
        <time>2024-12-07T23:15:11.620Z</time>
      </trkpt>
      <trkpt lat="45.86446" lon="3.54541">
        <ele>510</ele>
        <time>2024-12-07T23:15:12.620Z</time>
      </trkpt>
      <trkpt lat="45.86445" lon="3.54541">
        <ele>509</ele>
        <time>2024-12-07T23:15:13.619Z</time>
      </trkpt>
      <trkpt lat="45.86444" lon="3.54542">
        <ele>509</ele>
        <time>2024-12-07T23:15:14.619Z</time>
      </trkpt>
      <trkpt lat="45.86442" lon="3.54542">
        <ele>509</ele>
        <time>2024-12-07T23:15:15.620Z</time>
      </trkpt>
      <trkpt lat="45.8644" lon="3.54542">
        <ele>509</ele>
        <time>2024-12-07T23:15:16.619Z</time>
      </trkpt>
      <trkpt lat="45.86438" lon="3.54543">
        <ele>509</ele>
        <time>2024-12-07T23:15:17.619Z</time>
      </trkpt>
      <trkpt lat="45.86435" lon="3.54543">
        <ele>509</ele>
        <time>2024-12-07T23:15:18.619Z</time>
      </trkpt>
      <trkpt lat="45.86434" lon="3.54544">
        <ele>509</ele>
        <time>2024-12-07T23:15:19.619Z</time>
      </trkpt>
      <trkpt lat="45.86432" lon="3.54544">
        <ele>509</ele>
        <time>2024-12-07T23:15:20.619Z</time>
      </trkpt>
      <trkpt lat="45.8643" lon="3.54545">
        <ele>509</ele>
        <time>2024-12-07T23:15:21.619Z</time>
      </trkpt>
      <trkpt lat="45.86428" lon="3.54545">
        <ele>509</ele>
        <time>2024-12-07T23:15:22.619Z</time>
      </trkpt>
      <trkpt lat="45.86426" lon="3.54545">
        <ele>510</ele>
        <time>2024-12-07T23:15:23.619Z</time>
      </trkpt>
      <trkpt lat="45.86425" lon="3.54546">
        <ele>510</ele>
        <time>2024-12-07T23:15:24.620Z</time>
      </trkpt>
      <trkpt lat="45.86423" lon="3.54547">
        <ele>510</ele>
        <time>2024-12-07T23:15:25.620Z</time>
      </trkpt>
      <trkpt lat="45.86421" lon="3.54547">
        <ele>510</ele>
        <time>2024-12-07T23:15:26.620Z</time>
      </trkpt>
      <trkpt lat="45.8642" lon="3.54548">
        <ele>510</ele>
        <time>2024-12-07T23:15:27.620Z</time>
      </trkpt>
      <trkpt lat="45.86419" lon="3.54549">
        <ele>510</ele>
        <time>2024-12-07T23:15:28.619Z</time>
      </trkpt>
      <trkpt lat="45.86418" lon="3.5455">
        <ele>510</ele>
        <time>2024-12-07T23:15:29.619Z</time>
      </trkpt>
      <trkpt lat="45.86417" lon="3.54551">
        <ele>510</ele>
        <time>2024-12-07T23:15:30.620Z</time>
      </trkpt>
      <trkpt lat="45.86416" lon="3.54553">
        <ele>511</ele>
        <time>2024-12-07T23:15:31.619Z</time>
      </trkpt>
      <trkpt lat="45.86415" lon="3.54554">
        <ele>511</ele>
        <time>2024-12-07T23:15:32.619Z</time>
      </trkpt>
      <trkpt lat="45.86414" lon="3.54556">
        <ele>511</ele>
        <time>2024-12-07T23:15:33.619Z</time>
      </trkpt>
      <trkpt lat="45.86413" lon="3.54558">
        <ele>512</ele>
        <time>2024-12-07T23:15:34.620Z</time>
      </trkpt>
      <trkpt lat="45.86413" lon="3.5456">
        <ele>512</ele>
        <time>2024-12-07T23:15:35.620Z</time>
      </trkpt>
      <trkpt lat="45.86412" lon="3.54562">
        <ele>512</ele>
        <time>2024-12-07T23:15:36.620Z</time>
      </trkpt>
      <trkpt lat="45.86412" lon="3.54564">
        <ele>513</ele>
        <time>2024-12-07T23:15:37.620Z</time>
      </trkpt>
      <trkpt lat="45.86411" lon="3.54566">
        <ele>513</ele>
        <time>2024-12-07T23:15:38.620Z</time>
      </trkpt>
      <trkpt lat="45.86411" lon="3.54569">
        <ele>513</ele>
        <time>2024-12-07T23:15:39.619Z</time>
      </trkpt>
      <trkpt lat="45.8641" lon="3.5457">
        <ele>514</ele>
        <time>2024-12-07T23:15:40.619Z</time>
      </trkpt>
      <trkpt lat="45.8641" lon="3.54573">
        <ele>514</ele>
        <time>2024-12-07T23:15:41.620Z</time>
      </trkpt>
      <trkpt lat="45.8641" lon="3.54575">
        <ele>515</ele>
        <time>2024-12-07T23:15:42.620Z</time>
      </trkpt>
      <trkpt lat="45.8641" lon="3.54577">
        <ele>515</ele>
        <time>2024-12-07T23:15:43.620Z</time>
      </trkpt>
      <trkpt lat="45.8641" lon="3.5458">
        <ele>515</ele>
        <time>2024-12-07T23:15:44.619Z</time>
      </trkpt>
      <trkpt lat="45.8641" lon="3.54583">
        <ele>516</ele>
        <time>2024-12-07T23:15:45.619Z</time>
      </trkpt>
      <trkpt lat="45.8641" lon="3.54585">
        <ele>516</ele>
        <time>2024-12-07T23:15:46.620Z</time>
      </trkpt>
      <trkpt lat="45.8641" lon="3.54587">
        <ele>516</ele>
        <time>2024-12-07T23:15:47.619Z</time>
      </trkpt>
      <trkpt lat="45.8641" lon="3.5459">
        <ele>517</ele>
        <time>2024-12-07T23:15:48.619Z</time>
      </trkpt>
      <trkpt lat="45.8641" lon="3.54593">
        <ele>517</ele>
        <time>2024-12-07T23:15:49.620Z</time>
      </trkpt>
      <trkpt lat="45.8641" lon="3.54595">
        <ele>517</ele>
        <time>2024-12-07T23:15:50.619Z</time>
      </trkpt>
      <trkpt lat="45.8641" lon="3.54598">
        <ele>518</ele>
        <time>2024-12-07T23:15:51.620Z</time>
      </trkpt>
      <trkpt lat="45.8641" lon="3.546">
        <ele>518</ele>
        <time>2024-12-07T23:15:52.620Z</time>
      </trkpt>
      <trkpt lat="45.8641" lon="3.54602">
        <ele>518</ele>
        <time>2024-12-07T23:15:53.620Z</time>
      </trkpt>
      <trkpt lat="45.86411" lon="3.54605">
        <ele>518</ele>
        <time>2024-12-07T23:15:54.619Z</time>
      </trkpt>
      <trkpt lat="45.86411" lon="3.54607">
        <ele>518</ele>
        <time>2024-12-07T23:15:55.619Z</time>
      </trkpt>
      <trkpt lat="45.86411" lon="3.5461">
        <ele>518</ele>
        <time>2024-12-07T23:15:56.619Z</time>
      </trkpt>
      <trkpt lat="45.86411" lon="3.54612">
        <ele>519</ele>
        <time>2024-12-07T23:15:57.620Z</time>
      </trkpt>
      <trkpt lat="45.86411" lon="3.54614">
        <ele>519</ele>
        <time>2024-12-07T23:15:58.620Z</time>
      </trkpt>
      <trkpt lat="45.86412" lon="3.54617">
        <ele>520</ele>
        <time>2024-12-07T23:15:59.619Z</time>
      </trkpt>
      <trkpt lat="45.86412" lon="3.54619">
        <ele>520</ele>
        <time>2024-12-07T23:16:00.619Z</time>
      </trkpt>
      <trkpt lat="45.86413" lon="3.54621">
        <ele>521</ele>
        <time>2024-12-07T23:16:01.619Z</time>
      </trkpt>
      <trkpt lat="45.86413" lon="3.54623">
        <ele>521</ele>
        <time>2024-12-07T23:16:02.619Z</time>
      </trkpt>
      <trkpt lat="45.86413" lon="3.54626">
        <ele>521</ele>
        <time>2024-12-07T23:16:03.619Z</time>
      </trkpt>
      <trkpt lat="45.86414" lon="3.54628">
        <ele>521</ele>
        <time>2024-12-07T23:16:04.620Z</time>
      </trkpt>
      <trkpt lat="45.86414" lon="3.5463">
        <ele>521</ele>
        <time>2024-12-07T23:16:05.620Z</time>
      </trkpt>
      <trkpt lat="45.86414" lon="3.54632">
        <ele>522</ele>
        <time>2024-12-07T23:16:06.619Z</time>
      </trkpt>
      <trkpt lat="45.86415" lon="3.54635">
        <ele>522</ele>
        <time>2024-12-07T23:16:07.619Z</time>
      </trkpt>
      <trkpt lat="45.86415" lon="3.54637">
        <ele>523</ele>
        <time>2024-12-07T23:16:08.619Z</time>
      </trkpt>
      <trkpt lat="45.86416" lon="3.54639">
        <ele>523</ele>
        <time>2024-12-07T23:16:09.619Z</time>
      </trkpt>
      <trkpt lat="45.86416" lon="3.54641">
        <ele>524</ele>
        <time>2024-12-07T23:16:10.619Z</time>
      </trkpt>
      <trkpt lat="45.86416" lon="3.54643">
        <ele>524</ele>
        <time>2024-12-07T23:16:11.619Z</time>
      </trkpt>
      <trkpt lat="45.86417" lon="3.54646">
        <ele>525</ele>
        <time>2024-12-07T23:16:12.620Z</time>
      </trkpt>
      <trkpt lat="45.86417" lon="3.54648">
        <ele>525</ele>
        <time>2024-12-07T23:16:13.620Z</time>
      </trkpt>
      <trkpt lat="45.86417" lon="3.5465">
        <ele>526</ele>
        <time>2024-12-07T23:16:14.619Z</time>
      </trkpt>
      <trkpt lat="45.86418" lon="3.54652">
        <ele>526</ele>
        <time>2024-12-07T23:16:15.619Z</time>
      </trkpt>
      <trkpt lat="45.86418" lon="3.54655">
        <ele>526</ele>
        <time>2024-12-07T23:16:16.620Z</time>
      </trkpt>
      <trkpt lat="45.86419" lon="3.54657">
        <ele>526</ele>
        <time>2024-12-07T23:16:17.620Z</time>
      </trkpt>
      <trkpt lat="45.86419" lon="3.54659">
        <ele>526</ele>
        <time>2024-12-07T23:16:18.620Z</time>
      </trkpt>
      <trkpt lat="45.8642" lon="3.54661">
        <ele>526</ele>
        <time>2024-12-07T23:16:19.619Z</time>
      </trkpt>
      <trkpt lat="45.8642" lon="3.54664">
        <ele>526</ele>
        <time>2024-12-07T23:16:20.619Z</time>
      </trkpt>
      <trkpt lat="45.8642" lon="3.54666">
        <ele>526</ele>
        <time>2024-12-07T23:16:21.620Z</time>
      </trkpt>
      <trkpt lat="45.8642" lon="3.54668">
        <ele>526</ele>
        <time>2024-12-07T23:16:22.619Z</time>
      </trkpt>
      <trkpt lat="45.8642" lon="3.5467">
        <ele>526</ele>
        <time>2024-12-07T23:16:23.620Z</time>
      </trkpt>
      <trkpt lat="45.86421" lon="3.54672">
        <ele>526</ele>
        <time>2024-12-07T23:16:24.619Z</time>
      </trkpt>
      <trkpt lat="45.86421" lon="3.54674">
        <ele>526</ele>
        <time>2024-12-07T23:16:25.619Z</time>
      </trkpt>
      <trkpt lat="45.86421" lon="3.54676">
        <ele>526</ele>
        <time>2024-12-07T23:16:26.620Z</time>
      </trkpt>
      <trkpt lat="45.86421" lon="3.54679">
        <ele>526</ele>
        <time>2024-12-07T23:16:27.620Z</time>
      </trkpt>
      <trkpt lat="45.86421" lon="3.54681">
        <ele>527</ele>
        <time>2024-12-07T23:16:28.619Z</time>
      </trkpt>
      <trkpt lat="45.86421" lon="3.54683">
        <ele>527</ele>
        <time>2024-12-07T23:16:29.620Z</time>
      </trkpt>
      <trkpt lat="45.86421" lon="3.54685">
        <ele>528</ele>
        <time>2024-12-07T23:16:30.620Z</time>
      </trkpt>
      <trkpt lat="45.86421" lon="3.54688">
        <ele>528</ele>
        <time>2024-12-07T23:16:31.620Z</time>
      </trkpt>
      <trkpt lat="45.86421" lon="3.54691">
        <ele>528</ele>
        <time>2024-12-07T23:16:32.620Z</time>
      </trkpt>
      <trkpt lat="45.86421" lon="3.54693">
        <ele>528</ele>
        <time>2024-12-07T23:16:33.619Z</time>
      </trkpt>
      <trkpt lat="45.86421" lon="3.54695">
        <ele>528</ele>
        <time>2024-12-07T23:16:34.619Z</time>
      </trkpt>
      <trkpt lat="45.8642" lon="3.54697">
        <ele>528</ele>
        <time>2024-12-07T23:16:35.619Z</time>
      </trkpt>
      <trkpt lat="45.8642" lon="3.54699">
        <ele>529</ele>
        <time>2024-12-07T23:16:36.620Z</time>
      </trkpt>
      <trkpt lat="45.8642" lon="3.54702">
        <ele>529</ele>
        <time>2024-12-07T23:16:37.619Z</time>
      </trkpt>
      <trkpt lat="45.8642" lon="3.54704">
        <ele>529</ele>
        <time>2024-12-07T23:16:38.619Z</time>
      </trkpt>
      <trkpt lat="45.8642" lon="3.54706">
        <ele>529</ele>
        <time>2024-12-07T23:16:39.620Z</time>
      </trkpt>
      <trkpt lat="45.86419" lon="3.54708">
        <ele>529</ele>
        <time>2024-12-07T23:16:40.619Z</time>
      </trkpt>
      <trkpt lat="45.86419" lon="3.54711">
        <ele>529</ele>
        <time>2024-12-07T23:16:41.619Z</time>
      </trkpt>
      <trkpt lat="45.86419" lon="3.54713">
        <ele>529</ele>
        <time>2024-12-07T23:16:42.620Z</time>
      </trkpt>
      <trkpt lat="45.86419" lon="3.54716">
        <ele>529</ele>
        <time>2024-12-07T23:16:43.619Z</time>
      </trkpt>
      <trkpt lat="45.86419" lon="3.54719">
        <ele>529</ele>
        <time>2024-12-07T23:16:44.619Z</time>
      </trkpt>
      <trkpt lat="45.8642" lon="3.54721">
        <ele>529</ele>
        <time>2024-12-07T23:16:45.619Z</time>
      </trkpt>
      <trkpt lat="45.8642" lon="3.54724">
        <ele>530</ele>
        <time>2024-12-07T23:16:46.619Z</time>
      </trkpt>
      <trkpt lat="45.8642" lon="3.54726">
        <ele>530</ele>
        <time>2024-12-07T23:16:47.619Z</time>
      </trkpt>
      <trkpt lat="45.8642" lon="3.54728">
        <ele>530</ele>
        <time>2024-12-07T23:16:48.619Z</time>
      </trkpt>
      <trkpt lat="45.86419" lon="3.54731">
        <ele>530</ele>
        <time>2024-12-07T23:16:49.619Z</time>
      </trkpt>
      <trkpt lat="45.86419" lon="3.54733">
        <ele>530</ele>
        <time>2024-12-07T23:16:50.619Z</time>
      </trkpt>
      <trkpt lat="45.86419" lon="3.54735">
        <ele>530</ele>
        <time>2024-12-07T23:16:51.620Z</time>
      </trkpt>
      <trkpt lat="45.86419" lon="3.54738">
        <ele>531</ele>
        <time>2024-12-07T23:16:52.620Z</time>
      </trkpt>
      <trkpt lat="45.86419" lon="3.5474">
        <ele>531</ele>
        <time>2024-12-07T23:16:53.620Z</time>
      </trkpt>
      <trkpt lat="45.86419" lon="3.54743">
        <ele>531</ele>
        <time>2024-12-07T23:16:54.619Z</time>
      </trkpt>
      <trkpt lat="45.86419" lon="3.54745">
        <ele>531</ele>
        <time>2024-12-07T23:16:55.620Z</time>
      </trkpt>
      <trkpt lat="45.8642" lon="3.54748">
        <ele>531</ele>
        <time>2024-12-07T23:16:56.620Z</time>
      </trkpt>
      <trkpt lat="45.8642" lon="3.54751">
        <ele>531</ele>
        <time>2024-12-07T23:16:57.619Z</time>
      </trkpt>
      <trkpt lat="45.8642" lon="3.54753">
        <ele>531</ele>
        <time>2024-12-07T23:16:58.619Z</time>
      </trkpt>
      <trkpt lat="45.86421" lon="3.54756">
        <ele>531</ele>
        <time>2024-12-07T23:16:59.619Z</time>
      </trkpt>
      <trkpt lat="45.86422" lon="3.54758">
        <ele>531</ele>
        <time>2024-12-07T23:17:00.619Z</time>
      </trkpt>
      <trkpt lat="45.86422" lon="3.5476">
        <ele>530</ele>
        <time>2024-12-07T23:17:01.619Z</time>
      </trkpt>
      <trkpt lat="45.86423" lon="3.54763">
        <ele>530</ele>
        <time>2024-12-07T23:17:02.619Z</time>
      </trkpt>
      <trkpt lat="45.86423" lon="3.54765">
        <ele>530</ele>
        <time>2024-12-07T23:17:03.620Z</time>
      </trkpt>
      <trkpt lat="45.86424" lon="3.54767">
        <ele>530</ele>
        <time>2024-12-07T23:17:04.619Z</time>
      </trkpt>
      <trkpt lat="45.86424" lon="3.5477">
        <ele>531</ele>
        <time>2024-12-07T23:17:05.620Z</time>
      </trkpt>
      <trkpt lat="45.86425" lon="3.54772">
        <ele>531</ele>
        <time>2024-12-07T23:17:06.619Z</time>
      </trkpt>
      <trkpt lat="45.86425" lon="3.54775">
        <ele>531</ele>
        <time>2024-12-07T23:17:07.619Z</time>
      </trkpt>
      <trkpt lat="45.86426" lon="3.54778">
        <ele>531</ele>
        <time>2024-12-07T23:17:08.619Z</time>
      </trkpt>
      <trkpt lat="45.86426" lon="3.54781">
        <ele>532</ele>
        <time>2024-12-07T23:17:09.619Z</time>
      </trkpt>
      <trkpt lat="45.86426" lon="3.54784">
        <ele>532</ele>
        <time>2024-12-07T23:17:10.619Z</time>
      </trkpt>
      <trkpt lat="45.86427" lon="3.54787">
        <ele>532</ele>
        <time>2024-12-07T23:17:11.620Z</time>
      </trkpt>
      <trkpt lat="45.86428" lon="3.5479">
        <ele>532</ele>
        <time>2024-12-07T23:17:12.619Z</time>
      </trkpt>
      <trkpt lat="45.86428" lon="3.54792">
        <ele>532</ele>
        <time>2024-12-07T23:17:13.619Z</time>
      </trkpt>
      <trkpt lat="45.86429" lon="3.54795">
        <ele>532</ele>
        <time>2024-12-07T23:17:14.620Z</time>
      </trkpt>
      <trkpt lat="45.86429" lon="3.54798">
        <ele>532</ele>
        <time>2024-12-07T23:17:15.619Z</time>
      </trkpt>
      <trkpt lat="45.8643" lon="3.54801">
        <ele>532</ele>
        <time>2024-12-07T23:17:16.619Z</time>
      </trkpt>
      <trkpt lat="45.8643" lon="3.54804">
        <ele>532</ele>
        <time>2024-12-07T23:17:17.619Z</time>
      </trkpt>
      <trkpt lat="45.8643" lon="3.54807">
        <ele>532</ele>
        <time>2024-12-07T23:17:18.619Z</time>
      </trkpt>
      <trkpt lat="45.8643" lon="3.5481">
        <ele>533</ele>
        <time>2024-12-07T23:17:19.619Z</time>
      </trkpt>
      <trkpt lat="45.86431" lon="3.54813">
        <ele>533</ele>
        <time>2024-12-07T23:17:20.619Z</time>
      </trkpt>
      <trkpt lat="45.86431" lon="3.54815">
        <ele>533</ele>
        <time>2024-12-07T23:17:21.620Z</time>
      </trkpt>
      <trkpt lat="45.86431" lon="3.54818">
        <ele>533</ele>
        <time>2024-12-07T23:17:22.619Z</time>
      </trkpt>
      <trkpt lat="45.86431" lon="3.54821">
        <ele>534</ele>
        <time>2024-12-07T23:17:23.619Z</time>
      </trkpt>
      <trkpt lat="45.8643" lon="3.54824">
        <ele>534</ele>
        <time>2024-12-07T23:17:24.619Z</time>
      </trkpt>
      <trkpt lat="45.8643" lon="3.54827">
        <ele>534</ele>
        <time>2024-12-07T23:17:25.620Z</time>
      </trkpt>
      <trkpt lat="45.8643" lon="3.5483">
        <ele>534</ele>
        <time>2024-12-07T23:17:26.619Z</time>
      </trkpt>
      <trkpt lat="45.86429" lon="3.54832">
        <ele>534</ele>
        <time>2024-12-07T23:17:27.619Z</time>
      </trkpt>
      <trkpt lat="45.86428" lon="3.54835">
        <ele>534</ele>
        <time>2024-12-07T23:17:28.619Z</time>
      </trkpt>
      <trkpt lat="45.86428" lon="3.54837">
        <ele>534</ele>
        <time>2024-12-07T23:17:29.619Z</time>
      </trkpt>
      <trkpt lat="45.86427" lon="3.5484">
        <ele>534</ele>
        <time>2024-12-07T23:17:30.619Z</time>
      </trkpt>
      <trkpt lat="45.86426" lon="3.54842">
        <ele>534</ele>
        <time>2024-12-07T23:17:31.619Z</time>
      </trkpt>
      <trkpt lat="45.86425" lon="3.54845">
        <ele>534</ele>
        <time>2024-12-07T23:17:32.620Z</time>
      </trkpt>
      <trkpt lat="45.86424" lon="3.54848">
        <ele>534</ele>
        <time>2024-12-07T23:17:33.619Z</time>
      </trkpt>
      <trkpt lat="45.86423" lon="3.5485">
        <ele>534</ele>
        <time>2024-12-07T23:17:34.619Z</time>
      </trkpt>
      <trkpt lat="45.86422" lon="3.54853">
        <ele>534</ele>
        <time>2024-12-07T23:17:35.619Z</time>
      </trkpt>
      <trkpt lat="45.86421" lon="3.54855">
        <ele>534</ele>
        <time>2024-12-07T23:17:36.619Z</time>
      </trkpt>
      <trkpt lat="45.8642" lon="3.54857">
        <ele>534</ele>
        <time>2024-12-07T23:17:37.620Z</time>
      </trkpt>
      <trkpt lat="45.86419" lon="3.54859">
        <ele>534</ele>
        <time>2024-12-07T23:17:38.619Z</time>
      </trkpt>
      <trkpt lat="45.86418" lon="3.54862">
        <ele>535</ele>
        <time>2024-12-07T23:17:39.619Z</time>
      </trkpt>
      <trkpt lat="45.86417" lon="3.54864">
        <ele>535</ele>
        <time>2024-12-07T23:17:40.619Z</time>
      </trkpt>
      <trkpt lat="45.86415" lon="3.54866">
        <ele>535</ele>
        <time>2024-12-07T23:17:41.619Z</time>
      </trkpt>
      <trkpt lat="45.86414" lon="3.54869">
        <ele>535</ele>
        <time>2024-12-07T23:17:42.619Z</time>
      </trkpt>
      <trkpt lat="45.86413" lon="3.54871">
        <ele>536</ele>
        <time>2024-12-07T23:17:43.619Z</time>
      </trkpt>
      <trkpt lat="45.86411" lon="3.54873">
        <ele>536</ele>
        <time>2024-12-07T23:17:44.619Z</time>
      </trkpt>
      <trkpt lat="45.86409" lon="3.54874">
        <ele>536</ele>
        <time>2024-12-07T23:17:45.619Z</time>
      </trkpt>
      <trkpt lat="45.86408" lon="3.54876">
        <ele>536</ele>
        <time>2024-12-07T23:17:46.619Z</time>
      </trkpt>
      <trkpt lat="45.86406" lon="3.54878">
        <ele>536</ele>
        <time>2024-12-07T23:17:47.620Z</time>
      </trkpt>
      <trkpt lat="45.86405" lon="3.5488">
        <ele>536</ele>
        <time>2024-12-07T23:17:48.619Z</time>
      </trkpt>
      <trkpt lat="45.86404" lon="3.54882">
        <ele>536</ele>
        <time>2024-12-07T23:17:49.619Z</time>
      </trkpt>
      <trkpt lat="45.86403" lon="3.54884">
        <ele>536</ele>
        <time>2024-12-07T23:17:50.619Z</time>
      </trkpt>
      <trkpt lat="45.86402" lon="3.54886">
        <ele>535</ele>
        <time>2024-12-07T23:17:51.619Z</time>
      </trkpt>
      <trkpt lat="45.86401" lon="3.54888">
        <ele>535</ele>
        <time>2024-12-07T23:17:52.619Z</time>
      </trkpt>
      <trkpt lat="45.86401" lon="3.5489">
        <ele>535</ele>
        <time>2024-12-07T23:17:53.619Z</time>
      </trkpt>
      <trkpt lat="45.86401" lon="3.54892">
        <ele>535</ele>
        <time>2024-12-07T23:17:54.619Z</time>
      </trkpt>
      <trkpt lat="45.86402" lon="3.54894">
        <ele>534</ele>
        <time>2024-12-07T23:17:55.619Z</time>
      </trkpt>
      <trkpt lat="45.86402" lon="3.54896">
        <ele>534</ele>
        <time>2024-12-07T23:17:56.619Z</time>
      </trkpt>
      <trkpt lat="45.86403" lon="3.54897">
        <ele>534</ele>
        <time>2024-12-07T23:17:57.619Z</time>
      </trkpt>
      <trkpt lat="45.86404" lon="3.54899">
        <ele>534</ele>
        <time>2024-12-07T23:17:58.619Z</time>
      </trkpt>
      <trkpt lat="45.86405" lon="3.549">
        <ele>534</ele>
        <time>2024-12-07T23:17:59.619Z</time>
      </trkpt>
      <trkpt lat="45.86407" lon="3.54902">
        <ele>534</ele>
        <time>2024-12-07T23:18:00.619Z</time>
      </trkpt>
      <trkpt lat="45.86409" lon="3.54903">
        <ele>535</ele>
        <time>2024-12-07T23:18:01.620Z</time>
      </trkpt>
      <trkpt lat="45.8641" lon="3.54904">
        <ele>535</ele>
        <time>2024-12-07T23:18:02.619Z</time>
      </trkpt>
      <trkpt lat="45.86412" lon="3.54906">
        <ele>535</ele>
        <time>2024-12-07T23:18:03.620Z</time>
      </trkpt>
      <trkpt lat="45.86414" lon="3.54908">
        <ele>536</ele>
        <time>2024-12-07T23:18:04.620Z</time>
      </trkpt>
      <trkpt lat="45.86416" lon="3.54909">
        <ele>537</ele>
        <time>2024-12-07T23:18:05.619Z</time>
      </trkpt>
      <trkpt lat="45.86417" lon="3.54911">
        <ele>537</ele>
        <time>2024-12-07T23:18:06.620Z</time>
      </trkpt>
      <trkpt lat="45.86419" lon="3.54913">
        <ele>538</ele>
        <time>2024-12-07T23:18:07.619Z</time>
      </trkpt>
      <trkpt lat="45.8642" lon="3.54916">
        <ele>538</ele>
        <time>2024-12-07T23:18:08.620Z</time>
      </trkpt>
      <trkpt lat="45.86421" lon="3.54918">
        <ele>539</ele>
        <time>2024-12-07T23:18:09.619Z</time>
      </trkpt>
      <trkpt lat="45.86422" lon="3.5492">
        <ele>539</ele>
        <time>2024-12-07T23:18:10.619Z</time>
      </trkpt>
      <trkpt lat="45.86423" lon="3.54921">
        <ele>540</ele>
        <time>2024-12-07T23:18:11.619Z</time>
      </trkpt>
      <trkpt lat="45.86424" lon="3.54923">
        <ele>540</ele>
        <time>2024-12-07T23:18:12.619Z</time>
      </trkpt>
      <trkpt lat="45.86425" lon="3.54925">
        <ele>540</ele>
        <time>2024-12-07T23:18:13.620Z</time>
      </trkpt>
      <trkpt lat="45.86426" lon="3.54928">
        <ele>540</ele>
        <time>2024-12-07T23:18:14.619Z</time>
      </trkpt>
      <trkpt lat="45.86427" lon="3.54931">
        <ele>540</ele>
        <time>2024-12-07T23:18:15.619Z</time>
      </trkpt>
      <trkpt lat="45.86428" lon="3.54934">
        <ele>540</ele>
        <time>2024-12-07T23:18:16.619Z</time>
      </trkpt>
      <trkpt lat="45.86429" lon="3.54937">
        <ele>540</ele>
        <time>2024-12-07T23:18:17.619Z</time>
      </trkpt>
      <trkpt lat="45.8643" lon="3.54939">
        <ele>540</ele>
        <time>2024-12-07T23:18:18.620Z</time>
      </trkpt>
      <trkpt lat="45.86431" lon="3.54942">
        <ele>540</ele>
        <time>2024-12-07T23:18:19.620Z</time>
      </trkpt>
      <trkpt lat="45.86432" lon="3.54944">
        <ele>540</ele>
        <time>2024-12-07T23:18:20.619Z</time>
      </trkpt>
      <trkpt lat="45.86432" lon="3.54946">
        <ele>540</ele>
        <time>2024-12-07T23:18:21.620Z</time>
      </trkpt>
      <trkpt lat="45.86433" lon="3.54947">
        <ele>540</ele>
        <time>2024-12-07T23:18:22.620Z</time>
      </trkpt>
      <trkpt lat="45.86435" lon="3.54949">
        <ele>540</ele>
        <time>2024-12-07T23:18:23.619Z</time>
      </trkpt>
      <trkpt lat="45.86436" lon="3.54951">
        <ele>540</ele>
        <time>2024-12-07T23:18:24.619Z</time>
      </trkpt>
      <trkpt lat="45.86437" lon="3.54953">
        <ele>541</ele>
        <time>2024-12-07T23:18:25.620Z</time>
      </trkpt>
      <trkpt lat="45.86437" lon="3.54955">
        <ele>541</ele>
        <time>2024-12-07T23:18:26.619Z</time>
      </trkpt>
      <trkpt lat="45.86438" lon="3.54957">
        <ele>542</ele>
        <time>2024-12-07T23:18:27.619Z</time>
      </trkpt>
      <trkpt lat="45.86439" lon="3.5496">
        <ele>542</ele>
        <time>2024-12-07T23:18:28.620Z</time>
      </trkpt>
      <trkpt lat="45.8644" lon="3.54962">
        <ele>542</ele>
        <time>2024-12-07T23:18:29.620Z</time>
      </trkpt>
      <trkpt lat="45.86441" lon="3.54965">
        <ele>542</ele>
        <time>2024-12-07T23:18:30.620Z</time>
      </trkpt>
      <trkpt lat="45.86442" lon="3.54967">
        <ele>542</ele>
        <time>2024-12-07T23:18:31.619Z</time>
      </trkpt>
      <trkpt lat="45.86442" lon="3.5497">
        <ele>542</ele>
        <time>2024-12-07T23:18:32.619Z</time>
      </trkpt>
      <trkpt lat="45.86443" lon="3.54972">
        <ele>542</ele>
        <time>2024-12-07T23:18:33.619Z</time>
      </trkpt>
      <trkpt lat="45.86443" lon="3.54975">
        <ele>542</ele>
        <time>2024-12-07T23:18:34.620Z</time>
      </trkpt>
      <trkpt lat="45.86443" lon="3.54978">
        <ele>543</ele>
        <time>2024-12-07T23:18:35.620Z</time>
      </trkpt>
      <trkpt lat="45.86444" lon="3.5498">
        <ele>543</ele>
        <time>2024-12-07T23:18:36.619Z</time>
      </trkpt>
      <trkpt lat="45.86444" lon="3.54982">
        <ele>543</ele>
        <time>2024-12-07T23:18:37.619Z</time>
      </trkpt>
      <trkpt lat="45.86444" lon="3.54985">
        <ele>543</ele>
        <time>2024-12-07T23:18:38.620Z</time>
      </trkpt>
      <trkpt lat="45.86445" lon="3.54987">
        <ele>543</ele>
        <time>2024-12-07T23:18:39.619Z</time>
      </trkpt>
      <trkpt lat="45.86445" lon="3.54989">
        <ele>543</ele>
        <time>2024-12-07T23:18:40.620Z</time>
      </trkpt>
      <trkpt lat="45.86445" lon="3.54992">
        <ele>543</ele>
        <time>2024-12-07T23:18:41.619Z</time>
      </trkpt>
      <trkpt lat="45.86445" lon="3.54994">
        <ele>543</ele>
        <time>2024-12-07T23:18:42.620Z</time>
      </trkpt>
      <trkpt lat="45.86445" lon="3.54996">
        <ele>544</ele>
        <time>2024-12-07T23:18:43.619Z</time>
      </trkpt>
      <trkpt lat="45.86445" lon="3.54999">
        <ele>544</ele>
        <time>2024-12-07T23:18:44.619Z</time>
      </trkpt>
      <trkpt lat="45.86445" lon="3.55001">
        <ele>544</ele>
        <time>2024-12-07T23:18:45.619Z</time>
      </trkpt>
      <trkpt lat="45.86445" lon="3.55004">
        <ele>544</ele>
        <time>2024-12-07T23:18:46.620Z</time>
      </trkpt>
      <trkpt lat="45.86445" lon="3.55007">
        <ele>544</ele>
        <time>2024-12-07T23:18:47.620Z</time>
      </trkpt>
      <trkpt lat="45.86444" lon="3.5501">
        <ele>544</ele>
        <time>2024-12-07T23:18:48.620Z</time>
      </trkpt>
      <trkpt lat="45.86444" lon="3.55013">
        <ele>544</ele>
        <time>2024-12-07T23:18:49.619Z</time>
      </trkpt>
      <trkpt lat="45.86444" lon="3.55015">
        <ele>544</ele>
        <time>2024-12-07T23:18:50.619Z</time>
      </trkpt>
      <trkpt lat="45.86443" lon="3.55018">
        <ele>544</ele>
        <time>2024-12-07T23:18:51.619Z</time>
      </trkpt>
      <trkpt lat="45.86443" lon="3.55021">
        <ele>544</ele>
        <time>2024-12-07T23:18:52.619Z</time>
      </trkpt>
      <trkpt lat="45.86443" lon="3.55023">
        <ele>544</ele>
        <time>2024-12-07T23:18:53.620Z</time>
      </trkpt>
      <trkpt lat="45.86442" lon="3.55026">
        <ele>543</ele>
        <time>2024-12-07T23:18:54.619Z</time>
      </trkpt>
      <trkpt lat="45.86442" lon="3.55028">
        <ele>543</ele>
        <time>2024-12-07T23:18:55.619Z</time>
      </trkpt>
      <trkpt lat="45.86441" lon="3.55031">
        <ele>543</ele>
        <time>2024-12-07T23:18:56.619Z</time>
      </trkpt>
      <trkpt lat="45.86441" lon="3.55033">
        <ele>543</ele>
        <time>2024-12-07T23:18:57.620Z</time>
      </trkpt>
      <trkpt lat="45.8644" lon="3.55036">
        <ele>543</ele>
        <time>2024-12-07T23:18:58.620Z</time>
      </trkpt>
      <trkpt lat="45.8644" lon="3.55039">
        <ele>543</ele>
        <time>2024-12-07T23:18:59.620Z</time>
      </trkpt>
      <trkpt lat="45.86439" lon="3.55042">
        <ele>543</ele>
        <time>2024-12-07T23:19:00.619Z</time>
      </trkpt>
      <trkpt lat="45.86438" lon="3.55044">
        <ele>543</ele>
        <time>2024-12-07T23:19:01.620Z</time>
      </trkpt>
      <trkpt lat="45.86438" lon="3.55046">
        <ele>543</ele>
        <time>2024-12-07T23:19:02.619Z</time>
      </trkpt>
      <trkpt lat="45.86438" lon="3.55049">
        <ele>543</ele>
        <time>2024-12-07T23:19:03.619Z</time>
      </trkpt>
      <trkpt lat="45.86437" lon="3.55052">
        <ele>542</ele>
        <time>2024-12-07T23:19:04.620Z</time>
      </trkpt>
      <trkpt lat="45.86437" lon="3.55055">
        <ele>543</ele>
        <time>2024-12-07T23:19:05.620Z</time>
      </trkpt>
      <trkpt lat="45.86436" lon="3.55058">
        <ele>543</ele>
        <time>2024-12-07T23:19:06.619Z</time>
      </trkpt>
      <trkpt lat="45.86435" lon="3.5506">
        <ele>543</ele>
        <time>2024-12-07T23:19:07.619Z</time>
      </trkpt>
      <trkpt lat="45.86435" lon="3.55063">
        <ele>543</ele>
        <time>2024-12-07T23:19:08.620Z</time>
      </trkpt>
      <trkpt lat="45.86434" lon="3.55066">
        <ele>543</ele>
        <time>2024-12-07T23:19:09.619Z</time>
      </trkpt>
      <trkpt lat="45.86434" lon="3.55068">
        <ele>543</ele>
        <time>2024-12-07T23:19:10.620Z</time>
      </trkpt>
      <trkpt lat="45.86434" lon="3.55071">
        <ele>544</ele>
        <time>2024-12-07T23:19:11.619Z</time>
      </trkpt>
      <trkpt lat="45.86433" lon="3.55074">
        <ele>544</ele>
        <time>2024-12-07T23:19:12.620Z</time>
      </trkpt>
      <trkpt lat="45.86433" lon="3.55077">
        <ele>544</ele>
        <time>2024-12-07T23:19:13.619Z</time>
      </trkpt>
      <trkpt lat="45.86433" lon="3.5508">
        <ele>544</ele>
        <time>2024-12-07T23:19:14.620Z</time>
      </trkpt>
      <trkpt lat="45.86433" lon="3.55083">
        <ele>545</ele>
        <time>2024-12-07T23:19:15.619Z</time>
      </trkpt>
      <trkpt lat="45.86432" lon="3.55085">
        <ele>545</ele>
        <time>2024-12-07T23:19:16.620Z</time>
      </trkpt>
      <trkpt lat="45.86432" lon="3.55087">
        <ele>545</ele>
        <time>2024-12-07T23:19:17.620Z</time>
      </trkpt>
      <trkpt lat="45.86432" lon="3.55089">
        <ele>545</ele>
        <time>2024-12-07T23:19:18.619Z</time>
      </trkpt>
      <trkpt lat="45.86432" lon="3.55092">
        <ele>545</ele>
        <time>2024-12-07T23:19:19.619Z</time>
      </trkpt>
      <trkpt lat="45.86432" lon="3.55094">
        <ele>545</ele>
        <time>2024-12-07T23:19:20.619Z</time>
      </trkpt>
      <trkpt lat="45.86432" lon="3.55097">
        <ele>545</ele>
        <time>2024-12-07T23:19:21.620Z</time>
      </trkpt>
      <trkpt lat="45.86432" lon="3.551">
        <ele>545</ele>
        <time>2024-12-07T23:19:22.620Z</time>
      </trkpt>
      <trkpt lat="45.86432" lon="3.55103">
        <ele>546</ele>
        <time>2024-12-07T23:19:23.619Z</time>
      </trkpt>
      <trkpt lat="45.86431" lon="3.55106">
        <ele>546</ele>
        <time>2024-12-07T23:19:24.620Z</time>
      </trkpt>
      <trkpt lat="45.86431" lon="3.55109">
        <ele>545</ele>
        <time>2024-12-07T23:19:25.619Z</time>
      </trkpt>
      <trkpt lat="45.86431" lon="3.55111">
        <ele>545</ele>
        <time>2024-12-07T23:19:26.619Z</time>
      </trkpt>
      <trkpt lat="45.86431" lon="3.55114">
        <ele>545</ele>
        <time>2024-12-07T23:19:27.619Z</time>
      </trkpt>
      <trkpt lat="45.86431" lon="3.55116">
        <ele>546</ele>
        <time>2024-12-07T23:19:28.620Z</time>
      </trkpt>
      <trkpt lat="45.86431" lon="3.55119">
        <ele>546</ele>
        <time>2024-12-07T23:19:29.619Z</time>
      </trkpt>
      <trkpt lat="45.86431" lon="3.55121">
        <ele>546</ele>
        <time>2024-12-07T23:19:30.620Z</time>
      </trkpt>
      <trkpt lat="45.86431" lon="3.55123">
        <ele>546</ele>
        <time>2024-12-07T23:19:31.619Z</time>
      </trkpt>
      <trkpt lat="45.86431" lon="3.55125">
        <ele>546</ele>
        <time>2024-12-07T23:19:32.620Z</time>
      </trkpt>
      <trkpt lat="45.86431" lon="3.55128">
        <ele>547</ele>
        <time>2024-12-07T23:19:33.619Z</time>
      </trkpt>
      <trkpt lat="45.8643" lon="3.5513">
        <ele>547</ele>
        <time>2024-12-07T23:19:34.619Z</time>
      </trkpt>
      <trkpt lat="45.8643" lon="3.55133">
        <ele>547</ele>
        <time>2024-12-07T23:19:35.620Z</time>
      </trkpt>
      <trkpt lat="45.8643" lon="3.55136">
        <ele>547</ele>
        <time>2024-12-07T23:19:36.619Z</time>
      </trkpt>
      <trkpt lat="45.8643" lon="3.55138">
        <ele>548</ele>
        <time>2024-12-07T23:19:37.620Z</time>
      </trkpt>
      <trkpt lat="45.86429" lon="3.55141">
        <ele>548</ele>
        <time>2024-12-07T23:19:38.620Z</time>
      </trkpt>
      <trkpt lat="45.86429" lon="3.55144">
        <ele>548</ele>
        <time>2024-12-07T23:19:39.620Z</time>
      </trkpt>
      <trkpt lat="45.86429" lon="3.55146">
        <ele>548</ele>
        <time>2024-12-07T23:19:40.619Z</time>
      </trkpt>
      <trkpt lat="45.86429" lon="3.55149">
        <ele>548</ele>
        <time>2024-12-07T23:19:41.619Z</time>
      </trkpt>
      <trkpt lat="45.86428" lon="3.55151">
        <ele>548</ele>
        <time>2024-12-07T23:19:42.619Z</time>
      </trkpt>
      <trkpt lat="45.86428" lon="3.55154">
        <ele>549</ele>
        <time>2024-12-07T23:19:43.620Z</time>
      </trkpt>
      <trkpt lat="45.86428" lon="3.55157">
        <ele>549</ele>
        <time>2024-12-07T23:19:44.619Z</time>
      </trkpt>
      <trkpt lat="45.86428" lon="3.55159">
        <ele>549</ele>
        <time>2024-12-07T23:19:45.620Z</time>
      </trkpt>
      <trkpt lat="45.86429" lon="3.55162">
        <ele>549</ele>
        <time>2024-12-07T23:19:46.620Z</time>
      </trkpt>
      <trkpt lat="45.86429" lon="3.55164">
        <ele>550</ele>
        <time>2024-12-07T23:19:47.620Z</time>
      </trkpt>
      <trkpt lat="45.8643" lon="3.55167">
        <ele>550</ele>
        <time>2024-12-07T23:19:48.620Z</time>
      </trkpt>
      <trkpt lat="45.8643" lon="3.55169">
        <ele>550</ele>
        <time>2024-12-07T23:19:49.620Z</time>
      </trkpt>
      <trkpt lat="45.86431" lon="3.55172">
        <ele>550</ele>
        <time>2024-12-07T23:19:50.619Z</time>
      </trkpt>
      <trkpt lat="45.86432" lon="3.55175">
        <ele>550</ele>
        <time>2024-12-07T23:19:51.619Z</time>
      </trkpt>
      <trkpt lat="45.86433" lon="3.55178">
        <ele>550</ele>
        <time>2024-12-07T23:19:52.619Z</time>
      </trkpt>
      <trkpt lat="45.86434" lon="3.5518">
        <ele>550</ele>
        <time>2024-12-07T23:19:53.619Z</time>
      </trkpt>
      <trkpt lat="45.86435" lon="3.55183">
        <ele>550</ele>
        <time>2024-12-07T23:19:54.620Z</time>
      </trkpt>
      <trkpt lat="45.86436" lon="3.55185">
        <ele>550</ele>
        <time>2024-12-07T23:19:55.619Z</time>
      </trkpt>
      <trkpt lat="45.86437" lon="3.55187">
        <ele>550</ele>
        <time>2024-12-07T23:19:56.620Z</time>
      </trkpt>
      <trkpt lat="45.86438" lon="3.55189">
        <ele>551</ele>
        <time>2024-12-07T23:19:57.619Z</time>
      </trkpt>
      <trkpt lat="45.86439" lon="3.55191">
        <ele>551</ele>
        <time>2024-12-07T23:19:58.620Z</time>
      </trkpt>
      <trkpt lat="45.8644" lon="3.55193">
        <ele>551</ele>
        <time>2024-12-07T23:19:59.619Z</time>
      </trkpt>
      <trkpt lat="45.86442" lon="3.55195">
        <ele>551</ele>
        <time>2024-12-07T23:20:00.619Z</time>
      </trkpt>
      <trkpt lat="45.86443" lon="3.55198">
        <ele>550</ele>
        <time>2024-12-07T23:20:01.619Z</time>
      </trkpt>
      <trkpt lat="45.86443" lon="3.55201">
        <ele>550</ele>
        <time>2024-12-07T23:20:02.620Z</time>
      </trkpt>
      <trkpt lat="45.86444" lon="3.55203">
        <ele>550</ele>
        <time>2024-12-07T23:20:03.620Z</time>
      </trkpt>
      <trkpt lat="45.86445" lon="3.55206">
        <ele>550</ele>
        <time>2024-12-07T23:20:04.619Z</time>
      </trkpt>
      <trkpt lat="45.86445" lon="3.55209">
        <ele>550</ele>
        <time>2024-12-07T23:20:05.619Z</time>
      </trkpt>
      <trkpt lat="45.86445" lon="3.55211">
        <ele>550</ele>
        <time>2024-12-07T23:20:06.620Z</time>
      </trkpt>
      <trkpt lat="45.86445" lon="3.55214">
        <ele>550</ele>
        <time>2024-12-07T23:20:07.620Z</time>
      </trkpt>
      <trkpt lat="45.86445" lon="3.55216">
        <ele>550</ele>
        <time>2024-12-07T23:20:08.620Z</time>
      </trkpt>
      <trkpt lat="45.86445" lon="3.55219">
        <ele>550</ele>
        <time>2024-12-07T23:20:09.619Z</time>
      </trkpt>
      <trkpt lat="45.86444" lon="3.55222">
        <ele>550</ele>
        <time>2024-12-07T23:20:10.619Z</time>
      </trkpt>
      <trkpt lat="45.86444" lon="3.55225">
        <ele>551</ele>
        <time>2024-12-07T23:20:11.620Z</time>
      </trkpt>
      <trkpt lat="45.86443" lon="3.55227">
        <ele>551</ele>
        <time>2024-12-07T23:20:12.619Z</time>
      </trkpt>
      <trkpt lat="45.86443" lon="3.5523">
        <ele>551</ele>
        <time>2024-12-07T23:20:13.620Z</time>
      </trkpt>
      <trkpt lat="45.86442" lon="3.55233">
        <ele>551</ele>
        <time>2024-12-07T23:20:14.619Z</time>
      </trkpt>
      <trkpt lat="45.86442" lon="3.55235">
        <ele>551</ele>
        <time>2024-12-07T23:20:15.620Z</time>
      </trkpt>
      <trkpt lat="45.86442" lon="3.55238">
        <ele>551</ele>
        <time>2024-12-07T23:20:16.620Z</time>
      </trkpt>
      <trkpt lat="45.86441" lon="3.55241">
        <ele>552</ele>
        <time>2024-12-07T23:20:17.620Z</time>
      </trkpt>
      <trkpt lat="45.86441" lon="3.55244">
        <ele>552</ele>
        <time>2024-12-07T23:20:18.619Z</time>
      </trkpt>
      <trkpt lat="45.86441" lon="3.55247">
        <ele>551</ele>
        <time>2024-12-07T23:20:19.619Z</time>
      </trkpt>
      <trkpt lat="45.86441" lon="3.55249">
        <ele>552</ele>
        <time>2024-12-07T23:20:20.619Z</time>
      </trkpt>
      <trkpt lat="45.86442" lon="3.55252">
        <ele>551</ele>
        <time>2024-12-07T23:20:21.620Z</time>
      </trkpt>
      <trkpt lat="45.86442" lon="3.55255">
        <ele>551</ele>
        <time>2024-12-07T23:20:22.620Z</time>
      </trkpt>
      <trkpt lat="45.86442" lon="3.55257">
        <ele>551</ele>
        <time>2024-12-07T23:20:23.619Z</time>
      </trkpt>
      <trkpt lat="45.86443" lon="3.5526">
        <ele>551</ele>
        <time>2024-12-07T23:20:24.620Z</time>
      </trkpt>
      <trkpt lat="45.86443" lon="3.55262">
        <ele>551</ele>
        <time>2024-12-07T23:20:25.619Z</time>
      </trkpt>
      <trkpt lat="45.86444" lon="3.55265">
        <ele>551</ele>
        <time>2024-12-07T23:20:26.619Z</time>
      </trkpt>
      <trkpt lat="45.86444" lon="3.55267">
        <ele>551</ele>
        <time>2024-12-07T23:20:27.619Z</time>
      </trkpt>
      <trkpt lat="45.86445" lon="3.5527">
        <ele>550</ele>
        <time>2024-12-07T23:20:28.620Z</time>
      </trkpt>
      <trkpt lat="45.86446" lon="3.55273">
        <ele>550</ele>
        <time>2024-12-07T23:20:29.619Z</time>
      </trkpt>
      <trkpt lat="45.86447" lon="3.55276">
        <ele>550</ele>
        <time>2024-12-07T23:20:30.619Z</time>
      </trkpt>
      <trkpt lat="45.86448" lon="3.55278">
        <ele>550</ele>
        <time>2024-12-07T23:20:31.620Z</time>
      </trkpt>
      <trkpt lat="45.86448" lon="3.55281">
        <ele>550</ele>
        <time>2024-12-07T23:20:32.619Z</time>
      </trkpt>
      <trkpt lat="45.86449" lon="3.55283">
        <ele>550</ele>
        <time>2024-12-07T23:20:33.619Z</time>
      </trkpt>
      <trkpt lat="45.8645" lon="3.55285">
        <ele>550</ele>
        <time>2024-12-07T23:20:34.619Z</time>
      </trkpt>
      <trkpt lat="45.8645" lon="3.55287">
        <ele>550</ele>
        <time>2024-12-07T23:20:35.620Z</time>
      </trkpt>
      <trkpt lat="45.86451" lon="3.5529">
        <ele>550</ele>
        <time>2024-12-07T23:20:36.619Z</time>
      </trkpt>
      <trkpt lat="45.86452" lon="3.55292">
        <ele>550</ele>
        <time>2024-12-07T23:20:37.619Z</time>
      </trkpt>
      <trkpt lat="45.86453" lon="3.55295">
        <ele>550</ele>
        <time>2024-12-07T23:20:38.619Z</time>
      </trkpt>
      <trkpt lat="45.86454" lon="3.55298">
        <ele>550</ele>
        <time>2024-12-07T23:20:39.619Z</time>
      </trkpt>
      <trkpt lat="45.86455" lon="3.553">
        <ele>549</ele>
        <time>2024-12-07T23:20:40.620Z</time>
      </trkpt>
      <trkpt lat="45.86456" lon="3.55302">
        <ele>549</ele>
        <time>2024-12-07T23:20:41.619Z</time>
      </trkpt>
      <trkpt lat="45.86457" lon="3.55304">
        <ele>549</ele>
        <time>2024-12-07T23:20:42.619Z</time>
      </trkpt>
      <trkpt lat="45.86458" lon="3.55306">
        <ele>549</ele>
        <time>2024-12-07T23:20:43.620Z</time>
      </trkpt>
      <trkpt lat="45.86459" lon="3.55307">
        <ele>549</ele>
        <time>2024-12-07T23:20:44.620Z</time>
      </trkpt>
      <trkpt lat="45.8646" lon="3.55309">
        <ele>549</ele>
        <time>2024-12-07T23:20:45.619Z</time>
      </trkpt>
      <trkpt lat="45.86461" lon="3.5531">
        <ele>549</ele>
        <time>2024-12-07T23:20:46.620Z</time>
      </trkpt>
      <trkpt lat="45.86462" lon="3.55311">
        <ele>549</ele>
        <time>2024-12-07T23:20:47.620Z</time>
      </trkpt>
      <trkpt lat="45.86463" lon="3.55313">
        <ele>549</ele>
        <time>2024-12-07T23:20:48.620Z</time>
      </trkpt>
      <trkpt lat="45.86464" lon="3.55315">
        <ele>549</ele>
        <time>2024-12-07T23:20:49.620Z</time>
      </trkpt>
      <trkpt lat="45.86514" lon="3.55352">
        <ele>550</ele>
        <time>2024-12-07T23:21:16.620Z</time>
      </trkpt>
      <trkpt lat="45.86516" lon="3.55351">
        <ele>550</ele>
        <time>2024-12-07T23:21:17.619Z</time>
      </trkpt>
      <trkpt lat="45.86516" lon="3.55354">
        <ele>551</ele>
        <time>2024-12-07T23:21:18.619Z</time>
      </trkpt>
      <trkpt lat="45.8652" lon="3.55355">
        <ele>551</ele>
        <time>2024-12-07T23:21:19.620Z</time>
      </trkpt>
      <trkpt lat="45.86522" lon="3.55356">
        <ele>552</ele>
        <time>2024-12-07T23:21:20.619Z</time>
      </trkpt>
      <trkpt lat="45.86524" lon="3.55359">
        <ele>552</ele>
        <time>2024-12-07T23:21:21.619Z</time>
      </trkpt>
      <trkpt lat="45.86526" lon="3.55361">
        <ele>553</ele>
        <time>2024-12-07T23:21:22.619Z</time>
      </trkpt>
      <trkpt lat="45.86527" lon="3.55362">
        <ele>553</ele>
        <time>2024-12-07T23:21:23.619Z</time>
      </trkpt>
      <trkpt lat="45.86528" lon="3.55362">
        <ele>554</ele>
        <time>2024-12-07T23:21:24.619Z</time>
      </trkpt>
      <trkpt lat="45.8653" lon="3.55362">
        <ele>555</ele>
        <time>2024-12-07T23:21:25.619Z</time>
      </trkpt>
      <trkpt lat="45.86532" lon="3.55364">
        <ele>555</ele>
        <time>2024-12-07T23:21:26.619Z</time>
      </trkpt>
      <trkpt lat="45.86533" lon="3.55365">
        <ele>556</ele>
        <time>2024-12-07T23:21:27.620Z</time>
      </trkpt>
      <trkpt lat="45.86534" lon="3.55366">
        <ele>556</ele>
        <time>2024-12-07T23:21:28.620Z</time>
      </trkpt>
      <trkpt lat="45.86535" lon="3.55367">
        <ele>557</ele>
        <time>2024-12-07T23:21:29.620Z</time>
      </trkpt>
      <trkpt lat="45.86536" lon="3.55368">
        <ele>557</ele>
        <time>2024-12-07T23:21:30.619Z</time>
      </trkpt>
      <trkpt lat="45.86538" lon="3.55369">
        <ele>558</ele>
        <time>2024-12-07T23:21:31.620Z</time>
      </trkpt>
      <trkpt lat="45.86539" lon="3.5537">
        <ele>558</ele>
        <time>2024-12-07T23:21:32.620Z</time>
      </trkpt>
      <trkpt lat="45.86541" lon="3.5537">
        <ele>559</ele>
        <time>2024-12-07T23:21:33.619Z</time>
      </trkpt>
      <trkpt lat="45.86542" lon="3.55371">
        <ele>559</ele>
        <time>2024-12-07T23:21:34.620Z</time>
      </trkpt>
      <trkpt lat="45.86543" lon="3.55373">
        <ele>560</ele>
        <time>2024-12-07T23:21:35.619Z</time>
      </trkpt>
      <trkpt lat="45.86545" lon="3.55374">
        <ele>560</ele>
        <time>2024-12-07T23:21:36.619Z</time>
      </trkpt>
      <trkpt lat="45.86548" lon="3.55375">
        <ele>560</ele>
        <time>2024-12-07T23:21:37.619Z</time>
      </trkpt>
      <trkpt lat="45.8655" lon="3.55376">
        <ele>561</ele>
        <time>2024-12-07T23:21:38.620Z</time>
      </trkpt>
      <trkpt lat="45.86551" lon="3.55376">
        <ele>561</ele>
        <time>2024-12-07T23:21:39.619Z</time>
      </trkpt>
      <trkpt lat="45.86552" lon="3.55377">
        <ele>561</ele>
        <time>2024-12-07T23:21:40.620Z</time>
      </trkpt>
      <trkpt lat="45.86554" lon="3.55378">
        <ele>561</ele>
        <time>2024-12-07T23:21:41.619Z</time>
      </trkpt>
      <trkpt lat="45.86556" lon="3.55379">
        <ele>562</ele>
        <time>2024-12-07T23:21:42.620Z</time>
      </trkpt>
      <trkpt lat="45.86557" lon="3.55381">
        <ele>562</ele>
        <time>2024-12-07T23:21:43.619Z</time>
      </trkpt>
      <trkpt lat="45.86558" lon="3.55382">
        <ele>562</ele>
        <time>2024-12-07T23:21:44.620Z</time>
      </trkpt>
      <trkpt lat="45.86559" lon="3.55383">
        <ele>563</ele>
        <time>2024-12-07T23:21:45.620Z</time>
      </trkpt>
      <trkpt lat="45.86561" lon="3.55384">
        <ele>563</ele>
        <time>2024-12-07T23:21:46.619Z</time>
      </trkpt>
      <trkpt lat="45.86562" lon="3.55385">
        <ele>563</ele>
        <time>2024-12-07T23:21:47.619Z</time>
      </trkpt>
      <trkpt lat="45.86563" lon="3.55386">
        <ele>563</ele>
        <time>2024-12-07T23:21:48.620Z</time>
      </trkpt>
      <trkpt lat="45.86564" lon="3.55387">
        <ele>563</ele>
        <time>2024-12-07T23:21:49.619Z</time>
      </trkpt>
      <trkpt lat="45.86565" lon="3.55389">
        <ele>563</ele>
        <time>2024-12-07T23:21:50.619Z</time>
      </trkpt>
      <trkpt lat="45.86566" lon="3.5539">
        <ele>563</ele>
        <time>2024-12-07T23:21:51.620Z</time>
      </trkpt>
      <trkpt lat="45.86568" lon="3.55391">
        <ele>563</ele>
        <time>2024-12-07T23:21:52.620Z</time>
      </trkpt>
      <trkpt lat="45.86569" lon="3.55392">
        <ele>563</ele>
        <time>2024-12-07T23:21:53.619Z</time>
      </trkpt>
      <trkpt lat="45.8657" lon="3.55394">
        <ele>563</ele>
        <time>2024-12-07T23:21:54.620Z</time>
      </trkpt>
      <trkpt lat="45.86571" lon="3.55395">
        <ele>563</ele>
        <time>2024-12-07T23:21:55.619Z</time>
      </trkpt>
      <trkpt lat="45.86572" lon="3.55396">
        <ele>563</ele>
        <time>2024-12-07T23:21:56.620Z</time>
      </trkpt>
      <trkpt lat="45.86573" lon="3.55398">
        <ele>562</ele>
        <time>2024-12-07T23:21:57.619Z</time>
      </trkpt>
      <trkpt lat="45.86574" lon="3.55399">
        <ele>562</ele>
        <time>2024-12-07T23:21:58.619Z</time>
      </trkpt>
      <trkpt lat="45.86575" lon="3.554">
        <ele>561</ele>
        <time>2024-12-07T23:21:59.619Z</time>
      </trkpt>
      <trkpt lat="45.86576" lon="3.55402">
        <ele>561</ele>
        <time>2024-12-07T23:22:00.620Z</time>
      </trkpt>
      <trkpt lat="45.86577" lon="3.55404">
        <ele>560</ele>
        <time>2024-12-07T23:22:01.620Z</time>
      </trkpt>
      <trkpt lat="45.86579" lon="3.55405">
        <ele>560</ele>
        <time>2024-12-07T23:22:02.620Z</time>
      </trkpt>
      <trkpt lat="45.86579" lon="3.55407">
        <ele>560</ele>
        <time>2024-12-07T23:22:03.620Z</time>
      </trkpt>
      <trkpt lat="45.8658" lon="3.55409">
        <ele>560</ele>
        <time>2024-12-07T23:22:04.619Z</time>
      </trkpt>
      <trkpt lat="45.86581" lon="3.5541">
        <ele>559</ele>
        <time>2024-12-07T23:22:05.620Z</time>
      </trkpt>
      <trkpt lat="45.86583" lon="3.55411">
        <ele>559</ele>
        <time>2024-12-07T23:22:06.619Z</time>
      </trkpt>
      <trkpt lat="45.86584" lon="3.55413">
        <ele>559</ele>
        <time>2024-12-07T23:22:07.620Z</time>
      </trkpt>
      <trkpt lat="45.86584" lon="3.55414">
        <ele>559</ele>
        <time>2024-12-07T23:22:08.619Z</time>
      </trkpt>
      <trkpt lat="45.86585" lon="3.55416">
        <ele>559</ele>
        <time>2024-12-07T23:22:09.619Z</time>
      </trkpt>
      <trkpt lat="45.86586" lon="3.55418">
        <ele>559</ele>
        <time>2024-12-07T23:22:10.619Z</time>
      </trkpt>
      <trkpt lat="45.86587" lon="3.5542">
        <ele>559</ele>
        <time>2024-12-07T23:22:11.620Z</time>
      </trkpt>
      <trkpt lat="45.86587" lon="3.55422">
        <ele>559</ele>
        <time>2024-12-07T23:22:12.619Z</time>
      </trkpt>
      <trkpt lat="45.86588" lon="3.55424">
        <ele>559</ele>
        <time>2024-12-07T23:22:13.620Z</time>
      </trkpt>
      <trkpt lat="45.86588" lon="3.55426">
        <ele>559</ele>
        <time>2024-12-07T23:22:14.620Z</time>
      </trkpt>
      <trkpt lat="45.86589" lon="3.55428">
        <ele>559</ele>
        <time>2024-12-07T23:22:15.619Z</time>
      </trkpt>
      <trkpt lat="45.8659" lon="3.5543">
        <ele>559</ele>
        <time>2024-12-07T23:22:16.620Z</time>
      </trkpt>
      <trkpt lat="45.8659" lon="3.55432">
        <ele>559</ele>
        <time>2024-12-07T23:22:17.619Z</time>
      </trkpt>
      <trkpt lat="45.8659" lon="3.55434">
        <ele>560</ele>
        <time>2024-12-07T23:22:18.620Z</time>
      </trkpt>
      <trkpt lat="45.86591" lon="3.55436">
        <ele>560</ele>
        <time>2024-12-07T23:22:19.619Z</time>
      </trkpt>
      <trkpt lat="45.86591" lon="3.55439">
        <ele>561</ele>
        <time>2024-12-07T23:22:20.619Z</time>
      </trkpt>
      <trkpt lat="45.86591" lon="3.55441">
        <ele>561</ele>
        <time>2024-12-07T23:22:21.620Z</time>
      </trkpt>
      <trkpt lat="45.86591" lon="3.55444">
        <ele>561</ele>
        <time>2024-12-07T23:22:22.619Z</time>
      </trkpt>
      <trkpt lat="45.86591" lon="3.55446">
        <ele>562</ele>
        <time>2024-12-07T23:22:23.619Z</time>
      </trkpt>
      <trkpt lat="45.86591" lon="3.55448">
        <ele>562</ele>
        <time>2024-12-07T23:22:24.619Z</time>
      </trkpt>
      <trkpt lat="45.8659" lon="3.5545">
        <ele>562</ele>
        <time>2024-12-07T23:22:25.620Z</time>
      </trkpt>
      <trkpt lat="45.8659" lon="3.55452">
        <ele>563</ele>
        <time>2024-12-07T23:22:26.620Z</time>
      </trkpt>
      <trkpt lat="45.8659" lon="3.55454">
        <ele>562</ele>
        <time>2024-12-07T23:22:27.620Z</time>
      </trkpt>
      <trkpt lat="45.86589" lon="3.55456">
        <ele>562</ele>
        <time>2024-12-07T23:22:28.619Z</time>
      </trkpt>
      <trkpt lat="45.86588" lon="3.55458">
        <ele>562</ele>
        <time>2024-12-07T23:22:29.619Z</time>
      </trkpt>
      <trkpt lat="45.86588" lon="3.5546">
        <ele>562</ele>
        <time>2024-12-07T23:22:30.620Z</time>
      </trkpt>
      <trkpt lat="45.86587" lon="3.55463">
        <ele>562</ele>
        <time>2024-12-07T23:22:31.620Z</time>
      </trkpt>
      <trkpt lat="45.86587" lon="3.55465">
        <ele>563</ele>
        <time>2024-12-07T23:22:32.619Z</time>
      </trkpt>
      <trkpt lat="45.86586" lon="3.55467">
        <ele>564</ele>
        <time>2024-12-07T23:22:33.619Z</time>
      </trkpt>
      <trkpt lat="45.86586" lon="3.55469">
        <ele>564</ele>
        <time>2024-12-07T23:22:34.620Z</time>
      </trkpt>
      <trkpt lat="45.86586" lon="3.55471">
        <ele>565</ele>
        <time>2024-12-07T23:22:35.619Z</time>
      </trkpt>
      <trkpt lat="45.86585" lon="3.55473">
        <ele>565</ele>
        <time>2024-12-07T23:22:36.620Z</time>
      </trkpt>
      <trkpt lat="45.86584" lon="3.55476">
        <ele>566</ele>
        <time>2024-12-07T23:22:37.619Z</time>
      </trkpt>
      <trkpt lat="45.86584" lon="3.55478">
        <ele>566</ele>
        <time>2024-12-07T23:22:38.620Z</time>
      </trkpt>
      <trkpt lat="45.86583" lon="3.5548">
        <ele>566</ele>
        <time>2024-12-07T23:22:39.619Z</time>
      </trkpt>
      <trkpt lat="45.86582" lon="3.55482">
        <ele>566</ele>
        <time>2024-12-07T23:22:40.620Z</time>
      </trkpt>
      <trkpt lat="45.86582" lon="3.55484">
        <ele>566</ele>
        <time>2024-12-07T23:22:41.619Z</time>
      </trkpt>
      <trkpt lat="45.86581" lon="3.55486">
        <ele>566</ele>
        <time>2024-12-07T23:22:42.619Z</time>
      </trkpt>
      <trkpt lat="45.86581" lon="3.55488">
        <ele>566</ele>
        <time>2024-12-07T23:22:43.620Z</time>
      </trkpt>
      <trkpt lat="45.8658" lon="3.5549">
        <ele>566</ele>
        <time>2024-12-07T23:22:44.619Z</time>
      </trkpt>
      <trkpt lat="45.8658" lon="3.55492">
        <ele>566</ele>
        <time>2024-12-07T23:22:45.619Z</time>
      </trkpt>
      <trkpt lat="45.8658" lon="3.55494">
        <ele>567</ele>
        <time>2024-12-07T23:22:46.620Z</time>
      </trkpt>
      <trkpt lat="45.8658" lon="3.55497">
        <ele>567</ele>
        <time>2024-12-07T23:22:47.620Z</time>
      </trkpt>
      <trkpt lat="45.86579" lon="3.55499">
        <ele>568</ele>
        <time>2024-12-07T23:22:48.619Z</time>
      </trkpt>
      <trkpt lat="45.86578" lon="3.55501">
        <ele>568</ele>
        <time>2024-12-07T23:22:49.620Z</time>
      </trkpt>
      <trkpt lat="45.86578" lon="3.55504">
        <ele>568</ele>
        <time>2024-12-07T23:22:50.620Z</time>
      </trkpt>
      <trkpt lat="45.86578" lon="3.55506">
        <ele>569</ele>
        <time>2024-12-07T23:22:51.620Z</time>
      </trkpt>
      <trkpt lat="45.86578" lon="3.55509">
        <ele>569</ele>
        <time>2024-12-07T23:22:52.619Z</time>
      </trkpt>
      <trkpt lat="45.86578" lon="3.55511">
        <ele>570</ele>
        <time>2024-12-07T23:22:53.619Z</time>
      </trkpt>
      <trkpt lat="45.86578" lon="3.55513">
        <ele>571</ele>
        <time>2024-12-07T23:22:54.619Z</time>
      </trkpt>
      <trkpt lat="45.86578" lon="3.55515">
        <ele>571</ele>
        <time>2024-12-07T23:22:55.619Z</time>
      </trkpt>
      <trkpt lat="45.86579" lon="3.55517">
        <ele>572</ele>
        <time>2024-12-07T23:22:56.620Z</time>
      </trkpt>
      <trkpt lat="45.86579" lon="3.5552">
        <ele>572</ele>
        <time>2024-12-07T23:22:57.619Z</time>
      </trkpt>
      <trkpt lat="45.86579" lon="3.55522">
        <ele>573</ele>
        <time>2024-12-07T23:22:58.619Z</time>
      </trkpt>
      <trkpt lat="45.86579" lon="3.55524">
        <ele>573</ele>
        <time>2024-12-07T23:22:59.620Z</time>
      </trkpt>
      <trkpt lat="45.86579" lon="3.55527">
        <ele>574</ele>
        <time>2024-12-07T23:23:00.619Z</time>
      </trkpt>
      <trkpt lat="45.86579" lon="3.55529">
        <ele>575</ele>
        <time>2024-12-07T23:23:01.619Z</time>
      </trkpt>
      <trkpt lat="45.86579" lon="3.55531">
        <ele>575</ele>
        <time>2024-12-07T23:23:02.619Z</time>
      </trkpt>
      <trkpt lat="45.8658" lon="3.55534">
        <ele>576</ele>
        <time>2024-12-07T23:23:03.619Z</time>
      </trkpt>
      <trkpt lat="45.86581" lon="3.55536">
        <ele>577</ele>
        <time>2024-12-07T23:23:04.619Z</time>
      </trkpt>
      <trkpt lat="45.86581" lon="3.55538">
        <ele>577</ele>
        <time>2024-12-07T23:23:05.619Z</time>
      </trkpt>
      <trkpt lat="45.86582" lon="3.5554">
        <ele>578</ele>
        <time>2024-12-07T23:23:06.619Z</time>
      </trkpt>
      <trkpt lat="45.86582" lon="3.55542">
        <ele>578</ele>
        <time>2024-12-07T23:23:07.620Z</time>
      </trkpt>
      <trkpt lat="45.86583" lon="3.55544">
        <ele>578</ele>
        <time>2024-12-07T23:23:08.620Z</time>
      </trkpt>
      <trkpt lat="45.86584" lon="3.55546">
        <ele>578</ele>
        <time>2024-12-07T23:23:09.619Z</time>
      </trkpt>
      <trkpt lat="45.86585" lon="3.55549">
        <ele>579</ele>
        <time>2024-12-07T23:23:10.619Z</time>
      </trkpt>
      <trkpt lat="45.86585" lon="3.55551">
        <ele>579</ele>
        <time>2024-12-07T23:23:11.620Z</time>
      </trkpt>
      <trkpt lat="45.86586" lon="3.55553">
        <ele>579</ele>
        <time>2024-12-07T23:23:12.620Z</time>
      </trkpt>
      <trkpt lat="45.86587" lon="3.55555">
        <ele>579</ele>
        <time>2024-12-07T23:23:13.620Z</time>
      </trkpt>
      <trkpt lat="45.86588" lon="3.55557">
        <ele>579</ele>
        <time>2024-12-07T23:23:14.619Z</time>
      </trkpt>
      <trkpt lat="45.86589" lon="3.55559">
        <ele>579</ele>
        <time>2024-12-07T23:23:15.620Z</time>
      </trkpt>
      <trkpt lat="45.8659" lon="3.55561">
        <ele>579</ele>
        <time>2024-12-07T23:23:16.619Z</time>
      </trkpt>
      <trkpt lat="45.8659" lon="3.55563">
        <ele>579</ele>
        <time>2024-12-07T23:23:17.620Z</time>
      </trkpt>
      <trkpt lat="45.86591" lon="3.55566">
        <ele>578</ele>
        <time>2024-12-07T23:23:18.619Z</time>
      </trkpt>
      <trkpt lat="45.86592" lon="3.55568">
        <ele>578</ele>
        <time>2024-12-07T23:23:19.620Z</time>
      </trkpt>
      <trkpt lat="45.86593" lon="3.55569">
        <ele>578</ele>
        <time>2024-12-07T23:23:20.620Z</time>
      </trkpt>
      <trkpt lat="45.86594" lon="3.55571">
        <ele>578</ele>
        <time>2024-12-07T23:23:21.620Z</time>
      </trkpt>
      <trkpt lat="45.86595" lon="3.55573">
        <ele>578</ele>
        <time>2024-12-07T23:23:22.620Z</time>
      </trkpt>
      <trkpt lat="45.86596" lon="3.55575">
        <ele>578</ele>
        <time>2024-12-07T23:23:23.619Z</time>
      </trkpt>
      <trkpt lat="45.86597" lon="3.55577">
        <ele>579</ele>
        <time>2024-12-07T23:23:24.619Z</time>
      </trkpt>
      <trkpt lat="45.86598" lon="3.55579">
        <ele>579</ele>
        <time>2024-12-07T23:23:25.619Z</time>
      </trkpt>
      <trkpt lat="45.86599" lon="3.55581">
        <ele>579</ele>
        <time>2024-12-07T23:23:26.620Z</time>
      </trkpt>
      <trkpt lat="45.866" lon="3.55583">
        <ele>579</ele>
        <time>2024-12-07T23:23:27.619Z</time>
      </trkpt>
      <trkpt lat="45.866" lon="3.55585">
        <ele>579</ele>
        <time>2024-12-07T23:23:28.620Z</time>
      </trkpt>
      <trkpt lat="45.86601" lon="3.55587">
        <ele>579</ele>
        <time>2024-12-07T23:23:29.620Z</time>
      </trkpt>
      <trkpt lat="45.86602" lon="3.55589">
        <ele>579</ele>
        <time>2024-12-07T23:23:30.620Z</time>
      </trkpt>
      <trkpt lat="45.86603" lon="3.55591">
        <ele>579</ele>
        <time>2024-12-07T23:23:31.620Z</time>
      </trkpt>
      <trkpt lat="45.86604" lon="3.55593">
        <ele>579</ele>
        <time>2024-12-07T23:23:32.619Z</time>
      </trkpt>
      <trkpt lat="45.86605" lon="3.55595">
        <ele>579</ele>
        <time>2024-12-07T23:23:33.620Z</time>
      </trkpt>
      <trkpt lat="45.86605" lon="3.55597">
        <ele>579</ele>
        <time>2024-12-07T23:23:34.619Z</time>
      </trkpt>
      <trkpt lat="45.86606" lon="3.55599">
        <ele>579</ele>
        <time>2024-12-07T23:23:35.619Z</time>
      </trkpt>
      <trkpt lat="45.86607" lon="3.55601">
        <ele>579</ele>
        <time>2024-12-07T23:23:36.619Z</time>
      </trkpt>
      <trkpt lat="45.86607" lon="3.55603">
        <ele>579</ele>
        <time>2024-12-07T23:23:37.620Z</time>
      </trkpt>
      <trkpt lat="45.86608" lon="3.55605">
        <ele>579</ele>
        <time>2024-12-07T23:23:38.619Z</time>
      </trkpt>
      <trkpt lat="45.86609" lon="3.55607">
        <ele>580</ele>
        <time>2024-12-07T23:23:39.620Z</time>
      </trkpt>
      <trkpt lat="45.8661" lon="3.55609">
        <ele>580</ele>
        <time>2024-12-07T23:23:40.620Z</time>
      </trkpt>
      <trkpt lat="45.86611" lon="3.55611">
        <ele>580</ele>
        <time>2024-12-07T23:23:41.620Z</time>
      </trkpt>
      <trkpt lat="45.86612" lon="3.55613">
        <ele>581</ele>
        <time>2024-12-07T23:23:42.620Z</time>
      </trkpt>
      <trkpt lat="45.86613" lon="3.55615">
        <ele>580</ele>
        <time>2024-12-07T23:23:43.620Z</time>
      </trkpt>
      <trkpt lat="45.86614" lon="3.55616">
        <ele>580</ele>
        <time>2024-12-07T23:23:44.619Z</time>
      </trkpt>
      <trkpt lat="45.86615" lon="3.55618">
        <ele>580</ele>
        <time>2024-12-07T23:23:45.619Z</time>
      </trkpt>
      <trkpt lat="45.86617" lon="3.5562">
        <ele>580</ele>
        <time>2024-12-07T23:23:46.620Z</time>
      </trkpt>
      <trkpt lat="45.86618" lon="3.55622">
        <ele>580</ele>
        <time>2024-12-07T23:23:47.619Z</time>
      </trkpt>
      <trkpt lat="45.86619" lon="3.55624">
        <ele>580</ele>
        <time>2024-12-07T23:23:48.619Z</time>
      </trkpt>
      <trkpt lat="45.8662" lon="3.55626">
        <ele>580</ele>
        <time>2024-12-07T23:23:49.619Z</time>
      </trkpt>
      <trkpt lat="45.86621" lon="3.55627">
        <ele>580</ele>
        <time>2024-12-07T23:23:50.619Z</time>
      </trkpt>
      <trkpt lat="45.86622" lon="3.5563">
        <ele>580</ele>
        <time>2024-12-07T23:23:51.620Z</time>
      </trkpt>
      <trkpt lat="45.86623" lon="3.55631">
        <ele>580</ele>
        <time>2024-12-07T23:23:52.620Z</time>
      </trkpt>
      <trkpt lat="45.86624" lon="3.55633">
        <ele>580</ele>
        <time>2024-12-07T23:23:53.619Z</time>
      </trkpt>
      <trkpt lat="45.86625" lon="3.55635">
        <ele>580</ele>
        <time>2024-12-07T23:23:54.619Z</time>
      </trkpt>
      <trkpt lat="45.86626" lon="3.55637">
        <ele>580</ele>
        <time>2024-12-07T23:23:55.620Z</time>
      </trkpt>
      <trkpt lat="45.86628" lon="3.55639">
        <ele>580</ele>
        <time>2024-12-07T23:23:56.619Z</time>
      </trkpt>
      <trkpt lat="45.86628" lon="3.55641">
        <ele>580</ele>
        <time>2024-12-07T23:23:57.619Z</time>
      </trkpt>
      <trkpt lat="45.8663" lon="3.55642">
        <ele>580</ele>
        <time>2024-12-07T23:23:58.619Z</time>
      </trkpt>
      <trkpt lat="45.86631" lon="3.55644">
        <ele>580</ele>
        <time>2024-12-07T23:23:59.619Z</time>
      </trkpt>
      <trkpt lat="45.86631" lon="3.55646">
        <ele>580</ele>
        <time>2024-12-07T23:24:00.619Z</time>
      </trkpt>
      <trkpt lat="45.86632" lon="3.55648">
        <ele>580</ele>
        <time>2024-12-07T23:24:01.619Z</time>
      </trkpt>
      <trkpt lat="45.86633" lon="3.55649">
        <ele>580</ele>
        <time>2024-12-07T23:24:02.620Z</time>
      </trkpt>
      <trkpt lat="45.86634" lon="3.55651">
        <ele>580</ele>
        <time>2024-12-07T23:24:03.619Z</time>
      </trkpt>
      <trkpt lat="45.86635" lon="3.55652">
        <ele>580</ele>
        <time>2024-12-07T23:24:04.619Z</time>
      </trkpt>
      <trkpt lat="45.86636" lon="3.55654">
        <ele>580</ele>
        <time>2024-12-07T23:24:05.619Z</time>
      </trkpt>
      <trkpt lat="45.86638" lon="3.55656">
        <ele>580</ele>
        <time>2024-12-07T23:24:06.620Z</time>
      </trkpt>
      <trkpt lat="45.86639" lon="3.55657">
        <ele>580</ele>
        <time>2024-12-07T23:24:07.620Z</time>
      </trkpt>
      <trkpt lat="45.8664" lon="3.55659">
        <ele>581</ele>
        <time>2024-12-07T23:24:08.619Z</time>
      </trkpt>
      <trkpt lat="45.86642" lon="3.5566">
        <ele>581</ele>
        <time>2024-12-07T23:24:09.620Z</time>
      </trkpt>
      <trkpt lat="45.86643" lon="3.55662">
        <ele>581</ele>
        <time>2024-12-07T23:24:10.619Z</time>
      </trkpt>
      <trkpt lat="45.86644" lon="3.55663">
        <ele>581</ele>
        <time>2024-12-07T23:24:11.620Z</time>
      </trkpt>
      <trkpt lat="45.86645" lon="3.55665">
        <ele>581</ele>
        <time>2024-12-07T23:24:12.619Z</time>
      </trkpt>
      <trkpt lat="45.86646" lon="3.55667">
        <ele>582</ele>
        <time>2024-12-07T23:24:13.619Z</time>
      </trkpt>
      <trkpt lat="45.86647" lon="3.55668">
        <ele>582</ele>
        <time>2024-12-07T23:24:14.619Z</time>
      </trkpt>
      <trkpt lat="45.86648" lon="3.55671">
        <ele>582</ele>
        <time>2024-12-07T23:24:15.620Z</time>
      </trkpt>
      <trkpt lat="45.86649" lon="3.55673">
        <ele>582</ele>
        <time>2024-12-07T23:24:16.619Z</time>
      </trkpt>
      <trkpt lat="45.8665" lon="3.55674">
        <ele>582</ele>
        <time>2024-12-07T23:24:17.620Z</time>
      </trkpt>
      <trkpt lat="45.86651" lon="3.55676">
        <ele>583</ele>
        <time>2024-12-07T23:24:18.619Z</time>
      </trkpt>
      <trkpt lat="45.86652" lon="3.55678">
        <ele>583</ele>
        <time>2024-12-07T23:24:19.619Z</time>
      </trkpt>
      <trkpt lat="45.86653" lon="3.5568">
        <ele>583</ele>
        <time>2024-12-07T23:24:20.619Z</time>
      </trkpt>
      <trkpt lat="45.86655" lon="3.55682">
        <ele>583</ele>
        <time>2024-12-07T23:24:21.620Z</time>
      </trkpt>
      <trkpt lat="45.86656" lon="3.55684">
        <ele>584</ele>
        <time>2024-12-07T23:24:22.620Z</time>
      </trkpt>
      <trkpt lat="45.86657" lon="3.55686">
        <ele>584</ele>
        <time>2024-12-07T23:24:23.619Z</time>
      </trkpt>
      <trkpt lat="45.86658" lon="3.55687">
        <ele>584</ele>
        <time>2024-12-07T23:24:24.620Z</time>
      </trkpt>
      <trkpt lat="45.86659" lon="3.5569">
        <ele>584</ele>
        <time>2024-12-07T23:24:25.619Z</time>
      </trkpt>
      <trkpt lat="45.86661" lon="3.55691">
        <ele>584</ele>
        <time>2024-12-07T23:24:26.619Z</time>
      </trkpt>
      <trkpt lat="45.86662" lon="3.55693">
        <ele>584</ele>
        <time>2024-12-07T23:24:27.620Z</time>
      </trkpt>
      <trkpt lat="45.86663" lon="3.55695">
        <ele>584</ele>
        <time>2024-12-07T23:24:28.619Z</time>
      </trkpt>
      <trkpt lat="45.86664" lon="3.55696">
        <ele>584</ele>
        <time>2024-12-07T23:24:29.620Z</time>
      </trkpt>
      <trkpt lat="45.86665" lon="3.55698">
        <ele>584</ele>
        <time>2024-12-07T23:24:30.619Z</time>
      </trkpt>
      <trkpt lat="45.86666" lon="3.557">
        <ele>584</ele>
        <time>2024-12-07T23:24:31.620Z</time>
      </trkpt>
      <trkpt lat="45.86668" lon="3.55701">
        <ele>584</ele>
        <time>2024-12-07T23:24:32.619Z</time>
      </trkpt>
      <trkpt lat="45.86669" lon="3.55703">
        <ele>584</ele>
        <time>2024-12-07T23:24:33.619Z</time>
      </trkpt>
      <trkpt lat="45.8667" lon="3.55705">
        <ele>585</ele>
        <time>2024-12-07T23:24:34.619Z</time>
      </trkpt>
      <trkpt lat="45.86671" lon="3.55707">
        <ele>585</ele>
        <time>2024-12-07T23:24:35.620Z</time>
      </trkpt>
      <trkpt lat="45.86672" lon="3.55708">
        <ele>585</ele>
        <time>2024-12-07T23:24:36.620Z</time>
      </trkpt>
      <trkpt lat="45.86673" lon="3.5571">
        <ele>585</ele>
        <time>2024-12-07T23:24:37.619Z</time>
      </trkpt>
      <trkpt lat="45.86674" lon="3.55712">
        <ele>585</ele>
        <time>2024-12-07T23:24:38.619Z</time>
      </trkpt>
      <trkpt lat="45.86675" lon="3.55713">
        <ele>585</ele>
        <time>2024-12-07T23:24:39.620Z</time>
      </trkpt>
      <trkpt lat="45.86676" lon="3.55715">
        <ele>585</ele>
        <time>2024-12-07T23:24:40.619Z</time>
      </trkpt>
      <trkpt lat="45.86677" lon="3.55717">
        <ele>585</ele>
        <time>2024-12-07T23:24:41.620Z</time>
      </trkpt>
      <trkpt lat="45.86679" lon="3.55719">
        <ele>585</ele>
        <time>2024-12-07T23:24:42.620Z</time>
      </trkpt>
      <trkpt lat="45.8668" lon="3.55721">
        <ele>586</ele>
        <time>2024-12-07T23:24:43.620Z</time>
      </trkpt>
      <trkpt lat="45.86681" lon="3.55722">
        <ele>586</ele>
        <time>2024-12-07T23:24:44.619Z</time>
      </trkpt>
      <trkpt lat="45.86683" lon="3.55724">
        <ele>586</ele>
        <time>2024-12-07T23:24:45.620Z</time>
      </trkpt>
      <trkpt lat="45.86685" lon="3.55726">
        <ele>586</ele>
        <time>2024-12-07T23:24:46.619Z</time>
      </trkpt>
      <trkpt lat="45.86686" lon="3.55729">
        <ele>587</ele>
        <time>2024-12-07T23:24:47.619Z</time>
      </trkpt>
      <trkpt lat="45.86687" lon="3.5573">
        <ele>587</ele>
        <time>2024-12-07T23:24:48.620Z</time>
      </trkpt>
      <trkpt lat="45.86688" lon="3.55732">
        <ele>588</ele>
        <time>2024-12-07T23:24:49.619Z</time>
      </trkpt>
      <trkpt lat="45.8669" lon="3.55734">
        <ele>588</ele>
        <time>2024-12-07T23:24:50.620Z</time>
      </trkpt>
      <trkpt lat="45.86691" lon="3.55735">
        <ele>589</ele>
        <time>2024-12-07T23:24:51.620Z</time>
      </trkpt>
      <trkpt lat="45.86693" lon="3.55737">
        <ele>589</ele>
        <time>2024-12-07T23:24:52.619Z</time>
      </trkpt>
      <trkpt lat="45.86694" lon="3.55738">
        <ele>589</ele>
        <time>2024-12-07T23:24:53.620Z</time>
      </trkpt>
      <trkpt lat="45.86695" lon="3.5574">
        <ele>589</ele>
        <time>2024-12-07T23:24:54.620Z</time>
      </trkpt>
      <trkpt lat="45.86697" lon="3.55741">
        <ele>589</ele>
        <time>2024-12-07T23:24:55.620Z</time>
      </trkpt>
      <trkpt lat="45.86698" lon="3.55742">
        <ele>589</ele>
        <time>2024-12-07T23:24:56.620Z</time>
      </trkpt>
      <trkpt lat="45.86699" lon="3.55744">
        <ele>589</ele>
        <time>2024-12-07T23:24:57.620Z</time>
      </trkpt>
      <trkpt lat="45.86701" lon="3.55745">
        <ele>589</ele>
        <time>2024-12-07T23:24:58.620Z</time>
      </trkpt>
      <trkpt lat="45.86702" lon="3.55747">
        <ele>589</ele>
        <time>2024-12-07T23:24:59.619Z</time>
      </trkpt>
      <trkpt lat="45.86703" lon="3.55749">
        <ele>589</ele>
        <time>2024-12-07T23:25:00.619Z</time>
      </trkpt>
      <trkpt lat="45.86705" lon="3.55751">
        <ele>589</ele>
        <time>2024-12-07T23:25:01.620Z</time>
      </trkpt>
      <trkpt lat="45.86706" lon="3.55753">
        <ele>589</ele>
        <time>2024-12-07T23:25:02.619Z</time>
      </trkpt>
      <trkpt lat="45.86708" lon="3.55755">
        <ele>590</ele>
        <time>2024-12-07T23:25:03.620Z</time>
      </trkpt>
      <trkpt lat="45.86709" lon="3.55756">
        <ele>591</ele>
        <time>2024-12-07T23:25:04.619Z</time>
      </trkpt>
      <trkpt lat="45.86711" lon="3.55758">
        <ele>591</ele>
        <time>2024-12-07T23:25:05.620Z</time>
      </trkpt>
      <trkpt lat="45.86712" lon="3.55759">
        <ele>591</ele>
        <time>2024-12-07T23:25:06.620Z</time>
      </trkpt>
      <trkpt lat="45.86713" lon="3.5576">
        <ele>591</ele>
        <time>2024-12-07T23:25:07.620Z</time>
      </trkpt>
      <trkpt lat="45.86715" lon="3.55762">
        <ele>591</ele>
        <time>2024-12-07T23:25:08.620Z</time>
      </trkpt>
      <trkpt lat="45.86717" lon="3.55763">
        <ele>592</ele>
        <time>2024-12-07T23:25:09.620Z</time>
      </trkpt>
      <trkpt lat="45.86718" lon="3.55764">
        <ele>592</ele>
        <time>2024-12-07T23:25:10.619Z</time>
      </trkpt>
      <trkpt lat="45.86719" lon="3.55765">
        <ele>592</ele>
        <time>2024-12-07T23:25:11.619Z</time>
      </trkpt>
      <trkpt lat="45.86721" lon="3.55766">
        <ele>592</ele>
        <time>2024-12-07T23:25:12.620Z</time>
      </trkpt>
      <trkpt lat="45.86722" lon="3.55767">
        <ele>592</ele>
        <time>2024-12-07T23:25:13.620Z</time>
      </trkpt>
      <trkpt lat="45.86724" lon="3.55768">
        <ele>592</ele>
        <time>2024-12-07T23:25:14.619Z</time>
      </trkpt>
      <trkpt lat="45.86726" lon="3.55769">
        <ele>592</ele>
        <time>2024-12-07T23:25:15.620Z</time>
      </trkpt>
      <trkpt lat="45.86728" lon="3.5577">
        <ele>593</ele>
        <time>2024-12-07T23:25:16.619Z</time>
      </trkpt>
      <trkpt lat="45.86729" lon="3.55771">
        <ele>593</ele>
        <time>2024-12-07T23:25:17.619Z</time>
      </trkpt>
      <trkpt lat="45.86731" lon="3.55771">
        <ele>593</ele>
        <time>2024-12-07T23:25:18.620Z</time>
      </trkpt>
      <trkpt lat="45.86732" lon="3.55771">
        <ele>593</ele>
        <time>2024-12-07T23:25:19.620Z</time>
      </trkpt>
      <trkpt lat="45.86734" lon="3.55772">
        <ele>593</ele>
        <time>2024-12-07T23:25:20.619Z</time>
      </trkpt>
      <trkpt lat="45.86736" lon="3.55772">
        <ele>593</ele>
        <time>2024-12-07T23:25:21.620Z</time>
      </trkpt>
      <trkpt lat="45.86738" lon="3.55772">
        <ele>593</ele>
        <time>2024-12-07T23:25:22.619Z</time>
      </trkpt>
      <trkpt lat="45.8674" lon="3.55772">
        <ele>594</ele>
        <time>2024-12-07T23:25:23.619Z</time>
      </trkpt>
      <trkpt lat="45.86742" lon="3.55772">
        <ele>594</ele>
        <time>2024-12-07T23:25:24.619Z</time>
      </trkpt>
      <trkpt lat="45.86744" lon="3.55772">
        <ele>595</ele>
        <time>2024-12-07T23:25:25.619Z</time>
      </trkpt>
      <trkpt lat="45.86746" lon="3.55772">
        <ele>595</ele>
        <time>2024-12-07T23:25:26.619Z</time>
      </trkpt>
      <trkpt lat="45.86747" lon="3.55772">
        <ele>595</ele>
        <time>2024-12-07T23:25:27.619Z</time>
      </trkpt>
      <trkpt lat="45.86749" lon="3.55771">
        <ele>596</ele>
        <time>2024-12-07T23:25:28.619Z</time>
      </trkpt>
      <trkpt lat="45.8675" lon="3.55771">
        <ele>596</ele>
        <time>2024-12-07T23:25:29.619Z</time>
      </trkpt>
      <trkpt lat="45.86752" lon="3.55771">
        <ele>596</ele>
        <time>2024-12-07T23:25:30.620Z</time>
      </trkpt>
      <trkpt lat="45.86754" lon="3.5577">
        <ele>597</ele>
        <time>2024-12-07T23:25:31.620Z</time>
      </trkpt>
      <trkpt lat="45.86756" lon="3.5577">
        <ele>597</ele>
        <time>2024-12-07T23:25:32.619Z</time>
      </trkpt>
      <trkpt lat="45.86758" lon="3.5577">
        <ele>598</ele>
        <time>2024-12-07T23:25:33.619Z</time>
      </trkpt>
      <trkpt lat="45.86759" lon="3.55769">
        <ele>598</ele>
        <time>2024-12-07T23:25:34.619Z</time>
      </trkpt>
      <trkpt lat="45.8676" lon="3.55769">
        <ele>598</ele>
        <time>2024-12-07T23:25:35.620Z</time>
      </trkpt>
      <trkpt lat="45.86762" lon="3.55768">
        <ele>599</ele>
        <time>2024-12-07T23:25:36.620Z</time>
      </trkpt>
      <trkpt lat="45.86764" lon="3.55768">
        <ele>599</ele>
        <time>2024-12-07T23:25:37.619Z</time>
      </trkpt>
      <trkpt lat="45.86766" lon="3.55767">
        <ele>599</ele>
        <time>2024-12-07T23:25:38.620Z</time>
      </trkpt>
      <trkpt lat="45.86767" lon="3.55766">
        <ele>598</ele>
        <time>2024-12-07T23:25:39.619Z</time>
      </trkpt>
      <trkpt lat="45.86769" lon="3.55765">
        <ele>598</ele>
        <time>2024-12-07T23:25:40.620Z</time>
      </trkpt>
      <trkpt lat="45.8677" lon="3.55764">
        <ele>598</ele>
        <time>2024-12-07T23:25:41.620Z</time>
      </trkpt>
      <trkpt lat="45.86772" lon="3.55763">
        <ele>598</ele>
        <time>2024-12-07T23:25:42.619Z</time>
      </trkpt>
      <trkpt lat="45.86773" lon="3.55762">
        <ele>598</ele>
        <time>2024-12-07T23:25:43.619Z</time>
      </trkpt>
      <trkpt lat="45.86774" lon="3.5576">
        <ele>598</ele>
        <time>2024-12-07T23:25:44.619Z</time>
      </trkpt>
      <trkpt lat="45.86777" lon="3.55759">
        <ele>598</ele>
        <time>2024-12-07T23:25:45.619Z</time>
      </trkpt>
      <trkpt lat="45.86779" lon="3.55758">
        <ele>598</ele>
        <time>2024-12-07T23:25:46.620Z</time>
      </trkpt>
      <trkpt lat="45.86781" lon="3.55757">
        <ele>598</ele>
        <time>2024-12-07T23:25:47.620Z</time>
      </trkpt>
      <trkpt lat="45.86782" lon="3.55756">
        <ele>598</ele>
        <time>2024-12-07T23:25:48.619Z</time>
      </trkpt>
      <trkpt lat="45.86783" lon="3.55755">
        <ele>598</ele>
        <time>2024-12-07T23:25:49.619Z</time>
      </trkpt>
      <trkpt lat="45.86784" lon="3.55754">
        <ele>598</ele>
        <time>2024-12-07T23:25:50.619Z</time>
      </trkpt>
      <trkpt lat="45.86786" lon="3.55752">
        <ele>598</ele>
        <time>2024-12-07T23:25:51.620Z</time>
      </trkpt>
      <trkpt lat="45.86787" lon="3.55751">
        <ele>597</ele>
        <time>2024-12-07T23:25:52.620Z</time>
      </trkpt>
      <trkpt lat="45.86789" lon="3.5575">
        <ele>597</ele>
        <time>2024-12-07T23:25:53.619Z</time>
      </trkpt>
      <trkpt lat="45.86792" lon="3.55749">
        <ele>597</ele>
        <time>2024-12-07T23:25:54.620Z</time>
      </trkpt>
      <trkpt lat="45.86794" lon="3.55747">
        <ele>597</ele>
        <time>2024-12-07T23:25:55.620Z</time>
      </trkpt>
      <trkpt lat="45.86798" lon="3.55746">
        <ele>597</ele>
        <time>2024-12-07T23:25:56.620Z</time>
      </trkpt>
      <trkpt lat="45.86801" lon="3.55744">
        <ele>597</ele>
        <time>2024-12-07T23:25:57.619Z</time>
      </trkpt>
      <trkpt lat="45.86803" lon="3.55743">
        <ele>596</ele>
        <time>2024-12-07T23:25:58.620Z</time>
      </trkpt>
      <trkpt lat="45.86805" lon="3.55742">
        <ele>596</ele>
        <time>2024-12-07T23:25:59.620Z</time>
      </trkpt>
      <trkpt lat="45.86807" lon="3.5574">
        <ele>596</ele>
        <time>2024-12-07T23:26:00.619Z</time>
      </trkpt>
      <trkpt lat="45.86808" lon="3.55739">
        <ele>595</ele>
        <time>2024-12-07T23:26:01.620Z</time>
      </trkpt>
      <trkpt lat="45.8681" lon="3.55738">
        <ele>595</ele>
        <time>2024-12-07T23:26:02.620Z</time>
      </trkpt>
      <trkpt lat="45.86811" lon="3.55738">
        <ele>594</ele>
        <time>2024-12-07T23:26:03.619Z</time>
      </trkpt>
      <trkpt lat="45.86814" lon="3.55736">
        <ele>593</ele>
        <time>2024-12-07T23:26:04.620Z</time>
      </trkpt>
      <trkpt lat="45.86816" lon="3.55735">
        <ele>593</ele>
        <time>2024-12-07T23:26:05.619Z</time>
      </trkpt>
      <trkpt lat="45.86818" lon="3.55733">
        <ele>592</ele>
        <time>2024-12-07T23:26:06.620Z</time>
      </trkpt>
      <trkpt lat="45.86819" lon="3.55732">
        <ele>591</ele>
        <time>2024-12-07T23:26:07.619Z</time>
      </trkpt>
      <trkpt lat="45.86821" lon="3.55731">
        <ele>591</ele>
        <time>2024-12-07T23:26:08.619Z</time>
      </trkpt>
      <trkpt lat="45.86822" lon="3.5573">
        <ele>590</ele>
        <time>2024-12-07T23:26:09.620Z</time>
      </trkpt>
      <trkpt lat="45.86824" lon="3.55728">
        <ele>590</ele>
        <time>2024-12-07T23:26:10.619Z</time>
      </trkpt>
      <trkpt lat="45.86826" lon="3.55726">
        <ele>590</ele>
        <time>2024-12-07T23:26:11.619Z</time>
      </trkpt>
      <trkpt lat="45.86827" lon="3.55725">
        <ele>590</ele>
        <time>2024-12-07T23:26:12.619Z</time>
      </trkpt>
      <trkpt lat="45.86829" lon="3.55724">
        <ele>590</ele>
        <time>2024-12-07T23:26:13.620Z</time>
      </trkpt>
      <trkpt lat="45.86831" lon="3.55723">
        <ele>590</ele>
        <time>2024-12-07T23:26:14.620Z</time>
      </trkpt>
      <trkpt lat="45.86832" lon="3.55722">
        <ele>590</ele>
        <time>2024-12-07T23:26:15.619Z</time>
      </trkpt>
      <trkpt lat="45.86833" lon="3.5572">
        <ele>590</ele>
        <time>2024-12-07T23:26:16.619Z</time>
      </trkpt>
      <trkpt lat="45.86835" lon="3.55719">
        <ele>590</ele>
        <time>2024-12-07T23:26:17.620Z</time>
      </trkpt>
      <trkpt lat="45.86837" lon="3.55717">
        <ele>590</ele>
        <time>2024-12-07T23:26:18.619Z</time>
      </trkpt>
      <trkpt lat="45.86839" lon="3.55716">
        <ele>589</ele>
        <time>2024-12-07T23:26:19.619Z</time>
      </trkpt>
      <trkpt lat="45.86841" lon="3.55715">
        <ele>589</ele>
        <time>2024-12-07T23:26:20.620Z</time>
      </trkpt>
      <trkpt lat="45.86843" lon="3.55714">
        <ele>589</ele>
        <time>2024-12-07T23:26:21.619Z</time>
      </trkpt>
      <trkpt lat="45.86845" lon="3.55712">
        <ele>588</ele>
        <time>2024-12-07T23:26:22.620Z</time>
      </trkpt>
      <trkpt lat="45.86846" lon="3.5571">
        <ele>588</ele>
        <time>2024-12-07T23:26:23.620Z</time>
      </trkpt>
      <trkpt lat="45.86848" lon="3.55709">
        <ele>587</ele>
        <time>2024-12-07T23:26:24.619Z</time>
      </trkpt>
      <trkpt lat="45.86849" lon="3.55707">
        <ele>587</ele>
        <time>2024-12-07T23:26:25.620Z</time>
      </trkpt>
      <trkpt lat="45.86851" lon="3.55706">
        <ele>586</ele>
        <time>2024-12-07T23:26:26.619Z</time>
      </trkpt>
      <trkpt lat="45.86853" lon="3.55704">
        <ele>586</ele>
        <time>2024-12-07T23:26:27.620Z</time>
      </trkpt>
      <trkpt lat="45.86854" lon="3.55703">
        <ele>586</ele>
        <time>2024-12-07T23:26:28.620Z</time>
      </trkpt>
      <trkpt lat="45.86856" lon="3.55701">
        <ele>585</ele>
        <time>2024-12-07T23:26:29.620Z</time>
      </trkpt>
      <trkpt lat="45.86858" lon="3.557">
        <ele>586</ele>
        <time>2024-12-07T23:26:30.619Z</time>
      </trkpt>
      <trkpt lat="45.86859" lon="3.55699">
        <ele>586</ele>
        <time>2024-12-07T23:26:31.620Z</time>
      </trkpt>
      <trkpt lat="45.86861" lon="3.55698">
        <ele>586</ele>
        <time>2024-12-07T23:26:32.620Z</time>
      </trkpt>
      <trkpt lat="45.86863" lon="3.55698">
        <ele>586</ele>
        <time>2024-12-07T23:26:33.619Z</time>
      </trkpt>
      <trkpt lat="45.86865" lon="3.55697">
        <ele>586</ele>
        <time>2024-12-07T23:26:34.620Z</time>
      </trkpt>
      <trkpt lat="45.86866" lon="3.55697">
        <ele>586</ele>
        <time>2024-12-07T23:26:35.620Z</time>
      </trkpt>
      <trkpt lat="45.86867" lon="3.55696">
        <ele>586</ele>
        <time>2024-12-07T23:26:36.619Z</time>
      </trkpt>
      <trkpt lat="45.86869" lon="3.55696">
        <ele>587</ele>
        <time>2024-12-07T23:26:37.620Z</time>
      </trkpt>
      <trkpt lat="45.86871" lon="3.55696">
        <ele>587</ele>
        <time>2024-12-07T23:26:38.620Z</time>
      </trkpt>
      <trkpt lat="45.86873" lon="3.55697">
        <ele>587</ele>
        <time>2024-12-07T23:26:39.620Z</time>
      </trkpt>
      <trkpt lat="45.86875" lon="3.55698">
        <ele>587</ele>
        <time>2024-12-07T23:26:40.619Z</time>
      </trkpt>
      <trkpt lat="45.86876" lon="3.55699">
        <ele>587</ele>
        <time>2024-12-07T23:26:41.620Z</time>
      </trkpt>
      <trkpt lat="45.86878" lon="3.55699">
        <ele>587</ele>
        <time>2024-12-07T23:26:42.620Z</time>
      </trkpt>
      <trkpt lat="45.8688" lon="3.557">
        <ele>587</ele>
        <time>2024-12-07T23:26:43.619Z</time>
      </trkpt>
      <trkpt lat="45.86882" lon="3.55701">
        <ele>587</ele>
        <time>2024-12-07T23:26:44.619Z</time>
      </trkpt>
      <trkpt lat="45.86884" lon="3.55702">
        <ele>587</ele>
        <time>2024-12-07T23:26:45.620Z</time>
      </trkpt>
      <trkpt lat="45.86886" lon="3.55704">
        <ele>587</ele>
        <time>2024-12-07T23:26:46.620Z</time>
      </trkpt>
      <trkpt lat="45.86888" lon="3.55705">
        <ele>587</ele>
        <time>2024-12-07T23:26:47.620Z</time>
      </trkpt>
      <trkpt lat="45.8689" lon="3.55706">
        <ele>587</ele>
        <time>2024-12-07T23:26:48.619Z</time>
      </trkpt>
      <trkpt lat="45.86891" lon="3.55707">
        <ele>587</ele>
        <time>2024-12-07T23:26:49.619Z</time>
      </trkpt>
      <trkpt lat="45.86894" lon="3.55709">
        <ele>587</ele>
        <time>2024-12-07T23:26:50.619Z</time>
      </trkpt>
      <trkpt lat="45.86895" lon="3.5571">
        <ele>587</ele>
        <time>2024-12-07T23:26:51.620Z</time>
      </trkpt>
      <trkpt lat="45.86897" lon="3.55711">
        <ele>587</ele>
        <time>2024-12-07T23:26:52.619Z</time>
      </trkpt>
      <trkpt lat="45.86898" lon="3.55712">
        <ele>587</ele>
        <time>2024-12-07T23:26:53.619Z</time>
      </trkpt>
      <trkpt lat="45.869" lon="3.55713">
        <ele>587</ele>
        <time>2024-12-07T23:26:54.619Z</time>
      </trkpt>
      <trkpt lat="45.86902" lon="3.55715">
        <ele>587</ele>
        <time>2024-12-07T23:26:55.620Z</time>
      </trkpt>
      <trkpt lat="45.86903" lon="3.55716">
        <ele>586</ele>
        <time>2024-12-07T23:26:56.619Z</time>
      </trkpt>
      <trkpt lat="45.86904" lon="3.55717">
        <ele>586</ele>
        <time>2024-12-07T23:26:57.620Z</time>
      </trkpt>
      <trkpt lat="45.86906" lon="3.55718">
        <ele>586</ele>
        <time>2024-12-07T23:26:58.619Z</time>
      </trkpt>
      <trkpt lat="45.86908" lon="3.55719">
        <ele>586</ele>
        <time>2024-12-07T23:26:59.619Z</time>
      </trkpt>
      <trkpt lat="45.86909" lon="3.55721">
        <ele>585</ele>
        <time>2024-12-07T23:27:00.620Z</time>
      </trkpt>
      <trkpt lat="45.8691" lon="3.55722">
        <ele>585</ele>
        <time>2024-12-07T23:27:01.619Z</time>
      </trkpt>
      <trkpt lat="45.86912" lon="3.55722">
        <ele>585</ele>
        <time>2024-12-07T23:27:02.619Z</time>
      </trkpt>
      <trkpt lat="45.86914" lon="3.55723">
        <ele>585</ele>
        <time>2024-12-07T23:27:03.620Z</time>
      </trkpt>
      <trkpt lat="45.86916" lon="3.55724">
        <ele>585</ele>
        <time>2024-12-07T23:27:04.619Z</time>
      </trkpt>
      <trkpt lat="45.86918" lon="3.55725">
        <ele>585</ele>
        <time>2024-12-07T23:27:05.620Z</time>
      </trkpt>
      <trkpt lat="45.86919" lon="3.55726">
        <ele>585</ele>
        <time>2024-12-07T23:27:06.620Z</time>
      </trkpt>
      <trkpt lat="45.86921" lon="3.55726">
        <ele>584</ele>
        <time>2024-12-07T23:27:07.619Z</time>
      </trkpt>
      <trkpt lat="45.86922" lon="3.55727">
        <ele>584</ele>
        <time>2024-12-07T23:27:08.619Z</time>
      </trkpt>
      <trkpt lat="45.86924" lon="3.55727">
        <ele>584</ele>
        <time>2024-12-07T23:27:09.619Z</time>
      </trkpt>
      <trkpt lat="45.86926" lon="3.55728">
        <ele>585</ele>
        <time>2024-12-07T23:27:10.619Z</time>
      </trkpt>
      <trkpt lat="45.86928" lon="3.55728">
        <ele>585</ele>
        <time>2024-12-07T23:27:11.619Z</time>
      </trkpt>
      <trkpt lat="45.86929" lon="3.55729">
        <ele>585</ele>
        <time>2024-12-07T23:27:12.619Z</time>
      </trkpt>
      <trkpt lat="45.86931" lon="3.55729">
        <ele>586</ele>
        <time>2024-12-07T23:27:13.619Z</time>
      </trkpt>
      <trkpt lat="45.86933" lon="3.5573">
        <ele>586</ele>
        <time>2024-12-07T23:27:14.620Z</time>
      </trkpt>
      <trkpt lat="45.86935" lon="3.55731">
        <ele>586</ele>
        <time>2024-12-07T23:27:15.620Z</time>
      </trkpt>
      <trkpt lat="45.86937" lon="3.55731">
        <ele>586</ele>
        <time>2024-12-07T23:27:16.620Z</time>
      </trkpt>
      <trkpt lat="45.86938" lon="3.55732">
        <ele>586</ele>
        <time>2024-12-07T23:27:17.620Z</time>
      </trkpt>
      <trkpt lat="45.86939" lon="3.55732">
        <ele>587</ele>
        <time>2024-12-07T23:27:18.619Z</time>
      </trkpt>
      <trkpt lat="45.8694" lon="3.55732">
        <ele>587</ele>
        <time>2024-12-07T23:27:19.620Z</time>
      </trkpt>
      <trkpt lat="45.86941" lon="3.55733">
        <ele>587</ele>
        <time>2024-12-07T23:27:20.619Z</time>
      </trkpt>
      <trkpt lat="45.86943" lon="3.55733">
        <ele>588</ele>
        <time>2024-12-07T23:27:21.619Z</time>
      </trkpt>
      <trkpt lat="45.86945" lon="3.55733">
        <ele>588</ele>
        <time>2024-12-07T23:27:22.619Z</time>
      </trkpt>
      <trkpt lat="45.86947" lon="3.55733">
        <ele>588</ele>
        <time>2024-12-07T23:27:23.619Z</time>
      </trkpt>
      <trkpt lat="45.86948" lon="3.55733">
        <ele>588</ele>
        <time>2024-12-07T23:27:24.620Z</time>
      </trkpt>
      <trkpt lat="45.8695" lon="3.55733">
        <ele>589</ele>
        <time>2024-12-07T23:27:25.619Z</time>
      </trkpt>
      <trkpt lat="45.86952" lon="3.55733">
        <ele>589</ele>
        <time>2024-12-07T23:27:26.619Z</time>
      </trkpt>
      <trkpt lat="45.86953" lon="3.55732">
        <ele>589</ele>
        <time>2024-12-07T23:27:27.620Z</time>
      </trkpt>
      <trkpt lat="45.86955" lon="3.55731">
        <ele>590</ele>
        <time>2024-12-07T23:27:28.620Z</time>
      </trkpt>
      <trkpt lat="45.86958" lon="3.5573">
        <ele>590</ele>
        <time>2024-12-07T23:27:29.619Z</time>
      </trkpt>
      <trkpt lat="45.86961" lon="3.55729">
        <ele>591</ele>
        <time>2024-12-07T23:27:30.620Z</time>
      </trkpt>
      <trkpt lat="45.86962" lon="3.55729">
        <ele>591</ele>
        <time>2024-12-07T23:27:31.619Z</time>
      </trkpt>
      <trkpt lat="45.86964" lon="3.55729">
        <ele>591</ele>
        <time>2024-12-07T23:27:32.620Z</time>
      </trkpt>
      <trkpt lat="45.86966" lon="3.55729">
        <ele>591</ele>
        <time>2024-12-07T23:27:33.619Z</time>
      </trkpt>
      <trkpt lat="45.86968" lon="3.55729">
        <ele>592</ele>
        <time>2024-12-07T23:27:34.619Z</time>
      </trkpt>
      <trkpt lat="45.8697" lon="3.55729">
        <ele>592</ele>
        <time>2024-12-07T23:27:35.619Z</time>
      </trkpt>
      <trkpt lat="45.86972" lon="3.55729">
        <ele>592</ele>
        <time>2024-12-07T23:27:36.619Z</time>
      </trkpt>
      <trkpt lat="45.86973" lon="3.55729">
        <ele>592</ele>
        <time>2024-12-07T23:27:37.619Z</time>
      </trkpt>
      <trkpt lat="45.86976" lon="3.55729">
        <ele>593</ele>
        <time>2024-12-07T23:27:38.619Z</time>
      </trkpt>
      <trkpt lat="45.86977" lon="3.55729">
        <ele>593</ele>
        <time>2024-12-07T23:27:39.619Z</time>
      </trkpt>
      <trkpt lat="45.86979" lon="3.55729">
        <ele>594</ele>
        <time>2024-12-07T23:27:40.620Z</time>
      </trkpt>
      <trkpt lat="45.86981" lon="3.55729">
        <ele>594</ele>
        <time>2024-12-07T23:27:41.620Z</time>
      </trkpt>
      <trkpt lat="45.86982" lon="3.55729">
        <ele>595</ele>
        <time>2024-12-07T23:27:42.619Z</time>
      </trkpt>
      <trkpt lat="45.86984" lon="3.55729">
        <ele>595</ele>
        <time>2024-12-07T23:27:43.620Z</time>
      </trkpt>
      <trkpt lat="45.86987" lon="3.55729">
        <ele>596</ele>
        <time>2024-12-07T23:27:44.619Z</time>
      </trkpt>
      <trkpt lat="45.86988" lon="3.55729">
        <ele>596</ele>
        <time>2024-12-07T23:27:45.619Z</time>
      </trkpt>
      <trkpt lat="45.8699" lon="3.55729">
        <ele>596</ele>
        <time>2024-12-07T23:27:46.619Z</time>
      </trkpt>
      <trkpt lat="45.86992" lon="3.55729">
        <ele>596</ele>
        <time>2024-12-07T23:27:47.620Z</time>
      </trkpt>
      <trkpt lat="45.86994" lon="3.55729">
        <ele>596</ele>
        <time>2024-12-07T23:27:48.619Z</time>
      </trkpt>
      <trkpt lat="45.86996" lon="3.55729">
        <ele>595</ele>
        <time>2024-12-07T23:27:49.620Z</time>
      </trkpt>
      <trkpt lat="45.86998" lon="3.55729">
        <ele>595</ele>
        <time>2024-12-07T23:27:50.619Z</time>
      </trkpt>
      <trkpt lat="45.87" lon="3.55729">
        <ele>595</ele>
        <time>2024-12-07T23:27:51.619Z</time>
      </trkpt>
      <trkpt lat="45.87001" lon="3.55729">
        <ele>595</ele>
        <time>2024-12-07T23:27:52.620Z</time>
      </trkpt>
      <trkpt lat="45.87002" lon="3.55729">
        <ele>595</ele>
        <time>2024-12-07T23:27:53.619Z</time>
      </trkpt>
      <trkpt lat="45.87005" lon="3.55729">
        <ele>596</ele>
        <time>2024-12-07T23:27:54.619Z</time>
      </trkpt>
      <trkpt lat="45.87007" lon="3.5573">
        <ele>596</ele>
        <time>2024-12-07T23:27:55.620Z</time>
      </trkpt>
      <trkpt lat="45.87008" lon="3.5573">
        <ele>595</ele>
        <time>2024-12-07T23:27:56.619Z</time>
      </trkpt>
      <trkpt lat="45.8701" lon="3.5573">
        <ele>595</ele>
        <time>2024-12-07T23:27:57.620Z</time>
      </trkpt>
      <trkpt lat="45.87013" lon="3.5573">
        <ele>596</ele>
        <time>2024-12-07T23:27:58.619Z</time>
      </trkpt>
      <trkpt lat="45.87014" lon="3.5573">
        <ele>596</ele>
        <time>2024-12-07T23:27:59.619Z</time>
      </trkpt>
      <trkpt lat="45.87016" lon="3.5573">
        <ele>596</ele>
        <time>2024-12-07T23:28:00.620Z</time>
      </trkpt>
      <trkpt lat="45.87019" lon="3.5573">
        <ele>596</ele>
        <time>2024-12-07T23:28:01.620Z</time>
      </trkpt>
      <trkpt lat="45.8702" lon="3.55731">
        <ele>595</ele>
        <time>2024-12-07T23:28:02.620Z</time>
      </trkpt>
      <trkpt lat="45.87021" lon="3.55731">
        <ele>595</ele>
        <time>2024-12-07T23:28:03.620Z</time>
      </trkpt>
      <trkpt lat="45.87023" lon="3.55731">
        <ele>595</ele>
        <time>2024-12-07T23:28:04.619Z</time>
      </trkpt>
      <trkpt lat="45.87026" lon="3.55731">
        <ele>595</ele>
        <time>2024-12-07T23:28:05.619Z</time>
      </trkpt>
      <trkpt lat="45.87027" lon="3.55732">
        <ele>594</ele>
        <time>2024-12-07T23:28:06.620Z</time>
      </trkpt>
      <trkpt lat="45.87029" lon="3.55732">
        <ele>595</ele>
        <time>2024-12-07T23:28:07.619Z</time>
      </trkpt>
      <trkpt lat="45.87031" lon="3.55731">
        <ele>595</ele>
        <time>2024-12-07T23:28:08.620Z</time>
      </trkpt>
      <trkpt lat="45.87032" lon="3.55731">
        <ele>595</ele>
        <time>2024-12-07T23:28:09.619Z</time>
      </trkpt>
      <trkpt lat="45.87033" lon="3.55731">
        <ele>595</ele>
        <time>2024-12-07T23:28:10.619Z</time>
      </trkpt>
      <trkpt lat="45.87035" lon="3.55731">
        <ele>595</ele>
        <time>2024-12-07T23:28:11.620Z</time>
      </trkpt>
      <trkpt lat="45.87036" lon="3.55731">
        <ele>595</ele>
        <time>2024-12-07T23:28:12.619Z</time>
      </trkpt>
      <trkpt lat="45.87037" lon="3.55731">
        <ele>595</ele>
        <time>2024-12-07T23:28:13.619Z</time>
      </trkpt>
      <trkpt lat="45.87039" lon="3.55731">
        <ele>595</ele>
        <time>2024-12-07T23:28:14.620Z</time>
      </trkpt>
      <trkpt lat="45.87041" lon="3.55731">
        <ele>595</ele>
        <time>2024-12-07T23:28:15.619Z</time>
      </trkpt>
      <trkpt lat="45.87043" lon="3.55731">
        <ele>595</ele>
        <time>2024-12-07T23:28:16.619Z</time>
      </trkpt>
      <trkpt lat="45.87045" lon="3.55731">
        <ele>596</ele>
        <time>2024-12-07T23:28:17.619Z</time>
      </trkpt>
      <trkpt lat="45.87046" lon="3.55731">
        <ele>596</ele>
        <time>2024-12-07T23:28:18.620Z</time>
      </trkpt>
      <trkpt lat="45.87048" lon="3.55731">
        <ele>596</ele>
        <time>2024-12-07T23:28:19.619Z</time>
      </trkpt>
      <trkpt lat="45.87048" lon="3.55731">
        <ele>596</ele>
        <time>2024-12-07T23:28:20.620Z</time>
      </trkpt>
      <trkpt lat="45.8705" lon="3.55731">
        <ele>596</ele>
        <time>2024-12-07T23:28:21.620Z</time>
      </trkpt>
      <trkpt lat="45.87053" lon="3.55731">
        <ele>596</ele>
        <time>2024-12-07T23:28:22.619Z</time>
      </trkpt>
      <trkpt lat="45.87055" lon="3.55732">
        <ele>597</ele>
        <time>2024-12-07T23:28:23.620Z</time>
      </trkpt>
      <trkpt lat="45.87057" lon="3.55732">
        <ele>597</ele>
        <time>2024-12-07T23:28:24.620Z</time>
      </trkpt>
      <trkpt lat="45.8706" lon="3.55732">
        <ele>597</ele>
        <time>2024-12-07T23:28:25.620Z</time>
      </trkpt>
      <trkpt lat="45.87062" lon="3.55733">
        <ele>597</ele>
        <time>2024-12-07T23:28:26.620Z</time>
      </trkpt>
      <trkpt lat="45.87064" lon="3.55734">
        <ele>597</ele>
        <time>2024-12-07T23:28:27.620Z</time>
      </trkpt>
      <trkpt lat="45.87066" lon="3.55735">
        <ele>597</ele>
        <time>2024-12-07T23:28:28.619Z</time>
      </trkpt>
      <trkpt lat="45.87067" lon="3.55736">
        <ele>597</ele>
        <time>2024-12-07T23:28:29.620Z</time>
      </trkpt>
      <trkpt lat="45.87068" lon="3.55737">
        <ele>597</ele>
        <time>2024-12-07T23:28:30.619Z</time>
      </trkpt>
      <trkpt lat="45.87069" lon="3.55738">
        <ele>598</ele>
        <time>2024-12-07T23:28:31.619Z</time>
      </trkpt>
      <trkpt lat="45.87071" lon="3.5574">
        <ele>598</ele>
        <time>2024-12-07T23:28:32.620Z</time>
      </trkpt>
      <trkpt lat="45.87072" lon="3.55741">
        <ele>597</ele>
        <time>2024-12-07T23:28:33.620Z</time>
      </trkpt>
      <trkpt lat="45.87074" lon="3.55742">
        <ele>597</ele>
        <time>2024-12-07T23:28:34.619Z</time>
      </trkpt>
      <trkpt lat="45.87075" lon="3.55743">
        <ele>597</ele>
        <time>2024-12-07T23:28:35.619Z</time>
      </trkpt>
      <trkpt lat="45.87076" lon="3.55744">
        <ele>596</ele>
        <time>2024-12-07T23:28:36.620Z</time>
      </trkpt>
      <trkpt lat="45.87078" lon="3.55745">
        <ele>596</ele>
        <time>2024-12-07T23:28:37.619Z</time>
      </trkpt>
      <trkpt lat="45.87079" lon="3.55746">
        <ele>596</ele>
        <time>2024-12-07T23:28:38.619Z</time>
      </trkpt>
      <trkpt lat="45.8708" lon="3.55747">
        <ele>596</ele>
        <time>2024-12-07T23:28:39.619Z</time>
      </trkpt>
      <trkpt lat="45.87082" lon="3.55748">
        <ele>596</ele>
        <time>2024-12-07T23:28:40.619Z</time>
      </trkpt>
      <trkpt lat="45.87084" lon="3.55749">
        <ele>596</ele>
        <time>2024-12-07T23:28:41.620Z</time>
      </trkpt>
      <trkpt lat="45.87086" lon="3.5575">
        <ele>596</ele>
        <time>2024-12-07T23:28:42.620Z</time>
      </trkpt>
      <trkpt lat="45.87087" lon="3.55752">
        <ele>596</ele>
        <time>2024-12-07T23:28:43.619Z</time>
      </trkpt>
      <trkpt lat="45.87089" lon="3.55753">
        <ele>596</ele>
        <time>2024-12-07T23:28:44.620Z</time>
      </trkpt>
      <trkpt lat="45.87092" lon="3.55753">
        <ele>596</ele>
        <time>2024-12-07T23:28:45.619Z</time>
      </trkpt>
      <trkpt lat="45.87093" lon="3.55755">
        <ele>596</ele>
        <time>2024-12-07T23:28:46.619Z</time>
      </trkpt>
      <trkpt lat="45.87094" lon="3.55756">
        <ele>596</ele>
        <time>2024-12-07T23:28:47.619Z</time>
      </trkpt>
      <trkpt lat="45.87096" lon="3.55757">
        <ele>596</ele>
        <time>2024-12-07T23:28:48.620Z</time>
      </trkpt>
      <trkpt lat="45.87097" lon="3.55759">
        <ele>596</ele>
        <time>2024-12-07T23:28:49.620Z</time>
      </trkpt>
      <trkpt lat="45.87098" lon="3.5576">
        <ele>596</ele>
        <time>2024-12-07T23:28:50.619Z</time>
      </trkpt>
      <trkpt lat="45.87099" lon="3.55761">
        <ele>596</ele>
        <time>2024-12-07T23:28:51.619Z</time>
      </trkpt>
      <trkpt lat="45.871" lon="3.55763">
        <ele>596</ele>
        <time>2024-12-07T23:28:52.620Z</time>
      </trkpt>
      <trkpt lat="45.87101" lon="3.55764">
        <ele>597</ele>
        <time>2024-12-07T23:28:53.619Z</time>
      </trkpt>
      <trkpt lat="45.87103" lon="3.55766">
        <ele>597</ele>
        <time>2024-12-07T23:28:54.620Z</time>
      </trkpt>
      <trkpt lat="45.87104" lon="3.55767">
        <ele>597</ele>
        <time>2024-12-07T23:28:55.619Z</time>
      </trkpt>
      <trkpt lat="45.87106" lon="3.55768">
        <ele>597</ele>
        <time>2024-12-07T23:28:56.620Z</time>
      </trkpt>
      <trkpt lat="45.87107" lon="3.55768">
        <ele>597</ele>
        <time>2024-12-07T23:28:57.619Z</time>
      </trkpt>
      <trkpt lat="45.87109" lon="3.5577">
        <ele>597</ele>
        <time>2024-12-07T23:28:58.619Z</time>
      </trkpt>
      <trkpt lat="45.8711" lon="3.55771">
        <ele>598</ele>
        <time>2024-12-07T23:28:59.620Z</time>
      </trkpt>
      <trkpt lat="45.87111" lon="3.55772">
        <ele>598</ele>
        <time>2024-12-07T23:29:00.619Z</time>
      </trkpt>
      <trkpt lat="45.87112" lon="3.55774">
        <ele>598</ele>
        <time>2024-12-07T23:29:01.619Z</time>
      </trkpt>
      <trkpt lat="45.87113" lon="3.55775">
        <ele>598</ele>
        <time>2024-12-07T23:29:02.620Z</time>
      </trkpt>
      <trkpt lat="45.87115" lon="3.55777">
        <ele>597</ele>
        <time>2024-12-07T23:29:03.620Z</time>
      </trkpt>
      <trkpt lat="45.87116" lon="3.55778">
        <ele>597</ele>
        <time>2024-12-07T23:29:04.620Z</time>
      </trkpt>
      <trkpt lat="45.87118" lon="3.55779">
        <ele>597</ele>
        <time>2024-12-07T23:29:05.620Z</time>
      </trkpt>
      <trkpt lat="45.87119" lon="3.55781">
        <ele>597</ele>
        <time>2024-12-07T23:29:06.619Z</time>
      </trkpt>
      <trkpt lat="45.87121" lon="3.55783">
        <ele>597</ele>
        <time>2024-12-07T23:29:07.620Z</time>
      </trkpt>
      <trkpt lat="45.87122" lon="3.55784">
        <ele>597</ele>
        <time>2024-12-07T23:29:08.619Z</time>
      </trkpt>
      <trkpt lat="45.87123" lon="3.55786">
        <ele>597</ele>
        <time>2024-12-07T23:29:09.620Z</time>
      </trkpt>
      <trkpt lat="45.87124" lon="3.55788">
        <ele>597</ele>
        <time>2024-12-07T23:29:10.619Z</time>
      </trkpt>
      <trkpt lat="45.87125" lon="3.5579">
        <ele>596</ele>
        <time>2024-12-07T23:29:11.619Z</time>
      </trkpt>
      <trkpt lat="45.87127" lon="3.55791">
        <ele>596</ele>
        <time>2024-12-07T23:29:12.620Z</time>
      </trkpt>
      <trkpt lat="45.87128" lon="3.55793">
        <ele>596</ele>
        <time>2024-12-07T23:29:13.620Z</time>
      </trkpt>
      <trkpt lat="45.87129" lon="3.55795">
        <ele>596</ele>
        <time>2024-12-07T23:29:14.620Z</time>
      </trkpt>
      <trkpt lat="45.8713" lon="3.55797">
        <ele>596</ele>
        <time>2024-12-07T23:29:15.619Z</time>
      </trkpt>
      <trkpt lat="45.8713" lon="3.55799">
        <ele>596</ele>
        <time>2024-12-07T23:29:16.619Z</time>
      </trkpt>
      <trkpt lat="45.87131" lon="3.55801">
        <ele>596</ele>
        <time>2024-12-07T23:29:17.620Z</time>
      </trkpt>
      <trkpt lat="45.87132" lon="3.55804">
        <ele>596</ele>
        <time>2024-12-07T23:29:18.620Z</time>
      </trkpt>
      <trkpt lat="45.87133" lon="3.55806">
        <ele>596</ele>
        <time>2024-12-07T23:29:19.619Z</time>
      </trkpt>
      <trkpt lat="45.87133" lon="3.55808">
        <ele>596</ele>
        <time>2024-12-07T23:29:20.620Z</time>
      </trkpt>
      <trkpt lat="45.87134" lon="3.5581">
        <ele>597</ele>
        <time>2024-12-07T23:29:21.620Z</time>
      </trkpt>
      <trkpt lat="45.87134" lon="3.55812">
        <ele>597</ele>
        <time>2024-12-07T23:29:22.620Z</time>
      </trkpt>
      <trkpt lat="45.87135" lon="3.55814">
        <ele>597</ele>
        <time>2024-12-07T23:29:23.619Z</time>
      </trkpt>
      <trkpt lat="45.87135" lon="3.55816">
        <ele>598</ele>
        <time>2024-12-07T23:29:24.619Z</time>
      </trkpt>
      <trkpt lat="45.87135" lon="3.55818">
        <ele>598</ele>
        <time>2024-12-07T23:29:25.619Z</time>
      </trkpt>
      <trkpt lat="45.87135" lon="3.5582">
        <ele>599</ele>
        <time>2024-12-07T23:29:26.619Z</time>
      </trkpt>
      <trkpt lat="45.87135" lon="3.55822">
        <ele>599</ele>
        <time>2024-12-07T23:29:27.619Z</time>
      </trkpt>
      <trkpt lat="45.87134" lon="3.55824">
        <ele>600</ele>
        <time>2024-12-07T23:29:28.620Z</time>
      </trkpt>
      <trkpt lat="45.87134" lon="3.55827">
        <ele>600</ele>
        <time>2024-12-07T23:29:29.619Z</time>
      </trkpt>
      <trkpt lat="45.87134" lon="3.55829">
        <ele>601</ele>
        <time>2024-12-07T23:29:30.620Z</time>
      </trkpt>
      <trkpt lat="45.87134" lon="3.55832">
        <ele>601</ele>
        <time>2024-12-07T23:29:31.619Z</time>
      </trkpt>
      <trkpt lat="45.87135" lon="3.55834">
        <ele>602</ele>
        <time>2024-12-07T23:29:32.620Z</time>
      </trkpt>
      <trkpt lat="45.87135" lon="3.55836">
        <ele>602</ele>
        <time>2024-12-07T23:29:33.620Z</time>
      </trkpt>
      <trkpt lat="45.87134" lon="3.55838">
        <ele>603</ele>
        <time>2024-12-07T23:29:34.620Z</time>
      </trkpt>
      <trkpt lat="45.87134" lon="3.55841">
        <ele>603</ele>
        <time>2024-12-07T23:29:35.619Z</time>
      </trkpt>
      <trkpt lat="45.87134" lon="3.55843">
        <ele>604</ele>
        <time>2024-12-07T23:29:36.620Z</time>
      </trkpt>
      <trkpt lat="45.87133" lon="3.55846">
        <ele>604</ele>
        <time>2024-12-07T23:29:37.619Z</time>
      </trkpt>
      <trkpt lat="45.87133" lon="3.55848">
        <ele>605</ele>
        <time>2024-12-07T23:29:38.619Z</time>
      </trkpt>
      <trkpt lat="45.87133" lon="3.5585">
        <ele>606</ele>
        <time>2024-12-07T23:29:39.619Z</time>
      </trkpt>
      <trkpt lat="45.87133" lon="3.55853">
        <ele>606</ele>
        <time>2024-12-07T23:29:40.619Z</time>
      </trkpt>
      <trkpt lat="45.87134" lon="3.55855">
        <ele>607</ele>
        <time>2024-12-07T23:29:41.619Z</time>
      </trkpt>
      <trkpt lat="45.87133" lon="3.55858">
        <ele>608</ele>
        <time>2024-12-07T23:29:42.620Z</time>
      </trkpt>
      <trkpt lat="45.87134" lon="3.5586">
        <ele>608</ele>
        <time>2024-12-07T23:29:43.619Z</time>
      </trkpt>
      <trkpt lat="45.87134" lon="3.55863">
        <ele>609</ele>
        <time>2024-12-07T23:29:44.620Z</time>
      </trkpt>
      <trkpt lat="45.87134" lon="3.55865">
        <ele>609</ele>
        <time>2024-12-07T23:29:45.620Z</time>
      </trkpt>
      <trkpt lat="45.87133" lon="3.55868">
        <ele>609</ele>
        <time>2024-12-07T23:29:46.619Z</time>
      </trkpt>
      <trkpt lat="45.87133" lon="3.55871">
        <ele>609</ele>
        <time>2024-12-07T23:29:47.619Z</time>
      </trkpt>
      <trkpt lat="45.87133" lon="3.55874">
        <ele>610</ele>
        <time>2024-12-07T23:29:48.620Z</time>
      </trkpt>
      <trkpt lat="45.87133" lon="3.55876">
        <ele>610</ele>
        <time>2024-12-07T23:29:49.619Z</time>
      </trkpt>
      <trkpt lat="45.87133" lon="3.55879">
        <ele>610</ele>
        <time>2024-12-07T23:29:50.620Z</time>
      </trkpt>
      <trkpt lat="45.87133" lon="3.55882">
        <ele>610</ele>
        <time>2024-12-07T23:29:51.619Z</time>
      </trkpt>
      <trkpt lat="45.87133" lon="3.55884">
        <ele>610</ele>
        <time>2024-12-07T23:29:52.619Z</time>
      </trkpt>
      <trkpt lat="45.87133" lon="3.55887">
        <ele>610</ele>
        <time>2024-12-07T23:29:53.619Z</time>
      </trkpt>
      <trkpt lat="45.87133" lon="3.55889">
        <ele>610</ele>
        <time>2024-12-07T23:29:54.619Z</time>
      </trkpt>
      <trkpt lat="45.87133" lon="3.55892">
        <ele>610</ele>
        <time>2024-12-07T23:29:55.620Z</time>
      </trkpt>
      <trkpt lat="45.87134" lon="3.55894">
        <ele>610</ele>
        <time>2024-12-07T23:29:56.620Z</time>
      </trkpt>
      <trkpt lat="45.87134" lon="3.55896">
        <ele>610</ele>
        <time>2024-12-07T23:29:57.619Z</time>
      </trkpt>
      <trkpt lat="45.87135" lon="3.55898">
        <ele>610</ele>
        <time>2024-12-07T23:29:58.620Z</time>
      </trkpt>
      <trkpt lat="45.87135" lon="3.559">
        <ele>609</ele>
        <time>2024-12-07T23:29:59.619Z</time>
      </trkpt>
      <trkpt lat="45.87136" lon="3.55902">
        <ele>609</ele>
        <time>2024-12-07T23:30:00.620Z</time>
      </trkpt>
      <trkpt lat="45.87137" lon="3.55904">
        <ele>609</ele>
        <time>2024-12-07T23:30:01.620Z</time>
      </trkpt>
      <trkpt lat="45.87138" lon="3.55906">
        <ele>609</ele>
        <time>2024-12-07T23:30:02.619Z</time>
      </trkpt>
      <trkpt lat="45.87138" lon="3.55908">
        <ele>609</ele>
        <time>2024-12-07T23:30:03.620Z</time>
      </trkpt>
      <trkpt lat="45.87139" lon="3.55909">
        <ele>609</ele>
        <time>2024-12-07T23:30:04.619Z</time>
      </trkpt>
      <trkpt lat="45.8714" lon="3.55911">
        <ele>608</ele>
        <time>2024-12-07T23:30:05.620Z</time>
      </trkpt>
      <trkpt lat="45.87141" lon="3.55913">
        <ele>608</ele>
        <time>2024-12-07T23:30:06.619Z</time>
      </trkpt>
      <trkpt lat="45.87142" lon="3.55914">
        <ele>608</ele>
        <time>2024-12-07T23:30:07.620Z</time>
      </trkpt>
      <trkpt lat="45.87143" lon="3.55916">
        <ele>608</ele>
        <time>2024-12-07T23:30:08.620Z</time>
      </trkpt>
      <trkpt lat="45.87144" lon="3.55917">
        <ele>608</ele>
        <time>2024-12-07T23:30:09.619Z</time>
      </trkpt>
      <trkpt lat="45.87146" lon="3.55919">
        <ele>608</ele>
        <time>2024-12-07T23:30:10.619Z</time>
      </trkpt>
      <trkpt lat="45.87147" lon="3.5592">
        <ele>608</ele>
        <time>2024-12-07T23:30:11.620Z</time>
      </trkpt>
      <trkpt lat="45.87148" lon="3.55921">
        <ele>608</ele>
        <time>2024-12-07T23:30:12.619Z</time>
      </trkpt>
      <trkpt lat="45.8715" lon="3.55923">
        <ele>608</ele>
        <time>2024-12-07T23:30:13.619Z</time>
      </trkpt>
      <trkpt lat="45.87151" lon="3.55924">
        <ele>608</ele>
        <time>2024-12-07T23:30:14.620Z</time>
      </trkpt>
      <trkpt lat="45.87153" lon="3.55926">
        <ele>608</ele>
        <time>2024-12-07T23:30:15.619Z</time>
      </trkpt>
      <trkpt lat="45.87155" lon="3.55927">
        <ele>608</ele>
        <time>2024-12-07T23:30:16.620Z</time>
      </trkpt>
      <trkpt lat="45.87156" lon="3.55929">
        <ele>608</ele>
        <time>2024-12-07T23:30:17.619Z</time>
      </trkpt>
      <trkpt lat="45.87157" lon="3.5593">
        <ele>608</ele>
        <time>2024-12-07T23:30:18.620Z</time>
      </trkpt>
      <trkpt lat="45.87159" lon="3.55931">
        <ele>608</ele>
        <time>2024-12-07T23:30:19.619Z</time>
      </trkpt>
      <trkpt lat="45.8716" lon="3.55932">
        <ele>608</ele>
        <time>2024-12-07T23:30:20.619Z</time>
      </trkpt>
      <trkpt lat="45.87162" lon="3.55934">
        <ele>608</ele>
        <time>2024-12-07T23:30:21.619Z</time>
      </trkpt>
      <trkpt lat="45.87164" lon="3.55935">
        <ele>608</ele>
        <time>2024-12-07T23:30:22.620Z</time>
      </trkpt>
      <trkpt lat="45.87165" lon="3.55937">
        <ele>609</ele>
        <time>2024-12-07T23:30:23.620Z</time>
      </trkpt>
      <trkpt lat="45.87167" lon="3.55938">
        <ele>609</ele>
        <time>2024-12-07T23:30:24.620Z</time>
      </trkpt>
      <trkpt lat="45.87169" lon="3.55939">
        <ele>609</ele>
        <time>2024-12-07T23:30:25.620Z</time>
      </trkpt>
      <trkpt lat="45.87171" lon="3.5594">
        <ele>610</ele>
        <time>2024-12-07T23:30:26.619Z</time>
      </trkpt>
      <trkpt lat="45.87173" lon="3.55942">
        <ele>610</ele>
        <time>2024-12-07T23:30:27.620Z</time>
      </trkpt>
      <trkpt lat="45.87175" lon="3.55943">
        <ele>611</ele>
        <time>2024-12-07T23:30:28.620Z</time>
      </trkpt>
      <trkpt lat="45.87177" lon="3.55944">
        <ele>611</ele>
        <time>2024-12-07T23:30:29.619Z</time>
      </trkpt>
      <trkpt lat="45.87178" lon="3.55945">
        <ele>611</ele>
        <time>2024-12-07T23:30:30.620Z</time>
      </trkpt>
      <trkpt lat="45.87179" lon="3.55947">
        <ele>612</ele>
        <time>2024-12-07T23:30:31.620Z</time>
      </trkpt>
      <trkpt lat="45.87181" lon="3.55948">
        <ele>612</ele>
        <time>2024-12-07T23:30:32.620Z</time>
      </trkpt>
      <trkpt lat="45.87183" lon="3.55948">
        <ele>613</ele>
        <time>2024-12-07T23:30:33.620Z</time>
      </trkpt>
      <trkpt lat="45.87184" lon="3.55949">
        <ele>614</ele>
        <time>2024-12-07T23:30:34.619Z</time>
      </trkpt>
      <trkpt lat="45.87186" lon="3.55951">
        <ele>615</ele>
        <time>2024-12-07T23:30:35.620Z</time>
      </trkpt>
      <trkpt lat="45.87187" lon="3.55952">
        <ele>615</ele>
        <time>2024-12-07T23:30:36.619Z</time>
      </trkpt>
      <trkpt lat="45.87189" lon="3.55953">
        <ele>615</ele>
        <time>2024-12-07T23:30:37.620Z</time>
      </trkpt>
      <trkpt lat="45.8719" lon="3.55954">
        <ele>615</ele>
        <time>2024-12-07T23:30:38.620Z</time>
      </trkpt>
      <trkpt lat="45.87191" lon="3.55955">
        <ele>615</ele>
        <time>2024-12-07T23:30:39.620Z</time>
      </trkpt>
      <trkpt lat="45.87192" lon="3.55956">
        <ele>615</ele>
        <time>2024-12-07T23:30:40.619Z</time>
      </trkpt>
      <trkpt lat="45.87194" lon="3.55957">
        <ele>614</ele>
        <time>2024-12-07T23:30:41.619Z</time>
      </trkpt>
      <trkpt lat="45.87195" lon="3.55958">
        <ele>614</ele>
        <time>2024-12-07T23:30:42.620Z</time>
      </trkpt>
      <trkpt lat="45.87197" lon="3.55959">
        <ele>614</ele>
        <time>2024-12-07T23:30:43.620Z</time>
      </trkpt>
      <trkpt lat="45.87198" lon="3.5596">
        <ele>615</ele>
        <time>2024-12-07T23:30:44.619Z</time>
      </trkpt>
      <trkpt lat="45.87199" lon="3.55961">
        <ele>615</ele>
        <time>2024-12-07T23:30:45.619Z</time>
      </trkpt>
      <trkpt lat="45.87201" lon="3.55962">
        <ele>615</ele>
        <time>2024-12-07T23:30:46.619Z</time>
      </trkpt>
      <trkpt lat="45.87202" lon="3.55964">
        <ele>615</ele>
        <time>2024-12-07T23:30:47.619Z</time>
      </trkpt>
      <trkpt lat="45.87204" lon="3.55965">
        <ele>615</ele>
        <time>2024-12-07T23:30:48.619Z</time>
      </trkpt>
      <trkpt lat="45.87206" lon="3.55967">
        <ele>615</ele>
        <time>2024-12-07T23:30:49.620Z</time>
      </trkpt>
      <trkpt lat="45.87207" lon="3.55969">
        <ele>616</ele>
        <time>2024-12-07T23:30:50.619Z</time>
      </trkpt>
      <trkpt lat="45.87209" lon="3.55971">
        <ele>616</ele>
        <time>2024-12-07T23:30:51.619Z</time>
      </trkpt>
      <trkpt lat="45.8721" lon="3.55973">
        <ele>616</ele>
        <time>2024-12-07T23:30:52.620Z</time>
      </trkpt>
      <trkpt lat="45.87211" lon="3.55975">
        <ele>616</ele>
        <time>2024-12-07T23:30:53.620Z</time>
      </trkpt>
      <trkpt lat="45.87212" lon="3.55977">
        <ele>617</ele>
        <time>2024-12-07T23:30:54.619Z</time>
      </trkpt>
      <trkpt lat="45.87213" lon="3.55979">
        <ele>617</ele>
        <time>2024-12-07T23:30:55.619Z</time>
      </trkpt>
      <trkpt lat="45.87214" lon="3.55981">
        <ele>618</ele>
        <time>2024-12-07T23:30:56.619Z</time>
      </trkpt>
      <trkpt lat="45.87215" lon="3.55983">
        <ele>618</ele>
        <time>2024-12-07T23:30:57.619Z</time>
      </trkpt>
      <trkpt lat="45.87215" lon="3.55985">
        <ele>618</ele>
        <time>2024-12-07T23:30:58.619Z</time>
      </trkpt>
      <trkpt lat="45.87216" lon="3.55987">
        <ele>618</ele>
        <time>2024-12-07T23:30:59.619Z</time>
      </trkpt>
      <trkpt lat="45.87217" lon="3.55989">
        <ele>618</ele>
        <time>2024-12-07T23:31:00.620Z</time>
      </trkpt>
      <trkpt lat="45.87219" lon="3.55991">
        <ele>618</ele>
        <time>2024-12-07T23:31:01.619Z</time>
      </trkpt>
      <trkpt lat="45.8722" lon="3.55994">
        <ele>618</ele>
        <time>2024-12-07T23:31:02.620Z</time>
      </trkpt>
      <trkpt lat="45.8722" lon="3.55996">
        <ele>618</ele>
        <time>2024-12-07T23:31:03.619Z</time>
      </trkpt>
      <trkpt lat="45.87221" lon="3.55998">
        <ele>617</ele>
        <time>2024-12-07T23:31:04.620Z</time>
      </trkpt>
      <trkpt lat="45.87222" lon="3.56001">
        <ele>617</ele>
        <time>2024-12-07T23:31:05.620Z</time>
      </trkpt>
      <trkpt lat="45.87222" lon="3.56004">
        <ele>616</ele>
        <time>2024-12-07T23:31:06.619Z</time>
      </trkpt>
      <trkpt lat="45.87223" lon="3.56006">
        <ele>616</ele>
        <time>2024-12-07T23:31:07.619Z</time>
      </trkpt>
      <trkpt lat="45.87223" lon="3.56008">
        <ele>615</ele>
        <time>2024-12-07T23:31:08.619Z</time>
      </trkpt>
      <trkpt lat="45.87224" lon="3.56011">
        <ele>615</ele>
        <time>2024-12-07T23:31:09.620Z</time>
      </trkpt>
      <trkpt lat="45.87224" lon="3.56013">
        <ele>615</ele>
        <time>2024-12-07T23:31:10.619Z</time>
      </trkpt>
      <trkpt lat="45.87225" lon="3.56015">
        <ele>615</ele>
        <time>2024-12-07T23:31:11.620Z</time>
      </trkpt>
      <trkpt lat="45.87225" lon="3.56018">
        <ele>615</ele>
        <time>2024-12-07T23:31:12.619Z</time>
      </trkpt>
      <trkpt lat="45.87225" lon="3.56021">
        <ele>615</ele>
        <time>2024-12-07T23:31:13.620Z</time>
      </trkpt>
      <trkpt lat="45.87225" lon="3.56024">
        <ele>615</ele>
        <time>2024-12-07T23:31:14.619Z</time>
      </trkpt>
      <trkpt lat="45.87225" lon="3.56027">
        <ele>616</ele>
        <time>2024-12-07T23:31:15.619Z</time>
      </trkpt>
      <trkpt lat="45.87225" lon="3.5603">
        <ele>616</ele>
        <time>2024-12-07T23:31:16.619Z</time>
      </trkpt>
      <trkpt lat="45.87225" lon="3.56032">
        <ele>615</ele>
        <time>2024-12-07T23:31:17.620Z</time>
      </trkpt>
      <trkpt lat="45.87225" lon="3.56035">
        <ele>615</ele>
        <time>2024-12-07T23:31:18.620Z</time>
      </trkpt>
      <trkpt lat="45.87226" lon="3.56038">
        <ele>615</ele>
        <time>2024-12-07T23:31:19.620Z</time>
      </trkpt>
      <trkpt lat="45.87226" lon="3.56041">
        <ele>615</ele>
        <time>2024-12-07T23:31:20.620Z</time>
      </trkpt>
      <trkpt lat="45.87226" lon="3.56043">
        <ele>615</ele>
        <time>2024-12-07T23:31:21.620Z</time>
      </trkpt>
      <trkpt lat="45.87226" lon="3.56046">
        <ele>615</ele>
        <time>2024-12-07T23:31:22.619Z</time>
      </trkpt>
      <trkpt lat="45.87226" lon="3.56049">
        <ele>615</ele>
        <time>2024-12-07T23:31:23.619Z</time>
      </trkpt>
      <trkpt lat="45.87226" lon="3.56052">
        <ele>614</ele>
        <time>2024-12-07T23:31:24.620Z</time>
      </trkpt>
      <trkpt lat="45.87226" lon="3.56055">
        <ele>614</ele>
        <time>2024-12-07T23:31:25.619Z</time>
      </trkpt>
      <trkpt lat="45.87226" lon="3.56058">
        <ele>615</ele>
        <time>2024-12-07T23:31:26.620Z</time>
      </trkpt>
      <trkpt lat="45.87226" lon="3.56061">
        <ele>615</ele>
        <time>2024-12-07T23:31:27.619Z</time>
      </trkpt>
      <trkpt lat="45.87226" lon="3.56063">
        <ele>615</ele>
        <time>2024-12-07T23:31:28.620Z</time>
      </trkpt>
      <trkpt lat="45.87226" lon="3.56066">
        <ele>615</ele>
        <time>2024-12-07T23:31:29.620Z</time>
      </trkpt>
      <trkpt lat="45.87227" lon="3.56069">
        <ele>615</ele>
        <time>2024-12-07T23:31:30.619Z</time>
      </trkpt>
      <trkpt lat="45.87227" lon="3.56071">
        <ele>614</ele>
        <time>2024-12-07T23:31:31.620Z</time>
      </trkpt>
      <trkpt lat="45.87227" lon="3.56075">
        <ele>614</ele>
        <time>2024-12-07T23:31:32.619Z</time>
      </trkpt>
      <trkpt lat="45.87228" lon="3.56078">
        <ele>614</ele>
        <time>2024-12-07T23:31:33.620Z</time>
      </trkpt>
      <trkpt lat="45.87228" lon="3.56081">
        <ele>615</ele>
        <time>2024-12-07T23:31:34.619Z</time>
      </trkpt>
      <trkpt lat="45.87228" lon="3.56084">
        <ele>615</ele>
        <time>2024-12-07T23:31:35.620Z</time>
      </trkpt>
      <trkpt lat="45.87229" lon="3.56086">
        <ele>615</ele>
        <time>2024-12-07T23:31:36.619Z</time>
      </trkpt>
      <trkpt lat="45.87229" lon="3.56089">
        <ele>615</ele>
        <time>2024-12-07T23:31:37.619Z</time>
      </trkpt>
      <trkpt lat="45.8723" lon="3.56091">
        <ele>615</ele>
        <time>2024-12-07T23:31:38.619Z</time>
      </trkpt>
      <trkpt lat="45.87231" lon="3.56094">
        <ele>615</ele>
        <time>2024-12-07T23:31:39.619Z</time>
      </trkpt>
      <trkpt lat="45.87231" lon="3.56097">
        <ele>614</ele>
        <time>2024-12-07T23:31:40.620Z</time>
      </trkpt>
      <trkpt lat="45.87232" lon="3.56099">
        <ele>614</ele>
        <time>2024-12-07T23:31:41.620Z</time>
      </trkpt>
      <trkpt lat="45.87232" lon="3.56102">
        <ele>614</ele>
        <time>2024-12-07T23:31:42.620Z</time>
      </trkpt>
      <trkpt lat="45.87233" lon="3.56105">
        <ele>613</ele>
        <time>2024-12-07T23:31:43.619Z</time>
      </trkpt>
      <trkpt lat="45.87234" lon="3.56108">
        <ele>613</ele>
        <time>2024-12-07T23:31:44.619Z</time>
      </trkpt>
      <trkpt lat="45.87235" lon="3.5611">
        <ele>614</ele>
        <time>2024-12-07T23:31:45.620Z</time>
      </trkpt>
      <trkpt lat="45.87236" lon="3.56112">
        <ele>614</ele>
        <time>2024-12-07T23:31:46.620Z</time>
      </trkpt>
      <trkpt lat="45.87237" lon="3.56115">
        <ele>614</ele>
        <time>2024-12-07T23:31:47.620Z</time>
      </trkpt>
      <trkpt lat="45.87238" lon="3.56117">
        <ele>615</ele>
        <time>2024-12-07T23:31:48.620Z</time>
      </trkpt>
      <trkpt lat="45.87239" lon="3.5612">
        <ele>615</ele>
        <time>2024-12-07T23:31:49.620Z</time>
      </trkpt>
      <trkpt lat="45.8724" lon="3.56123">
        <ele>615</ele>
        <time>2024-12-07T23:31:50.620Z</time>
      </trkpt>
      <trkpt lat="45.87241" lon="3.56125">
        <ele>615</ele>
        <time>2024-12-07T23:31:51.619Z</time>
      </trkpt>
      <trkpt lat="45.87242" lon="3.56128">
        <ele>616</ele>
        <time>2024-12-07T23:31:52.619Z</time>
      </trkpt>
      <trkpt lat="45.87243" lon="3.5613">
        <ele>616</ele>
        <time>2024-12-07T23:31:53.619Z</time>
      </trkpt>
      <trkpt lat="45.87244" lon="3.56132">
        <ele>616</ele>
        <time>2024-12-07T23:31:54.619Z</time>
      </trkpt>
      <trkpt lat="45.87244" lon="3.56135">
        <ele>616</ele>
        <time>2024-12-07T23:31:55.619Z</time>
      </trkpt>
      <trkpt lat="45.87245" lon="3.56137">
        <ele>616</ele>
        <time>2024-12-07T23:31:56.620Z</time>
      </trkpt>
      <trkpt lat="45.87246" lon="3.5614">
        <ele>616</ele>
        <time>2024-12-07T23:31:57.619Z</time>
      </trkpt>
      <trkpt lat="45.87247" lon="3.56142">
        <ele>615</ele>
        <time>2024-12-07T23:31:58.619Z</time>
      </trkpt>
      <trkpt lat="45.87248" lon="3.56145">
        <ele>615</ele>
        <time>2024-12-07T23:31:59.620Z</time>
      </trkpt>
      <trkpt lat="45.87249" lon="3.56147">
        <ele>615</ele>
        <time>2024-12-07T23:32:00.619Z</time>
      </trkpt>
      <trkpt lat="45.8725" lon="3.5615">
        <ele>615</ele>
        <time>2024-12-07T23:32:01.620Z</time>
      </trkpt>
      <trkpt lat="45.87252" lon="3.56152">
        <ele>614</ele>
        <time>2024-12-07T23:32:02.620Z</time>
      </trkpt>
      <trkpt lat="45.87253" lon="3.56154">
        <ele>615</ele>
        <time>2024-12-07T23:32:03.620Z</time>
      </trkpt>
      <trkpt lat="45.87254" lon="3.56156">
        <ele>615</ele>
        <time>2024-12-07T23:32:04.620Z</time>
      </trkpt>
      <trkpt lat="45.87255" lon="3.56158">
        <ele>615</ele>
        <time>2024-12-07T23:32:05.619Z</time>
      </trkpt>
      <trkpt lat="45.87256" lon="3.56161">
        <ele>615</ele>
        <time>2024-12-07T23:32:06.620Z</time>
      </trkpt>
      <trkpt lat="45.87257" lon="3.56163">
        <ele>615</ele>
        <time>2024-12-07T23:32:07.619Z</time>
      </trkpt>
      <trkpt lat="45.87258" lon="3.56165">
        <ele>614</ele>
        <time>2024-12-07T23:32:08.620Z</time>
      </trkpt>
      <trkpt lat="45.87259" lon="3.56168">
        <ele>614</ele>
        <time>2024-12-07T23:32:09.619Z</time>
      </trkpt>
      <trkpt lat="45.8726" lon="3.5617">
        <ele>614</ele>
        <time>2024-12-07T23:32:10.620Z</time>
      </trkpt>
      <trkpt lat="45.87261" lon="3.56173">
        <ele>613</ele>
        <time>2024-12-07T23:32:11.619Z</time>
      </trkpt>
      <trkpt lat="45.87262" lon="3.56175">
        <ele>613</ele>
        <time>2024-12-07T23:32:12.620Z</time>
      </trkpt>
      <trkpt lat="45.87263" lon="3.56177">
        <ele>613</ele>
        <time>2024-12-07T23:32:13.620Z</time>
      </trkpt>
      <trkpt lat="45.87264" lon="3.56179">
        <ele>612</ele>
        <time>2024-12-07T23:32:14.620Z</time>
      </trkpt>
      <trkpt lat="45.87265" lon="3.56181">
        <ele>612</ele>
        <time>2024-12-07T23:32:15.620Z</time>
      </trkpt>
      <trkpt lat="45.87266" lon="3.56183">
        <ele>612</ele>
        <time>2024-12-07T23:32:16.619Z</time>
      </trkpt>
      <trkpt lat="45.87267" lon="3.56185">
        <ele>612</ele>
        <time>2024-12-07T23:32:17.620Z</time>
      </trkpt>
      <trkpt lat="45.87269" lon="3.56187">
        <ele>612</ele>
        <time>2024-12-07T23:32:18.620Z</time>
      </trkpt>
      <trkpt lat="45.8727" lon="3.5619">
        <ele>611</ele>
        <time>2024-12-07T23:32:19.619Z</time>
      </trkpt>
      <trkpt lat="45.87271" lon="3.56192">
        <ele>611</ele>
        <time>2024-12-07T23:32:20.620Z</time>
      </trkpt>
      <trkpt lat="45.87273" lon="3.56194">
        <ele>611</ele>
        <time>2024-12-07T23:32:21.619Z</time>
      </trkpt>
      <trkpt lat="45.87274" lon="3.56195">
        <ele>611</ele>
        <time>2024-12-07T23:32:22.619Z</time>
      </trkpt>
      <trkpt lat="45.87275" lon="3.56197">
        <ele>611</ele>
        <time>2024-12-07T23:32:23.619Z</time>
      </trkpt>
      <trkpt lat="45.87276" lon="3.56199">
        <ele>611</ele>
        <time>2024-12-07T23:32:24.620Z</time>
      </trkpt>
      <trkpt lat="45.87278" lon="3.562">
        <ele>610</ele>
        <time>2024-12-07T23:32:25.619Z</time>
      </trkpt>
      <trkpt lat="45.8728" lon="3.56202">
        <ele>610</ele>
        <time>2024-12-07T23:32:26.619Z</time>
      </trkpt>
      <trkpt lat="45.87282" lon="3.56204">
        <ele>610</ele>
        <time>2024-12-07T23:32:27.619Z</time>
      </trkpt>
      <trkpt lat="45.87283" lon="3.56206">
        <ele>610</ele>
        <time>2024-12-07T23:32:28.620Z</time>
      </trkpt>
      <trkpt lat="45.87285" lon="3.56208">
        <ele>610</ele>
        <time>2024-12-07T23:32:29.619Z</time>
      </trkpt>
      <trkpt lat="45.87286" lon="3.56209">
        <ele>610</ele>
        <time>2024-12-07T23:32:30.620Z</time>
      </trkpt>
      <trkpt lat="45.87288" lon="3.56211">
        <ele>611</ele>
        <time>2024-12-07T23:32:31.620Z</time>
      </trkpt>
      <trkpt lat="45.87289" lon="3.56213">
        <ele>611</ele>
        <time>2024-12-07T23:32:32.619Z</time>
      </trkpt>
      <trkpt lat="45.87291" lon="3.56214">
        <ele>611</ele>
        <time>2024-12-07T23:32:33.619Z</time>
      </trkpt>
      <trkpt lat="45.87292" lon="3.56216">
        <ele>611</ele>
        <time>2024-12-07T23:32:34.620Z</time>
      </trkpt>
      <trkpt lat="45.87294" lon="3.56217">
        <ele>611</ele>
        <time>2024-12-07T23:32:35.619Z</time>
      </trkpt>
      <trkpt lat="45.87295" lon="3.56219">
        <ele>611</ele>
        <time>2024-12-07T23:32:36.620Z</time>
      </trkpt>
      <trkpt lat="45.87297" lon="3.56221">
        <ele>611</ele>
        <time>2024-12-07T23:32:37.619Z</time>
      </trkpt>
      <trkpt lat="45.87298" lon="3.56222">
        <ele>611</ele>
        <time>2024-12-07T23:32:38.620Z</time>
      </trkpt>
      <trkpt lat="45.873" lon="3.56224">
        <ele>611</ele>
        <time>2024-12-07T23:32:39.619Z</time>
      </trkpt>
      <trkpt lat="45.87301" lon="3.56226">
        <ele>611</ele>
        <time>2024-12-07T23:32:40.619Z</time>
      </trkpt>
      <trkpt lat="45.87302" lon="3.56227">
        <ele>611</ele>
        <time>2024-12-07T23:32:41.620Z</time>
      </trkpt>
      <trkpt lat="45.87303" lon="3.56229">
        <ele>611</ele>
        <time>2024-12-07T23:32:42.619Z</time>
      </trkpt>
      <trkpt lat="45.87305" lon="3.56231">
        <ele>612</ele>
        <time>2024-12-07T23:32:43.620Z</time>
      </trkpt>
      <trkpt lat="45.87306" lon="3.56233">
        <ele>612</ele>
        <time>2024-12-07T23:32:44.620Z</time>
      </trkpt>
      <trkpt lat="45.87308" lon="3.56235">
        <ele>612</ele>
        <time>2024-12-07T23:32:45.620Z</time>
      </trkpt>
      <trkpt lat="45.8731" lon="3.56237">
        <ele>612</ele>
        <time>2024-12-07T23:32:46.620Z</time>
      </trkpt>
      <trkpt lat="45.87311" lon="3.56239">
        <ele>611</ele>
        <time>2024-12-07T23:32:47.619Z</time>
      </trkpt>
      <trkpt lat="45.87313" lon="3.5624">
        <ele>611</ele>
        <time>2024-12-07T23:32:48.619Z</time>
      </trkpt>
      <trkpt lat="45.87314" lon="3.56242">
        <ele>611</ele>
        <time>2024-12-07T23:32:49.619Z</time>
      </trkpt>
      <trkpt lat="45.87315" lon="3.56243">
        <ele>611</ele>
        <time>2024-12-07T23:32:50.619Z</time>
      </trkpt>
      <trkpt lat="45.87317" lon="3.56245">
        <ele>611</ele>
        <time>2024-12-07T23:32:51.619Z</time>
      </trkpt>
      <trkpt lat="45.87319" lon="3.56247">
        <ele>611</ele>
        <time>2024-12-07T23:32:52.620Z</time>
      </trkpt>
      <trkpt lat="45.8732" lon="3.56249">
        <ele>611</ele>
        <time>2024-12-07T23:32:53.619Z</time>
      </trkpt>
      <trkpt lat="45.87322" lon="3.56251">
        <ele>611</ele>
        <time>2024-12-07T23:32:54.620Z</time>
      </trkpt>
      <trkpt lat="45.87323" lon="3.56252">
        <ele>611</ele>
        <time>2024-12-07T23:32:55.620Z</time>
      </trkpt>
      <trkpt lat="45.87325" lon="3.56254">
        <ele>611</ele>
        <time>2024-12-07T23:32:56.619Z</time>
      </trkpt>
      <trkpt lat="45.87326" lon="3.56255">
        <ele>611</ele>
        <time>2024-12-07T23:32:57.619Z</time>
      </trkpt>
      <trkpt lat="45.87328" lon="3.56257">
        <ele>611</ele>
        <time>2024-12-07T23:32:58.619Z</time>
      </trkpt>
      <trkpt lat="45.87329" lon="3.56258">
        <ele>611</ele>
        <time>2024-12-07T23:32:59.619Z</time>
      </trkpt>
      <trkpt lat="45.87331" lon="3.56259">
        <ele>611</ele>
        <time>2024-12-07T23:33:00.619Z</time>
      </trkpt>
      <trkpt lat="45.87333" lon="3.56261">
        <ele>611</ele>
        <time>2024-12-07T23:33:01.620Z</time>
      </trkpt>
      <trkpt lat="45.87334" lon="3.56262">
        <ele>611</ele>
        <time>2024-12-07T23:33:02.619Z</time>
      </trkpt>
      <trkpt lat="45.87336" lon="3.56264">
        <ele>612</ele>
        <time>2024-12-07T23:33:03.620Z</time>
      </trkpt>
      <trkpt lat="45.87338" lon="3.56266">
        <ele>612</ele>
        <time>2024-12-07T23:33:04.620Z</time>
      </trkpt>
      <trkpt lat="45.8734" lon="3.56268">
        <ele>612</ele>
        <time>2024-12-07T23:33:05.620Z</time>
      </trkpt>
      <trkpt lat="45.87341" lon="3.56269">
        <ele>612</ele>
        <time>2024-12-07T23:33:06.620Z</time>
      </trkpt>
      <trkpt lat="45.87343" lon="3.56271">
        <ele>612</ele>
        <time>2024-12-07T23:33:07.619Z</time>
      </trkpt>
      <trkpt lat="45.87344" lon="3.56273">
        <ele>612</ele>
        <time>2024-12-07T23:33:08.619Z</time>
      </trkpt>
      <trkpt lat="45.87346" lon="3.56274">
        <ele>612</ele>
        <time>2024-12-07T23:33:09.619Z</time>
      </trkpt>
      <trkpt lat="45.87347" lon="3.56275">
        <ele>612</ele>
        <time>2024-12-07T23:33:10.619Z</time>
      </trkpt>
      <trkpt lat="45.87349" lon="3.56277">
        <ele>612</ele>
        <time>2024-12-07T23:33:11.620Z</time>
      </trkpt>
      <trkpt lat="45.87351" lon="3.56278">
        <ele>612</ele>
        <time>2024-12-07T23:33:12.620Z</time>
      </trkpt>
      <trkpt lat="45.87352" lon="3.5628">
        <ele>612</ele>
        <time>2024-12-07T23:33:13.620Z</time>
      </trkpt>
      <trkpt lat="45.87354" lon="3.56281">
        <ele>612</ele>
        <time>2024-12-07T23:33:14.619Z</time>
      </trkpt>
      <trkpt lat="45.87355" lon="3.56282">
        <ele>612</ele>
        <time>2024-12-07T23:33:15.619Z</time>
      </trkpt>
      <trkpt lat="45.87357" lon="3.56284">
        <ele>612</ele>
        <time>2024-12-07T23:33:16.619Z</time>
      </trkpt>
      <trkpt lat="45.87358" lon="3.56285">
        <ele>612</ele>
        <time>2024-12-07T23:33:17.620Z</time>
      </trkpt>
      <trkpt lat="45.87359" lon="3.56286">
        <ele>612</ele>
        <time>2024-12-07T23:33:18.619Z</time>
      </trkpt>
      <trkpt lat="45.8736" lon="3.56287">
        <ele>612</ele>
        <time>2024-12-07T23:33:19.620Z</time>
      </trkpt>
      <trkpt lat="45.87362" lon="3.56289">
        <ele>612</ele>
        <time>2024-12-07T23:33:20.619Z</time>
      </trkpt>
      <trkpt lat="45.87363" lon="3.56291">
        <ele>612</ele>
        <time>2024-12-07T23:33:21.620Z</time>
      </trkpt>
      <trkpt lat="45.87365" lon="3.56293">
        <ele>613</ele>
        <time>2024-12-07T23:33:22.620Z</time>
      </trkpt>
      <trkpt lat="45.87367" lon="3.56294">
        <ele>613</ele>
        <time>2024-12-07T23:33:23.620Z</time>
      </trkpt>
      <trkpt lat="45.87369" lon="3.56296">
        <ele>614</ele>
        <time>2024-12-07T23:33:24.619Z</time>
      </trkpt>
      <trkpt lat="45.87371" lon="3.56297">
        <ele>614</ele>
        <time>2024-12-07T23:33:25.620Z</time>
      </trkpt>
      <trkpt lat="45.87373" lon="3.56299">
        <ele>614</ele>
        <time>2024-12-07T23:33:26.619Z</time>
      </trkpt>
      <trkpt lat="45.87374" lon="3.56301">
        <ele>615</ele>
        <time>2024-12-07T23:33:27.619Z</time>
      </trkpt>
      <trkpt lat="45.87376" lon="3.56303">
        <ele>615</ele>
        <time>2024-12-07T23:33:28.620Z</time>
      </trkpt>
      <trkpt lat="45.87377" lon="3.56305">
        <ele>615</ele>
        <time>2024-12-07T23:33:29.620Z</time>
      </trkpt>
      <trkpt lat="45.87379" lon="3.56306">
        <ele>616</ele>
        <time>2024-12-07T23:33:30.620Z</time>
      </trkpt>
      <trkpt lat="45.8738" lon="3.56308">
        <ele>616</ele>
        <time>2024-12-07T23:33:31.620Z</time>
      </trkpt>
      <trkpt lat="45.87382" lon="3.56309">
        <ele>617</ele>
        <time>2024-12-07T23:33:32.620Z</time>
      </trkpt>
      <trkpt lat="45.87384" lon="3.5631">
        <ele>617</ele>
        <time>2024-12-07T23:33:33.620Z</time>
      </trkpt>
      <trkpt lat="45.87386" lon="3.56312">
        <ele>617</ele>
        <time>2024-12-07T23:33:34.620Z</time>
      </trkpt>
      <trkpt lat="45.87388" lon="3.56313">
        <ele>617</ele>
        <time>2024-12-07T23:33:35.619Z</time>
      </trkpt>
      <trkpt lat="45.8739" lon="3.56313">
        <ele>617</ele>
        <time>2024-12-07T23:33:36.619Z</time>
      </trkpt>
      <trkpt lat="45.87392" lon="3.56314">
        <ele>617</ele>
        <time>2024-12-07T23:33:37.620Z</time>
      </trkpt>
      <trkpt lat="45.87393" lon="3.56315">
        <ele>617</ele>
        <time>2024-12-07T23:33:38.619Z</time>
      </trkpt>
      <trkpt lat="45.87395" lon="3.56315">
        <ele>616</ele>
        <time>2024-12-07T23:33:39.620Z</time>
      </trkpt>
      <trkpt lat="45.87397" lon="3.56315">
        <ele>616</ele>
        <time>2024-12-07T23:33:40.619Z</time>
      </trkpt>
      <trkpt lat="45.87399" lon="3.56314">
        <ele>616</ele>
        <time>2024-12-07T23:33:41.620Z</time>
      </trkpt>
      <trkpt lat="45.87401" lon="3.56314">
        <ele>615</ele>
        <time>2024-12-07T23:33:42.619Z</time>
      </trkpt>
      <trkpt lat="45.87403" lon="3.56314">
        <ele>615</ele>
        <time>2024-12-07T23:33:43.619Z</time>
      </trkpt>
      <trkpt lat="45.87405" lon="3.56312">
        <ele>615</ele>
        <time>2024-12-07T23:33:44.619Z</time>
      </trkpt>
      <trkpt lat="45.87407" lon="3.56311">
        <ele>614</ele>
        <time>2024-12-07T23:33:45.620Z</time>
      </trkpt>
      <trkpt lat="45.87408" lon="3.5631">
        <ele>614</ele>
        <time>2024-12-07T23:33:46.620Z</time>
      </trkpt>
      <trkpt lat="45.8741" lon="3.56309">
        <ele>614</ele>
        <time>2024-12-07T23:33:47.619Z</time>
      </trkpt>
      <trkpt lat="45.87411" lon="3.56308">
        <ele>614</ele>
        <time>2024-12-07T23:33:48.619Z</time>
      </trkpt>
      <trkpt lat="45.87413" lon="3.56306">
        <ele>614</ele>
        <time>2024-12-07T23:33:49.619Z</time>
      </trkpt>
      <trkpt lat="45.87414" lon="3.56305">
        <ele>614</ele>
        <time>2024-12-07T23:33:50.620Z</time>
      </trkpt>
      <trkpt lat="45.87416" lon="3.56303">
        <ele>614</ele>
        <time>2024-12-07T23:33:51.619Z</time>
      </trkpt>
      <trkpt lat="45.87418" lon="3.56302">
        <ele>615</ele>
        <time>2024-12-07T23:33:52.619Z</time>
      </trkpt>
      <trkpt lat="45.87419" lon="3.56301">
        <ele>615</ele>
        <time>2024-12-07T23:33:53.619Z</time>
      </trkpt>
      <trkpt lat="45.87421" lon="3.563">
        <ele>615</ele>
        <time>2024-12-07T23:33:54.620Z</time>
      </trkpt>
      <trkpt lat="45.87422" lon="3.56299">
        <ele>615</ele>
        <time>2024-12-07T23:33:55.619Z</time>
      </trkpt>
      <trkpt lat="45.87424" lon="3.56298">
        <ele>615</ele>
        <time>2024-12-07T23:33:56.619Z</time>
      </trkpt>
      <trkpt lat="45.87426" lon="3.56297">
        <ele>614</ele>
        <time>2024-12-07T23:33:57.619Z</time>
      </trkpt>
      <trkpt lat="45.87428" lon="3.56295">
        <ele>614</ele>
        <time>2024-12-07T23:33:58.619Z</time>
      </trkpt>
      <trkpt lat="45.8743" lon="3.56294">
        <ele>615</ele>
        <time>2024-12-07T23:33:59.620Z</time>
      </trkpt>
      <trkpt lat="45.87432" lon="3.56293">
        <ele>615</ele>
        <time>2024-12-07T23:34:00.619Z</time>
      </trkpt>
      <trkpt lat="45.87432" lon="3.56292">
        <ele>615</ele>
        <time>2024-12-07T23:34:01.619Z</time>
      </trkpt>
      <trkpt lat="45.87434" lon="3.56291">
        <ele>615</ele>
        <time>2024-12-07T23:34:02.619Z</time>
      </trkpt>
      <trkpt lat="45.87436" lon="3.56291">
        <ele>615</ele>
        <time>2024-12-07T23:34:03.619Z</time>
      </trkpt>
      <trkpt lat="45.87438" lon="3.56291">
        <ele>615</ele>
        <time>2024-12-07T23:34:04.619Z</time>
      </trkpt>
      <trkpt lat="45.8744" lon="3.5629">
        <ele>615</ele>
        <time>2024-12-07T23:34:05.620Z</time>
      </trkpt>
      <trkpt lat="45.87442" lon="3.56289">
        <ele>615</ele>
        <time>2024-12-07T23:34:06.619Z</time>
      </trkpt>
      <trkpt lat="45.87443" lon="3.56288">
        <ele>615</ele>
        <time>2024-12-07T23:34:07.619Z</time>
      </trkpt>
      <trkpt lat="45.87445" lon="3.56288">
        <ele>615</ele>
        <time>2024-12-07T23:34:08.619Z</time>
      </trkpt>
      <trkpt lat="45.87447" lon="3.56287">
        <ele>615</ele>
        <time>2024-12-07T23:34:09.619Z</time>
      </trkpt>
      <trkpt lat="45.87448" lon="3.56287">
        <ele>615</ele>
        <time>2024-12-07T23:34:10.620Z</time>
      </trkpt>
      <trkpt lat="45.8745" lon="3.56286">
        <ele>615</ele>
        <time>2024-12-07T23:34:11.620Z</time>
      </trkpt>
      <trkpt lat="45.87452" lon="3.56286">
        <ele>615</ele>
        <time>2024-12-07T23:34:12.619Z</time>
      </trkpt>
      <trkpt lat="45.87454" lon="3.56285">
        <ele>615</ele>
        <time>2024-12-07T23:34:13.619Z</time>
      </trkpt>
      <trkpt lat="45.87456" lon="3.56284">
        <ele>615</ele>
        <time>2024-12-07T23:34:14.619Z</time>
      </trkpt>
      <trkpt lat="45.87457" lon="3.56283">
        <ele>614</ele>
        <time>2024-12-07T23:34:15.619Z</time>
      </trkpt>
      <trkpt lat="45.87459" lon="3.56282">
        <ele>614</ele>
        <time>2024-12-07T23:34:16.619Z</time>
      </trkpt>
      <trkpt lat="45.87461" lon="3.56281">
        <ele>614</ele>
        <time>2024-12-07T23:34:17.619Z</time>
      </trkpt>
      <trkpt lat="45.87462" lon="3.5628">
        <ele>614</ele>
        <time>2024-12-07T23:34:18.619Z</time>
      </trkpt>
      <trkpt lat="45.87464" lon="3.56279">
        <ele>615</ele>
        <time>2024-12-07T23:34:19.619Z</time>
      </trkpt>
      <trkpt lat="45.87465" lon="3.56279">
        <ele>615</ele>
        <time>2024-12-07T23:34:20.620Z</time>
      </trkpt>
      <trkpt lat="45.87467" lon="3.56278">
        <ele>615</ele>
        <time>2024-12-07T23:34:21.619Z</time>
      </trkpt>
      <trkpt lat="45.8747" lon="3.56278">
        <ele>615</ele>
        <time>2024-12-07T23:34:22.620Z</time>
      </trkpt>
      <trkpt lat="45.87472" lon="3.56277">
        <ele>616</ele>
        <time>2024-12-07T23:34:23.619Z</time>
      </trkpt>
      <trkpt lat="45.87474" lon="3.56277">
        <ele>616</ele>
        <time>2024-12-07T23:34:24.620Z</time>
      </trkpt>
      <trkpt lat="45.87475" lon="3.56277">
        <ele>616</ele>
        <time>2024-12-07T23:34:25.619Z</time>
      </trkpt>
      <trkpt lat="45.87476" lon="3.56276">
        <ele>616</ele>
        <time>2024-12-07T23:34:26.619Z</time>
      </trkpt>
      <trkpt lat="45.87478" lon="3.56275">
        <ele>617</ele>
        <time>2024-12-07T23:34:27.619Z</time>
      </trkpt>
      <trkpt lat="45.8748" lon="3.56275">
        <ele>617</ele>
        <time>2024-12-07T23:34:28.619Z</time>
      </trkpt>
      <trkpt lat="45.87481" lon="3.56275">
        <ele>618</ele>
        <time>2024-12-07T23:34:29.619Z</time>
      </trkpt>
      <trkpt lat="45.87483" lon="3.56275">
        <ele>618</ele>
        <time>2024-12-07T23:34:30.619Z</time>
      </trkpt>
      <trkpt lat="45.87485" lon="3.56275">
        <ele>618</ele>
        <time>2024-12-07T23:34:31.619Z</time>
      </trkpt>
      <trkpt lat="45.87487" lon="3.56275">
        <ele>618</ele>
        <time>2024-12-07T23:34:32.620Z</time>
      </trkpt>
      <trkpt lat="45.8749" lon="3.56275">
        <ele>618</ele>
        <time>2024-12-07T23:34:33.619Z</time>
      </trkpt>
      <trkpt lat="45.87491" lon="3.56274">
        <ele>618</ele>
        <time>2024-12-07T23:34:34.619Z</time>
      </trkpt>
      <trkpt lat="45.87493" lon="3.56273">
        <ele>618</ele>
        <time>2024-12-07T23:34:35.619Z</time>
      </trkpt>
      <trkpt lat="45.87494" lon="3.56273">
        <ele>618</ele>
        <time>2024-12-07T23:34:36.619Z</time>
      </trkpt>
      <trkpt lat="45.87496" lon="3.56273">
        <ele>618</ele>
        <time>2024-12-07T23:34:37.619Z</time>
      </trkpt>
      <trkpt lat="45.87498" lon="3.56273">
        <ele>618</ele>
        <time>2024-12-07T23:34:38.619Z</time>
      </trkpt>
      <trkpt lat="45.87499" lon="3.56273">
        <ele>618</ele>
        <time>2024-12-07T23:34:39.619Z</time>
      </trkpt>
      <trkpt lat="45.87501" lon="3.56273">
        <ele>618</ele>
        <time>2024-12-07T23:34:40.619Z</time>
      </trkpt>
      <trkpt lat="45.87503" lon="3.56273">
        <ele>618</ele>
        <time>2024-12-07T23:34:41.619Z</time>
      </trkpt>
      <trkpt lat="45.87505" lon="3.56273">
        <ele>618</ele>
        <time>2024-12-07T23:34:42.619Z</time>
      </trkpt>
      <trkpt lat="45.87506" lon="3.56273">
        <ele>618</ele>
        <time>2024-12-07T23:34:43.620Z</time>
      </trkpt>
      <trkpt lat="45.87508" lon="3.56273">
        <ele>618</ele>
        <time>2024-12-07T23:34:44.619Z</time>
      </trkpt>
      <trkpt lat="45.8751" lon="3.56273">
        <ele>618</ele>
        <time>2024-12-07T23:34:45.619Z</time>
      </trkpt>
      <trkpt lat="45.87512" lon="3.56273">
        <ele>619</ele>
        <time>2024-12-07T23:34:46.620Z</time>
      </trkpt>
      <trkpt lat="45.87514" lon="3.56273">
        <ele>619</ele>
        <time>2024-12-07T23:34:47.619Z</time>
      </trkpt>
      <trkpt lat="45.87515" lon="3.56274">
        <ele>619</ele>
        <time>2024-12-07T23:34:48.620Z</time>
      </trkpt>
      <trkpt lat="45.87517" lon="3.56274">
        <ele>619</ele>
        <time>2024-12-07T23:34:49.620Z</time>
      </trkpt>
      <trkpt lat="45.87519" lon="3.56274">
        <ele>620</ele>
        <time>2024-12-07T23:34:50.619Z</time>
      </trkpt>
      <trkpt lat="45.8752" lon="3.56274">
        <ele>620</ele>
        <time>2024-12-07T23:34:51.619Z</time>
      </trkpt>
      <trkpt lat="45.87522" lon="3.56275">
        <ele>620</ele>
        <time>2024-12-07T23:34:52.620Z</time>
      </trkpt>
      <trkpt lat="45.87524" lon="3.56275">
        <ele>620</ele>
        <time>2024-12-07T23:34:53.619Z</time>
      </trkpt>
      <trkpt lat="45.87526" lon="3.56275">
        <ele>620</ele>
        <time>2024-12-07T23:34:54.619Z</time>
      </trkpt>
      <trkpt lat="45.87527" lon="3.56276">
        <ele>620</ele>
        <time>2024-12-07T23:34:55.619Z</time>
      </trkpt>
      <trkpt lat="45.87529" lon="3.56276">
        <ele>620</ele>
        <time>2024-12-07T23:34:56.619Z</time>
      </trkpt>
      <trkpt lat="45.87531" lon="3.56277">
        <ele>619</ele>
        <time>2024-12-07T23:34:57.620Z</time>
      </trkpt>
      <trkpt lat="45.87533" lon="3.56277">
        <ele>619</ele>
        <time>2024-12-07T23:34:58.619Z</time>
      </trkpt>
      <trkpt lat="45.87535" lon="3.56278">
        <ele>619</ele>
        <time>2024-12-07T23:34:59.619Z</time>
      </trkpt>
      <trkpt lat="45.87537" lon="3.56278">
        <ele>619</ele>
        <time>2024-12-07T23:35:00.619Z</time>
      </trkpt>
      <trkpt lat="45.87538" lon="3.56279">
        <ele>619</ele>
        <time>2024-12-07T23:35:01.619Z</time>
      </trkpt>
      <trkpt lat="45.8754" lon="3.56279">
        <ele>620</ele>
        <time>2024-12-07T23:35:02.619Z</time>
      </trkpt>
      <trkpt lat="45.87542" lon="3.5628">
        <ele>620</ele>
        <time>2024-12-07T23:35:03.619Z</time>
      </trkpt>
      <trkpt lat="45.87543" lon="3.5628">
        <ele>620</ele>
        <time>2024-12-07T23:35:04.619Z</time>
      </trkpt>
      <trkpt lat="45.87545" lon="3.5628">
        <ele>620</ele>
        <time>2024-12-07T23:35:05.620Z</time>
      </trkpt>
      <trkpt lat="45.87547" lon="3.5628">
        <ele>621</ele>
        <time>2024-12-07T23:35:06.620Z</time>
      </trkpt>
      <trkpt lat="45.87549" lon="3.5628">
        <ele>621</ele>
        <time>2024-12-07T23:35:07.619Z</time>
      </trkpt>
      <trkpt lat="45.87551" lon="3.5628">
        <ele>621</ele>
        <time>2024-12-07T23:35:08.620Z</time>
      </trkpt>
      <trkpt lat="45.87553" lon="3.56281">
        <ele>621</ele>
        <time>2024-12-07T23:35:09.620Z</time>
      </trkpt>
      <trkpt lat="45.87555" lon="3.56282">
        <ele>622</ele>
        <time>2024-12-07T23:35:10.620Z</time>
      </trkpt>
      <trkpt lat="45.87556" lon="3.56282">
        <ele>623</ele>
        <time>2024-12-07T23:35:11.619Z</time>
      </trkpt>
      <trkpt lat="45.87558" lon="3.56283">
        <ele>623</ele>
        <time>2024-12-07T23:35:12.619Z</time>
      </trkpt>
      <trkpt lat="45.8756" lon="3.56284">
        <ele>623</ele>
        <time>2024-12-07T23:35:13.620Z</time>
      </trkpt>
      <trkpt lat="45.87562" lon="3.56284">
        <ele>624</ele>
        <time>2024-12-07T23:35:14.619Z</time>
      </trkpt>
      <trkpt lat="45.87563" lon="3.56284">
        <ele>624</ele>
        <time>2024-12-07T23:35:15.619Z</time>
      </trkpt>
      <trkpt lat="45.87565" lon="3.56285">
        <ele>625</ele>
        <time>2024-12-07T23:35:16.619Z</time>
      </trkpt>
      <trkpt lat="45.87566" lon="3.56285">
        <ele>625</ele>
        <time>2024-12-07T23:35:17.619Z</time>
      </trkpt>
      <trkpt lat="45.87568" lon="3.56286">
        <ele>625</ele>
        <time>2024-12-07T23:35:18.620Z</time>
      </trkpt>
      <trkpt lat="45.8757" lon="3.56286">
        <ele>625</ele>
        <time>2024-12-07T23:35:19.619Z</time>
      </trkpt>
      <trkpt lat="45.87572" lon="3.56286">
        <ele>625</ele>
        <time>2024-12-07T23:35:20.619Z</time>
      </trkpt>
      <trkpt lat="45.87574" lon="3.56287">
        <ele>625</ele>
        <time>2024-12-07T23:35:21.620Z</time>
      </trkpt>
      <trkpt lat="45.87576" lon="3.56288">
        <ele>626</ele>
        <time>2024-12-07T23:35:22.620Z</time>
      </trkpt>
      <trkpt lat="45.87578" lon="3.56288">
        <ele>626</ele>
        <time>2024-12-07T23:35:23.619Z</time>
      </trkpt>
      <trkpt lat="45.8758" lon="3.56288">
        <ele>627</ele>
        <time>2024-12-07T23:35:24.620Z</time>
      </trkpt>
      <trkpt lat="45.87582" lon="3.56289">
        <ele>627</ele>
        <time>2024-12-07T23:35:25.620Z</time>
      </trkpt>
      <trkpt lat="45.87583" lon="3.56289">
        <ele>627</ele>
        <time>2024-12-07T23:35:26.620Z</time>
      </trkpt>
      <trkpt lat="45.87585" lon="3.56289">
        <ele>628</ele>
        <time>2024-12-07T23:35:27.620Z</time>
      </trkpt>
      <trkpt lat="45.87586" lon="3.56289">
        <ele>628</ele>
        <time>2024-12-07T23:35:28.620Z</time>
      </trkpt>
      <trkpt lat="45.87588" lon="3.56289">
        <ele>628</ele>
        <time>2024-12-07T23:35:29.620Z</time>
      </trkpt>
      <trkpt lat="45.8759" lon="3.5629">
        <ele>629</ele>
        <time>2024-12-07T23:35:30.620Z</time>
      </trkpt>
      <trkpt lat="45.87591" lon="3.56289">
        <ele>629</ele>
        <time>2024-12-07T23:35:31.620Z</time>
      </trkpt>
      <trkpt lat="45.87592" lon="3.56289">
        <ele>630</ele>
        <time>2024-12-07T23:35:32.619Z</time>
      </trkpt>
      <trkpt lat="45.87593" lon="3.56288">
        <ele>630</ele>
        <time>2024-12-07T23:35:33.620Z</time>
      </trkpt>
      <trkpt lat="45.87595" lon="3.56288">
        <ele>630</ele>
        <time>2024-12-07T23:35:34.620Z</time>
      </trkpt>
      <trkpt lat="45.87597" lon="3.56288">
        <ele>630</ele>
        <time>2024-12-07T23:35:35.620Z</time>
      </trkpt>
      <trkpt lat="45.87598" lon="3.56288">
        <ele>630</ele>
        <time>2024-12-07T23:35:36.620Z</time>
      </trkpt>
      <trkpt lat="45.87601" lon="3.56287">
        <ele>630</ele>
        <time>2024-12-07T23:35:37.620Z</time>
      </trkpt>
      <trkpt lat="45.87602" lon="3.56286">
        <ele>630</ele>
        <time>2024-12-07T23:35:38.619Z</time>
      </trkpt>
      <trkpt lat="45.87604" lon="3.56284">
        <ele>630</ele>
        <time>2024-12-07T23:35:39.619Z</time>
      </trkpt>
      <trkpt lat="45.87606" lon="3.56283">
        <ele>630</ele>
        <time>2024-12-07T23:35:40.619Z</time>
      </trkpt>
      <trkpt lat="45.87608" lon="3.56283">
        <ele>630</ele>
        <time>2024-12-07T23:35:41.619Z</time>
      </trkpt>
      <trkpt lat="45.87609" lon="3.56282">
        <ele>630</ele>
        <time>2024-12-07T23:35:42.619Z</time>
      </trkpt>
      <trkpt lat="45.87611" lon="3.56281">
        <ele>630</ele>
        <time>2024-12-07T23:35:43.620Z</time>
      </trkpt>
      <trkpt lat="45.87613" lon="3.5628">
        <ele>631</ele>
        <time>2024-12-07T23:35:44.619Z</time>
      </trkpt>
      <trkpt lat="45.87615" lon="3.5628">
        <ele>631</ele>
        <time>2024-12-07T23:35:45.620Z</time>
      </trkpt>
      <trkpt lat="45.87617" lon="3.56279">
        <ele>631</ele>
        <time>2024-12-07T23:35:46.620Z</time>
      </trkpt>
      <trkpt lat="45.87619" lon="3.56278">
        <ele>631</ele>
        <time>2024-12-07T23:35:47.619Z</time>
      </trkpt>
      <trkpt lat="45.8762" lon="3.56277">
        <ele>631</ele>
        <time>2024-12-07T23:35:48.619Z</time>
      </trkpt>
      <trkpt lat="45.87622" lon="3.56277">
        <ele>631</ele>
        <time>2024-12-07T23:35:49.620Z</time>
      </trkpt>
      <trkpt lat="45.87623" lon="3.56276">
        <ele>631</ele>
        <time>2024-12-07T23:35:50.620Z</time>
      </trkpt>
      <trkpt lat="45.87626" lon="3.56276">
        <ele>631</ele>
        <time>2024-12-07T23:35:51.620Z</time>
      </trkpt>
      <trkpt lat="45.87628" lon="3.56276">
        <ele>632</ele>
        <time>2024-12-07T23:35:52.619Z</time>
      </trkpt>
      <trkpt lat="45.8763" lon="3.56275">
        <ele>632</ele>
        <time>2024-12-07T23:35:53.619Z</time>
      </trkpt>
      <trkpt lat="45.87633" lon="3.56274">
        <ele>632</ele>
        <time>2024-12-07T23:35:54.619Z</time>
      </trkpt>
      <trkpt lat="45.87635" lon="3.56273">
        <ele>632</ele>
        <time>2024-12-07T23:35:55.619Z</time>
      </trkpt>
      <trkpt lat="45.87637" lon="3.56273">
        <ele>631</ele>
        <time>2024-12-07T23:35:56.620Z</time>
      </trkpt>
      <trkpt lat="45.87639" lon="3.56272">
        <ele>631</ele>
        <time>2024-12-07T23:35:57.620Z</time>
      </trkpt>
      <trkpt lat="45.8764" lon="3.56272">
        <ele>631</ele>
        <time>2024-12-07T23:35:58.620Z</time>
      </trkpt>
      <trkpt lat="45.87643" lon="3.56272">
        <ele>631</ele>
        <time>2024-12-07T23:35:59.619Z</time>
      </trkpt>
      <trkpt lat="45.87644" lon="3.56272">
        <ele>631</ele>
        <time>2024-12-07T23:36:00.620Z</time>
      </trkpt>
      <trkpt lat="45.87646" lon="3.56272">
        <ele>631</ele>
        <time>2024-12-07T23:36:01.619Z</time>
      </trkpt>
      <trkpt lat="45.87647" lon="3.56271">
        <ele>631</ele>
        <time>2024-12-07T23:36:02.619Z</time>
      </trkpt>
      <trkpt lat="45.87648" lon="3.5627">
        <ele>631</ele>
        <time>2024-12-07T23:36:03.619Z</time>
      </trkpt>
      <trkpt lat="45.8765" lon="3.5627">
        <ele>631</ele>
        <time>2024-12-07T23:36:04.619Z</time>
      </trkpt>
      <trkpt lat="45.87652" lon="3.56269">
        <ele>630</ele>
        <time>2024-12-07T23:36:05.619Z</time>
      </trkpt>
      <trkpt lat="45.87654" lon="3.56268">
        <ele>630</ele>
        <time>2024-12-07T23:36:06.619Z</time>
      </trkpt>
      <trkpt lat="45.87655" lon="3.56268">
        <ele>630</ele>
        <time>2024-12-07T23:36:07.620Z</time>
      </trkpt>
      <trkpt lat="45.87657" lon="3.56267">
        <ele>630</ele>
        <time>2024-12-07T23:36:08.619Z</time>
      </trkpt>
      <trkpt lat="45.87658" lon="3.56266">
        <ele>630</ele>
        <time>2024-12-07T23:36:09.620Z</time>
      </trkpt>
      <trkpt lat="45.8766" lon="3.56266">
        <ele>630</ele>
        <time>2024-12-07T23:36:10.619Z</time>
      </trkpt>
      <trkpt lat="45.87661" lon="3.56265">
        <ele>630</ele>
        <time>2024-12-07T23:36:11.620Z</time>
      </trkpt>
      <trkpt lat="45.87663" lon="3.56264">
        <ele>630</ele>
        <time>2024-12-07T23:36:12.619Z</time>
      </trkpt>
      <trkpt lat="45.87664" lon="3.56264">
        <ele>630</ele>
        <time>2024-12-07T23:36:13.620Z</time>
      </trkpt>
      <trkpt lat="45.87666" lon="3.56264">
        <ele>630</ele>
        <time>2024-12-07T23:36:14.620Z</time>
      </trkpt>
      <trkpt lat="45.87667" lon="3.56263">
        <ele>630</ele>
        <time>2024-12-07T23:36:15.620Z</time>
      </trkpt>
      <trkpt lat="45.87669" lon="3.56263">
        <ele>630</ele>
        <time>2024-12-07T23:36:16.620Z</time>
      </trkpt>
      <trkpt lat="45.8767" lon="3.56262">
        <ele>630</ele>
        <time>2024-12-07T23:36:17.620Z</time>
      </trkpt>
      <trkpt lat="45.87672" lon="3.56262">
        <ele>630</ele>
        <time>2024-12-07T23:36:18.620Z</time>
      </trkpt>
      <trkpt lat="45.87673" lon="3.56262">
        <ele>630</ele>
        <time>2024-12-07T23:36:19.619Z</time>
      </trkpt>
      <trkpt lat="45.87675" lon="3.56261">
        <ele>630</ele>
        <time>2024-12-07T23:36:20.620Z</time>
      </trkpt>
      <trkpt lat="45.87676" lon="3.5626">
        <ele>631</ele>
        <time>2024-12-07T23:36:21.619Z</time>
      </trkpt>
      <trkpt lat="45.87678" lon="3.56259">
        <ele>631</ele>
        <time>2024-12-07T23:36:22.619Z</time>
      </trkpt>
      <trkpt lat="45.8768" lon="3.56258">
        <ele>631</ele>
        <time>2024-12-07T23:36:23.620Z</time>
      </trkpt>
      <trkpt lat="45.87682" lon="3.56257">
        <ele>631</ele>
        <time>2024-12-07T23:36:24.619Z</time>
      </trkpt>
      <trkpt lat="45.87683" lon="3.56256">
        <ele>631</ele>
        <time>2024-12-07T23:36:25.620Z</time>
      </trkpt>
      <trkpt lat="45.87685" lon="3.56255">
        <ele>631</ele>
        <time>2024-12-07T23:36:26.620Z</time>
      </trkpt>
      <trkpt lat="45.87687" lon="3.56254">
        <ele>631</ele>
        <time>2024-12-07T23:36:27.620Z</time>
      </trkpt>
      <trkpt lat="45.87689" lon="3.56253">
        <ele>631</ele>
        <time>2024-12-07T23:36:28.620Z</time>
      </trkpt>
      <trkpt lat="45.87691" lon="3.56253">
        <ele>631</ele>
        <time>2024-12-07T23:36:29.619Z</time>
      </trkpt>
      <trkpt lat="45.87693" lon="3.56252">
        <ele>631</ele>
        <time>2024-12-07T23:36:30.620Z</time>
      </trkpt>
      <trkpt lat="45.87694" lon="3.56251">
        <ele>630</ele>
        <time>2024-12-07T23:36:31.619Z</time>
      </trkpt>
      <trkpt lat="45.87696" lon="3.5625">
        <ele>630</ele>
        <time>2024-12-07T23:36:32.619Z</time>
      </trkpt>
      <trkpt lat="45.87697" lon="3.56249">
        <ele>629</ele>
        <time>2024-12-07T23:36:33.620Z</time>
      </trkpt>
      <trkpt lat="45.87698" lon="3.56248">
        <ele>629</ele>
        <time>2024-12-07T23:36:34.620Z</time>
      </trkpt>
      <trkpt lat="45.877" lon="3.56246">
        <ele>629</ele>
        <time>2024-12-07T23:36:35.619Z</time>
      </trkpt>
      <trkpt lat="45.87701" lon="3.56245">
        <ele>628</ele>
        <time>2024-12-07T23:36:36.620Z</time>
      </trkpt>
      <trkpt lat="45.87703" lon="3.56243">
        <ele>628</ele>
        <time>2024-12-07T23:36:37.619Z</time>
      </trkpt>
      <trkpt lat="45.87704" lon="3.56241">
        <ele>628</ele>
        <time>2024-12-07T23:36:38.620Z</time>
      </trkpt>
      <trkpt lat="45.87705" lon="3.56239">
        <ele>629</ele>
        <time>2024-12-07T23:36:39.619Z</time>
      </trkpt>
      <trkpt lat="45.87707" lon="3.56237">
        <ele>629</ele>
        <time>2024-12-07T23:36:40.620Z</time>
      </trkpt>
      <trkpt lat="45.87708" lon="3.56236">
        <ele>629</ele>
        <time>2024-12-07T23:36:41.620Z</time>
      </trkpt>
      <trkpt lat="45.87709" lon="3.56234">
        <ele>629</ele>
        <time>2024-12-07T23:36:42.619Z</time>
      </trkpt>
      <trkpt lat="45.87711" lon="3.56232">
        <ele>629</ele>
        <time>2024-12-07T23:36:43.619Z</time>
      </trkpt>
      <trkpt lat="45.87712" lon="3.56231">
        <ele>629</ele>
        <time>2024-12-07T23:36:44.620Z</time>
      </trkpt>
      <trkpt lat="45.87713" lon="3.56229">
        <ele>630</ele>
        <time>2024-12-07T23:36:45.620Z</time>
      </trkpt>
      <trkpt lat="45.87715" lon="3.56227">
        <ele>630</ele>
        <time>2024-12-07T23:36:46.619Z</time>
      </trkpt>
      <trkpt lat="45.87716" lon="3.56225">
        <ele>630</ele>
        <time>2024-12-07T23:36:47.619Z</time>
      </trkpt>
      <trkpt lat="45.87718" lon="3.56223">
        <ele>630</ele>
        <time>2024-12-07T23:36:48.620Z</time>
      </trkpt>
      <trkpt lat="45.87719" lon="3.56221">
        <ele>631</ele>
        <time>2024-12-07T23:36:49.619Z</time>
      </trkpt>
      <trkpt lat="45.8772" lon="3.56218">
        <ele>631</ele>
        <time>2024-12-07T23:36:50.620Z</time>
      </trkpt>
      <trkpt lat="45.87721" lon="3.56217">
        <ele>631</ele>
        <time>2024-12-07T23:36:51.620Z</time>
      </trkpt>
      <trkpt lat="45.87722" lon="3.56215">
        <ele>632</ele>
        <time>2024-12-07T23:36:52.619Z</time>
      </trkpt>
      <trkpt lat="45.87723" lon="3.56213">
        <ele>632</ele>
        <time>2024-12-07T23:36:53.620Z</time>
      </trkpt>
      <trkpt lat="45.87724" lon="3.56211">
        <ele>632</ele>
        <time>2024-12-07T23:36:54.620Z</time>
      </trkpt>
      <trkpt lat="45.87725" lon="3.56208">
        <ele>633</ele>
        <time>2024-12-07T23:36:55.619Z</time>
      </trkpt>
      <trkpt lat="45.87726" lon="3.56206">
        <ele>633</ele>
        <time>2024-12-07T23:36:56.619Z</time>
      </trkpt>
      <trkpt lat="45.87727" lon="3.56203">
        <ele>634</ele>
        <time>2024-12-07T23:36:57.619Z</time>
      </trkpt>
      <trkpt lat="45.87728" lon="3.56201">
        <ele>634</ele>
        <time>2024-12-07T23:36:58.620Z</time>
      </trkpt>
      <trkpt lat="45.87729" lon="3.56199">
        <ele>635</ele>
        <time>2024-12-07T23:36:59.619Z</time>
      </trkpt>
      <trkpt lat="45.87729" lon="3.56196">
        <ele>635</ele>
        <time>2024-12-07T23:37:00.619Z</time>
      </trkpt>
      <trkpt lat="45.8773" lon="3.56194">
        <ele>635</ele>
        <time>2024-12-07T23:37:01.620Z</time>
      </trkpt>
      <trkpt lat="45.8773" lon="3.56192">
        <ele>636</ele>
        <time>2024-12-07T23:37:02.620Z</time>
      </trkpt>
      <trkpt lat="45.87731" lon="3.56189">
        <ele>636</ele>
        <time>2024-12-07T23:37:03.619Z</time>
      </trkpt>
      <trkpt lat="45.87731" lon="3.56187">
        <ele>636</ele>
        <time>2024-12-07T23:37:04.619Z</time>
      </trkpt>
      <trkpt lat="45.87732" lon="3.56185">
        <ele>636</ele>
        <time>2024-12-07T23:37:05.620Z</time>
      </trkpt>
      <trkpt lat="45.87733" lon="3.56183">
        <ele>637</ele>
        <time>2024-12-07T23:37:06.619Z</time>
      </trkpt>
      <trkpt lat="45.87735" lon="3.56181">
        <ele>637</ele>
        <time>2024-12-07T23:37:07.619Z</time>
      </trkpt>
      <trkpt lat="45.87736" lon="3.56179">
        <ele>638</ele>
        <time>2024-12-07T23:37:08.619Z</time>
      </trkpt>
      <trkpt lat="45.87738" lon="3.56179">
        <ele>638</ele>
        <time>2024-12-07T23:37:09.619Z</time>
      </trkpt>
      <trkpt lat="45.87739" lon="3.56179">
        <ele>638</ele>
        <time>2024-12-07T23:37:10.619Z</time>
      </trkpt>
      <trkpt lat="45.87741" lon="3.5618">
        <ele>638</ele>
        <time>2024-12-07T23:37:11.619Z</time>
      </trkpt>
      <trkpt lat="45.87742" lon="3.56182">
        <ele>638</ele>
        <time>2024-12-07T23:37:12.619Z</time>
      </trkpt>
      <trkpt lat="45.87743" lon="3.56184">
        <ele>638</ele>
        <time>2024-12-07T23:37:13.619Z</time>
      </trkpt>
      <trkpt lat="45.87744" lon="3.56185">
        <ele>638</ele>
        <time>2024-12-07T23:37:14.620Z</time>
      </trkpt>
      <trkpt lat="45.87745" lon="3.56187">
        <ele>639</ele>
        <time>2024-12-07T23:37:15.620Z</time>
      </trkpt>
      <trkpt lat="45.87746" lon="3.5619">
        <ele>639</ele>
        <time>2024-12-07T23:37:16.619Z</time>
      </trkpt>
      <trkpt lat="45.87748" lon="3.56192">
        <ele>640</ele>
        <time>2024-12-07T23:37:17.619Z</time>
      </trkpt>
      <trkpt lat="45.87749" lon="3.56194">
        <ele>640</ele>
        <time>2024-12-07T23:37:18.620Z</time>
      </trkpt>
      <trkpt lat="45.8775" lon="3.56196">
        <ele>640</ele>
        <time>2024-12-07T23:37:19.619Z</time>
      </trkpt>
      <trkpt lat="45.87751" lon="3.56197">
        <ele>641</ele>
        <time>2024-12-07T23:37:20.619Z</time>
      </trkpt>
      <trkpt lat="45.87752" lon="3.56199">
        <ele>641</ele>
        <time>2024-12-07T23:37:21.620Z</time>
      </trkpt>
      <trkpt lat="45.87753" lon="3.56201">
        <ele>641</ele>
        <time>2024-12-07T23:37:22.620Z</time>
      </trkpt>
      <trkpt lat="45.87754" lon="3.56203">
        <ele>641</ele>
        <time>2024-12-07T23:37:23.620Z</time>
      </trkpt>
      <trkpt lat="45.87754" lon="3.56205">
        <ele>641</ele>
        <time>2024-12-07T23:37:24.619Z</time>
      </trkpt>
      <trkpt lat="45.87755" lon="3.56207">
        <ele>641</ele>
        <time>2024-12-07T23:37:25.619Z</time>
      </trkpt>
      <trkpt lat="45.87756" lon="3.56209">
        <ele>641</ele>
        <time>2024-12-07T23:37:26.619Z</time>
      </trkpt>
      <trkpt lat="45.87757" lon="3.56211">
        <ele>641</ele>
        <time>2024-12-07T23:37:27.619Z</time>
      </trkpt>
      <trkpt lat="45.87759" lon="3.56213">
        <ele>641</ele>
        <time>2024-12-07T23:37:28.619Z</time>
      </trkpt>
      <trkpt lat="45.8776" lon="3.56215">
        <ele>642</ele>
        <time>2024-12-07T23:37:29.619Z</time>
      </trkpt>
      <trkpt lat="45.87761" lon="3.56216">
        <ele>642</ele>
        <time>2024-12-07T23:37:30.619Z</time>
      </trkpt>
      <trkpt lat="45.87762" lon="3.56218">
        <ele>642</ele>
        <time>2024-12-07T23:37:31.620Z</time>
      </trkpt>
      <trkpt lat="45.87763" lon="3.56219">
        <ele>641</ele>
        <time>2024-12-07T23:37:32.619Z</time>
      </trkpt>
      <trkpt lat="45.87764" lon="3.56221">
        <ele>641</ele>
        <time>2024-12-07T23:37:33.620Z</time>
      </trkpt>
      <trkpt lat="45.87765" lon="3.56222">
        <ele>641</ele>
        <time>2024-12-07T23:37:34.620Z</time>
      </trkpt>
      <trkpt lat="45.87766" lon="3.56224">
        <ele>641</ele>
        <time>2024-12-07T23:37:35.620Z</time>
      </trkpt>
      <trkpt lat="45.87767" lon="3.56226">
        <ele>641</ele>
        <time>2024-12-07T23:37:36.620Z</time>
      </trkpt>
      <trkpt lat="45.87768" lon="3.56228">
        <ele>641</ele>
        <time>2024-12-07T23:37:37.620Z</time>
      </trkpt>
      <trkpt lat="45.87769" lon="3.5623">
        <ele>641</ele>
        <time>2024-12-07T23:37:38.620Z</time>
      </trkpt>
      <trkpt lat="45.8777" lon="3.56232">
        <ele>641</ele>
        <time>2024-12-07T23:37:39.619Z</time>
      </trkpt>
      <trkpt lat="45.87771" lon="3.56234">
        <ele>642</ele>
        <time>2024-12-07T23:37:40.620Z</time>
      </trkpt>
      <trkpt lat="45.87772" lon="3.56236">
        <ele>642</ele>
        <time>2024-12-07T23:37:41.619Z</time>
      </trkpt>
      <trkpt lat="45.87773" lon="3.56237">
        <ele>642</ele>
        <time>2024-12-07T23:37:42.619Z</time>
      </trkpt>
      <trkpt lat="45.87774" lon="3.56239">
        <ele>643</ele>
        <time>2024-12-07T23:37:43.620Z</time>
      </trkpt>
      <trkpt lat="45.87775" lon="3.5624">
        <ele>643</ele>
        <time>2024-12-07T23:37:44.619Z</time>
      </trkpt>
      <trkpt lat="45.87776" lon="3.56241">
        <ele>643</ele>
        <time>2024-12-07T23:37:45.619Z</time>
      </trkpt>
      <trkpt lat="45.87777" lon="3.56242">
        <ele>643</ele>
        <time>2024-12-07T23:37:46.619Z</time>
      </trkpt>
      <trkpt lat="45.87779" lon="3.56244">
        <ele>643</ele>
        <time>2024-12-07T23:37:47.619Z</time>
      </trkpt>
      <trkpt lat="45.8778" lon="3.56245">
        <ele>643</ele>
        <time>2024-12-07T23:37:48.619Z</time>
      </trkpt>
      <trkpt lat="45.87781" lon="3.56247">
        <ele>643</ele>
        <time>2024-12-07T23:37:49.619Z</time>
      </trkpt>
      <trkpt lat="45.87783" lon="3.56249">
        <ele>643</ele>
        <time>2024-12-07T23:37:50.620Z</time>
      </trkpt>
      <trkpt lat="45.87784" lon="3.5625">
        <ele>643</ele>
        <time>2024-12-07T23:37:51.619Z</time>
      </trkpt>
      <trkpt lat="45.87785" lon="3.56252">
        <ele>643</ele>
        <time>2024-12-07T23:37:52.619Z</time>
      </trkpt>
      <trkpt lat="45.87786" lon="3.56253">
        <ele>642</ele>
        <time>2024-12-07T23:37:53.620Z</time>
      </trkpt>
      <trkpt lat="45.87787" lon="3.56255">
        <ele>642</ele>
        <time>2024-12-07T23:37:54.620Z</time>
      </trkpt>
      <trkpt lat="45.87788" lon="3.56258">
        <ele>641</ele>
        <time>2024-12-07T23:37:55.620Z</time>
      </trkpt>
      <trkpt lat="45.8779" lon="3.5626">
        <ele>641</ele>
        <time>2024-12-07T23:37:56.620Z</time>
      </trkpt>
      <trkpt lat="45.8779" lon="3.56262">
        <ele>641</ele>
        <time>2024-12-07T23:37:57.619Z</time>
      </trkpt>
      <trkpt lat="45.87791" lon="3.56264">
        <ele>641</ele>
        <time>2024-12-07T23:37:58.620Z</time>
      </trkpt>
      <trkpt lat="45.87793" lon="3.56265">
        <ele>641</ele>
        <time>2024-12-07T23:37:59.619Z</time>
      </trkpt>
      <trkpt lat="45.87794" lon="3.56267">
        <ele>641</ele>
        <time>2024-12-07T23:38:00.620Z</time>
      </trkpt>
      <trkpt lat="45.87795" lon="3.56269">
        <ele>642</ele>
        <time>2024-12-07T23:38:01.620Z</time>
      </trkpt>
      <trkpt lat="45.87796" lon="3.5627">
        <ele>642</ele>
        <time>2024-12-07T23:38:02.619Z</time>
      </trkpt>
      <trkpt lat="45.87797" lon="3.56272">
        <ele>642</ele>
        <time>2024-12-07T23:38:03.620Z</time>
      </trkpt>
      <trkpt lat="45.87798" lon="3.56274">
        <ele>642</ele>
        <time>2024-12-07T23:38:04.619Z</time>
      </trkpt>
      <trkpt lat="45.87799" lon="3.56276">
        <ele>642</ele>
        <time>2024-12-07T23:38:05.619Z</time>
      </trkpt>
      <trkpt lat="45.87801" lon="3.56278">
        <ele>642</ele>
        <time>2024-12-07T23:38:06.619Z</time>
      </trkpt>
      <trkpt lat="45.87802" lon="3.56281">
        <ele>643</ele>
        <time>2024-12-07T23:38:07.620Z</time>
      </trkpt>
      <trkpt lat="45.87803" lon="3.56283">
        <ele>643</ele>
        <time>2024-12-07T23:38:08.620Z</time>
      </trkpt>
      <trkpt lat="45.87804" lon="3.56285">
        <ele>643</ele>
        <time>2024-12-07T23:38:09.620Z</time>
      </trkpt>
      <trkpt lat="45.87805" lon="3.56287">
        <ele>644</ele>
        <time>2024-12-07T23:38:10.619Z</time>
      </trkpt>
      <trkpt lat="45.87805" lon="3.56289">
        <ele>644</ele>
        <time>2024-12-07T23:38:11.619Z</time>
      </trkpt>
      <trkpt lat="45.87806" lon="3.56291">
        <ele>645</ele>
        <time>2024-12-07T23:38:12.619Z</time>
      </trkpt>
      <trkpt lat="45.87807" lon="3.56293">
        <ele>645</ele>
        <time>2024-12-07T23:38:13.619Z</time>
      </trkpt>
      <trkpt lat="45.87808" lon="3.56295">
        <ele>645</ele>
        <time>2024-12-07T23:38:14.620Z</time>
      </trkpt>
      <trkpt lat="45.8781" lon="3.56297">
        <ele>645</ele>
        <time>2024-12-07T23:38:15.620Z</time>
      </trkpt>
      <trkpt lat="45.87811" lon="3.56299">
        <ele>645</ele>
        <time>2024-12-07T23:38:16.620Z</time>
      </trkpt>
      <trkpt lat="45.87811" lon="3.56301">
        <ele>645</ele>
        <time>2024-12-07T23:38:17.619Z</time>
      </trkpt>
      <trkpt lat="45.87812" lon="3.56304">
        <ele>645</ele>
        <time>2024-12-07T23:38:18.620Z</time>
      </trkpt>
      <trkpt lat="45.87813" lon="3.56306">
        <ele>645</ele>
        <time>2024-12-07T23:38:19.620Z</time>
      </trkpt>
      <trkpt lat="45.87814" lon="3.56308">
        <ele>645</ele>
        <time>2024-12-07T23:38:20.619Z</time>
      </trkpt>
      <trkpt lat="45.87815" lon="3.5631">
        <ele>645</ele>
        <time>2024-12-07T23:38:21.620Z</time>
      </trkpt>
      <trkpt lat="45.87816" lon="3.56312">
        <ele>644</ele>
        <time>2024-12-07T23:38:22.619Z</time>
      </trkpt>
      <trkpt lat="45.87817" lon="3.56314">
        <ele>644</ele>
        <time>2024-12-07T23:38:23.620Z</time>
      </trkpt>
      <trkpt lat="45.87818" lon="3.56316">
        <ele>644</ele>
        <time>2024-12-07T23:38:24.619Z</time>
      </trkpt>
      <trkpt lat="45.87819" lon="3.56318">
        <ele>643</ele>
        <time>2024-12-07T23:38:25.620Z</time>
      </trkpt>
      <trkpt lat="45.8782" lon="3.56319">
        <ele>644</ele>
        <time>2024-12-07T23:38:26.620Z</time>
      </trkpt>
      <trkpt lat="45.87821" lon="3.56321">
        <ele>643</ele>
        <time>2024-12-07T23:38:27.619Z</time>
      </trkpt>
      <trkpt lat="45.87822" lon="3.56323">
        <ele>643</ele>
        <time>2024-12-07T23:38:28.619Z</time>
      </trkpt>
      <trkpt lat="45.87823" lon="3.56325">
        <ele>643</ele>
        <time>2024-12-07T23:38:29.619Z</time>
      </trkpt>
      <trkpt lat="45.87824" lon="3.56327">
        <ele>643</ele>
        <time>2024-12-07T23:38:30.619Z</time>
      </trkpt>
      <trkpt lat="45.87825" lon="3.5633">
        <ele>643</ele>
        <time>2024-12-07T23:38:31.619Z</time>
      </trkpt>
      <trkpt lat="45.87826" lon="3.56332">
        <ele>644</ele>
        <time>2024-12-07T23:38:32.620Z</time>
      </trkpt>
      <trkpt lat="45.87827" lon="3.56334">
        <ele>644</ele>
        <time>2024-12-07T23:38:33.619Z</time>
      </trkpt>
      <trkpt lat="45.87828" lon="3.56336">
        <ele>644</ele>
        <time>2024-12-07T23:38:34.620Z</time>
      </trkpt>
      <trkpt lat="45.87829" lon="3.56338">
        <ele>645</ele>
        <time>2024-12-07T23:38:35.619Z</time>
      </trkpt>
      <trkpt lat="45.8783" lon="3.5634">
        <ele>645</ele>
        <time>2024-12-07T23:38:36.620Z</time>
      </trkpt>
      <trkpt lat="45.87831" lon="3.56342">
        <ele>645</ele>
        <time>2024-12-07T23:38:37.619Z</time>
      </trkpt>
      <trkpt lat="45.87832" lon="3.56344">
        <ele>645</ele>
        <time>2024-12-07T23:38:38.620Z</time>
      </trkpt>
      <trkpt lat="45.87833" lon="3.56346">
        <ele>645</ele>
        <time>2024-12-07T23:38:39.619Z</time>
      </trkpt>
      <trkpt lat="45.87834" lon="3.56348">
        <ele>645</ele>
        <time>2024-12-07T23:38:40.619Z</time>
      </trkpt>
      <trkpt lat="45.87835" lon="3.56349">
        <ele>645</ele>
        <time>2024-12-07T23:38:41.619Z</time>
      </trkpt>
      <trkpt lat="45.87837" lon="3.56351">
        <ele>645</ele>
        <time>2024-12-07T23:38:42.620Z</time>
      </trkpt>
      <trkpt lat="45.87838" lon="3.56353">
        <ele>645</ele>
        <time>2024-12-07T23:38:43.619Z</time>
      </trkpt>
      <trkpt lat="45.87839" lon="3.56354">
        <ele>646</ele>
        <time>2024-12-07T23:38:44.619Z</time>
      </trkpt>
      <trkpt lat="45.8784" lon="3.56356">
        <ele>646</ele>
        <time>2024-12-07T23:38:45.620Z</time>
      </trkpt>
      <trkpt lat="45.8784" lon="3.56358">
        <ele>647</ele>
        <time>2024-12-07T23:38:46.619Z</time>
      </trkpt>
      <trkpt lat="45.87841" lon="3.56359">
        <ele>647</ele>
        <time>2024-12-07T23:38:47.619Z</time>
      </trkpt>
      <trkpt lat="45.87842" lon="3.56361">
        <ele>647</ele>
        <time>2024-12-07T23:38:48.620Z</time>
      </trkpt>
      <trkpt lat="45.87843" lon="3.56363">
        <ele>647</ele>
        <time>2024-12-07T23:38:49.620Z</time>
      </trkpt>
      <trkpt lat="45.87844" lon="3.56364">
        <ele>648</ele>
        <time>2024-12-07T23:38:50.619Z</time>
      </trkpt>
      <trkpt lat="45.87845" lon="3.56366">
        <ele>648</ele>
        <time>2024-12-07T23:38:51.620Z</time>
      </trkpt>
      <trkpt lat="45.87846" lon="3.56368">
        <ele>649</ele>
        <time>2024-12-07T23:38:52.619Z</time>
      </trkpt>
      <trkpt lat="45.87847" lon="3.5637">
        <ele>650</ele>
        <time>2024-12-07T23:38:53.619Z</time>
      </trkpt>
      <trkpt lat="45.87848" lon="3.56372">
        <ele>650</ele>
        <time>2024-12-07T23:38:54.619Z</time>
      </trkpt>
      <trkpt lat="45.87849" lon="3.56374">
        <ele>651</ele>
        <time>2024-12-07T23:38:55.620Z</time>
      </trkpt>
      <trkpt lat="45.8785" lon="3.56376">
        <ele>651</ele>
        <time>2024-12-07T23:38:56.619Z</time>
      </trkpt>
      <trkpt lat="45.87851" lon="3.56378">
        <ele>651</ele>
        <time>2024-12-07T23:38:57.619Z</time>
      </trkpt>
      <trkpt lat="45.87852" lon="3.5638">
        <ele>652</ele>
        <time>2024-12-07T23:38:58.619Z</time>
      </trkpt>
      <trkpt lat="45.87853" lon="3.56382">
        <ele>652</ele>
        <time>2024-12-07T23:38:59.620Z</time>
      </trkpt>
      <trkpt lat="45.87854" lon="3.56383">
        <ele>652</ele>
        <time>2024-12-07T23:39:00.619Z</time>
      </trkpt>
      <trkpt lat="45.87855" lon="3.56385">
        <ele>652</ele>
        <time>2024-12-07T23:39:01.619Z</time>
      </trkpt>
      <trkpt lat="45.87856" lon="3.56387">
        <ele>653</ele>
        <time>2024-12-07T23:39:02.620Z</time>
      </trkpt>
      <trkpt lat="45.87857" lon="3.56389">
        <ele>653</ele>
        <time>2024-12-07T23:39:03.620Z</time>
      </trkpt>
      <trkpt lat="45.87858" lon="3.56391">
        <ele>653</ele>
        <time>2024-12-07T23:39:04.620Z</time>
      </trkpt>
      <trkpt lat="45.87859" lon="3.56393">
        <ele>653</ele>
        <time>2024-12-07T23:39:05.619Z</time>
      </trkpt>
      <trkpt lat="45.8786" lon="3.56395">
        <ele>653</ele>
        <time>2024-12-07T23:39:06.620Z</time>
      </trkpt>
      <trkpt lat="45.87861" lon="3.56398">
        <ele>653</ele>
        <time>2024-12-07T23:39:07.620Z</time>
      </trkpt>
      <trkpt lat="45.87862" lon="3.564">
        <ele>654</ele>
        <time>2024-12-07T23:39:08.619Z</time>
      </trkpt>
      <trkpt lat="45.87864" lon="3.56402">
        <ele>654</ele>
        <time>2024-12-07T23:39:09.620Z</time>
      </trkpt>
      <trkpt lat="45.87865" lon="3.56404">
        <ele>654</ele>
        <time>2024-12-07T23:39:10.620Z</time>
      </trkpt>
      <trkpt lat="45.87867" lon="3.56407">
        <ele>654</ele>
        <time>2024-12-07T23:39:11.619Z</time>
      </trkpt>
      <trkpt lat="45.87868" lon="3.56409">
        <ele>653</ele>
        <time>2024-12-07T23:39:12.620Z</time>
      </trkpt>
      <trkpt lat="45.87869" lon="3.56411">
        <ele>652</ele>
        <time>2024-12-07T23:39:13.619Z</time>
      </trkpt>
      <trkpt lat="45.8787" lon="3.56413">
        <ele>652</ele>
        <time>2024-12-07T23:39:14.619Z</time>
      </trkpt>
      <trkpt lat="45.87871" lon="3.56415">
        <ele>652</ele>
        <time>2024-12-07T23:39:15.620Z</time>
      </trkpt>
      <trkpt lat="45.87872" lon="3.56418">
        <ele>652</ele>
        <time>2024-12-07T23:39:16.620Z</time>
      </trkpt>
      <trkpt lat="45.87873" lon="3.5642">
        <ele>652</ele>
        <time>2024-12-07T23:39:17.619Z</time>
      </trkpt>
      <trkpt lat="45.87874" lon="3.56422">
        <ele>652</ele>
        <time>2024-12-07T23:39:18.619Z</time>
      </trkpt>
      <trkpt lat="45.87875" lon="3.56424">
        <ele>652</ele>
        <time>2024-12-07T23:39:19.620Z</time>
      </trkpt>
      <trkpt lat="45.87876" lon="3.56426">
        <ele>652</ele>
        <time>2024-12-07T23:39:20.620Z</time>
      </trkpt>
      <trkpt lat="45.87876" lon="3.56428">
        <ele>652</ele>
        <time>2024-12-07T23:39:21.619Z</time>
      </trkpt>
      <trkpt lat="45.87877" lon="3.5643">
        <ele>652</ele>
        <time>2024-12-07T23:39:22.619Z</time>
      </trkpt>
      <trkpt lat="45.87878" lon="3.56432">
        <ele>652</ele>
        <time>2024-12-07T23:39:23.620Z</time>
      </trkpt>
      <trkpt lat="45.87879" lon="3.56435">
        <ele>652</ele>
        <time>2024-12-07T23:39:24.619Z</time>
      </trkpt>
      <trkpt lat="45.87881" lon="3.56437">
        <ele>652</ele>
        <time>2024-12-07T23:39:25.619Z</time>
      </trkpt>
      <trkpt lat="45.87882" lon="3.5644">
        <ele>652</ele>
        <time>2024-12-07T23:39:26.619Z</time>
      </trkpt>
      <trkpt lat="45.87883" lon="3.56442">
        <ele>653</ele>
        <time>2024-12-07T23:39:27.619Z</time>
      </trkpt>
      <trkpt lat="45.87884" lon="3.56444">
        <ele>653</ele>
        <time>2024-12-07T23:39:28.619Z</time>
      </trkpt>
      <trkpt lat="45.87886" lon="3.56446">
        <ele>653</ele>
        <time>2024-12-07T23:39:29.619Z</time>
      </trkpt>
      <trkpt lat="45.87887" lon="3.56448">
        <ele>654</ele>
        <time>2024-12-07T23:39:30.620Z</time>
      </trkpt>
      <trkpt lat="45.87888" lon="3.5645">
        <ele>654</ele>
        <time>2024-12-07T23:39:31.619Z</time>
      </trkpt>
      <trkpt lat="45.8789" lon="3.56452">
        <ele>653</ele>
        <time>2024-12-07T23:39:32.619Z</time>
      </trkpt>
      <trkpt lat="45.87891" lon="3.56455">
        <ele>653</ele>
        <time>2024-12-07T23:39:33.620Z</time>
      </trkpt>
      <trkpt lat="45.87892" lon="3.56457">
        <ele>653</ele>
        <time>2024-12-07T23:39:34.620Z</time>
      </trkpt>
      <trkpt lat="45.87893" lon="3.5646">
        <ele>653</ele>
        <time>2024-12-07T23:39:35.620Z</time>
      </trkpt>
      <trkpt lat="45.87894" lon="3.56462">
        <ele>653</ele>
        <time>2024-12-07T23:39:36.619Z</time>
      </trkpt>
      <trkpt lat="45.87895" lon="3.56465">
        <ele>653</ele>
        <time>2024-12-07T23:39:37.620Z</time>
      </trkpt>
      <trkpt lat="45.87896" lon="3.56467">
        <ele>653</ele>
        <time>2024-12-07T23:39:38.620Z</time>
      </trkpt>
      <trkpt lat="45.87897" lon="3.56469">
        <ele>653</ele>
        <time>2024-12-07T23:39:39.620Z</time>
      </trkpt>
      <trkpt lat="45.87899" lon="3.56471">
        <ele>653</ele>
        <time>2024-12-07T23:39:40.619Z</time>
      </trkpt>
      <trkpt lat="45.879" lon="3.56473">
        <ele>653</ele>
        <time>2024-12-07T23:39:41.619Z</time>
      </trkpt>
      <trkpt lat="45.87901" lon="3.56476">
        <ele>653</ele>
        <time>2024-12-07T23:39:42.619Z</time>
      </trkpt>
      <trkpt lat="45.87902" lon="3.56478">
        <ele>653</ele>
        <time>2024-12-07T23:39:43.620Z</time>
      </trkpt>
      <trkpt lat="45.87903" lon="3.56481">
        <ele>653</ele>
        <time>2024-12-07T23:39:44.619Z</time>
      </trkpt>
      <trkpt lat="45.87904" lon="3.56483">
        <ele>653</ele>
        <time>2024-12-07T23:39:45.620Z</time>
      </trkpt>
      <trkpt lat="45.87905" lon="3.56485">
        <ele>653</ele>
        <time>2024-12-07T23:39:46.619Z</time>
      </trkpt>
      <trkpt lat="45.87906" lon="3.56487">
        <ele>652</ele>
        <time>2024-12-07T23:39:47.620Z</time>
      </trkpt>
      <trkpt lat="45.87907" lon="3.56489">
        <ele>652</ele>
        <time>2024-12-07T23:39:48.619Z</time>
      </trkpt>
      <trkpt lat="45.87908" lon="3.56492">
        <ele>651</ele>
        <time>2024-12-07T23:39:49.619Z</time>
      </trkpt>
      <trkpt lat="45.87909" lon="3.56494">
        <ele>651</ele>
        <time>2024-12-07T23:39:50.620Z</time>
      </trkpt>
      <trkpt lat="45.8791" lon="3.56496">
        <ele>651</ele>
        <time>2024-12-07T23:39:51.619Z</time>
      </trkpt>
      <trkpt lat="45.87911" lon="3.56499">
        <ele>651</ele>
        <time>2024-12-07T23:39:52.620Z</time>
      </trkpt>
      <trkpt lat="45.87913" lon="3.56501">
        <ele>651</ele>
        <time>2024-12-07T23:39:53.620Z</time>
      </trkpt>
      <trkpt lat="45.87914" lon="3.56504">
        <ele>651</ele>
        <time>2024-12-07T23:39:54.620Z</time>
      </trkpt>
      <trkpt lat="45.87915" lon="3.56506">
        <ele>651</ele>
        <time>2024-12-07T23:39:55.619Z</time>
      </trkpt>
      <trkpt lat="45.87916" lon="3.56508">
        <ele>651</ele>
        <time>2024-12-07T23:39:56.620Z</time>
      </trkpt>
      <trkpt lat="45.87917" lon="3.5651">
        <ele>651</ele>
        <time>2024-12-07T23:39:57.619Z</time>
      </trkpt>
      <trkpt lat="45.87919" lon="3.56512">
        <ele>651</ele>
        <time>2024-12-07T23:39:58.619Z</time>
      </trkpt>
      <trkpt lat="45.8792" lon="3.56515">
        <ele>651</ele>
        <time>2024-12-07T23:39:59.620Z</time>
      </trkpt>
      <trkpt lat="45.87921" lon="3.56517">
        <ele>651</ele>
        <time>2024-12-07T23:40:00.619Z</time>
      </trkpt>
      <trkpt lat="45.87922" lon="3.56519">
        <ele>651</ele>
        <time>2024-12-07T23:40:01.619Z</time>
      </trkpt>
      <trkpt lat="45.87923" lon="3.56522">
        <ele>651</ele>
        <time>2024-12-07T23:40:02.620Z</time>
      </trkpt>
      <trkpt lat="45.87925" lon="3.56524">
        <ele>651</ele>
        <time>2024-12-07T23:40:03.619Z</time>
      </trkpt>
      <trkpt lat="45.87926" lon="3.56526">
        <ele>651</ele>
        <time>2024-12-07T23:40:04.619Z</time>
      </trkpt>
      <trkpt lat="45.87927" lon="3.56528">
        <ele>651</ele>
        <time>2024-12-07T23:40:05.620Z</time>
      </trkpt>
      <trkpt lat="45.87928" lon="3.5653">
        <ele>650</ele>
        <time>2024-12-07T23:40:06.620Z</time>
      </trkpt>
      <trkpt lat="45.8793" lon="3.56532">
        <ele>650</ele>
        <time>2024-12-07T23:40:07.620Z</time>
      </trkpt>
      <trkpt lat="45.87931" lon="3.56535">
        <ele>650</ele>
        <time>2024-12-07T23:40:08.620Z</time>
      </trkpt>
      <trkpt lat="45.87932" lon="3.56537">
        <ele>651</ele>
        <time>2024-12-07T23:40:09.619Z</time>
      </trkpt>
      <trkpt lat="45.87934" lon="3.56539">
        <ele>651</ele>
        <time>2024-12-07T23:40:10.620Z</time>
      </trkpt>
      <trkpt lat="45.87935" lon="3.56541">
        <ele>651</ele>
        <time>2024-12-07T23:40:11.619Z</time>
      </trkpt>
      <trkpt lat="45.87937" lon="3.56543">
        <ele>650</ele>
        <time>2024-12-07T23:40:12.619Z</time>
      </trkpt>
      <trkpt lat="45.87938" lon="3.56545">
        <ele>650</ele>
        <time>2024-12-07T23:40:13.619Z</time>
      </trkpt>
      <trkpt lat="45.87939" lon="3.56547">
        <ele>650</ele>
        <time>2024-12-07T23:40:14.620Z</time>
      </trkpt>
      <trkpt lat="45.8794" lon="3.56549">
        <ele>650</ele>
        <time>2024-12-07T23:40:15.619Z</time>
      </trkpt>
      <trkpt lat="45.87941" lon="3.56551">
        <ele>649</ele>
        <time>2024-12-07T23:40:16.619Z</time>
      </trkpt>
      <trkpt lat="45.87942" lon="3.56554">
        <ele>649</ele>
        <time>2024-12-07T23:40:17.619Z</time>
      </trkpt>
      <trkpt lat="45.87943" lon="3.56556">
        <ele>649</ele>
        <time>2024-12-07T23:40:18.620Z</time>
      </trkpt>
      <trkpt lat="45.87944" lon="3.56559">
        <ele>649</ele>
        <time>2024-12-07T23:40:19.620Z</time>
      </trkpt>
      <trkpt lat="45.87945" lon="3.56561">
        <ele>649</ele>
        <time>2024-12-07T23:40:20.619Z</time>
      </trkpt>
      <trkpt lat="45.87947" lon="3.56563">
        <ele>649</ele>
        <time>2024-12-07T23:40:21.620Z</time>
      </trkpt>
      <trkpt lat="45.87948" lon="3.56565">
        <ele>650</ele>
        <time>2024-12-07T23:40:22.620Z</time>
      </trkpt>
      <trkpt lat="45.87949" lon="3.56567">
        <ele>650</ele>
        <time>2024-12-07T23:40:23.620Z</time>
      </trkpt>
      <trkpt lat="45.8795" lon="3.5657">
        <ele>650</ele>
        <time>2024-12-07T23:40:24.619Z</time>
      </trkpt>
      <trkpt lat="45.87951" lon="3.56572">
        <ele>649</ele>
        <time>2024-12-07T23:40:25.619Z</time>
      </trkpt>
      <trkpt lat="45.87953" lon="3.56574">
        <ele>649</ele>
        <time>2024-12-07T23:40:26.619Z</time>
      </trkpt>
      <trkpt lat="45.87954" lon="3.56577">
        <ele>650</ele>
        <time>2024-12-07T23:40:27.619Z</time>
      </trkpt>
      <trkpt lat="45.87955" lon="3.56579">
        <ele>650</ele>
        <time>2024-12-07T23:40:28.619Z</time>
      </trkpt>
      <trkpt lat="45.87956" lon="3.56581">
        <ele>650</ele>
        <time>2024-12-07T23:40:29.620Z</time>
      </trkpt>
      <trkpt lat="45.87958" lon="3.56583">
        <ele>650</ele>
        <time>2024-12-07T23:40:30.619Z</time>
      </trkpt>
      <trkpt lat="45.87959" lon="3.56586">
        <ele>651</ele>
        <time>2024-12-07T23:40:31.619Z</time>
      </trkpt>
      <trkpt lat="45.8796" lon="3.56588">
        <ele>651</ele>
        <time>2024-12-07T23:40:32.619Z</time>
      </trkpt>
      <trkpt lat="45.87961" lon="3.5659">
        <ele>651</ele>
        <time>2024-12-07T23:40:33.619Z</time>
      </trkpt>
      <trkpt lat="45.87962" lon="3.56592">
        <ele>651</ele>
        <time>2024-12-07T23:40:34.619Z</time>
      </trkpt>
      <trkpt lat="45.87963" lon="3.56595">
        <ele>651</ele>
        <time>2024-12-07T23:40:35.619Z</time>
      </trkpt>
      <trkpt lat="45.87964" lon="3.56597">
        <ele>651</ele>
        <time>2024-12-07T23:40:36.620Z</time>
      </trkpt>
      <trkpt lat="45.87965" lon="3.56599">
        <ele>651</ele>
        <time>2024-12-07T23:40:37.620Z</time>
      </trkpt>
      <trkpt lat="45.87966" lon="3.56602">
        <ele>651</ele>
        <time>2024-12-07T23:40:38.619Z</time>
      </trkpt>
      <trkpt lat="45.87967" lon="3.56604">
        <ele>651</ele>
        <time>2024-12-07T23:40:39.619Z</time>
      </trkpt>
      <trkpt lat="45.87968" lon="3.56606">
        <ele>651</ele>
        <time>2024-12-07T23:40:40.619Z</time>
      </trkpt>
      <trkpt lat="45.87969" lon="3.56608">
        <ele>651</ele>
        <time>2024-12-07T23:40:41.619Z</time>
      </trkpt>
      <trkpt lat="45.87971" lon="3.5661">
        <ele>651</ele>
        <time>2024-12-07T23:40:42.619Z</time>
      </trkpt>
      <trkpt lat="45.87972" lon="3.56612">
        <ele>651</ele>
        <time>2024-12-07T23:40:43.620Z</time>
      </trkpt>
      <trkpt lat="45.87973" lon="3.56614">
        <ele>651</ele>
        <time>2024-12-07T23:40:44.619Z</time>
      </trkpt>
      <trkpt lat="45.87974" lon="3.56616">
        <ele>651</ele>
        <time>2024-12-07T23:40:45.620Z</time>
      </trkpt>
      <trkpt lat="45.87976" lon="3.56618">
        <ele>650</ele>
        <time>2024-12-07T23:40:46.619Z</time>
      </trkpt>
      <trkpt lat="45.87977" lon="3.5662">
        <ele>651</ele>
        <time>2024-12-07T23:40:47.619Z</time>
      </trkpt>
      <trkpt lat="45.87978" lon="3.56622">
        <ele>651</ele>
        <time>2024-12-07T23:40:48.620Z</time>
      </trkpt>
      <trkpt lat="45.87979" lon="3.56624">
        <ele>651</ele>
        <time>2024-12-07T23:40:49.620Z</time>
      </trkpt>
      <trkpt lat="45.8798" lon="3.56627">
        <ele>651</ele>
        <time>2024-12-07T23:40:50.620Z</time>
      </trkpt>
      <trkpt lat="45.87981" lon="3.56629">
        <ele>650</ele>
        <time>2024-12-07T23:40:51.620Z</time>
      </trkpt>
      <trkpt lat="45.87982" lon="3.56631">
        <ele>650</ele>
        <time>2024-12-07T23:40:52.619Z</time>
      </trkpt>
      <trkpt lat="45.87983" lon="3.56634">
        <ele>650</ele>
        <time>2024-12-07T23:40:53.620Z</time>
      </trkpt>
      <trkpt lat="45.87985" lon="3.56636">
        <ele>650</ele>
        <time>2024-12-07T23:40:54.620Z</time>
      </trkpt>
      <trkpt lat="45.87986" lon="3.56638">
        <ele>650</ele>
        <time>2024-12-07T23:40:55.620Z</time>
      </trkpt>
      <trkpt lat="45.87987" lon="3.5664">
        <ele>650</ele>
        <time>2024-12-07T23:40:56.620Z</time>
      </trkpt>
      <trkpt lat="45.87988" lon="3.56642">
        <ele>650</ele>
        <time>2024-12-07T23:40:57.620Z</time>
      </trkpt>
      <trkpt lat="45.87989" lon="3.56644">
        <ele>649</ele>
        <time>2024-12-07T23:40:58.619Z</time>
      </trkpt>
      <trkpt lat="45.8799" lon="3.56646">
        <ele>649</ele>
        <time>2024-12-07T23:40:59.619Z</time>
      </trkpt>
      <trkpt lat="45.87992" lon="3.56648">
        <ele>649</ele>
        <time>2024-12-07T23:41:00.620Z</time>
      </trkpt>
      <trkpt lat="45.87993" lon="3.5665">
        <ele>649</ele>
        <time>2024-12-07T23:41:01.619Z</time>
      </trkpt>
      <trkpt lat="45.87995" lon="3.56652">
        <ele>649</ele>
        <time>2024-12-07T23:41:02.620Z</time>
      </trkpt>
      <trkpt lat="45.87996" lon="3.56655">
        <ele>648</ele>
        <time>2024-12-07T23:41:03.619Z</time>
      </trkpt>
      <trkpt lat="45.87997" lon="3.56657">
        <ele>648</ele>
        <time>2024-12-07T23:41:04.619Z</time>
      </trkpt>
      <trkpt lat="45.87997" lon="3.56659">
        <ele>648</ele>
        <time>2024-12-07T23:41:05.619Z</time>
      </trkpt>
      <trkpt lat="45.87998" lon="3.56662">
        <ele>648</ele>
        <time>2024-12-07T23:41:06.619Z</time>
      </trkpt>
      <trkpt lat="45.88" lon="3.56664">
        <ele>648</ele>
        <time>2024-12-07T23:41:07.620Z</time>
      </trkpt>
      <trkpt lat="45.88001" lon="3.56667">
        <ele>648</ele>
        <time>2024-12-07T23:41:08.619Z</time>
      </trkpt>
      <trkpt lat="45.88002" lon="3.56669">
        <ele>647</ele>
        <time>2024-12-07T23:41:09.620Z</time>
      </trkpt>
      <trkpt lat="45.88003" lon="3.56671">
        <ele>647</ele>
        <time>2024-12-07T23:41:10.620Z</time>
      </trkpt>
      <trkpt lat="45.88005" lon="3.56673">
        <ele>647</ele>
        <time>2024-12-07T23:41:11.619Z</time>
      </trkpt>
      <trkpt lat="45.88006" lon="3.56675">
        <ele>647</ele>
        <time>2024-12-07T23:41:12.619Z</time>
      </trkpt>
      <trkpt lat="45.88007" lon="3.56677">
        <ele>648</ele>
        <time>2024-12-07T23:41:13.620Z</time>
      </trkpt>
      <trkpt lat="45.88008" lon="3.56679">
        <ele>648</ele>
        <time>2024-12-07T23:41:14.619Z</time>
      </trkpt>
      <trkpt lat="45.88009" lon="3.56681">
        <ele>648</ele>
        <time>2024-12-07T23:41:15.620Z</time>
      </trkpt>
      <trkpt lat="45.88011" lon="3.56683">
        <ele>648</ele>
        <time>2024-12-07T23:41:16.619Z</time>
      </trkpt>
      <trkpt lat="45.88012" lon="3.56686">
        <ele>649</ele>
        <time>2024-12-07T23:41:17.619Z</time>
      </trkpt>
      <trkpt lat="45.88013" lon="3.56688">
        <ele>649</ele>
        <time>2024-12-07T23:41:18.620Z</time>
      </trkpt>
      <trkpt lat="45.88015" lon="3.5669">
        <ele>649</ele>
        <time>2024-12-07T23:41:19.619Z</time>
      </trkpt>
      <trkpt lat="45.88016" lon="3.56693">
        <ele>650</ele>
        <time>2024-12-07T23:41:20.619Z</time>
      </trkpt>
      <trkpt lat="45.88016" lon="3.56695">
        <ele>649</ele>
        <time>2024-12-07T23:41:21.619Z</time>
      </trkpt>
      <trkpt lat="45.88017" lon="3.56697">
        <ele>649</ele>
        <time>2024-12-07T23:41:22.619Z</time>
      </trkpt>
      <trkpt lat="45.88018" lon="3.56698">
        <ele>649</ele>
        <time>2024-12-07T23:41:23.619Z</time>
      </trkpt>
      <trkpt lat="45.88019" lon="3.56701">
        <ele>648</ele>
        <time>2024-12-07T23:41:24.620Z</time>
      </trkpt>
      <trkpt lat="45.8802" lon="3.56703">
        <ele>648</ele>
        <time>2024-12-07T23:41:25.620Z</time>
      </trkpt>
      <trkpt lat="45.88022" lon="3.56705">
        <ele>648</ele>
        <time>2024-12-07T23:41:26.620Z</time>
      </trkpt>
      <trkpt lat="45.88023" lon="3.56707">
        <ele>648</ele>
        <time>2024-12-07T23:41:27.619Z</time>
      </trkpt>
      <trkpt lat="45.88024" lon="3.56709">
        <ele>648</ele>
        <time>2024-12-07T23:41:28.620Z</time>
      </trkpt>
      <trkpt lat="45.88025" lon="3.56711">
        <ele>647</ele>
        <time>2024-12-07T23:41:29.620Z</time>
      </trkpt>
      <trkpt lat="45.88026" lon="3.56713">
        <ele>647</ele>
        <time>2024-12-07T23:41:30.619Z</time>
      </trkpt>
      <trkpt lat="45.88028" lon="3.56715">
        <ele>647</ele>
        <time>2024-12-07T23:41:31.619Z</time>
      </trkpt>
      <trkpt lat="45.88029" lon="3.56717">
        <ele>647</ele>
        <time>2024-12-07T23:41:32.620Z</time>
      </trkpt>
      <trkpt lat="45.8803" lon="3.56719">
        <ele>648</ele>
        <time>2024-12-07T23:41:33.619Z</time>
      </trkpt>
      <trkpt lat="45.88031" lon="3.56721">
        <ele>648</ele>
        <time>2024-12-07T23:41:34.619Z</time>
      </trkpt>
      <trkpt lat="45.88032" lon="3.56724">
        <ele>648</ele>
        <time>2024-12-07T23:41:35.619Z</time>
      </trkpt>
      <trkpt lat="45.88033" lon="3.56726">
        <ele>647</ele>
        <time>2024-12-07T23:41:36.620Z</time>
      </trkpt>
      <trkpt lat="45.88035" lon="3.56728">
        <ele>647</ele>
        <time>2024-12-07T23:41:37.620Z</time>
      </trkpt>
      <trkpt lat="45.88036" lon="3.5673">
        <ele>647</ele>
        <time>2024-12-07T23:41:38.620Z</time>
      </trkpt>
      <trkpt lat="45.88037" lon="3.56732">
        <ele>646</ele>
        <time>2024-12-07T23:41:39.619Z</time>
      </trkpt>
      <trkpt lat="45.88038" lon="3.56734">
        <ele>646</ele>
        <time>2024-12-07T23:41:40.620Z</time>
      </trkpt>
      <trkpt lat="45.88039" lon="3.56736">
        <ele>646</ele>
        <time>2024-12-07T23:41:41.620Z</time>
      </trkpt>
      <trkpt lat="45.8804" lon="3.56739">
        <ele>646</ele>
        <time>2024-12-07T23:41:42.619Z</time>
      </trkpt>
      <trkpt lat="45.88042" lon="3.56741">
        <ele>646</ele>
        <time>2024-12-07T23:41:43.620Z</time>
      </trkpt>
      <trkpt lat="45.88043" lon="3.56743">
        <ele>646</ele>
        <time>2024-12-07T23:41:44.619Z</time>
      </trkpt>
      <trkpt lat="45.88044" lon="3.56745">
        <ele>647</ele>
        <time>2024-12-07T23:41:45.619Z</time>
      </trkpt>
      <trkpt lat="45.88046" lon="3.56747">
        <ele>647</ele>
        <time>2024-12-07T23:41:46.619Z</time>
      </trkpt>
      <trkpt lat="45.88047" lon="3.56749">
        <ele>648</ele>
        <time>2024-12-07T23:41:47.620Z</time>
      </trkpt>
      <trkpt lat="45.88049" lon="3.56751">
        <ele>648</ele>
        <time>2024-12-07T23:41:48.619Z</time>
      </trkpt>
      <trkpt lat="45.8805" lon="3.56753">
        <ele>648</ele>
        <time>2024-12-07T23:41:49.619Z</time>
      </trkpt>
      <trkpt lat="45.88051" lon="3.56755">
        <ele>649</ele>
        <time>2024-12-07T23:41:50.620Z</time>
      </trkpt>
      <trkpt lat="45.88053" lon="3.56757">
        <ele>649</ele>
        <time>2024-12-07T23:41:51.619Z</time>
      </trkpt>
      <trkpt lat="45.88054" lon="3.56759">
        <ele>649</ele>
        <time>2024-12-07T23:41:52.620Z</time>
      </trkpt>
      <trkpt lat="45.88055" lon="3.56761">
        <ele>649</ele>
        <time>2024-12-07T23:41:53.619Z</time>
      </trkpt>
      <trkpt lat="45.88056" lon="3.56763">
        <ele>649</ele>
        <time>2024-12-07T23:41:54.620Z</time>
      </trkpt>
      <trkpt lat="45.88057" lon="3.56765">
        <ele>649</ele>
        <time>2024-12-07T23:41:55.619Z</time>
      </trkpt>
      <trkpt lat="45.88058" lon="3.56767">
        <ele>649</ele>
        <time>2024-12-07T23:41:56.619Z</time>
      </trkpt>
      <trkpt lat="45.88059" lon="3.56769">
        <ele>649</ele>
        <time>2024-12-07T23:41:57.619Z</time>
      </trkpt>
      <trkpt lat="45.8806" lon="3.56771">
        <ele>650</ele>
        <time>2024-12-07T23:41:58.620Z</time>
      </trkpt>
      <trkpt lat="45.88061" lon="3.56773">
        <ele>650</ele>
        <time>2024-12-07T23:41:59.619Z</time>
      </trkpt>
      <trkpt lat="45.88062" lon="3.56776">
        <ele>651</ele>
        <time>2024-12-07T23:42:00.620Z</time>
      </trkpt>
      <trkpt lat="45.88064" lon="3.56778">
        <ele>651</ele>
        <time>2024-12-07T23:42:01.619Z</time>
      </trkpt>
      <trkpt lat="45.88065" lon="3.56781">
        <ele>652</ele>
        <time>2024-12-07T23:42:02.619Z</time>
      </trkpt>
      <trkpt lat="45.88066" lon="3.56783">
        <ele>652</ele>
        <time>2024-12-07T23:42:03.620Z</time>
      </trkpt>
      <trkpt lat="45.88067" lon="3.56785">
        <ele>653</ele>
        <time>2024-12-07T23:42:04.620Z</time>
      </trkpt>
      <trkpt lat="45.88068" lon="3.56787">
        <ele>654</ele>
        <time>2024-12-07T23:42:05.619Z</time>
      </trkpt>
      <trkpt lat="45.88069" lon="3.56789">
        <ele>654</ele>
        <time>2024-12-07T23:42:06.620Z</time>
      </trkpt>
      <trkpt lat="45.8807" lon="3.56791">
        <ele>654</ele>
        <time>2024-12-07T23:42:07.620Z</time>
      </trkpt>
      <trkpt lat="45.88071" lon="3.56794">
        <ele>655</ele>
        <time>2024-12-07T23:42:08.619Z</time>
      </trkpt>
      <trkpt lat="45.88072" lon="3.56796">
        <ele>655</ele>
        <time>2024-12-07T23:42:09.620Z</time>
      </trkpt>
      <trkpt lat="45.88073" lon="3.56798">
        <ele>655</ele>
        <time>2024-12-07T23:42:10.620Z</time>
      </trkpt>
      <trkpt lat="45.88074" lon="3.568">
        <ele>655</ele>
        <time>2024-12-07T23:42:11.620Z</time>
      </trkpt>
      <trkpt lat="45.88075" lon="3.56802">
        <ele>654</ele>
        <time>2024-12-07T23:42:12.619Z</time>
      </trkpt>
      <trkpt lat="45.88076" lon="3.56804">
        <ele>654</ele>
        <time>2024-12-07T23:42:13.620Z</time>
      </trkpt>
      <trkpt lat="45.88077" lon="3.56806">
        <ele>654</ele>
        <time>2024-12-07T23:42:14.619Z</time>
      </trkpt>
      <trkpt lat="45.88078" lon="3.56807">
        <ele>653</ele>
        <time>2024-12-07T23:42:15.620Z</time>
      </trkpt>
      <trkpt lat="45.8808" lon="3.56809">
        <ele>653</ele>
        <time>2024-12-07T23:42:16.620Z</time>
      </trkpt>
      <trkpt lat="45.88081" lon="3.56811">
        <ele>652</ele>
        <time>2024-12-07T23:42:17.620Z</time>
      </trkpt>
      <trkpt lat="45.88082" lon="3.56813">
        <ele>652</ele>
        <time>2024-12-07T23:42:18.619Z</time>
      </trkpt>
      <trkpt lat="45.88084" lon="3.56815">
        <ele>652</ele>
        <time>2024-12-07T23:42:19.620Z</time>
      </trkpt>
      <trkpt lat="45.88085" lon="3.56818">
        <ele>652</ele>
        <time>2024-12-07T23:42:20.619Z</time>
      </trkpt>
      <trkpt lat="45.88086" lon="3.5682">
        <ele>652</ele>
        <time>2024-12-07T23:42:21.620Z</time>
      </trkpt>
      <trkpt lat="45.88087" lon="3.56822">
        <ele>652</ele>
        <time>2024-12-07T23:42:22.619Z</time>
      </trkpt>
      <trkpt lat="45.88089" lon="3.56824">
        <ele>652</ele>
        <time>2024-12-07T23:42:23.619Z</time>
      </trkpt>
      <trkpt lat="45.8809" lon="3.56826">
        <ele>652</ele>
        <time>2024-12-07T23:42:24.619Z</time>
      </trkpt>
      <trkpt lat="45.88091" lon="3.56828">
        <ele>651</ele>
        <time>2024-12-07T23:42:25.620Z</time>
      </trkpt>
      <trkpt lat="45.88093" lon="3.5683">
        <ele>651</ele>
        <time>2024-12-07T23:42:26.619Z</time>
      </trkpt>
      <trkpt lat="45.88094" lon="3.56832">
        <ele>651</ele>
        <time>2024-12-07T23:42:27.619Z</time>
      </trkpt>
      <trkpt lat="45.88095" lon="3.56834">
        <ele>652</ele>
        <time>2024-12-07T23:42:28.619Z</time>
      </trkpt>
      <trkpt lat="45.88096" lon="3.56836">
        <ele>652</ele>
        <time>2024-12-07T23:42:29.620Z</time>
      </trkpt>
      <trkpt lat="45.88098" lon="3.56838">
        <ele>652</ele>
        <time>2024-12-07T23:42:30.619Z</time>
      </trkpt>
      <trkpt lat="45.88099" lon="3.5684">
        <ele>653</ele>
        <time>2024-12-07T23:42:31.619Z</time>
      </trkpt>
      <trkpt lat="45.881" lon="3.56842">
        <ele>653</ele>
        <time>2024-12-07T23:42:32.619Z</time>
      </trkpt>
      <trkpt lat="45.88101" lon="3.56844">
        <ele>653</ele>
        <time>2024-12-07T23:42:33.619Z</time>
      </trkpt>
      <trkpt lat="45.88103" lon="3.56846">
        <ele>653</ele>
        <time>2024-12-07T23:42:34.620Z</time>
      </trkpt>
      <trkpt lat="45.88104" lon="3.56848">
        <ele>652</ele>
        <time>2024-12-07T23:42:35.619Z</time>
      </trkpt>
      <trkpt lat="45.88106" lon="3.5685">
        <ele>652</ele>
        <time>2024-12-07T23:42:36.619Z</time>
      </trkpt>
      <trkpt lat="45.88107" lon="3.56852">
        <ele>652</ele>
        <time>2024-12-07T23:42:37.620Z</time>
      </trkpt>
      <trkpt lat="45.88109" lon="3.56854">
        <ele>652</ele>
        <time>2024-12-07T23:42:38.620Z</time>
      </trkpt>
      <trkpt lat="45.8811" lon="3.56856">
        <ele>652</ele>
        <time>2024-12-07T23:42:39.619Z</time>
      </trkpt>
      <trkpt lat="45.88111" lon="3.56858">
        <ele>652</ele>
        <time>2024-12-07T23:42:40.620Z</time>
      </trkpt>
      <trkpt lat="45.88113" lon="3.56859">
        <ele>652</ele>
        <time>2024-12-07T23:42:41.619Z</time>
      </trkpt>
      <trkpt lat="45.88114" lon="3.56861">
        <ele>652</ele>
        <time>2024-12-07T23:42:42.619Z</time>
      </trkpt>
      <trkpt lat="45.88115" lon="3.56863">
        <ele>651</ele>
        <time>2024-12-07T23:42:43.620Z</time>
      </trkpt>
      <trkpt lat="45.88117" lon="3.56865">
        <ele>651</ele>
        <time>2024-12-07T23:42:44.620Z</time>
      </trkpt>
      <trkpt lat="45.88118" lon="3.56867">
        <ele>651</ele>
        <time>2024-12-07T23:42:45.619Z</time>
      </trkpt>
      <trkpt lat="45.8812" lon="3.56869">
        <ele>651</ele>
        <time>2024-12-07T23:42:46.620Z</time>
      </trkpt>
      <trkpt lat="45.88121" lon="3.56871">
        <ele>651</ele>
        <time>2024-12-07T23:42:47.620Z</time>
      </trkpt>
      <trkpt lat="45.88123" lon="3.56873">
        <ele>650</ele>
        <time>2024-12-07T23:42:48.620Z</time>
      </trkpt>
      <trkpt lat="45.88124" lon="3.56875">
        <ele>650</ele>
        <time>2024-12-07T23:42:49.620Z</time>
      </trkpt>
      <trkpt lat="45.88125" lon="3.56877">
        <ele>650</ele>
        <time>2024-12-07T23:42:50.619Z</time>
      </trkpt>
      <trkpt lat="45.88126" lon="3.56879">
        <ele>650</ele>
        <time>2024-12-07T23:42:51.619Z</time>
      </trkpt>
      <trkpt lat="45.88127" lon="3.56881">
        <ele>651</ele>
        <time>2024-12-07T23:42:52.620Z</time>
      </trkpt>
      <trkpt lat="45.88128" lon="3.56884">
        <ele>651</ele>
        <time>2024-12-07T23:42:53.619Z</time>
      </trkpt>
      <trkpt lat="45.88129" lon="3.56886">
        <ele>651</ele>
        <time>2024-12-07T23:42:54.620Z</time>
      </trkpt>
      <trkpt lat="45.8813" lon="3.56888">
        <ele>650</ele>
        <time>2024-12-07T23:42:55.620Z</time>
      </trkpt>
      <trkpt lat="45.88131" lon="3.5689">
        <ele>650</ele>
        <time>2024-12-07T23:42:56.620Z</time>
      </trkpt>
      <trkpt lat="45.88132" lon="3.56892">
        <ele>650</ele>
        <time>2024-12-07T23:42:57.620Z</time>
      </trkpt>
      <trkpt lat="45.88133" lon="3.56894">
        <ele>650</ele>
        <time>2024-12-07T23:42:58.620Z</time>
      </trkpt>
      <trkpt lat="45.88135" lon="3.56896">
        <ele>650</ele>
        <time>2024-12-07T23:42:59.620Z</time>
      </trkpt>
      <trkpt lat="45.88136" lon="3.56898">
        <ele>650</ele>
        <time>2024-12-07T23:43:00.620Z</time>
      </trkpt>
      <trkpt lat="45.88137" lon="3.569">
        <ele>650</ele>
        <time>2024-12-07T23:43:01.619Z</time>
      </trkpt>
      <trkpt lat="45.88139" lon="3.56902">
        <ele>649</ele>
        <time>2024-12-07T23:43:02.620Z</time>
      </trkpt>
      <trkpt lat="45.8814" lon="3.56904">
        <ele>649</ele>
        <time>2024-12-07T23:43:03.620Z</time>
      </trkpt>
      <trkpt lat="45.88141" lon="3.56906">
        <ele>649</ele>
        <time>2024-12-07T23:43:04.620Z</time>
      </trkpt>
      <trkpt lat="45.88143" lon="3.56908">
        <ele>650</ele>
        <time>2024-12-07T23:43:05.619Z</time>
      </trkpt>
      <trkpt lat="45.88144" lon="3.5691">
        <ele>650</ele>
        <time>2024-12-07T23:43:06.619Z</time>
      </trkpt>
      <trkpt lat="45.88146" lon="3.56912">
        <ele>651</ele>
        <time>2024-12-07T23:43:07.619Z</time>
      </trkpt>
      <trkpt lat="45.88147" lon="3.56914">
        <ele>651</ele>
        <time>2024-12-07T23:43:08.620Z</time>
      </trkpt>
      <trkpt lat="45.88148" lon="3.56916">
        <ele>651</ele>
        <time>2024-12-07T23:43:09.620Z</time>
      </trkpt>
      <trkpt lat="45.8815" lon="3.56918">
        <ele>652</ele>
        <time>2024-12-07T23:43:10.619Z</time>
      </trkpt>
      <trkpt lat="45.88151" lon="3.56919">
        <ele>652</ele>
        <time>2024-12-07T23:43:11.620Z</time>
      </trkpt>
      <trkpt lat="45.88153" lon="3.56921">
        <ele>652</ele>
        <time>2024-12-07T23:43:12.620Z</time>
      </trkpt>
      <trkpt lat="45.88154" lon="3.56923">
        <ele>652</ele>
        <time>2024-12-07T23:43:13.620Z</time>
      </trkpt>
      <trkpt lat="45.88155" lon="3.56925">
        <ele>652</ele>
        <time>2024-12-07T23:43:14.619Z</time>
      </trkpt>
      <trkpt lat="45.88156" lon="3.56926">
        <ele>652</ele>
        <time>2024-12-07T23:43:15.620Z</time>
      </trkpt>
      <trkpt lat="45.88157" lon="3.56928">
        <ele>653</ele>
        <time>2024-12-07T23:43:16.619Z</time>
      </trkpt>
      <trkpt lat="45.88159" lon="3.5693">
        <ele>653</ele>
        <time>2024-12-07T23:43:17.620Z</time>
      </trkpt>
      <trkpt lat="45.8816" lon="3.56931">
        <ele>653</ele>
        <time>2024-12-07T23:43:18.620Z</time>
      </trkpt>
      <trkpt lat="45.88162" lon="3.56933">
        <ele>653</ele>
        <time>2024-12-07T23:43:19.620Z</time>
      </trkpt>
      <trkpt lat="45.88163" lon="3.56935">
        <ele>654</ele>
        <time>2024-12-07T23:43:20.620Z</time>
      </trkpt>
      <trkpt lat="45.88165" lon="3.56937">
        <ele>654</ele>
        <time>2024-12-07T23:43:21.620Z</time>
      </trkpt>
      <trkpt lat="45.88166" lon="3.56939">
        <ele>654</ele>
        <time>2024-12-07T23:43:22.619Z</time>
      </trkpt>
      <trkpt lat="45.88168" lon="3.56941">
        <ele>655</ele>
        <time>2024-12-07T23:43:23.620Z</time>
      </trkpt>
      <trkpt lat="45.88169" lon="3.56943">
        <ele>655</ele>
        <time>2024-12-07T23:43:24.620Z</time>
      </trkpt>
      <trkpt lat="45.88171" lon="3.56945">
        <ele>655</ele>
        <time>2024-12-07T23:43:25.620Z</time>
      </trkpt>
      <trkpt lat="45.88172" lon="3.56947">
        <ele>655</ele>
        <time>2024-12-07T23:43:26.619Z</time>
      </trkpt>
      <trkpt lat="45.88174" lon="3.56949">
        <ele>655</ele>
        <time>2024-12-07T23:43:27.619Z</time>
      </trkpt>
      <trkpt lat="45.88175" lon="3.56951">
        <ele>655</ele>
        <time>2024-12-07T23:43:28.619Z</time>
      </trkpt>
      <trkpt lat="45.88176" lon="3.56952">
        <ele>655</ele>
        <time>2024-12-07T23:43:29.619Z</time>
      </trkpt>
      <trkpt lat="45.88178" lon="3.56954">
        <ele>654</ele>
        <time>2024-12-07T23:43:30.620Z</time>
      </trkpt>
      <trkpt lat="45.88179" lon="3.56956">
        <ele>654</ele>
        <time>2024-12-07T23:43:31.619Z</time>
      </trkpt>
      <trkpt lat="45.8818" lon="3.56957">
        <ele>654</ele>
        <time>2024-12-07T23:43:32.619Z</time>
      </trkpt>
      <trkpt lat="45.88182" lon="3.56959">
        <ele>654</ele>
        <time>2024-12-07T23:43:33.620Z</time>
      </trkpt>
      <trkpt lat="45.88183" lon="3.56961">
        <ele>654</ele>
        <time>2024-12-07T23:43:34.619Z</time>
      </trkpt>
      <trkpt lat="45.88184" lon="3.56963">
        <ele>654</ele>
        <time>2024-12-07T23:43:35.619Z</time>
      </trkpt>
      <trkpt lat="45.88186" lon="3.56965">
        <ele>653</ele>
        <time>2024-12-07T23:43:36.619Z</time>
      </trkpt>
      <trkpt lat="45.88187" lon="3.56967">
        <ele>653</ele>
        <time>2024-12-07T23:43:37.619Z</time>
      </trkpt>
      <trkpt lat="45.88189" lon="3.56969">
        <ele>653</ele>
        <time>2024-12-07T23:43:38.620Z</time>
      </trkpt>
      <trkpt lat="45.8819" lon="3.56971">
        <ele>653</ele>
        <time>2024-12-07T23:43:39.619Z</time>
      </trkpt>
      <trkpt lat="45.88191" lon="3.56972">
        <ele>653</ele>
        <time>2024-12-07T23:43:40.620Z</time>
      </trkpt>
      <trkpt lat="45.88193" lon="3.56974">
        <ele>653</ele>
        <time>2024-12-07T23:43:41.619Z</time>
      </trkpt>
      <trkpt lat="45.88194" lon="3.56976">
        <ele>653</ele>
        <time>2024-12-07T23:43:42.620Z</time>
      </trkpt>
      <trkpt lat="45.88196" lon="3.56978">
        <ele>653</ele>
        <time>2024-12-07T23:43:43.620Z</time>
      </trkpt>
      <trkpt lat="45.88197" lon="3.5698">
        <ele>653</ele>
        <time>2024-12-07T23:43:44.619Z</time>
      </trkpt>
      <trkpt lat="45.88199" lon="3.56982">
        <ele>653</ele>
        <time>2024-12-07T23:43:45.620Z</time>
      </trkpt>
      <trkpt lat="45.882" lon="3.56985">
        <ele>653</ele>
        <time>2024-12-07T23:43:46.620Z</time>
      </trkpt>
      <trkpt lat="45.88201" lon="3.56987">
        <ele>653</ele>
        <time>2024-12-07T23:43:47.620Z</time>
      </trkpt>
      <trkpt lat="45.88202" lon="3.56989">
        <ele>652</ele>
        <time>2024-12-07T23:43:48.619Z</time>
      </trkpt>
      <trkpt lat="45.88203" lon="3.56991">
        <ele>653</ele>
        <time>2024-12-07T23:43:49.620Z</time>
      </trkpt>
      <trkpt lat="45.88204" lon="3.56993">
        <ele>652</ele>
        <time>2024-12-07T23:43:50.619Z</time>
      </trkpt>
      <trkpt lat="45.88206" lon="3.56995">
        <ele>653</ele>
        <time>2024-12-07T23:43:51.620Z</time>
      </trkpt>
      <trkpt lat="45.88207" lon="3.56997">
        <ele>653</ele>
        <time>2024-12-07T23:43:52.619Z</time>
      </trkpt>
      <trkpt lat="45.88209" lon="3.56998">
        <ele>653</ele>
        <time>2024-12-07T23:43:53.619Z</time>
      </trkpt>
      <trkpt lat="45.8821" lon="3.57">
        <ele>653</ele>
        <time>2024-12-07T23:43:54.619Z</time>
      </trkpt>
      <trkpt lat="45.88212" lon="3.57003">
        <ele>653</ele>
        <time>2024-12-07T23:43:55.619Z</time>
      </trkpt>
      <trkpt lat="45.88213" lon="3.57005">
        <ele>653</ele>
        <time>2024-12-07T23:43:56.620Z</time>
      </trkpt>
      <trkpt lat="45.88214" lon="3.57007">
        <ele>653</ele>
        <time>2024-12-07T23:43:57.620Z</time>
      </trkpt>
      <trkpt lat="45.88216" lon="3.57008">
        <ele>653</ele>
        <time>2024-12-07T23:43:58.619Z</time>
      </trkpt>
      <trkpt lat="45.88217" lon="3.5701">
        <ele>653</ele>
        <time>2024-12-07T23:43:59.619Z</time>
      </trkpt>
      <trkpt lat="45.88219" lon="3.57012">
        <ele>652</ele>
        <time>2024-12-07T23:44:00.619Z</time>
      </trkpt>
      <trkpt lat="45.8822" lon="3.57014">
        <ele>652</ele>
        <time>2024-12-07T23:44:01.620Z</time>
      </trkpt>
      <trkpt lat="45.88221" lon="3.57017">
        <ele>651</ele>
        <time>2024-12-07T23:44:02.620Z</time>
      </trkpt>
      <trkpt lat="45.88223" lon="3.57019">
        <ele>651</ele>
        <time>2024-12-07T23:44:03.620Z</time>
      </trkpt>
      <trkpt lat="45.88224" lon="3.57021">
        <ele>651</ele>
        <time>2024-12-07T23:44:04.620Z</time>
      </trkpt>
      <trkpt lat="45.88225" lon="3.57022">
        <ele>651</ele>
        <time>2024-12-07T23:44:05.619Z</time>
      </trkpt>
      <trkpt lat="45.88226" lon="3.57024">
        <ele>651</ele>
        <time>2024-12-07T23:44:06.620Z</time>
      </trkpt>
      <trkpt lat="45.88228" lon="3.57026">
        <ele>650</ele>
        <time>2024-12-07T23:44:07.620Z</time>
      </trkpt>
      <trkpt lat="45.88229" lon="3.57028">
        <ele>650</ele>
        <time>2024-12-07T23:44:08.619Z</time>
      </trkpt>
      <trkpt lat="45.88231" lon="3.5703">
        <ele>651</ele>
        <time>2024-12-07T23:44:09.619Z</time>
      </trkpt>
      <trkpt lat="45.88233" lon="3.57033">
        <ele>650</ele>
        <time>2024-12-07T23:44:10.619Z</time>
      </trkpt>
      <trkpt lat="45.88234" lon="3.57035">
        <ele>650</ele>
        <time>2024-12-07T23:44:11.619Z</time>
      </trkpt>
      <trkpt lat="45.88235" lon="3.57037">
        <ele>650</ele>
        <time>2024-12-07T23:44:12.619Z</time>
      </trkpt>
      <trkpt lat="45.88236" lon="3.57038">
        <ele>650</ele>
        <time>2024-12-07T23:44:13.620Z</time>
      </trkpt>
      <trkpt lat="45.88238" lon="3.5704">
        <ele>650</ele>
        <time>2024-12-07T23:44:14.619Z</time>
      </trkpt>
      <trkpt lat="45.88239" lon="3.57042">
        <ele>650</ele>
        <time>2024-12-07T23:44:15.620Z</time>
      </trkpt>
      <trkpt lat="45.8824" lon="3.57043">
        <ele>649</ele>
        <time>2024-12-07T23:44:16.620Z</time>
      </trkpt>
      <trkpt lat="45.88242" lon="3.57045">
        <ele>649</ele>
        <time>2024-12-07T23:44:17.620Z</time>
      </trkpt>
      <trkpt lat="45.88243" lon="3.57047">
        <ele>648</ele>
        <time>2024-12-07T23:44:18.619Z</time>
      </trkpt>
      <trkpt lat="45.88245" lon="3.5705">
        <ele>648</ele>
        <time>2024-12-07T23:44:19.619Z</time>
      </trkpt>
      <trkpt lat="45.88246" lon="3.57051">
        <ele>648</ele>
        <time>2024-12-07T23:44:20.619Z</time>
      </trkpt>
      <trkpt lat="45.88247" lon="3.57053">
        <ele>648</ele>
        <time>2024-12-07T23:44:21.620Z</time>
      </trkpt>
      <trkpt lat="45.88249" lon="3.57055">
        <ele>648</ele>
        <time>2024-12-07T23:44:22.619Z</time>
      </trkpt>
      <trkpt lat="45.8825" lon="3.57056">
        <ele>647</ele>
        <time>2024-12-07T23:44:23.620Z</time>
      </trkpt>
      <trkpt lat="45.88252" lon="3.57058">
        <ele>647</ele>
        <time>2024-12-07T23:44:24.620Z</time>
      </trkpt>
      <trkpt lat="45.88253" lon="3.57061">
        <ele>647</ele>
        <time>2024-12-07T23:44:25.620Z</time>
      </trkpt>
      <trkpt lat="45.88254" lon="3.57063">
        <ele>647</ele>
        <time>2024-12-07T23:44:26.620Z</time>
      </trkpt>
      <trkpt lat="45.88256" lon="3.57065">
        <ele>647</ele>
        <time>2024-12-07T23:44:27.619Z</time>
      </trkpt>
      <trkpt lat="45.88257" lon="3.57066">
        <ele>647</ele>
        <time>2024-12-07T23:44:28.619Z</time>
      </trkpt>
      <trkpt lat="45.88258" lon="3.57068">
        <ele>648</ele>
        <time>2024-12-07T23:44:29.619Z</time>
      </trkpt>
      <trkpt lat="45.88259" lon="3.5707">
        <ele>648</ele>
        <time>2024-12-07T23:44:30.620Z</time>
      </trkpt>
      <trkpt lat="45.8826" lon="3.57072">
        <ele>649</ele>
        <time>2024-12-07T23:44:31.619Z</time>
      </trkpt>
      <trkpt lat="45.88262" lon="3.57074">
        <ele>649</ele>
        <time>2024-12-07T23:44:32.619Z</time>
      </trkpt>
      <trkpt lat="45.88263" lon="3.57076">
        <ele>649</ele>
        <time>2024-12-07T23:44:33.620Z</time>
      </trkpt>
      <trkpt lat="45.88264" lon="3.57078">
        <ele>649</ele>
        <time>2024-12-07T23:44:34.619Z</time>
      </trkpt>
      <trkpt lat="45.88266" lon="3.5708">
        <ele>649</ele>
        <time>2024-12-07T23:44:35.620Z</time>
      </trkpt>
      <trkpt lat="45.88267" lon="3.57082">
        <ele>649</ele>
        <time>2024-12-07T23:44:36.620Z</time>
      </trkpt>
      <trkpt lat="45.88268" lon="3.57084">
        <ele>649</ele>
        <time>2024-12-07T23:44:37.619Z</time>
      </trkpt>
      <trkpt lat="45.88269" lon="3.57086">
        <ele>648</ele>
        <time>2024-12-07T23:44:38.619Z</time>
      </trkpt>
      <trkpt lat="45.88271" lon="3.57088">
        <ele>648</ele>
        <time>2024-12-07T23:44:39.619Z</time>
      </trkpt>
      <trkpt lat="45.88272" lon="3.5709">
        <ele>647</ele>
        <time>2024-12-07T23:44:40.620Z</time>
      </trkpt>
      <trkpt lat="45.88273" lon="3.57092">
        <ele>647</ele>
        <time>2024-12-07T23:44:41.619Z</time>
      </trkpt>
      <trkpt lat="45.88274" lon="3.57094">
        <ele>647</ele>
        <time>2024-12-07T23:44:42.620Z</time>
      </trkpt>
      <trkpt lat="45.88276" lon="3.57097">
        <ele>647</ele>
        <time>2024-12-07T23:44:43.619Z</time>
      </trkpt>
      <trkpt lat="45.88277" lon="3.57099">
        <ele>647</ele>
        <time>2024-12-07T23:44:44.620Z</time>
      </trkpt>
      <trkpt lat="45.88278" lon="3.57101">
        <ele>647</ele>
        <time>2024-12-07T23:44:45.619Z</time>
      </trkpt>
      <trkpt lat="45.88279" lon="3.57102">
        <ele>647</ele>
        <time>2024-12-07T23:44:46.620Z</time>
      </trkpt>
      <trkpt lat="45.8828" lon="3.57104">
        <ele>647</ele>
        <time>2024-12-07T23:44:47.620Z</time>
      </trkpt>
      <trkpt lat="45.88282" lon="3.57107">
        <ele>648</ele>
        <time>2024-12-07T23:44:48.620Z</time>
      </trkpt>
      <trkpt lat="45.88283" lon="3.57109">
        <ele>648</ele>
        <time>2024-12-07T23:44:49.620Z</time>
      </trkpt>
      <trkpt lat="45.88284" lon="3.57111">
        <ele>648</ele>
        <time>2024-12-07T23:44:50.619Z</time>
      </trkpt>
      <trkpt lat="45.88286" lon="3.57113">
        <ele>648</ele>
        <time>2024-12-07T23:44:51.619Z</time>
      </trkpt>
      <trkpt lat="45.88287" lon="3.57115">
        <ele>648</ele>
        <time>2024-12-07T23:44:52.619Z</time>
      </trkpt>
      <trkpt lat="45.88289" lon="3.57117">
        <ele>647</ele>
        <time>2024-12-07T23:44:53.620Z</time>
      </trkpt>
      <trkpt lat="45.8829" lon="3.57118">
        <ele>647</ele>
        <time>2024-12-07T23:44:54.620Z</time>
      </trkpt>
      <trkpt lat="45.88292" lon="3.5712">
        <ele>647</ele>
        <time>2024-12-07T23:44:55.620Z</time>
      </trkpt>
      <trkpt lat="45.88293" lon="3.57122">
        <ele>647</ele>
        <time>2024-12-07T23:44:56.619Z</time>
      </trkpt>
      <trkpt lat="45.88294" lon="3.57124">
        <ele>646</ele>
        <time>2024-12-07T23:44:57.620Z</time>
      </trkpt>
      <trkpt lat="45.88296" lon="3.57126">
        <ele>646</ele>
        <time>2024-12-07T23:44:58.620Z</time>
      </trkpt>
      <trkpt lat="45.88297" lon="3.57128">
        <ele>646</ele>
        <time>2024-12-07T23:44:59.619Z</time>
      </trkpt>
      <trkpt lat="45.88298" lon="3.5713">
        <ele>646</ele>
        <time>2024-12-07T23:45:00.619Z</time>
      </trkpt>
      <trkpt lat="45.883" lon="3.57132">
        <ele>647</ele>
        <time>2024-12-07T23:45:01.619Z</time>
      </trkpt>
      <trkpt lat="45.88301" lon="3.57134">
        <ele>647</ele>
        <time>2024-12-07T23:45:02.620Z</time>
      </trkpt>
      <trkpt lat="45.88302" lon="3.57136">
        <ele>647</ele>
        <time>2024-12-07T23:45:03.620Z</time>
      </trkpt>
      <trkpt lat="45.88304" lon="3.57138">
        <ele>647</ele>
        <time>2024-12-07T23:45:04.619Z</time>
      </trkpt>
      <trkpt lat="45.88305" lon="3.57139">
        <ele>647</ele>
        <time>2024-12-07T23:45:05.619Z</time>
      </trkpt>
      <trkpt lat="45.88307" lon="3.57141">
        <ele>647</ele>
        <time>2024-12-07T23:45:06.619Z</time>
      </trkpt>
      <trkpt lat="45.88308" lon="3.57143">
        <ele>647</ele>
        <time>2024-12-07T23:45:07.619Z</time>
      </trkpt>
      <trkpt lat="45.8831" lon="3.57146">
        <ele>647</ele>
        <time>2024-12-07T23:45:08.619Z</time>
      </trkpt>
      <trkpt lat="45.88311" lon="3.57148">
        <ele>647</ele>
        <time>2024-12-07T23:45:09.619Z</time>
      </trkpt>
      <trkpt lat="45.88312" lon="3.5715">
        <ele>647</ele>
        <time>2024-12-07T23:45:10.619Z</time>
      </trkpt>
      <trkpt lat="45.88313" lon="3.57151">
        <ele>647</ele>
        <time>2024-12-07T23:45:11.620Z</time>
      </trkpt>
      <trkpt lat="45.88314" lon="3.57153">
        <ele>647</ele>
        <time>2024-12-07T23:45:12.619Z</time>
      </trkpt>
      <trkpt lat="45.88316" lon="3.57155">
        <ele>647</ele>
        <time>2024-12-07T23:45:13.620Z</time>
      </trkpt>
      <trkpt lat="45.88317" lon="3.57157">
        <ele>647</ele>
        <time>2024-12-07T23:45:14.620Z</time>
      </trkpt>
      <trkpt lat="45.88318" lon="3.57159">
        <ele>647</ele>
        <time>2024-12-07T23:45:15.620Z</time>
      </trkpt>
      <trkpt lat="45.88319" lon="3.57161">
        <ele>647</ele>
        <time>2024-12-07T23:45:16.619Z</time>
      </trkpt>
      <trkpt lat="45.88321" lon="3.57163">
        <ele>648</ele>
        <time>2024-12-07T23:45:17.619Z</time>
      </trkpt>
      <trkpt lat="45.88322" lon="3.57165">
        <ele>647</ele>
        <time>2024-12-07T23:45:18.620Z</time>
      </trkpt>
      <trkpt lat="45.88323" lon="3.57167">
        <ele>647</ele>
        <time>2024-12-07T23:45:19.620Z</time>
      </trkpt>
      <trkpt lat="45.88324" lon="3.57169">
        <ele>647</ele>
        <time>2024-12-07T23:45:20.620Z</time>
      </trkpt>
      <trkpt lat="45.88326" lon="3.57171">
        <ele>647</ele>
        <time>2024-12-07T23:45:21.619Z</time>
      </trkpt>
      <trkpt lat="45.88327" lon="3.57173">
        <ele>647</ele>
        <time>2024-12-07T23:45:22.619Z</time>
      </trkpt>
      <trkpt lat="45.88328" lon="3.57175">
        <ele>648</ele>
        <time>2024-12-07T23:45:23.620Z</time>
      </trkpt>
      <trkpt lat="45.88329" lon="3.57177">
        <ele>648</ele>
        <time>2024-12-07T23:45:24.619Z</time>
      </trkpt>
      <trkpt lat="45.8833" lon="3.57179">
        <ele>648</ele>
        <time>2024-12-07T23:45:25.620Z</time>
      </trkpt>
      <trkpt lat="45.88332" lon="3.57181">
        <ele>648</ele>
        <time>2024-12-07T23:45:26.620Z</time>
      </trkpt>
      <trkpt lat="45.88333" lon="3.57183">
        <ele>647</ele>
        <time>2024-12-07T23:45:27.619Z</time>
      </trkpt>
      <trkpt lat="45.88334" lon="3.57185">
        <ele>647</ele>
        <time>2024-12-07T23:45:28.619Z</time>
      </trkpt>
      <trkpt lat="45.88335" lon="3.57187">
        <ele>647</ele>
        <time>2024-12-07T23:45:29.619Z</time>
      </trkpt>
      <trkpt lat="45.88337" lon="3.57189">
        <ele>647</ele>
        <time>2024-12-07T23:45:30.619Z</time>
      </trkpt>
      <trkpt lat="45.88338" lon="3.57191">
        <ele>647</ele>
        <time>2024-12-07T23:45:31.619Z</time>
      </trkpt>
      <trkpt lat="45.88339" lon="3.57193">
        <ele>647</ele>
        <time>2024-12-07T23:45:32.619Z</time>
      </trkpt>
      <trkpt lat="45.8834" lon="3.57194">
        <ele>647</ele>
        <time>2024-12-07T23:45:33.620Z</time>
      </trkpt>
      <trkpt lat="45.88341" lon="3.57196">
        <ele>646</ele>
        <time>2024-12-07T23:45:34.619Z</time>
      </trkpt>
      <trkpt lat="45.88343" lon="3.57198">
        <ele>646</ele>
        <time>2024-12-07T23:45:35.619Z</time>
      </trkpt>
      <trkpt lat="45.88344" lon="3.572">
        <ele>646</ele>
        <time>2024-12-07T23:45:36.620Z</time>
      </trkpt>
      <trkpt lat="45.88345" lon="3.57202">
        <ele>646</ele>
        <time>2024-12-07T23:45:37.619Z</time>
      </trkpt>
      <trkpt lat="45.88346" lon="3.57204">
        <ele>645</ele>
        <time>2024-12-07T23:45:38.619Z</time>
      </trkpt>
      <trkpt lat="45.88348" lon="3.57206">
        <ele>645</ele>
        <time>2024-12-07T23:45:39.620Z</time>
      </trkpt>
      <trkpt lat="45.88349" lon="3.57208">
        <ele>645</ele>
        <time>2024-12-07T23:45:40.620Z</time>
      </trkpt>
      <trkpt lat="45.8835" lon="3.5721">
        <ele>645</ele>
        <time>2024-12-07T23:45:41.620Z</time>
      </trkpt>
      <trkpt lat="45.88351" lon="3.57212">
        <ele>645</ele>
        <time>2024-12-07T23:45:42.620Z</time>
      </trkpt>
      <trkpt lat="45.88352" lon="3.57214">
        <ele>646</ele>
        <time>2024-12-07T23:45:43.620Z</time>
      </trkpt>
      <trkpt lat="45.88353" lon="3.57216">
        <ele>646</ele>
        <time>2024-12-07T23:45:44.619Z</time>
      </trkpt>
      <trkpt lat="45.88354" lon="3.57218">
        <ele>646</ele>
        <time>2024-12-07T23:45:45.620Z</time>
      </trkpt>
      <trkpt lat="45.88355" lon="3.5722">
        <ele>646</ele>
        <time>2024-12-07T23:45:46.620Z</time>
      </trkpt>
      <trkpt lat="45.88356" lon="3.57222">
        <ele>646</ele>
        <time>2024-12-07T23:45:47.619Z</time>
      </trkpt>
      <trkpt lat="45.88358" lon="3.57224">
        <ele>646</ele>
        <time>2024-12-07T23:45:48.619Z</time>
      </trkpt>
      <trkpt lat="45.88359" lon="3.57226">
        <ele>647</ele>
        <time>2024-12-07T23:45:49.619Z</time>
      </trkpt>
      <trkpt lat="45.8836" lon="3.57228">
        <ele>647</ele>
        <time>2024-12-07T23:45:50.620Z</time>
      </trkpt>
      <trkpt lat="45.88361" lon="3.5723">
        <ele>648</ele>
        <time>2024-12-07T23:45:51.620Z</time>
      </trkpt>
      <trkpt lat="45.88362" lon="3.57233">
        <ele>648</ele>
        <time>2024-12-07T23:45:52.619Z</time>
      </trkpt>
      <trkpt lat="45.88363" lon="3.57235">
        <ele>649</ele>
        <time>2024-12-07T23:45:53.620Z</time>
      </trkpt>
      <trkpt lat="45.88363" lon="3.57237">
        <ele>649</ele>
        <time>2024-12-07T23:45:54.619Z</time>
      </trkpt>
      <trkpt lat="45.88364" lon="3.57239">
        <ele>649</ele>
        <time>2024-12-07T23:45:55.620Z</time>
      </trkpt>
      <trkpt lat="45.88364" lon="3.57242">
        <ele>650</ele>
        <time>2024-12-07T23:45:56.620Z</time>
      </trkpt>
      <trkpt lat="45.88364" lon="3.57245">
        <ele>650</ele>
        <time>2024-12-07T23:45:57.620Z</time>
      </trkpt>
      <trkpt lat="45.88365" lon="3.57247">
        <ele>651</ele>
        <time>2024-12-07T23:45:58.620Z</time>
      </trkpt>
      <trkpt lat="45.88364" lon="3.57249">
        <ele>651</ele>
        <time>2024-12-07T23:45:59.620Z</time>
      </trkpt>
      <trkpt lat="45.88364" lon="3.57252">
        <ele>651</ele>
        <time>2024-12-07T23:46:00.620Z</time>
      </trkpt>
      <trkpt lat="45.88364" lon="3.57254">
        <ele>651</ele>
        <time>2024-12-07T23:46:01.619Z</time>
      </trkpt>
      <trkpt lat="45.88364" lon="3.57256">
        <ele>651</ele>
        <time>2024-12-07T23:46:02.620Z</time>
      </trkpt>
      <trkpt lat="45.88364" lon="3.57259">
        <ele>651</ele>
        <time>2024-12-07T23:46:03.620Z</time>
      </trkpt>
      <trkpt lat="45.88364" lon="3.57261">
        <ele>651</ele>
        <time>2024-12-07T23:46:04.620Z</time>
      </trkpt>
      <trkpt lat="45.88364" lon="3.57264">
        <ele>651</ele>
        <time>2024-12-07T23:46:05.619Z</time>
      </trkpt>
      <trkpt lat="45.88364" lon="3.57267">
        <ele>651</ele>
        <time>2024-12-07T23:46:06.619Z</time>
      </trkpt>
      <trkpt lat="45.88364" lon="3.5727">
        <ele>651</ele>
        <time>2024-12-07T23:46:07.619Z</time>
      </trkpt>
      <trkpt lat="45.88364" lon="3.57273">
        <ele>650</ele>
        <time>2024-12-07T23:46:08.619Z</time>
      </trkpt>
      <trkpt lat="45.88363" lon="3.57276">
        <ele>649</ele>
        <time>2024-12-07T23:46:09.619Z</time>
      </trkpt>
      <trkpt lat="45.88363" lon="3.57279">
        <ele>649</ele>
        <time>2024-12-07T23:46:10.619Z</time>
      </trkpt>
      <trkpt lat="45.88363" lon="3.57281">
        <ele>649</ele>
        <time>2024-12-07T23:46:11.620Z</time>
      </trkpt>
      <trkpt lat="45.88363" lon="3.57284">
        <ele>649</ele>
        <time>2024-12-07T23:46:12.620Z</time>
      </trkpt>
      <trkpt lat="45.88362" lon="3.57286">
        <ele>649</ele>
        <time>2024-12-07T23:46:13.619Z</time>
      </trkpt>
      <trkpt lat="45.88362" lon="3.57289">
        <ele>649</ele>
        <time>2024-12-07T23:46:14.620Z</time>
      </trkpt>
      <trkpt lat="45.88362" lon="3.57292">
        <ele>649</ele>
        <time>2024-12-07T23:46:15.619Z</time>
      </trkpt>
      <trkpt lat="45.88362" lon="3.57294">
        <ele>649</ele>
        <time>2024-12-07T23:46:16.620Z</time>
      </trkpt>
      <trkpt lat="45.88362" lon="3.57297">
        <ele>649</ele>
        <time>2024-12-07T23:46:17.620Z</time>
      </trkpt>
      <trkpt lat="45.88363" lon="3.573">
        <ele>649</ele>
        <time>2024-12-07T23:46:18.620Z</time>
      </trkpt>
      <trkpt lat="45.88362" lon="3.57302">
        <ele>649</ele>
        <time>2024-12-07T23:46:19.620Z</time>
      </trkpt>
      <trkpt lat="45.88362" lon="3.57304">
        <ele>649</ele>
        <time>2024-12-07T23:46:20.620Z</time>
      </trkpt>
      <trkpt lat="45.88362" lon="3.57307">
        <ele>649</ele>
        <time>2024-12-07T23:46:21.620Z</time>
      </trkpt>
      <trkpt lat="45.88361" lon="3.57309">
        <ele>650</ele>
        <time>2024-12-07T23:46:22.620Z</time>
      </trkpt>
      <trkpt lat="45.88361" lon="3.57311">
        <ele>650</ele>
        <time>2024-12-07T23:46:23.620Z</time>
      </trkpt>
      <trkpt lat="45.88361" lon="3.57314">
        <ele>650</ele>
        <time>2024-12-07T23:46:24.619Z</time>
      </trkpt>
      <trkpt lat="45.8836" lon="3.57316">
        <ele>650</ele>
        <time>2024-12-07T23:46:25.620Z</time>
      </trkpt>
      <trkpt lat="45.8836" lon="3.57319">
        <ele>649</ele>
        <time>2024-12-07T23:46:26.620Z</time>
      </trkpt>
      <trkpt lat="45.8836" lon="3.57322">
        <ele>649</ele>
        <time>2024-12-07T23:46:27.620Z</time>
      </trkpt>
      <trkpt lat="45.8836" lon="3.57324">
        <ele>650</ele>
        <time>2024-12-07T23:46:28.620Z</time>
      </trkpt>
      <trkpt lat="45.8836" lon="3.57327">
        <ele>650</ele>
        <time>2024-12-07T23:46:29.620Z</time>
      </trkpt>
      <trkpt lat="45.88361" lon="3.5733">
        <ele>650</ele>
        <time>2024-12-07T23:46:30.620Z</time>
      </trkpt>
      <trkpt lat="45.88361" lon="3.57333">
        <ele>650</ele>
        <time>2024-12-07T23:46:31.620Z</time>
      </trkpt>
      <trkpt lat="45.88361" lon="3.57336">
        <ele>650</ele>
        <time>2024-12-07T23:46:32.620Z</time>
      </trkpt>
      <trkpt lat="45.88361" lon="3.57339">
        <ele>650</ele>
        <time>2024-12-07T23:46:33.620Z</time>
      </trkpt>
      <trkpt lat="45.88361" lon="3.57341">
        <ele>650</ele>
        <time>2024-12-07T23:46:34.619Z</time>
      </trkpt>
      <trkpt lat="45.88361" lon="3.57344">
        <ele>650</ele>
        <time>2024-12-07T23:46:35.620Z</time>
      </trkpt>
      <trkpt lat="45.88361" lon="3.57347">
        <ele>651</ele>
        <time>2024-12-07T23:46:36.619Z</time>
      </trkpt>
      <trkpt lat="45.8836" lon="3.57349">
        <ele>651</ele>
        <time>2024-12-07T23:46:37.619Z</time>
      </trkpt>
      <trkpt lat="45.8836" lon="3.57352">
        <ele>651</ele>
        <time>2024-12-07T23:46:38.619Z</time>
      </trkpt>
      <trkpt lat="45.88359" lon="3.57354">
        <ele>651</ele>
        <time>2024-12-07T23:46:39.620Z</time>
      </trkpt>
      <trkpt lat="45.8836" lon="3.57357">
        <ele>650</ele>
        <time>2024-12-07T23:46:40.619Z</time>
      </trkpt>
      <trkpt lat="45.8836" lon="3.5736">
        <ele>649</ele>
        <time>2024-12-07T23:46:41.620Z</time>
      </trkpt>
      <trkpt lat="45.8836" lon="3.57363">
        <ele>649</ele>
        <time>2024-12-07T23:46:42.619Z</time>
      </trkpt>
      <trkpt lat="45.88361" lon="3.57366">
        <ele>649</ele>
        <time>2024-12-07T23:46:43.620Z</time>
      </trkpt>
      <trkpt lat="45.88361" lon="3.57369">
        <ele>648</ele>
        <time>2024-12-07T23:46:44.620Z</time>
      </trkpt>
      <trkpt lat="45.88361" lon="3.57372">
        <ele>648</ele>
        <time>2024-12-07T23:46:45.619Z</time>
      </trkpt>
      <trkpt lat="45.88362" lon="3.57376">
        <ele>648</ele>
        <time>2024-12-07T23:46:46.619Z</time>
      </trkpt>
      <trkpt lat="45.88363" lon="3.57379">
        <ele>648</ele>
        <time>2024-12-07T23:46:47.619Z</time>
      </trkpt>
      <trkpt lat="45.88363" lon="3.57382">
        <ele>648</ele>
        <time>2024-12-07T23:46:48.620Z</time>
      </trkpt>
      <trkpt lat="45.88363" lon="3.57386">
        <ele>648</ele>
        <time>2024-12-07T23:46:49.619Z</time>
      </trkpt>
      <trkpt lat="45.88363" lon="3.57389">
        <ele>649</ele>
        <time>2024-12-07T23:46:50.619Z</time>
      </trkpt>
      <trkpt lat="45.88363" lon="3.57392">
        <ele>649</ele>
        <time>2024-12-07T23:46:51.620Z</time>
      </trkpt>
      <trkpt lat="45.88363" lon="3.57395">
        <ele>650</ele>
        <time>2024-12-07T23:46:52.619Z</time>
      </trkpt>
      <trkpt lat="45.88363" lon="3.57397">
        <ele>650</ele>
        <time>2024-12-07T23:46:53.620Z</time>
      </trkpt>
      <trkpt lat="45.88363" lon="3.574">
        <ele>650</ele>
        <time>2024-12-07T23:46:54.620Z</time>
      </trkpt>
      <trkpt lat="45.88363" lon="3.57402">
        <ele>650</ele>
        <time>2024-12-07T23:46:55.620Z</time>
      </trkpt>
      <trkpt lat="45.88363" lon="3.57405">
        <ele>651</ele>
        <time>2024-12-07T23:46:56.620Z</time>
      </trkpt>
      <trkpt lat="45.88363" lon="3.57407">
        <ele>650</ele>
        <time>2024-12-07T23:46:57.619Z</time>
      </trkpt>
      <trkpt lat="45.88363" lon="3.5741">
        <ele>650</ele>
        <time>2024-12-07T23:46:58.619Z</time>
      </trkpt>
      <trkpt lat="45.88362" lon="3.57413">
        <ele>650</ele>
        <time>2024-12-07T23:46:59.619Z</time>
      </trkpt>
      <trkpt lat="45.88362" lon="3.57416">
        <ele>650</ele>
        <time>2024-12-07T23:47:00.620Z</time>
      </trkpt>
      <trkpt lat="45.88362" lon="3.57418">
        <ele>650</ele>
        <time>2024-12-07T23:47:01.619Z</time>
      </trkpt>
      <trkpt lat="45.88361" lon="3.57421">
        <ele>650</ele>
        <time>2024-12-07T23:47:02.620Z</time>
      </trkpt>
      <trkpt lat="45.88361" lon="3.57423">
        <ele>650</ele>
        <time>2024-12-07T23:47:03.620Z</time>
      </trkpt>
      <trkpt lat="45.8836" lon="3.57426">
        <ele>650</ele>
        <time>2024-12-07T23:47:04.620Z</time>
      </trkpt>
      <trkpt lat="45.88359" lon="3.57429">
        <ele>651</ele>
        <time>2024-12-07T23:47:05.620Z</time>
      </trkpt>
      <trkpt lat="45.88358" lon="3.57432">
        <ele>651</ele>
        <time>2024-12-07T23:47:06.620Z</time>
      </trkpt>
      <trkpt lat="45.88357" lon="3.57434">
        <ele>651</ele>
        <time>2024-12-07T23:47:07.620Z</time>
      </trkpt>
      <trkpt lat="45.88356" lon="3.57437">
        <ele>651</ele>
        <time>2024-12-07T23:47:08.619Z</time>
      </trkpt>
      <trkpt lat="45.88355" lon="3.57439">
        <ele>651</ele>
        <time>2024-12-07T23:47:09.619Z</time>
      </trkpt>
      <trkpt lat="45.88354" lon="3.57441">
        <ele>651</ele>
        <time>2024-12-07T23:47:10.619Z</time>
      </trkpt>
      <trkpt lat="45.88353" lon="3.57443">
        <ele>651</ele>
        <time>2024-12-07T23:47:11.619Z</time>
      </trkpt>
      <trkpt lat="45.88352" lon="3.57446">
        <ele>652</ele>
        <time>2024-12-07T23:47:12.619Z</time>
      </trkpt>
      <trkpt lat="45.88351" lon="3.57449">
        <ele>652</ele>
        <time>2024-12-07T23:47:13.619Z</time>
      </trkpt>
      <trkpt lat="45.8835" lon="3.57451">
        <ele>652</ele>
        <time>2024-12-07T23:47:14.619Z</time>
      </trkpt>
      <trkpt lat="45.88349" lon="3.57453">
        <ele>653</ele>
        <time>2024-12-07T23:47:15.619Z</time>
      </trkpt>
      <trkpt lat="45.88347" lon="3.57455">
        <ele>653</ele>
        <time>2024-12-07T23:47:16.619Z</time>
      </trkpt>
      <trkpt lat="45.88346" lon="3.57456">
        <ele>653</ele>
        <time>2024-12-07T23:47:17.619Z</time>
      </trkpt>
      <trkpt lat="45.88344" lon="3.57458">
        <ele>653</ele>
        <time>2024-12-07T23:47:18.620Z</time>
      </trkpt>
      <trkpt lat="45.88342" lon="3.57461">
        <ele>653</ele>
        <time>2024-12-07T23:47:19.620Z</time>
      </trkpt>
      <trkpt lat="45.8834" lon="3.57463">
        <ele>653</ele>
        <time>2024-12-07T23:47:20.619Z</time>
      </trkpt>
      <trkpt lat="45.88339" lon="3.57465">
        <ele>653</ele>
        <time>2024-12-07T23:47:21.619Z</time>
      </trkpt>
      <trkpt lat="45.88338" lon="3.57468">
        <ele>653</ele>
        <time>2024-12-07T23:47:22.620Z</time>
      </trkpt>
      <trkpt lat="45.88337" lon="3.5747">
        <ele>653</ele>
        <time>2024-12-07T23:47:23.619Z</time>
      </trkpt>
      <trkpt lat="45.88336" lon="3.57472">
        <ele>653</ele>
        <time>2024-12-07T23:47:24.620Z</time>
      </trkpt>
      <trkpt lat="45.88334" lon="3.57474">
        <ele>653</ele>
        <time>2024-12-07T23:47:25.620Z</time>
      </trkpt>
      <trkpt lat="45.88332" lon="3.57475">
        <ele>653</ele>
        <time>2024-12-07T23:47:26.619Z</time>
      </trkpt>
      <trkpt lat="45.8833" lon="3.57476">
        <ele>653</ele>
        <time>2024-12-07T23:47:27.619Z</time>
      </trkpt>
      <trkpt lat="45.88329" lon="3.57478">
        <ele>653</ele>
        <time>2024-12-07T23:47:28.620Z</time>
      </trkpt>
      <trkpt lat="45.88329" lon="3.57481">
        <ele>653</ele>
        <time>2024-12-07T23:47:29.619Z</time>
      </trkpt>
      <trkpt lat="45.88328" lon="3.57484">
        <ele>653</ele>
        <time>2024-12-07T23:47:30.620Z</time>
      </trkpt>
      <trkpt lat="45.88327" lon="3.57485">
        <ele>653</ele>
        <time>2024-12-07T23:47:31.620Z</time>
      </trkpt>
      <trkpt lat="45.88325" lon="3.57486">
        <ele>653</ele>
        <time>2024-12-07T23:47:32.619Z</time>
      </trkpt>
      <trkpt lat="45.88322" lon="3.57488">
        <ele>653</ele>
        <time>2024-12-07T23:47:33.620Z</time>
      </trkpt>
      <trkpt lat="45.88321" lon="3.57489">
        <ele>653</ele>
        <time>2024-12-07T23:47:34.619Z</time>
      </trkpt>
      <trkpt lat="45.88319" lon="3.5749">
        <ele>653</ele>
        <time>2024-12-07T23:47:35.620Z</time>
      </trkpt>
      <trkpt lat="45.88317" lon="3.57492">
        <ele>653</ele>
        <time>2024-12-07T23:47:36.620Z</time>
      </trkpt>
      <trkpt lat="45.88315" lon="3.57493">
        <ele>653</ele>
        <time>2024-12-07T23:47:37.620Z</time>
      </trkpt>
      <trkpt lat="45.88314" lon="3.57494">
        <ele>653</ele>
        <time>2024-12-07T23:47:38.620Z</time>
      </trkpt>
      <trkpt lat="45.88313" lon="3.57496">
        <ele>653</ele>
        <time>2024-12-07T23:47:39.620Z</time>
      </trkpt>
      <trkpt lat="45.88311" lon="3.57498">
        <ele>654</ele>
        <time>2024-12-07T23:47:40.619Z</time>
      </trkpt>
      <trkpt lat="45.88309" lon="3.57499">
        <ele>654</ele>
        <time>2024-12-07T23:47:41.620Z</time>
      </trkpt>
      <trkpt lat="45.88307" lon="3.575">
        <ele>654</ele>
        <time>2024-12-07T23:47:42.620Z</time>
      </trkpt>
      <trkpt lat="45.88305" lon="3.57502">
        <ele>654</ele>
        <time>2024-12-07T23:47:43.620Z</time>
      </trkpt>
      <trkpt lat="45.88304" lon="3.57503">
        <ele>655</ele>
        <time>2024-12-07T23:47:44.620Z</time>
      </trkpt>
      <trkpt lat="45.88302" lon="3.57504">
        <ele>655</ele>
        <time>2024-12-07T23:47:45.619Z</time>
      </trkpt>
      <trkpt lat="45.883" lon="3.57505">
        <ele>655</ele>
        <time>2024-12-07T23:47:46.620Z</time>
      </trkpt>
      <trkpt lat="45.88299" lon="3.57506">
        <ele>655</ele>
        <time>2024-12-07T23:47:47.620Z</time>
      </trkpt>
      <trkpt lat="45.88297" lon="3.57507">
        <ele>655</ele>
        <time>2024-12-07T23:47:48.620Z</time>
      </trkpt>
      <trkpt lat="45.88295" lon="3.57508">
        <ele>655</ele>
        <time>2024-12-07T23:47:49.619Z</time>
      </trkpt>
      <trkpt lat="45.88293" lon="3.5751">
        <ele>655</ele>
        <time>2024-12-07T23:47:50.619Z</time>
      </trkpt>
      <trkpt lat="45.88291" lon="3.57511">
        <ele>655</ele>
        <time>2024-12-07T23:47:51.620Z</time>
      </trkpt>
      <trkpt lat="45.88289" lon="3.57512">
        <ele>654</ele>
        <time>2024-12-07T23:47:52.619Z</time>
      </trkpt>
      <trkpt lat="45.88288" lon="3.57513">
        <ele>654</ele>
        <time>2024-12-07T23:47:53.619Z</time>
      </trkpt>
      <trkpt lat="45.88286" lon="3.57514">
        <ele>653</ele>
        <time>2024-12-07T23:47:54.620Z</time>
      </trkpt>
      <trkpt lat="45.88284" lon="3.57516">
        <ele>653</ele>
        <time>2024-12-07T23:47:55.620Z</time>
      </trkpt>
      <trkpt lat="45.88282" lon="3.57517">
        <ele>653</ele>
        <time>2024-12-07T23:47:56.619Z</time>
      </trkpt>
      <trkpt lat="45.88281" lon="3.57518">
        <ele>652</ele>
        <time>2024-12-07T23:47:57.620Z</time>
      </trkpt>
      <trkpt lat="45.88279" lon="3.5752">
        <ele>652</ele>
        <time>2024-12-07T23:47:58.620Z</time>
      </trkpt>
      <trkpt lat="45.88277" lon="3.57521">
        <ele>652</ele>
        <time>2024-12-07T23:47:59.620Z</time>
      </trkpt>
      <trkpt lat="45.88275" lon="3.57523">
        <ele>652</ele>
        <time>2024-12-07T23:48:00.620Z</time>
      </trkpt>
      <trkpt lat="45.88274" lon="3.57524">
        <ele>652</ele>
        <time>2024-12-07T23:48:01.619Z</time>
      </trkpt>
      <trkpt lat="45.88272" lon="3.57525">
        <ele>652</ele>
        <time>2024-12-07T23:48:02.619Z</time>
      </trkpt>
      <trkpt lat="45.8827" lon="3.57526">
        <ele>652</ele>
        <time>2024-12-07T23:48:03.620Z</time>
      </trkpt>
      <trkpt lat="45.88268" lon="3.57527">
        <ele>652</ele>
        <time>2024-12-07T23:48:04.619Z</time>
      </trkpt>
      <trkpt lat="45.88267" lon="3.57528">
        <ele>653</ele>
        <time>2024-12-07T23:48:05.619Z</time>
      </trkpt>
      <trkpt lat="45.88265" lon="3.57529">
        <ele>653</ele>
        <time>2024-12-07T23:48:06.619Z</time>
      </trkpt>
      <trkpt lat="45.88263" lon="3.5753">
        <ele>653</ele>
        <time>2024-12-07T23:48:07.619Z</time>
      </trkpt>
      <trkpt lat="45.88262" lon="3.57531">
        <ele>654</ele>
        <time>2024-12-07T23:48:08.619Z</time>
      </trkpt>
      <trkpt lat="45.8826" lon="3.57533">
        <ele>654</ele>
        <time>2024-12-07T23:48:09.620Z</time>
      </trkpt>
      <trkpt lat="45.88259" lon="3.57534">
        <ele>654</ele>
        <time>2024-12-07T23:48:10.620Z</time>
      </trkpt>
      <trkpt lat="45.88258" lon="3.57535">
        <ele>654</ele>
        <time>2024-12-07T23:48:11.619Z</time>
      </trkpt>
      <trkpt lat="45.88258" lon="3.57537">
        <ele>654</ele>
        <time>2024-12-07T23:48:12.619Z</time>
      </trkpt>
      <trkpt lat="45.88257" lon="3.57539">
        <ele>654</ele>
        <time>2024-12-07T23:48:13.619Z</time>
      </trkpt>
      <trkpt lat="45.88258" lon="3.57542">
        <ele>654</ele>
        <time>2024-12-07T23:48:14.619Z</time>
      </trkpt>
      <trkpt lat="45.88259" lon="3.57544">
        <ele>654</ele>
        <time>2024-12-07T23:48:15.620Z</time>
      </trkpt>
      <trkpt lat="45.8826" lon="3.57546">
        <ele>654</ele>
        <time>2024-12-07T23:48:16.620Z</time>
      </trkpt>
      <trkpt lat="45.88261" lon="3.57549">
        <ele>654</ele>
        <time>2024-12-07T23:48:17.619Z</time>
      </trkpt>
      <trkpt lat="45.88262" lon="3.57552">
        <ele>654</ele>
        <time>2024-12-07T23:48:18.619Z</time>
      </trkpt>
      <trkpt lat="45.88263" lon="3.57554">
        <ele>654</ele>
        <time>2024-12-07T23:48:19.620Z</time>
      </trkpt>
      <trkpt lat="45.88264" lon="3.57557">
        <ele>654</ele>
        <time>2024-12-07T23:48:20.620Z</time>
      </trkpt>
      <trkpt lat="45.88265" lon="3.5756">
        <ele>653</ele>
        <time>2024-12-07T23:48:21.620Z</time>
      </trkpt>
      <trkpt lat="45.88266" lon="3.57562">
        <ele>653</ele>
        <time>2024-12-07T23:48:22.620Z</time>
      </trkpt>
      <trkpt lat="45.88267" lon="3.57564">
        <ele>653</ele>
        <time>2024-12-07T23:48:23.619Z</time>
      </trkpt>
      <trkpt lat="45.88268" lon="3.57567">
        <ele>653</ele>
        <time>2024-12-07T23:48:24.620Z</time>
      </trkpt>
      <trkpt lat="45.88269" lon="3.57569">
        <ele>652</ele>
        <time>2024-12-07T23:48:25.620Z</time>
      </trkpt>
      <trkpt lat="45.8827" lon="3.57572">
        <ele>652</ele>
        <time>2024-12-07T23:48:26.619Z</time>
      </trkpt>
      <trkpt lat="45.8827" lon="3.57575">
        <ele>652</ele>
        <time>2024-12-07T23:48:27.619Z</time>
      </trkpt>
      <trkpt lat="45.88271" lon="3.57577">
        <ele>653</ele>
        <time>2024-12-07T23:48:28.620Z</time>
      </trkpt>
      <trkpt lat="45.88271" lon="3.5758">
        <ele>653</ele>
        <time>2024-12-07T23:48:29.619Z</time>
      </trkpt>
      <trkpt lat="45.88271" lon="3.57582">
        <ele>653</ele>
        <time>2024-12-07T23:48:30.620Z</time>
      </trkpt>
      <trkpt lat="45.88272" lon="3.57585">
        <ele>653</ele>
        <time>2024-12-07T23:48:31.619Z</time>
      </trkpt>
      <trkpt lat="45.88273" lon="3.57587">
        <ele>653</ele>
        <time>2024-12-07T23:48:32.619Z</time>
      </trkpt>
      <trkpt lat="45.88273" lon="3.5759">
        <ele>653</ele>
        <time>2024-12-07T23:48:33.620Z</time>
      </trkpt>
      <trkpt lat="45.88274" lon="3.57592">
        <ele>653</ele>
        <time>2024-12-07T23:48:34.620Z</time>
      </trkpt>
      <trkpt lat="45.88274" lon="3.57595">
        <ele>653</ele>
        <time>2024-12-07T23:48:35.619Z</time>
      </trkpt>
      <trkpt lat="45.88275" lon="3.57597">
        <ele>653</ele>
        <time>2024-12-07T23:48:36.620Z</time>
      </trkpt>
      <trkpt lat="45.88275" lon="3.576">
        <ele>653</ele>
        <time>2024-12-07T23:48:37.619Z</time>
      </trkpt>
      <trkpt lat="45.88276" lon="3.57602">
        <ele>652</ele>
        <time>2024-12-07T23:48:38.619Z</time>
      </trkpt>
      <trkpt lat="45.88276" lon="3.57605">
        <ele>652</ele>
        <time>2024-12-07T23:48:39.619Z</time>
      </trkpt>
      <trkpt lat="45.88277" lon="3.57608">
        <ele>652</ele>
        <time>2024-12-07T23:48:40.620Z</time>
      </trkpt>
      <trkpt lat="45.88277" lon="3.57611">
        <ele>652</ele>
        <time>2024-12-07T23:48:41.620Z</time>
      </trkpt>
      <trkpt lat="45.88278" lon="3.57614">
        <ele>652</ele>
        <time>2024-12-07T23:48:42.620Z</time>
      </trkpt>
      <trkpt lat="45.88278" lon="3.57617">
        <ele>652</ele>
        <time>2024-12-07T23:48:43.620Z</time>
      </trkpt>
      <trkpt lat="45.88279" lon="3.5762">
        <ele>652</ele>
        <time>2024-12-07T23:48:44.619Z</time>
      </trkpt>
      <trkpt lat="45.88279" lon="3.57622">
        <ele>652</ele>
        <time>2024-12-07T23:48:45.619Z</time>
      </trkpt>
      <trkpt lat="45.8828" lon="3.57625">
        <ele>652</ele>
        <time>2024-12-07T23:48:46.619Z</time>
      </trkpt>
      <trkpt lat="45.88281" lon="3.57628">
        <ele>652</ele>
        <time>2024-12-07T23:48:47.619Z</time>
      </trkpt>
      <trkpt lat="45.88281" lon="3.57631">
        <ele>652</ele>
        <time>2024-12-07T23:48:48.620Z</time>
      </trkpt>
      <trkpt lat="45.88282" lon="3.57634">
        <ele>652</ele>
        <time>2024-12-07T23:48:49.619Z</time>
      </trkpt>
      <trkpt lat="45.88282" lon="3.57636">
        <ele>651</ele>
        <time>2024-12-07T23:48:50.619Z</time>
      </trkpt>
      <trkpt lat="45.88283" lon="3.57639">
        <ele>651</ele>
        <time>2024-12-07T23:48:51.619Z</time>
      </trkpt>
      <trkpt lat="45.88284" lon="3.57641">
        <ele>651</ele>
        <time>2024-12-07T23:48:52.620Z</time>
      </trkpt>
      <trkpt lat="45.88285" lon="3.57643">
        <ele>651</ele>
        <time>2024-12-07T23:48:53.620Z</time>
      </trkpt>
      <trkpt lat="45.88285" lon="3.57646">
        <ele>651</ele>
        <time>2024-12-07T23:48:54.619Z</time>
      </trkpt>
      <trkpt lat="45.88286" lon="3.57649">
        <ele>651</ele>
        <time>2024-12-07T23:48:55.620Z</time>
      </trkpt>
      <trkpt lat="45.88286" lon="3.57652">
        <ele>651</ele>
        <time>2024-12-07T23:48:56.620Z</time>
      </trkpt>
      <trkpt lat="45.88287" lon="3.57655">
        <ele>651</ele>
        <time>2024-12-07T23:48:57.620Z</time>
      </trkpt>
      <trkpt lat="45.88288" lon="3.57657">
        <ele>651</ele>
        <time>2024-12-07T23:48:58.620Z</time>
      </trkpt>
      <trkpt lat="45.88288" lon="3.57659">
        <ele>651</ele>
        <time>2024-12-07T23:48:59.619Z</time>
      </trkpt>
      <trkpt lat="45.88289" lon="3.57662">
        <ele>651</ele>
        <time>2024-12-07T23:49:00.620Z</time>
      </trkpt>
      <trkpt lat="45.8829" lon="3.57664">
        <ele>650</ele>
        <time>2024-12-07T23:49:01.620Z</time>
      </trkpt>
      <trkpt lat="45.88291" lon="3.57667">
        <ele>650</ele>
        <time>2024-12-07T23:49:02.620Z</time>
      </trkpt>
      <trkpt lat="45.88292" lon="3.5767">
        <ele>650</ele>
        <time>2024-12-07T23:49:03.619Z</time>
      </trkpt>
      <trkpt lat="45.88293" lon="3.57673">
        <ele>650</ele>
        <time>2024-12-07T23:49:04.619Z</time>
      </trkpt>
      <trkpt lat="45.88294" lon="3.57675">
        <ele>650</ele>
        <time>2024-12-07T23:49:05.620Z</time>
      </trkpt>
      <trkpt lat="45.88295" lon="3.57678">
        <ele>650</ele>
        <time>2024-12-07T23:49:06.620Z</time>
      </trkpt>
      <trkpt lat="45.88296" lon="3.5768">
        <ele>651</ele>
        <time>2024-12-07T23:49:07.619Z</time>
      </trkpt>
      <trkpt lat="45.88297" lon="3.57683">
        <ele>651</ele>
        <time>2024-12-07T23:49:08.619Z</time>
      </trkpt>
      <trkpt lat="45.88297" lon="3.57685">
        <ele>651</ele>
        <time>2024-12-07T23:49:09.620Z</time>
      </trkpt>
      <trkpt lat="45.88298" lon="3.57687">
        <ele>651</ele>
        <time>2024-12-07T23:49:10.619Z</time>
      </trkpt>
      <trkpt lat="45.88299" lon="3.5769">
        <ele>651</ele>
        <time>2024-12-07T23:49:11.619Z</time>
      </trkpt>
      <trkpt lat="45.883" lon="3.57692">
        <ele>651</ele>
        <time>2024-12-07T23:49:12.619Z</time>
      </trkpt>
      <trkpt lat="45.88301" lon="3.57695">
        <ele>651</ele>
        <time>2024-12-07T23:49:13.620Z</time>
      </trkpt>
      <trkpt lat="45.88303" lon="3.57698">
        <ele>652</ele>
        <time>2024-12-07T23:49:14.620Z</time>
      </trkpt>
      <trkpt lat="45.88304" lon="3.57701">
        <ele>652</ele>
        <time>2024-12-07T23:49:15.619Z</time>
      </trkpt>
      <trkpt lat="45.88305" lon="3.57703">
        <ele>652</ele>
        <time>2024-12-07T23:49:16.619Z</time>
      </trkpt>
      <trkpt lat="45.88306" lon="3.57705">
        <ele>652</ele>
        <time>2024-12-07T23:49:17.620Z</time>
      </trkpt>
      <trkpt lat="45.88307" lon="3.57708">
        <ele>652</ele>
        <time>2024-12-07T23:49:18.619Z</time>
      </trkpt>
      <trkpt lat="45.88308" lon="3.5771">
        <ele>652</ele>
        <time>2024-12-07T23:49:19.620Z</time>
      </trkpt>
      <trkpt lat="45.88309" lon="3.57712">
        <ele>652</ele>
        <time>2024-12-07T23:49:20.619Z</time>
      </trkpt>
      <trkpt lat="45.88311" lon="3.57715">
        <ele>652</ele>
        <time>2024-12-07T23:49:21.619Z</time>
      </trkpt>
      <trkpt lat="45.88312" lon="3.57717">
        <ele>651</ele>
        <time>2024-12-07T23:49:22.619Z</time>
      </trkpt>
      <trkpt lat="45.88314" lon="3.57719">
        <ele>651</ele>
        <time>2024-12-07T23:49:23.619Z</time>
      </trkpt>
      <trkpt lat="45.88315" lon="3.57722">
        <ele>651</ele>
        <time>2024-12-07T23:49:24.620Z</time>
      </trkpt>
      <trkpt lat="45.88316" lon="3.57724">
        <ele>651</ele>
        <time>2024-12-07T23:49:25.619Z</time>
      </trkpt>
      <trkpt lat="45.88317" lon="3.57726">
        <ele>651</ele>
        <time>2024-12-07T23:49:26.620Z</time>
      </trkpt>
      <trkpt lat="45.88318" lon="3.57729">
        <ele>651</ele>
        <time>2024-12-07T23:49:27.619Z</time>
      </trkpt>
      <trkpt lat="45.88319" lon="3.57731">
        <ele>651</ele>
        <time>2024-12-07T23:49:28.619Z</time>
      </trkpt>
      <trkpt lat="45.8832" lon="3.57734">
        <ele>650</ele>
        <time>2024-12-07T23:49:29.620Z</time>
      </trkpt>
      <trkpt lat="45.88321" lon="3.57736">
        <ele>650</ele>
        <time>2024-12-07T23:49:30.619Z</time>
      </trkpt>
      <trkpt lat="45.88322" lon="3.57738">
        <ele>650</ele>
        <time>2024-12-07T23:49:31.619Z</time>
      </trkpt>
      <trkpt lat="45.88323" lon="3.57741">
        <ele>650</ele>
        <time>2024-12-07T23:49:32.620Z</time>
      </trkpt>
      <trkpt lat="45.88324" lon="3.57743">
        <ele>649</ele>
        <time>2024-12-07T23:49:33.620Z</time>
      </trkpt>
      <trkpt lat="45.88325" lon="3.57745">
        <ele>648</ele>
        <time>2024-12-07T23:49:34.620Z</time>
      </trkpt>
      <trkpt lat="45.88326" lon="3.57747">
        <ele>647</ele>
        <time>2024-12-07T23:49:35.620Z</time>
      </trkpt>
      <trkpt lat="45.88327" lon="3.5775">
        <ele>647</ele>
        <time>2024-12-07T23:49:36.619Z</time>
      </trkpt>
      <trkpt lat="45.88328" lon="3.57752">
        <ele>647</ele>
        <time>2024-12-07T23:49:37.619Z</time>
      </trkpt>
      <trkpt lat="45.88329" lon="3.57754">
        <ele>647</ele>
        <time>2024-12-07T23:49:38.620Z</time>
      </trkpt>
      <trkpt lat="45.8833" lon="3.57757">
        <ele>647</ele>
        <time>2024-12-07T23:49:39.620Z</time>
      </trkpt>
      <trkpt lat="45.88331" lon="3.57759">
        <ele>647</ele>
        <time>2024-12-07T23:49:40.619Z</time>
      </trkpt>
      <trkpt lat="45.88332" lon="3.57762">
        <ele>647</ele>
        <time>2024-12-07T23:49:41.619Z</time>
      </trkpt>
      <trkpt lat="45.88333" lon="3.57765">
        <ele>647</ele>
        <time>2024-12-07T23:49:42.619Z</time>
      </trkpt>
      <trkpt lat="45.88334" lon="3.57767">
        <ele>646</ele>
        <time>2024-12-07T23:49:43.619Z</time>
      </trkpt>
      <trkpt lat="45.88335" lon="3.5777">
        <ele>646</ele>
        <time>2024-12-07T23:49:44.619Z</time>
      </trkpt>
      <trkpt lat="45.88335" lon="3.57772">
        <ele>645</ele>
        <time>2024-12-07T23:49:45.620Z</time>
      </trkpt>
      <trkpt lat="45.88336" lon="3.57774">
        <ele>645</ele>
        <time>2024-12-07T23:49:46.620Z</time>
      </trkpt>
      <trkpt lat="45.88337" lon="3.57777">
        <ele>645</ele>
        <time>2024-12-07T23:49:47.620Z</time>
      </trkpt>
      <trkpt lat="45.88338" lon="3.57779">
        <ele>645</ele>
        <time>2024-12-07T23:49:48.619Z</time>
      </trkpt>
      <trkpt lat="45.88339" lon="3.57781">
        <ele>644</ele>
        <time>2024-12-07T23:49:49.620Z</time>
      </trkpt>
      <trkpt lat="45.8834" lon="3.57784">
        <ele>644</ele>
        <time>2024-12-07T23:49:50.619Z</time>
      </trkpt>
      <trkpt lat="45.88341" lon="3.57787">
        <ele>643</ele>
        <time>2024-12-07T23:49:51.619Z</time>
      </trkpt>
      <trkpt lat="45.88341" lon="3.57789">
        <ele>642</ele>
        <time>2024-12-07T23:49:52.619Z</time>
      </trkpt>
      <trkpt lat="45.88342" lon="3.57791">
        <ele>642</ele>
        <time>2024-12-07T23:49:53.620Z</time>
      </trkpt>
      <trkpt lat="45.88342" lon="3.57793">
        <ele>642</ele>
        <time>2024-12-07T23:49:54.620Z</time>
      </trkpt>
      <trkpt lat="45.88343" lon="3.57795">
        <ele>642</ele>
        <time>2024-12-07T23:49:55.619Z</time>
      </trkpt>
      <trkpt lat="45.88344" lon="3.57797">
        <ele>642</ele>
        <time>2024-12-07T23:49:56.620Z</time>
      </trkpt>
      <trkpt lat="45.88345" lon="3.578">
        <ele>642</ele>
        <time>2024-12-07T23:49:57.619Z</time>
      </trkpt>
      <trkpt lat="45.88347" lon="3.57802">
        <ele>642</ele>
        <time>2024-12-07T23:49:58.619Z</time>
      </trkpt>
      <trkpt lat="45.88348" lon="3.57805">
        <ele>642</ele>
        <time>2024-12-07T23:49:59.620Z</time>
      </trkpt>
      <trkpt lat="45.88349" lon="3.57808">
        <ele>642</ele>
        <time>2024-12-07T23:50:00.620Z</time>
      </trkpt>
      <trkpt lat="45.88349" lon="3.57811">
        <ele>642</ele>
        <time>2024-12-07T23:50:01.620Z</time>
      </trkpt>
      <trkpt lat="45.8835" lon="3.57814">
        <ele>642</ele>
        <time>2024-12-07T23:50:02.619Z</time>
      </trkpt>
      <trkpt lat="45.88351" lon="3.57817">
        <ele>642</ele>
        <time>2024-12-07T23:50:03.620Z</time>
      </trkpt>
      <trkpt lat="45.88351" lon="3.57819">
        <ele>642</ele>
        <time>2024-12-07T23:50:04.619Z</time>
      </trkpt>
      <trkpt lat="45.88352" lon="3.57822">
        <ele>642</ele>
        <time>2024-12-07T23:50:05.620Z</time>
      </trkpt>
      <trkpt lat="45.88353" lon="3.57824">
        <ele>642</ele>
        <time>2024-12-07T23:50:06.619Z</time>
      </trkpt>
      <trkpt lat="45.88354" lon="3.57826">
        <ele>642</ele>
        <time>2024-12-07T23:50:07.619Z</time>
      </trkpt>
      <trkpt lat="45.88354" lon="3.57828">
        <ele>641</ele>
        <time>2024-12-07T23:50:08.619Z</time>
      </trkpt>
      <trkpt lat="45.88355" lon="3.5783">
        <ele>641</ele>
        <time>2024-12-07T23:50:09.620Z</time>
      </trkpt>
      <trkpt lat="45.88356" lon="3.57832">
        <ele>640</ele>
        <time>2024-12-07T23:50:10.619Z</time>
      </trkpt>
      <trkpt lat="45.88357" lon="3.57834">
        <ele>640</ele>
        <time>2024-12-07T23:50:11.619Z</time>
      </trkpt>
      <trkpt lat="45.88358" lon="3.57836">
        <ele>640</ele>
        <time>2024-12-07T23:50:12.619Z</time>
      </trkpt>
      <trkpt lat="45.88359" lon="3.57838">
        <ele>640</ele>
        <time>2024-12-07T23:50:13.620Z</time>
      </trkpt>
      <trkpt lat="45.8836" lon="3.5784">
        <ele>640</ele>
        <time>2024-12-07T23:50:14.619Z</time>
      </trkpt>
      <trkpt lat="45.88361" lon="3.57842">
        <ele>639</ele>
        <time>2024-12-07T23:50:15.619Z</time>
      </trkpt>
      <trkpt lat="45.88363" lon="3.57844">
        <ele>639</ele>
        <time>2024-12-07T23:50:16.619Z</time>
      </trkpt>
      <trkpt lat="45.88364" lon="3.57846">
        <ele>639</ele>
        <time>2024-12-07T23:50:17.620Z</time>
      </trkpt>
      <trkpt lat="45.88365" lon="3.57849">
        <ele>639</ele>
        <time>2024-12-07T23:50:18.620Z</time>
      </trkpt>
      <trkpt lat="45.88367" lon="3.57851">
        <ele>639</ele>
        <time>2024-12-07T23:50:19.620Z</time>
      </trkpt>
      <trkpt lat="45.88368" lon="3.57854">
        <ele>639</ele>
        <time>2024-12-07T23:50:20.619Z</time>
      </trkpt>
      <trkpt lat="45.8837" lon="3.57856">
        <ele>639</ele>
        <time>2024-12-07T23:50:21.619Z</time>
      </trkpt>
      <trkpt lat="45.88371" lon="3.57858">
        <ele>639</ele>
        <time>2024-12-07T23:50:22.620Z</time>
      </trkpt>
      <trkpt lat="45.88372" lon="3.5786">
        <ele>639</ele>
        <time>2024-12-07T23:50:23.619Z</time>
      </trkpt>
      <trkpt lat="45.88373" lon="3.57862">
        <ele>639</ele>
        <time>2024-12-07T23:50:24.619Z</time>
      </trkpt>
      <trkpt lat="45.88374" lon="3.57864">
        <ele>639</ele>
        <time>2024-12-07T23:50:25.619Z</time>
      </trkpt>
      <trkpt lat="45.88375" lon="3.57866">
        <ele>639</ele>
        <time>2024-12-07T23:50:26.619Z</time>
      </trkpt>
      <trkpt lat="45.88377" lon="3.57868">
        <ele>639</ele>
        <time>2024-12-07T23:50:27.619Z</time>
      </trkpt>
      <trkpt lat="45.88378" lon="3.5787">
        <ele>639</ele>
        <time>2024-12-07T23:50:28.620Z</time>
      </trkpt>
      <trkpt lat="45.8838" lon="3.57872">
        <ele>639</ele>
        <time>2024-12-07T23:50:29.619Z</time>
      </trkpt>
      <trkpt lat="45.88381" lon="3.57873">
        <ele>639</ele>
        <time>2024-12-07T23:50:30.619Z</time>
      </trkpt>
      <trkpt lat="45.88383" lon="3.57875">
        <ele>639</ele>
        <time>2024-12-07T23:50:31.620Z</time>
      </trkpt>
      <trkpt lat="45.88383" lon="3.57877">
        <ele>639</ele>
        <time>2024-12-07T23:50:32.620Z</time>
      </trkpt>
      <trkpt lat="45.88385" lon="3.57879">
        <ele>638</ele>
        <time>2024-12-07T23:50:33.620Z</time>
      </trkpt>
      <trkpt lat="45.88386" lon="3.57881">
        <ele>638</ele>
        <time>2024-12-07T23:50:34.619Z</time>
      </trkpt>
      <trkpt lat="45.88387" lon="3.57884">
        <ele>638</ele>
        <time>2024-12-07T23:50:35.620Z</time>
      </trkpt>
      <trkpt lat="45.88388" lon="3.57886">
        <ele>638</ele>
        <time>2024-12-07T23:50:36.620Z</time>
      </trkpt>
      <trkpt lat="45.8839" lon="3.57888">
        <ele>638</ele>
        <time>2024-12-07T23:50:37.620Z</time>
      </trkpt>
      <trkpt lat="45.88391" lon="3.5789">
        <ele>638</ele>
        <time>2024-12-07T23:50:38.619Z</time>
      </trkpt>
      <trkpt lat="45.88392" lon="3.57892">
        <ele>638</ele>
        <time>2024-12-07T23:50:39.620Z</time>
      </trkpt>
      <trkpt lat="45.88394" lon="3.57895">
        <ele>638</ele>
        <time>2024-12-07T23:50:40.619Z</time>
      </trkpt>
      <trkpt lat="45.88396" lon="3.57897">
        <ele>638</ele>
        <time>2024-12-07T23:50:41.619Z</time>
      </trkpt>
      <trkpt lat="45.88397" lon="3.57899">
        <ele>638</ele>
        <time>2024-12-07T23:50:42.619Z</time>
      </trkpt>
      <trkpt lat="45.88398" lon="3.57902">
        <ele>638</ele>
        <time>2024-12-07T23:50:43.619Z</time>
      </trkpt>
      <trkpt lat="45.88399" lon="3.57904">
        <ele>637</ele>
        <time>2024-12-07T23:50:44.619Z</time>
      </trkpt>
      <trkpt lat="45.884" lon="3.57907">
        <ele>637</ele>
        <time>2024-12-07T23:50:45.619Z</time>
      </trkpt>
      <trkpt lat="45.88401" lon="3.57909">
        <ele>637</ele>
        <time>2024-12-07T23:50:46.619Z</time>
      </trkpt>
      <trkpt lat="45.88403" lon="3.57911">
        <ele>637</ele>
        <time>2024-12-07T23:50:47.619Z</time>
      </trkpt>
      <trkpt lat="45.88404" lon="3.57913">
        <ele>637</ele>
        <time>2024-12-07T23:50:48.619Z</time>
      </trkpt>
      <trkpt lat="45.88406" lon="3.57915">
        <ele>637</ele>
        <time>2024-12-07T23:50:49.619Z</time>
      </trkpt>
      <trkpt lat="45.88408" lon="3.57917">
        <ele>637</ele>
        <time>2024-12-07T23:50:50.619Z</time>
      </trkpt>
      <trkpt lat="45.8841" lon="3.57919">
        <ele>638</ele>
        <time>2024-12-07T23:50:51.619Z</time>
      </trkpt>
      <trkpt lat="45.88411" lon="3.57921">
        <ele>637</ele>
        <time>2024-12-07T23:50:52.619Z</time>
      </trkpt>
      <trkpt lat="45.88412" lon="3.57922">
        <ele>637</ele>
        <time>2024-12-07T23:50:53.620Z</time>
      </trkpt>
      <trkpt lat="45.88413" lon="3.57924">
        <ele>637</ele>
        <time>2024-12-07T23:50:54.619Z</time>
      </trkpt>
      <trkpt lat="45.88415" lon="3.57926">
        <ele>636</ele>
        <time>2024-12-07T23:50:55.620Z</time>
      </trkpt>
      <trkpt lat="45.88416" lon="3.57928">
        <ele>636</ele>
        <time>2024-12-07T23:50:56.620Z</time>
      </trkpt>
      <trkpt lat="45.88417" lon="3.57931">
        <ele>636</ele>
        <time>2024-12-07T23:50:57.619Z</time>
      </trkpt>
      <trkpt lat="45.88418" lon="3.57932">
        <ele>636</ele>
        <time>2024-12-07T23:50:58.619Z</time>
      </trkpt>
      <trkpt lat="45.8842" lon="3.57935">
        <ele>636</ele>
        <time>2024-12-07T23:50:59.619Z</time>
      </trkpt>
      <trkpt lat="45.88421" lon="3.57936">
        <ele>636</ele>
        <time>2024-12-07T23:51:00.619Z</time>
      </trkpt>
      <trkpt lat="45.88423" lon="3.57938">
        <ele>636</ele>
        <time>2024-12-07T23:51:01.620Z</time>
      </trkpt>
      <trkpt lat="45.88425" lon="3.5794">
        <ele>636</ele>
        <time>2024-12-07T23:51:02.619Z</time>
      </trkpt>
      <trkpt lat="45.88426" lon="3.57942">
        <ele>636</ele>
        <time>2024-12-07T23:51:03.620Z</time>
      </trkpt>
      <trkpt lat="45.88428" lon="3.57945">
        <ele>637</ele>
        <time>2024-12-07T23:51:04.620Z</time>
      </trkpt>
      <trkpt lat="45.88429" lon="3.57947">
        <ele>637</ele>
        <time>2024-12-07T23:51:05.619Z</time>
      </trkpt>
      <trkpt lat="45.8843" lon="3.57949">
        <ele>637</ele>
        <time>2024-12-07T23:51:06.620Z</time>
      </trkpt>
      <trkpt lat="45.88432" lon="3.57951">
        <ele>637</ele>
        <time>2024-12-07T23:51:07.619Z</time>
      </trkpt>
      <trkpt lat="45.88434" lon="3.57953">
        <ele>637</ele>
        <time>2024-12-07T23:51:08.619Z</time>
      </trkpt>
      <trkpt lat="45.88436" lon="3.57954">
        <ele>637</ele>
        <time>2024-12-07T23:51:09.620Z</time>
      </trkpt>
      <trkpt lat="45.88437" lon="3.57957">
        <ele>637</ele>
        <time>2024-12-07T23:51:10.620Z</time>
      </trkpt>
      <trkpt lat="45.88439" lon="3.57959">
        <ele>637</ele>
        <time>2024-12-07T23:51:11.619Z</time>
      </trkpt>
      <trkpt lat="45.8844" lon="3.57961">
        <ele>637</ele>
        <time>2024-12-07T23:51:12.620Z</time>
      </trkpt>
      <trkpt lat="45.88442" lon="3.57963">
        <ele>637</ele>
        <time>2024-12-07T23:51:13.620Z</time>
      </trkpt>
      <trkpt lat="45.88443" lon="3.57965">
        <ele>637</ele>
        <time>2024-12-07T23:51:14.619Z</time>
      </trkpt>
      <trkpt lat="45.88445" lon="3.57967">
        <ele>636</ele>
        <time>2024-12-07T23:51:15.619Z</time>
      </trkpt>
      <trkpt lat="45.88446" lon="3.57969">
        <ele>636</ele>
        <time>2024-12-07T23:51:16.620Z</time>
      </trkpt>
      <trkpt lat="45.88448" lon="3.57971">
        <ele>636</ele>
        <time>2024-12-07T23:51:17.619Z</time>
      </trkpt>
      <trkpt lat="45.88449" lon="3.57973">
        <ele>636</ele>
        <time>2024-12-07T23:51:18.620Z</time>
      </trkpt>
      <trkpt lat="45.8845" lon="3.57975">
        <ele>636</ele>
        <time>2024-12-07T23:51:19.619Z</time>
      </trkpt>
      <trkpt lat="45.88452" lon="3.57977">
        <ele>636</ele>
        <time>2024-12-07T23:51:20.620Z</time>
      </trkpt>
      <trkpt lat="45.88453" lon="3.57979">
        <ele>636</ele>
        <time>2024-12-07T23:51:21.620Z</time>
      </trkpt>
      <trkpt lat="45.88455" lon="3.57981">
        <ele>636</ele>
        <time>2024-12-07T23:51:22.620Z</time>
      </trkpt>
      <trkpt lat="45.88457" lon="3.57983">
        <ele>636</ele>
        <time>2024-12-07T23:51:23.619Z</time>
      </trkpt>
      <trkpt lat="45.88458" lon="3.57985">
        <ele>636</ele>
        <time>2024-12-07T23:51:24.620Z</time>
      </trkpt>
      <trkpt lat="45.88459" lon="3.57987">
        <ele>636</ele>
        <time>2024-12-07T23:51:25.620Z</time>
      </trkpt>
      <trkpt lat="45.8846" lon="3.57989">
        <ele>635</ele>
        <time>2024-12-07T23:51:26.619Z</time>
      </trkpt>
      <trkpt lat="45.88462" lon="3.57991">
        <ele>635</ele>
        <time>2024-12-07T23:51:27.620Z</time>
      </trkpt>
      <trkpt lat="45.88463" lon="3.57994">
        <ele>635</ele>
        <time>2024-12-07T23:51:28.619Z</time>
      </trkpt>
      <trkpt lat="45.88464" lon="3.57996">
        <ele>635</ele>
        <time>2024-12-07T23:51:29.619Z</time>
      </trkpt>
      <trkpt lat="45.88465" lon="3.57998">
        <ele>635</ele>
        <time>2024-12-07T23:51:30.619Z</time>
      </trkpt>
      <trkpt lat="45.88467" lon="3.58">
        <ele>634</ele>
        <time>2024-12-07T23:51:31.619Z</time>
      </trkpt>
      <trkpt lat="45.88468" lon="3.58002">
        <ele>633</ele>
        <time>2024-12-07T23:51:32.619Z</time>
      </trkpt>
      <trkpt lat="45.88469" lon="3.58004">
        <ele>633</ele>
        <time>2024-12-07T23:51:33.619Z</time>
      </trkpt>
      <trkpt lat="45.8847" lon="3.58006">
        <ele>633</ele>
        <time>2024-12-07T23:51:34.619Z</time>
      </trkpt>
      <trkpt lat="45.88472" lon="3.58009">
        <ele>632</ele>
        <time>2024-12-07T23:51:35.620Z</time>
      </trkpt>
      <trkpt lat="45.88473" lon="3.58011">
        <ele>632</ele>
        <time>2024-12-07T23:51:36.619Z</time>
      </trkpt>
      <trkpt lat="45.88474" lon="3.58014">
        <ele>631</ele>
        <time>2024-12-07T23:51:37.620Z</time>
      </trkpt>
      <trkpt lat="45.88475" lon="3.58016">
        <ele>631</ele>
        <time>2024-12-07T23:51:38.619Z</time>
      </trkpt>
      <trkpt lat="45.88476" lon="3.58018">
        <ele>630</ele>
        <time>2024-12-07T23:51:39.619Z</time>
      </trkpt>
      <trkpt lat="45.88477" lon="3.5802">
        <ele>630</ele>
        <time>2024-12-07T23:51:40.619Z</time>
      </trkpt>
      <trkpt lat="45.88478" lon="3.58022">
        <ele>630</ele>
        <time>2024-12-07T23:51:41.619Z</time>
      </trkpt>
      <trkpt lat="45.88479" lon="3.58024">
        <ele>630</ele>
        <time>2024-12-07T23:51:42.619Z</time>
      </trkpt>
      <trkpt lat="45.8848" lon="3.58027">
        <ele>629</ele>
        <time>2024-12-07T23:51:43.619Z</time>
      </trkpt>
      <trkpt lat="45.88481" lon="3.5803">
        <ele>629</ele>
        <time>2024-12-07T23:51:44.620Z</time>
      </trkpt>
      <trkpt lat="45.88481" lon="3.58032">
        <ele>629</ele>
        <time>2024-12-07T23:51:45.620Z</time>
      </trkpt>
      <trkpt lat="45.88482" lon="3.58035">
        <ele>629</ele>
        <time>2024-12-07T23:51:46.619Z</time>
      </trkpt>
      <trkpt lat="45.88482" lon="3.58038">
        <ele>629</ele>
        <time>2024-12-07T23:51:47.620Z</time>
      </trkpt>
      <trkpt lat="45.88483" lon="3.5804">
        <ele>629</ele>
        <time>2024-12-07T23:51:48.620Z</time>
      </trkpt>
      <trkpt lat="45.88483" lon="3.58042">
        <ele>629</ele>
        <time>2024-12-07T23:51:49.620Z</time>
      </trkpt>
      <trkpt lat="45.88483" lon="3.58045">
        <ele>628</ele>
        <time>2024-12-07T23:51:50.619Z</time>
      </trkpt>
      <trkpt lat="45.88483" lon="3.58047">
        <ele>628</ele>
        <time>2024-12-07T23:51:51.620Z</time>
      </trkpt>
      <trkpt lat="45.88483" lon="3.5805">
        <ele>628</ele>
        <time>2024-12-07T23:51:52.619Z</time>
      </trkpt>
      <trkpt lat="45.88483" lon="3.58052">
        <ele>628</ele>
        <time>2024-12-07T23:51:53.620Z</time>
      </trkpt>
      <trkpt lat="45.88483" lon="3.58055">
        <ele>628</ele>
        <time>2024-12-07T23:51:54.619Z</time>
      </trkpt>
      <trkpt lat="45.88483" lon="3.58057">
        <ele>628</ele>
        <time>2024-12-07T23:51:55.620Z</time>
      </trkpt>
      <trkpt lat="45.88483" lon="3.5806">
        <ele>628</ele>
        <time>2024-12-07T23:51:56.619Z</time>
      </trkpt>
      <trkpt lat="45.88483" lon="3.58063">
        <ele>628</ele>
        <time>2024-12-07T23:51:57.620Z</time>
      </trkpt>
      <trkpt lat="45.88483" lon="3.58066">
        <ele>629</ele>
        <time>2024-12-07T23:51:58.620Z</time>
      </trkpt>
      <trkpt lat="45.88483" lon="3.58068">
        <ele>629</ele>
        <time>2024-12-07T23:51:59.619Z</time>
      </trkpt>
      <trkpt lat="45.88482" lon="3.58071">
        <ele>629</ele>
        <time>2024-12-07T23:52:00.620Z</time>
      </trkpt>
      <trkpt lat="45.88483" lon="3.58073">
        <ele>629</ele>
        <time>2024-12-07T23:52:01.620Z</time>
      </trkpt>
      <trkpt lat="45.88483" lon="3.58076">
        <ele>629</ele>
        <time>2024-12-07T23:52:02.620Z</time>
      </trkpt>
      <trkpt lat="45.88483" lon="3.58079">
        <ele>629</ele>
        <time>2024-12-07T23:52:03.620Z</time>
      </trkpt>
      <trkpt lat="45.88483" lon="3.58082">
        <ele>629</ele>
        <time>2024-12-07T23:52:04.619Z</time>
      </trkpt>
      <trkpt lat="45.88483" lon="3.58084">
        <ele>629</ele>
        <time>2024-12-07T23:52:05.619Z</time>
      </trkpt>
      <trkpt lat="45.88483" lon="3.58087">
        <ele>630</ele>
        <time>2024-12-07T23:52:06.620Z</time>
      </trkpt>
      <trkpt lat="45.88483" lon="3.58089">
        <ele>630</ele>
        <time>2024-12-07T23:52:07.619Z</time>
      </trkpt>
      <trkpt lat="45.88483" lon="3.58092">
        <ele>630</ele>
        <time>2024-12-07T23:52:08.620Z</time>
      </trkpt>
      <trkpt lat="45.88483" lon="3.58095">
        <ele>630</ele>
        <time>2024-12-07T23:52:09.619Z</time>
      </trkpt>
      <trkpt lat="45.88482" lon="3.58098">
        <ele>630</ele>
        <time>2024-12-07T23:52:10.620Z</time>
      </trkpt>
      <trkpt lat="45.88482" lon="3.58101">
        <ele>630</ele>
        <time>2024-12-07T23:52:11.619Z</time>
      </trkpt>
      <trkpt lat="45.88482" lon="3.58104">
        <ele>630</ele>
        <time>2024-12-07T23:52:12.619Z</time>
      </trkpt>
      <trkpt lat="45.88482" lon="3.58107">
        <ele>630</ele>
        <time>2024-12-07T23:52:13.619Z</time>
      </trkpt>
      <trkpt lat="45.88482" lon="3.5811">
        <ele>630</ele>
        <time>2024-12-07T23:52:14.620Z</time>
      </trkpt>
      <trkpt lat="45.88481" lon="3.58112">
        <ele>630</ele>
        <time>2024-12-07T23:52:15.619Z</time>
      </trkpt>
      <trkpt lat="45.88481" lon="3.58115">
        <ele>630</ele>
        <time>2024-12-07T23:52:16.620Z</time>
      </trkpt>
      <trkpt lat="45.88481" lon="3.58117">
        <ele>630</ele>
        <time>2024-12-07T23:52:17.620Z</time>
      </trkpt>
      <trkpt lat="45.88481" lon="3.5812">
        <ele>630</ele>
        <time>2024-12-07T23:52:18.620Z</time>
      </trkpt>
      <trkpt lat="45.88481" lon="3.58123">
        <ele>630</ele>
        <time>2024-12-07T23:52:19.620Z</time>
      </trkpt>
      <trkpt lat="45.8848" lon="3.58125">
        <ele>630</ele>
        <time>2024-12-07T23:52:20.619Z</time>
      </trkpt>
      <trkpt lat="45.8848" lon="3.58128">
        <ele>630</ele>
        <time>2024-12-07T23:52:21.619Z</time>
      </trkpt>
      <trkpt lat="45.88479" lon="3.58131">
        <ele>629</ele>
        <time>2024-12-07T23:52:22.619Z</time>
      </trkpt>
      <trkpt lat="45.88479" lon="3.58134">
        <ele>629</ele>
        <time>2024-12-07T23:52:23.620Z</time>
      </trkpt>
      <trkpt lat="45.88479" lon="3.58136">
        <ele>628</ele>
        <time>2024-12-07T23:52:24.619Z</time>
      </trkpt>
      <trkpt lat="45.88479" lon="3.58139">
        <ele>628</ele>
        <time>2024-12-07T23:52:25.620Z</time>
      </trkpt>
      <trkpt lat="45.8848" lon="3.58141">
        <ele>628</ele>
        <time>2024-12-07T23:52:26.619Z</time>
      </trkpt>
      <trkpt lat="45.8848" lon="3.58144">
        <ele>627</ele>
        <time>2024-12-07T23:52:27.619Z</time>
      </trkpt>
      <trkpt lat="45.8848" lon="3.58147">
        <ele>627</ele>
        <time>2024-12-07T23:52:28.619Z</time>
      </trkpt>
      <trkpt lat="45.8848" lon="3.5815">
        <ele>627</ele>
        <time>2024-12-07T23:52:29.620Z</time>
      </trkpt>
      <trkpt lat="45.88479" lon="3.58152">
        <ele>627</ele>
        <time>2024-12-07T23:52:30.620Z</time>
      </trkpt>
      <trkpt lat="45.88478" lon="3.58155">
        <ele>627</ele>
        <time>2024-12-07T23:52:31.619Z</time>
      </trkpt>
      <trkpt lat="45.88478" lon="3.58157">
        <ele>626</ele>
        <time>2024-12-07T23:52:32.620Z</time>
      </trkpt>
      <trkpt lat="45.88478" lon="3.5816">
        <ele>627</ele>
        <time>2024-12-07T23:52:33.620Z</time>
      </trkpt>
      <trkpt lat="45.88478" lon="3.58163">
        <ele>627</ele>
        <time>2024-12-07T23:52:34.620Z</time>
      </trkpt>
      <trkpt lat="45.88479" lon="3.58166">
        <ele>627</ele>
        <time>2024-12-07T23:52:35.619Z</time>
      </trkpt>
      <trkpt lat="45.88479" lon="3.58169">
        <ele>627</ele>
        <time>2024-12-07T23:52:36.619Z</time>
      </trkpt>
      <trkpt lat="45.8848" lon="3.58171">
        <ele>627</ele>
        <time>2024-12-07T23:52:37.619Z</time>
      </trkpt>
      <trkpt lat="45.88481" lon="3.58174">
        <ele>627</ele>
        <time>2024-12-07T23:52:38.620Z</time>
      </trkpt>
      <trkpt lat="45.88482" lon="3.58177">
        <ele>627</ele>
        <time>2024-12-07T23:52:39.619Z</time>
      </trkpt>
      <trkpt lat="45.88482" lon="3.5818">
        <ele>627</ele>
        <time>2024-12-07T23:52:40.620Z</time>
      </trkpt>
      <trkpt lat="45.88483" lon="3.58183">
        <ele>627</ele>
        <time>2024-12-07T23:52:41.619Z</time>
      </trkpt>
      <trkpt lat="45.88484" lon="3.58186">
        <ele>628</ele>
        <time>2024-12-07T23:52:42.620Z</time>
      </trkpt>
      <trkpt lat="45.88484" lon="3.58189">
        <ele>628</ele>
        <time>2024-12-07T23:52:43.619Z</time>
      </trkpt>
      <trkpt lat="45.88484" lon="3.58192">
        <ele>628</ele>
        <time>2024-12-07T23:52:44.620Z</time>
      </trkpt>
      <trkpt lat="45.88485" lon="3.58194">
        <ele>628</ele>
        <time>2024-12-07T23:52:45.619Z</time>
      </trkpt>
      <trkpt lat="45.88485" lon="3.58197">
        <ele>628</ele>
        <time>2024-12-07T23:52:46.619Z</time>
      </trkpt>
      <trkpt lat="45.88486" lon="3.582">
        <ele>628</ele>
        <time>2024-12-07T23:52:47.619Z</time>
      </trkpt>
      <trkpt lat="45.88486" lon="3.58202">
        <ele>628</ele>
        <time>2024-12-07T23:52:48.619Z</time>
      </trkpt>
      <trkpt lat="45.88487" lon="3.58205">
        <ele>628</ele>
        <time>2024-12-07T23:52:49.620Z</time>
      </trkpt>
      <trkpt lat="45.88488" lon="3.58208">
        <ele>628</ele>
        <time>2024-12-07T23:52:50.619Z</time>
      </trkpt>
      <trkpt lat="45.88489" lon="3.58211">
        <ele>628</ele>
        <time>2024-12-07T23:52:51.620Z</time>
      </trkpt>
      <trkpt lat="45.88489" lon="3.58214">
        <ele>628</ele>
        <time>2024-12-07T23:52:52.619Z</time>
      </trkpt>
      <trkpt lat="45.88489" lon="3.58216">
        <ele>628</ele>
        <time>2024-12-07T23:52:53.620Z</time>
      </trkpt>
      <trkpt lat="45.8849" lon="3.58219">
        <ele>628</ele>
        <time>2024-12-07T23:52:54.619Z</time>
      </trkpt>
      <trkpt lat="45.8849" lon="3.58222">
        <ele>627</ele>
        <time>2024-12-07T23:52:55.620Z</time>
      </trkpt>
      <trkpt lat="45.88491" lon="3.58225">
        <ele>627</ele>
        <time>2024-12-07T23:52:56.619Z</time>
      </trkpt>
      <trkpt lat="45.88492" lon="3.58229">
        <ele>626</ele>
        <time>2024-12-07T23:52:57.620Z</time>
      </trkpt>
      <trkpt lat="45.88492" lon="3.58232">
        <ele>625</ele>
        <time>2024-12-07T23:52:58.619Z</time>
      </trkpt>
      <trkpt lat="45.88493" lon="3.58235">
        <ele>625</ele>
        <time>2024-12-07T23:52:59.620Z</time>
      </trkpt>
      <trkpt lat="45.88493" lon="3.58238">
        <ele>624</ele>
        <time>2024-12-07T23:53:00.620Z</time>
      </trkpt>
      <trkpt lat="45.88494" lon="3.5824">
        <ele>623</ele>
        <time>2024-12-07T23:53:01.620Z</time>
      </trkpt>
      <trkpt lat="45.88495" lon="3.58243">
        <ele>623</ele>
        <time>2024-12-07T23:53:02.619Z</time>
      </trkpt>
      <trkpt lat="45.88495" lon="3.58246">
        <ele>622</ele>
        <time>2024-12-07T23:53:03.619Z</time>
      </trkpt>
      <trkpt lat="45.88495" lon="3.58249">
        <ele>622</ele>
        <time>2024-12-07T23:53:04.620Z</time>
      </trkpt>
      <trkpt lat="45.88495" lon="3.58252">
        <ele>621</ele>
        <time>2024-12-07T23:53:05.619Z</time>
      </trkpt>
      <trkpt lat="45.88495" lon="3.58255">
        <ele>620</ele>
        <time>2024-12-07T23:53:06.619Z</time>
      </trkpt>
      <trkpt lat="45.88495" lon="3.58258">
        <ele>619</ele>
        <time>2024-12-07T23:53:07.620Z</time>
      </trkpt>
      <trkpt lat="45.88495" lon="3.58261">
        <ele>618</ele>
        <time>2024-12-07T23:53:08.620Z</time>
      </trkpt>
      <trkpt lat="45.88495" lon="3.58264">
        <ele>618</ele>
        <time>2024-12-07T23:53:09.619Z</time>
      </trkpt>
      <trkpt lat="45.88495" lon="3.58267">
        <ele>617</ele>
        <time>2024-12-07T23:53:10.620Z</time>
      </trkpt>
      <trkpt lat="45.88495" lon="3.58269">
        <ele>617</ele>
        <time>2024-12-07T23:53:11.619Z</time>
      </trkpt>
      <trkpt lat="45.88495" lon="3.58272">
        <ele>617</ele>
        <time>2024-12-07T23:53:12.619Z</time>
      </trkpt>
      <trkpt lat="45.88494" lon="3.58274">
        <ele>616</ele>
        <time>2024-12-07T23:53:13.619Z</time>
      </trkpt>
      <trkpt lat="45.88493" lon="3.58277">
        <ele>616</ele>
        <time>2024-12-07T23:53:14.620Z</time>
      </trkpt>
      <trkpt lat="45.88492" lon="3.58279">
        <ele>615</ele>
        <time>2024-12-07T23:53:15.619Z</time>
      </trkpt>
      <trkpt lat="45.88491" lon="3.58281">
        <ele>615</ele>
        <time>2024-12-07T23:53:16.620Z</time>
      </trkpt>
      <trkpt lat="45.8849" lon="3.58284">
        <ele>616</ele>
        <time>2024-12-07T23:53:17.619Z</time>
      </trkpt>
      <trkpt lat="45.88489" lon="3.58286">
        <ele>616</ele>
        <time>2024-12-07T23:53:18.620Z</time>
      </trkpt>
      <trkpt lat="45.88488" lon="3.58288">
        <ele>616</ele>
        <time>2024-12-07T23:53:19.619Z</time>
      </trkpt>
      <trkpt lat="45.88487" lon="3.5829">
        <ele>616</ele>
        <time>2024-12-07T23:53:20.619Z</time>
      </trkpt>
      <trkpt lat="45.88486" lon="3.58292">
        <ele>615</ele>
        <time>2024-12-07T23:53:21.619Z</time>
      </trkpt>
      <trkpt lat="45.88485" lon="3.58295">
        <ele>615</ele>
        <time>2024-12-07T23:53:22.620Z</time>
      </trkpt>
      <trkpt lat="45.88483" lon="3.58297">
        <ele>615</ele>
        <time>2024-12-07T23:53:23.619Z</time>
      </trkpt>
      <trkpt lat="45.88482" lon="3.58299">
        <ele>614</ele>
        <time>2024-12-07T23:53:24.620Z</time>
      </trkpt>
      <trkpt lat="45.8848" lon="3.58301">
        <ele>614</ele>
        <time>2024-12-07T23:53:25.619Z</time>
      </trkpt>
      <trkpt lat="45.88479" lon="3.58302">
        <ele>614</ele>
        <time>2024-12-07T23:53:26.619Z</time>
      </trkpt>
      <trkpt lat="45.88477" lon="3.58304">
        <ele>614</ele>
        <time>2024-12-07T23:53:27.619Z</time>
      </trkpt>
      <trkpt lat="45.88476" lon="3.58306">
        <ele>614</ele>
        <time>2024-12-07T23:53:28.620Z</time>
      </trkpt>
      <trkpt lat="45.88474" lon="3.58307">
        <ele>614</ele>
        <time>2024-12-07T23:53:29.620Z</time>
      </trkpt>
      <trkpt lat="45.88472" lon="3.58308">
        <ele>614</ele>
        <time>2024-12-07T23:53:30.620Z</time>
      </trkpt>
      <trkpt lat="45.8847" lon="3.58309">
        <ele>614</ele>
        <time>2024-12-07T23:53:31.620Z</time>
      </trkpt>
      <trkpt lat="45.88469" lon="3.58311">
        <ele>613</ele>
        <time>2024-12-07T23:53:32.620Z</time>
      </trkpt>
      <trkpt lat="45.88467" lon="3.58312">
        <ele>613</ele>
        <time>2024-12-07T23:53:33.620Z</time>
      </trkpt>
      <trkpt lat="45.88465" lon="3.58314">
        <ele>614</ele>
        <time>2024-12-07T23:53:34.619Z</time>
      </trkpt>
      <trkpt lat="45.88463" lon="3.58316">
        <ele>614</ele>
        <time>2024-12-07T23:53:35.620Z</time>
      </trkpt>
      <trkpt lat="45.88461" lon="3.58317">
        <ele>614</ele>
        <time>2024-12-07T23:53:36.619Z</time>
      </trkpt>
      <trkpt lat="45.88459" lon="3.58318">
        <ele>615</ele>
        <time>2024-12-07T23:53:37.620Z</time>
      </trkpt>
      <trkpt lat="45.88457" lon="3.58319">
        <ele>615</ele>
        <time>2024-12-07T23:53:38.619Z</time>
      </trkpt>
      <trkpt lat="45.88455" lon="3.58319">
        <ele>615</ele>
        <time>2024-12-07T23:53:39.620Z</time>
      </trkpt>
      <trkpt lat="45.88453" lon="3.58319">
        <ele>615</ele>
        <time>2024-12-07T23:53:40.619Z</time>
      </trkpt>
      <trkpt lat="45.88451" lon="3.58319">
        <ele>616</ele>
        <time>2024-12-07T23:53:41.619Z</time>
      </trkpt>
      <trkpt lat="45.88449" lon="3.5832">
        <ele>616</ele>
        <time>2024-12-07T23:53:42.619Z</time>
      </trkpt>
      <trkpt lat="45.88447" lon="3.5832">
        <ele>616</ele>
        <time>2024-12-07T23:53:43.619Z</time>
      </trkpt>
      <trkpt lat="45.88446" lon="3.58321">
        <ele>616</ele>
        <time>2024-12-07T23:53:44.620Z</time>
      </trkpt>
      <trkpt lat="45.88444" lon="3.58321">
        <ele>616</ele>
        <time>2024-12-07T23:53:45.620Z</time>
      </trkpt>
      <trkpt lat="45.88442" lon="3.58321">
        <ele>616</ele>
        <time>2024-12-07T23:53:46.620Z</time>
      </trkpt>
      <trkpt lat="45.88441" lon="3.58322">
        <ele>616</ele>
        <time>2024-12-07T23:53:47.619Z</time>
      </trkpt>
      <trkpt lat="45.88439" lon="3.58324">
        <ele>616</ele>
        <time>2024-12-07T23:53:48.620Z</time>
      </trkpt>
      <trkpt lat="45.88438" lon="3.58326">
        <ele>616</ele>
        <time>2024-12-07T23:53:49.619Z</time>
      </trkpt>
      <trkpt lat="45.88437" lon="3.58329">
        <ele>615</ele>
        <time>2024-12-07T23:53:50.620Z</time>
      </trkpt>
      <trkpt lat="45.88436" lon="3.58331">
        <ele>615</ele>
        <time>2024-12-07T23:53:51.619Z</time>
      </trkpt>
      <trkpt lat="45.88435" lon="3.58335">
        <ele>615</ele>
        <time>2024-12-07T23:53:52.620Z</time>
      </trkpt>
      <trkpt lat="45.88435" lon="3.58339">
        <ele>614</ele>
        <time>2024-12-07T23:53:53.619Z</time>
      </trkpt>
      <trkpt lat="45.88435" lon="3.58342">
        <ele>614</ele>
        <time>2024-12-07T23:53:54.619Z</time>
      </trkpt>
      <trkpt lat="45.88435" lon="3.58345">
        <ele>613</ele>
        <time>2024-12-07T23:53:55.619Z</time>
      </trkpt>
      <trkpt lat="45.88435" lon="3.58348">
        <ele>612</ele>
        <time>2024-12-07T23:53:56.620Z</time>
      </trkpt>
      <trkpt lat="45.88434" lon="3.58351">
        <ele>612</ele>
        <time>2024-12-07T23:53:57.619Z</time>
      </trkpt>
      <trkpt lat="45.88435" lon="3.58355">
        <ele>611</ele>
        <time>2024-12-07T23:53:58.619Z</time>
      </trkpt>
      <trkpt lat="45.88435" lon="3.58359">
        <ele>611</ele>
        <time>2024-12-07T23:53:59.619Z</time>
      </trkpt>
      <trkpt lat="45.88435" lon="3.58362">
        <ele>611</ele>
        <time>2024-12-07T23:54:00.620Z</time>
      </trkpt>
      <trkpt lat="45.88436" lon="3.58365">
        <ele>611</ele>
        <time>2024-12-07T23:54:01.620Z</time>
      </trkpt>
      <trkpt lat="45.88437" lon="3.58367">
        <ele>610</ele>
        <time>2024-12-07T23:54:02.620Z</time>
      </trkpt>
      <trkpt lat="45.88438" lon="3.58369">
        <ele>610</ele>
        <time>2024-12-07T23:54:03.620Z</time>
      </trkpt>
      <trkpt lat="45.88438" lon="3.58371">
        <ele>610</ele>
        <time>2024-12-07T23:54:04.620Z</time>
      </trkpt>
      <trkpt lat="45.88439" lon="3.58373">
        <ele>610</ele>
        <time>2024-12-07T23:54:05.620Z</time>
      </trkpt>
      <trkpt lat="45.8844" lon="3.58375">
        <ele>610</ele>
        <time>2024-12-07T23:54:06.619Z</time>
      </trkpt>
      <trkpt lat="45.88441" lon="3.58378">
        <ele>610</ele>
        <time>2024-12-07T23:54:07.619Z</time>
      </trkpt>
      <trkpt lat="45.88442" lon="3.58379">
        <ele>609</ele>
        <time>2024-12-07T23:54:08.619Z</time>
      </trkpt>
      <trkpt lat="45.88443" lon="3.58381">
        <ele>609</ele>
        <time>2024-12-07T23:54:09.619Z</time>
      </trkpt>
      <trkpt lat="45.88445" lon="3.58382">
        <ele>610</ele>
        <time>2024-12-07T23:54:10.620Z</time>
      </trkpt>
      <trkpt lat="45.88447" lon="3.58384">
        <ele>610</ele>
        <time>2024-12-07T23:54:11.620Z</time>
      </trkpt>
      <trkpt lat="45.88449" lon="3.58385">
        <ele>609</ele>
        <time>2024-12-07T23:54:12.619Z</time>
      </trkpt>
      <trkpt lat="45.88452" lon="3.58387">
        <ele>609</ele>
        <time>2024-12-07T23:54:13.620Z</time>
      </trkpt>
      <trkpt lat="45.88454" lon="3.58389">
        <ele>609</ele>
        <time>2024-12-07T23:54:14.620Z</time>
      </trkpt>
      <trkpt lat="45.88456" lon="3.5839">
        <ele>608</ele>
        <time>2024-12-07T23:54:15.620Z</time>
      </trkpt>
      <trkpt lat="45.88457" lon="3.58392">
        <ele>608</ele>
        <time>2024-12-07T23:54:16.620Z</time>
      </trkpt>
      <trkpt lat="45.88459" lon="3.58392">
        <ele>607</ele>
        <time>2024-12-07T23:54:17.620Z</time>
      </trkpt>
      <trkpt lat="45.88461" lon="3.58393">
        <ele>607</ele>
        <time>2024-12-07T23:54:18.619Z</time>
      </trkpt>
      <trkpt lat="45.88463" lon="3.58394">
        <ele>606</ele>
        <time>2024-12-07T23:54:19.620Z</time>
      </trkpt>
      <trkpt lat="45.88464" lon="3.58395">
        <ele>606</ele>
        <time>2024-12-07T23:54:20.619Z</time>
      </trkpt>
      <trkpt lat="45.88465" lon="3.58395">
        <ele>605</ele>
        <time>2024-12-07T23:54:21.620Z</time>
      </trkpt>
      <trkpt lat="45.88467" lon="3.58396">
        <ele>605</ele>
        <time>2024-12-07T23:54:22.619Z</time>
      </trkpt>
      <trkpt lat="45.88468" lon="3.58396">
        <ele>605</ele>
        <time>2024-12-07T23:54:23.620Z</time>
      </trkpt>
      <trkpt lat="45.8847" lon="3.58397">
        <ele>605</ele>
        <time>2024-12-07T23:54:24.619Z</time>
      </trkpt>
      <trkpt lat="45.88472" lon="3.58398">
        <ele>604</ele>
        <time>2024-12-07T23:54:25.620Z</time>
      </trkpt>
      <trkpt lat="45.88475" lon="3.58398">
        <ele>605</ele>
        <time>2024-12-07T23:54:26.619Z</time>
      </trkpt>
      <trkpt lat="45.88477" lon="3.58398">
        <ele>605</ele>
        <time>2024-12-07T23:54:27.620Z</time>
      </trkpt>
      <trkpt lat="45.88479" lon="3.58398">
        <ele>605</ele>
        <time>2024-12-07T23:54:28.619Z</time>
      </trkpt>
      <trkpt lat="45.88481" lon="3.584">
        <ele>605</ele>
        <time>2024-12-07T23:54:29.619Z</time>
      </trkpt>
      <trkpt lat="45.88482" lon="3.58402">
        <ele>605</ele>
        <time>2024-12-07T23:54:30.620Z</time>
      </trkpt>
      <trkpt lat="45.88484" lon="3.58405">
        <ele>606</ele>
        <time>2024-12-07T23:54:31.619Z</time>
      </trkpt>
      <trkpt lat="45.88487" lon="3.58406">
        <ele>606</ele>
        <time>2024-12-07T23:54:32.620Z</time>
      </trkpt>
      <trkpt lat="45.88489" lon="3.58408">
        <ele>607</ele>
        <time>2024-12-07T23:54:33.620Z</time>
      </trkpt>
      <trkpt lat="45.8849" lon="3.58409">
        <ele>607</ele>
        <time>2024-12-07T23:54:34.620Z</time>
      </trkpt>
      <trkpt lat="45.88492" lon="3.5841">
        <ele>608</ele>
        <time>2024-12-07T23:54:35.619Z</time>
      </trkpt>
      <trkpt lat="45.88493" lon="3.58412">
        <ele>608</ele>
        <time>2024-12-07T23:54:36.619Z</time>
      </trkpt>
      <trkpt lat="45.88494" lon="3.58415">
        <ele>608</ele>
        <time>2024-12-07T23:54:37.620Z</time>
      </trkpt>
      <trkpt lat="45.88494" lon="3.58417">
        <ele>608</ele>
        <time>2024-12-07T23:54:38.620Z</time>
      </trkpt>
      <trkpt lat="45.88496" lon="3.5842">
        <ele>609</ele>
        <time>2024-12-07T23:54:39.619Z</time>
      </trkpt>
      <trkpt lat="45.88497" lon="3.58423">
        <ele>609</ele>
        <time>2024-12-07T23:54:40.620Z</time>
      </trkpt>
      <trkpt lat="45.88498" lon="3.58426">
        <ele>608</ele>
        <time>2024-12-07T23:54:41.620Z</time>
      </trkpt>
      <trkpt lat="45.88498" lon="3.58429">
        <ele>608</ele>
        <time>2024-12-07T23:54:42.620Z</time>
      </trkpt>
      <trkpt lat="45.88498" lon="3.58432">
        <ele>608</ele>
        <time>2024-12-07T23:54:43.619Z</time>
      </trkpt>
      <trkpt lat="45.88499" lon="3.58434">
        <ele>608</ele>
        <time>2024-12-07T23:54:44.619Z</time>
      </trkpt>
      <trkpt lat="45.88498" lon="3.58437">
        <ele>607</ele>
        <time>2024-12-07T23:54:45.619Z</time>
      </trkpt>
      <trkpt lat="45.88498" lon="3.5844">
        <ele>607</ele>
        <time>2024-12-07T23:54:46.620Z</time>
      </trkpt>
      <trkpt lat="45.88498" lon="3.58442">
        <ele>606</ele>
        <time>2024-12-07T23:54:47.620Z</time>
      </trkpt>
      <trkpt lat="45.88497" lon="3.58445">
        <ele>606</ele>
        <time>2024-12-07T23:54:48.620Z</time>
      </trkpt>
      <trkpt lat="45.88497" lon="3.58449">
        <ele>605</ele>
        <time>2024-12-07T23:54:49.620Z</time>
      </trkpt>
      <trkpt lat="45.88497" lon="3.58452">
        <ele>605</ele>
        <time>2024-12-07T23:54:50.619Z</time>
      </trkpt>
      <trkpt lat="45.88496" lon="3.58455">
        <ele>604</ele>
        <time>2024-12-07T23:54:51.620Z</time>
      </trkpt>
      <trkpt lat="45.88496" lon="3.58457">
        <ele>604</ele>
        <time>2024-12-07T23:54:52.620Z</time>
      </trkpt>
      <trkpt lat="45.88496" lon="3.58459">
        <ele>603</ele>
        <time>2024-12-07T23:54:53.620Z</time>
      </trkpt>
      <trkpt lat="45.88496" lon="3.58461">
        <ele>603</ele>
        <time>2024-12-07T23:54:54.619Z</time>
      </trkpt>
      <trkpt lat="45.88496" lon="3.58464">
        <ele>602</ele>
        <time>2024-12-07T23:54:55.620Z</time>
      </trkpt>
      <trkpt lat="45.88496" lon="3.58466">
        <ele>602</ele>
        <time>2024-12-07T23:54:56.619Z</time>
      </trkpt>
      <trkpt lat="45.88496" lon="3.5847">
        <ele>602</ele>
        <time>2024-12-07T23:54:57.620Z</time>
      </trkpt>
      <trkpt lat="45.88497" lon="3.58473">
        <ele>602</ele>
        <time>2024-12-07T23:54:58.620Z</time>
      </trkpt>
      <trkpt lat="45.88497" lon="3.58476">
        <ele>602</ele>
        <time>2024-12-07T23:54:59.620Z</time>
      </trkpt>
      <trkpt lat="45.88497" lon="3.58479">
        <ele>602</ele>
        <time>2024-12-07T23:55:00.619Z</time>
      </trkpt>
      <trkpt lat="45.88497" lon="3.58481">
        <ele>602</ele>
        <time>2024-12-07T23:55:01.619Z</time>
      </trkpt>
      <trkpt lat="45.88497" lon="3.58484">
        <ele>602</ele>
        <time>2024-12-07T23:55:02.619Z</time>
      </trkpt>
      <trkpt lat="45.88497" lon="3.58486">
        <ele>602</ele>
        <time>2024-12-07T23:55:03.619Z</time>
      </trkpt>
      <trkpt lat="45.88498" lon="3.58489">
        <ele>602</ele>
        <time>2024-12-07T23:55:04.619Z</time>
      </trkpt>
      <trkpt lat="45.88498" lon="3.58491">
        <ele>601</ele>
        <time>2024-12-07T23:55:05.619Z</time>
      </trkpt>
      <trkpt lat="45.88499" lon="3.58493">
        <ele>601</ele>
        <time>2024-12-07T23:55:06.620Z</time>
      </trkpt>
      <trkpt lat="45.885" lon="3.58496">
        <ele>601</ele>
        <time>2024-12-07T23:55:07.620Z</time>
      </trkpt>
      <trkpt lat="45.885" lon="3.58499">
        <ele>601</ele>
        <time>2024-12-07T23:55:08.620Z</time>
      </trkpt>
      <trkpt lat="45.885" lon="3.58503">
        <ele>600</ele>
        <time>2024-12-07T23:55:09.620Z</time>
      </trkpt>
      <trkpt lat="45.88501" lon="3.58506">
        <ele>600</ele>
        <time>2024-12-07T23:55:10.619Z</time>
      </trkpt>
      <trkpt lat="45.88501" lon="3.58509">
        <ele>599</ele>
        <time>2024-12-07T23:55:11.620Z</time>
      </trkpt>
      <trkpt lat="45.88501" lon="3.58511">
        <ele>599</ele>
        <time>2024-12-07T23:55:12.620Z</time>
      </trkpt>
      <trkpt lat="45.88502" lon="3.58514">
        <ele>598</ele>
        <time>2024-12-07T23:55:13.619Z</time>
      </trkpt>
      <trkpt lat="45.88502" lon="3.58517">
        <ele>598</ele>
        <time>2024-12-07T23:55:14.620Z</time>
      </trkpt>
      <trkpt lat="45.88503" lon="3.58521">
        <ele>598</ele>
        <time>2024-12-07T23:55:15.620Z</time>
      </trkpt>
      <trkpt lat="45.88503" lon="3.58524">
        <ele>597</ele>
        <time>2024-12-07T23:55:16.620Z</time>
      </trkpt>
      <trkpt lat="45.88503" lon="3.58527">
        <ele>596</ele>
        <time>2024-12-07T23:55:17.620Z</time>
      </trkpt>
      <trkpt lat="45.88503" lon="3.5853">
        <ele>596</ele>
        <time>2024-12-07T23:55:18.619Z</time>
      </trkpt>
      <trkpt lat="45.88503" lon="3.58533">
        <ele>595</ele>
        <time>2024-12-07T23:55:19.619Z</time>
      </trkpt>
      <trkpt lat="45.88503" lon="3.58535">
        <ele>595</ele>
        <time>2024-12-07T23:55:20.620Z</time>
      </trkpt>
      <trkpt lat="45.88503" lon="3.58538">
        <ele>594</ele>
        <time>2024-12-07T23:55:21.620Z</time>
      </trkpt>
      <trkpt lat="45.88503" lon="3.58541">
        <ele>594</ele>
        <time>2024-12-07T23:55:22.619Z</time>
      </trkpt>
      <trkpt lat="45.88504" lon="3.58544">
        <ele>593</ele>
        <time>2024-12-07T23:55:23.620Z</time>
      </trkpt>
      <trkpt lat="45.88505" lon="3.58548">
        <ele>593</ele>
        <time>2024-12-07T23:55:24.620Z</time>
      </trkpt>
      <trkpt lat="45.88505" lon="3.58552">
        <ele>593</ele>
        <time>2024-12-07T23:55:25.619Z</time>
      </trkpt>
      <trkpt lat="45.88505" lon="3.58555">
        <ele>592</ele>
        <time>2024-12-07T23:55:26.620Z</time>
      </trkpt>
      <trkpt lat="45.88505" lon="3.58558">
        <ele>592</ele>
        <time>2024-12-07T23:55:27.619Z</time>
      </trkpt>
      <trkpt lat="45.88504" lon="3.58561">
        <ele>593</ele>
        <time>2024-12-07T23:55:28.619Z</time>
      </trkpt>
      <trkpt lat="45.88505" lon="3.58564">
        <ele>593</ele>
        <time>2024-12-07T23:55:29.620Z</time>
      </trkpt>
      <trkpt lat="45.88505" lon="3.58566">
        <ele>593</ele>
        <time>2024-12-07T23:55:30.619Z</time>
      </trkpt>
      <trkpt lat="45.88505" lon="3.58569">
        <ele>593</ele>
        <time>2024-12-07T23:55:31.620Z</time>
      </trkpt>
      <trkpt lat="45.88505" lon="3.5857">
        <ele>594</ele>
        <time>2024-12-07T23:55:32.620Z</time>
      </trkpt>
      <trkpt lat="45.88505" lon="3.58572">
        <ele>594</ele>
        <time>2024-12-07T23:55:33.619Z</time>
      </trkpt>
      <trkpt lat="45.88505" lon="3.58574">
        <ele>594</ele>
        <time>2024-12-07T23:55:34.619Z</time>
      </trkpt>
      <trkpt lat="45.88506" lon="3.58576">
        <ele>594</ele>
        <time>2024-12-07T23:55:35.619Z</time>
      </trkpt>
      <trkpt lat="45.88506" lon="3.58578">
        <ele>594</ele>
        <time>2024-12-07T23:55:36.619Z</time>
      </trkpt>
      <trkpt lat="45.88506" lon="3.5858">
        <ele>594</ele>
        <time>2024-12-07T23:55:37.620Z</time>
      </trkpt>
      <trkpt lat="45.88506" lon="3.58582">
        <ele>594</ele>
        <time>2024-12-07T23:55:38.620Z</time>
      </trkpt>
      <trkpt lat="45.88506" lon="3.58584">
        <ele>594</ele>
        <time>2024-12-07T23:55:39.619Z</time>
      </trkpt>
      <trkpt lat="45.88506" lon="3.58587">
        <ele>594</ele>
        <time>2024-12-07T23:55:40.620Z</time>
      </trkpt>
      <trkpt lat="45.88506" lon="3.5859">
        <ele>594</ele>
        <time>2024-12-07T23:55:41.619Z</time>
      </trkpt>
      <trkpt lat="45.88507" lon="3.58592">
        <ele>594</ele>
        <time>2024-12-07T23:55:42.619Z</time>
      </trkpt>
      <trkpt lat="45.88507" lon="3.58595">
        <ele>594</ele>
        <time>2024-12-07T23:55:43.620Z</time>
      </trkpt>
      <trkpt lat="45.88507" lon="3.58597">
        <ele>594</ele>
        <time>2024-12-07T23:55:44.620Z</time>
      </trkpt>
      <trkpt lat="45.88506" lon="3.586">
        <ele>593</ele>
        <time>2024-12-07T23:55:45.619Z</time>
      </trkpt>
      <trkpt lat="45.88506" lon="3.58602">
        <ele>593</ele>
        <time>2024-12-07T23:55:46.620Z</time>
      </trkpt>
      <trkpt lat="45.88505" lon="3.58606">
        <ele>593</ele>
        <time>2024-12-07T23:55:47.619Z</time>
      </trkpt>
      <trkpt lat="45.88505" lon="3.58609">
        <ele>593</ele>
        <time>2024-12-07T23:55:48.619Z</time>
      </trkpt>
      <trkpt lat="45.88503" lon="3.58612">
        <ele>593</ele>
        <time>2024-12-07T23:55:49.620Z</time>
      </trkpt>
      <trkpt lat="45.88503" lon="3.58615">
        <ele>593</ele>
        <time>2024-12-07T23:55:50.620Z</time>
      </trkpt>
      <trkpt lat="45.88503" lon="3.58619">
        <ele>592</ele>
        <time>2024-12-07T23:55:51.619Z</time>
      </trkpt>
      <trkpt lat="45.88502" lon="3.58622">
        <ele>592</ele>
        <time>2024-12-07T23:55:52.619Z</time>
      </trkpt>
      <trkpt lat="45.88501" lon="3.58624">
        <ele>593</ele>
        <time>2024-12-07T23:55:53.619Z</time>
      </trkpt>
      <trkpt lat="45.885" lon="3.58626">
        <ele>592</ele>
        <time>2024-12-07T23:55:54.619Z</time>
      </trkpt>
      <trkpt lat="45.88499" lon="3.5863">
        <ele>592</ele>
        <time>2024-12-07T23:55:55.619Z</time>
      </trkpt>
      <trkpt lat="45.88499" lon="3.58633">
        <ele>593</ele>
        <time>2024-12-07T23:55:56.619Z</time>
      </trkpt>
      <trkpt lat="45.88498" lon="3.58635">
        <ele>593</ele>
        <time>2024-12-07T23:55:57.619Z</time>
      </trkpt>
      <trkpt lat="45.88497" lon="3.58638">
        <ele>593</ele>
        <time>2024-12-07T23:55:58.620Z</time>
      </trkpt>
      <trkpt lat="45.88496" lon="3.5864">
        <ele>594</ele>
        <time>2024-12-07T23:55:59.620Z</time>
      </trkpt>
      <trkpt lat="45.88495" lon="3.58643">
        <ele>594</ele>
        <time>2024-12-07T23:56:00.619Z</time>
      </trkpt>
      <trkpt lat="45.88495" lon="3.58645">
        <ele>593</ele>
        <time>2024-12-07T23:56:01.619Z</time>
      </trkpt>
      <trkpt lat="45.88494" lon="3.58647">
        <ele>593</ele>
        <time>2024-12-07T23:56:02.619Z</time>
      </trkpt>
      <trkpt lat="45.88493" lon="3.58649">
        <ele>593</ele>
        <time>2024-12-07T23:56:03.619Z</time>
      </trkpt>
      <trkpt lat="45.88492" lon="3.58652">
        <ele>593</ele>
        <time>2024-12-07T23:56:04.620Z</time>
      </trkpt>
      <trkpt lat="45.8849" lon="3.58654">
        <ele>593</ele>
        <time>2024-12-07T23:56:05.619Z</time>
      </trkpt>
      <trkpt lat="45.88489" lon="3.58656">
        <ele>593</ele>
        <time>2024-12-07T23:56:06.620Z</time>
      </trkpt>
      <trkpt lat="45.88488" lon="3.58657">
        <ele>593</ele>
        <time>2024-12-07T23:56:07.619Z</time>
      </trkpt>
      <trkpt lat="45.88487" lon="3.58659">
        <ele>593</ele>
        <time>2024-12-07T23:56:08.619Z</time>
      </trkpt>
      <trkpt lat="45.88486" lon="3.58661">
        <ele>593</ele>
        <time>2024-12-07T23:56:09.619Z</time>
      </trkpt>
      <trkpt lat="45.88484" lon="3.58662">
        <ele>593</ele>
        <time>2024-12-07T23:56:10.620Z</time>
      </trkpt>
      <trkpt lat="45.88483" lon="3.58664">
        <ele>593</ele>
        <time>2024-12-07T23:56:11.619Z</time>
      </trkpt>
      <trkpt lat="45.88482" lon="3.58666">
        <ele>593</ele>
        <time>2024-12-07T23:56:12.619Z</time>
      </trkpt>
      <trkpt lat="45.8848" lon="3.58668">
        <ele>594</ele>
        <time>2024-12-07T23:56:13.620Z</time>
      </trkpt>
      <trkpt lat="45.88479" lon="3.5867">
        <ele>594</ele>
        <time>2024-12-07T23:56:14.619Z</time>
      </trkpt>
      <trkpt lat="45.88478" lon="3.58672">
        <ele>593</ele>
        <time>2024-12-07T23:56:15.620Z</time>
      </trkpt>
      <trkpt lat="45.88477" lon="3.58674">
        <ele>593</ele>
        <time>2024-12-07T23:56:16.619Z</time>
      </trkpt>
      <trkpt lat="45.88477" lon="3.58676">
        <ele>593</ele>
        <time>2024-12-07T23:56:17.620Z</time>
      </trkpt>
      <trkpt lat="45.88476" lon="3.58679">
        <ele>594</ele>
        <time>2024-12-07T23:56:18.620Z</time>
      </trkpt>
      <trkpt lat="45.88475" lon="3.58681">
        <ele>594</ele>
        <time>2024-12-07T23:56:19.619Z</time>
      </trkpt>
      <trkpt lat="45.88473" lon="3.58682">
        <ele>594</ele>
        <time>2024-12-07T23:56:20.619Z</time>
      </trkpt>
      <trkpt lat="45.88472" lon="3.58684">
        <ele>594</ele>
        <time>2024-12-07T23:56:21.620Z</time>
      </trkpt>
      <trkpt lat="45.88471" lon="3.58686">
        <ele>594</ele>
        <time>2024-12-07T23:56:22.619Z</time>
      </trkpt>
      <trkpt lat="45.88469" lon="3.58688">
        <ele>594</ele>
        <time>2024-12-07T23:56:23.619Z</time>
      </trkpt>
      <trkpt lat="45.88468" lon="3.5869">
        <ele>594</ele>
        <time>2024-12-07T23:56:24.619Z</time>
      </trkpt>
      <trkpt lat="45.88466" lon="3.58692">
        <ele>594</ele>
        <time>2024-12-07T23:56:25.620Z</time>
      </trkpt>
      <trkpt lat="45.88465" lon="3.58694">
        <ele>593</ele>
        <time>2024-12-07T23:56:26.620Z</time>
      </trkpt>
      <trkpt lat="45.88464" lon="3.58696">
        <ele>593</ele>
        <time>2024-12-07T23:56:27.619Z</time>
      </trkpt>
      <trkpt lat="45.88463" lon="3.58698">
        <ele>593</ele>
        <time>2024-12-07T23:56:28.620Z</time>
      </trkpt>
      <trkpt lat="45.88462" lon="3.587">
        <ele>593</ele>
        <time>2024-12-07T23:56:29.619Z</time>
      </trkpt>
      <trkpt lat="45.88461" lon="3.58702">
        <ele>593</ele>
        <time>2024-12-07T23:56:30.619Z</time>
      </trkpt>
      <trkpt lat="45.8846" lon="3.58703">
        <ele>593</ele>
        <time>2024-12-07T23:56:31.620Z</time>
      </trkpt>
      <trkpt lat="45.88458" lon="3.58705">
        <ele>593</ele>
        <time>2024-12-07T23:56:32.620Z</time>
      </trkpt>
      <trkpt lat="45.88457" lon="3.58707">
        <ele>593</ele>
        <time>2024-12-07T23:56:33.619Z</time>
      </trkpt>
      <trkpt lat="45.88455" lon="3.58709">
        <ele>594</ele>
        <time>2024-12-07T23:56:34.620Z</time>
      </trkpt>
      <trkpt lat="45.88454" lon="3.5871">
        <ele>594</ele>
        <time>2024-12-07T23:56:35.620Z</time>
      </trkpt>
      <trkpt lat="45.88452" lon="3.58712">
        <ele>595</ele>
        <time>2024-12-07T23:56:36.620Z</time>
      </trkpt>
      <trkpt lat="45.8845" lon="3.58713">
        <ele>595</ele>
        <time>2024-12-07T23:56:37.619Z</time>
      </trkpt>
      <trkpt lat="45.88448" lon="3.58714">
        <ele>595</ele>
        <time>2024-12-07T23:56:38.619Z</time>
      </trkpt>
      <trkpt lat="45.88447" lon="3.58714">
        <ele>595</ele>
        <time>2024-12-07T23:56:39.620Z</time>
      </trkpt>
      <trkpt lat="45.88444" lon="3.58714">
        <ele>596</ele>
        <time>2024-12-07T23:56:40.620Z</time>
      </trkpt>
      <trkpt lat="45.88442" lon="3.58715">
        <ele>596</ele>
        <time>2024-12-07T23:56:41.620Z</time>
      </trkpt>
      <trkpt lat="45.8844" lon="3.58715">
        <ele>595</ele>
        <time>2024-12-07T23:56:42.620Z</time>
      </trkpt>
      <trkpt lat="45.88437" lon="3.58716">
        <ele>595</ele>
        <time>2024-12-07T23:56:43.619Z</time>
      </trkpt>
      <trkpt lat="45.88436" lon="3.58716">
        <ele>595</ele>
        <time>2024-12-07T23:56:44.620Z</time>
      </trkpt>
      <trkpt lat="45.88434" lon="3.58717">
        <ele>595</ele>
        <time>2024-12-07T23:56:45.620Z</time>
      </trkpt>
      <trkpt lat="45.88433" lon="3.58718">
        <ele>595</ele>
        <time>2024-12-07T23:56:46.620Z</time>
      </trkpt>
      <trkpt lat="45.88432" lon="3.5872">
        <ele>595</ele>
        <time>2024-12-07T23:56:47.619Z</time>
      </trkpt>
      <trkpt lat="45.88431" lon="3.58721">
        <ele>595</ele>
        <time>2024-12-07T23:56:48.619Z</time>
      </trkpt>
      <trkpt lat="45.8843" lon="3.58721">
        <ele>594</ele>
        <time>2024-12-07T23:56:49.619Z</time>
      </trkpt>
      <trkpt lat="45.88428" lon="3.58722">
        <ele>594</ele>
        <time>2024-12-07T23:56:50.619Z</time>
      </trkpt>
      <trkpt lat="45.88427" lon="3.58723">
        <ele>594</ele>
        <time>2024-12-07T23:56:51.619Z</time>
      </trkpt>
      <trkpt lat="45.88426" lon="3.58724">
        <ele>594</ele>
        <time>2024-12-07T23:56:52.620Z</time>
      </trkpt>
      <trkpt lat="45.88424" lon="3.58725">
        <ele>594</ele>
        <time>2024-12-07T23:56:53.620Z</time>
      </trkpt>
      <trkpt lat="45.88423" lon="3.58727">
        <ele>594</ele>
        <time>2024-12-07T23:56:54.619Z</time>
      </trkpt>
      <trkpt lat="45.88421" lon="3.5873">
        <ele>595</ele>
        <time>2024-12-07T23:56:55.619Z</time>
      </trkpt>
      <trkpt lat="45.88419" lon="3.58732">
        <ele>595</ele>
        <time>2024-12-07T23:56:56.619Z</time>
      </trkpt>
      <trkpt lat="45.88417" lon="3.58733">
        <ele>595</ele>
        <time>2024-12-07T23:56:57.620Z</time>
      </trkpt>
      <trkpt lat="45.88416" lon="3.58735">
        <ele>595</ele>
        <time>2024-12-07T23:56:58.620Z</time>
      </trkpt>
      <trkpt lat="45.88415" lon="3.58736">
        <ele>596</ele>
        <time>2024-12-07T23:56:59.619Z</time>
      </trkpt>
      <trkpt lat="45.88413" lon="3.58737">
        <ele>596</ele>
        <time>2024-12-07T23:57:00.620Z</time>
      </trkpt>
      <trkpt lat="45.88411" lon="3.58737">
        <ele>596</ele>
        <time>2024-12-07T23:57:01.619Z</time>
      </trkpt>
      <trkpt lat="45.88408" lon="3.58736">
        <ele>596</ele>
        <time>2024-12-07T23:57:02.620Z</time>
      </trkpt>
      <trkpt lat="45.88405" lon="3.58736">
        <ele>596</ele>
        <time>2024-12-07T23:57:03.620Z</time>
      </trkpt>
      <trkpt lat="45.88403" lon="3.58737">
        <ele>596</ele>
        <time>2024-12-07T23:57:04.620Z</time>
      </trkpt>
      <trkpt lat="45.88402" lon="3.58738">
        <ele>595</ele>
        <time>2024-12-07T23:57:05.619Z</time>
      </trkpt>
      <trkpt lat="45.884" lon="3.58739">
        <ele>595</ele>
        <time>2024-12-07T23:57:06.620Z</time>
      </trkpt>
      <trkpt lat="45.88399" lon="3.58741">
        <ele>595</ele>
        <time>2024-12-07T23:57:07.619Z</time>
      </trkpt>
      <trkpt lat="45.88398" lon="3.58744">
        <ele>595</ele>
        <time>2024-12-07T23:57:08.620Z</time>
      </trkpt>
      <trkpt lat="45.88397" lon="3.58746">
        <ele>595</ele>
        <time>2024-12-07T23:57:09.619Z</time>
      </trkpt>
      <trkpt lat="45.88397" lon="3.58749">
        <ele>595</ele>
        <time>2024-12-07T23:57:10.620Z</time>
      </trkpt>
      <trkpt lat="45.88396" lon="3.5875">
        <ele>595</ele>
        <time>2024-12-07T23:57:11.619Z</time>
      </trkpt>
      <trkpt lat="45.88395" lon="3.58752">
        <ele>595</ele>
        <time>2024-12-07T23:57:12.619Z</time>
      </trkpt>
      <trkpt lat="45.88395" lon="3.58754">
        <ele>595</ele>
        <time>2024-12-07T23:57:13.620Z</time>
      </trkpt>
      <trkpt lat="45.88394" lon="3.58756">
        <ele>595</ele>
        <time>2024-12-07T23:57:14.619Z</time>
      </trkpt>
      <trkpt lat="45.88393" lon="3.58758">
        <ele>596</ele>
        <time>2024-12-07T23:57:15.619Z</time>
      </trkpt>
      <trkpt lat="45.88392" lon="3.5876">
        <ele>596</ele>
        <time>2024-12-07T23:57:16.620Z</time>
      </trkpt>
      <trkpt lat="45.88391" lon="3.58762">
        <ele>596</ele>
        <time>2024-12-07T23:57:17.620Z</time>
      </trkpt>
      <trkpt lat="45.8839" lon="3.58764">
        <ele>596</ele>
        <time>2024-12-07T23:57:18.619Z</time>
      </trkpt>
      <trkpt lat="45.8839" lon="3.58766">
        <ele>597</ele>
        <time>2024-12-07T23:57:19.620Z</time>
      </trkpt>
      <trkpt lat="45.88389" lon="3.58768">
        <ele>597</ele>
        <time>2024-12-07T23:57:20.619Z</time>
      </trkpt>
      <trkpt lat="45.88387" lon="3.58771">
        <ele>597</ele>
        <time>2024-12-07T23:57:21.619Z</time>
      </trkpt>
      <trkpt lat="45.88386" lon="3.58773">
        <ele>597</ele>
        <time>2024-12-07T23:57:22.620Z</time>
      </trkpt>
      <trkpt lat="45.88386" lon="3.58775">
        <ele>597</ele>
        <time>2024-12-07T23:57:23.619Z</time>
      </trkpt>
      <trkpt lat="45.88385" lon="3.58777">
        <ele>597</ele>
        <time>2024-12-07T23:57:24.620Z</time>
      </trkpt>
      <trkpt lat="45.88384" lon="3.58779">
        <ele>598</ele>
        <time>2024-12-07T23:57:25.620Z</time>
      </trkpt>
      <trkpt lat="45.88383" lon="3.58781">
        <ele>598</ele>
        <time>2024-12-07T23:57:26.619Z</time>
      </trkpt>
      <trkpt lat="45.88382" lon="3.58783">
        <ele>598</ele>
        <time>2024-12-07T23:57:27.620Z</time>
      </trkpt>
      <trkpt lat="45.88382" lon="3.58785">
        <ele>599</ele>
        <time>2024-12-07T23:57:28.619Z</time>
      </trkpt>
      <trkpt lat="45.88381" lon="3.58787">
        <ele>599</ele>
        <time>2024-12-07T23:57:29.620Z</time>
      </trkpt>
      <trkpt lat="45.8838" lon="3.5879">
        <ele>599</ele>
        <time>2024-12-07T23:57:30.619Z</time>
      </trkpt>
      <trkpt lat="45.88379" lon="3.58792">
        <ele>600</ele>
        <time>2024-12-07T23:57:31.620Z</time>
      </trkpt>
      <trkpt lat="45.88378" lon="3.58794">
        <ele>600</ele>
        <time>2024-12-07T23:57:32.620Z</time>
      </trkpt>
      <trkpt lat="45.88377" lon="3.58796">
        <ele>600</ele>
        <time>2024-12-07T23:57:33.619Z</time>
      </trkpt>
      <trkpt lat="45.88376" lon="3.58798">
        <ele>601</ele>
        <time>2024-12-07T23:57:34.620Z</time>
      </trkpt>
      <trkpt lat="45.88375" lon="3.58801">
        <ele>601</ele>
        <time>2024-12-07T23:57:35.619Z</time>
      </trkpt>
      <trkpt lat="45.88374" lon="3.58803">
        <ele>600</ele>
        <time>2024-12-07T23:57:36.619Z</time>
      </trkpt>
      <trkpt lat="45.88373" lon="3.58804">
        <ele>600</ele>
        <time>2024-12-07T23:57:37.619Z</time>
      </trkpt>
      <trkpt lat="45.88372" lon="3.58806">
        <ele>600</ele>
        <time>2024-12-07T23:57:38.619Z</time>
      </trkpt>
      <trkpt lat="45.88371" lon="3.58808">
        <ele>600</ele>
        <time>2024-12-07T23:57:39.620Z</time>
      </trkpt>
      <trkpt lat="45.8837" lon="3.5881">
        <ele>600</ele>
        <time>2024-12-07T23:57:40.619Z</time>
      </trkpt>
      <trkpt lat="45.88369" lon="3.58811">
        <ele>600</ele>
        <time>2024-12-07T23:57:41.619Z</time>
      </trkpt>
      <trkpt lat="45.88368" lon="3.58813">
        <ele>600</ele>
        <time>2024-12-07T23:57:42.619Z</time>
      </trkpt>
      <trkpt lat="45.88367" lon="3.58815">
        <ele>600</ele>
        <time>2024-12-07T23:57:43.620Z</time>
      </trkpt>
      <trkpt lat="45.88366" lon="3.58817">
        <ele>601</ele>
        <time>2024-12-07T23:57:44.619Z</time>
      </trkpt>
      <trkpt lat="45.88365" lon="3.58819">
        <ele>601</ele>
        <time>2024-12-07T23:57:45.619Z</time>
      </trkpt>
      <trkpt lat="45.88363" lon="3.58821">
        <ele>602</ele>
        <time>2024-12-07T23:57:46.620Z</time>
      </trkpt>
      <trkpt lat="45.88362" lon="3.58823">
        <ele>603</ele>
        <time>2024-12-07T23:57:47.619Z</time>
      </trkpt>
      <trkpt lat="45.88361" lon="3.58825">
        <ele>604</ele>
        <time>2024-12-07T23:57:48.620Z</time>
      </trkpt>
      <trkpt lat="45.8836" lon="3.58827">
        <ele>604</ele>
        <time>2024-12-07T23:57:49.619Z</time>
      </trkpt>
      <trkpt lat="45.88359" lon="3.58829">
        <ele>605</ele>
        <time>2024-12-07T23:57:50.619Z</time>
      </trkpt>
      <trkpt lat="45.88358" lon="3.5883">
        <ele>605</ele>
        <time>2024-12-07T23:57:51.620Z</time>
      </trkpt>
      <trkpt lat="45.88357" lon="3.58832">
        <ele>605</ele>
        <time>2024-12-07T23:57:52.620Z</time>
      </trkpt>
      <trkpt lat="45.88356" lon="3.58834">
        <ele>605</ele>
        <time>2024-12-07T23:57:53.619Z</time>
      </trkpt>
      <trkpt lat="45.88355" lon="3.58836">
        <ele>605</ele>
        <time>2024-12-07T23:57:54.620Z</time>
      </trkpt>
      <trkpt lat="45.88353" lon="3.58837">
        <ele>606</ele>
        <time>2024-12-07T23:57:55.620Z</time>
      </trkpt>
      <trkpt lat="45.88352" lon="3.58838">
        <ele>606</ele>
        <time>2024-12-07T23:57:56.620Z</time>
      </trkpt>
      <trkpt lat="45.88351" lon="3.58839">
        <ele>606</ele>
        <time>2024-12-07T23:57:57.620Z</time>
      </trkpt>
      <trkpt lat="45.8835" lon="3.58841">
        <ele>606</ele>
        <time>2024-12-07T23:57:58.619Z</time>
      </trkpt>
      <trkpt lat="45.88349" lon="3.58842">
        <ele>607</ele>
        <time>2024-12-07T23:57:59.620Z</time>
      </trkpt>
      <trkpt lat="45.88348" lon="3.58844">
        <ele>607</ele>
        <time>2024-12-07T23:58:00.619Z</time>
      </trkpt>
      <trkpt lat="45.88347" lon="3.58845">
        <ele>608</ele>
        <time>2024-12-07T23:58:01.620Z</time>
      </trkpt>
      <trkpt lat="45.88346" lon="3.58847">
        <ele>608</ele>
        <time>2024-12-07T23:58:02.619Z</time>
      </trkpt>
      <trkpt lat="45.88345" lon="3.58849">
        <ele>609</ele>
        <time>2024-12-07T23:58:03.620Z</time>
      </trkpt>
      <trkpt lat="45.88343" lon="3.58851">
        <ele>610</ele>
        <time>2024-12-07T23:58:04.619Z</time>
      </trkpt>
      <trkpt lat="45.88342" lon="3.58852">
        <ele>610</ele>
        <time>2024-12-07T23:58:05.619Z</time>
      </trkpt>
      <trkpt lat="45.88341" lon="3.58854">
        <ele>610</ele>
        <time>2024-12-07T23:58:06.619Z</time>
      </trkpt>
      <trkpt lat="45.8834" lon="3.58856">
        <ele>611</ele>
        <time>2024-12-07T23:58:07.620Z</time>
      </trkpt>
      <trkpt lat="45.88339" lon="3.58858">
        <ele>611</ele>
        <time>2024-12-07T23:58:08.619Z</time>
      </trkpt>
      <trkpt lat="45.88338" lon="3.58859">
        <ele>611</ele>
        <time>2024-12-07T23:58:09.619Z</time>
      </trkpt>
      <trkpt lat="45.88337" lon="3.58861">
        <ele>611</ele>
        <time>2024-12-07T23:58:10.620Z</time>
      </trkpt>
      <trkpt lat="45.88336" lon="3.58862">
        <ele>611</ele>
        <time>2024-12-07T23:58:11.619Z</time>
      </trkpt>
      <trkpt lat="45.88335" lon="3.58864">
        <ele>611</ele>
        <time>2024-12-07T23:58:12.620Z</time>
      </trkpt>
      <trkpt lat="45.88334" lon="3.58865">
        <ele>612</ele>
        <time>2024-12-07T23:58:13.619Z</time>
      </trkpt>
      <trkpt lat="45.88332" lon="3.58867">
        <ele>612</ele>
        <time>2024-12-07T23:58:14.620Z</time>
      </trkpt>
      <trkpt lat="45.88332" lon="3.58868">
        <ele>612</ele>
        <time>2024-12-07T23:58:15.620Z</time>
      </trkpt>
      <trkpt lat="45.88331" lon="3.5887">
        <ele>612</ele>
        <time>2024-12-07T23:58:16.620Z</time>
      </trkpt>
      <trkpt lat="45.8833" lon="3.58871">
        <ele>612</ele>
        <time>2024-12-07T23:58:17.620Z</time>
      </trkpt>
      <trkpt lat="45.88329" lon="3.58873">
        <ele>611</ele>
        <time>2024-12-07T23:58:18.619Z</time>
      </trkpt>
      <trkpt lat="45.88328" lon="3.58875">
        <ele>611</ele>
        <time>2024-12-07T23:58:19.620Z</time>
      </trkpt>
      <trkpt lat="45.88326" lon="3.58876">
        <ele>611</ele>
        <time>2024-12-07T23:58:20.619Z</time>
      </trkpt>
      <trkpt lat="45.88325" lon="3.58878">
        <ele>610</ele>
        <time>2024-12-07T23:58:21.620Z</time>
      </trkpt>
      <trkpt lat="45.88324" lon="3.5888">
        <ele>610</ele>
        <time>2024-12-07T23:58:22.619Z</time>
      </trkpt>
      <trkpt lat="45.88323" lon="3.58882">
        <ele>610</ele>
        <time>2024-12-07T23:58:23.620Z</time>
      </trkpt>
      <trkpt lat="45.88322" lon="3.58883">
        <ele>610</ele>
        <time>2024-12-07T23:58:24.619Z</time>
      </trkpt>
      <trkpt lat="45.8832" lon="3.58885">
        <ele>610</ele>
        <time>2024-12-07T23:58:25.619Z</time>
      </trkpt>
      <trkpt lat="45.88319" lon="3.58887">
        <ele>610</ele>
        <time>2024-12-07T23:58:26.619Z</time>
      </trkpt>
      <trkpt lat="45.88318" lon="3.5889">
        <ele>609</ele>
        <time>2024-12-07T23:58:27.619Z</time>
      </trkpt>
      <trkpt lat="45.88317" lon="3.58892">
        <ele>610</ele>
        <time>2024-12-07T23:58:28.619Z</time>
      </trkpt>
      <trkpt lat="45.88316" lon="3.58894">
        <ele>610</ele>
        <time>2024-12-07T23:58:29.620Z</time>
      </trkpt>
      <trkpt lat="45.88315" lon="3.58895">
        <ele>610</ele>
        <time>2024-12-07T23:58:30.619Z</time>
      </trkpt>
      <trkpt lat="45.88314" lon="3.58897">
        <ele>610</ele>
        <time>2024-12-07T23:58:31.619Z</time>
      </trkpt>
      <trkpt lat="45.88313" lon="3.58899">
        <ele>611</ele>
        <time>2024-12-07T23:58:32.620Z</time>
      </trkpt>
      <trkpt lat="45.88312" lon="3.58901">
        <ele>611</ele>
        <time>2024-12-07T23:58:33.620Z</time>
      </trkpt>
      <trkpt lat="45.88312" lon="3.58903">
        <ele>611</ele>
        <time>2024-12-07T23:58:34.619Z</time>
      </trkpt>
      <trkpt lat="45.88311" lon="3.58905">
        <ele>611</ele>
        <time>2024-12-07T23:58:35.620Z</time>
      </trkpt>
      <trkpt lat="45.8831" lon="3.58907">
        <ele>611</ele>
        <time>2024-12-07T23:58:36.620Z</time>
      </trkpt>
      <trkpt lat="45.88308" lon="3.58909">
        <ele>611</ele>
        <time>2024-12-07T23:58:37.620Z</time>
      </trkpt>
      <trkpt lat="45.88307" lon="3.58911">
        <ele>611</ele>
        <time>2024-12-07T23:58:38.619Z</time>
      </trkpt>
      <trkpt lat="45.88306" lon="3.58913">
        <ele>611</ele>
        <time>2024-12-07T23:58:39.620Z</time>
      </trkpt>
      <trkpt lat="45.88305" lon="3.58915">
        <ele>610</ele>
        <time>2024-12-07T23:58:40.620Z</time>
      </trkpt>
      <trkpt lat="45.88304" lon="3.58916">
        <ele>610</ele>
        <time>2024-12-07T23:58:41.619Z</time>
      </trkpt>
      <trkpt lat="45.88302" lon="3.58918">
        <ele>610</ele>
        <time>2024-12-07T23:58:42.619Z</time>
      </trkpt>
      <trkpt lat="45.88301" lon="3.5892">
        <ele>610</ele>
        <time>2024-12-07T23:58:43.620Z</time>
      </trkpt>
      <trkpt lat="45.883" lon="3.58922">
        <ele>609</ele>
        <time>2024-12-07T23:58:44.619Z</time>
      </trkpt>
      <trkpt lat="45.88298" lon="3.58924">
        <ele>609</ele>
        <time>2024-12-07T23:58:45.619Z</time>
      </trkpt>
      <trkpt lat="45.88297" lon="3.58926">
        <ele>609</ele>
        <time>2024-12-07T23:58:46.620Z</time>
      </trkpt>
      <trkpt lat="45.88296" lon="3.58928">
        <ele>608</ele>
        <time>2024-12-07T23:58:47.619Z</time>
      </trkpt>
      <trkpt lat="45.88295" lon="3.58929">
        <ele>608</ele>
        <time>2024-12-07T23:58:48.620Z</time>
      </trkpt>
      <trkpt lat="45.88293" lon="3.5893">
        <ele>608</ele>
        <time>2024-12-07T23:58:49.620Z</time>
      </trkpt>
      <trkpt lat="45.88292" lon="3.58931">
        <ele>607</ele>
        <time>2024-12-07T23:58:50.619Z</time>
      </trkpt>
      <trkpt lat="45.8829" lon="3.58933">
        <ele>607</ele>
        <time>2024-12-07T23:58:51.619Z</time>
      </trkpt>
      <trkpt lat="45.88289" lon="3.58934">
        <ele>607</ele>
        <time>2024-12-07T23:58:52.620Z</time>
      </trkpt>
      <trkpt lat="45.88288" lon="3.58935">
        <ele>607</ele>
        <time>2024-12-07T23:58:53.620Z</time>
      </trkpt>
      <trkpt lat="45.88286" lon="3.58937">
        <ele>607</ele>
        <time>2024-12-07T23:58:54.619Z</time>
      </trkpt>
      <trkpt lat="45.88285" lon="3.58938">
        <ele>608</ele>
        <time>2024-12-07T23:58:55.619Z</time>
      </trkpt>
      <trkpt lat="45.88284" lon="3.58941">
        <ele>608</ele>
        <time>2024-12-07T23:58:56.620Z</time>
      </trkpt>
      <trkpt lat="45.88283" lon="3.58943">
        <ele>608</ele>
        <time>2024-12-07T23:58:57.619Z</time>
      </trkpt>
      <trkpt lat="45.88282" lon="3.58945">
        <ele>608</ele>
        <time>2024-12-07T23:58:58.620Z</time>
      </trkpt>
      <trkpt lat="45.88281" lon="3.58946">
        <ele>608</ele>
        <time>2024-12-07T23:58:59.619Z</time>
      </trkpt>
      <trkpt lat="45.8828" lon="3.58947">
        <ele>608</ele>
        <time>2024-12-07T23:59:00.619Z</time>
      </trkpt>
      <trkpt lat="45.88279" lon="3.58949">
        <ele>609</ele>
        <time>2024-12-07T23:59:01.620Z</time>
      </trkpt>
      <trkpt lat="45.88278" lon="3.5895">
        <ele>609</ele>
        <time>2024-12-07T23:59:02.620Z</time>
      </trkpt>
      <trkpt lat="45.88277" lon="3.58952">
        <ele>609</ele>
        <time>2024-12-07T23:59:03.620Z</time>
      </trkpt>
      <trkpt lat="45.88276" lon="3.58954">
        <ele>609</ele>
        <time>2024-12-07T23:59:04.620Z</time>
      </trkpt>
      <trkpt lat="45.88275" lon="3.58956">
        <ele>610</ele>
        <time>2024-12-07T23:59:05.620Z</time>
      </trkpt>
      <trkpt lat="45.88274" lon="3.58957">
        <ele>610</ele>
        <time>2024-12-07T23:59:06.619Z</time>
      </trkpt>
      <trkpt lat="45.88273" lon="3.58959">
        <ele>610</ele>
        <time>2024-12-07T23:59:07.619Z</time>
      </trkpt>
      <trkpt lat="45.88272" lon="3.5896">
        <ele>611</ele>
        <time>2024-12-07T23:59:08.620Z</time>
      </trkpt>
      <trkpt lat="45.88271" lon="3.58962">
        <ele>611</ele>
        <time>2024-12-07T23:59:09.620Z</time>
      </trkpt>
      <trkpt lat="45.8827" lon="3.58964">
        <ele>612</ele>
        <time>2024-12-07T23:59:10.619Z</time>
      </trkpt>
      <trkpt lat="45.88268" lon="3.58966">
        <ele>612</ele>
        <time>2024-12-07T23:59:11.620Z</time>
      </trkpt>
      <trkpt lat="45.88267" lon="3.58968">
        <ele>613</ele>
        <time>2024-12-07T23:59:12.619Z</time>
      </trkpt>
      <trkpt lat="45.88266" lon="3.58969">
        <ele>613</ele>
        <time>2024-12-07T23:59:13.619Z</time>
      </trkpt>
      <trkpt lat="45.88265" lon="3.58972">
        <ele>613</ele>
        <time>2024-12-07T23:59:14.620Z</time>
      </trkpt>
      <trkpt lat="45.88264" lon="3.58974">
        <ele>613</ele>
        <time>2024-12-07T23:59:15.620Z</time>
      </trkpt>
      <trkpt lat="45.88262" lon="3.58975">
        <ele>613</ele>
        <time>2024-12-07T23:59:16.620Z</time>
      </trkpt>
      <trkpt lat="45.88261" lon="3.58977">
        <ele>614</ele>
        <time>2024-12-07T23:59:17.620Z</time>
      </trkpt>
      <trkpt lat="45.8826" lon="3.58979">
        <ele>614</ele>
        <time>2024-12-07T23:59:18.620Z</time>
      </trkpt>
      <trkpt lat="45.88259" lon="3.58981">
        <ele>614</ele>
        <time>2024-12-07T23:59:19.620Z</time>
      </trkpt>
      <trkpt lat="45.88258" lon="3.58983">
        <ele>614</ele>
        <time>2024-12-07T23:59:20.619Z</time>
      </trkpt>
      <trkpt lat="45.88257" lon="3.58984">
        <ele>614</ele>
        <time>2024-12-07T23:59:21.620Z</time>
      </trkpt>
      <trkpt lat="45.88256" lon="3.58986">
        <ele>615</ele>
        <time>2024-12-07T23:59:22.620Z</time>
      </trkpt>
      <trkpt lat="45.88255" lon="3.58987">
        <ele>615</ele>
        <time>2024-12-07T23:59:23.620Z</time>
      </trkpt>
      <trkpt lat="45.88254" lon="3.58989">
        <ele>615</ele>
        <time>2024-12-07T23:59:24.620Z</time>
      </trkpt>
      <trkpt lat="45.88253" lon="3.58991">
        <ele>615</ele>
        <time>2024-12-07T23:59:25.619Z</time>
      </trkpt>
      <trkpt lat="45.88253" lon="3.58993">
        <ele>615</ele>
        <time>2024-12-07T23:59:26.620Z</time>
      </trkpt>
      <trkpt lat="45.88252" lon="3.58994">
        <ele>615</ele>
        <time>2024-12-07T23:59:27.620Z</time>
      </trkpt>
      <trkpt lat="45.8825" lon="3.58996">
        <ele>615</ele>
        <time>2024-12-07T23:59:28.619Z</time>
      </trkpt>
      <trkpt lat="45.88249" lon="3.58997">
        <ele>616</ele>
        <time>2024-12-07T23:59:29.620Z</time>
      </trkpt>
      <trkpt lat="45.88248" lon="3.58999">
        <ele>616</ele>
        <time>2024-12-07T23:59:30.620Z</time>
      </trkpt>
      <trkpt lat="45.88247" lon="3.59">
        <ele>616</ele>
        <time>2024-12-07T23:59:31.620Z</time>
      </trkpt>
      <trkpt lat="45.88246" lon="3.59002">
        <ele>616</ele>
        <time>2024-12-07T23:59:32.619Z</time>
      </trkpt>
      <trkpt lat="45.88245" lon="3.59003">
        <ele>616</ele>
        <time>2024-12-07T23:59:33.619Z</time>
      </trkpt>
      <trkpt lat="45.88244" lon="3.59005">
        <ele>616</ele>
        <time>2024-12-07T23:59:34.620Z</time>
      </trkpt>
      <trkpt lat="45.88243" lon="3.59007">
        <ele>617</ele>
        <time>2024-12-07T23:59:35.620Z</time>
      </trkpt>
      <trkpt lat="45.88242" lon="3.59009">
        <ele>617</ele>
        <time>2024-12-07T23:59:36.619Z</time>
      </trkpt>
      <trkpt lat="45.88241" lon="3.5901">
        <ele>617</ele>
        <time>2024-12-07T23:59:37.619Z</time>
      </trkpt>
      <trkpt lat="45.8824" lon="3.59012">
        <ele>617</ele>
        <time>2024-12-07T23:59:38.619Z</time>
      </trkpt>
      <trkpt lat="45.88239" lon="3.59014">
        <ele>617</ele>
        <time>2024-12-07T23:59:39.620Z</time>
      </trkpt>
      <trkpt lat="45.88238" lon="3.59015">
        <ele>617</ele>
        <time>2024-12-07T23:59:40.619Z</time>
      </trkpt>
      <trkpt lat="45.88237" lon="3.59017">
        <ele>617</ele>
        <time>2024-12-07T23:59:41.619Z</time>
      </trkpt>
      <trkpt lat="45.88236" lon="3.59019">
        <ele>617</ele>
        <time>2024-12-07T23:59:42.620Z</time>
      </trkpt>
      <trkpt lat="45.88235" lon="3.5902">
        <ele>616</ele>
        <time>2024-12-07T23:59:43.620Z</time>
      </trkpt>
      <trkpt lat="45.88234" lon="3.59022">
        <ele>616</ele>
        <time>2024-12-07T23:59:44.620Z</time>
      </trkpt>
      <trkpt lat="45.88233" lon="3.59024">
        <ele>616</ele>
        <time>2024-12-07T23:59:45.620Z</time>
      </trkpt>
      <trkpt lat="45.88232" lon="3.59025">
        <ele>616</ele>
        <time>2024-12-07T23:59:46.620Z</time>
      </trkpt>
      <trkpt lat="45.88231" lon="3.59027">
        <ele>616</ele>
        <time>2024-12-07T23:59:47.620Z</time>
      </trkpt>
      <trkpt lat="45.8823" lon="3.59029">
        <ele>617</ele>
        <time>2024-12-07T23:59:48.620Z</time>
      </trkpt>
      <trkpt lat="45.88229" lon="3.59031">
        <ele>617</ele>
        <time>2024-12-07T23:59:49.620Z</time>
      </trkpt>
      <trkpt lat="45.88228" lon="3.59033">
        <ele>618</ele>
        <time>2024-12-07T23:59:50.619Z</time>
      </trkpt>
      <trkpt lat="45.88227" lon="3.59035">
        <ele>618</ele>
        <time>2024-12-07T23:59:51.620Z</time>
      </trkpt>
      <trkpt lat="45.88226" lon="3.59037">
        <ele>618</ele>
        <time>2024-12-07T23:59:52.620Z</time>
      </trkpt>
      <trkpt lat="45.88225" lon="3.59039">
        <ele>619</ele>
        <time>2024-12-07T23:59:53.619Z</time>
      </trkpt>
      <trkpt lat="45.88224" lon="3.5904">
        <ele>619</ele>
        <time>2024-12-07T23:59:54.619Z</time>
      </trkpt>
      <trkpt lat="45.88224" lon="3.59042">
        <ele>620</ele>
        <time>2024-12-07T23:59:55.619Z</time>
      </trkpt>
      <trkpt lat="45.88223" lon="3.59044">
        <ele>620</ele>
        <time>2024-12-07T23:59:56.620Z</time>
      </trkpt>
      <trkpt lat="45.88222" lon="3.59046">
        <ele>620</ele>
        <time>2024-12-07T23:59:57.619Z</time>
      </trkpt>
      <trkpt lat="45.88221" lon="3.59048">
        <ele>620</ele>
        <time>2024-12-07T23:59:58.620Z</time>
      </trkpt>
      <trkpt lat="45.8822" lon="3.5905">
        <ele>620</ele>
        <time>2024-12-07T23:59:59.619Z</time>
      </trkpt>
      <trkpt lat="45.88219" lon="3.59052">
        <ele>620</ele>
        <time>2024-12-08T00:00:00.620Z</time>
      </trkpt>
      <trkpt lat="45.88218" lon="3.59054">
        <ele>620</ele>
        <time>2024-12-08T00:00:01.620Z</time>
      </trkpt>
      <trkpt lat="45.88217" lon="3.59056">
        <ele>620</ele>
        <time>2024-12-08T00:00:02.619Z</time>
      </trkpt>
      <trkpt lat="45.88216" lon="3.59057">
        <ele>620</ele>
        <time>2024-12-08T00:00:03.619Z</time>
      </trkpt>
      <trkpt lat="45.88215" lon="3.59059">
        <ele>620</ele>
        <time>2024-12-08T00:00:04.619Z</time>
      </trkpt>
      <trkpt lat="45.88215" lon="3.59061">
        <ele>619</ele>
        <time>2024-12-08T00:00:05.620Z</time>
      </trkpt>
      <trkpt lat="45.88214" lon="3.59063">
        <ele>619</ele>
        <time>2024-12-08T00:00:06.620Z</time>
      </trkpt>
      <trkpt lat="45.88213" lon="3.59065">
        <ele>619</ele>
        <time>2024-12-08T00:00:07.619Z</time>
      </trkpt>
      <trkpt lat="45.88212" lon="3.59067">
        <ele>619</ele>
        <time>2024-12-08T00:00:08.619Z</time>
      </trkpt>
      <trkpt lat="45.88212" lon="3.59069">
        <ele>619</ele>
        <time>2024-12-08T00:00:09.620Z</time>
      </trkpt>
      <trkpt lat="45.88211" lon="3.59071">
        <ele>619</ele>
        <time>2024-12-08T00:00:10.620Z</time>
      </trkpt>
      <trkpt lat="45.8821" lon="3.59073">
        <ele>619</ele>
        <time>2024-12-08T00:00:11.619Z</time>
      </trkpt>
      <trkpt lat="45.8821" lon="3.59075">
        <ele>619</ele>
        <time>2024-12-08T00:00:12.619Z</time>
      </trkpt>
      <trkpt lat="45.88209" lon="3.59077">
        <ele>620</ele>
        <time>2024-12-08T00:00:13.619Z</time>
      </trkpt>
      <trkpt lat="45.88208" lon="3.59078">
        <ele>620</ele>
        <time>2024-12-08T00:00:14.620Z</time>
      </trkpt>
      <trkpt lat="45.88207" lon="3.5908">
        <ele>620</ele>
        <time>2024-12-08T00:00:15.620Z</time>
      </trkpt>
      <trkpt lat="45.88207" lon="3.59082">
        <ele>621</ele>
        <time>2024-12-08T00:00:16.619Z</time>
      </trkpt>
      <trkpt lat="45.88206" lon="3.59084">
        <ele>621</ele>
        <time>2024-12-08T00:00:17.620Z</time>
      </trkpt>
      <trkpt lat="45.88205" lon="3.59085">
        <ele>622</ele>
        <time>2024-12-08T00:00:18.620Z</time>
      </trkpt>
      <trkpt lat="45.88205" lon="3.59087">
        <ele>622</ele>
        <time>2024-12-08T00:00:19.619Z</time>
      </trkpt>
      <trkpt lat="45.88204" lon="3.5909">
        <ele>622</ele>
        <time>2024-12-08T00:00:20.620Z</time>
      </trkpt>
      <trkpt lat="45.88203" lon="3.59092">
        <ele>623</ele>
        <time>2024-12-08T00:00:21.620Z</time>
      </trkpt>
      <trkpt lat="45.88202" lon="3.59094">
        <ele>623</ele>
        <time>2024-12-08T00:00:22.620Z</time>
      </trkpt>
      <trkpt lat="45.88202" lon="3.59096">
        <ele>623</ele>
        <time>2024-12-08T00:00:23.620Z</time>
      </trkpt>
      <trkpt lat="45.88201" lon="3.59098">
        <ele>624</ele>
        <time>2024-12-08T00:00:24.619Z</time>
      </trkpt>
      <trkpt lat="45.882" lon="3.591">
        <ele>624</ele>
        <time>2024-12-08T00:00:25.620Z</time>
      </trkpt>
      <trkpt lat="45.88199" lon="3.59102">
        <ele>625</ele>
        <time>2024-12-08T00:00:26.620Z</time>
      </trkpt>
      <trkpt lat="45.88199" lon="3.59105">
        <ele>625</ele>
        <time>2024-12-08T00:00:27.619Z</time>
      </trkpt>
      <trkpt lat="45.88198" lon="3.59107">
        <ele>625</ele>
        <time>2024-12-08T00:00:28.619Z</time>
      </trkpt>
      <trkpt lat="45.88197" lon="3.59109">
        <ele>626</ele>
        <time>2024-12-08T00:00:29.620Z</time>
      </trkpt>
      <trkpt lat="45.88197" lon="3.59111">
        <ele>626</ele>
        <time>2024-12-08T00:00:30.620Z</time>
      </trkpt>
      <trkpt lat="45.88196" lon="3.59113">
        <ele>626</ele>
        <time>2024-12-08T00:00:31.619Z</time>
      </trkpt>
      <trkpt lat="45.88195" lon="3.59115">
        <ele>626</ele>
        <time>2024-12-08T00:00:32.619Z</time>
      </trkpt>
      <trkpt lat="45.88194" lon="3.59117">
        <ele>626</ele>
        <time>2024-12-08T00:00:33.620Z</time>
      </trkpt>
      <trkpt lat="45.88194" lon="3.59119">
        <ele>626</ele>
        <time>2024-12-08T00:00:34.620Z</time>
      </trkpt>
      <trkpt lat="45.88193" lon="3.59121">
        <ele>626</ele>
        <time>2024-12-08T00:00:35.619Z</time>
      </trkpt>
      <trkpt lat="45.88192" lon="3.59123">
        <ele>627</ele>
        <time>2024-12-08T00:00:36.620Z</time>
      </trkpt>
      <trkpt lat="45.88192" lon="3.59125">
        <ele>627</ele>
        <time>2024-12-08T00:00:37.619Z</time>
      </trkpt>
      <trkpt lat="45.88191" lon="3.59127">
        <ele>627</ele>
        <time>2024-12-08T00:00:38.620Z</time>
      </trkpt>
      <trkpt lat="45.8819" lon="3.59129">
        <ele>628</ele>
        <time>2024-12-08T00:00:39.619Z</time>
      </trkpt>
      <trkpt lat="45.8819" lon="3.59131">
        <ele>628</ele>
        <time>2024-12-08T00:00:40.620Z</time>
      </trkpt>
      <trkpt lat="45.88189" lon="3.59132">
        <ele>628</ele>
        <time>2024-12-08T00:00:41.620Z</time>
      </trkpt>
      <trkpt lat="45.88188" lon="3.59134">
        <ele>628</ele>
        <time>2024-12-08T00:00:42.619Z</time>
      </trkpt>
      <trkpt lat="45.88188" lon="3.59136">
        <ele>628</ele>
        <time>2024-12-08T00:00:43.620Z</time>
      </trkpt>
      <trkpt lat="45.88187" lon="3.59138">
        <ele>627</ele>
        <time>2024-12-08T00:00:44.620Z</time>
      </trkpt>
      <trkpt lat="45.88186" lon="3.5914">
        <ele>627</ele>
        <time>2024-12-08T00:00:45.619Z</time>
      </trkpt>
      <trkpt lat="45.88186" lon="3.59142">
        <ele>627</ele>
        <time>2024-12-08T00:00:46.620Z</time>
      </trkpt>
      <trkpt lat="45.88185" lon="3.59143">
        <ele>627</ele>
        <time>2024-12-08T00:00:47.619Z</time>
      </trkpt>
      <trkpt lat="45.88185" lon="3.59145">
        <ele>627</ele>
        <time>2024-12-08T00:00:48.619Z</time>
      </trkpt>
      <trkpt lat="45.88184" lon="3.59147">
        <ele>627</ele>
        <time>2024-12-08T00:00:49.620Z</time>
      </trkpt>
      <trkpt lat="45.88184" lon="3.5915">
        <ele>628</ele>
        <time>2024-12-08T00:00:50.620Z</time>
      </trkpt>
      <trkpt lat="45.88183" lon="3.59152">
        <ele>628</ele>
        <time>2024-12-08T00:00:51.619Z</time>
      </trkpt>
      <trkpt lat="45.88182" lon="3.59154">
        <ele>628</ele>
        <time>2024-12-08T00:00:52.620Z</time>
      </trkpt>
      <trkpt lat="45.88182" lon="3.59156">
        <ele>628</ele>
        <time>2024-12-08T00:00:53.620Z</time>
      </trkpt>
      <trkpt lat="45.88181" lon="3.59158">
        <ele>628</ele>
        <time>2024-12-08T00:00:54.620Z</time>
      </trkpt>
      <trkpt lat="45.8818" lon="3.59161">
        <ele>629</ele>
        <time>2024-12-08T00:00:55.619Z</time>
      </trkpt>
      <trkpt lat="45.88179" lon="3.59163">
        <ele>629</ele>
        <time>2024-12-08T00:00:56.620Z</time>
      </trkpt>
      <trkpt lat="45.88178" lon="3.59166">
        <ele>629</ele>
        <time>2024-12-08T00:00:57.619Z</time>
      </trkpt>
      <trkpt lat="45.88177" lon="3.59168">
        <ele>630</ele>
        <time>2024-12-08T00:00:58.619Z</time>
      </trkpt>
      <trkpt lat="45.88176" lon="3.59171">
        <ele>630</ele>
        <time>2024-12-08T00:00:59.620Z</time>
      </trkpt>
      <trkpt lat="45.88175" lon="3.59173">
        <ele>630</ele>
        <time>2024-12-08T00:01:00.619Z</time>
      </trkpt>
      <trkpt lat="45.88174" lon="3.59176">
        <ele>630</ele>
        <time>2024-12-08T00:01:01.619Z</time>
      </trkpt>
      <trkpt lat="45.88174" lon="3.59178">
        <ele>629</ele>
        <time>2024-12-08T00:01:02.619Z</time>
      </trkpt>
      <trkpt lat="45.88173" lon="3.5918">
        <ele>629</ele>
        <time>2024-12-08T00:01:03.619Z</time>
      </trkpt>
      <trkpt lat="45.88172" lon="3.59182">
        <ele>629</ele>
        <time>2024-12-08T00:01:04.620Z</time>
      </trkpt>
      <trkpt lat="45.88172" lon="3.59185">
        <ele>629</ele>
        <time>2024-12-08T00:01:05.620Z</time>
      </trkpt>
      <trkpt lat="45.88171" lon="3.59187">
        <ele>630</ele>
        <time>2024-12-08T00:01:06.619Z</time>
      </trkpt>
      <trkpt lat="45.8817" lon="3.5919">
        <ele>630</ele>
        <time>2024-12-08T00:01:07.620Z</time>
      </trkpt>
      <trkpt lat="45.8817" lon="3.59192">
        <ele>630</ele>
        <time>2024-12-08T00:01:08.619Z</time>
      </trkpt>
      <trkpt lat="45.88169" lon="3.59195">
        <ele>630</ele>
        <time>2024-12-08T00:01:09.620Z</time>
      </trkpt>
      <trkpt lat="45.88168" lon="3.59197">
        <ele>630</ele>
        <time>2024-12-08T00:01:10.620Z</time>
      </trkpt>
      <trkpt lat="45.88167" lon="3.592">
        <ele>631</ele>
        <time>2024-12-08T00:01:11.619Z</time>
      </trkpt>
      <trkpt lat="45.88166" lon="3.59202">
        <ele>631</ele>
        <time>2024-12-08T00:01:12.619Z</time>
      </trkpt>
      <trkpt lat="45.88165" lon="3.59204">
        <ele>631</ele>
        <time>2024-12-08T00:01:13.620Z</time>
      </trkpt>
      <trkpt lat="45.88163" lon="3.59206">
        <ele>631</ele>
        <time>2024-12-08T00:01:14.619Z</time>
      </trkpt>
      <trkpt lat="45.88162" lon="3.59208">
        <ele>631</ele>
        <time>2024-12-08T00:01:15.620Z</time>
      </trkpt>
      <trkpt lat="45.88161" lon="3.59209">
        <ele>631</ele>
        <time>2024-12-08T00:01:16.619Z</time>
      </trkpt>
      <trkpt lat="45.88159" lon="3.59211">
        <ele>632</ele>
        <time>2024-12-08T00:01:17.619Z</time>
      </trkpt>
      <trkpt lat="45.88157" lon="3.59212">
        <ele>632</ele>
        <time>2024-12-08T00:01:18.619Z</time>
      </trkpt>
      <trkpt lat="45.88156" lon="3.59213">
        <ele>632</ele>
        <time>2024-12-08T00:01:19.619Z</time>
      </trkpt>
      <trkpt lat="45.88154" lon="3.59214">
        <ele>632</ele>
        <time>2024-12-08T00:01:20.620Z</time>
      </trkpt>
      <trkpt lat="45.88152" lon="3.59215">
        <ele>632</ele>
        <time>2024-12-08T00:01:21.620Z</time>
      </trkpt>
      <trkpt lat="45.8815" lon="3.59217">
        <ele>632</ele>
        <time>2024-12-08T00:01:22.619Z</time>
      </trkpt>
      <trkpt lat="45.88148" lon="3.59218">
        <ele>631</ele>
        <time>2024-12-08T00:01:23.619Z</time>
      </trkpt>
      <trkpt lat="45.88146" lon="3.59219">
        <ele>631</ele>
        <time>2024-12-08T00:01:24.619Z</time>
      </trkpt>
      <trkpt lat="45.88145" lon="3.59221">
        <ele>631</ele>
        <time>2024-12-08T00:01:25.619Z</time>
      </trkpt>
      <trkpt lat="45.88143" lon="3.59222">
        <ele>631</ele>
        <time>2024-12-08T00:01:26.619Z</time>
      </trkpt>
      <trkpt lat="45.88142" lon="3.59223">
        <ele>631</ele>
        <time>2024-12-08T00:01:27.620Z</time>
      </trkpt>
      <trkpt lat="45.8814" lon="3.59224">
        <ele>631</ele>
        <time>2024-12-08T00:01:28.620Z</time>
      </trkpt>
      <trkpt lat="45.88139" lon="3.59226">
        <ele>631</ele>
        <time>2024-12-08T00:01:29.619Z</time>
      </trkpt>
      <trkpt lat="45.88137" lon="3.59227">
        <ele>631</ele>
        <time>2024-12-08T00:01:30.620Z</time>
      </trkpt>
      <trkpt lat="45.88136" lon="3.59229">
        <ele>630</ele>
        <time>2024-12-08T00:01:31.620Z</time>
      </trkpt>
      <trkpt lat="45.88134" lon="3.59231">
        <ele>630</ele>
        <time>2024-12-08T00:01:32.619Z</time>
      </trkpt>
      <trkpt lat="45.88132" lon="3.59233">
        <ele>630</ele>
        <time>2024-12-08T00:01:33.619Z</time>
      </trkpt>
      <trkpt lat="45.88131" lon="3.59235">
        <ele>630</ele>
        <time>2024-12-08T00:01:34.619Z</time>
      </trkpt>
      <trkpt lat="45.88129" lon="3.59237">
        <ele>630</ele>
        <time>2024-12-08T00:01:35.619Z</time>
      </trkpt>
      <trkpt lat="45.88128" lon="3.59238">
        <ele>629</ele>
        <time>2024-12-08T00:01:36.619Z</time>
      </trkpt>
      <trkpt lat="45.88127" lon="3.5924">
        <ele>629</ele>
        <time>2024-12-08T00:01:37.619Z</time>
      </trkpt>
      <trkpt lat="45.88126" lon="3.59242">
        <ele>629</ele>
        <time>2024-12-08T00:01:38.619Z</time>
      </trkpt>
      <trkpt lat="45.88125" lon="3.59244">
        <ele>629</ele>
        <time>2024-12-08T00:01:39.619Z</time>
      </trkpt>
      <trkpt lat="45.88124" lon="3.59246">
        <ele>629</ele>
        <time>2024-12-08T00:01:40.619Z</time>
      </trkpt>
      <trkpt lat="45.88123" lon="3.59249">
        <ele>629</ele>
        <time>2024-12-08T00:01:41.619Z</time>
      </trkpt>
      <trkpt lat="45.88122" lon="3.59251">
        <ele>629</ele>
        <time>2024-12-08T00:01:42.620Z</time>
      </trkpt>
      <trkpt lat="45.88121" lon="3.59254">
        <ele>628</ele>
        <time>2024-12-08T00:01:43.620Z</time>
      </trkpt>
      <trkpt lat="45.8812" lon="3.59256">
        <ele>628</ele>
        <time>2024-12-08T00:01:44.619Z</time>
      </trkpt>
      <trkpt lat="45.88119" lon="3.59258">
        <ele>628</ele>
        <time>2024-12-08T00:01:45.619Z</time>
      </trkpt>
      <trkpt lat="45.88118" lon="3.5926">
        <ele>628</ele>
        <time>2024-12-08T00:01:46.619Z</time>
      </trkpt>
      <trkpt lat="45.88117" lon="3.59262">
        <ele>628</ele>
        <time>2024-12-08T00:01:47.619Z</time>
      </trkpt>
      <trkpt lat="45.88116" lon="3.59265">
        <ele>628</ele>
        <time>2024-12-08T00:01:48.619Z</time>
      </trkpt>
      <trkpt lat="45.88115" lon="3.59267">
        <ele>628</ele>
        <time>2024-12-08T00:01:49.619Z</time>
      </trkpt>
      <trkpt lat="45.88114" lon="3.5927">
        <ele>628</ele>
        <time>2024-12-08T00:01:50.620Z</time>
      </trkpt>
      <trkpt lat="45.88114" lon="3.59272">
        <ele>628</ele>
        <time>2024-12-08T00:01:51.619Z</time>
      </trkpt>
      <trkpt lat="45.88113" lon="3.59275">
        <ele>629</ele>
        <time>2024-12-08T00:01:52.620Z</time>
      </trkpt>
      <trkpt lat="45.88113" lon="3.59278">
        <ele>629</ele>
        <time>2024-12-08T00:01:53.619Z</time>
      </trkpt>
      <trkpt lat="45.88113" lon="3.59281">
        <ele>628</ele>
        <time>2024-12-08T00:01:54.619Z</time>
      </trkpt>
      <trkpt lat="45.88113" lon="3.59283">
        <ele>628</ele>
        <time>2024-12-08T00:01:55.619Z</time>
      </trkpt>
      <trkpt lat="45.88113" lon="3.59285">
        <ele>628</ele>
        <time>2024-12-08T00:01:56.619Z</time>
      </trkpt>
      <trkpt lat="45.88113" lon="3.59288">
        <ele>628</ele>
        <time>2024-12-08T00:01:57.619Z</time>
      </trkpt>
      <trkpt lat="45.88113" lon="3.59291">
        <ele>628</ele>
        <time>2024-12-08T00:01:58.619Z</time>
      </trkpt>
      <trkpt lat="45.88114" lon="3.59294">
        <ele>628</ele>
        <time>2024-12-08T00:01:59.620Z</time>
      </trkpt>
      <trkpt lat="45.88114" lon="3.59297">
        <ele>628</ele>
        <time>2024-12-08T00:02:00.619Z</time>
      </trkpt>
      <trkpt lat="45.88114" lon="3.593">
        <ele>627</ele>
        <time>2024-12-08T00:02:01.619Z</time>
      </trkpt>
      <trkpt lat="45.88115" lon="3.59302">
        <ele>627</ele>
        <time>2024-12-08T00:02:02.619Z</time>
      </trkpt>
      <trkpt lat="45.88115" lon="3.59305">
        <ele>626</ele>
        <time>2024-12-08T00:02:03.619Z</time>
      </trkpt>
      <trkpt lat="45.88116" lon="3.59307">
        <ele>626</ele>
        <time>2024-12-08T00:02:04.619Z</time>
      </trkpt>
      <trkpt lat="45.88116" lon="3.5931">
        <ele>626</ele>
        <time>2024-12-08T00:02:05.620Z</time>
      </trkpt>
      <trkpt lat="45.88117" lon="3.59312">
        <ele>626</ele>
        <time>2024-12-08T00:02:06.619Z</time>
      </trkpt>
      <trkpt lat="45.88118" lon="3.59315">
        <ele>626</ele>
        <time>2024-12-08T00:02:07.619Z</time>
      </trkpt>
      <trkpt lat="45.88119" lon="3.59318">
        <ele>626</ele>
        <time>2024-12-08T00:02:08.619Z</time>
      </trkpt>
      <trkpt lat="45.88119" lon="3.5932">
        <ele>626</ele>
        <time>2024-12-08T00:02:09.619Z</time>
      </trkpt>
      <trkpt lat="45.8812" lon="3.59323">
        <ele>626</ele>
        <time>2024-12-08T00:02:10.620Z</time>
      </trkpt>
      <trkpt lat="45.88121" lon="3.59325">
        <ele>626</ele>
        <time>2024-12-08T00:02:11.619Z</time>
      </trkpt>
      <trkpt lat="45.88123" lon="3.59327">
        <ele>626</ele>
        <time>2024-12-08T00:02:12.619Z</time>
      </trkpt>
      <trkpt lat="45.88124" lon="3.5933">
        <ele>625</ele>
        <time>2024-12-08T00:02:13.619Z</time>
      </trkpt>
      <trkpt lat="45.88125" lon="3.59332">
        <ele>625</ele>
        <time>2024-12-08T00:02:14.619Z</time>
      </trkpt>
      <trkpt lat="45.88126" lon="3.59334">
        <ele>625</ele>
        <time>2024-12-08T00:02:15.620Z</time>
      </trkpt>
      <trkpt lat="45.88128" lon="3.59336">
        <ele>625</ele>
        <time>2024-12-08T00:02:16.619Z</time>
      </trkpt>
      <trkpt lat="45.8813" lon="3.59338">
        <ele>625</ele>
        <time>2024-12-08T00:02:17.619Z</time>
      </trkpt>
      <trkpt lat="45.88131" lon="3.5934">
        <ele>626</ele>
        <time>2024-12-08T00:02:18.620Z</time>
      </trkpt>
      <trkpt lat="45.88132" lon="3.59342">
        <ele>626</ele>
        <time>2024-12-08T00:02:19.620Z</time>
      </trkpt>
      <trkpt lat="45.88133" lon="3.59344">
        <ele>626</ele>
        <time>2024-12-08T00:02:20.620Z</time>
      </trkpt>
      <trkpt lat="45.88135" lon="3.59346">
        <ele>626</ele>
        <time>2024-12-08T00:02:21.620Z</time>
      </trkpt>
      <trkpt lat="45.88137" lon="3.59348">
        <ele>626</ele>
        <time>2024-12-08T00:02:22.619Z</time>
      </trkpt>
      <trkpt lat="45.88138" lon="3.59349">
        <ele>626</ele>
        <time>2024-12-08T00:02:23.620Z</time>
      </trkpt>
      <trkpt lat="45.8814" lon="3.59351">
        <ele>626</ele>
        <time>2024-12-08T00:02:24.619Z</time>
      </trkpt>
      <trkpt lat="45.88142" lon="3.59353">
        <ele>626</ele>
        <time>2024-12-08T00:02:25.619Z</time>
      </trkpt>
      <trkpt lat="45.88144" lon="3.59355">
        <ele>626</ele>
        <time>2024-12-08T00:02:26.619Z</time>
      </trkpt>
      <trkpt lat="45.88145" lon="3.59356">
        <ele>626</ele>
        <time>2024-12-08T00:02:27.620Z</time>
      </trkpt>
      <trkpt lat="45.88146" lon="3.59358">
        <ele>625</ele>
        <time>2024-12-08T00:02:28.619Z</time>
      </trkpt>
      <trkpt lat="45.88148" lon="3.59359">
        <ele>625</ele>
        <time>2024-12-08T00:02:29.620Z</time>
      </trkpt>
      <trkpt lat="45.8815" lon="3.59362">
        <ele>625</ele>
        <time>2024-12-08T00:02:30.620Z</time>
      </trkpt>
      <trkpt lat="45.88153" lon="3.59364">
        <ele>624</ele>
        <time>2024-12-08T00:02:31.619Z</time>
      </trkpt>
      <trkpt lat="45.88154" lon="3.59366">
        <ele>624</ele>
        <time>2024-12-08T00:02:32.619Z</time>
      </trkpt>
      <trkpt lat="45.88156" lon="3.59367">
        <ele>624</ele>
        <time>2024-12-08T00:02:33.620Z</time>
      </trkpt>
      <trkpt lat="45.88157" lon="3.59369">
        <ele>623</ele>
        <time>2024-12-08T00:02:34.619Z</time>
      </trkpt>
      <trkpt lat="45.88159" lon="3.59371">
        <ele>623</ele>
        <time>2024-12-08T00:02:35.620Z</time>
      </trkpt>
      <trkpt lat="45.8816" lon="3.59373">
        <ele>622</ele>
        <time>2024-12-08T00:02:36.619Z</time>
      </trkpt>
      <trkpt lat="45.88162" lon="3.59374">
        <ele>622</ele>
        <time>2024-12-08T00:02:37.619Z</time>
      </trkpt>
      <trkpt lat="45.88163" lon="3.59376">
        <ele>621</ele>
        <time>2024-12-08T00:02:38.619Z</time>
      </trkpt>
      <trkpt lat="45.88165" lon="3.59378">
        <ele>621</ele>
        <time>2024-12-08T00:02:39.619Z</time>
      </trkpt>
      <trkpt lat="45.88166" lon="3.5938">
        <ele>620</ele>
        <time>2024-12-08T00:02:40.620Z</time>
      </trkpt>
      <trkpt lat="45.88167" lon="3.59382">
        <ele>620</ele>
        <time>2024-12-08T00:02:41.619Z</time>
      </trkpt>
      <trkpt lat="45.88168" lon="3.59384">
        <ele>619</ele>
        <time>2024-12-08T00:02:42.619Z</time>
      </trkpt>
      <trkpt lat="45.88169" lon="3.59387">
        <ele>619</ele>
        <time>2024-12-08T00:02:43.619Z</time>
      </trkpt>
      <trkpt lat="45.8817" lon="3.59389">
        <ele>619</ele>
        <time>2024-12-08T00:02:44.619Z</time>
      </trkpt>
      <trkpt lat="45.88171" lon="3.59392">
        <ele>618</ele>
        <time>2024-12-08T00:02:45.619Z</time>
      </trkpt>
      <trkpt lat="45.88172" lon="3.59394">
        <ele>618</ele>
        <time>2024-12-08T00:02:46.619Z</time>
      </trkpt>
      <trkpt lat="45.88173" lon="3.59397">
        <ele>618</ele>
        <time>2024-12-08T00:02:47.619Z</time>
      </trkpt>
      <trkpt lat="45.88174" lon="3.594">
        <ele>618</ele>
        <time>2024-12-08T00:02:48.619Z</time>
      </trkpt>
      <trkpt lat="45.88174" lon="3.59402">
        <ele>618</ele>
        <time>2024-12-08T00:02:49.619Z</time>
      </trkpt>
      <trkpt lat="45.88175" lon="3.59404">
        <ele>618</ele>
        <time>2024-12-08T00:02:50.619Z</time>
      </trkpt>
      <trkpt lat="45.88176" lon="3.59406">
        <ele>618</ele>
        <time>2024-12-08T00:02:51.620Z</time>
      </trkpt>
      <trkpt lat="45.88176" lon="3.59409">
        <ele>618</ele>
        <time>2024-12-08T00:02:52.619Z</time>
      </trkpt>
      <trkpt lat="45.88177" lon="3.59412">
        <ele>618</ele>
        <time>2024-12-08T00:02:53.619Z</time>
      </trkpt>
      <trkpt lat="45.88177" lon="3.59414">
        <ele>617</ele>
        <time>2024-12-08T00:02:54.619Z</time>
      </trkpt>
      <trkpt lat="45.88178" lon="3.59417">
        <ele>617</ele>
        <time>2024-12-08T00:02:55.619Z</time>
      </trkpt>
      <trkpt lat="45.88179" lon="3.5942">
        <ele>617</ele>
        <time>2024-12-08T00:02:56.619Z</time>
      </trkpt>
      <trkpt lat="45.88179" lon="3.59423">
        <ele>617</ele>
        <time>2024-12-08T00:02:57.620Z</time>
      </trkpt>
      <trkpt lat="45.88179" lon="3.59426">
        <ele>617</ele>
        <time>2024-12-08T00:02:58.619Z</time>
      </trkpt>
      <trkpt lat="45.88179" lon="3.59428">
        <ele>617</ele>
        <time>2024-12-08T00:02:59.619Z</time>
      </trkpt>
      <trkpt lat="45.88179" lon="3.59431">
        <ele>617</ele>
        <time>2024-12-08T00:03:00.619Z</time>
      </trkpt>
      <trkpt lat="45.88179" lon="3.59435">
        <ele>617</ele>
        <time>2024-12-08T00:03:01.619Z</time>
      </trkpt>
      <trkpt lat="45.88179" lon="3.59438">
        <ele>617</ele>
        <time>2024-12-08T00:03:02.619Z</time>
      </trkpt>
      <trkpt lat="45.88179" lon="3.59441">
        <ele>617</ele>
        <time>2024-12-08T00:03:03.619Z</time>
      </trkpt>
      <trkpt lat="45.8818" lon="3.59443">
        <ele>617</ele>
        <time>2024-12-08T00:03:04.620Z</time>
      </trkpt>
      <trkpt lat="45.8818" lon="3.59445">
        <ele>617</ele>
        <time>2024-12-08T00:03:05.619Z</time>
      </trkpt>
      <trkpt lat="45.8818" lon="3.59448">
        <ele>617</ele>
        <time>2024-12-08T00:03:06.620Z</time>
      </trkpt>
      <trkpt lat="45.8818" lon="3.5945">
        <ele>616</ele>
        <time>2024-12-08T00:03:07.620Z</time>
      </trkpt>
      <trkpt lat="45.88181" lon="3.59453">
        <ele>616</ele>
        <time>2024-12-08T00:03:08.620Z</time>
      </trkpt>
      <trkpt lat="45.88181" lon="3.59456">
        <ele>615</ele>
        <time>2024-12-08T00:03:09.619Z</time>
      </trkpt>
      <trkpt lat="45.88182" lon="3.59459">
        <ele>615</ele>
        <time>2024-12-08T00:03:10.620Z</time>
      </trkpt>
      <trkpt lat="45.88182" lon="3.59461">
        <ele>614</ele>
        <time>2024-12-08T00:03:11.619Z</time>
      </trkpt>
      <trkpt lat="45.88182" lon="3.59464">
        <ele>614</ele>
        <time>2024-12-08T00:03:12.620Z</time>
      </trkpt>
      <trkpt lat="45.88182" lon="3.59467">
        <ele>614</ele>
        <time>2024-12-08T00:03:13.619Z</time>
      </trkpt>
      <trkpt lat="45.88183" lon="3.59469">
        <ele>614</ele>
        <time>2024-12-08T00:03:14.619Z</time>
      </trkpt>
      <trkpt lat="45.88183" lon="3.59472">
        <ele>614</ele>
        <time>2024-12-08T00:03:15.619Z</time>
      </trkpt>
      <trkpt lat="45.88183" lon="3.59475">
        <ele>614</ele>
        <time>2024-12-08T00:03:16.619Z</time>
      </trkpt>
      <trkpt lat="45.88183" lon="3.59477">
        <ele>614</ele>
        <time>2024-12-08T00:03:17.619Z</time>
      </trkpt>
      <trkpt lat="45.88183" lon="3.5948">
        <ele>613</ele>
        <time>2024-12-08T00:03:18.620Z</time>
      </trkpt>
      <trkpt lat="45.88183" lon="3.59483">
        <ele>613</ele>
        <time>2024-12-08T00:03:19.620Z</time>
      </trkpt>
      <trkpt lat="45.88183" lon="3.59486">
        <ele>613</ele>
        <time>2024-12-08T00:03:20.620Z</time>
      </trkpt>
      <trkpt lat="45.88184" lon="3.59489">
        <ele>613</ele>
        <time>2024-12-08T00:03:21.619Z</time>
      </trkpt>
      <trkpt lat="45.88184" lon="3.59492">
        <ele>613</ele>
        <time>2024-12-08T00:03:22.619Z</time>
      </trkpt>
      <trkpt lat="45.88184" lon="3.59495">
        <ele>613</ele>
        <time>2024-12-08T00:03:23.619Z</time>
      </trkpt>
      <trkpt lat="45.88184" lon="3.59499">
        <ele>614</ele>
        <time>2024-12-08T00:03:24.619Z</time>
      </trkpt>
      <trkpt lat="45.88184" lon="3.59502">
        <ele>614</ele>
        <time>2024-12-08T00:03:25.620Z</time>
      </trkpt>
      <trkpt lat="45.88185" lon="3.59504">
        <ele>614</ele>
        <time>2024-12-08T00:03:26.620Z</time>
      </trkpt>
      <trkpt lat="45.88186" lon="3.59507">
        <ele>614</ele>
        <time>2024-12-08T00:03:27.620Z</time>
      </trkpt>
      <trkpt lat="45.88186" lon="3.5951">
        <ele>614</ele>
        <time>2024-12-08T00:03:28.619Z</time>
      </trkpt>
      <trkpt lat="45.88186" lon="3.59513">
        <ele>613</ele>
        <time>2024-12-08T00:03:29.620Z</time>
      </trkpt>
      <trkpt lat="45.88187" lon="3.59515">
        <ele>613</ele>
        <time>2024-12-08T00:03:30.619Z</time>
      </trkpt>
      <trkpt lat="45.88188" lon="3.59518">
        <ele>612</ele>
        <time>2024-12-08T00:03:31.620Z</time>
      </trkpt>
      <trkpt lat="45.88188" lon="3.59521">
        <ele>612</ele>
        <time>2024-12-08T00:03:32.620Z</time>
      </trkpt>
      <trkpt lat="45.88188" lon="3.59523">
        <ele>612</ele>
        <time>2024-12-08T00:03:33.620Z</time>
      </trkpt>
      <trkpt lat="45.88188" lon="3.59526">
        <ele>612</ele>
        <time>2024-12-08T00:03:34.620Z</time>
      </trkpt>
      <trkpt lat="45.88189" lon="3.59529">
        <ele>612</ele>
        <time>2024-12-08T00:03:35.619Z</time>
      </trkpt>
      <trkpt lat="45.88189" lon="3.59532">
        <ele>612</ele>
        <time>2024-12-08T00:03:36.620Z</time>
      </trkpt>
      <trkpt lat="45.88189" lon="3.59535">
        <ele>612</ele>
        <time>2024-12-08T00:03:37.619Z</time>
      </trkpt>
      <trkpt lat="45.88189" lon="3.59538">
        <ele>612</ele>
        <time>2024-12-08T00:03:38.620Z</time>
      </trkpt>
      <trkpt lat="45.88189" lon="3.5954">
        <ele>611</ele>
        <time>2024-12-08T00:03:39.619Z</time>
      </trkpt>
      <trkpt lat="45.88189" lon="3.59543">
        <ele>610</ele>
        <time>2024-12-08T00:03:40.620Z</time>
      </trkpt>
      <trkpt lat="45.88189" lon="3.59546">
        <ele>609</ele>
        <time>2024-12-08T00:03:41.619Z</time>
      </trkpt>
      <trkpt lat="45.88189" lon="3.59549">
        <ele>609</ele>
        <time>2024-12-08T00:03:42.620Z</time>
      </trkpt>
      <trkpt lat="45.88189" lon="3.59551">
        <ele>608</ele>
        <time>2024-12-08T00:03:43.619Z</time>
      </trkpt>
      <trkpt lat="45.8819" lon="3.59553">
        <ele>608</ele>
        <time>2024-12-08T00:03:44.620Z</time>
      </trkpt>
      <trkpt lat="45.8819" lon="3.59556">
        <ele>607</ele>
        <time>2024-12-08T00:03:45.619Z</time>
      </trkpt>
      <trkpt lat="45.8819" lon="3.59558">
        <ele>607</ele>
        <time>2024-12-08T00:03:46.620Z</time>
      </trkpt>
      <trkpt lat="45.8819" lon="3.59561">
        <ele>606</ele>
        <time>2024-12-08T00:03:47.620Z</time>
      </trkpt>
      <trkpt lat="45.8819" lon="3.59564">
        <ele>606</ele>
        <time>2024-12-08T00:03:48.619Z</time>
      </trkpt>
      <trkpt lat="45.88191" lon="3.59566">
        <ele>606</ele>
        <time>2024-12-08T00:03:49.620Z</time>
      </trkpt>
      <trkpt lat="45.88191" lon="3.59569">
        <ele>605</ele>
        <time>2024-12-08T00:03:50.619Z</time>
      </trkpt>
      <trkpt lat="45.88192" lon="3.59572">
        <ele>605</ele>
        <time>2024-12-08T00:03:51.620Z</time>
      </trkpt>
      <trkpt lat="45.88192" lon="3.59574">
        <ele>605</ele>
        <time>2024-12-08T00:03:52.619Z</time>
      </trkpt>
      <trkpt lat="45.88192" lon="3.59577">
        <ele>605</ele>
        <time>2024-12-08T00:03:53.620Z</time>
      </trkpt>
      <trkpt lat="45.88192" lon="3.5958">
        <ele>605</ele>
        <time>2024-12-08T00:03:54.620Z</time>
      </trkpt>
      <trkpt lat="45.88192" lon="3.59583">
        <ele>604</ele>
        <time>2024-12-08T00:03:55.620Z</time>
      </trkpt>
      <trkpt lat="45.88193" lon="3.59586">
        <ele>604</ele>
        <time>2024-12-08T00:03:56.619Z</time>
      </trkpt>
      <trkpt lat="45.88193" lon="3.59589">
        <ele>604</ele>
        <time>2024-12-08T00:03:57.619Z</time>
      </trkpt>
      <trkpt lat="45.88193" lon="3.59592">
        <ele>604</ele>
        <time>2024-12-08T00:03:58.619Z</time>
      </trkpt>
      <trkpt lat="45.88193" lon="3.59594">
        <ele>603</ele>
        <time>2024-12-08T00:03:59.619Z</time>
      </trkpt>
      <trkpt lat="45.88193" lon="3.59597">
        <ele>603</ele>
        <time>2024-12-08T00:04:00.620Z</time>
      </trkpt>
      <trkpt lat="45.88194" lon="3.596">
        <ele>603</ele>
        <time>2024-12-08T00:04:01.620Z</time>
      </trkpt>
      <trkpt lat="45.88194" lon="3.59602">
        <ele>603</ele>
        <time>2024-12-08T00:04:02.619Z</time>
      </trkpt>
      <trkpt lat="45.88194" lon="3.59605">
        <ele>602</ele>
        <time>2024-12-08T00:04:03.620Z</time>
      </trkpt>
      <trkpt lat="45.88194" lon="3.59609">
        <ele>602</ele>
        <time>2024-12-08T00:04:04.619Z</time>
      </trkpt>
      <trkpt lat="45.88194" lon="3.59611">
        <ele>601</ele>
        <time>2024-12-08T00:04:05.620Z</time>
      </trkpt>
      <trkpt lat="45.88194" lon="3.59614">
        <ele>601</ele>
        <time>2024-12-08T00:04:06.619Z</time>
      </trkpt>
      <trkpt lat="45.88194" lon="3.59617">
        <ele>601</ele>
        <time>2024-12-08T00:04:07.619Z</time>
      </trkpt>
      <trkpt lat="45.88194" lon="3.59619">
        <ele>601</ele>
        <time>2024-12-08T00:04:08.619Z</time>
      </trkpt>
      <trkpt lat="45.88194" lon="3.59622">
        <ele>601</ele>
        <time>2024-12-08T00:04:09.620Z</time>
      </trkpt>
      <trkpt lat="45.88194" lon="3.59624">
        <ele>600</ele>
        <time>2024-12-08T00:04:10.619Z</time>
      </trkpt>
      <trkpt lat="45.88195" lon="3.59627">
        <ele>600</ele>
        <time>2024-12-08T00:04:11.620Z</time>
      </trkpt>
      <trkpt lat="45.88195" lon="3.5963">
        <ele>599</ele>
        <time>2024-12-08T00:04:12.620Z</time>
      </trkpt>
      <trkpt lat="45.88196" lon="3.59632">
        <ele>599</ele>
        <time>2024-12-08T00:04:13.620Z</time>
      </trkpt>
      <trkpt lat="45.88196" lon="3.59635">
        <ele>598</ele>
        <time>2024-12-08T00:04:14.619Z</time>
      </trkpt>
      <trkpt lat="45.88197" lon="3.59637">
        <ele>598</ele>
        <time>2024-12-08T00:04:15.620Z</time>
      </trkpt>
      <trkpt lat="45.88197" lon="3.5964">
        <ele>598</ele>
        <time>2024-12-08T00:04:16.620Z</time>
      </trkpt>
      <trkpt lat="45.88198" lon="3.59642">
        <ele>598</ele>
        <time>2024-12-08T00:04:17.619Z</time>
      </trkpt>
      <trkpt lat="45.88198" lon="3.59645">
        <ele>598</ele>
        <time>2024-12-08T00:04:18.620Z</time>
      </trkpt>
      <trkpt lat="45.88199" lon="3.59648">
        <ele>598</ele>
        <time>2024-12-08T00:04:19.620Z</time>
      </trkpt>
      <trkpt lat="45.88199" lon="3.5965">
        <ele>598</ele>
        <time>2024-12-08T00:04:20.619Z</time>
      </trkpt>
      <trkpt lat="45.882" lon="3.59653">
        <ele>598</ele>
        <time>2024-12-08T00:04:21.620Z</time>
      </trkpt>
      <trkpt lat="45.88201" lon="3.59655">
        <ele>598</ele>
        <time>2024-12-08T00:04:22.620Z</time>
      </trkpt>
      <trkpt lat="45.88202" lon="3.59658">
        <ele>598</ele>
        <time>2024-12-08T00:04:23.619Z</time>
      </trkpt>
      <trkpt lat="45.88203" lon="3.5966">
        <ele>599</ele>
        <time>2024-12-08T00:04:24.619Z</time>
      </trkpt>
      <trkpt lat="45.88204" lon="3.59663">
        <ele>599</ele>
        <time>2024-12-08T00:04:25.619Z</time>
      </trkpt>
      <trkpt lat="45.88205" lon="3.59665">
        <ele>599</ele>
        <time>2024-12-08T00:04:26.619Z</time>
      </trkpt>
      <trkpt lat="45.88206" lon="3.59667">
        <ele>600</ele>
        <time>2024-12-08T00:04:27.619Z</time>
      </trkpt>
      <trkpt lat="45.88207" lon="3.59669">
        <ele>600</ele>
        <time>2024-12-08T00:04:28.620Z</time>
      </trkpt>
      <trkpt lat="45.88209" lon="3.59671">
        <ele>600</ele>
        <time>2024-12-08T00:04:29.619Z</time>
      </trkpt>
      <trkpt lat="45.8821" lon="3.59673">
        <ele>599</ele>
        <time>2024-12-08T00:04:30.620Z</time>
      </trkpt>
      <trkpt lat="45.88211" lon="3.59674">
        <ele>599</ele>
        <time>2024-12-08T00:04:31.619Z</time>
      </trkpt>
      <trkpt lat="45.88213" lon="3.59676">
        <ele>598</ele>
        <time>2024-12-08T00:04:32.619Z</time>
      </trkpt>
      <trkpt lat="45.88214" lon="3.59678">
        <ele>598</ele>
        <time>2024-12-08T00:04:33.620Z</time>
      </trkpt>
      <trkpt lat="45.88216" lon="3.5968">
        <ele>598</ele>
        <time>2024-12-08T00:04:34.620Z</time>
      </trkpt>
      <trkpt lat="45.88217" lon="3.59681">
        <ele>598</ele>
        <time>2024-12-08T00:04:35.620Z</time>
      </trkpt>
      <trkpt lat="45.88219" lon="3.59684">
        <ele>599</ele>
        <time>2024-12-08T00:04:36.619Z</time>
      </trkpt>
      <trkpt lat="45.8822" lon="3.59686">
        <ele>599</ele>
        <time>2024-12-08T00:04:37.619Z</time>
      </trkpt>
      <trkpt lat="45.88221" lon="3.59688">
        <ele>599</ele>
        <time>2024-12-08T00:04:38.619Z</time>
      </trkpt>
      <trkpt lat="45.88223" lon="3.59691">
        <ele>599</ele>
        <time>2024-12-08T00:04:39.620Z</time>
      </trkpt>
      <trkpt lat="45.88224" lon="3.59693">
        <ele>599</ele>
        <time>2024-12-08T00:04:40.620Z</time>
      </trkpt>
      <trkpt lat="45.88224" lon="3.59695">
        <ele>599</ele>
        <time>2024-12-08T00:04:41.619Z</time>
      </trkpt>
      <trkpt lat="45.88225" lon="3.59698">
        <ele>599</ele>
        <time>2024-12-08T00:04:42.619Z</time>
      </trkpt>
      <trkpt lat="45.88226" lon="3.597">
        <ele>599</ele>
        <time>2024-12-08T00:04:43.619Z</time>
      </trkpt>
      <trkpt lat="45.88228" lon="3.59702">
        <ele>599</ele>
        <time>2024-12-08T00:04:44.620Z</time>
      </trkpt>
      <trkpt lat="45.88229" lon="3.59704">
        <ele>599</ele>
        <time>2024-12-08T00:04:45.620Z</time>
      </trkpt>
      <trkpt lat="45.8823" lon="3.59706">
        <ele>598</ele>
        <time>2024-12-08T00:04:46.619Z</time>
      </trkpt>
      <trkpt lat="45.88231" lon="3.59708">
        <ele>598</ele>
        <time>2024-12-08T00:04:47.620Z</time>
      </trkpt>
      <trkpt lat="45.88232" lon="3.59711">
        <ele>598</ele>
        <time>2024-12-08T00:04:48.620Z</time>
      </trkpt>
      <trkpt lat="45.88232" lon="3.59713">
        <ele>597</ele>
        <time>2024-12-08T00:04:49.620Z</time>
      </trkpt>
      <trkpt lat="45.88233" lon="3.59716">
        <ele>597</ele>
        <time>2024-12-08T00:04:50.619Z</time>
      </trkpt>
      <trkpt lat="45.88233" lon="3.59718">
        <ele>597</ele>
        <time>2024-12-08T00:04:51.620Z</time>
      </trkpt>
      <trkpt lat="45.88234" lon="3.59721">
        <ele>597</ele>
        <time>2024-12-08T00:04:52.619Z</time>
      </trkpt>
      <trkpt lat="45.88235" lon="3.59724">
        <ele>596</ele>
        <time>2024-12-08T00:04:53.620Z</time>
      </trkpt>
      <trkpt lat="45.88235" lon="3.59727">
        <ele>596</ele>
        <time>2024-12-08T00:04:54.619Z</time>
      </trkpt>
      <trkpt lat="45.88236" lon="3.5973">
        <ele>596</ele>
        <time>2024-12-08T00:04:55.620Z</time>
      </trkpt>
      <trkpt lat="45.88237" lon="3.59733">
        <ele>596</ele>
        <time>2024-12-08T00:04:56.620Z</time>
      </trkpt>
      <trkpt lat="45.88237" lon="3.59735">
        <ele>596</ele>
        <time>2024-12-08T00:04:57.620Z</time>
      </trkpt>
      <trkpt lat="45.88237" lon="3.59738">
        <ele>596</ele>
        <time>2024-12-08T00:04:58.619Z</time>
      </trkpt>
      <trkpt lat="45.88238" lon="3.59742">
        <ele>596</ele>
        <time>2024-12-08T00:04:59.619Z</time>
      </trkpt>
      <trkpt lat="45.88238" lon="3.59745">
        <ele>596</ele>
        <time>2024-12-08T00:05:00.620Z</time>
      </trkpt>
      <trkpt lat="45.88238" lon="3.59747">
        <ele>596</ele>
        <time>2024-12-08T00:05:01.619Z</time>
      </trkpt>
      <trkpt lat="45.88238" lon="3.5975">
        <ele>596</ele>
        <time>2024-12-08T00:05:02.619Z</time>
      </trkpt>
      <trkpt lat="45.88238" lon="3.59753">
        <ele>596</ele>
        <time>2024-12-08T00:05:03.620Z</time>
      </trkpt>
      <trkpt lat="45.88239" lon="3.59755">
        <ele>596</ele>
        <time>2024-12-08T00:05:04.620Z</time>
      </trkpt>
      <trkpt lat="45.88239" lon="3.59758">
        <ele>596</ele>
        <time>2024-12-08T00:05:05.620Z</time>
      </trkpt>
      <trkpt lat="45.8824" lon="3.59761">
        <ele>596</ele>
        <time>2024-12-08T00:05:06.619Z</time>
      </trkpt>
      <trkpt lat="45.8824" lon="3.59763">
        <ele>596</ele>
        <time>2024-12-08T00:05:07.619Z</time>
      </trkpt>
      <trkpt lat="45.88241" lon="3.59766">
        <ele>596</ele>
        <time>2024-12-08T00:05:08.620Z</time>
      </trkpt>
      <trkpt lat="45.88241" lon="3.59769">
        <ele>595</ele>
        <time>2024-12-08T00:05:09.620Z</time>
      </trkpt>
      <trkpt lat="45.88241" lon="3.59771">
        <ele>595</ele>
        <time>2024-12-08T00:05:10.619Z</time>
      </trkpt>
      <trkpt lat="45.88241" lon="3.59774">
        <ele>594</ele>
        <time>2024-12-08T00:05:11.620Z</time>
      </trkpt>
      <trkpt lat="45.88242" lon="3.59777">
        <ele>594</ele>
        <time>2024-12-08T00:05:12.620Z</time>
      </trkpt>
      <trkpt lat="45.88242" lon="3.59779">
        <ele>594</ele>
        <time>2024-12-08T00:05:13.619Z</time>
      </trkpt>
      <trkpt lat="45.88242" lon="3.59782">
        <ele>594</ele>
        <time>2024-12-08T00:05:14.619Z</time>
      </trkpt>
      <trkpt lat="45.88243" lon="3.59785">
        <ele>594</ele>
        <time>2024-12-08T00:05:15.619Z</time>
      </trkpt>
      <trkpt lat="45.88243" lon="3.59787">
        <ele>594</ele>
        <time>2024-12-08T00:05:16.620Z</time>
      </trkpt>
      <trkpt lat="45.88243" lon="3.5979">
        <ele>594</ele>
        <time>2024-12-08T00:05:17.620Z</time>
      </trkpt>
      <trkpt lat="45.88243" lon="3.59792">
        <ele>593</ele>
        <time>2024-12-08T00:05:18.619Z</time>
      </trkpt>
      <trkpt lat="45.88243" lon="3.59795">
        <ele>593</ele>
        <time>2024-12-08T00:05:19.620Z</time>
      </trkpt>
      <trkpt lat="45.88244" lon="3.59798">
        <ele>594</ele>
        <time>2024-12-08T00:05:20.620Z</time>
      </trkpt>
      <trkpt lat="45.88244" lon="3.598">
        <ele>594</ele>
        <time>2024-12-08T00:05:21.620Z</time>
      </trkpt>
      <trkpt lat="45.88244" lon="3.59803">
        <ele>594</ele>
        <time>2024-12-08T00:05:22.620Z</time>
      </trkpt>
      <trkpt lat="45.88244" lon="3.59806">
        <ele>594</ele>
        <time>2024-12-08T00:05:23.620Z</time>
      </trkpt>
      <trkpt lat="45.88244" lon="3.59809">
        <ele>594</ele>
        <time>2024-12-08T00:05:24.620Z</time>
      </trkpt>
      <trkpt lat="45.88244" lon="3.59811">
        <ele>594</ele>
        <time>2024-12-08T00:05:25.620Z</time>
      </trkpt>
      <trkpt lat="45.88245" lon="3.59814">
        <ele>594</ele>
        <time>2024-12-08T00:05:26.619Z</time>
      </trkpt>
      <trkpt lat="45.88245" lon="3.59816">
        <ele>593</ele>
        <time>2024-12-08T00:05:27.619Z</time>
      </trkpt>
      <trkpt lat="45.88245" lon="3.59819">
        <ele>593</ele>
        <time>2024-12-08T00:05:28.619Z</time>
      </trkpt>
      <trkpt lat="45.88245" lon="3.59821">
        <ele>593</ele>
        <time>2024-12-08T00:05:29.620Z</time>
      </trkpt>
      <trkpt lat="45.88245" lon="3.59824">
        <ele>592</ele>
        <time>2024-12-08T00:05:30.620Z</time>
      </trkpt>
      <trkpt lat="45.88246" lon="3.59826">
        <ele>592</ele>
        <time>2024-12-08T00:05:31.620Z</time>
      </trkpt>
      <trkpt lat="45.88246" lon="3.59829">
        <ele>591</ele>
        <time>2024-12-08T00:05:32.619Z</time>
      </trkpt>
      <trkpt lat="45.88246" lon="3.59832">
        <ele>591</ele>
        <time>2024-12-08T00:05:33.620Z</time>
      </trkpt>
      <trkpt lat="45.88247" lon="3.59834">
        <ele>591</ele>
        <time>2024-12-08T00:05:34.619Z</time>
      </trkpt>
      <trkpt lat="45.88247" lon="3.59837">
        <ele>591</ele>
        <time>2024-12-08T00:05:35.619Z</time>
      </trkpt>
      <trkpt lat="45.88247" lon="3.5984">
        <ele>591</ele>
        <time>2024-12-08T00:05:36.619Z</time>
      </trkpt>
      <trkpt lat="45.88247" lon="3.59842">
        <ele>590</ele>
        <time>2024-12-08T00:05:37.620Z</time>
      </trkpt>
      <trkpt lat="45.88247" lon="3.59844">
        <ele>590</ele>
        <time>2024-12-08T00:05:38.620Z</time>
      </trkpt>
      <trkpt lat="45.88246" lon="3.59846">
        <ele>590</ele>
        <time>2024-12-08T00:05:39.620Z</time>
      </trkpt>
      <trkpt lat="45.88245" lon="3.59849">
        <ele>590</ele>
        <time>2024-12-08T00:05:40.620Z</time>
      </trkpt>
      <trkpt lat="45.88245" lon="3.59851">
        <ele>590</ele>
        <time>2024-12-08T00:05:41.620Z</time>
      </trkpt>
      <trkpt lat="45.88244" lon="3.59854">
        <ele>590</ele>
        <time>2024-12-08T00:05:42.619Z</time>
      </trkpt>
      <trkpt lat="45.88244" lon="3.59856">
        <ele>590</ele>
        <time>2024-12-08T00:05:43.619Z</time>
      </trkpt>
      <trkpt lat="45.88243" lon="3.59858">
        <ele>590</ele>
        <time>2024-12-08T00:05:44.620Z</time>
      </trkpt>
      <trkpt lat="45.88243" lon="3.59861">
        <ele>590</ele>
        <time>2024-12-08T00:05:45.619Z</time>
      </trkpt>
      <trkpt lat="45.88242" lon="3.59863">
        <ele>590</ele>
        <time>2024-12-08T00:05:46.620Z</time>
      </trkpt>
      <trkpt lat="45.88241" lon="3.59866">
        <ele>590</ele>
        <time>2024-12-08T00:05:47.619Z</time>
      </trkpt>
      <trkpt lat="45.8824" lon="3.59868">
        <ele>591</ele>
        <time>2024-12-08T00:05:48.619Z</time>
      </trkpt>
      <trkpt lat="45.88239" lon="3.5987">
        <ele>591</ele>
        <time>2024-12-08T00:05:49.619Z</time>
      </trkpt>
      <trkpt lat="45.88238" lon="3.59873">
        <ele>591</ele>
        <time>2024-12-08T00:05:50.620Z</time>
      </trkpt>
      <trkpt lat="45.88237" lon="3.59875">
        <ele>591</ele>
        <time>2024-12-08T00:05:51.619Z</time>
      </trkpt>
      <trkpt lat="45.88236" lon="3.59877">
        <ele>591</ele>
        <time>2024-12-08T00:05:52.619Z</time>
      </trkpt>
      <trkpt lat="45.88234" lon="3.59879">
        <ele>591</ele>
        <time>2024-12-08T00:05:53.619Z</time>
      </trkpt>
      <trkpt lat="45.88233" lon="3.59881">
        <ele>591</ele>
        <time>2024-12-08T00:05:54.619Z</time>
      </trkpt>
      <trkpt lat="45.88232" lon="3.59883">
        <ele>591</ele>
        <time>2024-12-08T00:05:55.619Z</time>
      </trkpt>
      <trkpt lat="45.88231" lon="3.59885">
        <ele>591</ele>
        <time>2024-12-08T00:05:56.619Z</time>
      </trkpt>
      <trkpt lat="45.8823" lon="3.59887">
        <ele>592</ele>
        <time>2024-12-08T00:05:57.620Z</time>
      </trkpt>
      <trkpt lat="45.88229" lon="3.59889">
        <ele>592</ele>
        <time>2024-12-08T00:05:58.619Z</time>
      </trkpt>
      <trkpt lat="45.88227" lon="3.5989">
        <ele>592</ele>
        <time>2024-12-08T00:05:59.620Z</time>
      </trkpt>
      <trkpt lat="45.88225" lon="3.5989">
        <ele>592</ele>
        <time>2024-12-08T00:06:00.619Z</time>
      </trkpt>
      <trkpt lat="45.88223" lon="3.59891">
        <ele>593</ele>
        <time>2024-12-08T00:06:01.619Z</time>
      </trkpt>
      <trkpt lat="45.88221" lon="3.59893">
        <ele>593</ele>
        <time>2024-12-08T00:06:02.619Z</time>
      </trkpt>
      <trkpt lat="45.8822" lon="3.59893">
        <ele>593</ele>
        <time>2024-12-08T00:06:03.620Z</time>
      </trkpt>
      <trkpt lat="45.88218" lon="3.59894">
        <ele>593</ele>
        <time>2024-12-08T00:06:04.620Z</time>
      </trkpt>
      <trkpt lat="45.88217" lon="3.59896">
        <ele>593</ele>
        <time>2024-12-08T00:06:05.620Z</time>
      </trkpt>
      <trkpt lat="45.88216" lon="3.59897">
        <ele>593</ele>
        <time>2024-12-08T00:06:06.620Z</time>
      </trkpt>
      <trkpt lat="45.88214" lon="3.59899">
        <ele>592</ele>
        <time>2024-12-08T00:06:07.620Z</time>
      </trkpt>
      <trkpt lat="45.88212" lon="3.599">
        <ele>592</ele>
        <time>2024-12-08T00:06:08.620Z</time>
      </trkpt>
      <trkpt lat="45.8821" lon="3.59902">
        <ele>591</ele>
        <time>2024-12-08T00:06:09.619Z</time>
      </trkpt>
      <trkpt lat="45.88208" lon="3.59902">
        <ele>591</ele>
        <time>2024-12-08T00:06:10.620Z</time>
      </trkpt>
      <trkpt lat="45.88206" lon="3.59904">
        <ele>590</ele>
        <time>2024-12-08T00:06:11.620Z</time>
      </trkpt>
      <trkpt lat="45.88205" lon="3.59904">
        <ele>590</ele>
        <time>2024-12-08T00:06:12.620Z</time>
      </trkpt>
      <trkpt lat="45.88203" lon="3.59905">
        <ele>589</ele>
        <time>2024-12-08T00:06:13.620Z</time>
      </trkpt>
      <trkpt lat="45.88201" lon="3.59907">
        <ele>589</ele>
        <time>2024-12-08T00:06:14.619Z</time>
      </trkpt>
      <trkpt lat="45.882" lon="3.59908">
        <ele>589</ele>
        <time>2024-12-08T00:06:15.619Z</time>
      </trkpt>
      <trkpt lat="45.88198" lon="3.59909">
        <ele>589</ele>
        <time>2024-12-08T00:06:16.620Z</time>
      </trkpt>
      <trkpt lat="45.88196" lon="3.59909">
        <ele>589</ele>
        <time>2024-12-08T00:06:17.619Z</time>
      </trkpt>
      <trkpt lat="45.88194" lon="3.5991">
        <ele>589</ele>
        <time>2024-12-08T00:06:18.620Z</time>
      </trkpt>
      <trkpt lat="45.88193" lon="3.59911">
        <ele>589</ele>
        <time>2024-12-08T00:06:19.620Z</time>
      </trkpt>
      <trkpt lat="45.88191" lon="3.59912">
        <ele>589</ele>
        <time>2024-12-08T00:06:20.619Z</time>
      </trkpt>
      <trkpt lat="45.88189" lon="3.59913">
        <ele>589</ele>
        <time>2024-12-08T00:06:21.619Z</time>
      </trkpt>
      <trkpt lat="45.88188" lon="3.59914">
        <ele>590</ele>
        <time>2024-12-08T00:06:22.620Z</time>
      </trkpt>
      <trkpt lat="45.88186" lon="3.59915">
        <ele>590</ele>
        <time>2024-12-08T00:06:23.620Z</time>
      </trkpt>
      <trkpt lat="45.88184" lon="3.59916">
        <ele>590</ele>
        <time>2024-12-08T00:06:24.619Z</time>
      </trkpt>
      <trkpt lat="45.88182" lon="3.59917">
        <ele>590</ele>
        <time>2024-12-08T00:06:25.619Z</time>
      </trkpt>
      <trkpt lat="45.88181" lon="3.59917">
        <ele>590</ele>
        <time>2024-12-08T00:06:26.619Z</time>
      </trkpt>
      <trkpt lat="45.88179" lon="3.59918">
        <ele>590</ele>
        <time>2024-12-08T00:06:27.619Z</time>
      </trkpt>
      <trkpt lat="45.88178" lon="3.59918">
        <ele>590</ele>
        <time>2024-12-08T00:06:28.620Z</time>
      </trkpt>
      <trkpt lat="45.88177" lon="3.59919">
        <ele>590</ele>
        <time>2024-12-08T00:06:29.619Z</time>
      </trkpt>
      <trkpt lat="45.88175" lon="3.59919">
        <ele>590</ele>
        <time>2024-12-08T00:06:30.620Z</time>
      </trkpt>
      <trkpt lat="45.88174" lon="3.59919">
        <ele>590</ele>
        <time>2024-12-08T00:06:31.620Z</time>
      </trkpt>
      <trkpt lat="45.88172" lon="3.5992">
        <ele>589</ele>
        <time>2024-12-08T00:06:32.620Z</time>
      </trkpt>
      <trkpt lat="45.8817" lon="3.5992">
        <ele>589</ele>
        <time>2024-12-08T00:06:33.619Z</time>
      </trkpt>
      <trkpt lat="45.88169" lon="3.59921">
        <ele>589</ele>
        <time>2024-12-08T00:06:34.620Z</time>
      </trkpt>
      <trkpt lat="45.88167" lon="3.59921">
        <ele>589</ele>
        <time>2024-12-08T00:06:35.619Z</time>
      </trkpt>
      <trkpt lat="45.88165" lon="3.59921">
        <ele>589</ele>
        <time>2024-12-08T00:06:36.620Z</time>
      </trkpt>
      <trkpt lat="45.88163" lon="3.59921">
        <ele>589</ele>
        <time>2024-12-08T00:06:37.620Z</time>
      </trkpt>
      <trkpt lat="45.88161" lon="3.59922">
        <ele>589</ele>
        <time>2024-12-08T00:06:38.620Z</time>
      </trkpt>
      <trkpt lat="45.8816" lon="3.59922">
        <ele>589</ele>
        <time>2024-12-08T00:06:39.619Z</time>
      </trkpt>
      <trkpt lat="45.88158" lon="3.59922">
        <ele>590</ele>
        <time>2024-12-08T00:06:40.619Z</time>
      </trkpt>
      <trkpt lat="45.88157" lon="3.59922">
        <ele>590</ele>
        <time>2024-12-08T00:06:41.619Z</time>
      </trkpt>
      <trkpt lat="45.88154" lon="3.59923">
        <ele>591</ele>
        <time>2024-12-08T00:06:42.620Z</time>
      </trkpt>
      <trkpt lat="45.88152" lon="3.59922">
        <ele>591</ele>
        <time>2024-12-08T00:06:43.620Z</time>
      </trkpt>
      <trkpt lat="45.8815" lon="3.59923">
        <ele>592</ele>
        <time>2024-12-08T00:06:44.619Z</time>
      </trkpt>
      <trkpt lat="45.88148" lon="3.59925">
        <ele>592</ele>
        <time>2024-12-08T00:06:45.620Z</time>
      </trkpt>
      <trkpt lat="45.88147" lon="3.59926">
        <ele>592</ele>
        <time>2024-12-08T00:06:46.619Z</time>
      </trkpt>
      <trkpt lat="45.88146" lon="3.59927">
        <ele>593</ele>
        <time>2024-12-08T00:06:47.620Z</time>
      </trkpt>
      <trkpt lat="45.88145" lon="3.59928">
        <ele>593</ele>
        <time>2024-12-08T00:06:48.619Z</time>
      </trkpt>
      <trkpt lat="45.88144" lon="3.59928">
        <ele>593</ele>
        <time>2024-12-08T00:06:49.620Z</time>
      </trkpt>
      <trkpt lat="45.88142" lon="3.59929">
        <ele>593</ele>
        <time>2024-12-08T00:06:50.620Z</time>
      </trkpt>
      <trkpt lat="45.88141" lon="3.59929">
        <ele>593</ele>
        <time>2024-12-08T00:06:51.620Z</time>
      </trkpt>
      <trkpt lat="45.8814" lon="3.5993">
        <ele>593</ele>
        <time>2024-12-08T00:06:52.619Z</time>
      </trkpt>
      <trkpt lat="45.88138" lon="3.5993">
        <ele>593</ele>
        <time>2024-12-08T00:06:53.620Z</time>
      </trkpt>
      <trkpt lat="45.88137" lon="3.59931">
        <ele>593</ele>
        <time>2024-12-08T00:06:54.619Z</time>
      </trkpt>
      <trkpt lat="45.88135" lon="3.59931">
        <ele>594</ele>
        <time>2024-12-08T00:06:55.620Z</time>
      </trkpt>
      <trkpt lat="45.88133" lon="3.59931">
        <ele>594</ele>
        <time>2024-12-08T00:06:56.620Z</time>
      </trkpt>
      <trkpt lat="45.88131" lon="3.59932">
        <ele>594</ele>
        <time>2024-12-08T00:06:57.620Z</time>
      </trkpt>
      <trkpt lat="45.88129" lon="3.59933">
        <ele>594</ele>
        <time>2024-12-08T00:06:58.619Z</time>
      </trkpt>
      <trkpt lat="45.88128" lon="3.59933">
        <ele>594</ele>
        <time>2024-12-08T00:06:59.619Z</time>
      </trkpt>
      <trkpt lat="45.88127" lon="3.59934">
        <ele>595</ele>
        <time>2024-12-08T00:07:00.619Z</time>
      </trkpt>
      <trkpt lat="45.88126" lon="3.59935">
        <ele>595</ele>
        <time>2024-12-08T00:07:01.619Z</time>
      </trkpt>
      <trkpt lat="45.88124" lon="3.59936">
        <ele>596</ele>
        <time>2024-12-08T00:07:02.620Z</time>
      </trkpt>
      <trkpt lat="45.88123" lon="3.59937">
        <ele>596</ele>
        <time>2024-12-08T00:07:03.619Z</time>
      </trkpt>
      <trkpt lat="45.88121" lon="3.59939">
        <ele>597</ele>
        <time>2024-12-08T00:07:04.620Z</time>
      </trkpt>
      <trkpt lat="45.8812" lon="3.59941">
        <ele>597</ele>
        <time>2024-12-08T00:07:05.619Z</time>
      </trkpt>
      <trkpt lat="45.88119" lon="3.59942">
        <ele>597</ele>
        <time>2024-12-08T00:07:06.619Z</time>
      </trkpt>
      <trkpt lat="45.88117" lon="3.59944">
        <ele>598</ele>
        <time>2024-12-08T00:07:07.620Z</time>
      </trkpt>
      <trkpt lat="45.88116" lon="3.59944">
        <ele>598</ele>
        <time>2024-12-08T00:07:08.619Z</time>
      </trkpt>
      <trkpt lat="45.88115" lon="3.59945">
        <ele>598</ele>
        <time>2024-12-08T00:07:09.620Z</time>
      </trkpt>
      <trkpt lat="45.88113" lon="3.59946">
        <ele>599</ele>
        <time>2024-12-08T00:07:10.619Z</time>
      </trkpt>
      <trkpt lat="45.88112" lon="3.59947">
        <ele>599</ele>
        <time>2024-12-08T00:07:11.620Z</time>
      </trkpt>
      <trkpt lat="45.88111" lon="3.59948">
        <ele>600</ele>
        <time>2024-12-08T00:07:12.619Z</time>
      </trkpt>
      <trkpt lat="45.8811" lon="3.59951">
        <ele>601</ele>
        <time>2024-12-08T00:07:13.620Z</time>
      </trkpt>
      <trkpt lat="45.88108" lon="3.59951">
        <ele>602</ele>
        <time>2024-12-08T00:07:14.620Z</time>
      </trkpt>
      <trkpt lat="45.88107" lon="3.59952">
        <ele>602</ele>
        <time>2024-12-08T00:07:15.619Z</time>
      </trkpt>
      <trkpt lat="45.88106" lon="3.59954">
        <ele>603</ele>
        <time>2024-12-08T00:07:16.619Z</time>
      </trkpt>
      <trkpt lat="45.88104" lon="3.59954">
        <ele>604</ele>
        <time>2024-12-08T00:07:17.619Z</time>
      </trkpt>
      <trkpt lat="45.88103" lon="3.59955">
        <ele>604</ele>
        <time>2024-12-08T00:07:18.619Z</time>
      </trkpt>
      <trkpt lat="45.88101" lon="3.59955">
        <ele>605</ele>
        <time>2024-12-08T00:07:19.620Z</time>
      </trkpt>
      <trkpt lat="45.881" lon="3.59954">
        <ele>605</ele>
        <time>2024-12-08T00:07:20.620Z</time>
      </trkpt>
      <trkpt lat="45.88098" lon="3.59955">
        <ele>606</ele>
        <time>2024-12-08T00:07:21.620Z</time>
      </trkpt>
      <trkpt lat="45.88097" lon="3.59955">
        <ele>606</ele>
        <time>2024-12-08T00:07:22.620Z</time>
      </trkpt>
      <trkpt lat="45.88095" lon="3.59957">
        <ele>607</ele>
        <time>2024-12-08T00:07:23.619Z</time>
      </trkpt>
      <trkpt lat="45.88094" lon="3.59957">
        <ele>607</ele>
        <time>2024-12-08T00:07:24.619Z</time>
      </trkpt>
      <trkpt lat="45.88093" lon="3.59958">
        <ele>607</ele>
        <time>2024-12-08T00:07:25.619Z</time>
      </trkpt>
      <trkpt lat="45.88092" lon="3.59958">
        <ele>607</ele>
        <time>2024-12-08T00:07:26.619Z</time>
      </trkpt>
      <trkpt lat="45.8809" lon="3.59959">
        <ele>607</ele>
        <time>2024-12-08T00:07:27.619Z</time>
      </trkpt>
      <trkpt lat="45.88089" lon="3.59959">
        <ele>608</ele>
        <time>2024-12-08T00:07:28.619Z</time>
      </trkpt>
      <trkpt lat="45.88088" lon="3.59959">
        <ele>608</ele>
        <time>2024-12-08T00:07:29.619Z</time>
      </trkpt>
      <trkpt lat="45.88087" lon="3.5996">
        <ele>608</ele>
        <time>2024-12-08T00:07:30.619Z</time>
      </trkpt>
      <trkpt lat="45.88086" lon="3.5996">
        <ele>608</ele>
        <time>2024-12-08T00:07:31.619Z</time>
      </trkpt>
      <trkpt lat="45.88084" lon="3.5996">
        <ele>608</ele>
        <time>2024-12-08T00:07:32.619Z</time>
      </trkpt>
      <trkpt lat="45.88083" lon="3.59961">
        <ele>608</ele>
        <time>2024-12-08T00:07:33.619Z</time>
      </trkpt>
      <trkpt lat="45.88081" lon="3.59963">
        <ele>608</ele>
        <time>2024-12-08T00:07:34.620Z</time>
      </trkpt>
      <trkpt lat="45.8808" lon="3.59965">
        <ele>608</ele>
        <time>2024-12-08T00:07:35.620Z</time>
      </trkpt>
      <trkpt lat="45.88078" lon="3.59966">
        <ele>608</ele>
        <time>2024-12-08T00:07:36.619Z</time>
      </trkpt>
      <trkpt lat="45.88077" lon="3.59967">
        <ele>608</ele>
        <time>2024-12-08T00:07:37.619Z</time>
      </trkpt>
      <trkpt lat="45.88075" lon="3.59967">
        <ele>608</ele>
        <time>2024-12-08T00:07:38.620Z</time>
      </trkpt>
      <trkpt lat="45.88074" lon="3.59968">
        <ele>607</ele>
        <time>2024-12-08T00:07:39.619Z</time>
      </trkpt>
      <trkpt lat="45.88072" lon="3.59969">
        <ele>607</ele>
        <time>2024-12-08T00:07:40.619Z</time>
      </trkpt>
      <trkpt lat="45.8807" lon="3.59969">
        <ele>606</ele>
        <time>2024-12-08T00:07:41.619Z</time>
      </trkpt>
      <trkpt lat="45.88069" lon="3.5997">
        <ele>606</ele>
        <time>2024-12-08T00:07:42.619Z</time>
      </trkpt>
      <trkpt lat="45.88067" lon="3.59972">
        <ele>605</ele>
        <time>2024-12-08T00:07:43.619Z</time>
      </trkpt>
      <trkpt lat="45.88066" lon="3.59973">
        <ele>605</ele>
        <time>2024-12-08T00:07:44.619Z</time>
      </trkpt>
      <trkpt lat="45.88065" lon="3.59974">
        <ele>604</ele>
        <time>2024-12-08T00:07:45.620Z</time>
      </trkpt>
      <trkpt lat="45.88064" lon="3.59975">
        <ele>604</ele>
        <time>2024-12-08T00:07:46.619Z</time>
      </trkpt>
      <trkpt lat="45.88062" lon="3.59977">
        <ele>604</ele>
        <time>2024-12-08T00:07:47.619Z</time>
      </trkpt>
      <trkpt lat="45.88061" lon="3.59978">
        <ele>604</ele>
        <time>2024-12-08T00:07:48.619Z</time>
      </trkpt>
      <trkpt lat="45.8806" lon="3.59979">
        <ele>604</ele>
        <time>2024-12-08T00:07:49.619Z</time>
      </trkpt>
      <trkpt lat="45.88058" lon="3.59979">
        <ele>604</ele>
        <time>2024-12-08T00:07:50.619Z</time>
      </trkpt>
      <trkpt lat="45.88057" lon="3.59978">
        <ele>603</ele>
        <time>2024-12-08T00:07:51.619Z</time>
      </trkpt>
      <trkpt lat="45.88056" lon="3.59978">
        <ele>603</ele>
        <time>2024-12-08T00:07:52.620Z</time>
      </trkpt>
      <trkpt lat="45.88054" lon="3.59978">
        <ele>603</ele>
        <time>2024-12-08T00:07:53.620Z</time>
      </trkpt>
      <trkpt lat="45.88052" lon="3.59978">
        <ele>603</ele>
        <time>2024-12-08T00:07:54.619Z</time>
      </trkpt>
      <trkpt lat="45.88051" lon="3.59979">
        <ele>603</ele>
        <time>2024-12-08T00:07:55.619Z</time>
      </trkpt>
      <trkpt lat="45.88049" lon="3.59979">
        <ele>603</ele>
        <time>2024-12-08T00:07:56.620Z</time>
      </trkpt>
      <trkpt lat="45.88047" lon="3.59979">
        <ele>603</ele>
        <time>2024-12-08T00:07:57.620Z</time>
      </trkpt>
      <trkpt lat="45.88046" lon="3.59979">
        <ele>604</ele>
        <time>2024-12-08T00:07:58.620Z</time>
      </trkpt>
      <trkpt lat="45.88044" lon="3.59979">
        <ele>604</ele>
        <time>2024-12-08T00:07:59.619Z</time>
      </trkpt>
      <trkpt lat="45.88043" lon="3.59979">
        <ele>604</ele>
        <time>2024-12-08T00:08:00.620Z</time>
      </trkpt>
      <trkpt lat="45.88042" lon="3.59979">
        <ele>604</ele>
        <time>2024-12-08T00:08:01.620Z</time>
      </trkpt>
      <trkpt lat="45.8804" lon="3.5998">
        <ele>604</ele>
        <time>2024-12-08T00:08:02.619Z</time>
      </trkpt>
      <trkpt lat="45.88038" lon="3.5998">
        <ele>605</ele>
        <time>2024-12-08T00:08:03.619Z</time>
      </trkpt>
      <trkpt lat="45.88037" lon="3.5998">
        <ele>605</ele>
        <time>2024-12-08T00:08:04.619Z</time>
      </trkpt>
      <trkpt lat="45.88035" lon="3.5998">
        <ele>605</ele>
        <time>2024-12-08T00:08:05.620Z</time>
      </trkpt>
      <trkpt lat="45.88034" lon="3.5998">
        <ele>605</ele>
        <time>2024-12-08T00:08:06.619Z</time>
      </trkpt>
      <trkpt lat="45.88033" lon="3.59981">
        <ele>606</ele>
        <time>2024-12-08T00:08:07.619Z</time>
      </trkpt>
      <trkpt lat="45.88031" lon="3.59981">
        <ele>606</ele>
        <time>2024-12-08T00:08:08.619Z</time>
      </trkpt>
      <trkpt lat="45.8803" lon="3.59982">
        <ele>606</ele>
        <time>2024-12-08T00:08:09.620Z</time>
      </trkpt>
      <trkpt lat="45.88029" lon="3.59983">
        <ele>607</ele>
        <time>2024-12-08T00:08:10.619Z</time>
      </trkpt>
      <trkpt lat="45.88028" lon="3.59984">
        <ele>607</ele>
        <time>2024-12-08T00:08:11.620Z</time>
      </trkpt>
      <trkpt lat="45.88026" lon="3.59985">
        <ele>607</ele>
        <time>2024-12-08T00:08:12.619Z</time>
      </trkpt>
      <trkpt lat="45.88024" lon="3.59985">
        <ele>608</ele>
        <time>2024-12-08T00:08:13.620Z</time>
      </trkpt>
      <trkpt lat="45.88023" lon="3.59986">
        <ele>608</ele>
        <time>2024-12-08T00:08:14.620Z</time>
      </trkpt>
      <trkpt lat="45.88021" lon="3.59987">
        <ele>608</ele>
        <time>2024-12-08T00:08:15.620Z</time>
      </trkpt>
      <trkpt lat="45.8802" lon="3.59988">
        <ele>608</ele>
        <time>2024-12-08T00:08:16.619Z</time>
      </trkpt>
      <trkpt lat="45.88018" lon="3.59989">
        <ele>608</ele>
        <time>2024-12-08T00:08:17.620Z</time>
      </trkpt>
      <trkpt lat="45.88017" lon="3.5999">
        <ele>608</ele>
        <time>2024-12-08T00:08:18.620Z</time>
      </trkpt>
      <trkpt lat="45.88016" lon="3.59991">
        <ele>608</ele>
        <time>2024-12-08T00:08:19.619Z</time>
      </trkpt>
      <trkpt lat="45.88015" lon="3.59991">
        <ele>608</ele>
        <time>2024-12-08T00:08:20.620Z</time>
      </trkpt>
      <trkpt lat="45.88013" lon="3.59992">
        <ele>608</ele>
        <time>2024-12-08T00:08:21.619Z</time>
      </trkpt>
      <trkpt lat="45.88012" lon="3.59993">
        <ele>607</ele>
        <time>2024-12-08T00:08:22.620Z</time>
      </trkpt>
      <trkpt lat="45.88011" lon="3.59994">
        <ele>607</ele>
        <time>2024-12-08T00:08:23.620Z</time>
      </trkpt>
      <trkpt lat="45.8801" lon="3.59995">
        <ele>607</ele>
        <time>2024-12-08T00:08:24.619Z</time>
      </trkpt>
      <trkpt lat="45.88009" lon="3.59996">
        <ele>607</ele>
        <time>2024-12-08T00:08:25.620Z</time>
      </trkpt>
      <trkpt lat="45.88007" lon="3.59997">
        <ele>607</ele>
        <time>2024-12-08T00:08:26.620Z</time>
      </trkpt>
      <trkpt lat="45.88006" lon="3.59999">
        <ele>607</ele>
        <time>2024-12-08T00:08:27.619Z</time>
      </trkpt>
      <trkpt lat="45.88005" lon="3.6">
        <ele>607</ele>
        <time>2024-12-08T00:08:28.620Z</time>
      </trkpt>
      <trkpt lat="45.88004" lon="3.60002">
        <ele>607</ele>
        <time>2024-12-08T00:08:29.620Z</time>
      </trkpt>
      <trkpt lat="45.88003" lon="3.60003">
        <ele>607</ele>
        <time>2024-12-08T00:08:30.620Z</time>
      </trkpt>
      <trkpt lat="45.88002" lon="3.60004">
        <ele>608</ele>
        <time>2024-12-08T00:08:31.620Z</time>
      </trkpt>
      <trkpt lat="45.88001" lon="3.60006">
        <ele>608</ele>
        <time>2024-12-08T00:08:32.620Z</time>
      </trkpt>
      <trkpt lat="45.88" lon="3.60007">
        <ele>607</ele>
        <time>2024-12-08T00:08:33.620Z</time>
      </trkpt>
      <trkpt lat="45.87999" lon="3.60009">
        <ele>607</ele>
        <time>2024-12-08T00:08:34.620Z</time>
      </trkpt>
      <trkpt lat="45.87998" lon="3.60011">
        <ele>607</ele>
        <time>2024-12-08T00:08:35.619Z</time>
      </trkpt>
      <trkpt lat="45.87997" lon="3.60012">
        <ele>607</ele>
        <time>2024-12-08T00:08:36.619Z</time>
      </trkpt>
      <trkpt lat="45.87996" lon="3.60014">
        <ele>607</ele>
        <time>2024-12-08T00:08:37.620Z</time>
      </trkpt>
      <trkpt lat="45.87996" lon="3.60015">
        <ele>608</ele>
        <time>2024-12-08T00:08:38.619Z</time>
      </trkpt>
      <trkpt lat="45.87995" lon="3.60017">
        <ele>608</ele>
        <time>2024-12-08T00:08:39.619Z</time>
      </trkpt>
      <trkpt lat="45.87994" lon="3.60019">
        <ele>608</ele>
        <time>2024-12-08T00:08:40.620Z</time>
      </trkpt>
      <trkpt lat="45.87993" lon="3.60021">
        <ele>608</ele>
        <time>2024-12-08T00:08:41.619Z</time>
      </trkpt>
      <trkpt lat="45.87992" lon="3.60023">
        <ele>609</ele>
        <time>2024-12-08T00:08:42.619Z</time>
      </trkpt>
      <trkpt lat="45.87991" lon="3.60025">
        <ele>609</ele>
        <time>2024-12-08T00:08:43.620Z</time>
      </trkpt>
      <trkpt lat="45.87991" lon="3.60027">
        <ele>609</ele>
        <time>2024-12-08T00:08:44.620Z</time>
      </trkpt>
      <trkpt lat="45.8799" lon="3.60028">
        <ele>609</ele>
        <time>2024-12-08T00:08:45.620Z</time>
      </trkpt>
      <trkpt lat="45.87989" lon="3.6003">
        <ele>609</ele>
        <time>2024-12-08T00:08:46.619Z</time>
      </trkpt>
      <trkpt lat="45.87989" lon="3.60032">
        <ele>609</ele>
        <time>2024-12-08T00:08:47.619Z</time>
      </trkpt>
      <trkpt lat="45.87988" lon="3.60034">
        <ele>609</ele>
        <time>2024-12-08T00:08:48.620Z</time>
      </trkpt>
      <trkpt lat="45.87988" lon="3.60036">
        <ele>609</ele>
        <time>2024-12-08T00:08:49.619Z</time>
      </trkpt>
      <trkpt lat="45.87987" lon="3.60038">
        <ele>609</ele>
        <time>2024-12-08T00:08:50.619Z</time>
      </trkpt>
      <trkpt lat="45.87987" lon="3.6004">
        <ele>609</ele>
        <time>2024-12-08T00:08:51.619Z</time>
      </trkpt>
      <trkpt lat="45.87987" lon="3.60041">
        <ele>609</ele>
        <time>2024-12-08T00:08:52.619Z</time>
      </trkpt>
      <trkpt lat="45.87986" lon="3.60043">
        <ele>609</ele>
        <time>2024-12-08T00:08:53.620Z</time>
      </trkpt>
      <trkpt lat="45.87986" lon="3.60045">
        <ele>609</ele>
        <time>2024-12-08T00:08:54.620Z</time>
      </trkpt>
      <trkpt lat="45.87986" lon="3.60048">
        <ele>609</ele>
        <time>2024-12-08T00:08:55.619Z</time>
      </trkpt>
      <trkpt lat="45.87986" lon="3.6005">
        <ele>609</ele>
        <time>2024-12-08T00:08:56.620Z</time>
      </trkpt>
      <trkpt lat="45.87986" lon="3.60051">
        <ele>609</ele>
        <time>2024-12-08T00:08:57.620Z</time>
      </trkpt>
      <trkpt lat="45.87986" lon="3.60053">
        <ele>609</ele>
        <time>2024-12-08T00:08:58.620Z</time>
      </trkpt>
      <trkpt lat="45.87986" lon="3.60055">
        <ele>610</ele>
        <time>2024-12-08T00:08:59.619Z</time>
      </trkpt>
      <trkpt lat="45.87985" lon="3.60057">
        <ele>610</ele>
        <time>2024-12-08T00:09:00.620Z</time>
      </trkpt>
      <trkpt lat="45.87985" lon="3.60059">
        <ele>610</ele>
        <time>2024-12-08T00:09:01.619Z</time>
      </trkpt>
      <trkpt lat="45.87985" lon="3.60061">
        <ele>610</ele>
        <time>2024-12-08T00:09:02.619Z</time>
      </trkpt>
      <trkpt lat="45.87985" lon="3.60063">
        <ele>610</ele>
        <time>2024-12-08T00:09:03.619Z</time>
      </trkpt>
      <trkpt lat="45.87985" lon="3.60066">
        <ele>610</ele>
        <time>2024-12-08T00:09:04.619Z</time>
      </trkpt>
      <trkpt lat="45.87985" lon="3.60068">
        <ele>610</ele>
        <time>2024-12-08T00:09:05.619Z</time>
      </trkpt>
      <trkpt lat="45.87985" lon="3.6007">
        <ele>611</ele>
        <time>2024-12-08T00:09:06.620Z</time>
      </trkpt>
      <trkpt lat="45.87984" lon="3.60072">
        <ele>611</ele>
        <time>2024-12-08T00:09:07.619Z</time>
      </trkpt>
      <trkpt lat="45.87984" lon="3.60074">
        <ele>611</ele>
        <time>2024-12-08T00:09:08.620Z</time>
      </trkpt>
      <trkpt lat="45.87984" lon="3.60076">
        <ele>611</ele>
        <time>2024-12-08T00:09:09.620Z</time>
      </trkpt>
      <trkpt lat="45.87984" lon="3.60078">
        <ele>612</ele>
        <time>2024-12-08T00:09:10.620Z</time>
      </trkpt>
      <trkpt lat="45.87984" lon="3.6008">
        <ele>612</ele>
        <time>2024-12-08T00:09:11.619Z</time>
      </trkpt>
      <trkpt lat="45.87984" lon="3.60082">
        <ele>613</ele>
        <time>2024-12-08T00:09:12.620Z</time>
      </trkpt>
      <trkpt lat="45.87984" lon="3.60084">
        <ele>613</ele>
        <time>2024-12-08T00:09:13.619Z</time>
      </trkpt>
      <trkpt lat="45.87984" lon="3.60086">
        <ele>613</ele>
        <time>2024-12-08T00:09:14.619Z</time>
      </trkpt>
      <trkpt lat="45.87984" lon="3.60088">
        <ele>613</ele>
        <time>2024-12-08T00:09:15.620Z</time>
      </trkpt>
      <trkpt lat="45.87984" lon="3.6009">
        <ele>613</ele>
        <time>2024-12-08T00:09:16.619Z</time>
      </trkpt>
      <trkpt lat="45.87984" lon="3.60092">
        <ele>614</ele>
        <time>2024-12-08T00:09:17.620Z</time>
      </trkpt>
      <trkpt lat="45.87984" lon="3.60094">
        <ele>614</ele>
        <time>2024-12-08T00:09:18.619Z</time>
      </trkpt>
      <trkpt lat="45.87985" lon="3.60096">
        <ele>614</ele>
        <time>2024-12-08T00:09:19.619Z</time>
      </trkpt>
      <trkpt lat="45.87985" lon="3.60098">
        <ele>614</ele>
        <time>2024-12-08T00:09:20.620Z</time>
      </trkpt>
      <trkpt lat="45.87985" lon="3.601">
        <ele>615</ele>
        <time>2024-12-08T00:09:21.619Z</time>
      </trkpt>
      <trkpt lat="45.87986" lon="3.60101">
        <ele>615</ele>
        <time>2024-12-08T00:09:22.620Z</time>
      </trkpt>
      <trkpt lat="45.87986" lon="3.60103">
        <ele>615</ele>
        <time>2024-12-08T00:09:23.620Z</time>
      </trkpt>
      <trkpt lat="45.87987" lon="3.60105">
        <ele>615</ele>
        <time>2024-12-08T00:09:24.619Z</time>
      </trkpt>
      <trkpt lat="45.87988" lon="3.60107">
        <ele>615</ele>
        <time>2024-12-08T00:09:25.619Z</time>
      </trkpt>
      <trkpt lat="45.87988" lon="3.60108">
        <ele>615</ele>
        <time>2024-12-08T00:09:26.620Z</time>
      </trkpt>
      <trkpt lat="45.87989" lon="3.6011">
        <ele>615</ele>
        <time>2024-12-08T00:09:27.619Z</time>
      </trkpt>
      <trkpt lat="45.8799" lon="3.60112">
        <ele>615</ele>
        <time>2024-12-08T00:09:28.619Z</time>
      </trkpt>
      <trkpt lat="45.87991" lon="3.60113">
        <ele>615</ele>
        <time>2024-12-08T00:09:29.620Z</time>
      </trkpt>
      <trkpt lat="45.87991" lon="3.60114">
        <ele>615</ele>
        <time>2024-12-08T00:09:30.619Z</time>
      </trkpt>
      <trkpt lat="45.87992" lon="3.60116">
        <ele>615</ele>
        <time>2024-12-08T00:09:31.619Z</time>
      </trkpt>
      <trkpt lat="45.87993" lon="3.60117">
        <ele>615</ele>
        <time>2024-12-08T00:09:32.619Z</time>
      </trkpt>
      <trkpt lat="45.87994" lon="3.60119">
        <ele>616</ele>
        <time>2024-12-08T00:09:33.619Z</time>
      </trkpt>
      <trkpt lat="45.87995" lon="3.6012">
        <ele>616</ele>
        <time>2024-12-08T00:09:34.620Z</time>
      </trkpt>
      <trkpt lat="45.87996" lon="3.60121">
        <ele>616</ele>
        <time>2024-12-08T00:09:35.620Z</time>
      </trkpt>
      <trkpt lat="45.87996" lon="3.60122">
        <ele>616</ele>
        <time>2024-12-08T00:09:36.619Z</time>
      </trkpt>
      <trkpt lat="45.87997" lon="3.60123">
        <ele>616</ele>
        <time>2024-12-08T00:09:37.619Z</time>
      </trkpt>
      <trkpt lat="45.87998" lon="3.60125">
        <ele>616</ele>
        <time>2024-12-08T00:09:38.620Z</time>
      </trkpt>
      <trkpt lat="45.87999" lon="3.60126">
        <ele>617</ele>
        <time>2024-12-08T00:09:39.620Z</time>
      </trkpt>
      <trkpt lat="45.88" lon="3.60127">
        <ele>617</ele>
        <time>2024-12-08T00:09:40.619Z</time>
      </trkpt>
      <trkpt lat="45.88001" lon="3.60128">
        <ele>618</ele>
        <time>2024-12-08T00:09:41.620Z</time>
      </trkpt>
      <trkpt lat="45.88002" lon="3.60129">
        <ele>618</ele>
        <time>2024-12-08T00:09:42.619Z</time>
      </trkpt>
      <trkpt lat="45.88003" lon="3.6013">
        <ele>619</ele>
        <time>2024-12-08T00:09:43.619Z</time>
      </trkpt>
      <trkpt lat="45.88004" lon="3.60131">
        <ele>619</ele>
        <time>2024-12-08T00:09:44.620Z</time>
      </trkpt>
      <trkpt lat="45.88005" lon="3.60132">
        <ele>620</ele>
        <time>2024-12-08T00:09:45.619Z</time>
      </trkpt>
      <trkpt lat="45.88006" lon="3.60133">
        <ele>620</ele>
        <time>2024-12-08T00:09:46.620Z</time>
      </trkpt>
      <trkpt lat="45.88008" lon="3.60134">
        <ele>620</ele>
        <time>2024-12-08T00:09:47.620Z</time>
      </trkpt>
      <trkpt lat="45.88009" lon="3.60135">
        <ele>620</ele>
        <time>2024-12-08T00:09:48.620Z</time>
      </trkpt>
      <trkpt lat="45.8801" lon="3.60136">
        <ele>620</ele>
        <time>2024-12-08T00:09:49.619Z</time>
      </trkpt>
      <trkpt lat="45.88012" lon="3.60137">
        <ele>620</ele>
        <time>2024-12-08T00:09:50.620Z</time>
      </trkpt>
      <trkpt lat="45.88013" lon="3.60138">
        <ele>620</ele>
        <time>2024-12-08T00:09:51.619Z</time>
      </trkpt>
      <trkpt lat="45.88014" lon="3.60139">
        <ele>621</ele>
        <time>2024-12-08T00:09:52.619Z</time>
      </trkpt>
      <trkpt lat="45.88015" lon="3.6014">
        <ele>621</ele>
        <time>2024-12-08T00:09:53.619Z</time>
      </trkpt>
      <trkpt lat="45.88017" lon="3.60141">
        <ele>622</ele>
        <time>2024-12-08T00:09:54.620Z</time>
      </trkpt>
      <trkpt lat="45.88018" lon="3.60142">
        <ele>622</ele>
        <time>2024-12-08T00:09:55.620Z</time>
      </trkpt>
      <trkpt lat="45.8802" lon="3.60143">
        <ele>623</ele>
        <time>2024-12-08T00:09:56.620Z</time>
      </trkpt>
      <trkpt lat="45.88021" lon="3.60144">
        <ele>623</ele>
        <time>2024-12-08T00:09:57.619Z</time>
      </trkpt>
      <trkpt lat="45.88023" lon="3.60145">
        <ele>624</ele>
        <time>2024-12-08T00:09:58.620Z</time>
      </trkpt>
      <trkpt lat="45.88024" lon="3.60146">
        <ele>624</ele>
        <time>2024-12-08T00:09:59.619Z</time>
      </trkpt>
      <trkpt lat="45.88026" lon="3.60147">
        <ele>625</ele>
        <time>2024-12-08T00:10:00.619Z</time>
      </trkpt>
      <trkpt lat="45.88028" lon="3.60147">
        <ele>625</ele>
        <time>2024-12-08T00:10:01.619Z</time>
      </trkpt>
      <trkpt lat="45.88029" lon="3.60149">
        <ele>626</ele>
        <time>2024-12-08T00:10:02.620Z</time>
      </trkpt>
      <trkpt lat="45.8803" lon="3.6015">
        <ele>626</ele>
        <time>2024-12-08T00:10:03.620Z</time>
      </trkpt>
      <trkpt lat="45.88031" lon="3.60151">
        <ele>626</ele>
        <time>2024-12-08T00:10:04.619Z</time>
      </trkpt>
      <trkpt lat="45.88032" lon="3.60152">
        <ele>626</ele>
        <time>2024-12-08T00:10:05.620Z</time>
      </trkpt>
      <trkpt lat="45.88034" lon="3.60153">
        <ele>626</ele>
        <time>2024-12-08T00:10:06.619Z</time>
      </trkpt>
      <trkpt lat="45.88036" lon="3.60154">
        <ele>627</ele>
        <time>2024-12-08T00:10:07.620Z</time>
      </trkpt>
      <trkpt lat="45.88037" lon="3.60156">
        <ele>627</ele>
        <time>2024-12-08T00:10:08.619Z</time>
      </trkpt>
      <trkpt lat="45.88039" lon="3.60157">
        <ele>627</ele>
        <time>2024-12-08T00:10:09.619Z</time>
      </trkpt>
      <trkpt lat="45.8804" lon="3.60159">
        <ele>626</ele>
        <time>2024-12-08T00:10:10.619Z</time>
      </trkpt>
      <trkpt lat="45.88041" lon="3.60161">
        <ele>626</ele>
        <time>2024-12-08T00:10:11.620Z</time>
      </trkpt>
      <trkpt lat="45.88043" lon="3.60162">
        <ele>626</ele>
        <time>2024-12-08T00:10:12.619Z</time>
      </trkpt>
      <trkpt lat="45.88044" lon="3.60164">
        <ele>626</ele>
        <time>2024-12-08T00:10:13.619Z</time>
      </trkpt>
      <trkpt lat="45.88046" lon="3.60165">
        <ele>627</ele>
        <time>2024-12-08T00:10:14.619Z</time>
      </trkpt>
      <trkpt lat="45.88047" lon="3.60166">
        <ele>627</ele>
        <time>2024-12-08T00:10:15.619Z</time>
      </trkpt>
      <trkpt lat="45.88048" lon="3.60168">
        <ele>627</ele>
        <time>2024-12-08T00:10:16.620Z</time>
      </trkpt>
      <trkpt lat="45.88049" lon="3.60169">
        <ele>627</ele>
        <time>2024-12-08T00:10:17.619Z</time>
      </trkpt>
      <trkpt lat="45.8805" lon="3.6017">
        <ele>627</ele>
        <time>2024-12-08T00:10:18.620Z</time>
      </trkpt>
      <trkpt lat="45.88051" lon="3.60172">
        <ele>627</ele>
        <time>2024-12-08T00:10:19.619Z</time>
      </trkpt>
      <trkpt lat="45.88052" lon="3.60173">
        <ele>627</ele>
        <time>2024-12-08T00:10:20.619Z</time>
      </trkpt>
      <trkpt lat="45.88053" lon="3.60175">
        <ele>628</ele>
        <time>2024-12-08T00:10:21.619Z</time>
      </trkpt>
      <trkpt lat="45.88054" lon="3.60176">
        <ele>627</ele>
        <time>2024-12-08T00:10:22.619Z</time>
      </trkpt>
      <trkpt lat="45.88056" lon="3.60178">
        <ele>628</ele>
        <time>2024-12-08T00:10:23.619Z</time>
      </trkpt>
      <trkpt lat="45.88057" lon="3.60179">
        <ele>628</ele>
        <time>2024-12-08T00:10:24.620Z</time>
      </trkpt>
      <trkpt lat="45.88059" lon="3.6018">
        <ele>628</ele>
        <time>2024-12-08T00:10:25.620Z</time>
      </trkpt>
      <trkpt lat="45.8806" lon="3.60181">
        <ele>628</ele>
        <time>2024-12-08T00:10:26.619Z</time>
      </trkpt>
      <trkpt lat="45.88062" lon="3.60182">
        <ele>628</ele>
        <time>2024-12-08T00:10:27.620Z</time>
      </trkpt>
      <trkpt lat="45.88064" lon="3.60183">
        <ele>628</ele>
        <time>2024-12-08T00:10:28.620Z</time>
      </trkpt>
      <trkpt lat="45.88065" lon="3.60184">
        <ele>629</ele>
        <time>2024-12-08T00:10:29.619Z</time>
      </trkpt>
      <trkpt lat="45.88067" lon="3.60186">
        <ele>629</ele>
        <time>2024-12-08T00:10:30.619Z</time>
      </trkpt>
      <trkpt lat="45.88068" lon="3.60187">
        <ele>629</ele>
        <time>2024-12-08T00:10:31.620Z</time>
      </trkpt>
      <trkpt lat="45.88069" lon="3.60188">
        <ele>629</ele>
        <time>2024-12-08T00:10:32.619Z</time>
      </trkpt>
      <trkpt lat="45.8807" lon="3.60189">
        <ele>629</ele>
        <time>2024-12-08T00:10:33.619Z</time>
      </trkpt>
      <trkpt lat="45.88072" lon="3.60191">
        <ele>628</ele>
        <time>2024-12-08T00:10:34.620Z</time>
      </trkpt>
      <trkpt lat="45.88073" lon="3.60192">
        <ele>629</ele>
        <time>2024-12-08T00:10:35.620Z</time>
      </trkpt>
      <trkpt lat="45.88074" lon="3.60193">
        <ele>629</ele>
        <time>2024-12-08T00:10:36.620Z</time>
      </trkpt>
      <trkpt lat="45.88076" lon="3.60194">
        <ele>628</ele>
        <time>2024-12-08T00:10:37.619Z</time>
      </trkpt>
      <trkpt lat="45.88077" lon="3.60195">
        <ele>629</ele>
        <time>2024-12-08T00:10:38.619Z</time>
      </trkpt>
      <trkpt lat="45.88079" lon="3.60196">
        <ele>629</ele>
        <time>2024-12-08T00:10:39.619Z</time>
      </trkpt>
      <trkpt lat="45.8808" lon="3.60196">
        <ele>629</ele>
        <time>2024-12-08T00:10:40.620Z</time>
      </trkpt>
      <trkpt lat="45.88082" lon="3.60197">
        <ele>629</ele>
        <time>2024-12-08T00:10:41.619Z</time>
      </trkpt>
      <trkpt lat="45.88084" lon="3.60197">
        <ele>630</ele>
        <time>2024-12-08T00:10:42.620Z</time>
      </trkpt>
      <trkpt lat="45.88085" lon="3.60198">
        <ele>630</ele>
        <time>2024-12-08T00:10:43.619Z</time>
      </trkpt>
      <trkpt lat="45.88087" lon="3.60199">
        <ele>630</ele>
        <time>2024-12-08T00:10:44.620Z</time>
      </trkpt>
      <trkpt lat="45.88088" lon="3.602">
        <ele>630</ele>
        <time>2024-12-08T00:10:45.619Z</time>
      </trkpt>
      <trkpt lat="45.88089" lon="3.60202">
        <ele>630</ele>
        <time>2024-12-08T00:10:46.619Z</time>
      </trkpt>
      <trkpt lat="45.88091" lon="3.60203">
        <ele>631</ele>
        <time>2024-12-08T00:10:47.619Z</time>
      </trkpt>
      <trkpt lat="45.88092" lon="3.60204">
        <ele>631</ele>
        <time>2024-12-08T00:10:48.619Z</time>
      </trkpt>
      <trkpt lat="45.88093" lon="3.60205">
        <ele>631</ele>
        <time>2024-12-08T00:10:49.619Z</time>
      </trkpt>
      <trkpt lat="45.88095" lon="3.60206">
        <ele>631</ele>
        <time>2024-12-08T00:10:50.619Z</time>
      </trkpt>
      <trkpt lat="45.88096" lon="3.60207">
        <ele>631</ele>
        <time>2024-12-08T00:10:51.620Z</time>
      </trkpt>
      <trkpt lat="45.88098" lon="3.60208">
        <ele>631</ele>
        <time>2024-12-08T00:10:52.619Z</time>
      </trkpt>
      <trkpt lat="45.88099" lon="3.60209">
        <ele>631</ele>
        <time>2024-12-08T00:10:53.619Z</time>
      </trkpt>
      <trkpt lat="45.881" lon="3.6021">
        <ele>631</ele>
        <time>2024-12-08T00:10:54.619Z</time>
      </trkpt>
      <trkpt lat="45.88102" lon="3.6021">
        <ele>631</ele>
        <time>2024-12-08T00:10:55.620Z</time>
      </trkpt>
      <trkpt lat="45.88103" lon="3.60211">
        <ele>631</ele>
        <time>2024-12-08T00:10:56.619Z</time>
      </trkpt>
      <trkpt lat="45.88104" lon="3.60212">
        <ele>631</ele>
        <time>2024-12-08T00:10:57.620Z</time>
      </trkpt>
      <trkpt lat="45.88106" lon="3.60213">
        <ele>631</ele>
        <time>2024-12-08T00:10:58.619Z</time>
      </trkpt>
      <trkpt lat="45.88108" lon="3.60214">
        <ele>631</ele>
        <time>2024-12-08T00:10:59.619Z</time>
      </trkpt>
      <trkpt lat="45.88109" lon="3.60214">
        <ele>630</ele>
        <time>2024-12-08T00:11:00.619Z</time>
      </trkpt>
      <trkpt lat="45.88111" lon="3.60215">
        <ele>630</ele>
        <time>2024-12-08T00:11:01.619Z</time>
      </trkpt>
      <trkpt lat="45.88113" lon="3.60216">
        <ele>630</ele>
        <time>2024-12-08T00:11:02.620Z</time>
      </trkpt>
      <trkpt lat="45.88115" lon="3.60217">
        <ele>630</ele>
        <time>2024-12-08T00:11:03.619Z</time>
      </trkpt>
      <trkpt lat="45.88116" lon="3.60219">
        <ele>630</ele>
        <time>2024-12-08T00:11:04.619Z</time>
      </trkpt>
      <trkpt lat="45.88118" lon="3.6022">
        <ele>630</ele>
        <time>2024-12-08T00:11:05.619Z</time>
      </trkpt>
      <trkpt lat="45.8812" lon="3.60221">
        <ele>630</ele>
        <time>2024-12-08T00:11:06.619Z</time>
      </trkpt>
      <trkpt lat="45.88121" lon="3.60221">
        <ele>630</ele>
        <time>2024-12-08T00:11:07.619Z</time>
      </trkpt>
      <trkpt lat="45.88123" lon="3.60221">
        <ele>631</ele>
        <time>2024-12-08T00:11:08.619Z</time>
      </trkpt>
      <trkpt lat="45.88124" lon="3.60222">
        <ele>631</ele>
        <time>2024-12-08T00:11:09.620Z</time>
      </trkpt>
      <trkpt lat="45.88126" lon="3.60222">
        <ele>630</ele>
        <time>2024-12-08T00:11:10.619Z</time>
      </trkpt>
      <trkpt lat="45.88128" lon="3.60222">
        <ele>630</ele>
        <time>2024-12-08T00:11:11.619Z</time>
      </trkpt>
      <trkpt lat="45.8813" lon="3.60223">
        <ele>630</ele>
        <time>2024-12-08T00:11:12.619Z</time>
      </trkpt>
      <trkpt lat="45.88132" lon="3.60223">
        <ele>630</ele>
        <time>2024-12-08T00:11:13.620Z</time>
      </trkpt>
      <trkpt lat="45.88134" lon="3.60223">
        <ele>630</ele>
        <time>2024-12-08T00:11:14.619Z</time>
      </trkpt>
      <trkpt lat="45.88135" lon="3.60224">
        <ele>630</ele>
        <time>2024-12-08T00:11:15.620Z</time>
      </trkpt>
      <trkpt lat="45.88137" lon="3.60224">
        <ele>630</ele>
        <time>2024-12-08T00:11:16.619Z</time>
      </trkpt>
      <trkpt lat="45.88139" lon="3.60225">
        <ele>630</ele>
        <time>2024-12-08T00:11:17.619Z</time>
      </trkpt>
      <trkpt lat="45.88141" lon="3.60226">
        <ele>630</ele>
        <time>2024-12-08T00:11:18.619Z</time>
      </trkpt>
      <trkpt lat="45.88142" lon="3.60226">
        <ele>630</ele>
        <time>2024-12-08T00:11:19.620Z</time>
      </trkpt>
      <trkpt lat="45.88144" lon="3.60226">
        <ele>630</ele>
        <time>2024-12-08T00:11:20.620Z</time>
      </trkpt>
      <trkpt lat="45.88145" lon="3.60227">
        <ele>630</ele>
        <time>2024-12-08T00:11:21.620Z</time>
      </trkpt>
      <trkpt lat="45.88147" lon="3.60228">
        <ele>631</ele>
        <time>2024-12-08T00:11:22.619Z</time>
      </trkpt>
      <trkpt lat="45.88149" lon="3.60228">
        <ele>631</ele>
        <time>2024-12-08T00:11:23.620Z</time>
      </trkpt>
      <trkpt lat="45.88151" lon="3.60228">
        <ele>631</ele>
        <time>2024-12-08T00:11:24.619Z</time>
      </trkpt>
      <trkpt lat="45.88153" lon="3.60229">
        <ele>631</ele>
        <time>2024-12-08T00:11:25.620Z</time>
      </trkpt>
      <trkpt lat="45.88155" lon="3.60228">
        <ele>631</ele>
        <time>2024-12-08T00:11:26.620Z</time>
      </trkpt>
      <trkpt lat="45.88156" lon="3.60228">
        <ele>631</ele>
        <time>2024-12-08T00:11:27.620Z</time>
      </trkpt>
      <trkpt lat="45.88158" lon="3.60228">
        <ele>631</ele>
        <time>2024-12-08T00:11:28.619Z</time>
      </trkpt>
      <trkpt lat="45.88161" lon="3.60228">
        <ele>631</ele>
        <time>2024-12-08T00:11:29.619Z</time>
      </trkpt>
      <trkpt lat="45.88163" lon="3.60229">
        <ele>631</ele>
        <time>2024-12-08T00:11:30.620Z</time>
      </trkpt>
      <trkpt lat="45.88165" lon="3.60229">
        <ele>631</ele>
        <time>2024-12-08T00:11:31.619Z</time>
      </trkpt>
      <trkpt lat="45.88167" lon="3.6023">
        <ele>631</ele>
        <time>2024-12-08T00:11:32.620Z</time>
      </trkpt>
      <trkpt lat="45.88169" lon="3.6023">
        <ele>631</ele>
        <time>2024-12-08T00:11:33.619Z</time>
      </trkpt>
      <trkpt lat="45.88172" lon="3.6023">
        <ele>631</ele>
        <time>2024-12-08T00:11:34.620Z</time>
      </trkpt>
      <trkpt lat="45.88174" lon="3.6023">
        <ele>631</ele>
        <time>2024-12-08T00:11:35.620Z</time>
      </trkpt>
      <trkpt lat="45.88176" lon="3.6023">
        <ele>631</ele>
        <time>2024-12-08T00:11:36.620Z</time>
      </trkpt>
      <trkpt lat="45.88177" lon="3.60231">
        <ele>631</ele>
        <time>2024-12-08T00:11:37.620Z</time>
      </trkpt>
      <trkpt lat="45.88179" lon="3.60231">
        <ele>631</ele>
        <time>2024-12-08T00:11:38.620Z</time>
      </trkpt>
      <trkpt lat="45.8818" lon="3.60232">
        <ele>631</ele>
        <time>2024-12-08T00:11:39.619Z</time>
      </trkpt>
      <trkpt lat="45.88181" lon="3.60232">
        <ele>631</ele>
        <time>2024-12-08T00:11:40.619Z</time>
      </trkpt>
      <trkpt lat="45.88183" lon="3.60232">
        <ele>631</ele>
        <time>2024-12-08T00:11:41.620Z</time>
      </trkpt>
      <trkpt lat="45.88184" lon="3.60232">
        <ele>631</ele>
        <time>2024-12-08T00:11:42.620Z</time>
      </trkpt>
      <trkpt lat="45.88186" lon="3.60232">
        <ele>630</ele>
        <time>2024-12-08T00:11:43.619Z</time>
      </trkpt>
      <trkpt lat="45.88187" lon="3.60233">
        <ele>630</ele>
        <time>2024-12-08T00:11:44.620Z</time>
      </trkpt>
      <trkpt lat="45.88189" lon="3.60234">
        <ele>630</ele>
        <time>2024-12-08T00:11:45.620Z</time>
      </trkpt>
      <trkpt lat="45.88191" lon="3.60234">
        <ele>630</ele>
        <time>2024-12-08T00:11:46.619Z</time>
      </trkpt>
      <trkpt lat="45.88193" lon="3.60235">
        <ele>630</ele>
        <time>2024-12-08T00:11:47.619Z</time>
      </trkpt>
      <trkpt lat="45.88195" lon="3.60236">
        <ele>630</ele>
        <time>2024-12-08T00:11:48.619Z</time>
      </trkpt>
      <trkpt lat="45.88196" lon="3.60236">
        <ele>630</ele>
        <time>2024-12-08T00:11:49.619Z</time>
      </trkpt>
      <trkpt lat="45.88197" lon="3.60237">
        <ele>630</ele>
        <time>2024-12-08T00:11:50.620Z</time>
      </trkpt>
      <trkpt lat="45.88199" lon="3.60238">
        <ele>630</ele>
        <time>2024-12-08T00:11:51.619Z</time>
      </trkpt>
      <trkpt lat="45.88201" lon="3.60239">
        <ele>630</ele>
        <time>2024-12-08T00:11:52.619Z</time>
      </trkpt>
      <trkpt lat="45.88202" lon="3.6024">
        <ele>630</ele>
        <time>2024-12-08T00:11:53.619Z</time>
      </trkpt>
      <trkpt lat="45.88204" lon="3.60241">
        <ele>630</ele>
        <time>2024-12-08T00:11:54.620Z</time>
      </trkpt>
      <trkpt lat="45.88205" lon="3.60242">
        <ele>630</ele>
        <time>2024-12-08T00:11:55.619Z</time>
      </trkpt>
      <trkpt lat="45.88207" lon="3.60243">
        <ele>629</ele>
        <time>2024-12-08T00:11:56.619Z</time>
      </trkpt>
      <trkpt lat="45.88208" lon="3.60245">
        <ele>629</ele>
        <time>2024-12-08T00:11:57.619Z</time>
      </trkpt>
      <trkpt lat="45.8821" lon="3.60246">
        <ele>629</ele>
        <time>2024-12-08T00:11:58.619Z</time>
      </trkpt>
      <trkpt lat="45.88212" lon="3.60247">
        <ele>629</ele>
        <time>2024-12-08T00:11:59.620Z</time>
      </trkpt>
      <trkpt lat="45.88214" lon="3.60248">
        <ele>629</ele>
        <time>2024-12-08T00:12:00.619Z</time>
      </trkpt>
      <trkpt lat="45.88218" lon="3.6025">
        <ele>629</ele>
        <time>2024-12-08T00:12:01.620Z</time>
      </trkpt>
      <trkpt lat="45.8822" lon="3.60252">
        <ele>629</ele>
        <time>2024-12-08T00:12:02.620Z</time>
      </trkpt>
      <trkpt lat="45.88223" lon="3.60254">
        <ele>629</ele>
        <time>2024-12-08T00:12:03.619Z</time>
      </trkpt>
      <trkpt lat="45.88225" lon="3.60256">
        <ele>629</ele>
        <time>2024-12-08T00:12:04.620Z</time>
      </trkpt>
      <trkpt lat="45.88227" lon="3.60258">
        <ele>629</ele>
        <time>2024-12-08T00:12:05.620Z</time>
      </trkpt>
      <trkpt lat="45.88228" lon="3.6026">
        <ele>629</ele>
        <time>2024-12-08T00:12:06.620Z</time>
      </trkpt>
      <trkpt lat="45.8823" lon="3.60261">
        <ele>629</ele>
        <time>2024-12-08T00:12:07.620Z</time>
      </trkpt>
      <trkpt lat="45.88231" lon="3.60263">
        <ele>629</ele>
        <time>2024-12-08T00:12:08.619Z</time>
      </trkpt>
      <trkpt lat="45.88233" lon="3.60265">
        <ele>628</ele>
        <time>2024-12-08T00:12:09.620Z</time>
      </trkpt>
      <trkpt lat="45.88235" lon="3.60267">
        <ele>628</ele>
        <time>2024-12-08T00:12:10.620Z</time>
      </trkpt>
      <trkpt lat="45.88236" lon="3.60269">
        <ele>627</ele>
        <time>2024-12-08T00:12:11.619Z</time>
      </trkpt>
      <trkpt lat="45.88238" lon="3.60271">
        <ele>627</ele>
        <time>2024-12-08T00:12:12.619Z</time>
      </trkpt>
      <trkpt lat="45.88239" lon="3.60273">
        <ele>626</ele>
        <time>2024-12-08T00:12:13.620Z</time>
      </trkpt>
      <trkpt lat="45.88241" lon="3.60275">
        <ele>626</ele>
        <time>2024-12-08T00:12:14.620Z</time>
      </trkpt>
      <trkpt lat="45.88242" lon="3.60278">
        <ele>626</ele>
        <time>2024-12-08T00:12:15.619Z</time>
      </trkpt>
      <trkpt lat="45.88243" lon="3.6028">
        <ele>626</ele>
        <time>2024-12-08T00:12:16.620Z</time>
      </trkpt>
      <trkpt lat="45.88244" lon="3.60282">
        <ele>626</ele>
        <time>2024-12-08T00:12:17.619Z</time>
      </trkpt>
      <trkpt lat="45.88245" lon="3.60285">
        <ele>626</ele>
        <time>2024-12-08T00:12:18.619Z</time>
      </trkpt>
      <trkpt lat="45.88247" lon="3.60286">
        <ele>626</ele>
        <time>2024-12-08T00:12:19.620Z</time>
      </trkpt>
      <trkpt lat="45.88249" lon="3.60288">
        <ele>626</ele>
        <time>2024-12-08T00:12:20.619Z</time>
      </trkpt>
      <trkpt lat="45.8825" lon="3.60291">
        <ele>626</ele>
        <time>2024-12-08T00:12:21.620Z</time>
      </trkpt>
      <trkpt lat="45.88251" lon="3.60294">
        <ele>626</ele>
        <time>2024-12-08T00:12:22.620Z</time>
      </trkpt>
      <trkpt lat="45.88252" lon="3.60296">
        <ele>626</ele>
        <time>2024-12-08T00:12:23.619Z</time>
      </trkpt>
      <trkpt lat="45.88253" lon="3.60299">
        <ele>626</ele>
        <time>2024-12-08T00:12:24.619Z</time>
      </trkpt>
      <trkpt lat="45.88253" lon="3.60301">
        <ele>626</ele>
        <time>2024-12-08T00:12:25.619Z</time>
      </trkpt>
      <trkpt lat="45.88254" lon="3.60303">
        <ele>626</ele>
        <time>2024-12-08T00:12:26.619Z</time>
      </trkpt>
      <trkpt lat="45.88255" lon="3.60306">
        <ele>625</ele>
        <time>2024-12-08T00:12:27.620Z</time>
      </trkpt>
      <trkpt lat="45.88256" lon="3.60308">
        <ele>625</ele>
        <time>2024-12-08T00:12:28.619Z</time>
      </trkpt>
      <trkpt lat="45.88257" lon="3.6031">
        <ele>625</ele>
        <time>2024-12-08T00:12:29.620Z</time>
      </trkpt>
      <trkpt lat="45.88257" lon="3.60313">
        <ele>624</ele>
        <time>2024-12-08T00:12:30.619Z</time>
      </trkpt>
      <trkpt lat="45.88258" lon="3.60315">
        <ele>624</ele>
        <time>2024-12-08T00:12:31.620Z</time>
      </trkpt>
      <trkpt lat="45.88259" lon="3.60318">
        <ele>624</ele>
        <time>2024-12-08T00:12:32.620Z</time>
      </trkpt>
      <trkpt lat="45.8826" lon="3.60321">
        <ele>624</ele>
        <time>2024-12-08T00:12:33.620Z</time>
      </trkpt>
      <trkpt lat="45.8826" lon="3.60323">
        <ele>625</ele>
        <time>2024-12-08T00:12:34.619Z</time>
      </trkpt>
      <trkpt lat="45.8826" lon="3.60326">
        <ele>624</ele>
        <time>2024-12-08T00:12:35.620Z</time>
      </trkpt>
      <trkpt lat="45.8826" lon="3.60328">
        <ele>624</ele>
        <time>2024-12-08T00:12:36.620Z</time>
      </trkpt>
      <trkpt lat="45.8826" lon="3.60331">
        <ele>624</ele>
        <time>2024-12-08T00:12:37.620Z</time>
      </trkpt>
      <trkpt lat="45.88261" lon="3.60334">
        <ele>623</ele>
        <time>2024-12-08T00:12:38.619Z</time>
      </trkpt>
      <trkpt lat="45.88261" lon="3.60337">
        <ele>623</ele>
        <time>2024-12-08T00:12:39.619Z</time>
      </trkpt>
      <trkpt lat="45.88261" lon="3.60339">
        <ele>623</ele>
        <time>2024-12-08T00:12:40.619Z</time>
      </trkpt>
      <trkpt lat="45.88261" lon="3.60342">
        <ele>623</ele>
        <time>2024-12-08T00:12:41.619Z</time>
      </trkpt>
      <trkpt lat="45.88262" lon="3.60345">
        <ele>622</ele>
        <time>2024-12-08T00:12:42.620Z</time>
      </trkpt>
      <trkpt lat="45.88262" lon="3.60347">
        <ele>622</ele>
        <time>2024-12-08T00:12:43.619Z</time>
      </trkpt>
      <trkpt lat="45.88262" lon="3.6035">
        <ele>621</ele>
        <time>2024-12-08T00:12:44.619Z</time>
      </trkpt>
      <trkpt lat="45.88262" lon="3.60353">
        <ele>621</ele>
        <time>2024-12-08T00:12:45.620Z</time>
      </trkpt>
      <trkpt lat="45.88263" lon="3.60356">
        <ele>621</ele>
        <time>2024-12-08T00:12:46.619Z</time>
      </trkpt>
      <trkpt lat="45.88263" lon="3.60358">
        <ele>620</ele>
        <time>2024-12-08T00:12:47.620Z</time>
      </trkpt>
      <trkpt lat="45.88263" lon="3.60361">
        <ele>620</ele>
        <time>2024-12-08T00:12:48.620Z</time>
      </trkpt>
      <trkpt lat="45.88263" lon="3.60365">
        <ele>620</ele>
        <time>2024-12-08T00:12:49.620Z</time>
      </trkpt>
      <trkpt lat="45.88264" lon="3.60367">
        <ele>619</ele>
        <time>2024-12-08T00:12:50.619Z</time>
      </trkpt>
      <trkpt lat="45.88264" lon="3.6037">
        <ele>619</ele>
        <time>2024-12-08T00:12:51.620Z</time>
      </trkpt>
      <trkpt lat="45.88264" lon="3.60372">
        <ele>619</ele>
        <time>2024-12-08T00:12:52.620Z</time>
      </trkpt>
      <trkpt lat="45.88264" lon="3.60375">
        <ele>618</ele>
        <time>2024-12-08T00:12:53.619Z</time>
      </trkpt>
      <trkpt lat="45.88264" lon="3.60377">
        <ele>617</ele>
        <time>2024-12-08T00:12:54.619Z</time>
      </trkpt>
      <trkpt lat="45.88264" lon="3.6038">
        <ele>617</ele>
        <time>2024-12-08T00:12:55.620Z</time>
      </trkpt>
      <trkpt lat="45.88265" lon="3.60383">
        <ele>617</ele>
        <time>2024-12-08T00:12:56.619Z</time>
      </trkpt>
      <trkpt lat="45.88265" lon="3.60386">
        <ele>616</ele>
        <time>2024-12-08T00:12:57.619Z</time>
      </trkpt>
      <trkpt lat="45.88265" lon="3.60389">
        <ele>616</ele>
        <time>2024-12-08T00:12:58.620Z</time>
      </trkpt>
      <trkpt lat="45.88266" lon="3.60392">
        <ele>616</ele>
        <time>2024-12-08T00:12:59.619Z</time>
      </trkpt>
      <trkpt lat="45.88265" lon="3.60395">
        <ele>616</ele>
        <time>2024-12-08T00:13:00.619Z</time>
      </trkpt>
      <trkpt lat="45.88265" lon="3.60397">
        <ele>616</ele>
        <time>2024-12-08T00:13:01.619Z</time>
      </trkpt>
      <trkpt lat="45.88266" lon="3.604">
        <ele>616</ele>
        <time>2024-12-08T00:13:02.619Z</time>
      </trkpt>
      <trkpt lat="45.88266" lon="3.60402">
        <ele>617</ele>
        <time>2024-12-08T00:13:03.620Z</time>
      </trkpt>
      <trkpt lat="45.88266" lon="3.60405">
        <ele>617</ele>
        <time>2024-12-08T00:13:04.620Z</time>
      </trkpt>
      <trkpt lat="45.88266" lon="3.60408">
        <ele>617</ele>
        <time>2024-12-08T00:13:05.619Z</time>
      </trkpt>
      <trkpt lat="45.88267" lon="3.60411">
        <ele>617</ele>
        <time>2024-12-08T00:13:06.619Z</time>
      </trkpt>
      <trkpt lat="45.88267" lon="3.60413">
        <ele>617</ele>
        <time>2024-12-08T00:13:07.620Z</time>
      </trkpt>
      <trkpt lat="45.88267" lon="3.60416">
        <ele>617</ele>
        <time>2024-12-08T00:13:08.620Z</time>
      </trkpt>
      <trkpt lat="45.88267" lon="3.60419">
        <ele>617</ele>
        <time>2024-12-08T00:13:09.619Z</time>
      </trkpt>
      <trkpt lat="45.88268" lon="3.60421">
        <ele>617</ele>
        <time>2024-12-08T00:13:10.620Z</time>
      </trkpt>
      <trkpt lat="45.88268" lon="3.60424">
        <ele>617</ele>
        <time>2024-12-08T00:13:11.619Z</time>
      </trkpt>
      <trkpt lat="45.88268" lon="3.60427">
        <ele>617</ele>
        <time>2024-12-08T00:13:12.620Z</time>
      </trkpt>
      <trkpt lat="45.88268" lon="3.6043">
        <ele>617</ele>
        <time>2024-12-08T00:13:13.620Z</time>
      </trkpt>
      <trkpt lat="45.88268" lon="3.60433">
        <ele>617</ele>
        <time>2024-12-08T00:13:14.619Z</time>
      </trkpt>
      <trkpt lat="45.88269" lon="3.60436">
        <ele>616</ele>
        <time>2024-12-08T00:13:15.619Z</time>
      </trkpt>
      <trkpt lat="45.88269" lon="3.60438">
        <ele>616</ele>
        <time>2024-12-08T00:13:16.619Z</time>
      </trkpt>
      <trkpt lat="45.88269" lon="3.60441">
        <ele>615</ele>
        <time>2024-12-08T00:13:17.620Z</time>
      </trkpt>
      <trkpt lat="45.88269" lon="3.60444">
        <ele>615</ele>
        <time>2024-12-08T00:13:18.619Z</time>
      </trkpt>
      <trkpt lat="45.8827" lon="3.60446">
        <ele>615</ele>
        <time>2024-12-08T00:13:19.619Z</time>
      </trkpt>
      <trkpt lat="45.8827" lon="3.60449">
        <ele>616</ele>
        <time>2024-12-08T00:13:20.620Z</time>
      </trkpt>
      <trkpt lat="45.8827" lon="3.60451">
        <ele>615</ele>
        <time>2024-12-08T00:13:21.620Z</time>
      </trkpt>
      <trkpt lat="45.8827" lon="3.60454">
        <ele>616</ele>
        <time>2024-12-08T00:13:22.620Z</time>
      </trkpt>
      <trkpt lat="45.8827" lon="3.60457">
        <ele>616</ele>
        <time>2024-12-08T00:13:23.619Z</time>
      </trkpt>
      <trkpt lat="45.8827" lon="3.6046">
        <ele>615</ele>
        <time>2024-12-08T00:13:24.620Z</time>
      </trkpt>
      <trkpt lat="45.8827" lon="3.60462">
        <ele>615</ele>
        <time>2024-12-08T00:13:25.619Z</time>
      </trkpt>
      <trkpt lat="45.8827" lon="3.60465">
        <ele>615</ele>
        <time>2024-12-08T00:13:26.619Z</time>
      </trkpt>
      <trkpt lat="45.8827" lon="3.60467">
        <ele>614</ele>
        <time>2024-12-08T00:13:27.619Z</time>
      </trkpt>
      <trkpt lat="45.88271" lon="3.6047">
        <ele>614</ele>
        <time>2024-12-08T00:13:28.619Z</time>
      </trkpt>
      <trkpt lat="45.88271" lon="3.60472">
        <ele>614</ele>
        <time>2024-12-08T00:13:29.620Z</time>
      </trkpt>
      <trkpt lat="45.88271" lon="3.60475">
        <ele>614</ele>
        <time>2024-12-08T00:13:30.620Z</time>
      </trkpt>
      <trkpt lat="45.88271" lon="3.60477">
        <ele>614</ele>
        <time>2024-12-08T00:13:31.619Z</time>
      </trkpt>
      <trkpt lat="45.88271" lon="3.6048">
        <ele>614</ele>
        <time>2024-12-08T00:13:32.620Z</time>
      </trkpt>
      <trkpt lat="45.88271" lon="3.60483">
        <ele>614</ele>
        <time>2024-12-08T00:13:33.619Z</time>
      </trkpt>
      <trkpt lat="45.88271" lon="3.60486">
        <ele>615</ele>
        <time>2024-12-08T00:13:34.619Z</time>
      </trkpt>
      <trkpt lat="45.88271" lon="3.60489">
        <ele>615</ele>
        <time>2024-12-08T00:13:35.619Z</time>
      </trkpt>
      <trkpt lat="45.88271" lon="3.60491">
        <ele>615</ele>
        <time>2024-12-08T00:13:36.620Z</time>
      </trkpt>
      <trkpt lat="45.88271" lon="3.60494">
        <ele>615</ele>
        <time>2024-12-08T00:13:37.619Z</time>
      </trkpt>
      <trkpt lat="45.88271" lon="3.60496">
        <ele>615</ele>
        <time>2024-12-08T00:13:38.619Z</time>
      </trkpt>
      <trkpt lat="45.88271" lon="3.60499">
        <ele>614</ele>
        <time>2024-12-08T00:13:39.620Z</time>
      </trkpt>
      <trkpt lat="45.88271" lon="3.60502">
        <ele>614</ele>
        <time>2024-12-08T00:13:40.619Z</time>
      </trkpt>
      <trkpt lat="45.88271" lon="3.60505">
        <ele>614</ele>
        <time>2024-12-08T00:13:41.619Z</time>
      </trkpt>
      <trkpt lat="45.88271" lon="3.60508">
        <ele>614</ele>
        <time>2024-12-08T00:13:42.619Z</time>
      </trkpt>
      <trkpt lat="45.88271" lon="3.60511">
        <ele>613</ele>
        <time>2024-12-08T00:13:43.619Z</time>
      </trkpt>
      <trkpt lat="45.8827" lon="3.60514">
        <ele>613</ele>
        <time>2024-12-08T00:13:44.620Z</time>
      </trkpt>
      <trkpt lat="45.8827" lon="3.60516">
        <ele>613</ele>
        <time>2024-12-08T00:13:45.619Z</time>
      </trkpt>
      <trkpt lat="45.8827" lon="3.60519">
        <ele>613</ele>
        <time>2024-12-08T00:13:46.619Z</time>
      </trkpt>
      <trkpt lat="45.8827" lon="3.60522">
        <ele>613</ele>
        <time>2024-12-08T00:13:47.619Z</time>
      </trkpt>
      <trkpt lat="45.8827" lon="3.60525">
        <ele>614</ele>
        <time>2024-12-08T00:13:48.620Z</time>
      </trkpt>
      <trkpt lat="45.8827" lon="3.60528">
        <ele>613</ele>
        <time>2024-12-08T00:13:49.620Z</time>
      </trkpt>
      <trkpt lat="45.8827" lon="3.60531">
        <ele>613</ele>
        <time>2024-12-08T00:13:50.619Z</time>
      </trkpt>
      <trkpt lat="45.8827" lon="3.60534">
        <ele>613</ele>
        <time>2024-12-08T00:13:51.619Z</time>
      </trkpt>
      <trkpt lat="45.8827" lon="3.60536">
        <ele>613</ele>
        <time>2024-12-08T00:13:52.619Z</time>
      </trkpt>
      <trkpt lat="45.88269" lon="3.60539">
        <ele>614</ele>
        <time>2024-12-08T00:13:53.619Z</time>
      </trkpt>
      <trkpt lat="45.88269" lon="3.60542">
        <ele>614</ele>
        <time>2024-12-08T00:13:54.620Z</time>
      </trkpt>
      <trkpt lat="45.88269" lon="3.60545">
        <ele>614</ele>
        <time>2024-12-08T00:13:55.620Z</time>
      </trkpt>
      <trkpt lat="45.88269" lon="3.60548">
        <ele>614</ele>
        <time>2024-12-08T00:13:56.620Z</time>
      </trkpt>
      <trkpt lat="45.88269" lon="3.60551">
        <ele>613</ele>
        <time>2024-12-08T00:13:57.620Z</time>
      </trkpt>
      <trkpt lat="45.88269" lon="3.60554">
        <ele>613</ele>
        <time>2024-12-08T00:13:58.619Z</time>
      </trkpt>
      <trkpt lat="45.88269" lon="3.60556">
        <ele>613</ele>
        <time>2024-12-08T00:13:59.619Z</time>
      </trkpt>
      <trkpt lat="45.88268" lon="3.60559">
        <ele>613</ele>
        <time>2024-12-08T00:14:00.619Z</time>
      </trkpt>
      <trkpt lat="45.88268" lon="3.60562">
        <ele>612</ele>
        <time>2024-12-08T00:14:01.619Z</time>
      </trkpt>
      <trkpt lat="45.88268" lon="3.60565">
        <ele>612</ele>
        <time>2024-12-08T00:14:02.619Z</time>
      </trkpt>
      <trkpt lat="45.88267" lon="3.60567">
        <ele>612</ele>
        <time>2024-12-08T00:14:03.619Z</time>
      </trkpt>
      <trkpt lat="45.88267" lon="3.6057">
        <ele>611</ele>
        <time>2024-12-08T00:14:04.619Z</time>
      </trkpt>
      <trkpt lat="45.88266" lon="3.60573">
        <ele>611</ele>
        <time>2024-12-08T00:14:05.619Z</time>
      </trkpt>
      <trkpt lat="45.88266" lon="3.60575">
        <ele>611</ele>
        <time>2024-12-08T00:14:06.619Z</time>
      </trkpt>
      <trkpt lat="45.88265" lon="3.60577">
        <ele>610</ele>
        <time>2024-12-08T00:14:07.619Z</time>
      </trkpt>
      <trkpt lat="45.88265" lon="3.6058">
        <ele>610</ele>
        <time>2024-12-08T00:14:08.620Z</time>
      </trkpt>
      <trkpt lat="45.88264" lon="3.60583">
        <ele>610</ele>
        <time>2024-12-08T00:14:09.620Z</time>
      </trkpt>
      <trkpt lat="45.88263" lon="3.60586">
        <ele>609</ele>
        <time>2024-12-08T00:14:10.619Z</time>
      </trkpt>
      <trkpt lat="45.88262" lon="3.60588">
        <ele>609</ele>
        <time>2024-12-08T00:14:11.620Z</time>
      </trkpt>
      <trkpt lat="45.88262" lon="3.60591">
        <ele>609</ele>
        <time>2024-12-08T00:14:12.620Z</time>
      </trkpt>
      <trkpt lat="45.88261" lon="3.60593">
        <ele>609</ele>
        <time>2024-12-08T00:14:13.620Z</time>
      </trkpt>
      <trkpt lat="45.8826" lon="3.60596">
        <ele>609</ele>
        <time>2024-12-08T00:14:14.619Z</time>
      </trkpt>
      <trkpt lat="45.8826" lon="3.60598">
        <ele>609</ele>
        <time>2024-12-08T00:14:15.620Z</time>
      </trkpt>
      <trkpt lat="45.88259" lon="3.60601">
        <ele>609</ele>
        <time>2024-12-08T00:14:16.619Z</time>
      </trkpt>
      <trkpt lat="45.88258" lon="3.60603">
        <ele>609</ele>
        <time>2024-12-08T00:14:17.620Z</time>
      </trkpt>
      <trkpt lat="45.88257" lon="3.60605">
        <ele>609</ele>
        <time>2024-12-08T00:14:18.619Z</time>
      </trkpt>
      <trkpt lat="45.88256" lon="3.60608">
        <ele>609</ele>
        <time>2024-12-08T00:14:19.620Z</time>
      </trkpt>
      <trkpt lat="45.88255" lon="3.6061">
        <ele>609</ele>
        <time>2024-12-08T00:14:20.619Z</time>
      </trkpt>
      <trkpt lat="45.88254" lon="3.60613">
        <ele>609</ele>
        <time>2024-12-08T00:14:21.619Z</time>
      </trkpt>
      <trkpt lat="45.88253" lon="3.60615">
        <ele>609</ele>
        <time>2024-12-08T00:14:22.619Z</time>
      </trkpt>
      <trkpt lat="45.88252" lon="3.60617">
        <ele>609</ele>
        <time>2024-12-08T00:14:23.619Z</time>
      </trkpt>
      <trkpt lat="45.88251" lon="3.6062">
        <ele>609</ele>
        <time>2024-12-08T00:14:24.620Z</time>
      </trkpt>
      <trkpt lat="45.8825" lon="3.60622">
        <ele>609</ele>
        <time>2024-12-08T00:14:25.619Z</time>
      </trkpt>
      <trkpt lat="45.88249" lon="3.60624">
        <ele>609</ele>
        <time>2024-12-08T00:14:26.619Z</time>
      </trkpt>
      <trkpt lat="45.88248" lon="3.60627">
        <ele>609</ele>
        <time>2024-12-08T00:14:27.620Z</time>
      </trkpt>
      <trkpt lat="45.88247" lon="3.60629">
        <ele>609</ele>
        <time>2024-12-08T00:14:28.619Z</time>
      </trkpt>
      <trkpt lat="45.88246" lon="3.60631">
        <ele>609</ele>
        <time>2024-12-08T00:14:29.620Z</time>
      </trkpt>
      <trkpt lat="45.88244" lon="3.60633">
        <ele>608</ele>
        <time>2024-12-08T00:14:30.619Z</time>
      </trkpt>
      <trkpt lat="45.88243" lon="3.60635">
        <ele>608</ele>
        <time>2024-12-08T00:14:31.619Z</time>
      </trkpt>
      <trkpt lat="45.88242" lon="3.60638">
        <ele>608</ele>
        <time>2024-12-08T00:14:32.620Z</time>
      </trkpt>
      <trkpt lat="45.88241" lon="3.6064">
        <ele>608</ele>
        <time>2024-12-08T00:14:33.619Z</time>
      </trkpt>
      <trkpt lat="45.88239" lon="3.60642">
        <ele>607</ele>
        <time>2024-12-08T00:14:34.620Z</time>
      </trkpt>
      <trkpt lat="45.88238" lon="3.60643">
        <ele>607</ele>
        <time>2024-12-08T00:14:35.620Z</time>
      </trkpt>
      <trkpt lat="45.88237" lon="3.60645">
        <ele>607</ele>
        <time>2024-12-08T00:14:36.619Z</time>
      </trkpt>
      <trkpt lat="45.88235" lon="3.60647">
        <ele>607</ele>
        <time>2024-12-08T00:14:37.620Z</time>
      </trkpt>
      <trkpt lat="45.88234" lon="3.60649">
        <ele>607</ele>
        <time>2024-12-08T00:14:38.619Z</time>
      </trkpt>
      <trkpt lat="45.88233" lon="3.60651">
        <ele>607</ele>
        <time>2024-12-08T00:14:39.619Z</time>
      </trkpt>
      <trkpt lat="45.88231" lon="3.60653">
        <ele>606</ele>
        <time>2024-12-08T00:14:40.620Z</time>
      </trkpt>
      <trkpt lat="45.8823" lon="3.60655">
        <ele>606</ele>
        <time>2024-12-08T00:14:41.620Z</time>
      </trkpt>
      <trkpt lat="45.88228" lon="3.60657">
        <ele>606</ele>
        <time>2024-12-08T00:14:42.619Z</time>
      </trkpt>
      <trkpt lat="45.88227" lon="3.60659">
        <ele>605</ele>
        <time>2024-12-08T00:14:43.619Z</time>
      </trkpt>
      <trkpt lat="45.88226" lon="3.60661">
        <ele>605</ele>
        <time>2024-12-08T00:14:44.620Z</time>
      </trkpt>
      <trkpt lat="45.88224" lon="3.60663">
        <ele>604</ele>
        <time>2024-12-08T00:14:45.620Z</time>
      </trkpt>
      <trkpt lat="45.88223" lon="3.60665">
        <ele>604</ele>
        <time>2024-12-08T00:14:46.620Z</time>
      </trkpt>
      <trkpt lat="45.88222" lon="3.60667">
        <ele>604</ele>
        <time>2024-12-08T00:14:47.619Z</time>
      </trkpt>
      <trkpt lat="45.8822" lon="3.60669">
        <ele>604</ele>
        <time>2024-12-08T00:14:48.619Z</time>
      </trkpt>
      <trkpt lat="45.88219" lon="3.60672">
        <ele>604</ele>
        <time>2024-12-08T00:14:49.620Z</time>
      </trkpt>
      <trkpt lat="45.88217" lon="3.60673">
        <ele>604</ele>
        <time>2024-12-08T00:14:50.620Z</time>
      </trkpt>
      <trkpt lat="45.88216" lon="3.60675">
        <ele>603</ele>
        <time>2024-12-08T00:14:51.619Z</time>
      </trkpt>
      <trkpt lat="45.88214" lon="3.60677">
        <ele>603</ele>
        <time>2024-12-08T00:14:52.620Z</time>
      </trkpt>
      <trkpt lat="45.88213" lon="3.60679">
        <ele>603</ele>
        <time>2024-12-08T00:14:53.620Z</time>
      </trkpt>
      <trkpt lat="45.88212" lon="3.60682">
        <ele>603</ele>
        <time>2024-12-08T00:14:54.620Z</time>
      </trkpt>
      <trkpt lat="45.8821" lon="3.60684">
        <ele>603</ele>
        <time>2024-12-08T00:14:55.619Z</time>
      </trkpt>
      <trkpt lat="45.88208" lon="3.60686">
        <ele>603</ele>
        <time>2024-12-08T00:14:56.620Z</time>
      </trkpt>
      <trkpt lat="45.88207" lon="3.60688">
        <ele>602</ele>
        <time>2024-12-08T00:14:57.619Z</time>
      </trkpt>
      <trkpt lat="45.88206" lon="3.6069">
        <ele>602</ele>
        <time>2024-12-08T00:14:58.620Z</time>
      </trkpt>
      <trkpt lat="45.88204" lon="3.60692">
        <ele>601</ele>
        <time>2024-12-08T00:14:59.619Z</time>
      </trkpt>
      <trkpt lat="45.88203" lon="3.60693">
        <ele>601</ele>
        <time>2024-12-08T00:15:00.619Z</time>
      </trkpt>
      <trkpt lat="45.88202" lon="3.60695">
        <ele>601</ele>
        <time>2024-12-08T00:15:01.619Z</time>
      </trkpt>
      <trkpt lat="45.882" lon="3.60697">
        <ele>600</ele>
        <time>2024-12-08T00:15:02.620Z</time>
      </trkpt>
      <trkpt lat="45.88198" lon="3.607">
        <ele>601</ele>
        <time>2024-12-08T00:15:03.619Z</time>
      </trkpt>
      <trkpt lat="45.88197" lon="3.60702">
        <ele>601</ele>
        <time>2024-12-08T00:15:04.619Z</time>
      </trkpt>
      <trkpt lat="45.88196" lon="3.60704">
        <ele>601</ele>
        <time>2024-12-08T00:15:05.619Z</time>
      </trkpt>
      <trkpt lat="45.88195" lon="3.60706">
        <ele>600</ele>
        <time>2024-12-08T00:15:06.619Z</time>
      </trkpt>
      <trkpt lat="45.88194" lon="3.60708">
        <ele>600</ele>
        <time>2024-12-08T00:15:07.619Z</time>
      </trkpt>
      <trkpt lat="45.88192" lon="3.6071">
        <ele>599</ele>
        <time>2024-12-08T00:15:08.619Z</time>
      </trkpt>
      <trkpt lat="45.88191" lon="3.60712">
        <ele>599</ele>
        <time>2024-12-08T00:15:09.619Z</time>
      </trkpt>
      <trkpt lat="45.8819" lon="3.60714">
        <ele>599</ele>
        <time>2024-12-08T00:15:10.619Z</time>
      </trkpt>
      <trkpt lat="45.88189" lon="3.60717">
        <ele>598</ele>
        <time>2024-12-08T00:15:11.620Z</time>
      </trkpt>
      <trkpt lat="45.88188" lon="3.60719">
        <ele>598</ele>
        <time>2024-12-08T00:15:12.620Z</time>
      </trkpt>
      <trkpt lat="45.88186" lon="3.60721">
        <ele>598</ele>
        <time>2024-12-08T00:15:13.619Z</time>
      </trkpt>
      <trkpt lat="45.88185" lon="3.60724">
        <ele>598</ele>
        <time>2024-12-08T00:15:14.619Z</time>
      </trkpt>
      <trkpt lat="45.88184" lon="3.60726">
        <ele>597</ele>
        <time>2024-12-08T00:15:15.619Z</time>
      </trkpt>
      <trkpt lat="45.88183" lon="3.60728">
        <ele>597</ele>
        <time>2024-12-08T00:15:16.619Z</time>
      </trkpt>
      <trkpt lat="45.88182" lon="3.60731">
        <ele>597</ele>
        <time>2024-12-08T00:15:17.619Z</time>
      </trkpt>
      <trkpt lat="45.88181" lon="3.60734">
        <ele>596</ele>
        <time>2024-12-08T00:15:18.619Z</time>
      </trkpt>
      <trkpt lat="45.8818" lon="3.60736">
        <ele>596</ele>
        <time>2024-12-08T00:15:19.619Z</time>
      </trkpt>
      <trkpt lat="45.88179" lon="3.60739">
        <ele>596</ele>
        <time>2024-12-08T00:15:20.619Z</time>
      </trkpt>
      <trkpt lat="45.88178" lon="3.60742">
        <ele>596</ele>
        <time>2024-12-08T00:15:21.620Z</time>
      </trkpt>
      <trkpt lat="45.88177" lon="3.60744">
        <ele>596</ele>
        <time>2024-12-08T00:15:22.620Z</time>
      </trkpt>
      <trkpt lat="45.88177" lon="3.60747">
        <ele>595</ele>
        <time>2024-12-08T00:15:23.620Z</time>
      </trkpt>
      <trkpt lat="45.88176" lon="3.6075">
        <ele>595</ele>
        <time>2024-12-08T00:15:24.620Z</time>
      </trkpt>
      <trkpt lat="45.88175" lon="3.60753">
        <ele>595</ele>
        <time>2024-12-08T00:15:25.619Z</time>
      </trkpt>
      <trkpt lat="45.88174" lon="3.60755">
        <ele>595</ele>
        <time>2024-12-08T00:15:26.619Z</time>
      </trkpt>
      <trkpt lat="45.88174" lon="3.60758">
        <ele>596</ele>
        <time>2024-12-08T00:15:27.620Z</time>
      </trkpt>
      <trkpt lat="45.88173" lon="3.60761">
        <ele>596</ele>
        <time>2024-12-08T00:15:28.619Z</time>
      </trkpt>
      <trkpt lat="45.88173" lon="3.60764">
        <ele>596</ele>
        <time>2024-12-08T00:15:29.620Z</time>
      </trkpt>
      <trkpt lat="45.88172" lon="3.60767">
        <ele>596</ele>
        <time>2024-12-08T00:15:30.620Z</time>
      </trkpt>
      <trkpt lat="45.88171" lon="3.60769">
        <ele>596</ele>
        <time>2024-12-08T00:15:31.619Z</time>
      </trkpt>
      <trkpt lat="45.8817" lon="3.60772">
        <ele>596</ele>
        <time>2024-12-08T00:15:32.619Z</time>
      </trkpt>
      <trkpt lat="45.88169" lon="3.60774">
        <ele>596</ele>
        <time>2024-12-08T00:15:33.620Z</time>
      </trkpt>
      <trkpt lat="45.88169" lon="3.60777">
        <ele>596</ele>
        <time>2024-12-08T00:15:34.619Z</time>
      </trkpt>
      <trkpt lat="45.88168" lon="3.6078">
        <ele>596</ele>
        <time>2024-12-08T00:15:35.620Z</time>
      </trkpt>
      <trkpt lat="45.88167" lon="3.60782">
        <ele>595</ele>
        <time>2024-12-08T00:15:36.619Z</time>
      </trkpt>
      <trkpt lat="45.88167" lon="3.60785">
        <ele>595</ele>
        <time>2024-12-08T00:15:37.619Z</time>
      </trkpt>
      <trkpt lat="45.88166" lon="3.60788">
        <ele>594</ele>
        <time>2024-12-08T00:15:38.620Z</time>
      </trkpt>
      <trkpt lat="45.88165" lon="3.6079">
        <ele>594</ele>
        <time>2024-12-08T00:15:39.619Z</time>
      </trkpt>
      <trkpt lat="45.88164" lon="3.60793">
        <ele>594</ele>
        <time>2024-12-08T00:15:40.619Z</time>
      </trkpt>
      <trkpt lat="45.88164" lon="3.60795">
        <ele>593</ele>
        <time>2024-12-08T00:15:41.619Z</time>
      </trkpt>
      <trkpt lat="45.88163" lon="3.60798">
        <ele>593</ele>
        <time>2024-12-08T00:15:42.620Z</time>
      </trkpt>
      <trkpt lat="45.88163" lon="3.608">
        <ele>594</ele>
        <time>2024-12-08T00:15:43.620Z</time>
      </trkpt>
      <trkpt lat="45.88162" lon="3.60803">
        <ele>593</ele>
        <time>2024-12-08T00:15:44.619Z</time>
      </trkpt>
      <trkpt lat="45.88161" lon="3.60805">
        <ele>593</ele>
        <time>2024-12-08T00:15:45.619Z</time>
      </trkpt>
      <trkpt lat="45.88161" lon="3.60808">
        <ele>593</ele>
        <time>2024-12-08T00:15:46.620Z</time>
      </trkpt>
      <trkpt lat="45.8816" lon="3.6081">
        <ele>593</ele>
        <time>2024-12-08T00:15:47.619Z</time>
      </trkpt>
      <trkpt lat="45.88159" lon="3.60813">
        <ele>593</ele>
        <time>2024-12-08T00:15:48.620Z</time>
      </trkpt>
      <trkpt lat="45.88159" lon="3.60815">
        <ele>593</ele>
        <time>2024-12-08T00:15:49.619Z</time>
      </trkpt>
      <trkpt lat="45.88158" lon="3.60818">
        <ele>593</ele>
        <time>2024-12-08T00:15:50.620Z</time>
      </trkpt>
      <trkpt lat="45.88158" lon="3.60821">
        <ele>593</ele>
        <time>2024-12-08T00:15:51.619Z</time>
      </trkpt>
      <trkpt lat="45.88157" lon="3.60823">
        <ele>592</ele>
        <time>2024-12-08T00:15:52.619Z</time>
      </trkpt>
      <trkpt lat="45.88156" lon="3.60826">
        <ele>592</ele>
        <time>2024-12-08T00:15:53.620Z</time>
      </trkpt>
      <trkpt lat="45.88156" lon="3.60828">
        <ele>592</ele>
        <time>2024-12-08T00:15:54.619Z</time>
      </trkpt>
      <trkpt lat="45.88155" lon="3.60831">
        <ele>592</ele>
        <time>2024-12-08T00:15:55.619Z</time>
      </trkpt>
      <trkpt lat="45.88154" lon="3.60833">
        <ele>592</ele>
        <time>2024-12-08T00:15:56.619Z</time>
      </trkpt>
      <trkpt lat="45.88154" lon="3.60836">
        <ele>592</ele>
        <time>2024-12-08T00:15:57.620Z</time>
      </trkpt>
      <trkpt lat="45.88153" lon="3.60838">
        <ele>591</ele>
        <time>2024-12-08T00:15:58.619Z</time>
      </trkpt>
      <trkpt lat="45.88152" lon="3.60841">
        <ele>591</ele>
        <time>2024-12-08T00:15:59.619Z</time>
      </trkpt>
      <trkpt lat="45.88152" lon="3.60843">
        <ele>591</ele>
        <time>2024-12-08T00:16:00.619Z</time>
      </trkpt>
      <trkpt lat="45.88151" lon="3.60846">
        <ele>591</ele>
        <time>2024-12-08T00:16:01.619Z</time>
      </trkpt>
      <trkpt lat="45.8815" lon="3.60848">
        <ele>591</ele>
        <time>2024-12-08T00:16:02.619Z</time>
      </trkpt>
      <trkpt lat="45.8815" lon="3.60851">
        <ele>590</ele>
        <time>2024-12-08T00:16:03.620Z</time>
      </trkpt>
      <trkpt lat="45.88149" lon="3.60854">
        <ele>590</ele>
        <time>2024-12-08T00:16:04.620Z</time>
      </trkpt>
      <trkpt lat="45.88149" lon="3.60857">
        <ele>590</ele>
        <time>2024-12-08T00:16:05.620Z</time>
      </trkpt>
      <trkpt lat="45.88148" lon="3.60859">
        <ele>590</ele>
        <time>2024-12-08T00:16:06.619Z</time>
      </trkpt>
      <trkpt lat="45.88148" lon="3.60862">
        <ele>590</ele>
        <time>2024-12-08T00:16:07.619Z</time>
      </trkpt>
      <trkpt lat="45.88147" lon="3.60865">
        <ele>591</ele>
        <time>2024-12-08T00:16:08.620Z</time>
      </trkpt>
      <trkpt lat="45.88146" lon="3.60868">
        <ele>591</ele>
        <time>2024-12-08T00:16:09.619Z</time>
      </trkpt>
      <trkpt lat="45.88146" lon="3.6087">
        <ele>591</ele>
        <time>2024-12-08T00:16:10.620Z</time>
      </trkpt>
      <trkpt lat="45.88145" lon="3.60873">
        <ele>591</ele>
        <time>2024-12-08T00:16:11.620Z</time>
      </trkpt>
      <trkpt lat="45.88145" lon="3.60876">
        <ele>591</ele>
        <time>2024-12-08T00:16:12.620Z</time>
      </trkpt>
      <trkpt lat="45.88144" lon="3.60878">
        <ele>592</ele>
        <time>2024-12-08T00:16:13.619Z</time>
      </trkpt>
      <trkpt lat="45.88143" lon="3.60881">
        <ele>592</ele>
        <time>2024-12-08T00:16:14.620Z</time>
      </trkpt>
      <trkpt lat="45.88143" lon="3.60884">
        <ele>591</ele>
        <time>2024-12-08T00:16:15.620Z</time>
      </trkpt>
      <trkpt lat="45.88142" lon="3.60887">
        <ele>591</ele>
        <time>2024-12-08T00:16:16.620Z</time>
      </trkpt>
      <trkpt lat="45.88142" lon="3.60889">
        <ele>591</ele>
        <time>2024-12-08T00:16:17.620Z</time>
      </trkpt>
      <trkpt lat="45.88142" lon="3.60892">
        <ele>591</ele>
        <time>2024-12-08T00:16:18.620Z</time>
      </trkpt>
      <trkpt lat="45.88141" lon="3.60895">
        <ele>592</ele>
        <time>2024-12-08T00:16:19.620Z</time>
      </trkpt>
      <trkpt lat="45.88141" lon="3.60897">
        <ele>592</ele>
        <time>2024-12-08T00:16:20.620Z</time>
      </trkpt>
      <trkpt lat="45.88141" lon="3.609">
        <ele>592</ele>
        <time>2024-12-08T00:16:21.619Z</time>
      </trkpt>
      <trkpt lat="45.8814" lon="3.60903">
        <ele>592</ele>
        <time>2024-12-08T00:16:22.619Z</time>
      </trkpt>
      <trkpt lat="45.8814" lon="3.60906">
        <ele>592</ele>
        <time>2024-12-08T00:16:23.620Z</time>
      </trkpt>
      <trkpt lat="45.88139" lon="3.60908">
        <ele>592</ele>
        <time>2024-12-08T00:16:24.619Z</time>
      </trkpt>
      <trkpt lat="45.88139" lon="3.60911">
        <ele>592</ele>
        <time>2024-12-08T00:16:25.620Z</time>
      </trkpt>
      <trkpt lat="45.88139" lon="3.60914">
        <ele>592</ele>
        <time>2024-12-08T00:16:26.619Z</time>
      </trkpt>
      <trkpt lat="45.88139" lon="3.60916">
        <ele>592</ele>
        <time>2024-12-08T00:16:27.620Z</time>
      </trkpt>
      <trkpt lat="45.88139" lon="3.60919">
        <ele>592</ele>
        <time>2024-12-08T00:16:28.619Z</time>
      </trkpt>
      <trkpt lat="45.88139" lon="3.60922">
        <ele>591</ele>
        <time>2024-12-08T00:16:29.620Z</time>
      </trkpt>
      <trkpt lat="45.88139" lon="3.60925">
        <ele>591</ele>
        <time>2024-12-08T00:16:30.620Z</time>
      </trkpt>
      <trkpt lat="45.88139" lon="3.60928">
        <ele>591</ele>
        <time>2024-12-08T00:16:31.620Z</time>
      </trkpt>
      <trkpt lat="45.88139" lon="3.60931">
        <ele>591</ele>
        <time>2024-12-08T00:16:32.620Z</time>
      </trkpt>
      <trkpt lat="45.88139" lon="3.60933">
        <ele>591</ele>
        <time>2024-12-08T00:16:33.620Z</time>
      </trkpt>
      <trkpt lat="45.88139" lon="3.60936">
        <ele>591</ele>
        <time>2024-12-08T00:16:34.619Z</time>
      </trkpt>
      <trkpt lat="45.88139" lon="3.60939">
        <ele>590</ele>
        <time>2024-12-08T00:16:35.619Z</time>
      </trkpt>
      <trkpt lat="45.88139" lon="3.60942">
        <ele>590</ele>
        <time>2024-12-08T00:16:36.619Z</time>
      </trkpt>
      <trkpt lat="45.88139" lon="3.60944">
        <ele>590</ele>
        <time>2024-12-08T00:16:37.620Z</time>
      </trkpt>
      <trkpt lat="45.88138" lon="3.60947">
        <ele>590</ele>
        <time>2024-12-08T00:16:38.619Z</time>
      </trkpt>
      <trkpt lat="45.88138" lon="3.6095">
        <ele>590</ele>
        <time>2024-12-08T00:16:39.619Z</time>
      </trkpt>
      <trkpt lat="45.88138" lon="3.60953">
        <ele>590</ele>
        <time>2024-12-08T00:16:40.620Z</time>
      </trkpt>
      <trkpt lat="45.88138" lon="3.60955">
        <ele>590</ele>
        <time>2024-12-08T00:16:41.619Z</time>
      </trkpt>
      <trkpt lat="45.88138" lon="3.60958">
        <ele>590</ele>
        <time>2024-12-08T00:16:42.620Z</time>
      </trkpt>
      <trkpt lat="45.88138" lon="3.60961">
        <ele>590</ele>
        <time>2024-12-08T00:16:43.620Z</time>
      </trkpt>
      <trkpt lat="45.88137" lon="3.60964">
        <ele>590</ele>
        <time>2024-12-08T00:16:44.620Z</time>
      </trkpt>
      <trkpt lat="45.88137" lon="3.60967">
        <ele>590</ele>
        <time>2024-12-08T00:16:45.619Z</time>
      </trkpt>
      <trkpt lat="45.88137" lon="3.6097">
        <ele>591</ele>
        <time>2024-12-08T00:16:46.619Z</time>
      </trkpt>
      <trkpt lat="45.88137" lon="3.60973">
        <ele>591</ele>
        <time>2024-12-08T00:16:47.620Z</time>
      </trkpt>
      <trkpt lat="45.88136" lon="3.60975">
        <ele>592</ele>
        <time>2024-12-08T00:16:48.619Z</time>
      </trkpt>
      <trkpt lat="45.88136" lon="3.60978">
        <ele>592</ele>
        <time>2024-12-08T00:16:49.620Z</time>
      </trkpt>
      <trkpt lat="45.88136" lon="3.6098">
        <ele>592</ele>
        <time>2024-12-08T00:16:50.619Z</time>
      </trkpt>
      <trkpt lat="45.88135" lon="3.60983">
        <ele>592</ele>
        <time>2024-12-08T00:16:51.619Z</time>
      </trkpt>
      <trkpt lat="45.88134" lon="3.60986">
        <ele>591</ele>
        <time>2024-12-08T00:16:52.620Z</time>
      </trkpt>
      <trkpt lat="45.88134" lon="3.60989">
        <ele>591</ele>
        <time>2024-12-08T00:16:53.619Z</time>
      </trkpt>
      <trkpt lat="45.88133" lon="3.60992">
        <ele>590</ele>
        <time>2024-12-08T00:16:54.620Z</time>
      </trkpt>
      <trkpt lat="45.88133" lon="3.60995">
        <ele>590</ele>
        <time>2024-12-08T00:16:55.619Z</time>
      </trkpt>
      <trkpt lat="45.88133" lon="3.60997">
        <ele>590</ele>
        <time>2024-12-08T00:16:56.619Z</time>
      </trkpt>
      <trkpt lat="45.88133" lon="3.61">
        <ele>589</ele>
        <time>2024-12-08T00:16:57.620Z</time>
      </trkpt>
      <trkpt lat="45.88133" lon="3.61003">
        <ele>589</ele>
        <time>2024-12-08T00:16:58.620Z</time>
      </trkpt>
      <trkpt lat="45.88133" lon="3.61005">
        <ele>589</ele>
        <time>2024-12-08T00:16:59.619Z</time>
      </trkpt>
      <trkpt lat="45.88132" lon="3.61008">
        <ele>589</ele>
        <time>2024-12-08T00:17:00.619Z</time>
      </trkpt>
      <trkpt lat="45.88132" lon="3.61011">
        <ele>589</ele>
        <time>2024-12-08T00:17:01.620Z</time>
      </trkpt>
      <trkpt lat="45.88131" lon="3.61014">
        <ele>589</ele>
        <time>2024-12-08T00:17:02.620Z</time>
      </trkpt>
      <trkpt lat="45.88131" lon="3.61017">
        <ele>589</ele>
        <time>2024-12-08T00:17:03.620Z</time>
      </trkpt>
      <trkpt lat="45.8813" lon="3.61019">
        <ele>588</ele>
        <time>2024-12-08T00:17:04.619Z</time>
      </trkpt>
      <trkpt lat="45.8813" lon="3.61022">
        <ele>588</ele>
        <time>2024-12-08T00:17:05.619Z</time>
      </trkpt>
      <trkpt lat="45.8813" lon="3.61024">
        <ele>588</ele>
        <time>2024-12-08T00:17:06.619Z</time>
      </trkpt>
      <trkpt lat="45.8813" lon="3.61027">
        <ele>587</ele>
        <time>2024-12-08T00:17:07.619Z</time>
      </trkpt>
      <trkpt lat="45.8813" lon="3.6103">
        <ele>587</ele>
        <time>2024-12-08T00:17:08.620Z</time>
      </trkpt>
      <trkpt lat="45.88129" lon="3.61033">
        <ele>587</ele>
        <time>2024-12-08T00:17:09.620Z</time>
      </trkpt>
      <trkpt lat="45.88129" lon="3.61036">
        <ele>588</ele>
        <time>2024-12-08T00:17:10.619Z</time>
      </trkpt>
      <trkpt lat="45.88129" lon="3.61039">
        <ele>588</ele>
        <time>2024-12-08T00:17:11.620Z</time>
      </trkpt>
      <trkpt lat="45.88129" lon="3.61042">
        <ele>588</ele>
        <time>2024-12-08T00:17:12.620Z</time>
      </trkpt>
      <trkpt lat="45.88129" lon="3.61044">
        <ele>588</ele>
        <time>2024-12-08T00:17:13.619Z</time>
      </trkpt>
      <trkpt lat="45.88128" lon="3.61047">
        <ele>588</ele>
        <time>2024-12-08T00:17:14.619Z</time>
      </trkpt>
      <trkpt lat="45.88128" lon="3.61049">
        <ele>588</ele>
        <time>2024-12-08T00:17:15.619Z</time>
      </trkpt>
      <trkpt lat="45.88128" lon="3.61051">
        <ele>588</ele>
        <time>2024-12-08T00:17:16.619Z</time>
      </trkpt>
      <trkpt lat="45.88127" lon="3.61054">
        <ele>588</ele>
        <time>2024-12-08T00:17:17.620Z</time>
      </trkpt>
      <trkpt lat="45.88127" lon="3.61057">
        <ele>588</ele>
        <time>2024-12-08T00:17:18.619Z</time>
      </trkpt>
      <trkpt lat="45.88126" lon="3.61059">
        <ele>587</ele>
        <time>2024-12-08T00:17:19.619Z</time>
      </trkpt>
      <trkpt lat="45.88126" lon="3.61062">
        <ele>587</ele>
        <time>2024-12-08T00:17:20.619Z</time>
      </trkpt>
      <trkpt lat="45.88126" lon="3.61065">
        <ele>586</ele>
        <time>2024-12-08T00:17:21.620Z</time>
      </trkpt>
      <trkpt lat="45.88126" lon="3.61067">
        <ele>586</ele>
        <time>2024-12-08T00:17:22.619Z</time>
      </trkpt>
      <trkpt lat="45.88126" lon="3.61069">
        <ele>586</ele>
        <time>2024-12-08T00:17:23.620Z</time>
      </trkpt>
      <trkpt lat="45.88125" lon="3.61072">
        <ele>586</ele>
        <time>2024-12-08T00:17:24.619Z</time>
      </trkpt>
      <trkpt lat="45.88125" lon="3.61075">
        <ele>586</ele>
        <time>2024-12-08T00:17:25.620Z</time>
      </trkpt>
      <trkpt lat="45.88125" lon="3.61078">
        <ele>586</ele>
        <time>2024-12-08T00:17:26.619Z</time>
      </trkpt>
      <trkpt lat="45.88124" lon="3.6108">
        <ele>586</ele>
        <time>2024-12-08T00:17:27.619Z</time>
      </trkpt>
      <trkpt lat="45.88123" lon="3.61083">
        <ele>586</ele>
        <time>2024-12-08T00:17:28.619Z</time>
      </trkpt>
      <trkpt lat="45.88123" lon="3.61086">
        <ele>586</ele>
        <time>2024-12-08T00:17:29.619Z</time>
      </trkpt>
      <trkpt lat="45.88122" lon="3.61089">
        <ele>586</ele>
        <time>2024-12-08T00:17:30.620Z</time>
      </trkpt>
      <trkpt lat="45.88122" lon="3.61092">
        <ele>586</ele>
        <time>2024-12-08T00:17:31.620Z</time>
      </trkpt>
      <trkpt lat="45.88121" lon="3.61094">
        <ele>586</ele>
        <time>2024-12-08T00:17:32.619Z</time>
      </trkpt>
      <trkpt lat="45.88121" lon="3.61097">
        <ele>586</ele>
        <time>2024-12-08T00:17:33.620Z</time>
      </trkpt>
      <trkpt lat="45.88121" lon="3.61099">
        <ele>586</ele>
        <time>2024-12-08T00:17:34.619Z</time>
      </trkpt>
      <trkpt lat="45.8812" lon="3.61102">
        <ele>585</ele>
        <time>2024-12-08T00:17:35.620Z</time>
      </trkpt>
      <trkpt lat="45.88119" lon="3.61105">
        <ele>585</ele>
        <time>2024-12-08T00:17:36.620Z</time>
      </trkpt>
      <trkpt lat="45.88119" lon="3.61108">
        <ele>585</ele>
        <time>2024-12-08T00:17:37.620Z</time>
      </trkpt>
      <trkpt lat="45.88118" lon="3.6111">
        <ele>585</ele>
        <time>2024-12-08T00:17:38.619Z</time>
      </trkpt>
      <trkpt lat="45.88118" lon="3.61113">
        <ele>585</ele>
        <time>2024-12-08T00:17:39.620Z</time>
      </trkpt>
      <trkpt lat="45.88117" lon="3.61115">
        <ele>585</ele>
        <time>2024-12-08T00:17:40.620Z</time>
      </trkpt>
      <trkpt lat="45.88117" lon="3.61118">
        <ele>585</ele>
        <time>2024-12-08T00:17:41.619Z</time>
      </trkpt>
      <trkpt lat="45.88116" lon="3.61121">
        <ele>585</ele>
        <time>2024-12-08T00:17:42.620Z</time>
      </trkpt>
      <trkpt lat="45.88116" lon="3.61123">
        <ele>584</ele>
        <time>2024-12-08T00:17:43.620Z</time>
      </trkpt>
      <trkpt lat="45.88115" lon="3.61126">
        <ele>584</ele>
        <time>2024-12-08T00:17:44.619Z</time>
      </trkpt>
      <trkpt lat="45.88114" lon="3.61129">
        <ele>584</ele>
        <time>2024-12-08T00:17:45.620Z</time>
      </trkpt>
      <trkpt lat="45.88114" lon="3.61131">
        <ele>585</ele>
        <time>2024-12-08T00:17:46.619Z</time>
      </trkpt>
      <trkpt lat="45.88113" lon="3.61134">
        <ele>585</ele>
        <time>2024-12-08T00:17:47.620Z</time>
      </trkpt>
      <trkpt lat="45.88112" lon="3.61136">
        <ele>585</ele>
        <time>2024-12-08T00:17:48.620Z</time>
      </trkpt>
      <trkpt lat="45.88112" lon="3.61138">
        <ele>584</ele>
        <time>2024-12-08T00:17:49.619Z</time>
      </trkpt>
      <trkpt lat="45.88111" lon="3.6114">
        <ele>584</ele>
        <time>2024-12-08T00:17:50.620Z</time>
      </trkpt>
      <trkpt lat="45.8811" lon="3.61143">
        <ele>584</ele>
        <time>2024-12-08T00:17:51.619Z</time>
      </trkpt>
      <trkpt lat="45.88109" lon="3.61145">
        <ele>584</ele>
        <time>2024-12-08T00:17:52.619Z</time>
      </trkpt>
      <trkpt lat="45.88108" lon="3.61148">
        <ele>584</ele>
        <time>2024-12-08T00:17:53.620Z</time>
      </trkpt>
      <trkpt lat="45.88108" lon="3.6115">
        <ele>584</ele>
        <time>2024-12-08T00:17:54.619Z</time>
      </trkpt>
      <trkpt lat="45.88107" lon="3.61153">
        <ele>584</ele>
        <time>2024-12-08T00:17:55.619Z</time>
      </trkpt>
      <trkpt lat="45.88106" lon="3.61155">
        <ele>584</ele>
        <time>2024-12-08T00:17:56.620Z</time>
      </trkpt>
      <trkpt lat="45.88105" lon="3.61158">
        <ele>584</ele>
        <time>2024-12-08T00:17:57.619Z</time>
      </trkpt>
      <trkpt lat="45.88104" lon="3.6116">
        <ele>583</ele>
        <time>2024-12-08T00:17:58.619Z</time>
      </trkpt>
      <trkpt lat="45.88103" lon="3.61163">
        <ele>583</ele>
        <time>2024-12-08T00:17:59.619Z</time>
      </trkpt>
      <trkpt lat="45.88102" lon="3.61166">
        <ele>583</ele>
        <time>2024-12-08T00:18:00.620Z</time>
      </trkpt>
      <trkpt lat="45.88101" lon="3.61168">
        <ele>583</ele>
        <time>2024-12-08T00:18:01.619Z</time>
      </trkpt>
      <trkpt lat="45.881" lon="3.61171">
        <ele>583</ele>
        <time>2024-12-08T00:18:02.620Z</time>
      </trkpt>
      <trkpt lat="45.881" lon="3.61173">
        <ele>584</ele>
        <time>2024-12-08T00:18:03.620Z</time>
      </trkpt>
      <trkpt lat="45.88099" lon="3.61175">
        <ele>584</ele>
        <time>2024-12-08T00:18:04.620Z</time>
      </trkpt>
      <trkpt lat="45.88098" lon="3.61178">
        <ele>583</ele>
        <time>2024-12-08T00:18:05.619Z</time>
      </trkpt>
      <trkpt lat="45.88097" lon="3.61181">
        <ele>583</ele>
        <time>2024-12-08T00:18:06.620Z</time>
      </trkpt>
      <trkpt lat="45.88096" lon="3.61183">
        <ele>583</ele>
        <time>2024-12-08T00:18:07.620Z</time>
      </trkpt>
      <trkpt lat="45.88095" lon="3.61186">
        <ele>583</ele>
        <time>2024-12-08T00:18:08.620Z</time>
      </trkpt>
      <trkpt lat="45.88095" lon="3.61188">
        <ele>583</ele>
        <time>2024-12-08T00:18:09.620Z</time>
      </trkpt>
      <trkpt lat="45.88094" lon="3.61191">
        <ele>583</ele>
        <time>2024-12-08T00:18:10.619Z</time>
      </trkpt>
      <trkpt lat="45.88093" lon="3.61193">
        <ele>582</ele>
        <time>2024-12-08T00:18:11.620Z</time>
      </trkpt>
      <trkpt lat="45.88093" lon="3.61195">
        <ele>582</ele>
        <time>2024-12-08T00:18:12.620Z</time>
      </trkpt>
      <trkpt lat="45.88092" lon="3.61198">
        <ele>582</ele>
        <time>2024-12-08T00:18:13.619Z</time>
      </trkpt>
      <trkpt lat="45.88092" lon="3.61201">
        <ele>582</ele>
        <time>2024-12-08T00:18:14.619Z</time>
      </trkpt>
      <trkpt lat="45.88091" lon="3.61204">
        <ele>583</ele>
        <time>2024-12-08T00:18:15.620Z</time>
      </trkpt>
      <trkpt lat="45.88091" lon="3.61207">
        <ele>583</ele>
        <time>2024-12-08T00:18:16.620Z</time>
      </trkpt>
      <trkpt lat="45.8809" lon="3.61209">
        <ele>583</ele>
        <time>2024-12-08T00:18:17.620Z</time>
      </trkpt>
      <trkpt lat="45.8809" lon="3.61212">
        <ele>583</ele>
        <time>2024-12-08T00:18:18.619Z</time>
      </trkpt>
      <trkpt lat="45.88089" lon="3.61215">
        <ele>583</ele>
        <time>2024-12-08T00:18:19.619Z</time>
      </trkpt>
      <trkpt lat="45.88089" lon="3.61217">
        <ele>583</ele>
        <time>2024-12-08T00:18:20.619Z</time>
      </trkpt>
      <trkpt lat="45.88088" lon="3.6122">
        <ele>583</ele>
        <time>2024-12-08T00:18:21.619Z</time>
      </trkpt>
      <trkpt lat="45.88087" lon="3.61223">
        <ele>583</ele>
        <time>2024-12-08T00:18:22.619Z</time>
      </trkpt>
      <trkpt lat="45.88087" lon="3.61225">
        <ele>583</ele>
        <time>2024-12-08T00:18:23.619Z</time>
      </trkpt>
      <trkpt lat="45.88087" lon="3.61228">
        <ele>583</ele>
        <time>2024-12-08T00:18:24.619Z</time>
      </trkpt>
      <trkpt lat="45.88086" lon="3.6123">
        <ele>583</ele>
        <time>2024-12-08T00:18:25.619Z</time>
      </trkpt>
      <trkpt lat="45.88086" lon="3.61232">
        <ele>582</ele>
        <time>2024-12-08T00:18:26.620Z</time>
      </trkpt>
      <trkpt lat="45.88086" lon="3.61235">
        <ele>582</ele>
        <time>2024-12-08T00:18:27.619Z</time>
      </trkpt>
      <trkpt lat="45.88085" lon="3.61238">
        <ele>582</ele>
        <time>2024-12-08T00:18:28.620Z</time>
      </trkpt>
      <trkpt lat="45.88085" lon="3.6124">
        <ele>581</ele>
        <time>2024-12-08T00:18:29.619Z</time>
      </trkpt>
      <trkpt lat="45.88085" lon="3.61243">
        <ele>581</ele>
        <time>2024-12-08T00:18:30.620Z</time>
      </trkpt>
      <trkpt lat="45.88086" lon="3.61246">
        <ele>581</ele>
        <time>2024-12-08T00:18:31.620Z</time>
      </trkpt>
      <trkpt lat="45.88086" lon="3.61248">
        <ele>580</ele>
        <time>2024-12-08T00:18:32.620Z</time>
      </trkpt>
      <trkpt lat="45.88086" lon="3.61251">
        <ele>580</ele>
        <time>2024-12-08T00:18:33.620Z</time>
      </trkpt>
      <trkpt lat="45.88087" lon="3.61253">
        <ele>580</ele>
        <time>2024-12-08T00:18:34.620Z</time>
      </trkpt>
      <trkpt lat="45.88087" lon="3.61256">
        <ele>579</ele>
        <time>2024-12-08T00:18:35.619Z</time>
      </trkpt>
      <trkpt lat="45.88088" lon="3.61259">
        <ele>579</ele>
        <time>2024-12-08T00:18:36.619Z</time>
      </trkpt>
      <trkpt lat="45.88089" lon="3.61261">
        <ele>579</ele>
        <time>2024-12-08T00:18:37.619Z</time>
      </trkpt>
      <trkpt lat="45.88089" lon="3.61264">
        <ele>578</ele>
        <time>2024-12-08T00:18:38.619Z</time>
      </trkpt>
      <trkpt lat="45.8809" lon="3.61266">
        <ele>578</ele>
        <time>2024-12-08T00:18:39.619Z</time>
      </trkpt>
      <trkpt lat="45.8809" lon="3.61269">
        <ele>578</ele>
        <time>2024-12-08T00:18:40.619Z</time>
      </trkpt>
      <trkpt lat="45.88091" lon="3.61271">
        <ele>578</ele>
        <time>2024-12-08T00:18:41.620Z</time>
      </trkpt>
      <trkpt lat="45.88092" lon="3.61273">
        <ele>578</ele>
        <time>2024-12-08T00:18:42.619Z</time>
      </trkpt>
      <trkpt lat="45.88093" lon="3.61276">
        <ele>578</ele>
        <time>2024-12-08T00:18:43.619Z</time>
      </trkpt>
      <trkpt lat="45.88095" lon="3.61279">
        <ele>578</ele>
        <time>2024-12-08T00:18:44.620Z</time>
      </trkpt>
      <trkpt lat="45.88096" lon="3.61281">
        <ele>578</ele>
        <time>2024-12-08T00:18:45.620Z</time>
      </trkpt>
      <trkpt lat="45.88097" lon="3.61283">
        <ele>578</ele>
        <time>2024-12-08T00:18:46.620Z</time>
      </trkpt>
      <trkpt lat="45.88098" lon="3.61285">
        <ele>578</ele>
        <time>2024-12-08T00:18:47.619Z</time>
      </trkpt>
      <trkpt lat="45.88099" lon="3.61287">
        <ele>577</ele>
        <time>2024-12-08T00:18:48.619Z</time>
      </trkpt>
      <trkpt lat="45.881" lon="3.61289">
        <ele>577</ele>
        <time>2024-12-08T00:18:49.619Z</time>
      </trkpt>
      <trkpt lat="45.88102" lon="3.61292">
        <ele>577</ele>
        <time>2024-12-08T00:18:50.619Z</time>
      </trkpt>
      <trkpt lat="45.88103" lon="3.61294">
        <ele>578</ele>
        <time>2024-12-08T00:18:51.619Z</time>
      </trkpt>
      <trkpt lat="45.88104" lon="3.61297">
        <ele>578</ele>
        <time>2024-12-08T00:18:52.620Z</time>
      </trkpt>
      <trkpt lat="45.88105" lon="3.613">
        <ele>578</ele>
        <time>2024-12-08T00:18:53.619Z</time>
      </trkpt>
      <trkpt lat="45.88106" lon="3.61302">
        <ele>578</ele>
        <time>2024-12-08T00:18:54.620Z</time>
      </trkpt>
      <trkpt lat="45.88107" lon="3.61304">
        <ele>578</ele>
        <time>2024-12-08T00:18:55.620Z</time>
      </trkpt>
      <trkpt lat="45.88109" lon="3.61307">
        <ele>578</ele>
        <time>2024-12-08T00:18:56.620Z</time>
      </trkpt>
      <trkpt lat="45.8811" lon="3.61309">
        <ele>578</ele>
        <time>2024-12-08T00:18:57.620Z</time>
      </trkpt>
      <trkpt lat="45.88111" lon="3.61312">
        <ele>578</ele>
        <time>2024-12-08T00:18:58.619Z</time>
      </trkpt>
      <trkpt lat="45.88111" lon="3.61314">
        <ele>578</ele>
        <time>2024-12-08T00:18:59.620Z</time>
      </trkpt>
      <trkpt lat="45.88112" lon="3.61317">
        <ele>578</ele>
        <time>2024-12-08T00:19:00.619Z</time>
      </trkpt>
      <trkpt lat="45.88113" lon="3.61319">
        <ele>578</ele>
        <time>2024-12-08T00:19:01.619Z</time>
      </trkpt>
      <trkpt lat="45.88114" lon="3.61322">
        <ele>577</ele>
        <time>2024-12-08T00:19:02.620Z</time>
      </trkpt>
      <trkpt lat="45.88114" lon="3.61324">
        <ele>577</ele>
        <time>2024-12-08T00:19:03.619Z</time>
      </trkpt>
      <trkpt lat="45.88115" lon="3.61327">
        <ele>577</ele>
        <time>2024-12-08T00:19:04.619Z</time>
      </trkpt>
      <trkpt lat="45.88116" lon="3.61329">
        <ele>576</ele>
        <time>2024-12-08T00:19:05.620Z</time>
      </trkpt>
      <trkpt lat="45.88116" lon="3.61332">
        <ele>576</ele>
        <time>2024-12-08T00:19:06.619Z</time>
      </trkpt>
      <trkpt lat="45.88117" lon="3.61334">
        <ele>576</ele>
        <time>2024-12-08T00:19:07.620Z</time>
      </trkpt>
      <trkpt lat="45.88117" lon="3.61337">
        <ele>576</ele>
        <time>2024-12-08T00:19:08.619Z</time>
      </trkpt>
      <trkpt lat="45.88118" lon="3.61339">
        <ele>575</ele>
        <time>2024-12-08T00:19:09.619Z</time>
      </trkpt>
      <trkpt lat="45.88118" lon="3.61342">
        <ele>575</ele>
        <time>2024-12-08T00:19:10.619Z</time>
      </trkpt>
      <trkpt lat="45.88119" lon="3.61344">
        <ele>575</ele>
        <time>2024-12-08T00:19:11.620Z</time>
      </trkpt>
      <trkpt lat="45.88119" lon="3.61347">
        <ele>575</ele>
        <time>2024-12-08T00:19:12.619Z</time>
      </trkpt>
      <trkpt lat="45.88119" lon="3.6135">
        <ele>575</ele>
        <time>2024-12-08T00:19:13.619Z</time>
      </trkpt>
      <trkpt lat="45.88119" lon="3.61353">
        <ele>575</ele>
        <time>2024-12-08T00:19:14.619Z</time>
      </trkpt>
      <trkpt lat="45.88119" lon="3.61356">
        <ele>574</ele>
        <time>2024-12-08T00:19:15.619Z</time>
      </trkpt>
      <trkpt lat="45.88119" lon="3.61358">
        <ele>574</ele>
        <time>2024-12-08T00:19:16.619Z</time>
      </trkpt>
      <trkpt lat="45.88119" lon="3.61361">
        <ele>574</ele>
        <time>2024-12-08T00:19:17.620Z</time>
      </trkpt>
      <trkpt lat="45.88119" lon="3.61364">
        <ele>574</ele>
        <time>2024-12-08T00:19:18.619Z</time>
      </trkpt>
      <trkpt lat="45.88119" lon="3.61366">
        <ele>574</ele>
        <time>2024-12-08T00:19:19.619Z</time>
      </trkpt>
      <trkpt lat="45.88118" lon="3.61369">
        <ele>574</ele>
        <time>2024-12-08T00:19:20.619Z</time>
      </trkpt>
      <trkpt lat="45.88118" lon="3.61372">
        <ele>574</ele>
        <time>2024-12-08T00:19:21.620Z</time>
      </trkpt>
      <trkpt lat="45.88118" lon="3.61375">
        <ele>574</ele>
        <time>2024-12-08T00:19:22.619Z</time>
      </trkpt>
      <trkpt lat="45.88117" lon="3.61377">
        <ele>574</ele>
        <time>2024-12-08T00:19:23.619Z</time>
      </trkpt>
      <trkpt lat="45.88117" lon="3.6138">
        <ele>574</ele>
        <time>2024-12-08T00:19:24.620Z</time>
      </trkpt>
      <trkpt lat="45.88116" lon="3.61382">
        <ele>575</ele>
        <time>2024-12-08T00:19:25.620Z</time>
      </trkpt>
      <trkpt lat="45.88115" lon="3.61385">
        <ele>575</ele>
        <time>2024-12-08T00:19:26.619Z</time>
      </trkpt>
      <trkpt lat="45.88114" lon="3.61388">
        <ele>575</ele>
        <time>2024-12-08T00:19:27.619Z</time>
      </trkpt>
      <trkpt lat="45.88114" lon="3.6139">
        <ele>576</ele>
        <time>2024-12-08T00:19:28.619Z</time>
      </trkpt>
      <trkpt lat="45.88113" lon="3.61392">
        <ele>575</ele>
        <time>2024-12-08T00:19:29.620Z</time>
      </trkpt>
      <trkpt lat="45.88112" lon="3.61395">
        <ele>575</ele>
        <time>2024-12-08T00:19:30.620Z</time>
      </trkpt>
      <trkpt lat="45.88111" lon="3.61398">
        <ele>575</ele>
        <time>2024-12-08T00:19:31.620Z</time>
      </trkpt>
      <trkpt lat="45.8811" lon="3.614">
        <ele>575</ele>
        <time>2024-12-08T00:19:32.619Z</time>
      </trkpt>
      <trkpt lat="45.88109" lon="3.61402">
        <ele>575</ele>
        <time>2024-12-08T00:19:33.619Z</time>
      </trkpt>
      <trkpt lat="45.88108" lon="3.61404">
        <ele>574</ele>
        <time>2024-12-08T00:19:34.619Z</time>
      </trkpt>
      <trkpt lat="45.88107" lon="3.61406">
        <ele>573</ele>
        <time>2024-12-08T00:19:35.620Z</time>
      </trkpt>
      <trkpt lat="45.88107" lon="3.61408">
        <ele>573</ele>
        <time>2024-12-08T00:19:36.619Z</time>
      </trkpt>
      <trkpt lat="45.88106" lon="3.61411">
        <ele>572</ele>
        <time>2024-12-08T00:19:37.620Z</time>
      </trkpt>
      <trkpt lat="45.88105" lon="3.61413">
        <ele>571</ele>
        <time>2024-12-08T00:19:38.619Z</time>
      </trkpt>
      <trkpt lat="45.88104" lon="3.61415">
        <ele>571</ele>
        <time>2024-12-08T00:19:39.619Z</time>
      </trkpt>
      <trkpt lat="45.88103" lon="3.61417">
        <ele>571</ele>
        <time>2024-12-08T00:19:40.619Z</time>
      </trkpt>
      <trkpt lat="45.88102" lon="3.61419">
        <ele>571</ele>
        <time>2024-12-08T00:19:41.620Z</time>
      </trkpt>
      <trkpt lat="45.88101" lon="3.61421">
        <ele>571</ele>
        <time>2024-12-08T00:19:42.620Z</time>
      </trkpt>
      <trkpt lat="45.881" lon="3.61423">
        <ele>571</ele>
        <time>2024-12-08T00:19:43.620Z</time>
      </trkpt>
      <trkpt lat="45.88099" lon="3.61426">
        <ele>571</ele>
        <time>2024-12-08T00:19:44.620Z</time>
      </trkpt>
      <trkpt lat="45.88098" lon="3.61428">
        <ele>570</ele>
        <time>2024-12-08T00:19:45.620Z</time>
      </trkpt>
      <trkpt lat="45.88097" lon="3.61431">
        <ele>570</ele>
        <time>2024-12-08T00:19:46.619Z</time>
      </trkpt>
      <trkpt lat="45.88096" lon="3.61433">
        <ele>570</ele>
        <time>2024-12-08T00:19:47.620Z</time>
      </trkpt>
      <trkpt lat="45.88096" lon="3.61435">
        <ele>569</ele>
        <time>2024-12-08T00:19:48.620Z</time>
      </trkpt>
      <trkpt lat="45.88095" lon="3.61437">
        <ele>569</ele>
        <time>2024-12-08T00:19:49.619Z</time>
      </trkpt>
      <trkpt lat="45.88095" lon="3.6144">
        <ele>569</ele>
        <time>2024-12-08T00:19:50.619Z</time>
      </trkpt>
      <trkpt lat="45.88094" lon="3.61442">
        <ele>569</ele>
        <time>2024-12-08T00:19:51.620Z</time>
      </trkpt>
      <trkpt lat="45.88094" lon="3.61445">
        <ele>569</ele>
        <time>2024-12-08T00:19:52.620Z</time>
      </trkpt>
      <trkpt lat="45.88093" lon="3.61449">
        <ele>570</ele>
        <time>2024-12-08T00:19:53.620Z</time>
      </trkpt>
      <trkpt lat="45.88093" lon="3.61452">
        <ele>570</ele>
        <time>2024-12-08T00:19:54.620Z</time>
      </trkpt>
      <trkpt lat="45.88093" lon="3.61455">
        <ele>571</ele>
        <time>2024-12-08T00:19:55.620Z</time>
      </trkpt>
      <trkpt lat="45.88093" lon="3.61457">
        <ele>571</ele>
        <time>2024-12-08T00:19:56.619Z</time>
      </trkpt>
      <trkpt lat="45.88093" lon="3.61459">
        <ele>571</ele>
        <time>2024-12-08T00:19:57.620Z</time>
      </trkpt>
      <trkpt lat="45.88093" lon="3.61462">
        <ele>572</ele>
        <time>2024-12-08T00:19:58.619Z</time>
      </trkpt>
      <trkpt lat="45.88093" lon="3.61464">
        <ele>572</ele>
        <time>2024-12-08T00:19:59.620Z</time>
      </trkpt>
      <trkpt lat="45.88094" lon="3.61467">
        <ele>572</ele>
        <time>2024-12-08T00:20:00.619Z</time>
      </trkpt>
      <trkpt lat="45.88095" lon="3.61469">
        <ele>573</ele>
        <time>2024-12-08T00:20:01.619Z</time>
      </trkpt>
      <trkpt lat="45.88095" lon="3.61471">
        <ele>573</ele>
        <time>2024-12-08T00:20:02.619Z</time>
      </trkpt>
      <trkpt lat="45.88096" lon="3.61473">
        <ele>573</ele>
        <time>2024-12-08T00:20:03.619Z</time>
      </trkpt>
      <trkpt lat="45.88096" lon="3.61475">
        <ele>574</ele>
        <time>2024-12-08T00:20:04.619Z</time>
      </trkpt>
      <trkpt lat="45.88097" lon="3.61477">
        <ele>574</ele>
        <time>2024-12-08T00:20:05.620Z</time>
      </trkpt>
      <trkpt lat="45.88099" lon="3.61479">
        <ele>574</ele>
        <time>2024-12-08T00:20:06.620Z</time>
      </trkpt>
      <trkpt lat="45.881" lon="3.61481">
        <ele>574</ele>
        <time>2024-12-08T00:20:07.620Z</time>
      </trkpt>
      <trkpt lat="45.88101" lon="3.61483">
        <ele>575</ele>
        <time>2024-12-08T00:20:08.620Z</time>
      </trkpt>
      <trkpt lat="45.88102" lon="3.61485">
        <ele>575</ele>
        <time>2024-12-08T00:20:09.620Z</time>
      </trkpt>
      <trkpt lat="45.88103" lon="3.61486">
        <ele>575</ele>
        <time>2024-12-08T00:20:10.619Z</time>
      </trkpt>
      <trkpt lat="45.88104" lon="3.61487">
        <ele>575</ele>
        <time>2024-12-08T00:20:11.620Z</time>
      </trkpt>
      <trkpt lat="45.88105" lon="3.61488">
        <ele>575</ele>
        <time>2024-12-08T00:20:12.620Z</time>
      </trkpt>
      <trkpt lat="45.88106" lon="3.6149">
        <ele>576</ele>
        <time>2024-12-08T00:20:13.620Z</time>
      </trkpt>
      <trkpt lat="45.88107" lon="3.61491">
        <ele>576</ele>
        <time>2024-12-08T00:20:14.619Z</time>
      </trkpt>
      <trkpt lat="45.88109" lon="3.61492">
        <ele>577</ele>
        <time>2024-12-08T00:20:15.619Z</time>
      </trkpt>
      <trkpt lat="45.8811" lon="3.61493">
        <ele>577</ele>
        <time>2024-12-08T00:20:16.619Z</time>
      </trkpt>
      <trkpt lat="45.88112" lon="3.61494">
        <ele>578</ele>
        <time>2024-12-08T00:20:17.619Z</time>
      </trkpt>
      <trkpt lat="45.88113" lon="3.61495">
        <ele>579</ele>
        <time>2024-12-08T00:20:18.619Z</time>
      </trkpt>
      <trkpt lat="45.88114" lon="3.61496">
        <ele>579</ele>
        <time>2024-12-08T00:20:19.619Z</time>
      </trkpt>
      <trkpt lat="45.88116" lon="3.61497">
        <ele>580</ele>
        <time>2024-12-08T00:20:20.619Z</time>
      </trkpt>
      <trkpt lat="45.88118" lon="3.61497">
        <ele>581</ele>
        <time>2024-12-08T00:20:21.619Z</time>
      </trkpt>
      <trkpt lat="45.8812" lon="3.61498">
        <ele>581</ele>
        <time>2024-12-08T00:20:22.620Z</time>
      </trkpt>
      <trkpt lat="45.88122" lon="3.61499">
        <ele>581</ele>
        <time>2024-12-08T00:20:23.619Z</time>
      </trkpt>
      <trkpt lat="45.88124" lon="3.61499">
        <ele>582</ele>
        <time>2024-12-08T00:20:24.619Z</time>
      </trkpt>
      <trkpt lat="45.88125" lon="3.61499">
        <ele>582</ele>
        <time>2024-12-08T00:20:25.620Z</time>
      </trkpt>
      <trkpt lat="45.88126" lon="3.615">
        <ele>582</ele>
        <time>2024-12-08T00:20:26.620Z</time>
      </trkpt>
      <trkpt lat="45.88128" lon="3.615">
        <ele>582</ele>
        <time>2024-12-08T00:20:27.620Z</time>
      </trkpt>
      <trkpt lat="45.8813" lon="3.615">
        <ele>582</ele>
        <time>2024-12-08T00:20:28.619Z</time>
      </trkpt>
      <trkpt lat="45.88132" lon="3.61501">
        <ele>582</ele>
        <time>2024-12-08T00:20:29.619Z</time>
      </trkpt>
      <trkpt lat="45.88134" lon="3.61502">
        <ele>582</ele>
        <time>2024-12-08T00:20:30.620Z</time>
      </trkpt>
      <trkpt lat="45.88136" lon="3.61503">
        <ele>583</ele>
        <time>2024-12-08T00:20:31.620Z</time>
      </trkpt>
      <trkpt lat="45.88139" lon="3.61504">
        <ele>583</ele>
        <time>2024-12-08T00:20:32.619Z</time>
      </trkpt>
      <trkpt lat="45.88141" lon="3.61505">
        <ele>584</ele>
        <time>2024-12-08T00:20:33.619Z</time>
      </trkpt>
      <trkpt lat="45.88144" lon="3.61505">
        <ele>584</ele>
        <time>2024-12-08T00:20:34.619Z</time>
      </trkpt>
      <trkpt lat="45.88146" lon="3.61506">
        <ele>585</ele>
        <time>2024-12-08T00:20:35.620Z</time>
      </trkpt>
      <trkpt lat="45.88147" lon="3.61507">
        <ele>585</ele>
        <time>2024-12-08T00:20:36.619Z</time>
      </trkpt>
      <trkpt lat="45.88148" lon="3.61508">
        <ele>585</ele>
        <time>2024-12-08T00:20:37.619Z</time>
      </trkpt>
      <trkpt lat="45.88149" lon="3.61509">
        <ele>585</ele>
        <time>2024-12-08T00:20:38.619Z</time>
      </trkpt>
      <trkpt lat="45.8815" lon="3.6151">
        <ele>585</ele>
        <time>2024-12-08T00:20:39.619Z</time>
      </trkpt>
      <trkpt lat="45.88151" lon="3.61511">
        <ele>585</ele>
        <time>2024-12-08T00:20:40.620Z</time>
      </trkpt>
      <trkpt lat="45.88153" lon="3.61513">
        <ele>584</ele>
        <time>2024-12-08T00:20:41.620Z</time>
      </trkpt>
      <trkpt lat="45.88154" lon="3.61514">
        <ele>584</ele>
        <time>2024-12-08T00:20:42.619Z</time>
      </trkpt>
      <trkpt lat="45.88156" lon="3.61515">
        <ele>584</ele>
        <time>2024-12-08T00:20:43.619Z</time>
      </trkpt>
      <trkpt lat="45.88158" lon="3.61516">
        <ele>584</ele>
        <time>2024-12-08T00:20:44.620Z</time>
      </trkpt>
      <trkpt lat="45.88159" lon="3.61518">
        <ele>584</ele>
        <time>2024-12-08T00:20:45.619Z</time>
      </trkpt>
      <trkpt lat="45.8816" lon="3.61519">
        <ele>584</ele>
        <time>2024-12-08T00:20:46.619Z</time>
      </trkpt>
      <trkpt lat="45.88161" lon="3.61521">
        <ele>584</ele>
        <time>2024-12-08T00:20:47.620Z</time>
      </trkpt>
      <trkpt lat="45.88162" lon="3.61523">
        <ele>585</ele>
        <time>2024-12-08T00:20:48.620Z</time>
      </trkpt>
      <trkpt lat="45.88163" lon="3.61525">
        <ele>586</ele>
        <time>2024-12-08T00:20:49.619Z</time>
      </trkpt>
      <trkpt lat="45.88165" lon="3.61526">
        <ele>586</ele>
        <time>2024-12-08T00:20:50.620Z</time>
      </trkpt>
      <trkpt lat="45.88166" lon="3.61528">
        <ele>587</ele>
        <time>2024-12-08T00:20:51.619Z</time>
      </trkpt>
      <trkpt lat="45.88167" lon="3.6153">
        <ele>588</ele>
        <time>2024-12-08T00:20:52.620Z</time>
      </trkpt>
      <trkpt lat="45.88168" lon="3.61531">
        <ele>588</ele>
        <time>2024-12-08T00:20:53.620Z</time>
      </trkpt>
      <trkpt lat="45.88169" lon="3.61533">
        <ele>588</ele>
        <time>2024-12-08T00:20:54.620Z</time>
      </trkpt>
      <trkpt lat="45.8817" lon="3.61534">
        <ele>589</ele>
        <time>2024-12-08T00:20:55.619Z</time>
      </trkpt>
      <trkpt lat="45.88171" lon="3.61536">
        <ele>589</ele>
        <time>2024-12-08T00:20:56.619Z</time>
      </trkpt>
      <trkpt lat="45.88172" lon="3.61538">
        <ele>589</ele>
        <time>2024-12-08T00:20:57.620Z</time>
      </trkpt>
      <trkpt lat="45.88172" lon="3.6154">
        <ele>589</ele>
        <time>2024-12-08T00:20:58.620Z</time>
      </trkpt>
      <trkpt lat="45.88173" lon="3.61541">
        <ele>590</ele>
        <time>2024-12-08T00:20:59.619Z</time>
      </trkpt>
      <trkpt lat="45.88174" lon="3.61543">
        <ele>589</ele>
        <time>2024-12-08T00:21:00.619Z</time>
      </trkpt>
      <trkpt lat="45.88175" lon="3.61545">
        <ele>589</ele>
        <time>2024-12-08T00:21:01.619Z</time>
      </trkpt>
      <trkpt lat="45.88175" lon="3.61548">
        <ele>589</ele>
        <time>2024-12-08T00:21:02.620Z</time>
      </trkpt>
      <trkpt lat="45.88176" lon="3.6155">
        <ele>589</ele>
        <time>2024-12-08T00:21:03.619Z</time>
      </trkpt>
      <trkpt lat="45.88176" lon="3.61552">
        <ele>589</ele>
        <time>2024-12-08T00:21:04.619Z</time>
      </trkpt>
      <trkpt lat="45.88177" lon="3.61554">
        <ele>589</ele>
        <time>2024-12-08T00:21:05.620Z</time>
      </trkpt>
      <trkpt lat="45.88178" lon="3.61555">
        <ele>589</ele>
        <time>2024-12-08T00:21:06.620Z</time>
      </trkpt>
      <trkpt lat="45.88179" lon="3.61558">
        <ele>589</ele>
        <time>2024-12-08T00:21:07.620Z</time>
      </trkpt>
      <trkpt lat="45.88179" lon="3.6156">
        <ele>589</ele>
        <time>2024-12-08T00:21:08.619Z</time>
      </trkpt>
      <trkpt lat="45.8818" lon="3.61562">
        <ele>589</ele>
        <time>2024-12-08T00:21:09.620Z</time>
      </trkpt>
      <trkpt lat="45.8818" lon="3.61564">
        <ele>588</ele>
        <time>2024-12-08T00:21:10.620Z</time>
      </trkpt>
      <trkpt lat="45.88181" lon="3.61566">
        <ele>588</ele>
        <time>2024-12-08T00:21:11.620Z</time>
      </trkpt>
      <trkpt lat="45.88182" lon="3.61568">
        <ele>588</ele>
        <time>2024-12-08T00:21:12.619Z</time>
      </trkpt>
      <trkpt lat="45.88182" lon="3.6157">
        <ele>588</ele>
        <time>2024-12-08T00:21:13.619Z</time>
      </trkpt>
      <trkpt lat="45.88183" lon="3.61572">
        <ele>588</ele>
        <time>2024-12-08T00:21:14.620Z</time>
      </trkpt>
      <trkpt lat="45.88184" lon="3.61574">
        <ele>588</ele>
        <time>2024-12-08T00:21:15.620Z</time>
      </trkpt>
      <trkpt lat="45.88184" lon="3.61576">
        <ele>588</ele>
        <time>2024-12-08T00:21:16.619Z</time>
      </trkpt>
      <trkpt lat="45.88185" lon="3.61579">
        <ele>589</ele>
        <time>2024-12-08T00:21:17.619Z</time>
      </trkpt>
      <trkpt lat="45.88186" lon="3.61581">
        <ele>589</ele>
        <time>2024-12-08T00:21:18.619Z</time>
      </trkpt>
      <trkpt lat="45.88186" lon="3.61583">
        <ele>589</ele>
        <time>2024-12-08T00:21:19.619Z</time>
      </trkpt>
      <trkpt lat="45.88187" lon="3.61585">
        <ele>589</ele>
        <time>2024-12-08T00:21:20.619Z</time>
      </trkpt>
      <trkpt lat="45.88187" lon="3.61588">
        <ele>589</ele>
        <time>2024-12-08T00:21:21.620Z</time>
      </trkpt>
      <trkpt lat="45.88187" lon="3.6159">
        <ele>590</ele>
        <time>2024-12-08T00:21:22.619Z</time>
      </trkpt>
      <trkpt lat="45.88188" lon="3.61592">
        <ele>590</ele>
        <time>2024-12-08T00:21:23.619Z</time>
      </trkpt>
      <trkpt lat="45.88188" lon="3.61594">
        <ele>589</ele>
        <time>2024-12-08T00:21:24.619Z</time>
      </trkpt>
      <trkpt lat="45.88189" lon="3.61596">
        <ele>589</ele>
        <time>2024-12-08T00:21:25.620Z</time>
      </trkpt>
      <trkpt lat="45.88189" lon="3.61598">
        <ele>590</ele>
        <time>2024-12-08T00:21:26.619Z</time>
      </trkpt>
      <trkpt lat="45.8819" lon="3.61601">
        <ele>590</ele>
        <time>2024-12-08T00:21:27.619Z</time>
      </trkpt>
      <trkpt lat="45.8819" lon="3.61603">
        <ele>591</ele>
        <time>2024-12-08T00:21:28.620Z</time>
      </trkpt>
      <trkpt lat="45.8819" lon="3.61605">
        <ele>591</ele>
        <time>2024-12-08T00:21:29.620Z</time>
      </trkpt>
      <trkpt lat="45.88191" lon="3.61607">
        <ele>591</ele>
        <time>2024-12-08T00:21:30.619Z</time>
      </trkpt>
      <trkpt lat="45.88191" lon="3.61609">
        <ele>592</ele>
        <time>2024-12-08T00:21:31.620Z</time>
      </trkpt>
      <trkpt lat="45.88191" lon="3.61611">
        <ele>593</ele>
        <time>2024-12-08T00:21:32.620Z</time>
      </trkpt>
      <trkpt lat="45.88191" lon="3.61614">
        <ele>594</ele>
        <time>2024-12-08T00:21:33.619Z</time>
      </trkpt>
      <trkpt lat="45.88192" lon="3.61616">
        <ele>594</ele>
        <time>2024-12-08T00:21:34.619Z</time>
      </trkpt>
      <trkpt lat="45.88192" lon="3.61618">
        <ele>595</ele>
        <time>2024-12-08T00:21:35.619Z</time>
      </trkpt>
      <trkpt lat="45.88192" lon="3.6162">
        <ele>595</ele>
        <time>2024-12-08T00:21:36.620Z</time>
      </trkpt>
      <trkpt lat="45.88192" lon="3.61622">
        <ele>596</ele>
        <time>2024-12-08T00:21:37.620Z</time>
      </trkpt>
      <trkpt lat="45.88192" lon="3.61624">
        <ele>597</ele>
        <time>2024-12-08T00:21:38.619Z</time>
      </trkpt>
      <trkpt lat="45.88192" lon="3.61626">
        <ele>597</ele>
        <time>2024-12-08T00:21:39.619Z</time>
      </trkpt>
      <trkpt lat="45.88193" lon="3.61628">
        <ele>597</ele>
        <time>2024-12-08T00:21:40.619Z</time>
      </trkpt>
      <trkpt lat="45.88193" lon="3.6163">
        <ele>597</ele>
        <time>2024-12-08T00:21:41.619Z</time>
      </trkpt>
      <trkpt lat="45.88193" lon="3.61632">
        <ele>597</ele>
        <time>2024-12-08T00:21:42.619Z</time>
      </trkpt>
      <trkpt lat="45.88193" lon="3.61634">
        <ele>597</ele>
        <time>2024-12-08T00:21:43.619Z</time>
      </trkpt>
      <trkpt lat="45.88193" lon="3.61636">
        <ele>597</ele>
        <time>2024-12-08T00:21:44.620Z</time>
      </trkpt>
      <trkpt lat="45.88193" lon="3.61638">
        <ele>596</ele>
        <time>2024-12-08T00:21:45.619Z</time>
      </trkpt>
      <trkpt lat="45.88192" lon="3.61641">
        <ele>596</ele>
        <time>2024-12-08T00:21:46.619Z</time>
      </trkpt>
      <trkpt lat="45.88192" lon="3.61643">
        <ele>596</ele>
        <time>2024-12-08T00:21:47.619Z</time>
      </trkpt>
      <trkpt lat="45.88192" lon="3.61644">
        <ele>596</ele>
        <time>2024-12-08T00:21:48.619Z</time>
      </trkpt>
      <trkpt lat="45.88192" lon="3.61646">
        <ele>596</ele>
        <time>2024-12-08T00:21:49.620Z</time>
      </trkpt>
      <trkpt lat="45.88191" lon="3.61649">
        <ele>596</ele>
        <time>2024-12-08T00:21:50.619Z</time>
      </trkpt>
      <trkpt lat="45.88191" lon="3.61651">
        <ele>596</ele>
        <time>2024-12-08T00:21:51.619Z</time>
      </trkpt>
      <trkpt lat="45.88191" lon="3.61653">
        <ele>595</ele>
        <time>2024-12-08T00:21:52.619Z</time>
      </trkpt>
      <trkpt lat="45.88191" lon="3.61655">
        <ele>595</ele>
        <time>2024-12-08T00:21:53.619Z</time>
      </trkpt>
      <trkpt lat="45.8819" lon="3.61656">
        <ele>595</ele>
        <time>2024-12-08T00:21:54.619Z</time>
      </trkpt>
      <trkpt lat="45.88189" lon="3.61658">
        <ele>595</ele>
        <time>2024-12-08T00:21:55.620Z</time>
      </trkpt>
      <trkpt lat="45.88189" lon="3.61661">
        <ele>595</ele>
        <time>2024-12-08T00:21:56.619Z</time>
      </trkpt>
      <trkpt lat="45.88188" lon="3.61663">
        <ele>595</ele>
        <time>2024-12-08T00:21:57.619Z</time>
      </trkpt>
      <trkpt lat="45.88188" lon="3.61665">
        <ele>595</ele>
        <time>2024-12-08T00:21:58.620Z</time>
      </trkpt>
      <trkpt lat="45.88187" lon="3.61667">
        <ele>595</ele>
        <time>2024-12-08T00:21:59.619Z</time>
      </trkpt>
      <trkpt lat="45.88187" lon="3.61669">
        <ele>595</ele>
        <time>2024-12-08T00:22:00.620Z</time>
      </trkpt>
      <trkpt lat="45.88186" lon="3.61671">
        <ele>596</ele>
        <time>2024-12-08T00:22:01.620Z</time>
      </trkpt>
      <trkpt lat="45.88186" lon="3.61673">
        <ele>596</ele>
        <time>2024-12-08T00:22:02.620Z</time>
      </trkpt>
      <trkpt lat="45.88185" lon="3.61675">
        <ele>596</ele>
        <time>2024-12-08T00:22:03.619Z</time>
      </trkpt>
      <trkpt lat="45.88184" lon="3.61677">
        <ele>596</ele>
        <time>2024-12-08T00:22:04.619Z</time>
      </trkpt>
      <trkpt lat="45.88184" lon="3.61678">
        <ele>596</ele>
        <time>2024-12-08T00:22:05.619Z</time>
      </trkpt>
      <trkpt lat="45.88183" lon="3.6168">
        <ele>595</ele>
        <time>2024-12-08T00:22:06.620Z</time>
      </trkpt>
      <trkpt lat="45.88182" lon="3.61682">
        <ele>595</ele>
        <time>2024-12-08T00:22:07.620Z</time>
      </trkpt>
      <trkpt lat="45.88181" lon="3.61684">
        <ele>595</ele>
        <time>2024-12-08T00:22:08.620Z</time>
      </trkpt>
      <trkpt lat="45.88181" lon="3.61686">
        <ele>596</ele>
        <time>2024-12-08T00:22:09.619Z</time>
      </trkpt>
      <trkpt lat="45.8818" lon="3.61688">
        <ele>596</ele>
        <time>2024-12-08T00:22:10.619Z</time>
      </trkpt>
      <trkpt lat="45.8818" lon="3.6169">
        <ele>597</ele>
        <time>2024-12-08T00:22:11.619Z</time>
      </trkpt>
      <trkpt lat="45.88179" lon="3.61692">
        <ele>597</ele>
        <time>2024-12-08T00:22:12.620Z</time>
      </trkpt>
      <trkpt lat="45.88178" lon="3.61694">
        <ele>597</ele>
        <time>2024-12-08T00:22:13.620Z</time>
      </trkpt>
      <trkpt lat="45.88178" lon="3.61696">
        <ele>597</ele>
        <time>2024-12-08T00:22:14.619Z</time>
      </trkpt>
      <trkpt lat="45.88178" lon="3.61698">
        <ele>598</ele>
        <time>2024-12-08T00:22:15.619Z</time>
      </trkpt>
      <trkpt lat="45.88177" lon="3.617">
        <ele>598</ele>
        <time>2024-12-08T00:22:16.619Z</time>
      </trkpt>
      <trkpt lat="45.88177" lon="3.61701">
        <ele>598</ele>
        <time>2024-12-08T00:22:17.619Z</time>
      </trkpt>
      <trkpt lat="45.88176" lon="3.61703">
        <ele>598</ele>
        <time>2024-12-08T00:22:18.619Z</time>
      </trkpt>
      <trkpt lat="45.88176" lon="3.61705">
        <ele>598</ele>
        <time>2024-12-08T00:22:19.619Z</time>
      </trkpt>
      <trkpt lat="45.88175" lon="3.61707">
        <ele>598</ele>
        <time>2024-12-08T00:22:20.619Z</time>
      </trkpt>
      <trkpt lat="45.88174" lon="3.61709">
        <ele>599</ele>
        <time>2024-12-08T00:22:21.620Z</time>
      </trkpt>
      <trkpt lat="45.88174" lon="3.61711">
        <ele>599</ele>
        <time>2024-12-08T00:22:22.620Z</time>
      </trkpt>
      <trkpt lat="45.88173" lon="3.61713">
        <ele>599</ele>
        <time>2024-12-08T00:22:23.619Z</time>
      </trkpt>
      <trkpt lat="45.88173" lon="3.61715">
        <ele>600</ele>
        <time>2024-12-08T00:22:24.620Z</time>
      </trkpt>
      <trkpt lat="45.88173" lon="3.61717">
        <ele>600</ele>
        <time>2024-12-08T00:22:25.620Z</time>
      </trkpt>
      <trkpt lat="45.88172" lon="3.61719">
        <ele>601</ele>
        <time>2024-12-08T00:22:26.620Z</time>
      </trkpt>
      <trkpt lat="45.88172" lon="3.61721">
        <ele>601</ele>
        <time>2024-12-08T00:22:27.619Z</time>
      </trkpt>
      <trkpt lat="45.88172" lon="3.61723">
        <ele>602</ele>
        <time>2024-12-08T00:22:28.620Z</time>
      </trkpt>
      <trkpt lat="45.88172" lon="3.61725">
        <ele>602</ele>
        <time>2024-12-08T00:22:29.620Z</time>
      </trkpt>
      <trkpt lat="45.88172" lon="3.61728">
        <ele>603</ele>
        <time>2024-12-08T00:22:30.619Z</time>
      </trkpt>
      <trkpt lat="45.88172" lon="3.6173">
        <ele>602</ele>
        <time>2024-12-08T00:22:31.619Z</time>
      </trkpt>
      <trkpt lat="45.88172" lon="3.61731">
        <ele>602</ele>
        <time>2024-12-08T00:22:32.619Z</time>
      </trkpt>
      <trkpt lat="45.88172" lon="3.61734">
        <ele>602</ele>
        <time>2024-12-08T00:22:33.619Z</time>
      </trkpt>
      <trkpt lat="45.88172" lon="3.61736">
        <ele>602</ele>
        <time>2024-12-08T00:22:34.619Z</time>
      </trkpt>
      <trkpt lat="45.88172" lon="3.61738">
        <ele>603</ele>
        <time>2024-12-08T00:22:35.619Z</time>
      </trkpt>
      <trkpt lat="45.88172" lon="3.6174">
        <ele>603</ele>
        <time>2024-12-08T00:22:36.619Z</time>
      </trkpt>
      <trkpt lat="45.88172" lon="3.61742">
        <ele>603</ele>
        <time>2024-12-08T00:22:37.619Z</time>
      </trkpt>
      <trkpt lat="45.88172" lon="3.61744">
        <ele>604</ele>
        <time>2024-12-08T00:22:38.619Z</time>
      </trkpt>
      <trkpt lat="45.88172" lon="3.61745">
        <ele>604</ele>
        <time>2024-12-08T00:22:39.619Z</time>
      </trkpt>
      <trkpt lat="45.88172" lon="3.61748">
        <ele>604</ele>
        <time>2024-12-08T00:22:40.619Z</time>
      </trkpt>
      <trkpt lat="45.88173" lon="3.6175">
        <ele>604</ele>
        <time>2024-12-08T00:22:41.619Z</time>
      </trkpt>
      <trkpt lat="45.88173" lon="3.61753">
        <ele>604</ele>
        <time>2024-12-08T00:22:42.619Z</time>
      </trkpt>
      <trkpt lat="45.88173" lon="3.61755">
        <ele>604</ele>
        <time>2024-12-08T00:22:43.619Z</time>
      </trkpt>
      <trkpt lat="45.88173" lon="3.61757">
        <ele>604</ele>
        <time>2024-12-08T00:22:44.619Z</time>
      </trkpt>
      <trkpt lat="45.88173" lon="3.61759">
        <ele>605</ele>
        <time>2024-12-08T00:22:45.619Z</time>
      </trkpt>
      <trkpt lat="45.88173" lon="3.61761">
        <ele>605</ele>
        <time>2024-12-08T00:22:46.619Z</time>
      </trkpt>
      <trkpt lat="45.88174" lon="3.61763">
        <ele>606</ele>
        <time>2024-12-08T00:22:47.620Z</time>
      </trkpt>
      <trkpt lat="45.88173" lon="3.61766">
        <ele>606</ele>
        <time>2024-12-08T00:22:48.620Z</time>
      </trkpt>
      <trkpt lat="45.88173" lon="3.61768">
        <ele>607</ele>
        <time>2024-12-08T00:22:49.619Z</time>
      </trkpt>
      <trkpt lat="45.88174" lon="3.6177">
        <ele>607</ele>
        <time>2024-12-08T00:22:50.619Z</time>
      </trkpt>
      <trkpt lat="45.88173" lon="3.61772">
        <ele>608</ele>
        <time>2024-12-08T00:22:51.619Z</time>
      </trkpt>
      <trkpt lat="45.88174" lon="3.61774">
        <ele>608</ele>
        <time>2024-12-08T00:22:52.619Z</time>
      </trkpt>
      <trkpt lat="45.88174" lon="3.61776">
        <ele>609</ele>
        <time>2024-12-08T00:22:53.619Z</time>
      </trkpt>
      <trkpt lat="45.88174" lon="3.61778">
        <ele>609</ele>
        <time>2024-12-08T00:22:54.620Z</time>
      </trkpt>
      <trkpt lat="45.88174" lon="3.6178">
        <ele>609</ele>
        <time>2024-12-08T00:22:55.619Z</time>
      </trkpt>
      <trkpt lat="45.88174" lon="3.61782">
        <ele>609</ele>
        <time>2024-12-08T00:22:56.620Z</time>
      </trkpt>
      <trkpt lat="45.88174" lon="3.61784">
        <ele>610</ele>
        <time>2024-12-08T00:22:57.619Z</time>
      </trkpt>
      <trkpt lat="45.88174" lon="3.61785">
        <ele>610</ele>
        <time>2024-12-08T00:22:58.620Z</time>
      </trkpt>
      <trkpt lat="45.88175" lon="3.61787">
        <ele>611</ele>
        <time>2024-12-08T00:22:59.619Z</time>
      </trkpt>
      <trkpt lat="45.88175" lon="3.61789">
        <ele>611</ele>
        <time>2024-12-08T00:23:00.619Z</time>
      </trkpt>
      <trkpt lat="45.88174" lon="3.61791">
        <ele>611</ele>
        <time>2024-12-08T00:23:01.619Z</time>
      </trkpt>
      <trkpt lat="45.88175" lon="3.61793">
        <ele>611</ele>
        <time>2024-12-08T00:23:02.619Z</time>
      </trkpt>
      <trkpt lat="45.88175" lon="3.61795">
        <ele>612</ele>
        <time>2024-12-08T00:23:03.619Z</time>
      </trkpt>
      <trkpt lat="45.88176" lon="3.61797">
        <ele>612</ele>
        <time>2024-12-08T00:23:04.619Z</time>
      </trkpt>
      <trkpt lat="45.88176" lon="3.61799">
        <ele>612</ele>
        <time>2024-12-08T00:23:05.619Z</time>
      </trkpt>
      <trkpt lat="45.88176" lon="3.61801">
        <ele>612</ele>
        <time>2024-12-08T00:23:06.619Z</time>
      </trkpt>
      <trkpt lat="45.88177" lon="3.61804">
        <ele>612</ele>
        <time>2024-12-08T00:23:07.619Z</time>
      </trkpt>
      <trkpt lat="45.88177" lon="3.61806">
        <ele>612</ele>
        <time>2024-12-08T00:23:08.620Z</time>
      </trkpt>
      <trkpt lat="45.88178" lon="3.61807">
        <ele>611</ele>
        <time>2024-12-08T00:23:09.620Z</time>
      </trkpt>
      <trkpt lat="45.88179" lon="3.61809">
        <ele>611</ele>
        <time>2024-12-08T00:23:10.620Z</time>
      </trkpt>
      <trkpt lat="45.88179" lon="3.61811">
        <ele>611</ele>
        <time>2024-12-08T00:23:11.620Z</time>
      </trkpt>
      <trkpt lat="45.88179" lon="3.61814">
        <ele>611</ele>
        <time>2024-12-08T00:23:12.619Z</time>
      </trkpt>
      <trkpt lat="45.88179" lon="3.61816">
        <ele>611</ele>
        <time>2024-12-08T00:23:13.620Z</time>
      </trkpt>
      <trkpt lat="45.88179" lon="3.61818">
        <ele>611</ele>
        <time>2024-12-08T00:23:14.619Z</time>
      </trkpt>
      <trkpt lat="45.8818" lon="3.6182">
        <ele>611</ele>
        <time>2024-12-08T00:23:15.619Z</time>
      </trkpt>
      <trkpt lat="45.8818" lon="3.61822">
        <ele>611</ele>
        <time>2024-12-08T00:23:16.619Z</time>
      </trkpt>
      <trkpt lat="45.8818" lon="3.61824">
        <ele>611</ele>
        <time>2024-12-08T00:23:17.620Z</time>
      </trkpt>
      <trkpt lat="45.8818" lon="3.61826">
        <ele>611</ele>
        <time>2024-12-08T00:23:18.619Z</time>
      </trkpt>
      <trkpt lat="45.88181" lon="3.61828">
        <ele>612</ele>
        <time>2024-12-08T00:23:19.620Z</time>
      </trkpt>
      <trkpt lat="45.88181" lon="3.6183">
        <ele>612</ele>
        <time>2024-12-08T00:23:20.619Z</time>
      </trkpt>
      <trkpt lat="45.8818" lon="3.61831">
        <ele>612</ele>
        <time>2024-12-08T00:23:21.620Z</time>
      </trkpt>
      <trkpt lat="45.8818" lon="3.61833">
        <ele>612</ele>
        <time>2024-12-08T00:23:22.620Z</time>
      </trkpt>
      <trkpt lat="45.8818" lon="3.61835">
        <ele>613</ele>
        <time>2024-12-08T00:23:23.619Z</time>
      </trkpt>
      <trkpt lat="45.8818" lon="3.61836">
        <ele>613</ele>
        <time>2024-12-08T00:23:24.619Z</time>
      </trkpt>
      <trkpt lat="45.8818" lon="3.61838">
        <ele>614</ele>
        <time>2024-12-08T00:23:25.619Z</time>
      </trkpt>
      <trkpt lat="45.88181" lon="3.6184">
        <ele>615</ele>
        <time>2024-12-08T00:23:26.620Z</time>
      </trkpt>
      <trkpt lat="45.88181" lon="3.61842">
        <ele>616</ele>
        <time>2024-12-08T00:23:27.619Z</time>
      </trkpt>
      <trkpt lat="45.88181" lon="3.61844">
        <ele>616</ele>
        <time>2024-12-08T00:23:28.620Z</time>
      </trkpt>
      <trkpt lat="45.88181" lon="3.61845">
        <ele>617</ele>
        <time>2024-12-08T00:23:29.619Z</time>
      </trkpt>
      <trkpt lat="45.88181" lon="3.61847">
        <ele>618</ele>
        <time>2024-12-08T00:23:30.620Z</time>
      </trkpt>
      <trkpt lat="45.88181" lon="3.61849">
        <ele>618</ele>
        <time>2024-12-08T00:23:31.619Z</time>
      </trkpt>
      <trkpt lat="45.88181" lon="3.61851">
        <ele>619</ele>
        <time>2024-12-08T00:23:32.620Z</time>
      </trkpt>
      <trkpt lat="45.8818" lon="3.61852">
        <ele>619</ele>
        <time>2024-12-08T00:23:33.619Z</time>
      </trkpt>
      <trkpt lat="45.8818" lon="3.61854">
        <ele>619</ele>
        <time>2024-12-08T00:23:34.620Z</time>
      </trkpt>
      <trkpt lat="45.88179" lon="3.61856">
        <ele>619</ele>
        <time>2024-12-08T00:23:35.620Z</time>
      </trkpt>
      <trkpt lat="45.88179" lon="3.61858">
        <ele>619</ele>
        <time>2024-12-08T00:23:36.619Z</time>
      </trkpt>
      <trkpt lat="45.88178" lon="3.61859">
        <ele>619</ele>
        <time>2024-12-08T00:23:37.619Z</time>
      </trkpt>
      <trkpt lat="45.88177" lon="3.6186">
        <ele>619</ele>
        <time>2024-12-08T00:23:38.620Z</time>
      </trkpt>
      <trkpt lat="45.88177" lon="3.61862">
        <ele>619</ele>
        <time>2024-12-08T00:23:39.620Z</time>
      </trkpt>
      <trkpt lat="45.88176" lon="3.61863">
        <ele>619</ele>
        <time>2024-12-08T00:23:40.620Z</time>
      </trkpt>
      <trkpt lat="45.88175" lon="3.61865">
        <ele>619</ele>
        <time>2024-12-08T00:23:41.619Z</time>
      </trkpt>
      <trkpt lat="45.88175" lon="3.61866">
        <ele>619</ele>
        <time>2024-12-08T00:23:42.619Z</time>
      </trkpt>
      <trkpt lat="45.88174" lon="3.61868">
        <ele>619</ele>
        <time>2024-12-08T00:23:43.620Z</time>
      </trkpt>
      <trkpt lat="45.88173" lon="3.6187">
        <ele>619</ele>
        <time>2024-12-08T00:23:44.619Z</time>
      </trkpt>
      <trkpt lat="45.88171" lon="3.61871">
        <ele>619</ele>
        <time>2024-12-08T00:23:45.619Z</time>
      </trkpt>
      <trkpt lat="45.8817" lon="3.61872">
        <ele>618</ele>
        <time>2024-12-08T00:23:46.619Z</time>
      </trkpt>
      <trkpt lat="45.88169" lon="3.61874">
        <ele>618</ele>
        <time>2024-12-08T00:23:47.619Z</time>
      </trkpt>
      <trkpt lat="45.88169" lon="3.61875">
        <ele>617</ele>
        <time>2024-12-08T00:23:48.619Z</time>
      </trkpt>
      <trkpt lat="45.88168" lon="3.61877">
        <ele>617</ele>
        <time>2024-12-08T00:23:49.619Z</time>
      </trkpt>
      <trkpt lat="45.88167" lon="3.61879">
        <ele>616</ele>
        <time>2024-12-08T00:23:50.619Z</time>
      </trkpt>
      <trkpt lat="45.88166" lon="3.6188">
        <ele>616</ele>
        <time>2024-12-08T00:23:51.619Z</time>
      </trkpt>
      <trkpt lat="45.88165" lon="3.61882">
        <ele>616</ele>
        <time>2024-12-08T00:23:52.620Z</time>
      </trkpt>
      <trkpt lat="45.88164" lon="3.61884">
        <ele>615</ele>
        <time>2024-12-08T00:23:53.620Z</time>
      </trkpt>
      <trkpt lat="45.88163" lon="3.61885">
        <ele>615</ele>
        <time>2024-12-08T00:23:54.619Z</time>
      </trkpt>
      <trkpt lat="45.88163" lon="3.61886">
        <ele>615</ele>
        <time>2024-12-08T00:23:55.620Z</time>
      </trkpt>
      <trkpt lat="45.88162" lon="3.61887">
        <ele>614</ele>
        <time>2024-12-08T00:23:56.620Z</time>
      </trkpt>
      <trkpt lat="45.88161" lon="3.61889">
        <ele>615</ele>
        <time>2024-12-08T00:23:57.619Z</time>
      </trkpt>
      <trkpt lat="45.8816" lon="3.61891">
        <ele>614</ele>
        <time>2024-12-08T00:23:58.620Z</time>
      </trkpt>
      <trkpt lat="45.88159" lon="3.61893">
        <ele>615</ele>
        <time>2024-12-08T00:23:59.620Z</time>
      </trkpt>
      <trkpt lat="45.88158" lon="3.61895">
        <ele>614</ele>
        <time>2024-12-08T00:24:00.620Z</time>
      </trkpt>
      <trkpt lat="45.88158" lon="3.61896">
        <ele>614</ele>
        <time>2024-12-08T00:24:01.619Z</time>
      </trkpt>
      <trkpt lat="45.88156" lon="3.61897">
        <ele>614</ele>
        <time>2024-12-08T00:24:02.619Z</time>
      </trkpt>
      <trkpt lat="45.88155" lon="3.61899">
        <ele>614</ele>
        <time>2024-12-08T00:24:03.619Z</time>
      </trkpt>
      <trkpt lat="45.88154" lon="3.61901">
        <ele>614</ele>
        <time>2024-12-08T00:24:04.619Z</time>
      </trkpt>
      <trkpt lat="45.88152" lon="3.61903">
        <ele>614</ele>
        <time>2024-12-08T00:24:05.619Z</time>
      </trkpt>
      <trkpt lat="45.88151" lon="3.61905">
        <ele>615</ele>
        <time>2024-12-08T00:24:06.619Z</time>
      </trkpt>
      <trkpt lat="45.88151" lon="3.61906">
        <ele>615</ele>
        <time>2024-12-08T00:24:07.619Z</time>
      </trkpt>
      <trkpt lat="45.8815" lon="3.61908">
        <ele>616</ele>
        <time>2024-12-08T00:24:08.619Z</time>
      </trkpt>
      <trkpt lat="45.8815" lon="3.6191">
        <ele>616</ele>
        <time>2024-12-08T00:24:09.620Z</time>
      </trkpt>
      <trkpt lat="45.88149" lon="3.61911">
        <ele>616</ele>
        <time>2024-12-08T00:24:10.619Z</time>
      </trkpt>
      <trkpt lat="45.88148" lon="3.61913">
        <ele>616</ele>
        <time>2024-12-08T00:24:11.619Z</time>
      </trkpt>
      <trkpt lat="45.88147" lon="3.61914">
        <ele>616</ele>
        <time>2024-12-08T00:24:12.619Z</time>
      </trkpt>
      <trkpt lat="45.88146" lon="3.61915">
        <ele>617</ele>
        <time>2024-12-08T00:24:13.620Z</time>
      </trkpt>
      <trkpt lat="45.88145" lon="3.61916">
        <ele>617</ele>
        <time>2024-12-08T00:24:14.619Z</time>
      </trkpt>
      <trkpt lat="45.88145" lon="3.61918">
        <ele>617</ele>
        <time>2024-12-08T00:24:15.620Z</time>
      </trkpt>
      <trkpt lat="45.88144" lon="3.6192">
        <ele>617</ele>
        <time>2024-12-08T00:24:16.619Z</time>
      </trkpt>
      <trkpt lat="45.88143" lon="3.61921">
        <ele>617</ele>
        <time>2024-12-08T00:24:17.620Z</time>
      </trkpt>
      <trkpt lat="45.88142" lon="3.61923">
        <ele>617</ele>
        <time>2024-12-08T00:24:18.619Z</time>
      </trkpt>
      <trkpt lat="45.88141" lon="3.61924">
        <ele>617</ele>
        <time>2024-12-08T00:24:19.619Z</time>
      </trkpt>
      <trkpt lat="45.8814" lon="3.61925">
        <ele>617</ele>
        <time>2024-12-08T00:24:20.619Z</time>
      </trkpt>
      <trkpt lat="45.88139" lon="3.61927">
        <ele>618</ele>
        <time>2024-12-08T00:24:21.619Z</time>
      </trkpt>
      <trkpt lat="45.88138" lon="3.61929">
        <ele>618</ele>
        <time>2024-12-08T00:24:22.620Z</time>
      </trkpt>
      <trkpt lat="45.88137" lon="3.61931">
        <ele>618</ele>
        <time>2024-12-08T00:24:23.619Z</time>
      </trkpt>
      <trkpt lat="45.88136" lon="3.61933">
        <ele>618</ele>
        <time>2024-12-08T00:24:24.619Z</time>
      </trkpt>
      <trkpt lat="45.88135" lon="3.61935">
        <ele>618</ele>
        <time>2024-12-08T00:24:25.619Z</time>
      </trkpt>
      <trkpt lat="45.88134" lon="3.61936">
        <ele>618</ele>
        <time>2024-12-08T00:24:26.619Z</time>
      </trkpt>
      <trkpt lat="45.88133" lon="3.61938">
        <ele>618</ele>
        <time>2024-12-08T00:24:27.619Z</time>
      </trkpt>
      <trkpt lat="45.88132" lon="3.61939">
        <ele>618</ele>
        <time>2024-12-08T00:24:28.619Z</time>
      </trkpt>
      <trkpt lat="45.88131" lon="3.6194">
        <ele>619</ele>
        <time>2024-12-08T00:24:29.620Z</time>
      </trkpt>
      <trkpt lat="45.8813" lon="3.61942">
        <ele>619</ele>
        <time>2024-12-08T00:24:30.619Z</time>
      </trkpt>
      <trkpt lat="45.88129" lon="3.61944">
        <ele>619</ele>
        <time>2024-12-08T00:24:31.620Z</time>
      </trkpt>
      <trkpt lat="45.88128" lon="3.61945">
        <ele>619</ele>
        <time>2024-12-08T00:24:32.619Z</time>
      </trkpt>
      <trkpt lat="45.88127" lon="3.61947">
        <ele>619</ele>
        <time>2024-12-08T00:24:33.619Z</time>
      </trkpt>
      <trkpt lat="45.88126" lon="3.61948">
        <ele>619</ele>
        <time>2024-12-08T00:24:34.619Z</time>
      </trkpt>
      <trkpt lat="45.88125" lon="3.6195">
        <ele>618</ele>
        <time>2024-12-08T00:24:35.619Z</time>
      </trkpt>
      <trkpt lat="45.88124" lon="3.61952">
        <ele>618</ele>
        <time>2024-12-08T00:24:36.620Z</time>
      </trkpt>
      <trkpt lat="45.88123" lon="3.61953">
        <ele>618</ele>
        <time>2024-12-08T00:24:37.619Z</time>
      </trkpt>
      <trkpt lat="45.88122" lon="3.61955">
        <ele>618</ele>
        <time>2024-12-08T00:24:38.619Z</time>
      </trkpt>
      <trkpt lat="45.88121" lon="3.61957">
        <ele>618</ele>
        <time>2024-12-08T00:24:39.619Z</time>
      </trkpt>
      <trkpt lat="45.8812" lon="3.61958">
        <ele>618</ele>
        <time>2024-12-08T00:24:40.620Z</time>
      </trkpt>
      <trkpt lat="45.88119" lon="3.6196">
        <ele>619</ele>
        <time>2024-12-08T00:24:41.619Z</time>
      </trkpt>
      <trkpt lat="45.88118" lon="3.61961">
        <ele>619</ele>
        <time>2024-12-08T00:24:42.620Z</time>
      </trkpt>
      <trkpt lat="45.88117" lon="3.61963">
        <ele>619</ele>
        <time>2024-12-08T00:24:43.620Z</time>
      </trkpt>
      <trkpt lat="45.88116" lon="3.61965">
        <ele>620</ele>
        <time>2024-12-08T00:24:44.620Z</time>
      </trkpt>
      <trkpt lat="45.88115" lon="3.61967">
        <ele>620</ele>
        <time>2024-12-08T00:24:45.620Z</time>
      </trkpt>
      <trkpt lat="45.88114" lon="3.61969">
        <ele>620</ele>
        <time>2024-12-08T00:24:46.619Z</time>
      </trkpt>
      <trkpt lat="45.88114" lon="3.6197">
        <ele>620</ele>
        <time>2024-12-08T00:24:47.620Z</time>
      </trkpt>
      <trkpt lat="45.88112" lon="3.61973">
        <ele>620</ele>
        <time>2024-12-08T00:24:48.620Z</time>
      </trkpt>
      <trkpt lat="45.88112" lon="3.61975">
        <ele>620</ele>
        <time>2024-12-08T00:24:49.620Z</time>
      </trkpt>
      <trkpt lat="45.88111" lon="3.61976">
        <ele>620</ele>
        <time>2024-12-08T00:24:50.620Z</time>
      </trkpt>
      <trkpt lat="45.8811" lon="3.61978">
        <ele>620</ele>
        <time>2024-12-08T00:24:51.620Z</time>
      </trkpt>
      <trkpt lat="45.88109" lon="3.6198">
        <ele>621</ele>
        <time>2024-12-08T00:24:52.620Z</time>
      </trkpt>
      <trkpt lat="45.88108" lon="3.61982">
        <ele>621</ele>
        <time>2024-12-08T00:24:53.620Z</time>
      </trkpt>
      <trkpt lat="45.88107" lon="3.61984">
        <ele>622</ele>
        <time>2024-12-08T00:24:54.620Z</time>
      </trkpt>
      <trkpt lat="45.88106" lon="3.61986">
        <ele>622</ele>
        <time>2024-12-08T00:24:55.619Z</time>
      </trkpt>
      <trkpt lat="45.88105" lon="3.61988">
        <ele>622</ele>
        <time>2024-12-08T00:24:56.620Z</time>
      </trkpt>
      <trkpt lat="45.88104" lon="3.6199">
        <ele>622</ele>
        <time>2024-12-08T00:24:57.620Z</time>
      </trkpt>
      <trkpt lat="45.88103" lon="3.61992">
        <ele>622</ele>
        <time>2024-12-08T00:24:58.620Z</time>
      </trkpt>
      <trkpt lat="45.88103" lon="3.61995">
        <ele>622</ele>
        <time>2024-12-08T00:24:59.620Z</time>
      </trkpt>
      <trkpt lat="45.88102" lon="3.61997">
        <ele>622</ele>
        <time>2024-12-08T00:25:00.619Z</time>
      </trkpt>
      <trkpt lat="45.88102" lon="3.61999">
        <ele>622</ele>
        <time>2024-12-08T00:25:01.620Z</time>
      </trkpt>
      <trkpt lat="45.88103" lon="3.62002">
        <ele>622</ele>
        <time>2024-12-08T00:25:02.620Z</time>
      </trkpt>
      <trkpt lat="45.88103" lon="3.62004">
        <ele>622</ele>
        <time>2024-12-08T00:25:03.620Z</time>
      </trkpt>
      <trkpt lat="45.88104" lon="3.62007">
        <ele>622</ele>
        <time>2024-12-08T00:25:04.620Z</time>
      </trkpt>
      <trkpt lat="45.88106" lon="3.62009">
        <ele>622</ele>
        <time>2024-12-08T00:25:05.620Z</time>
      </trkpt>
      <trkpt lat="45.88107" lon="3.62011">
        <ele>623</ele>
        <time>2024-12-08T00:25:06.620Z</time>
      </trkpt>
      <trkpt lat="45.88109" lon="3.62013">
        <ele>623</ele>
        <time>2024-12-08T00:25:07.620Z</time>
      </trkpt>
      <trkpt lat="45.8811" lon="3.62015">
        <ele>623</ele>
        <time>2024-12-08T00:25:08.620Z</time>
      </trkpt>
      <trkpt lat="45.88112" lon="3.62016">
        <ele>623</ele>
        <time>2024-12-08T00:25:09.619Z</time>
      </trkpt>
      <trkpt lat="45.88113" lon="3.62018">
        <ele>623</ele>
        <time>2024-12-08T00:25:10.619Z</time>
      </trkpt>
      <trkpt lat="45.88114" lon="3.6202">
        <ele>623</ele>
        <time>2024-12-08T00:25:11.619Z</time>
      </trkpt>
      <trkpt lat="45.88116" lon="3.62021">
        <ele>623</ele>
        <time>2024-12-08T00:25:12.620Z</time>
      </trkpt>
      <trkpt lat="45.88117" lon="3.62023">
        <ele>623</ele>
        <time>2024-12-08T00:25:13.620Z</time>
      </trkpt>
      <trkpt lat="45.88118" lon="3.62025">
        <ele>623</ele>
        <time>2024-12-08T00:25:14.620Z</time>
      </trkpt>
      <trkpt lat="45.88119" lon="3.62027">
        <ele>623</ele>
        <time>2024-12-08T00:25:15.620Z</time>
      </trkpt>
      <trkpt lat="45.88121" lon="3.62029">
        <ele>623</ele>
        <time>2024-12-08T00:25:16.619Z</time>
      </trkpt>
      <trkpt lat="45.88122" lon="3.62031">
        <ele>623</ele>
        <time>2024-12-08T00:25:17.620Z</time>
      </trkpt>
      <trkpt lat="45.88124" lon="3.62033">
        <ele>623</ele>
        <time>2024-12-08T00:25:18.619Z</time>
      </trkpt>
      <trkpt lat="45.88125" lon="3.62035">
        <ele>623</ele>
        <time>2024-12-08T00:25:19.619Z</time>
      </trkpt>
      <trkpt lat="45.88127" lon="3.62036">
        <ele>623</ele>
        <time>2024-12-08T00:25:20.619Z</time>
      </trkpt>
      <trkpt lat="45.88128" lon="3.62038">
        <ele>624</ele>
        <time>2024-12-08T00:25:21.619Z</time>
      </trkpt>
      <trkpt lat="45.88129" lon="3.62039">
        <ele>624</ele>
        <time>2024-12-08T00:25:22.620Z</time>
      </trkpt>
      <trkpt lat="45.8813" lon="3.62041">
        <ele>624</ele>
        <time>2024-12-08T00:25:23.619Z</time>
      </trkpt>
      <trkpt lat="45.88131" lon="3.62043">
        <ele>624</ele>
        <time>2024-12-08T00:25:24.619Z</time>
      </trkpt>
      <trkpt lat="45.88133" lon="3.62044">
        <ele>624</ele>
        <time>2024-12-08T00:25:25.620Z</time>
      </trkpt>
      <trkpt lat="45.88134" lon="3.62045">
        <ele>625</ele>
        <time>2024-12-08T00:25:26.620Z</time>
      </trkpt>
      <trkpt lat="45.88136" lon="3.62046">
        <ele>625</ele>
        <time>2024-12-08T00:25:27.620Z</time>
      </trkpt>
      <trkpt lat="45.88138" lon="3.62046">
        <ele>625</ele>
        <time>2024-12-08T00:25:28.619Z</time>
      </trkpt>
      <trkpt lat="45.88139" lon="3.62048">
        <ele>625</ele>
        <time>2024-12-08T00:25:29.620Z</time>
      </trkpt>
      <trkpt lat="45.88141" lon="3.62049">
        <ele>625</ele>
        <time>2024-12-08T00:25:30.619Z</time>
      </trkpt>
      <trkpt lat="45.88143" lon="3.6205">
        <ele>625</ele>
        <time>2024-12-08T00:25:31.619Z</time>
      </trkpt>
      <trkpt lat="45.88145" lon="3.6205">
        <ele>625</ele>
        <time>2024-12-08T00:25:32.620Z</time>
      </trkpt>
      <trkpt lat="45.88147" lon="3.62051">
        <ele>625</ele>
        <time>2024-12-08T00:25:33.619Z</time>
      </trkpt>
      <trkpt lat="45.88149" lon="3.62052">
        <ele>625</ele>
        <time>2024-12-08T00:25:34.620Z</time>
      </trkpt>
      <trkpt lat="45.88151" lon="3.62053">
        <ele>625</ele>
        <time>2024-12-08T00:25:35.619Z</time>
      </trkpt>
      <trkpt lat="45.88153" lon="3.62054">
        <ele>624</ele>
        <time>2024-12-08T00:25:36.620Z</time>
      </trkpt>
      <trkpt lat="45.88155" lon="3.62055">
        <ele>624</ele>
        <time>2024-12-08T00:25:37.619Z</time>
      </trkpt>
      <trkpt lat="45.88156" lon="3.62055">
        <ele>624</ele>
        <time>2024-12-08T00:25:38.620Z</time>
      </trkpt>
      <trkpt lat="45.88158" lon="3.62056">
        <ele>624</ele>
        <time>2024-12-08T00:25:39.620Z</time>
      </trkpt>
      <trkpt lat="45.88159" lon="3.62057">
        <ele>623</ele>
        <time>2024-12-08T00:25:40.619Z</time>
      </trkpt>
      <trkpt lat="45.88161" lon="3.62057">
        <ele>623</ele>
        <time>2024-12-08T00:25:41.619Z</time>
      </trkpt>
      <trkpt lat="45.88162" lon="3.62058">
        <ele>623</ele>
        <time>2024-12-08T00:25:42.619Z</time>
      </trkpt>
      <trkpt lat="45.88164" lon="3.62059">
        <ele>623</ele>
        <time>2024-12-08T00:25:43.620Z</time>
      </trkpt>
      <trkpt lat="45.88165" lon="3.62059">
        <ele>623</ele>
        <time>2024-12-08T00:25:44.619Z</time>
      </trkpt>
      <trkpt lat="45.88167" lon="3.6206">
        <ele>623</ele>
        <time>2024-12-08T00:25:45.619Z</time>
      </trkpt>
      <trkpt lat="45.88169" lon="3.6206">
        <ele>623</ele>
        <time>2024-12-08T00:25:46.619Z</time>
      </trkpt>
      <trkpt lat="45.8817" lon="3.62061">
        <ele>623</ele>
        <time>2024-12-08T00:25:47.620Z</time>
      </trkpt>
      <trkpt lat="45.88172" lon="3.62062">
        <ele>623</ele>
        <time>2024-12-08T00:25:48.620Z</time>
      </trkpt>
      <trkpt lat="45.88174" lon="3.62062">
        <ele>623</ele>
        <time>2024-12-08T00:25:49.620Z</time>
      </trkpt>
      <trkpt lat="45.88176" lon="3.62063">
        <ele>623</ele>
        <time>2024-12-08T00:25:50.620Z</time>
      </trkpt>
      <trkpt lat="45.88178" lon="3.62064">
        <ele>623</ele>
        <time>2024-12-08T00:25:51.619Z</time>
      </trkpt>
      <trkpt lat="45.8818" lon="3.62065">
        <ele>623</ele>
        <time>2024-12-08T00:25:52.620Z</time>
      </trkpt>
      <trkpt lat="45.88182" lon="3.62066">
        <ele>622</ele>
        <time>2024-12-08T00:25:53.619Z</time>
      </trkpt>
      <trkpt lat="45.88183" lon="3.62067">
        <ele>622</ele>
        <time>2024-12-08T00:25:54.619Z</time>
      </trkpt>
      <trkpt lat="45.88185" lon="3.62067">
        <ele>623</ele>
        <time>2024-12-08T00:25:55.619Z</time>
      </trkpt>
      <trkpt lat="45.88187" lon="3.62068">
        <ele>623</ele>
        <time>2024-12-08T00:25:56.619Z</time>
      </trkpt>
      <trkpt lat="45.88189" lon="3.62069">
        <ele>623</ele>
        <time>2024-12-08T00:25:57.619Z</time>
      </trkpt>
      <trkpt lat="45.88191" lon="3.6207">
        <ele>624</ele>
        <time>2024-12-08T00:25:58.620Z</time>
      </trkpt>
      <trkpt lat="45.88193" lon="3.62071">
        <ele>624</ele>
        <time>2024-12-08T00:25:59.620Z</time>
      </trkpt>
      <trkpt lat="45.88194" lon="3.62071">
        <ele>624</ele>
        <time>2024-12-08T00:26:00.620Z</time>
      </trkpt>
      <trkpt lat="45.88196" lon="3.62072">
        <ele>624</ele>
        <time>2024-12-08T00:26:01.619Z</time>
      </trkpt>
      <trkpt lat="45.88198" lon="3.62073">
        <ele>624</ele>
        <time>2024-12-08T00:26:02.620Z</time>
      </trkpt>
      <trkpt lat="45.88199" lon="3.62074">
        <ele>624</ele>
        <time>2024-12-08T00:26:03.619Z</time>
      </trkpt>
      <trkpt lat="45.88201" lon="3.62074">
        <ele>624</ele>
        <time>2024-12-08T00:26:04.620Z</time>
      </trkpt>
      <trkpt lat="45.88203" lon="3.62075">
        <ele>624</ele>
        <time>2024-12-08T00:26:05.620Z</time>
      </trkpt>
      <trkpt lat="45.88204" lon="3.62075">
        <ele>625</ele>
        <time>2024-12-08T00:26:06.619Z</time>
      </trkpt>
      <trkpt lat="45.88206" lon="3.62077">
        <ele>625</ele>
        <time>2024-12-08T00:26:07.620Z</time>
      </trkpt>
      <trkpt lat="45.88208" lon="3.62078">
        <ele>625</ele>
        <time>2024-12-08T00:26:08.619Z</time>
      </trkpt>
      <trkpt lat="45.88209" lon="3.6208">
        <ele>625</ele>
        <time>2024-12-08T00:26:09.620Z</time>
      </trkpt>
      <trkpt lat="45.88209" lon="3.62082">
        <ele>626</ele>
        <time>2024-12-08T00:26:10.619Z</time>
      </trkpt>
      <trkpt lat="45.88209" lon="3.62085">
        <ele>626</ele>
        <time>2024-12-08T00:26:11.620Z</time>
      </trkpt>
      <trkpt lat="45.88209" lon="3.62087">
        <ele>625</ele>
        <time>2024-12-08T00:26:12.620Z</time>
      </trkpt>
      <trkpt lat="45.88209" lon="3.6209">
        <ele>625</ele>
        <time>2024-12-08T00:26:13.620Z</time>
      </trkpt>
      <trkpt lat="45.88209" lon="3.62092">
        <ele>625</ele>
        <time>2024-12-08T00:26:14.619Z</time>
      </trkpt>
      <trkpt lat="45.88208" lon="3.62095">
        <ele>625</ele>
        <time>2024-12-08T00:26:15.620Z</time>
      </trkpt>
      <trkpt lat="45.88208" lon="3.62097">
        <ele>626</ele>
        <time>2024-12-08T00:26:16.620Z</time>
      </trkpt>
      <trkpt lat="45.88208" lon="3.621">
        <ele>626</ele>
        <time>2024-12-08T00:26:17.619Z</time>
      </trkpt>
      <trkpt lat="45.88208" lon="3.62102">
        <ele>626</ele>
        <time>2024-12-08T00:26:18.620Z</time>
      </trkpt>
      <trkpt lat="45.88207" lon="3.62105">
        <ele>626</ele>
        <time>2024-12-08T00:26:19.619Z</time>
      </trkpt>
      <trkpt lat="45.88207" lon="3.62107">
        <ele>626</ele>
        <time>2024-12-08T00:26:20.620Z</time>
      </trkpt>
      <trkpt lat="45.88207" lon="3.6211">
        <ele>627</ele>
        <time>2024-12-08T00:26:21.619Z</time>
      </trkpt>
      <trkpt lat="45.88206" lon="3.62112">
        <ele>627</ele>
        <time>2024-12-08T00:26:22.620Z</time>
      </trkpt>
      <trkpt lat="45.88206" lon="3.62115">
        <ele>626</ele>
        <time>2024-12-08T00:26:23.619Z</time>
      </trkpt>
      <trkpt lat="45.88206" lon="3.62117">
        <ele>626</ele>
        <time>2024-12-08T00:26:24.620Z</time>
      </trkpt>
      <trkpt lat="45.88206" lon="3.6212">
        <ele>627</ele>
        <time>2024-12-08T00:26:25.619Z</time>
      </trkpt>
      <trkpt lat="45.88205" lon="3.62123">
        <ele>627</ele>
        <time>2024-12-08T00:26:26.620Z</time>
      </trkpt>
      <trkpt lat="45.88205" lon="3.62126">
        <ele>626</ele>
        <time>2024-12-08T00:26:27.620Z</time>
      </trkpt>
      <trkpt lat="45.88204" lon="3.62128">
        <ele>626</ele>
        <time>2024-12-08T00:26:28.620Z</time>
      </trkpt>
      <trkpt lat="45.88204" lon="3.62131">
        <ele>626</ele>
        <time>2024-12-08T00:26:29.620Z</time>
      </trkpt>
      <trkpt lat="45.88204" lon="3.62133">
        <ele>626</ele>
        <time>2024-12-08T00:26:30.619Z</time>
      </trkpt>
      <trkpt lat="45.88203" lon="3.62136">
        <ele>626</ele>
        <time>2024-12-08T00:26:31.619Z</time>
      </trkpt>
      <trkpt lat="45.88203" lon="3.62138">
        <ele>626</ele>
        <time>2024-12-08T00:26:32.619Z</time>
      </trkpt>
      <trkpt lat="45.88203" lon="3.62141">
        <ele>626</ele>
        <time>2024-12-08T00:26:33.620Z</time>
      </trkpt>
      <trkpt lat="45.88202" lon="3.62143">
        <ele>627</ele>
        <time>2024-12-08T00:26:34.619Z</time>
      </trkpt>
      <trkpt lat="45.88202" lon="3.62145">
        <ele>627</ele>
        <time>2024-12-08T00:26:35.620Z</time>
      </trkpt>
      <trkpt lat="45.88202" lon="3.62148">
        <ele>627</ele>
        <time>2024-12-08T00:26:36.619Z</time>
      </trkpt>
      <trkpt lat="45.88202" lon="3.62151">
        <ele>627</ele>
        <time>2024-12-08T00:26:37.619Z</time>
      </trkpt>
      <trkpt lat="45.88202" lon="3.62153">
        <ele>627</ele>
        <time>2024-12-08T00:26:38.619Z</time>
      </trkpt>
      <trkpt lat="45.88201" lon="3.62156">
        <ele>627</ele>
        <time>2024-12-08T00:26:39.619Z</time>
      </trkpt>
      <trkpt lat="45.88201" lon="3.62158">
        <ele>627</ele>
        <time>2024-12-08T00:26:40.620Z</time>
      </trkpt>
      <trkpt lat="45.88201" lon="3.6216">
        <ele>626</ele>
        <time>2024-12-08T00:26:41.619Z</time>
      </trkpt>
      <trkpt lat="45.88201" lon="3.62163">
        <ele>626</ele>
        <time>2024-12-08T00:26:42.619Z</time>
      </trkpt>
      <trkpt lat="45.88201" lon="3.62165">
        <ele>626</ele>
        <time>2024-12-08T00:26:43.620Z</time>
      </trkpt>
      <trkpt lat="45.88201" lon="3.62168">
        <ele>626</ele>
        <time>2024-12-08T00:26:44.620Z</time>
      </trkpt>
      <trkpt lat="45.88201" lon="3.6217">
        <ele>626</ele>
        <time>2024-12-08T00:26:45.619Z</time>
      </trkpt>
      <trkpt lat="45.88201" lon="3.62173">
        <ele>626</ele>
        <time>2024-12-08T00:26:46.619Z</time>
      </trkpt>
      <trkpt lat="45.88202" lon="3.62176">
        <ele>626</ele>
        <time>2024-12-08T00:26:47.619Z</time>
      </trkpt>
      <trkpt lat="45.88202" lon="3.62178">
        <ele>627</ele>
        <time>2024-12-08T00:26:48.619Z</time>
      </trkpt>
      <trkpt lat="45.88203" lon="3.6218">
        <ele>627</ele>
        <time>2024-12-08T00:26:49.620Z</time>
      </trkpt>
      <trkpt lat="45.88203" lon="3.62183">
        <ele>627</ele>
        <time>2024-12-08T00:26:50.619Z</time>
      </trkpt>
      <trkpt lat="45.88204" lon="3.62185">
        <ele>627</ele>
        <time>2024-12-08T00:26:51.620Z</time>
      </trkpt>
      <trkpt lat="45.88205" lon="3.62187">
        <ele>627</ele>
        <time>2024-12-08T00:26:52.620Z</time>
      </trkpt>
      <trkpt lat="45.88206" lon="3.62189">
        <ele>627</ele>
        <time>2024-12-08T00:26:53.620Z</time>
      </trkpt>
      <trkpt lat="45.88207" lon="3.62191">
        <ele>627</ele>
        <time>2024-12-08T00:26:54.619Z</time>
      </trkpt>
      <trkpt lat="45.88208" lon="3.62193">
        <ele>628</ele>
        <time>2024-12-08T00:26:55.620Z</time>
      </trkpt>
      <trkpt lat="45.88209" lon="3.62196">
        <ele>628</ele>
        <time>2024-12-08T00:26:56.619Z</time>
      </trkpt>
      <trkpt lat="45.8821" lon="3.62198">
        <ele>628</ele>
        <time>2024-12-08T00:26:57.619Z</time>
      </trkpt>
      <trkpt lat="45.88211" lon="3.622">
        <ele>628</ele>
        <time>2024-12-08T00:26:58.620Z</time>
      </trkpt>
      <trkpt lat="45.88213" lon="3.62202">
        <ele>628</ele>
        <time>2024-12-08T00:26:59.619Z</time>
      </trkpt>
      <trkpt lat="45.88214" lon="3.62204">
        <ele>629</ele>
        <time>2024-12-08T00:27:00.620Z</time>
      </trkpt>
      <trkpt lat="45.88215" lon="3.62206">
        <ele>629</ele>
        <time>2024-12-08T00:27:01.619Z</time>
      </trkpt>
      <trkpt lat="45.88217" lon="3.62208">
        <ele>629</ele>
        <time>2024-12-08T00:27:02.620Z</time>
      </trkpt>
      <trkpt lat="45.88218" lon="3.6221">
        <ele>630</ele>
        <time>2024-12-08T00:27:03.619Z</time>
      </trkpt>
      <trkpt lat="45.88219" lon="3.62212">
        <ele>630</ele>
        <time>2024-12-08T00:27:04.620Z</time>
      </trkpt>
      <trkpt lat="45.8822" lon="3.62214">
        <ele>630</ele>
        <time>2024-12-08T00:27:05.619Z</time>
      </trkpt>
      <trkpt lat="45.88222" lon="3.62216">
        <ele>631</ele>
        <time>2024-12-08T00:27:06.619Z</time>
      </trkpt>
      <trkpt lat="45.88223" lon="3.62218">
        <ele>631</ele>
        <time>2024-12-08T00:27:07.619Z</time>
      </trkpt>
      <trkpt lat="45.88224" lon="3.62219">
        <ele>631</ele>
        <time>2024-12-08T00:27:08.620Z</time>
      </trkpt>
      <trkpt lat="45.88225" lon="3.62221">
        <ele>632</ele>
        <time>2024-12-08T00:27:09.619Z</time>
      </trkpt>
      <trkpt lat="45.88227" lon="3.62222">
        <ele>632</ele>
        <time>2024-12-08T00:27:10.619Z</time>
      </trkpt>
      <trkpt lat="45.88228" lon="3.62223">
        <ele>632</ele>
        <time>2024-12-08T00:27:11.619Z</time>
      </trkpt>
      <trkpt lat="45.8823" lon="3.62225">
        <ele>632</ele>
        <time>2024-12-08T00:27:12.619Z</time>
      </trkpt>
      <trkpt lat="45.88231" lon="3.62227">
        <ele>633</ele>
        <time>2024-12-08T00:27:13.619Z</time>
      </trkpt>
      <trkpt lat="45.88233" lon="3.62228">
        <ele>633</ele>
        <time>2024-12-08T00:27:14.619Z</time>
      </trkpt>
      <trkpt lat="45.88234" lon="3.6223">
        <ele>633</ele>
        <time>2024-12-08T00:27:15.619Z</time>
      </trkpt>
      <trkpt lat="45.88236" lon="3.62232">
        <ele>634</ele>
        <time>2024-12-08T00:27:16.620Z</time>
      </trkpt>
      <trkpt lat="45.88237" lon="3.62234">
        <ele>634</ele>
        <time>2024-12-08T00:27:17.620Z</time>
      </trkpt>
      <trkpt lat="45.88238" lon="3.62236">
        <ele>635</ele>
        <time>2024-12-08T00:27:18.620Z</time>
      </trkpt>
      <trkpt lat="45.8824" lon="3.62238">
        <ele>636</ele>
        <time>2024-12-08T00:27:19.619Z</time>
      </trkpt>
      <trkpt lat="45.88241" lon="3.6224">
        <ele>636</ele>
        <time>2024-12-08T00:27:20.620Z</time>
      </trkpt>
      <trkpt lat="45.88243" lon="3.62241">
        <ele>636</ele>
        <time>2024-12-08T00:27:21.620Z</time>
      </trkpt>
      <trkpt lat="45.88243" lon="3.62243">
        <ele>636</ele>
        <time>2024-12-08T00:27:22.619Z</time>
      </trkpt>
      <trkpt lat="45.88245" lon="3.62245">
        <ele>636</ele>
        <time>2024-12-08T00:27:23.620Z</time>
      </trkpt>
      <trkpt lat="45.88246" lon="3.62247">
        <ele>636</ele>
        <time>2024-12-08T00:27:24.620Z</time>
      </trkpt>
      <trkpt lat="45.88247" lon="3.62249">
        <ele>636</ele>
        <time>2024-12-08T00:27:25.620Z</time>
      </trkpt>
      <trkpt lat="45.88248" lon="3.6225">
        <ele>635</ele>
        <time>2024-12-08T00:27:26.619Z</time>
      </trkpt>
      <trkpt lat="45.88249" lon="3.62252">
        <ele>635</ele>
        <time>2024-12-08T00:27:27.620Z</time>
      </trkpt>
      <trkpt lat="45.8825" lon="3.62254">
        <ele>635</ele>
        <time>2024-12-08T00:27:28.619Z</time>
      </trkpt>
      <trkpt lat="45.88251" lon="3.62255">
        <ele>635</ele>
        <time>2024-12-08T00:27:29.620Z</time>
      </trkpt>
      <trkpt lat="45.88252" lon="3.62257">
        <ele>635</ele>
        <time>2024-12-08T00:27:30.620Z</time>
      </trkpt>
      <trkpt lat="45.88253" lon="3.62259">
        <ele>634</ele>
        <time>2024-12-08T00:27:31.619Z</time>
      </trkpt>
      <trkpt lat="45.88255" lon="3.62261">
        <ele>634</ele>
        <time>2024-12-08T00:27:32.620Z</time>
      </trkpt>
      <trkpt lat="45.88256" lon="3.62262">
        <ele>635</ele>
        <time>2024-12-08T00:27:33.619Z</time>
      </trkpt>
      <trkpt lat="45.88258" lon="3.62264">
        <ele>635</ele>
        <time>2024-12-08T00:27:34.620Z</time>
      </trkpt>
      <trkpt lat="45.8826" lon="3.62265">
        <ele>635</ele>
        <time>2024-12-08T00:27:35.619Z</time>
      </trkpt>
      <trkpt lat="45.88262" lon="3.62267">
        <ele>635</ele>
        <time>2024-12-08T00:27:36.620Z</time>
      </trkpt>
      <trkpt lat="45.88263" lon="3.6227">
        <ele>636</ele>
        <time>2024-12-08T00:27:37.619Z</time>
      </trkpt>
      <trkpt lat="45.88264" lon="3.62272">
        <ele>636</ele>
        <time>2024-12-08T00:27:38.620Z</time>
      </trkpt>
      <trkpt lat="45.88265" lon="3.62274">
        <ele>635</ele>
        <time>2024-12-08T00:27:39.619Z</time>
      </trkpt>
      <trkpt lat="45.88266" lon="3.62277">
        <ele>635</ele>
        <time>2024-12-08T00:27:40.620Z</time>
      </trkpt>
      <trkpt lat="45.88267" lon="3.62279">
        <ele>635</ele>
        <time>2024-12-08T00:27:41.620Z</time>
      </trkpt>
      <trkpt lat="45.88268" lon="3.62282">
        <ele>635</ele>
        <time>2024-12-08T00:27:42.620Z</time>
      </trkpt>
      <trkpt lat="45.88268" lon="3.62284">
        <ele>635</ele>
        <time>2024-12-08T00:27:43.619Z</time>
      </trkpt>
      <trkpt lat="45.88269" lon="3.62287">
        <ele>634</ele>
        <time>2024-12-08T00:27:44.619Z</time>
      </trkpt>
      <trkpt lat="45.8827" lon="3.62289">
        <ele>634</ele>
        <time>2024-12-08T00:27:45.619Z</time>
      </trkpt>
      <trkpt lat="45.88272" lon="3.62291">
        <ele>634</ele>
        <time>2024-12-08T00:27:46.620Z</time>
      </trkpt>
      <trkpt lat="45.88273" lon="3.62293">
        <ele>633</ele>
        <time>2024-12-08T00:27:47.619Z</time>
      </trkpt>
      <trkpt lat="45.88274" lon="3.62295">
        <ele>633</ele>
        <time>2024-12-08T00:27:48.619Z</time>
      </trkpt>
      <trkpt lat="45.88276" lon="3.62298">
        <ele>633</ele>
        <time>2024-12-08T00:27:49.620Z</time>
      </trkpt>
      <trkpt lat="45.88277" lon="3.623">
        <ele>633</ele>
        <time>2024-12-08T00:27:50.620Z</time>
      </trkpt>
      <trkpt lat="45.88278" lon="3.62303">
        <ele>633</ele>
        <time>2024-12-08T00:27:51.619Z</time>
      </trkpt>
      <trkpt lat="45.88278" lon="3.62305">
        <ele>632</ele>
        <time>2024-12-08T00:27:52.619Z</time>
      </trkpt>
      <trkpt lat="45.88279" lon="3.62308">
        <ele>632</ele>
        <time>2024-12-08T00:27:53.620Z</time>
      </trkpt>
      <trkpt lat="45.88279" lon="3.6231">
        <ele>633</ele>
        <time>2024-12-08T00:27:54.620Z</time>
      </trkpt>
      <trkpt lat="45.8828" lon="3.62313">
        <ele>633</ele>
        <time>2024-12-08T00:27:55.619Z</time>
      </trkpt>
      <trkpt lat="45.8828" lon="3.62315">
        <ele>633</ele>
        <time>2024-12-08T00:27:56.620Z</time>
      </trkpt>
      <trkpt lat="45.88281" lon="3.62317">
        <ele>634</ele>
        <time>2024-12-08T00:27:57.619Z</time>
      </trkpt>
      <trkpt lat="45.88281" lon="3.6232">
        <ele>634</ele>
        <time>2024-12-08T00:27:58.620Z</time>
      </trkpt>
      <trkpt lat="45.88281" lon="3.62322">
        <ele>634</ele>
        <time>2024-12-08T00:27:59.620Z</time>
      </trkpt>
      <trkpt lat="45.88282" lon="3.62325">
        <ele>634</ele>
        <time>2024-12-08T00:28:00.619Z</time>
      </trkpt>
      <trkpt lat="45.88282" lon="3.62327">
        <ele>633</ele>
        <time>2024-12-08T00:28:01.620Z</time>
      </trkpt>
      <trkpt lat="45.88283" lon="3.6233">
        <ele>633</ele>
        <time>2024-12-08T00:28:02.620Z</time>
      </trkpt>
      <trkpt lat="45.88283" lon="3.62333">
        <ele>632</ele>
        <time>2024-12-08T00:28:03.620Z</time>
      </trkpt>
      <trkpt lat="45.88284" lon="3.62335">
        <ele>632</ele>
        <time>2024-12-08T00:28:04.619Z</time>
      </trkpt>
      <trkpt lat="45.88284" lon="3.62338">
        <ele>631</ele>
        <time>2024-12-08T00:28:05.620Z</time>
      </trkpt>
      <trkpt lat="45.88285" lon="3.6234">
        <ele>631</ele>
        <time>2024-12-08T00:28:06.620Z</time>
      </trkpt>
      <trkpt lat="45.88285" lon="3.62343">
        <ele>631</ele>
        <time>2024-12-08T00:28:07.619Z</time>
      </trkpt>
      <trkpt lat="45.88286" lon="3.62345">
        <ele>631</ele>
        <time>2024-12-08T00:28:08.620Z</time>
      </trkpt>
      <trkpt lat="45.88286" lon="3.62348">
        <ele>631</ele>
        <time>2024-12-08T00:28:09.619Z</time>
      </trkpt>
      <trkpt lat="45.88286" lon="3.6235">
        <ele>631</ele>
        <time>2024-12-08T00:28:10.620Z</time>
      </trkpt>
      <trkpt lat="45.88286" lon="3.62353">
        <ele>631</ele>
        <time>2024-12-08T00:28:11.620Z</time>
      </trkpt>
      <trkpt lat="45.88286" lon="3.62356">
        <ele>631</ele>
        <time>2024-12-08T00:28:12.619Z</time>
      </trkpt>
      <trkpt lat="45.88286" lon="3.62359">
        <ele>631</ele>
        <time>2024-12-08T00:28:13.619Z</time>
      </trkpt>
      <trkpt lat="45.88286" lon="3.62362">
        <ele>631</ele>
        <time>2024-12-08T00:28:14.619Z</time>
      </trkpt>
      <trkpt lat="45.88286" lon="3.62364">
        <ele>632</ele>
        <time>2024-12-08T00:28:15.619Z</time>
      </trkpt>
      <trkpt lat="45.88287" lon="3.62367">
        <ele>632</ele>
        <time>2024-12-08T00:28:16.620Z</time>
      </trkpt>
      <trkpt lat="45.88287" lon="3.6237">
        <ele>631</ele>
        <time>2024-12-08T00:28:17.619Z</time>
      </trkpt>
      <trkpt lat="45.88287" lon="3.62372">
        <ele>631</ele>
        <time>2024-12-08T00:28:18.620Z</time>
      </trkpt>
      <trkpt lat="45.88287" lon="3.62374">
        <ele>630</ele>
        <time>2024-12-08T00:28:19.619Z</time>
      </trkpt>
      <trkpt lat="45.88287" lon="3.62377">
        <ele>630</ele>
        <time>2024-12-08T00:28:20.619Z</time>
      </trkpt>
      <trkpt lat="45.88287" lon="3.6238">
        <ele>630</ele>
        <time>2024-12-08T00:28:21.619Z</time>
      </trkpt>
      <trkpt lat="45.88288" lon="3.62383">
        <ele>629</ele>
        <time>2024-12-08T00:28:22.620Z</time>
      </trkpt>
      <trkpt lat="45.88287" lon="3.62386">
        <ele>629</ele>
        <time>2024-12-08T00:28:23.619Z</time>
      </trkpt>
      <trkpt lat="45.88287" lon="3.62389">
        <ele>629</ele>
        <time>2024-12-08T00:28:24.620Z</time>
      </trkpt>
      <trkpt lat="45.88288" lon="3.62391">
        <ele>629</ele>
        <time>2024-12-08T00:28:25.619Z</time>
      </trkpt>
      <trkpt lat="45.88288" lon="3.62394">
        <ele>628</ele>
        <time>2024-12-08T00:28:26.619Z</time>
      </trkpt>
      <trkpt lat="45.88288" lon="3.62397">
        <ele>628</ele>
        <time>2024-12-08T00:28:27.619Z</time>
      </trkpt>
      <trkpt lat="45.88288" lon="3.62399">
        <ele>628</ele>
        <time>2024-12-08T00:28:28.619Z</time>
      </trkpt>
      <trkpt lat="45.88288" lon="3.62402">
        <ele>628</ele>
        <time>2024-12-08T00:28:29.620Z</time>
      </trkpt>
      <trkpt lat="45.88288" lon="3.62405">
        <ele>628</ele>
        <time>2024-12-08T00:28:30.620Z</time>
      </trkpt>
      <trkpt lat="45.88288" lon="3.62407">
        <ele>628</ele>
        <time>2024-12-08T00:28:31.619Z</time>
      </trkpt>
      <trkpt lat="45.88287" lon="3.6241">
        <ele>628</ele>
        <time>2024-12-08T00:28:32.619Z</time>
      </trkpt>
      <trkpt lat="45.88287" lon="3.62413">
        <ele>629</ele>
        <time>2024-12-08T00:28:33.620Z</time>
      </trkpt>
      <trkpt lat="45.88287" lon="3.62416">
        <ele>629</ele>
        <time>2024-12-08T00:28:34.619Z</time>
      </trkpt>
      <trkpt lat="45.88286" lon="3.62419">
        <ele>628</ele>
        <time>2024-12-08T00:28:35.619Z</time>
      </trkpt>
      <trkpt lat="45.88286" lon="3.62422">
        <ele>628</ele>
        <time>2024-12-08T00:28:36.619Z</time>
      </trkpt>
      <trkpt lat="45.88286" lon="3.62424">
        <ele>628</ele>
        <time>2024-12-08T00:28:37.619Z</time>
      </trkpt>
      <trkpt lat="45.88285" lon="3.62427">
        <ele>628</ele>
        <time>2024-12-08T00:28:38.620Z</time>
      </trkpt>
      <trkpt lat="45.88285" lon="3.62429">
        <ele>628</ele>
        <time>2024-12-08T00:28:39.620Z</time>
      </trkpt>
      <trkpt lat="45.88285" lon="3.62432">
        <ele>627</ele>
        <time>2024-12-08T00:28:40.619Z</time>
      </trkpt>
      <trkpt lat="45.88284" lon="3.62434">
        <ele>627</ele>
        <time>2024-12-08T00:28:41.620Z</time>
      </trkpt>
      <trkpt lat="45.88284" lon="3.62437">
        <ele>627</ele>
        <time>2024-12-08T00:28:42.620Z</time>
      </trkpt>
      <trkpt lat="45.88283" lon="3.6244">
        <ele>627</ele>
        <time>2024-12-08T00:28:43.620Z</time>
      </trkpt>
      <trkpt lat="45.88283" lon="3.62443">
        <ele>628</ele>
        <time>2024-12-08T00:28:44.619Z</time>
      </trkpt>
      <trkpt lat="45.88282" lon="3.62445">
        <ele>627</ele>
        <time>2024-12-08T00:28:45.619Z</time>
      </trkpt>
      <trkpt lat="45.88282" lon="3.62448">
        <ele>627</ele>
        <time>2024-12-08T00:28:46.620Z</time>
      </trkpt>
      <trkpt lat="45.88282" lon="3.6245">
        <ele>626</ele>
        <time>2024-12-08T00:28:47.619Z</time>
      </trkpt>
      <trkpt lat="45.88282" lon="3.62453">
        <ele>626</ele>
        <time>2024-12-08T00:28:48.620Z</time>
      </trkpt>
      <trkpt lat="45.88281" lon="3.62456">
        <ele>626</ele>
        <time>2024-12-08T00:28:49.619Z</time>
      </trkpt>
      <trkpt lat="45.88281" lon="3.62458">
        <ele>625</ele>
        <time>2024-12-08T00:28:50.619Z</time>
      </trkpt>
      <trkpt lat="45.88281" lon="3.62461">
        <ele>625</ele>
        <time>2024-12-08T00:28:51.620Z</time>
      </trkpt>
      <trkpt lat="45.8828" lon="3.62464">
        <ele>625</ele>
        <time>2024-12-08T00:28:52.619Z</time>
      </trkpt>
      <trkpt lat="45.88279" lon="3.62466">
        <ele>624</ele>
        <time>2024-12-08T00:28:53.619Z</time>
      </trkpt>
      <trkpt lat="45.88278" lon="3.62468">
        <ele>624</ele>
        <time>2024-12-08T00:28:54.619Z</time>
      </trkpt>
      <trkpt lat="45.88277" lon="3.6247">
        <ele>623</ele>
        <time>2024-12-08T00:28:55.619Z</time>
      </trkpt>
      <trkpt lat="45.88276" lon="3.62473">
        <ele>623</ele>
        <time>2024-12-08T00:28:56.620Z</time>
      </trkpt>
      <trkpt lat="45.88275" lon="3.62475">
        <ele>623</ele>
        <time>2024-12-08T00:28:57.620Z</time>
      </trkpt>
      <trkpt lat="45.88273" lon="3.62477">
        <ele>623</ele>
        <time>2024-12-08T00:28:58.619Z</time>
      </trkpt>
      <trkpt lat="45.88272" lon="3.62479">
        <ele>623</ele>
        <time>2024-12-08T00:28:59.619Z</time>
      </trkpt>
      <trkpt lat="45.88271" lon="3.62482">
        <ele>624</ele>
        <time>2024-12-08T00:29:00.619Z</time>
      </trkpt>
      <trkpt lat="45.88269" lon="3.62484">
        <ele>624</ele>
        <time>2024-12-08T00:29:01.619Z</time>
      </trkpt>
      <trkpt lat="45.88268" lon="3.62486">
        <ele>624</ele>
        <time>2024-12-08T00:29:02.620Z</time>
      </trkpt>
      <trkpt lat="45.88266" lon="3.62489">
        <ele>624</ele>
        <time>2024-12-08T00:29:03.620Z</time>
      </trkpt>
      <trkpt lat="45.88265" lon="3.62491">
        <ele>624</ele>
        <time>2024-12-08T00:29:04.619Z</time>
      </trkpt>
      <trkpt lat="45.88264" lon="3.62493">
        <ele>625</ele>
        <time>2024-12-08T00:29:05.620Z</time>
      </trkpt>
      <trkpt lat="45.88262" lon="3.62495">
        <ele>625</ele>
        <time>2024-12-08T00:29:06.619Z</time>
      </trkpt>
      <trkpt lat="45.88261" lon="3.62497">
        <ele>625</ele>
        <time>2024-12-08T00:29:07.619Z</time>
      </trkpt>
      <trkpt lat="45.8826" lon="3.62499">
        <ele>625</ele>
        <time>2024-12-08T00:29:08.620Z</time>
      </trkpt>
      <trkpt lat="45.88258" lon="3.62501">
        <ele>625</ele>
        <time>2024-12-08T00:29:09.620Z</time>
      </trkpt>
      <trkpt lat="45.88257" lon="3.62503">
        <ele>625</ele>
        <time>2024-12-08T00:29:10.620Z</time>
      </trkpt>
      <trkpt lat="45.88255" lon="3.62505">
        <ele>624</ele>
        <time>2024-12-08T00:29:11.619Z</time>
      </trkpt>
      <trkpt lat="45.88254" lon="3.62506">
        <ele>624</ele>
        <time>2024-12-08T00:29:12.620Z</time>
      </trkpt>
      <trkpt lat="45.88252" lon="3.62508">
        <ele>623</ele>
        <time>2024-12-08T00:29:13.620Z</time>
      </trkpt>
      <trkpt lat="45.88251" lon="3.6251">
        <ele>623</ele>
        <time>2024-12-08T00:29:14.619Z</time>
      </trkpt>
      <trkpt lat="45.8825" lon="3.62512">
        <ele>623</ele>
        <time>2024-12-08T00:29:15.620Z</time>
      </trkpt>
      <trkpt lat="45.88248" lon="3.62514">
        <ele>622</ele>
        <time>2024-12-08T00:29:16.619Z</time>
      </trkpt>
      <trkpt lat="45.88247" lon="3.62515">
        <ele>622</ele>
        <time>2024-12-08T00:29:17.620Z</time>
      </trkpt>
      <trkpt lat="45.88246" lon="3.62517">
        <ele>622</ele>
        <time>2024-12-08T00:29:18.620Z</time>
      </trkpt>
      <trkpt lat="45.88245" lon="3.62519">
        <ele>622</ele>
        <time>2024-12-08T00:29:19.619Z</time>
      </trkpt>
      <trkpt lat="45.88243" lon="3.62521">
        <ele>622</ele>
        <time>2024-12-08T00:29:20.619Z</time>
      </trkpt>
      <trkpt lat="45.88241" lon="3.62522">
        <ele>622</ele>
        <time>2024-12-08T00:29:21.620Z</time>
      </trkpt>
      <trkpt lat="45.88239" lon="3.62524">
        <ele>622</ele>
        <time>2024-12-08T00:29:22.619Z</time>
      </trkpt>
      <trkpt lat="45.88238" lon="3.62526">
        <ele>622</ele>
        <time>2024-12-08T00:29:23.620Z</time>
      </trkpt>
      <trkpt lat="45.88236" lon="3.62528">
        <ele>622</ele>
        <time>2024-12-08T00:29:24.619Z</time>
      </trkpt>
      <trkpt lat="45.88235" lon="3.6253">
        <ele>621</ele>
        <time>2024-12-08T00:29:25.620Z</time>
      </trkpt>
      <trkpt lat="45.88234" lon="3.62532">
        <ele>621</ele>
        <time>2024-12-08T00:29:26.619Z</time>
      </trkpt>
      <trkpt lat="45.88233" lon="3.62534">
        <ele>622</ele>
        <time>2024-12-08T00:29:27.620Z</time>
      </trkpt>
      <trkpt lat="45.88232" lon="3.62536">
        <ele>622</ele>
        <time>2024-12-08T00:29:28.619Z</time>
      </trkpt>
      <trkpt lat="45.88231" lon="3.62538">
        <ele>621</ele>
        <time>2024-12-08T00:29:29.620Z</time>
      </trkpt>
      <trkpt lat="45.88229" lon="3.6254">
        <ele>621</ele>
        <time>2024-12-08T00:29:30.620Z</time>
      </trkpt>
      <trkpt lat="45.88228" lon="3.62542">
        <ele>621</ele>
        <time>2024-12-08T00:29:31.619Z</time>
      </trkpt>
      <trkpt lat="45.88227" lon="3.62544">
        <ele>621</ele>
        <time>2024-12-08T00:29:32.620Z</time>
      </trkpt>
      <trkpt lat="45.88226" lon="3.62547">
        <ele>621</ele>
        <time>2024-12-08T00:29:33.619Z</time>
      </trkpt>
      <trkpt lat="45.88224" lon="3.62548">
        <ele>620</ele>
        <time>2024-12-08T00:29:34.619Z</time>
      </trkpt>
      <trkpt lat="45.88223" lon="3.6255">
        <ele>620</ele>
        <time>2024-12-08T00:29:35.619Z</time>
      </trkpt>
      <trkpt lat="45.88222" lon="3.62552">
        <ele>620</ele>
        <time>2024-12-08T00:29:36.619Z</time>
      </trkpt>
      <trkpt lat="45.88221" lon="3.62554">
        <ele>619</ele>
        <time>2024-12-08T00:29:37.619Z</time>
      </trkpt>
      <trkpt lat="45.88219" lon="3.62556">
        <ele>619</ele>
        <time>2024-12-08T00:29:38.619Z</time>
      </trkpt>
      <trkpt lat="45.88218" lon="3.62558">
        <ele>619</ele>
        <time>2024-12-08T00:29:39.619Z</time>
      </trkpt>
      <trkpt lat="45.88217" lon="3.6256">
        <ele>619</ele>
        <time>2024-12-08T00:29:40.620Z</time>
      </trkpt>
      <trkpt lat="45.88215" lon="3.62563">
        <ele>619</ele>
        <time>2024-12-08T00:29:41.620Z</time>
      </trkpt>
      <trkpt lat="45.88214" lon="3.62565">
        <ele>619</ele>
        <time>2024-12-08T00:29:42.620Z</time>
      </trkpt>
      <trkpt lat="45.88213" lon="3.62568">
        <ele>619</ele>
        <time>2024-12-08T00:29:43.620Z</time>
      </trkpt>
      <trkpt lat="45.88212" lon="3.6257">
        <ele>619</ele>
        <time>2024-12-08T00:29:44.619Z</time>
      </trkpt>
      <trkpt lat="45.88211" lon="3.62572">
        <ele>619</ele>
        <time>2024-12-08T00:29:45.620Z</time>
      </trkpt>
      <trkpt lat="45.8821" lon="3.62574">
        <ele>619</ele>
        <time>2024-12-08T00:29:46.620Z</time>
      </trkpt>
      <trkpt lat="45.88209" lon="3.62576">
        <ele>619</ele>
        <time>2024-12-08T00:29:47.620Z</time>
      </trkpt>
      <trkpt lat="45.88208" lon="3.62577">
        <ele>619</ele>
        <time>2024-12-08T00:29:48.620Z</time>
      </trkpt>
      <trkpt lat="45.88207" lon="3.62579">
        <ele>619</ele>
        <time>2024-12-08T00:29:49.619Z</time>
      </trkpt>
      <trkpt lat="45.88206" lon="3.62581">
        <ele>619</ele>
        <time>2024-12-08T00:29:50.620Z</time>
      </trkpt>
      <trkpt lat="45.88205" lon="3.62583">
        <ele>619</ele>
        <time>2024-12-08T00:29:51.619Z</time>
      </trkpt>
      <trkpt lat="45.88204" lon="3.62585">
        <ele>618</ele>
        <time>2024-12-08T00:29:52.619Z</time>
      </trkpt>
      <trkpt lat="45.88203" lon="3.62588">
        <ele>618</ele>
        <time>2024-12-08T00:29:53.619Z</time>
      </trkpt>
      <trkpt lat="45.88202" lon="3.6259">
        <ele>618</ele>
        <time>2024-12-08T00:29:54.619Z</time>
      </trkpt>
      <trkpt lat="45.88201" lon="3.62592">
        <ele>617</ele>
        <time>2024-12-08T00:29:55.620Z</time>
      </trkpt>
      <trkpt lat="45.882" lon="3.62594">
        <ele>617</ele>
        <time>2024-12-08T00:29:56.619Z</time>
      </trkpt>
      <trkpt lat="45.88199" lon="3.62597">
        <ele>617</ele>
        <time>2024-12-08T00:29:57.619Z</time>
      </trkpt>
      <trkpt lat="45.88198" lon="3.62599">
        <ele>617</ele>
        <time>2024-12-08T00:29:58.619Z</time>
      </trkpt>
      <trkpt lat="45.88197" lon="3.62601">
        <ele>617</ele>
        <time>2024-12-08T00:29:59.619Z</time>
      </trkpt>
      <trkpt lat="45.88196" lon="3.62603">
        <ele>617</ele>
        <time>2024-12-08T00:30:00.619Z</time>
      </trkpt>
      <trkpt lat="45.88195" lon="3.62605">
        <ele>617</ele>
        <time>2024-12-08T00:30:01.619Z</time>
      </trkpt>
      <trkpt lat="45.88194" lon="3.62607">
        <ele>617</ele>
        <time>2024-12-08T00:30:02.620Z</time>
      </trkpt>
      <trkpt lat="45.88193" lon="3.62609">
        <ele>617</ele>
        <time>2024-12-08T00:30:03.620Z</time>
      </trkpt>
      <trkpt lat="45.88192" lon="3.62612">
        <ele>617</ele>
        <time>2024-12-08T00:30:04.619Z</time>
      </trkpt>
      <trkpt lat="45.88191" lon="3.62614">
        <ele>616</ele>
        <time>2024-12-08T00:30:05.620Z</time>
      </trkpt>
      <trkpt lat="45.8819" lon="3.62617">
        <ele>616</ele>
        <time>2024-12-08T00:30:06.620Z</time>
      </trkpt>
      <trkpt lat="45.88189" lon="3.62619">
        <ele>615</ele>
        <time>2024-12-08T00:30:07.619Z</time>
      </trkpt>
      <trkpt lat="45.88189" lon="3.62621">
        <ele>615</ele>
        <time>2024-12-08T00:30:08.620Z</time>
      </trkpt>
      <trkpt lat="45.88188" lon="3.62623">
        <ele>615</ele>
        <time>2024-12-08T00:30:09.619Z</time>
      </trkpt>
      <trkpt lat="45.88187" lon="3.62626">
        <ele>615</ele>
        <time>2024-12-08T00:30:10.619Z</time>
      </trkpt>
      <trkpt lat="45.88186" lon="3.62628">
        <ele>615</ele>
        <time>2024-12-08T00:30:11.619Z</time>
      </trkpt>
      <trkpt lat="45.88185" lon="3.6263">
        <ele>615</ele>
        <time>2024-12-08T00:30:12.619Z</time>
      </trkpt>
      <trkpt lat="45.88184" lon="3.62632">
        <ele>615</ele>
        <time>2024-12-08T00:30:13.620Z</time>
      </trkpt>
      <trkpt lat="45.88183" lon="3.62635">
        <ele>616</ele>
        <time>2024-12-08T00:30:14.620Z</time>
      </trkpt>
      <trkpt lat="45.88182" lon="3.62637">
        <ele>616</ele>
        <time>2024-12-08T00:30:15.619Z</time>
      </trkpt>
      <trkpt lat="45.88182" lon="3.62639">
        <ele>617</ele>
        <time>2024-12-08T00:30:16.619Z</time>
      </trkpt>
      <trkpt lat="45.88181" lon="3.62642">
        <ele>617</ele>
        <time>2024-12-08T00:30:17.619Z</time>
      </trkpt>
      <trkpt lat="45.8818" lon="3.62644">
        <ele>617</ele>
        <time>2024-12-08T00:30:18.620Z</time>
      </trkpt>
      <trkpt lat="45.8818" lon="3.62646">
        <ele>618</ele>
        <time>2024-12-08T00:30:19.620Z</time>
      </trkpt>
      <trkpt lat="45.88179" lon="3.62648">
        <ele>618</ele>
        <time>2024-12-08T00:30:20.620Z</time>
      </trkpt>
      <trkpt lat="45.88178" lon="3.62651">
        <ele>618</ele>
        <time>2024-12-08T00:30:21.620Z</time>
      </trkpt>
      <trkpt lat="45.88178" lon="3.62653">
        <ele>618</ele>
        <time>2024-12-08T00:30:22.619Z</time>
      </trkpt>
      <trkpt lat="45.88177" lon="3.62655">
        <ele>618</ele>
        <time>2024-12-08T00:30:23.620Z</time>
      </trkpt>
      <trkpt lat="45.88176" lon="3.62658">
        <ele>618</ele>
        <time>2024-12-08T00:30:24.620Z</time>
      </trkpt>
      <trkpt lat="45.88176" lon="3.6266">
        <ele>618</ele>
        <time>2024-12-08T00:30:25.620Z</time>
      </trkpt>
      <trkpt lat="45.88175" lon="3.62662">
        <ele>618</ele>
        <time>2024-12-08T00:30:26.620Z</time>
      </trkpt>
      <trkpt lat="45.88174" lon="3.62664">
        <ele>618</ele>
        <time>2024-12-08T00:30:27.619Z</time>
      </trkpt>
      <trkpt lat="45.88173" lon="3.62666">
        <ele>618</ele>
        <time>2024-12-08T00:30:28.620Z</time>
      </trkpt>
      <trkpt lat="45.88172" lon="3.62668">
        <ele>618</ele>
        <time>2024-12-08T00:30:29.620Z</time>
      </trkpt>
      <trkpt lat="45.88172" lon="3.6267">
        <ele>618</ele>
        <time>2024-12-08T00:30:30.620Z</time>
      </trkpt>
      <trkpt lat="45.88171" lon="3.62673">
        <ele>618</ele>
        <time>2024-12-08T00:30:31.620Z</time>
      </trkpt>
      <trkpt lat="45.88171" lon="3.62675">
        <ele>618</ele>
        <time>2024-12-08T00:30:32.619Z</time>
      </trkpt>
      <trkpt lat="45.8817" lon="3.62677">
        <ele>619</ele>
        <time>2024-12-08T00:30:33.620Z</time>
      </trkpt>
      <trkpt lat="45.8817" lon="3.6268">
        <ele>619</ele>
        <time>2024-12-08T00:30:34.620Z</time>
      </trkpt>
      <trkpt lat="45.88169" lon="3.62682">
        <ele>619</ele>
        <time>2024-12-08T00:30:35.619Z</time>
      </trkpt>
      <trkpt lat="45.88168" lon="3.62685">
        <ele>619</ele>
        <time>2024-12-08T00:30:36.620Z</time>
      </trkpt>
      <trkpt lat="45.88167" lon="3.62687">
        <ele>619</ele>
        <time>2024-12-08T00:30:37.619Z</time>
      </trkpt>
      <trkpt lat="45.88166" lon="3.6269">
        <ele>618</ele>
        <time>2024-12-08T00:30:38.620Z</time>
      </trkpt>
      <trkpt lat="45.88165" lon="3.62692">
        <ele>618</ele>
        <time>2024-12-08T00:30:39.620Z</time>
      </trkpt>
      <trkpt lat="45.88164" lon="3.62695">
        <ele>618</ele>
        <time>2024-12-08T00:30:40.619Z</time>
      </trkpt>
      <trkpt lat="45.88164" lon="3.62697">
        <ele>618</ele>
        <time>2024-12-08T00:30:41.619Z</time>
      </trkpt>
      <trkpt lat="45.88163" lon="3.627">
        <ele>618</ele>
        <time>2024-12-08T00:30:42.619Z</time>
      </trkpt>
      <trkpt lat="45.88162" lon="3.62703">
        <ele>618</ele>
        <time>2024-12-08T00:30:43.619Z</time>
      </trkpt>
      <trkpt lat="45.88161" lon="3.62705">
        <ele>618</ele>
        <time>2024-12-08T00:30:44.619Z</time>
      </trkpt>
      <trkpt lat="45.8816" lon="3.62707">
        <ele>617</ele>
        <time>2024-12-08T00:30:45.619Z</time>
      </trkpt>
      <trkpt lat="45.88159" lon="3.62709">
        <ele>617</ele>
        <time>2024-12-08T00:30:46.620Z</time>
      </trkpt>
      <trkpt lat="45.88159" lon="3.62711">
        <ele>617</ele>
        <time>2024-12-08T00:30:47.619Z</time>
      </trkpt>
      <trkpt lat="45.88158" lon="3.62713">
        <ele>617</ele>
        <time>2024-12-08T00:30:48.620Z</time>
      </trkpt>
      <trkpt lat="45.88156" lon="3.62715">
        <ele>618</ele>
        <time>2024-12-08T00:30:49.619Z</time>
      </trkpt>
      <trkpt lat="45.88155" lon="3.62716">
        <ele>617</ele>
        <time>2024-12-08T00:30:50.619Z</time>
      </trkpt>
      <trkpt lat="45.88155" lon="3.62718">
        <ele>618</ele>
        <time>2024-12-08T00:30:51.619Z</time>
      </trkpt>
      <trkpt lat="45.88154" lon="3.6272">
        <ele>618</ele>
        <time>2024-12-08T00:30:52.619Z</time>
      </trkpt>
      <trkpt lat="45.88153" lon="3.62722">
        <ele>618</ele>
        <time>2024-12-08T00:30:53.619Z</time>
      </trkpt>
      <trkpt lat="45.88152" lon="3.62725">
        <ele>617</ele>
        <time>2024-12-08T00:30:54.620Z</time>
      </trkpt>
      <trkpt lat="45.88152" lon="3.62727">
        <ele>617</ele>
        <time>2024-12-08T00:30:55.619Z</time>
      </trkpt>
      <trkpt lat="45.88151" lon="3.62729">
        <ele>617</ele>
        <time>2024-12-08T00:30:56.619Z</time>
      </trkpt>
      <trkpt lat="45.88149" lon="3.62731">
        <ele>617</ele>
        <time>2024-12-08T00:30:57.619Z</time>
      </trkpt>
      <trkpt lat="45.88149" lon="3.62734">
        <ele>617</ele>
        <time>2024-12-08T00:30:58.620Z</time>
      </trkpt>
      <trkpt lat="45.88148" lon="3.62736">
        <ele>617</ele>
        <time>2024-12-08T00:30:59.619Z</time>
      </trkpt>
      <trkpt lat="45.88147" lon="3.62738">
        <ele>618</ele>
        <time>2024-12-08T00:31:00.619Z</time>
      </trkpt>
      <trkpt lat="45.88146" lon="3.62739">
        <ele>618</ele>
        <time>2024-12-08T00:31:01.620Z</time>
      </trkpt>
      <trkpt lat="45.88146" lon="3.62741">
        <ele>618</ele>
        <time>2024-12-08T00:31:02.619Z</time>
      </trkpt>
      <trkpt lat="45.88145" lon="3.62742">
        <ele>618</ele>
        <time>2024-12-08T00:31:03.620Z</time>
      </trkpt>
      <trkpt lat="45.88144" lon="3.62744">
        <ele>618</ele>
        <time>2024-12-08T00:31:04.620Z</time>
      </trkpt>
      <trkpt lat="45.88143" lon="3.62746">
        <ele>617</ele>
        <time>2024-12-08T00:31:05.619Z</time>
      </trkpt>
      <trkpt lat="45.88142" lon="3.62747">
        <ele>617</ele>
        <time>2024-12-08T00:31:06.620Z</time>
      </trkpt>
      <trkpt lat="45.88142" lon="3.62749">
        <ele>616</ele>
        <time>2024-12-08T00:31:07.620Z</time>
      </trkpt>
      <trkpt lat="45.88141" lon="3.62751">
        <ele>616</ele>
        <time>2024-12-08T00:31:08.619Z</time>
      </trkpt>
      <trkpt lat="45.8814" lon="3.62753">
        <ele>616</ele>
        <time>2024-12-08T00:31:09.620Z</time>
      </trkpt>
      <trkpt lat="45.88139" lon="3.62755">
        <ele>616</ele>
        <time>2024-12-08T00:31:10.619Z</time>
      </trkpt>
      <trkpt lat="45.88138" lon="3.62757">
        <ele>616</ele>
        <time>2024-12-08T00:31:11.619Z</time>
      </trkpt>
      <trkpt lat="45.88137" lon="3.62759">
        <ele>616</ele>
        <time>2024-12-08T00:31:12.619Z</time>
      </trkpt>
      <trkpt lat="45.88137" lon="3.6276">
        <ele>617</ele>
        <time>2024-12-08T00:31:13.620Z</time>
      </trkpt>
      <trkpt lat="45.88136" lon="3.62762">
        <ele>617</ele>
        <time>2024-12-08T00:31:14.619Z</time>
      </trkpt>
      <trkpt lat="45.88135" lon="3.62764">
        <ele>617</ele>
        <time>2024-12-08T00:31:15.620Z</time>
      </trkpt>
      <trkpt lat="45.88134" lon="3.62766">
        <ele>617</ele>
        <time>2024-12-08T00:31:16.619Z</time>
      </trkpt>
      <trkpt lat="45.88133" lon="3.62768">
        <ele>617</ele>
        <time>2024-12-08T00:31:17.619Z</time>
      </trkpt>
      <trkpt lat="45.88132" lon="3.6277">
        <ele>617</ele>
        <time>2024-12-08T00:31:18.620Z</time>
      </trkpt>
      <trkpt lat="45.88132" lon="3.62772">
        <ele>617</ele>
        <time>2024-12-08T00:31:19.619Z</time>
      </trkpt>
      <trkpt lat="45.88131" lon="3.62774">
        <ele>617</ele>
        <time>2024-12-08T00:31:20.619Z</time>
      </trkpt>
      <trkpt lat="45.8813" lon="3.62776">
        <ele>617</ele>
        <time>2024-12-08T00:31:21.620Z</time>
      </trkpt>
      <trkpt lat="45.88129" lon="3.62778">
        <ele>617</ele>
        <time>2024-12-08T00:31:22.620Z</time>
      </trkpt>
      <trkpt lat="45.88128" lon="3.6278">
        <ele>617</ele>
        <time>2024-12-08T00:31:23.619Z</time>
      </trkpt>
      <trkpt lat="45.88127" lon="3.62782">
        <ele>617</ele>
        <time>2024-12-08T00:31:24.620Z</time>
      </trkpt>
      <trkpt lat="45.88126" lon="3.62784">
        <ele>616</ele>
        <time>2024-12-08T00:31:25.620Z</time>
      </trkpt>
      <trkpt lat="45.88126" lon="3.62786">
        <ele>616</ele>
        <time>2024-12-08T00:31:26.619Z</time>
      </trkpt>
      <trkpt lat="45.88125" lon="3.62788">
        <ele>616</ele>
        <time>2024-12-08T00:31:27.619Z</time>
      </trkpt>
      <trkpt lat="45.88124" lon="3.6279">
        <ele>616</ele>
        <time>2024-12-08T00:31:28.619Z</time>
      </trkpt>
      <trkpt lat="45.88123" lon="3.62792">
        <ele>615</ele>
        <time>2024-12-08T00:31:29.619Z</time>
      </trkpt>
      <trkpt lat="45.88123" lon="3.62795">
        <ele>615</ele>
        <time>2024-12-08T00:31:30.620Z</time>
      </trkpt>
      <trkpt lat="45.88122" lon="3.62797">
        <ele>615</ele>
        <time>2024-12-08T00:31:31.620Z</time>
      </trkpt>
      <trkpt lat="45.88121" lon="3.62799">
        <ele>615</ele>
        <time>2024-12-08T00:31:32.619Z</time>
      </trkpt>
      <trkpt lat="45.88119" lon="3.62802">
        <ele>615</ele>
        <time>2024-12-08T00:31:33.620Z</time>
      </trkpt>
      <trkpt lat="45.88118" lon="3.62804">
        <ele>615</ele>
        <time>2024-12-08T00:31:34.620Z</time>
      </trkpt>
      <trkpt lat="45.88117" lon="3.62806">
        <ele>615</ele>
        <time>2024-12-08T00:31:35.620Z</time>
      </trkpt>
      <trkpt lat="45.88115" lon="3.62809">
        <ele>615</ele>
        <time>2024-12-08T00:31:36.619Z</time>
      </trkpt>
      <trkpt lat="45.88115" lon="3.62811">
        <ele>615</ele>
        <time>2024-12-08T00:31:37.620Z</time>
      </trkpt>
      <trkpt lat="45.88113" lon="3.62814">
        <ele>615</ele>
        <time>2024-12-08T00:31:38.619Z</time>
      </trkpt>
      <trkpt lat="45.88112" lon="3.62816">
        <ele>615</ele>
        <time>2024-12-08T00:31:39.619Z</time>
      </trkpt>
      <trkpt lat="45.88112" lon="3.62819">
        <ele>615</ele>
        <time>2024-12-08T00:31:40.620Z</time>
      </trkpt>
      <trkpt lat="45.8811" lon="3.62821">
        <ele>615</ele>
        <time>2024-12-08T00:31:41.619Z</time>
      </trkpt>
      <trkpt lat="45.88109" lon="3.62824">
        <ele>614</ele>
        <time>2024-12-08T00:31:42.619Z</time>
      </trkpt>
      <trkpt lat="45.88108" lon="3.62826">
        <ele>614</ele>
        <time>2024-12-08T00:31:43.620Z</time>
      </trkpt>
      <trkpt lat="45.88107" lon="3.62827">
        <ele>614</ele>
        <time>2024-12-08T00:31:44.619Z</time>
      </trkpt>
      <trkpt lat="45.88106" lon="3.62829">
        <ele>615</ele>
        <time>2024-12-08T00:31:45.619Z</time>
      </trkpt>
      <trkpt lat="45.88105" lon="3.62831">
        <ele>615</ele>
        <time>2024-12-08T00:31:46.620Z</time>
      </trkpt>
      <trkpt lat="45.88104" lon="3.62833">
        <ele>615</ele>
        <time>2024-12-08T00:31:47.619Z</time>
      </trkpt>
      <trkpt lat="45.88104" lon="3.62835">
        <ele>616</ele>
        <time>2024-12-08T00:31:48.619Z</time>
      </trkpt>
      <trkpt lat="45.88104" lon="3.62836">
        <ele>616</ele>
        <time>2024-12-08T00:31:49.620Z</time>
      </trkpt>
      <trkpt lat="45.88103" lon="3.62838">
        <ele>616</ele>
        <time>2024-12-08T00:31:50.619Z</time>
      </trkpt>
      <trkpt lat="45.88102" lon="3.6284">
        <ele>616</ele>
        <time>2024-12-08T00:31:51.619Z</time>
      </trkpt>
      <trkpt lat="45.88101" lon="3.62843">
        <ele>617</ele>
        <time>2024-12-08T00:31:52.620Z</time>
      </trkpt>
      <trkpt lat="45.881" lon="3.62845">
        <ele>617</ele>
        <time>2024-12-08T00:31:53.619Z</time>
      </trkpt>
      <trkpt lat="45.88099" lon="3.62847">
        <ele>617</ele>
        <time>2024-12-08T00:31:54.620Z</time>
      </trkpt>
      <trkpt lat="45.88098" lon="3.62849">
        <ele>617</ele>
        <time>2024-12-08T00:31:55.619Z</time>
      </trkpt>
      <trkpt lat="45.88096" lon="3.6285">
        <ele>618</ele>
        <time>2024-12-08T00:31:56.620Z</time>
      </trkpt>
      <trkpt lat="45.88095" lon="3.62852">
        <ele>618</ele>
        <time>2024-12-08T00:31:57.619Z</time>
      </trkpt>
      <trkpt lat="45.88094" lon="3.62853">
        <ele>619</ele>
        <time>2024-12-08T00:31:58.619Z</time>
      </trkpt>
      <trkpt lat="45.88092" lon="3.62854">
        <ele>619</ele>
        <time>2024-12-08T00:31:59.620Z</time>
      </trkpt>
      <trkpt lat="45.88091" lon="3.62855">
        <ele>620</ele>
        <time>2024-12-08T00:32:00.619Z</time>
      </trkpt>
      <trkpt lat="45.8809" lon="3.62856">
        <ele>620</ele>
        <time>2024-12-08T00:32:01.619Z</time>
      </trkpt>
      <trkpt lat="45.88089" lon="3.62857">
        <ele>621</ele>
        <time>2024-12-08T00:32:02.620Z</time>
      </trkpt>
      <trkpt lat="45.88087" lon="3.62859">
        <ele>621</ele>
        <time>2024-12-08T00:32:03.620Z</time>
      </trkpt>
      <trkpt lat="45.88087" lon="3.6286">
        <ele>622</ele>
        <time>2024-12-08T00:32:04.620Z</time>
      </trkpt>
      <trkpt lat="45.88086" lon="3.62861">
        <ele>622</ele>
        <time>2024-12-08T00:32:05.619Z</time>
      </trkpt>
      <trkpt lat="45.88085" lon="3.62861">
        <ele>622</ele>
        <time>2024-12-08T00:32:06.619Z</time>
      </trkpt>
      <trkpt lat="45.88083" lon="3.6286">
        <ele>622</ele>
        <time>2024-12-08T00:32:07.620Z</time>
      </trkpt>
      <trkpt lat="45.88082" lon="3.62861">
        <ele>622</ele>
        <time>2024-12-08T00:32:08.619Z</time>
      </trkpt>
      <trkpt lat="45.88081" lon="3.62863">
        <ele>622</ele>
        <time>2024-12-08T00:32:09.620Z</time>
      </trkpt>
      <trkpt lat="45.8808" lon="3.62865">
        <ele>622</ele>
        <time>2024-12-08T00:32:10.620Z</time>
      </trkpt>
      <trkpt lat="45.88079" lon="3.62866">
        <ele>623</ele>
        <time>2024-12-08T00:32:11.620Z</time>
      </trkpt>
      <trkpt lat="45.88078" lon="3.62867">
        <ele>623</ele>
        <time>2024-12-08T00:32:12.619Z</time>
      </trkpt>
      <trkpt lat="45.88077" lon="3.62868">
        <ele>623</ele>
        <time>2024-12-08T00:32:13.620Z</time>
      </trkpt>
      <trkpt lat="45.88077" lon="3.6287">
        <ele>622</ele>
        <time>2024-12-08T00:32:14.619Z</time>
      </trkpt>
      <trkpt lat="45.88076" lon="3.62872">
        <ele>622</ele>
        <time>2024-12-08T00:32:15.619Z</time>
      </trkpt>
      <trkpt lat="45.88075" lon="3.62874">
        <ele>622</ele>
        <time>2024-12-08T00:32:16.620Z</time>
      </trkpt>
      <trkpt lat="45.88074" lon="3.62877">
        <ele>623</ele>
        <time>2024-12-08T00:32:17.620Z</time>
      </trkpt>
      <trkpt lat="45.88072" lon="3.62879">
        <ele>623</ele>
        <time>2024-12-08T00:32:18.619Z</time>
      </trkpt>
      <trkpt lat="45.88071" lon="3.62881">
        <ele>623</ele>
        <time>2024-12-08T00:32:19.620Z</time>
      </trkpt>
      <trkpt lat="45.88071" lon="3.62882">
        <ele>623</ele>
        <time>2024-12-08T00:32:20.619Z</time>
      </trkpt>
      <trkpt lat="45.8807" lon="3.62883">
        <ele>623</ele>
        <time>2024-12-08T00:32:21.619Z</time>
      </trkpt>
      <trkpt lat="45.88069" lon="3.62885">
        <ele>623</ele>
        <time>2024-12-08T00:32:22.620Z</time>
      </trkpt>
      <trkpt lat="45.88068" lon="3.62887">
        <ele>623</ele>
        <time>2024-12-08T00:32:23.620Z</time>
      </trkpt>
      <trkpt lat="45.88067" lon="3.62888">
        <ele>623</ele>
        <time>2024-12-08T00:32:24.620Z</time>
      </trkpt>
      <trkpt lat="45.88065" lon="3.62889">
        <ele>624</ele>
        <time>2024-12-08T00:32:25.619Z</time>
      </trkpt>
      <trkpt lat="45.88064" lon="3.6289">
        <ele>624</ele>
        <time>2024-12-08T00:32:26.620Z</time>
      </trkpt>
      <trkpt lat="45.88063" lon="3.62892">
        <ele>624</ele>
        <time>2024-12-08T00:32:27.620Z</time>
      </trkpt>
      <trkpt lat="45.88062" lon="3.62893">
        <ele>625</ele>
        <time>2024-12-08T00:32:28.620Z</time>
      </trkpt>
      <trkpt lat="45.88061" lon="3.62894">
        <ele>625</ele>
        <time>2024-12-08T00:32:29.620Z</time>
      </trkpt>
      <trkpt lat="45.8806" lon="3.62896">
        <ele>625</ele>
        <time>2024-12-08T00:32:30.619Z</time>
      </trkpt>
      <trkpt lat="45.88059" lon="3.62898">
        <ele>625</ele>
        <time>2024-12-08T00:32:31.619Z</time>
      </trkpt>
      <trkpt lat="45.88058" lon="3.62899">
        <ele>625</ele>
        <time>2024-12-08T00:32:32.620Z</time>
      </trkpt>
      <trkpt lat="45.88057" lon="3.629">
        <ele>625</ele>
        <time>2024-12-08T00:32:33.620Z</time>
      </trkpt>
      <trkpt lat="45.88056" lon="3.62902">
        <ele>625</ele>
        <time>2024-12-08T00:32:34.620Z</time>
      </trkpt>
      <trkpt lat="45.88055" lon="3.62904">
        <ele>625</ele>
        <time>2024-12-08T00:32:35.620Z</time>
      </trkpt>
      <trkpt lat="45.88055" lon="3.62906">
        <ele>625</ele>
        <time>2024-12-08T00:32:36.619Z</time>
      </trkpt>
      <trkpt lat="45.88054" lon="3.62908">
        <ele>625</ele>
        <time>2024-12-08T00:32:37.620Z</time>
      </trkpt>
      <trkpt lat="45.88053" lon="3.6291">
        <ele>625</ele>
        <time>2024-12-08T00:32:38.620Z</time>
      </trkpt>
      <trkpt lat="45.88052" lon="3.62912">
        <ele>625</ele>
        <time>2024-12-08T00:32:39.620Z</time>
      </trkpt>
      <trkpt lat="45.88051" lon="3.62914">
        <ele>625</ele>
        <time>2024-12-08T00:32:40.620Z</time>
      </trkpt>
      <trkpt lat="45.8805" lon="3.62916">
        <ele>626</ele>
        <time>2024-12-08T00:32:41.620Z</time>
      </trkpt>
      <trkpt lat="45.88049" lon="3.62918">
        <ele>626</ele>
        <time>2024-12-08T00:32:42.620Z</time>
      </trkpt>
      <trkpt lat="45.88048" lon="3.6292">
        <ele>627</ele>
        <time>2024-12-08T00:32:43.620Z</time>
      </trkpt>
      <trkpt lat="45.88048" lon="3.62922">
        <ele>626</ele>
        <time>2024-12-08T00:32:44.619Z</time>
      </trkpt>
      <trkpt lat="45.88047" lon="3.62924">
        <ele>626</ele>
        <time>2024-12-08T00:32:45.619Z</time>
      </trkpt>
      <trkpt lat="45.88046" lon="3.62926">
        <ele>626</ele>
        <time>2024-12-08T00:32:46.619Z</time>
      </trkpt>
      <trkpt lat="45.88045" lon="3.62927">
        <ele>626</ele>
        <time>2024-12-08T00:32:47.620Z</time>
      </trkpt>
      <trkpt lat="45.88044" lon="3.62929">
        <ele>626</ele>
        <time>2024-12-08T00:32:48.619Z</time>
      </trkpt>
      <trkpt lat="45.88043" lon="3.62931">
        <ele>626</ele>
        <time>2024-12-08T00:32:49.620Z</time>
      </trkpt>
      <trkpt lat="45.88041" lon="3.62932">
        <ele>626</ele>
        <time>2024-12-08T00:32:50.619Z</time>
      </trkpt>
      <trkpt lat="45.8804" lon="3.62933">
        <ele>626</ele>
        <time>2024-12-08T00:32:51.620Z</time>
      </trkpt>
      <trkpt lat="45.88039" lon="3.62935">
        <ele>625</ele>
        <time>2024-12-08T00:32:52.619Z</time>
      </trkpt>
      <trkpt lat="45.88037" lon="3.62937">
        <ele>625</ele>
        <time>2024-12-08T00:32:53.620Z</time>
      </trkpt>
      <trkpt lat="45.88036" lon="3.62938">
        <ele>625</ele>
        <time>2024-12-08T00:32:54.619Z</time>
      </trkpt>
      <trkpt lat="45.88034" lon="3.6294">
        <ele>626</ele>
        <time>2024-12-08T00:32:55.619Z</time>
      </trkpt>
      <trkpt lat="45.88033" lon="3.62942">
        <ele>626</ele>
        <time>2024-12-08T00:32:56.619Z</time>
      </trkpt>
      <trkpt lat="45.88032" lon="3.62944">
        <ele>626</ele>
        <time>2024-12-08T00:32:57.619Z</time>
      </trkpt>
      <trkpt lat="45.88031" lon="3.62946">
        <ele>626</ele>
        <time>2024-12-08T00:32:58.619Z</time>
      </trkpt>
      <trkpt lat="45.8803" lon="3.62948">
        <ele>626</ele>
        <time>2024-12-08T00:32:59.620Z</time>
      </trkpt>
      <trkpt lat="45.88029" lon="3.62949">
        <ele>627</ele>
        <time>2024-12-08T00:33:00.619Z</time>
      </trkpt>
      <trkpt lat="45.88027" lon="3.62951">
        <ele>627</ele>
        <time>2024-12-08T00:33:01.620Z</time>
      </trkpt>
      <trkpt lat="45.88026" lon="3.62953">
        <ele>627</ele>
        <time>2024-12-08T00:33:02.619Z</time>
      </trkpt>
      <trkpt lat="45.88025" lon="3.62956">
        <ele>626</ele>
        <time>2024-12-08T00:33:03.620Z</time>
      </trkpt>
      <trkpt lat="45.88024" lon="3.62958">
        <ele>626</ele>
        <time>2024-12-08T00:33:04.619Z</time>
      </trkpt>
      <trkpt lat="45.88023" lon="3.6296">
        <ele>626</ele>
        <time>2024-12-08T00:33:05.619Z</time>
      </trkpt>
      <trkpt lat="45.88022" lon="3.62962">
        <ele>626</ele>
        <time>2024-12-08T00:33:06.620Z</time>
      </trkpt>
      <trkpt lat="45.88021" lon="3.62964">
        <ele>626</ele>
        <time>2024-12-08T00:33:07.620Z</time>
      </trkpt>
      <trkpt lat="45.8802" lon="3.62966">
        <ele>626</ele>
        <time>2024-12-08T00:33:08.619Z</time>
      </trkpt>
      <trkpt lat="45.88019" lon="3.62968">
        <ele>626</ele>
        <time>2024-12-08T00:33:09.619Z</time>
      </trkpt>
      <trkpt lat="45.88017" lon="3.62971">
        <ele>626</ele>
        <time>2024-12-08T00:33:10.620Z</time>
      </trkpt>
      <trkpt lat="45.88016" lon="3.62974">
        <ele>626</ele>
        <time>2024-12-08T00:33:11.619Z</time>
      </trkpt>
      <trkpt lat="45.88015" lon="3.62977">
        <ele>626</ele>
        <time>2024-12-08T00:33:12.620Z</time>
      </trkpt>
      <trkpt lat="45.88014" lon="3.62979">
        <ele>626</ele>
        <time>2024-12-08T00:33:13.619Z</time>
      </trkpt>
      <trkpt lat="45.88013" lon="3.6298">
        <ele>627</ele>
        <time>2024-12-08T00:33:14.620Z</time>
      </trkpt>
      <trkpt lat="45.88011" lon="3.62981">
        <ele>627</ele>
        <time>2024-12-08T00:33:15.619Z</time>
      </trkpt>
      <trkpt lat="45.8801" lon="3.62982">
        <ele>627</ele>
        <time>2024-12-08T00:33:16.619Z</time>
      </trkpt>
      <trkpt lat="45.88009" lon="3.62983">
        <ele>627</ele>
        <time>2024-12-08T00:33:17.620Z</time>
      </trkpt>
      <trkpt lat="45.88007" lon="3.62984">
        <ele>627</ele>
        <time>2024-12-08T00:33:18.620Z</time>
      </trkpt>
      <trkpt lat="45.88006" lon="3.62986">
        <ele>627</ele>
        <time>2024-12-08T00:33:19.619Z</time>
      </trkpt>
      <trkpt lat="45.88005" lon="3.62988">
        <ele>627</ele>
        <time>2024-12-08T00:33:20.620Z</time>
      </trkpt>
      <trkpt lat="45.88004" lon="3.6299">
        <ele>627</ele>
        <time>2024-12-08T00:33:21.620Z</time>
      </trkpt>
      <trkpt lat="45.88003" lon="3.62992">
        <ele>627</ele>
        <time>2024-12-08T00:33:22.619Z</time>
      </trkpt>
      <trkpt lat="45.88002" lon="3.62994">
        <ele>627</ele>
        <time>2024-12-08T00:33:23.619Z</time>
      </trkpt>
      <trkpt lat="45.88" lon="3.62996">
        <ele>627</ele>
        <time>2024-12-08T00:33:24.619Z</time>
      </trkpt>
      <trkpt lat="45.87999" lon="3.62997">
        <ele>628</ele>
        <time>2024-12-08T00:33:25.619Z</time>
      </trkpt>
      <trkpt lat="45.87997" lon="3.62999">
        <ele>628</ele>
        <time>2024-12-08T00:33:26.620Z</time>
      </trkpt>
      <trkpt lat="45.87995" lon="3.63002">
        <ele>628</ele>
        <time>2024-12-08T00:33:27.620Z</time>
      </trkpt>
      <trkpt lat="45.87994" lon="3.63003">
        <ele>628</ele>
        <time>2024-12-08T00:33:28.620Z</time>
      </trkpt>
      <trkpt lat="45.87992" lon="3.63005">
        <ele>628</ele>
        <time>2024-12-08T00:33:29.620Z</time>
      </trkpt>
      <trkpt lat="45.87991" lon="3.63006">
        <ele>628</ele>
        <time>2024-12-08T00:33:30.619Z</time>
      </trkpt>
      <trkpt lat="45.87989" lon="3.63007">
        <ele>628</ele>
        <time>2024-12-08T00:33:31.620Z</time>
      </trkpt>
      <trkpt lat="45.87988" lon="3.63007">
        <ele>628</ele>
        <time>2024-12-08T00:33:32.620Z</time>
      </trkpt>
      <trkpt lat="45.87986" lon="3.63008">
        <ele>628</ele>
        <time>2024-12-08T00:33:33.620Z</time>
      </trkpt>
      <trkpt lat="45.87985" lon="3.63009">
        <ele>628</ele>
        <time>2024-12-08T00:33:34.619Z</time>
      </trkpt>
      <trkpt lat="45.87983" lon="3.6301">
        <ele>628</ele>
        <time>2024-12-08T00:33:35.620Z</time>
      </trkpt>
      <trkpt lat="45.87982" lon="3.63011">
        <ele>628</ele>
        <time>2024-12-08T00:33:36.619Z</time>
      </trkpt>
      <trkpt lat="45.87981" lon="3.63012">
        <ele>627</ele>
        <time>2024-12-08T00:33:37.619Z</time>
      </trkpt>
      <trkpt lat="45.8798" lon="3.63014">
        <ele>627</ele>
        <time>2024-12-08T00:33:38.619Z</time>
      </trkpt>
      <trkpt lat="45.87979" lon="3.63015">
        <ele>627</ele>
        <time>2024-12-08T00:33:39.619Z</time>
      </trkpt>
      <trkpt lat="45.87977" lon="3.63017">
        <ele>627</ele>
        <time>2024-12-08T00:33:40.619Z</time>
      </trkpt>
      <trkpt lat="45.87976" lon="3.63018">
        <ele>627</ele>
        <time>2024-12-08T00:33:41.620Z</time>
      </trkpt>
      <trkpt lat="45.87974" lon="3.63019">
        <ele>627</ele>
        <time>2024-12-08T00:33:42.620Z</time>
      </trkpt>
      <trkpt lat="45.87973" lon="3.63021">
        <ele>627</ele>
        <time>2024-12-08T00:33:43.620Z</time>
      </trkpt>
      <trkpt lat="45.87971" lon="3.63023">
        <ele>626</ele>
        <time>2024-12-08T00:33:44.620Z</time>
      </trkpt>
      <trkpt lat="45.87969" lon="3.63025">
        <ele>626</ele>
        <time>2024-12-08T00:33:45.619Z</time>
      </trkpt>
      <trkpt lat="45.87968" lon="3.63027">
        <ele>626</ele>
        <time>2024-12-08T00:33:46.619Z</time>
      </trkpt>
      <trkpt lat="45.87967" lon="3.63029">
        <ele>626</ele>
        <time>2024-12-08T00:33:47.619Z</time>
      </trkpt>
      <trkpt lat="45.87965" lon="3.63031">
        <ele>626</ele>
        <time>2024-12-08T00:33:48.620Z</time>
      </trkpt>
      <trkpt lat="45.87964" lon="3.63033">
        <ele>625</ele>
        <time>2024-12-08T00:33:49.620Z</time>
      </trkpt>
      <trkpt lat="45.87962" lon="3.63037">
        <ele>625</ele>
        <time>2024-12-08T00:33:50.620Z</time>
      </trkpt>
      <trkpt lat="45.87961" lon="3.63039">
        <ele>625</ele>
        <time>2024-12-08T00:33:51.619Z</time>
      </trkpt>
      <trkpt lat="45.87959" lon="3.63041">
        <ele>625</ele>
        <time>2024-12-08T00:33:52.619Z</time>
      </trkpt>
      <trkpt lat="45.87958" lon="3.63043">
        <ele>625</ele>
        <time>2024-12-08T00:33:53.619Z</time>
      </trkpt>
      <trkpt lat="45.87956" lon="3.63044">
        <ele>625</ele>
        <time>2024-12-08T00:33:54.620Z</time>
      </trkpt>
      <trkpt lat="45.87955" lon="3.63046">
        <ele>625</ele>
        <time>2024-12-08T00:33:55.619Z</time>
      </trkpt>
      <trkpt lat="45.87953" lon="3.63047">
        <ele>625</ele>
        <time>2024-12-08T00:33:56.620Z</time>
      </trkpt>
      <trkpt lat="45.87952" lon="3.63048">
        <ele>625</ele>
        <time>2024-12-08T00:33:57.619Z</time>
      </trkpt>
      <trkpt lat="45.87951" lon="3.63049">
        <ele>625</ele>
        <time>2024-12-08T00:33:58.620Z</time>
      </trkpt>
      <trkpt lat="45.87949" lon="3.63051">
        <ele>625</ele>
        <time>2024-12-08T00:33:59.619Z</time>
      </trkpt>
      <trkpt lat="45.87948" lon="3.63053">
        <ele>625</ele>
        <time>2024-12-08T00:34:00.619Z</time>
      </trkpt>
      <trkpt lat="45.87947" lon="3.63055">
        <ele>626</ele>
        <time>2024-12-08T00:34:01.619Z</time>
      </trkpt>
      <trkpt lat="45.87946" lon="3.63058">
        <ele>626</ele>
        <time>2024-12-08T00:34:02.619Z</time>
      </trkpt>
      <trkpt lat="45.87945" lon="3.6306">
        <ele>626</ele>
        <time>2024-12-08T00:34:03.619Z</time>
      </trkpt>
      <trkpt lat="45.87944" lon="3.63062">
        <ele>626</ele>
        <time>2024-12-08T00:34:04.619Z</time>
      </trkpt>
      <trkpt lat="45.87943" lon="3.63065">
        <ele>626</ele>
        <time>2024-12-08T00:34:05.619Z</time>
      </trkpt>
      <trkpt lat="45.87943" lon="3.63067">
        <ele>626</ele>
        <time>2024-12-08T00:34:06.620Z</time>
      </trkpt>
      <trkpt lat="45.87942" lon="3.63069">
        <ele>627</ele>
        <time>2024-12-08T00:34:07.620Z</time>
      </trkpt>
      <trkpt lat="45.87941" lon="3.63072">
        <ele>627</ele>
        <time>2024-12-08T00:34:08.620Z</time>
      </trkpt>
      <trkpt lat="45.8794" lon="3.63074">
        <ele>627</ele>
        <time>2024-12-08T00:34:09.620Z</time>
      </trkpt>
      <trkpt lat="45.87939" lon="3.63076">
        <ele>627</ele>
        <time>2024-12-08T00:34:10.619Z</time>
      </trkpt>
      <trkpt lat="45.87938" lon="3.63078">
        <ele>627</ele>
        <time>2024-12-08T00:34:11.619Z</time>
      </trkpt>
      <trkpt lat="45.87938" lon="3.63081">
        <ele>627</ele>
        <time>2024-12-08T00:34:12.619Z</time>
      </trkpt>
      <trkpt lat="45.87939" lon="3.63084">
        <ele>628</ele>
        <time>2024-12-08T00:34:13.619Z</time>
      </trkpt>
      <trkpt lat="45.87938" lon="3.63087">
        <ele>628</ele>
        <time>2024-12-08T00:34:14.620Z</time>
      </trkpt>
      <trkpt lat="45.87938" lon="3.63089">
        <ele>628</ele>
        <time>2024-12-08T00:34:15.620Z</time>
      </trkpt>
      <trkpt lat="45.87938" lon="3.63092">
        <ele>627</ele>
        <time>2024-12-08T00:34:16.619Z</time>
      </trkpt>
      <trkpt lat="45.87938" lon="3.63094">
        <ele>627</ele>
        <time>2024-12-08T00:34:17.620Z</time>
      </trkpt>
      <trkpt lat="45.87937" lon="3.63096">
        <ele>627</ele>
        <time>2024-12-08T00:34:18.619Z</time>
      </trkpt>
      <trkpt lat="45.87937" lon="3.63098">
        <ele>627</ele>
        <time>2024-12-08T00:34:19.619Z</time>
      </trkpt>
      <trkpt lat="45.87936" lon="3.631">
        <ele>626</ele>
        <time>2024-12-08T00:34:20.620Z</time>
      </trkpt>
      <trkpt lat="45.87936" lon="3.63102">
        <ele>626</ele>
        <time>2024-12-08T00:34:21.620Z</time>
      </trkpt>
      <trkpt lat="45.87935" lon="3.63105">
        <ele>626</ele>
        <time>2024-12-08T00:34:22.619Z</time>
      </trkpt>
      <trkpt lat="45.87934" lon="3.63107">
        <ele>626</ele>
        <time>2024-12-08T00:34:23.620Z</time>
      </trkpt>
      <trkpt lat="45.87933" lon="3.6311">
        <ele>626</ele>
        <time>2024-12-08T00:34:24.620Z</time>
      </trkpt>
      <trkpt lat="45.87932" lon="3.63112">
        <ele>626</ele>
        <time>2024-12-08T00:34:25.620Z</time>
      </trkpt>
      <trkpt lat="45.87931" lon="3.63115">
        <ele>626</ele>
        <time>2024-12-08T00:34:26.620Z</time>
      </trkpt>
      <trkpt lat="45.8793" lon="3.63117">
        <ele>626</ele>
        <time>2024-12-08T00:34:27.619Z</time>
      </trkpt>
      <trkpt lat="45.87929" lon="3.63119">
        <ele>626</ele>
        <time>2024-12-08T00:34:28.619Z</time>
      </trkpt>
      <trkpt lat="45.87928" lon="3.63122">
        <ele>626</ele>
        <time>2024-12-08T00:34:29.620Z</time>
      </trkpt>
      <trkpt lat="45.87928" lon="3.63125">
        <ele>626</ele>
        <time>2024-12-08T00:34:30.619Z</time>
      </trkpt>
      <trkpt lat="45.87928" lon="3.63129">
        <ele>627</ele>
        <time>2024-12-08T00:34:31.619Z</time>
      </trkpt>
      <trkpt lat="45.87928" lon="3.63132">
        <ele>626</ele>
        <time>2024-12-08T00:34:32.620Z</time>
      </trkpt>
      <trkpt lat="45.87928" lon="3.63135">
        <ele>626</ele>
        <time>2024-12-08T00:34:33.619Z</time>
      </trkpt>
      <trkpt lat="45.87929" lon="3.63139">
        <ele>626</ele>
        <time>2024-12-08T00:34:34.619Z</time>
      </trkpt>
      <trkpt lat="45.87929" lon="3.63142">
        <ele>626</ele>
        <time>2024-12-08T00:34:35.620Z</time>
      </trkpt>
      <trkpt lat="45.87929" lon="3.63145">
        <ele>626</ele>
        <time>2024-12-08T00:34:36.620Z</time>
      </trkpt>
      <trkpt lat="45.87929" lon="3.63147">
        <ele>625</ele>
        <time>2024-12-08T00:34:37.620Z</time>
      </trkpt>
      <trkpt lat="45.8793" lon="3.6315">
        <ele>625</ele>
        <time>2024-12-08T00:34:38.619Z</time>
      </trkpt>
      <trkpt lat="45.8793" lon="3.63152">
        <ele>625</ele>
        <time>2024-12-08T00:34:39.620Z</time>
      </trkpt>
      <trkpt lat="45.87931" lon="3.63155">
        <ele>625</ele>
        <time>2024-12-08T00:34:40.619Z</time>
      </trkpt>
      <trkpt lat="45.87931" lon="3.63157">
        <ele>624</ele>
        <time>2024-12-08T00:34:41.619Z</time>
      </trkpt>
      <trkpt lat="45.87931" lon="3.6316">
        <ele>624</ele>
        <time>2024-12-08T00:34:42.619Z</time>
      </trkpt>
      <trkpt lat="45.87932" lon="3.63163">
        <ele>624</ele>
        <time>2024-12-08T00:34:43.619Z</time>
      </trkpt>
      <trkpt lat="45.87933" lon="3.63166">
        <ele>623</ele>
        <time>2024-12-08T00:34:44.620Z</time>
      </trkpt>
      <trkpt lat="45.87933" lon="3.63169">
        <ele>623</ele>
        <time>2024-12-08T00:34:45.619Z</time>
      </trkpt>
      <trkpt lat="45.87934" lon="3.63172">
        <ele>623</ele>
        <time>2024-12-08T00:34:46.620Z</time>
      </trkpt>
      <trkpt lat="45.87934" lon="3.63175">
        <ele>622</ele>
        <time>2024-12-08T00:34:47.620Z</time>
      </trkpt>
      <trkpt lat="45.87934" lon="3.63177">
        <ele>622</ele>
        <time>2024-12-08T00:34:48.619Z</time>
      </trkpt>
      <trkpt lat="45.87935" lon="3.63179">
        <ele>621</ele>
        <time>2024-12-08T00:34:49.619Z</time>
      </trkpt>
      <trkpt lat="45.87935" lon="3.63182">
        <ele>621</ele>
        <time>2024-12-08T00:34:50.619Z</time>
      </trkpt>
      <trkpt lat="45.87935" lon="3.63184">
        <ele>621</ele>
        <time>2024-12-08T00:34:51.620Z</time>
      </trkpt>
      <trkpt lat="45.87936" lon="3.63187">
        <ele>620</ele>
        <time>2024-12-08T00:34:52.620Z</time>
      </trkpt>
      <trkpt lat="45.87936" lon="3.6319">
        <ele>620</ele>
        <time>2024-12-08T00:34:53.620Z</time>
      </trkpt>
      <trkpt lat="45.87936" lon="3.63193">
        <ele>620</ele>
        <time>2024-12-08T00:34:54.620Z</time>
      </trkpt>
      <trkpt lat="45.87936" lon="3.63195">
        <ele>620</ele>
        <time>2024-12-08T00:34:55.620Z</time>
      </trkpt>
      <trkpt lat="45.87937" lon="3.63198">
        <ele>619</ele>
        <time>2024-12-08T00:34:56.619Z</time>
      </trkpt>
      <trkpt lat="45.87937" lon="3.632">
        <ele>619</ele>
        <time>2024-12-08T00:34:57.620Z</time>
      </trkpt>
      <trkpt lat="45.87937" lon="3.63203">
        <ele>618</ele>
        <time>2024-12-08T00:34:58.620Z</time>
      </trkpt>
      <trkpt lat="45.87937" lon="3.63206">
        <ele>618</ele>
        <time>2024-12-08T00:34:59.620Z</time>
      </trkpt>
      <trkpt lat="45.87937" lon="3.63208">
        <ele>618</ele>
        <time>2024-12-08T00:35:00.619Z</time>
      </trkpt>
      <trkpt lat="45.87938" lon="3.6321">
        <ele>618</ele>
        <time>2024-12-08T00:35:01.619Z</time>
      </trkpt>
      <trkpt lat="45.87938" lon="3.63213">
        <ele>617</ele>
        <time>2024-12-08T00:35:02.619Z</time>
      </trkpt>
      <trkpt lat="45.87938" lon="3.63215">
        <ele>617</ele>
        <time>2024-12-08T00:35:03.619Z</time>
      </trkpt>
      <trkpt lat="45.87937" lon="3.63218">
        <ele>617</ele>
        <time>2024-12-08T00:35:04.619Z</time>
      </trkpt>
      <trkpt lat="45.87937" lon="3.63221">
        <ele>617</ele>
        <time>2024-12-08T00:35:05.619Z</time>
      </trkpt>
      <trkpt lat="45.87937" lon="3.63224">
        <ele>617</ele>
        <time>2024-12-08T00:35:06.620Z</time>
      </trkpt>
      <trkpt lat="45.87936" lon="3.63227">
        <ele>616</ele>
        <time>2024-12-08T00:35:07.619Z</time>
      </trkpt>
      <trkpt lat="45.87936" lon="3.63229">
        <ele>617</ele>
        <time>2024-12-08T00:35:08.620Z</time>
      </trkpt>
      <trkpt lat="45.87936" lon="3.63232">
        <ele>617</ele>
        <time>2024-12-08T00:35:09.619Z</time>
      </trkpt>
      <trkpt lat="45.87936" lon="3.63234">
        <ele>617</ele>
        <time>2024-12-08T00:35:10.620Z</time>
      </trkpt>
      <trkpt lat="45.87936" lon="3.63236">
        <ele>617</ele>
        <time>2024-12-08T00:35:11.619Z</time>
      </trkpt>
      <trkpt lat="45.87936" lon="3.63239">
        <ele>616</ele>
        <time>2024-12-08T00:35:12.620Z</time>
      </trkpt>
      <trkpt lat="45.87936" lon="3.63242">
        <ele>616</ele>
        <time>2024-12-08T00:35:13.620Z</time>
      </trkpt>
      <trkpt lat="45.87936" lon="3.63245">
        <ele>616</ele>
        <time>2024-12-08T00:35:14.619Z</time>
      </trkpt>
      <trkpt lat="45.87935" lon="3.63247">
        <ele>616</ele>
        <time>2024-12-08T00:35:15.619Z</time>
      </trkpt>
      <trkpt lat="45.87935" lon="3.6325">
        <ele>616</ele>
        <time>2024-12-08T00:35:16.620Z</time>
      </trkpt>
      <trkpt lat="45.87935" lon="3.63252">
        <ele>616</ele>
        <time>2024-12-08T00:35:17.620Z</time>
      </trkpt>
      <trkpt lat="45.87934" lon="3.63255">
        <ele>616</ele>
        <time>2024-12-08T00:35:18.620Z</time>
      </trkpt>
      <trkpt lat="45.87933" lon="3.63257">
        <ele>616</ele>
        <time>2024-12-08T00:35:19.619Z</time>
      </trkpt>
      <trkpt lat="45.87933" lon="3.6326">
        <ele>615</ele>
        <time>2024-12-08T00:35:20.620Z</time>
      </trkpt>
      <trkpt lat="45.87933" lon="3.63263">
        <ele>615</ele>
        <time>2024-12-08T00:35:21.619Z</time>
      </trkpt>
      <trkpt lat="45.87932" lon="3.63265">
        <ele>615</ele>
        <time>2024-12-08T00:35:22.619Z</time>
      </trkpt>
      <trkpt lat="45.87932" lon="3.63268">
        <ele>615</ele>
        <time>2024-12-08T00:35:23.619Z</time>
      </trkpt>
      <trkpt lat="45.87932" lon="3.6327">
        <ele>615</ele>
        <time>2024-12-08T00:35:24.620Z</time>
      </trkpt>
      <trkpt lat="45.87931" lon="3.63272">
        <ele>615</ele>
        <time>2024-12-08T00:35:25.619Z</time>
      </trkpt>
      <trkpt lat="45.87931" lon="3.63275">
        <ele>616</ele>
        <time>2024-12-08T00:35:26.619Z</time>
      </trkpt>
      <trkpt lat="45.8793" lon="3.63277">
        <ele>616</ele>
        <time>2024-12-08T00:35:27.619Z</time>
      </trkpt>
      <trkpt lat="45.8793" lon="3.6328">
        <ele>616</ele>
        <time>2024-12-08T00:35:28.619Z</time>
      </trkpt>
      <trkpt lat="45.8793" lon="3.63282">
        <ele>616</ele>
        <time>2024-12-08T00:35:29.619Z</time>
      </trkpt>
      <trkpt lat="45.87929" lon="3.63285">
        <ele>617</ele>
        <time>2024-12-08T00:35:30.619Z</time>
      </trkpt>
      <trkpt lat="45.87928" lon="3.63287">
        <ele>617</ele>
        <time>2024-12-08T00:35:31.619Z</time>
      </trkpt>
      <trkpt lat="45.87928" lon="3.63289">
        <ele>618</ele>
        <time>2024-12-08T00:35:32.619Z</time>
      </trkpt>
      <trkpt lat="45.87928" lon="3.63292">
        <ele>618</ele>
        <time>2024-12-08T00:35:33.619Z</time>
      </trkpt>
      <trkpt lat="45.87928" lon="3.63293">
        <ele>618</ele>
        <time>2024-12-08T00:35:34.619Z</time>
      </trkpt>
      <trkpt lat="45.87927" lon="3.63296">
        <ele>618</ele>
        <time>2024-12-08T00:35:35.619Z</time>
      </trkpt>
      <trkpt lat="45.87927" lon="3.63298">
        <ele>619</ele>
        <time>2024-12-08T00:35:36.620Z</time>
      </trkpt>
      <trkpt lat="45.87927" lon="3.63301">
        <ele>619</ele>
        <time>2024-12-08T00:35:37.619Z</time>
      </trkpt>
      <trkpt lat="45.87926" lon="3.63304">
        <ele>619</ele>
        <time>2024-12-08T00:35:38.619Z</time>
      </trkpt>
      <trkpt lat="45.87926" lon="3.63306">
        <ele>619</ele>
        <time>2024-12-08T00:35:39.619Z</time>
      </trkpt>
      <trkpt lat="45.87925" lon="3.63308">
        <ele>619</ele>
        <time>2024-12-08T00:35:40.620Z</time>
      </trkpt>
      <trkpt lat="45.87925" lon="3.6331">
        <ele>619</ele>
        <time>2024-12-08T00:35:41.619Z</time>
      </trkpt>
      <trkpt lat="45.87924" lon="3.63313">
        <ele>619</ele>
        <time>2024-12-08T00:35:42.620Z</time>
      </trkpt>
      <trkpt lat="45.87924" lon="3.63315">
        <ele>620</ele>
        <time>2024-12-08T00:35:43.620Z</time>
      </trkpt>
      <trkpt lat="45.87924" lon="3.63318">
        <ele>620</ele>
        <time>2024-12-08T00:35:44.619Z</time>
      </trkpt>
      <trkpt lat="45.87924" lon="3.6332">
        <ele>620</ele>
        <time>2024-12-08T00:35:45.620Z</time>
      </trkpt>
      <trkpt lat="45.87924" lon="3.63323">
        <ele>620</ele>
        <time>2024-12-08T00:35:46.619Z</time>
      </trkpt>
      <trkpt lat="45.87924" lon="3.63326">
        <ele>620</ele>
        <time>2024-12-08T00:35:47.620Z</time>
      </trkpt>
      <trkpt lat="45.87923" lon="3.6333">
        <ele>619</ele>
        <time>2024-12-08T00:35:48.619Z</time>
      </trkpt>
      <trkpt lat="45.87923" lon="3.63333">
        <ele>619</ele>
        <time>2024-12-08T00:35:49.620Z</time>
      </trkpt>
      <trkpt lat="45.87923" lon="3.63336">
        <ele>619</ele>
        <time>2024-12-08T00:35:50.619Z</time>
      </trkpt>
      <trkpt lat="45.87922" lon="3.63338">
        <ele>618</ele>
        <time>2024-12-08T00:35:51.620Z</time>
      </trkpt>
      <trkpt lat="45.87922" lon="3.63341">
        <ele>617</ele>
        <time>2024-12-08T00:35:52.619Z</time>
      </trkpt>
      <trkpt lat="45.87922" lon="3.63343">
        <ele>617</ele>
        <time>2024-12-08T00:35:53.620Z</time>
      </trkpt>
      <trkpt lat="45.87922" lon="3.63345">
        <ele>616</ele>
        <time>2024-12-08T00:35:54.619Z</time>
      </trkpt>
      <trkpt lat="45.87922" lon="3.63348">
        <ele>616</ele>
        <time>2024-12-08T00:35:55.620Z</time>
      </trkpt>
      <trkpt lat="45.87922" lon="3.6335">
        <ele>616</ele>
        <time>2024-12-08T00:35:56.620Z</time>
      </trkpt>
      <trkpt lat="45.87922" lon="3.63353">
        <ele>616</ele>
        <time>2024-12-08T00:35:57.620Z</time>
      </trkpt>
      <trkpt lat="45.87922" lon="3.63355">
        <ele>616</ele>
        <time>2024-12-08T00:35:58.619Z</time>
      </trkpt>
      <trkpt lat="45.87921" lon="3.63358">
        <ele>616</ele>
        <time>2024-12-08T00:35:59.619Z</time>
      </trkpt>
      <trkpt lat="45.87921" lon="3.63361">
        <ele>616</ele>
        <time>2024-12-08T00:36:00.619Z</time>
      </trkpt>
      <trkpt lat="45.87921" lon="3.63363">
        <ele>616</ele>
        <time>2024-12-08T00:36:01.619Z</time>
      </trkpt>
      <trkpt lat="45.8792" lon="3.63366">
        <ele>616</ele>
        <time>2024-12-08T00:36:02.619Z</time>
      </trkpt>
      <trkpt lat="45.8792" lon="3.63369">
        <ele>615</ele>
        <time>2024-12-08T00:36:03.620Z</time>
      </trkpt>
      <trkpt lat="45.8792" lon="3.63373">
        <ele>615</ele>
        <time>2024-12-08T00:36:04.620Z</time>
      </trkpt>
      <trkpt lat="45.8792" lon="3.63376">
        <ele>616</ele>
        <time>2024-12-08T00:36:05.620Z</time>
      </trkpt>
      <trkpt lat="45.87919" lon="3.63378">
        <ele>616</ele>
        <time>2024-12-08T00:36:06.619Z</time>
      </trkpt>
      <trkpt lat="45.87919" lon="3.63381">
        <ele>616</ele>
        <time>2024-12-08T00:36:07.620Z</time>
      </trkpt>
      <trkpt lat="45.87918" lon="3.63383">
        <ele>616</ele>
        <time>2024-12-08T00:36:08.619Z</time>
      </trkpt>
      <trkpt lat="45.87918" lon="3.63386">
        <ele>616</ele>
        <time>2024-12-08T00:36:09.620Z</time>
      </trkpt>
      <trkpt lat="45.87917" lon="3.63388">
        <ele>616</ele>
        <time>2024-12-08T00:36:10.620Z</time>
      </trkpt>
      <trkpt lat="45.87917" lon="3.6339">
        <ele>616</ele>
        <time>2024-12-08T00:36:11.619Z</time>
      </trkpt>
      <trkpt lat="45.87917" lon="3.63393">
        <ele>616</ele>
        <time>2024-12-08T00:36:12.619Z</time>
      </trkpt>
      <trkpt lat="45.87917" lon="3.63395">
        <ele>616</ele>
        <time>2024-12-08T00:36:13.619Z</time>
      </trkpt>
      <trkpt lat="45.87916" lon="3.63397">
        <ele>617</ele>
        <time>2024-12-08T00:36:14.620Z</time>
      </trkpt>
      <trkpt lat="45.87916" lon="3.634">
        <ele>617</ele>
        <time>2024-12-08T00:36:15.620Z</time>
      </trkpt>
      <trkpt lat="45.87915" lon="3.63403">
        <ele>617</ele>
        <time>2024-12-08T00:36:16.619Z</time>
      </trkpt>
      <trkpt lat="45.87915" lon="3.63404">
        <ele>617</ele>
        <time>2024-12-08T00:36:17.619Z</time>
      </trkpt>
      <trkpt lat="45.87914" lon="3.63407">
        <ele>618</ele>
        <time>2024-12-08T00:36:18.620Z</time>
      </trkpt>
      <trkpt lat="45.87914" lon="3.63409">
        <ele>618</ele>
        <time>2024-12-08T00:36:19.619Z</time>
      </trkpt>
      <trkpt lat="45.87914" lon="3.63412">
        <ele>618</ele>
        <time>2024-12-08T00:36:20.620Z</time>
      </trkpt>
      <trkpt lat="45.87913" lon="3.63413">
        <ele>617</ele>
        <time>2024-12-08T00:36:21.619Z</time>
      </trkpt>
      <trkpt lat="45.87913" lon="3.63416">
        <ele>617</ele>
        <time>2024-12-08T00:36:22.620Z</time>
      </trkpt>
      <trkpt lat="45.87912" lon="3.63418">
        <ele>617</ele>
        <time>2024-12-08T00:36:23.620Z</time>
      </trkpt>
      <trkpt lat="45.87912" lon="3.6342">
        <ele>618</ele>
        <time>2024-12-08T00:36:24.620Z</time>
      </trkpt>
      <trkpt lat="45.87912" lon="3.63422">
        <ele>618</ele>
        <time>2024-12-08T00:36:25.620Z</time>
      </trkpt>
      <trkpt lat="45.87911" lon="3.63424">
        <ele>618</ele>
        <time>2024-12-08T00:36:26.620Z</time>
      </trkpt>
      <trkpt lat="45.87911" lon="3.63426">
        <ele>617</ele>
        <time>2024-12-08T00:36:27.619Z</time>
      </trkpt>
      <trkpt lat="45.87911" lon="3.63429">
        <ele>617</ele>
        <time>2024-12-08T00:36:28.620Z</time>
      </trkpt>
      <trkpt lat="45.8791" lon="3.63431">
        <ele>617</ele>
        <time>2024-12-08T00:36:29.619Z</time>
      </trkpt>
      <trkpt lat="45.8791" lon="3.63433">
        <ele>617</ele>
        <time>2024-12-08T00:36:30.619Z</time>
      </trkpt>
      <trkpt lat="45.8791" lon="3.63436">
        <ele>618</ele>
        <time>2024-12-08T00:36:31.620Z</time>
      </trkpt>
      <trkpt lat="45.87909" lon="3.63438">
        <ele>618</ele>
        <time>2024-12-08T00:36:32.620Z</time>
      </trkpt>
      <trkpt lat="45.87909" lon="3.63441">
        <ele>618</ele>
        <time>2024-12-08T00:36:33.619Z</time>
      </trkpt>
      <trkpt lat="45.87909" lon="3.63442">
        <ele>618</ele>
        <time>2024-12-08T00:36:34.619Z</time>
      </trkpt>
      <trkpt lat="45.87909" lon="3.63445">
        <ele>618</ele>
        <time>2024-12-08T00:36:35.619Z</time>
      </trkpt>
      <trkpt lat="45.87909" lon="3.63447">
        <ele>618</ele>
        <time>2024-12-08T00:36:36.619Z</time>
      </trkpt>
      <trkpt lat="45.87909" lon="3.63449">
        <ele>618</ele>
        <time>2024-12-08T00:36:37.619Z</time>
      </trkpt>
      <trkpt lat="45.87908" lon="3.63451">
        <ele>617</ele>
        <time>2024-12-08T00:36:38.620Z</time>
      </trkpt>
      <trkpt lat="45.87908" lon="3.63454">
        <ele>617</ele>
        <time>2024-12-08T00:36:39.620Z</time>
      </trkpt>
      <trkpt lat="45.87907" lon="3.63456">
        <ele>617</ele>
        <time>2024-12-08T00:36:40.620Z</time>
      </trkpt>
      <trkpt lat="45.87907" lon="3.63458">
        <ele>617</ele>
        <time>2024-12-08T00:36:41.620Z</time>
      </trkpt>
      <trkpt lat="45.87907" lon="3.6346">
        <ele>617</ele>
        <time>2024-12-08T00:36:42.619Z</time>
      </trkpt>
      <trkpt lat="45.87906" lon="3.63462">
        <ele>617</ele>
        <time>2024-12-08T00:36:43.619Z</time>
      </trkpt>
      <trkpt lat="45.87906" lon="3.63464">
        <ele>617</ele>
        <time>2024-12-08T00:36:44.620Z</time>
      </trkpt>
      <trkpt lat="45.87906" lon="3.63466">
        <ele>616</ele>
        <time>2024-12-08T00:36:45.620Z</time>
      </trkpt>
      <trkpt lat="45.87905" lon="3.63468">
        <ele>616</ele>
        <time>2024-12-08T00:36:46.619Z</time>
      </trkpt>
      <trkpt lat="45.87905" lon="3.6347">
        <ele>616</ele>
        <time>2024-12-08T00:36:47.619Z</time>
      </trkpt>
      <trkpt lat="45.87905" lon="3.63472">
        <ele>616</ele>
        <time>2024-12-08T00:36:48.619Z</time>
      </trkpt>
      <trkpt lat="45.87904" lon="3.63474">
        <ele>616</ele>
        <time>2024-12-08T00:36:49.619Z</time>
      </trkpt>
      <trkpt lat="45.87904" lon="3.63476">
        <ele>615</ele>
        <time>2024-12-08T00:36:50.619Z</time>
      </trkpt>
      <trkpt lat="45.87904" lon="3.63477">
        <ele>615</ele>
        <time>2024-12-08T00:36:51.619Z</time>
      </trkpt>
      <trkpt lat="45.87904" lon="3.63479">
        <ele>615</ele>
        <time>2024-12-08T00:36:52.619Z</time>
      </trkpt>
      <trkpt lat="45.87903" lon="3.63481">
        <ele>616</ele>
        <time>2024-12-08T00:36:53.620Z</time>
      </trkpt>
      <trkpt lat="45.87903" lon="3.63483">
        <ele>616</ele>
        <time>2024-12-08T00:36:54.620Z</time>
      </trkpt>
      <trkpt lat="45.87903" lon="3.63485">
        <ele>617</ele>
        <time>2024-12-08T00:36:55.620Z</time>
      </trkpt>
      <trkpt lat="45.87903" lon="3.63487">
        <ele>617</ele>
        <time>2024-12-08T00:36:56.620Z</time>
      </trkpt>
      <trkpt lat="45.87903" lon="3.63489">
        <ele>618</ele>
        <time>2024-12-08T00:36:57.619Z</time>
      </trkpt>
      <trkpt lat="45.87903" lon="3.63491">
        <ele>618</ele>
        <time>2024-12-08T00:36:58.620Z</time>
      </trkpt>
      <trkpt lat="45.87903" lon="3.63493">
        <ele>618</ele>
        <time>2024-12-08T00:36:59.619Z</time>
      </trkpt>
      <trkpt lat="45.87903" lon="3.63497">
        <ele>619</ele>
        <time>2024-12-08T00:37:00.620Z</time>
      </trkpt>
      <trkpt lat="45.87902" lon="3.63499">
        <ele>619</ele>
        <time>2024-12-08T00:37:01.619Z</time>
      </trkpt>
      <trkpt lat="45.87902" lon="3.63501">
        <ele>619</ele>
        <time>2024-12-08T00:37:02.619Z</time>
      </trkpt>
      <trkpt lat="45.87901" lon="3.63505">
        <ele>619</ele>
        <time>2024-12-08T00:37:03.619Z</time>
      </trkpt>
      <trkpt lat="45.879" lon="3.63507">
        <ele>619</ele>
        <time>2024-12-08T00:37:04.619Z</time>
      </trkpt>
      <trkpt lat="45.87899" lon="3.63509">
        <ele>619</ele>
        <time>2024-12-08T00:37:05.619Z</time>
      </trkpt>
      <trkpt lat="45.87899" lon="3.63512">
        <ele>619</ele>
        <time>2024-12-08T00:37:06.620Z</time>
      </trkpt>
      <trkpt lat="45.87899" lon="3.63513">
        <ele>620</ele>
        <time>2024-12-08T00:37:07.619Z</time>
      </trkpt>
      <trkpt lat="45.87899" lon="3.63515">
        <ele>619</ele>
        <time>2024-12-08T00:37:08.620Z</time>
      </trkpt>
      <trkpt lat="45.87898" lon="3.63518">
        <ele>619</ele>
        <time>2024-12-08T00:37:09.620Z</time>
      </trkpt>
      <trkpt lat="45.87898" lon="3.6352">
        <ele>620</ele>
        <time>2024-12-08T00:37:10.620Z</time>
      </trkpt>
      <trkpt lat="45.87898" lon="3.63522">
        <ele>620</ele>
        <time>2024-12-08T00:37:11.619Z</time>
      </trkpt>
      <trkpt lat="45.87898" lon="3.63524">
        <ele>620</ele>
        <time>2024-12-08T00:37:12.620Z</time>
      </trkpt>
      <trkpt lat="45.87898" lon="3.63525">
        <ele>620</ele>
        <time>2024-12-08T00:37:13.620Z</time>
      </trkpt>
      <trkpt lat="45.87898" lon="3.63526">
        <ele>620</ele>
        <time>2024-12-08T00:37:14.619Z</time>
      </trkpt>
      <trkpt lat="45.87898" lon="3.63528">
        <ele>620</ele>
        <time>2024-12-08T00:37:15.620Z</time>
      </trkpt>
      <trkpt lat="45.87897" lon="3.6353">
        <ele>620</ele>
        <time>2024-12-08T00:37:16.619Z</time>
      </trkpt>
      <trkpt lat="45.87897" lon="3.63533">
        <ele>621</ele>
        <time>2024-12-08T00:37:17.619Z</time>
      </trkpt>
      <trkpt lat="45.87897" lon="3.63535">
        <ele>621</ele>
        <time>2024-12-08T00:37:18.620Z</time>
      </trkpt>
      <trkpt lat="45.87897" lon="3.63536">
        <ele>621</ele>
        <time>2024-12-08T00:37:19.619Z</time>
      </trkpt>
      <trkpt lat="45.87896" lon="3.63538">
        <ele>622</ele>
        <time>2024-12-08T00:37:20.620Z</time>
      </trkpt>
      <trkpt lat="45.87897" lon="3.6354">
        <ele>622</ele>
        <time>2024-12-08T00:37:21.620Z</time>
      </trkpt>
      <trkpt lat="45.87896" lon="3.63543">
        <ele>622</ele>
        <time>2024-12-08T00:37:22.620Z</time>
      </trkpt>
      <trkpt lat="45.87896" lon="3.63546">
        <ele>622</ele>
        <time>2024-12-08T00:37:23.619Z</time>
      </trkpt>
      <trkpt lat="45.87895" lon="3.63548">
        <ele>622</ele>
        <time>2024-12-08T00:37:24.620Z</time>
      </trkpt>
      <trkpt lat="45.87895" lon="3.6355">
        <ele>623</ele>
        <time>2024-12-08T00:37:25.620Z</time>
      </trkpt>
      <trkpt lat="45.87894" lon="3.63553">
        <ele>623</ele>
        <time>2024-12-08T00:37:26.620Z</time>
      </trkpt>
      <trkpt lat="45.87893" lon="3.63556">
        <ele>624</ele>
        <time>2024-12-08T00:37:27.620Z</time>
      </trkpt>
      <trkpt lat="45.87892" lon="3.63559">
        <ele>625</ele>
        <time>2024-12-08T00:37:28.619Z</time>
      </trkpt>
      <trkpt lat="45.87891" lon="3.63561">
        <ele>625</ele>
        <time>2024-12-08T00:37:29.620Z</time>
      </trkpt>
      <trkpt lat="45.87889" lon="3.63564">
        <ele>626</ele>
        <time>2024-12-08T00:37:30.619Z</time>
      </trkpt>
      <trkpt lat="45.87888" lon="3.63566">
        <ele>626</ele>
        <time>2024-12-08T00:37:31.620Z</time>
      </trkpt>
      <trkpt lat="45.87888" lon="3.63568">
        <ele>627</ele>
        <time>2024-12-08T00:37:32.619Z</time>
      </trkpt>
      <trkpt lat="45.87887" lon="3.63569">
        <ele>627</ele>
        <time>2024-12-08T00:37:33.620Z</time>
      </trkpt>
      <trkpt lat="45.87886" lon="3.63571">
        <ele>627</ele>
        <time>2024-12-08T00:37:34.619Z</time>
      </trkpt>
      <trkpt lat="45.87885" lon="3.63574">
        <ele>627</ele>
        <time>2024-12-08T00:37:35.619Z</time>
      </trkpt>
      <trkpt lat="45.87884" lon="3.63576">
        <ele>627</ele>
        <time>2024-12-08T00:37:36.620Z</time>
      </trkpt>
      <trkpt lat="45.87883" lon="3.63578">
        <ele>627</ele>
        <time>2024-12-08T00:37:37.620Z</time>
      </trkpt>
      <trkpt lat="45.87882" lon="3.6358">
        <ele>627</ele>
        <time>2024-12-08T00:37:38.619Z</time>
      </trkpt>
      <trkpt lat="45.87881" lon="3.63582">
        <ele>627</ele>
        <time>2024-12-08T00:37:39.620Z</time>
      </trkpt>
      <trkpt lat="45.8788" lon="3.63583">
        <ele>628</ele>
        <time>2024-12-08T00:37:40.620Z</time>
      </trkpt>
      <trkpt lat="45.87879" lon="3.63585">
        <ele>628</ele>
        <time>2024-12-08T00:37:41.619Z</time>
      </trkpt>
      <trkpt lat="45.87878" lon="3.63586">
        <ele>628</ele>
        <time>2024-12-08T00:37:42.619Z</time>
      </trkpt>
      <trkpt lat="45.87877" lon="3.63588">
        <ele>629</ele>
        <time>2024-12-08T00:37:43.620Z</time>
      </trkpt>
      <trkpt lat="45.87876" lon="3.6359">
        <ele>629</ele>
        <time>2024-12-08T00:37:44.619Z</time>
      </trkpt>
      <trkpt lat="45.87875" lon="3.63592">
        <ele>629</ele>
        <time>2024-12-08T00:37:45.619Z</time>
      </trkpt>
      <trkpt lat="45.87874" lon="3.63594">
        <ele>630</ele>
        <time>2024-12-08T00:37:46.619Z</time>
      </trkpt>
      <trkpt lat="45.87873" lon="3.63595">
        <ele>630</ele>
        <time>2024-12-08T00:37:47.620Z</time>
      </trkpt>
      <trkpt lat="45.87873" lon="3.63596">
        <ele>630</ele>
        <time>2024-12-08T00:37:48.619Z</time>
      </trkpt>
      <trkpt lat="45.87872" lon="3.63598">
        <ele>631</ele>
        <time>2024-12-08T00:37:49.619Z</time>
      </trkpt>
      <trkpt lat="45.87871" lon="3.636">
        <ele>631</ele>
        <time>2024-12-08T00:37:50.620Z</time>
      </trkpt>
      <trkpt lat="45.87869" lon="3.63602">
        <ele>631</ele>
        <time>2024-12-08T00:37:51.620Z</time>
      </trkpt>
      <trkpt lat="45.87868" lon="3.63604">
        <ele>632</ele>
        <time>2024-12-08T00:37:52.619Z</time>
      </trkpt>
      <trkpt lat="45.87866" lon="3.63606">
        <ele>632</ele>
        <time>2024-12-08T00:37:53.620Z</time>
      </trkpt>
      <trkpt lat="45.87865" lon="3.63607">
        <ele>632</ele>
        <time>2024-12-08T00:37:54.619Z</time>
      </trkpt>
      <trkpt lat="45.87864" lon="3.63609">
        <ele>633</ele>
        <time>2024-12-08T00:37:55.620Z</time>
      </trkpt>
      <trkpt lat="45.87863" lon="3.63611">
        <ele>633</ele>
        <time>2024-12-08T00:37:56.619Z</time>
      </trkpt>
      <trkpt lat="45.87862" lon="3.63612">
        <ele>633</ele>
        <time>2024-12-08T00:37:57.620Z</time>
      </trkpt>
      <trkpt lat="45.87862" lon="3.63614">
        <ele>633</ele>
        <time>2024-12-08T00:37:58.619Z</time>
      </trkpt>
      <trkpt lat="45.87861" lon="3.63616">
        <ele>634</ele>
        <time>2024-12-08T00:37:59.620Z</time>
      </trkpt>
      <trkpt lat="45.8786" lon="3.63618">
        <ele>634</ele>
        <time>2024-12-08T00:38:00.619Z</time>
      </trkpt>
      <trkpt lat="45.87859" lon="3.6362">
        <ele>634</ele>
        <time>2024-12-08T00:38:01.619Z</time>
      </trkpt>
      <trkpt lat="45.87857" lon="3.63622">
        <ele>634</ele>
        <time>2024-12-08T00:38:02.620Z</time>
      </trkpt>
      <trkpt lat="45.87856" lon="3.63624">
        <ele>634</ele>
        <time>2024-12-08T00:38:03.619Z</time>
      </trkpt>
      <trkpt lat="45.87855" lon="3.63625">
        <ele>634</ele>
        <time>2024-12-08T00:38:04.620Z</time>
      </trkpt>
      <trkpt lat="45.87853" lon="3.63626">
        <ele>634</ele>
        <time>2024-12-08T00:38:05.619Z</time>
      </trkpt>
      <trkpt lat="45.87852" lon="3.63627">
        <ele>634</ele>
        <time>2024-12-08T00:38:06.619Z</time>
      </trkpt>
      <trkpt lat="45.87851" lon="3.63629">
        <ele>635</ele>
        <time>2024-12-08T00:38:07.619Z</time>
      </trkpt>
      <trkpt lat="45.87849" lon="3.63631">
        <ele>635</ele>
        <time>2024-12-08T00:38:08.620Z</time>
      </trkpt>
      <trkpt lat="45.87848" lon="3.63632">
        <ele>635</ele>
        <time>2024-12-08T00:38:09.620Z</time>
      </trkpt>
      <trkpt lat="45.87847" lon="3.63634">
        <ele>635</ele>
        <time>2024-12-08T00:38:10.620Z</time>
      </trkpt>
      <trkpt lat="45.87846" lon="3.63634">
        <ele>635</ele>
        <time>2024-12-08T00:38:11.620Z</time>
      </trkpt>
      <trkpt lat="45.87845" lon="3.63635">
        <ele>635</ele>
        <time>2024-12-08T00:38:12.619Z</time>
      </trkpt>
      <trkpt lat="45.87843" lon="3.63636">
        <ele>635</ele>
        <time>2024-12-08T00:38:13.620Z</time>
      </trkpt>
      <trkpt lat="45.87842" lon="3.63637">
        <ele>635</ele>
        <time>2024-12-08T00:38:14.619Z</time>
      </trkpt>
      <trkpt lat="45.8784" lon="3.63638">
        <ele>635</ele>
        <time>2024-12-08T00:38:15.619Z</time>
      </trkpt>
      <trkpt lat="45.87839" lon="3.6364">
        <ele>635</ele>
        <time>2024-12-08T00:38:16.619Z</time>
      </trkpt>
      <trkpt lat="45.87837" lon="3.63642">
        <ele>635</ele>
        <time>2024-12-08T00:38:17.619Z</time>
      </trkpt>
      <trkpt lat="45.87836" lon="3.63643">
        <ele>635</ele>
        <time>2024-12-08T00:38:18.619Z</time>
      </trkpt>
      <trkpt lat="45.87835" lon="3.63645">
        <ele>635</ele>
        <time>2024-12-08T00:38:19.619Z</time>
      </trkpt>
      <trkpt lat="45.87833" lon="3.63647">
        <ele>635</ele>
        <time>2024-12-08T00:38:20.619Z</time>
      </trkpt>
      <trkpt lat="45.87832" lon="3.63649">
        <ele>636</ele>
        <time>2024-12-08T00:38:21.619Z</time>
      </trkpt>
      <trkpt lat="45.8783" lon="3.6365">
        <ele>636</ele>
        <time>2024-12-08T00:38:22.620Z</time>
      </trkpt>
      <trkpt lat="45.87829" lon="3.63652">
        <ele>636</ele>
        <time>2024-12-08T00:38:23.619Z</time>
      </trkpt>
      <trkpt lat="45.87828" lon="3.63653">
        <ele>636</ele>
        <time>2024-12-08T00:38:24.619Z</time>
      </trkpt>
      <trkpt lat="45.87827" lon="3.63654">
        <ele>636</ele>
        <time>2024-12-08T00:38:25.620Z</time>
      </trkpt>
      <trkpt lat="45.87826" lon="3.63656">
        <ele>636</ele>
        <time>2024-12-08T00:38:26.620Z</time>
      </trkpt>
      <trkpt lat="45.87824" lon="3.63658">
        <ele>636</ele>
        <time>2024-12-08T00:38:27.620Z</time>
      </trkpt>
      <trkpt lat="45.87823" lon="3.6366">
        <ele>636</ele>
        <time>2024-12-08T00:38:28.620Z</time>
      </trkpt>
      <trkpt lat="45.87821" lon="3.63662">
        <ele>636</ele>
        <time>2024-12-08T00:38:29.619Z</time>
      </trkpt>
      <trkpt lat="45.8782" lon="3.63663">
        <ele>636</ele>
        <time>2024-12-08T00:38:30.619Z</time>
      </trkpt>
      <trkpt lat="45.87819" lon="3.63665">
        <ele>636</ele>
        <time>2024-12-08T00:38:31.620Z</time>
      </trkpt>
      <trkpt lat="45.87818" lon="3.63666">
        <ele>636</ele>
        <time>2024-12-08T00:38:32.620Z</time>
      </trkpt>
      <trkpt lat="45.87817" lon="3.63666">
        <ele>636</ele>
        <time>2024-12-08T00:38:33.619Z</time>
      </trkpt>
      <trkpt lat="45.87816" lon="3.63667">
        <ele>636</ele>
        <time>2024-12-08T00:38:34.620Z</time>
      </trkpt>
      <trkpt lat="45.87815" lon="3.63668">
        <ele>636</ele>
        <time>2024-12-08T00:38:35.620Z</time>
      </trkpt>
      <trkpt lat="45.87814" lon="3.63669">
        <ele>636</ele>
        <time>2024-12-08T00:38:36.620Z</time>
      </trkpt>
      <trkpt lat="45.87813" lon="3.6367">
        <ele>636</ele>
        <time>2024-12-08T00:38:37.619Z</time>
      </trkpt>
      <trkpt lat="45.87811" lon="3.63671">
        <ele>637</ele>
        <time>2024-12-08T00:38:38.619Z</time>
      </trkpt>
      <trkpt lat="45.8781" lon="3.63672">
        <ele>637</ele>
        <time>2024-12-08T00:38:39.619Z</time>
      </trkpt>
      <trkpt lat="45.87809" lon="3.63673">
        <ele>637</ele>
        <time>2024-12-08T00:38:40.619Z</time>
      </trkpt>
      <trkpt lat="45.87807" lon="3.63674">
        <ele>637</ele>
        <time>2024-12-08T00:38:41.620Z</time>
      </trkpt>
      <trkpt lat="45.87806" lon="3.63675">
        <ele>637</ele>
        <time>2024-12-08T00:38:42.619Z</time>
      </trkpt>
      <trkpt lat="45.87805" lon="3.63677">
        <ele>637</ele>
        <time>2024-12-08T00:38:43.620Z</time>
      </trkpt>
      <trkpt lat="45.87802" lon="3.63677">
        <ele>637</ele>
        <time>2024-12-08T00:38:44.620Z</time>
      </trkpt>
      <trkpt lat="45.87799" lon="3.63675">
        <ele>637</ele>
        <time>2024-12-08T00:38:45.620Z</time>
      </trkpt>
      <trkpt lat="45.87798" lon="3.63677">
        <ele>637</ele>
        <time>2024-12-08T00:38:46.620Z</time>
      </trkpt>
      <trkpt lat="45.87796" lon="3.63679">
        <ele>637</ele>
        <time>2024-12-08T00:38:47.620Z</time>
      </trkpt>
      <trkpt lat="45.87795" lon="3.63681">
        <ele>637</ele>
        <time>2024-12-08T00:38:48.620Z</time>
      </trkpt>
      <trkpt lat="45.87793" lon="3.63682">
        <ele>637</ele>
        <time>2024-12-08T00:38:49.620Z</time>
      </trkpt>
      <trkpt lat="45.87792" lon="3.63683">
        <ele>638</ele>
        <time>2024-12-08T00:38:50.619Z</time>
      </trkpt>
      <trkpt lat="45.8779" lon="3.63683">
        <ele>638</ele>
        <time>2024-12-08T00:38:51.620Z</time>
      </trkpt>
      <trkpt lat="45.87789" lon="3.63685">
        <ele>638</ele>
        <time>2024-12-08T00:38:52.620Z</time>
      </trkpt>
      <trkpt lat="45.87787" lon="3.63686">
        <ele>638</ele>
        <time>2024-12-08T00:38:53.620Z</time>
      </trkpt>
      <trkpt lat="45.87785" lon="3.63689">
        <ele>639</ele>
        <time>2024-12-08T00:38:54.620Z</time>
      </trkpt>
      <trkpt lat="45.87785" lon="3.63692">
        <ele>639</ele>
        <time>2024-12-08T00:38:55.620Z</time>
      </trkpt>
      <trkpt lat="45.87784" lon="3.63695">
        <ele>639</ele>
        <time>2024-12-08T00:38:56.619Z</time>
      </trkpt>
      <trkpt lat="45.87784" lon="3.63699">
        <ele>639</ele>
        <time>2024-12-08T00:38:57.620Z</time>
      </trkpt>
      <trkpt lat="45.87783" lon="3.63699">
        <ele>640</ele>
        <time>2024-12-08T00:38:58.620Z</time>
      </trkpt>
      <trkpt lat="45.87782" lon="3.63699">
        <ele>640</ele>
        <time>2024-12-08T00:38:59.619Z</time>
      </trkpt>
      <trkpt lat="45.87781" lon="3.63699">
        <ele>640</ele>
        <time>2024-12-08T00:39:00.619Z</time>
      </trkpt>
      <trkpt lat="45.8778" lon="3.637">
        <ele>640</ele>
        <time>2024-12-08T00:39:01.620Z</time>
      </trkpt>
      <trkpt lat="45.87779" lon="3.637">
        <ele>640</ele>
        <time>2024-12-08T00:39:02.619Z</time>
      </trkpt>
      <trkpt lat="45.87778" lon="3.63702">
        <ele>641</ele>
        <time>2024-12-08T00:39:03.619Z</time>
      </trkpt>
      <trkpt lat="45.87776" lon="3.63703">
        <ele>641</ele>
        <time>2024-12-08T00:39:04.620Z</time>
      </trkpt>
      <trkpt lat="45.87775" lon="3.63705">
        <ele>641</ele>
        <time>2024-12-08T00:39:05.619Z</time>
      </trkpt>
      <trkpt lat="45.87774" lon="3.63707">
        <ele>642</ele>
        <time>2024-12-08T00:39:06.619Z</time>
      </trkpt>
      <trkpt lat="45.87772" lon="3.6371">
        <ele>643</ele>
        <time>2024-12-08T00:39:07.620Z</time>
      </trkpt>
      <trkpt lat="45.87772" lon="3.63713">
        <ele>643</ele>
        <time>2024-12-08T00:39:08.620Z</time>
      </trkpt>
      <trkpt lat="45.87771" lon="3.63715">
        <ele>643</ele>
        <time>2024-12-08T00:39:09.619Z</time>
      </trkpt>
      <trkpt lat="45.8777" lon="3.63717">
        <ele>644</ele>
        <time>2024-12-08T00:39:10.619Z</time>
      </trkpt>
      <trkpt lat="45.87769" lon="3.6372">
        <ele>644</ele>
        <time>2024-12-08T00:39:11.619Z</time>
      </trkpt>
      <trkpt lat="45.87768" lon="3.63722">
        <ele>644</ele>
        <time>2024-12-08T00:39:12.620Z</time>
      </trkpt>
      <trkpt lat="45.87768" lon="3.63724">
        <ele>644</ele>
        <time>2024-12-08T00:39:13.619Z</time>
      </trkpt>
      <trkpt lat="45.87767" lon="3.63725">
        <ele>643</ele>
        <time>2024-12-08T00:39:14.619Z</time>
      </trkpt>
      <trkpt lat="45.87766" lon="3.63728">
        <ele>643</ele>
        <time>2024-12-08T00:39:15.620Z</time>
      </trkpt>
      <trkpt lat="45.87765" lon="3.6373">
        <ele>643</ele>
        <time>2024-12-08T00:39:16.620Z</time>
      </trkpt>
      <trkpt lat="45.87764" lon="3.63731">
        <ele>643</ele>
        <time>2024-12-08T00:39:17.619Z</time>
      </trkpt>
      <trkpt lat="45.87762" lon="3.63732">
        <ele>643</ele>
        <time>2024-12-08T00:39:18.620Z</time>
      </trkpt>
      <trkpt lat="45.8776" lon="3.63733">
        <ele>643</ele>
        <time>2024-12-08T00:39:19.619Z</time>
      </trkpt>
      <trkpt lat="45.87759" lon="3.63735">
        <ele>643</ele>
        <time>2024-12-08T00:39:20.619Z</time>
      </trkpt>
      <trkpt lat="45.87758" lon="3.63737">
        <ele>643</ele>
        <time>2024-12-08T00:39:21.619Z</time>
      </trkpt>
      <trkpt lat="45.87757" lon="3.6374">
        <ele>642</ele>
        <time>2024-12-08T00:39:22.620Z</time>
      </trkpt>
      <trkpt lat="45.87756" lon="3.63742">
        <ele>642</ele>
        <time>2024-12-08T00:39:23.619Z</time>
      </trkpt>
      <trkpt lat="45.87755" lon="3.63743">
        <ele>642</ele>
        <time>2024-12-08T00:39:24.620Z</time>
      </trkpt>
      <trkpt lat="45.87753" lon="3.63744">
        <ele>641</ele>
        <time>2024-12-08T00:39:25.619Z</time>
      </trkpt>
      <trkpt lat="45.87752" lon="3.63745">
        <ele>640</ele>
        <time>2024-12-08T00:39:26.619Z</time>
      </trkpt>
      <trkpt lat="45.87751" lon="3.63746">
        <ele>640</ele>
        <time>2024-12-08T00:39:27.619Z</time>
      </trkpt>
      <trkpt lat="45.87749" lon="3.63747">
        <ele>640</ele>
        <time>2024-12-08T00:39:28.619Z</time>
      </trkpt>
      <trkpt lat="45.87748" lon="3.63749">
        <ele>639</ele>
        <time>2024-12-08T00:39:29.619Z</time>
      </trkpt>
      <trkpt lat="45.87746" lon="3.63751">
        <ele>639</ele>
        <time>2024-12-08T00:39:30.619Z</time>
      </trkpt>
      <trkpt lat="45.87745" lon="3.63753">
        <ele>639</ele>
        <time>2024-12-08T00:39:31.620Z</time>
      </trkpt>
      <trkpt lat="45.87743" lon="3.63756">
        <ele>639</ele>
        <time>2024-12-08T00:39:32.619Z</time>
      </trkpt>
      <trkpt lat="45.87742" lon="3.63758">
        <ele>639</ele>
        <time>2024-12-08T00:39:33.620Z</time>
      </trkpt>
      <trkpt lat="45.8774" lon="3.6376">
        <ele>639</ele>
        <time>2024-12-08T00:39:34.620Z</time>
      </trkpt>
      <trkpt lat="45.87739" lon="3.63762">
        <ele>639</ele>
        <time>2024-12-08T00:39:35.620Z</time>
      </trkpt>
      <trkpt lat="45.87738" lon="3.63764">
        <ele>639</ele>
        <time>2024-12-08T00:39:36.619Z</time>
      </trkpt>
      <trkpt lat="45.87737" lon="3.63766">
        <ele>639</ele>
        <time>2024-12-08T00:39:37.619Z</time>
      </trkpt>
      <trkpt lat="45.87736" lon="3.63768">
        <ele>639</ele>
        <time>2024-12-08T00:39:38.620Z</time>
      </trkpt>
      <trkpt lat="45.87735" lon="3.63769">
        <ele>639</ele>
        <time>2024-12-08T00:39:39.619Z</time>
      </trkpt>
      <trkpt lat="45.87733" lon="3.63772">
        <ele>639</ele>
        <time>2024-12-08T00:39:40.619Z</time>
      </trkpt>
      <trkpt lat="45.87732" lon="3.63774">
        <ele>639</ele>
        <time>2024-12-08T00:39:41.619Z</time>
      </trkpt>
      <trkpt lat="45.87731" lon="3.63776">
        <ele>638</ele>
        <time>2024-12-08T00:39:42.620Z</time>
      </trkpt>
      <trkpt lat="45.8773" lon="3.63779">
        <ele>638</ele>
        <time>2024-12-08T00:39:43.619Z</time>
      </trkpt>
      <trkpt lat="45.87729" lon="3.63781">
        <ele>637</ele>
        <time>2024-12-08T00:39:44.619Z</time>
      </trkpt>
      <trkpt lat="45.87728" lon="3.63783">
        <ele>637</ele>
        <time>2024-12-08T00:39:45.619Z</time>
      </trkpt>
      <trkpt lat="45.87727" lon="3.63785">
        <ele>637</ele>
        <time>2024-12-08T00:39:46.620Z</time>
      </trkpt>
      <trkpt lat="45.87726" lon="3.63788">
        <ele>637</ele>
        <time>2024-12-08T00:39:47.620Z</time>
      </trkpt>
      <trkpt lat="45.87726" lon="3.6379">
        <ele>637</ele>
        <time>2024-12-08T00:39:48.619Z</time>
      </trkpt>
      <trkpt lat="45.87725" lon="3.63792">
        <ele>637</ele>
        <time>2024-12-08T00:39:49.620Z</time>
      </trkpt>
      <trkpt lat="45.87725" lon="3.63794">
        <ele>637</ele>
        <time>2024-12-08T00:39:50.619Z</time>
      </trkpt>
      <trkpt lat="45.87724" lon="3.63797">
        <ele>637</ele>
        <time>2024-12-08T00:39:51.619Z</time>
      </trkpt>
      <trkpt lat="45.87724" lon="3.638">
        <ele>637</ele>
        <time>2024-12-08T00:39:52.619Z</time>
      </trkpt>
      <trkpt lat="45.87723" lon="3.63802">
        <ele>637</ele>
        <time>2024-12-08T00:39:53.619Z</time>
      </trkpt>
      <trkpt lat="45.87723" lon="3.63805">
        <ele>636</ele>
        <time>2024-12-08T00:39:54.620Z</time>
      </trkpt>
      <trkpt lat="45.87722" lon="3.63808">
        <ele>636</ele>
        <time>2024-12-08T00:39:55.619Z</time>
      </trkpt>
      <trkpt lat="45.87722" lon="3.63811">
        <ele>637</ele>
        <time>2024-12-08T00:39:56.620Z</time>
      </trkpt>
      <trkpt lat="45.87722" lon="3.63814">
        <ele>637</ele>
        <time>2024-12-08T00:39:57.620Z</time>
      </trkpt>
      <trkpt lat="45.87722" lon="3.63817">
        <ele>637</ele>
        <time>2024-12-08T00:39:58.619Z</time>
      </trkpt>
      <trkpt lat="45.87721" lon="3.6382">
        <ele>637</ele>
        <time>2024-12-08T00:39:59.620Z</time>
      </trkpt>
      <trkpt lat="45.87721" lon="3.63822">
        <ele>637</ele>
        <time>2024-12-08T00:40:00.619Z</time>
      </trkpt>
      <trkpt lat="45.87721" lon="3.63825">
        <ele>637</ele>
        <time>2024-12-08T00:40:01.619Z</time>
      </trkpt>
      <trkpt lat="45.87721" lon="3.63827">
        <ele>637</ele>
        <time>2024-12-08T00:40:02.619Z</time>
      </trkpt>
      <trkpt lat="45.8772" lon="3.63829">
        <ele>636</ele>
        <time>2024-12-08T00:40:03.620Z</time>
      </trkpt>
      <trkpt lat="45.8772" lon="3.63831">
        <ele>636</ele>
        <time>2024-12-08T00:40:04.619Z</time>
      </trkpt>
      <trkpt lat="45.8772" lon="3.63835">
        <ele>636</ele>
        <time>2024-12-08T00:40:05.620Z</time>
      </trkpt>
      <trkpt lat="45.87719" lon="3.63837">
        <ele>636</ele>
        <time>2024-12-08T00:40:06.620Z</time>
      </trkpt>
      <trkpt lat="45.87719" lon="3.6384">
        <ele>637</ele>
        <time>2024-12-08T00:40:07.620Z</time>
      </trkpt>
      <trkpt lat="45.87718" lon="3.63843">
        <ele>637</ele>
        <time>2024-12-08T00:40:08.620Z</time>
      </trkpt>
      <trkpt lat="45.87718" lon="3.63846">
        <ele>637</ele>
        <time>2024-12-08T00:40:09.619Z</time>
      </trkpt>
      <trkpt lat="45.87717" lon="3.63849">
        <ele>637</ele>
        <time>2024-12-08T00:40:10.620Z</time>
      </trkpt>
      <trkpt lat="45.87717" lon="3.63852">
        <ele>636</ele>
        <time>2024-12-08T00:40:11.620Z</time>
      </trkpt>
      <trkpt lat="45.87717" lon="3.63854">
        <ele>636</ele>
        <time>2024-12-08T00:40:12.619Z</time>
      </trkpt>
      <trkpt lat="45.87717" lon="3.63857">
        <ele>636</ele>
        <time>2024-12-08T00:40:13.619Z</time>
      </trkpt>
      <trkpt lat="45.87717" lon="3.63859">
        <ele>637</ele>
        <time>2024-12-08T00:40:14.620Z</time>
      </trkpt>
      <trkpt lat="45.87717" lon="3.63862">
        <ele>637</ele>
        <time>2024-12-08T00:40:15.619Z</time>
      </trkpt>
      <trkpt lat="45.87716" lon="3.63864">
        <ele>637</ele>
        <time>2024-12-08T00:40:16.620Z</time>
      </trkpt>
      <trkpt lat="45.87716" lon="3.63866">
        <ele>637</ele>
        <time>2024-12-08T00:40:17.619Z</time>
      </trkpt>
      <trkpt lat="45.87716" lon="3.63869">
        <ele>637</ele>
        <time>2024-12-08T00:40:18.619Z</time>
      </trkpt>
      <trkpt lat="45.87715" lon="3.63871">
        <ele>637</ele>
        <time>2024-12-08T00:40:19.619Z</time>
      </trkpt>
      <trkpt lat="45.87715" lon="3.63874">
        <ele>637</ele>
        <time>2024-12-08T00:40:20.619Z</time>
      </trkpt>
      <trkpt lat="45.87714" lon="3.63876">
        <ele>637</ele>
        <time>2024-12-08T00:40:21.619Z</time>
      </trkpt>
      <trkpt lat="45.87714" lon="3.63879">
        <ele>637</ele>
        <time>2024-12-08T00:40:22.620Z</time>
      </trkpt>
      <trkpt lat="45.87713" lon="3.63882">
        <ele>637</ele>
        <time>2024-12-08T00:40:23.620Z</time>
      </trkpt>
      <trkpt lat="45.87713" lon="3.63885">
        <ele>637</ele>
        <time>2024-12-08T00:40:24.619Z</time>
      </trkpt>
      <trkpt lat="45.87712" lon="3.63888">
        <ele>637</ele>
        <time>2024-12-08T00:40:25.619Z</time>
      </trkpt>
      <trkpt lat="45.87711" lon="3.6389">
        <ele>637</ele>
        <time>2024-12-08T00:40:26.619Z</time>
      </trkpt>
      <trkpt lat="45.8771" lon="3.63892">
        <ele>637</ele>
        <time>2024-12-08T00:40:27.619Z</time>
      </trkpt>
      <trkpt lat="45.87709" lon="3.63894">
        <ele>637</ele>
        <time>2024-12-08T00:40:28.619Z</time>
      </trkpt>
      <trkpt lat="45.87708" lon="3.63896">
        <ele>637</ele>
        <time>2024-12-08T00:40:29.619Z</time>
      </trkpt>
      <trkpt lat="45.87707" lon="3.63898">
        <ele>637</ele>
        <time>2024-12-08T00:40:30.619Z</time>
      </trkpt>
      <trkpt lat="45.87706" lon="3.63899">
        <ele>637</ele>
        <time>2024-12-08T00:40:31.620Z</time>
      </trkpt>
      <trkpt lat="45.87704" lon="3.63901">
        <ele>637</ele>
        <time>2024-12-08T00:40:32.620Z</time>
      </trkpt>
      <trkpt lat="45.87702" lon="3.63902">
        <ele>637</ele>
        <time>2024-12-08T00:40:33.619Z</time>
      </trkpt>
      <trkpt lat="45.87701" lon="3.63904">
        <ele>637</ele>
        <time>2024-12-08T00:40:34.619Z</time>
      </trkpt>
      <trkpt lat="45.87699" lon="3.63906">
        <ele>638</ele>
        <time>2024-12-08T00:40:35.620Z</time>
      </trkpt>
      <trkpt lat="45.87697" lon="3.63907">
        <ele>638</ele>
        <time>2024-12-08T00:40:36.619Z</time>
      </trkpt>
      <trkpt lat="45.87696" lon="3.63908">
        <ele>639</ele>
        <time>2024-12-08T00:40:37.619Z</time>
      </trkpt>
      <trkpt lat="45.87694" lon="3.63911">
        <ele>640</ele>
        <time>2024-12-08T00:40:38.620Z</time>
      </trkpt>
      <trkpt lat="45.87692" lon="3.63912">
        <ele>640</ele>
        <time>2024-12-08T00:40:39.620Z</time>
      </trkpt>
      <trkpt lat="45.8769" lon="3.63914">
        <ele>641</ele>
        <time>2024-12-08T00:40:40.619Z</time>
      </trkpt>
      <trkpt lat="45.87689" lon="3.63916">
        <ele>641</ele>
        <time>2024-12-08T00:40:41.619Z</time>
      </trkpt>
      <trkpt lat="45.87688" lon="3.63918">
        <ele>641</ele>
        <time>2024-12-08T00:40:42.619Z</time>
      </trkpt>
      <trkpt lat="45.87686" lon="3.63919">
        <ele>642</ele>
        <time>2024-12-08T00:40:43.619Z</time>
      </trkpt>
      <trkpt lat="45.87685" lon="3.63919">
        <ele>642</ele>
        <time>2024-12-08T00:40:44.619Z</time>
      </trkpt>
      <trkpt lat="45.87684" lon="3.6392">
        <ele>642</ele>
        <time>2024-12-08T00:40:45.619Z</time>
      </trkpt>
      <trkpt lat="45.87682" lon="3.63921">
        <ele>642</ele>
        <time>2024-12-08T00:40:46.619Z</time>
      </trkpt>
      <trkpt lat="45.8768" lon="3.63922">
        <ele>642</ele>
        <time>2024-12-08T00:40:47.619Z</time>
      </trkpt>
      <trkpt lat="45.87679" lon="3.63923">
        <ele>643</ele>
        <time>2024-12-08T00:40:48.619Z</time>
      </trkpt>
      <trkpt lat="45.87677" lon="3.63924">
        <ele>643</ele>
        <time>2024-12-08T00:40:49.619Z</time>
      </trkpt>
      <trkpt lat="45.87676" lon="3.63924">
        <ele>643</ele>
        <time>2024-12-08T00:40:50.619Z</time>
      </trkpt>
      <trkpt lat="45.87674" lon="3.63925">
        <ele>643</ele>
        <time>2024-12-08T00:40:51.619Z</time>
      </trkpt>
      <trkpt lat="45.87673" lon="3.63926">
        <ele>643</ele>
        <time>2024-12-08T00:40:52.620Z</time>
      </trkpt>
      <trkpt lat="45.87671" lon="3.63926">
        <ele>643</ele>
        <time>2024-12-08T00:40:53.619Z</time>
      </trkpt>
      <trkpt lat="45.8767" lon="3.63927">
        <ele>643</ele>
        <time>2024-12-08T00:40:54.620Z</time>
      </trkpt>
      <trkpt lat="45.87668" lon="3.63927">
        <ele>643</ele>
        <time>2024-12-08T00:40:55.619Z</time>
      </trkpt>
      <trkpt lat="45.87667" lon="3.63928">
        <ele>643</ele>
        <time>2024-12-08T00:40:56.620Z</time>
      </trkpt>
      <trkpt lat="45.87665" lon="3.63928">
        <ele>643</ele>
        <time>2024-12-08T00:40:57.620Z</time>
      </trkpt>
      <trkpt lat="45.87663" lon="3.63928">
        <ele>643</ele>
        <time>2024-12-08T00:40:58.620Z</time>
      </trkpt>
      <trkpt lat="45.87662" lon="3.63929">
        <ele>642</ele>
        <time>2024-12-08T00:40:59.619Z</time>
      </trkpt>
      <trkpt lat="45.8766" lon="3.6393">
        <ele>642</ele>
        <time>2024-12-08T00:41:00.620Z</time>
      </trkpt>
      <trkpt lat="45.87658" lon="3.63931">
        <ele>642</ele>
        <time>2024-12-08T00:41:01.620Z</time>
      </trkpt>
      <trkpt lat="45.87657" lon="3.63931">
        <ele>642</ele>
        <time>2024-12-08T00:41:02.619Z</time>
      </trkpt>
      <trkpt lat="45.87656" lon="3.63932">
        <ele>642</ele>
        <time>2024-12-08T00:41:03.619Z</time>
      </trkpt>
      <trkpt lat="45.87654" lon="3.63933">
        <ele>642</ele>
        <time>2024-12-08T00:41:04.619Z</time>
      </trkpt>
      <trkpt lat="45.87653" lon="3.63933">
        <ele>641</ele>
        <time>2024-12-08T00:41:05.619Z</time>
      </trkpt>
      <trkpt lat="45.87651" lon="3.63934">
        <ele>641</ele>
        <time>2024-12-08T00:41:06.619Z</time>
      </trkpt>
      <trkpt lat="45.8765" lon="3.63934">
        <ele>641</ele>
        <time>2024-12-08T00:41:07.619Z</time>
      </trkpt>
      <trkpt lat="45.87649" lon="3.63935">
        <ele>641</ele>
        <time>2024-12-08T00:41:08.619Z</time>
      </trkpt>
      <trkpt lat="45.87648" lon="3.63936">
        <ele>641</ele>
        <time>2024-12-08T00:41:09.619Z</time>
      </trkpt>
      <trkpt lat="45.87646" lon="3.63936">
        <ele>641</ele>
        <time>2024-12-08T00:41:10.619Z</time>
      </trkpt>
      <trkpt lat="45.87645" lon="3.63937">
        <ele>641</ele>
        <time>2024-12-08T00:41:11.620Z</time>
      </trkpt>
      <trkpt lat="45.87644" lon="3.63938">
        <ele>641</ele>
        <time>2024-12-08T00:41:12.619Z</time>
      </trkpt>
      <trkpt lat="45.87642" lon="3.63939">
        <ele>641</ele>
        <time>2024-12-08T00:41:13.619Z</time>
      </trkpt>
      <trkpt lat="45.87641" lon="3.63939">
        <ele>641</ele>
        <time>2024-12-08T00:41:14.619Z</time>
      </trkpt>
      <trkpt lat="45.87639" lon="3.6394">
        <ele>641</ele>
        <time>2024-12-08T00:41:15.619Z</time>
      </trkpt>
      <trkpt lat="45.87638" lon="3.63941">
        <ele>641</ele>
        <time>2024-12-08T00:41:16.619Z</time>
      </trkpt>
      <trkpt lat="45.87637" lon="3.63943">
        <ele>641</ele>
        <time>2024-12-08T00:41:17.619Z</time>
      </trkpt>
      <trkpt lat="45.87636" lon="3.63944">
        <ele>641</ele>
        <time>2024-12-08T00:41:18.620Z</time>
      </trkpt>
      <trkpt lat="45.87634" lon="3.63945">
        <ele>641</ele>
        <time>2024-12-08T00:41:19.620Z</time>
      </trkpt>
      <trkpt lat="45.87633" lon="3.63947">
        <ele>641</ele>
        <time>2024-12-08T00:41:20.619Z</time>
      </trkpt>
      <trkpt lat="45.87631" lon="3.63949">
        <ele>641</ele>
        <time>2024-12-08T00:41:21.620Z</time>
      </trkpt>
      <trkpt lat="45.87629" lon="3.63951">
        <ele>641</ele>
        <time>2024-12-08T00:41:22.619Z</time>
      </trkpt>
      <trkpt lat="45.87627" lon="3.63953">
        <ele>641</ele>
        <time>2024-12-08T00:41:23.619Z</time>
      </trkpt>
      <trkpt lat="45.87625" lon="3.63955">
        <ele>641</ele>
        <time>2024-12-08T00:41:24.619Z</time>
      </trkpt>
      <trkpt lat="45.87624" lon="3.63958">
        <ele>641</ele>
        <time>2024-12-08T00:41:25.619Z</time>
      </trkpt>
      <trkpt lat="45.87622" lon="3.63959">
        <ele>641</ele>
        <time>2024-12-08T00:41:26.619Z</time>
      </trkpt>
      <trkpt lat="45.87621" lon="3.63961">
        <ele>641</ele>
        <time>2024-12-08T00:41:27.619Z</time>
      </trkpt>
      <trkpt lat="45.8762" lon="3.63963">
        <ele>641</ele>
        <time>2024-12-08T00:41:28.619Z</time>
      </trkpt>
      <trkpt lat="45.87619" lon="3.63965">
        <ele>641</ele>
        <time>2024-12-08T00:41:29.619Z</time>
      </trkpt>
      <trkpt lat="45.87617" lon="3.63967">
        <ele>641</ele>
        <time>2024-12-08T00:41:30.620Z</time>
      </trkpt>
      <trkpt lat="45.87616" lon="3.63968">
        <ele>641</ele>
        <time>2024-12-08T00:41:31.619Z</time>
      </trkpt>
      <trkpt lat="45.87615" lon="3.6397">
        <ele>641</ele>
        <time>2024-12-08T00:41:32.619Z</time>
      </trkpt>
      <trkpt lat="45.87613" lon="3.63972">
        <ele>641</ele>
        <time>2024-12-08T00:41:33.619Z</time>
      </trkpt>
      <trkpt lat="45.87611" lon="3.63974">
        <ele>641</ele>
        <time>2024-12-08T00:41:34.619Z</time>
      </trkpt>
      <trkpt lat="45.8761" lon="3.63976">
        <ele>641</ele>
        <time>2024-12-08T00:41:35.620Z</time>
      </trkpt>
      <trkpt lat="45.87608" lon="3.63977">
        <ele>642</ele>
        <time>2024-12-08T00:41:36.620Z</time>
      </trkpt>
      <trkpt lat="45.87607" lon="3.63979">
        <ele>642</ele>
        <time>2024-12-08T00:41:37.620Z</time>
      </trkpt>
      <trkpt lat="45.87606" lon="3.63981">
        <ele>642</ele>
        <time>2024-12-08T00:41:38.620Z</time>
      </trkpt>
      <trkpt lat="45.87605" lon="3.63983">
        <ele>643</ele>
        <time>2024-12-08T00:41:39.619Z</time>
      </trkpt>
      <trkpt lat="45.87603" lon="3.63984">
        <ele>643</ele>
        <time>2024-12-08T00:41:40.619Z</time>
      </trkpt>
      <trkpt lat="45.87602" lon="3.63986">
        <ele>644</ele>
        <time>2024-12-08T00:41:41.620Z</time>
      </trkpt>
      <trkpt lat="45.87601" lon="3.63988">
        <ele>644</ele>
        <time>2024-12-08T00:41:42.619Z</time>
      </trkpt>
      <trkpt lat="45.87599" lon="3.63989">
        <ele>645</ele>
        <time>2024-12-08T00:41:43.619Z</time>
      </trkpt>
      <trkpt lat="45.87598" lon="3.63991">
        <ele>646</ele>
        <time>2024-12-08T00:41:44.620Z</time>
      </trkpt>
      <trkpt lat="45.87597" lon="3.63993">
        <ele>646</ele>
        <time>2024-12-08T00:41:45.619Z</time>
      </trkpt>
      <trkpt lat="45.87595" lon="3.63994">
        <ele>646</ele>
        <time>2024-12-08T00:41:46.620Z</time>
      </trkpt>
      <trkpt lat="45.87594" lon="3.63996">
        <ele>646</ele>
        <time>2024-12-08T00:41:47.620Z</time>
      </trkpt>
      <trkpt lat="45.87593" lon="3.63999">
        <ele>645</ele>
        <time>2024-12-08T00:41:48.619Z</time>
      </trkpt>
      <trkpt lat="45.87592" lon="3.64001">
        <ele>645</ele>
        <time>2024-12-08T00:41:49.619Z</time>
      </trkpt>
      <trkpt lat="45.87591" lon="3.64003">
        <ele>645</ele>
        <time>2024-12-08T00:41:50.619Z</time>
      </trkpt>
      <trkpt lat="45.8759" lon="3.64005">
        <ele>644</ele>
        <time>2024-12-08T00:41:51.619Z</time>
      </trkpt>
      <trkpt lat="45.87588" lon="3.64007">
        <ele>644</ele>
        <time>2024-12-08T00:41:52.619Z</time>
      </trkpt>
      <trkpt lat="45.87587" lon="3.6401">
        <ele>644</ele>
        <time>2024-12-08T00:41:53.619Z</time>
      </trkpt>
      <trkpt lat="45.87586" lon="3.64012">
        <ele>643</ele>
        <time>2024-12-08T00:41:54.619Z</time>
      </trkpt>
      <trkpt lat="45.87585" lon="3.64015">
        <ele>643</ele>
        <time>2024-12-08T00:41:55.620Z</time>
      </trkpt>
      <trkpt lat="45.87583" lon="3.64017">
        <ele>642</ele>
        <time>2024-12-08T00:41:56.620Z</time>
      </trkpt>
      <trkpt lat="45.87582" lon="3.64019">
        <ele>642</ele>
        <time>2024-12-08T00:41:57.619Z</time>
      </trkpt>
      <trkpt lat="45.87581" lon="3.6402">
        <ele>641</ele>
        <time>2024-12-08T00:41:58.620Z</time>
      </trkpt>
      <trkpt lat="45.8758" lon="3.64022">
        <ele>641</ele>
        <time>2024-12-08T00:41:59.619Z</time>
      </trkpt>
      <trkpt lat="45.87579" lon="3.64024">
        <ele>640</ele>
        <time>2024-12-08T00:42:00.620Z</time>
      </trkpt>
      <trkpt lat="45.87578" lon="3.64026">
        <ele>640</ele>
        <time>2024-12-08T00:42:01.620Z</time>
      </trkpt>
      <trkpt lat="45.87576" lon="3.64028">
        <ele>639</ele>
        <time>2024-12-08T00:42:02.620Z</time>
      </trkpt>
      <trkpt lat="45.87575" lon="3.6403">
        <ele>639</ele>
        <time>2024-12-08T00:42:03.619Z</time>
      </trkpt>
      <trkpt lat="45.87573" lon="3.64032">
        <ele>639</ele>
        <time>2024-12-08T00:42:04.620Z</time>
      </trkpt>
      <trkpt lat="45.87572" lon="3.64034">
        <ele>638</ele>
        <time>2024-12-08T00:42:05.619Z</time>
      </trkpt>
      <trkpt lat="45.87571" lon="3.64036">
        <ele>638</ele>
        <time>2024-12-08T00:42:06.619Z</time>
      </trkpt>
      <trkpt lat="45.87569" lon="3.64038">
        <ele>638</ele>
        <time>2024-12-08T00:42:07.619Z</time>
      </trkpt>
      <trkpt lat="45.87568" lon="3.64041">
        <ele>638</ele>
        <time>2024-12-08T00:42:08.619Z</time>
      </trkpt>
      <trkpt lat="45.87567" lon="3.64043">
        <ele>639</ele>
        <time>2024-12-08T00:42:09.619Z</time>
      </trkpt>
      <trkpt lat="45.87565" lon="3.64044">
        <ele>639</ele>
        <time>2024-12-08T00:42:10.620Z</time>
      </trkpt>
      <trkpt lat="45.87564" lon="3.64046">
        <ele>639</ele>
        <time>2024-12-08T00:42:11.620Z</time>
      </trkpt>
      <trkpt lat="45.87563" lon="3.64047">
        <ele>640</ele>
        <time>2024-12-08T00:42:12.620Z</time>
      </trkpt>
      <trkpt lat="45.87561" lon="3.64048">
        <ele>640</ele>
        <time>2024-12-08T00:42:13.619Z</time>
      </trkpt>
      <trkpt lat="45.8756" lon="3.64049">
        <ele>640</ele>
        <time>2024-12-08T00:42:14.619Z</time>
      </trkpt>
      <trkpt lat="45.87558" lon="3.6405">
        <ele>640</ele>
        <time>2024-12-08T00:42:15.620Z</time>
      </trkpt>
      <trkpt lat="45.87556" lon="3.64051">
        <ele>640</ele>
        <time>2024-12-08T00:42:16.620Z</time>
      </trkpt>
      <trkpt lat="45.87555" lon="3.64053">
        <ele>640</ele>
        <time>2024-12-08T00:42:17.619Z</time>
      </trkpt>
      <trkpt lat="45.87553" lon="3.64054">
        <ele>640</ele>
        <time>2024-12-08T00:42:18.620Z</time>
      </trkpt>
      <trkpt lat="45.87552" lon="3.64055">
        <ele>640</ele>
        <time>2024-12-08T00:42:19.619Z</time>
      </trkpt>
      <trkpt lat="45.87551" lon="3.64057">
        <ele>640</ele>
        <time>2024-12-08T00:42:20.620Z</time>
      </trkpt>
      <trkpt lat="45.8755" lon="3.64058">
        <ele>640</ele>
        <time>2024-12-08T00:42:21.619Z</time>
      </trkpt>
      <trkpt lat="45.87548" lon="3.6406">
        <ele>640</ele>
        <time>2024-12-08T00:42:22.619Z</time>
      </trkpt>
      <trkpt lat="45.87548" lon="3.64062">
        <ele>640</ele>
        <time>2024-12-08T00:42:23.619Z</time>
      </trkpt>
      <trkpt lat="45.87547" lon="3.64065">
        <ele>640</ele>
        <time>2024-12-08T00:42:24.619Z</time>
      </trkpt>
      <trkpt lat="45.87547" lon="3.64067">
        <ele>640</ele>
        <time>2024-12-08T00:42:25.620Z</time>
      </trkpt>
      <trkpt lat="45.87546" lon="3.64069">
        <ele>640</ele>
        <time>2024-12-08T00:42:26.619Z</time>
      </trkpt>
      <trkpt lat="45.87546" lon="3.64072">
        <ele>640</ele>
        <time>2024-12-08T00:42:27.620Z</time>
      </trkpt>
      <trkpt lat="45.87545" lon="3.64074">
        <ele>640</ele>
        <time>2024-12-08T00:42:28.620Z</time>
      </trkpt>
      <trkpt lat="45.87544" lon="3.64077">
        <ele>639</ele>
        <time>2024-12-08T00:42:29.619Z</time>
      </trkpt>
      <trkpt lat="45.87542" lon="3.64079">
        <ele>639</ele>
        <time>2024-12-08T00:42:30.620Z</time>
      </trkpt>
      <trkpt lat="45.87541" lon="3.64081">
        <ele>639</ele>
        <time>2024-12-08T00:42:31.620Z</time>
      </trkpt>
      <trkpt lat="45.8754" lon="3.64083">
        <ele>639</ele>
        <time>2024-12-08T00:42:32.620Z</time>
      </trkpt>
      <trkpt lat="45.87539" lon="3.64085">
        <ele>638</ele>
        <time>2024-12-08T00:42:33.620Z</time>
      </trkpt>
      <trkpt lat="45.87538" lon="3.64087">
        <ele>638</ele>
        <time>2024-12-08T00:42:34.620Z</time>
      </trkpt>
      <trkpt lat="45.87537" lon="3.64089">
        <ele>638</ele>
        <time>2024-12-08T00:42:35.620Z</time>
      </trkpt>
      <trkpt lat="45.87536" lon="3.6409">
        <ele>638</ele>
        <time>2024-12-08T00:42:36.620Z</time>
      </trkpt>
      <trkpt lat="45.87535" lon="3.64091">
        <ele>638</ele>
        <time>2024-12-08T00:42:37.619Z</time>
      </trkpt>
      <trkpt lat="45.87535" lon="3.64091">
        <ele>638</ele>
        <time>2024-12-08T00:42:38.619Z</time>
      </trkpt>
      <trkpt lat="45.87533" lon="3.64093">
        <ele>638</ele>
        <time>2024-12-08T00:42:39.619Z</time>
      </trkpt>
      <trkpt lat="45.87531" lon="3.64096">
        <ele>638</ele>
        <time>2024-12-08T00:42:40.620Z</time>
      </trkpt>
      <trkpt lat="45.8753" lon="3.64098">
        <ele>638</ele>
        <time>2024-12-08T00:42:41.620Z</time>
      </trkpt>
      <trkpt lat="45.87529" lon="3.64099">
        <ele>638</ele>
        <time>2024-12-08T00:42:42.620Z</time>
      </trkpt>
      <trkpt lat="45.87528" lon="3.641">
        <ele>638</ele>
        <time>2024-12-08T00:42:43.619Z</time>
      </trkpt>
      <trkpt lat="45.87526" lon="3.64102">
        <ele>639</ele>
        <time>2024-12-08T00:42:44.619Z</time>
      </trkpt>
      <trkpt lat="45.87525" lon="3.64103">
        <ele>639</ele>
        <time>2024-12-08T00:42:45.620Z</time>
      </trkpt>
      <trkpt lat="45.87524" lon="3.64104">
        <ele>639</ele>
        <time>2024-12-08T00:42:46.620Z</time>
      </trkpt>
      <trkpt lat="45.87523" lon="3.64105">
        <ele>639</ele>
        <time>2024-12-08T00:42:47.619Z</time>
      </trkpt>
      <trkpt lat="45.87521" lon="3.64106">
        <ele>639</ele>
        <time>2024-12-08T00:42:48.620Z</time>
      </trkpt>
      <trkpt lat="45.8752" lon="3.64107">
        <ele>639</ele>
        <time>2024-12-08T00:42:49.619Z</time>
      </trkpt>
      <trkpt lat="45.87519" lon="3.64108">
        <ele>638</ele>
        <time>2024-12-08T00:42:50.619Z</time>
      </trkpt>
      <trkpt lat="45.87518" lon="3.64109">
        <ele>638</ele>
        <time>2024-12-08T00:42:51.620Z</time>
      </trkpt>
      <trkpt lat="45.87517" lon="3.6411">
        <ele>638</ele>
        <time>2024-12-08T00:42:52.619Z</time>
      </trkpt>
      <trkpt lat="45.87516" lon="3.64112">
        <ele>638</ele>
        <time>2024-12-08T00:42:53.619Z</time>
      </trkpt>
      <trkpt lat="45.87515" lon="3.64113">
        <ele>638</ele>
        <time>2024-12-08T00:42:54.619Z</time>
      </trkpt>
      <trkpt lat="45.87514" lon="3.64114">
        <ele>638</ele>
        <time>2024-12-08T00:42:55.619Z</time>
      </trkpt>
      <trkpt lat="45.87513" lon="3.64116">
        <ele>638</ele>
        <time>2024-12-08T00:42:56.619Z</time>
      </trkpt>
      <trkpt lat="45.87512" lon="3.64117">
        <ele>638</ele>
        <time>2024-12-08T00:42:57.619Z</time>
      </trkpt>
      <trkpt lat="45.8751" lon="3.64119">
        <ele>639</ele>
        <time>2024-12-08T00:42:58.619Z</time>
      </trkpt>
      <trkpt lat="45.8751" lon="3.6412">
        <ele>639</ele>
        <time>2024-12-08T00:42:59.620Z</time>
      </trkpt>
      <trkpt lat="45.87508" lon="3.64121">
        <ele>639</ele>
        <time>2024-12-08T00:43:00.620Z</time>
      </trkpt>
      <trkpt lat="45.87507" lon="3.64122">
        <ele>639</ele>
        <time>2024-12-08T00:43:01.620Z</time>
      </trkpt>
      <trkpt lat="45.87506" lon="3.64123">
        <ele>638</ele>
        <time>2024-12-08T00:43:02.619Z</time>
      </trkpt>
      <trkpt lat="45.87505" lon="3.64124">
        <ele>638</ele>
        <time>2024-12-08T00:43:03.619Z</time>
      </trkpt>
      <trkpt lat="45.87504" lon="3.64125">
        <ele>638</ele>
        <time>2024-12-08T00:43:04.619Z</time>
      </trkpt>
      <trkpt lat="45.87502" lon="3.64127">
        <ele>638</ele>
        <time>2024-12-08T00:43:05.620Z</time>
      </trkpt>
      <trkpt lat="45.87501" lon="3.64128">
        <ele>638</ele>
        <time>2024-12-08T00:43:06.620Z</time>
      </trkpt>
      <trkpt lat="45.875" lon="3.6413">
        <ele>638</ele>
        <time>2024-12-08T00:43:07.620Z</time>
      </trkpt>
      <trkpt lat="45.87499" lon="3.64132">
        <ele>638</ele>
        <time>2024-12-08T00:43:08.619Z</time>
      </trkpt>
      <trkpt lat="45.87498" lon="3.64133">
        <ele>639</ele>
        <time>2024-12-08T00:43:09.619Z</time>
      </trkpt>
      <trkpt lat="45.87497" lon="3.64134">
        <ele>639</ele>
        <time>2024-12-08T00:43:10.620Z</time>
      </trkpt>
      <trkpt lat="45.87495" lon="3.64136">
        <ele>638</ele>
        <time>2024-12-08T00:43:11.620Z</time>
      </trkpt>
      <trkpt lat="45.87494" lon="3.64137">
        <ele>638</ele>
        <time>2024-12-08T00:43:12.620Z</time>
      </trkpt>
      <trkpt lat="45.87493" lon="3.64139">
        <ele>638</ele>
        <time>2024-12-08T00:43:13.620Z</time>
      </trkpt>
      <trkpt lat="45.87492" lon="3.64141">
        <ele>638</ele>
        <time>2024-12-08T00:43:14.620Z</time>
      </trkpt>
      <trkpt lat="45.87492" lon="3.64142">
        <ele>638</ele>
        <time>2024-12-08T00:43:15.619Z</time>
      </trkpt>
      <trkpt lat="45.87491" lon="3.64143">
        <ele>638</ele>
        <time>2024-12-08T00:43:16.620Z</time>
      </trkpt>
      <trkpt lat="45.8749" lon="3.64145">
        <ele>639</ele>
        <time>2024-12-08T00:43:17.620Z</time>
      </trkpt>
      <trkpt lat="45.8749" lon="3.64146">
        <ele>639</ele>
        <time>2024-12-08T00:43:18.620Z</time>
      </trkpt>
      <trkpt lat="45.87489" lon="3.64147">
        <ele>638</ele>
        <time>2024-12-08T00:43:19.620Z</time>
      </trkpt>
      <trkpt lat="45.87487" lon="3.64148">
        <ele>638</ele>
        <time>2024-12-08T00:43:20.620Z</time>
      </trkpt>
      <trkpt lat="45.87486" lon="3.6415">
        <ele>639</ele>
        <time>2024-12-08T00:43:21.620Z</time>
      </trkpt>
      <trkpt lat="45.87485" lon="3.64151">
        <ele>639</ele>
        <time>2024-12-08T00:43:22.620Z</time>
      </trkpt>
      <trkpt lat="45.87484" lon="3.64153">
        <ele>639</ele>
        <time>2024-12-08T00:43:23.620Z</time>
      </trkpt>
      <trkpt lat="45.87484" lon="3.64154">
        <ele>639</ele>
        <time>2024-12-08T00:43:24.619Z</time>
      </trkpt>
      <trkpt lat="45.87483" lon="3.64156">
        <ele>639</ele>
        <time>2024-12-08T00:43:25.620Z</time>
      </trkpt>
      <trkpt lat="45.87483" lon="3.64157">
        <ele>639</ele>
        <time>2024-12-08T00:43:26.619Z</time>
      </trkpt>
      <trkpt lat="45.87482" lon="3.64158">
        <ele>640</ele>
        <time>2024-12-08T00:43:27.620Z</time>
      </trkpt>
      <trkpt lat="45.87481" lon="3.6416">
        <ele>640</ele>
        <time>2024-12-08T00:43:28.620Z</time>
      </trkpt>
      <trkpt lat="45.8748" lon="3.64161">
        <ele>640</ele>
        <time>2024-12-08T00:43:29.619Z</time>
      </trkpt>
      <trkpt lat="45.8748" lon="3.64163">
        <ele>640</ele>
        <time>2024-12-08T00:43:30.619Z</time>
      </trkpt>
      <trkpt lat="45.87479" lon="3.64165">
        <ele>640</ele>
        <time>2024-12-08T00:43:31.620Z</time>
      </trkpt>
      <trkpt lat="45.87478" lon="3.64166">
        <ele>641</ele>
        <time>2024-12-08T00:43:32.620Z</time>
      </trkpt>
      <trkpt lat="45.87477" lon="3.64168">
        <ele>641</ele>
        <time>2024-12-08T00:43:33.619Z</time>
      </trkpt>
      <trkpt lat="45.87476" lon="3.6417">
        <ele>642</ele>
        <time>2024-12-08T00:43:34.619Z</time>
      </trkpt>
      <trkpt lat="45.87475" lon="3.64172">
        <ele>642</ele>
        <time>2024-12-08T00:43:35.620Z</time>
      </trkpt>
      <trkpt lat="45.87474" lon="3.64173">
        <ele>642</ele>
        <time>2024-12-08T00:43:36.620Z</time>
      </trkpt>
      <trkpt lat="45.87473" lon="3.64175">
        <ele>643</ele>
        <time>2024-12-08T00:43:37.620Z</time>
      </trkpt>
      <trkpt lat="45.87472" lon="3.64177">
        <ele>643</ele>
        <time>2024-12-08T00:43:38.619Z</time>
      </trkpt>
      <trkpt lat="45.87471" lon="3.64179">
        <ele>643</ele>
        <time>2024-12-08T00:43:39.619Z</time>
      </trkpt>
      <trkpt lat="45.87471" lon="3.64181">
        <ele>643</ele>
        <time>2024-12-08T00:43:40.619Z</time>
      </trkpt>
      <trkpt lat="45.8747" lon="3.64183">
        <ele>644</ele>
        <time>2024-12-08T00:43:41.620Z</time>
      </trkpt>
      <trkpt lat="45.87469" lon="3.64184">
        <ele>644</ele>
        <time>2024-12-08T00:43:42.620Z</time>
      </trkpt>
      <trkpt lat="45.87468" lon="3.64186">
        <ele>644</ele>
        <time>2024-12-08T00:43:43.620Z</time>
      </trkpt>
      <trkpt lat="45.87467" lon="3.64189">
        <ele>645</ele>
        <time>2024-12-08T00:43:44.619Z</time>
      </trkpt>
      <trkpt lat="45.87467" lon="3.6419">
        <ele>645</ele>
        <time>2024-12-08T00:43:45.620Z</time>
      </trkpt>
      <trkpt lat="45.87466" lon="3.64193">
        <ele>645</ele>
        <time>2024-12-08T00:43:46.619Z</time>
      </trkpt>
      <trkpt lat="45.87465" lon="3.64195">
        <ele>645</ele>
        <time>2024-12-08T00:43:47.619Z</time>
      </trkpt>
      <trkpt lat="45.87465" lon="3.64197">
        <ele>646</ele>
        <time>2024-12-08T00:43:48.620Z</time>
      </trkpt>
      <trkpt lat="45.87464" lon="3.64199">
        <ele>646</ele>
        <time>2024-12-08T00:43:49.620Z</time>
      </trkpt>
      <trkpt lat="45.87464" lon="3.64201">
        <ele>646</ele>
        <time>2024-12-08T00:43:50.620Z</time>
      </trkpt>
      <trkpt lat="45.87463" lon="3.64203">
        <ele>647</ele>
        <time>2024-12-08T00:43:51.620Z</time>
      </trkpt>
      <trkpt lat="45.87463" lon="3.64205">
        <ele>647</ele>
        <time>2024-12-08T00:43:52.620Z</time>
      </trkpt>
      <trkpt lat="45.87463" lon="3.64207">
        <ele>648</ele>
        <time>2024-12-08T00:43:53.619Z</time>
      </trkpt>
      <trkpt lat="45.87463" lon="3.64209">
        <ele>648</ele>
        <time>2024-12-08T00:43:54.620Z</time>
      </trkpt>
      <trkpt lat="45.87463" lon="3.64211">
        <ele>649</ele>
        <time>2024-12-08T00:43:55.619Z</time>
      </trkpt>
      <trkpt lat="45.87462" lon="3.64213">
        <ele>649</ele>
        <time>2024-12-08T00:43:56.619Z</time>
      </trkpt>
      <trkpt lat="45.87462" lon="3.64215">
        <ele>649</ele>
        <time>2024-12-08T00:43:57.619Z</time>
      </trkpt>
      <trkpt lat="45.87462" lon="3.64217">
        <ele>649</ele>
        <time>2024-12-08T00:43:58.620Z</time>
      </trkpt>
      <trkpt lat="45.87462" lon="3.64219">
        <ele>650</ele>
        <time>2024-12-08T00:43:59.619Z</time>
      </trkpt>
      <trkpt lat="45.87461" lon="3.6422">
        <ele>650</ele>
        <time>2024-12-08T00:44:00.619Z</time>
      </trkpt>
      <trkpt lat="45.87461" lon="3.64223">
        <ele>650</ele>
        <time>2024-12-08T00:44:01.619Z</time>
      </trkpt>
      <trkpt lat="45.87461" lon="3.64225">
        <ele>650</ele>
        <time>2024-12-08T00:44:02.619Z</time>
      </trkpt>
      <trkpt lat="45.87461" lon="3.64227">
        <ele>650</ele>
        <time>2024-12-08T00:44:03.620Z</time>
      </trkpt>
      <trkpt lat="45.87461" lon="3.6423">
        <ele>651</ele>
        <time>2024-12-08T00:44:04.619Z</time>
      </trkpt>
      <trkpt lat="45.87461" lon="3.64233">
        <ele>651</ele>
        <time>2024-12-08T00:44:05.619Z</time>
      </trkpt>
      <trkpt lat="45.87461" lon="3.64235">
        <ele>651</ele>
        <time>2024-12-08T00:44:06.619Z</time>
      </trkpt>
      <trkpt lat="45.87461" lon="3.64237">
        <ele>650</ele>
        <time>2024-12-08T00:44:07.619Z</time>
      </trkpt>
      <trkpt lat="45.8746" lon="3.64239">
        <ele>650</ele>
        <time>2024-12-08T00:44:08.619Z</time>
      </trkpt>
      <trkpt lat="45.87459" lon="3.64241">
        <ele>650</ele>
        <time>2024-12-08T00:44:09.619Z</time>
      </trkpt>
      <trkpt lat="45.87459" lon="3.64243">
        <ele>650</ele>
        <time>2024-12-08T00:44:10.620Z</time>
      </trkpt>
      <trkpt lat="45.87457" lon="3.64247">
        <ele>650</ele>
        <time>2024-12-08T00:44:11.620Z</time>
      </trkpt>
      <trkpt lat="45.87456" lon="3.64249">
        <ele>650</ele>
        <time>2024-12-08T00:44:12.619Z</time>
      </trkpt>
      <trkpt lat="45.87456" lon="3.64252">
        <ele>650</ele>
        <time>2024-12-08T00:44:13.619Z</time>
      </trkpt>
      <trkpt lat="45.87456" lon="3.64254">
        <ele>650</ele>
        <time>2024-12-08T00:44:14.620Z</time>
      </trkpt>
      <trkpt lat="45.87456" lon="3.64256">
        <ele>651</ele>
        <time>2024-12-08T00:44:15.619Z</time>
      </trkpt>
      <trkpt lat="45.87455" lon="3.64258">
        <ele>651</ele>
        <time>2024-12-08T00:44:16.619Z</time>
      </trkpt>
      <trkpt lat="45.87455" lon="3.6426">
        <ele>652</ele>
        <time>2024-12-08T00:44:17.619Z</time>
      </trkpt>
      <trkpt lat="45.87454" lon="3.64262">
        <ele>652</ele>
        <time>2024-12-08T00:44:18.619Z</time>
      </trkpt>
      <trkpt lat="45.87454" lon="3.64264">
        <ele>652</ele>
        <time>2024-12-08T00:44:19.619Z</time>
      </trkpt>
      <trkpt lat="45.87453" lon="3.64267">
        <ele>652</ele>
        <time>2024-12-08T00:44:20.619Z</time>
      </trkpt>
      <trkpt lat="45.87452" lon="3.6427">
        <ele>652</ele>
        <time>2024-12-08T00:44:21.619Z</time>
      </trkpt>
      <trkpt lat="45.87451" lon="3.64273">
        <ele>652</ele>
        <time>2024-12-08T00:44:22.619Z</time>
      </trkpt>
      <trkpt lat="45.87451" lon="3.64274">
        <ele>653</ele>
        <time>2024-12-08T00:44:23.620Z</time>
      </trkpt>
      <trkpt lat="45.87451" lon="3.64276">
        <ele>653</ele>
        <time>2024-12-08T00:44:24.619Z</time>
      </trkpt>
      <trkpt lat="45.8745" lon="3.64278">
        <ele>653</ele>
        <time>2024-12-08T00:44:25.620Z</time>
      </trkpt>
      <trkpt lat="45.8745" lon="3.64281">
        <ele>653</ele>
        <time>2024-12-08T00:44:26.620Z</time>
      </trkpt>
      <trkpt lat="45.8745" lon="3.64283">
        <ele>653</ele>
        <time>2024-12-08T00:44:27.620Z</time>
      </trkpt>
      <trkpt lat="45.8745" lon="3.64285">
        <ele>653</ele>
        <time>2024-12-08T00:44:28.619Z</time>
      </trkpt>
      <trkpt lat="45.8745" lon="3.64287">
        <ele>653</ele>
        <time>2024-12-08T00:44:29.619Z</time>
      </trkpt>
      <trkpt lat="45.87449" lon="3.64289">
        <ele>653</ele>
        <time>2024-12-08T00:44:30.620Z</time>
      </trkpt>
      <trkpt lat="45.87449" lon="3.6429">
        <ele>653</ele>
        <time>2024-12-08T00:44:31.620Z</time>
      </trkpt>
      <trkpt lat="45.87449" lon="3.64292">
        <ele>653</ele>
        <time>2024-12-08T00:44:32.619Z</time>
      </trkpt>
      <trkpt lat="45.87448" lon="3.64295">
        <ele>653</ele>
        <time>2024-12-08T00:44:33.619Z</time>
      </trkpt>
      <trkpt lat="45.87446" lon="3.64298">
        <ele>653</ele>
        <time>2024-12-08T00:44:34.619Z</time>
      </trkpt>
      <trkpt lat="45.87445" lon="3.643">
        <ele>652</ele>
        <time>2024-12-08T00:44:35.619Z</time>
      </trkpt>
      <trkpt lat="45.87446" lon="3.64302">
        <ele>652</ele>
        <time>2024-12-08T00:44:36.619Z</time>
      </trkpt>
      <trkpt lat="45.87446" lon="3.64304">
        <ele>652</ele>
        <time>2024-12-08T00:44:37.619Z</time>
      </trkpt>
      <trkpt lat="45.87447" lon="3.64307">
        <ele>652</ele>
        <time>2024-12-08T00:44:38.619Z</time>
      </trkpt>
      <trkpt lat="45.87448" lon="3.64309">
        <ele>652</ele>
        <time>2024-12-08T00:44:39.619Z</time>
      </trkpt>
      <trkpt lat="45.87448" lon="3.64312">
        <ele>652</ele>
        <time>2024-12-08T00:44:40.619Z</time>
      </trkpt>
      <trkpt lat="45.87447" lon="3.64315">
        <ele>653</ele>
        <time>2024-12-08T00:44:41.619Z</time>
      </trkpt>
      <trkpt lat="45.87447" lon="3.64318">
        <ele>653</ele>
        <time>2024-12-08T00:44:42.619Z</time>
      </trkpt>
      <trkpt lat="45.87446" lon="3.64321">
        <ele>653</ele>
        <time>2024-12-08T00:44:43.619Z</time>
      </trkpt>
      <trkpt lat="45.87446" lon="3.64323">
        <ele>653</ele>
        <time>2024-12-08T00:44:44.619Z</time>
      </trkpt>
      <trkpt lat="45.87445" lon="3.64325">
        <ele>653</ele>
        <time>2024-12-08T00:44:45.619Z</time>
      </trkpt>
      <trkpt lat="45.87445" lon="3.64328">
        <ele>653</ele>
        <time>2024-12-08T00:44:46.620Z</time>
      </trkpt>
      <trkpt lat="45.87445" lon="3.64331">
        <ele>653</ele>
        <time>2024-12-08T00:44:47.620Z</time>
      </trkpt>
      <trkpt lat="45.87445" lon="3.64334">
        <ele>653</ele>
        <time>2024-12-08T00:44:48.619Z</time>
      </trkpt>
      <trkpt lat="45.87445" lon="3.64336">
        <ele>653</ele>
        <time>2024-12-08T00:44:49.619Z</time>
      </trkpt>
      <trkpt lat="45.87444" lon="3.64339">
        <ele>653</ele>
        <time>2024-12-08T00:44:50.619Z</time>
      </trkpt>
      <trkpt lat="45.87444" lon="3.64342">
        <ele>653</ele>
        <time>2024-12-08T00:44:51.620Z</time>
      </trkpt>
      <trkpt lat="45.87443" lon="3.64344">
        <ele>654</ele>
        <time>2024-12-08T00:44:52.619Z</time>
      </trkpt>
      <trkpt lat="45.87443" lon="3.64346">
        <ele>654</ele>
        <time>2024-12-08T00:44:53.619Z</time>
      </trkpt>
      <trkpt lat="45.87443" lon="3.64349">
        <ele>654</ele>
        <time>2024-12-08T00:44:54.620Z</time>
      </trkpt>
      <trkpt lat="45.87442" lon="3.64352">
        <ele>654</ele>
        <time>2024-12-08T00:44:55.620Z</time>
      </trkpt>
      <trkpt lat="45.87442" lon="3.64354">
        <ele>654</ele>
        <time>2024-12-08T00:44:56.620Z</time>
      </trkpt>
      <trkpt lat="45.87442" lon="3.64357">
        <ele>654</ele>
        <time>2024-12-08T00:44:57.619Z</time>
      </trkpt>
      <trkpt lat="45.87441" lon="3.64359">
        <ele>654</ele>
        <time>2024-12-08T00:44:58.620Z</time>
      </trkpt>
      <trkpt lat="45.87441" lon="3.64362">
        <ele>654</ele>
        <time>2024-12-08T00:44:59.619Z</time>
      </trkpt>
      <trkpt lat="45.87441" lon="3.64365">
        <ele>654</ele>
        <time>2024-12-08T00:45:00.620Z</time>
      </trkpt>
      <trkpt lat="45.87441" lon="3.64368">
        <ele>654</ele>
        <time>2024-12-08T00:45:01.619Z</time>
      </trkpt>
      <trkpt lat="45.87441" lon="3.6437">
        <ele>654</ele>
        <time>2024-12-08T00:45:02.619Z</time>
      </trkpt>
      <trkpt lat="45.87441" lon="3.64373">
        <ele>653</ele>
        <time>2024-12-08T00:45:03.619Z</time>
      </trkpt>
      <trkpt lat="45.87441" lon="3.64375">
        <ele>653</ele>
        <time>2024-12-08T00:45:04.619Z</time>
      </trkpt>
      <trkpt lat="45.8744" lon="3.64377">
        <ele>653</ele>
        <time>2024-12-08T00:45:05.620Z</time>
      </trkpt>
      <trkpt lat="45.8744" lon="3.64379">
        <ele>653</ele>
        <time>2024-12-08T00:45:06.620Z</time>
      </trkpt>
      <trkpt lat="45.87439" lon="3.64382">
        <ele>653</ele>
        <time>2024-12-08T00:45:07.619Z</time>
      </trkpt>
      <trkpt lat="45.87439" lon="3.64384">
        <ele>653</ele>
        <time>2024-12-08T00:45:08.620Z</time>
      </trkpt>
      <trkpt lat="45.87439" lon="3.64387">
        <ele>653</ele>
        <time>2024-12-08T00:45:09.619Z</time>
      </trkpt>
      <trkpt lat="45.87439" lon="3.6439">
        <ele>654</ele>
        <time>2024-12-08T00:45:10.620Z</time>
      </trkpt>
      <trkpt lat="45.87439" lon="3.64393">
        <ele>654</ele>
        <time>2024-12-08T00:45:11.620Z</time>
      </trkpt>
      <trkpt lat="45.87439" lon="3.64396">
        <ele>654</ele>
        <time>2024-12-08T00:45:12.619Z</time>
      </trkpt>
      <trkpt lat="45.87439" lon="3.64398">
        <ele>654</ele>
        <time>2024-12-08T00:45:13.619Z</time>
      </trkpt>
      <trkpt lat="45.87438" lon="3.64401">
        <ele>654</ele>
        <time>2024-12-08T00:45:14.619Z</time>
      </trkpt>
      <trkpt lat="45.87438" lon="3.64403">
        <ele>654</ele>
        <time>2024-12-08T00:45:15.619Z</time>
      </trkpt>
      <trkpt lat="45.87437" lon="3.64405">
        <ele>654</ele>
        <time>2024-12-08T00:45:16.619Z</time>
      </trkpt>
      <trkpt lat="45.87436" lon="3.64408">
        <ele>654</ele>
        <time>2024-12-08T00:45:17.620Z</time>
      </trkpt>
      <trkpt lat="45.87436" lon="3.64411">
        <ele>655</ele>
        <time>2024-12-08T00:45:18.619Z</time>
      </trkpt>
      <trkpt lat="45.87436" lon="3.64413">
        <ele>655</ele>
        <time>2024-12-08T00:45:19.620Z</time>
      </trkpt>
      <trkpt lat="45.87435" lon="3.64415">
        <ele>655</ele>
        <time>2024-12-08T00:45:20.619Z</time>
      </trkpt>
      <trkpt lat="45.87435" lon="3.64418">
        <ele>655</ele>
        <time>2024-12-08T00:45:21.619Z</time>
      </trkpt>
      <trkpt lat="45.87435" lon="3.64422">
        <ele>655</ele>
        <time>2024-12-08T00:45:22.619Z</time>
      </trkpt>
      <trkpt lat="45.87435" lon="3.64425">
        <ele>655</ele>
        <time>2024-12-08T00:45:23.620Z</time>
      </trkpt>
      <trkpt lat="45.87434" lon="3.64428">
        <ele>655</ele>
        <time>2024-12-08T00:45:24.620Z</time>
      </trkpt>
      <trkpt lat="45.87433" lon="3.6443">
        <ele>655</ele>
        <time>2024-12-08T00:45:25.619Z</time>
      </trkpt>
      <trkpt lat="45.87433" lon="3.64432">
        <ele>655</ele>
        <time>2024-12-08T00:45:26.620Z</time>
      </trkpt>
      <trkpt lat="45.87432" lon="3.64434">
        <ele>655</ele>
        <time>2024-12-08T00:45:27.620Z</time>
      </trkpt>
      <trkpt lat="45.87432" lon="3.64436">
        <ele>655</ele>
        <time>2024-12-08T00:45:28.620Z</time>
      </trkpt>
      <trkpt lat="45.87431" lon="3.64439">
        <ele>655</ele>
        <time>2024-12-08T00:45:29.620Z</time>
      </trkpt>
      <trkpt lat="45.87431" lon="3.64441">
        <ele>654</ele>
        <time>2024-12-08T00:45:30.620Z</time>
      </trkpt>
      <trkpt lat="45.87431" lon="3.64444">
        <ele>654</ele>
        <time>2024-12-08T00:45:31.619Z</time>
      </trkpt>
      <trkpt lat="45.8743" lon="3.64447">
        <ele>654</ele>
        <time>2024-12-08T00:45:32.620Z</time>
      </trkpt>
      <trkpt lat="45.8743" lon="3.64449">
        <ele>653</ele>
        <time>2024-12-08T00:45:33.620Z</time>
      </trkpt>
      <trkpt lat="45.8743" lon="3.64452">
        <ele>653</ele>
        <time>2024-12-08T00:45:34.619Z</time>
      </trkpt>
      <trkpt lat="45.8743" lon="3.64455">
        <ele>652</ele>
        <time>2024-12-08T00:45:35.619Z</time>
      </trkpt>
      <trkpt lat="45.8743" lon="3.64458">
        <ele>651</ele>
        <time>2024-12-08T00:45:36.620Z</time>
      </trkpt>
      <trkpt lat="45.8743" lon="3.6446">
        <ele>651</ele>
        <time>2024-12-08T00:45:37.619Z</time>
      </trkpt>
      <trkpt lat="45.87429" lon="3.64462">
        <ele>650</ele>
        <time>2024-12-08T00:45:38.619Z</time>
      </trkpt>
      <trkpt lat="45.87429" lon="3.64464">
        <ele>649</ele>
        <time>2024-12-08T00:45:39.620Z</time>
      </trkpt>
      <trkpt lat="45.87429" lon="3.64465">
        <ele>649</ele>
        <time>2024-12-08T00:45:40.620Z</time>
      </trkpt>
      <trkpt lat="45.87429" lon="3.64467">
        <ele>648</ele>
        <time>2024-12-08T00:45:41.619Z</time>
      </trkpt>
      <trkpt lat="45.87429" lon="3.64468">
        <ele>648</ele>
        <time>2024-12-08T00:45:42.620Z</time>
      </trkpt>
      <trkpt lat="45.87429" lon="3.6447">
        <ele>647</ele>
        <time>2024-12-08T00:45:43.619Z</time>
      </trkpt>
      <trkpt lat="45.87429" lon="3.64472">
        <ele>647</ele>
        <time>2024-12-08T00:45:44.619Z</time>
      </trkpt>
      <trkpt lat="45.87429" lon="3.64473">
        <ele>646</ele>
        <time>2024-12-08T00:45:45.620Z</time>
      </trkpt>
      <trkpt lat="45.8743" lon="3.64474">
        <ele>646</ele>
        <time>2024-12-08T00:45:46.620Z</time>
      </trkpt>
      <trkpt lat="45.8743" lon="3.64476">
        <ele>646</ele>
        <time>2024-12-08T00:45:47.619Z</time>
      </trkpt>
      <trkpt lat="45.8743" lon="3.64479">
        <ele>646</ele>
        <time>2024-12-08T00:45:48.619Z</time>
      </trkpt>
      <trkpt lat="45.8743" lon="3.64482">
        <ele>646</ele>
        <time>2024-12-08T00:45:49.619Z</time>
      </trkpt>
      <trkpt lat="45.8743" lon="3.64484">
        <ele>646</ele>
        <time>2024-12-08T00:45:50.619Z</time>
      </trkpt>
      <trkpt lat="45.87431" lon="3.64487">
        <ele>645</ele>
        <time>2024-12-08T00:45:51.619Z</time>
      </trkpt>
      <trkpt lat="45.87431" lon="3.64491">
        <ele>645</ele>
        <time>2024-12-08T00:45:52.619Z</time>
      </trkpt>
      <trkpt lat="45.87431" lon="3.64495">
        <ele>645</ele>
        <time>2024-12-08T00:45:53.619Z</time>
      </trkpt>
      <trkpt lat="45.8743" lon="3.645">
        <ele>645</ele>
        <time>2024-12-08T00:45:54.620Z</time>
      </trkpt>
      <trkpt lat="45.8743" lon="3.64503">
        <ele>645</ele>
        <time>2024-12-08T00:45:55.620Z</time>
      </trkpt>
      <trkpt lat="45.87431" lon="3.64505">
        <ele>645</ele>
        <time>2024-12-08T00:45:56.620Z</time>
      </trkpt>
      <trkpt lat="45.87431" lon="3.64508">
        <ele>645</ele>
        <time>2024-12-08T00:45:57.619Z</time>
      </trkpt>
      <trkpt lat="45.87432" lon="3.64511">
        <ele>645</ele>
        <time>2024-12-08T00:45:58.619Z</time>
      </trkpt>
      <trkpt lat="45.87432" lon="3.64514">
        <ele>645</ele>
        <time>2024-12-08T00:45:59.619Z</time>
      </trkpt>
      <trkpt lat="45.87432" lon="3.64517">
        <ele>645</ele>
        <time>2024-12-08T00:46:00.620Z</time>
      </trkpt>
      <trkpt lat="45.87431" lon="3.6452">
        <ele>644</ele>
        <time>2024-12-08T00:46:01.619Z</time>
      </trkpt>
      <trkpt lat="45.87431" lon="3.64523">
        <ele>644</ele>
        <time>2024-12-08T00:46:02.620Z</time>
      </trkpt>
      <trkpt lat="45.87431" lon="3.64525">
        <ele>644</ele>
        <time>2024-12-08T00:46:03.619Z</time>
      </trkpt>
      <trkpt lat="45.87431" lon="3.64527">
        <ele>644</ele>
        <time>2024-12-08T00:46:04.620Z</time>
      </trkpt>
      <trkpt lat="45.87431" lon="3.6453">
        <ele>644</ele>
        <time>2024-12-08T00:46:05.619Z</time>
      </trkpt>
      <trkpt lat="45.87431" lon="3.64533">
        <ele>644</ele>
        <time>2024-12-08T00:46:06.620Z</time>
      </trkpt>
      <trkpt lat="45.87431" lon="3.64536">
        <ele>644</ele>
        <time>2024-12-08T00:46:07.619Z</time>
      </trkpt>
      <trkpt lat="45.87431" lon="3.6454">
        <ele>643</ele>
        <time>2024-12-08T00:46:08.620Z</time>
      </trkpt>
      <trkpt lat="45.8743" lon="3.64542">
        <ele>643</ele>
        <time>2024-12-08T00:46:09.620Z</time>
      </trkpt>
      <trkpt lat="45.8743" lon="3.64546">
        <ele>644</ele>
        <time>2024-12-08T00:46:10.619Z</time>
      </trkpt>
      <trkpt lat="45.87429" lon="3.64548">
        <ele>644</ele>
        <time>2024-12-08T00:46:11.619Z</time>
      </trkpt>
      <trkpt lat="45.87429" lon="3.64551">
        <ele>644</ele>
        <time>2024-12-08T00:46:12.619Z</time>
      </trkpt>
      <trkpt lat="45.87429" lon="3.64553">
        <ele>645</ele>
        <time>2024-12-08T00:46:13.620Z</time>
      </trkpt>
      <trkpt lat="45.87429" lon="3.64556">
        <ele>645</ele>
        <time>2024-12-08T00:46:14.620Z</time>
      </trkpt>
      <trkpt lat="45.87429" lon="3.64559">
        <ele>646</ele>
        <time>2024-12-08T00:46:15.619Z</time>
      </trkpt>
      <trkpt lat="45.87429" lon="3.64561">
        <ele>646</ele>
        <time>2024-12-08T00:46:16.620Z</time>
      </trkpt>
      <trkpt lat="45.87428" lon="3.64563">
        <ele>646</ele>
        <time>2024-12-08T00:46:17.619Z</time>
      </trkpt>
      <trkpt lat="45.87428" lon="3.64566">
        <ele>647</ele>
        <time>2024-12-08T00:46:18.620Z</time>
      </trkpt>
      <trkpt lat="45.87428" lon="3.64568">
        <ele>647</ele>
        <time>2024-12-08T00:46:19.619Z</time>
      </trkpt>
      <trkpt lat="45.87427" lon="3.64571">
        <ele>648</ele>
        <time>2024-12-08T00:46:20.619Z</time>
      </trkpt>
      <trkpt lat="45.87426" lon="3.64573">
        <ele>648</ele>
        <time>2024-12-08T00:46:21.620Z</time>
      </trkpt>
      <trkpt lat="45.87426" lon="3.64575">
        <ele>648</ele>
        <time>2024-12-08T00:46:22.620Z</time>
      </trkpt>
      <trkpt lat="45.87426" lon="3.64578">
        <ele>648</ele>
        <time>2024-12-08T00:46:23.620Z</time>
      </trkpt>
      <trkpt lat="45.87426" lon="3.6458">
        <ele>648</ele>
        <time>2024-12-08T00:46:24.619Z</time>
      </trkpt>
      <trkpt lat="45.87426" lon="3.64582">
        <ele>648</ele>
        <time>2024-12-08T00:46:25.619Z</time>
      </trkpt>
      <trkpt lat="45.87426" lon="3.64585">
        <ele>648</ele>
        <time>2024-12-08T00:46:26.620Z</time>
      </trkpt>
      <trkpt lat="45.87425" lon="3.64588">
        <ele>647</ele>
        <time>2024-12-08T00:46:27.619Z</time>
      </trkpt>
      <trkpt lat="45.87426" lon="3.64593">
        <ele>648</ele>
        <time>2024-12-08T00:46:28.619Z</time>
      </trkpt>
      <trkpt lat="45.87426" lon="3.64596">
        <ele>648</ele>
        <time>2024-12-08T00:46:29.619Z</time>
      </trkpt>
      <trkpt lat="45.87425" lon="3.64599">
        <ele>648</ele>
        <time>2024-12-08T00:46:30.619Z</time>
      </trkpt>
      <trkpt lat="45.87425" lon="3.64601">
        <ele>648</ele>
        <time>2024-12-08T00:46:31.620Z</time>
      </trkpt>
      <trkpt lat="45.87424" lon="3.64604">
        <ele>648</ele>
        <time>2024-12-08T00:46:32.620Z</time>
      </trkpt>
      <trkpt lat="45.87424" lon="3.64606">
        <ele>648</ele>
        <time>2024-12-08T00:46:33.619Z</time>
      </trkpt>
      <trkpt lat="45.87423" lon="3.64609">
        <ele>648</ele>
        <time>2024-12-08T00:46:34.619Z</time>
      </trkpt>
      <trkpt lat="45.87422" lon="3.64612">
        <ele>648</ele>
        <time>2024-12-08T00:46:35.619Z</time>
      </trkpt>
      <trkpt lat="45.87422" lon="3.64614">
        <ele>648</ele>
        <time>2024-12-08T00:46:36.620Z</time>
      </trkpt>
      <trkpt lat="45.87422" lon="3.64617">
        <ele>648</ele>
        <time>2024-12-08T00:46:37.620Z</time>
      </trkpt>
      <trkpt lat="45.87421" lon="3.6462">
        <ele>648</ele>
        <time>2024-12-08T00:46:38.619Z</time>
      </trkpt>
      <trkpt lat="45.87421" lon="3.64623">
        <ele>647</ele>
        <time>2024-12-08T00:46:39.620Z</time>
      </trkpt>
      <trkpt lat="45.8742" lon="3.64626">
        <ele>647</ele>
        <time>2024-12-08T00:46:40.620Z</time>
      </trkpt>
      <trkpt lat="45.8742" lon="3.64629">
        <ele>647</ele>
        <time>2024-12-08T00:46:41.619Z</time>
      </trkpt>
      <trkpt lat="45.87419" lon="3.64631">
        <ele>647</ele>
        <time>2024-12-08T00:46:42.619Z</time>
      </trkpt>
      <trkpt lat="45.87419" lon="3.64633">
        <ele>647</ele>
        <time>2024-12-08T00:46:43.620Z</time>
      </trkpt>
      <trkpt lat="45.87419" lon="3.64636">
        <ele>647</ele>
        <time>2024-12-08T00:46:44.619Z</time>
      </trkpt>
      <trkpt lat="45.87418" lon="3.64638">
        <ele>646</ele>
        <time>2024-12-08T00:46:45.620Z</time>
      </trkpt>
      <trkpt lat="45.87418" lon="3.6464">
        <ele>646</ele>
        <time>2024-12-08T00:46:46.619Z</time>
      </trkpt>
      <trkpt lat="45.87417" lon="3.64643">
        <ele>646</ele>
        <time>2024-12-08T00:46:47.620Z</time>
      </trkpt>
      <trkpt lat="45.87416" lon="3.64646">
        <ele>645</ele>
        <time>2024-12-08T00:46:48.620Z</time>
      </trkpt>
      <trkpt lat="45.87415" lon="3.64649">
        <ele>645</ele>
        <time>2024-12-08T00:46:49.620Z</time>
      </trkpt>
      <trkpt lat="45.87415" lon="3.64652">
        <ele>644</ele>
        <time>2024-12-08T00:46:50.620Z</time>
      </trkpt>
      <trkpt lat="45.87414" lon="3.64655">
        <ele>644</ele>
        <time>2024-12-08T00:46:51.619Z</time>
      </trkpt>
      <trkpt lat="45.87414" lon="3.64658">
        <ele>644</ele>
        <time>2024-12-08T00:46:52.620Z</time>
      </trkpt>
      <trkpt lat="45.87413" lon="3.6466">
        <ele>644</ele>
        <time>2024-12-08T00:46:53.620Z</time>
      </trkpt>
      <trkpt lat="45.87413" lon="3.64663">
        <ele>644</ele>
        <time>2024-12-08T00:46:54.619Z</time>
      </trkpt>
      <trkpt lat="45.87413" lon="3.64664">
        <ele>644</ele>
        <time>2024-12-08T00:46:55.620Z</time>
      </trkpt>
      <trkpt lat="45.87412" lon="3.64666">
        <ele>644</ele>
        <time>2024-12-08T00:46:56.619Z</time>
      </trkpt>
      <trkpt lat="45.87412" lon="3.64669">
        <ele>643</ele>
        <time>2024-12-08T00:46:57.619Z</time>
      </trkpt>
      <trkpt lat="45.87412" lon="3.64671">
        <ele>643</ele>
        <time>2024-12-08T00:46:58.620Z</time>
      </trkpt>
      <trkpt lat="45.87411" lon="3.64673">
        <ele>643</ele>
        <time>2024-12-08T00:46:59.620Z</time>
      </trkpt>
      <trkpt lat="45.87411" lon="3.64677">
        <ele>643</ele>
        <time>2024-12-08T00:47:00.619Z</time>
      </trkpt>
      <trkpt lat="45.87411" lon="3.6468">
        <ele>643</ele>
        <time>2024-12-08T00:47:01.620Z</time>
      </trkpt>
      <trkpt lat="45.8741" lon="3.64682">
        <ele>643</ele>
        <time>2024-12-08T00:47:02.620Z</time>
      </trkpt>
      <trkpt lat="45.8741" lon="3.64684">
        <ele>643</ele>
        <time>2024-12-08T00:47:03.619Z</time>
      </trkpt>
      <trkpt lat="45.87409" lon="3.64687">
        <ele>642</ele>
        <time>2024-12-08T00:47:04.619Z</time>
      </trkpt>
      <trkpt lat="45.87409" lon="3.64689">
        <ele>642</ele>
        <time>2024-12-08T00:47:05.619Z</time>
      </trkpt>
      <trkpt lat="45.87409" lon="3.64691">
        <ele>642</ele>
        <time>2024-12-08T00:47:06.619Z</time>
      </trkpt>
      <trkpt lat="45.87408" lon="3.64693">
        <ele>642</ele>
        <time>2024-12-08T00:47:07.620Z</time>
      </trkpt>
      <trkpt lat="45.87408" lon="3.64695">
        <ele>642</ele>
        <time>2024-12-08T00:47:08.620Z</time>
      </trkpt>
      <trkpt lat="45.87407" lon="3.64697">
        <ele>641</ele>
        <time>2024-12-08T00:47:09.620Z</time>
      </trkpt>
      <trkpt lat="45.87407" lon="3.64699">
        <ele>641</ele>
        <time>2024-12-08T00:47:10.619Z</time>
      </trkpt>
      <trkpt lat="45.87406" lon="3.64703">
        <ele>641</ele>
        <time>2024-12-08T00:47:11.619Z</time>
      </trkpt>
      <trkpt lat="45.87406" lon="3.64706">
        <ele>641</ele>
        <time>2024-12-08T00:47:12.619Z</time>
      </trkpt>
      <trkpt lat="45.87406" lon="3.64708">
        <ele>641</ele>
        <time>2024-12-08T00:47:13.619Z</time>
      </trkpt>
      <trkpt lat="45.87405" lon="3.6471">
        <ele>641</ele>
        <time>2024-12-08T00:47:14.619Z</time>
      </trkpt>
      <trkpt lat="45.87405" lon="3.64712">
        <ele>641</ele>
        <time>2024-12-08T00:47:15.620Z</time>
      </trkpt>
      <trkpt lat="45.87404" lon="3.64714">
        <ele>640</ele>
        <time>2024-12-08T00:47:16.619Z</time>
      </trkpt>
      <trkpt lat="45.87404" lon="3.64716">
        <ele>640</ele>
        <time>2024-12-08T00:47:17.620Z</time>
      </trkpt>
      <trkpt lat="45.87403" lon="3.64719">
        <ele>640</ele>
        <time>2024-12-08T00:47:18.619Z</time>
      </trkpt>
      <trkpt lat="45.87402" lon="3.64721">
        <ele>640</ele>
        <time>2024-12-08T00:47:19.620Z</time>
      </trkpt>
      <trkpt lat="45.87401" lon="3.64724">
        <ele>639</ele>
        <time>2024-12-08T00:47:20.619Z</time>
      </trkpt>
      <trkpt lat="45.874" lon="3.64727">
        <ele>639</ele>
        <time>2024-12-08T00:47:21.619Z</time>
      </trkpt>
      <trkpt lat="45.87399" lon="3.6473">
        <ele>640</ele>
        <time>2024-12-08T00:47:22.620Z</time>
      </trkpt>
      <trkpt lat="45.87399" lon="3.64732">
        <ele>640</ele>
        <time>2024-12-08T00:47:23.619Z</time>
      </trkpt>
      <trkpt lat="45.87398" lon="3.64735">
        <ele>640</ele>
        <time>2024-12-08T00:47:24.620Z</time>
      </trkpt>
      <trkpt lat="45.87398" lon="3.64737">
        <ele>639</ele>
        <time>2024-12-08T00:47:25.619Z</time>
      </trkpt>
      <trkpt lat="45.87397" lon="3.6474">
        <ele>639</ele>
        <time>2024-12-08T00:47:26.620Z</time>
      </trkpt>
      <trkpt lat="45.87396" lon="3.64743">
        <ele>639</ele>
        <time>2024-12-08T00:47:27.619Z</time>
      </trkpt>
      <trkpt lat="45.87396" lon="3.64745">
        <ele>639</ele>
        <time>2024-12-08T00:47:28.619Z</time>
      </trkpt>
      <trkpt lat="45.87395" lon="3.64748">
        <ele>639</ele>
        <time>2024-12-08T00:47:29.619Z</time>
      </trkpt>
      <trkpt lat="45.87394" lon="3.6475">
        <ele>639</ele>
        <time>2024-12-08T00:47:30.619Z</time>
      </trkpt>
      <trkpt lat="45.87392" lon="3.64752">
        <ele>638</ele>
        <time>2024-12-08T00:47:31.619Z</time>
      </trkpt>
      <trkpt lat="45.87391" lon="3.64755">
        <ele>638</ele>
        <time>2024-12-08T00:47:32.620Z</time>
      </trkpt>
      <trkpt lat="45.8739" lon="3.64757">
        <ele>638</ele>
        <time>2024-12-08T00:47:33.619Z</time>
      </trkpt>
      <trkpt lat="45.8739" lon="3.64758">
        <ele>638</ele>
        <time>2024-12-08T00:47:34.620Z</time>
      </trkpt>
      <trkpt lat="45.87389" lon="3.6476">
        <ele>638</ele>
        <time>2024-12-08T00:47:35.620Z</time>
      </trkpt>
      <trkpt lat="45.87389" lon="3.64762">
        <ele>638</ele>
        <time>2024-12-08T00:47:36.620Z</time>
      </trkpt>
      <trkpt lat="45.87388" lon="3.64763">
        <ele>638</ele>
        <time>2024-12-08T00:47:37.619Z</time>
      </trkpt>
      <trkpt lat="45.87387" lon="3.64766">
        <ele>638</ele>
        <time>2024-12-08T00:47:38.620Z</time>
      </trkpt>
      <trkpt lat="45.87386" lon="3.64768">
        <ele>638</ele>
        <time>2024-12-08T00:47:39.619Z</time>
      </trkpt>
      <trkpt lat="45.87384" lon="3.6477">
        <ele>639</ele>
        <time>2024-12-08T00:47:40.619Z</time>
      </trkpt>
      <trkpt lat="45.87383" lon="3.64773">
        <ele>639</ele>
        <time>2024-12-08T00:47:41.620Z</time>
      </trkpt>
      <trkpt lat="45.87381" lon="3.64775">
        <ele>640</ele>
        <time>2024-12-08T00:47:42.620Z</time>
      </trkpt>
      <trkpt lat="45.8738" lon="3.64777">
        <ele>640</ele>
        <time>2024-12-08T00:47:43.619Z</time>
      </trkpt>
      <trkpt lat="45.87379" lon="3.64778">
        <ele>641</ele>
        <time>2024-12-08T00:47:44.620Z</time>
      </trkpt>
      <trkpt lat="45.87377" lon="3.6478">
        <ele>641</ele>
        <time>2024-12-08T00:47:45.620Z</time>
      </trkpt>
      <trkpt lat="45.87376" lon="3.64781">
        <ele>641</ele>
        <time>2024-12-08T00:47:46.620Z</time>
      </trkpt>
      <trkpt lat="45.87375" lon="3.64783">
        <ele>642</ele>
        <time>2024-12-08T00:47:47.620Z</time>
      </trkpt>
      <trkpt lat="45.87373" lon="3.64785">
        <ele>642</ele>
        <time>2024-12-08T00:47:48.620Z</time>
      </trkpt>
      <trkpt lat="45.87371" lon="3.64786">
        <ele>642</ele>
        <time>2024-12-08T00:47:49.619Z</time>
      </trkpt>
      <trkpt lat="45.8737" lon="3.64787">
        <ele>643</ele>
        <time>2024-12-08T00:47:50.620Z</time>
      </trkpt>
      <trkpt lat="45.87368" lon="3.64789">
        <ele>643</ele>
        <time>2024-12-08T00:47:51.620Z</time>
      </trkpt>
      <trkpt lat="45.87367" lon="3.64791">
        <ele>643</ele>
        <time>2024-12-08T00:47:52.619Z</time>
      </trkpt>
      <trkpt lat="45.87366" lon="3.64794">
        <ele>643</ele>
        <time>2024-12-08T00:47:53.620Z</time>
      </trkpt>
      <trkpt lat="45.87365" lon="3.64796">
        <ele>643</ele>
        <time>2024-12-08T00:47:54.620Z</time>
      </trkpt>
      <trkpt lat="45.87364" lon="3.64797">
        <ele>643</ele>
        <time>2024-12-08T00:47:55.619Z</time>
      </trkpt>
      <trkpt lat="45.87362" lon="3.64799">
        <ele>643</ele>
        <time>2024-12-08T00:47:56.620Z</time>
      </trkpt>
      <trkpt lat="45.87361" lon="3.648">
        <ele>643</ele>
        <time>2024-12-08T00:47:57.620Z</time>
      </trkpt>
      <trkpt lat="45.8736" lon="3.64801">
        <ele>643</ele>
        <time>2024-12-08T00:47:58.619Z</time>
      </trkpt>
      <trkpt lat="45.87358" lon="3.64802">
        <ele>643</ele>
        <time>2024-12-08T00:47:59.620Z</time>
      </trkpt>
      <trkpt lat="45.87357" lon="3.64803">
        <ele>643</ele>
        <time>2024-12-08T00:48:00.620Z</time>
      </trkpt>
      <trkpt lat="45.87355" lon="3.64805">
        <ele>643</ele>
        <time>2024-12-08T00:48:01.620Z</time>
      </trkpt>
      <trkpt lat="45.87353" lon="3.64807">
        <ele>642</ele>
        <time>2024-12-08T00:48:02.619Z</time>
      </trkpt>
      <trkpt lat="45.87352" lon="3.64807">
        <ele>642</ele>
        <time>2024-12-08T00:48:03.619Z</time>
      </trkpt>
      <trkpt lat="45.87351" lon="3.64808">
        <ele>642</ele>
        <time>2024-12-08T00:48:04.619Z</time>
      </trkpt>
      <trkpt lat="45.8735" lon="3.64809">
        <ele>642</ele>
        <time>2024-12-08T00:48:05.620Z</time>
      </trkpt>
      <trkpt lat="45.87348" lon="3.6481">
        <ele>642</ele>
        <time>2024-12-08T00:48:06.619Z</time>
      </trkpt>
      <trkpt lat="45.87347" lon="3.64811">
        <ele>641</ele>
        <time>2024-12-08T00:48:07.619Z</time>
      </trkpt>
      <trkpt lat="45.87346" lon="3.64811">
        <ele>641</ele>
        <time>2024-12-08T00:48:08.619Z</time>
      </trkpt>
      <trkpt lat="45.87344" lon="3.64813">
        <ele>641</ele>
        <time>2024-12-08T00:48:09.619Z</time>
      </trkpt>
      <trkpt lat="45.87342" lon="3.64814">
        <ele>641</ele>
        <time>2024-12-08T00:48:10.619Z</time>
      </trkpt>
      <trkpt lat="45.87341" lon="3.64816">
        <ele>641</ele>
        <time>2024-12-08T00:48:11.619Z</time>
      </trkpt>
      <trkpt lat="45.87339" lon="3.64818">
        <ele>641</ele>
        <time>2024-12-08T00:48:12.619Z</time>
      </trkpt>
      <trkpt lat="45.87337" lon="3.6482">
        <ele>641</ele>
        <time>2024-12-08T00:48:13.619Z</time>
      </trkpt>
      <trkpt lat="45.87335" lon="3.64822">
        <ele>641</ele>
        <time>2024-12-08T00:48:14.620Z</time>
      </trkpt>
      <trkpt lat="45.87334" lon="3.64824">
        <ele>641</ele>
        <time>2024-12-08T00:48:15.619Z</time>
      </trkpt>
      <trkpt lat="45.87332" lon="3.64826">
        <ele>642</ele>
        <time>2024-12-08T00:48:16.619Z</time>
      </trkpt>
      <trkpt lat="45.8733" lon="3.64828">
        <ele>642</ele>
        <time>2024-12-08T00:48:17.620Z</time>
      </trkpt>
      <trkpt lat="45.87329" lon="3.6483">
        <ele>642</ele>
        <time>2024-12-08T00:48:18.619Z</time>
      </trkpt>
      <trkpt lat="45.87327" lon="3.64831">
        <ele>642</ele>
        <time>2024-12-08T00:48:19.619Z</time>
      </trkpt>
      <trkpt lat="45.87325" lon="3.64833">
        <ele>642</ele>
        <time>2024-12-08T00:48:20.619Z</time>
      </trkpt>
      <trkpt lat="45.87324" lon="3.64835">
        <ele>642</ele>
        <time>2024-12-08T00:48:21.619Z</time>
      </trkpt>
      <trkpt lat="45.87322" lon="3.64836">
        <ele>642</ele>
        <time>2024-12-08T00:48:22.619Z</time>
      </trkpt>
      <trkpt lat="45.87321" lon="3.64837">
        <ele>641</ele>
        <time>2024-12-08T00:48:23.620Z</time>
      </trkpt>
      <trkpt lat="45.87319" lon="3.64839">
        <ele>641</ele>
        <time>2024-12-08T00:48:24.620Z</time>
      </trkpt>
      <trkpt lat="45.87318" lon="3.64841">
        <ele>641</ele>
        <time>2024-12-08T00:48:25.619Z</time>
      </trkpt>
      <trkpt lat="45.87317" lon="3.64843">
        <ele>641</ele>
        <time>2024-12-08T00:48:26.619Z</time>
      </trkpt>
      <trkpt lat="45.87315" lon="3.64844">
        <ele>641</ele>
        <time>2024-12-08T00:48:27.620Z</time>
      </trkpt>
      <trkpt lat="45.87314" lon="3.64846">
        <ele>641</ele>
        <time>2024-12-08T00:48:28.620Z</time>
      </trkpt>
      <trkpt lat="45.87313" lon="3.64849">
        <ele>640</ele>
        <time>2024-12-08T00:48:29.619Z</time>
      </trkpt>
      <trkpt lat="45.87311" lon="3.64852">
        <ele>640</ele>
        <time>2024-12-08T00:48:30.619Z</time>
      </trkpt>
      <trkpt lat="45.8731" lon="3.64855">
        <ele>640</ele>
        <time>2024-12-08T00:48:31.620Z</time>
      </trkpt>
      <trkpt lat="45.87309" lon="3.64857">
        <ele>640</ele>
        <time>2024-12-08T00:48:32.620Z</time>
      </trkpt>
      <trkpt lat="45.87308" lon="3.64859">
        <ele>640</ele>
        <time>2024-12-08T00:48:33.619Z</time>
      </trkpt>
      <trkpt lat="45.87308" lon="3.64862">
        <ele>639</ele>
        <time>2024-12-08T00:48:34.619Z</time>
      </trkpt>
      <trkpt lat="45.87307" lon="3.64864">
        <ele>639</ele>
        <time>2024-12-08T00:48:35.619Z</time>
      </trkpt>
      <trkpt lat="45.87306" lon="3.64867">
        <ele>639</ele>
        <time>2024-12-08T00:48:36.619Z</time>
      </trkpt>
      <trkpt lat="45.87306" lon="3.6487">
        <ele>639</ele>
        <time>2024-12-08T00:48:37.620Z</time>
      </trkpt>
      <trkpt lat="45.87306" lon="3.64873">
        <ele>638</ele>
        <time>2024-12-08T00:48:38.620Z</time>
      </trkpt>
      <trkpt lat="45.87305" lon="3.64875">
        <ele>638</ele>
        <time>2024-12-08T00:48:39.620Z</time>
      </trkpt>
      <trkpt lat="45.87305" lon="3.64878">
        <ele>638</ele>
        <time>2024-12-08T00:48:40.620Z</time>
      </trkpt>
      <trkpt lat="45.87305" lon="3.64881">
        <ele>638</ele>
        <time>2024-12-08T00:48:41.619Z</time>
      </trkpt>
      <trkpt lat="45.87304" lon="3.64884">
        <ele>638</ele>
        <time>2024-12-08T00:48:42.620Z</time>
      </trkpt>
      <trkpt lat="45.87304" lon="3.64888">
        <ele>638</ele>
        <time>2024-12-08T00:48:43.619Z</time>
      </trkpt>
      <trkpt lat="45.87303" lon="3.64891">
        <ele>638</ele>
        <time>2024-12-08T00:48:44.620Z</time>
      </trkpt>
      <trkpt lat="45.87303" lon="3.64894">
        <ele>638</ele>
        <time>2024-12-08T00:48:45.619Z</time>
      </trkpt>
      <trkpt lat="45.87303" lon="3.64897">
        <ele>638</ele>
        <time>2024-12-08T00:48:46.619Z</time>
      </trkpt>
      <trkpt lat="45.87302" lon="3.64899">
        <ele>638</ele>
        <time>2024-12-08T00:48:47.620Z</time>
      </trkpt>
      <trkpt lat="45.87302" lon="3.64902">
        <ele>638</ele>
        <time>2024-12-08T00:48:48.620Z</time>
      </trkpt>
      <trkpt lat="45.87303" lon="3.64904">
        <ele>638</ele>
        <time>2024-12-08T00:48:49.619Z</time>
      </trkpt>
      <trkpt lat="45.87303" lon="3.64906">
        <ele>638</ele>
        <time>2024-12-08T00:48:50.620Z</time>
      </trkpt>
      <trkpt lat="45.87303" lon="3.64909">
        <ele>638</ele>
        <time>2024-12-08T00:48:51.619Z</time>
      </trkpt>
      <trkpt lat="45.87303" lon="3.64911">
        <ele>638</ele>
        <time>2024-12-08T00:48:52.620Z</time>
      </trkpt>
      <trkpt lat="45.87304" lon="3.64913">
        <ele>638</ele>
        <time>2024-12-08T00:48:53.619Z</time>
      </trkpt>
      <trkpt lat="45.87304" lon="3.64917">
        <ele>638</ele>
        <time>2024-12-08T00:48:54.620Z</time>
      </trkpt>
      <trkpt lat="45.87304" lon="3.6492">
        <ele>638</ele>
        <time>2024-12-08T00:48:55.619Z</time>
      </trkpt>
      <trkpt lat="45.87304" lon="3.64923">
        <ele>638</ele>
        <time>2024-12-08T00:48:56.619Z</time>
      </trkpt>
      <trkpt lat="45.87303" lon="3.64925">
        <ele>638</ele>
        <time>2024-12-08T00:48:57.619Z</time>
      </trkpt>
      <trkpt lat="45.87303" lon="3.64927">
        <ele>638</ele>
        <time>2024-12-08T00:48:58.620Z</time>
      </trkpt>
      <trkpt lat="45.87303" lon="3.6493">
        <ele>638</ele>
        <time>2024-12-08T00:48:59.619Z</time>
      </trkpt>
      <trkpt lat="45.87302" lon="3.64933">
        <ele>638</ele>
        <time>2024-12-08T00:49:00.619Z</time>
      </trkpt>
      <trkpt lat="45.87301" lon="3.64936">
        <ele>639</ele>
        <time>2024-12-08T00:49:01.620Z</time>
      </trkpt>
      <trkpt lat="45.873" lon="3.64939">
        <ele>639</ele>
        <time>2024-12-08T00:49:02.619Z</time>
      </trkpt>
      <trkpt lat="45.873" lon="3.64942">
        <ele>640</ele>
        <time>2024-12-08T00:49:03.620Z</time>
      </trkpt>
      <trkpt lat="45.873" lon="3.64945">
        <ele>640</ele>
        <time>2024-12-08T00:49:04.619Z</time>
      </trkpt>
      <trkpt lat="45.87299" lon="3.64947">
        <ele>640</ele>
        <time>2024-12-08T00:49:05.619Z</time>
      </trkpt>
      <trkpt lat="45.87298" lon="3.64949">
        <ele>641</ele>
        <time>2024-12-08T00:49:06.620Z</time>
      </trkpt>
      <trkpt lat="45.87297" lon="3.64952">
        <ele>641</ele>
        <time>2024-12-08T00:49:07.620Z</time>
      </trkpt>
      <trkpt lat="45.87297" lon="3.64953">
        <ele>641</ele>
        <time>2024-12-08T00:49:08.619Z</time>
      </trkpt>
      <trkpt lat="45.87297" lon="3.64955">
        <ele>640</ele>
        <time>2024-12-08T00:49:09.619Z</time>
      </trkpt>
      <trkpt lat="45.87297" lon="3.64957">
        <ele>640</ele>
        <time>2024-12-08T00:49:10.620Z</time>
      </trkpt>
      <trkpt lat="45.87297" lon="3.64959">
        <ele>640</ele>
        <time>2024-12-08T00:49:11.619Z</time>
      </trkpt>
      <trkpt lat="45.87296" lon="3.64962">
        <ele>640</ele>
        <time>2024-12-08T00:49:12.620Z</time>
      </trkpt>
      <trkpt lat="45.87296" lon="3.64965">
        <ele>639</ele>
        <time>2024-12-08T00:49:13.619Z</time>
      </trkpt>
      <trkpt lat="45.87296" lon="3.64968">
        <ele>639</ele>
        <time>2024-12-08T00:49:14.620Z</time>
      </trkpt>
      <trkpt lat="45.87296" lon="3.6497">
        <ele>638</ele>
        <time>2024-12-08T00:49:15.619Z</time>
      </trkpt>
      <trkpt lat="45.87296" lon="3.64973">
        <ele>638</ele>
        <time>2024-12-08T00:49:16.620Z</time>
      </trkpt>
      <trkpt lat="45.87296" lon="3.64976">
        <ele>637</ele>
        <time>2024-12-08T00:49:17.619Z</time>
      </trkpt>
      <trkpt lat="45.87296" lon="3.64979">
        <ele>637</ele>
        <time>2024-12-08T00:49:18.620Z</time>
      </trkpt>
      <trkpt lat="45.87296" lon="3.64982">
        <ele>636</ele>
        <time>2024-12-08T00:49:19.619Z</time>
      </trkpt>
      <trkpt lat="45.87296" lon="3.64985">
        <ele>636</ele>
        <time>2024-12-08T00:49:20.620Z</time>
      </trkpt>
      <trkpt lat="45.87295" lon="3.64989">
        <ele>636</ele>
        <time>2024-12-08T00:49:21.620Z</time>
      </trkpt>
      <trkpt lat="45.87294" lon="3.64991">
        <ele>636</ele>
        <time>2024-12-08T00:49:22.620Z</time>
      </trkpt>
      <trkpt lat="45.87294" lon="3.64995">
        <ele>635</ele>
        <time>2024-12-08T00:49:23.619Z</time>
      </trkpt>
      <trkpt lat="45.87294" lon="3.64997">
        <ele>635</ele>
        <time>2024-12-08T00:49:24.620Z</time>
      </trkpt>
      <trkpt lat="45.87294" lon="3.65">
        <ele>634</ele>
        <time>2024-12-08T00:49:25.619Z</time>
      </trkpt>
      <trkpt lat="45.87294" lon="3.65002">
        <ele>634</ele>
        <time>2024-12-08T00:49:26.620Z</time>
      </trkpt>
      <trkpt lat="45.87294" lon="3.65005">
        <ele>633</ele>
        <time>2024-12-08T00:49:27.619Z</time>
      </trkpt>
      <trkpt lat="45.87294" lon="3.65008">
        <ele>633</ele>
        <time>2024-12-08T00:49:28.619Z</time>
      </trkpt>
      <trkpt lat="45.87294" lon="3.6501">
        <ele>632</ele>
        <time>2024-12-08T00:49:29.619Z</time>
      </trkpt>
      <trkpt lat="45.87294" lon="3.65013">
        <ele>632</ele>
        <time>2024-12-08T00:49:30.620Z</time>
      </trkpt>
      <trkpt lat="45.87294" lon="3.65015">
        <ele>631</ele>
        <time>2024-12-08T00:49:31.619Z</time>
      </trkpt>
      <trkpt lat="45.87294" lon="3.65018">
        <ele>631</ele>
        <time>2024-12-08T00:49:32.619Z</time>
      </trkpt>
      <trkpt lat="45.87294" lon="3.65021">
        <ele>630</ele>
        <time>2024-12-08T00:49:33.619Z</time>
      </trkpt>
      <trkpt lat="45.87293" lon="3.65024">
        <ele>630</ele>
        <time>2024-12-08T00:49:34.620Z</time>
      </trkpt>
      <trkpt lat="45.87293" lon="3.65026">
        <ele>629</ele>
        <time>2024-12-08T00:49:35.619Z</time>
      </trkpt>
      <trkpt lat="45.87293" lon="3.65029">
        <ele>629</ele>
        <time>2024-12-08T00:49:36.620Z</time>
      </trkpt>
      <trkpt lat="45.87294" lon="3.65032">
        <ele>628</ele>
        <time>2024-12-08T00:49:37.619Z</time>
      </trkpt>
      <trkpt lat="45.87294" lon="3.65035">
        <ele>628</ele>
        <time>2024-12-08T00:49:38.620Z</time>
      </trkpt>
      <trkpt lat="45.87295" lon="3.65037">
        <ele>628</ele>
        <time>2024-12-08T00:49:39.619Z</time>
      </trkpt>
      <trkpt lat="45.87295" lon="3.6504">
        <ele>627</ele>
        <time>2024-12-08T00:49:40.620Z</time>
      </trkpt>
      <trkpt lat="45.87296" lon="3.65042">
        <ele>627</ele>
        <time>2024-12-08T00:49:41.620Z</time>
      </trkpt>
      <trkpt lat="45.87296" lon="3.65044">
        <ele>626</ele>
        <time>2024-12-08T00:49:42.620Z</time>
      </trkpt>
      <trkpt lat="45.87297" lon="3.65047">
        <ele>626</ele>
        <time>2024-12-08T00:49:43.619Z</time>
      </trkpt>
      <trkpt lat="45.87297" lon="3.65049">
        <ele>625</ele>
        <time>2024-12-08T00:49:44.620Z</time>
      </trkpt>
      <trkpt lat="45.87298" lon="3.65052">
        <ele>625</ele>
        <time>2024-12-08T00:49:45.620Z</time>
      </trkpt>
      <trkpt lat="45.87298" lon="3.65055">
        <ele>625</ele>
        <time>2024-12-08T00:49:46.620Z</time>
      </trkpt>
      <trkpt lat="45.87299" lon="3.65057">
        <ele>625</ele>
        <time>2024-12-08T00:49:47.620Z</time>
      </trkpt>
      <trkpt lat="45.87299" lon="3.6506">
        <ele>624</ele>
        <time>2024-12-08T00:49:48.620Z</time>
      </trkpt>
      <trkpt lat="45.873" lon="3.65063">
        <ele>624</ele>
        <time>2024-12-08T00:49:49.620Z</time>
      </trkpt>
      <trkpt lat="45.87301" lon="3.65066">
        <ele>624</ele>
        <time>2024-12-08T00:49:50.620Z</time>
      </trkpt>
      <trkpt lat="45.87303" lon="3.65068">
        <ele>624</ele>
        <time>2024-12-08T00:49:51.620Z</time>
      </trkpt>
      <trkpt lat="45.87304" lon="3.65071">
        <ele>624</ele>
        <time>2024-12-08T00:49:52.619Z</time>
      </trkpt>
      <trkpt lat="45.87305" lon="3.65073">
        <ele>623</ele>
        <time>2024-12-08T00:49:53.619Z</time>
      </trkpt>
      <trkpt lat="45.87307" lon="3.65076">
        <ele>623</ele>
        <time>2024-12-08T00:49:54.620Z</time>
      </trkpt>
      <trkpt lat="45.87308" lon="3.65078">
        <ele>623</ele>
        <time>2024-12-08T00:49:55.620Z</time>
      </trkpt>
      <trkpt lat="45.87309" lon="3.6508">
        <ele>623</ele>
        <time>2024-12-08T00:49:56.619Z</time>
      </trkpt>
      <trkpt lat="45.8731" lon="3.65083">
        <ele>623</ele>
        <time>2024-12-08T00:49:57.619Z</time>
      </trkpt>
      <trkpt lat="45.87312" lon="3.65085">
        <ele>623</ele>
        <time>2024-12-08T00:49:58.619Z</time>
      </trkpt>
      <trkpt lat="45.87313" lon="3.65088">
        <ele>623</ele>
        <time>2024-12-08T00:49:59.619Z</time>
      </trkpt>
      <trkpt lat="45.87313" lon="3.65089">
        <ele>623</ele>
        <time>2024-12-08T00:50:00.620Z</time>
      </trkpt>
      <trkpt lat="45.87314" lon="3.65091">
        <ele>622</ele>
        <time>2024-12-08T00:50:01.620Z</time>
      </trkpt>
      <trkpt lat="45.87315" lon="3.65093">
        <ele>622</ele>
        <time>2024-12-08T00:50:02.619Z</time>
      </trkpt>
      <trkpt lat="45.87316" lon="3.65094">
        <ele>621</ele>
        <time>2024-12-08T00:50:03.620Z</time>
      </trkpt>
      <trkpt lat="45.87318" lon="3.65097">
        <ele>621</ele>
        <time>2024-12-08T00:50:04.619Z</time>
      </trkpt>
      <trkpt lat="45.87318" lon="3.651">
        <ele>621</ele>
        <time>2024-12-08T00:50:05.619Z</time>
      </trkpt>
      <trkpt lat="45.87319" lon="3.65102">
        <ele>621</ele>
        <time>2024-12-08T00:50:06.620Z</time>
      </trkpt>
      <trkpt lat="45.87321" lon="3.65104">
        <ele>621</ele>
        <time>2024-12-08T00:50:07.620Z</time>
      </trkpt>
      <trkpt lat="45.87322" lon="3.65107">
        <ele>621</ele>
        <time>2024-12-08T00:50:08.620Z</time>
      </trkpt>
      <trkpt lat="45.87322" lon="3.65109">
        <ele>620</ele>
        <time>2024-12-08T00:50:09.619Z</time>
      </trkpt>
      <trkpt lat="45.87323" lon="3.65111">
        <ele>620</ele>
        <time>2024-12-08T00:50:10.620Z</time>
      </trkpt>
      <trkpt lat="45.87325" lon="3.65112">
        <ele>620</ele>
        <time>2024-12-08T00:50:11.619Z</time>
      </trkpt>
      <trkpt lat="45.87326" lon="3.65113">
        <ele>619</ele>
        <time>2024-12-08T00:50:12.620Z</time>
      </trkpt>
      <trkpt lat="45.87327" lon="3.65115">
        <ele>619</ele>
        <time>2024-12-08T00:50:13.619Z</time>
      </trkpt>
      <trkpt lat="45.87327" lon="3.65117">
        <ele>619</ele>
        <time>2024-12-08T00:50:14.619Z</time>
      </trkpt>
      <trkpt lat="45.87328" lon="3.65119">
        <ele>619</ele>
        <time>2024-12-08T00:50:15.619Z</time>
      </trkpt>
      <trkpt lat="45.8733" lon="3.6512">
        <ele>619</ele>
        <time>2024-12-08T00:50:16.620Z</time>
      </trkpt>
      <trkpt lat="45.87331" lon="3.65121">
        <ele>619</ele>
        <time>2024-12-08T00:50:17.620Z</time>
      </trkpt>
      <trkpt lat="45.87333" lon="3.65122">
        <ele>619</ele>
        <time>2024-12-08T00:50:18.619Z</time>
      </trkpt>
      <trkpt lat="45.87335" lon="3.65123">
        <ele>618</ele>
        <time>2024-12-08T00:50:19.619Z</time>
      </trkpt>
      <trkpt lat="45.87335" lon="3.65124">
        <ele>618</ele>
        <time>2024-12-08T00:50:20.620Z</time>
      </trkpt>
      <trkpt lat="45.87336" lon="3.65125">
        <ele>618</ele>
        <time>2024-12-08T00:50:21.620Z</time>
      </trkpt>
      <trkpt lat="45.87337" lon="3.65127">
        <ele>617</ele>
        <time>2024-12-08T00:50:22.619Z</time>
      </trkpt>
      <trkpt lat="45.87339" lon="3.65128">
        <ele>617</ele>
        <time>2024-12-08T00:50:23.620Z</time>
      </trkpt>
      <trkpt lat="45.8734" lon="3.6513">
        <ele>617</ele>
        <time>2024-12-08T00:50:24.620Z</time>
      </trkpt>
      <trkpt lat="45.87341" lon="3.65131">
        <ele>616</ele>
        <time>2024-12-08T00:50:25.619Z</time>
      </trkpt>
      <trkpt lat="45.87342" lon="3.65133">
        <ele>616</ele>
        <time>2024-12-08T00:50:26.620Z</time>
      </trkpt>
      <trkpt lat="45.87343" lon="3.65135">
        <ele>616</ele>
        <time>2024-12-08T00:50:27.619Z</time>
      </trkpt>
      <trkpt lat="45.87344" lon="3.65137">
        <ele>615</ele>
        <time>2024-12-08T00:50:28.619Z</time>
      </trkpt>
      <trkpt lat="45.87346" lon="3.65138">
        <ele>615</ele>
        <time>2024-12-08T00:50:29.619Z</time>
      </trkpt>
      <trkpt lat="45.87347" lon="3.6514">
        <ele>615</ele>
        <time>2024-12-08T00:50:30.620Z</time>
      </trkpt>
      <trkpt lat="45.87349" lon="3.65142">
        <ele>615</ele>
        <time>2024-12-08T00:50:31.619Z</time>
      </trkpt>
      <trkpt lat="45.8735" lon="3.65144">
        <ele>615</ele>
        <time>2024-12-08T00:50:32.619Z</time>
      </trkpt>
      <trkpt lat="45.87352" lon="3.65146">
        <ele>615</ele>
        <time>2024-12-08T00:50:33.620Z</time>
      </trkpt>
      <trkpt lat="45.87354" lon="3.65147">
        <ele>615</ele>
        <time>2024-12-08T00:50:34.619Z</time>
      </trkpt>
      <trkpt lat="45.87356" lon="3.65149">
        <ele>615</ele>
        <time>2024-12-08T00:50:35.620Z</time>
      </trkpt>
      <trkpt lat="45.87357" lon="3.6515">
        <ele>614</ele>
        <time>2024-12-08T00:50:36.620Z</time>
      </trkpt>
      <trkpt lat="45.87358" lon="3.65152">
        <ele>614</ele>
        <time>2024-12-08T00:50:37.619Z</time>
      </trkpt>
      <trkpt lat="45.8736" lon="3.65154">
        <ele>614</ele>
        <time>2024-12-08T00:50:38.619Z</time>
      </trkpt>
      <trkpt lat="45.87361" lon="3.65156">
        <ele>614</ele>
        <time>2024-12-08T00:50:39.619Z</time>
      </trkpt>
      <trkpt lat="45.87363" lon="3.65157">
        <ele>614</ele>
        <time>2024-12-08T00:50:40.620Z</time>
      </trkpt>
      <trkpt lat="45.87364" lon="3.65159">
        <ele>614</ele>
        <time>2024-12-08T00:50:41.619Z</time>
      </trkpt>
      <trkpt lat="45.87365" lon="3.65161">
        <ele>615</ele>
        <time>2024-12-08T00:50:42.619Z</time>
      </trkpt>
      <trkpt lat="45.87366" lon="3.65163">
        <ele>615</ele>
        <time>2024-12-08T00:50:43.620Z</time>
      </trkpt>
      <trkpt lat="45.87368" lon="3.65165">
        <ele>615</ele>
        <time>2024-12-08T00:50:44.620Z</time>
      </trkpt>
      <trkpt lat="45.87369" lon="3.65167">
        <ele>615</ele>
        <time>2024-12-08T00:50:45.620Z</time>
      </trkpt>
      <trkpt lat="45.8737" lon="3.65169">
        <ele>615</ele>
        <time>2024-12-08T00:50:46.619Z</time>
      </trkpt>
      <trkpt lat="45.87371" lon="3.65171">
        <ele>616</ele>
        <time>2024-12-08T00:50:47.620Z</time>
      </trkpt>
      <trkpt lat="45.87372" lon="3.65173">
        <ele>616</ele>
        <time>2024-12-08T00:50:48.619Z</time>
      </trkpt>
      <trkpt lat="45.87373" lon="3.65175">
        <ele>616</ele>
        <time>2024-12-08T00:50:49.619Z</time>
      </trkpt>
      <trkpt lat="45.87374" lon="3.65178">
        <ele>616</ele>
        <time>2024-12-08T00:50:50.619Z</time>
      </trkpt>
      <trkpt lat="45.87374" lon="3.6518">
        <ele>616</ele>
        <time>2024-12-08T00:50:51.619Z</time>
      </trkpt>
      <trkpt lat="45.87375" lon="3.65183">
        <ele>616</ele>
        <time>2024-12-08T00:50:52.620Z</time>
      </trkpt>
      <trkpt lat="45.87375" lon="3.65185">
        <ele>615</ele>
        <time>2024-12-08T00:50:53.619Z</time>
      </trkpt>
      <trkpt lat="45.87376" lon="3.65188">
        <ele>615</ele>
        <time>2024-12-08T00:50:54.619Z</time>
      </trkpt>
      <trkpt lat="45.87376" lon="3.65191">
        <ele>615</ele>
        <time>2024-12-08T00:50:55.619Z</time>
      </trkpt>
      <trkpt lat="45.87376" lon="3.65193">
        <ele>614</ele>
        <time>2024-12-08T00:50:56.620Z</time>
      </trkpt>
      <trkpt lat="45.87376" lon="3.65196">
        <ele>614</ele>
        <time>2024-12-08T00:50:57.619Z</time>
      </trkpt>
      <trkpt lat="45.87376" lon="3.65198">
        <ele>614</ele>
        <time>2024-12-08T00:50:58.619Z</time>
      </trkpt>
      <trkpt lat="45.87375" lon="3.65201">
        <ele>614</ele>
        <time>2024-12-08T00:50:59.620Z</time>
      </trkpt>
      <trkpt lat="45.87373" lon="3.65202">
        <ele>614</ele>
        <time>2024-12-08T00:51:00.620Z</time>
      </trkpt>
      <trkpt lat="45.87372" lon="3.65205">
        <ele>614</ele>
        <time>2024-12-08T00:51:01.619Z</time>
      </trkpt>
      <trkpt lat="45.87371" lon="3.65207">
        <ele>614</ele>
        <time>2024-12-08T00:51:02.619Z</time>
      </trkpt>
      <trkpt lat="45.87369" lon="3.65208">
        <ele>614</ele>
        <time>2024-12-08T00:51:03.620Z</time>
      </trkpt>
      <trkpt lat="45.87368" lon="3.6521">
        <ele>614</ele>
        <time>2024-12-08T00:51:04.619Z</time>
      </trkpt>
      <trkpt lat="45.87366" lon="3.65211">
        <ele>614</ele>
        <time>2024-12-08T00:51:05.619Z</time>
      </trkpt>
      <trkpt lat="45.87364" lon="3.65213">
        <ele>614</ele>
        <time>2024-12-08T00:51:06.620Z</time>
      </trkpt>
      <trkpt lat="45.87363" lon="3.65214">
        <ele>614</ele>
        <time>2024-12-08T00:51:07.620Z</time>
      </trkpt>
      <trkpt lat="45.87361" lon="3.65215">
        <ele>614</ele>
        <time>2024-12-08T00:51:08.619Z</time>
      </trkpt>
      <trkpt lat="45.87359" lon="3.65215">
        <ele>614</ele>
        <time>2024-12-08T00:51:09.620Z</time>
      </trkpt>
      <trkpt lat="45.87357" lon="3.65216">
        <ele>614</ele>
        <time>2024-12-08T00:51:10.619Z</time>
      </trkpt>
      <trkpt lat="45.87355" lon="3.65216">
        <ele>614</ele>
        <time>2024-12-08T00:51:11.619Z</time>
      </trkpt>
      <trkpt lat="45.87353" lon="3.65217">
        <ele>614</ele>
        <time>2024-12-08T00:51:12.620Z</time>
      </trkpt>
      <trkpt lat="45.87351" lon="3.65218">
        <ele>614</ele>
        <time>2024-12-08T00:51:13.620Z</time>
      </trkpt>
      <trkpt lat="45.87349" lon="3.65219">
        <ele>614</ele>
        <time>2024-12-08T00:51:14.620Z</time>
      </trkpt>
      <trkpt lat="45.87348" lon="3.65219">
        <ele>614</ele>
        <time>2024-12-08T00:51:15.619Z</time>
      </trkpt>
      <trkpt lat="45.87346" lon="3.6522">
        <ele>614</ele>
        <time>2024-12-08T00:51:16.619Z</time>
      </trkpt>
      <trkpt lat="45.87344" lon="3.65221">
        <ele>614</ele>
        <time>2024-12-08T00:51:17.619Z</time>
      </trkpt>
      <trkpt lat="45.87342" lon="3.65222">
        <ele>614</ele>
        <time>2024-12-08T00:51:18.619Z</time>
      </trkpt>
      <trkpt lat="45.8734" lon="3.65223">
        <ele>614</ele>
        <time>2024-12-08T00:51:19.619Z</time>
      </trkpt>
      <trkpt lat="45.87338" lon="3.65224">
        <ele>614</ele>
        <time>2024-12-08T00:51:20.620Z</time>
      </trkpt>
      <trkpt lat="45.87336" lon="3.65225">
        <ele>614</ele>
        <time>2024-12-08T00:51:21.620Z</time>
      </trkpt>
      <trkpt lat="45.87334" lon="3.65226">
        <ele>614</ele>
        <time>2024-12-08T00:51:22.620Z</time>
      </trkpt>
      <trkpt lat="45.87333" lon="3.65226">
        <ele>614</ele>
        <time>2024-12-08T00:51:23.620Z</time>
      </trkpt>
      <trkpt lat="45.87331" lon="3.65226">
        <ele>614</ele>
        <time>2024-12-08T00:51:24.620Z</time>
      </trkpt>
      <trkpt lat="45.87329" lon="3.65227">
        <ele>614</ele>
        <time>2024-12-08T00:51:25.619Z</time>
      </trkpt>
      <trkpt lat="45.87327" lon="3.65227">
        <ele>614</ele>
        <time>2024-12-08T00:51:26.620Z</time>
      </trkpt>
      <trkpt lat="45.87325" lon="3.65228">
        <ele>614</ele>
        <time>2024-12-08T00:51:27.619Z</time>
      </trkpt>
      <trkpt lat="45.87323" lon="3.65229">
        <ele>614</ele>
        <time>2024-12-08T00:51:28.620Z</time>
      </trkpt>
      <trkpt lat="45.87321" lon="3.6523">
        <ele>614</ele>
        <time>2024-12-08T00:51:29.620Z</time>
      </trkpt>
      <trkpt lat="45.8732" lon="3.65231">
        <ele>614</ele>
        <time>2024-12-08T00:51:30.620Z</time>
      </trkpt>
      <trkpt lat="45.87319" lon="3.65231">
        <ele>614</ele>
        <time>2024-12-08T00:51:31.620Z</time>
      </trkpt>
      <trkpt lat="45.87316" lon="3.65232">
        <ele>614</ele>
        <time>2024-12-08T00:51:32.620Z</time>
      </trkpt>
      <trkpt lat="45.87314" lon="3.65233">
        <ele>614</ele>
        <time>2024-12-08T00:51:33.619Z</time>
      </trkpt>
      <trkpt lat="45.87313" lon="3.65234">
        <ele>614</ele>
        <time>2024-12-08T00:51:34.619Z</time>
      </trkpt>
      <trkpt lat="45.87311" lon="3.65235">
        <ele>614</ele>
        <time>2024-12-08T00:51:35.620Z</time>
      </trkpt>
      <trkpt lat="45.87309" lon="3.65236">
        <ele>615</ele>
        <time>2024-12-08T00:51:36.619Z</time>
      </trkpt>
      <trkpt lat="45.87307" lon="3.65237">
        <ele>615</ele>
        <time>2024-12-08T00:51:37.619Z</time>
      </trkpt>
      <trkpt lat="45.87305" lon="3.65238">
        <ele>615</ele>
        <time>2024-12-08T00:51:38.620Z</time>
      </trkpt>
      <trkpt lat="45.87304" lon="3.65239">
        <ele>615</ele>
        <time>2024-12-08T00:51:39.620Z</time>
      </trkpt>
      <trkpt lat="45.87302" lon="3.6524">
        <ele>615</ele>
        <time>2024-12-08T00:51:40.619Z</time>
      </trkpt>
      <trkpt lat="45.87301" lon="3.65241">
        <ele>615</ele>
        <time>2024-12-08T00:51:41.620Z</time>
      </trkpt>
      <trkpt lat="45.87299" lon="3.65242">
        <ele>615</ele>
        <time>2024-12-08T00:51:42.619Z</time>
      </trkpt>
      <trkpt lat="45.87294" lon="3.65244">
        <ele>616</ele>
        <time>2024-12-08T00:51:44.619Z</time>
      </trkpt>
      <trkpt lat="45.87266" lon="3.65261">
        <ele>615</ele>
        <time>2024-12-08T00:51:58.619Z</time>
      </trkpt>
      <trkpt lat="45.87266" lon="3.65258">
        <ele>615</ele>
        <time>2024-12-08T00:51:59.619Z</time>
      </trkpt>
      <trkpt lat="45.87265" lon="3.65255">
        <ele>614</ele>
        <time>2024-12-08T00:52:00.620Z</time>
      </trkpt>
      <trkpt lat="45.87264" lon="3.65253">
        <ele>614</ele>
        <time>2024-12-08T00:52:01.619Z</time>
      </trkpt>
      <trkpt lat="45.87263" lon="3.65256">
        <ele>613</ele>
        <time>2024-12-08T00:52:02.619Z</time>
      </trkpt>
      <trkpt lat="45.87261" lon="3.65255">
        <ele>613</ele>
        <time>2024-12-08T00:52:03.619Z</time>
      </trkpt>
      <trkpt lat="45.8726" lon="3.65255">
        <ele>613</ele>
        <time>2024-12-08T00:52:04.620Z</time>
      </trkpt>
      <trkpt lat="45.87258" lon="3.65257">
        <ele>612</ele>
        <time>2024-12-08T00:52:05.620Z</time>
      </trkpt>
      <trkpt lat="45.87256" lon="3.65259">
        <ele>612</ele>
        <time>2024-12-08T00:52:06.619Z</time>
      </trkpt>
      <trkpt lat="45.87255" lon="3.65261">
        <ele>612</ele>
        <time>2024-12-08T00:52:07.620Z</time>
      </trkpt>
      <trkpt lat="45.87253" lon="3.65263">
        <ele>611</ele>
        <time>2024-12-08T00:52:08.619Z</time>
      </trkpt>
      <trkpt lat="45.87251" lon="3.65264">
        <ele>611</ele>
        <time>2024-12-08T00:52:09.619Z</time>
      </trkpt>
      <trkpt lat="45.87249" lon="3.65265">
        <ele>611</ele>
        <time>2024-12-08T00:52:10.619Z</time>
      </trkpt>
      <trkpt lat="45.87248" lon="3.65267">
        <ele>610</ele>
        <time>2024-12-08T00:52:11.619Z</time>
      </trkpt>
      <trkpt lat="45.87246" lon="3.65269">
        <ele>610</ele>
        <time>2024-12-08T00:52:12.619Z</time>
      </trkpt>
      <trkpt lat="45.87245" lon="3.65271">
        <ele>610</ele>
        <time>2024-12-08T00:52:13.619Z</time>
      </trkpt>
      <trkpt lat="45.87244" lon="3.65273">
        <ele>610</ele>
        <time>2024-12-08T00:52:14.620Z</time>
      </trkpt>
      <trkpt lat="45.87243" lon="3.65276">
        <ele>610</ele>
        <time>2024-12-08T00:52:15.620Z</time>
      </trkpt>
      <trkpt lat="45.87242" lon="3.65278">
        <ele>609</ele>
        <time>2024-12-08T00:52:16.620Z</time>
      </trkpt>
      <trkpt lat="45.87241" lon="3.6528">
        <ele>609</ele>
        <time>2024-12-08T00:52:17.619Z</time>
      </trkpt>
      <trkpt lat="45.8724" lon="3.65282">
        <ele>609</ele>
        <time>2024-12-08T00:52:18.619Z</time>
      </trkpt>
      <trkpt lat="45.87239" lon="3.65284">
        <ele>609</ele>
        <time>2024-12-08T00:52:19.620Z</time>
      </trkpt>
      <trkpt lat="45.87238" lon="3.65286">
        <ele>609</ele>
        <time>2024-12-08T00:52:20.620Z</time>
      </trkpt>
      <trkpt lat="45.87238" lon="3.65289">
        <ele>609</ele>
        <time>2024-12-08T00:52:21.619Z</time>
      </trkpt>
      <trkpt lat="45.87237" lon="3.65292">
        <ele>609</ele>
        <time>2024-12-08T00:52:22.619Z</time>
      </trkpt>
      <trkpt lat="45.87236" lon="3.65294">
        <ele>609</ele>
        <time>2024-12-08T00:52:23.619Z</time>
      </trkpt>
      <trkpt lat="45.87235" lon="3.65296">
        <ele>609</ele>
        <time>2024-12-08T00:52:24.620Z</time>
      </trkpt>
      <trkpt lat="45.87235" lon="3.65298">
        <ele>609</ele>
        <time>2024-12-08T00:52:25.620Z</time>
      </trkpt>
      <trkpt lat="45.87234" lon="3.65301">
        <ele>609</ele>
        <time>2024-12-08T00:52:26.619Z</time>
      </trkpt>
      <trkpt lat="45.87233" lon="3.65303">
        <ele>609</ele>
        <time>2024-12-08T00:52:27.619Z</time>
      </trkpt>
      <trkpt lat="45.87233" lon="3.65306">
        <ele>609</ele>
        <time>2024-12-08T00:52:28.620Z</time>
      </trkpt>
      <trkpt lat="45.87232" lon="3.65308">
        <ele>609</ele>
        <time>2024-12-08T00:52:29.619Z</time>
      </trkpt>
      <trkpt lat="45.87232" lon="3.65311">
        <ele>609</ele>
        <time>2024-12-08T00:52:30.620Z</time>
      </trkpt>
      <trkpt lat="45.87232" lon="3.65313">
        <ele>609</ele>
        <time>2024-12-08T00:52:31.620Z</time>
      </trkpt>
      <trkpt lat="45.87231" lon="3.65316">
        <ele>609</ele>
        <time>2024-12-08T00:52:32.620Z</time>
      </trkpt>
      <trkpt lat="45.87231" lon="3.65319">
        <ele>608</ele>
        <time>2024-12-08T00:52:33.620Z</time>
      </trkpt>
      <trkpt lat="45.87231" lon="3.65322">
        <ele>608</ele>
        <time>2024-12-08T00:52:34.620Z</time>
      </trkpt>
      <trkpt lat="45.87231" lon="3.65324">
        <ele>608</ele>
        <time>2024-12-08T00:52:35.620Z</time>
      </trkpt>
      <trkpt lat="45.8723" lon="3.65327">
        <ele>608</ele>
        <time>2024-12-08T00:52:36.619Z</time>
      </trkpt>
      <trkpt lat="45.8723" lon="3.65329">
        <ele>608</ele>
        <time>2024-12-08T00:52:37.620Z</time>
      </trkpt>
      <trkpt lat="45.8723" lon="3.65332">
        <ele>608</ele>
        <time>2024-12-08T00:52:38.620Z</time>
      </trkpt>
      <trkpt lat="45.8723" lon="3.65334">
        <ele>607</ele>
        <time>2024-12-08T00:52:39.620Z</time>
      </trkpt>
      <trkpt lat="45.8723" lon="3.65337">
        <ele>607</ele>
        <time>2024-12-08T00:52:40.620Z</time>
      </trkpt>
      <trkpt lat="45.8723" lon="3.6534">
        <ele>607</ele>
        <time>2024-12-08T00:52:41.620Z</time>
      </trkpt>
      <trkpt lat="45.8723" lon="3.65343">
        <ele>607</ele>
        <time>2024-12-08T00:52:42.619Z</time>
      </trkpt>
      <trkpt lat="45.8723" lon="3.65345">
        <ele>607</ele>
        <time>2024-12-08T00:52:43.619Z</time>
      </trkpt>
      <trkpt lat="45.8723" lon="3.65348">
        <ele>607</ele>
        <time>2024-12-08T00:52:44.619Z</time>
      </trkpt>
      <trkpt lat="45.8723" lon="3.65351">
        <ele>607</ele>
        <time>2024-12-08T00:52:45.619Z</time>
      </trkpt>
      <trkpt lat="45.8723" lon="3.65354">
        <ele>606</ele>
        <time>2024-12-08T00:52:46.620Z</time>
      </trkpt>
      <trkpt lat="45.8723" lon="3.65356">
        <ele>606</ele>
        <time>2024-12-08T00:52:47.619Z</time>
      </trkpt>
      <trkpt lat="45.8723" lon="3.65358">
        <ele>606</ele>
        <time>2024-12-08T00:52:48.620Z</time>
      </trkpt>
      <trkpt lat="45.8723" lon="3.65361">
        <ele>606</ele>
        <time>2024-12-08T00:52:49.619Z</time>
      </trkpt>
      <trkpt lat="45.8723" lon="3.65364">
        <ele>606</ele>
        <time>2024-12-08T00:52:50.620Z</time>
      </trkpt>
      <trkpt lat="45.87231" lon="3.65367">
        <ele>606</ele>
        <time>2024-12-08T00:52:51.620Z</time>
      </trkpt>
      <trkpt lat="45.87231" lon="3.65369">
        <ele>606</ele>
        <time>2024-12-08T00:52:52.619Z</time>
      </trkpt>
      <trkpt lat="45.87231" lon="3.65372">
        <ele>606</ele>
        <time>2024-12-08T00:52:53.620Z</time>
      </trkpt>
      <trkpt lat="45.87231" lon="3.65375">
        <ele>606</ele>
        <time>2024-12-08T00:52:54.620Z</time>
      </trkpt>
      <trkpt lat="45.87231" lon="3.65377">
        <ele>607</ele>
        <time>2024-12-08T00:52:55.619Z</time>
      </trkpt>
      <trkpt lat="45.87231" lon="3.65379">
        <ele>607</ele>
        <time>2024-12-08T00:52:56.619Z</time>
      </trkpt>
      <trkpt lat="45.87231" lon="3.65382">
        <ele>607</ele>
        <time>2024-12-08T00:52:57.619Z</time>
      </trkpt>
      <trkpt lat="45.87231" lon="3.65384">
        <ele>607</ele>
        <time>2024-12-08T00:52:58.619Z</time>
      </trkpt>
      <trkpt lat="45.87231" lon="3.65387">
        <ele>607</ele>
        <time>2024-12-08T00:52:59.619Z</time>
      </trkpt>
      <trkpt lat="45.87231" lon="3.6539">
        <ele>607</ele>
        <time>2024-12-08T00:53:00.620Z</time>
      </trkpt>
      <trkpt lat="45.8723" lon="3.65393">
        <ele>607</ele>
        <time>2024-12-08T00:53:01.620Z</time>
      </trkpt>
      <trkpt lat="45.8723" lon="3.65396">
        <ele>607</ele>
        <time>2024-12-08T00:53:02.620Z</time>
      </trkpt>
      <trkpt lat="45.8723" lon="3.65398">
        <ele>607</ele>
        <time>2024-12-08T00:53:03.619Z</time>
      </trkpt>
      <trkpt lat="45.8723" lon="3.65401">
        <ele>607</ele>
        <time>2024-12-08T00:53:04.619Z</time>
      </trkpt>
      <trkpt lat="45.87229" lon="3.65403">
        <ele>607</ele>
        <time>2024-12-08T00:53:05.619Z</time>
      </trkpt>
      <trkpt lat="45.87229" lon="3.65406">
        <ele>607</ele>
        <time>2024-12-08T00:53:06.620Z</time>
      </trkpt>
      <trkpt lat="45.87228" lon="3.65408">
        <ele>607</ele>
        <time>2024-12-08T00:53:07.620Z</time>
      </trkpt>
      <trkpt lat="45.87228" lon="3.65411">
        <ele>607</ele>
        <time>2024-12-08T00:53:08.619Z</time>
      </trkpt>
      <trkpt lat="45.87227" lon="3.65413">
        <ele>607</ele>
        <time>2024-12-08T00:53:09.619Z</time>
      </trkpt>
      <trkpt lat="45.87226" lon="3.65416">
        <ele>607</ele>
        <time>2024-12-08T00:53:10.619Z</time>
      </trkpt>
      <trkpt lat="45.87225" lon="3.65418">
        <ele>607</ele>
        <time>2024-12-08T00:53:11.620Z</time>
      </trkpt>
      <trkpt lat="45.87224" lon="3.65421">
        <ele>607</ele>
        <time>2024-12-08T00:53:12.620Z</time>
      </trkpt>
      <trkpt lat="45.87224" lon="3.65423">
        <ele>607</ele>
        <time>2024-12-08T00:53:13.619Z</time>
      </trkpt>
      <trkpt lat="45.87223" lon="3.65426">
        <ele>607</ele>
        <time>2024-12-08T00:53:14.620Z</time>
      </trkpt>
      <trkpt lat="45.87222" lon="3.65428">
        <ele>608</ele>
        <time>2024-12-08T00:53:15.619Z</time>
      </trkpt>
      <trkpt lat="45.87221" lon="3.6543">
        <ele>607</ele>
        <time>2024-12-08T00:53:16.620Z</time>
      </trkpt>
      <trkpt lat="45.8722" lon="3.65432">
        <ele>607</ele>
        <time>2024-12-08T00:53:17.619Z</time>
      </trkpt>
      <trkpt lat="45.87219" lon="3.65434">
        <ele>607</ele>
        <time>2024-12-08T00:53:18.620Z</time>
      </trkpt>
      <trkpt lat="45.87218" lon="3.65436">
        <ele>607</ele>
        <time>2024-12-08T00:53:19.620Z</time>
      </trkpt>
      <trkpt lat="45.87217" lon="3.65438">
        <ele>606</ele>
        <time>2024-12-08T00:53:20.619Z</time>
      </trkpt>
      <trkpt lat="45.87216" lon="3.6544">
        <ele>606</ele>
        <time>2024-12-08T00:53:21.619Z</time>
      </trkpt>
      <trkpt lat="45.87215" lon="3.65442">
        <ele>605</ele>
        <time>2024-12-08T00:53:22.620Z</time>
      </trkpt>
      <trkpt lat="45.87213" lon="3.65444">
        <ele>605</ele>
        <time>2024-12-08T00:53:23.620Z</time>
      </trkpt>
      <trkpt lat="45.87212" lon="3.65447">
        <ele>605</ele>
        <time>2024-12-08T00:53:24.619Z</time>
      </trkpt>
      <trkpt lat="45.8721" lon="3.65449">
        <ele>605</ele>
        <time>2024-12-08T00:53:25.620Z</time>
      </trkpt>
      <trkpt lat="45.87208" lon="3.65451">
        <ele>604</ele>
        <time>2024-12-08T00:53:26.619Z</time>
      </trkpt>
      <trkpt lat="45.87206" lon="3.65453">
        <ele>604</ele>
        <time>2024-12-08T00:53:27.619Z</time>
      </trkpt>
      <trkpt lat="45.87205" lon="3.65455">
        <ele>605</ele>
        <time>2024-12-08T00:53:28.619Z</time>
      </trkpt>
      <trkpt lat="45.87203" lon="3.65456">
        <ele>605</ele>
        <time>2024-12-08T00:53:29.620Z</time>
      </trkpt>
      <trkpt lat="45.87202" lon="3.65457">
        <ele>605</ele>
        <time>2024-12-08T00:53:30.619Z</time>
      </trkpt>
      <trkpt lat="45.872" lon="3.65459">
        <ele>605</ele>
        <time>2024-12-08T00:53:31.620Z</time>
      </trkpt>
      <trkpt lat="45.87198" lon="3.6546">
        <ele>605</ele>
        <time>2024-12-08T00:53:32.619Z</time>
      </trkpt>
      <trkpt lat="45.87197" lon="3.65461">
        <ele>605</ele>
        <time>2024-12-08T00:53:33.620Z</time>
      </trkpt>
      <trkpt lat="45.87195" lon="3.65462">
        <ele>604</ele>
        <time>2024-12-08T00:53:34.620Z</time>
      </trkpt>
      <trkpt lat="45.87193" lon="3.65463">
        <ele>604</ele>
        <time>2024-12-08T00:53:35.619Z</time>
      </trkpt>
      <trkpt lat="45.87192" lon="3.65464">
        <ele>604</ele>
        <time>2024-12-08T00:53:36.620Z</time>
      </trkpt>
      <trkpt lat="45.8719" lon="3.65465">
        <ele>604</ele>
        <time>2024-12-08T00:53:37.620Z</time>
      </trkpt>
      <trkpt lat="45.87189" lon="3.65466">
        <ele>604</ele>
        <time>2024-12-08T00:53:38.619Z</time>
      </trkpt>
      <trkpt lat="45.87187" lon="3.65468">
        <ele>604</ele>
        <time>2024-12-08T00:53:39.619Z</time>
      </trkpt>
      <trkpt lat="45.87186" lon="3.6547">
        <ele>604</ele>
        <time>2024-12-08T00:53:40.619Z</time>
      </trkpt>
      <trkpt lat="45.87184" lon="3.65471">
        <ele>604</ele>
        <time>2024-12-08T00:53:41.620Z</time>
      </trkpt>
      <trkpt lat="45.87182" lon="3.65472">
        <ele>603</ele>
        <time>2024-12-08T00:53:42.620Z</time>
      </trkpt>
      <trkpt lat="45.87181" lon="3.65473">
        <ele>603</ele>
        <time>2024-12-08T00:53:43.619Z</time>
      </trkpt>
      <trkpt lat="45.8718" lon="3.65473">
        <ele>603</ele>
        <time>2024-12-08T00:53:44.619Z</time>
      </trkpt>
      <trkpt lat="45.87178" lon="3.65474">
        <ele>602</ele>
        <time>2024-12-08T00:53:45.620Z</time>
      </trkpt>
      <trkpt lat="45.87177" lon="3.65475">
        <ele>602</ele>
        <time>2024-12-08T00:53:46.620Z</time>
      </trkpt>
      <trkpt lat="45.87175" lon="3.65477">
        <ele>602</ele>
        <time>2024-12-08T00:53:47.619Z</time>
      </trkpt>
      <trkpt lat="45.87174" lon="3.65478">
        <ele>602</ele>
        <time>2024-12-08T00:53:48.619Z</time>
      </trkpt>
      <trkpt lat="45.87172" lon="3.65479">
        <ele>601</ele>
        <time>2024-12-08T00:53:49.620Z</time>
      </trkpt>
      <trkpt lat="45.87171" lon="3.65482">
        <ele>601</ele>
        <time>2024-12-08T00:53:50.619Z</time>
      </trkpt>
      <trkpt lat="45.87169" lon="3.65484">
        <ele>601</ele>
        <time>2024-12-08T00:53:51.619Z</time>
      </trkpt>
      <trkpt lat="45.87167" lon="3.65487">
        <ele>600</ele>
        <time>2024-12-08T00:53:52.620Z</time>
      </trkpt>
      <trkpt lat="45.87166" lon="3.65488">
        <ele>600</ele>
        <time>2024-12-08T00:53:53.619Z</time>
      </trkpt>
      <trkpt lat="45.87165" lon="3.6549">
        <ele>600</ele>
        <time>2024-12-08T00:53:54.620Z</time>
      </trkpt>
      <trkpt lat="45.87164" lon="3.65492">
        <ele>600</ele>
        <time>2024-12-08T00:53:55.620Z</time>
      </trkpt>
      <trkpt lat="45.87162" lon="3.65494">
        <ele>600</ele>
        <time>2024-12-08T00:53:56.619Z</time>
      </trkpt>
      <trkpt lat="45.87161" lon="3.65496">
        <ele>600</ele>
        <time>2024-12-08T00:53:57.619Z</time>
      </trkpt>
      <trkpt lat="45.8716" lon="3.65497">
        <ele>599</ele>
        <time>2024-12-08T00:53:58.620Z</time>
      </trkpt>
      <trkpt lat="45.87158" lon="3.65499">
        <ele>599</ele>
        <time>2024-12-08T00:53:59.619Z</time>
      </trkpt>
      <trkpt lat="45.87157" lon="3.65501">
        <ele>599</ele>
        <time>2024-12-08T00:54:00.619Z</time>
      </trkpt>
      <trkpt lat="45.87156" lon="3.65503">
        <ele>599</ele>
        <time>2024-12-08T00:54:01.619Z</time>
      </trkpt>
      <trkpt lat="45.87155" lon="3.65505">
        <ele>598</ele>
        <time>2024-12-08T00:54:02.619Z</time>
      </trkpt>
      <trkpt lat="45.87154" lon="3.65507">
        <ele>598</ele>
        <time>2024-12-08T00:54:03.620Z</time>
      </trkpt>
      <trkpt lat="45.87153" lon="3.6551">
        <ele>598</ele>
        <time>2024-12-08T00:54:04.619Z</time>
      </trkpt>
      <trkpt lat="45.87152" lon="3.65513">
        <ele>598</ele>
        <time>2024-12-08T00:54:05.619Z</time>
      </trkpt>
      <trkpt lat="45.8715" lon="3.65516">
        <ele>598</ele>
        <time>2024-12-08T00:54:06.620Z</time>
      </trkpt>
      <trkpt lat="45.87149" lon="3.65518">
        <ele>598</ele>
        <time>2024-12-08T00:54:07.619Z</time>
      </trkpt>
      <trkpt lat="45.87148" lon="3.6552">
        <ele>598</ele>
        <time>2024-12-08T00:54:08.620Z</time>
      </trkpt>
      <trkpt lat="45.87147" lon="3.65522">
        <ele>598</ele>
        <time>2024-12-08T00:54:09.619Z</time>
      </trkpt>
      <trkpt lat="45.87146" lon="3.65525">
        <ele>599</ele>
        <time>2024-12-08T00:54:10.620Z</time>
      </trkpt>
      <trkpt lat="45.87145" lon="3.65527">
        <ele>599</ele>
        <time>2024-12-08T00:54:11.619Z</time>
      </trkpt>
      <trkpt lat="45.87143" lon="3.6553">
        <ele>599</ele>
        <time>2024-12-08T00:54:12.619Z</time>
      </trkpt>
      <trkpt lat="45.87143" lon="3.65532">
        <ele>599</ele>
        <time>2024-12-08T00:54:13.620Z</time>
      </trkpt>
      <trkpt lat="45.87142" lon="3.65535">
        <ele>599</ele>
        <time>2024-12-08T00:54:14.620Z</time>
      </trkpt>
      <trkpt lat="45.87141" lon="3.65538">
        <ele>600</ele>
        <time>2024-12-08T00:54:15.620Z</time>
      </trkpt>
      <trkpt lat="45.87141" lon="3.65541">
        <ele>600</ele>
        <time>2024-12-08T00:54:16.620Z</time>
      </trkpt>
      <trkpt lat="45.87139" lon="3.65544">
        <ele>601</ele>
        <time>2024-12-08T00:54:17.620Z</time>
      </trkpt>
      <trkpt lat="45.87139" lon="3.65547">
        <ele>601</ele>
        <time>2024-12-08T00:54:18.620Z</time>
      </trkpt>
      <trkpt lat="45.87138" lon="3.65549">
        <ele>601</ele>
        <time>2024-12-08T00:54:19.620Z</time>
      </trkpt>
      <trkpt lat="45.87137" lon="3.65552">
        <ele>601</ele>
        <time>2024-12-08T00:54:20.619Z</time>
      </trkpt>
      <trkpt lat="45.87137" lon="3.65555">
        <ele>601</ele>
        <time>2024-12-08T00:54:21.619Z</time>
      </trkpt>
      <trkpt lat="45.87136" lon="3.65557">
        <ele>601</ele>
        <time>2024-12-08T00:54:22.620Z</time>
      </trkpt>
      <trkpt lat="45.87136" lon="3.6556">
        <ele>600</ele>
        <time>2024-12-08T00:54:23.620Z</time>
      </trkpt>
      <trkpt lat="45.87135" lon="3.65563">
        <ele>600</ele>
        <time>2024-12-08T00:54:24.620Z</time>
      </trkpt>
      <trkpt lat="45.87135" lon="3.65566">
        <ele>600</ele>
        <time>2024-12-08T00:54:25.619Z</time>
      </trkpt>
      <trkpt lat="45.87134" lon="3.65569">
        <ele>600</ele>
        <time>2024-12-08T00:54:26.619Z</time>
      </trkpt>
      <trkpt lat="45.87133" lon="3.65571">
        <ele>601</ele>
        <time>2024-12-08T00:54:27.619Z</time>
      </trkpt>
      <trkpt lat="45.87133" lon="3.65574">
        <ele>601</ele>
        <time>2024-12-08T00:54:28.619Z</time>
      </trkpt>
      <trkpt lat="45.87132" lon="3.65576">
        <ele>600</ele>
        <time>2024-12-08T00:54:29.620Z</time>
      </trkpt>
      <trkpt lat="45.87131" lon="3.65578">
        <ele>600</ele>
        <time>2024-12-08T00:54:30.619Z</time>
      </trkpt>
      <trkpt lat="45.87131" lon="3.65581">
        <ele>599</ele>
        <time>2024-12-08T00:54:31.619Z</time>
      </trkpt>
      <trkpt lat="45.8713" lon="3.65584">
        <ele>599</ele>
        <time>2024-12-08T00:54:32.620Z</time>
      </trkpt>
      <trkpt lat="45.87129" lon="3.65587">
        <ele>599</ele>
        <time>2024-12-08T00:54:33.620Z</time>
      </trkpt>
      <trkpt lat="45.87128" lon="3.65589">
        <ele>599</ele>
        <time>2024-12-08T00:54:34.619Z</time>
      </trkpt>
      <trkpt lat="45.87128" lon="3.65592">
        <ele>598</ele>
        <time>2024-12-08T00:54:35.619Z</time>
      </trkpt>
      <trkpt lat="45.87127" lon="3.65594">
        <ele>598</ele>
        <time>2024-12-08T00:54:36.620Z</time>
      </trkpt>
      <trkpt lat="45.87127" lon="3.65596">
        <ele>598</ele>
        <time>2024-12-08T00:54:37.620Z</time>
      </trkpt>
      <trkpt lat="45.87127" lon="3.65599">
        <ele>597</ele>
        <time>2024-12-08T00:54:38.620Z</time>
      </trkpt>
      <trkpt lat="45.87127" lon="3.65601">
        <ele>597</ele>
        <time>2024-12-08T00:54:39.619Z</time>
      </trkpt>
      <trkpt lat="45.87127" lon="3.65604">
        <ele>597</ele>
        <time>2024-12-08T00:54:40.620Z</time>
      </trkpt>
      <trkpt lat="45.87126" lon="3.65608">
        <ele>596</ele>
        <time>2024-12-08T00:54:41.620Z</time>
      </trkpt>
      <trkpt lat="45.87126" lon="3.6561">
        <ele>596</ele>
        <time>2024-12-08T00:54:42.619Z</time>
      </trkpt>
      <trkpt lat="45.87126" lon="3.65612">
        <ele>596</ele>
        <time>2024-12-08T00:54:43.619Z</time>
      </trkpt>
      <trkpt lat="45.87126" lon="3.65615">
        <ele>595</ele>
        <time>2024-12-08T00:54:44.619Z</time>
      </trkpt>
      <trkpt lat="45.87125" lon="3.65618">
        <ele>595</ele>
        <time>2024-12-08T00:54:45.620Z</time>
      </trkpt>
      <trkpt lat="45.87125" lon="3.6562">
        <ele>595</ele>
        <time>2024-12-08T00:54:46.619Z</time>
      </trkpt>
      <trkpt lat="45.87124" lon="3.65623">
        <ele>595</ele>
        <time>2024-12-08T00:54:47.619Z</time>
      </trkpt>
      <trkpt lat="45.87123" lon="3.65625">
        <ele>594</ele>
        <time>2024-12-08T00:54:48.620Z</time>
      </trkpt>
      <trkpt lat="45.87122" lon="3.65628">
        <ele>594</ele>
        <time>2024-12-08T00:54:49.620Z</time>
      </trkpt>
      <trkpt lat="45.87122" lon="3.6563">
        <ele>594</ele>
        <time>2024-12-08T00:54:50.619Z</time>
      </trkpt>
      <trkpt lat="45.87121" lon="3.65633">
        <ele>594</ele>
        <time>2024-12-08T00:54:51.620Z</time>
      </trkpt>
      <trkpt lat="45.8712" lon="3.65635">
        <ele>593</ele>
        <time>2024-12-08T00:54:52.620Z</time>
      </trkpt>
      <trkpt lat="45.87119" lon="3.65637">
        <ele>593</ele>
        <time>2024-12-08T00:54:53.620Z</time>
      </trkpt>
      <trkpt lat="45.87118" lon="3.6564">
        <ele>593</ele>
        <time>2024-12-08T00:54:54.620Z</time>
      </trkpt>
      <trkpt lat="45.87117" lon="3.65642">
        <ele>593</ele>
        <time>2024-12-08T00:54:55.620Z</time>
      </trkpt>
      <trkpt lat="45.87117" lon="3.65644">
        <ele>592</ele>
        <time>2024-12-08T00:54:56.620Z</time>
      </trkpt>
      <trkpt lat="45.87117" lon="3.65647">
        <ele>592</ele>
        <time>2024-12-08T00:54:57.620Z</time>
      </trkpt>
      <trkpt lat="45.87116" lon="3.65649">
        <ele>592</ele>
        <time>2024-12-08T00:54:58.619Z</time>
      </trkpt>
      <trkpt lat="45.87116" lon="3.65652">
        <ele>592</ele>
        <time>2024-12-08T00:54:59.620Z</time>
      </trkpt>
      <trkpt lat="45.87115" lon="3.65655">
        <ele>593</ele>
        <time>2024-12-08T00:55:00.620Z</time>
      </trkpt>
      <trkpt lat="45.87114" lon="3.65658">
        <ele>593</ele>
        <time>2024-12-08T00:55:01.620Z</time>
      </trkpt>
      <trkpt lat="45.87113" lon="3.65661">
        <ele>593</ele>
        <time>2024-12-08T00:55:02.620Z</time>
      </trkpt>
      <trkpt lat="45.87112" lon="3.65664">
        <ele>594</ele>
        <time>2024-12-08T00:55:03.619Z</time>
      </trkpt>
      <trkpt lat="45.87111" lon="3.65666">
        <ele>594</ele>
        <time>2024-12-08T00:55:04.619Z</time>
      </trkpt>
      <trkpt lat="45.87111" lon="3.65669">
        <ele>594</ele>
        <time>2024-12-08T00:55:05.619Z</time>
      </trkpt>
      <trkpt lat="45.8711" lon="3.65671">
        <ele>594</ele>
        <time>2024-12-08T00:55:06.619Z</time>
      </trkpt>
      <trkpt lat="45.8711" lon="3.65674">
        <ele>594</ele>
        <time>2024-12-08T00:55:07.620Z</time>
      </trkpt>
      <trkpt lat="45.8711" lon="3.65677">
        <ele>593</ele>
        <time>2024-12-08T00:55:08.619Z</time>
      </trkpt>
      <trkpt lat="45.87109" lon="3.65679">
        <ele>593</ele>
        <time>2024-12-08T00:55:09.619Z</time>
      </trkpt>
      <trkpt lat="45.87109" lon="3.65682">
        <ele>592</ele>
        <time>2024-12-08T00:55:10.620Z</time>
      </trkpt>
      <trkpt lat="45.87109" lon="3.65685">
        <ele>591</ele>
        <time>2024-12-08T00:55:11.620Z</time>
      </trkpt>
      <trkpt lat="45.87108" lon="3.65687">
        <ele>591</ele>
        <time>2024-12-08T00:55:12.619Z</time>
      </trkpt>
      <trkpt lat="45.87108" lon="3.65689">
        <ele>591</ele>
        <time>2024-12-08T00:55:13.620Z</time>
      </trkpt>
      <trkpt lat="45.87108" lon="3.65692">
        <ele>590</ele>
        <time>2024-12-08T00:55:14.620Z</time>
      </trkpt>
      <trkpt lat="45.87108" lon="3.65695">
        <ele>590</ele>
        <time>2024-12-08T00:55:15.619Z</time>
      </trkpt>
      <trkpt lat="45.87108" lon="3.65698">
        <ele>590</ele>
        <time>2024-12-08T00:55:16.619Z</time>
      </trkpt>
      <trkpt lat="45.87108" lon="3.65701">
        <ele>590</ele>
        <time>2024-12-08T00:55:17.619Z</time>
      </trkpt>
      <trkpt lat="45.87108" lon="3.65703">
        <ele>590</ele>
        <time>2024-12-08T00:55:18.619Z</time>
      </trkpt>
      <trkpt lat="45.87108" lon="3.65706">
        <ele>590</ele>
        <time>2024-12-08T00:55:19.620Z</time>
      </trkpt>
      <trkpt lat="45.87108" lon="3.65708">
        <ele>590</ele>
        <time>2024-12-08T00:55:20.619Z</time>
      </trkpt>
      <trkpt lat="45.87108" lon="3.65711">
        <ele>590</ele>
        <time>2024-12-08T00:55:21.620Z</time>
      </trkpt>
      <trkpt lat="45.87108" lon="3.65714">
        <ele>590</ele>
        <time>2024-12-08T00:55:22.620Z</time>
      </trkpt>
      <trkpt lat="45.87107" lon="3.65716">
        <ele>590</ele>
        <time>2024-12-08T00:55:23.620Z</time>
      </trkpt>
      <trkpt lat="45.87107" lon="3.65719">
        <ele>590</ele>
        <time>2024-12-08T00:55:24.619Z</time>
      </trkpt>
      <trkpt lat="45.87106" lon="3.65722">
        <ele>591</ele>
        <time>2024-12-08T00:55:25.620Z</time>
      </trkpt>
      <trkpt lat="45.87105" lon="3.65725">
        <ele>591</ele>
        <time>2024-12-08T00:55:26.620Z</time>
      </trkpt>
      <trkpt lat="45.87104" lon="3.65728">
        <ele>591</ele>
        <time>2024-12-08T00:55:27.619Z</time>
      </trkpt>
      <trkpt lat="45.87103" lon="3.6573">
        <ele>591</ele>
        <time>2024-12-08T00:55:28.620Z</time>
      </trkpt>
      <trkpt lat="45.87102" lon="3.65732">
        <ele>591</ele>
        <time>2024-12-08T00:55:29.620Z</time>
      </trkpt>
      <trkpt lat="45.87101" lon="3.65735">
        <ele>591</ele>
        <time>2024-12-08T00:55:30.619Z</time>
      </trkpt>
      <trkpt lat="45.87099" lon="3.65737">
        <ele>591</ele>
        <time>2024-12-08T00:55:31.620Z</time>
      </trkpt>
      <trkpt lat="45.87097" lon="3.6574">
        <ele>592</ele>
        <time>2024-12-08T00:55:32.619Z</time>
      </trkpt>
      <trkpt lat="45.87096" lon="3.65742">
        <ele>592</ele>
        <time>2024-12-08T00:55:33.620Z</time>
      </trkpt>
      <trkpt lat="45.87095" lon="3.65744">
        <ele>592</ele>
        <time>2024-12-08T00:55:34.620Z</time>
      </trkpt>
      <trkpt lat="45.87093" lon="3.65745">
        <ele>592</ele>
        <time>2024-12-08T00:55:35.619Z</time>
      </trkpt>
      <trkpt lat="45.87092" lon="3.65747">
        <ele>592</ele>
        <time>2024-12-08T00:55:36.619Z</time>
      </trkpt>
      <trkpt lat="45.8709" lon="3.65749">
        <ele>592</ele>
        <time>2024-12-08T00:55:37.619Z</time>
      </trkpt>
      <trkpt lat="45.87089" lon="3.6575">
        <ele>592</ele>
        <time>2024-12-08T00:55:38.619Z</time>
      </trkpt>
      <trkpt lat="45.87088" lon="3.65752">
        <ele>592</ele>
        <time>2024-12-08T00:55:39.620Z</time>
      </trkpt>
      <trkpt lat="45.87086" lon="3.65753">
        <ele>592</ele>
        <time>2024-12-08T00:55:40.620Z</time>
      </trkpt>
      <trkpt lat="45.87085" lon="3.65755">
        <ele>592</ele>
        <time>2024-12-08T00:55:41.619Z</time>
      </trkpt>
      <trkpt lat="45.87084" lon="3.65757">
        <ele>592</ele>
        <time>2024-12-08T00:55:42.619Z</time>
      </trkpt>
      <trkpt lat="45.87083" lon="3.65758">
        <ele>592</ele>
        <time>2024-12-08T00:55:43.619Z</time>
      </trkpt>
      <trkpt lat="45.87081" lon="3.6576">
        <ele>592</ele>
        <time>2024-12-08T00:55:44.619Z</time>
      </trkpt>
      <trkpt lat="45.8708" lon="3.65762">
        <ele>592</ele>
        <time>2024-12-08T00:55:45.619Z</time>
      </trkpt>
      <trkpt lat="45.87079" lon="3.65764">
        <ele>592</ele>
        <time>2024-12-08T00:55:46.619Z</time>
      </trkpt>
      <trkpt lat="45.87077" lon="3.65765">
        <ele>592</ele>
        <time>2024-12-08T00:55:47.620Z</time>
      </trkpt>
      <trkpt lat="45.87076" lon="3.65767">
        <ele>592</ele>
        <time>2024-12-08T00:55:48.619Z</time>
      </trkpt>
      <trkpt lat="45.87074" lon="3.65769">
        <ele>592</ele>
        <time>2024-12-08T00:55:49.620Z</time>
      </trkpt>
      <trkpt lat="45.87073" lon="3.65771">
        <ele>592</ele>
        <time>2024-12-08T00:55:50.620Z</time>
      </trkpt>
      <trkpt lat="45.87071" lon="3.65773">
        <ele>592</ele>
        <time>2024-12-08T00:55:51.620Z</time>
      </trkpt>
      <trkpt lat="45.8707" lon="3.65775">
        <ele>592</ele>
        <time>2024-12-08T00:55:52.619Z</time>
      </trkpt>
      <trkpt lat="45.87068" lon="3.65777">
        <ele>592</ele>
        <time>2024-12-08T00:55:53.619Z</time>
      </trkpt>
      <trkpt lat="45.87066" lon="3.65778">
        <ele>592</ele>
        <time>2024-12-08T00:55:54.619Z</time>
      </trkpt>
      <trkpt lat="45.87065" lon="3.65779">
        <ele>591</ele>
        <time>2024-12-08T00:55:55.620Z</time>
      </trkpt>
      <trkpt lat="45.87063" lon="3.6578">
        <ele>591</ele>
        <time>2024-12-08T00:55:56.619Z</time>
      </trkpt>
      <trkpt lat="45.87062" lon="3.65781">
        <ele>590</ele>
        <time>2024-12-08T00:55:57.619Z</time>
      </trkpt>
      <trkpt lat="45.87061" lon="3.65783">
        <ele>590</ele>
        <time>2024-12-08T00:55:58.620Z</time>
      </trkpt>
      <trkpt lat="45.87059" lon="3.65785">
        <ele>590</ele>
        <time>2024-12-08T00:55:59.619Z</time>
      </trkpt>
      <trkpt lat="45.87059" lon="3.65786">
        <ele>590</ele>
        <time>2024-12-08T00:56:00.619Z</time>
      </trkpt>
      <trkpt lat="45.87058" lon="3.65787">
        <ele>590</ele>
        <time>2024-12-08T00:56:01.619Z</time>
      </trkpt>
      <trkpt lat="45.87057" lon="3.65789">
        <ele>590</ele>
        <time>2024-12-08T00:56:02.619Z</time>
      </trkpt>
      <trkpt lat="45.87056" lon="3.65792">
        <ele>590</ele>
        <time>2024-12-08T00:56:03.619Z</time>
      </trkpt>
      <trkpt lat="45.87055" lon="3.65793">
        <ele>590</ele>
        <time>2024-12-08T00:56:04.619Z</time>
      </trkpt>
      <trkpt lat="45.87054" lon="3.65795">
        <ele>590</ele>
        <time>2024-12-08T00:56:05.619Z</time>
      </trkpt>
      <trkpt lat="45.87052" lon="3.65797">
        <ele>590</ele>
        <time>2024-12-08T00:56:06.619Z</time>
      </trkpt>
      <trkpt lat="45.87051" lon="3.65799">
        <ele>591</ele>
        <time>2024-12-08T00:56:07.620Z</time>
      </trkpt>
      <trkpt lat="45.87049" lon="3.65801">
        <ele>591</ele>
        <time>2024-12-08T00:56:08.619Z</time>
      </trkpt>
      <trkpt lat="45.87047" lon="3.65803">
        <ele>592</ele>
        <time>2024-12-08T00:56:09.619Z</time>
      </trkpt>
      <trkpt lat="45.87046" lon="3.65804">
        <ele>592</ele>
        <time>2024-12-08T00:56:10.620Z</time>
      </trkpt>
      <trkpt lat="45.87045" lon="3.65806">
        <ele>592</ele>
        <time>2024-12-08T00:56:11.619Z</time>
      </trkpt>
      <trkpt lat="45.87045" lon="3.65808">
        <ele>592</ele>
        <time>2024-12-08T00:56:12.619Z</time>
      </trkpt>
      <trkpt lat="45.87044" lon="3.6581">
        <ele>592</ele>
        <time>2024-12-08T00:56:13.620Z</time>
      </trkpt>
      <trkpt lat="45.87043" lon="3.65812">
        <ele>592</ele>
        <time>2024-12-08T00:56:14.619Z</time>
      </trkpt>
      <trkpt lat="45.87042" lon="3.65814">
        <ele>593</ele>
        <time>2024-12-08T00:56:15.620Z</time>
      </trkpt>
      <trkpt lat="45.87041" lon="3.65816">
        <ele>593</ele>
        <time>2024-12-08T00:56:16.620Z</time>
      </trkpt>
      <trkpt lat="45.87039" lon="3.65818">
        <ele>593</ele>
        <time>2024-12-08T00:56:17.619Z</time>
      </trkpt>
      <trkpt lat="45.87038" lon="3.65819">
        <ele>593</ele>
        <time>2024-12-08T00:56:18.619Z</time>
      </trkpt>
      <trkpt lat="45.87036" lon="3.65822">
        <ele>592</ele>
        <time>2024-12-08T00:56:19.619Z</time>
      </trkpt>
      <trkpt lat="45.87034" lon="3.65823">
        <ele>592</ele>
        <time>2024-12-08T00:56:20.619Z</time>
      </trkpt>
      <trkpt lat="45.87031" lon="3.65825">
        <ele>592</ele>
        <time>2024-12-08T00:56:21.619Z</time>
      </trkpt>
      <trkpt lat="45.87029" lon="3.65828">
        <ele>591</ele>
        <time>2024-12-08T00:56:22.619Z</time>
      </trkpt>
      <trkpt lat="45.87028" lon="3.6583">
        <ele>591</ele>
        <time>2024-12-08T00:56:23.619Z</time>
      </trkpt>
      <trkpt lat="45.87026" lon="3.65833">
        <ele>591</ele>
        <time>2024-12-08T00:56:24.620Z</time>
      </trkpt>
      <trkpt lat="45.87025" lon="3.65833">
        <ele>591</ele>
        <time>2024-12-08T00:56:25.620Z</time>
      </trkpt>
      <trkpt lat="45.87023" lon="3.65835">
        <ele>591</ele>
        <time>2024-12-08T00:56:26.620Z</time>
      </trkpt>
      <trkpt lat="45.87022" lon="3.65836">
        <ele>591</ele>
        <time>2024-12-08T00:56:27.620Z</time>
      </trkpt>
      <trkpt lat="45.8702" lon="3.65836">
        <ele>590</ele>
        <time>2024-12-08T00:56:28.620Z</time>
      </trkpt>
      <trkpt lat="45.87019" lon="3.65838">
        <ele>590</ele>
        <time>2024-12-08T00:56:29.619Z</time>
      </trkpt>
      <trkpt lat="45.87017" lon="3.65839">
        <ele>591</ele>
        <time>2024-12-08T00:56:30.620Z</time>
      </trkpt>
      <trkpt lat="45.87016" lon="3.65841">
        <ele>590</ele>
        <time>2024-12-08T00:56:31.619Z</time>
      </trkpt>
      <trkpt lat="45.87014" lon="3.65843">
        <ele>590</ele>
        <time>2024-12-08T00:56:32.620Z</time>
      </trkpt>
      <trkpt lat="45.87013" lon="3.65844">
        <ele>590</ele>
        <time>2024-12-08T00:56:33.619Z</time>
      </trkpt>
      <trkpt lat="45.87012" lon="3.65845">
        <ele>589</ele>
        <time>2024-12-08T00:56:34.619Z</time>
      </trkpt>
      <trkpt lat="45.8701" lon="3.65846">
        <ele>589</ele>
        <time>2024-12-08T00:56:35.619Z</time>
      </trkpt>
      <trkpt lat="45.87009" lon="3.65849">
        <ele>588</ele>
        <time>2024-12-08T00:56:36.619Z</time>
      </trkpt>
      <trkpt lat="45.87008" lon="3.6585">
        <ele>588</ele>
        <time>2024-12-08T00:56:37.620Z</time>
      </trkpt>
      <trkpt lat="45.87007" lon="3.65852">
        <ele>588</ele>
        <time>2024-12-08T00:56:38.620Z</time>
      </trkpt>
      <trkpt lat="45.87006" lon="3.65852">
        <ele>587</ele>
        <time>2024-12-08T00:56:39.620Z</time>
      </trkpt>
      <trkpt lat="45.87005" lon="3.65854">
        <ele>587</ele>
        <time>2024-12-08T00:56:40.620Z</time>
      </trkpt>
      <trkpt lat="45.87003" lon="3.65855">
        <ele>586</ele>
        <time>2024-12-08T00:56:41.619Z</time>
      </trkpt>
      <trkpt lat="45.87002" lon="3.65858">
        <ele>586</ele>
        <time>2024-12-08T00:56:42.620Z</time>
      </trkpt>
      <trkpt lat="45.87001" lon="3.6586">
        <ele>586</ele>
        <time>2024-12-08T00:56:43.619Z</time>
      </trkpt>
      <trkpt lat="45.86999" lon="3.65861">
        <ele>586</ele>
        <time>2024-12-08T00:56:44.620Z</time>
      </trkpt>
      <trkpt lat="45.86998" lon="3.65863">
        <ele>586</ele>
        <time>2024-12-08T00:56:45.620Z</time>
      </trkpt>
      <trkpt lat="45.86997" lon="3.65864">
        <ele>586</ele>
        <time>2024-12-08T00:56:46.620Z</time>
      </trkpt>
      <trkpt lat="45.86996" lon="3.65866">
        <ele>586</ele>
        <time>2024-12-08T00:56:47.620Z</time>
      </trkpt>
      <trkpt lat="45.86994" lon="3.65868">
        <ele>586</ele>
        <time>2024-12-08T00:56:48.620Z</time>
      </trkpt>
      <trkpt lat="45.86993" lon="3.6587">
        <ele>586</ele>
        <time>2024-12-08T00:56:49.620Z</time>
      </trkpt>
      <trkpt lat="45.86991" lon="3.65872">
        <ele>587</ele>
        <time>2024-12-08T00:56:50.619Z</time>
      </trkpt>
      <trkpt lat="45.8699" lon="3.65874">
        <ele>587</ele>
        <time>2024-12-08T00:56:51.620Z</time>
      </trkpt>
      <trkpt lat="45.86988" lon="3.65876">
        <ele>587</ele>
        <time>2024-12-08T00:56:52.619Z</time>
      </trkpt>
      <trkpt lat="45.86987" lon="3.65877">
        <ele>587</ele>
        <time>2024-12-08T00:56:53.620Z</time>
      </trkpt>
      <trkpt lat="45.86986" lon="3.65878">
        <ele>587</ele>
        <time>2024-12-08T00:56:54.619Z</time>
      </trkpt>
      <trkpt lat="45.86984" lon="3.6588">
        <ele>587</ele>
        <time>2024-12-08T00:56:55.620Z</time>
      </trkpt>
      <trkpt lat="45.86983" lon="3.65882">
        <ele>587</ele>
        <time>2024-12-08T00:56:56.620Z</time>
      </trkpt>
      <trkpt lat="45.86981" lon="3.65884">
        <ele>587</ele>
        <time>2024-12-08T00:56:57.619Z</time>
      </trkpt>
      <trkpt lat="45.8698" lon="3.65886">
        <ele>587</ele>
        <time>2024-12-08T00:56:58.619Z</time>
      </trkpt>
      <trkpt lat="45.86978" lon="3.65888">
        <ele>587</ele>
        <time>2024-12-08T00:56:59.619Z</time>
      </trkpt>
      <trkpt lat="45.86977" lon="3.65889">
        <ele>587</ele>
        <time>2024-12-08T00:57:00.619Z</time>
      </trkpt>
      <trkpt lat="45.86975" lon="3.6589">
        <ele>587</ele>
        <time>2024-12-08T00:57:01.619Z</time>
      </trkpt>
      <trkpt lat="45.86974" lon="3.65891">
        <ele>587</ele>
        <time>2024-12-08T00:57:02.620Z</time>
      </trkpt>
      <trkpt lat="45.86973" lon="3.65893">
        <ele>587</ele>
        <time>2024-12-08T00:57:03.619Z</time>
      </trkpt>
      <trkpt lat="45.86971" lon="3.65894">
        <ele>587</ele>
        <time>2024-12-08T00:57:04.620Z</time>
      </trkpt>
      <trkpt lat="45.8697" lon="3.65895">
        <ele>586</ele>
        <time>2024-12-08T00:57:05.619Z</time>
      </trkpt>
      <trkpt lat="45.86969" lon="3.65896">
        <ele>586</ele>
        <time>2024-12-08T00:57:06.620Z</time>
      </trkpt>
      <trkpt lat="45.86967" lon="3.65897">
        <ele>586</ele>
        <time>2024-12-08T00:57:07.619Z</time>
      </trkpt>
      <trkpt lat="45.86967" lon="3.65898">
        <ele>586</ele>
        <time>2024-12-08T00:57:08.620Z</time>
      </trkpt>
      <trkpt lat="45.86965" lon="3.65899">
        <ele>586</ele>
        <time>2024-12-08T00:57:09.620Z</time>
      </trkpt>
      <trkpt lat="45.86964" lon="3.659">
        <ele>585</ele>
        <time>2024-12-08T00:57:10.619Z</time>
      </trkpt>
      <trkpt lat="45.86963" lon="3.65903">
        <ele>586</ele>
        <time>2024-12-08T00:57:11.619Z</time>
      </trkpt>
      <trkpt lat="45.86962" lon="3.65905">
        <ele>586</ele>
        <time>2024-12-08T00:57:12.619Z</time>
      </trkpt>
      <trkpt lat="45.8696" lon="3.65906">
        <ele>586</ele>
        <time>2024-12-08T00:57:13.619Z</time>
      </trkpt>
      <trkpt lat="45.86959" lon="3.65908">
        <ele>586</ele>
        <time>2024-12-08T00:57:14.619Z</time>
      </trkpt>
      <trkpt lat="45.86957" lon="3.65909">
        <ele>586</ele>
        <time>2024-12-08T00:57:15.619Z</time>
      </trkpt>
      <trkpt lat="45.86955" lon="3.65911">
        <ele>586</ele>
        <time>2024-12-08T00:57:16.620Z</time>
      </trkpt>
      <trkpt lat="45.86954" lon="3.65911">
        <ele>586</ele>
        <time>2024-12-08T00:57:17.620Z</time>
      </trkpt>
      <trkpt lat="45.86953" lon="3.65913">
        <ele>586</ele>
        <time>2024-12-08T00:57:18.619Z</time>
      </trkpt>
      <trkpt lat="45.86951" lon="3.65914">
        <ele>585</ele>
        <time>2024-12-08T00:57:19.619Z</time>
      </trkpt>
      <trkpt lat="45.8695" lon="3.65915">
        <ele>586</ele>
        <time>2024-12-08T00:57:20.619Z</time>
      </trkpt>
      <trkpt lat="45.86948" lon="3.65917">
        <ele>586</ele>
        <time>2024-12-08T00:57:21.619Z</time>
      </trkpt>
      <trkpt lat="45.86947" lon="3.65919">
        <ele>586</ele>
        <time>2024-12-08T00:57:22.620Z</time>
      </trkpt>
      <trkpt lat="45.86945" lon="3.65921">
        <ele>586</ele>
        <time>2024-12-08T00:57:23.619Z</time>
      </trkpt>
      <trkpt lat="45.86944" lon="3.65923">
        <ele>586</ele>
        <time>2024-12-08T00:57:24.619Z</time>
      </trkpt>
      <trkpt lat="45.86943" lon="3.65924">
        <ele>586</ele>
        <time>2024-12-08T00:57:25.619Z</time>
      </trkpt>
      <trkpt lat="45.86941" lon="3.65926">
        <ele>586</ele>
        <time>2024-12-08T00:57:26.619Z</time>
      </trkpt>
      <trkpt lat="45.8694" lon="3.65928">
        <ele>586</ele>
        <time>2024-12-08T00:57:27.619Z</time>
      </trkpt>
      <trkpt lat="45.86938" lon="3.6593">
        <ele>586</ele>
        <time>2024-12-08T00:57:28.619Z</time>
      </trkpt>
      <trkpt lat="45.86937" lon="3.65931">
        <ele>587</ele>
        <time>2024-12-08T00:57:29.620Z</time>
      </trkpt>
      <trkpt lat="45.86935" lon="3.65932">
        <ele>587</ele>
        <time>2024-12-08T00:57:30.619Z</time>
      </trkpt>
      <trkpt lat="45.86934" lon="3.65934">
        <ele>587</ele>
        <time>2024-12-08T00:57:31.620Z</time>
      </trkpt>
      <trkpt lat="45.86933" lon="3.65934">
        <ele>587</ele>
        <time>2024-12-08T00:57:32.620Z</time>
      </trkpt>
      <trkpt lat="45.86931" lon="3.65936">
        <ele>588</ele>
        <time>2024-12-08T00:57:33.619Z</time>
      </trkpt>
      <trkpt lat="45.86929" lon="3.65937">
        <ele>588</ele>
        <time>2024-12-08T00:57:34.619Z</time>
      </trkpt>
      <trkpt lat="45.86928" lon="3.65938">
        <ele>588</ele>
        <time>2024-12-08T00:57:35.620Z</time>
      </trkpt>
      <trkpt lat="45.86926" lon="3.65939">
        <ele>588</ele>
        <time>2024-12-08T00:57:36.620Z</time>
      </trkpt>
      <trkpt lat="45.86925" lon="3.6594">
        <ele>588</ele>
        <time>2024-12-08T00:57:37.620Z</time>
      </trkpt>
      <trkpt lat="45.86923" lon="3.65941">
        <ele>588</ele>
        <time>2024-12-08T00:57:38.619Z</time>
      </trkpt>
      <trkpt lat="45.86921" lon="3.65942">
        <ele>588</ele>
        <time>2024-12-08T00:57:39.620Z</time>
      </trkpt>
      <trkpt lat="45.8692" lon="3.65942">
        <ele>588</ele>
        <time>2024-12-08T00:57:40.619Z</time>
      </trkpt>
      <trkpt lat="45.86918" lon="3.65943">
        <ele>587</ele>
        <time>2024-12-08T00:57:41.619Z</time>
      </trkpt>
      <trkpt lat="45.86917" lon="3.65943">
        <ele>587</ele>
        <time>2024-12-08T00:57:42.620Z</time>
      </trkpt>
      <trkpt lat="45.86915" lon="3.65945">
        <ele>587</ele>
        <time>2024-12-08T00:57:43.619Z</time>
      </trkpt>
      <trkpt lat="45.86913" lon="3.65945">
        <ele>587</ele>
        <time>2024-12-08T00:57:44.620Z</time>
      </trkpt>
      <trkpt lat="45.86911" lon="3.65946">
        <ele>587</ele>
        <time>2024-12-08T00:57:45.619Z</time>
      </trkpt>
      <trkpt lat="45.86909" lon="3.65947">
        <ele>587</ele>
        <time>2024-12-08T00:57:46.619Z</time>
      </trkpt>
      <trkpt lat="45.86908" lon="3.65947">
        <ele>587</ele>
        <time>2024-12-08T00:57:47.619Z</time>
      </trkpt>
      <trkpt lat="45.86906" lon="3.65948">
        <ele>587</ele>
        <time>2024-12-08T00:57:48.619Z</time>
      </trkpt>
      <trkpt lat="45.86904" lon="3.65948">
        <ele>587</ele>
        <time>2024-12-08T00:57:49.619Z</time>
      </trkpt>
      <trkpt lat="45.86903" lon="3.65949">
        <ele>587</ele>
        <time>2024-12-08T00:57:50.620Z</time>
      </trkpt>
      <trkpt lat="45.86901" lon="3.6595">
        <ele>587</ele>
        <time>2024-12-08T00:57:51.620Z</time>
      </trkpt>
      <trkpt lat="45.869" lon="3.6595">
        <ele>587</ele>
        <time>2024-12-08T00:57:52.619Z</time>
      </trkpt>
      <trkpt lat="45.86898" lon="3.6595">
        <ele>587</ele>
        <time>2024-12-08T00:57:53.619Z</time>
      </trkpt>
      <trkpt lat="45.86897" lon="3.6595">
        <ele>587</ele>
        <time>2024-12-08T00:57:54.620Z</time>
      </trkpt>
      <trkpt lat="45.86896" lon="3.6595">
        <ele>587</ele>
        <time>2024-12-08T00:57:55.620Z</time>
      </trkpt>
      <trkpt lat="45.86894" lon="3.65949">
        <ele>587</ele>
        <time>2024-12-08T00:57:56.619Z</time>
      </trkpt>
      <trkpt lat="45.86893" lon="3.65949">
        <ele>588</ele>
        <time>2024-12-08T00:57:57.619Z</time>
      </trkpt>
      <trkpt lat="45.86891" lon="3.6595">
        <ele>588</ele>
        <time>2024-12-08T00:57:58.619Z</time>
      </trkpt>
      <trkpt lat="45.8689" lon="3.6595">
        <ele>588</ele>
        <time>2024-12-08T00:57:59.619Z</time>
      </trkpt>
      <trkpt lat="45.86889" lon="3.65949">
        <ele>588</ele>
        <time>2024-12-08T00:58:00.620Z</time>
      </trkpt>
      <trkpt lat="45.86887" lon="3.65949">
        <ele>589</ele>
        <time>2024-12-08T00:58:01.620Z</time>
      </trkpt>
      <trkpt lat="45.86886" lon="3.65948">
        <ele>589</ele>
        <time>2024-12-08T00:58:02.619Z</time>
      </trkpt>
      <trkpt lat="45.86885" lon="3.65948">
        <ele>589</ele>
        <time>2024-12-08T00:58:03.619Z</time>
      </trkpt>
      <trkpt lat="45.86883" lon="3.65948">
        <ele>589</ele>
        <time>2024-12-08T00:58:04.619Z</time>
      </trkpt>
      <trkpt lat="45.86882" lon="3.65948">
        <ele>589</ele>
        <time>2024-12-08T00:58:05.619Z</time>
      </trkpt>
      <trkpt lat="45.86881" lon="3.65948">
        <ele>590</ele>
        <time>2024-12-08T00:58:06.619Z</time>
      </trkpt>
      <trkpt lat="45.8688" lon="3.65947">
        <ele>590</ele>
        <time>2024-12-08T00:58:07.619Z</time>
      </trkpt>
      <trkpt lat="45.86879" lon="3.65947">
        <ele>590</ele>
        <time>2024-12-08T00:58:08.619Z</time>
      </trkpt>
      <trkpt lat="45.86878" lon="3.65946">
        <ele>591</ele>
        <time>2024-12-08T00:58:09.620Z</time>
      </trkpt>
      <trkpt lat="45.86876" lon="3.65946">
        <ele>591</ele>
        <time>2024-12-08T00:58:10.620Z</time>
      </trkpt>
      <trkpt lat="45.86875" lon="3.65945">
        <ele>591</ele>
        <time>2024-12-08T00:58:11.619Z</time>
      </trkpt>
      <trkpt lat="45.86874" lon="3.65944">
        <ele>591</ele>
        <time>2024-12-08T00:58:12.619Z</time>
      </trkpt>
      <trkpt lat="45.86872" lon="3.65944">
        <ele>592</ele>
        <time>2024-12-08T00:58:13.619Z</time>
      </trkpt>
      <trkpt lat="45.8687" lon="3.65943">
        <ele>592</ele>
        <time>2024-12-08T00:58:14.620Z</time>
      </trkpt>
      <trkpt lat="45.86869" lon="3.65941">
        <ele>592</ele>
        <time>2024-12-08T00:58:15.620Z</time>
      </trkpt>
      <trkpt lat="45.86868" lon="3.65941">
        <ele>592</ele>
        <time>2024-12-08T00:58:16.619Z</time>
      </trkpt>
      <trkpt lat="45.86867" lon="3.6594">
        <ele>592</ele>
        <time>2024-12-08T00:58:17.620Z</time>
      </trkpt>
      <trkpt lat="45.86865" lon="3.6594">
        <ele>593</ele>
        <time>2024-12-08T00:58:18.620Z</time>
      </trkpt>
      <trkpt lat="45.86864" lon="3.6594">
        <ele>593</ele>
        <time>2024-12-08T00:58:19.619Z</time>
      </trkpt>
      <trkpt lat="45.86862" lon="3.65939">
        <ele>593</ele>
        <time>2024-12-08T00:58:20.620Z</time>
      </trkpt>
      <trkpt lat="45.86861" lon="3.65938">
        <ele>594</ele>
        <time>2024-12-08T00:58:21.619Z</time>
      </trkpt>
      <trkpt lat="45.8686" lon="3.65936">
        <ele>594</ele>
        <time>2024-12-08T00:58:22.619Z</time>
      </trkpt>
      <trkpt lat="45.86859" lon="3.65936">
        <ele>594</ele>
        <time>2024-12-08T00:58:23.620Z</time>
      </trkpt>
      <trkpt lat="45.86858" lon="3.65935">
        <ele>595</ele>
        <time>2024-12-08T00:58:24.619Z</time>
      </trkpt>
      <trkpt lat="45.86857" lon="3.65935">
        <ele>595</ele>
        <time>2024-12-08T00:58:25.620Z</time>
      </trkpt>
      <trkpt lat="45.86855" lon="3.65934">
        <ele>595</ele>
        <time>2024-12-08T00:58:26.620Z</time>
      </trkpt>
      <trkpt lat="45.86853" lon="3.65933">
        <ele>595</ele>
        <time>2024-12-08T00:58:27.620Z</time>
      </trkpt>
      <trkpt lat="45.86852" lon="3.65933">
        <ele>596</ele>
        <time>2024-12-08T00:58:28.619Z</time>
      </trkpt>
      <trkpt lat="45.86851" lon="3.65932">
        <ele>596</ele>
        <time>2024-12-08T00:58:29.619Z</time>
      </trkpt>
      <trkpt lat="45.86849" lon="3.65931">
        <ele>596</ele>
        <time>2024-12-08T00:58:30.620Z</time>
      </trkpt>
      <trkpt lat="45.86847" lon="3.6593">
        <ele>597</ele>
        <time>2024-12-08T00:58:31.619Z</time>
      </trkpt>
      <trkpt lat="45.86846" lon="3.65928">
        <ele>597</ele>
        <time>2024-12-08T00:58:32.619Z</time>
      </trkpt>
      <trkpt lat="45.86844" lon="3.65928">
        <ele>597</ele>
        <time>2024-12-08T00:58:33.620Z</time>
      </trkpt>
      <trkpt lat="45.86843" lon="3.65927">
        <ele>597</ele>
        <time>2024-12-08T00:58:34.619Z</time>
      </trkpt>
      <trkpt lat="45.86842" lon="3.65926">
        <ele>597</ele>
        <time>2024-12-08T00:58:35.620Z</time>
      </trkpt>
      <trkpt lat="45.86841" lon="3.65925">
        <ele>596</ele>
        <time>2024-12-08T00:58:36.619Z</time>
      </trkpt>
      <trkpt lat="45.8684" lon="3.65925">
        <ele>596</ele>
        <time>2024-12-08T00:58:37.620Z</time>
      </trkpt>
      <trkpt lat="45.86839" lon="3.65924">
        <ele>596</ele>
        <time>2024-12-08T00:58:38.619Z</time>
      </trkpt>
      <trkpt lat="45.86838" lon="3.65923">
        <ele>596</ele>
        <time>2024-12-08T00:58:39.620Z</time>
      </trkpt>
      <trkpt lat="45.86836" lon="3.65922">
        <ele>596</ele>
        <time>2024-12-08T00:58:40.620Z</time>
      </trkpt>
      <trkpt lat="45.86835" lon="3.65921">
        <ele>596</ele>
        <time>2024-12-08T00:58:41.619Z</time>
      </trkpt>
      <trkpt lat="45.86834" lon="3.6592">
        <ele>596</ele>
        <time>2024-12-08T00:58:42.619Z</time>
      </trkpt>
      <trkpt lat="45.86832" lon="3.6592">
        <ele>596</ele>
        <time>2024-12-08T00:58:43.619Z</time>
      </trkpt>
      <trkpt lat="45.86831" lon="3.65919">
        <ele>596</ele>
        <time>2024-12-08T00:58:44.620Z</time>
      </trkpt>
      <trkpt lat="45.8683" lon="3.65918">
        <ele>597</ele>
        <time>2024-12-08T00:58:45.619Z</time>
      </trkpt>
      <trkpt lat="45.86829" lon="3.65917">
        <ele>597</ele>
        <time>2024-12-08T00:58:46.620Z</time>
      </trkpt>
      <trkpt lat="45.86828" lon="3.65916">
        <ele>597</ele>
        <time>2024-12-08T00:58:47.619Z</time>
      </trkpt>
      <trkpt lat="45.86826" lon="3.65915">
        <ele>597</ele>
        <time>2024-12-08T00:58:48.620Z</time>
      </trkpt>
      <trkpt lat="45.86825" lon="3.65914">
        <ele>597</ele>
        <time>2024-12-08T00:58:49.619Z</time>
      </trkpt>
      <trkpt lat="45.86824" lon="3.65913">
        <ele>598</ele>
        <time>2024-12-08T00:58:50.620Z</time>
      </trkpt>
      <trkpt lat="45.86822" lon="3.65913">
        <ele>598</ele>
        <time>2024-12-08T00:58:51.619Z</time>
      </trkpt>
      <trkpt lat="45.86821" lon="3.65912">
        <ele>598</ele>
        <time>2024-12-08T00:58:52.620Z</time>
      </trkpt>
      <trkpt lat="45.8682" lon="3.65911">
        <ele>598</ele>
        <time>2024-12-08T00:58:53.619Z</time>
      </trkpt>
      <trkpt lat="45.86818" lon="3.65911">
        <ele>598</ele>
        <time>2024-12-08T00:58:54.619Z</time>
      </trkpt>
      <trkpt lat="45.86817" lon="3.6591">
        <ele>599</ele>
        <time>2024-12-08T00:58:55.620Z</time>
      </trkpt>
      <trkpt lat="45.86816" lon="3.6591">
        <ele>599</ele>
        <time>2024-12-08T00:58:56.620Z</time>
      </trkpt>
      <trkpt lat="45.86814" lon="3.65909">
        <ele>599</ele>
        <time>2024-12-08T00:58:57.619Z</time>
      </trkpt>
      <trkpt lat="45.86813" lon="3.65909">
        <ele>599</ele>
        <time>2024-12-08T00:58:58.619Z</time>
      </trkpt>
      <trkpt lat="45.86812" lon="3.65908">
        <ele>600</ele>
        <time>2024-12-08T00:58:59.620Z</time>
      </trkpt>
      <trkpt lat="45.86811" lon="3.65906">
        <ele>600</ele>
        <time>2024-12-08T00:59:00.619Z</time>
      </trkpt>
      <trkpt lat="45.86809" lon="3.65905">
        <ele>600</ele>
        <time>2024-12-08T00:59:01.620Z</time>
      </trkpt>
      <trkpt lat="45.86808" lon="3.65904">
        <ele>600</ele>
        <time>2024-12-08T00:59:02.620Z</time>
      </trkpt>
      <trkpt lat="45.86806" lon="3.65904">
        <ele>601</ele>
        <time>2024-12-08T00:59:03.620Z</time>
      </trkpt>
      <trkpt lat="45.86804" lon="3.65903">
        <ele>601</ele>
        <time>2024-12-08T00:59:04.619Z</time>
      </trkpt>
      <trkpt lat="45.86802" lon="3.65902">
        <ele>602</ele>
        <time>2024-12-08T00:59:05.620Z</time>
      </trkpt>
      <trkpt lat="45.86801" lon="3.65901">
        <ele>602</ele>
        <time>2024-12-08T00:59:06.619Z</time>
      </trkpt>
      <trkpt lat="45.868" lon="3.659">
        <ele>603</ele>
        <time>2024-12-08T00:59:07.620Z</time>
      </trkpt>
      <trkpt lat="45.86798" lon="3.65898">
        <ele>603</ele>
        <time>2024-12-08T00:59:08.619Z</time>
      </trkpt>
      <trkpt lat="45.86796" lon="3.65896">
        <ele>604</ele>
        <time>2024-12-08T00:59:09.620Z</time>
      </trkpt>
      <trkpt lat="45.86794" lon="3.65894">
        <ele>604</ele>
        <time>2024-12-08T00:59:10.620Z</time>
      </trkpt>
      <trkpt lat="45.86792" lon="3.65894">
        <ele>605</ele>
        <time>2024-12-08T00:59:11.620Z</time>
      </trkpt>
      <trkpt lat="45.86791" lon="3.65893">
        <ele>605</ele>
        <time>2024-12-08T00:59:12.619Z</time>
      </trkpt>
      <trkpt lat="45.86789" lon="3.65892">
        <ele>606</ele>
        <time>2024-12-08T00:59:13.620Z</time>
      </trkpt>
      <trkpt lat="45.86788" lon="3.65892">
        <ele>606</ele>
        <time>2024-12-08T00:59:14.619Z</time>
      </trkpt>
      <trkpt lat="45.86786" lon="3.65891">
        <ele>607</ele>
        <time>2024-12-08T00:59:15.619Z</time>
      </trkpt>
      <trkpt lat="45.86785" lon="3.65891">
        <ele>607</ele>
        <time>2024-12-08T00:59:16.619Z</time>
      </trkpt>
      <trkpt lat="45.86783" lon="3.65893">
        <ele>607</ele>
        <time>2024-12-08T00:59:17.619Z</time>
      </trkpt>
      <trkpt lat="45.86781" lon="3.65892">
        <ele>607</ele>
        <time>2024-12-08T00:59:18.620Z</time>
      </trkpt>
      <trkpt lat="45.86779" lon="3.65891">
        <ele>607</ele>
        <time>2024-12-08T00:59:19.619Z</time>
      </trkpt>
      <trkpt lat="45.86778" lon="3.65891">
        <ele>608</ele>
        <time>2024-12-08T00:59:20.620Z</time>
      </trkpt>
      <trkpt lat="45.86777" lon="3.6589">
        <ele>608</ele>
        <time>2024-12-08T00:59:21.620Z</time>
      </trkpt>
      <trkpt lat="45.86775" lon="3.65892">
        <ele>608</ele>
        <time>2024-12-08T00:59:22.619Z</time>
      </trkpt>
      <trkpt lat="45.86773" lon="3.65892">
        <ele>609</ele>
        <time>2024-12-08T00:59:23.620Z</time>
      </trkpt>
      <trkpt lat="45.86771" lon="3.65891">
        <ele>609</ele>
        <time>2024-12-08T00:59:24.619Z</time>
      </trkpt>
      <trkpt lat="45.86769" lon="3.65891">
        <ele>609</ele>
        <time>2024-12-08T00:59:25.620Z</time>
      </trkpt>
      <trkpt lat="45.86768" lon="3.6589">
        <ele>609</ele>
        <time>2024-12-08T00:59:26.620Z</time>
      </trkpt>
      <trkpt lat="45.86767" lon="3.6589">
        <ele>609</ele>
        <time>2024-12-08T00:59:27.619Z</time>
      </trkpt>
      <trkpt lat="45.86766" lon="3.6589">
        <ele>609</ele>
        <time>2024-12-08T00:59:28.619Z</time>
      </trkpt>
      <trkpt lat="45.86765" lon="3.65889">
        <ele>609</ele>
        <time>2024-12-08T00:59:29.620Z</time>
      </trkpt>
      <trkpt lat="45.86763" lon="3.65889">
        <ele>609</ele>
        <time>2024-12-08T00:59:30.620Z</time>
      </trkpt>
      <trkpt lat="45.86762" lon="3.65889">
        <ele>609</ele>
        <time>2024-12-08T00:59:31.619Z</time>
      </trkpt>
      <trkpt lat="45.86761" lon="3.65888">
        <ele>609</ele>
        <time>2024-12-08T00:59:32.619Z</time>
      </trkpt>
      <trkpt lat="45.86759" lon="3.65888">
        <ele>609</ele>
        <time>2024-12-08T00:59:33.619Z</time>
      </trkpt>
      <trkpt lat="45.86758" lon="3.65888">
        <ele>610</ele>
        <time>2024-12-08T00:59:34.620Z</time>
      </trkpt>
      <trkpt lat="45.86756" lon="3.65888">
        <ele>610</ele>
        <time>2024-12-08T00:59:35.620Z</time>
      </trkpt>
      <trkpt lat="45.86755" lon="3.65889">
        <ele>610</ele>
        <time>2024-12-08T00:59:36.620Z</time>
      </trkpt>
      <trkpt lat="45.86753" lon="3.65889">
        <ele>610</ele>
        <time>2024-12-08T00:59:37.619Z</time>
      </trkpt>
      <trkpt lat="45.86752" lon="3.65889">
        <ele>611</ele>
        <time>2024-12-08T00:59:38.620Z</time>
      </trkpt>
      <trkpt lat="45.86751" lon="3.65889">
        <ele>611</ele>
        <time>2024-12-08T00:59:39.620Z</time>
      </trkpt>
      <trkpt lat="45.86749" lon="3.65888">
        <ele>611</ele>
        <time>2024-12-08T00:59:40.619Z</time>
      </trkpt>
      <trkpt lat="45.86748" lon="3.65888">
        <ele>612</ele>
        <time>2024-12-08T00:59:41.619Z</time>
      </trkpt>
      <trkpt lat="45.86746" lon="3.65887">
        <ele>612</ele>
        <time>2024-12-08T00:59:42.619Z</time>
      </trkpt>
      <trkpt lat="45.86745" lon="3.65887">
        <ele>612</ele>
        <time>2024-12-08T00:59:43.620Z</time>
      </trkpt>
      <trkpt lat="45.86743" lon="3.65886">
        <ele>612</ele>
        <time>2024-12-08T00:59:44.619Z</time>
      </trkpt>
      <trkpt lat="45.86742" lon="3.65885">
        <ele>612</ele>
        <time>2024-12-08T00:59:45.620Z</time>
      </trkpt>
      <trkpt lat="45.86741" lon="3.65884">
        <ele>612</ele>
        <time>2024-12-08T00:59:46.619Z</time>
      </trkpt>
      <trkpt lat="45.8674" lon="3.65883">
        <ele>613</ele>
        <time>2024-12-08T00:59:47.620Z</time>
      </trkpt>
      <trkpt lat="45.86739" lon="3.65882">
        <ele>613</ele>
        <time>2024-12-08T00:59:48.619Z</time>
      </trkpt>
      <trkpt lat="45.86738" lon="3.65881">
        <ele>613</ele>
        <time>2024-12-08T00:59:49.619Z</time>
      </trkpt>
      <trkpt lat="45.86737" lon="3.65879">
        <ele>613</ele>
        <time>2024-12-08T00:59:50.620Z</time>
      </trkpt>
      <trkpt lat="45.86734" lon="3.65877">
        <ele>613</ele>
        <time>2024-12-08T00:59:51.619Z</time>
      </trkpt>
      <trkpt lat="45.86732" lon="3.65876">
        <ele>612</ele>
        <time>2024-12-08T00:59:52.619Z</time>
      </trkpt>
      <trkpt lat="45.8673" lon="3.65874">
        <ele>612</ele>
        <time>2024-12-08T00:59:53.620Z</time>
      </trkpt>
      <trkpt lat="45.86729" lon="3.65872">
        <ele>612</ele>
        <time>2024-12-08T00:59:54.620Z</time>
      </trkpt>
      <trkpt lat="45.86728" lon="3.65869">
        <ele>612</ele>
        <time>2024-12-08T00:59:55.619Z</time>
      </trkpt>
      <trkpt lat="45.86728" lon="3.65867">
        <ele>612</ele>
        <time>2024-12-08T00:59:56.620Z</time>
      </trkpt>
      <trkpt lat="45.86727" lon="3.65866">
        <ele>612</ele>
        <time>2024-12-08T00:59:57.619Z</time>
      </trkpt>
      <trkpt lat="45.86726" lon="3.65864">
        <ele>612</ele>
        <time>2024-12-08T00:59:58.620Z</time>
      </trkpt>
      <trkpt lat="45.86725" lon="3.65862">
        <ele>613</ele>
        <time>2024-12-08T00:59:59.620Z</time>
      </trkpt>
      <trkpt lat="45.86724" lon="3.65861">
        <ele>613</ele>
        <time>2024-12-08T01:00:00.619Z</time>
      </trkpt>
      <trkpt lat="45.86723" lon="3.65859">
        <ele>613</ele>
        <time>2024-12-08T01:00:01.619Z</time>
      </trkpt>
      <trkpt lat="45.86722" lon="3.65857">
        <ele>613</ele>
        <time>2024-12-08T01:00:02.619Z</time>
      </trkpt>
      <trkpt lat="45.86722" lon="3.65854">
        <ele>614</ele>
        <time>2024-12-08T01:00:03.620Z</time>
      </trkpt>
      <trkpt lat="45.86721" lon="3.65852">
        <ele>614</ele>
        <time>2024-12-08T01:00:04.619Z</time>
      </trkpt>
      <trkpt lat="45.8672" lon="3.65847">
        <ele>614</ele>
        <time>2024-12-08T01:00:05.620Z</time>
      </trkpt>
      <trkpt lat="45.86721" lon="3.65843">
        <ele>614</ele>
        <time>2024-12-08T01:00:06.619Z</time>
      </trkpt>
      <trkpt lat="45.86722" lon="3.6584">
        <ele>614</ele>
        <time>2024-12-08T01:00:07.619Z</time>
      </trkpt>
      <trkpt lat="45.86721" lon="3.65838">
        <ele>614</ele>
        <time>2024-12-08T01:00:08.619Z</time>
      </trkpt>
      <trkpt lat="45.86722" lon="3.65837">
        <ele>614</ele>
        <time>2024-12-08T01:00:09.619Z</time>
      </trkpt>
      <trkpt lat="45.86722" lon="3.65836">
        <ele>614</ele>
        <time>2024-12-08T01:00:10.619Z</time>
      </trkpt>
      <trkpt lat="45.86723" lon="3.65834">
        <ele>614</ele>
        <time>2024-12-08T01:00:11.620Z</time>
      </trkpt>
      <trkpt lat="45.86724" lon="3.65833">
        <ele>614</ele>
        <time>2024-12-08T01:00:12.619Z</time>
      </trkpt>
      <trkpt lat="45.86724" lon="3.65831">
        <ele>614</ele>
        <time>2024-12-08T01:00:13.620Z</time>
      </trkpt>
      <trkpt lat="45.86725" lon="3.65829">
        <ele>614</ele>
        <time>2024-12-08T01:00:14.619Z</time>
      </trkpt>
      <trkpt lat="45.86725" lon="3.65827">
        <ele>615</ele>
        <time>2024-12-08T01:00:15.620Z</time>
      </trkpt>
      <trkpt lat="45.86726" lon="3.65826">
        <ele>615</ele>
        <time>2024-12-08T01:00:16.620Z</time>
      </trkpt>
      <trkpt lat="45.86726" lon="3.65825">
        <ele>615</ele>
        <time>2024-12-08T01:00:17.619Z</time>
      </trkpt>
      <trkpt lat="45.86727" lon="3.65824">
        <ele>615</ele>
        <time>2024-12-08T01:00:18.619Z</time>
      </trkpt>
      <trkpt lat="45.86728" lon="3.65822">
        <ele>616</ele>
        <time>2024-12-08T01:00:19.619Z</time>
      </trkpt>
      <trkpt lat="45.86728" lon="3.6582">
        <ele>616</ele>
        <time>2024-12-08T01:00:20.620Z</time>
      </trkpt>
      <trkpt lat="45.86729" lon="3.65818">
        <ele>616</ele>
        <time>2024-12-08T01:00:21.619Z</time>
      </trkpt>
      <trkpt lat="45.86729" lon="3.65817">
        <ele>616</ele>
        <time>2024-12-08T01:00:22.620Z</time>
      </trkpt>
      <trkpt lat="45.86731" lon="3.65814">
        <ele>616</ele>
        <time>2024-12-08T01:00:23.619Z</time>
      </trkpt>
      <trkpt lat="45.86732" lon="3.65812">
        <ele>616</ele>
        <time>2024-12-08T01:00:24.620Z</time>
      </trkpt>
      <trkpt lat="45.86732" lon="3.6581">
        <ele>616</ele>
        <time>2024-12-08T01:00:25.619Z</time>
      </trkpt>
      <trkpt lat="45.86733" lon="3.65808">
        <ele>616</ele>
        <time>2024-12-08T01:00:26.619Z</time>
      </trkpt>
      <trkpt lat="45.86733" lon="3.65806">
        <ele>616</ele>
        <time>2024-12-08T01:00:27.619Z</time>
      </trkpt>
      <trkpt lat="45.86734" lon="3.65803">
        <ele>615</ele>
        <time>2024-12-08T01:00:28.620Z</time>
      </trkpt>
      <trkpt lat="45.86735" lon="3.65801">
        <ele>615</ele>
        <time>2024-12-08T01:00:29.619Z</time>
      </trkpt>
      <trkpt lat="45.86735" lon="3.65799">
        <ele>615</ele>
        <time>2024-12-08T01:00:30.620Z</time>
      </trkpt>
      <trkpt lat="45.86736" lon="3.65797">
        <ele>615</ele>
        <time>2024-12-08T01:00:31.619Z</time>
      </trkpt>
      <trkpt lat="45.86736" lon="3.65794">
        <ele>615</ele>
        <time>2024-12-08T01:00:32.619Z</time>
      </trkpt>
      <trkpt lat="45.86737" lon="3.65792">
        <ele>614</ele>
        <time>2024-12-08T01:00:33.620Z</time>
      </trkpt>
      <trkpt lat="45.86737" lon="3.6579">
        <ele>614</ele>
        <time>2024-12-08T01:00:34.619Z</time>
      </trkpt>
      <trkpt lat="45.86738" lon="3.65787">
        <ele>614</ele>
        <time>2024-12-08T01:00:35.619Z</time>
      </trkpt>
      <trkpt lat="45.86738" lon="3.65784">
        <ele>614</ele>
        <time>2024-12-08T01:00:36.619Z</time>
      </trkpt>
      <trkpt lat="45.86739" lon="3.65782">
        <ele>614</ele>
        <time>2024-12-08T01:00:37.619Z</time>
      </trkpt>
      <trkpt lat="45.86739" lon="3.65779">
        <ele>613</ele>
        <time>2024-12-08T01:00:38.619Z</time>
      </trkpt>
      <trkpt lat="45.86739" lon="3.65777">
        <ele>613</ele>
        <time>2024-12-08T01:00:39.620Z</time>
      </trkpt>
      <trkpt lat="45.8674" lon="3.65775">
        <ele>613</ele>
        <time>2024-12-08T01:00:40.619Z</time>
      </trkpt>
      <trkpt lat="45.8674" lon="3.65772">
        <ele>613</ele>
        <time>2024-12-08T01:00:41.619Z</time>
      </trkpt>
      <trkpt lat="45.8674" lon="3.6577">
        <ele>613</ele>
        <time>2024-12-08T01:00:42.619Z</time>
      </trkpt>
      <trkpt lat="45.86739" lon="3.65767">
        <ele>613</ele>
        <time>2024-12-08T01:00:43.620Z</time>
      </trkpt>
      <trkpt lat="45.86739" lon="3.65765">
        <ele>613</ele>
        <time>2024-12-08T01:00:44.620Z</time>
      </trkpt>
      <trkpt lat="45.86739" lon="3.65763">
        <ele>612</ele>
        <time>2024-12-08T01:00:45.620Z</time>
      </trkpt>
      <trkpt lat="45.86739" lon="3.6576">
        <ele>612</ele>
        <time>2024-12-08T01:00:46.619Z</time>
      </trkpt>
      <trkpt lat="45.86739" lon="3.65758">
        <ele>612</ele>
        <time>2024-12-08T01:00:47.619Z</time>
      </trkpt>
      <trkpt lat="45.86738" lon="3.65756">
        <ele>612</ele>
        <time>2024-12-08T01:00:48.620Z</time>
      </trkpt>
      <trkpt lat="45.86738" lon="3.65754">
        <ele>612</ele>
        <time>2024-12-08T01:00:49.619Z</time>
      </trkpt>
      <trkpt lat="45.86738" lon="3.65752">
        <ele>612</ele>
        <time>2024-12-08T01:00:50.619Z</time>
      </trkpt>
      <trkpt lat="45.86738" lon="3.6575">
        <ele>613</ele>
        <time>2024-12-08T01:00:51.619Z</time>
      </trkpt>
      <trkpt lat="45.86737" lon="3.65747">
        <ele>613</ele>
        <time>2024-12-08T01:00:52.620Z</time>
      </trkpt>
      <trkpt lat="45.86737" lon="3.65745">
        <ele>613</ele>
        <time>2024-12-08T01:00:53.619Z</time>
      </trkpt>
      <trkpt lat="45.86736" lon="3.65743">
        <ele>613</ele>
        <time>2024-12-08T01:00:54.619Z</time>
      </trkpt>
      <trkpt lat="45.86735" lon="3.65741">
        <ele>613</ele>
        <time>2024-12-08T01:00:55.620Z</time>
      </trkpt>
      <trkpt lat="45.86735" lon="3.6574">
        <ele>613</ele>
        <time>2024-12-08T01:00:56.620Z</time>
      </trkpt>
      <trkpt lat="45.86734" lon="3.65738">
        <ele>613</ele>
        <time>2024-12-08T01:00:57.619Z</time>
      </trkpt>
      <trkpt lat="45.86733" lon="3.65737">
        <ele>613</ele>
        <time>2024-12-08T01:00:58.620Z</time>
      </trkpt>
      <trkpt lat="45.86733" lon="3.65735">
        <ele>613</ele>
        <time>2024-12-08T01:00:59.620Z</time>
      </trkpt>
      <trkpt lat="45.86731" lon="3.65734">
        <ele>613</ele>
        <time>2024-12-08T01:01:00.620Z</time>
      </trkpt>
      <trkpt lat="45.8673" lon="3.65732">
        <ele>614</ele>
        <time>2024-12-08T01:01:01.619Z</time>
      </trkpt>
      <trkpt lat="45.86729" lon="3.65731">
        <ele>614</ele>
        <time>2024-12-08T01:01:02.619Z</time>
      </trkpt>
      <trkpt lat="45.86728" lon="3.6573">
        <ele>614</ele>
        <time>2024-12-08T01:01:03.619Z</time>
      </trkpt>
      <trkpt lat="45.86726" lon="3.65729">
        <ele>614</ele>
        <time>2024-12-08T01:01:04.619Z</time>
      </trkpt>
      <trkpt lat="45.86725" lon="3.65728">
        <ele>614</ele>
        <time>2024-12-08T01:01:05.620Z</time>
      </trkpt>
      <trkpt lat="45.86724" lon="3.65727">
        <ele>614</ele>
        <time>2024-12-08T01:01:06.620Z</time>
      </trkpt>
      <trkpt lat="45.86722" lon="3.65726">
        <ele>614</ele>
        <time>2024-12-08T01:01:07.620Z</time>
      </trkpt>
      <trkpt lat="45.8672" lon="3.65726">
        <ele>614</ele>
        <time>2024-12-08T01:01:08.620Z</time>
      </trkpt>
      <trkpt lat="45.86719" lon="3.65725">
        <ele>614</ele>
        <time>2024-12-08T01:01:09.620Z</time>
      </trkpt>
      <trkpt lat="45.86717" lon="3.65725">
        <ele>614</ele>
        <time>2024-12-08T01:01:10.619Z</time>
      </trkpt>
      <trkpt lat="45.86716" lon="3.65724">
        <ele>615</ele>
        <time>2024-12-08T01:01:11.619Z</time>
      </trkpt>
      <trkpt lat="45.86714" lon="3.65724">
        <ele>615</ele>
        <time>2024-12-08T01:01:12.620Z</time>
      </trkpt>
      <trkpt lat="45.86712" lon="3.65724">
        <ele>616</ele>
        <time>2024-12-08T01:01:13.619Z</time>
      </trkpt>
      <trkpt lat="45.8671" lon="3.65725">
        <ele>616</ele>
        <time>2024-12-08T01:01:14.619Z</time>
      </trkpt>
      <trkpt lat="45.86709" lon="3.65724">
        <ele>616</ele>
        <time>2024-12-08T01:01:15.619Z</time>
      </trkpt>
      <trkpt lat="45.86707" lon="3.65725">
        <ele>617</ele>
        <time>2024-12-08T01:01:16.619Z</time>
      </trkpt>
      <trkpt lat="45.86705" lon="3.65725">
        <ele>617</ele>
        <time>2024-12-08T01:01:17.620Z</time>
      </trkpt>
      <trkpt lat="45.86703" lon="3.65726">
        <ele>618</ele>
        <time>2024-12-08T01:01:18.620Z</time>
      </trkpt>
      <trkpt lat="45.86702" lon="3.65726">
        <ele>618</ele>
        <time>2024-12-08T01:01:19.619Z</time>
      </trkpt>
      <trkpt lat="45.86701" lon="3.65727">
        <ele>618</ele>
        <time>2024-12-08T01:01:20.620Z</time>
      </trkpt>
      <trkpt lat="45.86699" lon="3.65728">
        <ele>619</ele>
        <time>2024-12-08T01:01:21.620Z</time>
      </trkpt>
      <trkpt lat="45.86697" lon="3.65729">
        <ele>619</ele>
        <time>2024-12-08T01:01:22.620Z</time>
      </trkpt>
      <trkpt lat="45.86696" lon="3.6573">
        <ele>619</ele>
        <time>2024-12-08T01:01:23.620Z</time>
      </trkpt>
      <trkpt lat="45.86695" lon="3.6573">
        <ele>619</ele>
        <time>2024-12-08T01:01:24.619Z</time>
      </trkpt>
      <trkpt lat="45.86694" lon="3.65731">
        <ele>620</ele>
        <time>2024-12-08T01:01:25.619Z</time>
      </trkpt>
      <trkpt lat="45.86693" lon="3.65732">
        <ele>620</ele>
        <time>2024-12-08T01:01:26.619Z</time>
      </trkpt>
      <trkpt lat="45.86691" lon="3.65733">
        <ele>620</ele>
        <time>2024-12-08T01:01:27.620Z</time>
      </trkpt>
      <trkpt lat="45.8669" lon="3.65734">
        <ele>620</ele>
        <time>2024-12-08T01:01:28.620Z</time>
      </trkpt>
      <trkpt lat="45.86688" lon="3.65735">
        <ele>620</ele>
        <time>2024-12-08T01:01:29.620Z</time>
      </trkpt>
      <trkpt lat="45.86687" lon="3.65736">
        <ele>621</ele>
        <time>2024-12-08T01:01:30.619Z</time>
      </trkpt>
      <trkpt lat="45.86685" lon="3.65737">
        <ele>621</ele>
        <time>2024-12-08T01:01:31.619Z</time>
      </trkpt>
      <trkpt lat="45.86684" lon="3.65738">
        <ele>622</ele>
        <time>2024-12-08T01:01:32.619Z</time>
      </trkpt>
      <trkpt lat="45.86682" lon="3.65739">
        <ele>622</ele>
        <time>2024-12-08T01:01:33.620Z</time>
      </trkpt>
      <trkpt lat="45.86681" lon="3.6574">
        <ele>623</ele>
        <time>2024-12-08T01:01:34.619Z</time>
      </trkpt>
      <trkpt lat="45.8668" lon="3.65741">
        <ele>623</ele>
        <time>2024-12-08T01:01:35.620Z</time>
      </trkpt>
      <trkpt lat="45.86679" lon="3.65742">
        <ele>623</ele>
        <time>2024-12-08T01:01:36.620Z</time>
      </trkpt>
      <trkpt lat="45.86677" lon="3.65744">
        <ele>623</ele>
        <time>2024-12-08T01:01:37.619Z</time>
      </trkpt>
      <trkpt lat="45.86676" lon="3.65745">
        <ele>623</ele>
        <time>2024-12-08T01:01:38.620Z</time>
      </trkpt>
      <trkpt lat="45.86675" lon="3.65746">
        <ele>623</ele>
        <time>2024-12-08T01:01:39.619Z</time>
      </trkpt>
      <trkpt lat="45.86674" lon="3.65747">
        <ele>623</ele>
        <time>2024-12-08T01:01:40.619Z</time>
      </trkpt>
      <trkpt lat="45.86672" lon="3.65749">
        <ele>623</ele>
        <time>2024-12-08T01:01:41.619Z</time>
      </trkpt>
      <trkpt lat="45.86671" lon="3.6575">
        <ele>623</ele>
        <time>2024-12-08T01:01:42.620Z</time>
      </trkpt>
      <trkpt lat="45.8667" lon="3.65752">
        <ele>623</ele>
        <time>2024-12-08T01:01:43.619Z</time>
      </trkpt>
      <trkpt lat="45.86669" lon="3.65753">
        <ele>623</ele>
        <time>2024-12-08T01:01:44.620Z</time>
      </trkpt>
      <trkpt lat="45.86668" lon="3.65755">
        <ele>624</ele>
        <time>2024-12-08T01:01:45.619Z</time>
      </trkpt>
      <trkpt lat="45.86667" lon="3.65757">
        <ele>624</ele>
        <time>2024-12-08T01:01:46.620Z</time>
      </trkpt>
      <trkpt lat="45.86666" lon="3.65759">
        <ele>624</ele>
        <time>2024-12-08T01:01:47.619Z</time>
      </trkpt>
      <trkpt lat="45.86665" lon="3.65761">
        <ele>625</ele>
        <time>2024-12-08T01:01:48.619Z</time>
      </trkpt>
      <trkpt lat="45.86664" lon="3.65763">
        <ele>625</ele>
        <time>2024-12-08T01:01:49.619Z</time>
      </trkpt>
      <trkpt lat="45.86663" lon="3.65765">
        <ele>625</ele>
        <time>2024-12-08T01:01:50.620Z</time>
      </trkpt>
      <trkpt lat="45.86662" lon="3.65766">
        <ele>626</ele>
        <time>2024-12-08T01:01:51.620Z</time>
      </trkpt>
      <trkpt lat="45.86661" lon="3.65767">
        <ele>626</ele>
        <time>2024-12-08T01:01:52.620Z</time>
      </trkpt>
      <trkpt lat="45.8666" lon="3.65769">
        <ele>626</ele>
        <time>2024-12-08T01:01:53.620Z</time>
      </trkpt>
      <trkpt lat="45.86659" lon="3.65771">
        <ele>626</ele>
        <time>2024-12-08T01:01:54.620Z</time>
      </trkpt>
      <trkpt lat="45.86659" lon="3.65772">
        <ele>626</ele>
        <time>2024-12-08T01:01:55.619Z</time>
      </trkpt>
      <trkpt lat="45.86658" lon="3.65775">
        <ele>626</ele>
        <time>2024-12-08T01:01:56.620Z</time>
      </trkpt>
      <trkpt lat="45.86657" lon="3.65777">
        <ele>627</ele>
        <time>2024-12-08T01:01:57.619Z</time>
      </trkpt>
      <trkpt lat="45.86656" lon="3.65779">
        <ele>627</ele>
        <time>2024-12-08T01:01:58.619Z</time>
      </trkpt>
      <trkpt lat="45.86655" lon="3.65781">
        <ele>627</ele>
        <time>2024-12-08T01:01:59.620Z</time>
      </trkpt>
      <trkpt lat="45.86654" lon="3.65783">
        <ele>628</ele>
        <time>2024-12-08T01:02:00.620Z</time>
      </trkpt>
      <trkpt lat="45.86652" lon="3.65786">
        <ele>628</ele>
        <time>2024-12-08T01:02:01.619Z</time>
      </trkpt>
      <trkpt lat="45.86651" lon="3.65788">
        <ele>628</ele>
        <time>2024-12-08T01:02:02.620Z</time>
      </trkpt>
      <trkpt lat="45.8665" lon="3.6579">
        <ele>628</ele>
        <time>2024-12-08T01:02:03.620Z</time>
      </trkpt>
      <trkpt lat="45.86649" lon="3.65791">
        <ele>628</ele>
        <time>2024-12-08T01:02:04.619Z</time>
      </trkpt>
      <trkpt lat="45.86648" lon="3.65793">
        <ele>627</ele>
        <time>2024-12-08T01:02:05.620Z</time>
      </trkpt>
      <trkpt lat="45.86646" lon="3.65796">
        <ele>627</ele>
        <time>2024-12-08T01:02:06.619Z</time>
      </trkpt>
      <trkpt lat="45.86645" lon="3.65798">
        <ele>626</ele>
        <time>2024-12-08T01:02:07.620Z</time>
      </trkpt>
      <trkpt lat="45.86644" lon="3.658">
        <ele>625</ele>
        <time>2024-12-08T01:02:08.620Z</time>
      </trkpt>
      <trkpt lat="45.86643" lon="3.65803">
        <ele>625</ele>
        <time>2024-12-08T01:02:09.619Z</time>
      </trkpt>
      <trkpt lat="45.86641" lon="3.65807">
        <ele>625</ele>
        <time>2024-12-08T01:02:10.620Z</time>
      </trkpt>
      <trkpt lat="45.86639" lon="3.65812">
        <ele>625</ele>
        <time>2024-12-08T01:02:11.619Z</time>
      </trkpt>
      <trkpt lat="45.86638" lon="3.65814">
        <ele>625</ele>
        <time>2024-12-08T01:02:12.619Z</time>
      </trkpt>
      <trkpt lat="45.86636" lon="3.65817">
        <ele>625</ele>
        <time>2024-12-08T01:02:13.619Z</time>
      </trkpt>
      <trkpt lat="45.86636" lon="3.65818">
        <ele>625</ele>
        <time>2024-12-08T01:02:14.620Z</time>
      </trkpt>
      <trkpt lat="45.86635" lon="3.6582">
        <ele>625</ele>
        <time>2024-12-08T01:02:15.619Z</time>
      </trkpt>
      <trkpt lat="45.86633" lon="3.65823">
        <ele>626</ele>
        <time>2024-12-08T01:02:16.620Z</time>
      </trkpt>
      <trkpt lat="45.86633" lon="3.65825">
        <ele>626</ele>
        <time>2024-12-08T01:02:17.619Z</time>
      </trkpt>
      <trkpt lat="45.86631" lon="3.65827">
        <ele>626</ele>
        <time>2024-12-08T01:02:18.619Z</time>
      </trkpt>
      <trkpt lat="45.8663" lon="3.65828">
        <ele>626</ele>
        <time>2024-12-08T01:02:19.619Z</time>
      </trkpt>
      <trkpt lat="45.86629" lon="3.6583">
        <ele>626</ele>
        <time>2024-12-08T01:02:20.619Z</time>
      </trkpt>
      <trkpt lat="45.86628" lon="3.65832">
        <ele>626</ele>
        <time>2024-12-08T01:02:21.619Z</time>
      </trkpt>
      <trkpt lat="45.86627" lon="3.65834">
        <ele>627</ele>
        <time>2024-12-08T01:02:22.620Z</time>
      </trkpt>
      <trkpt lat="45.86626" lon="3.65836">
        <ele>627</ele>
        <time>2024-12-08T01:02:23.619Z</time>
      </trkpt>
      <trkpt lat="45.86625" lon="3.65838">
        <ele>627</ele>
        <time>2024-12-08T01:02:24.619Z</time>
      </trkpt>
      <trkpt lat="45.86624" lon="3.65839">
        <ele>627</ele>
        <time>2024-12-08T01:02:25.619Z</time>
      </trkpt>
      <trkpt lat="45.86624" lon="3.6584">
        <ele>627</ele>
        <time>2024-12-08T01:02:26.619Z</time>
      </trkpt>
      <trkpt lat="45.86623" lon="3.65841">
        <ele>627</ele>
        <time>2024-12-08T01:02:27.619Z</time>
      </trkpt>
      <trkpt lat="45.86622" lon="3.65843">
        <ele>627</ele>
        <time>2024-12-08T01:02:28.619Z</time>
      </trkpt>
      <trkpt lat="45.86621" lon="3.65844">
        <ele>626</ele>
        <time>2024-12-08T01:02:29.620Z</time>
      </trkpt>
      <trkpt lat="45.8662" lon="3.65846">
        <ele>626</ele>
        <time>2024-12-08T01:02:30.620Z</time>
      </trkpt>
      <trkpt lat="45.86619" lon="3.65848">
        <ele>627</ele>
        <time>2024-12-08T01:02:31.619Z</time>
      </trkpt>
      <trkpt lat="45.86618" lon="3.65851">
        <ele>627</ele>
        <time>2024-12-08T01:02:32.620Z</time>
      </trkpt>
      <trkpt lat="45.86616" lon="3.65853">
        <ele>627</ele>
        <time>2024-12-08T01:02:33.619Z</time>
      </trkpt>
      <trkpt lat="45.86615" lon="3.65855">
        <ele>627</ele>
        <time>2024-12-08T01:02:34.620Z</time>
      </trkpt>
      <trkpt lat="45.86615" lon="3.65857">
        <ele>628</ele>
        <time>2024-12-08T01:02:35.620Z</time>
      </trkpt>
      <trkpt lat="45.86614" lon="3.6586">
        <ele>628</ele>
        <time>2024-12-08T01:02:36.620Z</time>
      </trkpt>
      <trkpt lat="45.86613" lon="3.65862">
        <ele>628</ele>
        <time>2024-12-08T01:02:37.620Z</time>
      </trkpt>
      <trkpt lat="45.86613" lon="3.65864">
        <ele>628</ele>
        <time>2024-12-08T01:02:38.619Z</time>
      </trkpt>
      <trkpt lat="45.86613" lon="3.65866">
        <ele>628</ele>
        <time>2024-12-08T01:02:39.619Z</time>
      </trkpt>
      <trkpt lat="45.86613" lon="3.65868">
        <ele>628</ele>
        <time>2024-12-08T01:02:40.619Z</time>
      </trkpt>
      <trkpt lat="45.86614" lon="3.65869">
        <ele>628</ele>
        <time>2024-12-08T01:02:41.620Z</time>
      </trkpt>
      <trkpt lat="45.86614" lon="3.65871">
        <ele>628</ele>
        <time>2024-12-08T01:02:42.619Z</time>
      </trkpt>
      <trkpt lat="45.86614" lon="3.65873">
        <ele>628</ele>
        <time>2024-12-08T01:02:43.619Z</time>
      </trkpt>
      <trkpt lat="45.86614" lon="3.65875">
        <ele>627</ele>
        <time>2024-12-08T01:02:44.619Z</time>
      </trkpt>
      <trkpt lat="45.86615" lon="3.65877">
        <ele>627</ele>
        <time>2024-12-08T01:02:45.620Z</time>
      </trkpt>
      <trkpt lat="45.86615" lon="3.65879">
        <ele>626</ele>
        <time>2024-12-08T01:02:46.620Z</time>
      </trkpt>
      <trkpt lat="45.86616" lon="3.65881">
        <ele>626</ele>
        <time>2024-12-08T01:02:47.619Z</time>
      </trkpt>
      <trkpt lat="45.86617" lon="3.65883">
        <ele>625</ele>
        <time>2024-12-08T01:02:48.619Z</time>
      </trkpt>
      <trkpt lat="45.86617" lon="3.65885">
        <ele>625</ele>
        <time>2024-12-08T01:02:49.620Z</time>
      </trkpt>
      <trkpt lat="45.86617" lon="3.65887">
        <ele>625</ele>
        <time>2024-12-08T01:02:50.619Z</time>
      </trkpt>
      <trkpt lat="45.86618" lon="3.65889">
        <ele>625</ele>
        <time>2024-12-08T01:02:51.619Z</time>
      </trkpt>
      <trkpt lat="45.86619" lon="3.65891">
        <ele>625</ele>
        <time>2024-12-08T01:02:52.619Z</time>
      </trkpt>
      <trkpt lat="45.86619" lon="3.65892">
        <ele>626</ele>
        <time>2024-12-08T01:02:53.620Z</time>
      </trkpt>
      <trkpt lat="45.8662" lon="3.65894">
        <ele>625</ele>
        <time>2024-12-08T01:02:54.620Z</time>
      </trkpt>
      <trkpt lat="45.86621" lon="3.65895">
        <ele>625</ele>
        <time>2024-12-08T01:02:55.619Z</time>
      </trkpt>
      <trkpt lat="45.86622" lon="3.65896">
        <ele>625</ele>
        <time>2024-12-08T01:02:56.620Z</time>
      </trkpt>
      <trkpt lat="45.86623" lon="3.65897">
        <ele>625</ele>
        <time>2024-12-08T01:02:57.620Z</time>
      </trkpt>
      <trkpt lat="45.86624" lon="3.65898">
        <ele>625</ele>
        <time>2024-12-08T01:02:58.620Z</time>
      </trkpt>
      <trkpt lat="45.86625" lon="3.65899">
        <ele>625</ele>
        <time>2024-12-08T01:02:59.619Z</time>
      </trkpt>
      <trkpt lat="45.86627" lon="3.659">
        <ele>625</ele>
        <time>2024-12-08T01:03:00.619Z</time>
      </trkpt>
      <trkpt lat="45.86628" lon="3.65901">
        <ele>626</ele>
        <time>2024-12-08T01:03:01.620Z</time>
      </trkpt>
      <trkpt lat="45.8663" lon="3.65902">
        <ele>626</ele>
        <time>2024-12-08T01:03:02.619Z</time>
      </trkpt>
      <trkpt lat="45.86632" lon="3.65903">
        <ele>626</ele>
        <time>2024-12-08T01:03:03.619Z</time>
      </trkpt>
      <trkpt lat="45.86634" lon="3.65904">
        <ele>626</ele>
        <time>2024-12-08T01:03:04.619Z</time>
      </trkpt>
      <trkpt lat="45.86635" lon="3.65905">
        <ele>626</ele>
        <time>2024-12-08T01:03:05.619Z</time>
      </trkpt>
      <trkpt lat="45.86637" lon="3.65906">
        <ele>626</ele>
        <time>2024-12-08T01:03:06.619Z</time>
      </trkpt>
      <trkpt lat="45.86639" lon="3.65906">
        <ele>626</ele>
        <time>2024-12-08T01:03:07.619Z</time>
      </trkpt>
      <trkpt lat="45.86641" lon="3.65907">
        <ele>626</ele>
        <time>2024-12-08T01:03:08.619Z</time>
      </trkpt>
      <trkpt lat="45.86642" lon="3.65908">
        <ele>626</ele>
        <time>2024-12-08T01:03:09.619Z</time>
      </trkpt>
      <trkpt lat="45.86644" lon="3.65909">
        <ele>626</ele>
        <time>2024-12-08T01:03:10.619Z</time>
      </trkpt>
      <trkpt lat="45.86645" lon="3.6591">
        <ele>626</ele>
        <time>2024-12-08T01:03:11.620Z</time>
      </trkpt>
      <trkpt lat="45.86646" lon="3.65912">
        <ele>626</ele>
        <time>2024-12-08T01:03:12.620Z</time>
      </trkpt>
      <trkpt lat="45.86646" lon="3.65913">
        <ele>627</ele>
        <time>2024-12-08T01:03:13.620Z</time>
      </trkpt>
      <trkpt lat="45.86648" lon="3.65914">
        <ele>627</ele>
        <time>2024-12-08T01:03:14.619Z</time>
      </trkpt>
      <trkpt lat="45.86649" lon="3.65915">
        <ele>627</ele>
        <time>2024-12-08T01:03:15.620Z</time>
      </trkpt>
      <trkpt lat="45.8665" lon="3.65917">
        <ele>627</ele>
        <time>2024-12-08T01:03:16.620Z</time>
      </trkpt>
      <trkpt lat="45.86651" lon="3.65918">
        <ele>627</ele>
        <time>2024-12-08T01:03:17.619Z</time>
      </trkpt>
      <trkpt lat="45.86652" lon="3.6592">
        <ele>626</ele>
        <time>2024-12-08T01:03:18.619Z</time>
      </trkpt>
      <trkpt lat="45.86653" lon="3.65921">
        <ele>626</ele>
        <time>2024-12-08T01:03:19.620Z</time>
      </trkpt>
      <trkpt lat="45.86654" lon="3.65923">
        <ele>625</ele>
        <time>2024-12-08T01:03:20.619Z</time>
      </trkpt>
      <trkpt lat="45.86655" lon="3.65924">
        <ele>625</ele>
        <time>2024-12-08T01:03:21.619Z</time>
      </trkpt>
      <trkpt lat="45.86656" lon="3.65925">
        <ele>625</ele>
        <time>2024-12-08T01:03:22.619Z</time>
      </trkpt>
      <trkpt lat="45.86657" lon="3.65926">
        <ele>625</ele>
        <time>2024-12-08T01:03:23.619Z</time>
      </trkpt>
      <trkpt lat="45.86659" lon="3.65927">
        <ele>625</ele>
        <time>2024-12-08T01:03:24.619Z</time>
      </trkpt>
      <trkpt lat="45.8666" lon="3.65928">
        <ele>626</ele>
        <time>2024-12-08T01:03:25.619Z</time>
      </trkpt>
      <trkpt lat="45.86661" lon="3.65929">
        <ele>626</ele>
        <time>2024-12-08T01:03:26.619Z</time>
      </trkpt>
      <trkpt lat="45.86662" lon="3.6593">
        <ele>626</ele>
        <time>2024-12-08T01:03:27.619Z</time>
      </trkpt>
      <trkpt lat="45.86663" lon="3.65931">
        <ele>627</ele>
        <time>2024-12-08T01:03:28.619Z</time>
      </trkpt>
      <trkpt lat="45.86665" lon="3.65932">
        <ele>627</ele>
        <time>2024-12-08T01:03:29.619Z</time>
      </trkpt>
      <trkpt lat="45.86666" lon="3.65934">
        <ele>627</ele>
        <time>2024-12-08T01:03:30.620Z</time>
      </trkpt>
      <trkpt lat="45.86667" lon="3.65935">
        <ele>627</ele>
        <time>2024-12-08T01:03:31.620Z</time>
      </trkpt>
      <trkpt lat="45.86668" lon="3.65936">
        <ele>628</ele>
        <time>2024-12-08T01:03:32.619Z</time>
      </trkpt>
      <trkpt lat="45.8667" lon="3.65937">
        <ele>628</ele>
        <time>2024-12-08T01:03:33.620Z</time>
      </trkpt>
      <trkpt lat="45.86671" lon="3.65939">
        <ele>628</ele>
        <time>2024-12-08T01:03:34.619Z</time>
      </trkpt>
      <trkpt lat="45.86672" lon="3.6594">
        <ele>628</ele>
        <time>2024-12-08T01:03:35.619Z</time>
      </trkpt>
      <trkpt lat="45.86674" lon="3.65941">
        <ele>628</ele>
        <time>2024-12-08T01:03:36.619Z</time>
      </trkpt>
      <trkpt lat="45.86675" lon="3.65942">
        <ele>628</ele>
        <time>2024-12-08T01:03:37.619Z</time>
      </trkpt>
      <trkpt lat="45.86676" lon="3.65944">
        <ele>628</ele>
        <time>2024-12-08T01:03:38.619Z</time>
      </trkpt>
      <trkpt lat="45.86677" lon="3.65945">
        <ele>628</ele>
        <time>2024-12-08T01:03:39.620Z</time>
      </trkpt>
      <trkpt lat="45.86678" lon="3.65947">
        <ele>628</ele>
        <time>2024-12-08T01:03:40.619Z</time>
      </trkpt>
      <trkpt lat="45.86679" lon="3.65948">
        <ele>628</ele>
        <time>2024-12-08T01:03:41.619Z</time>
      </trkpt>
      <trkpt lat="45.86681" lon="3.6595">
        <ele>628</ele>
        <time>2024-12-08T01:03:42.620Z</time>
      </trkpt>
      <trkpt lat="45.86682" lon="3.65952">
        <ele>628</ele>
        <time>2024-12-08T01:03:43.619Z</time>
      </trkpt>
      <trkpt lat="45.86683" lon="3.65953">
        <ele>628</ele>
        <time>2024-12-08T01:03:44.619Z</time>
      </trkpt>
      <trkpt lat="45.86684" lon="3.65955">
        <ele>627</ele>
        <time>2024-12-08T01:03:45.620Z</time>
      </trkpt>
      <trkpt lat="45.86685" lon="3.65956">
        <ele>627</ele>
        <time>2024-12-08T01:03:46.619Z</time>
      </trkpt>
      <trkpt lat="45.86687" lon="3.65957">
        <ele>627</ele>
        <time>2024-12-08T01:03:47.620Z</time>
      </trkpt>
      <trkpt lat="45.86688" lon="3.65959">
        <ele>627</ele>
        <time>2024-12-08T01:03:48.619Z</time>
      </trkpt>
      <trkpt lat="45.86689" lon="3.65961">
        <ele>627</ele>
        <time>2024-12-08T01:03:49.619Z</time>
      </trkpt>
      <trkpt lat="45.8669" lon="3.65962">
        <ele>627</ele>
        <time>2024-12-08T01:03:50.619Z</time>
      </trkpt>
      <trkpt lat="45.86691" lon="3.65964">
        <ele>626</ele>
        <time>2024-12-08T01:03:51.620Z</time>
      </trkpt>
      <trkpt lat="45.86693" lon="3.65966">
        <ele>626</ele>
        <time>2024-12-08T01:03:52.619Z</time>
      </trkpt>
      <trkpt lat="45.86694" lon="3.65968">
        <ele>626</ele>
        <time>2024-12-08T01:03:53.619Z</time>
      </trkpt>
      <trkpt lat="45.86695" lon="3.6597">
        <ele>627</ele>
        <time>2024-12-08T01:03:54.620Z</time>
      </trkpt>
      <trkpt lat="45.86697" lon="3.65971">
        <ele>627</ele>
        <time>2024-12-08T01:03:55.620Z</time>
      </trkpt>
      <trkpt lat="45.86698" lon="3.65973">
        <ele>628</ele>
        <time>2024-12-08T01:03:56.620Z</time>
      </trkpt>
      <trkpt lat="45.867" lon="3.65975">
        <ele>628</ele>
        <time>2024-12-08T01:03:57.620Z</time>
      </trkpt>
      <trkpt lat="45.86701" lon="3.65978">
        <ele>628</ele>
        <time>2024-12-08T01:03:58.619Z</time>
      </trkpt>
      <trkpt lat="45.86702" lon="3.6598">
        <ele>629</ele>
        <time>2024-12-08T01:03:59.620Z</time>
      </trkpt>
      <trkpt lat="45.86703" lon="3.65981">
        <ele>629</ele>
        <time>2024-12-08T01:04:00.619Z</time>
      </trkpt>
      <trkpt lat="45.86704" lon="3.65984">
        <ele>629</ele>
        <time>2024-12-08T01:04:01.619Z</time>
      </trkpt>
      <trkpt lat="45.86706" lon="3.65986">
        <ele>629</ele>
        <time>2024-12-08T01:04:02.619Z</time>
      </trkpt>
      <trkpt lat="45.86707" lon="3.65988">
        <ele>629</ele>
        <time>2024-12-08T01:04:03.619Z</time>
      </trkpt>
      <trkpt lat="45.86708" lon="3.65989">
        <ele>630</ele>
        <time>2024-12-08T01:04:04.620Z</time>
      </trkpt>
      <trkpt lat="45.86709" lon="3.6599">
        <ele>630</ele>
        <time>2024-12-08T01:04:05.619Z</time>
      </trkpt>
      <trkpt lat="45.86711" lon="3.65992">
        <ele>631</ele>
        <time>2024-12-08T01:04:06.619Z</time>
      </trkpt>
      <trkpt lat="45.86712" lon="3.65994">
        <ele>631</ele>
        <time>2024-12-08T01:04:07.620Z</time>
      </trkpt>
      <trkpt lat="45.86712" lon="3.65995">
        <ele>631</ele>
        <time>2024-12-08T01:04:08.619Z</time>
      </trkpt>
      <trkpt lat="45.86713" lon="3.65997">
        <ele>631</ele>
        <time>2024-12-08T01:04:09.620Z</time>
      </trkpt>
      <trkpt lat="45.86714" lon="3.65998">
        <ele>631</ele>
        <time>2024-12-08T01:04:10.620Z</time>
      </trkpt>
      <trkpt lat="45.86715" lon="3.66">
        <ele>631</ele>
        <time>2024-12-08T01:04:11.620Z</time>
      </trkpt>
      <trkpt lat="45.86715" lon="3.66001">
        <ele>631</ele>
        <time>2024-12-08T01:04:12.620Z</time>
      </trkpt>
      <trkpt lat="45.86715" lon="3.66003">
        <ele>632</ele>
        <time>2024-12-08T01:04:13.620Z</time>
      </trkpt>
      <trkpt lat="45.86716" lon="3.66005">
        <ele>632</ele>
        <time>2024-12-08T01:04:14.619Z</time>
      </trkpt>
      <trkpt lat="45.86717" lon="3.66006">
        <ele>632</ele>
        <time>2024-12-08T01:04:15.619Z</time>
      </trkpt>
      <trkpt lat="45.86717" lon="3.66007">
        <ele>633</ele>
        <time>2024-12-08T01:04:16.619Z</time>
      </trkpt>
      <trkpt lat="45.86718" lon="3.66009">
        <ele>633</ele>
        <time>2024-12-08T01:04:17.619Z</time>
      </trkpt>
      <trkpt lat="45.86719" lon="3.6601">
        <ele>633</ele>
        <time>2024-12-08T01:04:18.620Z</time>
      </trkpt>
      <trkpt lat="45.8672" lon="3.66012">
        <ele>633</ele>
        <time>2024-12-08T01:04:19.620Z</time>
      </trkpt>
      <trkpt lat="45.86721" lon="3.66013">
        <ele>633</ele>
        <time>2024-12-08T01:04:20.620Z</time>
      </trkpt>
      <trkpt lat="45.86722" lon="3.66014">
        <ele>633</ele>
        <time>2024-12-08T01:04:21.619Z</time>
      </trkpt>
      <trkpt lat="45.86723" lon="3.66016">
        <ele>633</ele>
        <time>2024-12-08T01:04:22.619Z</time>
      </trkpt>
      <trkpt lat="45.86724" lon="3.66017">
        <ele>634</ele>
        <time>2024-12-08T01:04:23.620Z</time>
      </trkpt>
      <trkpt lat="45.86725" lon="3.66019">
        <ele>634</ele>
        <time>2024-12-08T01:04:24.620Z</time>
      </trkpt>
      <trkpt lat="45.86726" lon="3.66021">
        <ele>634</ele>
        <time>2024-12-08T01:04:25.620Z</time>
      </trkpt>
      <trkpt lat="45.86727" lon="3.66023">
        <ele>635</ele>
        <time>2024-12-08T01:04:26.620Z</time>
      </trkpt>
      <trkpt lat="45.86728" lon="3.66026">
        <ele>635</ele>
        <time>2024-12-08T01:04:27.620Z</time>
      </trkpt>
      <trkpt lat="45.86728" lon="3.66027">
        <ele>635</ele>
        <time>2024-12-08T01:04:28.619Z</time>
      </trkpt>
      <trkpt lat="45.8673" lon="3.66029">
        <ele>635</ele>
        <time>2024-12-08T01:04:29.620Z</time>
      </trkpt>
      <trkpt lat="45.86731" lon="3.6603">
        <ele>634</ele>
        <time>2024-12-08T01:04:30.619Z</time>
      </trkpt>
      <trkpt lat="45.86732" lon="3.66032">
        <ele>634</ele>
        <time>2024-12-08T01:04:31.619Z</time>
      </trkpt>
      <trkpt lat="45.86733" lon="3.66033">
        <ele>634</ele>
        <time>2024-12-08T01:04:32.619Z</time>
      </trkpt>
      <trkpt lat="45.86734" lon="3.66035">
        <ele>634</ele>
        <time>2024-12-08T01:04:33.619Z</time>
      </trkpt>
      <trkpt lat="45.86735" lon="3.66037">
        <ele>634</ele>
        <time>2024-12-08T01:04:34.619Z</time>
      </trkpt>
      <trkpt lat="45.86736" lon="3.66038">
        <ele>634</ele>
        <time>2024-12-08T01:04:35.619Z</time>
      </trkpt>
      <trkpt lat="45.86738" lon="3.6604">
        <ele>634</ele>
        <time>2024-12-08T01:04:36.620Z</time>
      </trkpt>
      <trkpt lat="45.86739" lon="3.66042">
        <ele>634</ele>
        <time>2024-12-08T01:04:37.619Z</time>
      </trkpt>
      <trkpt lat="45.8674" lon="3.66044">
        <ele>634</ele>
        <time>2024-12-08T01:04:38.619Z</time>
      </trkpt>
      <trkpt lat="45.86741" lon="3.66045">
        <ele>633</ele>
        <time>2024-12-08T01:04:39.620Z</time>
      </trkpt>
      <trkpt lat="45.86742" lon="3.66047">
        <ele>633</ele>
        <time>2024-12-08T01:04:40.619Z</time>
      </trkpt>
      <trkpt lat="45.86742" lon="3.66049">
        <ele>633</ele>
        <time>2024-12-08T01:04:41.619Z</time>
      </trkpt>
      <trkpt lat="45.86743" lon="3.66051">
        <ele>634</ele>
        <time>2024-12-08T01:04:42.619Z</time>
      </trkpt>
      <trkpt lat="45.86745" lon="3.66053">
        <ele>634</ele>
        <time>2024-12-08T01:04:43.619Z</time>
      </trkpt>
      <trkpt lat="45.86746" lon="3.66054">
        <ele>634</ele>
        <time>2024-12-08T01:04:44.619Z</time>
      </trkpt>
      <trkpt lat="45.86747" lon="3.66056">
        <ele>634</ele>
        <time>2024-12-08T01:04:45.620Z</time>
      </trkpt>
      <trkpt lat="45.86748" lon="3.66057">
        <ele>634</ele>
        <time>2024-12-08T01:04:46.620Z</time>
      </trkpt>
      <trkpt lat="45.86748" lon="3.66059">
        <ele>634</ele>
        <time>2024-12-08T01:04:47.620Z</time>
      </trkpt>
      <trkpt lat="45.86749" lon="3.66061">
        <ele>634</ele>
        <time>2024-12-08T01:04:48.619Z</time>
      </trkpt>
      <trkpt lat="45.8675" lon="3.66062">
        <ele>635</ele>
        <time>2024-12-08T01:04:49.619Z</time>
      </trkpt>
      <trkpt lat="45.8675" lon="3.66064">
        <ele>635</ele>
        <time>2024-12-08T01:04:50.619Z</time>
      </trkpt>
      <trkpt lat="45.86751" lon="3.66066">
        <ele>635</ele>
        <time>2024-12-08T01:04:51.619Z</time>
      </trkpt>
      <trkpt lat="45.86752" lon="3.66068">
        <ele>634</ele>
        <time>2024-12-08T01:04:52.619Z</time>
      </trkpt>
      <trkpt lat="45.86753" lon="3.6607">
        <ele>634</ele>
        <time>2024-12-08T01:04:53.619Z</time>
      </trkpt>
      <trkpt lat="45.86754" lon="3.66072">
        <ele>634</ele>
        <time>2024-12-08T01:04:54.619Z</time>
      </trkpt>
      <trkpt lat="45.86755" lon="3.66074">
        <ele>634</ele>
        <time>2024-12-08T01:04:55.620Z</time>
      </trkpt>
      <trkpt lat="45.86756" lon="3.66076">
        <ele>634</ele>
        <time>2024-12-08T01:04:56.620Z</time>
      </trkpt>
      <trkpt lat="45.86757" lon="3.66078">
        <ele>634</ele>
        <time>2024-12-08T01:04:57.619Z</time>
      </trkpt>
      <trkpt lat="45.86758" lon="3.66079">
        <ele>635</ele>
        <time>2024-12-08T01:04:58.619Z</time>
      </trkpt>
      <trkpt lat="45.86759" lon="3.66081">
        <ele>635</ele>
        <time>2024-12-08T01:04:59.620Z</time>
      </trkpt>
      <trkpt lat="45.8676" lon="3.66083">
        <ele>635</ele>
        <time>2024-12-08T01:05:00.619Z</time>
      </trkpt>
      <trkpt lat="45.86761" lon="3.66086">
        <ele>636</ele>
        <time>2024-12-08T01:05:01.620Z</time>
      </trkpt>
      <trkpt lat="45.86761" lon="3.66088">
        <ele>636</ele>
        <time>2024-12-08T01:05:02.619Z</time>
      </trkpt>
      <trkpt lat="45.86762" lon="3.6609">
        <ele>636</ele>
        <time>2024-12-08T01:05:03.619Z</time>
      </trkpt>
      <trkpt lat="45.86763" lon="3.66092">
        <ele>636</ele>
        <time>2024-12-08T01:05:04.620Z</time>
      </trkpt>
      <trkpt lat="45.86764" lon="3.66094">
        <ele>636</ele>
        <time>2024-12-08T01:05:05.619Z</time>
      </trkpt>
      <trkpt lat="45.86765" lon="3.66096">
        <ele>636</ele>
        <time>2024-12-08T01:05:06.620Z</time>
      </trkpt>
      <trkpt lat="45.86765" lon="3.66098">
        <ele>637</ele>
        <time>2024-12-08T01:05:07.619Z</time>
      </trkpt>
      <trkpt lat="45.86766" lon="3.661">
        <ele>637</ele>
        <time>2024-12-08T01:05:08.620Z</time>
      </trkpt>
      <trkpt lat="45.86767" lon="3.66102">
        <ele>637</ele>
        <time>2024-12-08T01:05:09.620Z</time>
      </trkpt>
      <trkpt lat="45.86768" lon="3.66104">
        <ele>637</ele>
        <time>2024-12-08T01:05:10.620Z</time>
      </trkpt>
      <trkpt lat="45.86769" lon="3.66106">
        <ele>637</ele>
        <time>2024-12-08T01:05:11.619Z</time>
      </trkpt>
      <trkpt lat="45.86769" lon="3.66108">
        <ele>638</ele>
        <time>2024-12-08T01:05:12.620Z</time>
      </trkpt>
      <trkpt lat="45.8677" lon="3.6611">
        <ele>638</ele>
        <time>2024-12-08T01:05:13.619Z</time>
      </trkpt>
      <trkpt lat="45.8677" lon="3.66113">
        <ele>638</ele>
        <time>2024-12-08T01:05:14.620Z</time>
      </trkpt>
      <trkpt lat="45.8677" lon="3.66115">
        <ele>638</ele>
        <time>2024-12-08T01:05:15.620Z</time>
      </trkpt>
      <trkpt lat="45.86771" lon="3.66118">
        <ele>638</ele>
        <time>2024-12-08T01:05:16.620Z</time>
      </trkpt>
      <trkpt lat="45.86772" lon="3.6612">
        <ele>638</ele>
        <time>2024-12-08T01:05:17.619Z</time>
      </trkpt>
      <trkpt lat="45.86772" lon="3.66122">
        <ele>638</ele>
        <time>2024-12-08T01:05:18.620Z</time>
      </trkpt>
      <trkpt lat="45.86773" lon="3.66125">
        <ele>637</ele>
        <time>2024-12-08T01:05:19.620Z</time>
      </trkpt>
      <trkpt lat="45.86773" lon="3.66127">
        <ele>637</ele>
        <time>2024-12-08T01:05:20.620Z</time>
      </trkpt>
      <trkpt lat="45.86774" lon="3.6613">
        <ele>637</ele>
        <time>2024-12-08T01:05:21.620Z</time>
      </trkpt>
      <trkpt lat="45.86774" lon="3.66132">
        <ele>638</ele>
        <time>2024-12-08T01:05:22.620Z</time>
      </trkpt>
      <trkpt lat="45.86775" lon="3.66135">
        <ele>638</ele>
        <time>2024-12-08T01:05:23.620Z</time>
      </trkpt>
      <trkpt lat="45.86776" lon="3.66137">
        <ele>638</ele>
        <time>2024-12-08T01:05:24.619Z</time>
      </trkpt>
      <trkpt lat="45.86777" lon="3.6614">
        <ele>638</ele>
        <time>2024-12-08T01:05:25.619Z</time>
      </trkpt>
      <trkpt lat="45.86778" lon="3.66142">
        <ele>639</ele>
        <time>2024-12-08T01:05:26.620Z</time>
      </trkpt>
      <trkpt lat="45.86779" lon="3.66144">
        <ele>639</ele>
        <time>2024-12-08T01:05:27.619Z</time>
      </trkpt>
      <trkpt lat="45.8678" lon="3.66146">
        <ele>639</ele>
        <time>2024-12-08T01:05:28.620Z</time>
      </trkpt>
      <trkpt lat="45.8678" lon="3.66148">
        <ele>639</ele>
        <time>2024-12-08T01:05:29.620Z</time>
      </trkpt>
      <trkpt lat="45.8678" lon="3.6615">
        <ele>639</ele>
        <time>2024-12-08T01:05:30.620Z</time>
      </trkpt>
      <trkpt lat="45.8678" lon="3.66152">
        <ele>640</ele>
        <time>2024-12-08T01:05:31.619Z</time>
      </trkpt>
      <trkpt lat="45.8678" lon="3.66154">
        <ele>640</ele>
        <time>2024-12-08T01:05:32.620Z</time>
      </trkpt>
      <trkpt lat="45.8678" lon="3.66156">
        <ele>640</ele>
        <time>2024-12-08T01:05:33.620Z</time>
      </trkpt>
      <trkpt lat="45.86781" lon="3.66159">
        <ele>640</ele>
        <time>2024-12-08T01:05:34.619Z</time>
      </trkpt>
      <trkpt lat="45.86782" lon="3.66161">
        <ele>640</ele>
        <time>2024-12-08T01:05:35.619Z</time>
      </trkpt>
      <trkpt lat="45.86783" lon="3.66164">
        <ele>640</ele>
        <time>2024-12-08T01:05:36.619Z</time>
      </trkpt>
      <trkpt lat="45.86783" lon="3.66166">
        <ele>640</ele>
        <time>2024-12-08T01:05:37.620Z</time>
      </trkpt>
      <trkpt lat="45.86783" lon="3.66168">
        <ele>640</ele>
        <time>2024-12-08T01:05:38.619Z</time>
      </trkpt>
      <trkpt lat="45.86783" lon="3.6617">
        <ele>640</ele>
        <time>2024-12-08T01:05:39.619Z</time>
      </trkpt>
      <trkpt lat="45.86783" lon="3.66173">
        <ele>639</ele>
        <time>2024-12-08T01:05:40.620Z</time>
      </trkpt>
      <trkpt lat="45.86783" lon="3.66175">
        <ele>639</ele>
        <time>2024-12-08T01:05:41.620Z</time>
      </trkpt>
      <trkpt lat="45.86784" lon="3.66178">
        <ele>639</ele>
        <time>2024-12-08T01:05:42.619Z</time>
      </trkpt>
      <trkpt lat="45.86784" lon="3.66181">
        <ele>639</ele>
        <time>2024-12-08T01:05:43.620Z</time>
      </trkpt>
      <trkpt lat="45.86784" lon="3.66183">
        <ele>638</ele>
        <time>2024-12-08T01:05:44.620Z</time>
      </trkpt>
      <trkpt lat="45.86784" lon="3.66186">
        <ele>638</ele>
        <time>2024-12-08T01:05:45.619Z</time>
      </trkpt>
      <trkpt lat="45.86784" lon="3.66188">
        <ele>638</ele>
        <time>2024-12-08T01:05:46.620Z</time>
      </trkpt>
      <trkpt lat="45.86785" lon="3.66191">
        <ele>638</ele>
        <time>2024-12-08T01:05:47.619Z</time>
      </trkpt>
      <trkpt lat="45.86785" lon="3.66193">
        <ele>639</ele>
        <time>2024-12-08T01:05:48.620Z</time>
      </trkpt>
      <trkpt lat="45.86786" lon="3.66195">
        <ele>639</ele>
        <time>2024-12-08T01:05:49.619Z</time>
      </trkpt>
      <trkpt lat="45.86786" lon="3.66198">
        <ele>639</ele>
        <time>2024-12-08T01:05:50.619Z</time>
      </trkpt>
      <trkpt lat="45.86786" lon="3.662">
        <ele>639</ele>
        <time>2024-12-08T01:05:51.619Z</time>
      </trkpt>
      <trkpt lat="45.86786" lon="3.66202">
        <ele>639</ele>
        <time>2024-12-08T01:05:52.620Z</time>
      </trkpt>
      <trkpt lat="45.86785" lon="3.66204">
        <ele>639</ele>
        <time>2024-12-08T01:05:53.620Z</time>
      </trkpt>
      <trkpt lat="45.86786" lon="3.66207">
        <ele>640</ele>
        <time>2024-12-08T01:05:54.620Z</time>
      </trkpt>
      <trkpt lat="45.86786" lon="3.66209">
        <ele>640</ele>
        <time>2024-12-08T01:05:55.620Z</time>
      </trkpt>
      <trkpt lat="45.86786" lon="3.66211">
        <ele>640</ele>
        <time>2024-12-08T01:05:56.620Z</time>
      </trkpt>
      <trkpt lat="45.86785" lon="3.66213">
        <ele>640</ele>
        <time>2024-12-08T01:05:57.620Z</time>
      </trkpt>
      <trkpt lat="45.86785" lon="3.66216">
        <ele>640</ele>
        <time>2024-12-08T01:05:58.620Z</time>
      </trkpt>
      <trkpt lat="45.86785" lon="3.66218">
        <ele>640</ele>
        <time>2024-12-08T01:05:59.619Z</time>
      </trkpt>
      <trkpt lat="45.86785" lon="3.6622">
        <ele>640</ele>
        <time>2024-12-08T01:06:00.619Z</time>
      </trkpt>
      <trkpt lat="45.86784" lon="3.66222">
        <ele>641</ele>
        <time>2024-12-08T01:06:01.619Z</time>
      </trkpt>
      <trkpt lat="45.86784" lon="3.66224">
        <ele>641</ele>
        <time>2024-12-08T01:06:02.620Z</time>
      </trkpt>
      <trkpt lat="45.86783" lon="3.66226">
        <ele>641</ele>
        <time>2024-12-08T01:06:03.620Z</time>
      </trkpt>
      <trkpt lat="45.86783" lon="3.66228">
        <ele>641</ele>
        <time>2024-12-08T01:06:04.620Z</time>
      </trkpt>
      <trkpt lat="45.86782" lon="3.6623">
        <ele>641</ele>
        <time>2024-12-08T01:06:05.620Z</time>
      </trkpt>
      <trkpt lat="45.86781" lon="3.66233">
        <ele>641</ele>
        <time>2024-12-08T01:06:06.619Z</time>
      </trkpt>
      <trkpt lat="45.8678" lon="3.66235">
        <ele>642</ele>
        <time>2024-12-08T01:06:07.619Z</time>
      </trkpt>
      <trkpt lat="45.86779" lon="3.66237">
        <ele>642</ele>
        <time>2024-12-08T01:06:08.619Z</time>
      </trkpt>
      <trkpt lat="45.86778" lon="3.66239">
        <ele>642</ele>
        <time>2024-12-08T01:06:09.620Z</time>
      </trkpt>
      <trkpt lat="45.86776" lon="3.66241">
        <ele>642</ele>
        <time>2024-12-08T01:06:10.620Z</time>
      </trkpt>
      <trkpt lat="45.86775" lon="3.66243">
        <ele>642</ele>
        <time>2024-12-08T01:06:11.620Z</time>
      </trkpt>
      <trkpt lat="45.86774" lon="3.66245">
        <ele>642</ele>
        <time>2024-12-08T01:06:12.620Z</time>
      </trkpt>
      <trkpt lat="45.86772" lon="3.66247">
        <ele>642</ele>
        <time>2024-12-08T01:06:13.620Z</time>
      </trkpt>
      <trkpt lat="45.86771" lon="3.66249">
        <ele>642</ele>
        <time>2024-12-08T01:06:14.619Z</time>
      </trkpt>
      <trkpt lat="45.8677" lon="3.6625">
        <ele>642</ele>
        <time>2024-12-08T01:06:15.619Z</time>
      </trkpt>
      <trkpt lat="45.86769" lon="3.66252">
        <ele>642</ele>
        <time>2024-12-08T01:06:16.619Z</time>
      </trkpt>
      <trkpt lat="45.86767" lon="3.66253">
        <ele>642</ele>
        <time>2024-12-08T01:06:17.619Z</time>
      </trkpt>
      <trkpt lat="45.86766" lon="3.66254">
        <ele>642</ele>
        <time>2024-12-08T01:06:18.619Z</time>
      </trkpt>
      <trkpt lat="45.86765" lon="3.66256">
        <ele>642</ele>
        <time>2024-12-08T01:06:19.619Z</time>
      </trkpt>
      <trkpt lat="45.86763" lon="3.66258">
        <ele>642</ele>
        <time>2024-12-08T01:06:20.620Z</time>
      </trkpt>
      <trkpt lat="45.86762" lon="3.66259">
        <ele>642</ele>
        <time>2024-12-08T01:06:21.620Z</time>
      </trkpt>
      <trkpt lat="45.8676" lon="3.66261">
        <ele>642</ele>
        <time>2024-12-08T01:06:22.619Z</time>
      </trkpt>
      <trkpt lat="45.86758" lon="3.66263">
        <ele>642</ele>
        <time>2024-12-08T01:06:23.619Z</time>
      </trkpt>
      <trkpt lat="45.86757" lon="3.66266">
        <ele>642</ele>
        <time>2024-12-08T01:06:24.619Z</time>
      </trkpt>
      <trkpt lat="45.86755" lon="3.66268">
        <ele>642</ele>
        <time>2024-12-08T01:06:25.620Z</time>
      </trkpt>
      <trkpt lat="45.86754" lon="3.6627">
        <ele>642</ele>
        <time>2024-12-08T01:06:26.620Z</time>
      </trkpt>
      <trkpt lat="45.86753" lon="3.66272">
        <ele>642</ele>
        <time>2024-12-08T01:06:27.619Z</time>
      </trkpt>
      <trkpt lat="45.86752" lon="3.66274">
        <ele>642</ele>
        <time>2024-12-08T01:06:28.620Z</time>
      </trkpt>
      <trkpt lat="45.8675" lon="3.66276">
        <ele>643</ele>
        <time>2024-12-08T01:06:29.620Z</time>
      </trkpt>
      <trkpt lat="45.86749" lon="3.66277">
        <ele>643</ele>
        <time>2024-12-08T01:06:30.620Z</time>
      </trkpt>
      <trkpt lat="45.86748" lon="3.66279">
        <ele>643</ele>
        <time>2024-12-08T01:06:31.620Z</time>
      </trkpt>
      <trkpt lat="45.86747" lon="3.66282">
        <ele>643</ele>
        <time>2024-12-08T01:06:32.620Z</time>
      </trkpt>
      <trkpt lat="45.86745" lon="3.66284">
        <ele>643</ele>
        <time>2024-12-08T01:06:33.619Z</time>
      </trkpt>
      <trkpt lat="45.86744" lon="3.66286">
        <ele>643</ele>
        <time>2024-12-08T01:06:34.619Z</time>
      </trkpt>
      <trkpt lat="45.86743" lon="3.66288">
        <ele>643</ele>
        <time>2024-12-08T01:06:35.619Z</time>
      </trkpt>
      <trkpt lat="45.86742" lon="3.6629">
        <ele>643</ele>
        <time>2024-12-08T01:06:36.619Z</time>
      </trkpt>
      <trkpt lat="45.86741" lon="3.66293">
        <ele>643</ele>
        <time>2024-12-08T01:06:37.620Z</time>
      </trkpt>
      <trkpt lat="45.8674" lon="3.66295">
        <ele>643</ele>
        <time>2024-12-08T01:06:38.619Z</time>
      </trkpt>
      <trkpt lat="45.86739" lon="3.66297">
        <ele>643</ele>
        <time>2024-12-08T01:06:39.620Z</time>
      </trkpt>
      <trkpt lat="45.86739" lon="3.66299">
        <ele>642</ele>
        <time>2024-12-08T01:06:40.619Z</time>
      </trkpt>
      <trkpt lat="45.86738" lon="3.66302">
        <ele>642</ele>
        <time>2024-12-08T01:06:41.619Z</time>
      </trkpt>
      <trkpt lat="45.86738" lon="3.66304">
        <ele>642</ele>
        <time>2024-12-08T01:06:42.619Z</time>
      </trkpt>
      <trkpt lat="45.86738" lon="3.66307">
        <ele>642</ele>
        <time>2024-12-08T01:06:43.619Z</time>
      </trkpt>
      <trkpt lat="45.86738" lon="3.66309">
        <ele>642</ele>
        <time>2024-12-08T01:06:44.620Z</time>
      </trkpt>
      <trkpt lat="45.86738" lon="3.66312">
        <ele>642</ele>
        <time>2024-12-08T01:06:45.619Z</time>
      </trkpt>
      <trkpt lat="45.86737" lon="3.66314">
        <ele>642</ele>
        <time>2024-12-08T01:06:46.619Z</time>
      </trkpt>
      <trkpt lat="45.86737" lon="3.66317">
        <ele>642</ele>
        <time>2024-12-08T01:06:47.620Z</time>
      </trkpt>
      <trkpt lat="45.86737" lon="3.66319">
        <ele>642</ele>
        <time>2024-12-08T01:06:48.619Z</time>
      </trkpt>
      <trkpt lat="45.86738" lon="3.66322">
        <ele>642</ele>
        <time>2024-12-08T01:06:49.620Z</time>
      </trkpt>
      <trkpt lat="45.86738" lon="3.66324">
        <ele>642</ele>
        <time>2024-12-08T01:06:50.619Z</time>
      </trkpt>
      <trkpt lat="45.86739" lon="3.66326">
        <ele>642</ele>
        <time>2024-12-08T01:06:51.620Z</time>
      </trkpt>
      <trkpt lat="45.86739" lon="3.66329">
        <ele>642</ele>
        <time>2024-12-08T01:06:52.620Z</time>
      </trkpt>
      <trkpt lat="45.8674" lon="3.66331">
        <ele>641</ele>
        <time>2024-12-08T01:06:53.620Z</time>
      </trkpt>
      <trkpt lat="45.8674" lon="3.66333">
        <ele>641</ele>
        <time>2024-12-08T01:06:54.619Z</time>
      </trkpt>
      <trkpt lat="45.86741" lon="3.66336">
        <ele>641</ele>
        <time>2024-12-08T01:06:55.620Z</time>
      </trkpt>
      <trkpt lat="45.86742" lon="3.66338">
        <ele>641</ele>
        <time>2024-12-08T01:06:56.619Z</time>
      </trkpt>
      <trkpt lat="45.86743" lon="3.6634">
        <ele>641</ele>
        <time>2024-12-08T01:06:57.620Z</time>
      </trkpt>
      <trkpt lat="45.86744" lon="3.66343">
        <ele>641</ele>
        <time>2024-12-08T01:06:58.619Z</time>
      </trkpt>
      <trkpt lat="45.86745" lon="3.66345">
        <ele>641</ele>
        <time>2024-12-08T01:06:59.619Z</time>
      </trkpt>
      <trkpt lat="45.86745" lon="3.66347">
        <ele>641</ele>
        <time>2024-12-08T01:07:00.619Z</time>
      </trkpt>
      <trkpt lat="45.86746" lon="3.66349">
        <ele>641</ele>
        <time>2024-12-08T01:07:01.619Z</time>
      </trkpt>
      <trkpt lat="45.86746" lon="3.66351">
        <ele>641</ele>
        <time>2024-12-08T01:07:02.619Z</time>
      </trkpt>
      <trkpt lat="45.86747" lon="3.66353">
        <ele>641</ele>
        <time>2024-12-08T01:07:03.619Z</time>
      </trkpt>
      <trkpt lat="45.86748" lon="3.66356">
        <ele>642</ele>
        <time>2024-12-08T01:07:04.619Z</time>
      </trkpt>
      <trkpt lat="45.86749" lon="3.66356">
        <ele>642</ele>
        <time>2024-12-08T01:07:05.620Z</time>
      </trkpt>
      <trkpt lat="45.86749" lon="3.66357">
        <ele>642</ele>
        <time>2024-12-08T01:07:06.619Z</time>
      </trkpt>
      <trkpt lat="45.8675" lon="3.66358">
        <ele>642</ele>
        <time>2024-12-08T01:07:07.619Z</time>
      </trkpt>
      <trkpt lat="45.86751" lon="3.66361">
        <ele>642</ele>
        <time>2024-12-08T01:07:08.619Z</time>
      </trkpt>
      <trkpt lat="45.86752" lon="3.66364">
        <ele>642</ele>
        <time>2024-12-08T01:07:09.620Z</time>
      </trkpt>
      <trkpt lat="45.86752" lon="3.66366">
        <ele>643</ele>
        <time>2024-12-08T01:07:10.619Z</time>
      </trkpt>
      <trkpt lat="45.86753" lon="3.66368">
        <ele>643</ele>
        <time>2024-12-08T01:07:11.620Z</time>
      </trkpt>
      <trkpt lat="45.86754" lon="3.66371">
        <ele>643</ele>
        <time>2024-12-08T01:07:12.620Z</time>
      </trkpt>
      <trkpt lat="45.86756" lon="3.66373">
        <ele>643</ele>
        <time>2024-12-08T01:07:13.619Z</time>
      </trkpt>
      <trkpt lat="45.86757" lon="3.66375">
        <ele>643</ele>
        <time>2024-12-08T01:07:14.619Z</time>
      </trkpt>
      <trkpt lat="45.86758" lon="3.66377">
        <ele>643</ele>
        <time>2024-12-08T01:07:15.619Z</time>
      </trkpt>
      <trkpt lat="45.86759" lon="3.66379">
        <ele>643</ele>
        <time>2024-12-08T01:07:16.619Z</time>
      </trkpt>
      <trkpt lat="45.8676" lon="3.66382">
        <ele>644</ele>
        <time>2024-12-08T01:07:17.619Z</time>
      </trkpt>
      <trkpt lat="45.86761" lon="3.66384">
        <ele>644</ele>
        <time>2024-12-08T01:07:18.620Z</time>
      </trkpt>
      <trkpt lat="45.86762" lon="3.66386">
        <ele>644</ele>
        <time>2024-12-08T01:07:19.619Z</time>
      </trkpt>
      <trkpt lat="45.86764" lon="3.66388">
        <ele>644</ele>
        <time>2024-12-08T01:07:20.619Z</time>
      </trkpt>
      <trkpt lat="45.86765" lon="3.66391">
        <ele>644</ele>
        <time>2024-12-08T01:07:21.620Z</time>
      </trkpt>
      <trkpt lat="45.86765" lon="3.66393">
        <ele>644</ele>
        <time>2024-12-08T01:07:22.619Z</time>
      </trkpt>
      <trkpt lat="45.86766" lon="3.66396">
        <ele>645</ele>
        <time>2024-12-08T01:07:23.619Z</time>
      </trkpt>
      <trkpt lat="45.86766" lon="3.66398">
        <ele>645</ele>
        <time>2024-12-08T01:07:24.620Z</time>
      </trkpt>
      <trkpt lat="45.86767" lon="3.66401">
        <ele>645</ele>
        <time>2024-12-08T01:07:25.619Z</time>
      </trkpt>
      <trkpt lat="45.86767" lon="3.66403">
        <ele>645</ele>
        <time>2024-12-08T01:07:26.619Z</time>
      </trkpt>
      <trkpt lat="45.86767" lon="3.66405">
        <ele>645</ele>
        <time>2024-12-08T01:07:27.620Z</time>
      </trkpt>
      <trkpt lat="45.86768" lon="3.66407">
        <ele>645</ele>
        <time>2024-12-08T01:07:28.619Z</time>
      </trkpt>
      <trkpt lat="45.86768" lon="3.66409">
        <ele>645</ele>
        <time>2024-12-08T01:07:29.619Z</time>
      </trkpt>
      <trkpt lat="45.86768" lon="3.66412">
        <ele>645</ele>
        <time>2024-12-08T01:07:30.620Z</time>
      </trkpt>
      <trkpt lat="45.86769" lon="3.66414">
        <ele>645</ele>
        <time>2024-12-08T01:07:31.620Z</time>
      </trkpt>
      <trkpt lat="45.86769" lon="3.66416">
        <ele>646</ele>
        <time>2024-12-08T01:07:32.619Z</time>
      </trkpt>
      <trkpt lat="45.8677" lon="3.66418">
        <ele>646</ele>
        <time>2024-12-08T01:07:33.619Z</time>
      </trkpt>
      <trkpt lat="45.86771" lon="3.66419">
        <ele>646</ele>
        <time>2024-12-08T01:07:34.619Z</time>
      </trkpt>
      <trkpt lat="45.86772" lon="3.66421">
        <ele>647</ele>
        <time>2024-12-08T01:07:35.619Z</time>
      </trkpt>
      <trkpt lat="45.86772" lon="3.66422">
        <ele>647</ele>
        <time>2024-12-08T01:07:36.620Z</time>
      </trkpt>
      <trkpt lat="45.86773" lon="3.66424">
        <ele>648</ele>
        <time>2024-12-08T01:07:37.619Z</time>
      </trkpt>
      <trkpt lat="45.86773" lon="3.66426">
        <ele>648</ele>
        <time>2024-12-08T01:07:38.619Z</time>
      </trkpt>
      <trkpt lat="45.86774" lon="3.66428">
        <ele>648</ele>
        <time>2024-12-08T01:07:39.620Z</time>
      </trkpt>
      <trkpt lat="45.86776" lon="3.66431">
        <ele>649</ele>
        <time>2024-12-08T01:07:40.620Z</time>
      </trkpt>
      <trkpt lat="45.86777" lon="3.66434">
        <ele>649</ele>
        <time>2024-12-08T01:07:41.620Z</time>
      </trkpt>
      <trkpt lat="45.86778" lon="3.66435">
        <ele>649</ele>
        <time>2024-12-08T01:07:42.619Z</time>
      </trkpt>
      <trkpt lat="45.86778" lon="3.66438">
        <ele>649</ele>
        <time>2024-12-08T01:07:43.619Z</time>
      </trkpt>
      <trkpt lat="45.86779" lon="3.6644">
        <ele>649</ele>
        <time>2024-12-08T01:07:44.620Z</time>
      </trkpt>
      <trkpt lat="45.8678" lon="3.66442">
        <ele>650</ele>
        <time>2024-12-08T01:07:45.619Z</time>
      </trkpt>
      <trkpt lat="45.86781" lon="3.66444">
        <ele>650</ele>
        <time>2024-12-08T01:07:46.619Z</time>
      </trkpt>
      <trkpt lat="45.86781" lon="3.66447">
        <ele>650</ele>
        <time>2024-12-08T01:07:47.620Z</time>
      </trkpt>
      <trkpt lat="45.86782" lon="3.66448">
        <ele>650</ele>
        <time>2024-12-08T01:07:48.619Z</time>
      </trkpt>
      <trkpt lat="45.86783" lon="3.6645">
        <ele>650</ele>
        <time>2024-12-08T01:07:49.620Z</time>
      </trkpt>
      <trkpt lat="45.86782" lon="3.66453">
        <ele>650</ele>
        <time>2024-12-08T01:07:50.619Z</time>
      </trkpt>
      <trkpt lat="45.86782" lon="3.66456">
        <ele>650</ele>
        <time>2024-12-08T01:07:51.620Z</time>
      </trkpt>
      <trkpt lat="45.86782" lon="3.6646">
        <ele>650</ele>
        <time>2024-12-08T01:07:52.619Z</time>
      </trkpt>
      <trkpt lat="45.86782" lon="3.66462">
        <ele>649</ele>
        <time>2024-12-08T01:07:53.620Z</time>
      </trkpt>
      <trkpt lat="45.86783" lon="3.66465">
        <ele>649</ele>
        <time>2024-12-08T01:07:54.619Z</time>
      </trkpt>
      <trkpt lat="45.86784" lon="3.66467">
        <ele>649</ele>
        <time>2024-12-08T01:07:55.620Z</time>
      </trkpt>
      <trkpt lat="45.86785" lon="3.6647">
        <ele>649</ele>
        <time>2024-12-08T01:07:56.620Z</time>
      </trkpt>
      <trkpt lat="45.86786" lon="3.66472">
        <ele>648</ele>
        <time>2024-12-08T01:07:57.619Z</time>
      </trkpt>
      <trkpt lat="45.86787" lon="3.66474">
        <ele>648</ele>
        <time>2024-12-08T01:07:58.620Z</time>
      </trkpt>
      <trkpt lat="45.86788" lon="3.66477">
        <ele>648</ele>
        <time>2024-12-08T01:07:59.619Z</time>
      </trkpt>
      <trkpt lat="45.86789" lon="3.66479">
        <ele>648</ele>
        <time>2024-12-08T01:08:00.619Z</time>
      </trkpt>
      <trkpt lat="45.86789" lon="3.66481">
        <ele>648</ele>
        <time>2024-12-08T01:08:01.619Z</time>
      </trkpt>
      <trkpt lat="45.86789" lon="3.66483">
        <ele>648</ele>
        <time>2024-12-08T01:08:02.620Z</time>
      </trkpt>
      <trkpt lat="45.86789" lon="3.66485">
        <ele>648</ele>
        <time>2024-12-08T01:08:03.619Z</time>
      </trkpt>
      <trkpt lat="45.86789" lon="3.66488">
        <ele>648</ele>
        <time>2024-12-08T01:08:04.619Z</time>
      </trkpt>
      <trkpt lat="45.86789" lon="3.66491">
        <ele>648</ele>
        <time>2024-12-08T01:08:05.619Z</time>
      </trkpt>
      <trkpt lat="45.86788" lon="3.66494">
        <ele>648</ele>
        <time>2024-12-08T01:08:06.620Z</time>
      </trkpt>
      <trkpt lat="45.86787" lon="3.66498">
        <ele>648</ele>
        <time>2024-12-08T01:08:07.620Z</time>
      </trkpt>
      <trkpt lat="45.86785" lon="3.66501">
        <ele>649</ele>
        <time>2024-12-08T01:08:08.620Z</time>
      </trkpt>
      <trkpt lat="45.86783" lon="3.66503">
        <ele>649</ele>
        <time>2024-12-08T01:08:09.619Z</time>
      </trkpt>
      <trkpt lat="45.86781" lon="3.66505">
        <ele>649</ele>
        <time>2024-12-08T01:08:10.619Z</time>
      </trkpt>
      <trkpt lat="45.8678" lon="3.66506">
        <ele>649</ele>
        <time>2024-12-08T01:08:11.619Z</time>
      </trkpt>
      <trkpt lat="45.86779" lon="3.66507">
        <ele>649</ele>
        <time>2024-12-08T01:08:12.619Z</time>
      </trkpt>
      <trkpt lat="45.86777" lon="3.66509">
        <ele>649</ele>
        <time>2024-12-08T01:08:13.620Z</time>
      </trkpt>
      <trkpt lat="45.86777" lon="3.66511">
        <ele>649</ele>
        <time>2024-12-08T01:08:14.619Z</time>
      </trkpt>
      <trkpt lat="45.86777" lon="3.66513">
        <ele>650</ele>
        <time>2024-12-08T01:08:15.620Z</time>
      </trkpt>
      <trkpt lat="45.86776" lon="3.66516">
        <ele>650</ele>
        <time>2024-12-08T01:08:16.619Z</time>
      </trkpt>
      <trkpt lat="45.86775" lon="3.66519">
        <ele>650</ele>
        <time>2024-12-08T01:08:17.619Z</time>
      </trkpt>
      <trkpt lat="45.86774" lon="3.66521">
        <ele>650</ele>
        <time>2024-12-08T01:08:18.619Z</time>
      </trkpt>
      <trkpt lat="45.86773" lon="3.66523">
        <ele>650</ele>
        <time>2024-12-08T01:08:19.619Z</time>
      </trkpt>
      <trkpt lat="45.86772" lon="3.66525">
        <ele>650</ele>
        <time>2024-12-08T01:08:20.619Z</time>
      </trkpt>
      <trkpt lat="45.86771" lon="3.66527">
        <ele>651</ele>
        <time>2024-12-08T01:08:21.620Z</time>
      </trkpt>
      <trkpt lat="45.8677" lon="3.66529">
        <ele>651</ele>
        <time>2024-12-08T01:08:22.619Z</time>
      </trkpt>
      <trkpt lat="45.86768" lon="3.66531">
        <ele>651</ele>
        <time>2024-12-08T01:08:23.620Z</time>
      </trkpt>
      <trkpt lat="45.86767" lon="3.66534">
        <ele>652</ele>
        <time>2024-12-08T01:08:24.620Z</time>
      </trkpt>
      <trkpt lat="45.86766" lon="3.66536">
        <ele>652</ele>
        <time>2024-12-08T01:08:25.619Z</time>
      </trkpt>
      <trkpt lat="45.86766" lon="3.66538">
        <ele>652</ele>
        <time>2024-12-08T01:08:26.619Z</time>
      </trkpt>
      <trkpt lat="45.86766" lon="3.6654">
        <ele>653</ele>
        <time>2024-12-08T01:08:27.620Z</time>
      </trkpt>
      <trkpt lat="45.86766" lon="3.66543">
        <ele>653</ele>
        <time>2024-12-08T01:08:28.620Z</time>
      </trkpt>
      <trkpt lat="45.86766" lon="3.66545">
        <ele>654</ele>
        <time>2024-12-08T01:08:29.619Z</time>
      </trkpt>
      <trkpt lat="45.86767" lon="3.66547">
        <ele>654</ele>
        <time>2024-12-08T01:08:30.620Z</time>
      </trkpt>
      <trkpt lat="45.86766" lon="3.66549">
        <ele>655</ele>
        <time>2024-12-08T01:08:31.619Z</time>
      </trkpt>
      <trkpt lat="45.86766" lon="3.66551">
        <ele>655</ele>
        <time>2024-12-08T01:08:32.619Z</time>
      </trkpt>
      <trkpt lat="45.86766" lon="3.66554">
        <ele>656</ele>
        <time>2024-12-08T01:08:33.619Z</time>
      </trkpt>
      <trkpt lat="45.86766" lon="3.66557">
        <ele>656</ele>
        <time>2024-12-08T01:08:34.619Z</time>
      </trkpt>
      <trkpt lat="45.86767" lon="3.66559">
        <ele>657</ele>
        <time>2024-12-08T01:08:35.619Z</time>
      </trkpt>
      <trkpt lat="45.86767" lon="3.66561">
        <ele>657</ele>
        <time>2024-12-08T01:08:36.620Z</time>
      </trkpt>
      <trkpt lat="45.86768" lon="3.66564">
        <ele>657</ele>
        <time>2024-12-08T01:08:37.619Z</time>
      </trkpt>
      <trkpt lat="45.86769" lon="3.66568">
        <ele>658</ele>
        <time>2024-12-08T01:08:38.620Z</time>
      </trkpt>
      <trkpt lat="45.8677" lon="3.66571">
        <ele>658</ele>
        <time>2024-12-08T01:08:39.619Z</time>
      </trkpt>
      <trkpt lat="45.8677" lon="3.66574">
        <ele>658</ele>
        <time>2024-12-08T01:08:40.620Z</time>
      </trkpt>
      <trkpt lat="45.86771" lon="3.66578">
        <ele>659</ele>
        <time>2024-12-08T01:08:41.619Z</time>
      </trkpt>
      <trkpt lat="45.86771" lon="3.66581">
        <ele>659</ele>
        <time>2024-12-08T01:08:42.620Z</time>
      </trkpt>
      <trkpt lat="45.86771" lon="3.66585">
        <ele>660</ele>
        <time>2024-12-08T01:08:43.619Z</time>
      </trkpt>
      <trkpt lat="45.86772" lon="3.66588">
        <ele>660</ele>
        <time>2024-12-08T01:08:44.620Z</time>
      </trkpt>
      <trkpt lat="45.86773" lon="3.6659">
        <ele>660</ele>
        <time>2024-12-08T01:08:45.620Z</time>
      </trkpt>
      <trkpt lat="45.86774" lon="3.66591">
        <ele>660</ele>
        <time>2024-12-08T01:08:46.620Z</time>
      </trkpt>
      <trkpt lat="45.86776" lon="3.66593">
        <ele>660</ele>
        <time>2024-12-08T01:08:47.620Z</time>
      </trkpt>
      <trkpt lat="45.86778" lon="3.66595">
        <ele>660</ele>
        <time>2024-12-08T01:08:48.620Z</time>
      </trkpt>
      <trkpt lat="45.86779" lon="3.66596">
        <ele>660</ele>
        <time>2024-12-08T01:08:49.619Z</time>
      </trkpt>
      <trkpt lat="45.8678" lon="3.66598">
        <ele>659</ele>
        <time>2024-12-08T01:08:50.620Z</time>
      </trkpt>
      <trkpt lat="45.86781" lon="3.66601">
        <ele>659</ele>
        <time>2024-12-08T01:08:51.620Z</time>
      </trkpt>
      <trkpt lat="45.86781" lon="3.66604">
        <ele>659</ele>
        <time>2024-12-08T01:08:52.620Z</time>
      </trkpt>
      <trkpt lat="45.86781" lon="3.66607">
        <ele>658</ele>
        <time>2024-12-08T01:08:53.620Z</time>
      </trkpt>
      <trkpt lat="45.86781" lon="3.6661">
        <ele>658</ele>
        <time>2024-12-08T01:08:54.619Z</time>
      </trkpt>
      <trkpt lat="45.86782" lon="3.66613">
        <ele>658</ele>
        <time>2024-12-08T01:08:55.620Z</time>
      </trkpt>
      <trkpt lat="45.86783" lon="3.66615">
        <ele>657</ele>
        <time>2024-12-08T01:08:56.619Z</time>
      </trkpt>
      <trkpt lat="45.86784" lon="3.66619">
        <ele>657</ele>
        <time>2024-12-08T01:08:57.620Z</time>
      </trkpt>
      <trkpt lat="45.86786" lon="3.66621">
        <ele>657</ele>
        <time>2024-12-08T01:08:58.619Z</time>
      </trkpt>
      <trkpt lat="45.86786" lon="3.66624">
        <ele>657</ele>
        <time>2024-12-08T01:08:59.620Z</time>
      </trkpt>
      <trkpt lat="45.86786" lon="3.66628">
        <ele>656</ele>
        <time>2024-12-08T01:09:00.619Z</time>
      </trkpt>
      <trkpt lat="45.86787" lon="3.6663">
        <ele>656</ele>
        <time>2024-12-08T01:09:01.619Z</time>
      </trkpt>
      <trkpt lat="45.86788" lon="3.6663">
        <ele>656</ele>
        <time>2024-12-08T01:09:02.620Z</time>
      </trkpt>
      <trkpt lat="45.86788" lon="3.66632">
        <ele>656</ele>
        <time>2024-12-08T01:09:03.619Z</time>
      </trkpt>
      <trkpt lat="45.86789" lon="3.66633">
        <ele>656</ele>
        <time>2024-12-08T01:09:04.619Z</time>
      </trkpt>
      <trkpt lat="45.8679" lon="3.66635">
        <ele>655</ele>
        <time>2024-12-08T01:09:05.620Z</time>
      </trkpt>
      <trkpt lat="45.8679" lon="3.66638">
        <ele>654</ele>
        <time>2024-12-08T01:09:06.620Z</time>
      </trkpt>
      <trkpt lat="45.8679" lon="3.6664">
        <ele>653</ele>
        <time>2024-12-08T01:09:07.619Z</time>
      </trkpt>
      <trkpt lat="45.86791" lon="3.66643">
        <ele>653</ele>
        <time>2024-12-08T01:09:08.620Z</time>
      </trkpt>
      <trkpt lat="45.86791" lon="3.66646">
        <ele>652</ele>
        <time>2024-12-08T01:09:09.620Z</time>
      </trkpt>
      <trkpt lat="45.86791" lon="3.66648">
        <ele>651</ele>
        <time>2024-12-08T01:09:10.619Z</time>
      </trkpt>
      <trkpt lat="45.86792" lon="3.6665">
        <ele>651</ele>
        <time>2024-12-08T01:09:11.619Z</time>
      </trkpt>
      <trkpt lat="45.86792" lon="3.66651">
        <ele>650</ele>
        <time>2024-12-08T01:09:12.620Z</time>
      </trkpt>
      <trkpt lat="45.86793" lon="3.66654">
        <ele>649</ele>
        <time>2024-12-08T01:09:13.619Z</time>
      </trkpt>
      <trkpt lat="45.86793" lon="3.66656">
        <ele>649</ele>
        <time>2024-12-08T01:09:14.620Z</time>
      </trkpt>
      <trkpt lat="45.86795" lon="3.66657">
        <ele>649</ele>
        <time>2024-12-08T01:09:15.619Z</time>
      </trkpt>
      <trkpt lat="45.86796" lon="3.66658">
        <ele>648</ele>
        <time>2024-12-08T01:09:16.619Z</time>
      </trkpt>
      <trkpt lat="45.86796" lon="3.66659">
        <ele>647</ele>
        <time>2024-12-08T01:09:17.619Z</time>
      </trkpt>
      <trkpt lat="45.86797" lon="3.66661">
        <ele>647</ele>
        <time>2024-12-08T01:09:18.620Z</time>
      </trkpt>
      <trkpt lat="45.86798" lon="3.66663">
        <ele>646</ele>
        <time>2024-12-08T01:09:19.619Z</time>
      </trkpt>
      <trkpt lat="45.86799" lon="3.66665">
        <ele>646</ele>
        <time>2024-12-08T01:09:20.620Z</time>
      </trkpt>
      <trkpt lat="45.868" lon="3.66666">
        <ele>645</ele>
        <time>2024-12-08T01:09:21.619Z</time>
      </trkpt>
      <trkpt lat="45.868" lon="3.66668">
        <ele>645</ele>
        <time>2024-12-08T01:09:22.620Z</time>
      </trkpt>
      <trkpt lat="45.868" lon="3.6667">
        <ele>644</ele>
        <time>2024-12-08T01:09:23.619Z</time>
      </trkpt>
      <trkpt lat="45.86801" lon="3.66673">
        <ele>644</ele>
        <time>2024-12-08T01:09:24.619Z</time>
      </trkpt>
      <trkpt lat="45.86801" lon="3.66676">
        <ele>644</ele>
        <time>2024-12-08T01:09:25.619Z</time>
      </trkpt>
      <trkpt lat="45.86802" lon="3.66678">
        <ele>644</ele>
        <time>2024-12-08T01:09:26.620Z</time>
      </trkpt>
      <trkpt lat="45.86802" lon="3.66681">
        <ele>644</ele>
        <time>2024-12-08T01:09:27.620Z</time>
      </trkpt>
      <trkpt lat="45.86803" lon="3.66683">
        <ele>645</ele>
        <time>2024-12-08T01:09:28.620Z</time>
      </trkpt>
      <trkpt lat="45.86803" lon="3.66685">
        <ele>645</ele>
        <time>2024-12-08T01:09:29.620Z</time>
      </trkpt>
      <trkpt lat="45.86803" lon="3.66687">
        <ele>645</ele>
        <time>2024-12-08T01:09:30.620Z</time>
      </trkpt>
      <trkpt lat="45.86804" lon="3.66688">
        <ele>646</ele>
        <time>2024-12-08T01:09:31.620Z</time>
      </trkpt>
      <trkpt lat="45.86804" lon="3.6669">
        <ele>646</ele>
        <time>2024-12-08T01:09:32.619Z</time>
      </trkpt>
      <trkpt lat="45.86805" lon="3.66692">
        <ele>646</ele>
        <time>2024-12-08T01:09:33.620Z</time>
      </trkpt>
      <trkpt lat="45.86805" lon="3.66694">
        <ele>646</ele>
        <time>2024-12-08T01:09:34.619Z</time>
      </trkpt>
      <trkpt lat="45.86806" lon="3.66697">
        <ele>646</ele>
        <time>2024-12-08T01:09:35.620Z</time>
      </trkpt>
      <trkpt lat="45.86806" lon="3.66698">
        <ele>646</ele>
        <time>2024-12-08T01:09:36.619Z</time>
      </trkpt>
      <trkpt lat="45.86807" lon="3.667">
        <ele>646</ele>
        <time>2024-12-08T01:09:37.619Z</time>
      </trkpt>
      <trkpt lat="45.86807" lon="3.66701">
        <ele>646</ele>
        <time>2024-12-08T01:09:38.619Z</time>
      </trkpt>
      <trkpt lat="45.86807" lon="3.66703">
        <ele>647</ele>
        <time>2024-12-08T01:09:39.619Z</time>
      </trkpt>
      <trkpt lat="45.86807" lon="3.66705">
        <ele>647</ele>
        <time>2024-12-08T01:09:40.620Z</time>
      </trkpt>
      <trkpt lat="45.86806" lon="3.66708">
        <ele>647</ele>
        <time>2024-12-08T01:09:41.620Z</time>
      </trkpt>
      <trkpt lat="45.86805" lon="3.6671">
        <ele>648</ele>
        <time>2024-12-08T01:09:42.620Z</time>
      </trkpt>
      <trkpt lat="45.86805" lon="3.66714">
        <ele>648</ele>
        <time>2024-12-08T01:09:43.619Z</time>
      </trkpt>
      <trkpt lat="45.86804" lon="3.66716">
        <ele>649</ele>
        <time>2024-12-08T01:09:44.619Z</time>
      </trkpt>
      <trkpt lat="45.86803" lon="3.66718">
        <ele>649</ele>
        <time>2024-12-08T01:09:45.619Z</time>
      </trkpt>
      <trkpt lat="45.86802" lon="3.6672">
        <ele>650</ele>
        <time>2024-12-08T01:09:46.619Z</time>
      </trkpt>
      <trkpt lat="45.868" lon="3.66722">
        <ele>650</ele>
        <time>2024-12-08T01:09:47.620Z</time>
      </trkpt>
      <trkpt lat="45.868" lon="3.66724">
        <ele>650</ele>
        <time>2024-12-08T01:09:48.619Z</time>
      </trkpt>
      <trkpt lat="45.86799" lon="3.66726">
        <ele>651</ele>
        <time>2024-12-08T01:09:49.619Z</time>
      </trkpt>
      <trkpt lat="45.86798" lon="3.66728">
        <ele>651</ele>
        <time>2024-12-08T01:09:50.619Z</time>
      </trkpt>
      <trkpt lat="45.86798" lon="3.6673">
        <ele>651</ele>
        <time>2024-12-08T01:09:51.619Z</time>
      </trkpt>
      <trkpt lat="45.86798" lon="3.66731">
        <ele>652</ele>
        <time>2024-12-08T01:09:52.619Z</time>
      </trkpt>
      <trkpt lat="45.86798" lon="3.66733">
        <ele>652</ele>
        <time>2024-12-08T01:09:53.619Z</time>
      </trkpt>
      <trkpt lat="45.86797" lon="3.66734">
        <ele>652</ele>
        <time>2024-12-08T01:09:54.619Z</time>
      </trkpt>
      <trkpt lat="45.86798" lon="3.66736">
        <ele>652</ele>
        <time>2024-12-08T01:09:55.620Z</time>
      </trkpt>
      <trkpt lat="45.86798" lon="3.66738">
        <ele>652</ele>
        <time>2024-12-08T01:09:56.619Z</time>
      </trkpt>
      <trkpt lat="45.86798" lon="3.6674">
        <ele>652</ele>
        <time>2024-12-08T01:09:57.619Z</time>
      </trkpt>
      <trkpt lat="45.86799" lon="3.66742">
        <ele>652</ele>
        <time>2024-12-08T01:09:58.619Z</time>
      </trkpt>
      <trkpt lat="45.86799" lon="3.66744">
        <ele>652</ele>
        <time>2024-12-08T01:09:59.619Z</time>
      </trkpt>
      <trkpt lat="45.86799" lon="3.66745">
        <ele>653</ele>
        <time>2024-12-08T01:10:00.620Z</time>
      </trkpt>
      <trkpt lat="45.868" lon="3.66747">
        <ele>653</ele>
        <time>2024-12-08T01:10:01.619Z</time>
      </trkpt>
      <trkpt lat="45.86801" lon="3.66749">
        <ele>653</ele>
        <time>2024-12-08T01:10:02.619Z</time>
      </trkpt>
      <trkpt lat="45.86802" lon="3.66751">
        <ele>653</ele>
        <time>2024-12-08T01:10:03.619Z</time>
      </trkpt>
      <trkpt lat="45.86801" lon="3.66752">
        <ele>653</ele>
        <time>2024-12-08T01:10:04.620Z</time>
      </trkpt>
      <trkpt lat="45.86801" lon="3.66754">
        <ele>653</ele>
        <time>2024-12-08T01:10:05.619Z</time>
      </trkpt>
      <trkpt lat="45.86798" lon="3.66758">
        <ele>653</ele>
        <time>2024-12-08T01:10:06.620Z</time>
      </trkpt>
      <trkpt lat="45.86796" lon="3.6676">
        <ele>653</ele>
        <time>2024-12-08T01:10:07.619Z</time>
      </trkpt>
      <trkpt lat="45.86795" lon="3.66762">
        <ele>653</ele>
        <time>2024-12-08T01:10:08.619Z</time>
      </trkpt>
      <trkpt lat="45.86795" lon="3.66764">
        <ele>653</ele>
        <time>2024-12-08T01:10:09.620Z</time>
      </trkpt>
      <trkpt lat="45.86794" lon="3.66767">
        <ele>653</ele>
        <time>2024-12-08T01:10:10.619Z</time>
      </trkpt>
      <trkpt lat="45.86794" lon="3.66771">
        <ele>653</ele>
        <time>2024-12-08T01:10:11.620Z</time>
      </trkpt>
      <trkpt lat="45.86793" lon="3.66774">
        <ele>654</ele>
        <time>2024-12-08T01:10:12.619Z</time>
      </trkpt>
      <trkpt lat="45.86793" lon="3.66776">
        <ele>654</ele>
        <time>2024-12-08T01:10:13.619Z</time>
      </trkpt>
      <trkpt lat="45.86793" lon="3.66778">
        <ele>654</ele>
        <time>2024-12-08T01:10:14.619Z</time>
      </trkpt>
      <trkpt lat="45.86793" lon="3.6678">
        <ele>655</ele>
        <time>2024-12-08T01:10:15.619Z</time>
      </trkpt>
      <trkpt lat="45.86792" lon="3.66783">
        <ele>655</ele>
        <time>2024-12-08T01:10:16.620Z</time>
      </trkpt>
      <trkpt lat="45.86792" lon="3.66784">
        <ele>655</ele>
        <time>2024-12-08T01:10:17.619Z</time>
      </trkpt>
      <trkpt lat="45.86792" lon="3.66786">
        <ele>656</ele>
        <time>2024-12-08T01:10:18.619Z</time>
      </trkpt>
      <trkpt lat="45.86792" lon="3.66788">
        <ele>656</ele>
        <time>2024-12-08T01:10:19.619Z</time>
      </trkpt>
      <trkpt lat="45.86791" lon="3.66791">
        <ele>656</ele>
        <time>2024-12-08T01:10:20.620Z</time>
      </trkpt>
      <trkpt lat="45.8679" lon="3.66794">
        <ele>657</ele>
        <time>2024-12-08T01:10:21.619Z</time>
      </trkpt>
      <trkpt lat="45.8679" lon="3.66796">
        <ele>657</ele>
        <time>2024-12-08T01:10:22.619Z</time>
      </trkpt>
      <trkpt lat="45.86791" lon="3.66799">
        <ele>657</ele>
        <time>2024-12-08T01:10:23.619Z</time>
      </trkpt>
      <trkpt lat="45.86792" lon="3.66801">
        <ele>657</ele>
        <time>2024-12-08T01:10:24.620Z</time>
      </trkpt>
      <trkpt lat="45.86792" lon="3.66804">
        <ele>658</ele>
        <time>2024-12-08T01:10:25.620Z</time>
      </trkpt>
      <trkpt lat="45.86793" lon="3.66805">
        <ele>658</ele>
        <time>2024-12-08T01:10:26.619Z</time>
      </trkpt>
      <trkpt lat="45.86793" lon="3.66808">
        <ele>659</ele>
        <time>2024-12-08T01:10:27.619Z</time>
      </trkpt>
      <trkpt lat="45.86792" lon="3.6681">
        <ele>659</ele>
        <time>2024-12-08T01:10:28.620Z</time>
      </trkpt>
      <trkpt lat="45.86793" lon="3.66812">
        <ele>659</ele>
        <time>2024-12-08T01:10:29.620Z</time>
      </trkpt>
      <trkpt lat="45.86795" lon="3.66817">
        <ele>660</ele>
        <time>2024-12-08T01:10:30.620Z</time>
      </trkpt>
      <trkpt lat="45.86797" lon="3.66821">
        <ele>660</ele>
        <time>2024-12-08T01:10:31.619Z</time>
      </trkpt>
      <trkpt lat="45.86798" lon="3.66822">
        <ele>660</ele>
        <time>2024-12-08T01:10:32.620Z</time>
      </trkpt>
      <trkpt lat="45.86799" lon="3.66823">
        <ele>660</ele>
        <time>2024-12-08T01:10:33.620Z</time>
      </trkpt>
      <trkpt lat="45.868" lon="3.66824">
        <ele>660</ele>
        <time>2024-12-08T01:10:34.620Z</time>
      </trkpt>
      <trkpt lat="45.86801" lon="3.66826">
        <ele>660</ele>
        <time>2024-12-08T01:10:35.620Z</time>
      </trkpt>
      <trkpt lat="45.86802" lon="3.66828">
        <ele>660</ele>
        <time>2024-12-08T01:10:36.619Z</time>
      </trkpt>
      <trkpt lat="45.86802" lon="3.66831">
        <ele>660</ele>
        <time>2024-12-08T01:10:37.620Z</time>
      </trkpt>
      <trkpt lat="45.86802" lon="3.66833">
        <ele>660</ele>
        <time>2024-12-08T01:10:38.619Z</time>
      </trkpt>
      <trkpt lat="45.86802" lon="3.66835">
        <ele>660</ele>
        <time>2024-12-08T01:10:39.619Z</time>
      </trkpt>
      <trkpt lat="45.86802" lon="3.66838">
        <ele>660</ele>
        <time>2024-12-08T01:10:40.620Z</time>
      </trkpt>
      <trkpt lat="45.86802" lon="3.6684">
        <ele>660</ele>
        <time>2024-12-08T01:10:41.620Z</time>
      </trkpt>
      <trkpt lat="45.86801" lon="3.66842">
        <ele>660</ele>
        <time>2024-12-08T01:10:42.620Z</time>
      </trkpt>
      <trkpt lat="45.868" lon="3.66844">
        <ele>660</ele>
        <time>2024-12-08T01:10:43.619Z</time>
      </trkpt>
      <trkpt lat="45.868" lon="3.66848">
        <ele>660</ele>
        <time>2024-12-08T01:10:44.620Z</time>
      </trkpt>
      <trkpt lat="45.868" lon="3.6685">
        <ele>660</ele>
        <time>2024-12-08T01:10:45.619Z</time>
      </trkpt>
      <trkpt lat="45.868" lon="3.66853">
        <ele>660</ele>
        <time>2024-12-08T01:10:46.620Z</time>
      </trkpt>
      <trkpt lat="45.86799" lon="3.66857">
        <ele>660</ele>
        <time>2024-12-08T01:10:47.619Z</time>
      </trkpt>
      <trkpt lat="45.86798" lon="3.66862">
        <ele>660</ele>
        <time>2024-12-08T01:10:48.619Z</time>
      </trkpt>
      <trkpt lat="45.86798" lon="3.66865">
        <ele>660</ele>
        <time>2024-12-08T01:10:49.619Z</time>
      </trkpt>
      <trkpt lat="45.86798" lon="3.66869">
        <ele>660</ele>
        <time>2024-12-08T01:10:50.619Z</time>
      </trkpt>
      <trkpt lat="45.86798" lon="3.66871">
        <ele>660</ele>
        <time>2024-12-08T01:10:51.619Z</time>
      </trkpt>
      <trkpt lat="45.86799" lon="3.66872">
        <ele>660</ele>
        <time>2024-12-08T01:10:52.619Z</time>
      </trkpt>
      <trkpt lat="45.86799" lon="3.66874">
        <ele>659</ele>
        <time>2024-12-08T01:10:53.620Z</time>
      </trkpt>
      <trkpt lat="45.86798" lon="3.66876">
        <ele>659</ele>
        <time>2024-12-08T01:10:54.619Z</time>
      </trkpt>
      <trkpt lat="45.86797" lon="3.66879">
        <ele>659</ele>
        <time>2024-12-08T01:10:55.620Z</time>
      </trkpt>
      <trkpt lat="45.86797" lon="3.66881">
        <ele>660</ele>
        <time>2024-12-08T01:10:56.619Z</time>
      </trkpt>
      <trkpt lat="45.86797" lon="3.66883">
        <ele>660</ele>
        <time>2024-12-08T01:10:57.619Z</time>
      </trkpt>
      <trkpt lat="45.86797" lon="3.66886">
        <ele>660</ele>
        <time>2024-12-08T01:10:58.619Z</time>
      </trkpt>
      <trkpt lat="45.86798" lon="3.66887">
        <ele>660</ele>
        <time>2024-12-08T01:10:59.620Z</time>
      </trkpt>
      <trkpt lat="45.86798" lon="3.66889">
        <ele>660</ele>
        <time>2024-12-08T01:11:00.620Z</time>
      </trkpt>
      <trkpt lat="45.86798" lon="3.66893">
        <ele>659</ele>
        <time>2024-12-08T01:11:01.620Z</time>
      </trkpt>
      <trkpt lat="45.86799" lon="3.66897">
        <ele>659</ele>
        <time>2024-12-08T01:11:02.620Z</time>
      </trkpt>
      <trkpt lat="45.868" lon="3.669">
        <ele>659</ele>
        <time>2024-12-08T01:11:03.619Z</time>
      </trkpt>
      <trkpt lat="45.86802" lon="3.66902">
        <ele>659</ele>
        <time>2024-12-08T01:11:04.620Z</time>
      </trkpt>
      <trkpt lat="45.86803" lon="3.66905">
        <ele>659</ele>
        <time>2024-12-08T01:11:05.619Z</time>
      </trkpt>
      <trkpt lat="45.86805" lon="3.66908">
        <ele>659</ele>
        <time>2024-12-08T01:11:06.620Z</time>
      </trkpt>
      <trkpt lat="45.86807" lon="3.66912">
        <ele>659</ele>
        <time>2024-12-08T01:11:07.619Z</time>
      </trkpt>
      <trkpt lat="45.86808" lon="3.66915">
        <ele>659</ele>
        <time>2024-12-08T01:11:08.619Z</time>
      </trkpt>
      <trkpt lat="45.86807" lon="3.66919">
        <ele>659</ele>
        <time>2024-12-08T01:11:09.619Z</time>
      </trkpt>
      <trkpt lat="45.86806" lon="3.66923">
        <ele>659</ele>
        <time>2024-12-08T01:11:10.620Z</time>
      </trkpt>
      <trkpt lat="45.86807" lon="3.66928">
        <ele>659</ele>
        <time>2024-12-08T01:11:11.619Z</time>
      </trkpt>
      <trkpt lat="45.86808" lon="3.66929">
        <ele>659</ele>
        <time>2024-12-08T01:11:12.620Z</time>
      </trkpt>
      <trkpt lat="45.86808" lon="3.66931">
        <ele>658</ele>
        <time>2024-12-08T01:11:13.620Z</time>
      </trkpt>
      <trkpt lat="45.86807" lon="3.66934">
        <ele>658</ele>
        <time>2024-12-08T01:11:14.619Z</time>
      </trkpt>
      <trkpt lat="45.86803" lon="3.66939">
        <ele>658</ele>
        <time>2024-12-08T01:11:15.620Z</time>
      </trkpt>
      <trkpt lat="45.86802" lon="3.6694">
        <ele>658</ele>
        <time>2024-12-08T01:11:16.619Z</time>
      </trkpt>
      <trkpt lat="45.86802" lon="3.66941">
        <ele>658</ele>
        <time>2024-12-08T01:11:17.620Z</time>
      </trkpt>
      <trkpt lat="45.86803" lon="3.66941">
        <ele>658</ele>
        <time>2024-12-08T01:11:18.619Z</time>
      </trkpt>
      <trkpt lat="45.86804" lon="3.6694">
        <ele>658</ele>
        <time>2024-12-08T01:11:19.620Z</time>
      </trkpt>
      <trkpt lat="45.86804" lon="3.66941">
        <ele>658</ele>
        <time>2024-12-08T01:11:20.619Z</time>
      </trkpt>
      <trkpt lat="45.86803" lon="3.66943">
        <ele>658</ele>
        <time>2024-12-08T01:11:21.620Z</time>
      </trkpt>
      <trkpt lat="45.86802" lon="3.66945">
        <ele>658</ele>
        <time>2024-12-08T01:11:22.619Z</time>
      </trkpt>
      <trkpt lat="45.86802" lon="3.66948">
        <ele>658</ele>
        <time>2024-12-08T01:11:23.619Z</time>
      </trkpt>
      <trkpt lat="45.86802" lon="3.6695">
        <ele>658</ele>
        <time>2024-12-08T01:11:24.620Z</time>
      </trkpt>
      <trkpt lat="45.86801" lon="3.66952">
        <ele>658</ele>
        <time>2024-12-08T01:11:25.619Z</time>
      </trkpt>
      <trkpt lat="45.868" lon="3.66954">
        <ele>658</ele>
        <time>2024-12-08T01:11:26.619Z</time>
      </trkpt>
      <trkpt lat="45.86799" lon="3.66955">
        <ele>658</ele>
        <time>2024-12-08T01:11:27.619Z</time>
      </trkpt>
      <trkpt lat="45.86798" lon="3.66956">
        <ele>658</ele>
        <time>2024-12-08T01:11:28.619Z</time>
      </trkpt>
      <trkpt lat="45.86796" lon="3.66958">
        <ele>658</ele>
        <time>2024-12-08T01:11:29.619Z</time>
      </trkpt>
      <trkpt lat="45.86795" lon="3.6696">
        <ele>658</ele>
        <time>2024-12-08T01:11:30.619Z</time>
      </trkpt>
      <trkpt lat="45.86795" lon="3.66963">
        <ele>658</ele>
        <time>2024-12-08T01:11:31.619Z</time>
      </trkpt>
      <trkpt lat="45.86795" lon="3.66964">
        <ele>658</ele>
        <time>2024-12-08T01:11:32.619Z</time>
      </trkpt>
      <trkpt lat="45.86795" lon="3.66966">
        <ele>658</ele>
        <time>2024-12-08T01:11:33.619Z</time>
      </trkpt>
      <trkpt lat="45.86795" lon="3.66968">
        <ele>658</ele>
        <time>2024-12-08T01:11:34.619Z</time>
      </trkpt>
      <trkpt lat="45.86795" lon="3.66971">
        <ele>658</ele>
        <time>2024-12-08T01:11:35.619Z</time>
      </trkpt>
      <trkpt lat="45.86794" lon="3.66974">
        <ele>658</ele>
        <time>2024-12-08T01:11:36.620Z</time>
      </trkpt>
      <trkpt lat="45.86793" lon="3.66976">
        <ele>658</ele>
        <time>2024-12-08T01:11:37.620Z</time>
      </trkpt>
      <trkpt lat="45.86791" lon="3.66978">
        <ele>658</ele>
        <time>2024-12-08T01:11:38.620Z</time>
      </trkpt>
      <trkpt lat="45.8679" lon="3.6698">
        <ele>659</ele>
        <time>2024-12-08T01:11:39.619Z</time>
      </trkpt>
      <trkpt lat="45.86789" lon="3.66982">
        <ele>659</ele>
        <time>2024-12-08T01:11:40.620Z</time>
      </trkpt>
      <trkpt lat="45.86789" lon="3.66984">
        <ele>659</ele>
        <time>2024-12-08T01:11:41.619Z</time>
      </trkpt>
      <trkpt lat="45.86788" lon="3.66986">
        <ele>659</ele>
        <time>2024-12-08T01:11:42.620Z</time>
      </trkpt>
      <trkpt lat="45.86787" lon="3.66989">
        <ele>659</ele>
        <time>2024-12-08T01:11:43.619Z</time>
      </trkpt>
      <trkpt lat="45.86786" lon="3.66992">
        <ele>659</ele>
        <time>2024-12-08T01:11:44.620Z</time>
      </trkpt>
      <trkpt lat="45.86785" lon="3.66995">
        <ele>659</ele>
        <time>2024-12-08T01:11:45.619Z</time>
      </trkpt>
      <trkpt lat="45.86784" lon="3.66997">
        <ele>659</ele>
        <time>2024-12-08T01:11:46.620Z</time>
      </trkpt>
      <trkpt lat="45.86784" lon="3.67">
        <ele>659</ele>
        <time>2024-12-08T01:11:47.619Z</time>
      </trkpt>
      <trkpt lat="45.86783" lon="3.67003">
        <ele>660</ele>
        <time>2024-12-08T01:11:48.619Z</time>
      </trkpt>
      <trkpt lat="45.86782" lon="3.67005">
        <ele>660</ele>
        <time>2024-12-08T01:11:49.620Z</time>
      </trkpt>
      <trkpt lat="45.86782" lon="3.67007">
        <ele>660</ele>
        <time>2024-12-08T01:11:50.619Z</time>
      </trkpt>
      <trkpt lat="45.86782" lon="3.67008">
        <ele>660</ele>
        <time>2024-12-08T01:11:51.620Z</time>
      </trkpt>
      <trkpt lat="45.86782" lon="3.6701">
        <ele>661</ele>
        <time>2024-12-08T01:11:52.619Z</time>
      </trkpt>
      <trkpt lat="45.86781" lon="3.67012">
        <ele>661</ele>
        <time>2024-12-08T01:11:53.620Z</time>
      </trkpt>
      <trkpt lat="45.86779" lon="3.67015">
        <ele>661</ele>
        <time>2024-12-08T01:11:54.619Z</time>
      </trkpt>
      <trkpt lat="45.86779" lon="3.67019">
        <ele>661</ele>
        <time>2024-12-08T01:11:55.620Z</time>
      </trkpt>
      <trkpt lat="45.86779" lon="3.67022">
        <ele>661</ele>
        <time>2024-12-08T01:11:56.619Z</time>
      </trkpt>
      <trkpt lat="45.86779" lon="3.67025">
        <ele>662</ele>
        <time>2024-12-08T01:11:57.619Z</time>
      </trkpt>
      <trkpt lat="45.86779" lon="3.67028">
        <ele>661</ele>
        <time>2024-12-08T01:11:58.620Z</time>
      </trkpt>
      <trkpt lat="45.86778" lon="3.6703">
        <ele>661</ele>
        <time>2024-12-08T01:11:59.620Z</time>
      </trkpt>
      <trkpt lat="45.86778" lon="3.67033">
        <ele>661</ele>
        <time>2024-12-08T01:12:00.620Z</time>
      </trkpt>
      <trkpt lat="45.86776" lon="3.67037">
        <ele>661</ele>
        <time>2024-12-08T01:12:01.620Z</time>
      </trkpt>
      <trkpt lat="45.86776" lon="3.67041">
        <ele>660</ele>
        <time>2024-12-08T01:12:02.619Z</time>
      </trkpt>
      <trkpt lat="45.86775" lon="3.67043">
        <ele>660</ele>
        <time>2024-12-08T01:12:03.620Z</time>
      </trkpt>
      <trkpt lat="45.86775" lon="3.67046">
        <ele>660</ele>
        <time>2024-12-08T01:12:04.620Z</time>
      </trkpt>
      <trkpt lat="45.86774" lon="3.67048">
        <ele>660</ele>
        <time>2024-12-08T01:12:05.620Z</time>
      </trkpt>
      <trkpt lat="45.86773" lon="3.6705">
        <ele>660</ele>
        <time>2024-12-08T01:12:06.619Z</time>
      </trkpt>
      <trkpt lat="45.86772" lon="3.67052">
        <ele>660</ele>
        <time>2024-12-08T01:12:07.620Z</time>
      </trkpt>
      <trkpt lat="45.86771" lon="3.67054">
        <ele>660</ele>
        <time>2024-12-08T01:12:08.619Z</time>
      </trkpt>
      <trkpt lat="45.86771" lon="3.67057">
        <ele>660</ele>
        <time>2024-12-08T01:12:09.620Z</time>
      </trkpt>
      <trkpt lat="45.86771" lon="3.67059">
        <ele>660</ele>
        <time>2024-12-08T01:12:10.620Z</time>
      </trkpt>
      <trkpt lat="45.86772" lon="3.67062">
        <ele>660</ele>
        <time>2024-12-08T01:12:11.620Z</time>
      </trkpt>
      <trkpt lat="45.86773" lon="3.67063">
        <ele>660</ele>
        <time>2024-12-08T01:12:12.620Z</time>
      </trkpt>
      <trkpt lat="45.86773" lon="3.67066">
        <ele>660</ele>
        <time>2024-12-08T01:12:13.619Z</time>
      </trkpt>
      <trkpt lat="45.86774" lon="3.67069">
        <ele>660</ele>
        <time>2024-12-08T01:12:14.620Z</time>
      </trkpt>
      <trkpt lat="45.86775" lon="3.67071">
        <ele>660</ele>
        <time>2024-12-08T01:12:15.619Z</time>
      </trkpt>
      <trkpt lat="45.86775" lon="3.67073">
        <ele>660</ele>
        <time>2024-12-08T01:12:16.619Z</time>
      </trkpt>
      <trkpt lat="45.86776" lon="3.67076">
        <ele>661</ele>
        <time>2024-12-08T01:12:17.619Z</time>
      </trkpt>
      <trkpt lat="45.86777" lon="3.67078">
        <ele>661</ele>
        <time>2024-12-08T01:12:18.620Z</time>
      </trkpt>
      <trkpt lat="45.86778" lon="3.67081">
        <ele>661</ele>
        <time>2024-12-08T01:12:19.620Z</time>
      </trkpt>
      <trkpt lat="45.86779" lon="3.67082">
        <ele>661</ele>
        <time>2024-12-08T01:12:20.620Z</time>
      </trkpt>
      <trkpt lat="45.86781" lon="3.67083">
        <ele>661</ele>
        <time>2024-12-08T01:12:21.620Z</time>
      </trkpt>
      <trkpt lat="45.86782" lon="3.67085">
        <ele>661</ele>
        <time>2024-12-08T01:12:22.619Z</time>
      </trkpt>
      <trkpt lat="45.86782" lon="3.67088">
        <ele>661</ele>
        <time>2024-12-08T01:12:23.620Z</time>
      </trkpt>
      <trkpt lat="45.86783" lon="3.6709">
        <ele>661</ele>
        <time>2024-12-08T01:12:24.619Z</time>
      </trkpt>
      <trkpt lat="45.86784" lon="3.67094">
        <ele>661</ele>
        <time>2024-12-08T01:12:25.619Z</time>
      </trkpt>
      <trkpt lat="45.86785" lon="3.67098">
        <ele>661</ele>
        <time>2024-12-08T01:12:26.620Z</time>
      </trkpt>
      <trkpt lat="45.86786" lon="3.67101">
        <ele>661</ele>
        <time>2024-12-08T01:12:27.620Z</time>
      </trkpt>
      <trkpt lat="45.86787" lon="3.67103">
        <ele>661</ele>
        <time>2024-12-08T01:12:28.620Z</time>
      </trkpt>
      <trkpt lat="45.86788" lon="3.67106">
        <ele>661</ele>
        <time>2024-12-08T01:12:29.619Z</time>
      </trkpt>
      <trkpt lat="45.86789" lon="3.6711">
        <ele>661</ele>
        <time>2024-12-08T01:12:30.620Z</time>
      </trkpt>
      <trkpt lat="45.86789" lon="3.67113">
        <ele>661</ele>
        <time>2024-12-08T01:12:31.619Z</time>
      </trkpt>
      <trkpt lat="45.86789" lon="3.67115">
        <ele>661</ele>
        <time>2024-12-08T01:12:32.620Z</time>
      </trkpt>
      <trkpt lat="45.86789" lon="3.67118">
        <ele>660</ele>
        <time>2024-12-08T01:12:33.620Z</time>
      </trkpt>
      <trkpt lat="45.86789" lon="3.6712">
        <ele>660</ele>
        <time>2024-12-08T01:12:34.620Z</time>
      </trkpt>
      <trkpt lat="45.86789" lon="3.67121">
        <ele>660</ele>
        <time>2024-12-08T01:12:35.620Z</time>
      </trkpt>
      <trkpt lat="45.86789" lon="3.67123">
        <ele>660</ele>
        <time>2024-12-08T01:12:36.619Z</time>
      </trkpt>
      <trkpt lat="45.86788" lon="3.67125">
        <ele>659</ele>
        <time>2024-12-08T01:12:37.620Z</time>
      </trkpt>
      <trkpt lat="45.86787" lon="3.67128">
        <ele>659</ele>
        <time>2024-12-08T01:12:38.619Z</time>
      </trkpt>
      <trkpt lat="45.86785" lon="3.67131">
        <ele>659</ele>
        <time>2024-12-08T01:12:39.620Z</time>
      </trkpt>
      <trkpt lat="45.86784" lon="3.67134">
        <ele>658</ele>
        <time>2024-12-08T01:12:40.619Z</time>
      </trkpt>
      <trkpt lat="45.86784" lon="3.67136">
        <ele>658</ele>
        <time>2024-12-08T01:12:41.619Z</time>
      </trkpt>
      <trkpt lat="45.86784" lon="3.67137">
        <ele>658</ele>
        <time>2024-12-08T01:12:42.619Z</time>
      </trkpt>
      <trkpt lat="45.86784" lon="3.6714">
        <ele>658</ele>
        <time>2024-12-08T01:12:43.619Z</time>
      </trkpt>
      <trkpt lat="45.86784" lon="3.67142">
        <ele>657</ele>
        <time>2024-12-08T01:12:44.619Z</time>
      </trkpt>
      <trkpt lat="45.86784" lon="3.67145">
        <ele>657</ele>
        <time>2024-12-08T01:12:45.619Z</time>
      </trkpt>
      <trkpt lat="45.86784" lon="3.67148">
        <ele>657</ele>
        <time>2024-12-08T01:12:46.619Z</time>
      </trkpt>
      <trkpt lat="45.86783" lon="3.6715">
        <ele>657</ele>
        <time>2024-12-08T01:12:47.619Z</time>
      </trkpt>
      <trkpt lat="45.86783" lon="3.67152">
        <ele>657</ele>
        <time>2024-12-08T01:12:48.620Z</time>
      </trkpt>
      <trkpt lat="45.86783" lon="3.67154">
        <ele>657</ele>
        <time>2024-12-08T01:12:49.620Z</time>
      </trkpt>
      <trkpt lat="45.86783" lon="3.67155">
        <ele>656</ele>
        <time>2024-12-08T01:12:50.620Z</time>
      </trkpt>
      <trkpt lat="45.86781" lon="3.67157">
        <ele>656</ele>
        <time>2024-12-08T01:12:51.620Z</time>
      </trkpt>
      <trkpt lat="45.86779" lon="3.67157">
        <ele>656</ele>
        <time>2024-12-08T01:12:52.619Z</time>
      </trkpt>
      <trkpt lat="45.86778" lon="3.67159">
        <ele>656</ele>
        <time>2024-12-08T01:12:53.619Z</time>
      </trkpt>
      <trkpt lat="45.86778" lon="3.67161">
        <ele>656</ele>
        <time>2024-12-08T01:12:54.620Z</time>
      </trkpt>
      <trkpt lat="45.86779" lon="3.67163">
        <ele>656</ele>
        <time>2024-12-08T01:12:55.619Z</time>
      </trkpt>
      <trkpt lat="45.86779" lon="3.67166">
        <ele>656</ele>
        <time>2024-12-08T01:12:56.619Z</time>
      </trkpt>
      <trkpt lat="45.8678" lon="3.67168">
        <ele>655</ele>
        <time>2024-12-08T01:12:57.620Z</time>
      </trkpt>
      <trkpt lat="45.86781" lon="3.6717">
        <ele>655</ele>
        <time>2024-12-08T01:12:58.619Z</time>
      </trkpt>
      <trkpt lat="45.86782" lon="3.67173">
        <ele>655</ele>
        <time>2024-12-08T01:12:59.619Z</time>
      </trkpt>
      <trkpt lat="45.86782" lon="3.67176">
        <ele>655</ele>
        <time>2024-12-08T01:13:00.620Z</time>
      </trkpt>
      <trkpt lat="45.86781" lon="3.67179">
        <ele>655</ele>
        <time>2024-12-08T01:13:01.619Z</time>
      </trkpt>
      <trkpt lat="45.8678" lon="3.67182">
        <ele>655</ele>
        <time>2024-12-08T01:13:02.620Z</time>
      </trkpt>
      <trkpt lat="45.86781" lon="3.67183">
        <ele>654</ele>
        <time>2024-12-08T01:13:03.619Z</time>
      </trkpt>
      <trkpt lat="45.86781" lon="3.67185">
        <ele>654</ele>
        <time>2024-12-08T01:13:04.619Z</time>
      </trkpt>
      <trkpt lat="45.86781" lon="3.67188">
        <ele>654</ele>
        <time>2024-12-08T01:13:05.620Z</time>
      </trkpt>
      <trkpt lat="45.86781" lon="3.67189">
        <ele>654</ele>
        <time>2024-12-08T01:13:06.619Z</time>
      </trkpt>
      <trkpt lat="45.86781" lon="3.67191">
        <ele>653</ele>
        <time>2024-12-08T01:13:07.619Z</time>
      </trkpt>
      <trkpt lat="45.86782" lon="3.67193">
        <ele>653</ele>
        <time>2024-12-08T01:13:08.620Z</time>
      </trkpt>
      <trkpt lat="45.86782" lon="3.67195">
        <ele>652</ele>
        <time>2024-12-08T01:13:09.619Z</time>
      </trkpt>
      <trkpt lat="45.86783" lon="3.67199">
        <ele>652</ele>
        <time>2024-12-08T01:13:10.619Z</time>
      </trkpt>
      <trkpt lat="45.86783" lon="3.67203">
        <ele>652</ele>
        <time>2024-12-08T01:13:11.619Z</time>
      </trkpt>
      <trkpt lat="45.86783" lon="3.6721">
        <ele>652</ele>
        <time>2024-12-08T01:13:12.619Z</time>
      </trkpt>
      <trkpt lat="45.86784" lon="3.67214">
        <ele>652</ele>
        <time>2024-12-08T01:13:13.619Z</time>
      </trkpt>
      <trkpt lat="45.86786" lon="3.67219">
        <ele>651</ele>
        <time>2024-12-08T01:13:14.619Z</time>
      </trkpt>
      <trkpt lat="45.86787" lon="3.67224">
        <ele>651</ele>
        <time>2024-12-08T01:13:15.619Z</time>
      </trkpt>
      <trkpt lat="45.86788" lon="3.67226">
        <ele>651</ele>
        <time>2024-12-08T01:13:16.619Z</time>
      </trkpt>
      <trkpt lat="45.86789" lon="3.67228">
        <ele>652</ele>
        <time>2024-12-08T01:13:17.620Z</time>
      </trkpt>
      <trkpt lat="45.86789" lon="3.67231">
        <ele>652</ele>
        <time>2024-12-08T01:13:18.620Z</time>
      </trkpt>
      <trkpt lat="45.86788" lon="3.67235">
        <ele>652</ele>
        <time>2024-12-08T01:13:19.619Z</time>
      </trkpt>
      <trkpt lat="45.86787" lon="3.67238">
        <ele>652</ele>
        <time>2024-12-08T01:13:20.619Z</time>
      </trkpt>
      <trkpt lat="45.86786" lon="3.67241">
        <ele>651</ele>
        <time>2024-12-08T01:13:21.620Z</time>
      </trkpt>
      <trkpt lat="45.86786" lon="3.67244">
        <ele>651</ele>
        <time>2024-12-08T01:13:22.620Z</time>
      </trkpt>
      <trkpt lat="45.86786" lon="3.67246">
        <ele>651</ele>
        <time>2024-12-08T01:13:23.619Z</time>
      </trkpt>
      <trkpt lat="45.86785" lon="3.67249">
        <ele>651</ele>
        <time>2024-12-08T01:13:24.620Z</time>
      </trkpt>
      <trkpt lat="45.86786" lon="3.67251">
        <ele>650</ele>
        <time>2024-12-08T01:13:25.619Z</time>
      </trkpt>
      <trkpt lat="45.86786" lon="3.67254">
        <ele>650</ele>
        <time>2024-12-08T01:13:26.620Z</time>
      </trkpt>
      <trkpt lat="45.86787" lon="3.67256">
        <ele>650</ele>
        <time>2024-12-08T01:13:27.620Z</time>
      </trkpt>
      <trkpt lat="45.86788" lon="3.67258">
        <ele>649</ele>
        <time>2024-12-08T01:13:28.619Z</time>
      </trkpt>
      <trkpt lat="45.86788" lon="3.67261">
        <ele>649</ele>
        <time>2024-12-08T01:13:29.620Z</time>
      </trkpt>
      <trkpt lat="45.86789" lon="3.67266">
        <ele>649</ele>
        <time>2024-12-08T01:13:30.620Z</time>
      </trkpt>
      <trkpt lat="45.86794" lon="3.67267">
        <ele>649</ele>
        <time>2024-12-08T01:13:31.620Z</time>
      </trkpt>
      <trkpt lat="45.86796" lon="3.67271">
        <ele>648</ele>
        <time>2024-12-08T01:13:32.619Z</time>
      </trkpt>
      <trkpt lat="45.86797" lon="3.67274">
        <ele>648</ele>
        <time>2024-12-08T01:13:33.620Z</time>
      </trkpt>
      <trkpt lat="45.86801" lon="3.67274">
        <ele>648</ele>
        <time>2024-12-08T01:13:34.619Z</time>
      </trkpt>
      <trkpt lat="45.86796" lon="3.67283">
        <ele>647</ele>
        <time>2024-12-08T01:13:35.619Z</time>
      </trkpt>
      <trkpt lat="45.86798" lon="3.67285">
        <ele>647</ele>
        <time>2024-12-08T01:13:36.620Z</time>
      </trkpt>
      <trkpt lat="45.868" lon="3.67287">
        <ele>647</ele>
        <time>2024-12-08T01:13:37.619Z</time>
      </trkpt>
      <trkpt lat="45.86799" lon="3.67289">
        <ele>647</ele>
        <time>2024-12-08T01:13:38.619Z</time>
      </trkpt>
      <trkpt lat="45.868" lon="3.67293">
        <ele>646</ele>
        <time>2024-12-08T01:13:39.620Z</time>
      </trkpt>
      <trkpt lat="45.868" lon="3.67296">
        <ele>646</ele>
        <time>2024-12-08T01:13:40.619Z</time>
      </trkpt>
      <trkpt lat="45.86802" lon="3.67296">
        <ele>646</ele>
        <time>2024-12-08T01:13:41.619Z</time>
      </trkpt>
      <trkpt lat="45.86804" lon="3.67297">
        <ele>646</ele>
        <time>2024-12-08T01:13:42.619Z</time>
      </trkpt>
      <trkpt lat="45.86806" lon="3.67299">
        <ele>646</ele>
        <time>2024-12-08T01:13:43.620Z</time>
      </trkpt>
      <trkpt lat="45.86809" lon="3.67301">
        <ele>645</ele>
        <time>2024-12-08T01:13:44.619Z</time>
      </trkpt>
      <trkpt lat="45.86807" lon="3.67305">
        <ele>645</ele>
        <time>2024-12-08T01:13:45.619Z</time>
      </trkpt>
      <trkpt lat="45.86805" lon="3.67309">
        <ele>644</ele>
        <time>2024-12-08T01:13:46.620Z</time>
      </trkpt>
      <trkpt lat="45.86804" lon="3.67312">
        <ele>644</ele>
        <time>2024-12-08T01:13:47.619Z</time>
      </trkpt>
      <trkpt lat="45.86803" lon="3.67315">
        <ele>643</ele>
        <time>2024-12-08T01:13:48.619Z</time>
      </trkpt>
      <trkpt lat="45.86804" lon="3.67317">
        <ele>643</ele>
        <time>2024-12-08T01:13:49.619Z</time>
      </trkpt>
      <trkpt lat="45.86805" lon="3.67318">
        <ele>642</ele>
        <time>2024-12-08T01:13:50.619Z</time>
      </trkpt>
      <trkpt lat="45.86805" lon="3.6732">
        <ele>642</ele>
        <time>2024-12-08T01:13:51.619Z</time>
      </trkpt>
      <trkpt lat="45.86806" lon="3.67323">
        <ele>641</ele>
        <time>2024-12-08T01:13:52.619Z</time>
      </trkpt>
      <trkpt lat="45.86808" lon="3.67324">
        <ele>641</ele>
        <time>2024-12-08T01:13:53.620Z</time>
      </trkpt>
      <trkpt lat="45.86808" lon="3.67327">
        <ele>640</ele>
        <time>2024-12-08T01:13:54.619Z</time>
      </trkpt>
      <trkpt lat="45.86808" lon="3.67329">
        <ele>640</ele>
        <time>2024-12-08T01:13:55.619Z</time>
      </trkpt>
      <trkpt lat="45.86808" lon="3.67331">
        <ele>640</ele>
        <time>2024-12-08T01:13:56.619Z</time>
      </trkpt>
      <trkpt lat="45.86808" lon="3.67334">
        <ele>640</ele>
        <time>2024-12-08T01:13:57.619Z</time>
      </trkpt>
      <trkpt lat="45.86809" lon="3.67336">
        <ele>639</ele>
        <time>2024-12-08T01:13:58.619Z</time>
      </trkpt>
      <trkpt lat="45.8681" lon="3.67338">
        <ele>639</ele>
        <time>2024-12-08T01:13:59.619Z</time>
      </trkpt>
      <trkpt lat="45.86811" lon="3.6734">
        <ele>639</ele>
        <time>2024-12-08T01:14:00.619Z</time>
      </trkpt>
      <trkpt lat="45.86811" lon="3.67343">
        <ele>639</ele>
        <time>2024-12-08T01:14:01.619Z</time>
      </trkpt>
      <trkpt lat="45.86812" lon="3.67345">
        <ele>639</ele>
        <time>2024-12-08T01:14:02.619Z</time>
      </trkpt>
      <trkpt lat="45.86813" lon="3.67347">
        <ele>639</ele>
        <time>2024-12-08T01:14:03.619Z</time>
      </trkpt>
      <trkpt lat="45.86813" lon="3.6735">
        <ele>639</ele>
        <time>2024-12-08T01:14:04.619Z</time>
      </trkpt>
      <trkpt lat="45.86813" lon="3.67353">
        <ele>638</ele>
        <time>2024-12-08T01:14:05.619Z</time>
      </trkpt>
      <trkpt lat="45.86813" lon="3.67355">
        <ele>638</ele>
        <time>2024-12-08T01:14:06.619Z</time>
      </trkpt>
      <trkpt lat="45.86814" lon="3.67357">
        <ele>638</ele>
        <time>2024-12-08T01:14:07.619Z</time>
      </trkpt>
      <trkpt lat="45.86815" lon="3.67358">
        <ele>638</ele>
        <time>2024-12-08T01:14:08.619Z</time>
      </trkpt>
      <trkpt lat="45.86816" lon="3.6736">
        <ele>638</ele>
        <time>2024-12-08T01:14:09.619Z</time>
      </trkpt>
      <trkpt lat="45.86817" lon="3.67362">
        <ele>638</ele>
        <time>2024-12-08T01:14:10.619Z</time>
      </trkpt>
      <trkpt lat="45.86818" lon="3.67364">
        <ele>638</ele>
        <time>2024-12-08T01:14:11.619Z</time>
      </trkpt>
      <trkpt lat="45.86818" lon="3.67367">
        <ele>638</ele>
        <time>2024-12-08T01:14:12.620Z</time>
      </trkpt>
      <trkpt lat="45.86819" lon="3.67369">
        <ele>639</ele>
        <time>2024-12-08T01:14:13.620Z</time>
      </trkpt>
      <trkpt lat="45.8682" lon="3.67371">
        <ele>639</ele>
        <time>2024-12-08T01:14:14.619Z</time>
      </trkpt>
      <trkpt lat="45.86821" lon="3.67373">
        <ele>639</ele>
        <time>2024-12-08T01:14:15.619Z</time>
      </trkpt>
      <trkpt lat="45.86823" lon="3.67375">
        <ele>639</ele>
        <time>2024-12-08T01:14:16.620Z</time>
      </trkpt>
      <trkpt lat="45.86823" lon="3.67377">
        <ele>639</ele>
        <time>2024-12-08T01:14:17.620Z</time>
      </trkpt>
      <trkpt lat="45.86824" lon="3.67379">
        <ele>639</ele>
        <time>2024-12-08T01:14:18.619Z</time>
      </trkpt>
      <trkpt lat="45.86824" lon="3.67381">
        <ele>639</ele>
        <time>2024-12-08T01:14:19.620Z</time>
      </trkpt>
      <trkpt lat="45.86824" lon="3.67384">
        <ele>639</ele>
        <time>2024-12-08T01:14:20.619Z</time>
      </trkpt>
      <trkpt lat="45.86824" lon="3.67386">
        <ele>639</ele>
        <time>2024-12-08T01:14:21.620Z</time>
      </trkpt>
      <trkpt lat="45.86824" lon="3.67388">
        <ele>639</ele>
        <time>2024-12-08T01:14:22.619Z</time>
      </trkpt>
      <trkpt lat="45.86825" lon="3.6739">
        <ele>639</ele>
        <time>2024-12-08T01:14:23.620Z</time>
      </trkpt>
      <trkpt lat="45.86826" lon="3.67392">
        <ele>639</ele>
        <time>2024-12-08T01:14:24.620Z</time>
      </trkpt>
      <trkpt lat="45.86827" lon="3.67395">
        <ele>639</ele>
        <time>2024-12-08T01:14:25.619Z</time>
      </trkpt>
      <trkpt lat="45.86827" lon="3.67397">
        <ele>639</ele>
        <time>2024-12-08T01:14:26.619Z</time>
      </trkpt>
      <trkpt lat="45.86828" lon="3.67399">
        <ele>638</ele>
        <time>2024-12-08T01:14:27.620Z</time>
      </trkpt>
      <trkpt lat="45.86829" lon="3.67401">
        <ele>638</ele>
        <time>2024-12-08T01:14:28.619Z</time>
      </trkpt>
      <trkpt lat="45.8683" lon="3.67402">
        <ele>638</ele>
        <time>2024-12-08T01:14:29.619Z</time>
      </trkpt>
      <trkpt lat="45.86831" lon="3.67404">
        <ele>639</ele>
        <time>2024-12-08T01:14:30.619Z</time>
      </trkpt>
      <trkpt lat="45.86832" lon="3.67406">
        <ele>639</ele>
        <time>2024-12-08T01:14:31.619Z</time>
      </trkpt>
      <trkpt lat="45.86833" lon="3.67407">
        <ele>639</ele>
        <time>2024-12-08T01:14:32.619Z</time>
      </trkpt>
      <trkpt lat="45.86833" lon="3.67409">
        <ele>639</ele>
        <time>2024-12-08T01:14:33.620Z</time>
      </trkpt>
      <trkpt lat="45.86833" lon="3.6741">
        <ele>639</ele>
        <time>2024-12-08T01:14:34.619Z</time>
      </trkpt>
      <trkpt lat="45.86833" lon="3.67412">
        <ele>639</ele>
        <time>2024-12-08T01:14:35.620Z</time>
      </trkpt>
      <trkpt lat="45.86834" lon="3.67413">
        <ele>639</ele>
        <time>2024-12-08T01:14:36.620Z</time>
      </trkpt>
      <trkpt lat="45.86834" lon="3.67415">
        <ele>639</ele>
        <time>2024-12-08T01:14:37.619Z</time>
      </trkpt>
      <trkpt lat="45.86834" lon="3.67416">
        <ele>639</ele>
        <time>2024-12-08T01:14:38.619Z</time>
      </trkpt>
      <trkpt lat="45.86835" lon="3.67418">
        <ele>639</ele>
        <time>2024-12-08T01:14:39.620Z</time>
      </trkpt>
      <trkpt lat="45.86835" lon="3.67421">
        <ele>639</ele>
        <time>2024-12-08T01:14:40.619Z</time>
      </trkpt>
      <trkpt lat="45.86836" lon="3.67423">
        <ele>639</ele>
        <time>2024-12-08T01:14:41.619Z</time>
      </trkpt>
      <trkpt lat="45.86837" lon="3.67425">
        <ele>639</ele>
        <time>2024-12-08T01:14:42.619Z</time>
      </trkpt>
      <trkpt lat="45.86838" lon="3.67427">
        <ele>638</ele>
        <time>2024-12-08T01:14:43.619Z</time>
      </trkpt>
      <trkpt lat="45.86839" lon="3.6743">
        <ele>638</ele>
        <time>2024-12-08T01:14:44.619Z</time>
      </trkpt>
      <trkpt lat="45.8684" lon="3.67432">
        <ele>638</ele>
        <time>2024-12-08T01:14:45.619Z</time>
      </trkpt>
      <trkpt lat="45.86841" lon="3.67435">
        <ele>638</ele>
        <time>2024-12-08T01:14:46.620Z</time>
      </trkpt>
      <trkpt lat="45.86841" lon="3.67437">
        <ele>637</ele>
        <time>2024-12-08T01:14:47.620Z</time>
      </trkpt>
      <trkpt lat="45.86843" lon="3.6744">
        <ele>637</ele>
        <time>2024-12-08T01:14:48.619Z</time>
      </trkpt>
      <trkpt lat="45.86844" lon="3.67442">
        <ele>637</ele>
        <time>2024-12-08T01:14:49.620Z</time>
      </trkpt>
      <trkpt lat="45.86845" lon="3.67445">
        <ele>637</ele>
        <time>2024-12-08T01:14:50.619Z</time>
      </trkpt>
      <trkpt lat="45.86846" lon="3.67447">
        <ele>637</ele>
        <time>2024-12-08T01:14:51.619Z</time>
      </trkpt>
      <trkpt lat="45.86848" lon="3.67449">
        <ele>637</ele>
        <time>2024-12-08T01:14:52.619Z</time>
      </trkpt>
      <trkpt lat="45.86849" lon="3.67451">
        <ele>637</ele>
        <time>2024-12-08T01:14:53.620Z</time>
      </trkpt>
      <trkpt lat="45.8685" lon="3.67453">
        <ele>637</ele>
        <time>2024-12-08T01:14:54.619Z</time>
      </trkpt>
      <trkpt lat="45.86852" lon="3.67454">
        <ele>637</ele>
        <time>2024-12-08T01:14:55.620Z</time>
      </trkpt>
      <trkpt lat="45.86853" lon="3.67456">
        <ele>637</ele>
        <time>2024-12-08T01:14:56.620Z</time>
      </trkpt>
      <trkpt lat="45.86853" lon="3.67458">
        <ele>637</ele>
        <time>2024-12-08T01:14:57.620Z</time>
      </trkpt>
      <trkpt lat="45.86854" lon="3.6746">
        <ele>637</ele>
        <time>2024-12-08T01:14:58.619Z</time>
      </trkpt>
      <trkpt lat="45.86855" lon="3.67462">
        <ele>637</ele>
        <time>2024-12-08T01:14:59.620Z</time>
      </trkpt>
      <trkpt lat="45.86856" lon="3.67464">
        <ele>637</ele>
        <time>2024-12-08T01:15:00.620Z</time>
      </trkpt>
      <trkpt lat="45.86857" lon="3.67466">
        <ele>637</ele>
        <time>2024-12-08T01:15:01.620Z</time>
      </trkpt>
      <trkpt lat="45.86858" lon="3.67467">
        <ele>637</ele>
        <time>2024-12-08T01:15:02.619Z</time>
      </trkpt>
      <trkpt lat="45.86859" lon="3.6747">
        <ele>637</ele>
        <time>2024-12-08T01:15:03.619Z</time>
      </trkpt>
      <trkpt lat="45.86859" lon="3.67473">
        <ele>637</ele>
        <time>2024-12-08T01:15:04.620Z</time>
      </trkpt>
      <trkpt lat="45.86858" lon="3.67477">
        <ele>636</ele>
        <time>2024-12-08T01:15:05.619Z</time>
      </trkpt>
      <trkpt lat="45.86858" lon="3.67481">
        <ele>636</ele>
        <time>2024-12-08T01:15:06.619Z</time>
      </trkpt>
      <trkpt lat="45.86859" lon="3.67483">
        <ele>636</ele>
        <time>2024-12-08T01:15:07.620Z</time>
      </trkpt>
      <trkpt lat="45.86859" lon="3.67485">
        <ele>636</ele>
        <time>2024-12-08T01:15:08.620Z</time>
      </trkpt>
      <trkpt lat="45.8686" lon="3.67487">
        <ele>636</ele>
        <time>2024-12-08T01:15:09.620Z</time>
      </trkpt>
      <trkpt lat="45.86859" lon="3.6749">
        <ele>636</ele>
        <time>2024-12-08T01:15:10.620Z</time>
      </trkpt>
      <trkpt lat="45.86859" lon="3.67493">
        <ele>635</ele>
        <time>2024-12-08T01:15:11.620Z</time>
      </trkpt>
      <trkpt lat="45.86859" lon="3.67496">
        <ele>635</ele>
        <time>2024-12-08T01:15:12.620Z</time>
      </trkpt>
      <trkpt lat="45.8686" lon="3.67498">
        <ele>635</ele>
        <time>2024-12-08T01:15:13.619Z</time>
      </trkpt>
      <trkpt lat="45.8686" lon="3.67501">
        <ele>636</ele>
        <time>2024-12-08T01:15:14.619Z</time>
      </trkpt>
      <trkpt lat="45.8686" lon="3.67504">
        <ele>636</ele>
        <time>2024-12-08T01:15:15.619Z</time>
      </trkpt>
      <trkpt lat="45.8686" lon="3.67507">
        <ele>636</ele>
        <time>2024-12-08T01:15:16.619Z</time>
      </trkpt>
      <trkpt lat="45.86859" lon="3.6751">
        <ele>636</ele>
        <time>2024-12-08T01:15:17.620Z</time>
      </trkpt>
      <trkpt lat="45.86859" lon="3.67513">
        <ele>636</ele>
        <time>2024-12-08T01:15:18.619Z</time>
      </trkpt>
      <trkpt lat="45.8686" lon="3.67515">
        <ele>636</ele>
        <time>2024-12-08T01:15:19.619Z</time>
      </trkpt>
      <trkpt lat="45.86861" lon="3.67517">
        <ele>636</ele>
        <time>2024-12-08T01:15:20.620Z</time>
      </trkpt>
      <trkpt lat="45.86861" lon="3.67519">
        <ele>636</ele>
        <time>2024-12-08T01:15:21.620Z</time>
      </trkpt>
      <trkpt lat="45.86861" lon="3.67522">
        <ele>636</ele>
        <time>2024-12-08T01:15:22.619Z</time>
      </trkpt>
      <trkpt lat="45.86862" lon="3.67524">
        <ele>636</ele>
        <time>2024-12-08T01:15:23.619Z</time>
      </trkpt>
      <trkpt lat="45.86863" lon="3.67526">
        <ele>636</ele>
        <time>2024-12-08T01:15:24.619Z</time>
      </trkpt>
      <trkpt lat="45.86864" lon="3.67528">
        <ele>636</ele>
        <time>2024-12-08T01:15:25.619Z</time>
      </trkpt>
      <trkpt lat="45.86864" lon="3.6753">
        <ele>636</ele>
        <time>2024-12-08T01:15:26.620Z</time>
      </trkpt>
      <trkpt lat="45.86865" lon="3.67533">
        <ele>637</ele>
        <time>2024-12-08T01:15:27.619Z</time>
      </trkpt>
      <trkpt lat="45.86865" lon="3.67536">
        <ele>637</ele>
        <time>2024-12-08T01:15:28.620Z</time>
      </trkpt>
      <trkpt lat="45.86864" lon="3.6754">
        <ele>637</ele>
        <time>2024-12-08T01:15:29.619Z</time>
      </trkpt>
      <trkpt lat="45.86864" lon="3.67542">
        <ele>637</ele>
        <time>2024-12-08T01:15:30.620Z</time>
      </trkpt>
      <trkpt lat="45.86865" lon="3.67545">
        <ele>638</ele>
        <time>2024-12-08T01:15:31.620Z</time>
      </trkpt>
      <trkpt lat="45.86865" lon="3.67548">
        <ele>638</ele>
        <time>2024-12-08T01:15:32.620Z</time>
      </trkpt>
      <trkpt lat="45.86866" lon="3.67551">
        <ele>638</ele>
        <time>2024-12-08T01:15:33.620Z</time>
      </trkpt>
      <trkpt lat="45.86866" lon="3.67554">
        <ele>638</ele>
        <time>2024-12-08T01:15:34.620Z</time>
      </trkpt>
      <trkpt lat="45.86866" lon="3.67557">
        <ele>638</ele>
        <time>2024-12-08T01:15:35.619Z</time>
      </trkpt>
      <trkpt lat="45.86867" lon="3.67559">
        <ele>639</ele>
        <time>2024-12-08T01:15:36.620Z</time>
      </trkpt>
      <trkpt lat="45.86868" lon="3.67561">
        <ele>639</ele>
        <time>2024-12-08T01:15:37.620Z</time>
      </trkpt>
      <trkpt lat="45.86869" lon="3.67562">
        <ele>639</ele>
        <time>2024-12-08T01:15:38.619Z</time>
      </trkpt>
      <trkpt lat="45.8687" lon="3.67564">
        <ele>639</ele>
        <time>2024-12-08T01:15:39.619Z</time>
      </trkpt>
      <trkpt lat="45.86872" lon="3.67565">
        <ele>639</ele>
        <time>2024-12-08T01:15:40.619Z</time>
      </trkpt>
      <trkpt lat="45.86873" lon="3.67566">
        <ele>639</ele>
        <time>2024-12-08T01:15:41.620Z</time>
      </trkpt>
      <trkpt lat="45.86874" lon="3.67567">
        <ele>640</ele>
        <time>2024-12-08T01:15:42.619Z</time>
      </trkpt>
      <trkpt lat="45.86876" lon="3.67568">
        <ele>640</ele>
        <time>2024-12-08T01:15:43.619Z</time>
      </trkpt>
      <trkpt lat="45.86878" lon="3.67569">
        <ele>640</ele>
        <time>2024-12-08T01:15:44.620Z</time>
      </trkpt>
      <trkpt lat="45.8688" lon="3.6757">
        <ele>640</ele>
        <time>2024-12-08T01:15:45.620Z</time>
      </trkpt>
      <trkpt lat="45.86882" lon="3.67571">
        <ele>640</ele>
        <time>2024-12-08T01:15:46.619Z</time>
      </trkpt>
      <trkpt lat="45.86884" lon="3.67572">
        <ele>639</ele>
        <time>2024-12-08T01:15:47.620Z</time>
      </trkpt>
      <trkpt lat="45.86885" lon="3.67574">
        <ele>639</ele>
        <time>2024-12-08T01:15:48.619Z</time>
      </trkpt>
      <trkpt lat="45.86886" lon="3.67575">
        <ele>639</ele>
        <time>2024-12-08T01:15:49.620Z</time>
      </trkpt>
      <trkpt lat="45.86887" lon="3.67577">
        <ele>639</ele>
        <time>2024-12-08T01:15:50.619Z</time>
      </trkpt>
      <trkpt lat="45.86888" lon="3.67579">
        <ele>638</ele>
        <time>2024-12-08T01:15:51.619Z</time>
      </trkpt>
      <trkpt lat="45.86888" lon="3.67582">
        <ele>638</ele>
        <time>2024-12-08T01:15:52.620Z</time>
      </trkpt>
      <trkpt lat="45.8689" lon="3.67583">
        <ele>638</ele>
        <time>2024-12-08T01:15:53.620Z</time>
      </trkpt>
      <trkpt lat="45.86891" lon="3.67584">
        <ele>638</ele>
        <time>2024-12-08T01:15:54.619Z</time>
      </trkpt>
      <trkpt lat="45.86893" lon="3.67585">
        <ele>638</ele>
        <time>2024-12-08T01:15:55.620Z</time>
      </trkpt>
      <trkpt lat="45.86894" lon="3.67587">
        <ele>638</ele>
        <time>2024-12-08T01:15:56.619Z</time>
      </trkpt>
      <trkpt lat="45.86895" lon="3.67589">
        <ele>638</ele>
        <time>2024-12-08T01:15:57.619Z</time>
      </trkpt>
      <trkpt lat="45.86896" lon="3.67591">
        <ele>637</ele>
        <time>2024-12-08T01:15:58.620Z</time>
      </trkpt>
      <trkpt lat="45.86898" lon="3.67592">
        <ele>637</ele>
        <time>2024-12-08T01:15:59.619Z</time>
      </trkpt>
      <trkpt lat="45.869" lon="3.67593">
        <ele>637</ele>
        <time>2024-12-08T01:16:00.619Z</time>
      </trkpt>
      <trkpt lat="45.86902" lon="3.67595">
        <ele>637</ele>
        <time>2024-12-08T01:16:01.619Z</time>
      </trkpt>
      <trkpt lat="45.86904" lon="3.67597">
        <ele>637</ele>
        <time>2024-12-08T01:16:02.620Z</time>
      </trkpt>
      <trkpt lat="45.86905" lon="3.67599">
        <ele>637</ele>
        <time>2024-12-08T01:16:03.620Z</time>
      </trkpt>
      <trkpt lat="45.86906" lon="3.67601">
        <ele>637</ele>
        <time>2024-12-08T01:16:04.619Z</time>
      </trkpt>
      <trkpt lat="45.86908" lon="3.67603">
        <ele>637</ele>
        <time>2024-12-08T01:16:05.620Z</time>
      </trkpt>
      <trkpt lat="45.86909" lon="3.67605">
        <ele>637</ele>
        <time>2024-12-08T01:16:06.619Z</time>
      </trkpt>
      <trkpt lat="45.86911" lon="3.67608">
        <ele>636</ele>
        <time>2024-12-08T01:16:07.619Z</time>
      </trkpt>
      <trkpt lat="45.86912" lon="3.67611">
        <ele>636</ele>
        <time>2024-12-08T01:16:08.619Z</time>
      </trkpt>
      <trkpt lat="45.86914" lon="3.67613">
        <ele>636</ele>
        <time>2024-12-08T01:16:09.620Z</time>
      </trkpt>
      <trkpt lat="45.86915" lon="3.67615">
        <ele>636</ele>
        <time>2024-12-08T01:16:10.619Z</time>
      </trkpt>
      <trkpt lat="45.86916" lon="3.67618">
        <ele>635</ele>
        <time>2024-12-08T01:16:11.620Z</time>
      </trkpt>
      <trkpt lat="45.86917" lon="3.6762">
        <ele>634</ele>
        <time>2024-12-08T01:16:12.619Z</time>
      </trkpt>
      <trkpt lat="45.86919" lon="3.67622">
        <ele>634</ele>
        <time>2024-12-08T01:16:13.620Z</time>
      </trkpt>
      <trkpt lat="45.8692" lon="3.67624">
        <ele>633</ele>
        <time>2024-12-08T01:16:14.619Z</time>
      </trkpt>
      <trkpt lat="45.86921" lon="3.67626">
        <ele>633</ele>
        <time>2024-12-08T01:16:15.620Z</time>
      </trkpt>
      <trkpt lat="45.86921" lon="3.67629">
        <ele>632</ele>
        <time>2024-12-08T01:16:16.620Z</time>
      </trkpt>
      <trkpt lat="45.86922" lon="3.67631">
        <ele>632</ele>
        <time>2024-12-08T01:16:17.620Z</time>
      </trkpt>
      <trkpt lat="45.86924" lon="3.67632">
        <ele>631</ele>
        <time>2024-12-08T01:16:18.620Z</time>
      </trkpt>
      <trkpt lat="45.86925" lon="3.67634">
        <ele>631</ele>
        <time>2024-12-08T01:16:19.619Z</time>
      </trkpt>
      <trkpt lat="45.86927" lon="3.67636">
        <ele>630</ele>
        <time>2024-12-08T01:16:20.620Z</time>
      </trkpt>
      <trkpt lat="45.86928" lon="3.67638">
        <ele>630</ele>
        <time>2024-12-08T01:16:21.620Z</time>
      </trkpt>
      <trkpt lat="45.86929" lon="3.6764">
        <ele>629</ele>
        <time>2024-12-08T01:16:22.620Z</time>
      </trkpt>
      <trkpt lat="45.86929" lon="3.67643">
        <ele>629</ele>
        <time>2024-12-08T01:16:23.620Z</time>
      </trkpt>
      <trkpt lat="45.8693" lon="3.67645">
        <ele>629</ele>
        <time>2024-12-08T01:16:24.619Z</time>
      </trkpt>
      <trkpt lat="45.86931" lon="3.67648">
        <ele>629</ele>
        <time>2024-12-08T01:16:25.620Z</time>
      </trkpt>
      <trkpt lat="45.86931" lon="3.6765">
        <ele>628</ele>
        <time>2024-12-08T01:16:26.620Z</time>
      </trkpt>
      <trkpt lat="45.86932" lon="3.67653">
        <ele>628</ele>
        <time>2024-12-08T01:16:27.619Z</time>
      </trkpt>
      <trkpt lat="45.86933" lon="3.67655">
        <ele>628</ele>
        <time>2024-12-08T01:16:28.620Z</time>
      </trkpt>
      <trkpt lat="45.86934" lon="3.67657">
        <ele>628</ele>
        <time>2024-12-08T01:16:29.620Z</time>
      </trkpt>
      <trkpt lat="45.86935" lon="3.6766">
        <ele>628</ele>
        <time>2024-12-08T01:16:30.619Z</time>
      </trkpt>
      <trkpt lat="45.86936" lon="3.67662">
        <ele>628</ele>
        <time>2024-12-08T01:16:31.619Z</time>
      </trkpt>
      <trkpt lat="45.86937" lon="3.67664">
        <ele>627</ele>
        <time>2024-12-08T01:16:32.620Z</time>
      </trkpt>
      <trkpt lat="45.86938" lon="3.67666">
        <ele>627</ele>
        <time>2024-12-08T01:16:33.619Z</time>
      </trkpt>
      <trkpt lat="45.86938" lon="3.67668">
        <ele>627</ele>
        <time>2024-12-08T01:16:34.620Z</time>
      </trkpt>
      <trkpt lat="45.86939" lon="3.67671">
        <ele>627</ele>
        <time>2024-12-08T01:16:35.620Z</time>
      </trkpt>
      <trkpt lat="45.86939" lon="3.67673">
        <ele>626</ele>
        <time>2024-12-08T01:16:36.620Z</time>
      </trkpt>
      <trkpt lat="45.8694" lon="3.67675">
        <ele>626</ele>
        <time>2024-12-08T01:16:37.619Z</time>
      </trkpt>
      <trkpt lat="45.86942" lon="3.67677">
        <ele>626</ele>
        <time>2024-12-08T01:16:38.620Z</time>
      </trkpt>
      <trkpt lat="45.86943" lon="3.67679">
        <ele>626</ele>
        <time>2024-12-08T01:16:39.620Z</time>
      </trkpt>
      <trkpt lat="45.86944" lon="3.67681">
        <ele>626</ele>
        <time>2024-12-08T01:16:40.620Z</time>
      </trkpt>
      <trkpt lat="45.86945" lon="3.67684">
        <ele>626</ele>
        <time>2024-12-08T01:16:41.620Z</time>
      </trkpt>
      <trkpt lat="45.86945" lon="3.67687">
        <ele>626</ele>
        <time>2024-12-08T01:16:42.620Z</time>
      </trkpt>
      <trkpt lat="45.86945" lon="3.6769">
        <ele>626</ele>
        <time>2024-12-08T01:16:43.620Z</time>
      </trkpt>
      <trkpt lat="45.86946" lon="3.67693">
        <ele>626</ele>
        <time>2024-12-08T01:16:44.619Z</time>
      </trkpt>
      <trkpt lat="45.86946" lon="3.67695">
        <ele>627</ele>
        <time>2024-12-08T01:16:45.620Z</time>
      </trkpt>
      <trkpt lat="45.86947" lon="3.67697">
        <ele>627</ele>
        <time>2024-12-08T01:16:46.620Z</time>
      </trkpt>
      <trkpt lat="45.86948" lon="3.677">
        <ele>627</ele>
        <time>2024-12-08T01:16:47.619Z</time>
      </trkpt>
      <trkpt lat="45.86948" lon="3.67702">
        <ele>627</ele>
        <time>2024-12-08T01:16:48.619Z</time>
      </trkpt>
      <trkpt lat="45.86949" lon="3.67705">
        <ele>627</ele>
        <time>2024-12-08T01:16:49.619Z</time>
      </trkpt>
      <trkpt lat="45.86949" lon="3.67708">
        <ele>626</ele>
        <time>2024-12-08T01:16:50.620Z</time>
      </trkpt>
      <trkpt lat="45.86949" lon="3.67711">
        <ele>626</ele>
        <time>2024-12-08T01:16:51.620Z</time>
      </trkpt>
      <trkpt lat="45.8695" lon="3.67714">
        <ele>626</ele>
        <time>2024-12-08T01:16:52.619Z</time>
      </trkpt>
      <trkpt lat="45.86951" lon="3.67716">
        <ele>626</ele>
        <time>2024-12-08T01:16:53.619Z</time>
      </trkpt>
      <trkpt lat="45.86952" lon="3.67718">
        <ele>626</ele>
        <time>2024-12-08T01:16:54.619Z</time>
      </trkpt>
      <trkpt lat="45.86953" lon="3.6772">
        <ele>626</ele>
        <time>2024-12-08T01:16:55.620Z</time>
      </trkpt>
      <trkpt lat="45.86955" lon="3.67722">
        <ele>626</ele>
        <time>2024-12-08T01:16:56.619Z</time>
      </trkpt>
      <trkpt lat="45.86956" lon="3.67723">
        <ele>626</ele>
        <time>2024-12-08T01:16:57.619Z</time>
      </trkpt>
      <trkpt lat="45.86957" lon="3.67726">
        <ele>626</ele>
        <time>2024-12-08T01:16:58.620Z</time>
      </trkpt>
      <trkpt lat="45.86957" lon="3.67729">
        <ele>626</ele>
        <time>2024-12-08T01:16:59.620Z</time>
      </trkpt>
      <trkpt lat="45.86958" lon="3.67732">
        <ele>626</ele>
        <time>2024-12-08T01:17:00.619Z</time>
      </trkpt>
      <trkpt lat="45.86959" lon="3.67734">
        <ele>626</ele>
        <time>2024-12-08T01:17:01.619Z</time>
      </trkpt>
      <trkpt lat="45.8696" lon="3.67737">
        <ele>626</ele>
        <time>2024-12-08T01:17:02.619Z</time>
      </trkpt>
      <trkpt lat="45.8696" lon="3.67739">
        <ele>626</ele>
        <time>2024-12-08T01:17:03.620Z</time>
      </trkpt>
      <trkpt lat="45.8696" lon="3.67741">
        <ele>626</ele>
        <time>2024-12-08T01:17:04.620Z</time>
      </trkpt>
      <trkpt lat="45.86961" lon="3.67744">
        <ele>626</ele>
        <time>2024-12-08T01:17:05.619Z</time>
      </trkpt>
      <trkpt lat="45.86962" lon="3.67746">
        <ele>626</ele>
        <time>2024-12-08T01:17:06.619Z</time>
      </trkpt>
      <trkpt lat="45.86963" lon="3.67748">
        <ele>626</ele>
        <time>2024-12-08T01:17:07.620Z</time>
      </trkpt>
      <trkpt lat="45.86963" lon="3.6775">
        <ele>626</ele>
        <time>2024-12-08T01:17:08.619Z</time>
      </trkpt>
      <trkpt lat="45.86963" lon="3.67752">
        <ele>626</ele>
        <time>2024-12-08T01:17:09.619Z</time>
      </trkpt>
      <trkpt lat="45.86963" lon="3.67754">
        <ele>626</ele>
        <time>2024-12-08T01:17:10.620Z</time>
      </trkpt>
      <trkpt lat="45.86963" lon="3.67756">
        <ele>626</ele>
        <time>2024-12-08T01:17:11.619Z</time>
      </trkpt>
      <trkpt lat="45.86963" lon="3.67758">
        <ele>626</ele>
        <time>2024-12-08T01:17:12.620Z</time>
      </trkpt>
      <trkpt lat="45.86963" lon="3.6776">
        <ele>626</ele>
        <time>2024-12-08T01:17:13.619Z</time>
      </trkpt>
      <trkpt lat="45.86963" lon="3.67763">
        <ele>626</ele>
        <time>2024-12-08T01:17:14.619Z</time>
      </trkpt>
      <trkpt lat="45.86962" lon="3.67765">
        <ele>626</ele>
        <time>2024-12-08T01:17:15.619Z</time>
      </trkpt>
      <trkpt lat="45.86962" lon="3.67768">
        <ele>626</ele>
        <time>2024-12-08T01:17:16.620Z</time>
      </trkpt>
      <trkpt lat="45.8696" lon="3.67771">
        <ele>626</ele>
        <time>2024-12-08T01:17:17.619Z</time>
      </trkpt>
      <trkpt lat="45.8696" lon="3.67773">
        <ele>626</ele>
        <time>2024-12-08T01:17:18.620Z</time>
      </trkpt>
      <trkpt lat="45.8696" lon="3.67775">
        <ele>626</ele>
        <time>2024-12-08T01:17:19.619Z</time>
      </trkpt>
      <trkpt lat="45.86959" lon="3.67778">
        <ele>626</ele>
        <time>2024-12-08T01:17:20.620Z</time>
      </trkpt>
      <trkpt lat="45.86959" lon="3.67781">
        <ele>627</ele>
        <time>2024-12-08T01:17:21.619Z</time>
      </trkpt>
      <trkpt lat="45.86959" lon="3.67783">
        <ele>627</ele>
        <time>2024-12-08T01:17:22.619Z</time>
      </trkpt>
      <trkpt lat="45.86959" lon="3.67786">
        <ele>627</ele>
        <time>2024-12-08T01:17:23.620Z</time>
      </trkpt>
      <trkpt lat="45.8696" lon="3.67789">
        <ele>627</ele>
        <time>2024-12-08T01:17:24.619Z</time>
      </trkpt>
      <trkpt lat="45.8696" lon="3.67792">
        <ele>627</ele>
        <time>2024-12-08T01:17:25.620Z</time>
      </trkpt>
      <trkpt lat="45.8696" lon="3.67795">
        <ele>627</ele>
        <time>2024-12-08T01:17:26.620Z</time>
      </trkpt>
      <trkpt lat="45.86961" lon="3.67798">
        <ele>627</ele>
        <time>2024-12-08T01:17:27.619Z</time>
      </trkpt>
      <trkpt lat="45.86961" lon="3.67801">
        <ele>627</ele>
        <time>2024-12-08T01:17:28.620Z</time>
      </trkpt>
      <trkpt lat="45.86961" lon="3.67804">
        <ele>627</ele>
        <time>2024-12-08T01:17:29.619Z</time>
      </trkpt>
      <trkpt lat="45.86961" lon="3.67806">
        <ele>627</ele>
        <time>2024-12-08T01:17:30.619Z</time>
      </trkpt>
      <trkpt lat="45.8696" lon="3.67808">
        <ele>627</ele>
        <time>2024-12-08T01:17:31.620Z</time>
      </trkpt>
      <trkpt lat="45.8696" lon="3.67811">
        <ele>627</ele>
        <time>2024-12-08T01:17:32.620Z</time>
      </trkpt>
      <trkpt lat="45.86959" lon="3.67813">
        <ele>628</ele>
        <time>2024-12-08T01:17:33.619Z</time>
      </trkpt>
      <trkpt lat="45.86959" lon="3.67815">
        <ele>628</ele>
        <time>2024-12-08T01:17:34.619Z</time>
      </trkpt>
      <trkpt lat="45.86959" lon="3.67818">
        <ele>628</ele>
        <time>2024-12-08T01:17:35.620Z</time>
      </trkpt>
      <trkpt lat="45.86958" lon="3.67821">
        <ele>628</ele>
        <time>2024-12-08T01:17:36.619Z</time>
      </trkpt>
      <trkpt lat="45.86958" lon="3.67824">
        <ele>629</ele>
        <time>2024-12-08T01:17:37.619Z</time>
      </trkpt>
      <trkpt lat="45.86958" lon="3.67826">
        <ele>629</ele>
        <time>2024-12-08T01:17:38.620Z</time>
      </trkpt>
      <trkpt lat="45.86958" lon="3.67829">
        <ele>629</ele>
        <time>2024-12-08T01:17:39.620Z</time>
      </trkpt>
      <trkpt lat="45.86958" lon="3.67831">
        <ele>629</ele>
        <time>2024-12-08T01:17:40.619Z</time>
      </trkpt>
      <trkpt lat="45.86958" lon="3.67833">
        <ele>629</ele>
        <time>2024-12-08T01:17:41.620Z</time>
      </trkpt>
      <trkpt lat="45.86958" lon="3.67835">
        <ele>628</ele>
        <time>2024-12-08T01:17:42.620Z</time>
      </trkpt>
      <trkpt lat="45.86958" lon="3.67838">
        <ele>628</ele>
        <time>2024-12-08T01:17:43.619Z</time>
      </trkpt>
      <trkpt lat="45.86959" lon="3.67841">
        <ele>628</ele>
        <time>2024-12-08T01:17:44.620Z</time>
      </trkpt>
      <trkpt lat="45.8696" lon="3.67844">
        <ele>628</ele>
        <time>2024-12-08T01:17:45.619Z</time>
      </trkpt>
      <trkpt lat="45.86961" lon="3.67846">
        <ele>627</ele>
        <time>2024-12-08T01:17:46.620Z</time>
      </trkpt>
      <trkpt lat="45.86963" lon="3.67848">
        <ele>627</ele>
        <time>2024-12-08T01:17:47.619Z</time>
      </trkpt>
      <trkpt lat="45.86965" lon="3.67849">
        <ele>627</ele>
        <time>2024-12-08T01:17:48.619Z</time>
      </trkpt>
      <trkpt lat="45.86967" lon="3.6785">
        <ele>627</ele>
        <time>2024-12-08T01:17:49.620Z</time>
      </trkpt>
      <trkpt lat="45.86968" lon="3.67851">
        <ele>627</ele>
        <time>2024-12-08T01:17:50.620Z</time>
      </trkpt>
      <trkpt lat="45.8697" lon="3.67852">
        <ele>626</ele>
        <time>2024-12-08T01:17:51.619Z</time>
      </trkpt>
      <trkpt lat="45.86971" lon="3.67853">
        <ele>626</ele>
        <time>2024-12-08T01:17:52.620Z</time>
      </trkpt>
      <trkpt lat="45.86973" lon="3.67854">
        <ele>626</ele>
        <time>2024-12-08T01:17:53.619Z</time>
      </trkpt>
      <trkpt lat="45.86974" lon="3.67854">
        <ele>625</ele>
        <time>2024-12-08T01:17:54.620Z</time>
      </trkpt>
      <trkpt lat="45.86976" lon="3.67853">
        <ele>625</ele>
        <time>2024-12-08T01:17:55.619Z</time>
      </trkpt>
      <trkpt lat="45.86977" lon="3.67853">
        <ele>624</ele>
        <time>2024-12-08T01:17:56.620Z</time>
      </trkpt>
      <trkpt lat="45.86979" lon="3.67852">
        <ele>624</ele>
        <time>2024-12-08T01:17:57.620Z</time>
      </trkpt>
      <trkpt lat="45.86981" lon="3.67851">
        <ele>624</ele>
        <time>2024-12-08T01:17:58.620Z</time>
      </trkpt>
      <trkpt lat="45.86982" lon="3.6785">
        <ele>623</ele>
        <time>2024-12-08T01:17:59.619Z</time>
      </trkpt>
      <trkpt lat="45.86984" lon="3.67848">
        <ele>623</ele>
        <time>2024-12-08T01:18:00.620Z</time>
      </trkpt>
      <trkpt lat="45.86985" lon="3.67847">
        <ele>623</ele>
        <time>2024-12-08T01:18:01.619Z</time>
      </trkpt>
      <trkpt lat="45.86987" lon="3.67846">
        <ele>622</ele>
        <time>2024-12-08T01:18:02.619Z</time>
      </trkpt>
      <trkpt lat="45.86988" lon="3.67845">
        <ele>622</ele>
        <time>2024-12-08T01:18:03.620Z</time>
      </trkpt>
      <trkpt lat="45.86989" lon="3.67844">
        <ele>621</ele>
        <time>2024-12-08T01:18:04.620Z</time>
      </trkpt>
      <trkpt lat="45.86991" lon="3.67842">
        <ele>621</ele>
        <time>2024-12-08T01:18:05.620Z</time>
      </trkpt>
      <trkpt lat="45.86992" lon="3.6784">
        <ele>620</ele>
        <time>2024-12-08T01:18:06.619Z</time>
      </trkpt>
      <trkpt lat="45.86993" lon="3.67838">
        <ele>619</ele>
        <time>2024-12-08T01:18:07.619Z</time>
      </trkpt>
      <trkpt lat="45.86995" lon="3.67837">
        <ele>619</ele>
        <time>2024-12-08T01:18:08.620Z</time>
      </trkpt>
      <trkpt lat="45.86996" lon="3.67836">
        <ele>619</ele>
        <time>2024-12-08T01:18:09.619Z</time>
      </trkpt>
      <trkpt lat="45.86998" lon="3.67835">
        <ele>619</ele>
        <time>2024-12-08T01:18:10.620Z</time>
      </trkpt>
      <trkpt lat="45.87" lon="3.67834">
        <ele>618</ele>
        <time>2024-12-08T01:18:11.619Z</time>
      </trkpt>
      <trkpt lat="45.87001" lon="3.67833">
        <ele>618</ele>
        <time>2024-12-08T01:18:12.620Z</time>
      </trkpt>
      <trkpt lat="45.87003" lon="3.67832">
        <ele>618</ele>
        <time>2024-12-08T01:18:13.619Z</time>
      </trkpt>
      <trkpt lat="45.87005" lon="3.67831">
        <ele>618</ele>
        <time>2024-12-08T01:18:14.619Z</time>
      </trkpt>
      <trkpt lat="45.87007" lon="3.6783">
        <ele>617</ele>
        <time>2024-12-08T01:18:15.619Z</time>
      </trkpt>
      <trkpt lat="45.87008" lon="3.6783">
        <ele>617</ele>
        <time>2024-12-08T01:18:16.619Z</time>
      </trkpt>
      <trkpt lat="45.8701" lon="3.6783">
        <ele>617</ele>
        <time>2024-12-08T01:18:17.619Z</time>
      </trkpt>
      <trkpt lat="45.87012" lon="3.6783">
        <ele>618</ele>
        <time>2024-12-08T01:18:18.620Z</time>
      </trkpt>
      <trkpt lat="45.87013" lon="3.6783">
        <ele>618</ele>
        <time>2024-12-08T01:18:19.620Z</time>
      </trkpt>
      <trkpt lat="45.87014" lon="3.6783">
        <ele>618</ele>
        <time>2024-12-08T01:18:20.619Z</time>
      </trkpt>
      <trkpt lat="45.87016" lon="3.67831">
        <ele>618</ele>
        <time>2024-12-08T01:18:21.619Z</time>
      </trkpt>
      <trkpt lat="45.87017" lon="3.67831">
        <ele>617</ele>
        <time>2024-12-08T01:18:22.619Z</time>
      </trkpt>
      <trkpt lat="45.87019" lon="3.67831">
        <ele>617</ele>
        <time>2024-12-08T01:18:23.620Z</time>
      </trkpt>
      <trkpt lat="45.8702" lon="3.67831">
        <ele>618</ele>
        <time>2024-12-08T01:18:24.619Z</time>
      </trkpt>
      <trkpt lat="45.87022" lon="3.67832">
        <ele>618</ele>
        <time>2024-12-08T01:18:25.620Z</time>
      </trkpt>
      <trkpt lat="45.87024" lon="3.67833">
        <ele>618</ele>
        <time>2024-12-08T01:18:26.620Z</time>
      </trkpt>
      <trkpt lat="45.87025" lon="3.67834">
        <ele>619</ele>
        <time>2024-12-08T01:18:27.619Z</time>
      </trkpt>
      <trkpt lat="45.87026" lon="3.67835">
        <ele>619</ele>
        <time>2024-12-08T01:18:28.620Z</time>
      </trkpt>
      <trkpt lat="45.87027" lon="3.67836">
        <ele>619</ele>
        <time>2024-12-08T01:18:29.619Z</time>
      </trkpt>
      <trkpt lat="45.87029" lon="3.67838">
        <ele>620</ele>
        <time>2024-12-08T01:18:30.620Z</time>
      </trkpt>
      <trkpt lat="45.8703" lon="3.6784">
        <ele>620</ele>
        <time>2024-12-08T01:18:31.620Z</time>
      </trkpt>
      <trkpt lat="45.87031" lon="3.67842">
        <ele>620</ele>
        <time>2024-12-08T01:18:32.620Z</time>
      </trkpt>
      <trkpt lat="45.87032" lon="3.67844">
        <ele>620</ele>
        <time>2024-12-08T01:18:33.620Z</time>
      </trkpt>
      <trkpt lat="45.87033" lon="3.67845">
        <ele>620</ele>
        <time>2024-12-08T01:18:34.619Z</time>
      </trkpt>
      <trkpt lat="45.87035" lon="3.67846">
        <ele>620</ele>
        <time>2024-12-08T01:18:35.619Z</time>
      </trkpt>
      <trkpt lat="45.87037" lon="3.67847">
        <ele>620</ele>
        <time>2024-12-08T01:18:36.620Z</time>
      </trkpt>
      <trkpt lat="45.87038" lon="3.67848">
        <ele>620</ele>
        <time>2024-12-08T01:18:37.619Z</time>
      </trkpt>
      <trkpt lat="45.8704" lon="3.67848">
        <ele>620</ele>
        <time>2024-12-08T01:18:38.619Z</time>
      </trkpt>
      <trkpt lat="45.87042" lon="3.67849">
        <ele>620</ele>
        <time>2024-12-08T01:18:39.619Z</time>
      </trkpt>
      <trkpt lat="45.87044" lon="3.67849">
        <ele>620</ele>
        <time>2024-12-08T01:18:40.620Z</time>
      </trkpt>
      <trkpt lat="45.87046" lon="3.6785">
        <ele>620</ele>
        <time>2024-12-08T01:18:41.619Z</time>
      </trkpt>
      <trkpt lat="45.87047" lon="3.67851">
        <ele>620</ele>
        <time>2024-12-08T01:18:42.620Z</time>
      </trkpt>
      <trkpt lat="45.87049" lon="3.67852">
        <ele>620</ele>
        <time>2024-12-08T01:18:43.619Z</time>
      </trkpt>
      <trkpt lat="45.87051" lon="3.67853">
        <ele>619</ele>
        <time>2024-12-08T01:18:44.620Z</time>
      </trkpt>
      <trkpt lat="45.87052" lon="3.67854">
        <ele>619</ele>
        <time>2024-12-08T01:18:45.620Z</time>
      </trkpt>
      <trkpt lat="45.87054" lon="3.67855">
        <ele>619</ele>
        <time>2024-12-08T01:18:46.620Z</time>
      </trkpt>
      <trkpt lat="45.87055" lon="3.67856">
        <ele>619</ele>
        <time>2024-12-08T01:18:47.619Z</time>
      </trkpt>
      <trkpt lat="45.87057" lon="3.67857">
        <ele>619</ele>
        <time>2024-12-08T01:18:48.619Z</time>
      </trkpt>
      <trkpt lat="45.87058" lon="3.67858">
        <ele>618</ele>
        <time>2024-12-08T01:18:49.619Z</time>
      </trkpt>
      <trkpt lat="45.8706" lon="3.67859">
        <ele>618</ele>
        <time>2024-12-08T01:18:50.620Z</time>
      </trkpt>
      <trkpt lat="45.87061" lon="3.6786">
        <ele>617</ele>
        <time>2024-12-08T01:18:51.619Z</time>
      </trkpt>
      <trkpt lat="45.87063" lon="3.67861">
        <ele>617</ele>
        <time>2024-12-08T01:18:52.619Z</time>
      </trkpt>
      <trkpt lat="45.87065" lon="3.67862">
        <ele>616</ele>
        <time>2024-12-08T01:18:53.620Z</time>
      </trkpt>
      <trkpt lat="45.87066" lon="3.67863">
        <ele>616</ele>
        <time>2024-12-08T01:18:54.619Z</time>
      </trkpt>
      <trkpt lat="45.87067" lon="3.67863">
        <ele>616</ele>
        <time>2024-12-08T01:18:55.619Z</time>
      </trkpt>
      <trkpt lat="45.87069" lon="3.67864">
        <ele>616</ele>
        <time>2024-12-08T01:18:56.619Z</time>
      </trkpt>
      <trkpt lat="45.8707" lon="3.67864">
        <ele>616</ele>
        <time>2024-12-08T01:18:57.619Z</time>
      </trkpt>
      <trkpt lat="45.87071" lon="3.67865">
        <ele>616</ele>
        <time>2024-12-08T01:18:58.620Z</time>
      </trkpt>
      <trkpt lat="45.87073" lon="3.67866">
        <ele>616</ele>
        <time>2024-12-08T01:18:59.620Z</time>
      </trkpt>
      <trkpt lat="45.87075" lon="3.67866">
        <ele>615</ele>
        <time>2024-12-08T01:19:00.620Z</time>
      </trkpt>
      <trkpt lat="45.87076" lon="3.67867">
        <ele>615</ele>
        <time>2024-12-08T01:19:01.620Z</time>
      </trkpt>
      <trkpt lat="45.87078" lon="3.67867">
        <ele>616</ele>
        <time>2024-12-08T01:19:02.620Z</time>
      </trkpt>
      <trkpt lat="45.87079" lon="3.67868">
        <ele>616</ele>
        <time>2024-12-08T01:19:03.619Z</time>
      </trkpt>
      <trkpt lat="45.87081" lon="3.6787">
        <ele>616</ele>
        <time>2024-12-08T01:19:04.619Z</time>
      </trkpt>
      <trkpt lat="45.87082" lon="3.67871">
        <ele>616</ele>
        <time>2024-12-08T01:19:05.619Z</time>
      </trkpt>
      <trkpt lat="45.87084" lon="3.67872">
        <ele>616</ele>
        <time>2024-12-08T01:19:06.620Z</time>
      </trkpt>
      <trkpt lat="45.87085" lon="3.67873">
        <ele>617</ele>
        <time>2024-12-08T01:19:07.620Z</time>
      </trkpt>
      <trkpt lat="45.87087" lon="3.67875">
        <ele>617</ele>
        <time>2024-12-08T01:19:08.620Z</time>
      </trkpt>
      <trkpt lat="45.87088" lon="3.67877">
        <ele>617</ele>
        <time>2024-12-08T01:19:09.619Z</time>
      </trkpt>
      <trkpt lat="45.87089" lon="3.67879">
        <ele>617</ele>
        <time>2024-12-08T01:19:10.620Z</time>
      </trkpt>
      <trkpt lat="45.8709" lon="3.67881">
        <ele>617</ele>
        <time>2024-12-08T01:19:11.620Z</time>
      </trkpt>
      <trkpt lat="45.87091" lon="3.67883">
        <ele>617</ele>
        <time>2024-12-08T01:19:12.620Z</time>
      </trkpt>
      <trkpt lat="45.87092" lon="3.67885">
        <ele>617</ele>
        <time>2024-12-08T01:19:13.619Z</time>
      </trkpt>
      <trkpt lat="45.87094" lon="3.67887">
        <ele>618</ele>
        <time>2024-12-08T01:19:14.620Z</time>
      </trkpt>
      <trkpt lat="45.87095" lon="3.67889">
        <ele>618</ele>
        <time>2024-12-08T01:19:15.619Z</time>
      </trkpt>
      <trkpt lat="45.87096" lon="3.67892">
        <ele>618</ele>
        <time>2024-12-08T01:19:16.620Z</time>
      </trkpt>
      <trkpt lat="45.87097" lon="3.67894">
        <ele>618</ele>
        <time>2024-12-08T01:19:17.619Z</time>
      </trkpt>
      <trkpt lat="45.87098" lon="3.67896">
        <ele>619</ele>
        <time>2024-12-08T01:19:18.620Z</time>
      </trkpt>
      <trkpt lat="45.87099" lon="3.67898">
        <ele>619</ele>
        <time>2024-12-08T01:19:19.619Z</time>
      </trkpt>
      <trkpt lat="45.871" lon="3.679">
        <ele>619</ele>
        <time>2024-12-08T01:19:20.619Z</time>
      </trkpt>
      <trkpt lat="45.87102" lon="3.67902">
        <ele>619</ele>
        <time>2024-12-08T01:19:21.620Z</time>
      </trkpt>
      <trkpt lat="45.87103" lon="3.67903">
        <ele>619</ele>
        <time>2024-12-08T01:19:22.620Z</time>
      </trkpt>
      <trkpt lat="45.87104" lon="3.67906">
        <ele>618</ele>
        <time>2024-12-08T01:19:23.619Z</time>
      </trkpt>
      <trkpt lat="45.87105" lon="3.67907">
        <ele>618</ele>
        <time>2024-12-08T01:19:24.620Z</time>
      </trkpt>
      <trkpt lat="45.87106" lon="3.67909">
        <ele>618</ele>
        <time>2024-12-08T01:19:25.620Z</time>
      </trkpt>
      <trkpt lat="45.87106" lon="3.67911">
        <ele>618</ele>
        <time>2024-12-08T01:19:26.620Z</time>
      </trkpt>
      <trkpt lat="45.87107" lon="3.67913">
        <ele>618</ele>
        <time>2024-12-08T01:19:27.620Z</time>
      </trkpt>
      <trkpt lat="45.87108" lon="3.67915">
        <ele>618</ele>
        <time>2024-12-08T01:19:28.620Z</time>
      </trkpt>
      <trkpt lat="45.87109" lon="3.67918">
        <ele>618</ele>
        <time>2024-12-08T01:19:29.619Z</time>
      </trkpt>
      <trkpt lat="45.87109" lon="3.6792">
        <ele>618</ele>
        <time>2024-12-08T01:19:30.619Z</time>
      </trkpt>
      <trkpt lat="45.8711" lon="3.67922">
        <ele>618</ele>
        <time>2024-12-08T01:19:31.620Z</time>
      </trkpt>
      <trkpt lat="45.87111" lon="3.67925">
        <ele>618</ele>
        <time>2024-12-08T01:19:32.620Z</time>
      </trkpt>
      <trkpt lat="45.87111" lon="3.67928">
        <ele>617</ele>
        <time>2024-12-08T01:19:33.620Z</time>
      </trkpt>
      <trkpt lat="45.87112" lon="3.6793">
        <ele>617</ele>
        <time>2024-12-08T01:19:34.619Z</time>
      </trkpt>
      <trkpt lat="45.87113" lon="3.67933">
        <ele>618</ele>
        <time>2024-12-08T01:19:35.620Z</time>
      </trkpt>
      <trkpt lat="45.87113" lon="3.67936">
        <ele>618</ele>
        <time>2024-12-08T01:19:36.620Z</time>
      </trkpt>
      <trkpt lat="45.87114" lon="3.67939">
        <ele>618</ele>
        <time>2024-12-08T01:19:37.619Z</time>
      </trkpt>
      <trkpt lat="45.87115" lon="3.67941">
        <ele>618</ele>
        <time>2024-12-08T01:19:38.619Z</time>
      </trkpt>
      <trkpt lat="45.87117" lon="3.67944">
        <ele>619</ele>
        <time>2024-12-08T01:19:39.620Z</time>
      </trkpt>
      <trkpt lat="45.87118" lon="3.67946">
        <ele>619</ele>
        <time>2024-12-08T01:19:40.620Z</time>
      </trkpt>
      <trkpt lat="45.87118" lon="3.67949">
        <ele>619</ele>
        <time>2024-12-08T01:19:41.619Z</time>
      </trkpt>
      <trkpt lat="45.87119" lon="3.67952">
        <ele>619</ele>
        <time>2024-12-08T01:19:42.619Z</time>
      </trkpt>
      <trkpt lat="45.87119" lon="3.67955">
        <ele>619</ele>
        <time>2024-12-08T01:19:43.620Z</time>
      </trkpt>
      <trkpt lat="45.8712" lon="3.67957">
        <ele>619</ele>
        <time>2024-12-08T01:19:44.620Z</time>
      </trkpt>
      <trkpt lat="45.8712" lon="3.67959">
        <ele>619</ele>
        <time>2024-12-08T01:19:45.619Z</time>
      </trkpt>
      <trkpt lat="45.87121" lon="3.6796">
        <ele>619</ele>
        <time>2024-12-08T01:19:46.620Z</time>
      </trkpt>
      <trkpt lat="45.8712" lon="3.67962">
        <ele>619</ele>
        <time>2024-12-08T01:19:47.620Z</time>
      </trkpt>
      <trkpt lat="45.8712" lon="3.67964">
        <ele>619</ele>
        <time>2024-12-08T01:19:48.620Z</time>
      </trkpt>
      <trkpt lat="45.87119" lon="3.67966">
        <ele>619</ele>
        <time>2024-12-08T01:19:49.620Z</time>
      </trkpt>
      <trkpt lat="45.87119" lon="3.67968">
        <ele>618</ele>
        <time>2024-12-08T01:19:50.620Z</time>
      </trkpt>
      <trkpt lat="45.8712" lon="3.6797">
        <ele>618</ele>
        <time>2024-12-08T01:19:51.620Z</time>
      </trkpt>
      <trkpt lat="45.8712" lon="3.67972">
        <ele>618</ele>
        <time>2024-12-08T01:19:52.619Z</time>
      </trkpt>
      <trkpt lat="45.8712" lon="3.67974">
        <ele>618</ele>
        <time>2024-12-08T01:19:53.620Z</time>
      </trkpt>
      <trkpt lat="45.8712" lon="3.67976">
        <ele>618</ele>
        <time>2024-12-08T01:19:54.619Z</time>
      </trkpt>
      <trkpt lat="45.87119" lon="3.67979">
        <ele>618</ele>
        <time>2024-12-08T01:19:55.620Z</time>
      </trkpt>
      <trkpt lat="45.87119" lon="3.67982">
        <ele>618</ele>
        <time>2024-12-08T01:19:56.619Z</time>
      </trkpt>
      <trkpt lat="45.87119" lon="3.67984">
        <ele>618</ele>
        <time>2024-12-08T01:19:57.620Z</time>
      </trkpt>
      <trkpt lat="45.87119" lon="3.67986">
        <ele>617</ele>
        <time>2024-12-08T01:19:58.620Z</time>
      </trkpt>
      <trkpt lat="45.87119" lon="3.67989">
        <ele>617</ele>
        <time>2024-12-08T01:19:59.620Z</time>
      </trkpt>
      <trkpt lat="45.87119" lon="3.67991">
        <ele>617</ele>
        <time>2024-12-08T01:20:00.620Z</time>
      </trkpt>
      <trkpt lat="45.8712" lon="3.67994">
        <ele>617</ele>
        <time>2024-12-08T01:20:01.619Z</time>
      </trkpt>
      <trkpt lat="45.8712" lon="3.67996">
        <ele>616</ele>
        <time>2024-12-08T01:20:02.620Z</time>
      </trkpt>
      <trkpt lat="45.8712" lon="3.67999">
        <ele>616</ele>
        <time>2024-12-08T01:20:03.620Z</time>
      </trkpt>
      <trkpt lat="45.87119" lon="3.68002">
        <ele>616</ele>
        <time>2024-12-08T01:20:04.620Z</time>
      </trkpt>
      <trkpt lat="45.87119" lon="3.68005">
        <ele>615</ele>
        <time>2024-12-08T01:20:05.620Z</time>
      </trkpt>
      <trkpt lat="45.87119" lon="3.68007">
        <ele>615</ele>
        <time>2024-12-08T01:20:06.620Z</time>
      </trkpt>
      <trkpt lat="45.87119" lon="3.68011">
        <ele>615</ele>
        <time>2024-12-08T01:20:07.620Z</time>
      </trkpt>
      <trkpt lat="45.87119" lon="3.68013">
        <ele>615</ele>
        <time>2024-12-08T01:20:08.619Z</time>
      </trkpt>
      <trkpt lat="45.87119" lon="3.68015">
        <ele>616</ele>
        <time>2024-12-08T01:20:09.620Z</time>
      </trkpt>
      <trkpt lat="45.87118" lon="3.68017">
        <ele>616</ele>
        <time>2024-12-08T01:20:10.620Z</time>
      </trkpt>
      <trkpt lat="45.87119" lon="3.68019">
        <ele>616</ele>
        <time>2024-12-08T01:20:11.619Z</time>
      </trkpt>
      <trkpt lat="45.87119" lon="3.68021">
        <ele>616</ele>
        <time>2024-12-08T01:20:12.619Z</time>
      </trkpt>
      <trkpt lat="45.87119" lon="3.68023">
        <ele>617</ele>
        <time>2024-12-08T01:20:13.620Z</time>
      </trkpt>
      <trkpt lat="45.87119" lon="3.68025">
        <ele>617</ele>
        <time>2024-12-08T01:20:14.620Z</time>
      </trkpt>
      <trkpt lat="45.87119" lon="3.68028">
        <ele>617</ele>
        <time>2024-12-08T01:20:15.620Z</time>
      </trkpt>
      <trkpt lat="45.87119" lon="3.68031">
        <ele>617</ele>
        <time>2024-12-08T01:20:16.620Z</time>
      </trkpt>
      <trkpt lat="45.87119" lon="3.68034">
        <ele>618</ele>
        <time>2024-12-08T01:20:17.620Z</time>
      </trkpt>
      <trkpt lat="45.87119" lon="3.68036">
        <ele>618</ele>
        <time>2024-12-08T01:20:18.620Z</time>
      </trkpt>
      <trkpt lat="45.87119" lon="3.68038">
        <ele>619</ele>
        <time>2024-12-08T01:20:19.620Z</time>
      </trkpt>
      <trkpt lat="45.87119" lon="3.6804">
        <ele>619</ele>
        <time>2024-12-08T01:20:20.619Z</time>
      </trkpt>
      <trkpt lat="45.87119" lon="3.68043">
        <ele>619</ele>
        <time>2024-12-08T01:20:21.619Z</time>
      </trkpt>
      <trkpt lat="45.87119" lon="3.68045">
        <ele>619</ele>
        <time>2024-12-08T01:20:22.620Z</time>
      </trkpt>
      <trkpt lat="45.8712" lon="3.68048">
        <ele>620</ele>
        <time>2024-12-08T01:20:23.620Z</time>
      </trkpt>
      <trkpt lat="45.87121" lon="3.68051">
        <ele>620</ele>
        <time>2024-12-08T01:20:24.620Z</time>
      </trkpt>
      <trkpt lat="45.87122" lon="3.68054">
        <ele>620</ele>
        <time>2024-12-08T01:20:25.620Z</time>
      </trkpt>
      <trkpt lat="45.87122" lon="3.68056">
        <ele>620</ele>
        <time>2024-12-08T01:20:26.620Z</time>
      </trkpt>
      <trkpt lat="45.87124" lon="3.68058">
        <ele>620</ele>
        <time>2024-12-08T01:20:27.620Z</time>
      </trkpt>
      <trkpt lat="45.87125" lon="3.6806">
        <ele>620</ele>
        <time>2024-12-08T01:20:28.619Z</time>
      </trkpt>
      <trkpt lat="45.87126" lon="3.68062">
        <ele>620</ele>
        <time>2024-12-08T01:20:29.619Z</time>
      </trkpt>
      <trkpt lat="45.87128" lon="3.68064">
        <ele>620</ele>
        <time>2024-12-08T01:20:30.620Z</time>
      </trkpt>
      <trkpt lat="45.87129" lon="3.68066">
        <ele>620</ele>
        <time>2024-12-08T01:20:31.620Z</time>
      </trkpt>
      <trkpt lat="45.8713" lon="3.68068">
        <ele>620</ele>
        <time>2024-12-08T01:20:32.620Z</time>
      </trkpt>
      <trkpt lat="45.87132" lon="3.6807">
        <ele>620</ele>
        <time>2024-12-08T01:20:33.619Z</time>
      </trkpt>
      <trkpt lat="45.87133" lon="3.68072">
        <ele>619</ele>
        <time>2024-12-08T01:20:34.620Z</time>
      </trkpt>
      <trkpt lat="45.87133" lon="3.68074">
        <ele>619</ele>
        <time>2024-12-08T01:20:35.619Z</time>
      </trkpt>
      <trkpt lat="45.87135" lon="3.68076">
        <ele>618</ele>
        <time>2024-12-08T01:20:36.620Z</time>
      </trkpt>
      <trkpt lat="45.87136" lon="3.68078">
        <ele>618</ele>
        <time>2024-12-08T01:20:37.620Z</time>
      </trkpt>
      <trkpt lat="45.87138" lon="3.68079">
        <ele>618</ele>
        <time>2024-12-08T01:20:38.620Z</time>
      </trkpt>
      <trkpt lat="45.87139" lon="3.68081">
        <ele>617</ele>
        <time>2024-12-08T01:20:39.620Z</time>
      </trkpt>
      <trkpt lat="45.87141" lon="3.68082">
        <ele>617</ele>
        <time>2024-12-08T01:20:40.620Z</time>
      </trkpt>
      <trkpt lat="45.87142" lon="3.68084">
        <ele>617</ele>
        <time>2024-12-08T01:20:41.620Z</time>
      </trkpt>
      <trkpt lat="45.87144" lon="3.68085">
        <ele>618</ele>
        <time>2024-12-08T01:20:42.620Z</time>
      </trkpt>
      <trkpt lat="45.87145" lon="3.68086">
        <ele>618</ele>
        <time>2024-12-08T01:20:43.620Z</time>
      </trkpt>
      <trkpt lat="45.87146" lon="3.68088">
        <ele>618</ele>
        <time>2024-12-08T01:20:44.619Z</time>
      </trkpt>
      <trkpt lat="45.87147" lon="3.68089">
        <ele>618</ele>
        <time>2024-12-08T01:20:45.620Z</time>
      </trkpt>
      <trkpt lat="45.87148" lon="3.6809">
        <ele>618</ele>
        <time>2024-12-08T01:20:46.620Z</time>
      </trkpt>
      <trkpt lat="45.87149" lon="3.68092">
        <ele>618</ele>
        <time>2024-12-08T01:20:47.619Z</time>
      </trkpt>
      <trkpt lat="45.8715" lon="3.68093">
        <ele>618</ele>
        <time>2024-12-08T01:20:48.620Z</time>
      </trkpt>
      <trkpt lat="45.87151" lon="3.68095">
        <ele>618</ele>
        <time>2024-12-08T01:20:49.620Z</time>
      </trkpt>
      <trkpt lat="45.87152" lon="3.68097">
        <ele>617</ele>
        <time>2024-12-08T01:20:50.620Z</time>
      </trkpt>
      <trkpt lat="45.87153" lon="3.68098">
        <ele>617</ele>
        <time>2024-12-08T01:20:51.620Z</time>
      </trkpt>
      <trkpt lat="45.87154" lon="3.681">
        <ele>617</ele>
        <time>2024-12-08T01:20:52.620Z</time>
      </trkpt>
      <trkpt lat="45.87155" lon="3.68102">
        <ele>617</ele>
        <time>2024-12-08T01:20:53.620Z</time>
      </trkpt>
      <trkpt lat="45.87156" lon="3.68103">
        <ele>617</ele>
        <time>2024-12-08T01:20:54.619Z</time>
      </trkpt>
      <trkpt lat="45.87157" lon="3.68105">
        <ele>617</ele>
        <time>2024-12-08T01:20:55.619Z</time>
      </trkpt>
      <trkpt lat="45.87159" lon="3.68106">
        <ele>617</ele>
        <time>2024-12-08T01:20:56.619Z</time>
      </trkpt>
      <trkpt lat="45.8716" lon="3.68107">
        <ele>617</ele>
        <time>2024-12-08T01:20:57.619Z</time>
      </trkpt>
      <trkpt lat="45.87161" lon="3.68109">
        <ele>617</ele>
        <time>2024-12-08T01:20:58.619Z</time>
      </trkpt>
      <trkpt lat="45.87163" lon="3.68111">
        <ele>617</ele>
        <time>2024-12-08T01:20:59.620Z</time>
      </trkpt>
      <trkpt lat="45.87164" lon="3.68112">
        <ele>617</ele>
        <time>2024-12-08T01:21:00.619Z</time>
      </trkpt>
      <trkpt lat="45.87165" lon="3.68114">
        <ele>617</ele>
        <time>2024-12-08T01:21:01.620Z</time>
      </trkpt>
      <trkpt lat="45.87166" lon="3.68116">
        <ele>618</ele>
        <time>2024-12-08T01:21:02.620Z</time>
      </trkpt>
      <trkpt lat="45.87168" lon="3.68117">
        <ele>618</ele>
        <time>2024-12-08T01:21:03.619Z</time>
      </trkpt>
      <trkpt lat="45.87169" lon="3.68118">
        <ele>618</ele>
        <time>2024-12-08T01:21:04.620Z</time>
      </trkpt>
      <trkpt lat="45.8717" lon="3.6812">
        <ele>618</ele>
        <time>2024-12-08T01:21:05.620Z</time>
      </trkpt>
      <trkpt lat="45.87171" lon="3.68121">
        <ele>618</ele>
        <time>2024-12-08T01:21:06.620Z</time>
      </trkpt>
      <trkpt lat="45.87172" lon="3.68122">
        <ele>618</ele>
        <time>2024-12-08T01:21:07.619Z</time>
      </trkpt>
      <trkpt lat="45.87173" lon="3.68123">
        <ele>618</ele>
        <time>2024-12-08T01:21:08.620Z</time>
      </trkpt>
      <trkpt lat="45.87174" lon="3.68124">
        <ele>618</ele>
        <time>2024-12-08T01:21:09.619Z</time>
      </trkpt>
      <trkpt lat="45.87175" lon="3.68125">
        <ele>618</ele>
        <time>2024-12-08T01:21:10.619Z</time>
      </trkpt>
      <trkpt lat="45.87176" lon="3.68127">
        <ele>618</ele>
        <time>2024-12-08T01:21:11.620Z</time>
      </trkpt>
      <trkpt lat="45.87177" lon="3.68128">
        <ele>618</ele>
        <time>2024-12-08T01:21:12.620Z</time>
      </trkpt>
      <trkpt lat="45.87178" lon="3.6813">
        <ele>619</ele>
        <time>2024-12-08T01:21:13.619Z</time>
      </trkpt>
      <trkpt lat="45.87179" lon="3.68131">
        <ele>619</ele>
        <time>2024-12-08T01:21:14.620Z</time>
      </trkpt>
      <trkpt lat="45.8718" lon="3.68132">
        <ele>619</ele>
        <time>2024-12-08T01:21:15.619Z</time>
      </trkpt>
      <trkpt lat="45.8718" lon="3.68133">
        <ele>620</ele>
        <time>2024-12-08T01:21:16.620Z</time>
      </trkpt>
      <trkpt lat="45.87181" lon="3.68134">
        <ele>620</ele>
        <time>2024-12-08T01:21:17.619Z</time>
      </trkpt>
      <trkpt lat="45.87182" lon="3.68135">
        <ele>621</ele>
        <time>2024-12-08T01:21:18.620Z</time>
      </trkpt>
      <trkpt lat="45.87183" lon="3.68136">
        <ele>621</ele>
        <time>2024-12-08T01:21:19.619Z</time>
      </trkpt>
      <trkpt lat="45.87184" lon="3.68138">
        <ele>621</ele>
        <time>2024-12-08T01:21:20.619Z</time>
      </trkpt>
      <trkpt lat="45.87185" lon="3.68139">
        <ele>621</ele>
        <time>2024-12-08T01:21:21.620Z</time>
      </trkpt>
      <trkpt lat="45.87186" lon="3.6814">
        <ele>621</ele>
        <time>2024-12-08T01:21:22.619Z</time>
      </trkpt>
      <trkpt lat="45.87187" lon="3.68142">
        <ele>621</ele>
        <time>2024-12-08T01:21:23.619Z</time>
      </trkpt>
      <trkpt lat="45.87189" lon="3.68143">
        <ele>621</ele>
        <time>2024-12-08T01:21:24.619Z</time>
      </trkpt>
      <trkpt lat="45.8719" lon="3.68144">
        <ele>622</ele>
        <time>2024-12-08T01:21:25.619Z</time>
      </trkpt>
      <trkpt lat="45.87192" lon="3.68146">
        <ele>622</ele>
        <time>2024-12-08T01:21:26.619Z</time>
      </trkpt>
      <trkpt lat="45.87193" lon="3.68147">
        <ele>622</ele>
        <time>2024-12-08T01:21:27.619Z</time>
      </trkpt>
      <trkpt lat="45.87194" lon="3.68147">
        <ele>622</ele>
        <time>2024-12-08T01:21:28.620Z</time>
      </trkpt>
      <trkpt lat="45.87196" lon="3.68148">
        <ele>623</ele>
        <time>2024-12-08T01:21:29.619Z</time>
      </trkpt>
      <trkpt lat="45.87197" lon="3.68149">
        <ele>623</ele>
        <time>2024-12-08T01:21:30.620Z</time>
      </trkpt>
      <trkpt lat="45.87199" lon="3.6815">
        <ele>623</ele>
        <time>2024-12-08T01:21:31.620Z</time>
      </trkpt>
      <trkpt lat="45.872" lon="3.6815">
        <ele>623</ele>
        <time>2024-12-08T01:21:32.619Z</time>
      </trkpt>
      <trkpt lat="45.87201" lon="3.68151">
        <ele>623</ele>
        <time>2024-12-08T01:21:33.620Z</time>
      </trkpt>
      <trkpt lat="45.87203" lon="3.68151">
        <ele>623</ele>
        <time>2024-12-08T01:21:34.619Z</time>
      </trkpt>
      <trkpt lat="45.87204" lon="3.68151">
        <ele>622</ele>
        <time>2024-12-08T01:21:35.619Z</time>
      </trkpt>
      <trkpt lat="45.87206" lon="3.68151">
        <ele>622</ele>
        <time>2024-12-08T01:21:36.619Z</time>
      </trkpt>
      <trkpt lat="45.87207" lon="3.68152">
        <ele>623</ele>
        <time>2024-12-08T01:21:37.619Z</time>
      </trkpt>
      <trkpt lat="45.87209" lon="3.68152">
        <ele>623</ele>
        <time>2024-12-08T01:21:38.619Z</time>
      </trkpt>
      <trkpt lat="45.87211" lon="3.68151">
        <ele>623</ele>
        <time>2024-12-08T01:21:39.620Z</time>
      </trkpt>
      <trkpt lat="45.87213" lon="3.68151">
        <ele>623</ele>
        <time>2024-12-08T01:21:40.619Z</time>
      </trkpt>
      <trkpt lat="45.87215" lon="3.68151">
        <ele>623</ele>
        <time>2024-12-08T01:21:41.619Z</time>
      </trkpt>
      <trkpt lat="45.87217" lon="3.68151">
        <ele>623</ele>
        <time>2024-12-08T01:21:42.620Z</time>
      </trkpt>
      <trkpt lat="45.87218" lon="3.68151">
        <ele>623</ele>
        <time>2024-12-08T01:21:43.620Z</time>
      </trkpt>
      <trkpt lat="45.8722" lon="3.68151">
        <ele>623</ele>
        <time>2024-12-08T01:21:44.619Z</time>
      </trkpt>
      <trkpt lat="45.87222" lon="3.68151">
        <ele>623</ele>
        <time>2024-12-08T01:21:45.619Z</time>
      </trkpt>
      <trkpt lat="45.87224" lon="3.6815">
        <ele>623</ele>
        <time>2024-12-08T01:21:46.619Z</time>
      </trkpt>
      <trkpt lat="45.87226" lon="3.68149">
        <ele>623</ele>
        <time>2024-12-08T01:21:47.619Z</time>
      </trkpt>
      <trkpt lat="45.87228" lon="3.68149">
        <ele>624</ele>
        <time>2024-12-08T01:21:48.619Z</time>
      </trkpt>
      <trkpt lat="45.8723" lon="3.68149">
        <ele>624</ele>
        <time>2024-12-08T01:21:49.620Z</time>
      </trkpt>
      <trkpt lat="45.87231" lon="3.68149">
        <ele>624</ele>
        <time>2024-12-08T01:21:50.620Z</time>
      </trkpt>
      <trkpt lat="45.87233" lon="3.68149">
        <ele>624</ele>
        <time>2024-12-08T01:21:51.620Z</time>
      </trkpt>
      <trkpt lat="45.87235" lon="3.68149">
        <ele>624</ele>
        <time>2024-12-08T01:21:52.619Z</time>
      </trkpt>
      <trkpt lat="45.87236" lon="3.68148">
        <ele>624</ele>
        <time>2024-12-08T01:21:53.619Z</time>
      </trkpt>
      <trkpt lat="45.87237" lon="3.68148">
        <ele>624</ele>
        <time>2024-12-08T01:21:54.619Z</time>
      </trkpt>
      <trkpt lat="45.87239" lon="3.68148">
        <ele>624</ele>
        <time>2024-12-08T01:21:55.619Z</time>
      </trkpt>
      <trkpt lat="45.87241" lon="3.68147">
        <ele>625</ele>
        <time>2024-12-08T01:21:56.619Z</time>
      </trkpt>
      <trkpt lat="45.87243" lon="3.68147">
        <ele>625</ele>
        <time>2024-12-08T01:21:57.620Z</time>
      </trkpt>
      <trkpt lat="45.87245" lon="3.68146">
        <ele>625</ele>
        <time>2024-12-08T01:21:58.620Z</time>
      </trkpt>
      <trkpt lat="45.87246" lon="3.68145">
        <ele>625</ele>
        <time>2024-12-08T01:21:59.620Z</time>
      </trkpt>
      <trkpt lat="45.87249" lon="3.68145">
        <ele>626</ele>
        <time>2024-12-08T01:22:00.620Z</time>
      </trkpt>
      <trkpt lat="45.87251" lon="3.68144">
        <ele>626</ele>
        <time>2024-12-08T01:22:01.620Z</time>
      </trkpt>
      <trkpt lat="45.87252" lon="3.68143">
        <ele>626</ele>
        <time>2024-12-08T01:22:02.620Z</time>
      </trkpt>
      <trkpt lat="45.87254" lon="3.68143">
        <ele>626</ele>
        <time>2024-12-08T01:22:03.620Z</time>
      </trkpt>
      <trkpt lat="45.87256" lon="3.68142">
        <ele>626</ele>
        <time>2024-12-08T01:22:04.620Z</time>
      </trkpt>
      <trkpt lat="45.87258" lon="3.68141">
        <ele>627</ele>
        <time>2024-12-08T01:22:05.619Z</time>
      </trkpt>
      <trkpt lat="45.87259" lon="3.68141">
        <ele>626</ele>
        <time>2024-12-08T01:22:06.620Z</time>
      </trkpt>
      <trkpt lat="45.87261" lon="3.6814">
        <ele>626</ele>
        <time>2024-12-08T01:22:07.620Z</time>
      </trkpt>
      <trkpt lat="45.87262" lon="3.6814">
        <ele>626</ele>
        <time>2024-12-08T01:22:08.620Z</time>
      </trkpt>
      <trkpt lat="45.87264" lon="3.68139">
        <ele>626</ele>
        <time>2024-12-08T01:22:09.619Z</time>
      </trkpt>
      <trkpt lat="45.87266" lon="3.68139">
        <ele>625</ele>
        <time>2024-12-08T01:22:10.620Z</time>
      </trkpt>
      <trkpt lat="45.87267" lon="3.68138">
        <ele>625</ele>
        <time>2024-12-08T01:22:11.620Z</time>
      </trkpt>
      <trkpt lat="45.87268" lon="3.68137">
        <ele>625</ele>
        <time>2024-12-08T01:22:12.619Z</time>
      </trkpt>
      <trkpt lat="45.8727" lon="3.68137">
        <ele>625</ele>
        <time>2024-12-08T01:22:13.620Z</time>
      </trkpt>
      <trkpt lat="45.87271" lon="3.68136">
        <ele>624</ele>
        <time>2024-12-08T01:22:14.619Z</time>
      </trkpt>
      <trkpt lat="45.87273" lon="3.68135">
        <ele>624</ele>
        <time>2024-12-08T01:22:15.619Z</time>
      </trkpt>
      <trkpt lat="45.87274" lon="3.68135">
        <ele>624</ele>
        <time>2024-12-08T01:22:16.620Z</time>
      </trkpt>
      <trkpt lat="45.87276" lon="3.68134">
        <ele>624</ele>
        <time>2024-12-08T01:22:17.620Z</time>
      </trkpt>
      <trkpt lat="45.87277" lon="3.68133">
        <ele>624</ele>
        <time>2024-12-08T01:22:18.619Z</time>
      </trkpt>
      <trkpt lat="45.87279" lon="3.68133">
        <ele>624</ele>
        <time>2024-12-08T01:22:19.619Z</time>
      </trkpt>
      <trkpt lat="45.87281" lon="3.68132">
        <ele>623</ele>
        <time>2024-12-08T01:22:20.620Z</time>
      </trkpt>
      <trkpt lat="45.87282" lon="3.6813">
        <ele>623</ele>
        <time>2024-12-08T01:22:21.620Z</time>
      </trkpt>
      <trkpt lat="45.87284" lon="3.6813">
        <ele>623</ele>
        <time>2024-12-08T01:22:22.619Z</time>
      </trkpt>
      <trkpt lat="45.87286" lon="3.68128">
        <ele>623</ele>
        <time>2024-12-08T01:22:23.620Z</time>
      </trkpt>
      <trkpt lat="45.87288" lon="3.68128">
        <ele>623</ele>
        <time>2024-12-08T01:22:24.619Z</time>
      </trkpt>
      <trkpt lat="45.8729" lon="3.68127">
        <ele>623</ele>
        <time>2024-12-08T01:22:25.620Z</time>
      </trkpt>
      <trkpt lat="45.87292" lon="3.68126">
        <ele>623</ele>
        <time>2024-12-08T01:22:26.619Z</time>
      </trkpt>
      <trkpt lat="45.87293" lon="3.68125">
        <ele>623</ele>
        <time>2024-12-08T01:22:27.620Z</time>
      </trkpt>
      <trkpt lat="45.87295" lon="3.68124">
        <ele>623</ele>
        <time>2024-12-08T01:22:28.620Z</time>
      </trkpt>
      <trkpt lat="45.87296" lon="3.68124">
        <ele>623</ele>
        <time>2024-12-08T01:22:29.620Z</time>
      </trkpt>
      <trkpt lat="45.87298" lon="3.68123">
        <ele>623</ele>
        <time>2024-12-08T01:22:30.620Z</time>
      </trkpt>
      <trkpt lat="45.87299" lon="3.68122">
        <ele>623</ele>
        <time>2024-12-08T01:22:31.620Z</time>
      </trkpt>
      <trkpt lat="45.87301" lon="3.68122">
        <ele>622</ele>
        <time>2024-12-08T01:22:32.620Z</time>
      </trkpt>
      <trkpt lat="45.87303" lon="3.68121">
        <ele>622</ele>
        <time>2024-12-08T01:22:33.620Z</time>
      </trkpt>
      <trkpt lat="45.87304" lon="3.68121">
        <ele>622</ele>
        <time>2024-12-08T01:22:34.619Z</time>
      </trkpt>
      <trkpt lat="45.87306" lon="3.68121">
        <ele>622</ele>
        <time>2024-12-08T01:22:35.620Z</time>
      </trkpt>
      <trkpt lat="45.87308" lon="3.6812">
        <ele>622</ele>
        <time>2024-12-08T01:22:36.619Z</time>
      </trkpt>
      <trkpt lat="45.87309" lon="3.6812">
        <ele>622</ele>
        <time>2024-12-08T01:22:37.619Z</time>
      </trkpt>
      <trkpt lat="45.87311" lon="3.68119">
        <ele>622</ele>
        <time>2024-12-08T01:22:38.620Z</time>
      </trkpt>
      <trkpt lat="45.87313" lon="3.68118">
        <ele>622</ele>
        <time>2024-12-08T01:22:39.619Z</time>
      </trkpt>
      <trkpt lat="45.87314" lon="3.68118">
        <ele>622</ele>
        <time>2024-12-08T01:22:40.619Z</time>
      </trkpt>
      <trkpt lat="45.87316" lon="3.68117">
        <ele>622</ele>
        <time>2024-12-08T01:22:41.619Z</time>
      </trkpt>
      <trkpt lat="45.87318" lon="3.68117">
        <ele>622</ele>
        <time>2024-12-08T01:22:42.619Z</time>
      </trkpt>
      <trkpt lat="45.87319" lon="3.68117">
        <ele>621</ele>
        <time>2024-12-08T01:22:43.619Z</time>
      </trkpt>
      <trkpt lat="45.87321" lon="3.68117">
        <ele>621</ele>
        <time>2024-12-08T01:22:44.620Z</time>
      </trkpt>
      <trkpt lat="45.87323" lon="3.68116">
        <ele>621</ele>
        <time>2024-12-08T01:22:45.620Z</time>
      </trkpt>
      <trkpt lat="45.87325" lon="3.68116">
        <ele>621</ele>
        <time>2024-12-08T01:22:46.619Z</time>
      </trkpt>
      <trkpt lat="45.87327" lon="3.68116">
        <ele>620</ele>
        <time>2024-12-08T01:22:47.620Z</time>
      </trkpt>
      <trkpt lat="45.87329" lon="3.68116">
        <ele>620</ele>
        <time>2024-12-08T01:22:48.620Z</time>
      </trkpt>
      <trkpt lat="45.8733" lon="3.68116">
        <ele>620</ele>
        <time>2024-12-08T01:22:49.620Z</time>
      </trkpt>
      <trkpt lat="45.87332" lon="3.68116">
        <ele>620</ele>
        <time>2024-12-08T01:22:50.620Z</time>
      </trkpt>
      <trkpt lat="45.87334" lon="3.68116">
        <ele>620</ele>
        <time>2024-12-08T01:22:51.619Z</time>
      </trkpt>
      <trkpt lat="45.87336" lon="3.68116">
        <ele>620</ele>
        <time>2024-12-08T01:22:52.619Z</time>
      </trkpt>
      <trkpt lat="45.87338" lon="3.68116">
        <ele>620</ele>
        <time>2024-12-08T01:22:53.619Z</time>
      </trkpt>
      <trkpt lat="45.8734" lon="3.68116">
        <ele>620</ele>
        <time>2024-12-08T01:22:54.620Z</time>
      </trkpt>
      <trkpt lat="45.87342" lon="3.68116">
        <ele>620</ele>
        <time>2024-12-08T01:22:55.620Z</time>
      </trkpt>
      <trkpt lat="45.87344" lon="3.68117">
        <ele>619</ele>
        <time>2024-12-08T01:22:56.620Z</time>
      </trkpt>
      <trkpt lat="45.87346" lon="3.68117">
        <ele>619</ele>
        <time>2024-12-08T01:22:57.620Z</time>
      </trkpt>
      <trkpt lat="45.87347" lon="3.68117">
        <ele>619</ele>
        <time>2024-12-08T01:22:58.619Z</time>
      </trkpt>
      <trkpt lat="45.87349" lon="3.68117">
        <ele>619</ele>
        <time>2024-12-08T01:22:59.620Z</time>
      </trkpt>
      <trkpt lat="45.87351" lon="3.68117">
        <ele>619</ele>
        <time>2024-12-08T01:23:00.620Z</time>
      </trkpt>
      <trkpt lat="45.87353" lon="3.68117">
        <ele>619</ele>
        <time>2024-12-08T01:23:01.620Z</time>
      </trkpt>
      <trkpt lat="45.87355" lon="3.68117">
        <ele>619</ele>
        <time>2024-12-08T01:23:02.619Z</time>
      </trkpt>
      <trkpt lat="45.87356" lon="3.68117">
        <ele>619</ele>
        <time>2024-12-08T01:23:03.620Z</time>
      </trkpt>
      <trkpt lat="45.87358" lon="3.68118">
        <ele>619</ele>
        <time>2024-12-08T01:23:04.619Z</time>
      </trkpt>
      <trkpt lat="45.8736" lon="3.68118">
        <ele>618</ele>
        <time>2024-12-08T01:23:05.620Z</time>
      </trkpt>
      <trkpt lat="45.87362" lon="3.68118">
        <ele>618</ele>
        <time>2024-12-08T01:23:06.620Z</time>
      </trkpt>
      <trkpt lat="45.87364" lon="3.68119">
        <ele>618</ele>
        <time>2024-12-08T01:23:07.619Z</time>
      </trkpt>
      <trkpt lat="45.87365" lon="3.68119">
        <ele>618</ele>
        <time>2024-12-08T01:23:08.619Z</time>
      </trkpt>
      <trkpt lat="45.87367" lon="3.68119">
        <ele>618</ele>
        <time>2024-12-08T01:23:09.619Z</time>
      </trkpt>
      <trkpt lat="45.87369" lon="3.68119">
        <ele>618</ele>
        <time>2024-12-08T01:23:10.620Z</time>
      </trkpt>
      <trkpt lat="45.87371" lon="3.6812">
        <ele>619</ele>
        <time>2024-12-08T01:23:11.620Z</time>
      </trkpt>
      <trkpt lat="45.87373" lon="3.6812">
        <ele>619</ele>
        <time>2024-12-08T01:23:12.620Z</time>
      </trkpt>
      <trkpt lat="45.87375" lon="3.68121">
        <ele>619</ele>
        <time>2024-12-08T01:23:13.619Z</time>
      </trkpt>
      <trkpt lat="45.87377" lon="3.68121">
        <ele>619</ele>
        <time>2024-12-08T01:23:14.619Z</time>
      </trkpt>
      <trkpt lat="45.87379" lon="3.68121">
        <ele>620</ele>
        <time>2024-12-08T01:23:15.620Z</time>
      </trkpt>
      <trkpt lat="45.87381" lon="3.68121">
        <ele>620</ele>
        <time>2024-12-08T01:23:16.619Z</time>
      </trkpt>
      <trkpt lat="45.87382" lon="3.68122">
        <ele>621</ele>
        <time>2024-12-08T01:23:17.620Z</time>
      </trkpt>
      <trkpt lat="45.87384" lon="3.68122">
        <ele>621</ele>
        <time>2024-12-08T01:23:18.620Z</time>
      </trkpt>
      <trkpt lat="45.87386" lon="3.68122">
        <ele>621</ele>
        <time>2024-12-08T01:23:19.619Z</time>
      </trkpt>
      <trkpt lat="45.87388" lon="3.68123">
        <ele>621</ele>
        <time>2024-12-08T01:23:20.620Z</time>
      </trkpt>
      <trkpt lat="45.8739" lon="3.68124">
        <ele>621</ele>
        <time>2024-12-08T01:23:21.619Z</time>
      </trkpt>
      <trkpt lat="45.87391" lon="3.68124">
        <ele>621</ele>
        <time>2024-12-08T01:23:22.620Z</time>
      </trkpt>
      <trkpt lat="45.87393" lon="3.68124">
        <ele>621</ele>
        <time>2024-12-08T01:23:23.619Z</time>
      </trkpt>
      <trkpt lat="45.87395" lon="3.68124">
        <ele>621</ele>
        <time>2024-12-08T01:23:24.620Z</time>
      </trkpt>
      <trkpt lat="45.87397" lon="3.68124">
        <ele>621</ele>
        <time>2024-12-08T01:23:25.619Z</time>
      </trkpt>
      <trkpt lat="45.87398" lon="3.68124">
        <ele>621</ele>
        <time>2024-12-08T01:23:26.620Z</time>
      </trkpt>
      <trkpt lat="45.874" lon="3.68125">
        <ele>620</ele>
        <time>2024-12-08T01:23:27.619Z</time>
      </trkpt>
      <trkpt lat="45.87402" lon="3.68125">
        <ele>620</ele>
        <time>2024-12-08T01:23:28.620Z</time>
      </trkpt>
      <trkpt lat="45.87404" lon="3.68125">
        <ele>620</ele>
        <time>2024-12-08T01:23:29.620Z</time>
      </trkpt>
      <trkpt lat="45.87406" lon="3.68125">
        <ele>619</ele>
        <time>2024-12-08T01:23:30.620Z</time>
      </trkpt>
      <trkpt lat="45.87408" lon="3.68125">
        <ele>619</ele>
        <time>2024-12-08T01:23:31.619Z</time>
      </trkpt>
      <trkpt lat="45.8741" lon="3.68126">
        <ele>619</ele>
        <time>2024-12-08T01:23:32.620Z</time>
      </trkpt>
      <trkpt lat="45.87411" lon="3.68126">
        <ele>618</ele>
        <time>2024-12-08T01:23:33.620Z</time>
      </trkpt>
      <trkpt lat="45.87413" lon="3.68126">
        <ele>618</ele>
        <time>2024-12-08T01:23:34.620Z</time>
      </trkpt>
      <trkpt lat="45.87414" lon="3.68127">
        <ele>619</ele>
        <time>2024-12-08T01:23:35.620Z</time>
      </trkpt>
      <trkpt lat="45.87416" lon="3.68127">
        <ele>619</ele>
        <time>2024-12-08T01:23:36.620Z</time>
      </trkpt>
      <trkpt lat="45.87418" lon="3.68127">
        <ele>620</ele>
        <time>2024-12-08T01:23:37.619Z</time>
      </trkpt>
      <trkpt lat="45.8742" lon="3.68128">
        <ele>620</ele>
        <time>2024-12-08T01:23:38.619Z</time>
      </trkpt>
      <trkpt lat="45.87422" lon="3.68129">
        <ele>621</ele>
        <time>2024-12-08T01:23:39.620Z</time>
      </trkpt>
      <trkpt lat="45.87423" lon="3.68129">
        <ele>621</ele>
        <time>2024-12-08T01:23:40.619Z</time>
      </trkpt>
      <trkpt lat="45.87425" lon="3.6813">
        <ele>622</ele>
        <time>2024-12-08T01:23:41.619Z</time>
      </trkpt>
      <trkpt lat="45.87426" lon="3.68131">
        <ele>622</ele>
        <time>2024-12-08T01:23:42.619Z</time>
      </trkpt>
      <trkpt lat="45.87428" lon="3.68131">
        <ele>623</ele>
        <time>2024-12-08T01:23:43.620Z</time>
      </trkpt>
      <trkpt lat="45.87429" lon="3.68132">
        <ele>623</ele>
        <time>2024-12-08T01:23:44.620Z</time>
      </trkpt>
      <trkpt lat="45.87431" lon="3.68134">
        <ele>623</ele>
        <time>2024-12-08T01:23:45.620Z</time>
      </trkpt>
      <trkpt lat="45.87432" lon="3.68135">
        <ele>623</ele>
        <time>2024-12-08T01:23:46.619Z</time>
      </trkpt>
      <trkpt lat="45.87434" lon="3.68137">
        <ele>623</ele>
        <time>2024-12-08T01:23:47.619Z</time>
      </trkpt>
      <trkpt lat="45.87436" lon="3.68138">
        <ele>623</ele>
        <time>2024-12-08T01:23:48.619Z</time>
      </trkpt>
      <trkpt lat="45.87438" lon="3.6814">
        <ele>623</ele>
        <time>2024-12-08T01:23:49.620Z</time>
      </trkpt>
      <trkpt lat="45.87439" lon="3.68142">
        <ele>623</ele>
        <time>2024-12-08T01:23:50.619Z</time>
      </trkpt>
      <trkpt lat="45.87441" lon="3.68144">
        <ele>623</ele>
        <time>2024-12-08T01:23:51.620Z</time>
      </trkpt>
      <trkpt lat="45.87442" lon="3.68145">
        <ele>623</ele>
        <time>2024-12-08T01:23:52.619Z</time>
      </trkpt>
      <trkpt lat="45.87442" lon="3.68147">
        <ele>623</ele>
        <time>2024-12-08T01:23:53.620Z</time>
      </trkpt>
      <trkpt lat="45.87443" lon="3.6815">
        <ele>623</ele>
        <time>2024-12-08T01:23:54.620Z</time>
      </trkpt>
      <trkpt lat="45.87444" lon="3.68152">
        <ele>623</ele>
        <time>2024-12-08T01:23:55.619Z</time>
      </trkpt>
      <trkpt lat="45.87445" lon="3.68153">
        <ele>623</ele>
        <time>2024-12-08T01:23:56.620Z</time>
      </trkpt>
      <trkpt lat="45.87446" lon="3.68154">
        <ele>623</ele>
        <time>2024-12-08T01:23:57.620Z</time>
      </trkpt>
      <trkpt lat="45.87447" lon="3.68155">
        <ele>623</ele>
        <time>2024-12-08T01:23:58.619Z</time>
      </trkpt>
      <trkpt lat="45.87449" lon="3.68157">
        <ele>623</ele>
        <time>2024-12-08T01:23:59.619Z</time>
      </trkpt>
      <trkpt lat="45.8745" lon="3.68158">
        <ele>623</ele>
        <time>2024-12-08T01:24:00.619Z</time>
      </trkpt>
      <trkpt lat="45.87451" lon="3.68159">
        <ele>623</ele>
        <time>2024-12-08T01:24:01.619Z</time>
      </trkpt>
      <trkpt lat="45.87453" lon="3.6816">
        <ele>623</ele>
        <time>2024-12-08T01:24:02.619Z</time>
      </trkpt>
      <trkpt lat="45.87455" lon="3.68162">
        <ele>623</ele>
        <time>2024-12-08T01:24:03.620Z</time>
      </trkpt>
      <trkpt lat="45.87456" lon="3.68163">
        <ele>623</ele>
        <time>2024-12-08T01:24:04.620Z</time>
      </trkpt>
      <trkpt lat="45.87457" lon="3.68165">
        <ele>623</ele>
        <time>2024-12-08T01:24:05.619Z</time>
      </trkpt>
      <trkpt lat="45.87458" lon="3.68166">
        <ele>623</ele>
        <time>2024-12-08T01:24:06.619Z</time>
      </trkpt>
      <trkpt lat="45.87459" lon="3.68167">
        <ele>623</ele>
        <time>2024-12-08T01:24:07.620Z</time>
      </trkpt>
      <trkpt lat="45.87461" lon="3.68167">
        <ele>623</ele>
        <time>2024-12-08T01:24:08.619Z</time>
      </trkpt>
      <trkpt lat="45.87461" lon="3.68167">
        <ele>623</ele>
        <time>2024-12-08T01:24:09.620Z</time>
      </trkpt>
      <trkpt lat="45.87463" lon="3.68167">
        <ele>624</ele>
        <time>2024-12-08T01:24:10.619Z</time>
      </trkpt>
      <trkpt lat="45.87464" lon="3.68168">
        <ele>624</ele>
        <time>2024-12-08T01:24:11.620Z</time>
      </trkpt>
      <trkpt lat="45.87465" lon="3.68168">
        <ele>624</ele>
        <time>2024-12-08T01:24:12.619Z</time>
      </trkpt>
      <trkpt lat="45.87466" lon="3.68169">
        <ele>624</ele>
        <time>2024-12-08T01:24:13.620Z</time>
      </trkpt>
      <trkpt lat="45.87468" lon="3.68169">
        <ele>624</ele>
        <time>2024-12-08T01:24:14.619Z</time>
      </trkpt>
      <trkpt lat="45.8747" lon="3.6817">
        <ele>623</ele>
        <time>2024-12-08T01:24:15.619Z</time>
      </trkpt>
      <trkpt lat="45.87471" lon="3.6817">
        <ele>623</ele>
        <time>2024-12-08T01:24:16.619Z</time>
      </trkpt>
      <trkpt lat="45.87473" lon="3.68171">
        <ele>623</ele>
        <time>2024-12-08T01:24:17.620Z</time>
      </trkpt>
      <trkpt lat="45.87474" lon="3.68172">
        <ele>623</ele>
        <time>2024-12-08T01:24:18.620Z</time>
      </trkpt>
      <trkpt lat="45.87475" lon="3.68171">
        <ele>623</ele>
        <time>2024-12-08T01:24:19.619Z</time>
      </trkpt>
      <trkpt lat="45.87476" lon="3.68171">
        <ele>623</ele>
        <time>2024-12-08T01:24:20.620Z</time>
      </trkpt>
      <trkpt lat="45.87477" lon="3.68171">
        <ele>622</ele>
        <time>2024-12-08T01:24:21.620Z</time>
      </trkpt>
      <trkpt lat="45.87478" lon="3.68172">
        <ele>622</ele>
        <time>2024-12-08T01:24:22.620Z</time>
      </trkpt>
      <trkpt lat="45.87481" lon="3.68173">
        <ele>622</ele>
        <time>2024-12-08T01:24:23.620Z</time>
      </trkpt>
      <trkpt lat="45.87483" lon="3.68173">
        <ele>622</ele>
        <time>2024-12-08T01:24:24.619Z</time>
      </trkpt>
      <trkpt lat="45.87484" lon="3.68173">
        <ele>621</ele>
        <time>2024-12-08T01:24:25.619Z</time>
      </trkpt>
      <trkpt lat="45.87485" lon="3.68174">
        <ele>621</ele>
        <time>2024-12-08T01:24:26.619Z</time>
      </trkpt>
      <trkpt lat="45.87487" lon="3.68173">
        <ele>621</ele>
        <time>2024-12-08T01:24:27.620Z</time>
      </trkpt>
      <trkpt lat="45.87488" lon="3.68173">
        <ele>621</ele>
        <time>2024-12-08T01:24:28.620Z</time>
      </trkpt>
      <trkpt lat="45.87489" lon="3.68174">
        <ele>621</ele>
        <time>2024-12-08T01:24:29.619Z</time>
      </trkpt>
      <trkpt lat="45.8749" lon="3.68175">
        <ele>621</ele>
        <time>2024-12-08T01:24:30.620Z</time>
      </trkpt>
      <trkpt lat="45.87491" lon="3.68176">
        <ele>621</ele>
        <time>2024-12-08T01:24:31.619Z</time>
      </trkpt>
      <trkpt lat="45.87493" lon="3.68176">
        <ele>621</ele>
        <time>2024-12-08T01:24:32.620Z</time>
      </trkpt>
      <trkpt lat="45.87494" lon="3.68176">
        <ele>621</ele>
        <time>2024-12-08T01:24:33.619Z</time>
      </trkpt>
      <trkpt lat="45.87496" lon="3.68176">
        <ele>622</ele>
        <time>2024-12-08T01:24:34.619Z</time>
      </trkpt>
      <trkpt lat="45.87498" lon="3.68177">
        <ele>622</ele>
        <time>2024-12-08T01:24:35.619Z</time>
      </trkpt>
      <trkpt lat="45.875" lon="3.68177">
        <ele>622</ele>
        <time>2024-12-08T01:24:36.620Z</time>
      </trkpt>
      <trkpt lat="45.87502" lon="3.68177">
        <ele>623</ele>
        <time>2024-12-08T01:24:37.619Z</time>
      </trkpt>
      <trkpt lat="45.87503" lon="3.68177">
        <ele>624</ele>
        <time>2024-12-08T01:24:38.620Z</time>
      </trkpt>
      <trkpt lat="45.87504" lon="3.68177">
        <ele>624</ele>
        <time>2024-12-08T01:24:39.620Z</time>
      </trkpt>
      <trkpt lat="45.87505" lon="3.68178">
        <ele>625</ele>
        <time>2024-12-08T01:24:40.619Z</time>
      </trkpt>
      <trkpt lat="45.87506" lon="3.68179">
        <ele>625</ele>
        <time>2024-12-08T01:24:41.619Z</time>
      </trkpt>
      <trkpt lat="45.87507" lon="3.6818">
        <ele>625</ele>
        <time>2024-12-08T01:24:42.620Z</time>
      </trkpt>
      <trkpt lat="45.87508" lon="3.6818">
        <ele>626</ele>
        <time>2024-12-08T01:24:43.620Z</time>
      </trkpt>
      <trkpt lat="45.8751" lon="3.68181">
        <ele>626</ele>
        <time>2024-12-08T01:24:44.620Z</time>
      </trkpt>
      <trkpt lat="45.87511" lon="3.68183">
        <ele>626</ele>
        <time>2024-12-08T01:24:45.619Z</time>
      </trkpt>
      <trkpt lat="45.87513" lon="3.68184">
        <ele>626</ele>
        <time>2024-12-08T01:24:46.620Z</time>
      </trkpt>
      <trkpt lat="45.87516" lon="3.68186">
        <ele>626</ele>
        <time>2024-12-08T01:24:47.620Z</time>
      </trkpt>
      <trkpt lat="45.87518" lon="3.68186">
        <ele>626</ele>
        <time>2024-12-08T01:24:48.619Z</time>
      </trkpt>
      <trkpt lat="45.87521" lon="3.68187">
        <ele>626</ele>
        <time>2024-12-08T01:24:49.619Z</time>
      </trkpt>
      <trkpt lat="45.87523" lon="3.68187">
        <ele>626</ele>
        <time>2024-12-08T01:24:50.620Z</time>
      </trkpt>
      <trkpt lat="45.87526" lon="3.68188">
        <ele>626</ele>
        <time>2024-12-08T01:24:51.620Z</time>
      </trkpt>
      <trkpt lat="45.87528" lon="3.68189">
        <ele>626</ele>
        <time>2024-12-08T01:24:52.620Z</time>
      </trkpt>
      <trkpt lat="45.87528" lon="3.6819">
        <ele>625</ele>
        <time>2024-12-08T01:24:53.620Z</time>
      </trkpt>
      <trkpt lat="45.87528" lon="3.68192">
        <ele>625</ele>
        <time>2024-12-08T01:24:54.619Z</time>
      </trkpt>
      <trkpt lat="45.87529" lon="3.68192">
        <ele>625</ele>
        <time>2024-12-08T01:24:55.619Z</time>
      </trkpt>
      <trkpt lat="45.87531" lon="3.68192">
        <ele>625</ele>
        <time>2024-12-08T01:24:56.620Z</time>
      </trkpt>
      <trkpt lat="45.87536" lon="3.68195">
        <ele>625</ele>
        <time>2024-12-08T01:24:57.620Z</time>
      </trkpt>
      <trkpt lat="45.87538" lon="3.68198">
        <ele>625</ele>
        <time>2024-12-08T01:24:58.619Z</time>
      </trkpt>
      <trkpt lat="45.87538" lon="3.682">
        <ele>625</ele>
        <time>2024-12-08T01:24:59.619Z</time>
      </trkpt>
      <trkpt lat="45.87538" lon="3.68201">
        <ele>625</ele>
        <time>2024-12-08T01:25:00.619Z</time>
      </trkpt>
      <trkpt lat="45.87539" lon="3.68202">
        <ele>625</ele>
        <time>2024-12-08T01:25:01.619Z</time>
      </trkpt>
      <trkpt lat="45.87538" lon="3.68204">
        <ele>625</ele>
        <time>2024-12-08T01:25:02.620Z</time>
      </trkpt>
      <trkpt lat="45.87537" lon="3.68204">
        <ele>625</ele>
        <time>2024-12-08T01:25:03.619Z</time>
      </trkpt>
      <trkpt lat="45.87537" lon="3.68206">
        <ele>625</ele>
        <time>2024-12-08T01:25:04.619Z</time>
      </trkpt>
      <trkpt lat="45.87537" lon="3.68208">
        <ele>625</ele>
        <time>2024-12-08T01:25:05.620Z</time>
      </trkpt>
      <trkpt lat="45.87538" lon="3.68209">
        <ele>625</ele>
        <time>2024-12-08T01:25:06.619Z</time>
      </trkpt>
      <trkpt lat="45.87538" lon="3.6821">
        <ele>625</ele>
        <time>2024-12-08T01:25:07.619Z</time>
      </trkpt>
      <trkpt lat="45.87538" lon="3.68212">
        <ele>626</ele>
        <time>2024-12-08T01:25:08.619Z</time>
      </trkpt>
      <trkpt lat="45.87538" lon="3.68213">
        <ele>626</ele>
        <time>2024-12-08T01:25:09.619Z</time>
      </trkpt>
      <trkpt lat="45.87539" lon="3.68215">
        <ele>626</ele>
        <time>2024-12-08T01:25:10.619Z</time>
      </trkpt>
      <trkpt lat="45.87539" lon="3.68217">
        <ele>626</ele>
        <time>2024-12-08T01:25:11.619Z</time>
      </trkpt>
      <trkpt lat="45.8754" lon="3.68218">
        <ele>627</ele>
        <time>2024-12-08T01:25:12.619Z</time>
      </trkpt>
      <trkpt lat="45.8754" lon="3.6822">
        <ele>627</ele>
        <time>2024-12-08T01:25:13.619Z</time>
      </trkpt>
      <trkpt lat="45.8754" lon="3.68221">
        <ele>627</ele>
        <time>2024-12-08T01:25:14.619Z</time>
      </trkpt>
      <trkpt lat="45.87541" lon="3.68223">
        <ele>628</ele>
        <time>2024-12-08T01:25:15.619Z</time>
      </trkpt>
      <trkpt lat="45.87543" lon="3.68225">
        <ele>628</ele>
        <time>2024-12-08T01:25:16.620Z</time>
      </trkpt>
      <trkpt lat="45.87543" lon="3.68227">
        <ele>628</ele>
        <time>2024-12-08T01:25:17.620Z</time>
      </trkpt>
      <trkpt lat="45.87543" lon="3.68228">
        <ele>629</ele>
        <time>2024-12-08T01:25:18.619Z</time>
      </trkpt>
      <trkpt lat="45.87544" lon="3.6823">
        <ele>629</ele>
        <time>2024-12-08T01:25:19.619Z</time>
      </trkpt>
      <trkpt lat="45.87545" lon="3.68232">
        <ele>629</ele>
        <time>2024-12-08T01:25:20.620Z</time>
      </trkpt>
      <trkpt lat="45.87546" lon="3.68233">
        <ele>630</ele>
        <time>2024-12-08T01:25:21.620Z</time>
      </trkpt>
      <trkpt lat="45.87546" lon="3.68235">
        <ele>630</ele>
        <time>2024-12-08T01:25:22.619Z</time>
      </trkpt>
      <trkpt lat="45.87547" lon="3.68236">
        <ele>630</ele>
        <time>2024-12-08T01:25:23.619Z</time>
      </trkpt>
      <trkpt lat="45.87549" lon="3.68238">
        <ele>631</ele>
        <time>2024-12-08T01:25:24.619Z</time>
      </trkpt>
      <trkpt lat="45.87549" lon="3.6824">
        <ele>631</ele>
        <time>2024-12-08T01:25:25.620Z</time>
      </trkpt>
      <trkpt lat="45.87551" lon="3.68241">
        <ele>631</ele>
        <time>2024-12-08T01:25:26.620Z</time>
      </trkpt>
      <trkpt lat="45.87552" lon="3.68243">
        <ele>631</ele>
        <time>2024-12-08T01:25:27.620Z</time>
      </trkpt>
      <trkpt lat="45.87553" lon="3.68244">
        <ele>632</ele>
        <time>2024-12-08T01:25:28.620Z</time>
      </trkpt>
      <trkpt lat="45.87554" lon="3.68246">
        <ele>632</ele>
        <time>2024-12-08T01:25:29.619Z</time>
      </trkpt>
      <trkpt lat="45.87555" lon="3.68248">
        <ele>632</ele>
        <time>2024-12-08T01:25:30.619Z</time>
      </trkpt>
      <trkpt lat="45.87556" lon="3.6825">
        <ele>632</ele>
        <time>2024-12-08T01:25:31.620Z</time>
      </trkpt>
      <trkpt lat="45.87557" lon="3.68252">
        <ele>632</ele>
        <time>2024-12-08T01:25:32.620Z</time>
      </trkpt>
      <trkpt lat="45.87558" lon="3.68254">
        <ele>632</ele>
        <time>2024-12-08T01:25:33.619Z</time>
      </trkpt>
      <trkpt lat="45.87559" lon="3.68256">
        <ele>631</ele>
        <time>2024-12-08T01:25:34.620Z</time>
      </trkpt>
      <trkpt lat="45.8756" lon="3.68258">
        <ele>631</ele>
        <time>2024-12-08T01:25:35.620Z</time>
      </trkpt>
      <trkpt lat="45.8756" lon="3.6826">
        <ele>631</ele>
        <time>2024-12-08T01:25:36.620Z</time>
      </trkpt>
      <trkpt lat="45.87561" lon="3.68262">
        <ele>631</ele>
        <time>2024-12-08T01:25:37.619Z</time>
      </trkpt>
      <trkpt lat="45.87562" lon="3.68264">
        <ele>630</ele>
        <time>2024-12-08T01:25:38.619Z</time>
      </trkpt>
      <trkpt lat="45.87562" lon="3.68266">
        <ele>631</ele>
        <time>2024-12-08T01:25:39.620Z</time>
      </trkpt>
      <trkpt lat="45.87563" lon="3.68268">
        <ele>631</ele>
        <time>2024-12-08T01:25:40.620Z</time>
      </trkpt>
      <trkpt lat="45.87563" lon="3.6827">
        <ele>631</ele>
        <time>2024-12-08T01:25:41.619Z</time>
      </trkpt>
      <trkpt lat="45.87564" lon="3.68272">
        <ele>631</ele>
        <time>2024-12-08T01:25:42.620Z</time>
      </trkpt>
      <trkpt lat="45.87565" lon="3.68274">
        <ele>631</ele>
        <time>2024-12-08T01:25:43.620Z</time>
      </trkpt>
      <trkpt lat="45.87566" lon="3.68277">
        <ele>632</ele>
        <time>2024-12-08T01:25:44.620Z</time>
      </trkpt>
      <trkpt lat="45.87568" lon="3.68278">
        <ele>632</ele>
        <time>2024-12-08T01:25:45.620Z</time>
      </trkpt>
      <trkpt lat="45.87569" lon="3.6828">
        <ele>632</ele>
        <time>2024-12-08T01:25:46.620Z</time>
      </trkpt>
      <trkpt lat="45.8757" lon="3.68283">
        <ele>632</ele>
        <time>2024-12-08T01:25:47.619Z</time>
      </trkpt>
      <trkpt lat="45.8757" lon="3.68284">
        <ele>632</ele>
        <time>2024-12-08T01:25:48.620Z</time>
      </trkpt>
      <trkpt lat="45.87571" lon="3.68286">
        <ele>632</ele>
        <time>2024-12-08T01:25:49.620Z</time>
      </trkpt>
      <trkpt lat="45.87572" lon="3.68288">
        <ele>632</ele>
        <time>2024-12-08T01:25:50.620Z</time>
      </trkpt>
      <trkpt lat="45.87573" lon="3.6829">
        <ele>632</ele>
        <time>2024-12-08T01:25:51.619Z</time>
      </trkpt>
      <trkpt lat="45.87574" lon="3.68291">
        <ele>632</ele>
        <time>2024-12-08T01:25:52.619Z</time>
      </trkpt>
      <trkpt lat="45.87576" lon="3.68293">
        <ele>632</ele>
        <time>2024-12-08T01:25:53.619Z</time>
      </trkpt>
      <trkpt lat="45.87576" lon="3.68295">
        <ele>633</ele>
        <time>2024-12-08T01:25:54.620Z</time>
      </trkpt>
      <trkpt lat="45.87577" lon="3.68297">
        <ele>633</ele>
        <time>2024-12-08T01:25:55.620Z</time>
      </trkpt>
      <trkpt lat="45.87577" lon="3.68299">
        <ele>633</ele>
        <time>2024-12-08T01:25:56.620Z</time>
      </trkpt>
      <trkpt lat="45.87578" lon="3.68301">
        <ele>633</ele>
        <time>2024-12-08T01:25:57.619Z</time>
      </trkpt>
      <trkpt lat="45.87579" lon="3.68303">
        <ele>632</ele>
        <time>2024-12-08T01:25:58.619Z</time>
      </trkpt>
      <trkpt lat="45.8758" lon="3.68305">
        <ele>632</ele>
        <time>2024-12-08T01:25:59.619Z</time>
      </trkpt>
      <trkpt lat="45.87581" lon="3.68307">
        <ele>632</ele>
        <time>2024-12-08T01:26:00.619Z</time>
      </trkpt>
      <trkpt lat="45.87581" lon="3.68309">
        <ele>632</ele>
        <time>2024-12-08T01:26:01.620Z</time>
      </trkpt>
      <trkpt lat="45.87582" lon="3.68312">
        <ele>632</ele>
        <time>2024-12-08T01:26:02.620Z</time>
      </trkpt>
      <trkpt lat="45.87583" lon="3.68314">
        <ele>633</ele>
        <time>2024-12-08T01:26:03.620Z</time>
      </trkpt>
      <trkpt lat="45.87583" lon="3.68317">
        <ele>633</ele>
        <time>2024-12-08T01:26:04.620Z</time>
      </trkpt>
      <trkpt lat="45.87583" lon="3.68319">
        <ele>633</ele>
        <time>2024-12-08T01:26:05.620Z</time>
      </trkpt>
      <trkpt lat="45.87584" lon="3.68322">
        <ele>633</ele>
        <time>2024-12-08T01:26:06.619Z</time>
      </trkpt>
      <trkpt lat="45.87583" lon="3.68324">
        <ele>633</ele>
        <time>2024-12-08T01:26:07.619Z</time>
      </trkpt>
      <trkpt lat="45.87583" lon="3.68327">
        <ele>633</ele>
        <time>2024-12-08T01:26:08.620Z</time>
      </trkpt>
      <trkpt lat="45.87583" lon="3.68329">
        <ele>633</ele>
        <time>2024-12-08T01:26:09.620Z</time>
      </trkpt>
      <trkpt lat="45.87583" lon="3.68331">
        <ele>633</ele>
        <time>2024-12-08T01:26:10.619Z</time>
      </trkpt>
      <trkpt lat="45.87582" lon="3.68333">
        <ele>633</ele>
        <time>2024-12-08T01:26:11.620Z</time>
      </trkpt>
      <trkpt lat="45.87582" lon="3.68335">
        <ele>633</ele>
        <time>2024-12-08T01:26:12.620Z</time>
      </trkpt>
      <trkpt lat="45.87582" lon="3.68337">
        <ele>633</ele>
        <time>2024-12-08T01:26:13.619Z</time>
      </trkpt>
      <trkpt lat="45.87581" lon="3.68339">
        <ele>634</ele>
        <time>2024-12-08T01:26:14.619Z</time>
      </trkpt>
      <trkpt lat="45.87581" lon="3.68341">
        <ele>634</ele>
        <time>2024-12-08T01:26:15.619Z</time>
      </trkpt>
      <trkpt lat="45.8758" lon="3.68343">
        <ele>634</ele>
        <time>2024-12-08T01:26:16.620Z</time>
      </trkpt>
      <trkpt lat="45.8758" lon="3.68345">
        <ele>634</ele>
        <time>2024-12-08T01:26:17.619Z</time>
      </trkpt>
      <trkpt lat="45.87579" lon="3.68347">
        <ele>634</ele>
        <time>2024-12-08T01:26:18.620Z</time>
      </trkpt>
      <trkpt lat="45.87578" lon="3.6835">
        <ele>634</ele>
        <time>2024-12-08T01:26:19.620Z</time>
      </trkpt>
      <trkpt lat="45.87578" lon="3.68351">
        <ele>634</ele>
        <time>2024-12-08T01:26:20.619Z</time>
      </trkpt>
      <trkpt lat="45.87577" lon="3.68354">
        <ele>634</ele>
        <time>2024-12-08T01:26:21.619Z</time>
      </trkpt>
      <trkpt lat="45.87576" lon="3.68356">
        <ele>634</ele>
        <time>2024-12-08T01:26:22.619Z</time>
      </trkpt>
      <trkpt lat="45.87576" lon="3.68358">
        <ele>634</ele>
        <time>2024-12-08T01:26:23.619Z</time>
      </trkpt>
      <trkpt lat="45.87575" lon="3.6836">
        <ele>634</ele>
        <time>2024-12-08T01:26:24.620Z</time>
      </trkpt>
      <trkpt lat="45.87574" lon="3.68362">
        <ele>634</ele>
        <time>2024-12-08T01:26:25.620Z</time>
      </trkpt>
      <trkpt lat="45.87573" lon="3.68364">
        <ele>634</ele>
        <time>2024-12-08T01:26:26.620Z</time>
      </trkpt>
      <trkpt lat="45.87572" lon="3.68367">
        <ele>634</ele>
        <time>2024-12-08T01:26:27.620Z</time>
      </trkpt>
      <trkpt lat="45.87571" lon="3.68369">
        <ele>634</ele>
        <time>2024-12-08T01:26:28.619Z</time>
      </trkpt>
      <trkpt lat="45.8757" lon="3.68371">
        <ele>634</ele>
        <time>2024-12-08T01:26:29.619Z</time>
      </trkpt>
      <trkpt lat="45.87569" lon="3.68373">
        <ele>634</ele>
        <time>2024-12-08T01:26:30.620Z</time>
      </trkpt>
      <trkpt lat="45.87568" lon="3.68376">
        <ele>634</ele>
        <time>2024-12-08T01:26:31.620Z</time>
      </trkpt>
      <trkpt lat="45.87567" lon="3.68378">
        <ele>634</ele>
        <time>2024-12-08T01:26:32.620Z</time>
      </trkpt>
      <trkpt lat="45.87567" lon="3.6838">
        <ele>634</ele>
        <time>2024-12-08T01:26:33.620Z</time>
      </trkpt>
      <trkpt lat="45.87566" lon="3.68382">
        <ele>634</ele>
        <time>2024-12-08T01:26:34.620Z</time>
      </trkpt>
      <trkpt lat="45.87565" lon="3.68384">
        <ele>634</ele>
        <time>2024-12-08T01:26:35.619Z</time>
      </trkpt>
      <trkpt lat="45.87564" lon="3.68387">
        <ele>634</ele>
        <time>2024-12-08T01:26:36.619Z</time>
      </trkpt>
      <trkpt lat="45.87564" lon="3.68389">
        <ele>634</ele>
        <time>2024-12-08T01:26:37.619Z</time>
      </trkpt>
      <trkpt lat="45.87563" lon="3.68392">
        <ele>634</ele>
        <time>2024-12-08T01:26:38.619Z</time>
      </trkpt>
      <trkpt lat="45.87562" lon="3.68393">
        <ele>634</ele>
        <time>2024-12-08T01:26:39.619Z</time>
      </trkpt>
      <trkpt lat="45.87561" lon="3.68396">
        <ele>634</ele>
        <time>2024-12-08T01:26:40.620Z</time>
      </trkpt>
      <trkpt lat="45.87561" lon="3.68399">
        <ele>634</ele>
        <time>2024-12-08T01:26:41.620Z</time>
      </trkpt>
      <trkpt lat="45.8756" lon="3.68401">
        <ele>634</ele>
        <time>2024-12-08T01:26:42.619Z</time>
      </trkpt>
      <trkpt lat="45.87559" lon="3.68403">
        <ele>634</ele>
        <time>2024-12-08T01:26:43.620Z</time>
      </trkpt>
      <trkpt lat="45.87559" lon="3.68406">
        <ele>634</ele>
        <time>2024-12-08T01:26:44.620Z</time>
      </trkpt>
      <trkpt lat="45.87558" lon="3.68408">
        <ele>634</ele>
        <time>2024-12-08T01:26:45.620Z</time>
      </trkpt>
      <trkpt lat="45.87558" lon="3.6841">
        <ele>633</ele>
        <time>2024-12-08T01:26:46.620Z</time>
      </trkpt>
      <trkpt lat="45.87557" lon="3.68412">
        <ele>633</ele>
        <time>2024-12-08T01:26:47.619Z</time>
      </trkpt>
      <trkpt lat="45.87556" lon="3.68414">
        <ele>633</ele>
        <time>2024-12-08T01:26:48.619Z</time>
      </trkpt>
      <trkpt lat="45.87556" lon="3.68417">
        <ele>633</ele>
        <time>2024-12-08T01:26:49.619Z</time>
      </trkpt>
      <trkpt lat="45.87556" lon="3.68419">
        <ele>633</ele>
        <time>2024-12-08T01:26:50.619Z</time>
      </trkpt>
      <trkpt lat="45.87555" lon="3.68422">
        <ele>632</ele>
        <time>2024-12-08T01:26:51.619Z</time>
      </trkpt>
      <trkpt lat="45.87555" lon="3.68424">
        <ele>632</ele>
        <time>2024-12-08T01:26:52.620Z</time>
      </trkpt>
      <trkpt lat="45.87555" lon="3.68426">
        <ele>632</ele>
        <time>2024-12-08T01:26:53.620Z</time>
      </trkpt>
      <trkpt lat="45.87555" lon="3.68429">
        <ele>631</ele>
        <time>2024-12-08T01:26:54.620Z</time>
      </trkpt>
      <trkpt lat="45.87555" lon="3.6843">
        <ele>631</ele>
        <time>2024-12-08T01:26:55.620Z</time>
      </trkpt>
      <trkpt lat="45.87555" lon="3.68432">
        <ele>632</ele>
        <time>2024-12-08T01:26:56.619Z</time>
      </trkpt>
      <trkpt lat="45.87555" lon="3.68433">
        <ele>632</ele>
        <time>2024-12-08T01:26:57.619Z</time>
      </trkpt>
      <trkpt lat="45.87555" lon="3.68434">
        <ele>632</ele>
        <time>2024-12-08T01:26:58.619Z</time>
      </trkpt>
      <trkpt lat="45.87555" lon="3.68435">
        <ele>632</ele>
        <time>2024-12-08T01:26:59.620Z</time>
      </trkpt>
      <trkpt lat="45.87555" lon="3.68437">
        <ele>632</ele>
        <time>2024-12-08T01:27:00.619Z</time>
      </trkpt>
      <trkpt lat="45.87555" lon="3.68438">
        <ele>632</ele>
        <time>2024-12-08T01:27:01.620Z</time>
      </trkpt>
      <trkpt lat="45.87554" lon="3.68439">
        <ele>633</ele>
        <time>2024-12-08T01:27:02.619Z</time>
      </trkpt>
      <trkpt lat="45.87555" lon="3.6844">
        <ele>633</ele>
        <time>2024-12-08T01:27:03.619Z</time>
      </trkpt>
      <trkpt lat="45.87555" lon="3.68442">
        <ele>633</ele>
        <time>2024-12-08T01:27:04.620Z</time>
      </trkpt>
      <trkpt lat="45.87555" lon="3.68444">
        <ele>634</ele>
        <time>2024-12-08T01:27:05.619Z</time>
      </trkpt>
      <trkpt lat="45.87555" lon="3.68445">
        <ele>634</ele>
        <time>2024-12-08T01:27:06.620Z</time>
      </trkpt>
      <trkpt lat="45.87555" lon="3.68447">
        <ele>634</ele>
        <time>2024-12-08T01:27:07.620Z</time>
      </trkpt>
      <trkpt lat="45.87555" lon="3.68449">
        <ele>635</ele>
        <time>2024-12-08T01:27:08.619Z</time>
      </trkpt>
      <trkpt lat="45.87556" lon="3.68451">
        <ele>635</ele>
        <time>2024-12-08T01:27:09.620Z</time>
      </trkpt>
      <trkpt lat="45.87556" lon="3.68453">
        <ele>636</ele>
        <time>2024-12-08T01:27:10.620Z</time>
      </trkpt>
      <trkpt lat="45.87557" lon="3.68455">
        <ele>636</ele>
        <time>2024-12-08T01:27:11.620Z</time>
      </trkpt>
      <trkpt lat="45.87557" lon="3.68458">
        <ele>636</ele>
        <time>2024-12-08T01:27:12.620Z</time>
      </trkpt>
      <trkpt lat="45.87557" lon="3.6846">
        <ele>636</ele>
        <time>2024-12-08T01:27:13.619Z</time>
      </trkpt>
      <trkpt lat="45.87558" lon="3.68462">
        <ele>636</ele>
        <time>2024-12-08T01:27:14.619Z</time>
      </trkpt>
      <trkpt lat="45.87558" lon="3.68464">
        <ele>637</ele>
        <time>2024-12-08T01:27:15.620Z</time>
      </trkpt>
      <trkpt lat="45.87558" lon="3.68466">
        <ele>637</ele>
        <time>2024-12-08T01:27:16.620Z</time>
      </trkpt>
      <trkpt lat="45.87558" lon="3.68468">
        <ele>637</ele>
        <time>2024-12-08T01:27:17.620Z</time>
      </trkpt>
      <trkpt lat="45.87559" lon="3.6847">
        <ele>636</ele>
        <time>2024-12-08T01:27:18.620Z</time>
      </trkpt>
      <trkpt lat="45.87559" lon="3.68472">
        <ele>636</ele>
        <time>2024-12-08T01:27:19.620Z</time>
      </trkpt>
      <trkpt lat="45.87559" lon="3.68474">
        <ele>636</ele>
        <time>2024-12-08T01:27:20.619Z</time>
      </trkpt>
      <trkpt lat="45.8756" lon="3.68475">
        <ele>636</ele>
        <time>2024-12-08T01:27:21.620Z</time>
      </trkpt>
      <trkpt lat="45.87561" lon="3.68477">
        <ele>636</ele>
        <time>2024-12-08T01:27:22.619Z</time>
      </trkpt>
      <trkpt lat="45.87562" lon="3.68479">
        <ele>637</ele>
        <time>2024-12-08T01:27:23.620Z</time>
      </trkpt>
      <trkpt lat="45.87562" lon="3.6848">
        <ele>637</ele>
        <time>2024-12-08T01:27:24.620Z</time>
      </trkpt>
      <trkpt lat="45.87563" lon="3.68482">
        <ele>637</ele>
        <time>2024-12-08T01:27:25.619Z</time>
      </trkpt>
      <trkpt lat="45.87564" lon="3.68484">
        <ele>637</ele>
        <time>2024-12-08T01:27:26.619Z</time>
      </trkpt>
      <trkpt lat="45.87565" lon="3.68485">
        <ele>637</ele>
        <time>2024-12-08T01:27:27.619Z</time>
      </trkpt>
      <trkpt lat="45.87566" lon="3.68487">
        <ele>637</ele>
        <time>2024-12-08T01:27:28.620Z</time>
      </trkpt>
      <trkpt lat="45.87567" lon="3.68489">
        <ele>637</ele>
        <time>2024-12-08T01:27:29.620Z</time>
      </trkpt>
      <trkpt lat="45.87568" lon="3.6849">
        <ele>637</ele>
        <time>2024-12-08T01:27:30.619Z</time>
      </trkpt>
      <trkpt lat="45.87569" lon="3.68492">
        <ele>637</ele>
        <time>2024-12-08T01:27:31.619Z</time>
      </trkpt>
      <trkpt lat="45.8757" lon="3.68493">
        <ele>637</ele>
        <time>2024-12-08T01:27:32.619Z</time>
      </trkpt>
      <trkpt lat="45.87571" lon="3.68495">
        <ele>637</ele>
        <time>2024-12-08T01:27:33.619Z</time>
      </trkpt>
      <trkpt lat="45.87572" lon="3.68497">
        <ele>637</ele>
        <time>2024-12-08T01:27:34.620Z</time>
      </trkpt>
      <trkpt lat="45.87573" lon="3.68499">
        <ele>638</ele>
        <time>2024-12-08T01:27:35.619Z</time>
      </trkpt>
      <trkpt lat="45.87575" lon="3.685">
        <ele>638</ele>
        <time>2024-12-08T01:27:36.619Z</time>
      </trkpt>
      <trkpt lat="45.87576" lon="3.68502">
        <ele>637</ele>
        <time>2024-12-08T01:27:37.620Z</time>
      </trkpt>
      <trkpt lat="45.87576" lon="3.68504">
        <ele>638</ele>
        <time>2024-12-08T01:27:38.620Z</time>
      </trkpt>
      <trkpt lat="45.87577" lon="3.68506">
        <ele>638</ele>
        <time>2024-12-08T01:27:39.620Z</time>
      </trkpt>
      <trkpt lat="45.87578" lon="3.68509">
        <ele>638</ele>
        <time>2024-12-08T01:27:40.619Z</time>
      </trkpt>
      <trkpt lat="45.87578" lon="3.6851">
        <ele>638</ele>
        <time>2024-12-08T01:27:41.620Z</time>
      </trkpt>
      <trkpt lat="45.87579" lon="3.68512">
        <ele>638</ele>
        <time>2024-12-08T01:27:42.620Z</time>
      </trkpt>
      <trkpt lat="45.87581" lon="3.68514">
        <ele>638</ele>
        <time>2024-12-08T01:27:43.619Z</time>
      </trkpt>
      <trkpt lat="45.87581" lon="3.68516">
        <ele>638</ele>
        <time>2024-12-08T01:27:44.620Z</time>
      </trkpt>
      <trkpt lat="45.87582" lon="3.68518">
        <ele>638</ele>
        <time>2024-12-08T01:27:45.619Z</time>
      </trkpt>
      <trkpt lat="45.87583" lon="3.6852">
        <ele>638</ele>
        <time>2024-12-08T01:27:46.619Z</time>
      </trkpt>
      <trkpt lat="45.87584" lon="3.68522">
        <ele>638</ele>
        <time>2024-12-08T01:27:47.620Z</time>
      </trkpt>
      <trkpt lat="45.87585" lon="3.68524">
        <ele>638</ele>
        <time>2024-12-08T01:27:48.620Z</time>
      </trkpt>
      <trkpt lat="45.87587" lon="3.68526">
        <ele>638</ele>
        <time>2024-12-08T01:27:49.620Z</time>
      </trkpt>
      <trkpt lat="45.87588" lon="3.68527">
        <ele>639</ele>
        <time>2024-12-08T01:27:50.619Z</time>
      </trkpt>
      <trkpt lat="45.87589" lon="3.68529">
        <ele>639</ele>
        <time>2024-12-08T01:27:51.620Z</time>
      </trkpt>
      <trkpt lat="45.87589" lon="3.68531">
        <ele>639</ele>
        <time>2024-12-08T01:27:52.620Z</time>
      </trkpt>
      <trkpt lat="45.8759" lon="3.68533">
        <ele>639</ele>
        <time>2024-12-08T01:27:53.619Z</time>
      </trkpt>
      <trkpt lat="45.8759" lon="3.68535">
        <ele>639</ele>
        <time>2024-12-08T01:27:54.619Z</time>
      </trkpt>
      <trkpt lat="45.87591" lon="3.68537">
        <ele>639</ele>
        <time>2024-12-08T01:27:55.619Z</time>
      </trkpt>
      <trkpt lat="45.87592" lon="3.68539">
        <ele>639</ele>
        <time>2024-12-08T01:27:56.619Z</time>
      </trkpt>
      <trkpt lat="45.87592" lon="3.68541">
        <ele>638</ele>
        <time>2024-12-08T01:27:57.620Z</time>
      </trkpt>
      <trkpt lat="45.87593" lon="3.68543">
        <ele>638</ele>
        <time>2024-12-08T01:27:58.620Z</time>
      </trkpt>
      <trkpt lat="45.87594" lon="3.68545">
        <ele>637</ele>
        <time>2024-12-08T01:27:59.619Z</time>
      </trkpt>
      <trkpt lat="45.87595" lon="3.68547">
        <ele>637</ele>
        <time>2024-12-08T01:28:00.620Z</time>
      </trkpt>
      <trkpt lat="45.87595" lon="3.68549">
        <ele>637</ele>
        <time>2024-12-08T01:28:01.620Z</time>
      </trkpt>
      <trkpt lat="45.87596" lon="3.68551">
        <ele>637</ele>
        <time>2024-12-08T01:28:02.619Z</time>
      </trkpt>
      <trkpt lat="45.87597" lon="3.68553">
        <ele>637</ele>
        <time>2024-12-08T01:28:03.620Z</time>
      </trkpt>
      <trkpt lat="45.87598" lon="3.68555">
        <ele>637</ele>
        <time>2024-12-08T01:28:04.620Z</time>
      </trkpt>
      <trkpt lat="45.87598" lon="3.68557">
        <ele>637</ele>
        <time>2024-12-08T01:28:05.619Z</time>
      </trkpt>
      <trkpt lat="45.87599" lon="3.68559">
        <ele>638</ele>
        <time>2024-12-08T01:28:06.619Z</time>
      </trkpt>
      <trkpt lat="45.876" lon="3.6856">
        <ele>638</ele>
        <time>2024-12-08T01:28:07.619Z</time>
      </trkpt>
      <trkpt lat="45.876" lon="3.68562">
        <ele>638</ele>
        <time>2024-12-08T01:28:08.619Z</time>
      </trkpt>
      <trkpt lat="45.87601" lon="3.68564">
        <ele>638</ele>
        <time>2024-12-08T01:28:09.619Z</time>
      </trkpt>
      <trkpt lat="45.87601" lon="3.68566">
        <ele>638</ele>
        <time>2024-12-08T01:28:10.619Z</time>
      </trkpt>
      <trkpt lat="45.87602" lon="3.68567">
        <ele>638</ele>
        <time>2024-12-08T01:28:11.620Z</time>
      </trkpt>
      <trkpt lat="45.87602" lon="3.68569">
        <ele>638</ele>
        <time>2024-12-08T01:28:12.619Z</time>
      </trkpt>
      <trkpt lat="45.87603" lon="3.68571">
        <ele>639</ele>
        <time>2024-12-08T01:28:13.620Z</time>
      </trkpt>
      <trkpt lat="45.87603" lon="3.68573">
        <ele>639</ele>
        <time>2024-12-08T01:28:14.619Z</time>
      </trkpt>
      <trkpt lat="45.87603" lon="3.68575">
        <ele>639</ele>
        <time>2024-12-08T01:28:15.619Z</time>
      </trkpt>
      <trkpt lat="45.87603" lon="3.68577">
        <ele>639</ele>
        <time>2024-12-08T01:28:16.619Z</time>
      </trkpt>
      <trkpt lat="45.87603" lon="3.68579">
        <ele>640</ele>
        <time>2024-12-08T01:28:17.620Z</time>
      </trkpt>
      <trkpt lat="45.87603" lon="3.68581">
        <ele>640</ele>
        <time>2024-12-08T01:28:18.620Z</time>
      </trkpt>
      <trkpt lat="45.87604" lon="3.68583">
        <ele>640</ele>
        <time>2024-12-08T01:28:19.619Z</time>
      </trkpt>
      <trkpt lat="45.87604" lon="3.68585">
        <ele>640</ele>
        <time>2024-12-08T01:28:20.620Z</time>
      </trkpt>
      <trkpt lat="45.87604" lon="3.68587">
        <ele>641</ele>
        <time>2024-12-08T01:28:21.620Z</time>
      </trkpt>
      <trkpt lat="45.87605" lon="3.6859">
        <ele>641</ele>
        <time>2024-12-08T01:28:22.619Z</time>
      </trkpt>
      <trkpt lat="45.87605" lon="3.68591">
        <ele>641</ele>
        <time>2024-12-08T01:28:23.619Z</time>
      </trkpt>
      <trkpt lat="45.87605" lon="3.68593">
        <ele>642</ele>
        <time>2024-12-08T01:28:24.620Z</time>
      </trkpt>
      <trkpt lat="45.87605" lon="3.68595">
        <ele>642</ele>
        <time>2024-12-08T01:28:25.620Z</time>
      </trkpt>
      <trkpt lat="45.87605" lon="3.68598">
        <ele>641</ele>
        <time>2024-12-08T01:28:26.620Z</time>
      </trkpt>
      <trkpt lat="45.87605" lon="3.68599">
        <ele>641</ele>
        <time>2024-12-08T01:28:27.620Z</time>
      </trkpt>
      <trkpt lat="45.87605" lon="3.68602">
        <ele>641</ele>
        <time>2024-12-08T01:28:28.620Z</time>
      </trkpt>
      <trkpt lat="45.87606" lon="3.68604">
        <ele>641</ele>
        <time>2024-12-08T01:28:29.619Z</time>
      </trkpt>
      <trkpt lat="45.87606" lon="3.68606">
        <ele>641</ele>
        <time>2024-12-08T01:28:30.620Z</time>
      </trkpt>
      <trkpt lat="45.87606" lon="3.68608">
        <ele>642</ele>
        <time>2024-12-08T01:28:31.619Z</time>
      </trkpt>
      <trkpt lat="45.87606" lon="3.6861">
        <ele>642</ele>
        <time>2024-12-08T01:28:32.619Z</time>
      </trkpt>
      <trkpt lat="45.87606" lon="3.68613">
        <ele>643</ele>
        <time>2024-12-08T01:28:33.619Z</time>
      </trkpt>
      <trkpt lat="45.87606" lon="3.68615">
        <ele>643</ele>
        <time>2024-12-08T01:28:34.619Z</time>
      </trkpt>
      <trkpt lat="45.87607" lon="3.68617">
        <ele>643</ele>
        <time>2024-12-08T01:28:35.620Z</time>
      </trkpt>
      <trkpt lat="45.87607" lon="3.68618">
        <ele>643</ele>
        <time>2024-12-08T01:28:36.620Z</time>
      </trkpt>
      <trkpt lat="45.87607" lon="3.6862">
        <ele>643</ele>
        <time>2024-12-08T01:28:37.620Z</time>
      </trkpt>
      <trkpt lat="45.87608" lon="3.68622">
        <ele>644</ele>
        <time>2024-12-08T01:28:38.619Z</time>
      </trkpt>
      <trkpt lat="45.87608" lon="3.68624">
        <ele>644</ele>
        <time>2024-12-08T01:28:39.619Z</time>
      </trkpt>
      <trkpt lat="45.87608" lon="3.68626">
        <ele>644</ele>
        <time>2024-12-08T01:28:40.619Z</time>
      </trkpt>
      <trkpt lat="45.87608" lon="3.68628">
        <ele>645</ele>
        <time>2024-12-08T01:28:41.619Z</time>
      </trkpt>
      <trkpt lat="45.87608" lon="3.6863">
        <ele>645</ele>
        <time>2024-12-08T01:28:42.620Z</time>
      </trkpt>
      <trkpt lat="45.87608" lon="3.68633">
        <ele>645</ele>
        <time>2024-12-08T01:28:43.620Z</time>
      </trkpt>
      <trkpt lat="45.87609" lon="3.68635">
        <ele>645</ele>
        <time>2024-12-08T01:28:44.619Z</time>
      </trkpt>
      <trkpt lat="45.87609" lon="3.68637">
        <ele>644</ele>
        <time>2024-12-08T01:28:45.620Z</time>
      </trkpt>
      <trkpt lat="45.87609" lon="3.68639">
        <ele>644</ele>
        <time>2024-12-08T01:28:46.619Z</time>
      </trkpt>
      <trkpt lat="45.8761" lon="3.68641">
        <ele>645</ele>
        <time>2024-12-08T01:28:47.620Z</time>
      </trkpt>
      <trkpt lat="45.8761" lon="3.68644">
        <ele>645</ele>
        <time>2024-12-08T01:28:48.619Z</time>
      </trkpt>
      <trkpt lat="45.8761" lon="3.68646">
        <ele>645</ele>
        <time>2024-12-08T01:28:49.619Z</time>
      </trkpt>
      <trkpt lat="45.8761" lon="3.68648">
        <ele>645</ele>
        <time>2024-12-08T01:28:50.620Z</time>
      </trkpt>
      <trkpt lat="45.8761" lon="3.6865">
        <ele>645</ele>
        <time>2024-12-08T01:28:51.620Z</time>
      </trkpt>
      <trkpt lat="45.8761" lon="3.68652">
        <ele>645</ele>
        <time>2024-12-08T01:28:52.620Z</time>
      </trkpt>
      <trkpt lat="45.8761" lon="3.68654">
        <ele>646</ele>
        <time>2024-12-08T01:28:53.619Z</time>
      </trkpt>
      <trkpt lat="45.87611" lon="3.68656">
        <ele>646</ele>
        <time>2024-12-08T01:28:54.619Z</time>
      </trkpt>
      <trkpt lat="45.87611" lon="3.68658">
        <ele>646</ele>
        <time>2024-12-08T01:28:55.620Z</time>
      </trkpt>
      <trkpt lat="45.87611" lon="3.6866">
        <ele>646</ele>
        <time>2024-12-08T01:28:56.619Z</time>
      </trkpt>
      <trkpt lat="45.87612" lon="3.68662">
        <ele>646</ele>
        <time>2024-12-08T01:28:57.619Z</time>
      </trkpt>
      <trkpt lat="45.87612" lon="3.68664">
        <ele>646</ele>
        <time>2024-12-08T01:28:58.620Z</time>
      </trkpt>
      <trkpt lat="45.87613" lon="3.68666">
        <ele>646</ele>
        <time>2024-12-08T01:28:59.619Z</time>
      </trkpt>
      <trkpt lat="45.87613" lon="3.68669">
        <ele>646</ele>
        <time>2024-12-08T01:29:00.620Z</time>
      </trkpt>
      <trkpt lat="45.87613" lon="3.6867">
        <ele>646</ele>
        <time>2024-12-08T01:29:01.620Z</time>
      </trkpt>
      <trkpt lat="45.87614" lon="3.68673">
        <ele>647</ele>
        <time>2024-12-08T01:29:02.619Z</time>
      </trkpt>
      <trkpt lat="45.87614" lon="3.68675">
        <ele>647</ele>
        <time>2024-12-08T01:29:03.619Z</time>
      </trkpt>
      <trkpt lat="45.87614" lon="3.68677">
        <ele>647</ele>
        <time>2024-12-08T01:29:04.619Z</time>
      </trkpt>
      <trkpt lat="45.87615" lon="3.68678">
        <ele>647</ele>
        <time>2024-12-08T01:29:05.620Z</time>
      </trkpt>
      <trkpt lat="45.87616" lon="3.6868">
        <ele>647</ele>
        <time>2024-12-08T01:29:06.620Z</time>
      </trkpt>
      <trkpt lat="45.87616" lon="3.68682">
        <ele>647</ele>
        <time>2024-12-08T01:29:07.620Z</time>
      </trkpt>
      <trkpt lat="45.87616" lon="3.68683">
        <ele>647</ele>
        <time>2024-12-08T01:29:08.619Z</time>
      </trkpt>
      <trkpt lat="45.87617" lon="3.68685">
        <ele>647</ele>
        <time>2024-12-08T01:29:09.619Z</time>
      </trkpt>
      <trkpt lat="45.87617" lon="3.68687">
        <ele>647</ele>
        <time>2024-12-08T01:29:10.619Z</time>
      </trkpt>
      <trkpt lat="45.87618" lon="3.68689">
        <ele>647</ele>
        <time>2024-12-08T01:29:11.620Z</time>
      </trkpt>
      <trkpt lat="45.87618" lon="3.68691">
        <ele>647</ele>
        <time>2024-12-08T01:29:12.619Z</time>
      </trkpt>
      <trkpt lat="45.87619" lon="3.68692">
        <ele>647</ele>
        <time>2024-12-08T01:29:13.619Z</time>
      </trkpt>
      <trkpt lat="45.87619" lon="3.68694">
        <ele>646</ele>
        <time>2024-12-08T01:29:14.619Z</time>
      </trkpt>
      <trkpt lat="45.87619" lon="3.68696">
        <ele>646</ele>
        <time>2024-12-08T01:29:15.619Z</time>
      </trkpt>
      <trkpt lat="45.8762" lon="3.68697">
        <ele>646</ele>
        <time>2024-12-08T01:29:16.620Z</time>
      </trkpt>
      <trkpt lat="45.87621" lon="3.68699">
        <ele>646</ele>
        <time>2024-12-08T01:29:17.619Z</time>
      </trkpt>
      <trkpt lat="45.87621" lon="3.68701">
        <ele>646</ele>
        <time>2024-12-08T01:29:18.620Z</time>
      </trkpt>
      <trkpt lat="45.87621" lon="3.68702">
        <ele>646</ele>
        <time>2024-12-08T01:29:19.619Z</time>
      </trkpt>
      <trkpt lat="45.87621" lon="3.68704">
        <ele>646</ele>
        <time>2024-12-08T01:29:20.619Z</time>
      </trkpt>
      <trkpt lat="45.87622" lon="3.68706">
        <ele>645</ele>
        <time>2024-12-08T01:29:21.619Z</time>
      </trkpt>
      <trkpt lat="45.87622" lon="3.68707">
        <ele>645</ele>
        <time>2024-12-08T01:29:22.620Z</time>
      </trkpt>
      <trkpt lat="45.87622" lon="3.68709">
        <ele>644</ele>
        <time>2024-12-08T01:29:23.619Z</time>
      </trkpt>
      <trkpt lat="45.87622" lon="3.68711">
        <ele>643</ele>
        <time>2024-12-08T01:29:24.620Z</time>
      </trkpt>
      <trkpt lat="45.87622" lon="3.68713">
        <ele>643</ele>
        <time>2024-12-08T01:29:25.620Z</time>
      </trkpt>
      <trkpt lat="45.87622" lon="3.68715">
        <ele>642</ele>
        <time>2024-12-08T01:29:26.620Z</time>
      </trkpt>
      <trkpt lat="45.87622" lon="3.68717">
        <ele>641</ele>
        <time>2024-12-08T01:29:27.620Z</time>
      </trkpt>
      <trkpt lat="45.87622" lon="3.68719">
        <ele>641</ele>
        <time>2024-12-08T01:29:28.619Z</time>
      </trkpt>
      <trkpt lat="45.87622" lon="3.68721">
        <ele>640</ele>
        <time>2024-12-08T01:29:29.619Z</time>
      </trkpt>
      <trkpt lat="45.87623" lon="3.68723">
        <ele>640</ele>
        <time>2024-12-08T01:29:30.619Z</time>
      </trkpt>
      <trkpt lat="45.87623" lon="3.68725">
        <ele>640</ele>
        <time>2024-12-08T01:29:31.620Z</time>
      </trkpt>
      <trkpt lat="45.87623" lon="3.68728">
        <ele>639</ele>
        <time>2024-12-08T01:29:32.619Z</time>
      </trkpt>
      <trkpt lat="45.87624" lon="3.68731">
        <ele>639</ele>
        <time>2024-12-08T01:29:33.620Z</time>
      </trkpt>
      <trkpt lat="45.87624" lon="3.68733">
        <ele>638</ele>
        <time>2024-12-08T01:29:34.620Z</time>
      </trkpt>
      <trkpt lat="45.87625" lon="3.68736">
        <ele>638</ele>
        <time>2024-12-08T01:29:35.620Z</time>
      </trkpt>
      <trkpt lat="45.87625" lon="3.68738">
        <ele>638</ele>
        <time>2024-12-08T01:29:36.619Z</time>
      </trkpt>
      <trkpt lat="45.87626" lon="3.6874">
        <ele>638</ele>
        <time>2024-12-08T01:29:37.620Z</time>
      </trkpt>
      <trkpt lat="45.87626" lon="3.68742">
        <ele>638</ele>
        <time>2024-12-08T01:29:38.620Z</time>
      </trkpt>
      <trkpt lat="45.87627" lon="3.68745">
        <ele>638</ele>
        <time>2024-12-08T01:29:39.619Z</time>
      </trkpt>
      <trkpt lat="45.87627" lon="3.68747">
        <ele>638</ele>
        <time>2024-12-08T01:29:40.620Z</time>
      </trkpt>
      <trkpt lat="45.87627" lon="3.68749">
        <ele>638</ele>
        <time>2024-12-08T01:29:41.619Z</time>
      </trkpt>
      <trkpt lat="45.87628" lon="3.68752">
        <ele>638</ele>
        <time>2024-12-08T01:29:42.620Z</time>
      </trkpt>
      <trkpt lat="45.87628" lon="3.68754">
        <ele>638</ele>
        <time>2024-12-08T01:29:43.619Z</time>
      </trkpt>
      <trkpt lat="45.87628" lon="3.68756">
        <ele>638</ele>
        <time>2024-12-08T01:29:44.620Z</time>
      </trkpt>
      <trkpt lat="45.87628" lon="3.68759">
        <ele>638</ele>
        <time>2024-12-08T01:29:45.619Z</time>
      </trkpt>
      <trkpt lat="45.87628" lon="3.68761">
        <ele>637</ele>
        <time>2024-12-08T01:29:46.620Z</time>
      </trkpt>
      <trkpt lat="45.87628" lon="3.68763">
        <ele>637</ele>
        <time>2024-12-08T01:29:47.620Z</time>
      </trkpt>
      <trkpt lat="45.87628" lon="3.68765">
        <ele>637</ele>
        <time>2024-12-08T01:29:48.619Z</time>
      </trkpt>
      <trkpt lat="45.87628" lon="3.68767">
        <ele>637</ele>
        <time>2024-12-08T01:29:49.619Z</time>
      </trkpt>
      <trkpt lat="45.87628" lon="3.68769">
        <ele>637</ele>
        <time>2024-12-08T01:29:50.619Z</time>
      </trkpt>
      <trkpt lat="45.87628" lon="3.68772">
        <ele>636</ele>
        <time>2024-12-08T01:29:51.620Z</time>
      </trkpt>
      <trkpt lat="45.87627" lon="3.68774">
        <ele>636</ele>
        <time>2024-12-08T01:29:52.619Z</time>
      </trkpt>
      <trkpt lat="45.87627" lon="3.68776">
        <ele>636</ele>
        <time>2024-12-08T01:29:53.620Z</time>
      </trkpt>
      <trkpt lat="45.87626" lon="3.68778">
        <ele>636</ele>
        <time>2024-12-08T01:29:54.619Z</time>
      </trkpt>
      <trkpt lat="45.87626" lon="3.6878">
        <ele>636</ele>
        <time>2024-12-08T01:29:55.620Z</time>
      </trkpt>
      <trkpt lat="45.87626" lon="3.68782">
        <ele>636</ele>
        <time>2024-12-08T01:29:56.620Z</time>
      </trkpt>
      <trkpt lat="45.87625" lon="3.68784">
        <ele>636</ele>
        <time>2024-12-08T01:29:57.620Z</time>
      </trkpt>
      <trkpt lat="45.87624" lon="3.68785">
        <ele>636</ele>
        <time>2024-12-08T01:29:58.619Z</time>
      </trkpt>
      <trkpt lat="45.87624" lon="3.68787">
        <ele>635</ele>
        <time>2024-12-08T01:29:59.620Z</time>
      </trkpt>
      <trkpt lat="45.87623" lon="3.68789">
        <ele>635</ele>
        <time>2024-12-08T01:30:00.620Z</time>
      </trkpt>
      <trkpt lat="45.87622" lon="3.6879">
        <ele>635</ele>
        <time>2024-12-08T01:30:01.620Z</time>
      </trkpt>
      <trkpt lat="45.87621" lon="3.68792">
        <ele>635</ele>
        <time>2024-12-08T01:30:02.619Z</time>
      </trkpt>
      <trkpt lat="45.87621" lon="3.68793">
        <ele>634</ele>
        <time>2024-12-08T01:30:03.619Z</time>
      </trkpt>
      <trkpt lat="45.8762" lon="3.68795">
        <ele>634</ele>
        <time>2024-12-08T01:30:04.619Z</time>
      </trkpt>
      <trkpt lat="45.87619" lon="3.68797">
        <ele>634</ele>
        <time>2024-12-08T01:30:05.619Z</time>
      </trkpt>
      <trkpt lat="45.87617" lon="3.68798">
        <ele>633</ele>
        <time>2024-12-08T01:30:06.620Z</time>
      </trkpt>
      <trkpt lat="45.87616" lon="3.688">
        <ele>633</ele>
        <time>2024-12-08T01:30:07.620Z</time>
      </trkpt>
      <trkpt lat="45.87615" lon="3.68801">
        <ele>633</ele>
        <time>2024-12-08T01:30:08.620Z</time>
      </trkpt>
      <trkpt lat="45.87614" lon="3.68802">
        <ele>633</ele>
        <time>2024-12-08T01:30:09.620Z</time>
      </trkpt>
      <trkpt lat="45.87612" lon="3.68803">
        <ele>632</ele>
        <time>2024-12-08T01:30:10.619Z</time>
      </trkpt>
      <trkpt lat="45.87611" lon="3.68805">
        <ele>632</ele>
        <time>2024-12-08T01:30:11.620Z</time>
      </trkpt>
      <trkpt lat="45.8761" lon="3.68807">
        <ele>631</ele>
        <time>2024-12-08T01:30:12.619Z</time>
      </trkpt>
      <trkpt lat="45.8761" lon="3.68809">
        <ele>631</ele>
        <time>2024-12-08T01:30:13.619Z</time>
      </trkpt>
      <trkpt lat="45.87609" lon="3.6881">
        <ele>631</ele>
        <time>2024-12-08T01:30:14.619Z</time>
      </trkpt>
      <trkpt lat="45.87608" lon="3.68812">
        <ele>631</ele>
        <time>2024-12-08T01:30:15.620Z</time>
      </trkpt>
      <trkpt lat="45.87607" lon="3.68814">
        <ele>630</ele>
        <time>2024-12-08T01:30:16.619Z</time>
      </trkpt>
      <trkpt lat="45.87606" lon="3.68816">
        <ele>630</ele>
        <time>2024-12-08T01:30:17.620Z</time>
      </trkpt>
      <trkpt lat="45.87606" lon="3.68818">
        <ele>630</ele>
        <time>2024-12-08T01:30:18.619Z</time>
      </trkpt>
      <trkpt lat="45.87606" lon="3.6882">
        <ele>630</ele>
        <time>2024-12-08T01:30:19.619Z</time>
      </trkpt>
      <trkpt lat="45.87605" lon="3.68822">
        <ele>630</ele>
        <time>2024-12-08T01:30:20.619Z</time>
      </trkpt>
      <trkpt lat="45.87605" lon="3.68825">
        <ele>631</ele>
        <time>2024-12-08T01:30:21.619Z</time>
      </trkpt>
      <trkpt lat="45.87605" lon="3.68828">
        <ele>631</ele>
        <time>2024-12-08T01:30:22.619Z</time>
      </trkpt>
      <trkpt lat="45.87604" lon="3.6883">
        <ele>631</ele>
        <time>2024-12-08T01:30:23.620Z</time>
      </trkpt>
      <trkpt lat="45.87604" lon="3.68832">
        <ele>631</ele>
        <time>2024-12-08T01:30:24.620Z</time>
      </trkpt>
      <trkpt lat="45.87604" lon="3.68835">
        <ele>630</ele>
        <time>2024-12-08T01:30:25.619Z</time>
      </trkpt>
      <trkpt lat="45.87604" lon="3.68837">
        <ele>630</ele>
        <time>2024-12-08T01:30:26.619Z</time>
      </trkpt>
      <trkpt lat="45.87604" lon="3.68839">
        <ele>630</ele>
        <time>2024-12-08T01:30:27.619Z</time>
      </trkpt>
      <trkpt lat="45.87604" lon="3.68841">
        <ele>630</ele>
        <time>2024-12-08T01:30:28.620Z</time>
      </trkpt>
      <trkpt lat="45.87604" lon="3.68844">
        <ele>630</ele>
        <time>2024-12-08T01:30:29.619Z</time>
      </trkpt>
      <trkpt lat="45.87604" lon="3.68846">
        <ele>630</ele>
        <time>2024-12-08T01:30:30.619Z</time>
      </trkpt>
      <trkpt lat="45.87605" lon="3.68848">
        <ele>629</ele>
        <time>2024-12-08T01:30:31.619Z</time>
      </trkpt>
      <trkpt lat="45.87605" lon="3.6885">
        <ele>629</ele>
        <time>2024-12-08T01:30:32.620Z</time>
      </trkpt>
      <trkpt lat="45.87605" lon="3.68852">
        <ele>628</ele>
        <time>2024-12-08T01:30:33.619Z</time>
      </trkpt>
      <trkpt lat="45.87606" lon="3.68854">
        <ele>628</ele>
        <time>2024-12-08T01:30:34.619Z</time>
      </trkpt>
      <trkpt lat="45.87606" lon="3.68856">
        <ele>628</ele>
        <time>2024-12-08T01:30:35.619Z</time>
      </trkpt>
      <trkpt lat="45.87607" lon="3.68858">
        <ele>628</ele>
        <time>2024-12-08T01:30:36.619Z</time>
      </trkpt>
      <trkpt lat="45.87608" lon="3.6886">
        <ele>628</ele>
        <time>2024-12-08T01:30:37.620Z</time>
      </trkpt>
      <trkpt lat="45.8761" lon="3.68861">
        <ele>628</ele>
        <time>2024-12-08T01:30:38.619Z</time>
      </trkpt>
      <trkpt lat="45.87611" lon="3.68863">
        <ele>628</ele>
        <time>2024-12-08T01:30:39.619Z</time>
      </trkpt>
      <trkpt lat="45.87612" lon="3.68864">
        <ele>628</ele>
        <time>2024-12-08T01:30:40.619Z</time>
      </trkpt>
      <trkpt lat="45.87614" lon="3.68865">
        <ele>628</ele>
        <time>2024-12-08T01:30:41.620Z</time>
      </trkpt>
      <trkpt lat="45.87615" lon="3.68866">
        <ele>629</ele>
        <time>2024-12-08T01:30:42.619Z</time>
      </trkpt>
      <trkpt lat="45.87617" lon="3.68867">
        <ele>628</ele>
        <time>2024-12-08T01:30:43.620Z</time>
      </trkpt>
      <trkpt lat="45.87618" lon="3.68869">
        <ele>628</ele>
        <time>2024-12-08T01:30:44.619Z</time>
      </trkpt>
      <trkpt lat="45.87619" lon="3.6887">
        <ele>628</ele>
        <time>2024-12-08T01:30:45.620Z</time>
      </trkpt>
      <trkpt lat="45.87621" lon="3.68872">
        <ele>628</ele>
        <time>2024-12-08T01:30:46.619Z</time>
      </trkpt>
      <trkpt lat="45.87622" lon="3.68873">
        <ele>627</ele>
        <time>2024-12-08T01:30:47.620Z</time>
      </trkpt>
      <trkpt lat="45.87623" lon="3.68874">
        <ele>627</ele>
        <time>2024-12-08T01:30:48.619Z</time>
      </trkpt>
      <trkpt lat="45.87625" lon="3.68876">
        <ele>627</ele>
        <time>2024-12-08T01:30:49.619Z</time>
      </trkpt>
      <trkpt lat="45.87627" lon="3.68877">
        <ele>627</ele>
        <time>2024-12-08T01:30:50.619Z</time>
      </trkpt>
      <trkpt lat="45.87628" lon="3.68879">
        <ele>627</ele>
        <time>2024-12-08T01:30:51.620Z</time>
      </trkpt>
      <trkpt lat="45.8763" lon="3.6888">
        <ele>627</ele>
        <time>2024-12-08T01:30:52.619Z</time>
      </trkpt>
      <trkpt lat="45.87631" lon="3.68881">
        <ele>628</ele>
        <time>2024-12-08T01:30:53.619Z</time>
      </trkpt>
      <trkpt lat="45.87632" lon="3.68882">
        <ele>628</ele>
        <time>2024-12-08T01:30:54.620Z</time>
      </trkpt>
      <trkpt lat="45.87634" lon="3.68883">
        <ele>628</ele>
        <time>2024-12-08T01:30:55.619Z</time>
      </trkpt>
      <trkpt lat="45.87635" lon="3.68885">
        <ele>628</ele>
        <time>2024-12-08T01:30:56.619Z</time>
      </trkpt>
      <trkpt lat="45.87636" lon="3.68886">
        <ele>628</ele>
        <time>2024-12-08T01:30:57.620Z</time>
      </trkpt>
      <trkpt lat="45.87637" lon="3.68888">
        <ele>628</ele>
        <time>2024-12-08T01:30:58.619Z</time>
      </trkpt>
      <trkpt lat="45.87638" lon="3.68889">
        <ele>628</ele>
        <time>2024-12-08T01:30:59.619Z</time>
      </trkpt>
      <trkpt lat="45.8764" lon="3.68891">
        <ele>628</ele>
        <time>2024-12-08T01:31:00.619Z</time>
      </trkpt>
      <trkpt lat="45.87641" lon="3.68893">
        <ele>628</ele>
        <time>2024-12-08T01:31:01.619Z</time>
      </trkpt>
      <trkpt lat="45.87642" lon="3.68894">
        <ele>628</ele>
        <time>2024-12-08T01:31:02.619Z</time>
      </trkpt>
      <trkpt lat="45.87643" lon="3.68896">
        <ele>628</ele>
        <time>2024-12-08T01:31:03.619Z</time>
      </trkpt>
      <trkpt lat="45.87644" lon="3.68897">
        <ele>628</ele>
        <time>2024-12-08T01:31:04.619Z</time>
      </trkpt>
      <trkpt lat="45.87644" lon="3.68899">
        <ele>628</ele>
        <time>2024-12-08T01:31:05.619Z</time>
      </trkpt>
      <trkpt lat="45.87645" lon="3.68901">
        <ele>628</ele>
        <time>2024-12-08T01:31:06.619Z</time>
      </trkpt>
      <trkpt lat="45.87645" lon="3.68903">
        <ele>628</ele>
        <time>2024-12-08T01:31:07.619Z</time>
      </trkpt>
      <trkpt lat="45.87646" lon="3.68905">
        <ele>628</ele>
        <time>2024-12-08T01:31:08.619Z</time>
      </trkpt>
      <trkpt lat="45.87646" lon="3.68907">
        <ele>628</ele>
        <time>2024-12-08T01:31:09.620Z</time>
      </trkpt>
      <trkpt lat="45.87647" lon="3.68909">
        <ele>628</ele>
        <time>2024-12-08T01:31:10.619Z</time>
      </trkpt>
      <trkpt lat="45.87647" lon="3.68911">
        <ele>628</ele>
        <time>2024-12-08T01:31:11.619Z</time>
      </trkpt>
      <trkpt lat="45.87647" lon="3.68913">
        <ele>628</ele>
        <time>2024-12-08T01:31:12.620Z</time>
      </trkpt>
      <trkpt lat="45.87647" lon="3.68915">
        <ele>628</ele>
        <time>2024-12-08T01:31:13.619Z</time>
      </trkpt>
      <trkpt lat="45.87647" lon="3.68918">
        <ele>628</ele>
        <time>2024-12-08T01:31:14.619Z</time>
      </trkpt>
      <trkpt lat="45.87647" lon="3.6892">
        <ele>629</ele>
        <time>2024-12-08T01:31:15.619Z</time>
      </trkpt>
      <trkpt lat="45.87646" lon="3.68923">
        <ele>629</ele>
        <time>2024-12-08T01:31:16.619Z</time>
      </trkpt>
      <trkpt lat="45.87646" lon="3.68925">
        <ele>629</ele>
        <time>2024-12-08T01:31:17.619Z</time>
      </trkpt>
      <trkpt lat="45.87646" lon="3.68928">
        <ele>629</ele>
        <time>2024-12-08T01:31:18.619Z</time>
      </trkpt>
      <trkpt lat="45.87645" lon="3.6893">
        <ele>629</ele>
        <time>2024-12-08T01:31:19.619Z</time>
      </trkpt>
      <trkpt lat="45.87645" lon="3.68933">
        <ele>629</ele>
        <time>2024-12-08T01:31:20.619Z</time>
      </trkpt>
      <trkpt lat="45.87644" lon="3.68936">
        <ele>629</ele>
        <time>2024-12-08T01:31:21.619Z</time>
      </trkpt>
      <trkpt lat="45.87644" lon="3.68938">
        <ele>629</ele>
        <time>2024-12-08T01:31:22.620Z</time>
      </trkpt>
      <trkpt lat="45.87643" lon="3.6894">
        <ele>629</ele>
        <time>2024-12-08T01:31:23.620Z</time>
      </trkpt>
      <trkpt lat="45.87643" lon="3.68942">
        <ele>629</ele>
        <time>2024-12-08T01:31:24.619Z</time>
      </trkpt>
      <trkpt lat="45.87642" lon="3.68945">
        <ele>629</ele>
        <time>2024-12-08T01:31:25.620Z</time>
      </trkpt>
      <trkpt lat="45.87642" lon="3.68947">
        <ele>628</ele>
        <time>2024-12-08T01:31:26.619Z</time>
      </trkpt>
      <trkpt lat="45.87641" lon="3.68949">
        <ele>628</ele>
        <time>2024-12-08T01:31:27.620Z</time>
      </trkpt>
      <trkpt lat="45.87641" lon="3.68951">
        <ele>628</ele>
        <time>2024-12-08T01:31:28.619Z</time>
      </trkpt>
      <trkpt lat="45.87641" lon="3.68953">
        <ele>628</ele>
        <time>2024-12-08T01:31:29.619Z</time>
      </trkpt>
      <trkpt lat="45.87641" lon="3.68955">
        <ele>628</ele>
        <time>2024-12-08T01:31:30.619Z</time>
      </trkpt>
      <trkpt lat="45.8764" lon="3.68957">
        <ele>628</ele>
        <time>2024-12-08T01:31:31.619Z</time>
      </trkpt>
      <trkpt lat="45.8764" lon="3.68959">
        <ele>628</ele>
        <time>2024-12-08T01:31:32.620Z</time>
      </trkpt>
      <trkpt lat="45.8764" lon="3.68961">
        <ele>628</ele>
        <time>2024-12-08T01:31:33.619Z</time>
      </trkpt>
      <trkpt lat="45.8764" lon="3.68963">
        <ele>627</ele>
        <time>2024-12-08T01:31:34.619Z</time>
      </trkpt>
      <trkpt lat="45.87639" lon="3.68964">
        <ele>627</ele>
        <time>2024-12-08T01:31:35.619Z</time>
      </trkpt>
      <trkpt lat="45.87639" lon="3.68966">
        <ele>627</ele>
        <time>2024-12-08T01:31:36.619Z</time>
      </trkpt>
      <trkpt lat="45.87638" lon="3.68968">
        <ele>627</ele>
        <time>2024-12-08T01:31:37.619Z</time>
      </trkpt>
      <trkpt lat="45.87638" lon="3.6897">
        <ele>626</ele>
        <time>2024-12-08T01:31:38.619Z</time>
      </trkpt>
      <trkpt lat="45.87638" lon="3.68972">
        <ele>626</ele>
        <time>2024-12-08T01:31:39.619Z</time>
      </trkpt>
      <trkpt lat="45.87637" lon="3.68974">
        <ele>626</ele>
        <time>2024-12-08T01:31:40.620Z</time>
      </trkpt>
      <trkpt lat="45.87637" lon="3.68976">
        <ele>625</ele>
        <time>2024-12-08T01:31:41.620Z</time>
      </trkpt>
      <trkpt lat="45.87637" lon="3.68978">
        <ele>625</ele>
        <time>2024-12-08T01:31:42.620Z</time>
      </trkpt>
      <trkpt lat="45.87637" lon="3.6898">
        <ele>625</ele>
        <time>2024-12-08T01:31:43.620Z</time>
      </trkpt>
      <trkpt lat="45.87637" lon="3.68982">
        <ele>625</ele>
        <time>2024-12-08T01:31:44.619Z</time>
      </trkpt>
      <trkpt lat="45.87637" lon="3.68984">
        <ele>625</ele>
        <time>2024-12-08T01:31:45.619Z</time>
      </trkpt>
      <trkpt lat="45.87637" lon="3.68986">
        <ele>625</ele>
        <time>2024-12-08T01:31:46.619Z</time>
      </trkpt>
      <trkpt lat="45.87637" lon="3.68987">
        <ele>625</ele>
        <time>2024-12-08T01:31:47.620Z</time>
      </trkpt>
      <trkpt lat="45.87636" lon="3.6899">
        <ele>625</ele>
        <time>2024-12-08T01:31:48.619Z</time>
      </trkpt>
      <trkpt lat="45.87636" lon="3.68992">
        <ele>626</ele>
        <time>2024-12-08T01:31:49.620Z</time>
      </trkpt>
      <trkpt lat="45.87636" lon="3.68994">
        <ele>626</ele>
        <time>2024-12-08T01:31:50.619Z</time>
      </trkpt>
      <trkpt lat="45.87635" lon="3.68996">
        <ele>626</ele>
        <time>2024-12-08T01:31:51.620Z</time>
      </trkpt>
      <trkpt lat="45.87635" lon="3.68998">
        <ele>625</ele>
        <time>2024-12-08T01:31:52.619Z</time>
      </trkpt>
      <trkpt lat="45.87636" lon="3.69002">
        <ele>625</ele>
        <time>2024-12-08T01:31:53.620Z</time>
      </trkpt>
      <trkpt lat="45.87638" lon="3.69004">
        <ele>625</ele>
        <time>2024-12-08T01:31:54.620Z</time>
      </trkpt>
      <trkpt lat="45.87639" lon="3.69006">
        <ele>624</ele>
        <time>2024-12-08T01:31:55.619Z</time>
      </trkpt>
      <trkpt lat="45.87641" lon="3.69007">
        <ele>624</ele>
        <time>2024-12-08T01:31:56.620Z</time>
      </trkpt>
      <trkpt lat="45.87643" lon="3.69007">
        <ele>624</ele>
        <time>2024-12-08T01:31:57.620Z</time>
      </trkpt>
      <trkpt lat="45.87644" lon="3.69008">
        <ele>624</ele>
        <time>2024-12-08T01:31:58.620Z</time>
      </trkpt>
      <trkpt lat="45.87645" lon="3.69008">
        <ele>624</ele>
        <time>2024-12-08T01:31:59.619Z</time>
      </trkpt>
      <trkpt lat="45.87646" lon="3.69008">
        <ele>624</ele>
        <time>2024-12-08T01:32:00.620Z</time>
      </trkpt>
      <trkpt lat="45.87647" lon="3.69009">
        <ele>624</ele>
        <time>2024-12-08T01:32:01.619Z</time>
      </trkpt>
      <trkpt lat="45.87648" lon="3.69009">
        <ele>624</ele>
        <time>2024-12-08T01:32:02.620Z</time>
      </trkpt>
      <trkpt lat="45.87648" lon="3.69009">
        <ele>624</ele>
        <time>2024-12-08T01:32:03.619Z</time>
      </trkpt>
      <trkpt lat="45.87649" lon="3.69009">
        <ele>624</ele>
        <time>2024-12-08T01:32:04.619Z</time>
      </trkpt>
      <trkpt lat="45.87649" lon="3.69009">
        <ele>624</ele>
        <time>2024-12-08T01:32:05.620Z</time>
      </trkpt>
      <trkpt lat="45.87652" lon="3.69011">
        <ele>624</ele>
        <time>2024-12-08T01:32:08.620Z</time>
      </trkpt>
      <trkpt lat="45.87652" lon="3.69011">
        <ele>624</ele>
        <time>2024-12-08T01:32:09.620Z</time>
      </trkpt>
      <trkpt lat="45.87653" lon="3.69013">
        <ele>624</ele>
        <time>2024-12-08T01:32:10.620Z</time>
      </trkpt>
      <trkpt lat="45.87654" lon="3.69013">
        <ele>624</ele>
        <time>2024-12-08T01:32:11.619Z</time>
      </trkpt>
      <trkpt lat="45.87655" lon="3.69016">
        <ele>624</ele>
        <time>2024-12-08T01:32:12.620Z</time>
      </trkpt>
      <trkpt lat="45.87656" lon="3.69018">
        <ele>624</ele>
        <time>2024-12-08T01:32:13.620Z</time>
      </trkpt>
      <trkpt lat="45.87657" lon="3.69019">
        <ele>624</ele>
        <time>2024-12-08T01:32:14.620Z</time>
      </trkpt>
      <trkpt lat="45.87659" lon="3.69022">
        <ele>624</ele>
        <time>2024-12-08T01:32:15.619Z</time>
      </trkpt>
      <trkpt lat="45.8766" lon="3.69025">
        <ele>624</ele>
        <time>2024-12-08T01:32:16.620Z</time>
      </trkpt>
      <trkpt lat="45.87662" lon="3.69028">
        <ele>624</ele>
        <time>2024-12-08T01:32:17.620Z</time>
      </trkpt>
      <trkpt lat="45.87664" lon="3.6903">
        <ele>624</ele>
        <time>2024-12-08T01:32:18.619Z</time>
      </trkpt>
      <trkpt lat="45.87665" lon="3.6903">
        <ele>624</ele>
        <time>2024-12-08T01:32:19.620Z</time>
      </trkpt>
      <trkpt lat="45.87668" lon="3.69027">
        <ele>624</ele>
        <time>2024-12-08T01:32:20.619Z</time>
      </trkpt>
      <trkpt lat="45.87674" lon="3.69025">
        <ele>624</ele>
        <time>2024-12-08T01:32:21.619Z</time>
      </trkpt>
      <trkpt lat="45.87677" lon="3.69023">
        <ele>624</ele>
        <time>2024-12-08T01:32:22.620Z</time>
      </trkpt>
      <trkpt lat="45.87679" lon="3.69021">
        <ele>623</ele>
        <time>2024-12-08T01:32:23.619Z</time>
      </trkpt>
      <trkpt lat="45.87681" lon="3.69018">
        <ele>623</ele>
        <time>2024-12-08T01:32:24.620Z</time>
      </trkpt>
      <trkpt lat="45.87684" lon="3.69018">
        <ele>623</ele>
        <time>2024-12-08T01:32:25.619Z</time>
      </trkpt>
      <trkpt lat="45.87685" lon="3.69014">
        <ele>623</ele>
        <time>2024-12-08T01:32:26.619Z</time>
      </trkpt>
      <trkpt lat="45.8769" lon="3.6901">
        <ele>623</ele>
        <time>2024-12-08T01:32:27.619Z</time>
      </trkpt>
      <trkpt lat="45.87686" lon="3.69011">
        <ele>622</ele>
        <time>2024-12-08T01:32:28.619Z</time>
      </trkpt>
      <trkpt lat="45.87684" lon="3.6901">
        <ele>621</ele>
        <time>2024-12-08T01:32:29.619Z</time>
      </trkpt>
      <trkpt lat="45.87683" lon="3.6901">
        <ele>621</ele>
        <time>2024-12-08T01:32:30.620Z</time>
      </trkpt>
      <trkpt lat="45.87688" lon="3.69009">
        <ele>619</ele>
        <time>2024-12-08T01:32:31.620Z</time>
      </trkpt>
      <trkpt lat="45.87692" lon="3.69008">
        <ele>619</ele>
        <time>2024-12-08T01:32:32.620Z</time>
      </trkpt>
      <trkpt lat="45.87695" lon="3.69008">
        <ele>618</ele>
        <time>2024-12-08T01:32:33.620Z</time>
      </trkpt>
      <trkpt lat="45.87696" lon="3.69007">
        <ele>618</ele>
        <time>2024-12-08T01:32:34.619Z</time>
      </trkpt>
      <trkpt lat="45.87698" lon="3.69006">
        <ele>617</ele>
        <time>2024-12-08T01:32:35.619Z</time>
      </trkpt>
      <trkpt lat="45.87699" lon="3.69007">
        <ele>616</ele>
        <time>2024-12-08T01:32:36.619Z</time>
      </trkpt>
      <trkpt lat="45.877" lon="3.69007">
        <ele>615</ele>
        <time>2024-12-08T01:32:37.620Z</time>
      </trkpt>
      <trkpt lat="45.87702" lon="3.69008">
        <ele>615</ele>
        <time>2024-12-08T01:32:38.620Z</time>
      </trkpt>
      <trkpt lat="45.87704" lon="3.69009">
        <ele>614</ele>
        <time>2024-12-08T01:32:39.619Z</time>
      </trkpt>
      <trkpt lat="45.87706" lon="3.69011">
        <ele>614</ele>
        <time>2024-12-08T01:32:40.619Z</time>
      </trkpt>
      <trkpt lat="45.87707" lon="3.69013">
        <ele>614</ele>
        <time>2024-12-08T01:32:41.620Z</time>
      </trkpt>
      <trkpt lat="45.87708" lon="3.69015">
        <ele>613</ele>
        <time>2024-12-08T01:32:42.620Z</time>
      </trkpt>
      <trkpt lat="45.87709" lon="3.69017">
        <ele>613</ele>
        <time>2024-12-08T01:32:43.619Z</time>
      </trkpt>
      <trkpt lat="45.8771" lon="3.6902">
        <ele>613</ele>
        <time>2024-12-08T01:32:44.620Z</time>
      </trkpt>
      <trkpt lat="45.87711" lon="3.69023">
        <ele>613</ele>
        <time>2024-12-08T01:32:45.619Z</time>
      </trkpt>
      <trkpt lat="45.87712" lon="3.69026">
        <ele>613</ele>
        <time>2024-12-08T01:32:46.620Z</time>
      </trkpt>
      <trkpt lat="45.87712" lon="3.69029">
        <ele>613</ele>
        <time>2024-12-08T01:32:47.619Z</time>
      </trkpt>
      <trkpt lat="45.87712" lon="3.69031">
        <ele>613</ele>
        <time>2024-12-08T01:32:48.619Z</time>
      </trkpt>
      <trkpt lat="45.87712" lon="3.69033">
        <ele>612</ele>
        <time>2024-12-08T01:32:49.620Z</time>
      </trkpt>
      <trkpt lat="45.87712" lon="3.69035">
        <ele>612</ele>
        <time>2024-12-08T01:32:50.619Z</time>
      </trkpt>
      <trkpt lat="45.87712" lon="3.69038">
        <ele>612</ele>
        <time>2024-12-08T01:32:51.620Z</time>
      </trkpt>
      <trkpt lat="45.87712" lon="3.6904">
        <ele>611</ele>
        <time>2024-12-08T01:32:52.619Z</time>
      </trkpt>
      <trkpt lat="45.87713" lon="3.69042">
        <ele>611</ele>
        <time>2024-12-08T01:32:53.620Z</time>
      </trkpt>
      <trkpt lat="45.87713" lon="3.69044">
        <ele>611</ele>
        <time>2024-12-08T01:32:54.619Z</time>
      </trkpt>
      <trkpt lat="45.87714" lon="3.69046">
        <ele>611</ele>
        <time>2024-12-08T01:32:55.620Z</time>
      </trkpt>
      <trkpt lat="45.87714" lon="3.69048">
        <ele>610</ele>
        <time>2024-12-08T01:32:56.620Z</time>
      </trkpt>
      <trkpt lat="45.87714" lon="3.69051">
        <ele>610</ele>
        <time>2024-12-08T01:32:57.620Z</time>
      </trkpt>
      <trkpt lat="45.87714" lon="3.69053">
        <ele>610</ele>
        <time>2024-12-08T01:32:58.619Z</time>
      </trkpt>
      <trkpt lat="45.87714" lon="3.69056">
        <ele>610</ele>
        <time>2024-12-08T01:32:59.619Z</time>
      </trkpt>
      <trkpt lat="45.87715" lon="3.69058">
        <ele>610</ele>
        <time>2024-12-08T01:33:00.619Z</time>
      </trkpt>
      <trkpt lat="45.87715" lon="3.6906">
        <ele>610</ele>
        <time>2024-12-08T01:33:01.619Z</time>
      </trkpt>
      <trkpt lat="45.87716" lon="3.69062">
        <ele>610</ele>
        <time>2024-12-08T01:33:02.620Z</time>
      </trkpt>
      <trkpt lat="45.87717" lon="3.69065">
        <ele>610</ele>
        <time>2024-12-08T01:33:03.619Z</time>
      </trkpt>
      <trkpt lat="45.87717" lon="3.69067">
        <ele>610</ele>
        <time>2024-12-08T01:33:04.620Z</time>
      </trkpt>
      <trkpt lat="45.87717" lon="3.6907">
        <ele>610</ele>
        <time>2024-12-08T01:33:05.620Z</time>
      </trkpt>
      <trkpt lat="45.87717" lon="3.69073">
        <ele>610</ele>
        <time>2024-12-08T01:33:06.619Z</time>
      </trkpt>
      <trkpt lat="45.87717" lon="3.69075">
        <ele>610</ele>
        <time>2024-12-08T01:33:07.620Z</time>
      </trkpt>
      <trkpt lat="45.87717" lon="3.69077">
        <ele>610</ele>
        <time>2024-12-08T01:33:08.619Z</time>
      </trkpt>
      <trkpt lat="45.87717" lon="3.6908">
        <ele>610</ele>
        <time>2024-12-08T01:33:09.620Z</time>
      </trkpt>
      <trkpt lat="45.87717" lon="3.69083">
        <ele>610</ele>
        <time>2024-12-08T01:33:10.620Z</time>
      </trkpt>
      <trkpt lat="45.87718" lon="3.69085">
        <ele>610</ele>
        <time>2024-12-08T01:33:11.619Z</time>
      </trkpt>
      <trkpt lat="45.8772" lon="3.69087">
        <ele>610</ele>
        <time>2024-12-08T01:33:12.620Z</time>
      </trkpt>
      <trkpt lat="45.87721" lon="3.69089">
        <ele>610</ele>
        <time>2024-12-08T01:33:13.619Z</time>
      </trkpt>
      <trkpt lat="45.87722" lon="3.69091">
        <ele>611</ele>
        <time>2024-12-08T01:33:14.620Z</time>
      </trkpt>
      <trkpt lat="45.87723" lon="3.69093">
        <ele>611</ele>
        <time>2024-12-08T01:33:15.619Z</time>
      </trkpt>
      <trkpt lat="45.87723" lon="3.69096">
        <ele>612</ele>
        <time>2024-12-08T01:33:16.619Z</time>
      </trkpt>
      <trkpt lat="45.87724" lon="3.69098">
        <ele>612</ele>
        <time>2024-12-08T01:33:17.619Z</time>
      </trkpt>
      <trkpt lat="45.87725" lon="3.691">
        <ele>612</ele>
        <time>2024-12-08T01:33:18.620Z</time>
      </trkpt>
      <trkpt lat="45.87725" lon="3.69102">
        <ele>613</ele>
        <time>2024-12-08T01:33:19.620Z</time>
      </trkpt>
      <trkpt lat="45.87725" lon="3.69104">
        <ele>613</ele>
        <time>2024-12-08T01:33:20.620Z</time>
      </trkpt>
      <trkpt lat="45.87726" lon="3.69106">
        <ele>613</ele>
        <time>2024-12-08T01:33:21.620Z</time>
      </trkpt>
      <trkpt lat="45.87726" lon="3.69108">
        <ele>614</ele>
        <time>2024-12-08T01:33:22.620Z</time>
      </trkpt>
      <trkpt lat="45.87726" lon="3.6911">
        <ele>614</ele>
        <time>2024-12-08T01:33:23.619Z</time>
      </trkpt>
      <trkpt lat="45.87725" lon="3.69113">
        <ele>614</ele>
        <time>2024-12-08T01:33:24.620Z</time>
      </trkpt>
      <trkpt lat="45.87725" lon="3.69115">
        <ele>615</ele>
        <time>2024-12-08T01:33:25.619Z</time>
      </trkpt>
      <trkpt lat="45.87726" lon="3.69117">
        <ele>615</ele>
        <time>2024-12-08T01:33:26.619Z</time>
      </trkpt>
      <trkpt lat="45.87727" lon="3.6912">
        <ele>616</ele>
        <time>2024-12-08T01:33:27.619Z</time>
      </trkpt>
      <trkpt lat="45.87728" lon="3.69122">
        <ele>616</ele>
        <time>2024-12-08T01:33:28.619Z</time>
      </trkpt>
      <trkpt lat="45.87728" lon="3.69124">
        <ele>617</ele>
        <time>2024-12-08T01:33:29.620Z</time>
      </trkpt>
      <trkpt lat="45.87728" lon="3.69127">
        <ele>617</ele>
        <time>2024-12-08T01:33:30.620Z</time>
      </trkpt>
      <trkpt lat="45.87728" lon="3.69129">
        <ele>617</ele>
        <time>2024-12-08T01:33:31.619Z</time>
      </trkpt>
      <trkpt lat="45.87728" lon="3.69131">
        <ele>618</ele>
        <time>2024-12-08T01:33:32.620Z</time>
      </trkpt>
      <trkpt lat="45.87728" lon="3.69133">
        <ele>618</ele>
        <time>2024-12-08T01:33:33.620Z</time>
      </trkpt>
      <trkpt lat="45.87727" lon="3.69135">
        <ele>618</ele>
        <time>2024-12-08T01:33:34.619Z</time>
      </trkpt>
      <trkpt lat="45.87727" lon="3.69137">
        <ele>619</ele>
        <time>2024-12-08T01:33:35.619Z</time>
      </trkpt>
      <trkpt lat="45.87727" lon="3.6914">
        <ele>619</ele>
        <time>2024-12-08T01:33:36.619Z</time>
      </trkpt>
      <trkpt lat="45.87726" lon="3.69142">
        <ele>619</ele>
        <time>2024-12-08T01:33:37.620Z</time>
      </trkpt>
      <trkpt lat="45.87726" lon="3.69144">
        <ele>619</ele>
        <time>2024-12-08T01:33:38.619Z</time>
      </trkpt>
      <trkpt lat="45.87725" lon="3.69146">
        <ele>619</ele>
        <time>2024-12-08T01:33:39.619Z</time>
      </trkpt>
      <trkpt lat="45.87723" lon="3.69148">
        <ele>620</ele>
        <time>2024-12-08T01:33:40.620Z</time>
      </trkpt>
      <trkpt lat="45.87722" lon="3.69151">
        <ele>620</ele>
        <time>2024-12-08T01:33:41.620Z</time>
      </trkpt>
      <trkpt lat="45.8772" lon="3.69154">
        <ele>620</ele>
        <time>2024-12-08T01:33:42.620Z</time>
      </trkpt>
      <trkpt lat="45.87719" lon="3.69156">
        <ele>620</ele>
        <time>2024-12-08T01:33:43.619Z</time>
      </trkpt>
      <trkpt lat="45.87718" lon="3.69158">
        <ele>620</ele>
        <time>2024-12-08T01:33:44.620Z</time>
      </trkpt>
      <trkpt lat="45.87717" lon="3.69159">
        <ele>621</ele>
        <time>2024-12-08T01:33:45.620Z</time>
      </trkpt>
      <trkpt lat="45.87716" lon="3.69161">
        <ele>621</ele>
        <time>2024-12-08T01:33:46.619Z</time>
      </trkpt>
      <trkpt lat="45.87715" lon="3.69164">
        <ele>622</ele>
        <time>2024-12-08T01:33:47.619Z</time>
      </trkpt>
      <trkpt lat="45.87715" lon="3.69167">
        <ele>622</ele>
        <time>2024-12-08T01:33:48.620Z</time>
      </trkpt>
      <trkpt lat="45.87715" lon="3.69171">
        <ele>623</ele>
        <time>2024-12-08T01:33:49.619Z</time>
      </trkpt>
      <trkpt lat="45.87715" lon="3.69174">
        <ele>623</ele>
        <time>2024-12-08T01:33:50.619Z</time>
      </trkpt>
      <trkpt lat="45.87715" lon="3.69176">
        <ele>623</ele>
        <time>2024-12-08T01:33:51.619Z</time>
      </trkpt>
      <trkpt lat="45.87715" lon="3.6918">
        <ele>624</ele>
        <time>2024-12-08T01:33:52.619Z</time>
      </trkpt>
      <trkpt lat="45.87714" lon="3.69182">
        <ele>624</ele>
        <time>2024-12-08T01:33:53.619Z</time>
      </trkpt>
      <trkpt lat="45.87714" lon="3.69185">
        <ele>624</ele>
        <time>2024-12-08T01:33:54.620Z</time>
      </trkpt>
      <trkpt lat="45.87714" lon="3.69187">
        <ele>623</ele>
        <time>2024-12-08T01:33:55.620Z</time>
      </trkpt>
      <trkpt lat="45.87714" lon="3.6919">
        <ele>623</ele>
        <time>2024-12-08T01:33:56.620Z</time>
      </trkpt>
      <trkpt lat="45.87714" lon="3.69193">
        <ele>623</ele>
        <time>2024-12-08T01:33:57.619Z</time>
      </trkpt>
      <trkpt lat="45.87714" lon="3.69195">
        <ele>623</ele>
        <time>2024-12-08T01:33:58.619Z</time>
      </trkpt>
      <trkpt lat="45.87714" lon="3.69197">
        <ele>623</ele>
        <time>2024-12-08T01:33:59.619Z</time>
      </trkpt>
      <trkpt lat="45.87713" lon="3.69199">
        <ele>623</ele>
        <time>2024-12-08T01:34:00.619Z</time>
      </trkpt>
      <trkpt lat="45.87714" lon="3.69202">
        <ele>623</ele>
        <time>2024-12-08T01:34:01.620Z</time>
      </trkpt>
      <trkpt lat="45.87714" lon="3.69205">
        <ele>623</ele>
        <time>2024-12-08T01:34:02.619Z</time>
      </trkpt>
      <trkpt lat="45.87714" lon="3.69208">
        <ele>623</ele>
        <time>2024-12-08T01:34:03.619Z</time>
      </trkpt>
      <trkpt lat="45.87714" lon="3.69212">
        <ele>623</ele>
        <time>2024-12-08T01:34:04.619Z</time>
      </trkpt>
      <trkpt lat="45.87714" lon="3.69215">
        <ele>623</ele>
        <time>2024-12-08T01:34:05.620Z</time>
      </trkpt>
      <trkpt lat="45.87713" lon="3.69217">
        <ele>624</ele>
        <time>2024-12-08T01:34:06.620Z</time>
      </trkpt>
      <trkpt lat="45.87713" lon="3.6922">
        <ele>624</ele>
        <time>2024-12-08T01:34:07.619Z</time>
      </trkpt>
      <trkpt lat="45.87713" lon="3.69222">
        <ele>624</ele>
        <time>2024-12-08T01:34:08.619Z</time>
      </trkpt>
      <trkpt lat="45.87713" lon="3.69225">
        <ele>624</ele>
        <time>2024-12-08T01:34:09.619Z</time>
      </trkpt>
      <trkpt lat="45.87713" lon="3.69227">
        <ele>624</ele>
        <time>2024-12-08T01:34:10.620Z</time>
      </trkpt>
      <trkpt lat="45.87714" lon="3.69229">
        <ele>624</ele>
        <time>2024-12-08T01:34:11.620Z</time>
      </trkpt>
      <trkpt lat="45.87715" lon="3.69231">
        <ele>624</ele>
        <time>2024-12-08T01:34:12.619Z</time>
      </trkpt>
      <trkpt lat="45.87716" lon="3.69233">
        <ele>623</ele>
        <time>2024-12-08T01:34:13.620Z</time>
      </trkpt>
      <trkpt lat="45.87717" lon="3.69235">
        <ele>623</ele>
        <time>2024-12-08T01:34:14.620Z</time>
      </trkpt>
      <trkpt lat="45.87718" lon="3.69236">
        <ele>623</ele>
        <time>2024-12-08T01:34:15.619Z</time>
      </trkpt>
      <trkpt lat="45.87719" lon="3.69238">
        <ele>622</ele>
        <time>2024-12-08T01:34:16.620Z</time>
      </trkpt>
      <trkpt lat="45.8772" lon="3.6924">
        <ele>621</ele>
        <time>2024-12-08T01:34:17.620Z</time>
      </trkpt>
      <trkpt lat="45.87722" lon="3.69242">
        <ele>621</ele>
        <time>2024-12-08T01:34:18.619Z</time>
      </trkpt>
      <trkpt lat="45.87723" lon="3.69243">
        <ele>620</ele>
        <time>2024-12-08T01:34:19.620Z</time>
      </trkpt>
      <trkpt lat="45.87725" lon="3.69244">
        <ele>620</ele>
        <time>2024-12-08T01:34:20.620Z</time>
      </trkpt>
      <trkpt lat="45.87726" lon="3.69246">
        <ele>619</ele>
        <time>2024-12-08T01:34:21.619Z</time>
      </trkpt>
      <trkpt lat="45.87727" lon="3.69248">
        <ele>619</ele>
        <time>2024-12-08T01:34:22.619Z</time>
      </trkpt>
      <trkpt lat="45.87728" lon="3.69249">
        <ele>618</ele>
        <time>2024-12-08T01:34:23.620Z</time>
      </trkpt>
      <trkpt lat="45.8773" lon="3.69251">
        <ele>617</ele>
        <time>2024-12-08T01:34:24.619Z</time>
      </trkpt>
      <trkpt lat="45.87731" lon="3.69253">
        <ele>617</ele>
        <time>2024-12-08T01:34:25.619Z</time>
      </trkpt>
      <trkpt lat="45.87731" lon="3.69256">
        <ele>616</ele>
        <time>2024-12-08T01:34:26.620Z</time>
      </trkpt>
      <trkpt lat="45.87732" lon="3.69258">
        <ele>615</ele>
        <time>2024-12-08T01:34:27.619Z</time>
      </trkpt>
      <trkpt lat="45.87733" lon="3.6926">
        <ele>615</ele>
        <time>2024-12-08T01:34:28.619Z</time>
      </trkpt>
      <trkpt lat="45.87734" lon="3.69261">
        <ele>615</ele>
        <time>2024-12-08T01:34:29.619Z</time>
      </trkpt>
      <trkpt lat="45.87735" lon="3.69263">
        <ele>614</ele>
        <time>2024-12-08T01:34:30.619Z</time>
      </trkpt>
      <trkpt lat="45.87735" lon="3.69264">
        <ele>614</ele>
        <time>2024-12-08T01:34:31.619Z</time>
      </trkpt>
      <trkpt lat="45.87737" lon="3.69266">
        <ele>614</ele>
        <time>2024-12-08T01:34:32.620Z</time>
      </trkpt>
      <trkpt lat="45.87738" lon="3.69267">
        <ele>614</ele>
        <time>2024-12-08T01:34:33.620Z</time>
      </trkpt>
      <trkpt lat="45.87738" lon="3.6927">
        <ele>614</ele>
        <time>2024-12-08T01:34:34.619Z</time>
      </trkpt>
      <trkpt lat="45.87739" lon="3.69272">
        <ele>614</ele>
        <time>2024-12-08T01:34:35.620Z</time>
      </trkpt>
      <trkpt lat="45.8774" lon="3.69274">
        <ele>613</ele>
        <time>2024-12-08T01:34:36.620Z</time>
      </trkpt>
      <trkpt lat="45.87742" lon="3.69275">
        <ele>613</ele>
        <time>2024-12-08T01:34:37.620Z</time>
      </trkpt>
      <trkpt lat="45.87743" lon="3.69277">
        <ele>613</ele>
        <time>2024-12-08T01:34:38.619Z</time>
      </trkpt>
      <trkpt lat="45.87744" lon="3.69279">
        <ele>613</ele>
        <time>2024-12-08T01:34:39.619Z</time>
      </trkpt>
      <trkpt lat="45.87745" lon="3.69281">
        <ele>613</ele>
        <time>2024-12-08T01:34:40.620Z</time>
      </trkpt>
      <trkpt lat="45.87745" lon="3.69283">
        <ele>612</ele>
        <time>2024-12-08T01:34:41.619Z</time>
      </trkpt>
      <trkpt lat="45.87746" lon="3.69285">
        <ele>612</ele>
        <time>2024-12-08T01:34:42.619Z</time>
      </trkpt>
      <trkpt lat="45.87747" lon="3.69287">
        <ele>612</ele>
        <time>2024-12-08T01:34:43.619Z</time>
      </trkpt>
      <trkpt lat="45.87749" lon="3.69289">
        <ele>611</ele>
        <time>2024-12-08T01:34:44.619Z</time>
      </trkpt>
      <trkpt lat="45.8775" lon="3.69291">
        <ele>611</ele>
        <time>2024-12-08T01:34:45.620Z</time>
      </trkpt>
      <trkpt lat="45.87751" lon="3.69293">
        <ele>611</ele>
        <time>2024-12-08T01:34:46.619Z</time>
      </trkpt>
      <trkpt lat="45.87752" lon="3.69295">
        <ele>611</ele>
        <time>2024-12-08T01:34:47.620Z</time>
      </trkpt>
      <trkpt lat="45.87753" lon="3.69296">
        <ele>611</ele>
        <time>2024-12-08T01:34:48.620Z</time>
      </trkpt>
      <trkpt lat="45.87754" lon="3.69297">
        <ele>611</ele>
        <time>2024-12-08T01:34:49.620Z</time>
      </trkpt>
      <trkpt lat="45.87755" lon="3.69299">
        <ele>611</ele>
        <time>2024-12-08T01:34:50.619Z</time>
      </trkpt>
      <trkpt lat="45.87756" lon="3.69301">
        <ele>611</ele>
        <time>2024-12-08T01:34:51.620Z</time>
      </trkpt>
      <trkpt lat="45.87757" lon="3.69303">
        <ele>611</ele>
        <time>2024-12-08T01:34:52.619Z</time>
      </trkpt>
      <trkpt lat="45.87758" lon="3.69304">
        <ele>611</ele>
        <time>2024-12-08T01:34:53.620Z</time>
      </trkpt>
      <trkpt lat="45.87759" lon="3.69305">
        <ele>611</ele>
        <time>2024-12-08T01:34:54.620Z</time>
      </trkpt>
      <trkpt lat="45.8776" lon="3.69307">
        <ele>611</ele>
        <time>2024-12-08T01:34:55.620Z</time>
      </trkpt>
      <trkpt lat="45.87761" lon="3.69308">
        <ele>611</ele>
        <time>2024-12-08T01:34:56.619Z</time>
      </trkpt>
      <trkpt lat="45.87762" lon="3.6931">
        <ele>612</ele>
        <time>2024-12-08T01:34:57.619Z</time>
      </trkpt>
      <trkpt lat="45.87763" lon="3.69311">
        <ele>611</ele>
        <time>2024-12-08T01:34:58.620Z</time>
      </trkpt>
      <trkpt lat="45.87764" lon="3.69313">
        <ele>611</ele>
        <time>2024-12-08T01:34:59.619Z</time>
      </trkpt>
      <trkpt lat="45.87765" lon="3.69314">
        <ele>611</ele>
        <time>2024-12-08T01:35:00.620Z</time>
      </trkpt>
      <trkpt lat="45.87766" lon="3.69316">
        <ele>611</ele>
        <time>2024-12-08T01:35:01.619Z</time>
      </trkpt>
      <trkpt lat="45.87767" lon="3.69318">
        <ele>611</ele>
        <time>2024-12-08T01:35:02.619Z</time>
      </trkpt>
      <trkpt lat="45.87768" lon="3.6932">
        <ele>611</ele>
        <time>2024-12-08T01:35:03.619Z</time>
      </trkpt>
      <trkpt lat="45.87769" lon="3.69322">
        <ele>611</ele>
        <time>2024-12-08T01:35:04.620Z</time>
      </trkpt>
      <trkpt lat="45.8777" lon="3.69323">
        <ele>611</ele>
        <time>2024-12-08T01:35:05.619Z</time>
      </trkpt>
      <trkpt lat="45.87771" lon="3.69325">
        <ele>611</ele>
        <time>2024-12-08T01:35:06.619Z</time>
      </trkpt>
      <trkpt lat="45.87773" lon="3.69327">
        <ele>611</ele>
        <time>2024-12-08T01:35:07.619Z</time>
      </trkpt>
      <trkpt lat="45.87774" lon="3.69328">
        <ele>611</ele>
        <time>2024-12-08T01:35:08.619Z</time>
      </trkpt>
      <trkpt lat="45.87775" lon="3.6933">
        <ele>611</ele>
        <time>2024-12-08T01:35:09.619Z</time>
      </trkpt>
      <trkpt lat="45.87776" lon="3.69332">
        <ele>611</ele>
        <time>2024-12-08T01:35:10.620Z</time>
      </trkpt>
      <trkpt lat="45.87777" lon="3.69333">
        <ele>611</ele>
        <time>2024-12-08T01:35:11.620Z</time>
      </trkpt>
      <trkpt lat="45.87778" lon="3.69334">
        <ele>612</ele>
        <time>2024-12-08T01:35:12.619Z</time>
      </trkpt>
      <trkpt lat="45.87779" lon="3.69336">
        <ele>612</ele>
        <time>2024-12-08T01:35:13.620Z</time>
      </trkpt>
      <trkpt lat="45.87781" lon="3.69337">
        <ele>612</ele>
        <time>2024-12-08T01:35:14.619Z</time>
      </trkpt>
      <trkpt lat="45.87782" lon="3.69339">
        <ele>613</ele>
        <time>2024-12-08T01:35:15.620Z</time>
      </trkpt>
      <trkpt lat="45.87783" lon="3.6934">
        <ele>613</ele>
        <time>2024-12-08T01:35:16.619Z</time>
      </trkpt>
      <trkpt lat="45.87784" lon="3.69342">
        <ele>613</ele>
        <time>2024-12-08T01:35:17.619Z</time>
      </trkpt>
      <trkpt lat="45.87786" lon="3.69343">
        <ele>614</ele>
        <time>2024-12-08T01:35:18.620Z</time>
      </trkpt>
      <trkpt lat="45.87787" lon="3.69344">
        <ele>614</ele>
        <time>2024-12-08T01:35:19.620Z</time>
      </trkpt>
      <trkpt lat="45.87788" lon="3.69346">
        <ele>614</ele>
        <time>2024-12-08T01:35:20.619Z</time>
      </trkpt>
      <trkpt lat="45.8779" lon="3.69347">
        <ele>614</ele>
        <time>2024-12-08T01:35:21.620Z</time>
      </trkpt>
      <trkpt lat="45.87791" lon="3.69349">
        <ele>614</ele>
        <time>2024-12-08T01:35:22.619Z</time>
      </trkpt>
      <trkpt lat="45.87792" lon="3.69351">
        <ele>614</ele>
        <time>2024-12-08T01:35:23.619Z</time>
      </trkpt>
      <trkpt lat="45.87793" lon="3.69352">
        <ele>614</ele>
        <time>2024-12-08T01:35:24.619Z</time>
      </trkpt>
      <trkpt lat="45.87794" lon="3.69354">
        <ele>614</ele>
        <time>2024-12-08T01:35:25.620Z</time>
      </trkpt>
      <trkpt lat="45.87796" lon="3.69355">
        <ele>614</ele>
        <time>2024-12-08T01:35:26.619Z</time>
      </trkpt>
      <trkpt lat="45.87797" lon="3.69357">
        <ele>614</ele>
        <time>2024-12-08T01:35:27.620Z</time>
      </trkpt>
      <trkpt lat="45.87798" lon="3.69358">
        <ele>614</ele>
        <time>2024-12-08T01:35:28.619Z</time>
      </trkpt>
      <trkpt lat="45.87799" lon="3.6936">
        <ele>614</ele>
        <time>2024-12-08T01:35:29.620Z</time>
      </trkpt>
      <trkpt lat="45.87801" lon="3.69361">
        <ele>614</ele>
        <time>2024-12-08T01:35:30.619Z</time>
      </trkpt>
      <trkpt lat="45.87802" lon="3.69363">
        <ele>614</ele>
        <time>2024-12-08T01:35:31.619Z</time>
      </trkpt>
      <trkpt lat="45.87804" lon="3.69364">
        <ele>613</ele>
        <time>2024-12-08T01:35:32.619Z</time>
      </trkpt>
      <trkpt lat="45.87805" lon="3.69366">
        <ele>613</ele>
        <time>2024-12-08T01:35:33.619Z</time>
      </trkpt>
      <trkpt lat="45.87806" lon="3.69367">
        <ele>613</ele>
        <time>2024-12-08T01:35:34.620Z</time>
      </trkpt>
      <trkpt lat="45.87808" lon="3.69369">
        <ele>613</ele>
        <time>2024-12-08T01:35:35.620Z</time>
      </trkpt>
      <trkpt lat="45.87809" lon="3.6937">
        <ele>613</ele>
        <time>2024-12-08T01:35:36.620Z</time>
      </trkpt>
      <trkpt lat="45.8781" lon="3.69372">
        <ele>613</ele>
        <time>2024-12-08T01:35:37.619Z</time>
      </trkpt>
      <trkpt lat="45.87812" lon="3.69373">
        <ele>613</ele>
        <time>2024-12-08T01:35:38.620Z</time>
      </trkpt>
      <trkpt lat="45.87813" lon="3.69374">
        <ele>614</ele>
        <time>2024-12-08T01:35:39.619Z</time>
      </trkpt>
      <trkpt lat="45.87815" lon="3.69376">
        <ele>614</ele>
        <time>2024-12-08T01:35:40.620Z</time>
      </trkpt>
      <trkpt lat="45.87816" lon="3.69377">
        <ele>614</ele>
        <time>2024-12-08T01:35:41.619Z</time>
      </trkpt>
      <trkpt lat="45.87817" lon="3.69378">
        <ele>614</ele>
        <time>2024-12-08T01:35:42.620Z</time>
      </trkpt>
      <trkpt lat="45.87819" lon="3.6938">
        <ele>614</ele>
        <time>2024-12-08T01:35:43.619Z</time>
      </trkpt>
      <trkpt lat="45.8782" lon="3.69382">
        <ele>614</ele>
        <time>2024-12-08T01:35:44.620Z</time>
      </trkpt>
      <trkpt lat="45.87821" lon="3.69383">
        <ele>614</ele>
        <time>2024-12-08T01:35:45.619Z</time>
      </trkpt>
      <trkpt lat="45.87822" lon="3.69385">
        <ele>615</ele>
        <time>2024-12-08T01:35:46.619Z</time>
      </trkpt>
      <trkpt lat="45.87823" lon="3.69387">
        <ele>615</ele>
        <time>2024-12-08T01:35:47.620Z</time>
      </trkpt>
      <trkpt lat="45.87824" lon="3.69389">
        <ele>615</ele>
        <time>2024-12-08T01:35:48.619Z</time>
      </trkpt>
      <trkpt lat="45.87825" lon="3.69391">
        <ele>615</ele>
        <time>2024-12-08T01:35:49.620Z</time>
      </trkpt>
      <trkpt lat="45.87826" lon="3.69393">
        <ele>614</ele>
        <time>2024-12-08T01:35:50.619Z</time>
      </trkpt>
      <trkpt lat="45.87827" lon="3.69396">
        <ele>614</ele>
        <time>2024-12-08T01:35:51.620Z</time>
      </trkpt>
      <trkpt lat="45.87828" lon="3.69398">
        <ele>615</ele>
        <time>2024-12-08T01:35:52.619Z</time>
      </trkpt>
      <trkpt lat="45.87829" lon="3.694">
        <ele>615</ele>
        <time>2024-12-08T01:35:53.620Z</time>
      </trkpt>
      <trkpt lat="45.8783" lon="3.69402">
        <ele>615</ele>
        <time>2024-12-08T01:35:54.619Z</time>
      </trkpt>
      <trkpt lat="45.87831" lon="3.69405">
        <ele>615</ele>
        <time>2024-12-08T01:35:55.619Z</time>
      </trkpt>
      <trkpt lat="45.87832" lon="3.69407">
        <ele>615</ele>
        <time>2024-12-08T01:35:56.620Z</time>
      </trkpt>
      <trkpt lat="45.87832" lon="3.69409">
        <ele>615</ele>
        <time>2024-12-08T01:35:57.619Z</time>
      </trkpt>
      <trkpt lat="45.87833" lon="3.69411">
        <ele>615</ele>
        <time>2024-12-08T01:35:58.619Z</time>
      </trkpt>
      <trkpt lat="45.87833" lon="3.69414">
        <ele>615</ele>
        <time>2024-12-08T01:35:59.619Z</time>
      </trkpt>
      <trkpt lat="45.87834" lon="3.69416">
        <ele>615</ele>
        <time>2024-12-08T01:36:00.620Z</time>
      </trkpt>
      <trkpt lat="45.87835" lon="3.69418">
        <ele>615</ele>
        <time>2024-12-08T01:36:01.620Z</time>
      </trkpt>
      <trkpt lat="45.87835" lon="3.6942">
        <ele>616</ele>
        <time>2024-12-08T01:36:02.619Z</time>
      </trkpt>
      <trkpt lat="45.87836" lon="3.69422">
        <ele>616</ele>
        <time>2024-12-08T01:36:03.619Z</time>
      </trkpt>
      <trkpt lat="45.87836" lon="3.69424">
        <ele>616</ele>
        <time>2024-12-08T01:36:04.619Z</time>
      </trkpt>
      <trkpt lat="45.87836" lon="3.69427">
        <ele>616</ele>
        <time>2024-12-08T01:36:05.620Z</time>
      </trkpt>
      <trkpt lat="45.87836" lon="3.69429">
        <ele>616</ele>
        <time>2024-12-08T01:36:06.620Z</time>
      </trkpt>
      <trkpt lat="45.87835" lon="3.69432">
        <ele>616</ele>
        <time>2024-12-08T01:36:07.620Z</time>
      </trkpt>
      <trkpt lat="45.87835" lon="3.69434">
        <ele>616</ele>
        <time>2024-12-08T01:36:08.620Z</time>
      </trkpt>
      <trkpt lat="45.87834" lon="3.69436">
        <ele>616</ele>
        <time>2024-12-08T01:36:09.620Z</time>
      </trkpt>
      <trkpt lat="45.87833" lon="3.69437">
        <ele>616</ele>
        <time>2024-12-08T01:36:10.620Z</time>
      </trkpt>
      <trkpt lat="45.87832" lon="3.69439">
        <ele>616</ele>
        <time>2024-12-08T01:36:11.620Z</time>
      </trkpt>
      <trkpt lat="45.87831" lon="3.69441">
        <ele>616</ele>
        <time>2024-12-08T01:36:12.619Z</time>
      </trkpt>
      <trkpt lat="45.8783" lon="3.69443">
        <ele>616</ele>
        <time>2024-12-08T01:36:13.619Z</time>
      </trkpt>
      <trkpt lat="45.87829" lon="3.69445">
        <ele>616</ele>
        <time>2024-12-08T01:36:14.619Z</time>
      </trkpt>
      <trkpt lat="45.87828" lon="3.69447">
        <ele>616</ele>
        <time>2024-12-08T01:36:15.620Z</time>
      </trkpt>
      <trkpt lat="45.87828" lon="3.69449">
        <ele>616</ele>
        <time>2024-12-08T01:36:16.619Z</time>
      </trkpt>
      <trkpt lat="45.87827" lon="3.69451">
        <ele>616</ele>
        <time>2024-12-08T01:36:17.620Z</time>
      </trkpt>
      <trkpt lat="45.87827" lon="3.69453">
        <ele>616</ele>
        <time>2024-12-08T01:36:18.620Z</time>
      </trkpt>
      <trkpt lat="45.87827" lon="3.69455">
        <ele>616</ele>
        <time>2024-12-08T01:36:19.620Z</time>
      </trkpt>
      <trkpt lat="45.87827" lon="3.69457">
        <ele>616</ele>
        <time>2024-12-08T01:36:20.619Z</time>
      </trkpt>
      <trkpt lat="45.87826" lon="3.69459">
        <ele>616</ele>
        <time>2024-12-08T01:36:21.620Z</time>
      </trkpt>
      <trkpt lat="45.87826" lon="3.69461">
        <ele>616</ele>
        <time>2024-12-08T01:36:22.619Z</time>
      </trkpt>
      <trkpt lat="45.87826" lon="3.69464">
        <ele>617</ele>
        <time>2024-12-08T01:36:23.619Z</time>
      </trkpt>
      <trkpt lat="45.87826" lon="3.69466">
        <ele>617</ele>
        <time>2024-12-08T01:36:24.620Z</time>
      </trkpt>
      <trkpt lat="45.87826" lon="3.69468">
        <ele>617</ele>
        <time>2024-12-08T01:36:25.619Z</time>
      </trkpt>
      <trkpt lat="45.87826" lon="3.69469">
        <ele>617</ele>
        <time>2024-12-08T01:36:26.619Z</time>
      </trkpt>
      <trkpt lat="45.87826" lon="3.69471">
        <ele>618</ele>
        <time>2024-12-08T01:36:27.620Z</time>
      </trkpt>
      <trkpt lat="45.87826" lon="3.69472">
        <ele>618</ele>
        <time>2024-12-08T01:36:28.620Z</time>
      </trkpt>
      <trkpt lat="45.87826" lon="3.69474">
        <ele>618</ele>
        <time>2024-12-08T01:36:29.620Z</time>
      </trkpt>
      <trkpt lat="45.87826" lon="3.69475">
        <ele>618</ele>
        <time>2024-12-08T01:36:30.619Z</time>
      </trkpt>
      <trkpt lat="45.87826" lon="3.69477">
        <ele>618</ele>
        <time>2024-12-08T01:36:31.619Z</time>
      </trkpt>
      <trkpt lat="45.87825" lon="3.69478">
        <ele>618</ele>
        <time>2024-12-08T01:36:32.620Z</time>
      </trkpt>
      <trkpt lat="45.87825" lon="3.69478">
        <ele>619</ele>
        <time>2024-12-08T01:36:33.619Z</time>
      </trkpt>
      <trkpt lat="45.87824" lon="3.69478">
        <ele>619</ele>
        <time>2024-12-08T01:36:34.619Z</time>
      </trkpt>
      <trkpt lat="45.87824" lon="3.69477">
        <ele>619</ele>
        <time>2024-12-08T01:36:35.619Z</time>
      </trkpt>
      <trkpt lat="45.87825" lon="3.69477">
        <ele>619</ele>
        <time>2024-12-08T01:36:36.619Z</time>
      </trkpt>
      <trkpt lat="45.87825" lon="3.69477">
        <ele>619</ele>
        <time>2024-12-08T01:36:37.620Z</time>
      </trkpt>
      <trkpt lat="45.87825" lon="3.69477">
        <ele>619</ele>
        <time>2024-12-08T01:36:38.619Z</time>
      </trkpt>
      <trkpt lat="45.87825" lon="3.69477">
        <ele>618</ele>
        <time>2024-12-08T01:36:39.619Z</time>
      </trkpt>
      <trkpt lat="45.87825" lon="3.69477">
        <ele>618</ele>
        <time>2024-12-08T01:36:40.620Z</time>
      </trkpt>
      <trkpt lat="45.87825" lon="3.69477">
        <ele>618</ele>
        <time>2024-12-08T01:36:41.619Z</time>
      </trkpt>
      <trkpt lat="45.87826" lon="3.69478">
        <ele>618</ele>
        <time>2024-12-08T01:36:42.619Z</time>
      </trkpt>
      <trkpt lat="45.87826" lon="3.69478">
        <ele>618</ele>
        <time>2024-12-08T01:36:43.620Z</time>
      </trkpt>
      <trkpt lat="45.87826" lon="3.69478">
        <ele>618</ele>
        <time>2024-12-08T01:36:44.619Z</time>
      </trkpt>
      <trkpt lat="45.87826" lon="3.69478">
        <ele>618</ele>
        <time>2024-12-08T01:36:45.620Z</time>
      </trkpt>
      <trkpt lat="45.87826" lon="3.69478">
        <ele>618</ele>
        <time>2024-12-08T01:36:46.619Z</time>
      </trkpt>
      <trkpt lat="45.87826" lon="3.69477">
        <ele>618</ele>
        <time>2024-12-08T01:36:47.620Z</time>
      </trkpt>
      <trkpt lat="45.87826" lon="3.69477">
        <ele>618</ele>
        <time>2024-12-08T01:36:48.619Z</time>
      </trkpt>
      <trkpt lat="45.87826" lon="3.69477">
        <ele>618</ele>
        <time>2024-12-08T01:36:49.620Z</time>
      </trkpt>
      <trkpt lat="45.87826" lon="3.69477">
        <ele>618</ele>
        <time>2024-12-08T01:36:50.619Z</time>
      </trkpt>
      <trkpt lat="45.87826" lon="3.69477">
        <ele>618</ele>
        <time>2024-12-08T01:36:51.619Z</time>
      </trkpt>
      <trkpt lat="45.87826" lon="3.69477">
        <ele>617</ele>
        <time>2024-12-08T01:36:52.620Z</time>
      </trkpt>
      <trkpt lat="45.87826" lon="3.69477">
        <ele>617</ele>
        <time>2024-12-08T01:36:53.619Z</time>
      </trkpt>
      <trkpt lat="45.87826" lon="3.69477">
        <ele>617</ele>
        <time>2024-12-08T01:36:54.619Z</time>
      </trkpt>
      <trkpt lat="45.87826" lon="3.69477">
        <ele>617</ele>
        <time>2024-12-08T01:36:55.620Z</time>
      </trkpt>
      <trkpt lat="45.87826" lon="3.69477">
        <ele>617</ele>
        <time>2024-12-08T01:36:56.620Z</time>
      </trkpt>
      <trkpt lat="45.87826" lon="3.69477">
        <ele>617</ele>
        <time>2024-12-08T01:36:57.619Z</time>
      </trkpt>
      <trkpt lat="45.87826" lon="3.69477">
        <ele>617</ele>
        <time>2024-12-08T01:36:58.619Z</time>
      </trkpt>
      <trkpt lat="45.87826" lon="3.69477">
        <ele>617</ele>
        <time>2024-12-08T01:36:59.620Z</time>
      </trkpt>
      <trkpt lat="45.87826" lon="3.69477">
        <ele>617</ele>
        <time>2024-12-08T01:37:00.619Z</time>
      </trkpt>
      <trkpt lat="45.87826" lon="3.69477">
        <ele>617</ele>
        <time>2024-12-08T01:37:01.620Z</time>
      </trkpt>
      <trkpt lat="45.87826" lon="3.69477">
        <ele>617</ele>
        <time>2024-12-08T01:37:02.620Z</time>
      </trkpt>
      <trkpt lat="45.87826" lon="3.69477">
        <ele>616</ele>
        <time>2024-12-08T01:37:03.620Z</time>
      </trkpt>
      <trkpt lat="45.87826" lon="3.69477">
        <ele>616</ele>
        <time>2024-12-08T01:37:04.619Z</time>
      </trkpt>
      <trkpt lat="45.87826" lon="3.69477">
        <ele>616</ele>
        <time>2024-12-08T01:37:05.619Z</time>
      </trkpt>
      <trkpt lat="45.87826" lon="3.69477">
        <ele>616</ele>
        <time>2024-12-08T01:37:06.619Z</time>
      </trkpt>
      <trkpt lat="45.87826" lon="3.69477">
        <ele>616</ele>
        <time>2024-12-08T01:37:07.619Z</time>
      </trkpt>
      <trkpt lat="45.87826" lon="3.69477">
        <ele>616</ele>
        <time>2024-12-08T01:37:08.620Z</time>
      </trkpt>
      <trkpt lat="45.87826" lon="3.69477">
        <ele>616</ele>
        <time>2024-12-08T01:37:09.619Z</time>
      </trkpt>
      <trkpt lat="45.87826" lon="3.69477">
        <ele>617</ele>
        <time>2024-12-08T01:37:10.619Z</time>
      </trkpt>
      <trkpt lat="45.87826" lon="3.69478">
        <ele>617</ele>
        <time>2024-12-08T01:37:11.620Z</time>
      </trkpt>
      <trkpt lat="45.87826" lon="3.69478">
        <ele>617</ele>
        <time>2024-12-08T01:37:12.619Z</time>
      </trkpt>
      <trkpt lat="45.87826" lon="3.69478">
        <ele>617</ele>
        <time>2024-12-08T01:37:13.619Z</time>
      </trkpt>
      <trkpt lat="45.87826" lon="3.69478">
        <ele>617</ele>
        <time>2024-12-08T01:37:14.619Z</time>
      </trkpt>
      <trkpt lat="45.87826" lon="3.69478">
        <ele>617</ele>
        <time>2024-12-08T01:37:15.619Z</time>
      </trkpt>
      <trkpt lat="45.87826" lon="3.69477">
        <ele>617</ele>
        <time>2024-12-08T01:37:16.620Z</time>
      </trkpt>
      <trkpt lat="45.87826" lon="3.69477">
        <ele>617</ele>
        <time>2024-12-08T01:37:17.619Z</time>
      </trkpt>
      <trkpt lat="45.87826" lon="3.69477">
        <ele>617</ele>
        <time>2024-12-08T01:37:18.619Z</time>
      </trkpt>
      <trkpt lat="45.87826" lon="3.69477">
        <ele>617</ele>
        <time>2024-12-08T01:37:19.619Z</time>
      </trkpt>
      <trkpt lat="45.87826" lon="3.69477">
        <ele>617</ele>
        <time>2024-12-08T01:37:20.619Z</time>
      </trkpt>
      <trkpt lat="45.87826" lon="3.69477">
        <ele>616</ele>
        <time>2024-12-08T01:37:21.619Z</time>
      </trkpt>
      <trkpt lat="45.87826" lon="3.69477">
        <ele>616</ele>
        <time>2024-12-08T01:37:22.620Z</time>
      </trkpt>
      <trkpt lat="45.87826" lon="3.69477">
        <ele>616</ele>
        <time>2024-12-08T01:37:23.620Z</time>
      </trkpt>
      <trkpt lat="45.87826" lon="3.69477">
        <ele>616</ele>
        <time>2024-12-08T01:37:24.619Z</time>
      </trkpt>
      <trkpt lat="45.87826" lon="3.69477">
        <ele>616</ele>
        <time>2024-12-08T01:37:25.619Z</time>
      </trkpt>
      <trkpt lat="45.87826" lon="3.69477">
        <ele>616</ele>
        <time>2024-12-08T01:37:26.620Z</time>
      </trkpt>
      <trkpt lat="45.87826" lon="3.69477">
        <ele>616</ele>
        <time>2024-12-08T01:37:27.620Z</time>
      </trkpt>
      <trkpt lat="45.87826" lon="3.69477">
        <ele>616</ele>
        <time>2024-12-08T01:37:28.619Z</time>
      </trkpt>
      <trkpt lat="45.87826" lon="3.69477">
        <ele>616</ele>
        <time>2024-12-08T01:37:29.619Z</time>
      </trkpt>
      <trkpt lat="45.87826" lon="3.69477">
        <ele>616</ele>
        <time>2024-12-08T01:37:30.619Z</time>
      </trkpt>
      <trkpt lat="45.87826" lon="3.69477">
        <ele>616</ele>
        <time>2024-12-08T01:37:31.620Z</time>
      </trkpt>
      <trkpt lat="45.87826" lon="3.69477">
        <ele>616</ele>
        <time>2024-12-08T01:37:32.619Z</time>
      </trkpt>
      <trkpt lat="45.87826" lon="3.69476">
        <ele>616</ele>
        <time>2024-12-08T01:37:33.620Z</time>
      </trkpt>
      <trkpt lat="45.87826" lon="3.69476">
        <ele>616</ele>
        <time>2024-12-08T01:37:34.619Z</time>
      </trkpt>
      <trkpt lat="45.87826" lon="3.69476">
        <ele>616</ele>
        <time>2024-12-08T01:37:35.619Z</time>
      </trkpt>
      <trkpt lat="45.87826" lon="3.69476">
        <ele>616</ele>
        <time>2024-12-08T01:37:36.619Z</time>
      </trkpt>
      <trkpt lat="45.87826" lon="3.69476">
        <ele>616</ele>
        <time>2024-12-08T01:37:37.619Z</time>
      </trkpt>
      <trkpt lat="45.87826" lon="3.69476">
        <ele>617</ele>
        <time>2024-12-08T01:37:38.619Z</time>
      </trkpt>
      <trkpt lat="45.87826" lon="3.69476">
        <ele>617</ele>
        <time>2024-12-08T01:37:39.620Z</time>
      </trkpt>
      <trkpt lat="45.87826" lon="3.69476">
        <ele>617</ele>
        <time>2024-12-08T01:37:40.619Z</time>
      </trkpt>
      <trkpt lat="45.87826" lon="3.69476">
        <ele>617</ele>
        <time>2024-12-08T01:37:41.620Z</time>
      </trkpt>
      <trkpt lat="45.87826" lon="3.69476">
        <ele>617</ele>
        <time>2024-12-08T01:37:42.619Z</time>
      </trkpt>
      <trkpt lat="45.87826" lon="3.69476">
        <ele>617</ele>
        <time>2024-12-08T01:37:43.619Z</time>
      </trkpt>
      <trkpt lat="45.87826" lon="3.69476">
        <ele>617</ele>
        <time>2024-12-08T01:37:44.619Z</time>
      </trkpt>
      <trkpt lat="45.87825" lon="3.69476">
        <ele>617</ele>
        <time>2024-12-08T01:37:45.619Z</time>
      </trkpt>
      <trkpt lat="45.87825" lon="3.69476">
        <ele>617</ele>
        <time>2024-12-08T01:37:46.620Z</time>
      </trkpt>
      <trkpt lat="45.87825" lon="3.69476">
        <ele>617</ele>
        <time>2024-12-08T01:37:47.620Z</time>
      </trkpt>
      <trkpt lat="45.87825" lon="3.69476">
        <ele>617</ele>
        <time>2024-12-08T01:37:48.619Z</time>
      </trkpt>
      <trkpt lat="45.87825" lon="3.69476">
        <ele>617</ele>
        <time>2024-12-08T01:37:49.620Z</time>
      </trkpt>
      <trkpt lat="45.87825" lon="3.69476">
        <ele>617</ele>
        <time>2024-12-08T01:37:50.619Z</time>
      </trkpt>
      <trkpt lat="45.87825" lon="3.69476">
        <ele>617</ele>
        <time>2024-12-08T01:37:51.620Z</time>
      </trkpt>
      <trkpt lat="45.87825" lon="3.69476">
        <ele>617</ele>
        <time>2024-12-08T01:37:52.620Z</time>
      </trkpt>
      <trkpt lat="45.87825" lon="3.69476">
        <ele>617</ele>
        <time>2024-12-08T01:37:53.620Z</time>
      </trkpt>
      <trkpt lat="45.87825" lon="3.69476">
        <ele>617</ele>
        <time>2024-12-08T01:37:54.620Z</time>
      </trkpt>
      <trkpt lat="45.87824" lon="3.69476">
        <ele>617</ele>
        <time>2024-12-08T01:37:55.620Z</time>
      </trkpt>
      <trkpt lat="45.87824" lon="3.69476">
        <ele>617</ele>
        <time>2024-12-08T01:37:56.620Z</time>
      </trkpt>
      <trkpt lat="45.87824" lon="3.69476">
        <ele>617</ele>
        <time>2024-12-08T01:37:57.619Z</time>
      </trkpt>
      <trkpt lat="45.87824" lon="3.69476">
        <ele>617</ele>
        <time>2024-12-08T01:37:58.620Z</time>
      </trkpt>
      <trkpt lat="45.87824" lon="3.69476">
        <ele>617</ele>
        <time>2024-12-08T01:37:59.620Z</time>
      </trkpt>
      <trkpt lat="45.87824" lon="3.69476">
        <ele>617</ele>
        <time>2024-12-08T01:38:00.620Z</time>
      </trkpt>
      <trkpt lat="45.87824" lon="3.69476">
        <ele>617</ele>
        <time>2024-12-08T01:38:01.619Z</time>
      </trkpt>
      <trkpt lat="45.87824" lon="3.69476">
        <ele>617</ele>
        <time>2024-12-08T01:38:02.619Z</time>
      </trkpt>
      <trkpt lat="45.87824" lon="3.69476">
        <ele>617</ele>
        <time>2024-12-08T01:38:03.620Z</time>
      </trkpt>
      <trkpt lat="45.87824" lon="3.69476">
        <ele>617</ele>
        <time>2024-12-08T01:38:04.619Z</time>
      </trkpt>
      <trkpt lat="45.87824" lon="3.69476">
        <ele>617</ele>
        <time>2024-12-08T01:38:05.620Z</time>
      </trkpt>
      <trkpt lat="45.87824" lon="3.69476">
        <ele>617</ele>
        <time>2024-12-08T01:38:06.619Z</time>
      </trkpt>
      <trkpt lat="45.87824" lon="3.69476">
        <ele>617</ele>
        <time>2024-12-08T01:38:07.619Z</time>
      </trkpt>
      <trkpt lat="45.87824" lon="3.69476">
        <ele>617</ele>
        <time>2024-12-08T01:38:08.619Z</time>
      </trkpt>
      <trkpt lat="45.87824" lon="3.69476">
        <ele>618</ele>
        <time>2024-12-08T01:38:09.620Z</time>
      </trkpt>
      <trkpt lat="45.87824" lon="3.69476">
        <ele>618</ele>
        <time>2024-12-08T01:38:10.620Z</time>
      </trkpt>
      <trkpt lat="45.87824" lon="3.69476">
        <ele>618</ele>
        <time>2024-12-08T01:38:11.620Z</time>
      </trkpt>
      <trkpt lat="45.87824" lon="3.69476">
        <ele>618</ele>
        <time>2024-12-08T01:38:12.619Z</time>
      </trkpt>
      <trkpt lat="45.87824" lon="3.69476">
        <ele>618</ele>
        <time>2024-12-08T01:38:13.619Z</time>
      </trkpt>
      <trkpt lat="45.87824" lon="3.69476">
        <ele>618</ele>
        <time>2024-12-08T01:38:14.619Z</time>
      </trkpt>
      <trkpt lat="45.87824" lon="3.69476">
        <ele>618</ele>
        <time>2024-12-08T01:38:15.620Z</time>
      </trkpt>
      <trkpt lat="45.87824" lon="3.69475">
        <ele>618</ele>
        <time>2024-12-08T01:38:16.620Z</time>
      </trkpt>
      <trkpt lat="45.87824" lon="3.69475">
        <ele>618</ele>
        <time>2024-12-08T01:38:17.620Z</time>
      </trkpt>
      <trkpt lat="45.87824" lon="3.69475">
        <ele>618</ele>
        <time>2024-12-08T01:38:18.619Z</time>
      </trkpt>
      <trkpt lat="45.87824" lon="3.69475">
        <ele>618</ele>
        <time>2024-12-08T01:38:19.619Z</time>
      </trkpt>
      <trkpt lat="45.87824" lon="3.69475">
        <ele>618</ele>
        <time>2024-12-08T01:38:20.619Z</time>
      </trkpt>
      <trkpt lat="45.87824" lon="3.69475">
        <ele>618</ele>
        <time>2024-12-08T01:38:21.619Z</time>
      </trkpt>
      <trkpt lat="45.87824" lon="3.69475">
        <ele>618</ele>
        <time>2024-12-08T01:38:22.619Z</time>
      </trkpt>
      <trkpt lat="45.87824" lon="3.69475">
        <ele>618</ele>
        <time>2024-12-08T01:38:23.620Z</time>
      </trkpt>
      <trkpt lat="45.87824" lon="3.69475">
        <ele>618</ele>
        <time>2024-12-08T01:38:24.619Z</time>
      </trkpt>
      <trkpt lat="45.87824" lon="3.69475">
        <ele>618</ele>
        <time>2024-12-08T01:38:25.620Z</time>
      </trkpt>
      <trkpt lat="45.87824" lon="3.69475">
        <ele>618</ele>
        <time>2024-12-08T01:38:26.619Z</time>
      </trkpt>
      <trkpt lat="45.87824" lon="3.69475">
        <ele>618</ele>
        <time>2024-12-08T01:38:27.619Z</time>
      </trkpt>
      <trkpt lat="45.87824" lon="3.69475">
        <ele>618</ele>
        <time>2024-12-08T01:38:28.619Z</time>
      </trkpt>
      <trkpt lat="45.87824" lon="3.69475">
        <ele>618</ele>
        <time>2024-12-08T01:38:29.619Z</time>
      </trkpt>
      <trkpt lat="45.87824" lon="3.69475">
        <ele>618</ele>
        <time>2024-12-08T01:38:30.619Z</time>
      </trkpt>
      <trkpt lat="45.87824" lon="3.69475">
        <ele>618</ele>
        <time>2024-12-08T01:38:31.619Z</time>
      </trkpt>
      <trkpt lat="45.87823" lon="3.69474">
        <ele>618</ele>
        <time>2024-12-08T01:38:32.620Z</time>
      </trkpt>
      <trkpt lat="45.87823" lon="3.69474">
        <ele>618</ele>
        <time>2024-12-08T01:38:33.619Z</time>
      </trkpt>
      <trkpt lat="45.87823" lon="3.69474">
        <ele>618</ele>
        <time>2024-12-08T01:38:34.620Z</time>
      </trkpt>
      <trkpt lat="45.87823" lon="3.69474">
        <ele>618</ele>
        <time>2024-12-08T01:38:35.619Z</time>
      </trkpt>
      <trkpt lat="45.87823" lon="3.69474">
        <ele>618</ele>
        <time>2024-12-08T01:38:36.619Z</time>
      </trkpt>
      <trkpt lat="45.87823" lon="3.69474">
        <ele>618</ele>
        <time>2024-12-08T01:38:37.619Z</time>
      </trkpt>
      <trkpt lat="45.87823" lon="3.69474">
        <ele>618</ele>
        <time>2024-12-08T01:38:38.619Z</time>
      </trkpt>
      <trkpt lat="45.87823" lon="3.69474">
        <ele>618</ele>
        <time>2024-12-08T01:38:39.620Z</time>
      </trkpt>
      <trkpt lat="45.87823" lon="3.69474">
        <ele>618</ele>
        <time>2024-12-08T01:38:40.619Z</time>
      </trkpt>
      <trkpt lat="45.87823" lon="3.69474">
        <ele>618</ele>
        <time>2024-12-08T01:38:41.619Z</time>
      </trkpt>
      <trkpt lat="45.87823" lon="3.69473">
        <ele>618</ele>
        <time>2024-12-08T01:38:42.619Z</time>
      </trkpt>
      <trkpt lat="45.87823" lon="3.69473">
        <ele>618</ele>
        <time>2024-12-08T01:38:43.619Z</time>
      </trkpt>
      <trkpt lat="45.87823" lon="3.69473">
        <ele>618</ele>
        <time>2024-12-08T01:38:44.619Z</time>
      </trkpt>
      <trkpt lat="45.87823" lon="3.69473">
        <ele>618</ele>
        <time>2024-12-08T01:38:45.619Z</time>
      </trkpt>
      <trkpt lat="45.87823" lon="3.69473">
        <ele>618</ele>
        <time>2024-12-08T01:38:46.620Z</time>
      </trkpt>
      <trkpt lat="45.87823" lon="3.69473">
        <ele>618</ele>
        <time>2024-12-08T01:38:47.619Z</time>
      </trkpt>
      <trkpt lat="45.87823" lon="3.69473">
        <ele>618</ele>
        <time>2024-12-08T01:38:48.620Z</time>
      </trkpt>
      <trkpt lat="45.87823" lon="3.69473">
        <ele>618</ele>
        <time>2024-12-08T01:38:49.619Z</time>
      </trkpt>
      <trkpt lat="45.87823" lon="3.69473">
        <ele>618</ele>
        <time>2024-12-08T01:38:50.619Z</time>
      </trkpt>
      <trkpt lat="45.87823" lon="3.69473">
        <ele>618</ele>
        <time>2024-12-08T01:38:51.620Z</time>
      </trkpt>
      <trkpt lat="45.87823" lon="3.69473">
        <ele>618</ele>
        <time>2024-12-08T01:38:52.620Z</time>
      </trkpt>
      <trkpt lat="45.87823" lon="3.69473">
        <ele>618</ele>
        <time>2024-12-08T01:38:53.620Z</time>
      </trkpt>
      <trkpt lat="45.87823" lon="3.69473">
        <ele>618</ele>
        <time>2024-12-08T01:38:54.619Z</time>
      </trkpt>
      <trkpt lat="45.87823" lon="3.69473">
        <ele>618</ele>
        <time>2024-12-08T01:38:55.620Z</time>
      </trkpt>
      <trkpt lat="45.87823" lon="3.69473">
        <ele>618</ele>
        <time>2024-12-08T01:38:56.620Z</time>
      </trkpt>
      <trkpt lat="45.87823" lon="3.69473">
        <ele>618</ele>
        <time>2024-12-08T01:38:57.619Z</time>
      </trkpt>
      <trkpt lat="45.87823" lon="3.69473">
        <ele>618</ele>
        <time>2024-12-08T01:38:58.620Z</time>
      </trkpt>
      <trkpt lat="45.87823" lon="3.69473">
        <ele>618</ele>
        <time>2024-12-08T01:38:59.620Z</time>
      </trkpt>
      <trkpt lat="45.87823" lon="3.69472">
        <ele>618</ele>
        <time>2024-12-08T01:39:00.620Z</time>
      </trkpt>
      <trkpt lat="45.87823" lon="3.69472">
        <ele>618</ele>
        <time>2024-12-08T01:39:01.620Z</time>
      </trkpt>
      <trkpt lat="45.87823" lon="3.69472">
        <ele>618</ele>
        <time>2024-12-08T01:39:02.620Z</time>
      </trkpt>
      <trkpt lat="45.87823" lon="3.69472">
        <ele>618</ele>
        <time>2024-12-08T01:39:03.619Z</time>
      </trkpt>
      <trkpt lat="45.87823" lon="3.69472">
        <ele>618</ele>
        <time>2024-12-08T01:39:04.619Z</time>
      </trkpt>
      <trkpt lat="45.87823" lon="3.69472">
        <ele>618</ele>
        <time>2024-12-08T01:39:05.620Z</time>
      </trkpt>
      <trkpt lat="45.87823" lon="3.69472">
        <ele>618</ele>
        <time>2024-12-08T01:39:06.620Z</time>
      </trkpt>
      <trkpt lat="45.87823" lon="3.69471">
        <ele>618</ele>
        <time>2024-12-08T01:39:07.620Z</time>
      </trkpt>
      <trkpt lat="45.87823" lon="3.69471">
        <ele>618</ele>
        <time>2024-12-08T01:39:08.619Z</time>
      </trkpt>
      <trkpt lat="45.87823" lon="3.69471">
        <ele>618</ele>
        <time>2024-12-08T01:39:09.620Z</time>
      </trkpt>
      <trkpt lat="45.87823" lon="3.69471">
        <ele>618</ele>
        <time>2024-12-08T01:39:10.620Z</time>
      </trkpt>
      <trkpt lat="45.87823" lon="3.69471">
        <ele>618</ele>
        <time>2024-12-08T01:39:11.620Z</time>
      </trkpt>
      <trkpt lat="45.87823" lon="3.69471">
        <ele>618</ele>
        <time>2024-12-08T01:39:12.619Z</time>
      </trkpt>
      <trkpt lat="45.87824" lon="3.69471">
        <ele>618</ele>
        <time>2024-12-08T01:39:13.620Z</time>
      </trkpt>
      <trkpt lat="45.87824" lon="3.69471">
        <ele>618</ele>
        <time>2024-12-08T01:39:14.620Z</time>
      </trkpt>
      <trkpt lat="45.87824" lon="3.69471">
        <ele>618</ele>
        <time>2024-12-08T01:39:15.620Z</time>
      </trkpt>
      <trkpt lat="45.87824" lon="3.69471">
        <ele>618</ele>
        <time>2024-12-08T01:39:16.620Z</time>
      </trkpt>
      <trkpt lat="45.87824" lon="3.69471">
        <ele>618</ele>
        <time>2024-12-08T01:39:17.619Z</time>
      </trkpt>
      <trkpt lat="45.87824" lon="3.69471">
        <ele>618</ele>
        <time>2024-12-08T01:39:18.620Z</time>
      </trkpt>
      <trkpt lat="45.87824" lon="3.69471">
        <ele>618</ele>
        <time>2024-12-08T01:39:19.620Z</time>
      </trkpt>
      <trkpt lat="45.87824" lon="3.69471">
        <ele>618</ele>
        <time>2024-12-08T01:39:20.619Z</time>
      </trkpt>
      <trkpt lat="45.87824" lon="3.69471">
        <ele>618</ele>
        <time>2024-12-08T01:39:21.619Z</time>
      </trkpt>
      <trkpt lat="45.87824" lon="3.69471">
        <ele>618</ele>
        <time>2024-12-08T01:39:22.619Z</time>
      </trkpt>
      <trkpt lat="45.87824" lon="3.6947">
        <ele>618</ele>
        <time>2024-12-08T01:39:23.620Z</time>
      </trkpt>
      <trkpt lat="45.87824" lon="3.6947">
        <ele>618</ele>
        <time>2024-12-08T01:39:24.619Z</time>
      </trkpt>
      <trkpt lat="45.87824" lon="3.6947">
        <ele>618</ele>
        <time>2024-12-08T01:39:25.619Z</time>
      </trkpt>
      <trkpt lat="45.87824" lon="3.6947">
        <ele>618</ele>
        <time>2024-12-08T01:39:26.619Z</time>
      </trkpt>
      <trkpt lat="45.87824" lon="3.6947">
        <ele>618</ele>
        <time>2024-12-08T01:39:27.620Z</time>
      </trkpt>
      <trkpt lat="45.87824" lon="3.6947">
        <ele>618</ele>
        <time>2024-12-08T01:39:28.620Z</time>
      </trkpt>
      <trkpt lat="45.87824" lon="3.6947">
        <ele>618</ele>
        <time>2024-12-08T01:39:29.619Z</time>
      </trkpt>
      <trkpt lat="45.87824" lon="3.6947">
        <ele>618</ele>
        <time>2024-12-08T01:39:30.619Z</time>
      </trkpt>
      <trkpt lat="45.87824" lon="3.69469">
        <ele>618</ele>
        <time>2024-12-08T01:39:31.619Z</time>
      </trkpt>
      <trkpt lat="45.87824" lon="3.69469">
        <ele>618</ele>
        <time>2024-12-08T01:39:32.620Z</time>
      </trkpt>
      <trkpt lat="45.87824" lon="3.69469">
        <ele>618</ele>
        <time>2024-12-08T01:39:33.619Z</time>
      </trkpt>
      <trkpt lat="45.87824" lon="3.69469">
        <ele>618</ele>
        <time>2024-12-08T01:39:34.619Z</time>
      </trkpt>
      <trkpt lat="45.87824" lon="3.69469">
        <ele>618</ele>
        <time>2024-12-08T01:39:35.619Z</time>
      </trkpt>
      <trkpt lat="45.87824" lon="3.69469">
        <ele>618</ele>
        <time>2024-12-08T01:39:36.619Z</time>
      </trkpt>
      <trkpt lat="45.87824" lon="3.69469">
        <ele>618</ele>
        <time>2024-12-08T01:39:37.619Z</time>
      </trkpt>
      <trkpt lat="45.87823" lon="3.69469">
        <ele>618</ele>
        <time>2024-12-08T01:39:38.619Z</time>
      </trkpt>
      <trkpt lat="45.87823" lon="3.69469">
        <ele>618</ele>
        <time>2024-12-08T01:39:39.619Z</time>
      </trkpt>
      <trkpt lat="45.87823" lon="3.69469">
        <ele>618</ele>
        <time>2024-12-08T01:39:40.620Z</time>
      </trkpt>
      <trkpt lat="45.87823" lon="3.69469">
        <ele>618</ele>
        <time>2024-12-08T01:39:41.619Z</time>
      </trkpt>
      <trkpt lat="45.87822" lon="3.69469">
        <ele>618</ele>
        <time>2024-12-08T01:39:42.620Z</time>
      </trkpt>
      <trkpt lat="45.8782" lon="3.69471">
        <ele>618</ele>
        <time>2024-12-08T01:39:43.619Z</time>
      </trkpt>
      <trkpt lat="45.87818" lon="3.69472">
        <ele>619</ele>
        <time>2024-12-08T01:39:44.620Z</time>
      </trkpt>
      <trkpt lat="45.87816" lon="3.69474">
        <ele>618</ele>
        <time>2024-12-08T01:39:45.620Z</time>
      </trkpt>
      <trkpt lat="45.87814" lon="3.69476">
        <ele>618</ele>
        <time>2024-12-08T01:39:46.619Z</time>
      </trkpt>
      <trkpt lat="45.87812" lon="3.69478">
        <ele>619</ele>
        <time>2024-12-08T01:39:47.620Z</time>
      </trkpt>
      <trkpt lat="45.8781" lon="3.6948">
        <ele>619</ele>
        <time>2024-12-08T01:39:48.620Z</time>
      </trkpt>
      <trkpt lat="45.87809" lon="3.69482">
        <ele>619</ele>
        <time>2024-12-08T01:39:49.620Z</time>
      </trkpt>
      <trkpt lat="45.87807" lon="3.69484">
        <ele>619</ele>
        <time>2024-12-08T01:39:50.619Z</time>
      </trkpt>
      <trkpt lat="45.87805" lon="3.69486">
        <ele>619</ele>
        <time>2024-12-08T01:39:51.620Z</time>
      </trkpt>
      <trkpt lat="45.87804" lon="3.69488">
        <ele>619</ele>
        <time>2024-12-08T01:39:52.620Z</time>
      </trkpt>
      <trkpt lat="45.87803" lon="3.69489">
        <ele>619</ele>
        <time>2024-12-08T01:39:53.619Z</time>
      </trkpt>
      <trkpt lat="45.87802" lon="3.6949">
        <ele>620</ele>
        <time>2024-12-08T01:39:54.619Z</time>
      </trkpt>
      <trkpt lat="45.87802" lon="3.69492">
        <ele>620</ele>
        <time>2024-12-08T01:39:55.620Z</time>
      </trkpt>
      <trkpt lat="45.87801" lon="3.69493">
        <ele>620</ele>
        <time>2024-12-08T01:39:56.620Z</time>
      </trkpt>
      <trkpt lat="45.87801" lon="3.69495">
        <ele>620</ele>
        <time>2024-12-08T01:39:57.620Z</time>
      </trkpt>
      <trkpt lat="45.87801" lon="3.69496">
        <ele>621</ele>
        <time>2024-12-08T01:39:58.619Z</time>
      </trkpt>
      <trkpt lat="45.878" lon="3.69498">
        <ele>621</ele>
        <time>2024-12-08T01:39:59.620Z</time>
      </trkpt>
      <trkpt lat="45.878" lon="3.695">
        <ele>622</ele>
        <time>2024-12-08T01:40:00.619Z</time>
      </trkpt>
      <trkpt lat="45.878" lon="3.69502">
        <ele>622</ele>
        <time>2024-12-08T01:40:01.620Z</time>
      </trkpt>
      <trkpt lat="45.87801" lon="3.69504">
        <ele>622</ele>
        <time>2024-12-08T01:40:02.619Z</time>
      </trkpt>
      <trkpt lat="45.87801" lon="3.69506">
        <ele>623</ele>
        <time>2024-12-08T01:40:03.620Z</time>
      </trkpt>
      <trkpt lat="45.87802" lon="3.69508">
        <ele>623</ele>
        <time>2024-12-08T01:40:04.620Z</time>
      </trkpt>
      <trkpt lat="45.87802" lon="3.69509">
        <ele>623</ele>
        <time>2024-12-08T01:40:05.620Z</time>
      </trkpt>
      <trkpt lat="45.87803" lon="3.69512">
        <ele>622</ele>
        <time>2024-12-08T01:40:06.619Z</time>
      </trkpt>
      <trkpt lat="45.87804" lon="3.69514">
        <ele>622</ele>
        <time>2024-12-08T01:40:07.620Z</time>
      </trkpt>
      <trkpt lat="45.87804" lon="3.69517">
        <ele>622</ele>
        <time>2024-12-08T01:40:08.620Z</time>
      </trkpt>
      <trkpt lat="45.87804" lon="3.69519">
        <ele>622</ele>
        <time>2024-12-08T01:40:09.619Z</time>
      </trkpt>
      <trkpt lat="45.87805" lon="3.69521">
        <ele>622</ele>
        <time>2024-12-08T01:40:10.620Z</time>
      </trkpt>
      <trkpt lat="45.87805" lon="3.69523">
        <ele>622</ele>
        <time>2024-12-08T01:40:11.619Z</time>
      </trkpt>
      <trkpt lat="45.87805" lon="3.69525">
        <ele>622</ele>
        <time>2024-12-08T01:40:12.619Z</time>
      </trkpt>
      <trkpt lat="45.87805" lon="3.69526">
        <ele>622</ele>
        <time>2024-12-08T01:40:13.620Z</time>
      </trkpt>
      <trkpt lat="45.87804" lon="3.69528">
        <ele>622</ele>
        <time>2024-12-08T01:40:14.619Z</time>
      </trkpt>
      <trkpt lat="45.87804" lon="3.6953">
        <ele>622</ele>
        <time>2024-12-08T01:40:15.620Z</time>
      </trkpt>
      <trkpt lat="45.87804" lon="3.69532">
        <ele>621</ele>
        <time>2024-12-08T01:40:16.619Z</time>
      </trkpt>
      <trkpt lat="45.87804" lon="3.69534">
        <ele>621</ele>
        <time>2024-12-08T01:40:17.619Z</time>
      </trkpt>
      <trkpt lat="45.87804" lon="3.69536">
        <ele>621</ele>
        <time>2024-12-08T01:40:18.619Z</time>
      </trkpt>
      <trkpt lat="45.87804" lon="3.69537">
        <ele>621</ele>
        <time>2024-12-08T01:40:19.619Z</time>
      </trkpt>
      <trkpt lat="45.87803" lon="3.69539">
        <ele>621</ele>
        <time>2024-12-08T01:40:20.619Z</time>
      </trkpt>
      <trkpt lat="45.87803" lon="3.6954">
        <ele>621</ele>
        <time>2024-12-08T01:40:21.619Z</time>
      </trkpt>
      <trkpt lat="45.87803" lon="3.69542">
        <ele>621</ele>
        <time>2024-12-08T01:40:22.620Z</time>
      </trkpt>
      <trkpt lat="45.87804" lon="3.69544">
        <ele>621</ele>
        <time>2024-12-08T01:40:23.620Z</time>
      </trkpt>
      <trkpt lat="45.87804" lon="3.69546">
        <ele>621</ele>
        <time>2024-12-08T01:40:24.620Z</time>
      </trkpt>
      <trkpt lat="45.87804" lon="3.69548">
        <ele>621</ele>
        <time>2024-12-08T01:40:25.620Z</time>
      </trkpt>
      <trkpt lat="45.87804" lon="3.69551">
        <ele>621</ele>
        <time>2024-12-08T01:40:26.619Z</time>
      </trkpt>
      <trkpt lat="45.87804" lon="3.69554">
        <ele>621</ele>
        <time>2024-12-08T01:40:27.619Z</time>
      </trkpt>
      <trkpt lat="45.87806" lon="3.69557">
        <ele>621</ele>
        <time>2024-12-08T01:40:28.620Z</time>
      </trkpt>
      <trkpt lat="45.87806" lon="3.6956">
        <ele>621</ele>
        <time>2024-12-08T01:40:29.619Z</time>
      </trkpt>
      <trkpt lat="45.87807" lon="3.69562">
        <ele>621</ele>
        <time>2024-12-08T01:40:30.620Z</time>
      </trkpt>
      <trkpt lat="45.87808" lon="3.69564">
        <ele>621</ele>
        <time>2024-12-08T01:40:31.620Z</time>
      </trkpt>
      <trkpt lat="45.87808" lon="3.69567">
        <ele>621</ele>
        <time>2024-12-08T01:40:32.619Z</time>
      </trkpt>
      <trkpt lat="45.87808" lon="3.69569">
        <ele>620</ele>
        <time>2024-12-08T01:40:33.619Z</time>
      </trkpt>
      <trkpt lat="45.87808" lon="3.69571">
        <ele>620</ele>
        <time>2024-12-08T01:40:34.619Z</time>
      </trkpt>
      <trkpt lat="45.87809" lon="3.69573">
        <ele>620</ele>
        <time>2024-12-08T01:40:35.620Z</time>
      </trkpt>
      <trkpt lat="45.87809" lon="3.69575">
        <ele>620</ele>
        <time>2024-12-08T01:40:36.619Z</time>
      </trkpt>
      <trkpt lat="45.8781" lon="3.69577">
        <ele>620</ele>
        <time>2024-12-08T01:40:37.620Z</time>
      </trkpt>
      <trkpt lat="45.8781" lon="3.69579">
        <ele>619</ele>
        <time>2024-12-08T01:40:38.620Z</time>
      </trkpt>
      <trkpt lat="45.87811" lon="3.69581">
        <ele>619</ele>
        <time>2024-12-08T01:40:39.619Z</time>
      </trkpt>
      <trkpt lat="45.87811" lon="3.69583">
        <ele>619</ele>
        <time>2024-12-08T01:40:40.620Z</time>
      </trkpt>
      <trkpt lat="45.87812" lon="3.69585">
        <ele>619</ele>
        <time>2024-12-08T01:40:41.620Z</time>
      </trkpt>
      <trkpt lat="45.87813" lon="3.69587">
        <ele>619</ele>
        <time>2024-12-08T01:40:42.620Z</time>
      </trkpt>
      <trkpt lat="45.87814" lon="3.69589">
        <ele>619</ele>
        <time>2024-12-08T01:40:43.619Z</time>
      </trkpt>
      <trkpt lat="45.87814" lon="3.69591">
        <ele>619</ele>
        <time>2024-12-08T01:40:44.619Z</time>
      </trkpt>
      <trkpt lat="45.87814" lon="3.69593">
        <ele>619</ele>
        <time>2024-12-08T01:40:45.620Z</time>
      </trkpt>
      <trkpt lat="45.87815" lon="3.69595">
        <ele>619</ele>
        <time>2024-12-08T01:40:46.620Z</time>
      </trkpt>
      <trkpt lat="45.87815" lon="3.69596">
        <ele>619</ele>
        <time>2024-12-08T01:40:47.619Z</time>
      </trkpt>
      <trkpt lat="45.87815" lon="3.69597">
        <ele>620</ele>
        <time>2024-12-08T01:40:48.620Z</time>
      </trkpt>
      <trkpt lat="45.87816" lon="3.69599">
        <ele>620</ele>
        <time>2024-12-08T01:40:49.619Z</time>
      </trkpt>
      <trkpt lat="45.87817" lon="3.69601">
        <ele>620</ele>
        <time>2024-12-08T01:40:50.620Z</time>
      </trkpt>
      <trkpt lat="45.87817" lon="3.69602">
        <ele>620</ele>
        <time>2024-12-08T01:40:51.620Z</time>
      </trkpt>
      <trkpt lat="45.87817" lon="3.69604">
        <ele>620</ele>
        <time>2024-12-08T01:40:52.619Z</time>
      </trkpt>
      <trkpt lat="45.87818" lon="3.69606">
        <ele>620</ele>
        <time>2024-12-08T01:40:53.620Z</time>
      </trkpt>
      <trkpt lat="45.87818" lon="3.69608">
        <ele>620</ele>
        <time>2024-12-08T01:40:54.619Z</time>
      </trkpt>
      <trkpt lat="45.87818" lon="3.6961">
        <ele>621</ele>
        <time>2024-12-08T01:40:55.620Z</time>
      </trkpt>
      <trkpt lat="45.87819" lon="3.69612">
        <ele>622</ele>
        <time>2024-12-08T01:40:56.619Z</time>
      </trkpt>
      <trkpt lat="45.87819" lon="3.69613">
        <ele>622</ele>
        <time>2024-12-08T01:40:57.620Z</time>
      </trkpt>
      <trkpt lat="45.87819" lon="3.69615">
        <ele>623</ele>
        <time>2024-12-08T01:40:58.619Z</time>
      </trkpt>
      <trkpt lat="45.87819" lon="3.69616">
        <ele>623</ele>
        <time>2024-12-08T01:40:59.620Z</time>
      </trkpt>
      <trkpt lat="45.8782" lon="3.69618">
        <ele>623</ele>
        <time>2024-12-08T01:41:00.619Z</time>
      </trkpt>
      <trkpt lat="45.8782" lon="3.6962">
        <ele>623</ele>
        <time>2024-12-08T01:41:01.619Z</time>
      </trkpt>
      <trkpt lat="45.87822" lon="3.69622">
        <ele>623</ele>
        <time>2024-12-08T01:41:02.619Z</time>
      </trkpt>
      <trkpt lat="45.87823" lon="3.69624">
        <ele>624</ele>
        <time>2024-12-08T01:41:03.620Z</time>
      </trkpt>
      <trkpt lat="45.87824" lon="3.69625">
        <ele>624</ele>
        <time>2024-12-08T01:41:04.620Z</time>
      </trkpt>
      <trkpt lat="45.87825" lon="3.69627">
        <ele>624</ele>
        <time>2024-12-08T01:41:05.619Z</time>
      </trkpt>
      <trkpt lat="45.87827" lon="3.69629">
        <ele>624</ele>
        <time>2024-12-08T01:41:06.620Z</time>
      </trkpt>
      <trkpt lat="45.87828" lon="3.6963">
        <ele>625</ele>
        <time>2024-12-08T01:41:07.620Z</time>
      </trkpt>
      <trkpt lat="45.87829" lon="3.69632">
        <ele>625</ele>
        <time>2024-12-08T01:41:08.620Z</time>
      </trkpt>
      <trkpt lat="45.8783" lon="3.69633">
        <ele>626</ele>
        <time>2024-12-08T01:41:09.620Z</time>
      </trkpt>
      <trkpt lat="45.87831" lon="3.69635">
        <ele>626</ele>
        <time>2024-12-08T01:41:10.619Z</time>
      </trkpt>
      <trkpt lat="45.87831" lon="3.69637">
        <ele>627</ele>
        <time>2024-12-08T01:41:11.619Z</time>
      </trkpt>
      <trkpt lat="45.87832" lon="3.69638">
        <ele>627</ele>
        <time>2024-12-08T01:41:12.620Z</time>
      </trkpt>
      <trkpt lat="45.87833" lon="3.6964">
        <ele>627</ele>
        <time>2024-12-08T01:41:13.619Z</time>
      </trkpt>
      <trkpt lat="45.87833" lon="3.69642">
        <ele>627</ele>
        <time>2024-12-08T01:41:14.620Z</time>
      </trkpt>
      <trkpt lat="45.87833" lon="3.69644">
        <ele>627</ele>
        <time>2024-12-08T01:41:15.619Z</time>
      </trkpt>
      <trkpt lat="45.87833" lon="3.69646">
        <ele>627</ele>
        <time>2024-12-08T01:41:16.619Z</time>
      </trkpt>
      <trkpt lat="45.87834" lon="3.69647">
        <ele>627</ele>
        <time>2024-12-08T01:41:17.619Z</time>
      </trkpt>
      <trkpt lat="45.87834" lon="3.69647">
        <ele>628</ele>
        <time>2024-12-08T01:41:18.620Z</time>
      </trkpt>
      <trkpt lat="45.87834" lon="3.69646">
        <ele>628</ele>
        <time>2024-12-08T01:41:19.619Z</time>
      </trkpt>
      <trkpt lat="45.87835" lon="3.69645">
        <ele>628</ele>
        <time>2024-12-08T01:41:20.620Z</time>
      </trkpt>
      <trkpt lat="45.87836" lon="3.69645">
        <ele>629</ele>
        <time>2024-12-08T01:41:21.619Z</time>
      </trkpt>
      <trkpt lat="45.87837" lon="3.69644">
        <ele>629</ele>
        <time>2024-12-08T01:41:22.620Z</time>
      </trkpt>
      <trkpt lat="45.87839" lon="3.69643">
        <ele>630</ele>
        <time>2024-12-08T01:41:23.619Z</time>
      </trkpt>
      <trkpt lat="45.8784" lon="3.69642">
        <ele>631</ele>
        <time>2024-12-08T01:41:24.619Z</time>
      </trkpt>
      <trkpt lat="45.87842" lon="3.69641">
        <ele>631</ele>
        <time>2024-12-08T01:41:25.620Z</time>
      </trkpt>
      <trkpt lat="45.87844" lon="3.6964">
        <ele>632</ele>
        <time>2024-12-08T01:41:26.620Z</time>
      </trkpt>
      <trkpt lat="45.87846" lon="3.69639">
        <ele>632</ele>
        <time>2024-12-08T01:41:27.619Z</time>
      </trkpt>
      <trkpt lat="45.87847" lon="3.69638">
        <ele>633</ele>
        <time>2024-12-08T01:41:28.620Z</time>
      </trkpt>
      <trkpt lat="45.87849" lon="3.69638">
        <ele>633</ele>
        <time>2024-12-08T01:41:29.619Z</time>
      </trkpt>
      <trkpt lat="45.87851" lon="3.69637">
        <ele>633</ele>
        <time>2024-12-08T01:41:30.620Z</time>
      </trkpt>
      <trkpt lat="45.87852" lon="3.69637">
        <ele>633</ele>
        <time>2024-12-08T01:41:31.619Z</time>
      </trkpt>
      <trkpt lat="45.87854" lon="3.69636">
        <ele>633</ele>
        <time>2024-12-08T01:41:32.620Z</time>
      </trkpt>
      <trkpt lat="45.87855" lon="3.69635">
        <ele>633</ele>
        <time>2024-12-08T01:41:33.620Z</time>
      </trkpt>
      <trkpt lat="45.87856" lon="3.69634">
        <ele>632</ele>
        <time>2024-12-08T01:41:34.619Z</time>
      </trkpt>
      <trkpt lat="45.87857" lon="3.69634">
        <ele>632</ele>
        <time>2024-12-08T01:41:35.619Z</time>
      </trkpt>
      <trkpt lat="45.87858" lon="3.69633">
        <ele>631</ele>
        <time>2024-12-08T01:41:36.619Z</time>
      </trkpt>
      <trkpt lat="45.87859" lon="3.69633">
        <ele>631</ele>
        <time>2024-12-08T01:41:37.619Z</time>
      </trkpt>
      <trkpt lat="45.8786" lon="3.69632">
        <ele>630</ele>
        <time>2024-12-08T01:41:38.620Z</time>
      </trkpt>
      <trkpt lat="45.87861" lon="3.69632">
        <ele>629</ele>
        <time>2024-12-08T01:41:39.620Z</time>
      </trkpt>
      <trkpt lat="45.87862" lon="3.69632">
        <ele>629</ele>
        <time>2024-12-08T01:41:40.620Z</time>
      </trkpt>
      <trkpt lat="45.87863" lon="3.69632">
        <ele>629</ele>
        <time>2024-12-08T01:41:41.620Z</time>
      </trkpt>
      <trkpt lat="45.87864" lon="3.69632">
        <ele>628</ele>
        <time>2024-12-08T01:41:42.619Z</time>
      </trkpt>
      <trkpt lat="45.87865" lon="3.69631">
        <ele>628</ele>
        <time>2024-12-08T01:41:43.619Z</time>
      </trkpt>
      <trkpt lat="45.87866" lon="3.69631">
        <ele>628</ele>
        <time>2024-12-08T01:41:44.619Z</time>
      </trkpt>
      <trkpt lat="45.87867" lon="3.69631">
        <ele>628</ele>
        <time>2024-12-08T01:41:45.620Z</time>
      </trkpt>
      <trkpt lat="45.87868" lon="3.69631">
        <ele>628</ele>
        <time>2024-12-08T01:41:46.620Z</time>
      </trkpt>
      <trkpt lat="45.87869" lon="3.6963">
        <ele>628</ele>
        <time>2024-12-08T01:41:47.620Z</time>
      </trkpt>
      <trkpt lat="45.8787" lon="3.69629">
        <ele>628</ele>
        <time>2024-12-08T01:41:48.620Z</time>
      </trkpt>
      <trkpt lat="45.87872" lon="3.69628">
        <ele>629</ele>
        <time>2024-12-08T01:41:49.620Z</time>
      </trkpt>
      <trkpt lat="45.87874" lon="3.69628">
        <ele>629</ele>
        <time>2024-12-08T01:41:50.619Z</time>
      </trkpt>
      <trkpt lat="45.87875" lon="3.69626">
        <ele>630</ele>
        <time>2024-12-08T01:41:51.620Z</time>
      </trkpt>
      <trkpt lat="45.87877" lon="3.69625">
        <ele>630</ele>
        <time>2024-12-08T01:41:52.620Z</time>
      </trkpt>
      <trkpt lat="45.87879" lon="3.69621">
        <ele>630</ele>
        <time>2024-12-08T01:41:53.620Z</time>
      </trkpt>
      <trkpt lat="45.8788" lon="3.69619">
        <ele>631</ele>
        <time>2024-12-08T01:41:54.619Z</time>
      </trkpt>
      <trkpt lat="45.87881" lon="3.69618">
        <ele>631</ele>
        <time>2024-12-08T01:41:55.620Z</time>
      </trkpt>
      <trkpt lat="45.87882" lon="3.69618">
        <ele>631</ele>
        <time>2024-12-08T01:41:56.619Z</time>
      </trkpt>
      <trkpt lat="45.87883" lon="3.69618">
        <ele>632</ele>
        <time>2024-12-08T01:41:57.620Z</time>
      </trkpt>
      <trkpt lat="45.87884" lon="3.69618">
        <ele>632</ele>
        <time>2024-12-08T01:41:58.619Z</time>
      </trkpt>
      <trkpt lat="45.87884" lon="3.69619">
        <ele>632</ele>
        <time>2024-12-08T01:41:59.620Z</time>
      </trkpt>
      <trkpt lat="45.87885" lon="3.69619">
        <ele>632</ele>
        <time>2024-12-08T01:42:00.619Z</time>
      </trkpt>
      <trkpt lat="45.87887" lon="3.6962">
        <ele>632</ele>
        <time>2024-12-08T01:42:01.620Z</time>
      </trkpt>
      <trkpt lat="45.87888" lon="3.6962">
        <ele>632</ele>
        <time>2024-12-08T01:42:02.620Z</time>
      </trkpt>
      <trkpt lat="45.87889" lon="3.69621">
        <ele>631</ele>
        <time>2024-12-08T01:42:03.619Z</time>
      </trkpt>
      <trkpt lat="45.8789" lon="3.69622">
        <ele>631</ele>
        <time>2024-12-08T01:42:04.619Z</time>
      </trkpt>
      <trkpt lat="45.87891" lon="3.69623">
        <ele>630</ele>
        <time>2024-12-08T01:42:05.619Z</time>
      </trkpt>
      <trkpt lat="45.87892" lon="3.69623">
        <ele>630</ele>
        <time>2024-12-08T01:42:06.619Z</time>
      </trkpt>
      <trkpt lat="45.87894" lon="3.69623">
        <ele>630</ele>
        <time>2024-12-08T01:42:07.620Z</time>
      </trkpt>
      <trkpt lat="45.87896" lon="3.69622">
        <ele>629</ele>
        <time>2024-12-08T01:42:08.620Z</time>
      </trkpt>
      <trkpt lat="45.87897" lon="3.6962">
        <ele>629</ele>
        <time>2024-12-08T01:42:09.620Z</time>
      </trkpt>
      <trkpt lat="45.87899" lon="3.69618">
        <ele>629</ele>
        <time>2024-12-08T01:42:10.620Z</time>
      </trkpt>
      <trkpt lat="45.879" lon="3.69617">
        <ele>629</ele>
        <time>2024-12-08T01:42:11.620Z</time>
      </trkpt>
      <trkpt lat="45.87902" lon="3.69616">
        <ele>629</ele>
        <time>2024-12-08T01:42:12.619Z</time>
      </trkpt>
      <trkpt lat="45.87903" lon="3.69614">
        <ele>629</ele>
        <time>2024-12-08T01:42:13.620Z</time>
      </trkpt>
      <trkpt lat="45.87904" lon="3.69613">
        <ele>630</ele>
        <time>2024-12-08T01:42:14.619Z</time>
      </trkpt>
      <trkpt lat="45.87906" lon="3.69612">
        <ele>630</ele>
        <time>2024-12-08T01:42:15.620Z</time>
      </trkpt>
      <trkpt lat="45.87907" lon="3.6961">
        <ele>630</ele>
        <time>2024-12-08T01:42:16.619Z</time>
      </trkpt>
      <trkpt lat="45.87909" lon="3.69609">
        <ele>630</ele>
        <time>2024-12-08T01:42:17.619Z</time>
      </trkpt>
      <trkpt lat="45.8791" lon="3.69608">
        <ele>631</ele>
        <time>2024-12-08T01:42:18.619Z</time>
      </trkpt>
      <trkpt lat="45.87912" lon="3.69607">
        <ele>631</ele>
        <time>2024-12-08T01:42:19.620Z</time>
      </trkpt>
      <trkpt lat="45.87913" lon="3.69606">
        <ele>631</ele>
        <time>2024-12-08T01:42:20.620Z</time>
      </trkpt>
      <trkpt lat="45.87914" lon="3.69605">
        <ele>631</ele>
        <time>2024-12-08T01:42:21.619Z</time>
      </trkpt>
      <trkpt lat="45.87916" lon="3.69604">
        <ele>632</ele>
        <time>2024-12-08T01:42:22.620Z</time>
      </trkpt>
      <trkpt lat="45.87917" lon="3.69603">
        <ele>632</ele>
        <time>2024-12-08T01:42:23.620Z</time>
      </trkpt>
      <trkpt lat="45.87919" lon="3.69601">
        <ele>633</ele>
        <time>2024-12-08T01:42:24.620Z</time>
      </trkpt>
      <trkpt lat="45.87921" lon="3.696">
        <ele>633</ele>
        <time>2024-12-08T01:42:25.620Z</time>
      </trkpt>
      <trkpt lat="45.87922" lon="3.69599">
        <ele>633</ele>
        <time>2024-12-08T01:42:26.619Z</time>
      </trkpt>
      <trkpt lat="45.87924" lon="3.69598">
        <ele>633</ele>
        <time>2024-12-08T01:42:27.619Z</time>
      </trkpt>
      <trkpt lat="45.87926" lon="3.69597">
        <ele>634</ele>
        <time>2024-12-08T01:42:28.620Z</time>
      </trkpt>
      <trkpt lat="45.87928" lon="3.69597">
        <ele>633</ele>
        <time>2024-12-08T01:42:29.619Z</time>
      </trkpt>
      <trkpt lat="45.87929" lon="3.69597">
        <ele>633</ele>
        <time>2024-12-08T01:42:30.619Z</time>
      </trkpt>
      <trkpt lat="45.87931" lon="3.69598">
        <ele>633</ele>
        <time>2024-12-08T01:42:31.619Z</time>
      </trkpt>
      <trkpt lat="45.87932" lon="3.696">
        <ele>632</ele>
        <time>2024-12-08T01:42:32.620Z</time>
      </trkpt>
      <trkpt lat="45.87932" lon="3.69603">
        <ele>631</ele>
        <time>2024-12-08T01:42:33.619Z</time>
      </trkpt>
      <trkpt lat="45.87932" lon="3.69605">
        <ele>631</ele>
        <time>2024-12-08T01:42:34.620Z</time>
      </trkpt>
      <trkpt lat="45.87933" lon="3.69608">
        <ele>631</ele>
        <time>2024-12-08T01:42:35.619Z</time>
      </trkpt>
      <trkpt lat="45.87934" lon="3.6961">
        <ele>630</ele>
        <time>2024-12-08T01:42:36.620Z</time>
      </trkpt>
      <trkpt lat="45.87935" lon="3.69611">
        <ele>630</ele>
        <time>2024-12-08T01:42:37.619Z</time>
      </trkpt>
      <trkpt lat="45.87935" lon="3.69613">
        <ele>630</ele>
        <time>2024-12-08T01:42:38.620Z</time>
      </trkpt>
      <trkpt lat="45.87936" lon="3.69616">
        <ele>630</ele>
        <time>2024-12-08T01:42:39.619Z</time>
      </trkpt>
      <trkpt lat="45.87936" lon="3.69618">
        <ele>630</ele>
        <time>2024-12-08T01:42:40.620Z</time>
      </trkpt>
      <trkpt lat="45.87937" lon="3.6962">
        <ele>630</ele>
        <time>2024-12-08T01:42:41.619Z</time>
      </trkpt>
      <trkpt lat="45.87937" lon="3.69622">
        <ele>630</ele>
        <time>2024-12-08T01:42:42.619Z</time>
      </trkpt>
      <trkpt lat="45.87937" lon="3.69624">
        <ele>630</ele>
        <time>2024-12-08T01:42:43.620Z</time>
      </trkpt>
      <trkpt lat="45.87938" lon="3.69627">
        <ele>630</ele>
        <time>2024-12-08T01:42:44.619Z</time>
      </trkpt>
      <trkpt lat="45.87939" lon="3.69629">
        <ele>630</ele>
        <time>2024-12-08T01:42:45.620Z</time>
      </trkpt>
      <trkpt lat="45.87939" lon="3.69632">
        <ele>630</ele>
        <time>2024-12-08T01:42:46.620Z</time>
      </trkpt>
      <trkpt lat="45.87938" lon="3.69634">
        <ele>630</ele>
        <time>2024-12-08T01:42:47.619Z</time>
      </trkpt>
      <trkpt lat="45.87938" lon="3.69636">
        <ele>629</ele>
        <time>2024-12-08T01:42:48.619Z</time>
      </trkpt>
      <trkpt lat="45.87939" lon="3.69638">
        <ele>629</ele>
        <time>2024-12-08T01:42:49.619Z</time>
      </trkpt>
      <trkpt lat="45.87939" lon="3.6964">
        <ele>629</ele>
        <time>2024-12-08T01:42:50.620Z</time>
      </trkpt>
      <trkpt lat="45.87939" lon="3.69642">
        <ele>629</ele>
        <time>2024-12-08T01:42:51.620Z</time>
      </trkpt>
      <trkpt lat="45.87939" lon="3.69643">
        <ele>629</ele>
        <time>2024-12-08T01:42:52.620Z</time>
      </trkpt>
      <trkpt lat="45.87938" lon="3.69645">
        <ele>629</ele>
        <time>2024-12-08T01:42:53.620Z</time>
      </trkpt>
      <trkpt lat="45.87938" lon="3.69647">
        <ele>628</ele>
        <time>2024-12-08T01:42:54.619Z</time>
      </trkpt>
      <trkpt lat="45.87938" lon="3.6965">
        <ele>627</ele>
        <time>2024-12-08T01:42:55.620Z</time>
      </trkpt>
      <trkpt lat="45.87938" lon="3.69652">
        <ele>627</ele>
        <time>2024-12-08T01:42:56.619Z</time>
      </trkpt>
      <trkpt lat="45.87938" lon="3.69654">
        <ele>627</ele>
        <time>2024-12-08T01:42:57.619Z</time>
      </trkpt>
      <trkpt lat="45.87939" lon="3.69656">
        <ele>627</ele>
        <time>2024-12-08T01:42:58.619Z</time>
      </trkpt>
      <trkpt lat="45.87939" lon="3.69658">
        <ele>626</ele>
        <time>2024-12-08T01:42:59.620Z</time>
      </trkpt>
      <trkpt lat="45.8794" lon="3.6966">
        <ele>626</ele>
        <time>2024-12-08T01:43:00.620Z</time>
      </trkpt>
      <trkpt lat="45.8794" lon="3.69662">
        <ele>625</ele>
        <time>2024-12-08T01:43:01.620Z</time>
      </trkpt>
      <trkpt lat="45.87941" lon="3.69664">
        <ele>625</ele>
        <time>2024-12-08T01:43:02.619Z</time>
      </trkpt>
      <trkpt lat="45.87942" lon="3.69666">
        <ele>625</ele>
        <time>2024-12-08T01:43:03.619Z</time>
      </trkpt>
      <trkpt lat="45.87943" lon="3.69668">
        <ele>625</ele>
        <time>2024-12-08T01:43:04.620Z</time>
      </trkpt>
      <trkpt lat="45.87943" lon="3.6967">
        <ele>625</ele>
        <time>2024-12-08T01:43:05.619Z</time>
      </trkpt>
      <trkpt lat="45.87943" lon="3.69672">
        <ele>625</ele>
        <time>2024-12-08T01:43:06.620Z</time>
      </trkpt>
      <trkpt lat="45.87944" lon="3.69674">
        <ele>625</ele>
        <time>2024-12-08T01:43:07.620Z</time>
      </trkpt>
      <trkpt lat="45.87944" lon="3.69676">
        <ele>625</ele>
        <time>2024-12-08T01:43:08.619Z</time>
      </trkpt>
      <trkpt lat="45.87944" lon="3.69678">
        <ele>625</ele>
        <time>2024-12-08T01:43:09.619Z</time>
      </trkpt>
      <trkpt lat="45.87944" lon="3.6968">
        <ele>625</ele>
        <time>2024-12-08T01:43:10.620Z</time>
      </trkpt>
      <trkpt lat="45.87944" lon="3.69682">
        <ele>625</ele>
        <time>2024-12-08T01:43:11.620Z</time>
      </trkpt>
      <trkpt lat="45.87945" lon="3.69684">
        <ele>625</ele>
        <time>2024-12-08T01:43:12.620Z</time>
      </trkpt>
      <trkpt lat="45.87945" lon="3.69687">
        <ele>625</ele>
        <time>2024-12-08T01:43:13.619Z</time>
      </trkpt>
      <trkpt lat="45.87946" lon="3.69688">
        <ele>625</ele>
        <time>2024-12-08T01:43:14.620Z</time>
      </trkpt>
      <trkpt lat="45.87946" lon="3.6969">
        <ele>626</ele>
        <time>2024-12-08T01:43:15.619Z</time>
      </trkpt>
      <trkpt lat="45.87947" lon="3.69693">
        <ele>626</ele>
        <time>2024-12-08T01:43:16.619Z</time>
      </trkpt>
      <trkpt lat="45.87947" lon="3.69695">
        <ele>626</ele>
        <time>2024-12-08T01:43:17.620Z</time>
      </trkpt>
      <trkpt lat="45.87947" lon="3.69697">
        <ele>625</ele>
        <time>2024-12-08T01:43:18.619Z</time>
      </trkpt>
      <trkpt lat="45.87947" lon="3.69699">
        <ele>625</ele>
        <time>2024-12-08T01:43:19.620Z</time>
      </trkpt>
      <trkpt lat="45.87947" lon="3.69702">
        <ele>625</ele>
        <time>2024-12-08T01:43:20.620Z</time>
      </trkpt>
      <trkpt lat="45.87947" lon="3.69704">
        <ele>626</ele>
        <time>2024-12-08T01:43:21.620Z</time>
      </trkpt>
      <trkpt lat="45.87947" lon="3.69706">
        <ele>626</ele>
        <time>2024-12-08T01:43:22.619Z</time>
      </trkpt>
      <trkpt lat="45.87947" lon="3.69708">
        <ele>626</ele>
        <time>2024-12-08T01:43:23.619Z</time>
      </trkpt>
      <trkpt lat="45.87947" lon="3.69711">
        <ele>626</ele>
        <time>2024-12-08T01:43:24.619Z</time>
      </trkpt>
      <trkpt lat="45.87947" lon="3.69713">
        <ele>627</ele>
        <time>2024-12-08T01:43:25.620Z</time>
      </trkpt>
      <trkpt lat="45.87948" lon="3.69715">
        <ele>627</ele>
        <time>2024-12-08T01:43:26.619Z</time>
      </trkpt>
      <trkpt lat="45.87948" lon="3.69718">
        <ele>628</ele>
        <time>2024-12-08T01:43:27.620Z</time>
      </trkpt>
      <trkpt lat="45.87948" lon="3.6972">
        <ele>628</ele>
        <time>2024-12-08T01:43:28.619Z</time>
      </trkpt>
      <trkpt lat="45.87948" lon="3.69722">
        <ele>629</ele>
        <time>2024-12-08T01:43:29.619Z</time>
      </trkpt>
      <trkpt lat="45.87948" lon="3.69724">
        <ele>629</ele>
        <time>2024-12-08T01:43:30.620Z</time>
      </trkpt>
      <trkpt lat="45.87948" lon="3.69726">
        <ele>630</ele>
        <time>2024-12-08T01:43:31.620Z</time>
      </trkpt>
      <trkpt lat="45.87948" lon="3.69728">
        <ele>630</ele>
        <time>2024-12-08T01:43:32.620Z</time>
      </trkpt>
      <trkpt lat="45.87949" lon="3.69731">
        <ele>630</ele>
        <time>2024-12-08T01:43:33.620Z</time>
      </trkpt>
      <trkpt lat="45.87949" lon="3.69733">
        <ele>630</ele>
        <time>2024-12-08T01:43:34.620Z</time>
      </trkpt>
      <trkpt lat="45.87949" lon="3.69735">
        <ele>631</ele>
        <time>2024-12-08T01:43:35.619Z</time>
      </trkpt>
      <trkpt lat="45.87949" lon="3.69737">
        <ele>631</ele>
        <time>2024-12-08T01:43:36.619Z</time>
      </trkpt>
      <trkpt lat="45.87949" lon="3.69739">
        <ele>631</ele>
        <time>2024-12-08T01:43:37.619Z</time>
      </trkpt>
      <trkpt lat="45.8795" lon="3.69741">
        <ele>631</ele>
        <time>2024-12-08T01:43:38.619Z</time>
      </trkpt>
      <trkpt lat="45.8795" lon="3.69743">
        <ele>632</ele>
        <time>2024-12-08T01:43:39.620Z</time>
      </trkpt>
      <trkpt lat="45.8795" lon="3.69746">
        <ele>632</ele>
        <time>2024-12-08T01:43:40.619Z</time>
      </trkpt>
      <trkpt lat="45.8795" lon="3.69748">
        <ele>632</ele>
        <time>2024-12-08T01:43:41.620Z</time>
      </trkpt>
      <trkpt lat="45.8795" lon="3.69751">
        <ele>632</ele>
        <time>2024-12-08T01:43:42.620Z</time>
      </trkpt>
      <trkpt lat="45.8795" lon="3.69753">
        <ele>632</ele>
        <time>2024-12-08T01:43:43.619Z</time>
      </trkpt>
      <trkpt lat="45.87951" lon="3.69756">
        <ele>632</ele>
        <time>2024-12-08T01:43:44.619Z</time>
      </trkpt>
      <trkpt lat="45.87951" lon="3.69758">
        <ele>632</ele>
        <time>2024-12-08T01:43:45.619Z</time>
      </trkpt>
      <trkpt lat="45.87952" lon="3.69761">
        <ele>632</ele>
        <time>2024-12-08T01:43:46.619Z</time>
      </trkpt>
      <trkpt lat="45.87952" lon="3.69763">
        <ele>632</ele>
        <time>2024-12-08T01:43:47.620Z</time>
      </trkpt>
      <trkpt lat="45.87953" lon="3.69765">
        <ele>632</ele>
        <time>2024-12-08T01:43:48.619Z</time>
      </trkpt>
      <trkpt lat="45.87953" lon="3.69767">
        <ele>632</ele>
        <time>2024-12-08T01:43:49.619Z</time>
      </trkpt>
      <trkpt lat="45.87954" lon="3.6977">
        <ele>632</ele>
        <time>2024-12-08T01:43:50.619Z</time>
      </trkpt>
      <trkpt lat="45.87954" lon="3.69773">
        <ele>632</ele>
        <time>2024-12-08T01:43:51.619Z</time>
      </trkpt>
      <trkpt lat="45.87954" lon="3.69775">
        <ele>632</ele>
        <time>2024-12-08T01:43:52.619Z</time>
      </trkpt>
      <trkpt lat="45.87955" lon="3.69777">
        <ele>632</ele>
        <time>2024-12-08T01:43:53.619Z</time>
      </trkpt>
      <trkpt lat="45.87955" lon="3.6978">
        <ele>632</ele>
        <time>2024-12-08T01:43:54.620Z</time>
      </trkpt>
      <trkpt lat="45.87956" lon="3.69782">
        <ele>632</ele>
        <time>2024-12-08T01:43:55.619Z</time>
      </trkpt>
      <trkpt lat="45.87956" lon="3.69785">
        <ele>632</ele>
        <time>2024-12-08T01:43:56.620Z</time>
      </trkpt>
      <trkpt lat="45.87956" lon="3.69787">
        <ele>632</ele>
        <time>2024-12-08T01:43:57.620Z</time>
      </trkpt>
      <trkpt lat="45.87956" lon="3.6979">
        <ele>632</ele>
        <time>2024-12-08T01:43:58.619Z</time>
      </trkpt>
      <trkpt lat="45.87957" lon="3.69792">
        <ele>632</ele>
        <time>2024-12-08T01:43:59.620Z</time>
      </trkpt>
      <trkpt lat="45.87957" lon="3.69795">
        <ele>631</ele>
        <time>2024-12-08T01:44:00.619Z</time>
      </trkpt>
      <trkpt lat="45.87957" lon="3.69797">
        <ele>631</ele>
        <time>2024-12-08T01:44:01.620Z</time>
      </trkpt>
      <trkpt lat="45.87957" lon="3.69799">
        <ele>631</ele>
        <time>2024-12-08T01:44:02.619Z</time>
      </trkpt>
      <trkpt lat="45.87958" lon="3.69801">
        <ele>631</ele>
        <time>2024-12-08T01:44:03.619Z</time>
      </trkpt>
      <trkpt lat="45.87958" lon="3.69803">
        <ele>631</ele>
        <time>2024-12-08T01:44:04.619Z</time>
      </trkpt>
      <trkpt lat="45.87958" lon="3.69806">
        <ele>631</ele>
        <time>2024-12-08T01:44:05.620Z</time>
      </trkpt>
      <trkpt lat="45.87958" lon="3.69808">
        <ele>631</ele>
        <time>2024-12-08T01:44:06.620Z</time>
      </trkpt>
      <trkpt lat="45.87959" lon="3.6981">
        <ele>631</ele>
        <time>2024-12-08T01:44:07.619Z</time>
      </trkpt>
      <trkpt lat="45.87959" lon="3.69813">
        <ele>631</ele>
        <time>2024-12-08T01:44:08.619Z</time>
      </trkpt>
      <trkpt lat="45.87959" lon="3.69815">
        <ele>631</ele>
        <time>2024-12-08T01:44:09.619Z</time>
      </trkpt>
      <trkpt lat="45.87959" lon="3.69817">
        <ele>631</ele>
        <time>2024-12-08T01:44:10.619Z</time>
      </trkpt>
      <trkpt lat="45.8796" lon="3.69819">
        <ele>631</ele>
        <time>2024-12-08T01:44:11.620Z</time>
      </trkpt>
      <trkpt lat="45.8796" lon="3.69821">
        <ele>631</ele>
        <time>2024-12-08T01:44:12.619Z</time>
      </trkpt>
      <trkpt lat="45.87961" lon="3.69823">
        <ele>631</ele>
        <time>2024-12-08T01:44:13.620Z</time>
      </trkpt>
      <trkpt lat="45.87961" lon="3.69825">
        <ele>631</ele>
        <time>2024-12-08T01:44:14.619Z</time>
      </trkpt>
      <trkpt lat="45.87961" lon="3.69827">
        <ele>631</ele>
        <time>2024-12-08T01:44:15.620Z</time>
      </trkpt>
      <trkpt lat="45.87962" lon="3.69829">
        <ele>631</ele>
        <time>2024-12-08T01:44:16.619Z</time>
      </trkpt>
      <trkpt lat="45.87962" lon="3.69831">
        <ele>631</ele>
        <time>2024-12-08T01:44:17.619Z</time>
      </trkpt>
      <trkpt lat="45.87962" lon="3.69833">
        <ele>632</ele>
        <time>2024-12-08T01:44:18.619Z</time>
      </trkpt>
      <trkpt lat="45.87963" lon="3.69836">
        <ele>632</ele>
        <time>2024-12-08T01:44:19.620Z</time>
      </trkpt>
      <trkpt lat="45.87963" lon="3.69839">
        <ele>632</ele>
        <time>2024-12-08T01:44:20.620Z</time>
      </trkpt>
      <trkpt lat="45.87963" lon="3.69841">
        <ele>632</ele>
        <time>2024-12-08T01:44:21.619Z</time>
      </trkpt>
      <trkpt lat="45.87964" lon="3.69843">
        <ele>631</ele>
        <time>2024-12-08T01:44:22.620Z</time>
      </trkpt>
      <trkpt lat="45.87964" lon="3.69845">
        <ele>631</ele>
        <time>2024-12-08T01:44:23.619Z</time>
      </trkpt>
      <trkpt lat="45.87964" lon="3.69848">
        <ele>631</ele>
        <time>2024-12-08T01:44:24.620Z</time>
      </trkpt>
      <trkpt lat="45.87964" lon="3.6985">
        <ele>631</ele>
        <time>2024-12-08T01:44:25.619Z</time>
      </trkpt>
      <trkpt lat="45.87965" lon="3.69852">
        <ele>631</ele>
        <time>2024-12-08T01:44:26.620Z</time>
      </trkpt>
      <trkpt lat="45.87965" lon="3.69854">
        <ele>631</ele>
        <time>2024-12-08T01:44:27.619Z</time>
      </trkpt>
      <trkpt lat="45.87965" lon="3.69856">
        <ele>631</ele>
        <time>2024-12-08T01:44:28.620Z</time>
      </trkpt>
      <trkpt lat="45.87966" lon="3.69858">
        <ele>631</ele>
        <time>2024-12-08T01:44:29.619Z</time>
      </trkpt>
      <trkpt lat="45.87966" lon="3.6986">
        <ele>631</ele>
        <time>2024-12-08T01:44:30.620Z</time>
      </trkpt>
      <trkpt lat="45.87967" lon="3.69862">
        <ele>631</ele>
        <time>2024-12-08T01:44:31.619Z</time>
      </trkpt>
      <trkpt lat="45.87968" lon="3.69864">
        <ele>632</ele>
        <time>2024-12-08T01:44:32.620Z</time>
      </trkpt>
      <trkpt lat="45.87968" lon="3.69867">
        <ele>632</ele>
        <time>2024-12-08T01:44:33.620Z</time>
      </trkpt>
      <trkpt lat="45.87969" lon="3.6987">
        <ele>633</ele>
        <time>2024-12-08T01:44:34.620Z</time>
      </trkpt>
      <trkpt lat="45.87968" lon="3.69871">
        <ele>633</ele>
        <time>2024-12-08T01:44:35.620Z</time>
      </trkpt>
      <trkpt lat="45.87969" lon="3.69874">
        <ele>633</ele>
        <time>2024-12-08T01:44:36.619Z</time>
      </trkpt>
      <trkpt lat="45.8797" lon="3.69875">
        <ele>633</ele>
        <time>2024-12-08T01:44:37.619Z</time>
      </trkpt>
      <trkpt lat="45.8797" lon="3.69877">
        <ele>633</ele>
        <time>2024-12-08T01:44:38.619Z</time>
      </trkpt>
      <trkpt lat="45.87971" lon="3.69879">
        <ele>633</ele>
        <time>2024-12-08T01:44:39.620Z</time>
      </trkpt>
      <trkpt lat="45.87971" lon="3.69882">
        <ele>633</ele>
        <time>2024-12-08T01:44:40.620Z</time>
      </trkpt>
      <trkpt lat="45.87971" lon="3.69884">
        <ele>633</ele>
        <time>2024-12-08T01:44:41.620Z</time>
      </trkpt>
      <trkpt lat="45.87972" lon="3.69886">
        <ele>633</ele>
        <time>2024-12-08T01:44:42.620Z</time>
      </trkpt>
      <trkpt lat="45.87972" lon="3.69889">
        <ele>633</ele>
        <time>2024-12-08T01:44:43.619Z</time>
      </trkpt>
      <trkpt lat="45.87972" lon="3.69891">
        <ele>634</ele>
        <time>2024-12-08T01:44:44.619Z</time>
      </trkpt>
      <trkpt lat="45.87973" lon="3.69894">
        <ele>634</ele>
        <time>2024-12-08T01:44:45.620Z</time>
      </trkpt>
      <trkpt lat="45.87973" lon="3.69896">
        <ele>634</ele>
        <time>2024-12-08T01:44:46.619Z</time>
      </trkpt>
      <trkpt lat="45.87973" lon="3.69898">
        <ele>635</ele>
        <time>2024-12-08T01:44:47.620Z</time>
      </trkpt>
      <trkpt lat="45.87974" lon="3.69901">
        <ele>635</ele>
        <time>2024-12-08T01:44:48.620Z</time>
      </trkpt>
      <trkpt lat="45.87974" lon="3.69903">
        <ele>635</ele>
        <time>2024-12-08T01:44:49.620Z</time>
      </trkpt>
      <trkpt lat="45.87974" lon="3.69905">
        <ele>635</ele>
        <time>2024-12-08T01:44:50.619Z</time>
      </trkpt>
      <trkpt lat="45.87975" lon="3.69908">
        <ele>634</ele>
        <time>2024-12-08T01:44:51.620Z</time>
      </trkpt>
      <trkpt lat="45.87975" lon="3.6991">
        <ele>635</ele>
        <time>2024-12-08T01:44:52.620Z</time>
      </trkpt>
      <trkpt lat="45.87975" lon="3.69912">
        <ele>635</ele>
        <time>2024-12-08T01:44:53.620Z</time>
      </trkpt>
      <trkpt lat="45.87975" lon="3.69914">
        <ele>635</ele>
        <time>2024-12-08T01:44:54.620Z</time>
      </trkpt>
      <trkpt lat="45.87976" lon="3.69917">
        <ele>635</ele>
        <time>2024-12-08T01:44:55.620Z</time>
      </trkpt>
      <trkpt lat="45.87976" lon="3.69919">
        <ele>635</ele>
        <time>2024-12-08T01:44:56.620Z</time>
      </trkpt>
      <trkpt lat="45.87977" lon="3.69921">
        <ele>635</ele>
        <time>2024-12-08T01:44:57.619Z</time>
      </trkpt>
      <trkpt lat="45.87978" lon="3.69923">
        <ele>635</ele>
        <time>2024-12-08T01:44:58.619Z</time>
      </trkpt>
      <trkpt lat="45.87978" lon="3.69925">
        <ele>635</ele>
        <time>2024-12-08T01:44:59.620Z</time>
      </trkpt>
      <trkpt lat="45.87979" lon="3.69927">
        <ele>635</ele>
        <time>2024-12-08T01:45:00.620Z</time>
      </trkpt>
      <trkpt lat="45.87979" lon="3.69929">
        <ele>635</ele>
        <time>2024-12-08T01:45:01.619Z</time>
      </trkpt>
      <trkpt lat="45.87979" lon="3.69931">
        <ele>635</ele>
        <time>2024-12-08T01:45:02.620Z</time>
      </trkpt>
      <trkpt lat="45.8798" lon="3.69933">
        <ele>635</ele>
        <time>2024-12-08T01:45:03.619Z</time>
      </trkpt>
      <trkpt lat="45.8798" lon="3.69935">
        <ele>635</ele>
        <time>2024-12-08T01:45:04.620Z</time>
      </trkpt>
      <trkpt lat="45.8798" lon="3.69937">
        <ele>635</ele>
        <time>2024-12-08T01:45:05.620Z</time>
      </trkpt>
      <trkpt lat="45.8798" lon="3.69939">
        <ele>635</ele>
        <time>2024-12-08T01:45:06.620Z</time>
      </trkpt>
      <trkpt lat="45.87981" lon="3.69941">
        <ele>635</ele>
        <time>2024-12-08T01:45:07.619Z</time>
      </trkpt>
      <trkpt lat="45.87981" lon="3.69943">
        <ele>635</ele>
        <time>2024-12-08T01:45:08.620Z</time>
      </trkpt>
      <trkpt lat="45.87982" lon="3.69945">
        <ele>635</ele>
        <time>2024-12-08T01:45:09.619Z</time>
      </trkpt>
      <trkpt lat="45.87982" lon="3.69947">
        <ele>635</ele>
        <time>2024-12-08T01:45:10.619Z</time>
      </trkpt>
      <trkpt lat="45.87983" lon="3.69949">
        <ele>635</ele>
        <time>2024-12-08T01:45:11.619Z</time>
      </trkpt>
      <trkpt lat="45.87983" lon="3.69952">
        <ele>635</ele>
        <time>2024-12-08T01:45:12.620Z</time>
      </trkpt>
      <trkpt lat="45.87983" lon="3.69954">
        <ele>635</ele>
        <time>2024-12-08T01:45:13.619Z</time>
      </trkpt>
      <trkpt lat="45.87984" lon="3.69956">
        <ele>635</ele>
        <time>2024-12-08T01:45:14.619Z</time>
      </trkpt>
      <trkpt lat="45.87984" lon="3.69958">
        <ele>635</ele>
        <time>2024-12-08T01:45:15.619Z</time>
      </trkpt>
      <trkpt lat="45.87984" lon="3.6996">
        <ele>635</ele>
        <time>2024-12-08T01:45:16.619Z</time>
      </trkpt>
      <trkpt lat="45.87985" lon="3.69963">
        <ele>635</ele>
        <time>2024-12-08T01:45:17.619Z</time>
      </trkpt>
      <trkpt lat="45.87985" lon="3.69965">
        <ele>635</ele>
        <time>2024-12-08T01:45:18.620Z</time>
      </trkpt>
      <trkpt lat="45.87986" lon="3.69967">
        <ele>635</ele>
        <time>2024-12-08T01:45:19.620Z</time>
      </trkpt>
      <trkpt lat="45.87986" lon="3.6997">
        <ele>635</ele>
        <time>2024-12-08T01:45:20.619Z</time>
      </trkpt>
      <trkpt lat="45.87986" lon="3.69972">
        <ele>636</ele>
        <time>2024-12-08T01:45:21.620Z</time>
      </trkpt>
      <trkpt lat="45.87987" lon="3.69975">
        <ele>636</ele>
        <time>2024-12-08T01:45:22.619Z</time>
      </trkpt>
      <trkpt lat="45.87987" lon="3.69977">
        <ele>636</ele>
        <time>2024-12-08T01:45:23.620Z</time>
      </trkpt>
      <trkpt lat="45.87987" lon="3.69979">
        <ele>636</ele>
        <time>2024-12-08T01:45:24.619Z</time>
      </trkpt>
      <trkpt lat="45.87988" lon="3.69981">
        <ele>636</ele>
        <time>2024-12-08T01:45:25.620Z</time>
      </trkpt>
      <trkpt lat="45.87989" lon="3.69983">
        <ele>636</ele>
        <time>2024-12-08T01:45:26.619Z</time>
      </trkpt>
      <trkpt lat="45.87989" lon="3.69986">
        <ele>636</ele>
        <time>2024-12-08T01:45:27.620Z</time>
      </trkpt>
      <trkpt lat="45.8799" lon="3.69988">
        <ele>636</ele>
        <time>2024-12-08T01:45:28.619Z</time>
      </trkpt>
      <trkpt lat="45.8799" lon="3.69991">
        <ele>636</ele>
        <time>2024-12-08T01:45:29.620Z</time>
      </trkpt>
      <trkpt lat="45.8799" lon="3.69993">
        <ele>636</ele>
        <time>2024-12-08T01:45:30.620Z</time>
      </trkpt>
      <trkpt lat="45.87991" lon="3.69995">
        <ele>636</ele>
        <time>2024-12-08T01:45:31.619Z</time>
      </trkpt>
      <trkpt lat="45.87991" lon="3.69997">
        <ele>637</ele>
        <time>2024-12-08T01:45:32.620Z</time>
      </trkpt>
      <trkpt lat="45.87992" lon="3.69999">
        <ele>637</ele>
        <time>2024-12-08T01:45:33.620Z</time>
      </trkpt>
      <trkpt lat="45.87992" lon="3.70002">
        <ele>637</ele>
        <time>2024-12-08T01:45:34.620Z</time>
      </trkpt>
      <trkpt lat="45.87993" lon="3.70004">
        <ele>637</ele>
        <time>2024-12-08T01:45:35.620Z</time>
      </trkpt>
      <trkpt lat="45.87993" lon="3.70007">
        <ele>638</ele>
        <time>2024-12-08T01:45:36.620Z</time>
      </trkpt>
      <trkpt lat="45.87994" lon="3.70009">
        <ele>638</ele>
        <time>2024-12-08T01:45:37.619Z</time>
      </trkpt>
      <trkpt lat="45.87994" lon="3.7001">
        <ele>639</ele>
        <time>2024-12-08T01:45:38.620Z</time>
      </trkpt>
      <trkpt lat="45.87994" lon="3.70012">
        <ele>639</ele>
        <time>2024-12-08T01:45:39.620Z</time>
      </trkpt>
      <trkpt lat="45.87995" lon="3.70015">
        <ele>639</ele>
        <time>2024-12-08T01:45:40.620Z</time>
      </trkpt>
      <trkpt lat="45.87995" lon="3.70017">
        <ele>639</ele>
        <time>2024-12-08T01:45:41.620Z</time>
      </trkpt>
      <trkpt lat="45.87995" lon="3.70019">
        <ele>639</ele>
        <time>2024-12-08T01:45:42.619Z</time>
      </trkpt>
      <trkpt lat="45.87996" lon="3.70022">
        <ele>639</ele>
        <time>2024-12-08T01:45:43.620Z</time>
      </trkpt>
      <trkpt lat="45.87996" lon="3.70024">
        <ele>639</ele>
        <time>2024-12-08T01:45:44.619Z</time>
      </trkpt>
      <trkpt lat="45.87996" lon="3.70026">
        <ele>639</ele>
        <time>2024-12-08T01:45:45.619Z</time>
      </trkpt>
      <trkpt lat="45.87997" lon="3.70028">
        <ele>639</ele>
        <time>2024-12-08T01:45:46.619Z</time>
      </trkpt>
      <trkpt lat="45.87997" lon="3.7003">
        <ele>639</ele>
        <time>2024-12-08T01:45:47.619Z</time>
      </trkpt>
      <trkpt lat="45.87997" lon="3.70033">
        <ele>639</ele>
        <time>2024-12-08T01:45:48.620Z</time>
      </trkpt>
      <trkpt lat="45.87997" lon="3.70035">
        <ele>639</ele>
        <time>2024-12-08T01:45:49.619Z</time>
      </trkpt>
      <trkpt lat="45.87997" lon="3.70037">
        <ele>639</ele>
        <time>2024-12-08T01:45:50.620Z</time>
      </trkpt>
      <trkpt lat="45.87997" lon="3.70039">
        <ele>639</ele>
        <time>2024-12-08T01:45:51.619Z</time>
      </trkpt>
      <trkpt lat="45.87998" lon="3.70041">
        <ele>639</ele>
        <time>2024-12-08T01:45:52.620Z</time>
      </trkpt>
      <trkpt lat="45.87998" lon="3.70043">
        <ele>639</ele>
        <time>2024-12-08T01:45:53.619Z</time>
      </trkpt>
      <trkpt lat="45.87998" lon="3.70045">
        <ele>639</ele>
        <time>2024-12-08T01:45:54.620Z</time>
      </trkpt>
      <trkpt lat="45.87998" lon="3.70047">
        <ele>639</ele>
        <time>2024-12-08T01:45:55.620Z</time>
      </trkpt>
      <trkpt lat="45.87999" lon="3.70049">
        <ele>639</ele>
        <time>2024-12-08T01:45:56.619Z</time>
      </trkpt>
      <trkpt lat="45.87999" lon="3.70051">
        <ele>639</ele>
        <time>2024-12-08T01:45:57.619Z</time>
      </trkpt>
      <trkpt lat="45.87999" lon="3.70053">
        <ele>639</ele>
        <time>2024-12-08T01:45:58.619Z</time>
      </trkpt>
      <trkpt lat="45.87999" lon="3.70055">
        <ele>639</ele>
        <time>2024-12-08T01:45:59.620Z</time>
      </trkpt>
      <trkpt lat="45.88" lon="3.70058">
        <ele>640</ele>
        <time>2024-12-08T01:46:00.619Z</time>
      </trkpt>
      <trkpt lat="45.88001" lon="3.7006">
        <ele>641</ele>
        <time>2024-12-08T01:46:01.619Z</time>
      </trkpt>
      <trkpt lat="45.88001" lon="3.70062">
        <ele>641</ele>
        <time>2024-12-08T01:46:02.620Z</time>
      </trkpt>
      <trkpt lat="45.88001" lon="3.70064">
        <ele>641</ele>
        <time>2024-12-08T01:46:03.619Z</time>
      </trkpt>
      <trkpt lat="45.88001" lon="3.70067">
        <ele>641</ele>
        <time>2024-12-08T01:46:04.619Z</time>
      </trkpt>
      <trkpt lat="45.88001" lon="3.70069">
        <ele>641</ele>
        <time>2024-12-08T01:46:05.620Z</time>
      </trkpt>
      <trkpt lat="45.88001" lon="3.70071">
        <ele>641</ele>
        <time>2024-12-08T01:46:06.619Z</time>
      </trkpt>
      <trkpt lat="45.88001" lon="3.70074">
        <ele>641</ele>
        <time>2024-12-08T01:46:07.619Z</time>
      </trkpt>
      <trkpt lat="45.88001" lon="3.70076">
        <ele>641</ele>
        <time>2024-12-08T01:46:08.619Z</time>
      </trkpt>
      <trkpt lat="45.88001" lon="3.70078">
        <ele>641</ele>
        <time>2024-12-08T01:46:09.619Z</time>
      </trkpt>
      <trkpt lat="45.88001" lon="3.7008">
        <ele>641</ele>
        <time>2024-12-08T01:46:10.619Z</time>
      </trkpt>
      <trkpt lat="45.88002" lon="3.70083">
        <ele>641</ele>
        <time>2024-12-08T01:46:11.620Z</time>
      </trkpt>
      <trkpt lat="45.88002" lon="3.70085">
        <ele>641</ele>
        <time>2024-12-08T01:46:12.620Z</time>
      </trkpt>
      <trkpt lat="45.88002" lon="3.70087">
        <ele>641</ele>
        <time>2024-12-08T01:46:13.620Z</time>
      </trkpt>
      <trkpt lat="45.88002" lon="3.70089">
        <ele>641</ele>
        <time>2024-12-08T01:46:14.619Z</time>
      </trkpt>
      <trkpt lat="45.88003" lon="3.70091">
        <ele>642</ele>
        <time>2024-12-08T01:46:15.620Z</time>
      </trkpt>
      <trkpt lat="45.88003" lon="3.70093">
        <ele>642</ele>
        <time>2024-12-08T01:46:16.620Z</time>
      </trkpt>
      <trkpt lat="45.88003" lon="3.70096">
        <ele>642</ele>
        <time>2024-12-08T01:46:17.620Z</time>
      </trkpt>
      <trkpt lat="45.88004" lon="3.70098">
        <ele>642</ele>
        <time>2024-12-08T01:46:18.619Z</time>
      </trkpt>
      <trkpt lat="45.88004" lon="3.701">
        <ele>641</ele>
        <time>2024-12-08T01:46:19.619Z</time>
      </trkpt>
      <trkpt lat="45.88005" lon="3.70102">
        <ele>641</ele>
        <time>2024-12-08T01:46:20.619Z</time>
      </trkpt>
      <trkpt lat="45.88005" lon="3.70104">
        <ele>642</ele>
        <time>2024-12-08T01:46:21.619Z</time>
      </trkpt>
      <trkpt lat="45.88005" lon="3.70106">
        <ele>642</ele>
        <time>2024-12-08T01:46:22.619Z</time>
      </trkpt>
      <trkpt lat="45.88006" lon="3.70108">
        <ele>642</ele>
        <time>2024-12-08T01:46:23.619Z</time>
      </trkpt>
      <trkpt lat="45.88006" lon="3.7011">
        <ele>642</ele>
        <time>2024-12-08T01:46:24.620Z</time>
      </trkpt>
      <trkpt lat="45.88006" lon="3.70113">
        <ele>642</ele>
        <time>2024-12-08T01:46:25.619Z</time>
      </trkpt>
      <trkpt lat="45.88006" lon="3.70115">
        <ele>642</ele>
        <time>2024-12-08T01:46:26.619Z</time>
      </trkpt>
      <trkpt lat="45.88007" lon="3.70117">
        <ele>643</ele>
        <time>2024-12-08T01:46:27.619Z</time>
      </trkpt>
      <trkpt lat="45.88007" lon="3.70119">
        <ele>643</ele>
        <time>2024-12-08T01:46:28.619Z</time>
      </trkpt>
      <trkpt lat="45.88007" lon="3.70121">
        <ele>643</ele>
        <time>2024-12-08T01:46:29.619Z</time>
      </trkpt>
      <trkpt lat="45.88008" lon="3.70123">
        <ele>643</ele>
        <time>2024-12-08T01:46:30.619Z</time>
      </trkpt>
      <trkpt lat="45.88008" lon="3.70125">
        <ele>643</ele>
        <time>2024-12-08T01:46:31.619Z</time>
      </trkpt>
      <trkpt lat="45.88009" lon="3.70127">
        <ele>643</ele>
        <time>2024-12-08T01:46:32.619Z</time>
      </trkpt>
      <trkpt lat="45.88009" lon="3.7013">
        <ele>643</ele>
        <time>2024-12-08T01:46:33.619Z</time>
      </trkpt>
      <trkpt lat="45.8801" lon="3.70132">
        <ele>643</ele>
        <time>2024-12-08T01:46:34.620Z</time>
      </trkpt>
      <trkpt lat="45.8801" lon="3.70134">
        <ele>643</ele>
        <time>2024-12-08T01:46:35.620Z</time>
      </trkpt>
      <trkpt lat="45.88011" lon="3.70136">
        <ele>643</ele>
        <time>2024-12-08T01:46:36.619Z</time>
      </trkpt>
      <trkpt lat="45.88011" lon="3.70138">
        <ele>644</ele>
        <time>2024-12-08T01:46:37.619Z</time>
      </trkpt>
      <trkpt lat="45.88011" lon="3.70141">
        <ele>644</ele>
        <time>2024-12-08T01:46:38.619Z</time>
      </trkpt>
      <trkpt lat="45.88011" lon="3.70143">
        <ele>644</ele>
        <time>2024-12-08T01:46:39.620Z</time>
      </trkpt>
      <trkpt lat="45.88011" lon="3.70145">
        <ele>644</ele>
        <time>2024-12-08T01:46:40.619Z</time>
      </trkpt>
      <trkpt lat="45.88012" lon="3.70148">
        <ele>644</ele>
        <time>2024-12-08T01:46:41.619Z</time>
      </trkpt>
      <trkpt lat="45.88012" lon="3.7015">
        <ele>644</ele>
        <time>2024-12-08T01:46:42.619Z</time>
      </trkpt>
      <trkpt lat="45.88012" lon="3.70152">
        <ele>644</ele>
        <time>2024-12-08T01:46:43.620Z</time>
      </trkpt>
      <trkpt lat="45.88013" lon="3.70154">
        <ele>644</ele>
        <time>2024-12-08T01:46:44.619Z</time>
      </trkpt>
      <trkpt lat="45.88014" lon="3.70156">
        <ele>645</ele>
        <time>2024-12-08T01:46:45.619Z</time>
      </trkpt>
      <trkpt lat="45.88014" lon="3.70158">
        <ele>645</ele>
        <time>2024-12-08T01:46:46.619Z</time>
      </trkpt>
      <trkpt lat="45.88014" lon="3.7016">
        <ele>645</ele>
        <time>2024-12-08T01:46:47.620Z</time>
      </trkpt>
      <trkpt lat="45.88015" lon="3.70162">
        <ele>645</ele>
        <time>2024-12-08T01:46:48.620Z</time>
      </trkpt>
      <trkpt lat="45.88015" lon="3.70164">
        <ele>645</ele>
        <time>2024-12-08T01:46:49.620Z</time>
      </trkpt>
      <trkpt lat="45.88015" lon="3.70167">
        <ele>645</ele>
        <time>2024-12-08T01:46:50.620Z</time>
      </trkpt>
      <trkpt lat="45.88015" lon="3.70169">
        <ele>645</ele>
        <time>2024-12-08T01:46:51.620Z</time>
      </trkpt>
      <trkpt lat="45.88015" lon="3.70172">
        <ele>645</ele>
        <time>2024-12-08T01:46:52.619Z</time>
      </trkpt>
      <trkpt lat="45.88015" lon="3.70174">
        <ele>645</ele>
        <time>2024-12-08T01:46:53.619Z</time>
      </trkpt>
      <trkpt lat="45.88016" lon="3.70176">
        <ele>645</ele>
        <time>2024-12-08T01:46:54.619Z</time>
      </trkpt>
      <trkpt lat="45.88016" lon="3.70178">
        <ele>645</ele>
        <time>2024-12-08T01:46:55.619Z</time>
      </trkpt>
      <trkpt lat="45.88016" lon="3.70181">
        <ele>645</ele>
        <time>2024-12-08T01:46:56.620Z</time>
      </trkpt>
      <trkpt lat="45.88016" lon="3.70184">
        <ele>645</ele>
        <time>2024-12-08T01:46:57.620Z</time>
      </trkpt>
      <trkpt lat="45.88016" lon="3.70187">
        <ele>645</ele>
        <time>2024-12-08T01:46:58.619Z</time>
      </trkpt>
      <trkpt lat="45.88016" lon="3.70189">
        <ele>645</ele>
        <time>2024-12-08T01:46:59.620Z</time>
      </trkpt>
      <trkpt lat="45.88016" lon="3.70192">
        <ele>645</ele>
        <time>2024-12-08T01:47:00.619Z</time>
      </trkpt>
      <trkpt lat="45.88016" lon="3.70194">
        <ele>644</ele>
        <time>2024-12-08T01:47:01.619Z</time>
      </trkpt>
      <trkpt lat="45.88016" lon="3.70197">
        <ele>644</ele>
        <time>2024-12-08T01:47:02.619Z</time>
      </trkpt>
      <trkpt lat="45.88016" lon="3.70199">
        <ele>644</ele>
        <time>2024-12-08T01:47:03.619Z</time>
      </trkpt>
      <trkpt lat="45.88016" lon="3.70202">
        <ele>644</ele>
        <time>2024-12-08T01:47:04.619Z</time>
      </trkpt>
      <trkpt lat="45.88016" lon="3.70204">
        <ele>645</ele>
        <time>2024-12-08T01:47:05.619Z</time>
      </trkpt>
      <trkpt lat="45.88017" lon="3.70206">
        <ele>645</ele>
        <time>2024-12-08T01:47:06.619Z</time>
      </trkpt>
      <trkpt lat="45.88017" lon="3.70208">
        <ele>645</ele>
        <time>2024-12-08T01:47:07.619Z</time>
      </trkpt>
      <trkpt lat="45.88018" lon="3.70211">
        <ele>645</ele>
        <time>2024-12-08T01:47:08.620Z</time>
      </trkpt>
      <trkpt lat="45.88019" lon="3.70213">
        <ele>646</ele>
        <time>2024-12-08T01:47:09.620Z</time>
      </trkpt>
      <trkpt lat="45.88019" lon="3.70215">
        <ele>646</ele>
        <time>2024-12-08T01:47:10.620Z</time>
      </trkpt>
      <trkpt lat="45.8802" lon="3.70218">
        <ele>646</ele>
        <time>2024-12-08T01:47:11.619Z</time>
      </trkpt>
      <trkpt lat="45.88021" lon="3.7022">
        <ele>647</ele>
        <time>2024-12-08T01:47:12.619Z</time>
      </trkpt>
      <trkpt lat="45.88021" lon="3.70223">
        <ele>647</ele>
        <time>2024-12-08T01:47:13.619Z</time>
      </trkpt>
      <trkpt lat="45.88021" lon="3.70225">
        <ele>647</ele>
        <time>2024-12-08T01:47:14.619Z</time>
      </trkpt>
      <trkpt lat="45.88021" lon="3.70227">
        <ele>647</ele>
        <time>2024-12-08T01:47:15.619Z</time>
      </trkpt>
      <trkpt lat="45.88022" lon="3.7023">
        <ele>647</ele>
        <time>2024-12-08T01:47:16.619Z</time>
      </trkpt>
      <trkpt lat="45.88021" lon="3.70232">
        <ele>647</ele>
        <time>2024-12-08T01:47:17.619Z</time>
      </trkpt>
      <trkpt lat="45.88022" lon="3.70235">
        <ele>647</ele>
        <time>2024-12-08T01:47:18.619Z</time>
      </trkpt>
      <trkpt lat="45.88022" lon="3.70237">
        <ele>647</ele>
        <time>2024-12-08T01:47:19.619Z</time>
      </trkpt>
      <trkpt lat="45.88023" lon="3.70239">
        <ele>647</ele>
        <time>2024-12-08T01:47:20.620Z</time>
      </trkpt>
      <trkpt lat="45.88023" lon="3.70241">
        <ele>647</ele>
        <time>2024-12-08T01:47:21.619Z</time>
      </trkpt>
      <trkpt lat="45.88023" lon="3.70243">
        <ele>647</ele>
        <time>2024-12-08T01:47:22.620Z</time>
      </trkpt>
      <trkpt lat="45.88023" lon="3.70244">
        <ele>647</ele>
        <time>2024-12-08T01:47:23.619Z</time>
      </trkpt>
      <trkpt lat="45.88024" lon="3.70246">
        <ele>647</ele>
        <time>2024-12-08T01:47:24.619Z</time>
      </trkpt>
      <trkpt lat="45.88024" lon="3.70249">
        <ele>647</ele>
        <time>2024-12-08T01:47:25.619Z</time>
      </trkpt>
      <trkpt lat="45.88025" lon="3.7025">
        <ele>647</ele>
        <time>2024-12-08T01:47:26.619Z</time>
      </trkpt>
      <trkpt lat="45.88026" lon="3.70252">
        <ele>647</ele>
        <time>2024-12-08T01:47:27.620Z</time>
      </trkpt>
      <trkpt lat="45.88027" lon="3.70254">
        <ele>647</ele>
        <time>2024-12-08T01:47:28.619Z</time>
      </trkpt>
      <trkpt lat="45.88027" lon="3.70256">
        <ele>648</ele>
        <time>2024-12-08T01:47:29.619Z</time>
      </trkpt>
      <trkpt lat="45.88028" lon="3.70259">
        <ele>648</ele>
        <time>2024-12-08T01:47:30.619Z</time>
      </trkpt>
      <trkpt lat="45.88028" lon="3.7026">
        <ele>649</ele>
        <time>2024-12-08T01:47:31.619Z</time>
      </trkpt>
      <trkpt lat="45.88028" lon="3.70262">
        <ele>649</ele>
        <time>2024-12-08T01:47:32.619Z</time>
      </trkpt>
      <trkpt lat="45.88029" lon="3.70265">
        <ele>649</ele>
        <time>2024-12-08T01:47:33.619Z</time>
      </trkpt>
      <trkpt lat="45.88029" lon="3.70267">
        <ele>649</ele>
        <time>2024-12-08T01:47:34.619Z</time>
      </trkpt>
      <trkpt lat="45.8803" lon="3.70269">
        <ele>649</ele>
        <time>2024-12-08T01:47:35.619Z</time>
      </trkpt>
      <trkpt lat="45.8803" lon="3.70271">
        <ele>649</ele>
        <time>2024-12-08T01:47:36.619Z</time>
      </trkpt>
      <trkpt lat="45.88031" lon="3.70273">
        <ele>649</ele>
        <time>2024-12-08T01:47:37.620Z</time>
      </trkpt>
      <trkpt lat="45.88031" lon="3.70275">
        <ele>649</ele>
        <time>2024-12-08T01:47:38.620Z</time>
      </trkpt>
      <trkpt lat="45.88032" lon="3.70277">
        <ele>648</ele>
        <time>2024-12-08T01:47:39.619Z</time>
      </trkpt>
      <trkpt lat="45.88032" lon="3.7028">
        <ele>648</ele>
        <time>2024-12-08T01:47:40.619Z</time>
      </trkpt>
      <trkpt lat="45.88033" lon="3.70282">
        <ele>648</ele>
        <time>2024-12-08T01:47:41.619Z</time>
      </trkpt>
      <trkpt lat="45.88033" lon="3.70284">
        <ele>647</ele>
        <time>2024-12-08T01:47:42.620Z</time>
      </trkpt>
      <trkpt lat="45.88034" lon="3.70286">
        <ele>647</ele>
        <time>2024-12-08T01:47:43.619Z</time>
      </trkpt>
      <trkpt lat="45.88034" lon="3.70288">
        <ele>647</ele>
        <time>2024-12-08T01:47:44.619Z</time>
      </trkpt>
      <trkpt lat="45.88035" lon="3.7029">
        <ele>647</ele>
        <time>2024-12-08T01:47:45.619Z</time>
      </trkpt>
      <trkpt lat="45.88036" lon="3.70293">
        <ele>647</ele>
        <time>2024-12-08T01:47:46.620Z</time>
      </trkpt>
      <trkpt lat="45.88036" lon="3.70295">
        <ele>646</ele>
        <time>2024-12-08T01:47:47.619Z</time>
      </trkpt>
      <trkpt lat="45.88037" lon="3.70297">
        <ele>646</ele>
        <time>2024-12-08T01:47:48.619Z</time>
      </trkpt>
      <trkpt lat="45.88038" lon="3.70299">
        <ele>646</ele>
        <time>2024-12-08T01:47:49.619Z</time>
      </trkpt>
      <trkpt lat="45.88038" lon="3.70301">
        <ele>646</ele>
        <time>2024-12-08T01:47:50.620Z</time>
      </trkpt>
      <trkpt lat="45.88039" lon="3.70303">
        <ele>646</ele>
        <time>2024-12-08T01:47:51.619Z</time>
      </trkpt>
      <trkpt lat="45.88039" lon="3.70305">
        <ele>646</ele>
        <time>2024-12-08T01:47:52.620Z</time>
      </trkpt>
      <trkpt lat="45.8804" lon="3.70307">
        <ele>647</ele>
        <time>2024-12-08T01:47:53.619Z</time>
      </trkpt>
      <trkpt lat="45.88041" lon="3.70309">
        <ele>647</ele>
        <time>2024-12-08T01:47:54.619Z</time>
      </trkpt>
      <trkpt lat="45.88041" lon="3.70311">
        <ele>647</ele>
        <time>2024-12-08T01:47:55.620Z</time>
      </trkpt>
      <trkpt lat="45.88042" lon="3.70313">
        <ele>647</ele>
        <time>2024-12-08T01:47:56.619Z</time>
      </trkpt>
      <trkpt lat="45.88043" lon="3.70314">
        <ele>647</ele>
        <time>2024-12-08T01:47:57.620Z</time>
      </trkpt>
      <trkpt lat="45.88044" lon="3.70316">
        <ele>648</ele>
        <time>2024-12-08T01:47:58.620Z</time>
      </trkpt>
      <trkpt lat="45.88044" lon="3.70318">
        <ele>648</ele>
        <time>2024-12-08T01:47:59.619Z</time>
      </trkpt>
      <trkpt lat="45.88045" lon="3.7032">
        <ele>649</ele>
        <time>2024-12-08T01:48:00.620Z</time>
      </trkpt>
      <trkpt lat="45.88046" lon="3.70322">
        <ele>649</ele>
        <time>2024-12-08T01:48:01.620Z</time>
      </trkpt>
      <trkpt lat="45.88047" lon="3.70324">
        <ele>649</ele>
        <time>2024-12-08T01:48:02.620Z</time>
      </trkpt>
      <trkpt lat="45.88048" lon="3.70326">
        <ele>649</ele>
        <time>2024-12-08T01:48:03.619Z</time>
      </trkpt>
      <trkpt lat="45.88049" lon="3.70327">
        <ele>649</ele>
        <time>2024-12-08T01:48:04.620Z</time>
      </trkpt>
      <trkpt lat="45.8805" lon="3.70329">
        <ele>649</ele>
        <time>2024-12-08T01:48:05.619Z</time>
      </trkpt>
      <trkpt lat="45.88051" lon="3.70331">
        <ele>650</ele>
        <time>2024-12-08T01:48:06.620Z</time>
      </trkpt>
      <trkpt lat="45.88051" lon="3.70333">
        <ele>650</ele>
        <time>2024-12-08T01:48:07.619Z</time>
      </trkpt>
      <trkpt lat="45.88052" lon="3.70335">
        <ele>650</ele>
        <time>2024-12-08T01:48:08.619Z</time>
      </trkpt>
      <trkpt lat="45.88053" lon="3.70337">
        <ele>650</ele>
        <time>2024-12-08T01:48:09.619Z</time>
      </trkpt>
      <trkpt lat="45.88054" lon="3.70339">
        <ele>651</ele>
        <time>2024-12-08T01:48:10.619Z</time>
      </trkpt>
      <trkpt lat="45.88054" lon="3.70341">
        <ele>651</ele>
        <time>2024-12-08T01:48:11.619Z</time>
      </trkpt>
      <trkpt lat="45.88055" lon="3.70342">
        <ele>651</ele>
        <time>2024-12-08T01:48:12.620Z</time>
      </trkpt>
      <trkpt lat="45.88056" lon="3.70344">
        <ele>651</ele>
        <time>2024-12-08T01:48:13.619Z</time>
      </trkpt>
      <trkpt lat="45.88057" lon="3.70346">
        <ele>652</ele>
        <time>2024-12-08T01:48:14.619Z</time>
      </trkpt>
      <trkpt lat="45.88058" lon="3.70347">
        <ele>652</ele>
        <time>2024-12-08T01:48:15.619Z</time>
      </trkpt>
      <trkpt lat="45.88058" lon="3.70349">
        <ele>652</ele>
        <time>2024-12-08T01:48:16.619Z</time>
      </trkpt>
      <trkpt lat="45.88059" lon="3.70351">
        <ele>652</ele>
        <time>2024-12-08T01:48:17.619Z</time>
      </trkpt>
      <trkpt lat="45.8806" lon="3.70352">
        <ele>652</ele>
        <time>2024-12-08T01:48:18.620Z</time>
      </trkpt>
      <trkpt lat="45.88061" lon="3.70354">
        <ele>652</ele>
        <time>2024-12-08T01:48:19.620Z</time>
      </trkpt>
      <trkpt lat="45.88062" lon="3.70356">
        <ele>652</ele>
        <time>2024-12-08T01:48:20.619Z</time>
      </trkpt>
      <trkpt lat="45.88064" lon="3.70358">
        <ele>653</ele>
        <time>2024-12-08T01:48:21.619Z</time>
      </trkpt>
      <trkpt lat="45.88065" lon="3.7036">
        <ele>653</ele>
        <time>2024-12-08T01:48:22.619Z</time>
      </trkpt>
      <trkpt lat="45.88066" lon="3.70362">
        <ele>653</ele>
        <time>2024-12-08T01:48:23.619Z</time>
      </trkpt>
      <trkpt lat="45.88067" lon="3.70364">
        <ele>652</ele>
        <time>2024-12-08T01:48:24.620Z</time>
      </trkpt>
      <trkpt lat="45.88068" lon="3.70366">
        <ele>652</ele>
        <time>2024-12-08T01:48:25.619Z</time>
      </trkpt>
      <trkpt lat="45.88069" lon="3.70368">
        <ele>652</ele>
        <time>2024-12-08T01:48:26.620Z</time>
      </trkpt>
      <trkpt lat="45.8807" lon="3.70369">
        <ele>652</ele>
        <time>2024-12-08T01:48:27.620Z</time>
      </trkpt>
      <trkpt lat="45.8807" lon="3.70371">
        <ele>653</ele>
        <time>2024-12-08T01:48:28.619Z</time>
      </trkpt>
      <trkpt lat="45.88071" lon="3.70373">
        <ele>653</ele>
        <time>2024-12-08T01:48:29.620Z</time>
      </trkpt>
      <trkpt lat="45.88072" lon="3.70375">
        <ele>653</ele>
        <time>2024-12-08T01:48:30.619Z</time>
      </trkpt>
      <trkpt lat="45.88073" lon="3.70377">
        <ele>653</ele>
        <time>2024-12-08T01:48:31.620Z</time>
      </trkpt>
      <trkpt lat="45.88073" lon="3.70378">
        <ele>654</ele>
        <time>2024-12-08T01:48:32.619Z</time>
      </trkpt>
      <trkpt lat="45.88074" lon="3.7038">
        <ele>654</ele>
        <time>2024-12-08T01:48:33.619Z</time>
      </trkpt>
      <trkpt lat="45.88075" lon="3.70381">
        <ele>654</ele>
        <time>2024-12-08T01:48:34.619Z</time>
      </trkpt>
      <trkpt lat="45.88076" lon="3.70383">
        <ele>654</ele>
        <time>2024-12-08T01:48:35.619Z</time>
      </trkpt>
      <trkpt lat="45.88077" lon="3.70385">
        <ele>654</ele>
        <time>2024-12-08T01:48:36.619Z</time>
      </trkpt>
      <trkpt lat="45.88078" lon="3.70387">
        <ele>655</ele>
        <time>2024-12-08T01:48:37.619Z</time>
      </trkpt>
      <trkpt lat="45.88079" lon="3.70388">
        <ele>655</ele>
        <time>2024-12-08T01:48:38.620Z</time>
      </trkpt>
      <trkpt lat="45.8808" lon="3.7039">
        <ele>655</ele>
        <time>2024-12-08T01:48:39.620Z</time>
      </trkpt>
      <trkpt lat="45.88081" lon="3.70392">
        <ele>655</ele>
        <time>2024-12-08T01:48:40.620Z</time>
      </trkpt>
      <trkpt lat="45.88082" lon="3.70394">
        <ele>655</ele>
        <time>2024-12-08T01:48:41.619Z</time>
      </trkpt>
      <trkpt lat="45.88082" lon="3.70396">
        <ele>655</ele>
        <time>2024-12-08T01:48:42.619Z</time>
      </trkpt>
      <trkpt lat="45.88083" lon="3.70398">
        <ele>655</ele>
        <time>2024-12-08T01:48:43.619Z</time>
      </trkpt>
      <trkpt lat="45.88084" lon="3.70399">
        <ele>655</ele>
        <time>2024-12-08T01:48:44.620Z</time>
      </trkpt>
      <trkpt lat="45.88085" lon="3.70401">
        <ele>655</ele>
        <time>2024-12-08T01:48:45.619Z</time>
      </trkpt>
      <trkpt lat="45.88086" lon="3.70403">
        <ele>655</ele>
        <time>2024-12-08T01:48:46.620Z</time>
      </trkpt>
      <trkpt lat="45.88086" lon="3.70405">
        <ele>655</ele>
        <time>2024-12-08T01:48:47.620Z</time>
      </trkpt>
      <trkpt lat="45.88087" lon="3.70406">
        <ele>655</ele>
        <time>2024-12-08T01:48:48.620Z</time>
      </trkpt>
      <trkpt lat="45.88088" lon="3.70408">
        <ele>655</ele>
        <time>2024-12-08T01:48:49.620Z</time>
      </trkpt>
      <trkpt lat="45.88089" lon="3.7041">
        <ele>655</ele>
        <time>2024-12-08T01:48:50.620Z</time>
      </trkpt>
      <trkpt lat="45.88089" lon="3.70412">
        <ele>654</ele>
        <time>2024-12-08T01:48:51.619Z</time>
      </trkpt>
      <trkpt lat="45.88091" lon="3.70414">
        <ele>654</ele>
        <time>2024-12-08T01:48:52.619Z</time>
      </trkpt>
      <trkpt lat="45.88092" lon="3.70416">
        <ele>655</ele>
        <time>2024-12-08T01:48:53.620Z</time>
      </trkpt>
      <trkpt lat="45.88092" lon="3.70418">
        <ele>655</ele>
        <time>2024-12-08T01:48:54.619Z</time>
      </trkpt>
      <trkpt lat="45.88093" lon="3.7042">
        <ele>656</ele>
        <time>2024-12-08T01:48:55.619Z</time>
      </trkpt>
      <trkpt lat="45.88094" lon="3.70422">
        <ele>656</ele>
        <time>2024-12-08T01:48:56.619Z</time>
      </trkpt>
      <trkpt lat="45.88095" lon="3.70424">
        <ele>657</ele>
        <time>2024-12-08T01:48:57.620Z</time>
      </trkpt>
      <trkpt lat="45.88096" lon="3.70426">
        <ele>657</ele>
        <time>2024-12-08T01:48:58.620Z</time>
      </trkpt>
      <trkpt lat="45.88097" lon="3.70428">
        <ele>658</ele>
        <time>2024-12-08T01:48:59.620Z</time>
      </trkpt>
      <trkpt lat="45.88096" lon="3.70429">
        <ele>658</ele>
        <time>2024-12-08T01:49:00.619Z</time>
      </trkpt>
      <trkpt lat="45.88096" lon="3.70431">
        <ele>658</ele>
        <time>2024-12-08T01:49:01.620Z</time>
      </trkpt>
      <trkpt lat="45.88097" lon="3.70433">
        <ele>659</ele>
        <time>2024-12-08T01:49:02.620Z</time>
      </trkpt>
      <trkpt lat="45.88097" lon="3.70435">
        <ele>659</ele>
        <time>2024-12-08T01:49:03.619Z</time>
      </trkpt>
      <trkpt lat="45.88097" lon="3.70437">
        <ele>659</ele>
        <time>2024-12-08T01:49:04.620Z</time>
      </trkpt>
      <trkpt lat="45.88098" lon="3.70438">
        <ele>659</ele>
        <time>2024-12-08T01:49:05.620Z</time>
      </trkpt>
      <trkpt lat="45.88099" lon="3.7044">
        <ele>660</ele>
        <time>2024-12-08T01:49:06.619Z</time>
      </trkpt>
      <trkpt lat="45.88099" lon="3.70442">
        <ele>660</ele>
        <time>2024-12-08T01:49:07.619Z</time>
      </trkpt>
      <trkpt lat="45.881" lon="3.70443">
        <ele>660</ele>
        <time>2024-12-08T01:49:08.619Z</time>
      </trkpt>
      <trkpt lat="45.88101" lon="3.70445">
        <ele>660</ele>
        <time>2024-12-08T01:49:09.620Z</time>
      </trkpt>
      <trkpt lat="45.88102" lon="3.70447">
        <ele>660</ele>
        <time>2024-12-08T01:49:10.620Z</time>
      </trkpt>
      <trkpt lat="45.88103" lon="3.70448">
        <ele>660</ele>
        <time>2024-12-08T01:49:11.620Z</time>
      </trkpt>
      <trkpt lat="45.88103" lon="3.70449">
        <ele>660</ele>
        <time>2024-12-08T01:49:12.619Z</time>
      </trkpt>
      <trkpt lat="45.88104" lon="3.70451">
        <ele>660</ele>
        <time>2024-12-08T01:49:13.620Z</time>
      </trkpt>
      <trkpt lat="45.88105" lon="3.70452">
        <ele>660</ele>
        <time>2024-12-08T01:49:14.619Z</time>
      </trkpt>
      <trkpt lat="45.88106" lon="3.70454">
        <ele>660</ele>
        <time>2024-12-08T01:49:15.619Z</time>
      </trkpt>
      <trkpt lat="45.88106" lon="3.70455">
        <ele>661</ele>
        <time>2024-12-08T01:49:16.620Z</time>
      </trkpt>
      <trkpt lat="45.88107" lon="3.70457">
        <ele>661</ele>
        <time>2024-12-08T01:49:17.620Z</time>
      </trkpt>
      <trkpt lat="45.88108" lon="3.70459">
        <ele>661</ele>
        <time>2024-12-08T01:49:18.619Z</time>
      </trkpt>
      <trkpt lat="45.88109" lon="3.70461">
        <ele>661</ele>
        <time>2024-12-08T01:49:19.620Z</time>
      </trkpt>
      <trkpt lat="45.8811" lon="3.70463">
        <ele>662</ele>
        <time>2024-12-08T01:49:20.619Z</time>
      </trkpt>
      <trkpt lat="45.88111" lon="3.70465">
        <ele>662</ele>
        <time>2024-12-08T01:49:21.619Z</time>
      </trkpt>
      <trkpt lat="45.88111" lon="3.70467">
        <ele>662</ele>
        <time>2024-12-08T01:49:22.619Z</time>
      </trkpt>
      <trkpt lat="45.88112" lon="3.70469">
        <ele>662</ele>
        <time>2024-12-08T01:49:23.620Z</time>
      </trkpt>
      <trkpt lat="45.88112" lon="3.70471">
        <ele>662</ele>
        <time>2024-12-08T01:49:24.620Z</time>
      </trkpt>
      <trkpt lat="45.88113" lon="3.70473">
        <ele>662</ele>
        <time>2024-12-08T01:49:25.619Z</time>
      </trkpt>
      <trkpt lat="45.88114" lon="3.70476">
        <ele>662</ele>
        <time>2024-12-08T01:49:26.620Z</time>
      </trkpt>
      <trkpt lat="45.88116" lon="3.70477">
        <ele>662</ele>
        <time>2024-12-08T01:49:27.619Z</time>
      </trkpt>
      <trkpt lat="45.88117" lon="3.70479">
        <ele>662</ele>
        <time>2024-12-08T01:49:28.619Z</time>
      </trkpt>
      <trkpt lat="45.88118" lon="3.7048">
        <ele>662</ele>
        <time>2024-12-08T01:49:29.619Z</time>
      </trkpt>
      <trkpt lat="45.88118" lon="3.70482">
        <ele>662</ele>
        <time>2024-12-08T01:49:30.619Z</time>
      </trkpt>
      <trkpt lat="45.88119" lon="3.70484">
        <ele>662</ele>
        <time>2024-12-08T01:49:31.620Z</time>
      </trkpt>
      <trkpt lat="45.88119" lon="3.70486">
        <ele>662</ele>
        <time>2024-12-08T01:49:32.620Z</time>
      </trkpt>
      <trkpt lat="45.8812" lon="3.70488">
        <ele>662</ele>
        <time>2024-12-08T01:49:33.620Z</time>
      </trkpt>
      <trkpt lat="45.8812" lon="3.7049">
        <ele>662</ele>
        <time>2024-12-08T01:49:34.619Z</time>
      </trkpt>
      <trkpt lat="45.8812" lon="3.70491">
        <ele>662</ele>
        <time>2024-12-08T01:49:35.620Z</time>
      </trkpt>
      <trkpt lat="45.8812" lon="3.70493">
        <ele>662</ele>
        <time>2024-12-08T01:49:36.620Z</time>
      </trkpt>
      <trkpt lat="45.88121" lon="3.70495">
        <ele>662</ele>
        <time>2024-12-08T01:49:37.619Z</time>
      </trkpt>
      <trkpt lat="45.88121" lon="3.70497">
        <ele>662</ele>
        <time>2024-12-08T01:49:38.620Z</time>
      </trkpt>
      <trkpt lat="45.88121" lon="3.70499">
        <ele>662</ele>
        <time>2024-12-08T01:49:39.619Z</time>
      </trkpt>
      <trkpt lat="45.88121" lon="3.70501">
        <ele>662</ele>
        <time>2024-12-08T01:49:40.619Z</time>
      </trkpt>
      <trkpt lat="45.88122" lon="3.70503">
        <ele>662</ele>
        <time>2024-12-08T01:49:41.620Z</time>
      </trkpt>
      <trkpt lat="45.88122" lon="3.70506">
        <ele>662</ele>
        <time>2024-12-08T01:49:42.620Z</time>
      </trkpt>
      <trkpt lat="45.88123" lon="3.70508">
        <ele>662</ele>
        <time>2024-12-08T01:49:43.619Z</time>
      </trkpt>
      <trkpt lat="45.88123" lon="3.70511">
        <ele>662</ele>
        <time>2024-12-08T01:49:44.619Z</time>
      </trkpt>
      <trkpt lat="45.88124" lon="3.70512">
        <ele>662</ele>
        <time>2024-12-08T01:49:45.619Z</time>
      </trkpt>
      <trkpt lat="45.88124" lon="3.70514">
        <ele>662</ele>
        <time>2024-12-08T01:49:46.619Z</time>
      </trkpt>
      <trkpt lat="45.88125" lon="3.70517">
        <ele>662</ele>
        <time>2024-12-08T01:49:47.619Z</time>
      </trkpt>
      <trkpt lat="45.88126" lon="3.70519">
        <ele>662</ele>
        <time>2024-12-08T01:49:48.619Z</time>
      </trkpt>
      <trkpt lat="45.88127" lon="3.70521">
        <ele>662</ele>
        <time>2024-12-08T01:49:49.619Z</time>
      </trkpt>
      <trkpt lat="45.88127" lon="3.70522">
        <ele>663</ele>
        <time>2024-12-08T01:49:50.620Z</time>
      </trkpt>
      <trkpt lat="45.88128" lon="3.70524">
        <ele>663</ele>
        <time>2024-12-08T01:49:51.619Z</time>
      </trkpt>
      <trkpt lat="45.88129" lon="3.70526">
        <ele>663</ele>
        <time>2024-12-08T01:49:52.619Z</time>
      </trkpt>
      <trkpt lat="45.88129" lon="3.70528">
        <ele>662</ele>
        <time>2024-12-08T01:49:53.620Z</time>
      </trkpt>
      <trkpt lat="45.8813" lon="3.7053">
        <ele>662</ele>
        <time>2024-12-08T01:49:54.619Z</time>
      </trkpt>
      <trkpt lat="45.88131" lon="3.70531">
        <ele>662</ele>
        <time>2024-12-08T01:49:55.620Z</time>
      </trkpt>
      <trkpt lat="45.88132" lon="3.70534">
        <ele>662</ele>
        <time>2024-12-08T01:49:56.620Z</time>
      </trkpt>
      <trkpt lat="45.88132" lon="3.70535">
        <ele>661</ele>
        <time>2024-12-08T01:49:57.619Z</time>
      </trkpt>
      <trkpt lat="45.88133" lon="3.70538">
        <ele>661</ele>
        <time>2024-12-08T01:49:58.620Z</time>
      </trkpt>
      <trkpt lat="45.88133" lon="3.7054">
        <ele>660</ele>
        <time>2024-12-08T01:49:59.619Z</time>
      </trkpt>
      <trkpt lat="45.88133" lon="3.70541">
        <ele>660</ele>
        <time>2024-12-08T01:50:00.619Z</time>
      </trkpt>
      <trkpt lat="45.88134" lon="3.70543">
        <ele>660</ele>
        <time>2024-12-08T01:50:01.620Z</time>
      </trkpt>
      <trkpt lat="45.88135" lon="3.70545">
        <ele>660</ele>
        <time>2024-12-08T01:50:02.619Z</time>
      </trkpt>
      <trkpt lat="45.88136" lon="3.70547">
        <ele>660</ele>
        <time>2024-12-08T01:50:03.619Z</time>
      </trkpt>
      <trkpt lat="45.88137" lon="3.70549">
        <ele>660</ele>
        <time>2024-12-08T01:50:04.620Z</time>
      </trkpt>
      <trkpt lat="45.88138" lon="3.70551">
        <ele>660</ele>
        <time>2024-12-08T01:50:05.619Z</time>
      </trkpt>
      <trkpt lat="45.88138" lon="3.70553">
        <ele>661</ele>
        <time>2024-12-08T01:50:06.620Z</time>
      </trkpt>
      <trkpt lat="45.88139" lon="3.70555">
        <ele>661</ele>
        <time>2024-12-08T01:50:07.619Z</time>
      </trkpt>
      <trkpt lat="45.88139" lon="3.70557">
        <ele>662</ele>
        <time>2024-12-08T01:50:08.620Z</time>
      </trkpt>
      <trkpt lat="45.8814" lon="3.70559">
        <ele>662</ele>
        <time>2024-12-08T01:50:09.619Z</time>
      </trkpt>
      <trkpt lat="45.8814" lon="3.7056">
        <ele>662</ele>
        <time>2024-12-08T01:50:10.619Z</time>
      </trkpt>
      <trkpt lat="45.8814" lon="3.70563">
        <ele>663</ele>
        <time>2024-12-08T01:50:11.620Z</time>
      </trkpt>
      <trkpt lat="45.8814" lon="3.70564">
        <ele>663</ele>
        <time>2024-12-08T01:50:12.619Z</time>
      </trkpt>
      <trkpt lat="45.88141" lon="3.70567">
        <ele>663</ele>
        <time>2024-12-08T01:50:13.620Z</time>
      </trkpt>
      <trkpt lat="45.88141" lon="3.70569">
        <ele>664</ele>
        <time>2024-12-08T01:50:14.619Z</time>
      </trkpt>
      <trkpt lat="45.88142" lon="3.70571">
        <ele>664</ele>
        <time>2024-12-08T01:50:15.619Z</time>
      </trkpt>
      <trkpt lat="45.88143" lon="3.70573">
        <ele>664</ele>
        <time>2024-12-08T01:50:16.619Z</time>
      </trkpt>
      <trkpt lat="45.88143" lon="3.70575">
        <ele>664</ele>
        <time>2024-12-08T01:50:17.619Z</time>
      </trkpt>
      <trkpt lat="45.88143" lon="3.70577">
        <ele>665</ele>
        <time>2024-12-08T01:50:18.619Z</time>
      </trkpt>
      <trkpt lat="45.88144" lon="3.70579">
        <ele>665</ele>
        <time>2024-12-08T01:50:19.619Z</time>
      </trkpt>
      <trkpt lat="45.88144" lon="3.70581">
        <ele>666</ele>
        <time>2024-12-08T01:50:20.619Z</time>
      </trkpt>
      <trkpt lat="45.88145" lon="3.70583">
        <ele>666</ele>
        <time>2024-12-08T01:50:21.620Z</time>
      </trkpt>
      <trkpt lat="45.88145" lon="3.70585">
        <ele>666</ele>
        <time>2024-12-08T01:50:22.619Z</time>
      </trkpt>
      <trkpt lat="45.88145" lon="3.70587">
        <ele>666</ele>
        <time>2024-12-08T01:50:23.620Z</time>
      </trkpt>
      <trkpt lat="45.88146" lon="3.70589">
        <ele>666</ele>
        <time>2024-12-08T01:50:24.620Z</time>
      </trkpt>
      <trkpt lat="45.88147" lon="3.70592">
        <ele>666</ele>
        <time>2024-12-08T01:50:25.619Z</time>
      </trkpt>
      <trkpt lat="45.88147" lon="3.70593">
        <ele>666</ele>
        <time>2024-12-08T01:50:26.619Z</time>
      </trkpt>
      <trkpt lat="45.88148" lon="3.70595">
        <ele>666</ele>
        <time>2024-12-08T01:50:27.620Z</time>
      </trkpt>
      <trkpt lat="45.88148" lon="3.70597">
        <ele>666</ele>
        <time>2024-12-08T01:50:28.619Z</time>
      </trkpt>
      <trkpt lat="45.88149" lon="3.706">
        <ele>666</ele>
        <time>2024-12-08T01:50:29.620Z</time>
      </trkpt>
      <trkpt lat="45.88149" lon="3.70602">
        <ele>666</ele>
        <time>2024-12-08T01:50:30.620Z</time>
      </trkpt>
      <trkpt lat="45.88149" lon="3.70604">
        <ele>666</ele>
        <time>2024-12-08T01:50:31.619Z</time>
      </trkpt>
      <trkpt lat="45.8815" lon="3.70606">
        <ele>666</ele>
        <time>2024-12-08T01:50:32.620Z</time>
      </trkpt>
      <trkpt lat="45.8815" lon="3.70608">
        <ele>666</ele>
        <time>2024-12-08T01:50:33.619Z</time>
      </trkpt>
      <trkpt lat="45.8815" lon="3.7061">
        <ele>666</ele>
        <time>2024-12-08T01:50:34.619Z</time>
      </trkpt>
      <trkpt lat="45.8815" lon="3.70612">
        <ele>666</ele>
        <time>2024-12-08T01:50:35.619Z</time>
      </trkpt>
      <trkpt lat="45.8815" lon="3.70614">
        <ele>666</ele>
        <time>2024-12-08T01:50:36.620Z</time>
      </trkpt>
      <trkpt lat="45.8815" lon="3.70617">
        <ele>666</ele>
        <time>2024-12-08T01:50:37.620Z</time>
      </trkpt>
      <trkpt lat="45.88151" lon="3.7062">
        <ele>666</ele>
        <time>2024-12-08T01:50:38.619Z</time>
      </trkpt>
      <trkpt lat="45.88151" lon="3.70622">
        <ele>666</ele>
        <time>2024-12-08T01:50:39.619Z</time>
      </trkpt>
      <trkpt lat="45.88151" lon="3.70625">
        <ele>667</ele>
        <time>2024-12-08T01:50:40.619Z</time>
      </trkpt>
      <trkpt lat="45.88152" lon="3.70627">
        <ele>667</ele>
        <time>2024-12-08T01:50:41.620Z</time>
      </trkpt>
      <trkpt lat="45.88152" lon="3.70629">
        <ele>667</ele>
        <time>2024-12-08T01:50:42.620Z</time>
      </trkpt>
      <trkpt lat="45.88153" lon="3.70631">
        <ele>667</ele>
        <time>2024-12-08T01:50:43.619Z</time>
      </trkpt>
      <trkpt lat="45.88153" lon="3.70633">
        <ele>667</ele>
        <time>2024-12-08T01:50:44.620Z</time>
      </trkpt>
      <trkpt lat="45.88153" lon="3.70635">
        <ele>667</ele>
        <time>2024-12-08T01:50:45.619Z</time>
      </trkpt>
      <trkpt lat="45.88153" lon="3.70637">
        <ele>667</ele>
        <time>2024-12-08T01:50:46.619Z</time>
      </trkpt>
      <trkpt lat="45.88154" lon="3.7064">
        <ele>667</ele>
        <time>2024-12-08T01:50:47.619Z</time>
      </trkpt>
      <trkpt lat="45.88154" lon="3.70642">
        <ele>668</ele>
        <time>2024-12-08T01:50:48.620Z</time>
      </trkpt>
      <trkpt lat="45.88154" lon="3.70644">
        <ele>668</ele>
        <time>2024-12-08T01:50:49.619Z</time>
      </trkpt>
      <trkpt lat="45.88155" lon="3.70646">
        <ele>668</ele>
        <time>2024-12-08T01:50:50.620Z</time>
      </trkpt>
      <trkpt lat="45.88155" lon="3.70648">
        <ele>668</ele>
        <time>2024-12-08T01:50:51.619Z</time>
      </trkpt>
      <trkpt lat="45.88155" lon="3.7065">
        <ele>668</ele>
        <time>2024-12-08T01:50:52.620Z</time>
      </trkpt>
      <trkpt lat="45.88156" lon="3.70652">
        <ele>668</ele>
        <time>2024-12-08T01:50:53.619Z</time>
      </trkpt>
      <trkpt lat="45.88156" lon="3.70654">
        <ele>668</ele>
        <time>2024-12-08T01:50:54.619Z</time>
      </trkpt>
      <trkpt lat="45.88156" lon="3.70656">
        <ele>668</ele>
        <time>2024-12-08T01:50:55.619Z</time>
      </trkpt>
      <trkpt lat="45.88157" lon="3.70659">
        <ele>668</ele>
        <time>2024-12-08T01:50:56.619Z</time>
      </trkpt>
      <trkpt lat="45.88157" lon="3.70661">
        <ele>668</ele>
        <time>2024-12-08T01:50:57.619Z</time>
      </trkpt>
      <trkpt lat="45.88157" lon="3.70664">
        <ele>668</ele>
        <time>2024-12-08T01:50:58.619Z</time>
      </trkpt>
      <trkpt lat="45.88158" lon="3.70666">
        <ele>668</ele>
        <time>2024-12-08T01:50:59.620Z</time>
      </trkpt>
      <trkpt lat="45.88158" lon="3.70668">
        <ele>668</ele>
        <time>2024-12-08T01:51:00.619Z</time>
      </trkpt>
      <trkpt lat="45.88159" lon="3.7067">
        <ele>667</ele>
        <time>2024-12-08T01:51:01.619Z</time>
      </trkpt>
      <trkpt lat="45.8816" lon="3.70672">
        <ele>667</ele>
        <time>2024-12-08T01:51:02.620Z</time>
      </trkpt>
      <trkpt lat="45.8816" lon="3.70674">
        <ele>668</ele>
        <time>2024-12-08T01:51:03.620Z</time>
      </trkpt>
      <trkpt lat="45.88161" lon="3.70676">
        <ele>668</ele>
        <time>2024-12-08T01:51:04.619Z</time>
      </trkpt>
      <trkpt lat="45.88161" lon="3.70678">
        <ele>668</ele>
        <time>2024-12-08T01:51:05.620Z</time>
      </trkpt>
      <trkpt lat="45.88162" lon="3.7068">
        <ele>668</ele>
        <time>2024-12-08T01:51:06.620Z</time>
      </trkpt>
      <trkpt lat="45.88162" lon="3.70682">
        <ele>669</ele>
        <time>2024-12-08T01:51:07.620Z</time>
      </trkpt>
      <trkpt lat="45.88162" lon="3.70684">
        <ele>669</ele>
        <time>2024-12-08T01:51:08.620Z</time>
      </trkpt>
      <trkpt lat="45.88163" lon="3.70685">
        <ele>669</ele>
        <time>2024-12-08T01:51:09.619Z</time>
      </trkpt>
      <trkpt lat="45.88163" lon="3.70688">
        <ele>669</ele>
        <time>2024-12-08T01:51:10.619Z</time>
      </trkpt>
      <trkpt lat="45.88163" lon="3.7069">
        <ele>669</ele>
        <time>2024-12-08T01:51:11.620Z</time>
      </trkpt>
      <trkpt lat="45.88164" lon="3.70692">
        <ele>669</ele>
        <time>2024-12-08T01:51:12.620Z</time>
      </trkpt>
      <trkpt lat="45.88164" lon="3.70693">
        <ele>669</ele>
        <time>2024-12-08T01:51:13.619Z</time>
      </trkpt>
      <trkpt lat="45.88164" lon="3.70695">
        <ele>669</ele>
        <time>2024-12-08T01:51:14.620Z</time>
      </trkpt>
      <trkpt lat="45.88165" lon="3.70697">
        <ele>669</ele>
        <time>2024-12-08T01:51:15.620Z</time>
      </trkpt>
      <trkpt lat="45.88165" lon="3.70699">
        <ele>669</ele>
        <time>2024-12-08T01:51:16.620Z</time>
      </trkpt>
      <trkpt lat="45.88165" lon="3.70701">
        <ele>669</ele>
        <time>2024-12-08T01:51:17.619Z</time>
      </trkpt>
      <trkpt lat="45.88166" lon="3.70703">
        <ele>669</ele>
        <time>2024-12-08T01:51:18.620Z</time>
      </trkpt>
      <trkpt lat="45.88166" lon="3.70705">
        <ele>669</ele>
        <time>2024-12-08T01:51:19.619Z</time>
      </trkpt>
      <trkpt lat="45.88167" lon="3.70707">
        <ele>669</ele>
        <time>2024-12-08T01:51:20.619Z</time>
      </trkpt>
      <trkpt lat="45.88167" lon="3.70708">
        <ele>669</ele>
        <time>2024-12-08T01:51:21.619Z</time>
      </trkpt>
      <trkpt lat="45.88167" lon="3.7071">
        <ele>669</ele>
        <time>2024-12-08T01:51:22.620Z</time>
      </trkpt>
      <trkpt lat="45.88167" lon="3.70713">
        <ele>669</ele>
        <time>2024-12-08T01:51:23.619Z</time>
      </trkpt>
      <trkpt lat="45.88168" lon="3.70715">
        <ele>669</ele>
        <time>2024-12-08T01:51:24.620Z</time>
      </trkpt>
      <trkpt lat="45.88168" lon="3.70717">
        <ele>669</ele>
        <time>2024-12-08T01:51:25.619Z</time>
      </trkpt>
      <trkpt lat="45.88169" lon="3.70719">
        <ele>670</ele>
        <time>2024-12-08T01:51:26.619Z</time>
      </trkpt>
      <trkpt lat="45.88169" lon="3.70722">
        <ele>670</ele>
        <time>2024-12-08T01:51:27.619Z</time>
      </trkpt>
      <trkpt lat="45.8817" lon="3.70724">
        <ele>670</ele>
        <time>2024-12-08T01:51:28.620Z</time>
      </trkpt>
      <trkpt lat="45.8817" lon="3.70727">
        <ele>670</ele>
        <time>2024-12-08T01:51:29.619Z</time>
      </trkpt>
      <trkpt lat="45.8817" lon="3.70729">
        <ele>670</ele>
        <time>2024-12-08T01:51:30.619Z</time>
      </trkpt>
      <trkpt lat="45.8817" lon="3.70731">
        <ele>670</ele>
        <time>2024-12-08T01:51:31.620Z</time>
      </trkpt>
      <trkpt lat="45.8817" lon="3.70733">
        <ele>670</ele>
        <time>2024-12-08T01:51:32.619Z</time>
      </trkpt>
      <trkpt lat="45.88171" lon="3.70736">
        <ele>670</ele>
        <time>2024-12-08T01:51:33.620Z</time>
      </trkpt>
      <trkpt lat="45.88171" lon="3.70738">
        <ele>670</ele>
        <time>2024-12-08T01:51:34.619Z</time>
      </trkpt>
      <trkpt lat="45.88171" lon="3.7074">
        <ele>670</ele>
        <time>2024-12-08T01:51:35.619Z</time>
      </trkpt>
      <trkpt lat="45.88171" lon="3.70743">
        <ele>670</ele>
        <time>2024-12-08T01:51:36.620Z</time>
      </trkpt>
      <trkpt lat="45.88171" lon="3.70745">
        <ele>670</ele>
        <time>2024-12-08T01:51:37.619Z</time>
      </trkpt>
      <trkpt lat="45.88171" lon="3.70748">
        <ele>670</ele>
        <time>2024-12-08T01:51:38.620Z</time>
      </trkpt>
      <trkpt lat="45.88171" lon="3.7075">
        <ele>670</ele>
        <time>2024-12-08T01:51:39.620Z</time>
      </trkpt>
      <trkpt lat="45.88172" lon="3.70752">
        <ele>670</ele>
        <time>2024-12-08T01:51:40.620Z</time>
      </trkpt>
      <trkpt lat="45.88172" lon="3.70755">
        <ele>670</ele>
        <time>2024-12-08T01:51:41.619Z</time>
      </trkpt>
      <trkpt lat="45.88172" lon="3.70757">
        <ele>670</ele>
        <time>2024-12-08T01:51:42.619Z</time>
      </trkpt>
      <trkpt lat="45.88172" lon="3.70759">
        <ele>670</ele>
        <time>2024-12-08T01:51:43.619Z</time>
      </trkpt>
      <trkpt lat="45.88172" lon="3.70761">
        <ele>670</ele>
        <time>2024-12-08T01:51:44.619Z</time>
      </trkpt>
      <trkpt lat="45.88172" lon="3.70763">
        <ele>670</ele>
        <time>2024-12-08T01:51:45.620Z</time>
      </trkpt>
      <trkpt lat="45.88173" lon="3.70765">
        <ele>670</ele>
        <time>2024-12-08T01:51:46.619Z</time>
      </trkpt>
      <trkpt lat="45.88173" lon="3.70767">
        <ele>670</ele>
        <time>2024-12-08T01:51:47.620Z</time>
      </trkpt>
      <trkpt lat="45.88173" lon="3.70769">
        <ele>670</ele>
        <time>2024-12-08T01:51:48.620Z</time>
      </trkpt>
      <trkpt lat="45.88173" lon="3.70771">
        <ele>670</ele>
        <time>2024-12-08T01:51:49.619Z</time>
      </trkpt>
      <trkpt lat="45.88173" lon="3.70773">
        <ele>671</ele>
        <time>2024-12-08T01:51:50.619Z</time>
      </trkpt>
      <trkpt lat="45.88173" lon="3.70775">
        <ele>671</ele>
        <time>2024-12-08T01:51:51.619Z</time>
      </trkpt>
      <trkpt lat="45.88173" lon="3.70777">
        <ele>671</ele>
        <time>2024-12-08T01:51:52.619Z</time>
      </trkpt>
      <trkpt lat="45.88173" lon="3.7078">
        <ele>672</ele>
        <time>2024-12-08T01:51:53.619Z</time>
      </trkpt>
      <trkpt lat="45.88173" lon="3.70781">
        <ele>672</ele>
        <time>2024-12-08T01:51:54.620Z</time>
      </trkpt>
      <trkpt lat="45.88173" lon="3.70783">
        <ele>673</ele>
        <time>2024-12-08T01:51:55.620Z</time>
      </trkpt>
      <trkpt lat="45.88174" lon="3.70786">
        <ele>673</ele>
        <time>2024-12-08T01:51:56.619Z</time>
      </trkpt>
      <trkpt lat="45.88175" lon="3.70788">
        <ele>673</ele>
        <time>2024-12-08T01:51:57.620Z</time>
      </trkpt>
      <trkpt lat="45.88175" lon="3.7079">
        <ele>673</ele>
        <time>2024-12-08T01:51:58.619Z</time>
      </trkpt>
      <trkpt lat="45.88176" lon="3.70793">
        <ele>673</ele>
        <time>2024-12-08T01:51:59.619Z</time>
      </trkpt>
      <trkpt lat="45.88177" lon="3.70795">
        <ele>674</ele>
        <time>2024-12-08T01:52:00.620Z</time>
      </trkpt>
      <trkpt lat="45.88177" lon="3.70796">
        <ele>674</ele>
        <time>2024-12-08T01:52:01.619Z</time>
      </trkpt>
      <trkpt lat="45.88177" lon="3.70799">
        <ele>674</ele>
        <time>2024-12-08T01:52:02.619Z</time>
      </trkpt>
      <trkpt lat="45.88177" lon="3.70801">
        <ele>674</ele>
        <time>2024-12-08T01:52:03.619Z</time>
      </trkpt>
      <trkpt lat="45.88177" lon="3.70803">
        <ele>674</ele>
        <time>2024-12-08T01:52:04.620Z</time>
      </trkpt>
      <trkpt lat="45.88178" lon="3.70806">
        <ele>674</ele>
        <time>2024-12-08T01:52:05.619Z</time>
      </trkpt>
      <trkpt lat="45.88178" lon="3.70808">
        <ele>674</ele>
        <time>2024-12-08T01:52:06.619Z</time>
      </trkpt>
      <trkpt lat="45.88178" lon="3.70811">
        <ele>674</ele>
        <time>2024-12-08T01:52:07.619Z</time>
      </trkpt>
      <trkpt lat="45.88179" lon="3.70813">
        <ele>675</ele>
        <time>2024-12-08T01:52:08.619Z</time>
      </trkpt>
      <trkpt lat="45.88179" lon="3.70815">
        <ele>675</ele>
        <time>2024-12-08T01:52:09.620Z</time>
      </trkpt>
      <trkpt lat="45.88179" lon="3.70817">
        <ele>675</ele>
        <time>2024-12-08T01:52:10.619Z</time>
      </trkpt>
      <trkpt lat="45.8818" lon="3.70819">
        <ele>675</ele>
        <time>2024-12-08T01:52:11.620Z</time>
      </trkpt>
      <trkpt lat="45.8818" lon="3.70821">
        <ele>675</ele>
        <time>2024-12-08T01:52:12.619Z</time>
      </trkpt>
      <trkpt lat="45.8818" lon="3.70823">
        <ele>676</ele>
        <time>2024-12-08T01:52:13.620Z</time>
      </trkpt>
      <trkpt lat="45.8818" lon="3.70825">
        <ele>676</ele>
        <time>2024-12-08T01:52:14.619Z</time>
      </trkpt>
      <trkpt lat="45.88181" lon="3.70827">
        <ele>676</ele>
        <time>2024-12-08T01:52:15.619Z</time>
      </trkpt>
      <trkpt lat="45.88181" lon="3.70829">
        <ele>676</ele>
        <time>2024-12-08T01:52:16.619Z</time>
      </trkpt>
      <trkpt lat="45.88182" lon="3.70831">
        <ele>676</ele>
        <time>2024-12-08T01:52:17.619Z</time>
      </trkpt>
      <trkpt lat="45.88182" lon="3.70833">
        <ele>676</ele>
        <time>2024-12-08T01:52:18.620Z</time>
      </trkpt>
      <trkpt lat="45.88182" lon="3.70835">
        <ele>676</ele>
        <time>2024-12-08T01:52:19.620Z</time>
      </trkpt>
      <trkpt lat="45.88182" lon="3.70837">
        <ele>676</ele>
        <time>2024-12-08T01:52:20.619Z</time>
      </trkpt>
      <trkpt lat="45.88182" lon="3.70839">
        <ele>675</ele>
        <time>2024-12-08T01:52:21.620Z</time>
      </trkpt>
      <trkpt lat="45.88182" lon="3.70841">
        <ele>674</ele>
        <time>2024-12-08T01:52:22.619Z</time>
      </trkpt>
      <trkpt lat="45.88183" lon="3.70843">
        <ele>674</ele>
        <time>2024-12-08T01:52:23.620Z</time>
      </trkpt>
      <trkpt lat="45.88183" lon="3.70845">
        <ele>674</ele>
        <time>2024-12-08T01:52:24.620Z</time>
      </trkpt>
      <trkpt lat="45.88183" lon="3.70847">
        <ele>674</ele>
        <time>2024-12-08T01:52:25.619Z</time>
      </trkpt>
      <trkpt lat="45.88184" lon="3.70849">
        <ele>674</ele>
        <time>2024-12-08T01:52:26.619Z</time>
      </trkpt>
      <trkpt lat="45.88184" lon="3.70851">
        <ele>674</ele>
        <time>2024-12-08T01:52:27.619Z</time>
      </trkpt>
      <trkpt lat="45.88184" lon="3.70853">
        <ele>675</ele>
        <time>2024-12-08T01:52:28.619Z</time>
      </trkpt>
      <trkpt lat="45.88184" lon="3.70856">
        <ele>675</ele>
        <time>2024-12-08T01:52:29.619Z</time>
      </trkpt>
      <trkpt lat="45.88185" lon="3.70859">
        <ele>675</ele>
        <time>2024-12-08T01:52:30.619Z</time>
      </trkpt>
      <trkpt lat="45.88185" lon="3.70861">
        <ele>675</ele>
        <time>2024-12-08T01:52:31.619Z</time>
      </trkpt>
      <trkpt lat="45.88186" lon="3.70863">
        <ele>676</ele>
        <time>2024-12-08T01:52:32.620Z</time>
      </trkpt>
      <trkpt lat="45.88186" lon="3.70866">
        <ele>676</ele>
        <time>2024-12-08T01:52:33.620Z</time>
      </trkpt>
      <trkpt lat="45.88186" lon="3.70867">
        <ele>676</ele>
        <time>2024-12-08T01:52:34.619Z</time>
      </trkpt>
      <trkpt lat="45.88187" lon="3.7087">
        <ele>676</ele>
        <time>2024-12-08T01:52:35.620Z</time>
      </trkpt>
      <trkpt lat="45.88187" lon="3.70872">
        <ele>676</ele>
        <time>2024-12-08T01:52:36.619Z</time>
      </trkpt>
      <trkpt lat="45.88187" lon="3.70874">
        <ele>676</ele>
        <time>2024-12-08T01:52:37.620Z</time>
      </trkpt>
      <trkpt lat="45.88188" lon="3.70876">
        <ele>677</ele>
        <time>2024-12-08T01:52:38.619Z</time>
      </trkpt>
      <trkpt lat="45.88188" lon="3.70878">
        <ele>677</ele>
        <time>2024-12-08T01:52:39.620Z</time>
      </trkpt>
      <trkpt lat="45.88188" lon="3.7088">
        <ele>677</ele>
        <time>2024-12-08T01:52:40.619Z</time>
      </trkpt>
      <trkpt lat="45.88188" lon="3.70883">
        <ele>678</ele>
        <time>2024-12-08T01:52:41.620Z</time>
      </trkpt>
      <trkpt lat="45.88189" lon="3.70885">
        <ele>678</ele>
        <time>2024-12-08T01:52:42.619Z</time>
      </trkpt>
      <trkpt lat="45.88189" lon="3.70887">
        <ele>678</ele>
        <time>2024-12-08T01:52:43.619Z</time>
      </trkpt>
      <trkpt lat="45.8819" lon="3.70889">
        <ele>678</ele>
        <time>2024-12-08T01:52:44.619Z</time>
      </trkpt>
      <trkpt lat="45.8819" lon="3.70891">
        <ele>678</ele>
        <time>2024-12-08T01:52:45.619Z</time>
      </trkpt>
      <trkpt lat="45.8819" lon="3.70893">
        <ele>678</ele>
        <time>2024-12-08T01:52:46.620Z</time>
      </trkpt>
      <trkpt lat="45.8819" lon="3.70896">
        <ele>678</ele>
        <time>2024-12-08T01:52:47.619Z</time>
      </trkpt>
      <trkpt lat="45.8819" lon="3.70898">
        <ele>678</ele>
        <time>2024-12-08T01:52:48.619Z</time>
      </trkpt>
      <trkpt lat="45.88191" lon="3.709">
        <ele>678</ele>
        <time>2024-12-08T01:52:49.619Z</time>
      </trkpt>
      <trkpt lat="45.88191" lon="3.70902">
        <ele>678</ele>
        <time>2024-12-08T01:52:50.619Z</time>
      </trkpt>
      <trkpt lat="45.88191" lon="3.70905">
        <ele>678</ele>
        <time>2024-12-08T01:52:51.620Z</time>
      </trkpt>
      <trkpt lat="45.88192" lon="3.70907">
        <ele>679</ele>
        <time>2024-12-08T01:52:52.620Z</time>
      </trkpt>
      <trkpt lat="45.88192" lon="3.70909">
        <ele>679</ele>
        <time>2024-12-08T01:52:53.620Z</time>
      </trkpt>
      <trkpt lat="45.88192" lon="3.70911">
        <ele>679</ele>
        <time>2024-12-08T01:52:54.619Z</time>
      </trkpt>
      <trkpt lat="45.88192" lon="3.70913">
        <ele>680</ele>
        <time>2024-12-08T01:52:55.620Z</time>
      </trkpt>
      <trkpt lat="45.88193" lon="3.70915">
        <ele>680</ele>
        <time>2024-12-08T01:52:56.620Z</time>
      </trkpt>
      <trkpt lat="45.88193" lon="3.70917">
        <ele>680</ele>
        <time>2024-12-08T01:52:57.620Z</time>
      </trkpt>
      <trkpt lat="45.88193" lon="3.7092">
        <ele>680</ele>
        <time>2024-12-08T01:52:58.619Z</time>
      </trkpt>
      <trkpt lat="45.88193" lon="3.70921">
        <ele>680</ele>
        <time>2024-12-08T01:52:59.619Z</time>
      </trkpt>
      <trkpt lat="45.88193" lon="3.70924">
        <ele>680</ele>
        <time>2024-12-08T01:53:00.620Z</time>
      </trkpt>
      <trkpt lat="45.88194" lon="3.70926">
        <ele>681</ele>
        <time>2024-12-08T01:53:01.620Z</time>
      </trkpt>
      <trkpt lat="45.88194" lon="3.70928">
        <ele>681</ele>
        <time>2024-12-08T01:53:02.620Z</time>
      </trkpt>
      <trkpt lat="45.88194" lon="3.7093">
        <ele>681</ele>
        <time>2024-12-08T01:53:03.619Z</time>
      </trkpt>
      <trkpt lat="45.88194" lon="3.70932">
        <ele>682</ele>
        <time>2024-12-08T01:53:04.620Z</time>
      </trkpt>
      <trkpt lat="45.88194" lon="3.70934">
        <ele>682</ele>
        <time>2024-12-08T01:53:05.619Z</time>
      </trkpt>
      <trkpt lat="45.88194" lon="3.70937">
        <ele>682</ele>
        <time>2024-12-08T01:53:06.620Z</time>
      </trkpt>
      <trkpt lat="45.88194" lon="3.70939">
        <ele>682</ele>
        <time>2024-12-08T01:53:07.620Z</time>
      </trkpt>
      <trkpt lat="45.88195" lon="3.7094">
        <ele>682</ele>
        <time>2024-12-08T01:53:08.619Z</time>
      </trkpt>
      <trkpt lat="45.88195" lon="3.70943">
        <ele>682</ele>
        <time>2024-12-08T01:53:09.619Z</time>
      </trkpt>
      <trkpt lat="45.88196" lon="3.70945">
        <ele>682</ele>
        <time>2024-12-08T01:53:10.620Z</time>
      </trkpt>
      <trkpt lat="45.88196" lon="3.70947">
        <ele>682</ele>
        <time>2024-12-08T01:53:11.619Z</time>
      </trkpt>
      <trkpt lat="45.88196" lon="3.7095">
        <ele>682</ele>
        <time>2024-12-08T01:53:12.620Z</time>
      </trkpt>
      <trkpt lat="45.88196" lon="3.70952">
        <ele>682</ele>
        <time>2024-12-08T01:53:13.619Z</time>
      </trkpt>
      <trkpt lat="45.88196" lon="3.70954">
        <ele>682</ele>
        <time>2024-12-08T01:53:14.619Z</time>
      </trkpt>
      <trkpt lat="45.88197" lon="3.70957">
        <ele>682</ele>
        <time>2024-12-08T01:53:15.619Z</time>
      </trkpt>
      <trkpt lat="45.88197" lon="3.70958">
        <ele>682</ele>
        <time>2024-12-08T01:53:16.619Z</time>
      </trkpt>
      <trkpt lat="45.88197" lon="3.7096">
        <ele>682</ele>
        <time>2024-12-08T01:53:17.619Z</time>
      </trkpt>
      <trkpt lat="45.88197" lon="3.70962">
        <ele>681</ele>
        <time>2024-12-08T01:53:18.619Z</time>
      </trkpt>
      <trkpt lat="45.88197" lon="3.70964">
        <ele>681</ele>
        <time>2024-12-08T01:53:19.619Z</time>
      </trkpt>
      <trkpt lat="45.88198" lon="3.70965">
        <ele>681</ele>
        <time>2024-12-08T01:53:20.619Z</time>
      </trkpt>
      <trkpt lat="45.88198" lon="3.70967">
        <ele>681</ele>
        <time>2024-12-08T01:53:21.620Z</time>
      </trkpt>
      <trkpt lat="45.88198" lon="3.70969">
        <ele>681</ele>
        <time>2024-12-08T01:53:22.620Z</time>
      </trkpt>
      <trkpt lat="45.88198" lon="3.70971">
        <ele>681</ele>
        <time>2024-12-08T01:53:23.619Z</time>
      </trkpt>
      <trkpt lat="45.88198" lon="3.70973">
        <ele>681</ele>
        <time>2024-12-08T01:53:24.619Z</time>
      </trkpt>
      <trkpt lat="45.88198" lon="3.70975">
        <ele>681</ele>
        <time>2024-12-08T01:53:25.620Z</time>
      </trkpt>
      <trkpt lat="45.88198" lon="3.70977">
        <ele>681</ele>
        <time>2024-12-08T01:53:26.620Z</time>
      </trkpt>
      <trkpt lat="45.88198" lon="3.70979">
        <ele>681</ele>
        <time>2024-12-08T01:53:27.620Z</time>
      </trkpt>
      <trkpt lat="45.88199" lon="3.70981">
        <ele>681</ele>
        <time>2024-12-08T01:53:28.620Z</time>
      </trkpt>
      <trkpt lat="45.88199" lon="3.70983">
        <ele>682</ele>
        <time>2024-12-08T01:53:29.619Z</time>
      </trkpt>
      <trkpt lat="45.882" lon="3.70985">
        <ele>682</ele>
        <time>2024-12-08T01:53:30.620Z</time>
      </trkpt>
      <trkpt lat="45.882" lon="3.70987">
        <ele>682</ele>
        <time>2024-12-08T01:53:31.619Z</time>
      </trkpt>
      <trkpt lat="45.882" lon="3.70989">
        <ele>683</ele>
        <time>2024-12-08T01:53:32.619Z</time>
      </trkpt>
      <trkpt lat="45.88201" lon="3.70991">
        <ele>683</ele>
        <time>2024-12-08T01:53:33.619Z</time>
      </trkpt>
      <trkpt lat="45.88201" lon="3.70993">
        <ele>684</ele>
        <time>2024-12-08T01:53:34.620Z</time>
      </trkpt>
      <trkpt lat="45.88201" lon="3.70995">
        <ele>684</ele>
        <time>2024-12-08T01:53:35.620Z</time>
      </trkpt>
      <trkpt lat="45.88201" lon="3.70997">
        <ele>685</ele>
        <time>2024-12-08T01:53:36.619Z</time>
      </trkpt>
      <trkpt lat="45.88201" lon="3.71">
        <ele>685</ele>
        <time>2024-12-08T01:53:37.620Z</time>
      </trkpt>
      <trkpt lat="45.88201" lon="3.71002">
        <ele>685</ele>
        <time>2024-12-08T01:53:38.620Z</time>
      </trkpt>
      <trkpt lat="45.88201" lon="3.71004">
        <ele>685</ele>
        <time>2024-12-08T01:53:39.619Z</time>
      </trkpt>
      <trkpt lat="45.88201" lon="3.71006">
        <ele>685</ele>
        <time>2024-12-08T01:53:40.619Z</time>
      </trkpt>
      <trkpt lat="45.88202" lon="3.71007">
        <ele>685</ele>
        <time>2024-12-08T01:53:41.620Z</time>
      </trkpt>
      <trkpt lat="45.88202" lon="3.71009">
        <ele>684</ele>
        <time>2024-12-08T01:53:42.620Z</time>
      </trkpt>
      <trkpt lat="45.88202" lon="3.71011">
        <ele>684</ele>
        <time>2024-12-08T01:53:43.620Z</time>
      </trkpt>
      <trkpt lat="45.88203" lon="3.71014">
        <ele>684</ele>
        <time>2024-12-08T01:53:44.619Z</time>
      </trkpt>
      <trkpt lat="45.88203" lon="3.71016">
        <ele>684</ele>
        <time>2024-12-08T01:53:45.620Z</time>
      </trkpt>
      <trkpt lat="45.88203" lon="3.71018">
        <ele>684</ele>
        <time>2024-12-08T01:53:46.619Z</time>
      </trkpt>
      <trkpt lat="45.88204" lon="3.7102">
        <ele>684</ele>
        <time>2024-12-08T01:53:47.619Z</time>
      </trkpt>
      <trkpt lat="45.88204" lon="3.71022">
        <ele>684</ele>
        <time>2024-12-08T01:53:48.619Z</time>
      </trkpt>
      <trkpt lat="45.88204" lon="3.71024">
        <ele>684</ele>
        <time>2024-12-08T01:53:49.619Z</time>
      </trkpt>
      <trkpt lat="45.88204" lon="3.71026">
        <ele>684</ele>
        <time>2024-12-08T01:53:50.619Z</time>
      </trkpt>
      <trkpt lat="45.88204" lon="3.71028">
        <ele>684</ele>
        <time>2024-12-08T01:53:51.620Z</time>
      </trkpt>
      <trkpt lat="45.88204" lon="3.71029">
        <ele>684</ele>
        <time>2024-12-08T01:53:52.620Z</time>
      </trkpt>
      <trkpt lat="45.88205" lon="3.71031">
        <ele>685</ele>
        <time>2024-12-08T01:53:53.620Z</time>
      </trkpt>
      <trkpt lat="45.88205" lon="3.71034">
        <ele>685</ele>
        <time>2024-12-08T01:53:54.619Z</time>
      </trkpt>
      <trkpt lat="45.88206" lon="3.71036">
        <ele>685</ele>
        <time>2024-12-08T01:53:55.619Z</time>
      </trkpt>
      <trkpt lat="45.88206" lon="3.71038">
        <ele>685</ele>
        <time>2024-12-08T01:53:56.620Z</time>
      </trkpt>
      <trkpt lat="45.88207" lon="3.71041">
        <ele>686</ele>
        <time>2024-12-08T01:53:57.620Z</time>
      </trkpt>
      <trkpt lat="45.88208" lon="3.71043">
        <ele>686</ele>
        <time>2024-12-08T01:53:58.620Z</time>
      </trkpt>
      <trkpt lat="45.88208" lon="3.71046">
        <ele>686</ele>
        <time>2024-12-08T01:53:59.619Z</time>
      </trkpt>
      <trkpt lat="45.88208" lon="3.71049">
        <ele>686</ele>
        <time>2024-12-08T01:54:00.620Z</time>
      </trkpt>
      <trkpt lat="45.88208" lon="3.71051">
        <ele>686</ele>
        <time>2024-12-08T01:54:01.619Z</time>
      </trkpt>
      <trkpt lat="45.88209" lon="3.71052">
        <ele>686</ele>
        <time>2024-12-08T01:54:02.619Z</time>
      </trkpt>
      <trkpt lat="45.88209" lon="3.71053">
        <ele>686</ele>
        <time>2024-12-08T01:54:03.620Z</time>
      </trkpt>
      <trkpt lat="45.88209" lon="3.71056">
        <ele>686</ele>
        <time>2024-12-08T01:54:04.619Z</time>
      </trkpt>
      <trkpt lat="45.88209" lon="3.71057">
        <ele>686</ele>
        <time>2024-12-08T01:54:05.620Z</time>
      </trkpt>
      <trkpt lat="45.88209" lon="3.71059">
        <ele>686</ele>
        <time>2024-12-08T01:54:06.620Z</time>
      </trkpt>
      <trkpt lat="45.88209" lon="3.71061">
        <ele>686</ele>
        <time>2024-12-08T01:54:07.619Z</time>
      </trkpt>
      <trkpt lat="45.8821" lon="3.71063">
        <ele>686</ele>
        <time>2024-12-08T01:54:08.619Z</time>
      </trkpt>
      <trkpt lat="45.8821" lon="3.71065">
        <ele>686</ele>
        <time>2024-12-08T01:54:09.620Z</time>
      </trkpt>
      <trkpt lat="45.8821" lon="3.71067">
        <ele>686</ele>
        <time>2024-12-08T01:54:10.620Z</time>
      </trkpt>
      <trkpt lat="45.8821" lon="3.71069">
        <ele>686</ele>
        <time>2024-12-08T01:54:11.619Z</time>
      </trkpt>
      <trkpt lat="45.8821" lon="3.71071">
        <ele>686</ele>
        <time>2024-12-08T01:54:12.620Z</time>
      </trkpt>
      <trkpt lat="45.8821" lon="3.71073">
        <ele>686</ele>
        <time>2024-12-08T01:54:13.619Z</time>
      </trkpt>
      <trkpt lat="45.8821" lon="3.71075">
        <ele>686</ele>
        <time>2024-12-08T01:54:14.619Z</time>
      </trkpt>
      <trkpt lat="45.8821" lon="3.71077">
        <ele>686</ele>
        <time>2024-12-08T01:54:15.619Z</time>
      </trkpt>
      <trkpt lat="45.88211" lon="3.7108">
        <ele>687</ele>
        <time>2024-12-08T01:54:16.619Z</time>
      </trkpt>
      <trkpt lat="45.88212" lon="3.71082">
        <ele>687</ele>
        <time>2024-12-08T01:54:17.619Z</time>
      </trkpt>
      <trkpt lat="45.88212" lon="3.71084">
        <ele>687</ele>
        <time>2024-12-08T01:54:18.619Z</time>
      </trkpt>
      <trkpt lat="45.88213" lon="3.71085">
        <ele>688</ele>
        <time>2024-12-08T01:54:19.619Z</time>
      </trkpt>
      <trkpt lat="45.88214" lon="3.71087">
        <ele>688</ele>
        <time>2024-12-08T01:54:20.619Z</time>
      </trkpt>
      <trkpt lat="45.88215" lon="3.7109">
        <ele>688</ele>
        <time>2024-12-08T01:54:21.619Z</time>
      </trkpt>
      <trkpt lat="45.88215" lon="3.71092">
        <ele>688</ele>
        <time>2024-12-08T01:54:22.620Z</time>
      </trkpt>
      <trkpt lat="45.88215" lon="3.71094">
        <ele>688</ele>
        <time>2024-12-08T01:54:23.619Z</time>
      </trkpt>
      <trkpt lat="45.88215" lon="3.71096">
        <ele>688</ele>
        <time>2024-12-08T01:54:24.619Z</time>
      </trkpt>
      <trkpt lat="45.88215" lon="3.71098">
        <ele>688</ele>
        <time>2024-12-08T01:54:25.620Z</time>
      </trkpt>
      <trkpt lat="45.88216" lon="3.71101">
        <ele>689</ele>
        <time>2024-12-08T01:54:26.619Z</time>
      </trkpt>
      <trkpt lat="45.88216" lon="3.71103">
        <ele>689</ele>
        <time>2024-12-08T01:54:27.620Z</time>
      </trkpt>
      <trkpt lat="45.88216" lon="3.71105">
        <ele>690</ele>
        <time>2024-12-08T01:54:28.620Z</time>
      </trkpt>
      <trkpt lat="45.88216" lon="3.71107">
        <ele>690</ele>
        <time>2024-12-08T01:54:29.619Z</time>
      </trkpt>
      <trkpt lat="45.88217" lon="3.71108">
        <ele>690</ele>
        <time>2024-12-08T01:54:30.620Z</time>
      </trkpt>
      <trkpt lat="45.88217" lon="3.7111">
        <ele>690</ele>
        <time>2024-12-08T01:54:31.619Z</time>
      </trkpt>
      <trkpt lat="45.88217" lon="3.71112">
        <ele>690</ele>
        <time>2024-12-08T01:54:32.619Z</time>
      </trkpt>
      <trkpt lat="45.88217" lon="3.71114">
        <ele>690</ele>
        <time>2024-12-08T01:54:33.619Z</time>
      </trkpt>
      <trkpt lat="45.88217" lon="3.71116">
        <ele>690</ele>
        <time>2024-12-08T01:54:34.619Z</time>
      </trkpt>
      <trkpt lat="45.88218" lon="3.71118">
        <ele>690</ele>
        <time>2024-12-08T01:54:35.619Z</time>
      </trkpt>
      <trkpt lat="45.88218" lon="3.71121">
        <ele>690</ele>
        <time>2024-12-08T01:54:36.620Z</time>
      </trkpt>
      <trkpt lat="45.88218" lon="3.71123">
        <ele>691</ele>
        <time>2024-12-08T01:54:37.620Z</time>
      </trkpt>
      <trkpt lat="45.88218" lon="3.71124">
        <ele>691</ele>
        <time>2024-12-08T01:54:38.620Z</time>
      </trkpt>
      <trkpt lat="45.88219" lon="3.71127">
        <ele>691</ele>
        <time>2024-12-08T01:54:39.620Z</time>
      </trkpt>
      <trkpt lat="45.88219" lon="3.71129">
        <ele>691</ele>
        <time>2024-12-08T01:54:40.619Z</time>
      </trkpt>
      <trkpt lat="45.88219" lon="3.71131">
        <ele>691</ele>
        <time>2024-12-08T01:54:41.619Z</time>
      </trkpt>
      <trkpt lat="45.88219" lon="3.71133">
        <ele>691</ele>
        <time>2024-12-08T01:54:42.620Z</time>
      </trkpt>
      <trkpt lat="45.88219" lon="3.71134">
        <ele>691</ele>
        <time>2024-12-08T01:54:43.620Z</time>
      </trkpt>
      <trkpt lat="45.88219" lon="3.71136">
        <ele>691</ele>
        <time>2024-12-08T01:54:44.619Z</time>
      </trkpt>
      <trkpt lat="45.8822" lon="3.71138">
        <ele>691</ele>
        <time>2024-12-08T01:54:45.619Z</time>
      </trkpt>
      <trkpt lat="45.8822" lon="3.71141">
        <ele>691</ele>
        <time>2024-12-08T01:54:46.620Z</time>
      </trkpt>
      <trkpt lat="45.8822" lon="3.71143">
        <ele>691</ele>
        <time>2024-12-08T01:54:47.620Z</time>
      </trkpt>
      <trkpt lat="45.8822" lon="3.71145">
        <ele>691</ele>
        <time>2024-12-08T01:54:48.619Z</time>
      </trkpt>
      <trkpt lat="45.8822" lon="3.71147">
        <ele>691</ele>
        <time>2024-12-08T01:54:49.620Z</time>
      </trkpt>
      <trkpt lat="45.88221" lon="3.71149">
        <ele>691</ele>
        <time>2024-12-08T01:54:50.619Z</time>
      </trkpt>
      <trkpt lat="45.88221" lon="3.71151">
        <ele>691</ele>
        <time>2024-12-08T01:54:51.619Z</time>
      </trkpt>
      <trkpt lat="45.88221" lon="3.71153">
        <ele>691</ele>
        <time>2024-12-08T01:54:52.620Z</time>
      </trkpt>
      <trkpt lat="45.88221" lon="3.71155">
        <ele>692</ele>
        <time>2024-12-08T01:54:53.620Z</time>
      </trkpt>
      <trkpt lat="45.88221" lon="3.71157">
        <ele>692</ele>
        <time>2024-12-08T01:54:54.620Z</time>
      </trkpt>
      <trkpt lat="45.88221" lon="3.71159">
        <ele>692</ele>
        <time>2024-12-08T01:54:55.619Z</time>
      </trkpt>
      <trkpt lat="45.88222" lon="3.71161">
        <ele>692</ele>
        <time>2024-12-08T01:54:56.619Z</time>
      </trkpt>
      <trkpt lat="45.88222" lon="3.71163">
        <ele>692</ele>
        <time>2024-12-08T01:54:57.619Z</time>
      </trkpt>
      <trkpt lat="45.88222" lon="3.71165">
        <ele>692</ele>
        <time>2024-12-08T01:54:58.619Z</time>
      </trkpt>
      <trkpt lat="45.88222" lon="3.71167">
        <ele>692</ele>
        <time>2024-12-08T01:54:59.619Z</time>
      </trkpt>
      <trkpt lat="45.88223" lon="3.7117">
        <ele>692</ele>
        <time>2024-12-08T01:55:00.620Z</time>
      </trkpt>
      <trkpt lat="45.88223" lon="3.71172">
        <ele>692</ele>
        <time>2024-12-08T01:55:01.620Z</time>
      </trkpt>
      <trkpt lat="45.88224" lon="3.71174">
        <ele>692</ele>
        <time>2024-12-08T01:55:02.620Z</time>
      </trkpt>
      <trkpt lat="45.88224" lon="3.71175">
        <ele>692</ele>
        <time>2024-12-08T01:55:03.619Z</time>
      </trkpt>
      <trkpt lat="45.88224" lon="3.71178">
        <ele>693</ele>
        <time>2024-12-08T01:55:04.619Z</time>
      </trkpt>
      <trkpt lat="45.88224" lon="3.71179">
        <ele>693</ele>
        <time>2024-12-08T01:55:05.619Z</time>
      </trkpt>
      <trkpt lat="45.88224" lon="3.71181">
        <ele>693</ele>
        <time>2024-12-08T01:55:06.619Z</time>
      </trkpt>
      <trkpt lat="45.88224" lon="3.71183">
        <ele>693</ele>
        <time>2024-12-08T01:55:07.620Z</time>
      </trkpt>
      <trkpt lat="45.88224" lon="3.71185">
        <ele>693</ele>
        <time>2024-12-08T01:55:08.620Z</time>
      </trkpt>
      <trkpt lat="45.88224" lon="3.71187">
        <ele>693</ele>
        <time>2024-12-08T01:55:09.619Z</time>
      </trkpt>
      <trkpt lat="45.88225" lon="3.7119">
        <ele>693</ele>
        <time>2024-12-08T01:55:10.620Z</time>
      </trkpt>
      <trkpt lat="45.88225" lon="3.71192">
        <ele>693</ele>
        <time>2024-12-08T01:55:11.619Z</time>
      </trkpt>
      <trkpt lat="45.88226" lon="3.71195">
        <ele>693</ele>
        <time>2024-12-08T01:55:12.620Z</time>
      </trkpt>
      <trkpt lat="45.88226" lon="3.71198">
        <ele>693</ele>
        <time>2024-12-08T01:55:13.620Z</time>
      </trkpt>
      <trkpt lat="45.88226" lon="3.71201">
        <ele>693</ele>
        <time>2024-12-08T01:55:14.619Z</time>
      </trkpt>
      <trkpt lat="45.88226" lon="3.71203">
        <ele>693</ele>
        <time>2024-12-08T01:55:15.619Z</time>
      </trkpt>
      <trkpt lat="45.88226" lon="3.71205">
        <ele>693</ele>
        <time>2024-12-08T01:55:16.620Z</time>
      </trkpt>
      <trkpt lat="45.88226" lon="3.71207">
        <ele>694</ele>
        <time>2024-12-08T01:55:17.620Z</time>
      </trkpt>
      <trkpt lat="45.88226" lon="3.71209">
        <ele>694</ele>
        <time>2024-12-08T01:55:18.619Z</time>
      </trkpt>
      <trkpt lat="45.88227" lon="3.71211">
        <ele>694</ele>
        <time>2024-12-08T01:55:19.619Z</time>
      </trkpt>
      <trkpt lat="45.88227" lon="3.71213">
        <ele>694</ele>
        <time>2024-12-08T01:55:20.620Z</time>
      </trkpt>
      <trkpt lat="45.88227" lon="3.71215">
        <ele>694</ele>
        <time>2024-12-08T01:55:21.619Z</time>
      </trkpt>
      <trkpt lat="45.88227" lon="3.71217">
        <ele>694</ele>
        <time>2024-12-08T01:55:22.619Z</time>
      </trkpt>
      <trkpt lat="45.88228" lon="3.71219">
        <ele>694</ele>
        <time>2024-12-08T01:55:23.620Z</time>
      </trkpt>
      <trkpt lat="45.88228" lon="3.71221">
        <ele>694</ele>
        <time>2024-12-08T01:55:24.620Z</time>
      </trkpt>
      <trkpt lat="45.88228" lon="3.71223">
        <ele>694</ele>
        <time>2024-12-08T01:55:25.619Z</time>
      </trkpt>
      <trkpt lat="45.88229" lon="3.71226">
        <ele>694</ele>
        <time>2024-12-08T01:55:26.619Z</time>
      </trkpt>
      <trkpt lat="45.88229" lon="3.71228">
        <ele>695</ele>
        <time>2024-12-08T01:55:27.619Z</time>
      </trkpt>
      <trkpt lat="45.8823" lon="3.7123">
        <ele>695</ele>
        <time>2024-12-08T01:55:28.620Z</time>
      </trkpt>
      <trkpt lat="45.8823" lon="3.71233">
        <ele>695</ele>
        <time>2024-12-08T01:55:29.620Z</time>
      </trkpt>
      <trkpt lat="45.88231" lon="3.71235">
        <ele>695</ele>
        <time>2024-12-08T01:55:30.620Z</time>
      </trkpt>
      <trkpt lat="45.88231" lon="3.71237">
        <ele>695</ele>
        <time>2024-12-08T01:55:31.620Z</time>
      </trkpt>
      <trkpt lat="45.88232" lon="3.71238">
        <ele>695</ele>
        <time>2024-12-08T01:55:32.619Z</time>
      </trkpt>
      <trkpt lat="45.88232" lon="3.7124">
        <ele>695</ele>
        <time>2024-12-08T01:55:33.620Z</time>
      </trkpt>
      <trkpt lat="45.88232" lon="3.71242">
        <ele>695</ele>
        <time>2024-12-08T01:55:34.620Z</time>
      </trkpt>
      <trkpt lat="45.88233" lon="3.71243">
        <ele>695</ele>
        <time>2024-12-08T01:55:35.619Z</time>
      </trkpt>
      <trkpt lat="45.88233" lon="3.71245">
        <ele>695</ele>
        <time>2024-12-08T01:55:36.619Z</time>
      </trkpt>
      <trkpt lat="45.88234" lon="3.71247">
        <ele>695</ele>
        <time>2024-12-08T01:55:37.620Z</time>
      </trkpt>
      <trkpt lat="45.88234" lon="3.71249">
        <ele>695</ele>
        <time>2024-12-08T01:55:38.619Z</time>
      </trkpt>
      <trkpt lat="45.88234" lon="3.71251">
        <ele>695</ele>
        <time>2024-12-08T01:55:39.619Z</time>
      </trkpt>
      <trkpt lat="45.88234" lon="3.71253">
        <ele>695</ele>
        <time>2024-12-08T01:55:40.619Z</time>
      </trkpt>
      <trkpt lat="45.88234" lon="3.71255">
        <ele>695</ele>
        <time>2024-12-08T01:55:41.619Z</time>
      </trkpt>
      <trkpt lat="45.88234" lon="3.71257">
        <ele>696</ele>
        <time>2024-12-08T01:55:42.620Z</time>
      </trkpt>
      <trkpt lat="45.88234" lon="3.71259">
        <ele>696</ele>
        <time>2024-12-08T01:55:43.619Z</time>
      </trkpt>
      <trkpt lat="45.88234" lon="3.71261">
        <ele>696</ele>
        <time>2024-12-08T01:55:44.620Z</time>
      </trkpt>
      <trkpt lat="45.88234" lon="3.71263">
        <ele>696</ele>
        <time>2024-12-08T01:55:45.620Z</time>
      </trkpt>
      <trkpt lat="45.88234" lon="3.71265">
        <ele>696</ele>
        <time>2024-12-08T01:55:46.620Z</time>
      </trkpt>
      <trkpt lat="45.88234" lon="3.71266">
        <ele>696</ele>
        <time>2024-12-08T01:55:47.619Z</time>
      </trkpt>
      <trkpt lat="45.88234" lon="3.71268">
        <ele>696</ele>
        <time>2024-12-08T01:55:48.619Z</time>
      </trkpt>
      <trkpt lat="45.88234" lon="3.7127">
        <ele>696</ele>
        <time>2024-12-08T01:55:49.619Z</time>
      </trkpt>
      <trkpt lat="45.88234" lon="3.71272">
        <ele>696</ele>
        <time>2024-12-08T01:55:50.620Z</time>
      </trkpt>
      <trkpt lat="45.88234" lon="3.71274">
        <ele>696</ele>
        <time>2024-12-08T01:55:51.620Z</time>
      </trkpt>
      <trkpt lat="45.88234" lon="3.71276">
        <ele>696</ele>
        <time>2024-12-08T01:55:52.619Z</time>
      </trkpt>
      <trkpt lat="45.88234" lon="3.71278">
        <ele>696</ele>
        <time>2024-12-08T01:55:53.619Z</time>
      </trkpt>
      <trkpt lat="45.88235" lon="3.7128">
        <ele>696</ele>
        <time>2024-12-08T01:55:54.619Z</time>
      </trkpt>
      <trkpt lat="45.88235" lon="3.71282">
        <ele>696</ele>
        <time>2024-12-08T01:55:55.619Z</time>
      </trkpt>
      <trkpt lat="45.88235" lon="3.71284">
        <ele>696</ele>
        <time>2024-12-08T01:55:56.619Z</time>
      </trkpt>
      <trkpt lat="45.88235" lon="3.71286">
        <ele>696</ele>
        <time>2024-12-08T01:55:57.619Z</time>
      </trkpt>
      <trkpt lat="45.88235" lon="3.71288">
        <ele>696</ele>
        <time>2024-12-08T01:55:58.620Z</time>
      </trkpt>
      <trkpt lat="45.88235" lon="3.71291">
        <ele>695</ele>
        <time>2024-12-08T01:55:59.619Z</time>
      </trkpt>
      <trkpt lat="45.88235" lon="3.71293">
        <ele>695</ele>
        <time>2024-12-08T01:56:00.619Z</time>
      </trkpt>
      <trkpt lat="45.88235" lon="3.71295">
        <ele>696</ele>
        <time>2024-12-08T01:56:01.620Z</time>
      </trkpt>
      <trkpt lat="45.88235" lon="3.71297">
        <ele>696</ele>
        <time>2024-12-08T01:56:02.619Z</time>
      </trkpt>
      <trkpt lat="45.88235" lon="3.71299">
        <ele>696</ele>
        <time>2024-12-08T01:56:03.619Z</time>
      </trkpt>
      <trkpt lat="45.88236" lon="3.71302">
        <ele>696</ele>
        <time>2024-12-08T01:56:04.619Z</time>
      </trkpt>
      <trkpt lat="45.88236" lon="3.71304">
        <ele>696</ele>
        <time>2024-12-08T01:56:05.620Z</time>
      </trkpt>
      <trkpt lat="45.88236" lon="3.71306">
        <ele>697</ele>
        <time>2024-12-08T01:56:06.619Z</time>
      </trkpt>
      <trkpt lat="45.88236" lon="3.71308">
        <ele>697</ele>
        <time>2024-12-08T01:56:07.620Z</time>
      </trkpt>
      <trkpt lat="45.88237" lon="3.7131">
        <ele>697</ele>
        <time>2024-12-08T01:56:08.619Z</time>
      </trkpt>
      <trkpt lat="45.88237" lon="3.71312">
        <ele>698</ele>
        <time>2024-12-08T01:56:09.620Z</time>
      </trkpt>
      <trkpt lat="45.88237" lon="3.71314">
        <ele>698</ele>
        <time>2024-12-08T01:56:10.620Z</time>
      </trkpt>
      <trkpt lat="45.88237" lon="3.71316">
        <ele>698</ele>
        <time>2024-12-08T01:56:11.619Z</time>
      </trkpt>
      <trkpt lat="45.88238" lon="3.71318">
        <ele>698</ele>
        <time>2024-12-08T01:56:12.619Z</time>
      </trkpt>
      <trkpt lat="45.88238" lon="3.7132">
        <ele>698</ele>
        <time>2024-12-08T01:56:13.620Z</time>
      </trkpt>
      <trkpt lat="45.88238" lon="3.71322">
        <ele>698</ele>
        <time>2024-12-08T01:56:14.619Z</time>
      </trkpt>
      <trkpt lat="45.88239" lon="3.71324">
        <ele>698</ele>
        <time>2024-12-08T01:56:15.619Z</time>
      </trkpt>
      <trkpt lat="45.88239" lon="3.71326">
        <ele>698</ele>
        <time>2024-12-08T01:56:16.619Z</time>
      </trkpt>
      <trkpt lat="45.88239" lon="3.71329">
        <ele>698</ele>
        <time>2024-12-08T01:56:17.620Z</time>
      </trkpt>
      <trkpt lat="45.88239" lon="3.71331">
        <ele>698</ele>
        <time>2024-12-08T01:56:18.620Z</time>
      </trkpt>
      <trkpt lat="45.8824" lon="3.71333">
        <ele>698</ele>
        <time>2024-12-08T01:56:19.620Z</time>
      </trkpt>
      <trkpt lat="45.8824" lon="3.71335">
        <ele>698</ele>
        <time>2024-12-08T01:56:20.619Z</time>
      </trkpt>
      <trkpt lat="45.8824" lon="3.71337">
        <ele>698</ele>
        <time>2024-12-08T01:56:21.620Z</time>
      </trkpt>
      <trkpt lat="45.88241" lon="3.71339">
        <ele>698</ele>
        <time>2024-12-08T01:56:22.619Z</time>
      </trkpt>
      <trkpt lat="45.88241" lon="3.71341">
        <ele>699</ele>
        <time>2024-12-08T01:56:23.619Z</time>
      </trkpt>
      <trkpt lat="45.88241" lon="3.71343">
        <ele>699</ele>
        <time>2024-12-08T01:56:24.620Z</time>
      </trkpt>
      <trkpt lat="45.88242" lon="3.71345">
        <ele>699</ele>
        <time>2024-12-08T01:56:25.620Z</time>
      </trkpt>
      <trkpt lat="45.88242" lon="3.71347">
        <ele>699</ele>
        <time>2024-12-08T01:56:26.620Z</time>
      </trkpt>
      <trkpt lat="45.88242" lon="3.71349">
        <ele>699</ele>
        <time>2024-12-08T01:56:27.619Z</time>
      </trkpt>
      <trkpt lat="45.88242" lon="3.71352">
        <ele>699</ele>
        <time>2024-12-08T01:56:28.620Z</time>
      </trkpt>
      <trkpt lat="45.88243" lon="3.71354">
        <ele>699</ele>
        <time>2024-12-08T01:56:29.619Z</time>
      </trkpt>
      <trkpt lat="45.88243" lon="3.71356">
        <ele>699</ele>
        <time>2024-12-08T01:56:30.619Z</time>
      </trkpt>
      <trkpt lat="45.88243" lon="3.71358">
        <ele>700</ele>
        <time>2024-12-08T01:56:31.619Z</time>
      </trkpt>
      <trkpt lat="45.88244" lon="3.71359">
        <ele>700</ele>
        <time>2024-12-08T01:56:32.620Z</time>
      </trkpt>
      <trkpt lat="45.88244" lon="3.71361">
        <ele>700</ele>
        <time>2024-12-08T01:56:33.619Z</time>
      </trkpt>
      <trkpt lat="45.88244" lon="3.71363">
        <ele>700</ele>
        <time>2024-12-08T01:56:34.620Z</time>
      </trkpt>
      <trkpt lat="45.88245" lon="3.71365">
        <ele>700</ele>
        <time>2024-12-08T01:56:35.619Z</time>
      </trkpt>
      <trkpt lat="45.88245" lon="3.71367">
        <ele>700</ele>
        <time>2024-12-08T01:56:36.619Z</time>
      </trkpt>
      <trkpt lat="45.88246" lon="3.71369">
        <ele>700</ele>
        <time>2024-12-08T01:56:37.620Z</time>
      </trkpt>
      <trkpt lat="45.88246" lon="3.71371">
        <ele>700</ele>
        <time>2024-12-08T01:56:38.620Z</time>
      </trkpt>
      <trkpt lat="45.88246" lon="3.71373">
        <ele>700</ele>
        <time>2024-12-08T01:56:39.620Z</time>
      </trkpt>
      <trkpt lat="45.88246" lon="3.71376">
        <ele>700</ele>
        <time>2024-12-08T01:56:40.619Z</time>
      </trkpt>
      <trkpt lat="45.88246" lon="3.71378">
        <ele>700</ele>
        <time>2024-12-08T01:56:41.619Z</time>
      </trkpt>
      <trkpt lat="45.88246" lon="3.7138">
        <ele>700</ele>
        <time>2024-12-08T01:56:42.620Z</time>
      </trkpt>
      <trkpt lat="45.88246" lon="3.71383">
        <ele>700</ele>
        <time>2024-12-08T01:56:43.620Z</time>
      </trkpt>
      <trkpt lat="45.88247" lon="3.71385">
        <ele>700</ele>
        <time>2024-12-08T01:56:44.619Z</time>
      </trkpt>
      <trkpt lat="45.88247" lon="3.71387">
        <ele>700</ele>
        <time>2024-12-08T01:56:45.620Z</time>
      </trkpt>
      <trkpt lat="45.88247" lon="3.71389">
        <ele>700</ele>
        <time>2024-12-08T01:56:46.620Z</time>
      </trkpt>
      <trkpt lat="45.88247" lon="3.71391">
        <ele>700</ele>
        <time>2024-12-08T01:56:47.620Z</time>
      </trkpt>
      <trkpt lat="45.88248" lon="3.71392">
        <ele>700</ele>
        <time>2024-12-08T01:56:48.620Z</time>
      </trkpt>
      <trkpt lat="45.88248" lon="3.71394">
        <ele>700</ele>
        <time>2024-12-08T01:56:49.620Z</time>
      </trkpt>
      <trkpt lat="45.88248" lon="3.71395">
        <ele>700</ele>
        <time>2024-12-08T01:56:50.619Z</time>
      </trkpt>
      <trkpt lat="45.88249" lon="3.71397">
        <ele>700</ele>
        <time>2024-12-08T01:56:51.619Z</time>
      </trkpt>
      <trkpt lat="45.88249" lon="3.71399">
        <ele>700</ele>
        <time>2024-12-08T01:56:52.619Z</time>
      </trkpt>
      <trkpt lat="45.8825" lon="3.71401">
        <ele>701</ele>
        <time>2024-12-08T01:56:53.620Z</time>
      </trkpt>
      <trkpt lat="45.8825" lon="3.71403">
        <ele>701</ele>
        <time>2024-12-08T01:56:54.620Z</time>
      </trkpt>
      <trkpt lat="45.8825" lon="3.71405">
        <ele>701</ele>
        <time>2024-12-08T01:56:55.619Z</time>
      </trkpt>
      <trkpt lat="45.8825" lon="3.71408">
        <ele>701</ele>
        <time>2024-12-08T01:56:56.619Z</time>
      </trkpt>
      <trkpt lat="45.8825" lon="3.7141">
        <ele>701</ele>
        <time>2024-12-08T01:56:57.619Z</time>
      </trkpt>
      <trkpt lat="45.88251" lon="3.71412">
        <ele>701</ele>
        <time>2024-12-08T01:56:58.619Z</time>
      </trkpt>
      <trkpt lat="45.88251" lon="3.71414">
        <ele>702</ele>
        <time>2024-12-08T01:56:59.619Z</time>
      </trkpt>
      <trkpt lat="45.88251" lon="3.71416">
        <ele>702</ele>
        <time>2024-12-08T01:57:00.620Z</time>
      </trkpt>
      <trkpt lat="45.88252" lon="3.71418">
        <ele>702</ele>
        <time>2024-12-08T01:57:01.620Z</time>
      </trkpt>
      <trkpt lat="45.88252" lon="3.7142">
        <ele>702</ele>
        <time>2024-12-08T01:57:02.619Z</time>
      </trkpt>
      <trkpt lat="45.88253" lon="3.71421">
        <ele>702</ele>
        <time>2024-12-08T01:57:03.620Z</time>
      </trkpt>
      <trkpt lat="45.88253" lon="3.71424">
        <ele>702</ele>
        <time>2024-12-08T01:57:04.619Z</time>
      </trkpt>
      <trkpt lat="45.88253" lon="3.71426">
        <ele>702</ele>
        <time>2024-12-08T01:57:05.620Z</time>
      </trkpt>
      <trkpt lat="45.88253" lon="3.71428">
        <ele>702</ele>
        <time>2024-12-08T01:57:06.620Z</time>
      </trkpt>
      <trkpt lat="45.88253" lon="3.71431">
        <ele>702</ele>
        <time>2024-12-08T01:57:07.620Z</time>
      </trkpt>
      <trkpt lat="45.88253" lon="3.71433">
        <ele>703</ele>
        <time>2024-12-08T01:57:08.620Z</time>
      </trkpt>
      <trkpt lat="45.88254" lon="3.71435">
        <ele>703</ele>
        <time>2024-12-08T01:57:09.620Z</time>
      </trkpt>
      <trkpt lat="45.88254" lon="3.71437">
        <ele>703</ele>
        <time>2024-12-08T01:57:10.619Z</time>
      </trkpt>
      <trkpt lat="45.88254" lon="3.71439">
        <ele>704</ele>
        <time>2024-12-08T01:57:11.619Z</time>
      </trkpt>
      <trkpt lat="45.88255" lon="3.71441">
        <ele>704</ele>
        <time>2024-12-08T01:57:12.619Z</time>
      </trkpt>
      <trkpt lat="45.88255" lon="3.71443">
        <ele>705</ele>
        <time>2024-12-08T01:57:13.619Z</time>
      </trkpt>
      <trkpt lat="45.88255" lon="3.71445">
        <ele>704</ele>
        <time>2024-12-08T01:57:14.620Z</time>
      </trkpt>
      <trkpt lat="45.88254" lon="3.71447">
        <ele>704</ele>
        <time>2024-12-08T01:57:15.619Z</time>
      </trkpt>
      <trkpt lat="45.88254" lon="3.71449">
        <ele>704</ele>
        <time>2024-12-08T01:57:16.620Z</time>
      </trkpt>
      <trkpt lat="45.88254" lon="3.71451">
        <ele>704</ele>
        <time>2024-12-08T01:57:17.619Z</time>
      </trkpt>
      <trkpt lat="45.88255" lon="3.71453">
        <ele>704</ele>
        <time>2024-12-08T01:57:18.620Z</time>
      </trkpt>
      <trkpt lat="45.88255" lon="3.71456">
        <ele>705</ele>
        <time>2024-12-08T01:57:19.619Z</time>
      </trkpt>
      <trkpt lat="45.88255" lon="3.71458">
        <ele>705</ele>
        <time>2024-12-08T01:57:20.620Z</time>
      </trkpt>
      <trkpt lat="45.88255" lon="3.7146">
        <ele>706</ele>
        <time>2024-12-08T01:57:21.619Z</time>
      </trkpt>
      <trkpt lat="45.88256" lon="3.71462">
        <ele>706</ele>
        <time>2024-12-08T01:57:22.619Z</time>
      </trkpt>
      <trkpt lat="45.88256" lon="3.71464">
        <ele>707</ele>
        <time>2024-12-08T01:57:23.620Z</time>
      </trkpt>
      <trkpt lat="45.88256" lon="3.71465">
        <ele>707</ele>
        <time>2024-12-08T01:57:24.620Z</time>
      </trkpt>
      <trkpt lat="45.88257" lon="3.71467">
        <ele>707</ele>
        <time>2024-12-08T01:57:25.620Z</time>
      </trkpt>
      <trkpt lat="45.88257" lon="3.71469">
        <ele>707</ele>
        <time>2024-12-08T01:57:26.619Z</time>
      </trkpt>
      <trkpt lat="45.88257" lon="3.71471">
        <ele>707</ele>
        <time>2024-12-08T01:57:27.619Z</time>
      </trkpt>
      <trkpt lat="45.88257" lon="3.71472">
        <ele>707</ele>
        <time>2024-12-08T01:57:28.619Z</time>
      </trkpt>
      <trkpt lat="45.88258" lon="3.71475">
        <ele>707</ele>
        <time>2024-12-08T01:57:29.619Z</time>
      </trkpt>
      <trkpt lat="45.88258" lon="3.71477">
        <ele>707</ele>
        <time>2024-12-08T01:57:30.619Z</time>
      </trkpt>
      <trkpt lat="45.88258" lon="3.71479">
        <ele>708</ele>
        <time>2024-12-08T01:57:31.619Z</time>
      </trkpt>
      <trkpt lat="45.88258" lon="3.7148">
        <ele>707</ele>
        <time>2024-12-08T01:57:32.620Z</time>
      </trkpt>
      <trkpt lat="45.88259" lon="3.71482">
        <ele>707</ele>
        <time>2024-12-08T01:57:33.620Z</time>
      </trkpt>
      <trkpt lat="45.88259" lon="3.71484">
        <ele>707</ele>
        <time>2024-12-08T01:57:34.620Z</time>
      </trkpt>
      <trkpt lat="45.88259" lon="3.71486">
        <ele>707</ele>
        <time>2024-12-08T01:57:35.619Z</time>
      </trkpt>
      <trkpt lat="45.88259" lon="3.71488">
        <ele>706</ele>
        <time>2024-12-08T01:57:36.620Z</time>
      </trkpt>
      <trkpt lat="45.88259" lon="3.71491">
        <ele>706</ele>
        <time>2024-12-08T01:57:37.619Z</time>
      </trkpt>
      <trkpt lat="45.8826" lon="3.71493">
        <ele>706</ele>
        <time>2024-12-08T01:57:38.619Z</time>
      </trkpt>
      <trkpt lat="45.8826" lon="3.71495">
        <ele>706</ele>
        <time>2024-12-08T01:57:39.619Z</time>
      </trkpt>
      <trkpt lat="45.8826" lon="3.71496">
        <ele>706</ele>
        <time>2024-12-08T01:57:40.619Z</time>
      </trkpt>
      <trkpt lat="45.8826" lon="3.71498">
        <ele>706</ele>
        <time>2024-12-08T01:57:41.619Z</time>
      </trkpt>
      <trkpt lat="45.8826" lon="3.715">
        <ele>706</ele>
        <time>2024-12-08T01:57:42.620Z</time>
      </trkpt>
      <trkpt lat="45.8826" lon="3.71502">
        <ele>706</ele>
        <time>2024-12-08T01:57:43.620Z</time>
      </trkpt>
      <trkpt lat="45.88261" lon="3.71504">
        <ele>706</ele>
        <time>2024-12-08T01:57:44.619Z</time>
      </trkpt>
      <trkpt lat="45.88261" lon="3.71506">
        <ele>706</ele>
        <time>2024-12-08T01:57:45.619Z</time>
      </trkpt>
      <trkpt lat="45.88262" lon="3.71508">
        <ele>706</ele>
        <time>2024-12-08T01:57:46.619Z</time>
      </trkpt>
      <trkpt lat="45.88262" lon="3.7151">
        <ele>707</ele>
        <time>2024-12-08T01:57:47.619Z</time>
      </trkpt>
      <trkpt lat="45.88262" lon="3.71512">
        <ele>707</ele>
        <time>2024-12-08T01:57:48.620Z</time>
      </trkpt>
      <trkpt lat="45.88262" lon="3.71513">
        <ele>707</ele>
        <time>2024-12-08T01:57:49.620Z</time>
      </trkpt>
      <trkpt lat="45.88262" lon="3.71515">
        <ele>707</ele>
        <time>2024-12-08T01:57:50.620Z</time>
      </trkpt>
      <trkpt lat="45.88262" lon="3.71517">
        <ele>708</ele>
        <time>2024-12-08T01:57:51.620Z</time>
      </trkpt>
      <trkpt lat="45.88262" lon="3.71519">
        <ele>708</ele>
        <time>2024-12-08T01:57:52.620Z</time>
      </trkpt>
      <trkpt lat="45.88262" lon="3.71521">
        <ele>708</ele>
        <time>2024-12-08T01:57:53.620Z</time>
      </trkpt>
      <trkpt lat="45.88263" lon="3.71524">
        <ele>708</ele>
        <time>2024-12-08T01:57:54.620Z</time>
      </trkpt>
      <trkpt lat="45.88263" lon="3.71526">
        <ele>709</ele>
        <time>2024-12-08T01:57:55.619Z</time>
      </trkpt>
      <trkpt lat="45.88263" lon="3.71528">
        <ele>709</ele>
        <time>2024-12-08T01:57:56.619Z</time>
      </trkpt>
      <trkpt lat="45.88263" lon="3.7153">
        <ele>709</ele>
        <time>2024-12-08T01:57:57.620Z</time>
      </trkpt>
      <trkpt lat="45.88263" lon="3.71532">
        <ele>709</ele>
        <time>2024-12-08T01:57:58.620Z</time>
      </trkpt>
      <trkpt lat="45.88264" lon="3.71534">
        <ele>709</ele>
        <time>2024-12-08T01:57:59.620Z</time>
      </trkpt>
      <trkpt lat="45.88264" lon="3.71536">
        <ele>709</ele>
        <time>2024-12-08T01:58:00.619Z</time>
      </trkpt>
      <trkpt lat="45.88264" lon="3.71537">
        <ele>709</ele>
        <time>2024-12-08T01:58:01.620Z</time>
      </trkpt>
      <trkpt lat="45.88264" lon="3.71539">
        <ele>709</ele>
        <time>2024-12-08T01:58:02.619Z</time>
      </trkpt>
      <trkpt lat="45.88264" lon="3.71541">
        <ele>709</ele>
        <time>2024-12-08T01:58:03.619Z</time>
      </trkpt>
      <trkpt lat="45.88265" lon="3.71543">
        <ele>709</ele>
        <time>2024-12-08T01:58:04.620Z</time>
      </trkpt>
      <trkpt lat="45.88265" lon="3.71545">
        <ele>709</ele>
        <time>2024-12-08T01:58:05.620Z</time>
      </trkpt>
      <trkpt lat="45.88265" lon="3.71547">
        <ele>710</ele>
        <time>2024-12-08T01:58:06.619Z</time>
      </trkpt>
      <trkpt lat="45.88266" lon="3.71548">
        <ele>710</ele>
        <time>2024-12-08T01:58:07.620Z</time>
      </trkpt>
      <trkpt lat="45.88266" lon="3.7155">
        <ele>710</ele>
        <time>2024-12-08T01:58:08.619Z</time>
      </trkpt>
      <trkpt lat="45.88266" lon="3.71552">
        <ele>711</ele>
        <time>2024-12-08T01:58:09.619Z</time>
      </trkpt>
      <trkpt lat="45.88266" lon="3.71554">
        <ele>711</ele>
        <time>2024-12-08T01:58:10.619Z</time>
      </trkpt>
      <trkpt lat="45.88267" lon="3.71556">
        <ele>711</ele>
        <time>2024-12-08T01:58:11.619Z</time>
      </trkpt>
      <trkpt lat="45.88267" lon="3.71559">
        <ele>711</ele>
        <time>2024-12-08T01:58:12.619Z</time>
      </trkpt>
      <trkpt lat="45.88267" lon="3.7156">
        <ele>712</ele>
        <time>2024-12-08T01:58:13.619Z</time>
      </trkpt>
      <trkpt lat="45.88267" lon="3.71562">
        <ele>711</ele>
        <time>2024-12-08T01:58:14.620Z</time>
      </trkpt>
      <trkpt lat="45.88268" lon="3.71564">
        <ele>711</ele>
        <time>2024-12-08T01:58:15.620Z</time>
      </trkpt>
      <trkpt lat="45.88268" lon="3.71566">
        <ele>711</ele>
        <time>2024-12-08T01:58:16.620Z</time>
      </trkpt>
      <trkpt lat="45.88268" lon="3.71568">
        <ele>711</ele>
        <time>2024-12-08T01:58:17.620Z</time>
      </trkpt>
      <trkpt lat="45.88268" lon="3.71569">
        <ele>711</ele>
        <time>2024-12-08T01:58:18.620Z</time>
      </trkpt>
      <trkpt lat="45.88268" lon="3.71571">
        <ele>711</ele>
        <time>2024-12-08T01:58:19.620Z</time>
      </trkpt>
      <trkpt lat="45.88269" lon="3.71573">
        <ele>711</ele>
        <time>2024-12-08T01:58:20.619Z</time>
      </trkpt>
      <trkpt lat="45.88269" lon="3.71574">
        <ele>711</ele>
        <time>2024-12-08T01:58:21.620Z</time>
      </trkpt>
      <trkpt lat="45.88269" lon="3.71576">
        <ele>711</ele>
        <time>2024-12-08T01:58:22.620Z</time>
      </trkpt>
      <trkpt lat="45.88269" lon="3.71578">
        <ele>711</ele>
        <time>2024-12-08T01:58:23.620Z</time>
      </trkpt>
      <trkpt lat="45.88269" lon="3.7158">
        <ele>711</ele>
        <time>2024-12-08T01:58:24.619Z</time>
      </trkpt>
      <trkpt lat="45.8827" lon="3.71582">
        <ele>711</ele>
        <time>2024-12-08T01:58:25.619Z</time>
      </trkpt>
      <trkpt lat="45.8827" lon="3.71584">
        <ele>712</ele>
        <time>2024-12-08T01:58:26.619Z</time>
      </trkpt>
      <trkpt lat="45.8827" lon="3.71586">
        <ele>712</ele>
        <time>2024-12-08T01:58:27.620Z</time>
      </trkpt>
      <trkpt lat="45.88271" lon="3.71588">
        <ele>712</ele>
        <time>2024-12-08T01:58:28.620Z</time>
      </trkpt>
      <trkpt lat="45.88271" lon="3.7159">
        <ele>713</ele>
        <time>2024-12-08T01:58:29.619Z</time>
      </trkpt>
      <trkpt lat="45.88271" lon="3.71591">
        <ele>713</ele>
        <time>2024-12-08T01:58:30.620Z</time>
      </trkpt>
      <trkpt lat="45.88272" lon="3.71593">
        <ele>713</ele>
        <time>2024-12-08T01:58:31.619Z</time>
      </trkpt>
      <trkpt lat="45.88272" lon="3.71595">
        <ele>713</ele>
        <time>2024-12-08T01:58:32.619Z</time>
      </trkpt>
      <trkpt lat="45.88272" lon="3.71597">
        <ele>713</ele>
        <time>2024-12-08T01:58:33.620Z</time>
      </trkpt>
      <trkpt lat="45.88273" lon="3.71599">
        <ele>713</ele>
        <time>2024-12-08T01:58:34.620Z</time>
      </trkpt>
      <trkpt lat="45.88273" lon="3.716">
        <ele>713</ele>
        <time>2024-12-08T01:58:35.619Z</time>
      </trkpt>
      <trkpt lat="45.88273" lon="3.71602">
        <ele>713</ele>
        <time>2024-12-08T01:58:36.619Z</time>
      </trkpt>
      <trkpt lat="45.88273" lon="3.71605">
        <ele>713</ele>
        <time>2024-12-08T01:58:37.619Z</time>
      </trkpt>
      <trkpt lat="45.88273" lon="3.71606">
        <ele>713</ele>
        <time>2024-12-08T01:58:38.619Z</time>
      </trkpt>
      <trkpt lat="45.88273" lon="3.71608">
        <ele>712</ele>
        <time>2024-12-08T01:58:39.619Z</time>
      </trkpt>
      <trkpt lat="45.88274" lon="3.7161">
        <ele>712</ele>
        <time>2024-12-08T01:58:40.620Z</time>
      </trkpt>
      <trkpt lat="45.88274" lon="3.71612">
        <ele>712</ele>
        <time>2024-12-08T01:58:41.620Z</time>
      </trkpt>
      <trkpt lat="45.88274" lon="3.71614">
        <ele>713</ele>
        <time>2024-12-08T01:58:42.620Z</time>
      </trkpt>
      <trkpt lat="45.88274" lon="3.71615">
        <ele>713</ele>
        <time>2024-12-08T01:58:43.620Z</time>
      </trkpt>
      <trkpt lat="45.88274" lon="3.71617">
        <ele>713</ele>
        <time>2024-12-08T01:58:44.619Z</time>
      </trkpt>
      <trkpt lat="45.88275" lon="3.71619">
        <ele>714</ele>
        <time>2024-12-08T01:58:45.619Z</time>
      </trkpt>
      <trkpt lat="45.88275" lon="3.7162">
        <ele>714</ele>
        <time>2024-12-08T01:58:46.620Z</time>
      </trkpt>
      <trkpt lat="45.88275" lon="3.71622">
        <ele>714</ele>
        <time>2024-12-08T01:58:47.619Z</time>
      </trkpt>
      <trkpt lat="45.88275" lon="3.71624">
        <ele>715</ele>
        <time>2024-12-08T01:58:48.619Z</time>
      </trkpt>
      <trkpt lat="45.88275" lon="3.71626">
        <ele>715</ele>
        <time>2024-12-08T01:58:49.620Z</time>
      </trkpt>
      <trkpt lat="45.88275" lon="3.71628">
        <ele>715</ele>
        <time>2024-12-08T01:58:50.620Z</time>
      </trkpt>
      <trkpt lat="45.88275" lon="3.7163">
        <ele>715</ele>
        <time>2024-12-08T01:58:51.619Z</time>
      </trkpt>
      <trkpt lat="45.88276" lon="3.71632">
        <ele>715</ele>
        <time>2024-12-08T01:58:52.619Z</time>
      </trkpt>
      <trkpt lat="45.88276" lon="3.71634">
        <ele>715</ele>
        <time>2024-12-08T01:58:53.619Z</time>
      </trkpt>
      <trkpt lat="45.88276" lon="3.71636">
        <ele>715</ele>
        <time>2024-12-08T01:58:54.619Z</time>
      </trkpt>
      <trkpt lat="45.88276" lon="3.71638">
        <ele>715</ele>
        <time>2024-12-08T01:58:55.619Z</time>
      </trkpt>
      <trkpt lat="45.88276" lon="3.7164">
        <ele>715</ele>
        <time>2024-12-08T01:58:56.620Z</time>
      </trkpt>
      <trkpt lat="45.88277" lon="3.71642">
        <ele>715</ele>
        <time>2024-12-08T01:58:57.620Z</time>
      </trkpt>
      <trkpt lat="45.88277" lon="3.71644">
        <ele>715</ele>
        <time>2024-12-08T01:58:58.619Z</time>
      </trkpt>
      <trkpt lat="45.88277" lon="3.71646">
        <ele>715</ele>
        <time>2024-12-08T01:58:59.619Z</time>
      </trkpt>
      <trkpt lat="45.88277" lon="3.71648">
        <ele>715</ele>
        <time>2024-12-08T01:59:00.620Z</time>
      </trkpt>
      <trkpt lat="45.88278" lon="3.7165">
        <ele>715</ele>
        <time>2024-12-08T01:59:01.619Z</time>
      </trkpt>
      <trkpt lat="45.88278" lon="3.71652">
        <ele>715</ele>
        <time>2024-12-08T01:59:02.619Z</time>
      </trkpt>
      <trkpt lat="45.88278" lon="3.71654">
        <ele>715</ele>
        <time>2024-12-08T01:59:03.620Z</time>
      </trkpt>
      <trkpt lat="45.88278" lon="3.71656">
        <ele>716</ele>
        <time>2024-12-08T01:59:04.619Z</time>
      </trkpt>
      <trkpt lat="45.88279" lon="3.71658">
        <ele>716</ele>
        <time>2024-12-08T01:59:05.619Z</time>
      </trkpt>
      <trkpt lat="45.88279" lon="3.71659">
        <ele>716</ele>
        <time>2024-12-08T01:59:06.620Z</time>
      </trkpt>
      <trkpt lat="45.88279" lon="3.71661">
        <ele>717</ele>
        <time>2024-12-08T01:59:07.619Z</time>
      </trkpt>
      <trkpt lat="45.88279" lon="3.71663">
        <ele>717</ele>
        <time>2024-12-08T01:59:08.620Z</time>
      </trkpt>
      <trkpt lat="45.88279" lon="3.71665">
        <ele>717</ele>
        <time>2024-12-08T01:59:09.620Z</time>
      </trkpt>
      <trkpt lat="45.88279" lon="3.71667">
        <ele>717</ele>
        <time>2024-12-08T01:59:10.620Z</time>
      </trkpt>
      <trkpt lat="45.8828" lon="3.71669">
        <ele>717</ele>
        <time>2024-12-08T01:59:11.620Z</time>
      </trkpt>
      <trkpt lat="45.8828" lon="3.71671">
        <ele>717</ele>
        <time>2024-12-08T01:59:12.620Z</time>
      </trkpt>
      <trkpt lat="45.8828" lon="3.71673">
        <ele>717</ele>
        <time>2024-12-08T01:59:13.620Z</time>
      </trkpt>
      <trkpt lat="45.8828" lon="3.71674">
        <ele>718</ele>
        <time>2024-12-08T01:59:14.619Z</time>
      </trkpt>
      <trkpt lat="45.8828" lon="3.71676">
        <ele>718</ele>
        <time>2024-12-08T01:59:15.619Z</time>
      </trkpt>
      <trkpt lat="45.88281" lon="3.71678">
        <ele>718</ele>
        <time>2024-12-08T01:59:16.619Z</time>
      </trkpt>
      <trkpt lat="45.88281" lon="3.7168">
        <ele>718</ele>
        <time>2024-12-08T01:59:17.620Z</time>
      </trkpt>
      <trkpt lat="45.88281" lon="3.71682">
        <ele>719</ele>
        <time>2024-12-08T01:59:18.619Z</time>
      </trkpt>
      <trkpt lat="45.88282" lon="3.71684">
        <ele>719</ele>
        <time>2024-12-08T01:59:19.620Z</time>
      </trkpt>
      <trkpt lat="45.88282" lon="3.71686">
        <ele>719</ele>
        <time>2024-12-08T01:59:20.619Z</time>
      </trkpt>
      <trkpt lat="45.88282" lon="3.71688">
        <ele>719</ele>
        <time>2024-12-08T01:59:21.619Z</time>
      </trkpt>
      <trkpt lat="45.88282" lon="3.7169">
        <ele>719</ele>
        <time>2024-12-08T01:59:22.620Z</time>
      </trkpt>
      <trkpt lat="45.88282" lon="3.71691">
        <ele>719</ele>
        <time>2024-12-08T01:59:23.620Z</time>
      </trkpt>
      <trkpt lat="45.88283" lon="3.71693">
        <ele>719</ele>
        <time>2024-12-08T01:59:24.620Z</time>
      </trkpt>
      <trkpt lat="45.88283" lon="3.71695">
        <ele>720</ele>
        <time>2024-12-08T01:59:25.619Z</time>
      </trkpt>
      <trkpt lat="45.88283" lon="3.71697">
        <ele>720</ele>
        <time>2024-12-08T01:59:26.619Z</time>
      </trkpt>
      <trkpt lat="45.88283" lon="3.71699">
        <ele>720</ele>
        <time>2024-12-08T01:59:27.619Z</time>
      </trkpt>
      <trkpt lat="45.88283" lon="3.71701">
        <ele>720</ele>
        <time>2024-12-08T01:59:28.620Z</time>
      </trkpt>
      <trkpt lat="45.88283" lon="3.71703">
        <ele>720</ele>
        <time>2024-12-08T01:59:29.619Z</time>
      </trkpt>
      <trkpt lat="45.88283" lon="3.71704">
        <ele>720</ele>
        <time>2024-12-08T01:59:30.620Z</time>
      </trkpt>
      <trkpt lat="45.88283" lon="3.71706">
        <ele>720</ele>
        <time>2024-12-08T01:59:31.620Z</time>
      </trkpt>
      <trkpt lat="45.88283" lon="3.71708">
        <ele>719</ele>
        <time>2024-12-08T01:59:32.620Z</time>
      </trkpt>
      <trkpt lat="45.88284" lon="3.7171">
        <ele>719</ele>
        <time>2024-12-08T01:59:33.619Z</time>
      </trkpt>
      <trkpt lat="45.88284" lon="3.71712">
        <ele>720</ele>
        <time>2024-12-08T01:59:34.619Z</time>
      </trkpt>
      <trkpt lat="45.88284" lon="3.71713">
        <ele>720</ele>
        <time>2024-12-08T01:59:35.619Z</time>
      </trkpt>
      <trkpt lat="45.88284" lon="3.71715">
        <ele>720</ele>
        <time>2024-12-08T01:59:36.620Z</time>
      </trkpt>
      <trkpt lat="45.88284" lon="3.71717">
        <ele>720</ele>
        <time>2024-12-08T01:59:37.620Z</time>
      </trkpt>
      <trkpt lat="45.88284" lon="3.71719">
        <ele>720</ele>
        <time>2024-12-08T01:59:38.620Z</time>
      </trkpt>
      <trkpt lat="45.88284" lon="3.71721">
        <ele>721</ele>
        <time>2024-12-08T01:59:39.619Z</time>
      </trkpt>
      <trkpt lat="45.88284" lon="3.71723">
        <ele>721</ele>
        <time>2024-12-08T01:59:40.619Z</time>
      </trkpt>
      <trkpt lat="45.88285" lon="3.71725">
        <ele>721</ele>
        <time>2024-12-08T01:59:41.619Z</time>
      </trkpt>
      <trkpt lat="45.88285" lon="3.71726">
        <ele>722</ele>
        <time>2024-12-08T01:59:42.620Z</time>
      </trkpt>
      <trkpt lat="45.88285" lon="3.71728">
        <ele>722</ele>
        <time>2024-12-08T01:59:43.620Z</time>
      </trkpt>
      <trkpt lat="45.88286" lon="3.7173">
        <ele>722</ele>
        <time>2024-12-08T01:59:44.620Z</time>
      </trkpt>
      <trkpt lat="45.88286" lon="3.71732">
        <ele>722</ele>
        <time>2024-12-08T01:59:45.619Z</time>
      </trkpt>
      <trkpt lat="45.88286" lon="3.71733">
        <ele>722</ele>
        <time>2024-12-08T01:59:46.620Z</time>
      </trkpt>
      <trkpt lat="45.88287" lon="3.71735">
        <ele>722</ele>
        <time>2024-12-08T01:59:47.619Z</time>
      </trkpt>
      <trkpt lat="45.88287" lon="3.71737">
        <ele>722</ele>
        <time>2024-12-08T01:59:48.620Z</time>
      </trkpt>
      <trkpt lat="45.88287" lon="3.71739">
        <ele>722</ele>
        <time>2024-12-08T01:59:49.620Z</time>
      </trkpt>
      <trkpt lat="45.88287" lon="3.71741">
        <ele>722</ele>
        <time>2024-12-08T01:59:50.619Z</time>
      </trkpt>
      <trkpt lat="45.88288" lon="3.71743">
        <ele>723</ele>
        <time>2024-12-08T01:59:51.620Z</time>
      </trkpt>
      <trkpt lat="45.88288" lon="3.71745">
        <ele>723</ele>
        <time>2024-12-08T01:59:52.619Z</time>
      </trkpt>
      <trkpt lat="45.88288" lon="3.71746">
        <ele>723</ele>
        <time>2024-12-08T01:59:53.620Z</time>
      </trkpt>
      <trkpt lat="45.88288" lon="3.71748">
        <ele>724</ele>
        <time>2024-12-08T01:59:54.619Z</time>
      </trkpt>
      <trkpt lat="45.88288" lon="3.7175">
        <ele>724</ele>
        <time>2024-12-08T01:59:55.620Z</time>
      </trkpt>
      <trkpt lat="45.88289" lon="3.71752">
        <ele>724</ele>
        <time>2024-12-08T01:59:56.620Z</time>
      </trkpt>
      <trkpt lat="45.88289" lon="3.71754">
        <ele>724</ele>
        <time>2024-12-08T01:59:57.619Z</time>
      </trkpt>
      <trkpt lat="45.8829" lon="3.71755">
        <ele>724</ele>
        <time>2024-12-08T01:59:58.620Z</time>
      </trkpt>
      <trkpt lat="45.8829" lon="3.71757">
        <ele>725</ele>
        <time>2024-12-08T01:59:59.620Z</time>
      </trkpt>
      <trkpt lat="45.88291" lon="3.71759">
        <ele>725</ele>
        <time>2024-12-08T02:00:00.619Z</time>
      </trkpt>
      <trkpt lat="45.88291" lon="3.7176">
        <ele>725</ele>
        <time>2024-12-08T02:00:01.620Z</time>
      </trkpt>
      <trkpt lat="45.88292" lon="3.71762">
        <ele>726</ele>
        <time>2024-12-08T02:00:02.619Z</time>
      </trkpt>
      <trkpt lat="45.88292" lon="3.71764">
        <ele>726</ele>
        <time>2024-12-08T02:00:03.620Z</time>
      </trkpt>
      <trkpt lat="45.88292" lon="3.71766">
        <ele>726</ele>
        <time>2024-12-08T02:00:04.620Z</time>
      </trkpt>
      <trkpt lat="45.88293" lon="3.71768">
        <ele>726</ele>
        <time>2024-12-08T02:00:05.619Z</time>
      </trkpt>
      <trkpt lat="45.88293" lon="3.7177">
        <ele>726</ele>
        <time>2024-12-08T02:00:06.619Z</time>
      </trkpt>
      <trkpt lat="45.88293" lon="3.71772">
        <ele>726</ele>
        <time>2024-12-08T02:00:07.619Z</time>
      </trkpt>
      <trkpt lat="45.88293" lon="3.71773">
        <ele>726</ele>
        <time>2024-12-08T02:00:08.619Z</time>
      </trkpt>
      <trkpt lat="45.88294" lon="3.71775">
        <ele>726</ele>
        <time>2024-12-08T02:00:09.620Z</time>
      </trkpt>
      <trkpt lat="45.88294" lon="3.71777">
        <ele>726</ele>
        <time>2024-12-08T02:00:10.619Z</time>
      </trkpt>
      <trkpt lat="45.88294" lon="3.71779">
        <ele>727</ele>
        <time>2024-12-08T02:00:11.620Z</time>
      </trkpt>
      <trkpt lat="45.88294" lon="3.71781">
        <ele>727</ele>
        <time>2024-12-08T02:00:12.619Z</time>
      </trkpt>
      <trkpt lat="45.88295" lon="3.71783">
        <ele>727</ele>
        <time>2024-12-08T02:00:13.619Z</time>
      </trkpt>
      <trkpt lat="45.88295" lon="3.71785">
        <ele>727</ele>
        <time>2024-12-08T02:00:14.619Z</time>
      </trkpt>
      <trkpt lat="45.88295" lon="3.71786">
        <ele>727</ele>
        <time>2024-12-08T02:00:15.619Z</time>
      </trkpt>
      <trkpt lat="45.88296" lon="3.71788">
        <ele>727</ele>
        <time>2024-12-08T02:00:16.619Z</time>
      </trkpt>
      <trkpt lat="45.88296" lon="3.7179">
        <ele>727</ele>
        <time>2024-12-08T02:00:17.620Z</time>
      </trkpt>
      <trkpt lat="45.88296" lon="3.71792">
        <ele>727</ele>
        <time>2024-12-08T02:00:18.620Z</time>
      </trkpt>
      <trkpt lat="45.88296" lon="3.71794">
        <ele>727</ele>
        <time>2024-12-08T02:00:19.619Z</time>
      </trkpt>
      <trkpt lat="45.88296" lon="3.71796">
        <ele>727</ele>
        <time>2024-12-08T02:00:20.619Z</time>
      </trkpt>
      <trkpt lat="45.88296" lon="3.71797">
        <ele>727</ele>
        <time>2024-12-08T02:00:21.619Z</time>
      </trkpt>
      <trkpt lat="45.88296" lon="3.71799">
        <ele>727</ele>
        <time>2024-12-08T02:00:22.619Z</time>
      </trkpt>
      <trkpt lat="45.88297" lon="3.71802">
        <ele>727</ele>
        <time>2024-12-08T02:00:23.619Z</time>
      </trkpt>
      <trkpt lat="45.88297" lon="3.71804">
        <ele>728</ele>
        <time>2024-12-08T02:00:24.619Z</time>
      </trkpt>
      <trkpt lat="45.88298" lon="3.71806">
        <ele>728</ele>
        <time>2024-12-08T02:00:25.619Z</time>
      </trkpt>
      <trkpt lat="45.88298" lon="3.71808">
        <ele>728</ele>
        <time>2024-12-08T02:00:26.619Z</time>
      </trkpt>
      <trkpt lat="45.88298" lon="3.7181">
        <ele>728</ele>
        <time>2024-12-08T02:00:27.619Z</time>
      </trkpt>
      <trkpt lat="45.88298" lon="3.71812">
        <ele>728</ele>
        <time>2024-12-08T02:00:28.620Z</time>
      </trkpt>
      <trkpt lat="45.88298" lon="3.71813">
        <ele>728</ele>
        <time>2024-12-08T02:00:29.620Z</time>
      </trkpt>
      <trkpt lat="45.88299" lon="3.71815">
        <ele>728</ele>
        <time>2024-12-08T02:00:30.619Z</time>
      </trkpt>
      <trkpt lat="45.88299" lon="3.71817">
        <ele>728</ele>
        <time>2024-12-08T02:00:31.619Z</time>
      </trkpt>
      <trkpt lat="45.88299" lon="3.71819">
        <ele>728</ele>
        <time>2024-12-08T02:00:32.619Z</time>
      </trkpt>
      <trkpt lat="45.883" lon="3.71821">
        <ele>728</ele>
        <time>2024-12-08T02:00:33.619Z</time>
      </trkpt>
      <trkpt lat="45.883" lon="3.71823">
        <ele>729</ele>
        <time>2024-12-08T02:00:34.619Z</time>
      </trkpt>
      <trkpt lat="45.883" lon="3.71824">
        <ele>729</ele>
        <time>2024-12-08T02:00:35.619Z</time>
      </trkpt>
      <trkpt lat="45.883" lon="3.71826">
        <ele>729</ele>
        <time>2024-12-08T02:00:36.619Z</time>
      </trkpt>
      <trkpt lat="45.88301" lon="3.71828">
        <ele>729</ele>
        <time>2024-12-08T02:00:37.620Z</time>
      </trkpt>
      <trkpt lat="45.88301" lon="3.71829">
        <ele>729</ele>
        <time>2024-12-08T02:00:38.619Z</time>
      </trkpt>
      <trkpt lat="45.88301" lon="3.71831">
        <ele>729</ele>
        <time>2024-12-08T02:00:39.620Z</time>
      </trkpt>
      <trkpt lat="45.88301" lon="3.71833">
        <ele>729</ele>
        <time>2024-12-08T02:00:40.620Z</time>
      </trkpt>
      <trkpt lat="45.88302" lon="3.71835">
        <ele>729</ele>
        <time>2024-12-08T02:00:41.620Z</time>
      </trkpt>
      <trkpt lat="45.88302" lon="3.71836">
        <ele>729</ele>
        <time>2024-12-08T02:00:42.620Z</time>
      </trkpt>
      <trkpt lat="45.88302" lon="3.71838">
        <ele>729</ele>
        <time>2024-12-08T02:00:43.619Z</time>
      </trkpt>
      <trkpt lat="45.88303" lon="3.7184">
        <ele>729</ele>
        <time>2024-12-08T02:00:44.619Z</time>
      </trkpt>
      <trkpt lat="45.88303" lon="3.71842">
        <ele>729</ele>
        <time>2024-12-08T02:00:45.619Z</time>
      </trkpt>
      <trkpt lat="45.88303" lon="3.71844">
        <ele>729</ele>
        <time>2024-12-08T02:00:46.620Z</time>
      </trkpt>
      <trkpt lat="45.88303" lon="3.71846">
        <ele>729</ele>
        <time>2024-12-08T02:00:47.620Z</time>
      </trkpt>
      <trkpt lat="45.88303" lon="3.71848">
        <ele>729</ele>
        <time>2024-12-08T02:00:48.620Z</time>
      </trkpt>
      <trkpt lat="45.88303" lon="3.7185">
        <ele>729</ele>
        <time>2024-12-08T02:00:49.619Z</time>
      </trkpt>
      <trkpt lat="45.88304" lon="3.71851">
        <ele>729</ele>
        <time>2024-12-08T02:00:50.620Z</time>
      </trkpt>
      <trkpt lat="45.88304" lon="3.71853">
        <ele>729</ele>
        <time>2024-12-08T02:00:51.620Z</time>
      </trkpt>
      <trkpt lat="45.88304" lon="3.71855">
        <ele>729</ele>
        <time>2024-12-08T02:00:52.620Z</time>
      </trkpt>
      <trkpt lat="45.88304" lon="3.71857">
        <ele>728</ele>
        <time>2024-12-08T02:00:53.619Z</time>
      </trkpt>
      <trkpt lat="45.88304" lon="3.71859">
        <ele>728</ele>
        <time>2024-12-08T02:00:54.620Z</time>
      </trkpt>
      <trkpt lat="45.88304" lon="3.71861">
        <ele>729</ele>
        <time>2024-12-08T02:00:55.619Z</time>
      </trkpt>
      <trkpt lat="45.88305" lon="3.71862">
        <ele>729</ele>
        <time>2024-12-08T02:00:56.619Z</time>
      </trkpt>
      <trkpt lat="45.88305" lon="3.71864">
        <ele>729</ele>
        <time>2024-12-08T02:00:57.620Z</time>
      </trkpt>
      <trkpt lat="45.88305" lon="3.71866">
        <ele>729</ele>
        <time>2024-12-08T02:00:58.620Z</time>
      </trkpt>
      <trkpt lat="45.88305" lon="3.71868">
        <ele>729</ele>
        <time>2024-12-08T02:00:59.620Z</time>
      </trkpt>
      <trkpt lat="45.88305" lon="3.7187">
        <ele>729</ele>
        <time>2024-12-08T02:01:00.620Z</time>
      </trkpt>
      <trkpt lat="45.88305" lon="3.71872">
        <ele>729</ele>
        <time>2024-12-08T02:01:01.619Z</time>
      </trkpt>
      <trkpt lat="45.88306" lon="3.71874">
        <ele>730</ele>
        <time>2024-12-08T02:01:02.619Z</time>
      </trkpt>
      <trkpt lat="45.88306" lon="3.71876">
        <ele>730</ele>
        <time>2024-12-08T02:01:03.620Z</time>
      </trkpt>
      <trkpt lat="45.88306" lon="3.71878">
        <ele>730</ele>
        <time>2024-12-08T02:01:04.619Z</time>
      </trkpt>
      <trkpt lat="45.88306" lon="3.7188">
        <ele>730</ele>
        <time>2024-12-08T02:01:05.620Z</time>
      </trkpt>
      <trkpt lat="45.88307" lon="3.71881">
        <ele>731</ele>
        <time>2024-12-08T02:01:06.619Z</time>
      </trkpt>
      <trkpt lat="45.88307" lon="3.71884">
        <ele>731</ele>
        <time>2024-12-08T02:01:07.619Z</time>
      </trkpt>
      <trkpt lat="45.88307" lon="3.71886">
        <ele>731</ele>
        <time>2024-12-08T02:01:08.620Z</time>
      </trkpt>
      <trkpt lat="45.88308" lon="3.71888">
        <ele>731</ele>
        <time>2024-12-08T02:01:09.620Z</time>
      </trkpt>
      <trkpt lat="45.88308" lon="3.71889">
        <ele>731</ele>
        <time>2024-12-08T02:01:10.619Z</time>
      </trkpt>
      <trkpt lat="45.88308" lon="3.71891">
        <ele>731</ele>
        <time>2024-12-08T02:01:11.619Z</time>
      </trkpt>
      <trkpt lat="45.88309" lon="3.71893">
        <ele>731</ele>
        <time>2024-12-08T02:01:12.619Z</time>
      </trkpt>
      <trkpt lat="45.88309" lon="3.71895">
        <ele>732</ele>
        <time>2024-12-08T02:01:13.619Z</time>
      </trkpt>
      <trkpt lat="45.88309" lon="3.71897">
        <ele>732</ele>
        <time>2024-12-08T02:01:14.620Z</time>
      </trkpt>
      <trkpt lat="45.88309" lon="3.71899">
        <ele>732</ele>
        <time>2024-12-08T02:01:15.620Z</time>
      </trkpt>
      <trkpt lat="45.88309" lon="3.71901">
        <ele>732</ele>
        <time>2024-12-08T02:01:16.620Z</time>
      </trkpt>
      <trkpt lat="45.8831" lon="3.71902">
        <ele>732</ele>
        <time>2024-12-08T02:01:17.620Z</time>
      </trkpt>
      <trkpt lat="45.8831" lon="3.71904">
        <ele>733</ele>
        <time>2024-12-08T02:01:18.620Z</time>
      </trkpt>
      <trkpt lat="45.8831" lon="3.71906">
        <ele>733</ele>
        <time>2024-12-08T02:01:19.620Z</time>
      </trkpt>
      <trkpt lat="45.88311" lon="3.71908">
        <ele>733</ele>
        <time>2024-12-08T02:01:20.620Z</time>
      </trkpt>
      <trkpt lat="45.88311" lon="3.7191">
        <ele>733</ele>
        <time>2024-12-08T02:01:21.620Z</time>
      </trkpt>
      <trkpt lat="45.88312" lon="3.71912">
        <ele>734</ele>
        <time>2024-12-08T02:01:22.619Z</time>
      </trkpt>
      <trkpt lat="45.88312" lon="3.71914">
        <ele>734</ele>
        <time>2024-12-08T02:01:23.620Z</time>
      </trkpt>
      <trkpt lat="45.88312" lon="3.71916">
        <ele>734</ele>
        <time>2024-12-08T02:01:24.619Z</time>
      </trkpt>
      <trkpt lat="45.88312" lon="3.71918">
        <ele>734</ele>
        <time>2024-12-08T02:01:25.619Z</time>
      </trkpt>
      <trkpt lat="45.88312" lon="3.7192">
        <ele>734</ele>
        <time>2024-12-08T02:01:26.620Z</time>
      </trkpt>
      <trkpt lat="45.88313" lon="3.71922">
        <ele>734</ele>
        <time>2024-12-08T02:01:27.619Z</time>
      </trkpt>
      <trkpt lat="45.88313" lon="3.71924">
        <ele>734</ele>
        <time>2024-12-08T02:01:28.620Z</time>
      </trkpt>
      <trkpt lat="45.88313" lon="3.71926">
        <ele>734</ele>
        <time>2024-12-08T02:01:29.620Z</time>
      </trkpt>
      <trkpt lat="45.88313" lon="3.71928">
        <ele>734</ele>
        <time>2024-12-08T02:01:30.620Z</time>
      </trkpt>
      <trkpt lat="45.88313" lon="3.71931">
        <ele>734</ele>
        <time>2024-12-08T02:01:31.620Z</time>
      </trkpt>
      <trkpt lat="45.88314" lon="3.71933">
        <ele>734</ele>
        <time>2024-12-08T02:01:32.619Z</time>
      </trkpt>
      <trkpt lat="45.88314" lon="3.71935">
        <ele>734</ele>
        <time>2024-12-08T02:01:33.619Z</time>
      </trkpt>
      <trkpt lat="45.88314" lon="3.71936">
        <ele>734</ele>
        <time>2024-12-08T02:01:34.620Z</time>
      </trkpt>
      <trkpt lat="45.88314" lon="3.71938">
        <ele>734</ele>
        <time>2024-12-08T02:01:35.620Z</time>
      </trkpt>
      <trkpt lat="45.88315" lon="3.7194">
        <ele>734</ele>
        <time>2024-12-08T02:01:36.619Z</time>
      </trkpt>
      <trkpt lat="45.88315" lon="3.71942">
        <ele>734</ele>
        <time>2024-12-08T02:01:37.619Z</time>
      </trkpt>
      <trkpt lat="45.88315" lon="3.71944">
        <ele>734</ele>
        <time>2024-12-08T02:01:38.620Z</time>
      </trkpt>
      <trkpt lat="45.88315" lon="3.71946">
        <ele>733</ele>
        <time>2024-12-08T02:01:39.619Z</time>
      </trkpt>
      <trkpt lat="45.88315" lon="3.71948">
        <ele>733</ele>
        <time>2024-12-08T02:01:40.619Z</time>
      </trkpt>
      <trkpt lat="45.88316" lon="3.7195">
        <ele>733</ele>
        <time>2024-12-08T02:01:41.619Z</time>
      </trkpt>
      <trkpt lat="45.88316" lon="3.71952">
        <ele>734</ele>
        <time>2024-12-08T02:01:42.620Z</time>
      </trkpt>
      <trkpt lat="45.88316" lon="3.71954">
        <ele>734</ele>
        <time>2024-12-08T02:01:43.620Z</time>
      </trkpt>
      <trkpt lat="45.88317" lon="3.71956">
        <ele>734</ele>
        <time>2024-12-08T02:01:44.619Z</time>
      </trkpt>
      <trkpt lat="45.88317" lon="3.71958">
        <ele>734</ele>
        <time>2024-12-08T02:01:45.620Z</time>
      </trkpt>
      <trkpt lat="45.88318" lon="3.7196">
        <ele>735</ele>
        <time>2024-12-08T02:01:46.620Z</time>
      </trkpt>
      <trkpt lat="45.88318" lon="3.71962">
        <ele>735</ele>
        <time>2024-12-08T02:01:47.620Z</time>
      </trkpt>
      <trkpt lat="45.88318" lon="3.71964">
        <ele>736</ele>
        <time>2024-12-08T02:01:48.619Z</time>
      </trkpt>
      <trkpt lat="45.88319" lon="3.71965">
        <ele>736</ele>
        <time>2024-12-08T02:01:49.620Z</time>
      </trkpt>
      <trkpt lat="45.88319" lon="3.71967">
        <ele>736</ele>
        <time>2024-12-08T02:01:50.620Z</time>
      </trkpt>
      <trkpt lat="45.88319" lon="3.71969">
        <ele>736</ele>
        <time>2024-12-08T02:01:51.619Z</time>
      </trkpt>
      <trkpt lat="45.88319" lon="3.71971">
        <ele>736</ele>
        <time>2024-12-08T02:01:52.619Z</time>
      </trkpt>
      <trkpt lat="45.8832" lon="3.71972">
        <ele>736</ele>
        <time>2024-12-08T02:01:53.620Z</time>
      </trkpt>
      <trkpt lat="45.8832" lon="3.71975">
        <ele>736</ele>
        <time>2024-12-08T02:01:54.619Z</time>
      </trkpt>
      <trkpt lat="45.8832" lon="3.71976">
        <ele>736</ele>
        <time>2024-12-08T02:01:55.620Z</time>
      </trkpt>
      <trkpt lat="45.8832" lon="3.71978">
        <ele>737</ele>
        <time>2024-12-08T02:01:56.619Z</time>
      </trkpt>
      <trkpt lat="45.88321" lon="3.7198">
        <ele>737</ele>
        <time>2024-12-08T02:01:57.620Z</time>
      </trkpt>
      <trkpt lat="45.88321" lon="3.71982">
        <ele>737</ele>
        <time>2024-12-08T02:01:58.619Z</time>
      </trkpt>
      <trkpt lat="45.88321" lon="3.71984">
        <ele>738</ele>
        <time>2024-12-08T02:01:59.620Z</time>
      </trkpt>
      <trkpt lat="45.88322" lon="3.71985">
        <ele>738</ele>
        <time>2024-12-08T02:02:00.619Z</time>
      </trkpt>
      <trkpt lat="45.88322" lon="3.71987">
        <ele>738</ele>
        <time>2024-12-08T02:02:01.619Z</time>
      </trkpt>
      <trkpt lat="45.88322" lon="3.71989">
        <ele>738</ele>
        <time>2024-12-08T02:02:02.619Z</time>
      </trkpt>
      <trkpt lat="45.88322" lon="3.7199">
        <ele>738</ele>
        <time>2024-12-08T02:02:03.620Z</time>
      </trkpt>
      <trkpt lat="45.88322" lon="3.71992">
        <ele>739</ele>
        <time>2024-12-08T02:02:04.620Z</time>
      </trkpt>
      <trkpt lat="45.88322" lon="3.71994">
        <ele>739</ele>
        <time>2024-12-08T02:02:05.619Z</time>
      </trkpt>
      <trkpt lat="45.88322" lon="3.71996">
        <ele>739</ele>
        <time>2024-12-08T02:02:06.619Z</time>
      </trkpt>
      <trkpt lat="45.88323" lon="3.71998">
        <ele>739</ele>
        <time>2024-12-08T02:02:07.620Z</time>
      </trkpt>
      <trkpt lat="45.88323" lon="3.71999">
        <ele>739</ele>
        <time>2024-12-08T02:02:08.620Z</time>
      </trkpt>
      <trkpt lat="45.88323" lon="3.72001">
        <ele>739</ele>
        <time>2024-12-08T02:02:09.620Z</time>
      </trkpt>
      <trkpt lat="45.88324" lon="3.72004">
        <ele>739</ele>
        <time>2024-12-08T02:02:10.619Z</time>
      </trkpt>
      <trkpt lat="45.88324" lon="3.72006">
        <ele>739</ele>
        <time>2024-12-08T02:02:11.619Z</time>
      </trkpt>
      <trkpt lat="45.88324" lon="3.72008">
        <ele>739</ele>
        <time>2024-12-08T02:02:12.619Z</time>
      </trkpt>
      <trkpt lat="45.88324" lon="3.72009">
        <ele>739</ele>
        <time>2024-12-08T02:02:13.619Z</time>
      </trkpt>
      <trkpt lat="45.88324" lon="3.72011">
        <ele>739</ele>
        <time>2024-12-08T02:02:14.619Z</time>
      </trkpt>
      <trkpt lat="45.88324" lon="3.72013">
        <ele>740</ele>
        <time>2024-12-08T02:02:15.620Z</time>
      </trkpt>
      <trkpt lat="45.88324" lon="3.72015">
        <ele>740</ele>
        <time>2024-12-08T02:02:16.620Z</time>
      </trkpt>
      <trkpt lat="45.88325" lon="3.72017">
        <ele>740</ele>
        <time>2024-12-08T02:02:17.620Z</time>
      </trkpt>
      <trkpt lat="45.88325" lon="3.72019">
        <ele>740</ele>
        <time>2024-12-08T02:02:18.619Z</time>
      </trkpt>
      <trkpt lat="45.88325" lon="3.72021">
        <ele>740</ele>
        <time>2024-12-08T02:02:19.620Z</time>
      </trkpt>
      <trkpt lat="45.88325" lon="3.72023">
        <ele>741</ele>
        <time>2024-12-08T02:02:20.620Z</time>
      </trkpt>
      <trkpt lat="45.88326" lon="3.72024">
        <ele>741</ele>
        <time>2024-12-08T02:02:21.619Z</time>
      </trkpt>
      <trkpt lat="45.88326" lon="3.72026">
        <ele>741</ele>
        <time>2024-12-08T02:02:22.620Z</time>
      </trkpt>
      <trkpt lat="45.88326" lon="3.72028">
        <ele>741</ele>
        <time>2024-12-08T02:02:23.620Z</time>
      </trkpt>
      <trkpt lat="45.88326" lon="3.7203">
        <ele>741</ele>
        <time>2024-12-08T02:02:24.620Z</time>
      </trkpt>
      <trkpt lat="45.88326" lon="3.72032">
        <ele>741</ele>
        <time>2024-12-08T02:02:25.619Z</time>
      </trkpt>
      <trkpt lat="45.88327" lon="3.72034">
        <ele>741</ele>
        <time>2024-12-08T02:02:26.619Z</time>
      </trkpt>
      <trkpt lat="45.88327" lon="3.72036">
        <ele>741</ele>
        <time>2024-12-08T02:02:27.620Z</time>
      </trkpt>
      <trkpt lat="45.88327" lon="3.72038">
        <ele>742</ele>
        <time>2024-12-08T02:02:28.620Z</time>
      </trkpt>
      <trkpt lat="45.88327" lon="3.72039">
        <ele>742</ele>
        <time>2024-12-08T02:02:29.619Z</time>
      </trkpt>
      <trkpt lat="45.88327" lon="3.72041">
        <ele>742</ele>
        <time>2024-12-08T02:02:30.620Z</time>
      </trkpt>
      <trkpt lat="45.88328" lon="3.72043">
        <ele>742</ele>
        <time>2024-12-08T02:02:31.619Z</time>
      </trkpt>
      <trkpt lat="45.88328" lon="3.72045">
        <ele>742</ele>
        <time>2024-12-08T02:02:32.620Z</time>
      </trkpt>
      <trkpt lat="45.88328" lon="3.72047">
        <ele>742</ele>
        <time>2024-12-08T02:02:33.620Z</time>
      </trkpt>
      <trkpt lat="45.88328" lon="3.72049">
        <ele>742</ele>
        <time>2024-12-08T02:02:34.620Z</time>
      </trkpt>
      <trkpt lat="45.88328" lon="3.7205">
        <ele>742</ele>
        <time>2024-12-08T02:02:35.619Z</time>
      </trkpt>
      <trkpt lat="45.88328" lon="3.72052">
        <ele>742</ele>
        <time>2024-12-08T02:02:36.619Z</time>
      </trkpt>
      <trkpt lat="45.88329" lon="3.72054">
        <ele>742</ele>
        <time>2024-12-08T02:02:37.620Z</time>
      </trkpt>
      <trkpt lat="45.88329" lon="3.72056">
        <ele>742</ele>
        <time>2024-12-08T02:02:38.619Z</time>
      </trkpt>
      <trkpt lat="45.88329" lon="3.72058">
        <ele>742</ele>
        <time>2024-12-08T02:02:39.620Z</time>
      </trkpt>
      <trkpt lat="45.8833" lon="3.7206">
        <ele>742</ele>
        <time>2024-12-08T02:02:40.619Z</time>
      </trkpt>
      <trkpt lat="45.8833" lon="3.72062">
        <ele>742</ele>
        <time>2024-12-08T02:02:41.620Z</time>
      </trkpt>
      <trkpt lat="45.8833" lon="3.72064">
        <ele>742</ele>
        <time>2024-12-08T02:02:42.619Z</time>
      </trkpt>
      <trkpt lat="45.8833" lon="3.72065">
        <ele>742</ele>
        <time>2024-12-08T02:02:43.620Z</time>
      </trkpt>
      <trkpt lat="45.8833" lon="3.72067">
        <ele>743</ele>
        <time>2024-12-08T02:02:44.619Z</time>
      </trkpt>
      <trkpt lat="45.88331" lon="3.72069">
        <ele>743</ele>
        <time>2024-12-08T02:02:45.619Z</time>
      </trkpt>
      <trkpt lat="45.88331" lon="3.72071">
        <ele>744</ele>
        <time>2024-12-08T02:02:46.619Z</time>
      </trkpt>
      <trkpt lat="45.88331" lon="3.72073">
        <ele>744</ele>
        <time>2024-12-08T02:02:47.619Z</time>
      </trkpt>
      <trkpt lat="45.88331" lon="3.72075">
        <ele>744</ele>
        <time>2024-12-08T02:02:48.619Z</time>
      </trkpt>
      <trkpt lat="45.88332" lon="3.72076">
        <ele>745</ele>
        <time>2024-12-08T02:02:49.619Z</time>
      </trkpt>
      <trkpt lat="45.88332" lon="3.72078">
        <ele>745</ele>
        <time>2024-12-08T02:02:50.620Z</time>
      </trkpt>
      <trkpt lat="45.88332" lon="3.7208">
        <ele>745</ele>
        <time>2024-12-08T02:02:51.619Z</time>
      </trkpt>
      <trkpt lat="45.88332" lon="3.72082">
        <ele>745</ele>
        <time>2024-12-08T02:02:52.619Z</time>
      </trkpt>
      <trkpt lat="45.88332" lon="3.72084">
        <ele>745</ele>
        <time>2024-12-08T02:02:53.620Z</time>
      </trkpt>
      <trkpt lat="45.88332" lon="3.72086">
        <ele>746</ele>
        <time>2024-12-08T02:02:54.619Z</time>
      </trkpt>
      <trkpt lat="45.88332" lon="3.72088">
        <ele>746</ele>
        <time>2024-12-08T02:02:55.619Z</time>
      </trkpt>
      <trkpt lat="45.88332" lon="3.7209">
        <ele>746</ele>
        <time>2024-12-08T02:02:56.619Z</time>
      </trkpt>
      <trkpt lat="45.88332" lon="3.72091">
        <ele>746</ele>
        <time>2024-12-08T02:02:57.620Z</time>
      </trkpt>
      <trkpt lat="45.88332" lon="3.72093">
        <ele>746</ele>
        <time>2024-12-08T02:02:58.620Z</time>
      </trkpt>
      <trkpt lat="45.88332" lon="3.72095">
        <ele>746</ele>
        <time>2024-12-08T02:02:59.620Z</time>
      </trkpt>
      <trkpt lat="45.88333" lon="3.72097">
        <ele>747</ele>
        <time>2024-12-08T02:03:00.619Z</time>
      </trkpt>
      <trkpt lat="45.88333" lon="3.72099">
        <ele>747</ele>
        <time>2024-12-08T02:03:01.619Z</time>
      </trkpt>
      <trkpt lat="45.88333" lon="3.72102">
        <ele>748</ele>
        <time>2024-12-08T02:03:02.620Z</time>
      </trkpt>
      <trkpt lat="45.88334" lon="3.72104">
        <ele>748</ele>
        <time>2024-12-08T02:03:03.620Z</time>
      </trkpt>
      <trkpt lat="45.88334" lon="3.72105">
        <ele>749</ele>
        <time>2024-12-08T02:03:04.619Z</time>
      </trkpt>
      <trkpt lat="45.88335" lon="3.72107">
        <ele>749</ele>
        <time>2024-12-08T02:03:05.620Z</time>
      </trkpt>
      <trkpt lat="45.88335" lon="3.72109">
        <ele>749</ele>
        <time>2024-12-08T02:03:06.619Z</time>
      </trkpt>
      <trkpt lat="45.88336" lon="3.7211">
        <ele>750</ele>
        <time>2024-12-08T02:03:07.620Z</time>
      </trkpt>
      <trkpt lat="45.88336" lon="3.72112">
        <ele>750</ele>
        <time>2024-12-08T02:03:08.619Z</time>
      </trkpt>
      <trkpt lat="45.88336" lon="3.72114">
        <ele>750</ele>
        <time>2024-12-08T02:03:09.620Z</time>
      </trkpt>
      <trkpt lat="45.88337" lon="3.72116">
        <ele>750</ele>
        <time>2024-12-08T02:03:10.620Z</time>
      </trkpt>
      <trkpt lat="45.88337" lon="3.72118">
        <ele>750</ele>
        <time>2024-12-08T02:03:11.620Z</time>
      </trkpt>
      <trkpt lat="45.88338" lon="3.7212">
        <ele>751</ele>
        <time>2024-12-08T02:03:12.620Z</time>
      </trkpt>
      <trkpt lat="45.88338" lon="3.72122">
        <ele>751</ele>
        <time>2024-12-08T02:03:13.619Z</time>
      </trkpt>
      <trkpt lat="45.88338" lon="3.72123">
        <ele>751</ele>
        <time>2024-12-08T02:03:14.620Z</time>
      </trkpt>
      <trkpt lat="45.88339" lon="3.72125">
        <ele>751</ele>
        <time>2024-12-08T02:03:15.619Z</time>
      </trkpt>
      <trkpt lat="45.88339" lon="3.72127">
        <ele>751</ele>
        <time>2024-12-08T02:03:16.620Z</time>
      </trkpt>
      <trkpt lat="45.8834" lon="3.72129">
        <ele>752</ele>
        <time>2024-12-08T02:03:17.619Z</time>
      </trkpt>
      <trkpt lat="45.8834" lon="3.72131">
        <ele>752</ele>
        <time>2024-12-08T02:03:18.620Z</time>
      </trkpt>
      <trkpt lat="45.88341" lon="3.72134">
        <ele>752</ele>
        <time>2024-12-08T02:03:19.620Z</time>
      </trkpt>
      <trkpt lat="45.88341" lon="3.72136">
        <ele>752</ele>
        <time>2024-12-08T02:03:20.619Z</time>
      </trkpt>
      <trkpt lat="45.88342" lon="3.72138">
        <ele>753</ele>
        <time>2024-12-08T02:03:21.619Z</time>
      </trkpt>
      <trkpt lat="45.88342" lon="3.7214">
        <ele>753</ele>
        <time>2024-12-08T02:03:22.620Z</time>
      </trkpt>
      <trkpt lat="45.88343" lon="3.72142">
        <ele>753</ele>
        <time>2024-12-08T02:03:23.620Z</time>
      </trkpt>
      <trkpt lat="45.88344" lon="3.72143">
        <ele>754</ele>
        <time>2024-12-08T02:03:24.620Z</time>
      </trkpt>
      <trkpt lat="45.88345" lon="3.72145">
        <ele>754</ele>
        <time>2024-12-08T02:03:25.620Z</time>
      </trkpt>
      <trkpt lat="45.88345" lon="3.72147">
        <ele>754</ele>
        <time>2024-12-08T02:03:26.620Z</time>
      </trkpt>
      <trkpt lat="45.88346" lon="3.72149">
        <ele>754</ele>
        <time>2024-12-08T02:03:27.619Z</time>
      </trkpt>
      <trkpt lat="45.88347" lon="3.72151">
        <ele>754</ele>
        <time>2024-12-08T02:03:28.619Z</time>
      </trkpt>
      <trkpt lat="45.88347" lon="3.72153">
        <ele>755</ele>
        <time>2024-12-08T02:03:29.619Z</time>
      </trkpt>
      <trkpt lat="45.88348" lon="3.72155">
        <ele>755</ele>
        <time>2024-12-08T02:03:30.620Z</time>
      </trkpt>
      <trkpt lat="45.88348" lon="3.72156">
        <ele>755</ele>
        <time>2024-12-08T02:03:31.620Z</time>
      </trkpt>
      <trkpt lat="45.88348" lon="3.72158">
        <ele>755</ele>
        <time>2024-12-08T02:03:32.619Z</time>
      </trkpt>
      <trkpt lat="45.88348" lon="3.7216">
        <ele>755</ele>
        <time>2024-12-08T02:03:33.620Z</time>
      </trkpt>
      <trkpt lat="45.88349" lon="3.72163">
        <ele>755</ele>
        <time>2024-12-08T02:03:34.620Z</time>
      </trkpt>
      <trkpt lat="45.88349" lon="3.72165">
        <ele>755</ele>
        <time>2024-12-08T02:03:35.619Z</time>
      </trkpt>
      <trkpt lat="45.8835" lon="3.72167">
        <ele>756</ele>
        <time>2024-12-08T02:03:36.619Z</time>
      </trkpt>
      <trkpt lat="45.88351" lon="3.72168">
        <ele>756</ele>
        <time>2024-12-08T02:03:37.619Z</time>
      </trkpt>
      <trkpt lat="45.88351" lon="3.7217">
        <ele>756</ele>
        <time>2024-12-08T02:03:38.620Z</time>
      </trkpt>
      <trkpt lat="45.88352" lon="3.72171">
        <ele>756</ele>
        <time>2024-12-08T02:03:39.619Z</time>
      </trkpt>
      <trkpt lat="45.88353" lon="3.72173">
        <ele>756</ele>
        <time>2024-12-08T02:03:40.619Z</time>
      </trkpt>
      <trkpt lat="45.88354" lon="3.72175">
        <ele>756</ele>
        <time>2024-12-08T02:03:41.619Z</time>
      </trkpt>
      <trkpt lat="45.88354" lon="3.72176">
        <ele>756</ele>
        <time>2024-12-08T02:03:42.619Z</time>
      </trkpt>
      <trkpt lat="45.88355" lon="3.72178">
        <ele>756</ele>
        <time>2024-12-08T02:03:43.619Z</time>
      </trkpt>
      <trkpt lat="45.88355" lon="3.7218">
        <ele>756</ele>
        <time>2024-12-08T02:03:44.620Z</time>
      </trkpt>
      <trkpt lat="45.88355" lon="3.72182">
        <ele>756</ele>
        <time>2024-12-08T02:03:45.620Z</time>
      </trkpt>
      <trkpt lat="45.88356" lon="3.72185">
        <ele>756</ele>
        <time>2024-12-08T02:03:46.619Z</time>
      </trkpt>
      <trkpt lat="45.88356" lon="3.72187">
        <ele>756</ele>
        <time>2024-12-08T02:03:47.619Z</time>
      </trkpt>
      <trkpt lat="45.88356" lon="3.72189">
        <ele>756</ele>
        <time>2024-12-08T02:03:48.619Z</time>
      </trkpt>
      <trkpt lat="45.88357" lon="3.72191">
        <ele>757</ele>
        <time>2024-12-08T02:03:49.619Z</time>
      </trkpt>
      <trkpt lat="45.88358" lon="3.72194">
        <ele>757</ele>
        <time>2024-12-08T02:03:50.619Z</time>
      </trkpt>
      <trkpt lat="45.88359" lon="3.72196">
        <ele>757</ele>
        <time>2024-12-08T02:03:51.619Z</time>
      </trkpt>
      <trkpt lat="45.88359" lon="3.72198">
        <ele>757</ele>
        <time>2024-12-08T02:03:52.619Z</time>
      </trkpt>
      <trkpt lat="45.88361" lon="3.722">
        <ele>757</ele>
        <time>2024-12-08T02:03:53.619Z</time>
      </trkpt>
      <trkpt lat="45.88361" lon="3.72202">
        <ele>757</ele>
        <time>2024-12-08T02:03:54.619Z</time>
      </trkpt>
      <trkpt lat="45.88362" lon="3.72204">
        <ele>756</ele>
        <time>2024-12-08T02:03:55.619Z</time>
      </trkpt>
      <trkpt lat="45.88362" lon="3.72206">
        <ele>756</ele>
        <time>2024-12-08T02:03:56.620Z</time>
      </trkpt>
      <trkpt lat="45.88363" lon="3.72208">
        <ele>756</ele>
        <time>2024-12-08T02:03:57.619Z</time>
      </trkpt>
      <trkpt lat="45.88364" lon="3.7221">
        <ele>756</ele>
        <time>2024-12-08T02:03:58.619Z</time>
      </trkpt>
      <trkpt lat="45.88365" lon="3.72212">
        <ele>756</ele>
        <time>2024-12-08T02:03:59.619Z</time>
      </trkpt>
      <trkpt lat="45.88366" lon="3.72214">
        <ele>757</ele>
        <time>2024-12-08T02:04:00.619Z</time>
      </trkpt>
      <trkpt lat="45.88367" lon="3.72216">
        <ele>757</ele>
        <time>2024-12-08T02:04:01.620Z</time>
      </trkpt>
      <trkpt lat="45.88367" lon="3.72217">
        <ele>757</ele>
        <time>2024-12-08T02:04:02.619Z</time>
      </trkpt>
      <trkpt lat="45.88368" lon="3.72219">
        <ele>757</ele>
        <time>2024-12-08T02:04:03.619Z</time>
      </trkpt>
      <trkpt lat="45.88368" lon="3.72221">
        <ele>757</ele>
        <time>2024-12-08T02:04:04.619Z</time>
      </trkpt>
      <trkpt lat="45.88369" lon="3.72223">
        <ele>757</ele>
        <time>2024-12-08T02:04:05.619Z</time>
      </trkpt>
      <trkpt lat="45.8837" lon="3.72225">
        <ele>757</ele>
        <time>2024-12-08T02:04:06.619Z</time>
      </trkpt>
      <trkpt lat="45.8837" lon="3.72227">
        <ele>757</ele>
        <time>2024-12-08T02:04:07.620Z</time>
      </trkpt>
      <trkpt lat="45.88371" lon="3.72229">
        <ele>757</ele>
        <time>2024-12-08T02:04:08.619Z</time>
      </trkpt>
      <trkpt lat="45.88372" lon="3.7223">
        <ele>758</ele>
        <time>2024-12-08T02:04:09.619Z</time>
      </trkpt>
      <trkpt lat="45.88371" lon="3.72232">
        <ele>758</ele>
        <time>2024-12-08T02:04:10.619Z</time>
      </trkpt>
      <trkpt lat="45.88372" lon="3.72234">
        <ele>758</ele>
        <time>2024-12-08T02:04:11.619Z</time>
      </trkpt>
      <trkpt lat="45.88372" lon="3.72236">
        <ele>758</ele>
        <time>2024-12-08T02:04:12.620Z</time>
      </trkpt>
      <trkpt lat="45.88373" lon="3.72238">
        <ele>758</ele>
        <time>2024-12-08T02:04:13.620Z</time>
      </trkpt>
      <trkpt lat="45.88372" lon="3.7224">
        <ele>758</ele>
        <time>2024-12-08T02:04:14.620Z</time>
      </trkpt>
      <trkpt lat="45.88372" lon="3.72243">
        <ele>758</ele>
        <time>2024-12-08T02:04:15.619Z</time>
      </trkpt>
      <trkpt lat="45.88372" lon="3.72245">
        <ele>758</ele>
        <time>2024-12-08T02:04:16.620Z</time>
      </trkpt>
      <trkpt lat="45.88372" lon="3.72247">
        <ele>758</ele>
        <time>2024-12-08T02:04:17.619Z</time>
      </trkpt>
      <trkpt lat="45.88371" lon="3.7225">
        <ele>759</ele>
        <time>2024-12-08T02:04:18.619Z</time>
      </trkpt>
      <trkpt lat="45.88371" lon="3.72252">
        <ele>759</ele>
        <time>2024-12-08T02:04:19.620Z</time>
      </trkpt>
      <trkpt lat="45.88371" lon="3.72255">
        <ele>759</ele>
        <time>2024-12-08T02:04:20.619Z</time>
      </trkpt>
      <trkpt lat="45.88372" lon="3.72257">
        <ele>759</ele>
        <time>2024-12-08T02:04:21.619Z</time>
      </trkpt>
      <trkpt lat="45.88372" lon="3.72259">
        <ele>760</ele>
        <time>2024-12-08T02:04:22.619Z</time>
      </trkpt>
      <trkpt lat="45.88371" lon="3.72261">
        <ele>760</ele>
        <time>2024-12-08T02:04:23.619Z</time>
      </trkpt>
      <trkpt lat="45.88372" lon="3.72264">
        <ele>760</ele>
        <time>2024-12-08T02:04:24.619Z</time>
      </trkpt>
      <trkpt lat="45.88372" lon="3.72266">
        <ele>761</ele>
        <time>2024-12-08T02:04:25.619Z</time>
      </trkpt>
      <trkpt lat="45.88372" lon="3.72267">
        <ele>761</ele>
        <time>2024-12-08T02:04:26.620Z</time>
      </trkpt>
      <trkpt lat="45.88373" lon="3.72269">
        <ele>761</ele>
        <time>2024-12-08T02:04:27.619Z</time>
      </trkpt>
      <trkpt lat="45.88373" lon="3.72271">
        <ele>761</ele>
        <time>2024-12-08T02:04:28.620Z</time>
      </trkpt>
      <trkpt lat="45.88373" lon="3.72272">
        <ele>761</ele>
        <time>2024-12-08T02:04:29.619Z</time>
      </trkpt>
      <trkpt lat="45.88372" lon="3.72274">
        <ele>761</ele>
        <time>2024-12-08T02:04:30.619Z</time>
      </trkpt>
      <trkpt lat="45.88372" lon="3.72276">
        <ele>761</ele>
        <time>2024-12-08T02:04:31.619Z</time>
      </trkpt>
      <trkpt lat="45.88373" lon="3.72279">
        <ele>761</ele>
        <time>2024-12-08T02:04:32.620Z</time>
      </trkpt>
      <trkpt lat="45.88372" lon="3.7228">
        <ele>761</ele>
        <time>2024-12-08T02:04:33.620Z</time>
      </trkpt>
      <trkpt lat="45.88372" lon="3.72282">
        <ele>762</ele>
        <time>2024-12-08T02:04:34.619Z</time>
      </trkpt>
      <trkpt lat="45.88372" lon="3.72285">
        <ele>762</ele>
        <time>2024-12-08T02:04:35.620Z</time>
      </trkpt>
      <trkpt lat="45.88371" lon="3.72287">
        <ele>762</ele>
        <time>2024-12-08T02:04:36.619Z</time>
      </trkpt>
      <trkpt lat="45.88371" lon="3.7229">
        <ele>762</ele>
        <time>2024-12-08T02:04:37.619Z</time>
      </trkpt>
      <trkpt lat="45.88371" lon="3.72292">
        <ele>762</ele>
        <time>2024-12-08T02:04:38.620Z</time>
      </trkpt>
      <trkpt lat="45.88371" lon="3.72293">
        <ele>762</ele>
        <time>2024-12-08T02:04:39.620Z</time>
      </trkpt>
      <trkpt lat="45.88371" lon="3.72294">
        <ele>762</ele>
        <time>2024-12-08T02:04:40.619Z</time>
      </trkpt>
      <trkpt lat="45.88371" lon="3.72295">
        <ele>762</ele>
        <time>2024-12-08T02:04:41.619Z</time>
      </trkpt>
      <trkpt lat="45.88371" lon="3.72298">
        <ele>762</ele>
        <time>2024-12-08T02:04:42.619Z</time>
      </trkpt>
      <trkpt lat="45.88371" lon="3.72301">
        <ele>763</ele>
        <time>2024-12-08T02:04:43.620Z</time>
      </trkpt>
      <trkpt lat="45.88371" lon="3.72303">
        <ele>763</ele>
        <time>2024-12-08T02:04:44.619Z</time>
      </trkpt>
      <trkpt lat="45.88371" lon="3.72305">
        <ele>763</ele>
        <time>2024-12-08T02:04:45.620Z</time>
      </trkpt>
      <trkpt lat="45.88371" lon="3.72308">
        <ele>763</ele>
        <time>2024-12-08T02:04:46.619Z</time>
      </trkpt>
      <trkpt lat="45.88371" lon="3.7231">
        <ele>763</ele>
        <time>2024-12-08T02:04:47.620Z</time>
      </trkpt>
      <trkpt lat="45.88372" lon="3.72312">
        <ele>763</ele>
        <time>2024-12-08T02:04:48.620Z</time>
      </trkpt>
      <trkpt lat="45.88372" lon="3.72314">
        <ele>763</ele>
        <time>2024-12-08T02:04:49.619Z</time>
      </trkpt>
      <trkpt lat="45.88372" lon="3.72316">
        <ele>763</ele>
        <time>2024-12-08T02:04:50.620Z</time>
      </trkpt>
      <trkpt lat="45.88373" lon="3.72318">
        <ele>763</ele>
        <time>2024-12-08T02:04:51.620Z</time>
      </trkpt>
      <trkpt lat="45.88373" lon="3.7232">
        <ele>763</ele>
        <time>2024-12-08T02:04:52.619Z</time>
      </trkpt>
      <trkpt lat="45.88373" lon="3.72322">
        <ele>762</ele>
        <time>2024-12-08T02:04:53.619Z</time>
      </trkpt>
      <trkpt lat="45.88374" lon="3.72324">
        <ele>762</ele>
        <time>2024-12-08T02:04:54.620Z</time>
      </trkpt>
      <trkpt lat="45.88374" lon="3.72326">
        <ele>761</ele>
        <time>2024-12-08T02:04:55.619Z</time>
      </trkpt>
      <trkpt lat="45.88374" lon="3.72329">
        <ele>761</ele>
        <time>2024-12-08T02:04:56.620Z</time>
      </trkpt>
      <trkpt lat="45.88375" lon="3.72331">
        <ele>761</ele>
        <time>2024-12-08T02:04:57.619Z</time>
      </trkpt>
      <trkpt lat="45.88375" lon="3.72333">
        <ele>760</ele>
        <time>2024-12-08T02:04:58.620Z</time>
      </trkpt>
      <trkpt lat="45.88375" lon="3.72335">
        <ele>760</ele>
        <time>2024-12-08T02:04:59.619Z</time>
      </trkpt>
      <trkpt lat="45.88375" lon="3.72337">
        <ele>759</ele>
        <time>2024-12-08T02:05:00.619Z</time>
      </trkpt>
      <trkpt lat="45.88375" lon="3.72339">
        <ele>759</ele>
        <time>2024-12-08T02:05:01.619Z</time>
      </trkpt>
      <trkpt lat="45.88374" lon="3.72342">
        <ele>759</ele>
        <time>2024-12-08T02:05:02.620Z</time>
      </trkpt>
      <trkpt lat="45.88374" lon="3.72344">
        <ele>759</ele>
        <time>2024-12-08T02:05:03.620Z</time>
      </trkpt>
      <trkpt lat="45.88374" lon="3.72346">
        <ele>759</ele>
        <time>2024-12-08T02:05:04.619Z</time>
      </trkpt>
      <trkpt lat="45.88373" lon="3.72348">
        <ele>759</ele>
        <time>2024-12-08T02:05:05.619Z</time>
      </trkpt>
      <trkpt lat="45.88373" lon="3.7235">
        <ele>759</ele>
        <time>2024-12-08T02:05:06.619Z</time>
      </trkpt>
      <trkpt lat="45.88373" lon="3.72351">
        <ele>759</ele>
        <time>2024-12-08T02:05:07.619Z</time>
      </trkpt>
      <trkpt lat="45.88373" lon="3.72353">
        <ele>759</ele>
        <time>2024-12-08T02:05:08.619Z</time>
      </trkpt>
      <trkpt lat="45.88373" lon="3.72355">
        <ele>759</ele>
        <time>2024-12-08T02:05:09.619Z</time>
      </trkpt>
      <trkpt lat="45.88373" lon="3.72357">
        <ele>759</ele>
        <time>2024-12-08T02:05:10.619Z</time>
      </trkpt>
      <trkpt lat="45.88373" lon="3.72359">
        <ele>759</ele>
        <time>2024-12-08T02:05:11.620Z</time>
      </trkpt>
      <trkpt lat="45.88373" lon="3.72361">
        <ele>759</ele>
        <time>2024-12-08T02:05:12.619Z</time>
      </trkpt>
      <trkpt lat="45.88373" lon="3.72364">
        <ele>759</ele>
        <time>2024-12-08T02:05:13.620Z</time>
      </trkpt>
      <trkpt lat="45.88373" lon="3.72365">
        <ele>759</ele>
        <time>2024-12-08T02:05:14.620Z</time>
      </trkpt>
      <trkpt lat="45.88373" lon="3.72367">
        <ele>759</ele>
        <time>2024-12-08T02:05:15.619Z</time>
      </trkpt>
      <trkpt lat="45.88372" lon="3.72369">
        <ele>759</ele>
        <time>2024-12-08T02:05:16.619Z</time>
      </trkpt>
      <trkpt lat="45.88372" lon="3.72371">
        <ele>758</ele>
        <time>2024-12-08T02:05:17.619Z</time>
      </trkpt>
      <trkpt lat="45.88372" lon="3.72373">
        <ele>758</ele>
        <time>2024-12-08T02:05:18.620Z</time>
      </trkpt>
      <trkpt lat="45.88371" lon="3.72375">
        <ele>758</ele>
        <time>2024-12-08T02:05:19.619Z</time>
      </trkpt>
      <trkpt lat="45.88371" lon="3.72377">
        <ele>758</ele>
        <time>2024-12-08T02:05:20.620Z</time>
      </trkpt>
      <trkpt lat="45.88371" lon="3.72379">
        <ele>758</ele>
        <time>2024-12-08T02:05:21.619Z</time>
      </trkpt>
      <trkpt lat="45.88371" lon="3.72381">
        <ele>757</ele>
        <time>2024-12-08T02:05:22.619Z</time>
      </trkpt>
      <trkpt lat="45.88371" lon="3.72383">
        <ele>758</ele>
        <time>2024-12-08T02:05:23.619Z</time>
      </trkpt>
      <trkpt lat="45.88372" lon="3.72384">
        <ele>757</ele>
        <time>2024-12-08T02:05:24.620Z</time>
      </trkpt>
      <trkpt lat="45.88371" lon="3.72386">
        <ele>757</ele>
        <time>2024-12-08T02:05:25.619Z</time>
      </trkpt>
      <trkpt lat="45.88371" lon="3.72387">
        <ele>757</ele>
        <time>2024-12-08T02:05:26.619Z</time>
      </trkpt>
      <trkpt lat="45.88371" lon="3.72389">
        <ele>757</ele>
        <time>2024-12-08T02:05:27.620Z</time>
      </trkpt>
      <trkpt lat="45.88371" lon="3.72391">
        <ele>756</ele>
        <time>2024-12-08T02:05:28.620Z</time>
      </trkpt>
      <trkpt lat="45.88371" lon="3.72394">
        <ele>756</ele>
        <time>2024-12-08T02:05:29.619Z</time>
      </trkpt>
      <trkpt lat="45.88371" lon="3.72395">
        <ele>757</ele>
        <time>2024-12-08T02:05:30.620Z</time>
      </trkpt>
      <trkpt lat="45.8837" lon="3.72397">
        <ele>757</ele>
        <time>2024-12-08T02:05:31.620Z</time>
      </trkpt>
      <trkpt lat="45.8837" lon="3.72399">
        <ele>757</ele>
        <time>2024-12-08T02:05:32.620Z</time>
      </trkpt>
      <trkpt lat="45.8837" lon="3.72401">
        <ele>757</ele>
        <time>2024-12-08T02:05:33.620Z</time>
      </trkpt>
      <trkpt lat="45.8837" lon="3.72402">
        <ele>757</ele>
        <time>2024-12-08T02:05:34.619Z</time>
      </trkpt>
      <trkpt lat="45.8837" lon="3.72404">
        <ele>758</ele>
        <time>2024-12-08T02:05:35.619Z</time>
      </trkpt>
      <trkpt lat="45.88369" lon="3.72407">
        <ele>758</ele>
        <time>2024-12-08T02:05:36.619Z</time>
      </trkpt>
      <trkpt lat="45.88369" lon="3.72409">
        <ele>758</ele>
        <time>2024-12-08T02:05:37.620Z</time>
      </trkpt>
      <trkpt lat="45.88369" lon="3.7241">
        <ele>758</ele>
        <time>2024-12-08T02:05:38.619Z</time>
      </trkpt>
      <trkpt lat="45.88369" lon="3.72412">
        <ele>758</ele>
        <time>2024-12-08T02:05:39.619Z</time>
      </trkpt>
      <trkpt lat="45.88369" lon="3.72414">
        <ele>758</ele>
        <time>2024-12-08T02:05:40.619Z</time>
      </trkpt>
      <trkpt lat="45.88369" lon="3.72416">
        <ele>758</ele>
        <time>2024-12-08T02:05:41.619Z</time>
      </trkpt>
      <trkpt lat="45.88369" lon="3.72418">
        <ele>758</ele>
        <time>2024-12-08T02:05:42.619Z</time>
      </trkpt>
      <trkpt lat="45.88369" lon="3.7242">
        <ele>759</ele>
        <time>2024-12-08T02:05:43.619Z</time>
      </trkpt>
      <trkpt lat="45.88369" lon="3.72422">
        <ele>759</ele>
        <time>2024-12-08T02:05:44.620Z</time>
      </trkpt>
      <trkpt lat="45.88369" lon="3.72424">
        <ele>759</ele>
        <time>2024-12-08T02:05:45.619Z</time>
      </trkpt>
      <trkpt lat="45.88368" lon="3.72425">
        <ele>759</ele>
        <time>2024-12-08T02:05:46.620Z</time>
      </trkpt>
      <trkpt lat="45.88368" lon="3.72427">
        <ele>759</ele>
        <time>2024-12-08T02:05:47.620Z</time>
      </trkpt>
      <trkpt lat="45.88368" lon="3.72429">
        <ele>759</ele>
        <time>2024-12-08T02:05:48.620Z</time>
      </trkpt>
      <trkpt lat="45.88367" lon="3.72431">
        <ele>759</ele>
        <time>2024-12-08T02:05:49.619Z</time>
      </trkpt>
      <trkpt lat="45.88367" lon="3.72433">
        <ele>760</ele>
        <time>2024-12-08T02:05:50.619Z</time>
      </trkpt>
      <trkpt lat="45.88367" lon="3.72435">
        <ele>760</ele>
        <time>2024-12-08T02:05:51.620Z</time>
      </trkpt>
      <trkpt lat="45.88367" lon="3.72437">
        <ele>760</ele>
        <time>2024-12-08T02:05:52.619Z</time>
      </trkpt>
      <trkpt lat="45.88367" lon="3.72439">
        <ele>760</ele>
        <time>2024-12-08T02:05:53.620Z</time>
      </trkpt>
      <trkpt lat="45.88367" lon="3.72441">
        <ele>761</ele>
        <time>2024-12-08T02:05:54.619Z</time>
      </trkpt>
      <trkpt lat="45.88367" lon="3.72443">
        <ele>761</ele>
        <time>2024-12-08T02:05:55.619Z</time>
      </trkpt>
      <trkpt lat="45.88367" lon="3.72445">
        <ele>761</ele>
        <time>2024-12-08T02:05:56.620Z</time>
      </trkpt>
      <trkpt lat="45.88367" lon="3.72446">
        <ele>761</ele>
        <time>2024-12-08T02:05:57.619Z</time>
      </trkpt>
      <trkpt lat="45.88367" lon="3.72448">
        <ele>762</ele>
        <time>2024-12-08T02:05:58.620Z</time>
      </trkpt>
      <trkpt lat="45.88367" lon="3.7245">
        <ele>762</ele>
        <time>2024-12-08T02:05:59.619Z</time>
      </trkpt>
      <trkpt lat="45.88367" lon="3.72452">
        <ele>761</ele>
        <time>2024-12-08T02:06:00.620Z</time>
      </trkpt>
      <trkpt lat="45.88367" lon="3.72454">
        <ele>761</ele>
        <time>2024-12-08T02:06:01.619Z</time>
      </trkpt>
      <trkpt lat="45.88366" lon="3.72455">
        <ele>761</ele>
        <time>2024-12-08T02:06:02.620Z</time>
      </trkpt>
      <trkpt lat="45.88367" lon="3.72457">
        <ele>761</ele>
        <time>2024-12-08T02:06:03.619Z</time>
      </trkpt>
      <trkpt lat="45.88367" lon="3.72458">
        <ele>762</ele>
        <time>2024-12-08T02:06:04.620Z</time>
      </trkpt>
      <trkpt lat="45.88367" lon="3.7246">
        <ele>762</ele>
        <time>2024-12-08T02:06:05.619Z</time>
      </trkpt>
      <trkpt lat="45.88367" lon="3.72462">
        <ele>762</ele>
        <time>2024-12-08T02:06:06.620Z</time>
      </trkpt>
      <trkpt lat="45.88367" lon="3.72464">
        <ele>763</ele>
        <time>2024-12-08T02:06:07.619Z</time>
      </trkpt>
      <trkpt lat="45.88367" lon="3.72466">
        <ele>764</ele>
        <time>2024-12-08T02:06:08.620Z</time>
      </trkpt>
      <trkpt lat="45.88367" lon="3.72467">
        <ele>764</ele>
        <time>2024-12-08T02:06:09.620Z</time>
      </trkpt>
      <trkpt lat="45.88366" lon="3.72469">
        <ele>764</ele>
        <time>2024-12-08T02:06:10.620Z</time>
      </trkpt>
      <trkpt lat="45.88366" lon="3.72471">
        <ele>764</ele>
        <time>2024-12-08T02:06:11.620Z</time>
      </trkpt>
      <trkpt lat="45.88365" lon="3.72472">
        <ele>764</ele>
        <time>2024-12-08T02:06:12.619Z</time>
      </trkpt>
      <trkpt lat="45.88365" lon="3.72474">
        <ele>764</ele>
        <time>2024-12-08T02:06:13.619Z</time>
      </trkpt>
      <trkpt lat="45.88365" lon="3.72475">
        <ele>764</ele>
        <time>2024-12-08T02:06:14.619Z</time>
      </trkpt>
      <trkpt lat="45.88365" lon="3.72477">
        <ele>764</ele>
        <time>2024-12-08T02:06:15.619Z</time>
      </trkpt>
      <trkpt lat="45.88365" lon="3.72479">
        <ele>764</ele>
        <time>2024-12-08T02:06:16.620Z</time>
      </trkpt>
      <trkpt lat="45.88365" lon="3.72481">
        <ele>765</ele>
        <time>2024-12-08T02:06:17.620Z</time>
      </trkpt>
      <trkpt lat="45.88365" lon="3.72483">
        <ele>765</ele>
        <time>2024-12-08T02:06:18.619Z</time>
      </trkpt>
      <trkpt lat="45.88364" lon="3.72484">
        <ele>765</ele>
        <time>2024-12-08T02:06:19.619Z</time>
      </trkpt>
      <trkpt lat="45.88364" lon="3.72486">
        <ele>765</ele>
        <time>2024-12-08T02:06:20.619Z</time>
      </trkpt>
      <trkpt lat="45.88364" lon="3.72488">
        <ele>765</ele>
        <time>2024-12-08T02:06:21.619Z</time>
      </trkpt>
      <trkpt lat="45.88364" lon="3.7249">
        <ele>766</ele>
        <time>2024-12-08T02:06:22.620Z</time>
      </trkpt>
      <trkpt lat="45.88364" lon="3.72492">
        <ele>766</ele>
        <time>2024-12-08T02:06:23.619Z</time>
      </trkpt>
      <trkpt lat="45.88364" lon="3.72493">
        <ele>766</ele>
        <time>2024-12-08T02:06:24.620Z</time>
      </trkpt>
      <trkpt lat="45.88364" lon="3.72495">
        <ele>766</ele>
        <time>2024-12-08T02:06:25.619Z</time>
      </trkpt>
      <trkpt lat="45.88364" lon="3.72497">
        <ele>767</ele>
        <time>2024-12-08T02:06:26.620Z</time>
      </trkpt>
      <trkpt lat="45.88364" lon="3.72498">
        <ele>767</ele>
        <time>2024-12-08T02:06:27.619Z</time>
      </trkpt>
      <trkpt lat="45.88364" lon="3.725">
        <ele>767</ele>
        <time>2024-12-08T02:06:28.619Z</time>
      </trkpt>
      <trkpt lat="45.88364" lon="3.72502">
        <ele>767</ele>
        <time>2024-12-08T02:06:29.619Z</time>
      </trkpt>
      <trkpt lat="45.88364" lon="3.72504">
        <ele>767</ele>
        <time>2024-12-08T02:06:30.620Z</time>
      </trkpt>
      <trkpt lat="45.88364" lon="3.72505">
        <ele>767</ele>
        <time>2024-12-08T02:06:31.619Z</time>
      </trkpt>
      <trkpt lat="45.88364" lon="3.72507">
        <ele>768</ele>
        <time>2024-12-08T02:06:32.619Z</time>
      </trkpt>
      <trkpt lat="45.88364" lon="3.72509">
        <ele>768</ele>
        <time>2024-12-08T02:06:33.619Z</time>
      </trkpt>
      <trkpt lat="45.88364" lon="3.7251">
        <ele>768</ele>
        <time>2024-12-08T02:06:34.620Z</time>
      </trkpt>
      <trkpt lat="45.88363" lon="3.72512">
        <ele>769</ele>
        <time>2024-12-08T02:06:35.619Z</time>
      </trkpt>
      <trkpt lat="45.88363" lon="3.72514">
        <ele>769</ele>
        <time>2024-12-08T02:06:36.620Z</time>
      </trkpt>
      <trkpt lat="45.88363" lon="3.72515">
        <ele>769</ele>
        <time>2024-12-08T02:06:37.620Z</time>
      </trkpt>
      <trkpt lat="45.88363" lon="3.72517">
        <ele>769</ele>
        <time>2024-12-08T02:06:38.619Z</time>
      </trkpt>
      <trkpt lat="45.88363" lon="3.72519">
        <ele>770</ele>
        <time>2024-12-08T02:06:39.619Z</time>
      </trkpt>
      <trkpt lat="45.88363" lon="3.72521">
        <ele>770</ele>
        <time>2024-12-08T02:06:40.619Z</time>
      </trkpt>
      <trkpt lat="45.88363" lon="3.72523">
        <ele>770</ele>
        <time>2024-12-08T02:06:41.620Z</time>
      </trkpt>
      <trkpt lat="45.88363" lon="3.72525">
        <ele>771</ele>
        <time>2024-12-08T02:06:42.620Z</time>
      </trkpt>
      <trkpt lat="45.88363" lon="3.72527">
        <ele>771</ele>
        <time>2024-12-08T02:06:43.620Z</time>
      </trkpt>
      <trkpt lat="45.88363" lon="3.72529">
        <ele>771</ele>
        <time>2024-12-08T02:06:44.620Z</time>
      </trkpt>
      <trkpt lat="45.88362" lon="3.7253">
        <ele>771</ele>
        <time>2024-12-08T02:06:45.619Z</time>
      </trkpt>
      <trkpt lat="45.88362" lon="3.72532">
        <ele>770</ele>
        <time>2024-12-08T02:06:46.619Z</time>
      </trkpt>
      <trkpt lat="45.88362" lon="3.72534">
        <ele>770</ele>
        <time>2024-12-08T02:06:47.620Z</time>
      </trkpt>
      <trkpt lat="45.88362" lon="3.72536">
        <ele>770</ele>
        <time>2024-12-08T02:06:48.619Z</time>
      </trkpt>
      <trkpt lat="45.88362" lon="3.72537">
        <ele>770</ele>
        <time>2024-12-08T02:06:49.620Z</time>
      </trkpt>
      <trkpt lat="45.88362" lon="3.72539">
        <ele>770</ele>
        <time>2024-12-08T02:06:50.619Z</time>
      </trkpt>
      <trkpt lat="45.88362" lon="3.72541">
        <ele>770</ele>
        <time>2024-12-08T02:06:51.619Z</time>
      </trkpt>
      <trkpt lat="45.88362" lon="3.72543">
        <ele>770</ele>
        <time>2024-12-08T02:06:52.619Z</time>
      </trkpt>
      <trkpt lat="45.88361" lon="3.72545">
        <ele>770</ele>
        <time>2024-12-08T02:06:53.620Z</time>
      </trkpt>
      <trkpt lat="45.88361" lon="3.72546">
        <ele>770</ele>
        <time>2024-12-08T02:06:54.620Z</time>
      </trkpt>
      <trkpt lat="45.88361" lon="3.72548">
        <ele>770</ele>
        <time>2024-12-08T02:06:55.620Z</time>
      </trkpt>
      <trkpt lat="45.88361" lon="3.7255">
        <ele>770</ele>
        <time>2024-12-08T02:06:56.620Z</time>
      </trkpt>
      <trkpt lat="45.88361" lon="3.72551">
        <ele>770</ele>
        <time>2024-12-08T02:06:57.619Z</time>
      </trkpt>
      <trkpt lat="45.88361" lon="3.72553">
        <ele>770</ele>
        <time>2024-12-08T02:06:58.620Z</time>
      </trkpt>
      <trkpt lat="45.88361" lon="3.72555">
        <ele>770</ele>
        <time>2024-12-08T02:06:59.620Z</time>
      </trkpt>
      <trkpt lat="45.88361" lon="3.72557">
        <ele>770</ele>
        <time>2024-12-08T02:07:00.620Z</time>
      </trkpt>
      <trkpt lat="45.88361" lon="3.72559">
        <ele>770</ele>
        <time>2024-12-08T02:07:01.619Z</time>
      </trkpt>
      <trkpt lat="45.88361" lon="3.7256">
        <ele>770</ele>
        <time>2024-12-08T02:07:02.620Z</time>
      </trkpt>
      <trkpt lat="45.88361" lon="3.72562">
        <ele>770</ele>
        <time>2024-12-08T02:07:03.619Z</time>
      </trkpt>
      <trkpt lat="45.88361" lon="3.72564">
        <ele>771</ele>
        <time>2024-12-08T02:07:04.620Z</time>
      </trkpt>
      <trkpt lat="45.88361" lon="3.72566">
        <ele>771</ele>
        <time>2024-12-08T02:07:05.619Z</time>
      </trkpt>
      <trkpt lat="45.88361" lon="3.72568">
        <ele>771</ele>
        <time>2024-12-08T02:07:06.620Z</time>
      </trkpt>
      <trkpt lat="45.88361" lon="3.72569">
        <ele>771</ele>
        <time>2024-12-08T02:07:07.619Z</time>
      </trkpt>
      <trkpt lat="45.88361" lon="3.72571">
        <ele>771</ele>
        <time>2024-12-08T02:07:08.620Z</time>
      </trkpt>
      <trkpt lat="45.88361" lon="3.72573">
        <ele>771</ele>
        <time>2024-12-08T02:07:09.620Z</time>
      </trkpt>
      <trkpt lat="45.88361" lon="3.72574">
        <ele>771</ele>
        <time>2024-12-08T02:07:10.619Z</time>
      </trkpt>
      <trkpt lat="45.88361" lon="3.72576">
        <ele>772</ele>
        <time>2024-12-08T02:07:11.619Z</time>
      </trkpt>
      <trkpt lat="45.88361" lon="3.72578">
        <ele>772</ele>
        <time>2024-12-08T02:07:12.620Z</time>
      </trkpt>
      <trkpt lat="45.88361" lon="3.7258">
        <ele>773</ele>
        <time>2024-12-08T02:07:13.620Z</time>
      </trkpt>
      <trkpt lat="45.8836" lon="3.72582">
        <ele>773</ele>
        <time>2024-12-08T02:07:14.619Z</time>
      </trkpt>
      <trkpt lat="45.8836" lon="3.72584">
        <ele>773</ele>
        <time>2024-12-08T02:07:15.620Z</time>
      </trkpt>
      <trkpt lat="45.8836" lon="3.72585">
        <ele>773</ele>
        <time>2024-12-08T02:07:16.619Z</time>
      </trkpt>
      <trkpt lat="45.8836" lon="3.72587">
        <ele>773</ele>
        <time>2024-12-08T02:07:17.619Z</time>
      </trkpt>
      <trkpt lat="45.8836" lon="3.72589">
        <ele>773</ele>
        <time>2024-12-08T02:07:18.619Z</time>
      </trkpt>
      <trkpt lat="45.8836" lon="3.7259">
        <ele>772</ele>
        <time>2024-12-08T02:07:19.620Z</time>
      </trkpt>
      <trkpt lat="45.8836" lon="3.72592">
        <ele>772</ele>
        <time>2024-12-08T02:07:20.620Z</time>
      </trkpt>
      <trkpt lat="45.8836" lon="3.72593">
        <ele>772</ele>
        <time>2024-12-08T02:07:21.619Z</time>
      </trkpt>
      <trkpt lat="45.8836" lon="3.72595">
        <ele>772</ele>
        <time>2024-12-08T02:07:22.620Z</time>
      </trkpt>
      <trkpt lat="45.8836" lon="3.72596">
        <ele>772</ele>
        <time>2024-12-08T02:07:23.619Z</time>
      </trkpt>
      <trkpt lat="45.8836" lon="3.72598">
        <ele>773</ele>
        <time>2024-12-08T02:07:24.619Z</time>
      </trkpt>
      <trkpt lat="45.8836" lon="3.72599">
        <ele>773</ele>
        <time>2024-12-08T02:07:25.620Z</time>
      </trkpt>
      <trkpt lat="45.88359" lon="3.72601">
        <ele>773</ele>
        <time>2024-12-08T02:07:26.620Z</time>
      </trkpt>
      <trkpt lat="45.88359" lon="3.72602">
        <ele>774</ele>
        <time>2024-12-08T02:07:27.619Z</time>
      </trkpt>
      <trkpt lat="45.88359" lon="3.72604">
        <ele>774</ele>
        <time>2024-12-08T02:07:28.619Z</time>
      </trkpt>
      <trkpt lat="45.88358" lon="3.72605">
        <ele>774</ele>
        <time>2024-12-08T02:07:29.619Z</time>
      </trkpt>
      <trkpt lat="45.88358" lon="3.72607">
        <ele>775</ele>
        <time>2024-12-08T02:07:30.620Z</time>
      </trkpt>
      <trkpt lat="45.88358" lon="3.72608">
        <ele>775</ele>
        <time>2024-12-08T02:07:31.620Z</time>
      </trkpt>
      <trkpt lat="45.88358" lon="3.7261">
        <ele>776</ele>
        <time>2024-12-08T02:07:32.619Z</time>
      </trkpt>
      <trkpt lat="45.88358" lon="3.72612">
        <ele>777</ele>
        <time>2024-12-08T02:07:33.620Z</time>
      </trkpt>
      <trkpt lat="45.88358" lon="3.72613">
        <ele>777</ele>
        <time>2024-12-08T02:07:34.619Z</time>
      </trkpt>
      <trkpt lat="45.88358" lon="3.72615">
        <ele>778</ele>
        <time>2024-12-08T02:07:35.620Z</time>
      </trkpt>
      <trkpt lat="45.88358" lon="3.72617">
        <ele>778</ele>
        <time>2024-12-08T02:07:36.620Z</time>
      </trkpt>
      <trkpt lat="45.88358" lon="3.72619">
        <ele>778</ele>
        <time>2024-12-08T02:07:37.619Z</time>
      </trkpt>
      <trkpt lat="45.88358" lon="3.72621">
        <ele>778</ele>
        <time>2024-12-08T02:07:38.620Z</time>
      </trkpt>
      <trkpt lat="45.88358" lon="3.72622">
        <ele>778</ele>
        <time>2024-12-08T02:07:39.620Z</time>
      </trkpt>
      <trkpt lat="45.88358" lon="3.72624">
        <ele>778</ele>
        <time>2024-12-08T02:07:40.619Z</time>
      </trkpt>
      <trkpt lat="45.88358" lon="3.72625">
        <ele>779</ele>
        <time>2024-12-08T02:07:41.620Z</time>
      </trkpt>
      <trkpt lat="45.88358" lon="3.72626">
        <ele>779</ele>
        <time>2024-12-08T02:07:42.619Z</time>
      </trkpt>
      <trkpt lat="45.88357" lon="3.72627">
        <ele>779</ele>
        <time>2024-12-08T02:07:43.620Z</time>
      </trkpt>
      <trkpt lat="45.88357" lon="3.72628">
        <ele>779</ele>
        <time>2024-12-08T02:07:44.619Z</time>
      </trkpt>
      <trkpt lat="45.88357" lon="3.7263">
        <ele>780</ele>
        <time>2024-12-08T02:07:45.620Z</time>
      </trkpt>
      <trkpt lat="45.88357" lon="3.72632">
        <ele>780</ele>
        <time>2024-12-08T02:07:46.620Z</time>
      </trkpt>
      <trkpt lat="45.88357" lon="3.72633">
        <ele>780</ele>
        <time>2024-12-08T02:07:47.619Z</time>
      </trkpt>
      <trkpt lat="45.88356" lon="3.72635">
        <ele>780</ele>
        <time>2024-12-08T02:07:48.620Z</time>
      </trkpt>
      <trkpt lat="45.88356" lon="3.72636">
        <ele>780</ele>
        <time>2024-12-08T02:07:49.619Z</time>
      </trkpt>
      <trkpt lat="45.88356" lon="3.72638">
        <ele>780</ele>
        <time>2024-12-08T02:07:50.620Z</time>
      </trkpt>
      <trkpt lat="45.88356" lon="3.72639">
        <ele>780</ele>
        <time>2024-12-08T02:07:51.619Z</time>
      </trkpt>
      <trkpt lat="45.88356" lon="3.72641">
        <ele>781</ele>
        <time>2024-12-08T02:07:52.619Z</time>
      </trkpt>
      <trkpt lat="45.88356" lon="3.72642">
        <ele>781</ele>
        <time>2024-12-08T02:07:53.620Z</time>
      </trkpt>
      <trkpt lat="45.88356" lon="3.72644">
        <ele>781</ele>
        <time>2024-12-08T02:07:54.620Z</time>
      </trkpt>
      <trkpt lat="45.88356" lon="3.72646">
        <ele>781</ele>
        <time>2024-12-08T02:07:55.619Z</time>
      </trkpt>
      <trkpt lat="45.88356" lon="3.72647">
        <ele>781</ele>
        <time>2024-12-08T02:07:56.619Z</time>
      </trkpt>
      <trkpt lat="45.88356" lon="3.72649">
        <ele>782</ele>
        <time>2024-12-08T02:07:57.620Z</time>
      </trkpt>
      <trkpt lat="45.88356" lon="3.72651">
        <ele>782</ele>
        <time>2024-12-08T02:07:58.620Z</time>
      </trkpt>
      <trkpt lat="45.88356" lon="3.72652">
        <ele>783</ele>
        <time>2024-12-08T02:07:59.619Z</time>
      </trkpt>
      <trkpt lat="45.88356" lon="3.72654">
        <ele>783</ele>
        <time>2024-12-08T02:08:00.619Z</time>
      </trkpt>
      <trkpt lat="45.88356" lon="3.72656">
        <ele>783</ele>
        <time>2024-12-08T02:08:01.619Z</time>
      </trkpt>
      <trkpt lat="45.88355" lon="3.72657">
        <ele>783</ele>
        <time>2024-12-08T02:08:02.619Z</time>
      </trkpt>
      <trkpt lat="45.88356" lon="3.72659">
        <ele>783</ele>
        <time>2024-12-08T02:08:03.619Z</time>
      </trkpt>
      <trkpt lat="45.88356" lon="3.7266">
        <ele>783</ele>
        <time>2024-12-08T02:08:04.619Z</time>
      </trkpt>
      <trkpt lat="45.88356" lon="3.72662">
        <ele>783</ele>
        <time>2024-12-08T02:08:05.619Z</time>
      </trkpt>
      <trkpt lat="45.88356" lon="3.72664">
        <ele>783</ele>
        <time>2024-12-08T02:08:06.620Z</time>
      </trkpt>
      <trkpt lat="45.88356" lon="3.72665">
        <ele>783</ele>
        <time>2024-12-08T02:08:07.619Z</time>
      </trkpt>
      <trkpt lat="45.88356" lon="3.72667">
        <ele>783</ele>
        <time>2024-12-08T02:08:08.619Z</time>
      </trkpt>
      <trkpt lat="45.88356" lon="3.72668">
        <ele>783</ele>
        <time>2024-12-08T02:08:09.619Z</time>
      </trkpt>
      <trkpt lat="45.88356" lon="3.7267">
        <ele>783</ele>
        <time>2024-12-08T02:08:10.619Z</time>
      </trkpt>
      <trkpt lat="45.88356" lon="3.72672">
        <ele>783</ele>
        <time>2024-12-08T02:08:11.620Z</time>
      </trkpt>
      <trkpt lat="45.88356" lon="3.72673">
        <ele>783</ele>
        <time>2024-12-08T02:08:12.619Z</time>
      </trkpt>
      <trkpt lat="45.88356" lon="3.72674">
        <ele>783</ele>
        <time>2024-12-08T02:08:13.620Z</time>
      </trkpt>
      <trkpt lat="45.88356" lon="3.72676">
        <ele>783</ele>
        <time>2024-12-08T02:08:14.619Z</time>
      </trkpt>
      <trkpt lat="45.88355" lon="3.72678">
        <ele>784</ele>
        <time>2024-12-08T02:08:15.620Z</time>
      </trkpt>
      <trkpt lat="45.88356" lon="3.7268">
        <ele>784</ele>
        <time>2024-12-08T02:08:16.619Z</time>
      </trkpt>
      <trkpt lat="45.88356" lon="3.72682">
        <ele>785</ele>
        <time>2024-12-08T02:08:17.619Z</time>
      </trkpt>
      <trkpt lat="45.88356" lon="3.72684">
        <ele>785</ele>
        <time>2024-12-08T02:08:18.620Z</time>
      </trkpt>
      <trkpt lat="45.88356" lon="3.72685">
        <ele>785</ele>
        <time>2024-12-08T02:08:19.620Z</time>
      </trkpt>
      <trkpt lat="45.88357" lon="3.72688">
        <ele>786</ele>
        <time>2024-12-08T02:08:20.620Z</time>
      </trkpt>
      <trkpt lat="45.88357" lon="3.7269">
        <ele>786</ele>
        <time>2024-12-08T02:08:21.619Z</time>
      </trkpt>
      <trkpt lat="45.88357" lon="3.72692">
        <ele>786</ele>
        <time>2024-12-08T02:08:22.619Z</time>
      </trkpt>
      <trkpt lat="45.88357" lon="3.72694">
        <ele>787</ele>
        <time>2024-12-08T02:08:23.620Z</time>
      </trkpt>
      <trkpt lat="45.88356" lon="3.72696">
        <ele>787</ele>
        <time>2024-12-08T02:08:24.620Z</time>
      </trkpt>
      <trkpt lat="45.88356" lon="3.72698">
        <ele>787</ele>
        <time>2024-12-08T02:08:25.620Z</time>
      </trkpt>
      <trkpt lat="45.88356" lon="3.72699">
        <ele>787</ele>
        <time>2024-12-08T02:08:26.619Z</time>
      </trkpt>
      <trkpt lat="45.88356" lon="3.72701">
        <ele>787</ele>
        <time>2024-12-08T02:08:27.620Z</time>
      </trkpt>
      <trkpt lat="45.88357" lon="3.72703">
        <ele>788</ele>
        <time>2024-12-08T02:08:28.620Z</time>
      </trkpt>
      <trkpt lat="45.88357" lon="3.72705">
        <ele>788</ele>
        <time>2024-12-08T02:08:29.620Z</time>
      </trkpt>
      <trkpt lat="45.88357" lon="3.72707">
        <ele>788</ele>
        <time>2024-12-08T02:08:30.619Z</time>
      </trkpt>
      <trkpt lat="45.88357" lon="3.72709">
        <ele>789</ele>
        <time>2024-12-08T02:08:31.620Z</time>
      </trkpt>
      <trkpt lat="45.88357" lon="3.72711">
        <ele>789</ele>
        <time>2024-12-08T02:08:32.619Z</time>
      </trkpt>
      <trkpt lat="45.88356" lon="3.72713">
        <ele>789</ele>
        <time>2024-12-08T02:08:33.620Z</time>
      </trkpt>
      <trkpt lat="45.88356" lon="3.72715">
        <ele>789</ele>
        <time>2024-12-08T02:08:34.619Z</time>
      </trkpt>
      <trkpt lat="45.88356" lon="3.72718">
        <ele>789</ele>
        <time>2024-12-08T02:08:35.619Z</time>
      </trkpt>
      <trkpt lat="45.88356" lon="3.72719">
        <ele>789</ele>
        <time>2024-12-08T02:08:36.620Z</time>
      </trkpt>
      <trkpt lat="45.88355" lon="3.72721">
        <ele>788</ele>
        <time>2024-12-08T02:08:37.620Z</time>
      </trkpt>
      <trkpt lat="45.88355" lon="3.72723">
        <ele>788</ele>
        <time>2024-12-08T02:08:38.619Z</time>
      </trkpt>
      <trkpt lat="45.88355" lon="3.72725">
        <ele>787</ele>
        <time>2024-12-08T02:08:39.620Z</time>
      </trkpt>
      <trkpt lat="45.88355" lon="3.72727">
        <ele>787</ele>
        <time>2024-12-08T02:08:40.620Z</time>
      </trkpt>
      <trkpt lat="45.88355" lon="3.72729">
        <ele>787</ele>
        <time>2024-12-08T02:08:41.620Z</time>
      </trkpt>
      <trkpt lat="45.88355" lon="3.72731">
        <ele>787</ele>
        <time>2024-12-08T02:08:42.619Z</time>
      </trkpt>
      <trkpt lat="45.88355" lon="3.72732">
        <ele>788</ele>
        <time>2024-12-08T02:08:43.619Z</time>
      </trkpt>
      <trkpt lat="45.88355" lon="3.72734">
        <ele>788</ele>
        <time>2024-12-08T02:08:44.619Z</time>
      </trkpt>
      <trkpt lat="45.88355" lon="3.72736">
        <ele>787</ele>
        <time>2024-12-08T02:08:45.620Z</time>
      </trkpt>
      <trkpt lat="45.88355" lon="3.72738">
        <ele>787</ele>
        <time>2024-12-08T02:08:46.620Z</time>
      </trkpt>
      <trkpt lat="45.88355" lon="3.7274">
        <ele>787</ele>
        <time>2024-12-08T02:08:47.620Z</time>
      </trkpt>
      <trkpt lat="45.88355" lon="3.72742">
        <ele>787</ele>
        <time>2024-12-08T02:08:48.619Z</time>
      </trkpt>
      <trkpt lat="45.88355" lon="3.72744">
        <ele>787</ele>
        <time>2024-12-08T02:08:49.619Z</time>
      </trkpt>
      <trkpt lat="45.88355" lon="3.72746">
        <ele>787</ele>
        <time>2024-12-08T02:08:50.620Z</time>
      </trkpt>
      <trkpt lat="45.88355" lon="3.72748">
        <ele>787</ele>
        <time>2024-12-08T02:08:51.619Z</time>
      </trkpt>
      <trkpt lat="45.88355" lon="3.7275">
        <ele>787</ele>
        <time>2024-12-08T02:08:52.619Z</time>
      </trkpt>
      <trkpt lat="45.88355" lon="3.72752">
        <ele>787</ele>
        <time>2024-12-08T02:08:53.619Z</time>
      </trkpt>
      <trkpt lat="45.88355" lon="3.72754">
        <ele>788</ele>
        <time>2024-12-08T02:08:54.620Z</time>
      </trkpt>
      <trkpt lat="45.88355" lon="3.72756">
        <ele>788</ele>
        <time>2024-12-08T02:08:55.619Z</time>
      </trkpt>
      <trkpt lat="45.88355" lon="3.72758">
        <ele>788</ele>
        <time>2024-12-08T02:08:56.620Z</time>
      </trkpt>
      <trkpt lat="45.88355" lon="3.7276">
        <ele>788</ele>
        <time>2024-12-08T02:08:57.620Z</time>
      </trkpt>
      <trkpt lat="45.88355" lon="3.72762">
        <ele>788</ele>
        <time>2024-12-08T02:08:58.619Z</time>
      </trkpt>
      <trkpt lat="45.88355" lon="3.72764">
        <ele>789</ele>
        <time>2024-12-08T02:08:59.620Z</time>
      </trkpt>
      <trkpt lat="45.88355" lon="3.72766">
        <ele>789</ele>
        <time>2024-12-08T02:09:00.620Z</time>
      </trkpt>
      <trkpt lat="45.88355" lon="3.72768">
        <ele>789</ele>
        <time>2024-12-08T02:09:01.619Z</time>
      </trkpt>
      <trkpt lat="45.88356" lon="3.7277">
        <ele>790</ele>
        <time>2024-12-08T02:09:02.620Z</time>
      </trkpt>
      <trkpt lat="45.88356" lon="3.72772">
        <ele>790</ele>
        <time>2024-12-08T02:09:03.619Z</time>
      </trkpt>
      <trkpt lat="45.88356" lon="3.72774">
        <ele>790</ele>
        <time>2024-12-08T02:09:04.620Z</time>
      </trkpt>
      <trkpt lat="45.88356" lon="3.72775">
        <ele>789</ele>
        <time>2024-12-08T02:09:05.619Z</time>
      </trkpt>
      <trkpt lat="45.88356" lon="3.72777">
        <ele>789</ele>
        <time>2024-12-08T02:09:06.620Z</time>
      </trkpt>
      <trkpt lat="45.88356" lon="3.72779">
        <ele>789</ele>
        <time>2024-12-08T02:09:07.620Z</time>
      </trkpt>
      <trkpt lat="45.88356" lon="3.72781">
        <ele>788</ele>
        <time>2024-12-08T02:09:08.619Z</time>
      </trkpt>
      <trkpt lat="45.88356" lon="3.72783">
        <ele>788</ele>
        <time>2024-12-08T02:09:09.619Z</time>
      </trkpt>
      <trkpt lat="45.88356" lon="3.72785">
        <ele>788</ele>
        <time>2024-12-08T02:09:10.619Z</time>
      </trkpt>
      <trkpt lat="45.88355" lon="3.72787">
        <ele>787</ele>
        <time>2024-12-08T02:09:11.619Z</time>
      </trkpt>
      <trkpt lat="45.88355" lon="3.72788">
        <ele>787</ele>
        <time>2024-12-08T02:09:12.619Z</time>
      </trkpt>
      <trkpt lat="45.88355" lon="3.7279">
        <ele>786</ele>
        <time>2024-12-08T02:09:13.619Z</time>
      </trkpt>
      <trkpt lat="45.88355" lon="3.72792">
        <ele>786</ele>
        <time>2024-12-08T02:09:14.619Z</time>
      </trkpt>
      <trkpt lat="45.88355" lon="3.72794">
        <ele>786</ele>
        <time>2024-12-08T02:09:15.620Z</time>
      </trkpt>
      <trkpt lat="45.88355" lon="3.72796">
        <ele>786</ele>
        <time>2024-12-08T02:09:16.619Z</time>
      </trkpt>
      <trkpt lat="45.88355" lon="3.72798">
        <ele>786</ele>
        <time>2024-12-08T02:09:17.620Z</time>
      </trkpt>
      <trkpt lat="45.88355" lon="3.728">
        <ele>786</ele>
        <time>2024-12-08T02:09:18.620Z</time>
      </trkpt>
      <trkpt lat="45.88355" lon="3.72802">
        <ele>786</ele>
        <time>2024-12-08T02:09:19.619Z</time>
      </trkpt>
      <trkpt lat="45.88355" lon="3.72804">
        <ele>786</ele>
        <time>2024-12-08T02:09:20.619Z</time>
      </trkpt>
      <trkpt lat="45.88355" lon="3.72806">
        <ele>786</ele>
        <time>2024-12-08T02:09:21.620Z</time>
      </trkpt>
      <trkpt lat="45.88355" lon="3.72808">
        <ele>786</ele>
        <time>2024-12-08T02:09:22.619Z</time>
      </trkpt>
      <trkpt lat="45.88355" lon="3.7281">
        <ele>786</ele>
        <time>2024-12-08T02:09:23.620Z</time>
      </trkpt>
      <trkpt lat="45.88355" lon="3.72812">
        <ele>786</ele>
        <time>2024-12-08T02:09:24.620Z</time>
      </trkpt>
      <trkpt lat="45.88355" lon="3.72814">
        <ele>786</ele>
        <time>2024-12-08T02:09:25.620Z</time>
      </trkpt>
      <trkpt lat="45.88355" lon="3.72816">
        <ele>786</ele>
        <time>2024-12-08T02:09:26.620Z</time>
      </trkpt>
      <trkpt lat="45.88355" lon="3.72818">
        <ele>786</ele>
        <time>2024-12-08T02:09:27.619Z</time>
      </trkpt>
      <trkpt lat="45.88355" lon="3.7282">
        <ele>786</ele>
        <time>2024-12-08T02:09:28.620Z</time>
      </trkpt>
      <trkpt lat="45.88355" lon="3.72822">
        <ele>786</ele>
        <time>2024-12-08T02:09:29.619Z</time>
      </trkpt>
      <trkpt lat="45.88355" lon="3.72824">
        <ele>786</ele>
        <time>2024-12-08T02:09:30.620Z</time>
      </trkpt>
      <trkpt lat="45.88355" lon="3.72826">
        <ele>786</ele>
        <time>2024-12-08T02:09:31.619Z</time>
      </trkpt>
      <trkpt lat="45.88355" lon="3.72828">
        <ele>786</ele>
        <time>2024-12-08T02:09:32.620Z</time>
      </trkpt>
      <trkpt lat="45.88355" lon="3.72831">
        <ele>785</ele>
        <time>2024-12-08T02:09:33.619Z</time>
      </trkpt>
      <trkpt lat="45.88355" lon="3.72833">
        <ele>785</ele>
        <time>2024-12-08T02:09:34.620Z</time>
      </trkpt>
      <trkpt lat="45.88355" lon="3.72835">
        <ele>784</ele>
        <time>2024-12-08T02:09:35.620Z</time>
      </trkpt>
      <trkpt lat="45.88355" lon="3.72837">
        <ele>784</ele>
        <time>2024-12-08T02:09:36.620Z</time>
      </trkpt>
      <trkpt lat="45.88355" lon="3.72839">
        <ele>784</ele>
        <time>2024-12-08T02:09:37.619Z</time>
      </trkpt>
      <trkpt lat="45.88354" lon="3.72841">
        <ele>783</ele>
        <time>2024-12-08T02:09:38.619Z</time>
      </trkpt>
      <trkpt lat="45.88354" lon="3.72843">
        <ele>783</ele>
        <time>2024-12-08T02:09:39.620Z</time>
      </trkpt>
      <trkpt lat="45.88354" lon="3.72845">
        <ele>783</ele>
        <time>2024-12-08T02:09:40.619Z</time>
      </trkpt>
      <trkpt lat="45.88355" lon="3.72848">
        <ele>783</ele>
        <time>2024-12-08T02:09:41.619Z</time>
      </trkpt>
      <trkpt lat="45.88355" lon="3.7285">
        <ele>783</ele>
        <time>2024-12-08T02:09:42.620Z</time>
      </trkpt>
      <trkpt lat="45.88355" lon="3.72852">
        <ele>783</ele>
        <time>2024-12-08T02:09:43.620Z</time>
      </trkpt>
      <trkpt lat="45.88355" lon="3.72854">
        <ele>783</ele>
        <time>2024-12-08T02:09:44.619Z</time>
      </trkpt>
      <trkpt lat="45.88355" lon="3.72857">
        <ele>783</ele>
        <time>2024-12-08T02:09:45.619Z</time>
      </trkpt>
      <trkpt lat="45.88355" lon="3.72859">
        <ele>783</ele>
        <time>2024-12-08T02:09:46.619Z</time>
      </trkpt>
      <trkpt lat="45.88355" lon="3.72861">
        <ele>784</ele>
        <time>2024-12-08T02:09:47.620Z</time>
      </trkpt>
      <trkpt lat="45.88354" lon="3.72863">
        <ele>783</ele>
        <time>2024-12-08T02:09:48.619Z</time>
      </trkpt>
      <trkpt lat="45.88354" lon="3.72865">
        <ele>783</ele>
        <time>2024-12-08T02:09:49.619Z</time>
      </trkpt>
      <trkpt lat="45.88354" lon="3.72868">
        <ele>783</ele>
        <time>2024-12-08T02:09:50.620Z</time>
      </trkpt>
      <trkpt lat="45.88354" lon="3.7287">
        <ele>783</ele>
        <time>2024-12-08T02:09:51.620Z</time>
      </trkpt>
      <trkpt lat="45.88354" lon="3.72872">
        <ele>783</ele>
        <time>2024-12-08T02:09:52.619Z</time>
      </trkpt>
      <trkpt lat="45.88354" lon="3.72874">
        <ele>782</ele>
        <time>2024-12-08T02:09:53.619Z</time>
      </trkpt>
      <trkpt lat="45.88354" lon="3.72877">
        <ele>782</ele>
        <time>2024-12-08T02:09:54.620Z</time>
      </trkpt>
      <trkpt lat="45.88353" lon="3.72878">
        <ele>782</ele>
        <time>2024-12-08T02:09:55.619Z</time>
      </trkpt>
      <trkpt lat="45.88353" lon="3.72881">
        <ele>781</ele>
        <time>2024-12-08T02:09:56.620Z</time>
      </trkpt>
      <trkpt lat="45.88353" lon="3.72883">
        <ele>781</ele>
        <time>2024-12-08T02:09:57.620Z</time>
      </trkpt>
      <trkpt lat="45.88353" lon="3.72885">
        <ele>781</ele>
        <time>2024-12-08T02:09:58.619Z</time>
      </trkpt>
      <trkpt lat="45.88353" lon="3.72887">
        <ele>781</ele>
        <time>2024-12-08T02:09:59.620Z</time>
      </trkpt>
      <trkpt lat="45.88353" lon="3.7289">
        <ele>781</ele>
        <time>2024-12-08T02:10:00.620Z</time>
      </trkpt>
      <trkpt lat="45.88353" lon="3.72892">
        <ele>781</ele>
        <time>2024-12-08T02:10:01.619Z</time>
      </trkpt>
      <trkpt lat="45.88353" lon="3.72894">
        <ele>781</ele>
        <time>2024-12-08T02:10:02.620Z</time>
      </trkpt>
      <trkpt lat="45.88353" lon="3.72896">
        <ele>781</ele>
        <time>2024-12-08T02:10:03.619Z</time>
      </trkpt>
      <trkpt lat="45.88353" lon="3.72899">
        <ele>781</ele>
        <time>2024-12-08T02:10:04.620Z</time>
      </trkpt>
      <trkpt lat="45.88353" lon="3.72901">
        <ele>781</ele>
        <time>2024-12-08T02:10:05.619Z</time>
      </trkpt>
      <trkpt lat="45.88353" lon="3.72903">
        <ele>781</ele>
        <time>2024-12-08T02:10:06.619Z</time>
      </trkpt>
      <trkpt lat="45.88354" lon="3.72905">
        <ele>781</ele>
        <time>2024-12-08T02:10:07.620Z</time>
      </trkpt>
      <trkpt lat="45.88354" lon="3.72907">
        <ele>781</ele>
        <time>2024-12-08T02:10:08.619Z</time>
      </trkpt>
      <trkpt lat="45.88355" lon="3.72909">
        <ele>781</ele>
        <time>2024-12-08T02:10:09.620Z</time>
      </trkpt>
      <trkpt lat="45.88356" lon="3.72912">
        <ele>781</ele>
        <time>2024-12-08T02:10:10.620Z</time>
      </trkpt>
      <trkpt lat="45.88356" lon="3.72913">
        <ele>781</ele>
        <time>2024-12-08T02:10:11.620Z</time>
      </trkpt>
      <trkpt lat="45.88356" lon="3.72915">
        <ele>781</ele>
        <time>2024-12-08T02:10:12.619Z</time>
      </trkpt>
      <trkpt lat="45.88356" lon="3.72917">
        <ele>781</ele>
        <time>2024-12-08T02:10:13.619Z</time>
      </trkpt>
      <trkpt lat="45.88356" lon="3.7292">
        <ele>780</ele>
        <time>2024-12-08T02:10:14.619Z</time>
      </trkpt>
      <trkpt lat="45.88356" lon="3.72922">
        <ele>780</ele>
        <time>2024-12-08T02:10:15.619Z</time>
      </trkpt>
      <trkpt lat="45.88355" lon="3.72924">
        <ele>780</ele>
        <time>2024-12-08T02:10:16.620Z</time>
      </trkpt>
      <trkpt lat="45.88355" lon="3.72926">
        <ele>779</ele>
        <time>2024-12-08T02:10:17.619Z</time>
      </trkpt>
      <trkpt lat="45.88355" lon="3.72929">
        <ele>779</ele>
        <time>2024-12-08T02:10:18.620Z</time>
      </trkpt>
      <trkpt lat="45.88355" lon="3.72931">
        <ele>779</ele>
        <time>2024-12-08T02:10:19.620Z</time>
      </trkpt>
      <trkpt lat="45.88356" lon="3.72933">
        <ele>780</ele>
        <time>2024-12-08T02:10:20.619Z</time>
      </trkpt>
      <trkpt lat="45.88355" lon="3.72936">
        <ele>780</ele>
        <time>2024-12-08T02:10:21.619Z</time>
      </trkpt>
      <trkpt lat="45.88355" lon="3.72938">
        <ele>780</ele>
        <time>2024-12-08T02:10:22.619Z</time>
      </trkpt>
      <trkpt lat="45.88355" lon="3.7294">
        <ele>780</ele>
        <time>2024-12-08T02:10:23.620Z</time>
      </trkpt>
      <trkpt lat="45.88355" lon="3.72943">
        <ele>780</ele>
        <time>2024-12-08T02:10:24.620Z</time>
      </trkpt>
      <trkpt lat="45.88356" lon="3.72945">
        <ele>780</ele>
        <time>2024-12-08T02:10:25.619Z</time>
      </trkpt>
      <trkpt lat="45.88356" lon="3.72948">
        <ele>780</ele>
        <time>2024-12-08T02:10:26.620Z</time>
      </trkpt>
      <trkpt lat="45.88356" lon="3.7295">
        <ele>779</ele>
        <time>2024-12-08T02:10:27.619Z</time>
      </trkpt>
      <trkpt lat="45.88355" lon="3.72952">
        <ele>779</ele>
        <time>2024-12-08T02:10:28.619Z</time>
      </trkpt>
      <trkpt lat="45.88355" lon="3.72954">
        <ele>779</ele>
        <time>2024-12-08T02:10:29.619Z</time>
      </trkpt>
      <trkpt lat="45.88354" lon="3.72956">
        <ele>779</ele>
        <time>2024-12-08T02:10:30.620Z</time>
      </trkpt>
      <trkpt lat="45.88354" lon="3.72958">
        <ele>778</ele>
        <time>2024-12-08T02:10:31.619Z</time>
      </trkpt>
      <trkpt lat="45.88355" lon="3.7296">
        <ele>778</ele>
        <time>2024-12-08T02:10:32.620Z</time>
      </trkpt>
      <trkpt lat="45.88355" lon="3.72962">
        <ele>778</ele>
        <time>2024-12-08T02:10:33.620Z</time>
      </trkpt>
      <trkpt lat="45.88355" lon="3.72964">
        <ele>778</ele>
        <time>2024-12-08T02:10:34.620Z</time>
      </trkpt>
      <trkpt lat="45.88355" lon="3.72967">
        <ele>777</ele>
        <time>2024-12-08T02:10:35.619Z</time>
      </trkpt>
      <trkpt lat="45.88356" lon="3.7297">
        <ele>777</ele>
        <time>2024-12-08T02:10:36.620Z</time>
      </trkpt>
      <trkpt lat="45.88357" lon="3.72972">
        <ele>777</ele>
        <time>2024-12-08T02:10:37.619Z</time>
      </trkpt>
      <trkpt lat="45.88357" lon="3.72975">
        <ele>777</ele>
        <time>2024-12-08T02:10:38.619Z</time>
      </trkpt>
      <trkpt lat="45.88357" lon="3.72978">
        <ele>777</ele>
        <time>2024-12-08T02:10:39.619Z</time>
      </trkpt>
      <trkpt lat="45.88357" lon="3.7298">
        <ele>777</ele>
        <time>2024-12-08T02:10:40.620Z</time>
      </trkpt>
      <trkpt lat="45.88358" lon="3.72983">
        <ele>777</ele>
        <time>2024-12-08T02:10:41.620Z</time>
      </trkpt>
      <trkpt lat="45.88358" lon="3.72985">
        <ele>777</ele>
        <time>2024-12-08T02:10:42.619Z</time>
      </trkpt>
      <trkpt lat="45.88358" lon="3.72987">
        <ele>777</ele>
        <time>2024-12-08T02:10:43.620Z</time>
      </trkpt>
      <trkpt lat="45.88358" lon="3.72989">
        <ele>777</ele>
        <time>2024-12-08T02:10:44.620Z</time>
      </trkpt>
      <trkpt lat="45.88358" lon="3.72992">
        <ele>777</ele>
        <time>2024-12-08T02:10:45.619Z</time>
      </trkpt>
      <trkpt lat="45.88359" lon="3.72994">
        <ele>777</ele>
        <time>2024-12-08T02:10:46.620Z</time>
      </trkpt>
      <trkpt lat="45.88358" lon="3.72996">
        <ele>776</ele>
        <time>2024-12-08T02:10:47.620Z</time>
      </trkpt>
      <trkpt lat="45.88358" lon="3.72999">
        <ele>776</ele>
        <time>2024-12-08T02:10:48.619Z</time>
      </trkpt>
      <trkpt lat="45.88358" lon="3.73001">
        <ele>776</ele>
        <time>2024-12-08T02:10:49.620Z</time>
      </trkpt>
      <trkpt lat="45.88358" lon="3.73004">
        <ele>776</ele>
        <time>2024-12-08T02:10:50.619Z</time>
      </trkpt>
      <trkpt lat="45.88358" lon="3.73005">
        <ele>775</ele>
        <time>2024-12-08T02:10:51.619Z</time>
      </trkpt>
      <trkpt lat="45.88358" lon="3.73007">
        <ele>775</ele>
        <time>2024-12-08T02:10:52.620Z</time>
      </trkpt>
      <trkpt lat="45.88358" lon="3.7301">
        <ele>775</ele>
        <time>2024-12-08T02:10:53.620Z</time>
      </trkpt>
      <trkpt lat="45.88359" lon="3.73012">
        <ele>774</ele>
        <time>2024-12-08T02:10:54.620Z</time>
      </trkpt>
      <trkpt lat="45.88359" lon="3.73014">
        <ele>774</ele>
        <time>2024-12-08T02:10:55.620Z</time>
      </trkpt>
      <trkpt lat="45.88358" lon="3.73016">
        <ele>774</ele>
        <time>2024-12-08T02:10:56.619Z</time>
      </trkpt>
      <trkpt lat="45.88358" lon="3.73018">
        <ele>774</ele>
        <time>2024-12-08T02:10:57.619Z</time>
      </trkpt>
      <trkpt lat="45.88358" lon="3.7302">
        <ele>773</ele>
        <time>2024-12-08T02:10:58.620Z</time>
      </trkpt>
      <trkpt lat="45.88359" lon="3.73023">
        <ele>773</ele>
        <time>2024-12-08T02:10:59.619Z</time>
      </trkpt>
      <trkpt lat="45.88359" lon="3.73025">
        <ele>773</ele>
        <time>2024-12-08T02:11:00.619Z</time>
      </trkpt>
      <trkpt lat="45.88359" lon="3.73028">
        <ele>773</ele>
        <time>2024-12-08T02:11:01.620Z</time>
      </trkpt>
      <trkpt lat="45.88359" lon="3.7303">
        <ele>772</ele>
        <time>2024-12-08T02:11:02.619Z</time>
      </trkpt>
      <trkpt lat="45.88359" lon="3.73033">
        <ele>772</ele>
        <time>2024-12-08T02:11:03.619Z</time>
      </trkpt>
      <trkpt lat="45.88359" lon="3.73035">
        <ele>772</ele>
        <time>2024-12-08T02:11:04.619Z</time>
      </trkpt>
      <trkpt lat="45.88359" lon="3.73037">
        <ele>772</ele>
        <time>2024-12-08T02:11:05.620Z</time>
      </trkpt>
      <trkpt lat="45.8836" lon="3.7304">
        <ele>772</ele>
        <time>2024-12-08T02:11:06.619Z</time>
      </trkpt>
      <trkpt lat="45.8836" lon="3.73042">
        <ele>772</ele>
        <time>2024-12-08T02:11:07.619Z</time>
      </trkpt>
      <trkpt lat="45.8836" lon="3.73044">
        <ele>772</ele>
        <time>2024-12-08T02:11:08.619Z</time>
      </trkpt>
      <trkpt lat="45.8836" lon="3.73046">
        <ele>772</ele>
        <time>2024-12-08T02:11:09.619Z</time>
      </trkpt>
      <trkpt lat="45.8836" lon="3.73047">
        <ele>772</ele>
        <time>2024-12-08T02:11:10.619Z</time>
      </trkpt>
      <trkpt lat="45.88359" lon="3.73049">
        <ele>772</ele>
        <time>2024-12-08T02:11:11.620Z</time>
      </trkpt>
      <trkpt lat="45.88359" lon="3.73051">
        <ele>771</ele>
        <time>2024-12-08T02:11:12.619Z</time>
      </trkpt>
      <trkpt lat="45.88359" lon="3.73053">
        <ele>771</ele>
        <time>2024-12-08T02:11:13.620Z</time>
      </trkpt>
      <trkpt lat="45.88359" lon="3.73056">
        <ele>772</ele>
        <time>2024-12-08T02:11:14.619Z</time>
      </trkpt>
      <trkpt lat="45.88359" lon="3.73058">
        <ele>772</ele>
        <time>2024-12-08T02:11:15.619Z</time>
      </trkpt>
      <trkpt lat="45.88359" lon="3.73061">
        <ele>772</ele>
        <time>2024-12-08T02:11:16.619Z</time>
      </trkpt>
      <trkpt lat="45.88359" lon="3.73063">
        <ele>772</ele>
        <time>2024-12-08T02:11:17.619Z</time>
      </trkpt>
      <trkpt lat="45.8836" lon="3.73065">
        <ele>772</ele>
        <time>2024-12-08T02:11:18.619Z</time>
      </trkpt>
      <trkpt lat="45.8836" lon="3.73068">
        <ele>773</ele>
        <time>2024-12-08T02:11:19.620Z</time>
      </trkpt>
      <trkpt lat="45.8836" lon="3.7307">
        <ele>773</ele>
        <time>2024-12-08T02:11:20.619Z</time>
      </trkpt>
      <trkpt lat="45.8836" lon="3.73072">
        <ele>772</ele>
        <time>2024-12-08T02:11:21.620Z</time>
      </trkpt>
      <trkpt lat="45.8836" lon="3.73074">
        <ele>772</ele>
        <time>2024-12-08T02:11:22.620Z</time>
      </trkpt>
      <trkpt lat="45.8836" lon="3.73076">
        <ele>772</ele>
        <time>2024-12-08T02:11:23.619Z</time>
      </trkpt>
      <trkpt lat="45.8836" lon="3.73078">
        <ele>772</ele>
        <time>2024-12-08T02:11:24.619Z</time>
      </trkpt>
      <trkpt lat="45.8836" lon="3.73081">
        <ele>771</ele>
        <time>2024-12-08T02:11:25.620Z</time>
      </trkpt>
      <trkpt lat="45.8836" lon="3.73083">
        <ele>771</ele>
        <time>2024-12-08T02:11:26.619Z</time>
      </trkpt>
      <trkpt lat="45.88359" lon="3.73085">
        <ele>770</ele>
        <time>2024-12-08T02:11:27.620Z</time>
      </trkpt>
      <trkpt lat="45.88359" lon="3.73088">
        <ele>770</ele>
        <time>2024-12-08T02:11:28.620Z</time>
      </trkpt>
      <trkpt lat="45.88359" lon="3.7309">
        <ele>769</ele>
        <time>2024-12-08T02:11:29.620Z</time>
      </trkpt>
      <trkpt lat="45.88359" lon="3.73092">
        <ele>769</ele>
        <time>2024-12-08T02:11:30.619Z</time>
      </trkpt>
      <trkpt lat="45.88359" lon="3.73095">
        <ele>769</ele>
        <time>2024-12-08T02:11:31.619Z</time>
      </trkpt>
      <trkpt lat="45.88359" lon="3.73097">
        <ele>769</ele>
        <time>2024-12-08T02:11:32.620Z</time>
      </trkpt>
      <trkpt lat="45.88359" lon="3.73099">
        <ele>768</ele>
        <time>2024-12-08T02:11:33.619Z</time>
      </trkpt>
      <trkpt lat="45.88359" lon="3.731">
        <ele>768</ele>
        <time>2024-12-08T02:11:34.619Z</time>
      </trkpt>
      <trkpt lat="45.88358" lon="3.73102">
        <ele>768</ele>
        <time>2024-12-08T02:11:35.619Z</time>
      </trkpt>
      <trkpt lat="45.88358" lon="3.73105">
        <ele>767</ele>
        <time>2024-12-08T02:11:36.620Z</time>
      </trkpt>
      <trkpt lat="45.88358" lon="3.73107">
        <ele>767</ele>
        <time>2024-12-08T02:11:37.620Z</time>
      </trkpt>
      <trkpt lat="45.88358" lon="3.73109">
        <ele>767</ele>
        <time>2024-12-08T02:11:38.620Z</time>
      </trkpt>
      <trkpt lat="45.88358" lon="3.73111">
        <ele>767</ele>
        <time>2024-12-08T02:11:39.619Z</time>
      </trkpt>
      <trkpt lat="45.88358" lon="3.73114">
        <ele>767</ele>
        <time>2024-12-08T02:11:40.620Z</time>
      </trkpt>
      <trkpt lat="45.88358" lon="3.73116">
        <ele>767</ele>
        <time>2024-12-08T02:11:41.620Z</time>
      </trkpt>
      <trkpt lat="45.88358" lon="3.73118">
        <ele>767</ele>
        <time>2024-12-08T02:11:42.620Z</time>
      </trkpt>
      <trkpt lat="45.88358" lon="3.7312">
        <ele>766</ele>
        <time>2024-12-08T02:11:43.619Z</time>
      </trkpt>
      <trkpt lat="45.88359" lon="3.73123">
        <ele>766</ele>
        <time>2024-12-08T02:11:44.620Z</time>
      </trkpt>
      <trkpt lat="45.88359" lon="3.73125">
        <ele>766</ele>
        <time>2024-12-08T02:11:45.620Z</time>
      </trkpt>
      <trkpt lat="45.88358" lon="3.73127">
        <ele>766</ele>
        <time>2024-12-08T02:11:46.620Z</time>
      </trkpt>
      <trkpt lat="45.88358" lon="3.73129">
        <ele>766</ele>
        <time>2024-12-08T02:11:47.620Z</time>
      </trkpt>
      <trkpt lat="45.88358" lon="3.73132">
        <ele>765</ele>
        <time>2024-12-08T02:11:48.620Z</time>
      </trkpt>
      <trkpt lat="45.88358" lon="3.73134">
        <ele>765</ele>
        <time>2024-12-08T02:11:49.619Z</time>
      </trkpt>
      <trkpt lat="45.88358" lon="3.73137">
        <ele>765</ele>
        <time>2024-12-08T02:11:50.619Z</time>
      </trkpt>
      <trkpt lat="45.88358" lon="3.73139">
        <ele>765</ele>
        <time>2024-12-08T02:11:51.620Z</time>
      </trkpt>
      <trkpt lat="45.88358" lon="3.73141">
        <ele>765</ele>
        <time>2024-12-08T02:11:52.619Z</time>
      </trkpt>
      <trkpt lat="45.88358" lon="3.73144">
        <ele>764</ele>
        <time>2024-12-08T02:11:53.619Z</time>
      </trkpt>
      <trkpt lat="45.88358" lon="3.73146">
        <ele>764</ele>
        <time>2024-12-08T02:11:54.620Z</time>
      </trkpt>
      <trkpt lat="45.88358" lon="3.73149">
        <ele>764</ele>
        <time>2024-12-08T02:11:55.620Z</time>
      </trkpt>
      <trkpt lat="45.88358" lon="3.73151">
        <ele>764</ele>
        <time>2024-12-08T02:11:56.619Z</time>
      </trkpt>
      <trkpt lat="45.88358" lon="3.73153">
        <ele>764</ele>
        <time>2024-12-08T02:11:57.619Z</time>
      </trkpt>
      <trkpt lat="45.88358" lon="3.73156">
        <ele>764</ele>
        <time>2024-12-08T02:11:58.620Z</time>
      </trkpt>
      <trkpt lat="45.88358" lon="3.73158">
        <ele>764</ele>
        <time>2024-12-08T02:11:59.620Z</time>
      </trkpt>
      <trkpt lat="45.88358" lon="3.7316">
        <ele>764</ele>
        <time>2024-12-08T02:12:00.620Z</time>
      </trkpt>
      <trkpt lat="45.88358" lon="3.73163">
        <ele>763</ele>
        <time>2024-12-08T02:12:01.619Z</time>
      </trkpt>
      <trkpt lat="45.88358" lon="3.73165">
        <ele>763</ele>
        <time>2024-12-08T02:12:02.620Z</time>
      </trkpt>
      <trkpt lat="45.88358" lon="3.73167">
        <ele>763</ele>
        <time>2024-12-08T02:12:03.619Z</time>
      </trkpt>
      <trkpt lat="45.88359" lon="3.7317">
        <ele>763</ele>
        <time>2024-12-08T02:12:04.619Z</time>
      </trkpt>
      <trkpt lat="45.88359" lon="3.73172">
        <ele>763</ele>
        <time>2024-12-08T02:12:05.620Z</time>
      </trkpt>
      <trkpt lat="45.88358" lon="3.73174">
        <ele>763</ele>
        <time>2024-12-08T02:12:06.620Z</time>
      </trkpt>
      <trkpt lat="45.88358" lon="3.73176">
        <ele>763</ele>
        <time>2024-12-08T02:12:07.620Z</time>
      </trkpt>
      <trkpt lat="45.88359" lon="3.73179">
        <ele>763</ele>
        <time>2024-12-08T02:12:08.619Z</time>
      </trkpt>
      <trkpt lat="45.88359" lon="3.73181">
        <ele>763</ele>
        <time>2024-12-08T02:12:09.619Z</time>
      </trkpt>
      <trkpt lat="45.88359" lon="3.73184">
        <ele>763</ele>
        <time>2024-12-08T02:12:10.619Z</time>
      </trkpt>
      <trkpt lat="45.88359" lon="3.73186">
        <ele>763</ele>
        <time>2024-12-08T02:12:11.620Z</time>
      </trkpt>
      <trkpt lat="45.88359" lon="3.73189">
        <ele>764</ele>
        <time>2024-12-08T02:12:12.619Z</time>
      </trkpt>
      <trkpt lat="45.88359" lon="3.73191">
        <ele>764</ele>
        <time>2024-12-08T02:12:13.619Z</time>
      </trkpt>
      <trkpt lat="45.88359" lon="3.73193">
        <ele>764</ele>
        <time>2024-12-08T02:12:14.620Z</time>
      </trkpt>
      <trkpt lat="45.88359" lon="3.73196">
        <ele>764</ele>
        <time>2024-12-08T02:12:15.620Z</time>
      </trkpt>
      <trkpt lat="45.88359" lon="3.73198">
        <ele>764</ele>
        <time>2024-12-08T02:12:16.620Z</time>
      </trkpt>
      <trkpt lat="45.88358" lon="3.73201">
        <ele>764</ele>
        <time>2024-12-08T02:12:17.619Z</time>
      </trkpt>
      <trkpt lat="45.88358" lon="3.73203">
        <ele>764</ele>
        <time>2024-12-08T02:12:18.619Z</time>
      </trkpt>
      <trkpt lat="45.88358" lon="3.73205">
        <ele>764</ele>
        <time>2024-12-08T02:12:19.619Z</time>
      </trkpt>
      <trkpt lat="45.88358" lon="3.73207">
        <ele>764</ele>
        <time>2024-12-08T02:12:20.619Z</time>
      </trkpt>
      <trkpt lat="45.88358" lon="3.7321">
        <ele>764</ele>
        <time>2024-12-08T02:12:21.619Z</time>
      </trkpt>
      <trkpt lat="45.88358" lon="3.73212">
        <ele>764</ele>
        <time>2024-12-08T02:12:22.619Z</time>
      </trkpt>
      <trkpt lat="45.88358" lon="3.73214">
        <ele>764</ele>
        <time>2024-12-08T02:12:23.619Z</time>
      </trkpt>
      <trkpt lat="45.88358" lon="3.73216">
        <ele>764</ele>
        <time>2024-12-08T02:12:24.620Z</time>
      </trkpt>
      <trkpt lat="45.88358" lon="3.73218">
        <ele>764</ele>
        <time>2024-12-08T02:12:25.620Z</time>
      </trkpt>
      <trkpt lat="45.88358" lon="3.73219">
        <ele>764</ele>
        <time>2024-12-08T02:12:26.619Z</time>
      </trkpt>
      <trkpt lat="45.88358" lon="3.73221">
        <ele>764</ele>
        <time>2024-12-08T02:12:27.619Z</time>
      </trkpt>
      <trkpt lat="45.88358" lon="3.73224">
        <ele>764</ele>
        <time>2024-12-08T02:12:28.620Z</time>
      </trkpt>
      <trkpt lat="45.88358" lon="3.73226">
        <ele>764</ele>
        <time>2024-12-08T02:12:29.619Z</time>
      </trkpt>
      <trkpt lat="45.88358" lon="3.73228">
        <ele>764</ele>
        <time>2024-12-08T02:12:30.619Z</time>
      </trkpt>
      <trkpt lat="45.88358" lon="3.7323">
        <ele>764</ele>
        <time>2024-12-08T02:12:31.620Z</time>
      </trkpt>
      <trkpt lat="45.88358" lon="3.73232">
        <ele>764</ele>
        <time>2024-12-08T02:12:32.620Z</time>
      </trkpt>
      <trkpt lat="45.88358" lon="3.73235">
        <ele>764</ele>
        <time>2024-12-08T02:12:33.620Z</time>
      </trkpt>
      <trkpt lat="45.88358" lon="3.73237">
        <ele>763</ele>
        <time>2024-12-08T02:12:34.619Z</time>
      </trkpt>
      <trkpt lat="45.88358" lon="3.73239">
        <ele>763</ele>
        <time>2024-12-08T02:12:35.619Z</time>
      </trkpt>
      <trkpt lat="45.88358" lon="3.73242">
        <ele>763</ele>
        <time>2024-12-08T02:12:36.620Z</time>
      </trkpt>
      <trkpt lat="45.88358" lon="3.73244">
        <ele>763</ele>
        <time>2024-12-08T02:12:37.619Z</time>
      </trkpt>
      <trkpt lat="45.88358" lon="3.73246">
        <ele>764</ele>
        <time>2024-12-08T02:12:38.619Z</time>
      </trkpt>
      <trkpt lat="45.88358" lon="3.73248">
        <ele>764</ele>
        <time>2024-12-08T02:12:39.620Z</time>
      </trkpt>
      <trkpt lat="45.88358" lon="3.7325">
        <ele>764</ele>
        <time>2024-12-08T02:12:40.619Z</time>
      </trkpt>
      <trkpt lat="45.88358" lon="3.73252">
        <ele>765</ele>
        <time>2024-12-08T02:12:41.620Z</time>
      </trkpt>
      <trkpt lat="45.88359" lon="3.73254">
        <ele>765</ele>
        <time>2024-12-08T02:12:42.620Z</time>
      </trkpt>
      <trkpt lat="45.88359" lon="3.73256">
        <ele>766</ele>
        <time>2024-12-08T02:12:43.620Z</time>
      </trkpt>
      <trkpt lat="45.88359" lon="3.73258">
        <ele>766</ele>
        <time>2024-12-08T02:12:44.619Z</time>
      </trkpt>
      <trkpt lat="45.88359" lon="3.7326">
        <ele>766</ele>
        <time>2024-12-08T02:12:45.620Z</time>
      </trkpt>
      <trkpt lat="45.88359" lon="3.73262">
        <ele>766</ele>
        <time>2024-12-08T02:12:46.620Z</time>
      </trkpt>
      <trkpt lat="45.88359" lon="3.73264">
        <ele>766</ele>
        <time>2024-12-08T02:12:47.619Z</time>
      </trkpt>
      <trkpt lat="45.88359" lon="3.73267">
        <ele>766</ele>
        <time>2024-12-08T02:12:48.619Z</time>
      </trkpt>
      <trkpt lat="45.88359" lon="3.73269">
        <ele>765</ele>
        <time>2024-12-08T02:12:49.620Z</time>
      </trkpt>
      <trkpt lat="45.88359" lon="3.73272">
        <ele>765</ele>
        <time>2024-12-08T02:12:50.619Z</time>
      </trkpt>
      <trkpt lat="45.88359" lon="3.73273">
        <ele>765</ele>
        <time>2024-12-08T02:12:51.619Z</time>
      </trkpt>
      <trkpt lat="45.88359" lon="3.73276">
        <ele>765</ele>
        <time>2024-12-08T02:12:52.619Z</time>
      </trkpt>
      <trkpt lat="45.88359" lon="3.73279">
        <ele>766</ele>
        <time>2024-12-08T02:12:53.619Z</time>
      </trkpt>
      <trkpt lat="45.88359" lon="3.73281">
        <ele>766</ele>
        <time>2024-12-08T02:12:54.620Z</time>
      </trkpt>
      <trkpt lat="45.8836" lon="3.73284">
        <ele>766</ele>
        <time>2024-12-08T02:12:55.619Z</time>
      </trkpt>
      <trkpt lat="45.8836" lon="3.73286">
        <ele>766</ele>
        <time>2024-12-08T02:12:56.619Z</time>
      </trkpt>
      <trkpt lat="45.8836" lon="3.73289">
        <ele>766</ele>
        <time>2024-12-08T02:12:57.619Z</time>
      </trkpt>
      <trkpt lat="45.88361" lon="3.73291">
        <ele>766</ele>
        <time>2024-12-08T02:12:58.619Z</time>
      </trkpt>
      <trkpt lat="45.88361" lon="3.73293">
        <ele>766</ele>
        <time>2024-12-08T02:12:59.620Z</time>
      </trkpt>
      <trkpt lat="45.88361" lon="3.73295">
        <ele>767</ele>
        <time>2024-12-08T02:13:00.620Z</time>
      </trkpt>
      <trkpt lat="45.88361" lon="3.73297">
        <ele>767</ele>
        <time>2024-12-08T02:13:01.619Z</time>
      </trkpt>
      <trkpt lat="45.88362" lon="3.733">
        <ele>767</ele>
        <time>2024-12-08T02:13:02.619Z</time>
      </trkpt>
      <trkpt lat="45.88362" lon="3.73302">
        <ele>767</ele>
        <time>2024-12-08T02:13:03.620Z</time>
      </trkpt>
      <trkpt lat="45.88362" lon="3.73303">
        <ele>767</ele>
        <time>2024-12-08T02:13:04.620Z</time>
      </trkpt>
      <trkpt lat="45.88363" lon="3.73305">
        <ele>767</ele>
        <time>2024-12-08T02:13:05.620Z</time>
      </trkpt>
      <trkpt lat="45.88363" lon="3.73307">
        <ele>767</ele>
        <time>2024-12-08T02:13:06.619Z</time>
      </trkpt>
      <trkpt lat="45.88364" lon="3.7331">
        <ele>767</ele>
        <time>2024-12-08T02:13:07.620Z</time>
      </trkpt>
      <trkpt lat="45.88364" lon="3.73312">
        <ele>767</ele>
        <time>2024-12-08T02:13:08.619Z</time>
      </trkpt>
      <trkpt lat="45.88365" lon="3.73314">
        <ele>767</ele>
        <time>2024-12-08T02:13:09.619Z</time>
      </trkpt>
      <trkpt lat="45.88366" lon="3.73317">
        <ele>767</ele>
        <time>2024-12-08T02:13:10.619Z</time>
      </trkpt>
      <trkpt lat="45.88366" lon="3.73319">
        <ele>767</ele>
        <time>2024-12-08T02:13:11.620Z</time>
      </trkpt>
      <trkpt lat="45.88366" lon="3.73321">
        <ele>767</ele>
        <time>2024-12-08T02:13:12.620Z</time>
      </trkpt>
      <trkpt lat="45.88367" lon="3.73323">
        <ele>767</ele>
        <time>2024-12-08T02:13:13.619Z</time>
      </trkpt>
      <trkpt lat="45.88367" lon="3.73325">
        <ele>767</ele>
        <time>2024-12-08T02:13:14.620Z</time>
      </trkpt>
      <trkpt lat="45.88367" lon="3.73327">
        <ele>767</ele>
        <time>2024-12-08T02:13:15.619Z</time>
      </trkpt>
      <trkpt lat="45.88368" lon="3.73329">
        <ele>767</ele>
        <time>2024-12-08T02:13:16.620Z</time>
      </trkpt>
      <trkpt lat="45.88368" lon="3.73332">
        <ele>767</ele>
        <time>2024-12-08T02:13:17.620Z</time>
      </trkpt>
      <trkpt lat="45.88369" lon="3.73335">
        <ele>768</ele>
        <time>2024-12-08T02:13:18.619Z</time>
      </trkpt>
      <trkpt lat="45.88369" lon="3.73337">
        <ele>768</ele>
        <time>2024-12-08T02:13:19.619Z</time>
      </trkpt>
      <trkpt lat="45.8837" lon="3.73339">
        <ele>768</ele>
        <time>2024-12-08T02:13:20.620Z</time>
      </trkpt>
      <trkpt lat="45.88371" lon="3.73342">
        <ele>768</ele>
        <time>2024-12-08T02:13:21.619Z</time>
      </trkpt>
      <trkpt lat="45.88371" lon="3.73344">
        <ele>768</ele>
        <time>2024-12-08T02:13:22.619Z</time>
      </trkpt>
      <trkpt lat="45.88372" lon="3.73346">
        <ele>768</ele>
        <time>2024-12-08T02:13:23.619Z</time>
      </trkpt>
      <trkpt lat="45.88372" lon="3.73349">
        <ele>769</ele>
        <time>2024-12-08T02:13:24.620Z</time>
      </trkpt>
      <trkpt lat="45.88373" lon="3.73351">
        <ele>769</ele>
        <time>2024-12-08T02:13:25.620Z</time>
      </trkpt>
      <trkpt lat="45.88373" lon="3.73353">
        <ele>769</ele>
        <time>2024-12-08T02:13:26.619Z</time>
      </trkpt>
      <trkpt lat="45.88374" lon="3.73355">
        <ele>769</ele>
        <time>2024-12-08T02:13:27.620Z</time>
      </trkpt>
      <trkpt lat="45.88375" lon="3.73358">
        <ele>769</ele>
        <time>2024-12-08T02:13:28.619Z</time>
      </trkpt>
      <trkpt lat="45.88375" lon="3.7336">
        <ele>769</ele>
        <time>2024-12-08T02:13:29.619Z</time>
      </trkpt>
      <trkpt lat="45.88376" lon="3.73362">
        <ele>769</ele>
        <time>2024-12-08T02:13:30.619Z</time>
      </trkpt>
      <trkpt lat="45.88376" lon="3.73364">
        <ele>769</ele>
        <time>2024-12-08T02:13:31.619Z</time>
      </trkpt>
      <trkpt lat="45.88376" lon="3.73366">
        <ele>768</ele>
        <time>2024-12-08T02:13:32.619Z</time>
      </trkpt>
      <trkpt lat="45.88376" lon="3.73368">
        <ele>768</ele>
        <time>2024-12-08T02:13:33.620Z</time>
      </trkpt>
      <trkpt lat="45.88377" lon="3.7337">
        <ele>768</ele>
        <time>2024-12-08T02:13:34.620Z</time>
      </trkpt>
      <trkpt lat="45.88378" lon="3.73373">
        <ele>768</ele>
        <time>2024-12-08T02:13:35.620Z</time>
      </trkpt>
      <trkpt lat="45.88378" lon="3.73375">
        <ele>768</ele>
        <time>2024-12-08T02:13:36.619Z</time>
      </trkpt>
      <trkpt lat="45.88379" lon="3.73377">
        <ele>768</ele>
        <time>2024-12-08T02:13:37.619Z</time>
      </trkpt>
      <trkpt lat="45.88379" lon="3.73379">
        <ele>769</ele>
        <time>2024-12-08T02:13:38.620Z</time>
      </trkpt>
      <trkpt lat="45.8838" lon="3.73381">
        <ele>769</ele>
        <time>2024-12-08T02:13:39.620Z</time>
      </trkpt>
      <trkpt lat="45.8838" lon="3.73383">
        <ele>769</ele>
        <time>2024-12-08T02:13:40.620Z</time>
      </trkpt>
      <trkpt lat="45.88381" lon="3.73386">
        <ele>769</ele>
        <time>2024-12-08T02:13:41.619Z</time>
      </trkpt>
      <trkpt lat="45.88381" lon="3.73388">
        <ele>769</ele>
        <time>2024-12-08T02:13:42.620Z</time>
      </trkpt>
      <trkpt lat="45.88382" lon="3.7339">
        <ele>769</ele>
        <time>2024-12-08T02:13:43.620Z</time>
      </trkpt>
      <trkpt lat="45.88383" lon="3.73392">
        <ele>769</ele>
        <time>2024-12-08T02:13:44.619Z</time>
      </trkpt>
      <trkpt lat="45.88383" lon="3.73394">
        <ele>769</ele>
        <time>2024-12-08T02:13:45.619Z</time>
      </trkpt>
      <trkpt lat="45.88384" lon="3.73396">
        <ele>769</ele>
        <time>2024-12-08T02:13:46.619Z</time>
      </trkpt>
      <trkpt lat="45.88384" lon="3.73398">
        <ele>769</ele>
        <time>2024-12-08T02:13:47.619Z</time>
      </trkpt>
      <trkpt lat="45.88385" lon="3.734">
        <ele>769</ele>
        <time>2024-12-08T02:13:48.620Z</time>
      </trkpt>
      <trkpt lat="45.88385" lon="3.73402">
        <ele>769</ele>
        <time>2024-12-08T02:13:49.620Z</time>
      </trkpt>
      <trkpt lat="45.88386" lon="3.73405">
        <ele>769</ele>
        <time>2024-12-08T02:13:50.620Z</time>
      </trkpt>
      <trkpt lat="45.88386" lon="3.73407">
        <ele>769</ele>
        <time>2024-12-08T02:13:51.619Z</time>
      </trkpt>
      <trkpt lat="45.88387" lon="3.73409">
        <ele>769</ele>
        <time>2024-12-08T02:13:52.619Z</time>
      </trkpt>
      <trkpt lat="45.88387" lon="3.73412">
        <ele>768</ele>
        <time>2024-12-08T02:13:53.619Z</time>
      </trkpt>
      <trkpt lat="45.88388" lon="3.73414">
        <ele>768</ele>
        <time>2024-12-08T02:13:54.619Z</time>
      </trkpt>
      <trkpt lat="45.88388" lon="3.73416">
        <ele>768</ele>
        <time>2024-12-08T02:13:55.619Z</time>
      </trkpt>
      <trkpt lat="45.88389" lon="3.73419">
        <ele>768</ele>
        <time>2024-12-08T02:13:56.620Z</time>
      </trkpt>
      <trkpt lat="45.88389" lon="3.73421">
        <ele>768</ele>
        <time>2024-12-08T02:13:57.620Z</time>
      </trkpt>
      <trkpt lat="45.8839" lon="3.73423">
        <ele>767</ele>
        <time>2024-12-08T02:13:58.619Z</time>
      </trkpt>
      <trkpt lat="45.88391" lon="3.73425">
        <ele>768</ele>
        <time>2024-12-08T02:13:59.620Z</time>
      </trkpt>
      <trkpt lat="45.88391" lon="3.73427">
        <ele>768</ele>
        <time>2024-12-08T02:14:00.620Z</time>
      </trkpt>
      <trkpt lat="45.88392" lon="3.7343">
        <ele>768</ele>
        <time>2024-12-08T02:14:01.620Z</time>
      </trkpt>
      <trkpt lat="45.88393" lon="3.73432">
        <ele>769</ele>
        <time>2024-12-08T02:14:02.619Z</time>
      </trkpt>
      <trkpt lat="45.88393" lon="3.73435">
        <ele>769</ele>
        <time>2024-12-08T02:14:03.620Z</time>
      </trkpt>
      <trkpt lat="45.88394" lon="3.73437">
        <ele>769</ele>
        <time>2024-12-08T02:14:04.619Z</time>
      </trkpt>
      <trkpt lat="45.88395" lon="3.73439">
        <ele>769</ele>
        <time>2024-12-08T02:14:05.620Z</time>
      </trkpt>
      <trkpt lat="45.88395" lon="3.73442">
        <ele>769</ele>
        <time>2024-12-08T02:14:06.619Z</time>
      </trkpt>
      <trkpt lat="45.88396" lon="3.73444">
        <ele>770</ele>
        <time>2024-12-08T02:14:07.620Z</time>
      </trkpt>
      <trkpt lat="45.88396" lon="3.73447">
        <ele>770</ele>
        <time>2024-12-08T02:14:08.619Z</time>
      </trkpt>
      <trkpt lat="45.88397" lon="3.73449">
        <ele>770</ele>
        <time>2024-12-08T02:14:09.619Z</time>
      </trkpt>
      <trkpt lat="45.88398" lon="3.73451">
        <ele>770</ele>
        <time>2024-12-08T02:14:10.619Z</time>
      </trkpt>
      <trkpt lat="45.88399" lon="3.73454">
        <ele>770</ele>
        <time>2024-12-08T02:14:11.620Z</time>
      </trkpt>
      <trkpt lat="45.88399" lon="3.73456">
        <ele>770</ele>
        <time>2024-12-08T02:14:12.620Z</time>
      </trkpt>
      <trkpt lat="45.884" lon="3.73458">
        <ele>770</ele>
        <time>2024-12-08T02:14:13.620Z</time>
      </trkpt>
      <trkpt lat="45.88401" lon="3.7346">
        <ele>770</ele>
        <time>2024-12-08T02:14:14.620Z</time>
      </trkpt>
      <trkpt lat="45.88401" lon="3.73462">
        <ele>770</ele>
        <time>2024-12-08T02:14:15.620Z</time>
      </trkpt>
      <trkpt lat="45.88402" lon="3.73465">
        <ele>770</ele>
        <time>2024-12-08T02:14:16.619Z</time>
      </trkpt>
      <trkpt lat="45.88403" lon="3.73467">
        <ele>771</ele>
        <time>2024-12-08T02:14:17.619Z</time>
      </trkpt>
      <trkpt lat="45.88403" lon="3.73469">
        <ele>771</ele>
        <time>2024-12-08T02:14:18.619Z</time>
      </trkpt>
      <trkpt lat="45.88404" lon="3.73471">
        <ele>772</ele>
        <time>2024-12-08T02:14:19.619Z</time>
      </trkpt>
      <trkpt lat="45.88404" lon="3.73473">
        <ele>772</ele>
        <time>2024-12-08T02:14:20.620Z</time>
      </trkpt>
      <trkpt lat="45.88405" lon="3.73475">
        <ele>772</ele>
        <time>2024-12-08T02:14:21.619Z</time>
      </trkpt>
      <trkpt lat="45.88406" lon="3.73478">
        <ele>772</ele>
        <time>2024-12-08T02:14:22.619Z</time>
      </trkpt>
      <trkpt lat="45.88406" lon="3.7348">
        <ele>773</ele>
        <time>2024-12-08T02:14:23.619Z</time>
      </trkpt>
      <trkpt lat="45.88407" lon="3.73482">
        <ele>773</ele>
        <time>2024-12-08T02:14:24.619Z</time>
      </trkpt>
      <trkpt lat="45.88408" lon="3.73484">
        <ele>773</ele>
        <time>2024-12-08T02:14:25.619Z</time>
      </trkpt>
      <trkpt lat="45.88409" lon="3.73487">
        <ele>773</ele>
        <time>2024-12-08T02:14:26.620Z</time>
      </trkpt>
      <trkpt lat="45.88409" lon="3.73489">
        <ele>773</ele>
        <time>2024-12-08T02:14:27.620Z</time>
      </trkpt>
      <trkpt lat="45.8841" lon="3.73491">
        <ele>773</ele>
        <time>2024-12-08T02:14:28.619Z</time>
      </trkpt>
      <trkpt lat="45.88411" lon="3.73493">
        <ele>773</ele>
        <time>2024-12-08T02:14:29.620Z</time>
      </trkpt>
      <trkpt lat="45.88411" lon="3.73496">
        <ele>773</ele>
        <time>2024-12-08T02:14:30.619Z</time>
      </trkpt>
      <trkpt lat="45.88412" lon="3.73498">
        <ele>773</ele>
        <time>2024-12-08T02:14:31.620Z</time>
      </trkpt>
      <trkpt lat="45.88413" lon="3.735">
        <ele>773</ele>
        <time>2024-12-08T02:14:32.619Z</time>
      </trkpt>
      <trkpt lat="45.88414" lon="3.73502">
        <ele>773</ele>
        <time>2024-12-08T02:14:33.619Z</time>
      </trkpt>
      <trkpt lat="45.88415" lon="3.73504">
        <ele>773</ele>
        <time>2024-12-08T02:14:34.619Z</time>
      </trkpt>
      <trkpt lat="45.88416" lon="3.73506">
        <ele>773</ele>
        <time>2024-12-08T02:14:35.620Z</time>
      </trkpt>
      <trkpt lat="45.88416" lon="3.73507">
        <ele>773</ele>
        <time>2024-12-08T02:14:36.619Z</time>
      </trkpt>
      <trkpt lat="45.88417" lon="3.73509">
        <ele>773</ele>
        <time>2024-12-08T02:14:37.619Z</time>
      </trkpt>
      <trkpt lat="45.88417" lon="3.73511">
        <ele>773</ele>
        <time>2024-12-08T02:14:38.619Z</time>
      </trkpt>
      <trkpt lat="45.88418" lon="3.73513">
        <ele>773</ele>
        <time>2024-12-08T02:14:39.620Z</time>
      </trkpt>
      <trkpt lat="45.88418" lon="3.73515">
        <ele>773</ele>
        <time>2024-12-08T02:14:40.619Z</time>
      </trkpt>
      <trkpt lat="45.88419" lon="3.73517">
        <ele>773</ele>
        <time>2024-12-08T02:14:41.619Z</time>
      </trkpt>
      <trkpt lat="45.88419" lon="3.73519">
        <ele>773</ele>
        <time>2024-12-08T02:14:42.619Z</time>
      </trkpt>
      <trkpt lat="45.8842" lon="3.73521">
        <ele>773</ele>
        <time>2024-12-08T02:14:43.619Z</time>
      </trkpt>
      <trkpt lat="45.8842" lon="3.73523">
        <ele>773</ele>
        <time>2024-12-08T02:14:44.620Z</time>
      </trkpt>
      <trkpt lat="45.88421" lon="3.73525">
        <ele>773</ele>
        <time>2024-12-08T02:14:45.619Z</time>
      </trkpt>
      <trkpt lat="45.88422" lon="3.73527">
        <ele>773</ele>
        <time>2024-12-08T02:14:46.620Z</time>
      </trkpt>
      <trkpt lat="45.88423" lon="3.73529">
        <ele>773</ele>
        <time>2024-12-08T02:14:47.619Z</time>
      </trkpt>
      <trkpt lat="45.88423" lon="3.73531">
        <ele>773</ele>
        <time>2024-12-08T02:14:48.619Z</time>
      </trkpt>
      <trkpt lat="45.88424" lon="3.73534">
        <ele>773</ele>
        <time>2024-12-08T02:14:49.619Z</time>
      </trkpt>
      <trkpt lat="45.88424" lon="3.73536">
        <ele>774</ele>
        <time>2024-12-08T02:14:50.620Z</time>
      </trkpt>
      <trkpt lat="45.88425" lon="3.73538">
        <ele>774</ele>
        <time>2024-12-08T02:14:51.620Z</time>
      </trkpt>
      <trkpt lat="45.88425" lon="3.7354">
        <ele>774</ele>
        <time>2024-12-08T02:14:52.620Z</time>
      </trkpt>
      <trkpt lat="45.88426" lon="3.73542">
        <ele>774</ele>
        <time>2024-12-08T02:14:53.619Z</time>
      </trkpt>
      <trkpt lat="45.88426" lon="3.73544">
        <ele>774</ele>
        <time>2024-12-08T02:14:54.620Z</time>
      </trkpt>
      <trkpt lat="45.88427" lon="3.73546">
        <ele>774</ele>
        <time>2024-12-08T02:14:55.619Z</time>
      </trkpt>
      <trkpt lat="45.88428" lon="3.73549">
        <ele>774</ele>
        <time>2024-12-08T02:14:56.620Z</time>
      </trkpt>
      <trkpt lat="45.88428" lon="3.73551">
        <ele>774</ele>
        <time>2024-12-08T02:14:57.620Z</time>
      </trkpt>
      <trkpt lat="45.88428" lon="3.73553">
        <ele>774</ele>
        <time>2024-12-08T02:14:58.620Z</time>
      </trkpt>
      <trkpt lat="45.88428" lon="3.73555">
        <ele>774</ele>
        <time>2024-12-08T02:14:59.619Z</time>
      </trkpt>
      <trkpt lat="45.88429" lon="3.73557">
        <ele>774</ele>
        <time>2024-12-08T02:15:00.620Z</time>
      </trkpt>
      <trkpt lat="45.88429" lon="3.73559">
        <ele>774</ele>
        <time>2024-12-08T02:15:01.619Z</time>
      </trkpt>
      <trkpt lat="45.8843" lon="3.7356">
        <ele>774</ele>
        <time>2024-12-08T02:15:02.620Z</time>
      </trkpt>
      <trkpt lat="45.88431" lon="3.73563">
        <ele>774</ele>
        <time>2024-12-08T02:15:03.620Z</time>
      </trkpt>
      <trkpt lat="45.88432" lon="3.73565">
        <ele>774</ele>
        <time>2024-12-08T02:15:04.619Z</time>
      </trkpt>
      <trkpt lat="45.88432" lon="3.73567">
        <ele>774</ele>
        <time>2024-12-08T02:15:05.619Z</time>
      </trkpt>
      <trkpt lat="45.88433" lon="3.73569">
        <ele>775</ele>
        <time>2024-12-08T02:15:06.620Z</time>
      </trkpt>
      <trkpt lat="45.88433" lon="3.73571">
        <ele>775</ele>
        <time>2024-12-08T02:15:07.620Z</time>
      </trkpt>
      <trkpt lat="45.88434" lon="3.73573">
        <ele>775</ele>
        <time>2024-12-08T02:15:08.620Z</time>
      </trkpt>
      <trkpt lat="45.88435" lon="3.73575">
        <ele>775</ele>
        <time>2024-12-08T02:15:09.620Z</time>
      </trkpt>
      <trkpt lat="45.88435" lon="3.73577">
        <ele>775</ele>
        <time>2024-12-08T02:15:10.620Z</time>
      </trkpt>
      <trkpt lat="45.88436" lon="3.73579">
        <ele>775</ele>
        <time>2024-12-08T02:15:11.619Z</time>
      </trkpt>
      <trkpt lat="45.88436" lon="3.73582">
        <ele>775</ele>
        <time>2024-12-08T02:15:12.619Z</time>
      </trkpt>
      <trkpt lat="45.88437" lon="3.73584">
        <ele>775</ele>
        <time>2024-12-08T02:15:13.619Z</time>
      </trkpt>
      <trkpt lat="45.88437" lon="3.73585">
        <ele>775</ele>
        <time>2024-12-08T02:15:14.619Z</time>
      </trkpt>
      <trkpt lat="45.88438" lon="3.73587">
        <ele>775</ele>
        <time>2024-12-08T02:15:15.619Z</time>
      </trkpt>
      <trkpt lat="45.88438" lon="3.73589">
        <ele>775</ele>
        <time>2024-12-08T02:15:16.620Z</time>
      </trkpt>
      <trkpt lat="45.88439" lon="3.73592">
        <ele>775</ele>
        <time>2024-12-08T02:15:17.619Z</time>
      </trkpt>
      <trkpt lat="45.8844" lon="3.73594">
        <ele>775</ele>
        <time>2024-12-08T02:15:18.619Z</time>
      </trkpt>
      <trkpt lat="45.8844" lon="3.73596">
        <ele>775</ele>
        <time>2024-12-08T02:15:19.620Z</time>
      </trkpt>
      <trkpt lat="45.88441" lon="3.73598">
        <ele>775</ele>
        <time>2024-12-08T02:15:20.619Z</time>
      </trkpt>
      <trkpt lat="45.88441" lon="3.73599">
        <ele>775</ele>
        <time>2024-12-08T02:15:21.620Z</time>
      </trkpt>
      <trkpt lat="45.88442" lon="3.73601">
        <ele>775</ele>
        <time>2024-12-08T02:15:22.620Z</time>
      </trkpt>
      <trkpt lat="45.88443" lon="3.73603">
        <ele>774</ele>
        <time>2024-12-08T02:15:23.619Z</time>
      </trkpt>
      <trkpt lat="45.88443" lon="3.73605">
        <ele>774</ele>
        <time>2024-12-08T02:15:24.620Z</time>
      </trkpt>
      <trkpt lat="45.88444" lon="3.73607">
        <ele>774</ele>
        <time>2024-12-08T02:15:25.619Z</time>
      </trkpt>
      <trkpt lat="45.88445" lon="3.73609">
        <ele>774</ele>
        <time>2024-12-08T02:15:26.619Z</time>
      </trkpt>
      <trkpt lat="45.88445" lon="3.73611">
        <ele>774</ele>
        <time>2024-12-08T02:15:27.620Z</time>
      </trkpt>
      <trkpt lat="45.88446" lon="3.73613">
        <ele>773</ele>
        <time>2024-12-08T02:15:28.620Z</time>
      </trkpt>
      <trkpt lat="45.88447" lon="3.73615">
        <ele>774</ele>
        <time>2024-12-08T02:15:29.619Z</time>
      </trkpt>
      <trkpt lat="45.88448" lon="3.73617">
        <ele>773</ele>
        <time>2024-12-08T02:15:30.620Z</time>
      </trkpt>
      <trkpt lat="45.88448" lon="3.73619">
        <ele>773</ele>
        <time>2024-12-08T02:15:31.620Z</time>
      </trkpt>
      <trkpt lat="45.88448" lon="3.73621">
        <ele>773</ele>
        <time>2024-12-08T02:15:32.619Z</time>
      </trkpt>
      <trkpt lat="45.88449" lon="3.73623">
        <ele>773</ele>
        <time>2024-12-08T02:15:33.619Z</time>
      </trkpt>
      <trkpt lat="45.8845" lon="3.73625">
        <ele>773</ele>
        <time>2024-12-08T02:15:34.619Z</time>
      </trkpt>
      <trkpt lat="45.8845" lon="3.73627">
        <ele>773</ele>
        <time>2024-12-08T02:15:35.619Z</time>
      </trkpt>
      <trkpt lat="45.88451" lon="3.73629">
        <ele>773</ele>
        <time>2024-12-08T02:15:36.620Z</time>
      </trkpt>
      <trkpt lat="45.88452" lon="3.73631">
        <ele>774</ele>
        <time>2024-12-08T02:15:37.619Z</time>
      </trkpt>
      <trkpt lat="45.88453" lon="3.73634">
        <ele>774</ele>
        <time>2024-12-08T02:15:38.620Z</time>
      </trkpt>
      <trkpt lat="45.88454" lon="3.73636">
        <ele>774</ele>
        <time>2024-12-08T02:15:39.619Z</time>
      </trkpt>
      <trkpt lat="45.88455" lon="3.73638">
        <ele>774</ele>
        <time>2024-12-08T02:15:40.619Z</time>
      </trkpt>
      <trkpt lat="45.88456" lon="3.7364">
        <ele>775</ele>
        <time>2024-12-08T02:15:41.620Z</time>
      </trkpt>
      <trkpt lat="45.88456" lon="3.73642">
        <ele>775</ele>
        <time>2024-12-08T02:15:42.620Z</time>
      </trkpt>
      <trkpt lat="45.88457" lon="3.73643">
        <ele>775</ele>
        <time>2024-12-08T02:15:43.619Z</time>
      </trkpt>
      <trkpt lat="45.88457" lon="3.73645">
        <ele>775</ele>
        <time>2024-12-08T02:15:44.620Z</time>
      </trkpt>
      <trkpt lat="45.88458" lon="3.73647">
        <ele>775</ele>
        <time>2024-12-08T02:15:45.619Z</time>
      </trkpt>
      <trkpt lat="45.88459" lon="3.73649">
        <ele>775</ele>
        <time>2024-12-08T02:15:46.620Z</time>
      </trkpt>
      <trkpt lat="45.88459" lon="3.73651">
        <ele>775</ele>
        <time>2024-12-08T02:15:47.619Z</time>
      </trkpt>
      <trkpt lat="45.8846" lon="3.73653">
        <ele>775</ele>
        <time>2024-12-08T02:15:48.620Z</time>
      </trkpt>
      <trkpt lat="45.88461" lon="3.73655">
        <ele>775</ele>
        <time>2024-12-08T02:15:49.620Z</time>
      </trkpt>
      <trkpt lat="45.88461" lon="3.73657">
        <ele>775</ele>
        <time>2024-12-08T02:15:50.620Z</time>
      </trkpt>
      <trkpt lat="45.88462" lon="3.73658">
        <ele>775</ele>
        <time>2024-12-08T02:15:51.619Z</time>
      </trkpt>
      <trkpt lat="45.88462" lon="3.7366">
        <ele>775</ele>
        <time>2024-12-08T02:15:52.619Z</time>
      </trkpt>
      <trkpt lat="45.88463" lon="3.73661">
        <ele>775</ele>
        <time>2024-12-08T02:15:53.619Z</time>
      </trkpt>
      <trkpt lat="45.88463" lon="3.73663">
        <ele>775</ele>
        <time>2024-12-08T02:15:54.620Z</time>
      </trkpt>
      <trkpt lat="45.88463" lon="3.73664">
        <ele>775</ele>
        <time>2024-12-08T02:15:55.620Z</time>
      </trkpt>
      <trkpt lat="45.88464" lon="3.73665">
        <ele>775</ele>
        <time>2024-12-08T02:15:56.620Z</time>
      </trkpt>
      <trkpt lat="45.88464" lon="3.73667">
        <ele>775</ele>
        <time>2024-12-08T02:15:57.620Z</time>
      </trkpt>
      <trkpt lat="45.88465" lon="3.73668">
        <ele>776</ele>
        <time>2024-12-08T02:15:58.619Z</time>
      </trkpt>
      <trkpt lat="45.88465" lon="3.7367">
        <ele>776</ele>
        <time>2024-12-08T02:15:59.619Z</time>
      </trkpt>
      <trkpt lat="45.88466" lon="3.73672">
        <ele>776</ele>
        <time>2024-12-08T02:16:00.620Z</time>
      </trkpt>
      <trkpt lat="45.88466" lon="3.73674">
        <ele>776</ele>
        <time>2024-12-08T02:16:01.620Z</time>
      </trkpt>
      <trkpt lat="45.88467" lon="3.73676">
        <ele>777</ele>
        <time>2024-12-08T02:16:02.619Z</time>
      </trkpt>
      <trkpt lat="45.88467" lon="3.73678">
        <ele>777</ele>
        <time>2024-12-08T02:16:03.620Z</time>
      </trkpt>
      <trkpt lat="45.88468" lon="3.7368">
        <ele>777</ele>
        <time>2024-12-08T02:16:04.619Z</time>
      </trkpt>
      <trkpt lat="45.88468" lon="3.73681">
        <ele>777</ele>
        <time>2024-12-08T02:16:05.619Z</time>
      </trkpt>
      <trkpt lat="45.88468" lon="3.73683">
        <ele>777</ele>
        <time>2024-12-08T02:16:06.620Z</time>
      </trkpt>
      <trkpt lat="45.88468" lon="3.73685">
        <ele>777</ele>
        <time>2024-12-08T02:16:07.619Z</time>
      </trkpt>
      <trkpt lat="45.88468" lon="3.73686">
        <ele>777</ele>
        <time>2024-12-08T02:16:08.619Z</time>
      </trkpt>
      <trkpt lat="45.88469" lon="3.73688">
        <ele>777</ele>
        <time>2024-12-08T02:16:09.620Z</time>
      </trkpt>
      <trkpt lat="45.88469" lon="3.7369">
        <ele>777</ele>
        <time>2024-12-08T02:16:10.620Z</time>
      </trkpt>
      <trkpt lat="45.88469" lon="3.73692">
        <ele>777</ele>
        <time>2024-12-08T02:16:11.619Z</time>
      </trkpt>
      <trkpt lat="45.88469" lon="3.73694">
        <ele>777</ele>
        <time>2024-12-08T02:16:12.620Z</time>
      </trkpt>
      <trkpt lat="45.88469" lon="3.73696">
        <ele>778</ele>
        <time>2024-12-08T02:16:13.619Z</time>
      </trkpt>
      <trkpt lat="45.8847" lon="3.73698">
        <ele>778</ele>
        <time>2024-12-08T02:16:14.619Z</time>
      </trkpt>
      <trkpt lat="45.8847" lon="3.73699">
        <ele>778</ele>
        <time>2024-12-08T02:16:15.620Z</time>
      </trkpt>
      <trkpt lat="45.8847" lon="3.73701">
        <ele>778</ele>
        <time>2024-12-08T02:16:16.619Z</time>
      </trkpt>
      <trkpt lat="45.88471" lon="3.73702">
        <ele>778</ele>
        <time>2024-12-08T02:16:17.620Z</time>
      </trkpt>
      <trkpt lat="45.88471" lon="3.73704">
        <ele>779</ele>
        <time>2024-12-08T02:16:18.619Z</time>
      </trkpt>
      <trkpt lat="45.88471" lon="3.73706">
        <ele>779</ele>
        <time>2024-12-08T02:16:19.620Z</time>
      </trkpt>
      <trkpt lat="45.88472" lon="3.73708">
        <ele>779</ele>
        <time>2024-12-08T02:16:20.619Z</time>
      </trkpt>
      <trkpt lat="45.88472" lon="3.7371">
        <ele>779</ele>
        <time>2024-12-08T02:16:21.619Z</time>
      </trkpt>
      <trkpt lat="45.88473" lon="3.73711">
        <ele>779</ele>
        <time>2024-12-08T02:16:22.619Z</time>
      </trkpt>
      <trkpt lat="45.88473" lon="3.73713">
        <ele>779</ele>
        <time>2024-12-08T02:16:23.619Z</time>
      </trkpt>
      <trkpt lat="45.88474" lon="3.73714">
        <ele>779</ele>
        <time>2024-12-08T02:16:24.619Z</time>
      </trkpt>
      <trkpt lat="45.88474" lon="3.73716">
        <ele>779</ele>
        <time>2024-12-08T02:16:25.619Z</time>
      </trkpt>
      <trkpt lat="45.88474" lon="3.73718">
        <ele>779</ele>
        <time>2024-12-08T02:16:26.620Z</time>
      </trkpt>
      <trkpt lat="45.88475" lon="3.7372">
        <ele>779</ele>
        <time>2024-12-08T02:16:27.620Z</time>
      </trkpt>
      <trkpt lat="45.88475" lon="3.73721">
        <ele>779</ele>
        <time>2024-12-08T02:16:28.620Z</time>
      </trkpt>
      <trkpt lat="45.88475" lon="3.73723">
        <ele>779</ele>
        <time>2024-12-08T02:16:29.620Z</time>
      </trkpt>
      <trkpt lat="45.88475" lon="3.73724">
        <ele>779</ele>
        <time>2024-12-08T02:16:30.619Z</time>
      </trkpt>
      <trkpt lat="45.88476" lon="3.73726">
        <ele>780</ele>
        <time>2024-12-08T02:16:31.620Z</time>
      </trkpt>
      <trkpt lat="45.88476" lon="3.73728">
        <ele>780</ele>
        <time>2024-12-08T02:16:32.619Z</time>
      </trkpt>
      <trkpt lat="45.88476" lon="3.73729">
        <ele>780</ele>
        <time>2024-12-08T02:16:33.620Z</time>
      </trkpt>
      <trkpt lat="45.88477" lon="3.73732">
        <ele>780</ele>
        <time>2024-12-08T02:16:34.620Z</time>
      </trkpt>
      <trkpt lat="45.88478" lon="3.73733">
        <ele>780</ele>
        <time>2024-12-08T02:16:35.619Z</time>
      </trkpt>
      <trkpt lat="45.88478" lon="3.73735">
        <ele>781</ele>
        <time>2024-12-08T02:16:36.620Z</time>
      </trkpt>
      <trkpt lat="45.88478" lon="3.73737">
        <ele>781</ele>
        <time>2024-12-08T02:16:37.620Z</time>
      </trkpt>
      <trkpt lat="45.88479" lon="3.73738">
        <ele>781</ele>
        <time>2024-12-08T02:16:38.620Z</time>
      </trkpt>
      <trkpt lat="45.88479" lon="3.7374">
        <ele>781</ele>
        <time>2024-12-08T02:16:39.619Z</time>
      </trkpt>
      <trkpt lat="45.88479" lon="3.73742">
        <ele>781</ele>
        <time>2024-12-08T02:16:40.620Z</time>
      </trkpt>
      <trkpt lat="45.8848" lon="3.73743">
        <ele>781</ele>
        <time>2024-12-08T02:16:41.619Z</time>
      </trkpt>
      <trkpt lat="45.8848" lon="3.73745">
        <ele>781</ele>
        <time>2024-12-08T02:16:42.620Z</time>
      </trkpt>
      <trkpt lat="45.8848" lon="3.73747">
        <ele>781</ele>
        <time>2024-12-08T02:16:43.619Z</time>
      </trkpt>
      <trkpt lat="45.8848" lon="3.73748">
        <ele>782</ele>
        <time>2024-12-08T02:16:44.619Z</time>
      </trkpt>
      <trkpt lat="45.8848" lon="3.7375">
        <ele>782</ele>
        <time>2024-12-08T02:16:45.619Z</time>
      </trkpt>
      <trkpt lat="45.88481" lon="3.73752">
        <ele>782</ele>
        <time>2024-12-08T02:16:46.619Z</time>
      </trkpt>
      <trkpt lat="45.88481" lon="3.73754">
        <ele>782</ele>
        <time>2024-12-08T02:16:47.620Z</time>
      </trkpt>
      <trkpt lat="45.88481" lon="3.73756">
        <ele>782</ele>
        <time>2024-12-08T02:16:48.620Z</time>
      </trkpt>
      <trkpt lat="45.88482" lon="3.73758">
        <ele>782</ele>
        <time>2024-12-08T02:16:49.620Z</time>
      </trkpt>
      <trkpt lat="45.88482" lon="3.7376">
        <ele>782</ele>
        <time>2024-12-08T02:16:50.619Z</time>
      </trkpt>
      <trkpt lat="45.88483" lon="3.73761">
        <ele>782</ele>
        <time>2024-12-08T02:16:51.619Z</time>
      </trkpt>
      <trkpt lat="45.88483" lon="3.73763">
        <ele>782</ele>
        <time>2024-12-08T02:16:52.620Z</time>
      </trkpt>
      <trkpt lat="45.88483" lon="3.73765">
        <ele>782</ele>
        <time>2024-12-08T02:16:53.619Z</time>
      </trkpt>
      <trkpt lat="45.88484" lon="3.73766">
        <ele>782</ele>
        <time>2024-12-08T02:16:54.619Z</time>
      </trkpt>
      <trkpt lat="45.88484" lon="3.73768">
        <ele>782</ele>
        <time>2024-12-08T02:16:55.620Z</time>
      </trkpt>
      <trkpt lat="45.88484" lon="3.7377">
        <ele>782</ele>
        <time>2024-12-08T02:16:56.619Z</time>
      </trkpt>
      <trkpt lat="45.88484" lon="3.73772">
        <ele>782</ele>
        <time>2024-12-08T02:16:57.620Z</time>
      </trkpt>
      <trkpt lat="45.88485" lon="3.73773">
        <ele>782</ele>
        <time>2024-12-08T02:16:58.619Z</time>
      </trkpt>
      <trkpt lat="45.88485" lon="3.73775">
        <ele>783</ele>
        <time>2024-12-08T02:16:59.619Z</time>
      </trkpt>
      <trkpt lat="45.88485" lon="3.73777">
        <ele>783</ele>
        <time>2024-12-08T02:17:00.620Z</time>
      </trkpt>
      <trkpt lat="45.88485" lon="3.73779">
        <ele>783</ele>
        <time>2024-12-08T02:17:01.620Z</time>
      </trkpt>
      <trkpt lat="45.88485" lon="3.73781">
        <ele>783</ele>
        <time>2024-12-08T02:17:02.619Z</time>
      </trkpt>
      <trkpt lat="45.88486" lon="3.73783">
        <ele>783</ele>
        <time>2024-12-08T02:17:03.620Z</time>
      </trkpt>
      <trkpt lat="45.88486" lon="3.73784">
        <ele>783</ele>
        <time>2024-12-08T02:17:04.620Z</time>
      </trkpt>
      <trkpt lat="45.88486" lon="3.73786">
        <ele>783</ele>
        <time>2024-12-08T02:17:05.620Z</time>
      </trkpt>
      <trkpt lat="45.88486" lon="3.73788">
        <ele>783</ele>
        <time>2024-12-08T02:17:06.619Z</time>
      </trkpt>
      <trkpt lat="45.88486" lon="3.7379">
        <ele>784</ele>
        <time>2024-12-08T02:17:07.620Z</time>
      </trkpt>
      <trkpt lat="45.88486" lon="3.73792">
        <ele>784</ele>
        <time>2024-12-08T02:17:08.619Z</time>
      </trkpt>
      <trkpt lat="45.88486" lon="3.73794">
        <ele>784</ele>
        <time>2024-12-08T02:17:09.620Z</time>
      </trkpt>
      <trkpt lat="45.88486" lon="3.73796">
        <ele>784</ele>
        <time>2024-12-08T02:17:10.619Z</time>
      </trkpt>
      <trkpt lat="45.88486" lon="3.73797">
        <ele>784</ele>
        <time>2024-12-08T02:17:11.620Z</time>
      </trkpt>
      <trkpt lat="45.88486" lon="3.73799">
        <ele>784</ele>
        <time>2024-12-08T02:17:12.619Z</time>
      </trkpt>
      <trkpt lat="45.88486" lon="3.73801">
        <ele>784</ele>
        <time>2024-12-08T02:17:13.620Z</time>
      </trkpt>
      <trkpt lat="45.88486" lon="3.73802">
        <ele>784</ele>
        <time>2024-12-08T02:17:14.619Z</time>
      </trkpt>
      <trkpt lat="45.88486" lon="3.73804">
        <ele>784</ele>
        <time>2024-12-08T02:17:15.620Z</time>
      </trkpt>
      <trkpt lat="45.88486" lon="3.73806">
        <ele>784</ele>
        <time>2024-12-08T02:17:16.619Z</time>
      </trkpt>
      <trkpt lat="45.88485" lon="3.73808">
        <ele>785</ele>
        <time>2024-12-08T02:17:17.620Z</time>
      </trkpt>
      <trkpt lat="45.88485" lon="3.7381">
        <ele>785</ele>
        <time>2024-12-08T02:17:18.620Z</time>
      </trkpt>
      <trkpt lat="45.88485" lon="3.73812">
        <ele>785</ele>
        <time>2024-12-08T02:17:19.619Z</time>
      </trkpt>
      <trkpt lat="45.88485" lon="3.73814">
        <ele>785</ele>
        <time>2024-12-08T02:17:20.620Z</time>
      </trkpt>
      <trkpt lat="45.88485" lon="3.73816">
        <ele>785</ele>
        <time>2024-12-08T02:17:21.619Z</time>
      </trkpt>
      <trkpt lat="45.88485" lon="3.73818">
        <ele>786</ele>
        <time>2024-12-08T02:17:22.620Z</time>
      </trkpt>
      <trkpt lat="45.88486" lon="3.7382">
        <ele>786</ele>
        <time>2024-12-08T02:17:23.620Z</time>
      </trkpt>
      <trkpt lat="45.88486" lon="3.73822">
        <ele>786</ele>
        <time>2024-12-08T02:17:24.619Z</time>
      </trkpt>
      <trkpt lat="45.88486" lon="3.73824">
        <ele>786</ele>
        <time>2024-12-08T02:17:25.619Z</time>
      </trkpt>
      <trkpt lat="45.88485" lon="3.73826">
        <ele>786</ele>
        <time>2024-12-08T02:17:26.619Z</time>
      </trkpt>
      <trkpt lat="45.88485" lon="3.73827">
        <ele>786</ele>
        <time>2024-12-08T02:17:27.620Z</time>
      </trkpt>
      <trkpt lat="45.88485" lon="3.73829">
        <ele>786</ele>
        <time>2024-12-08T02:17:28.620Z</time>
      </trkpt>
      <trkpt lat="45.88484" lon="3.73832">
        <ele>786</ele>
        <time>2024-12-08T02:17:29.620Z</time>
      </trkpt>
      <trkpt lat="45.88485" lon="3.73834">
        <ele>786</ele>
        <time>2024-12-08T02:17:30.620Z</time>
      </trkpt>
      <trkpt lat="45.88485" lon="3.73836">
        <ele>786</ele>
        <time>2024-12-08T02:17:31.619Z</time>
      </trkpt>
      <trkpt lat="45.88485" lon="3.73838">
        <ele>786</ele>
        <time>2024-12-08T02:17:32.620Z</time>
      </trkpt>
      <trkpt lat="45.88484" lon="3.7384">
        <ele>786</ele>
        <time>2024-12-08T02:17:33.620Z</time>
      </trkpt>
      <trkpt lat="45.88484" lon="3.73842">
        <ele>786</ele>
        <time>2024-12-08T02:17:34.619Z</time>
      </trkpt>
      <trkpt lat="45.88484" lon="3.73845">
        <ele>786</ele>
        <time>2024-12-08T02:17:35.620Z</time>
      </trkpt>
      <trkpt lat="45.88484" lon="3.73847">
        <ele>786</ele>
        <time>2024-12-08T02:17:36.619Z</time>
      </trkpt>
      <trkpt lat="45.88483" lon="3.73849">
        <ele>786</ele>
        <time>2024-12-08T02:17:37.620Z</time>
      </trkpt>
      <trkpt lat="45.88483" lon="3.73851">
        <ele>786</ele>
        <time>2024-12-08T02:17:38.619Z</time>
      </trkpt>
      <trkpt lat="45.88482" lon="3.73853">
        <ele>786</ele>
        <time>2024-12-08T02:17:39.620Z</time>
      </trkpt>
      <trkpt lat="45.88482" lon="3.73855">
        <ele>786</ele>
        <time>2024-12-08T02:17:40.620Z</time>
      </trkpt>
      <trkpt lat="45.88481" lon="3.73857">
        <ele>786</ele>
        <time>2024-12-08T02:17:41.620Z</time>
      </trkpt>
      <trkpt lat="45.88481" lon="3.73859">
        <ele>786</ele>
        <time>2024-12-08T02:17:42.620Z</time>
      </trkpt>
      <trkpt lat="45.8848" lon="3.73861">
        <ele>786</ele>
        <time>2024-12-08T02:17:43.619Z</time>
      </trkpt>
      <trkpt lat="45.8848" lon="3.73863">
        <ele>787</ele>
        <time>2024-12-08T02:17:44.620Z</time>
      </trkpt>
      <trkpt lat="45.8848" lon="3.73866">
        <ele>787</ele>
        <time>2024-12-08T02:17:45.620Z</time>
      </trkpt>
      <trkpt lat="45.88479" lon="3.73868">
        <ele>787</ele>
        <time>2024-12-08T02:17:46.620Z</time>
      </trkpt>
      <trkpt lat="45.88479" lon="3.7387">
        <ele>787</ele>
        <time>2024-12-08T02:17:47.619Z</time>
      </trkpt>
      <trkpt lat="45.88478" lon="3.73872">
        <ele>787</ele>
        <time>2024-12-08T02:17:48.620Z</time>
      </trkpt>
      <trkpt lat="45.88477" lon="3.73874">
        <ele>788</ele>
        <time>2024-12-08T02:17:49.619Z</time>
      </trkpt>
      <trkpt lat="45.88477" lon="3.73876">
        <ele>788</ele>
        <time>2024-12-08T02:17:50.619Z</time>
      </trkpt>
      <trkpt lat="45.88476" lon="3.73878">
        <ele>788</ele>
        <time>2024-12-08T02:17:51.619Z</time>
      </trkpt>
      <trkpt lat="45.88476" lon="3.73881">
        <ele>788</ele>
        <time>2024-12-08T02:17:52.619Z</time>
      </trkpt>
      <trkpt lat="45.88475" lon="3.73883">
        <ele>788</ele>
        <time>2024-12-08T02:17:53.619Z</time>
      </trkpt>
      <trkpt lat="45.88475" lon="3.73885">
        <ele>788</ele>
        <time>2024-12-08T02:17:54.619Z</time>
      </trkpt>
      <trkpt lat="45.88474" lon="3.73887">
        <ele>788</ele>
        <time>2024-12-08T02:17:55.619Z</time>
      </trkpt>
      <trkpt lat="45.88474" lon="3.73889">
        <ele>788</ele>
        <time>2024-12-08T02:17:56.620Z</time>
      </trkpt>
      <trkpt lat="45.88474" lon="3.73891">
        <ele>788</ele>
        <time>2024-12-08T02:17:57.619Z</time>
      </trkpt>
      <trkpt lat="45.88473" lon="3.73893">
        <ele>788</ele>
        <time>2024-12-08T02:17:58.620Z</time>
      </trkpt>
      <trkpt lat="45.88473" lon="3.73895">
        <ele>788</ele>
        <time>2024-12-08T02:17:59.619Z</time>
      </trkpt>
      <trkpt lat="45.88473" lon="3.73897">
        <ele>789</ele>
        <time>2024-12-08T02:18:00.620Z</time>
      </trkpt>
      <trkpt lat="45.88472" lon="3.739">
        <ele>789</ele>
        <time>2024-12-08T02:18:01.619Z</time>
      </trkpt>
      <trkpt lat="45.88472" lon="3.73901">
        <ele>789</ele>
        <time>2024-12-08T02:18:02.619Z</time>
      </trkpt>
      <trkpt lat="45.88471" lon="3.73904">
        <ele>789</ele>
        <time>2024-12-08T02:18:03.619Z</time>
      </trkpt>
      <trkpt lat="45.88471" lon="3.73905">
        <ele>790</ele>
        <time>2024-12-08T02:18:04.620Z</time>
      </trkpt>
      <trkpt lat="45.8847" lon="3.73907">
        <ele>790</ele>
        <time>2024-12-08T02:18:05.619Z</time>
      </trkpt>
      <trkpt lat="45.8847" lon="3.73909">
        <ele>790</ele>
        <time>2024-12-08T02:18:06.620Z</time>
      </trkpt>
      <trkpt lat="45.88469" lon="3.73911">
        <ele>790</ele>
        <time>2024-12-08T02:18:07.620Z</time>
      </trkpt>
      <trkpt lat="45.88469" lon="3.73913">
        <ele>790</ele>
        <time>2024-12-08T02:18:08.619Z</time>
      </trkpt>
      <trkpt lat="45.88468" lon="3.73915">
        <ele>791</ele>
        <time>2024-12-08T02:18:09.620Z</time>
      </trkpt>
      <trkpt lat="45.88467" lon="3.73917">
        <ele>791</ele>
        <time>2024-12-08T02:18:10.620Z</time>
      </trkpt>
      <trkpt lat="45.88467" lon="3.73919">
        <ele>791</ele>
        <time>2024-12-08T02:18:11.620Z</time>
      </trkpt>
      <trkpt lat="45.88466" lon="3.73921">
        <ele>791</ele>
        <time>2024-12-08T02:18:12.619Z</time>
      </trkpt>
      <trkpt lat="45.88466" lon="3.73922">
        <ele>791</ele>
        <time>2024-12-08T02:18:13.619Z</time>
      </trkpt>
      <trkpt lat="45.88465" lon="3.73925">
        <ele>792</ele>
        <time>2024-12-08T02:18:14.619Z</time>
      </trkpt>
      <trkpt lat="45.88465" lon="3.73927">
        <ele>792</ele>
        <time>2024-12-08T02:18:15.620Z</time>
      </trkpt>
      <trkpt lat="45.88464" lon="3.73929">
        <ele>791</ele>
        <time>2024-12-08T02:18:16.619Z</time>
      </trkpt>
      <trkpt lat="45.88464" lon="3.73931">
        <ele>791</ele>
        <time>2024-12-08T02:18:17.619Z</time>
      </trkpt>
      <trkpt lat="45.88464" lon="3.73933">
        <ele>791</ele>
        <time>2024-12-08T02:18:18.620Z</time>
      </trkpt>
      <trkpt lat="45.88463" lon="3.73936">
        <ele>791</ele>
        <time>2024-12-08T02:18:19.619Z</time>
      </trkpt>
      <trkpt lat="45.88463" lon="3.73938">
        <ele>791</ele>
        <time>2024-12-08T02:18:20.620Z</time>
      </trkpt>
      <trkpt lat="45.88462" lon="3.7394">
        <ele>791</ele>
        <time>2024-12-08T02:18:21.619Z</time>
      </trkpt>
      <trkpt lat="45.88462" lon="3.73942">
        <ele>791</ele>
        <time>2024-12-08T02:18:22.620Z</time>
      </trkpt>
      <trkpt lat="45.88462" lon="3.73945">
        <ele>791</ele>
        <time>2024-12-08T02:18:23.619Z</time>
      </trkpt>
      <trkpt lat="45.88461" lon="3.73947">
        <ele>791</ele>
        <time>2024-12-08T02:18:24.619Z</time>
      </trkpt>
      <trkpt lat="45.88461" lon="3.73949">
        <ele>791</ele>
        <time>2024-12-08T02:18:25.619Z</time>
      </trkpt>
      <trkpt lat="45.88461" lon="3.73951">
        <ele>791</ele>
        <time>2024-12-08T02:18:26.620Z</time>
      </trkpt>
      <trkpt lat="45.8846" lon="3.73953">
        <ele>792</ele>
        <time>2024-12-08T02:18:27.619Z</time>
      </trkpt>
      <trkpt lat="45.8846" lon="3.73955">
        <ele>792</ele>
        <time>2024-12-08T02:18:28.619Z</time>
      </trkpt>
      <trkpt lat="45.88459" lon="3.73958">
        <ele>791</ele>
        <time>2024-12-08T02:18:29.620Z</time>
      </trkpt>
      <trkpt lat="45.88459" lon="3.7396">
        <ele>792</ele>
        <time>2024-12-08T02:18:30.620Z</time>
      </trkpt>
      <trkpt lat="45.88459" lon="3.73962">
        <ele>792</ele>
        <time>2024-12-08T02:18:31.620Z</time>
      </trkpt>
      <trkpt lat="45.88458" lon="3.73964">
        <ele>791</ele>
        <time>2024-12-08T02:18:32.619Z</time>
      </trkpt>
      <trkpt lat="45.88457" lon="3.73966">
        <ele>791</ele>
        <time>2024-12-08T02:18:33.619Z</time>
      </trkpt>
      <trkpt lat="45.88456" lon="3.73968">
        <ele>791</ele>
        <time>2024-12-08T02:18:34.619Z</time>
      </trkpt>
      <trkpt lat="45.88455" lon="3.7397">
        <ele>791</ele>
        <time>2024-12-08T02:18:35.620Z</time>
      </trkpt>
      <trkpt lat="45.88455" lon="3.73972">
        <ele>791</ele>
        <time>2024-12-08T02:18:36.620Z</time>
      </trkpt>
      <trkpt lat="45.88454" lon="3.73974">
        <ele>791</ele>
        <time>2024-12-08T02:18:37.620Z</time>
      </trkpt>
      <trkpt lat="45.88454" lon="3.73976">
        <ele>791</ele>
        <time>2024-12-08T02:18:38.619Z</time>
      </trkpt>
      <trkpt lat="45.88453" lon="3.73979">
        <ele>791</ele>
        <time>2024-12-08T02:18:39.620Z</time>
      </trkpt>
      <trkpt lat="45.88452" lon="3.73981">
        <ele>791</ele>
        <time>2024-12-08T02:18:40.620Z</time>
      </trkpt>
      <trkpt lat="45.88452" lon="3.73984">
        <ele>791</ele>
        <time>2024-12-08T02:18:41.619Z</time>
      </trkpt>
      <trkpt lat="45.88451" lon="3.73986">
        <ele>790</ele>
        <time>2024-12-08T02:18:42.619Z</time>
      </trkpt>
      <trkpt lat="45.88451" lon="3.73988">
        <ele>790</ele>
        <time>2024-12-08T02:18:43.620Z</time>
      </trkpt>
      <trkpt lat="45.8845" lon="3.7399">
        <ele>790</ele>
        <time>2024-12-08T02:18:44.619Z</time>
      </trkpt>
      <trkpt lat="45.8845" lon="3.73993">
        <ele>790</ele>
        <time>2024-12-08T02:18:45.620Z</time>
      </trkpt>
      <trkpt lat="45.8845" lon="3.73995">
        <ele>790</ele>
        <time>2024-12-08T02:18:46.619Z</time>
      </trkpt>
      <trkpt lat="45.88449" lon="3.73997">
        <ele>790</ele>
        <time>2024-12-08T02:18:47.620Z</time>
      </trkpt>
      <trkpt lat="45.88448" lon="3.73999">
        <ele>790</ele>
        <time>2024-12-08T02:18:48.619Z</time>
      </trkpt>
      <trkpt lat="45.88447" lon="3.74001">
        <ele>790</ele>
        <time>2024-12-08T02:18:49.620Z</time>
      </trkpt>
      <trkpt lat="45.88447" lon="3.74004">
        <ele>790</ele>
        <time>2024-12-08T02:18:50.620Z</time>
      </trkpt>
      <trkpt lat="45.88446" lon="3.74006">
        <ele>789</ele>
        <time>2024-12-08T02:18:51.620Z</time>
      </trkpt>
      <trkpt lat="45.88445" lon="3.74008">
        <ele>789</ele>
        <time>2024-12-08T02:18:52.620Z</time>
      </trkpt>
      <trkpt lat="45.88445" lon="3.7401">
        <ele>789</ele>
        <time>2024-12-08T02:18:53.619Z</time>
      </trkpt>
      <trkpt lat="45.88444" lon="3.74012">
        <ele>790</ele>
        <time>2024-12-08T02:18:54.620Z</time>
      </trkpt>
      <trkpt lat="45.88444" lon="3.74014">
        <ele>790</ele>
        <time>2024-12-08T02:18:55.619Z</time>
      </trkpt>
      <trkpt lat="45.88443" lon="3.74016">
        <ele>790</ele>
        <time>2024-12-08T02:18:56.620Z</time>
      </trkpt>
      <trkpt lat="45.88442" lon="3.74018">
        <ele>791</ele>
        <time>2024-12-08T02:18:57.619Z</time>
      </trkpt>
      <trkpt lat="45.88442" lon="3.7402">
        <ele>791</ele>
        <time>2024-12-08T02:18:58.619Z</time>
      </trkpt>
      <trkpt lat="45.88441" lon="3.74022">
        <ele>791</ele>
        <time>2024-12-08T02:18:59.619Z</time>
      </trkpt>
      <trkpt lat="45.88441" lon="3.74024">
        <ele>792</ele>
        <time>2024-12-08T02:19:00.620Z</time>
      </trkpt>
      <trkpt lat="45.8844" lon="3.74026">
        <ele>792</ele>
        <time>2024-12-08T02:19:01.619Z</time>
      </trkpt>
      <trkpt lat="45.8844" lon="3.74029">
        <ele>793</ele>
        <time>2024-12-08T02:19:02.619Z</time>
      </trkpt>
      <trkpt lat="45.88439" lon="3.7403">
        <ele>793</ele>
        <time>2024-12-08T02:19:03.619Z</time>
      </trkpt>
      <trkpt lat="45.88438" lon="3.74032">
        <ele>793</ele>
        <time>2024-12-08T02:19:04.620Z</time>
      </trkpt>
      <trkpt lat="45.88438" lon="3.74034">
        <ele>793</ele>
        <time>2024-12-08T02:19:05.620Z</time>
      </trkpt>
      <trkpt lat="45.88437" lon="3.74036">
        <ele>793</ele>
        <time>2024-12-08T02:19:06.619Z</time>
      </trkpt>
      <trkpt lat="45.88437" lon="3.74038">
        <ele>793</ele>
        <time>2024-12-08T02:19:07.619Z</time>
      </trkpt>
      <trkpt lat="45.88436" lon="3.74039">
        <ele>793</ele>
        <time>2024-12-08T02:19:08.619Z</time>
      </trkpt>
      <trkpt lat="45.88435" lon="3.74041">
        <ele>793</ele>
        <time>2024-12-08T02:19:09.619Z</time>
      </trkpt>
      <trkpt lat="45.88435" lon="3.74043">
        <ele>793</ele>
        <time>2024-12-08T02:19:10.619Z</time>
      </trkpt>
      <trkpt lat="45.88434" lon="3.74045">
        <ele>793</ele>
        <time>2024-12-08T02:19:11.620Z</time>
      </trkpt>
      <trkpt lat="45.88434" lon="3.74046">
        <ele>793</ele>
        <time>2024-12-08T02:19:12.620Z</time>
      </trkpt>
      <trkpt lat="45.88433" lon="3.74048">
        <ele>793</ele>
        <time>2024-12-08T02:19:13.620Z</time>
      </trkpt>
      <trkpt lat="45.88433" lon="3.7405">
        <ele>792</ele>
        <time>2024-12-08T02:19:14.619Z</time>
      </trkpt>
      <trkpt lat="45.88432" lon="3.74051">
        <ele>792</ele>
        <time>2024-12-08T02:19:15.619Z</time>
      </trkpt>
      <trkpt lat="45.88431" lon="3.74053">
        <ele>792</ele>
        <time>2024-12-08T02:19:16.619Z</time>
      </trkpt>
      <trkpt lat="45.8843" lon="3.74054">
        <ele>792</ele>
        <time>2024-12-08T02:19:17.620Z</time>
      </trkpt>
      <trkpt lat="45.88429" lon="3.74056">
        <ele>792</ele>
        <time>2024-12-08T02:19:18.620Z</time>
      </trkpt>
      <trkpt lat="45.88428" lon="3.74058">
        <ele>792</ele>
        <time>2024-12-08T02:19:19.619Z</time>
      </trkpt>
      <trkpt lat="45.88428" lon="3.7406">
        <ele>793</ele>
        <time>2024-12-08T02:19:20.619Z</time>
      </trkpt>
      <trkpt lat="45.88427" lon="3.74062">
        <ele>793</ele>
        <time>2024-12-08T02:19:21.619Z</time>
      </trkpt>
      <trkpt lat="45.88426" lon="3.74064">
        <ele>793</ele>
        <time>2024-12-08T02:19:22.620Z</time>
      </trkpt>
      <trkpt lat="45.88426" lon="3.74066">
        <ele>794</ele>
        <time>2024-12-08T02:19:23.619Z</time>
      </trkpt>
      <trkpt lat="45.88425" lon="3.74067">
        <ele>794</ele>
        <time>2024-12-08T02:19:24.619Z</time>
      </trkpt>
      <trkpt lat="45.88424" lon="3.74069">
        <ele>794</ele>
        <time>2024-12-08T02:19:25.619Z</time>
      </trkpt>
      <trkpt lat="45.88423" lon="3.74071">
        <ele>794</ele>
        <time>2024-12-08T02:19:26.620Z</time>
      </trkpt>
      <trkpt lat="45.88423" lon="3.74072">
        <ele>794</ele>
        <time>2024-12-08T02:19:27.619Z</time>
      </trkpt>
      <trkpt lat="45.88422" lon="3.74073">
        <ele>795</ele>
        <time>2024-12-08T02:19:28.620Z</time>
      </trkpt>
      <trkpt lat="45.88422" lon="3.74075">
        <ele>795</ele>
        <time>2024-12-08T02:19:29.620Z</time>
      </trkpt>
      <trkpt lat="45.88421" lon="3.74077">
        <ele>795</ele>
        <time>2024-12-08T02:19:30.620Z</time>
      </trkpt>
      <trkpt lat="45.88421" lon="3.74078">
        <ele>795</ele>
        <time>2024-12-08T02:19:31.620Z</time>
      </trkpt>
      <trkpt lat="45.8842" lon="3.7408">
        <ele>795</ele>
        <time>2024-12-08T02:19:32.620Z</time>
      </trkpt>
      <trkpt lat="45.8842" lon="3.74082">
        <ele>795</ele>
        <time>2024-12-08T02:19:33.620Z</time>
      </trkpt>
      <trkpt lat="45.88419" lon="3.74084">
        <ele>795</ele>
        <time>2024-12-08T02:19:34.619Z</time>
      </trkpt>
      <trkpt lat="45.88418" lon="3.74085">
        <ele>795</ele>
        <time>2024-12-08T02:19:35.620Z</time>
      </trkpt>
      <trkpt lat="45.88418" lon="3.74087">
        <ele>796</ele>
        <time>2024-12-08T02:19:36.619Z</time>
      </trkpt>
      <trkpt lat="45.88417" lon="3.74088">
        <ele>796</ele>
        <time>2024-12-08T02:19:37.619Z</time>
      </trkpt>
      <trkpt lat="45.88416" lon="3.74089">
        <ele>796</ele>
        <time>2024-12-08T02:19:38.619Z</time>
      </trkpt>
      <trkpt lat="45.88415" lon="3.74091">
        <ele>797</ele>
        <time>2024-12-08T02:19:39.620Z</time>
      </trkpt>
      <trkpt lat="45.88414" lon="3.74093">
        <ele>797</ele>
        <time>2024-12-08T02:19:40.619Z</time>
      </trkpt>
      <trkpt lat="45.88413" lon="3.74095">
        <ele>797</ele>
        <time>2024-12-08T02:19:41.619Z</time>
      </trkpt>
      <trkpt lat="45.88413" lon="3.74097">
        <ele>798</ele>
        <time>2024-12-08T02:19:42.620Z</time>
      </trkpt>
      <trkpt lat="45.88413" lon="3.741">
        <ele>798</ele>
        <time>2024-12-08T02:19:43.619Z</time>
      </trkpt>
      <trkpt lat="45.88413" lon="3.74102">
        <ele>798</ele>
        <time>2024-12-08T02:19:44.619Z</time>
      </trkpt>
      <trkpt lat="45.88412" lon="3.74103">
        <ele>798</ele>
        <time>2024-12-08T02:19:45.619Z</time>
      </trkpt>
      <trkpt lat="45.88412" lon="3.74105">
        <ele>799</ele>
        <time>2024-12-08T02:19:46.620Z</time>
      </trkpt>
      <trkpt lat="45.88412" lon="3.74107">
        <ele>799</ele>
        <time>2024-12-08T02:19:47.619Z</time>
      </trkpt>
      <trkpt lat="45.88411" lon="3.74109">
        <ele>799</ele>
        <time>2024-12-08T02:19:48.620Z</time>
      </trkpt>
      <trkpt lat="45.88411" lon="3.74111">
        <ele>799</ele>
        <time>2024-12-08T02:19:49.620Z</time>
      </trkpt>
      <trkpt lat="45.88411" lon="3.74113">
        <ele>799</ele>
        <time>2024-12-08T02:19:50.620Z</time>
      </trkpt>
      <trkpt lat="45.88411" lon="3.74115">
        <ele>799</ele>
        <time>2024-12-08T02:19:51.619Z</time>
      </trkpt>
      <trkpt lat="45.8841" lon="3.74117">
        <ele>799</ele>
        <time>2024-12-08T02:19:52.620Z</time>
      </trkpt>
      <trkpt lat="45.8841" lon="3.74119">
        <ele>799</ele>
        <time>2024-12-08T02:19:53.619Z</time>
      </trkpt>
      <trkpt lat="45.8841" lon="3.7412">
        <ele>798</ele>
        <time>2024-12-08T02:19:54.620Z</time>
      </trkpt>
      <trkpt lat="45.88409" lon="3.74122">
        <ele>798</ele>
        <time>2024-12-08T02:19:55.620Z</time>
      </trkpt>
      <trkpt lat="45.88409" lon="3.74124">
        <ele>798</ele>
        <time>2024-12-08T02:19:56.620Z</time>
      </trkpt>
      <trkpt lat="45.88409" lon="3.74126">
        <ele>798</ele>
        <time>2024-12-08T02:19:57.620Z</time>
      </trkpt>
      <trkpt lat="45.88408" lon="3.74128">
        <ele>798</ele>
        <time>2024-12-08T02:19:58.620Z</time>
      </trkpt>
      <trkpt lat="45.88408" lon="3.7413">
        <ele>798</ele>
        <time>2024-12-08T02:19:59.620Z</time>
      </trkpt>
      <trkpt lat="45.88408" lon="3.74131">
        <ele>798</ele>
        <time>2024-12-08T02:20:00.619Z</time>
      </trkpt>
      <trkpt lat="45.88407" lon="3.74133">
        <ele>798</ele>
        <time>2024-12-08T02:20:01.619Z</time>
      </trkpt>
      <trkpt lat="45.88407" lon="3.74134">
        <ele>797</ele>
        <time>2024-12-08T02:20:02.619Z</time>
      </trkpt>
      <trkpt lat="45.88406" lon="3.74136">
        <ele>797</ele>
        <time>2024-12-08T02:20:03.620Z</time>
      </trkpt>
      <trkpt lat="45.88406" lon="3.74139">
        <ele>797</ele>
        <time>2024-12-08T02:20:04.619Z</time>
      </trkpt>
      <trkpt lat="45.88406" lon="3.7414">
        <ele>797</ele>
        <time>2024-12-08T02:20:05.620Z</time>
      </trkpt>
      <trkpt lat="45.88406" lon="3.74142">
        <ele>796</ele>
        <time>2024-12-08T02:20:06.619Z</time>
      </trkpt>
      <trkpt lat="45.88405" lon="3.74144">
        <ele>796</ele>
        <time>2024-12-08T02:20:07.620Z</time>
      </trkpt>
      <trkpt lat="45.88405" lon="3.74146">
        <ele>796</ele>
        <time>2024-12-08T02:20:08.619Z</time>
      </trkpt>
      <trkpt lat="45.88405" lon="3.74147">
        <ele>796</ele>
        <time>2024-12-08T02:20:09.620Z</time>
      </trkpt>
      <trkpt lat="45.88404" lon="3.74149">
        <ele>797</ele>
        <time>2024-12-08T02:20:10.620Z</time>
      </trkpt>
      <trkpt lat="45.88404" lon="3.74151">
        <ele>797</ele>
        <time>2024-12-08T02:20:11.619Z</time>
      </trkpt>
      <trkpt lat="45.88404" lon="3.74153">
        <ele>798</ele>
        <time>2024-12-08T02:20:12.619Z</time>
      </trkpt>
      <trkpt lat="45.88404" lon="3.74155">
        <ele>798</ele>
        <time>2024-12-08T02:20:13.620Z</time>
      </trkpt>
      <trkpt lat="45.88404" lon="3.74157">
        <ele>798</ele>
        <time>2024-12-08T02:20:14.620Z</time>
      </trkpt>
      <trkpt lat="45.88404" lon="3.74159">
        <ele>798</ele>
        <time>2024-12-08T02:20:15.619Z</time>
      </trkpt>
      <trkpt lat="45.88404" lon="3.74161">
        <ele>799</ele>
        <time>2024-12-08T02:20:16.619Z</time>
      </trkpt>
      <trkpt lat="45.88404" lon="3.74164">
        <ele>799</ele>
        <time>2024-12-08T02:20:17.620Z</time>
      </trkpt>
      <trkpt lat="45.88404" lon="3.74166">
        <ele>800</ele>
        <time>2024-12-08T02:20:18.619Z</time>
      </trkpt>
      <trkpt lat="45.88404" lon="3.74168">
        <ele>800</ele>
        <time>2024-12-08T02:20:19.619Z</time>
      </trkpt>
      <trkpt lat="45.88404" lon="3.74169">
        <ele>800</ele>
        <time>2024-12-08T02:20:20.619Z</time>
      </trkpt>
      <trkpt lat="45.88404" lon="3.74171">
        <ele>801</ele>
        <time>2024-12-08T02:20:21.619Z</time>
      </trkpt>
      <trkpt lat="45.88404" lon="3.74173">
        <ele>801</ele>
        <time>2024-12-08T02:20:22.620Z</time>
      </trkpt>
      <trkpt lat="45.88404" lon="3.74174">
        <ele>801</ele>
        <time>2024-12-08T02:20:23.619Z</time>
      </trkpt>
      <trkpt lat="45.88404" lon="3.74176">
        <ele>801</ele>
        <time>2024-12-08T02:20:24.620Z</time>
      </trkpt>
      <trkpt lat="45.88404" lon="3.74178">
        <ele>801</ele>
        <time>2024-12-08T02:20:25.619Z</time>
      </trkpt>
      <trkpt lat="45.88404" lon="3.7418">
        <ele>801</ele>
        <time>2024-12-08T02:20:26.620Z</time>
      </trkpt>
      <trkpt lat="45.88404" lon="3.74181">
        <ele>801</ele>
        <time>2024-12-08T02:20:27.619Z</time>
      </trkpt>
      <trkpt lat="45.88404" lon="3.74183">
        <ele>802</ele>
        <time>2024-12-08T02:20:28.620Z</time>
      </trkpt>
      <trkpt lat="45.88404" lon="3.74185">
        <ele>802</ele>
        <time>2024-12-08T02:20:29.619Z</time>
      </trkpt>
      <trkpt lat="45.88404" lon="3.74186">
        <ele>802</ele>
        <time>2024-12-08T02:20:30.620Z</time>
      </trkpt>
      <trkpt lat="45.88404" lon="3.74188">
        <ele>803</ele>
        <time>2024-12-08T02:20:31.619Z</time>
      </trkpt>
      <trkpt lat="45.88405" lon="3.7419">
        <ele>804</ele>
        <time>2024-12-08T02:20:32.620Z</time>
      </trkpt>
      <trkpt lat="45.88405" lon="3.74192">
        <ele>804</ele>
        <time>2024-12-08T02:20:33.619Z</time>
      </trkpt>
      <trkpt lat="45.88405" lon="3.74194">
        <ele>805</ele>
        <time>2024-12-08T02:20:34.619Z</time>
      </trkpt>
      <trkpt lat="45.88405" lon="3.74196">
        <ele>805</ele>
        <time>2024-12-08T02:20:35.619Z</time>
      </trkpt>
      <trkpt lat="45.88405" lon="3.74198">
        <ele>806</ele>
        <time>2024-12-08T02:20:36.620Z</time>
      </trkpt>
      <trkpt lat="45.88405" lon="3.74199">
        <ele>806</ele>
        <time>2024-12-08T02:20:37.619Z</time>
      </trkpt>
      <trkpt lat="45.88405" lon="3.74201">
        <ele>806</ele>
        <time>2024-12-08T02:20:38.620Z</time>
      </trkpt>
      <trkpt lat="45.88405" lon="3.74203">
        <ele>807</ele>
        <time>2024-12-08T02:20:39.619Z</time>
      </trkpt>
      <trkpt lat="45.88405" lon="3.74205">
        <ele>807</ele>
        <time>2024-12-08T02:20:40.619Z</time>
      </trkpt>
      <trkpt lat="45.88406" lon="3.74206">
        <ele>807</ele>
        <time>2024-12-08T02:20:41.619Z</time>
      </trkpt>
      <trkpt lat="45.88406" lon="3.74208">
        <ele>808</ele>
        <time>2024-12-08T02:20:42.619Z</time>
      </trkpt>
      <trkpt lat="45.88406" lon="3.74209">
        <ele>808</ele>
        <time>2024-12-08T02:20:43.620Z</time>
      </trkpt>
      <trkpt lat="45.88406" lon="3.74211">
        <ele>808</ele>
        <time>2024-12-08T02:20:44.620Z</time>
      </trkpt>
      <trkpt lat="45.88406" lon="3.74213">
        <ele>808</ele>
        <time>2024-12-08T02:20:45.620Z</time>
      </trkpt>
      <trkpt lat="45.88407" lon="3.74215">
        <ele>808</ele>
        <time>2024-12-08T02:20:46.619Z</time>
      </trkpt>
      <trkpt lat="45.88407" lon="3.74216">
        <ele>808</ele>
        <time>2024-12-08T02:20:47.619Z</time>
      </trkpt>
      <trkpt lat="45.88408" lon="3.74219">
        <ele>809</ele>
        <time>2024-12-08T02:20:48.620Z</time>
      </trkpt>
      <trkpt lat="45.88408" lon="3.74221">
        <ele>809</ele>
        <time>2024-12-08T02:20:49.619Z</time>
      </trkpt>
      <trkpt lat="45.88408" lon="3.74222">
        <ele>809</ele>
        <time>2024-12-08T02:20:50.619Z</time>
      </trkpt>
      <trkpt lat="45.88409" lon="3.74224">
        <ele>810</ele>
        <time>2024-12-08T02:20:51.619Z</time>
      </trkpt>
      <trkpt lat="45.88409" lon="3.74226">
        <ele>810</ele>
        <time>2024-12-08T02:20:52.619Z</time>
      </trkpt>
      <trkpt lat="45.88409" lon="3.74228">
        <ele>811</ele>
        <time>2024-12-08T02:20:53.619Z</time>
      </trkpt>
      <trkpt lat="45.88409" lon="3.74229">
        <ele>811</ele>
        <time>2024-12-08T02:20:54.619Z</time>
      </trkpt>
      <trkpt lat="45.88409" lon="3.7423">
        <ele>811</ele>
        <time>2024-12-08T02:20:55.620Z</time>
      </trkpt>
      <trkpt lat="45.88408" lon="3.7423">
        <ele>811</ele>
        <time>2024-12-08T02:20:56.620Z</time>
      </trkpt>
      <trkpt lat="45.88408" lon="3.74232">
        <ele>811</ele>
        <time>2024-12-08T02:20:57.619Z</time>
      </trkpt>
      <trkpt lat="45.88408" lon="3.74234">
        <ele>812</ele>
        <time>2024-12-08T02:20:58.619Z</time>
      </trkpt>
      <trkpt lat="45.88409" lon="3.74236">
        <ele>812</ele>
        <time>2024-12-08T02:20:59.619Z</time>
      </trkpt>
      <trkpt lat="45.8841" lon="3.74238">
        <ele>812</ele>
        <time>2024-12-08T02:21:00.619Z</time>
      </trkpt>
      <trkpt lat="45.8841" lon="3.7424">
        <ele>812</ele>
        <time>2024-12-08T02:21:01.620Z</time>
      </trkpt>
      <trkpt lat="45.88411" lon="3.74242">
        <ele>812</ele>
        <time>2024-12-08T02:21:02.619Z</time>
      </trkpt>
      <trkpt lat="45.88411" lon="3.74244">
        <ele>812</ele>
        <time>2024-12-08T02:21:03.619Z</time>
      </trkpt>
      <trkpt lat="45.88412" lon="3.74246">
        <ele>812</ele>
        <time>2024-12-08T02:21:04.620Z</time>
      </trkpt>
      <trkpt lat="45.88412" lon="3.74247">
        <ele>812</ele>
        <time>2024-12-08T02:21:05.619Z</time>
      </trkpt>
      <trkpt lat="45.88412" lon="3.7425">
        <ele>812</ele>
        <time>2024-12-08T02:21:06.620Z</time>
      </trkpt>
      <trkpt lat="45.88412" lon="3.74251">
        <ele>813</ele>
        <time>2024-12-08T02:21:07.619Z</time>
      </trkpt>
      <trkpt lat="45.88412" lon="3.74253">
        <ele>813</ele>
        <time>2024-12-08T02:21:08.620Z</time>
      </trkpt>
      <trkpt lat="45.88412" lon="3.74255">
        <ele>813</ele>
        <time>2024-12-08T02:21:09.619Z</time>
      </trkpt>
      <trkpt lat="45.88412" lon="3.74257">
        <ele>813</ele>
        <time>2024-12-08T02:21:10.620Z</time>
      </trkpt>
      <trkpt lat="45.88412" lon="3.74258">
        <ele>813</ele>
        <time>2024-12-08T02:21:11.619Z</time>
      </trkpt>
      <trkpt lat="45.88413" lon="3.7426">
        <ele>813</ele>
        <time>2024-12-08T02:21:12.619Z</time>
      </trkpt>
      <trkpt lat="45.88413" lon="3.74262">
        <ele>813</ele>
        <time>2024-12-08T02:21:13.619Z</time>
      </trkpt>
      <trkpt lat="45.88413" lon="3.74264">
        <ele>813</ele>
        <time>2024-12-08T02:21:14.619Z</time>
      </trkpt>
      <trkpt lat="45.88413" lon="3.74265">
        <ele>813</ele>
        <time>2024-12-08T02:21:15.620Z</time>
      </trkpt>
      <trkpt lat="45.88413" lon="3.74267">
        <ele>813</ele>
        <time>2024-12-08T02:21:16.620Z</time>
      </trkpt>
      <trkpt lat="45.88413" lon="3.74268">
        <ele>813</ele>
        <time>2024-12-08T02:21:17.620Z</time>
      </trkpt>
      <trkpt lat="45.88413" lon="3.74269">
        <ele>813</ele>
        <time>2024-12-08T02:21:18.620Z</time>
      </trkpt>
      <trkpt lat="45.88413" lon="3.74271">
        <ele>813</ele>
        <time>2024-12-08T02:21:19.620Z</time>
      </trkpt>
      <trkpt lat="45.88413" lon="3.74272">
        <ele>813</ele>
        <time>2024-12-08T02:21:20.620Z</time>
      </trkpt>
      <trkpt lat="45.88413" lon="3.74273">
        <ele>813</ele>
        <time>2024-12-08T02:21:21.619Z</time>
      </trkpt>
      <trkpt lat="45.88413" lon="3.74275">
        <ele>813</ele>
        <time>2024-12-08T02:21:22.619Z</time>
      </trkpt>
      <trkpt lat="45.88413" lon="3.74276">
        <ele>813</ele>
        <time>2024-12-08T02:21:23.619Z</time>
      </trkpt>
      <trkpt lat="45.88413" lon="3.74277">
        <ele>813</ele>
        <time>2024-12-08T02:21:24.620Z</time>
      </trkpt>
      <trkpt lat="45.88413" lon="3.74279">
        <ele>813</ele>
        <time>2024-12-08T02:21:25.620Z</time>
      </trkpt>
      <trkpt lat="45.88413" lon="3.74281">
        <ele>813</ele>
        <time>2024-12-08T02:21:26.620Z</time>
      </trkpt>
      <trkpt lat="45.88414" lon="3.74283">
        <ele>813</ele>
        <time>2024-12-08T02:21:27.620Z</time>
      </trkpt>
      <trkpt lat="45.88414" lon="3.74285">
        <ele>813</ele>
        <time>2024-12-08T02:21:28.620Z</time>
      </trkpt>
      <trkpt lat="45.88415" lon="3.74287">
        <ele>813</ele>
        <time>2024-12-08T02:21:29.620Z</time>
      </trkpt>
      <trkpt lat="45.88415" lon="3.74288">
        <ele>814</ele>
        <time>2024-12-08T02:21:30.619Z</time>
      </trkpt>
      <trkpt lat="45.88415" lon="3.74289">
        <ele>814</ele>
        <time>2024-12-08T02:21:31.619Z</time>
      </trkpt>
      <trkpt lat="45.88416" lon="3.7429">
        <ele>814</ele>
        <time>2024-12-08T02:21:32.619Z</time>
      </trkpt>
      <trkpt lat="45.88416" lon="3.74292">
        <ele>815</ele>
        <time>2024-12-08T02:21:33.619Z</time>
      </trkpt>
      <trkpt lat="45.88416" lon="3.74294">
        <ele>815</ele>
        <time>2024-12-08T02:21:34.620Z</time>
      </trkpt>
      <trkpt lat="45.88416" lon="3.74295">
        <ele>816</ele>
        <time>2024-12-08T02:21:35.620Z</time>
      </trkpt>
      <trkpt lat="45.88416" lon="3.74297">
        <ele>816</ele>
        <time>2024-12-08T02:21:36.620Z</time>
      </trkpt>
      <trkpt lat="45.88416" lon="3.74298">
        <ele>817</ele>
        <time>2024-12-08T02:21:37.619Z</time>
      </trkpt>
      <trkpt lat="45.88416" lon="3.74299">
        <ele>818</ele>
        <time>2024-12-08T02:21:38.620Z</time>
      </trkpt>
      <trkpt lat="45.88416" lon="3.74301">
        <ele>818</ele>
        <time>2024-12-08T02:21:39.619Z</time>
      </trkpt>
      <trkpt lat="45.88417" lon="3.74303">
        <ele>819</ele>
        <time>2024-12-08T02:21:40.619Z</time>
      </trkpt>
      <trkpt lat="45.88417" lon="3.74305">
        <ele>819</ele>
        <time>2024-12-08T02:21:41.620Z</time>
      </trkpt>
      <trkpt lat="45.88418" lon="3.74307">
        <ele>820</ele>
        <time>2024-12-08T02:21:42.619Z</time>
      </trkpt>
      <trkpt lat="45.88418" lon="3.74309">
        <ele>820</ele>
        <time>2024-12-08T02:21:43.619Z</time>
      </trkpt>
      <trkpt lat="45.88418" lon="3.74311">
        <ele>820</ele>
        <time>2024-12-08T02:21:44.620Z</time>
      </trkpt>
      <trkpt lat="45.88419" lon="3.74312">
        <ele>821</ele>
        <time>2024-12-08T02:21:45.620Z</time>
      </trkpt>
      <trkpt lat="45.88419" lon="3.74314">
        <ele>821</ele>
        <time>2024-12-08T02:21:46.620Z</time>
      </trkpt>
      <trkpt lat="45.88419" lon="3.74316">
        <ele>821</ele>
        <time>2024-12-08T02:21:47.619Z</time>
      </trkpt>
      <trkpt lat="45.88419" lon="3.74317">
        <ele>821</ele>
        <time>2024-12-08T02:21:48.620Z</time>
      </trkpt>
      <trkpt lat="45.8842" lon="3.74319">
        <ele>821</ele>
        <time>2024-12-08T02:21:49.620Z</time>
      </trkpt>
      <trkpt lat="45.8842" lon="3.74321">
        <ele>821</ele>
        <time>2024-12-08T02:21:50.620Z</time>
      </trkpt>
      <trkpt lat="45.8842" lon="3.74322">
        <ele>822</ele>
        <time>2024-12-08T02:21:51.620Z</time>
      </trkpt>
      <trkpt lat="45.88421" lon="3.74324">
        <ele>822</ele>
        <time>2024-12-08T02:21:52.619Z</time>
      </trkpt>
      <trkpt lat="45.88421" lon="3.74326">
        <ele>823</ele>
        <time>2024-12-08T02:21:53.620Z</time>
      </trkpt>
      <trkpt lat="45.88421" lon="3.74327">
        <ele>824</ele>
        <time>2024-12-08T02:21:54.619Z</time>
      </trkpt>
      <trkpt lat="45.88422" lon="3.74329">
        <ele>824</ele>
        <time>2024-12-08T02:21:55.620Z</time>
      </trkpt>
      <trkpt lat="45.88421" lon="3.74331">
        <ele>824</ele>
        <time>2024-12-08T02:21:56.620Z</time>
      </trkpt>
      <trkpt lat="45.88421" lon="3.74332">
        <ele>824</ele>
        <time>2024-12-08T02:21:57.620Z</time>
      </trkpt>
      <trkpt lat="45.88422" lon="3.74334">
        <ele>825</ele>
        <time>2024-12-08T02:21:58.620Z</time>
      </trkpt>
      <trkpt lat="45.88422" lon="3.74336">
        <ele>825</ele>
        <time>2024-12-08T02:21:59.620Z</time>
      </trkpt>
      <trkpt lat="45.88423" lon="3.74338">
        <ele>825</ele>
        <time>2024-12-08T02:22:00.619Z</time>
      </trkpt>
      <trkpt lat="45.88423" lon="3.7434">
        <ele>826</ele>
        <time>2024-12-08T02:22:01.619Z</time>
      </trkpt>
      <trkpt lat="45.88424" lon="3.74341">
        <ele>826</ele>
        <time>2024-12-08T02:22:02.620Z</time>
      </trkpt>
      <trkpt lat="45.88424" lon="3.74343">
        <ele>826</ele>
        <time>2024-12-08T02:22:03.620Z</time>
      </trkpt>
      <trkpt lat="45.88424" lon="3.74344">
        <ele>826</ele>
        <time>2024-12-08T02:22:04.620Z</time>
      </trkpt>
      <trkpt lat="45.88424" lon="3.74346">
        <ele>826</ele>
        <time>2024-12-08T02:22:05.619Z</time>
      </trkpt>
      <trkpt lat="45.88425" lon="3.74348">
        <ele>827</ele>
        <time>2024-12-08T02:22:06.620Z</time>
      </trkpt>
      <trkpt lat="45.88425" lon="3.74349">
        <ele>827</ele>
        <time>2024-12-08T02:22:07.620Z</time>
      </trkpt>
      <trkpt lat="45.88425" lon="3.74351">
        <ele>827</ele>
        <time>2024-12-08T02:22:08.619Z</time>
      </trkpt>
      <trkpt lat="45.88425" lon="3.74352">
        <ele>827</ele>
        <time>2024-12-08T02:22:09.619Z</time>
      </trkpt>
      <trkpt lat="45.88425" lon="3.74354">
        <ele>828</ele>
        <time>2024-12-08T02:22:10.620Z</time>
      </trkpt>
      <trkpt lat="45.88424" lon="3.74355">
        <ele>828</ele>
        <time>2024-12-08T02:22:11.619Z</time>
      </trkpt>
      <trkpt lat="45.88424" lon="3.74357">
        <ele>828</ele>
        <time>2024-12-08T02:22:12.620Z</time>
      </trkpt>
      <trkpt lat="45.88424" lon="3.74359">
        <ele>828</ele>
        <time>2024-12-08T02:22:13.619Z</time>
      </trkpt>
      <trkpt lat="45.88425" lon="3.7436">
        <ele>828</ele>
        <time>2024-12-08T02:22:14.619Z</time>
      </trkpt>
      <trkpt lat="45.88425" lon="3.74361">
        <ele>828</ele>
        <time>2024-12-08T02:22:15.620Z</time>
      </trkpt>
      <trkpt lat="45.88425" lon="3.74363">
        <ele>828</ele>
        <time>2024-12-08T02:22:16.620Z</time>
      </trkpt>
      <trkpt lat="45.88426" lon="3.74364">
        <ele>829</ele>
        <time>2024-12-08T02:22:17.619Z</time>
      </trkpt>
      <trkpt lat="45.88426" lon="3.74366">
        <ele>829</ele>
        <time>2024-12-08T02:22:18.619Z</time>
      </trkpt>
      <trkpt lat="45.88426" lon="3.74367">
        <ele>829</ele>
        <time>2024-12-08T02:22:19.620Z</time>
      </trkpt>
      <trkpt lat="45.88426" lon="3.74368">
        <ele>829</ele>
        <time>2024-12-08T02:22:20.619Z</time>
      </trkpt>
      <trkpt lat="45.88426" lon="3.7437">
        <ele>829</ele>
        <time>2024-12-08T02:22:21.619Z</time>
      </trkpt>
      <trkpt lat="45.88426" lon="3.74372">
        <ele>828</ele>
        <time>2024-12-08T02:22:22.619Z</time>
      </trkpt>
      <trkpt lat="45.88426" lon="3.74373">
        <ele>828</ele>
        <time>2024-12-08T02:22:23.619Z</time>
      </trkpt>
      <trkpt lat="45.88426" lon="3.74374">
        <ele>828</ele>
        <time>2024-12-08T02:22:24.619Z</time>
      </trkpt>
      <trkpt lat="45.88427" lon="3.74376">
        <ele>828</ele>
        <time>2024-12-08T02:22:25.619Z</time>
      </trkpt>
      <trkpt lat="45.88427" lon="3.74378">
        <ele>829</ele>
        <time>2024-12-08T02:22:26.619Z</time>
      </trkpt>
      <trkpt lat="45.88427" lon="3.74379">
        <ele>829</ele>
        <time>2024-12-08T02:22:27.620Z</time>
      </trkpt>
      <trkpt lat="45.88427" lon="3.7438">
        <ele>829</ele>
        <time>2024-12-08T02:22:28.620Z</time>
      </trkpt>
      <trkpt lat="45.88427" lon="3.74382">
        <ele>829</ele>
        <time>2024-12-08T02:22:29.619Z</time>
      </trkpt>
      <trkpt lat="45.88427" lon="3.74383">
        <ele>829</ele>
        <time>2024-12-08T02:22:30.619Z</time>
      </trkpt>
      <trkpt lat="45.88427" lon="3.74384">
        <ele>829</ele>
        <time>2024-12-08T02:22:31.619Z</time>
      </trkpt>
      <trkpt lat="45.88427" lon="3.74386">
        <ele>829</ele>
        <time>2024-12-08T02:22:32.619Z</time>
      </trkpt>
      <trkpt lat="45.88427" lon="3.74387">
        <ele>828</ele>
        <time>2024-12-08T02:22:33.619Z</time>
      </trkpt>
      <trkpt lat="45.88427" lon="3.74388">
        <ele>828</ele>
        <time>2024-12-08T02:22:34.619Z</time>
      </trkpt>
      <trkpt lat="45.88427" lon="3.7439">
        <ele>828</ele>
        <time>2024-12-08T02:22:35.619Z</time>
      </trkpt>
      <trkpt lat="45.88426" lon="3.74391">
        <ele>828</ele>
        <time>2024-12-08T02:22:36.619Z</time>
      </trkpt>
      <trkpt lat="45.88426" lon="3.74392">
        <ele>828</ele>
        <time>2024-12-08T02:22:37.620Z</time>
      </trkpt>
      <trkpt lat="45.88426" lon="3.74393">
        <ele>827</ele>
        <time>2024-12-08T02:22:38.620Z</time>
      </trkpt>
      <trkpt lat="45.88426" lon="3.74394">
        <ele>827</ele>
        <time>2024-12-08T02:22:39.619Z</time>
      </trkpt>
      <trkpt lat="45.88426" lon="3.74396">
        <ele>827</ele>
        <time>2024-12-08T02:22:40.620Z</time>
      </trkpt>
      <trkpt lat="45.88425" lon="3.74397">
        <ele>827</ele>
        <time>2024-12-08T02:22:41.619Z</time>
      </trkpt>
      <trkpt lat="45.88425" lon="3.74398">
        <ele>827</ele>
        <time>2024-12-08T02:22:42.619Z</time>
      </trkpt>
      <trkpt lat="45.88426" lon="3.744">
        <ele>827</ele>
        <time>2024-12-08T02:22:43.620Z</time>
      </trkpt>
      <trkpt lat="45.88426" lon="3.74402">
        <ele>827</ele>
        <time>2024-12-08T02:22:44.619Z</time>
      </trkpt>
      <trkpt lat="45.88426" lon="3.74404">
        <ele>827</ele>
        <time>2024-12-08T02:22:45.620Z</time>
      </trkpt>
      <trkpt lat="45.88426" lon="3.74405">
        <ele>827</ele>
        <time>2024-12-08T02:22:46.620Z</time>
      </trkpt>
      <trkpt lat="45.88427" lon="3.74407">
        <ele>827</ele>
        <time>2024-12-08T02:22:47.619Z</time>
      </trkpt>
      <trkpt lat="45.88427" lon="3.74408">
        <ele>827</ele>
        <time>2024-12-08T02:22:48.620Z</time>
      </trkpt>
      <trkpt lat="45.88427" lon="3.7441">
        <ele>828</ele>
        <time>2024-12-08T02:22:49.620Z</time>
      </trkpt>
      <trkpt lat="45.88426" lon="3.74411">
        <ele>828</ele>
        <time>2024-12-08T02:22:50.620Z</time>
      </trkpt>
      <trkpt lat="45.88426" lon="3.74412">
        <ele>828</ele>
        <time>2024-12-08T02:22:51.620Z</time>
      </trkpt>
      <trkpt lat="45.88427" lon="3.74414">
        <ele>828</ele>
        <time>2024-12-08T02:22:52.620Z</time>
      </trkpt>
      <trkpt lat="45.88427" lon="3.74415">
        <ele>829</ele>
        <time>2024-12-08T02:22:53.620Z</time>
      </trkpt>
      <trkpt lat="45.88427" lon="3.74417">
        <ele>829</ele>
        <time>2024-12-08T02:22:54.620Z</time>
      </trkpt>
      <trkpt lat="45.88426" lon="3.74418">
        <ele>829</ele>
        <time>2024-12-08T02:22:55.619Z</time>
      </trkpt>
      <trkpt lat="45.88426" lon="3.7442">
        <ele>830</ele>
        <time>2024-12-08T02:22:56.620Z</time>
      </trkpt>
      <trkpt lat="45.88426" lon="3.74421">
        <ele>830</ele>
        <time>2024-12-08T02:22:57.620Z</time>
      </trkpt>
      <trkpt lat="45.88426" lon="3.74423">
        <ele>830</ele>
        <time>2024-12-08T02:22:58.619Z</time>
      </trkpt>
      <trkpt lat="45.88426" lon="3.74425">
        <ele>830</ele>
        <time>2024-12-08T02:22:59.619Z</time>
      </trkpt>
      <trkpt lat="45.88426" lon="3.74426">
        <ele>830</ele>
        <time>2024-12-08T02:23:00.619Z</time>
      </trkpt>
      <trkpt lat="45.88426" lon="3.74427">
        <ele>831</ele>
        <time>2024-12-08T02:23:01.620Z</time>
      </trkpt>
      <trkpt lat="45.88427" lon="3.74429">
        <ele>831</ele>
        <time>2024-12-08T02:23:02.619Z</time>
      </trkpt>
      <trkpt lat="45.88427" lon="3.74431">
        <ele>832</ele>
        <time>2024-12-08T02:23:03.619Z</time>
      </trkpt>
      <trkpt lat="45.88427" lon="3.74432">
        <ele>832</ele>
        <time>2024-12-08T02:23:04.619Z</time>
      </trkpt>
      <trkpt lat="45.88428" lon="3.74434">
        <ele>833</ele>
        <time>2024-12-08T02:23:05.619Z</time>
      </trkpt>
      <trkpt lat="45.88428" lon="3.74435">
        <ele>833</ele>
        <time>2024-12-08T02:23:06.619Z</time>
      </trkpt>
      <trkpt lat="45.88428" lon="3.74437">
        <ele>833</ele>
        <time>2024-12-08T02:23:07.619Z</time>
      </trkpt>
      <trkpt lat="45.88428" lon="3.74438">
        <ele>834</ele>
        <time>2024-12-08T02:23:08.619Z</time>
      </trkpt>
      <trkpt lat="45.88428" lon="3.74441">
        <ele>834</ele>
        <time>2024-12-08T02:23:09.619Z</time>
      </trkpt>
      <trkpt lat="45.88428" lon="3.74442">
        <ele>835</ele>
        <time>2024-12-08T02:23:10.619Z</time>
      </trkpt>
      <trkpt lat="45.88428" lon="3.74443">
        <ele>835</ele>
        <time>2024-12-08T02:23:11.619Z</time>
      </trkpt>
      <trkpt lat="45.88429" lon="3.74445">
        <ele>835</ele>
        <time>2024-12-08T02:23:12.619Z</time>
      </trkpt>
      <trkpt lat="45.88429" lon="3.74447">
        <ele>835</ele>
        <time>2024-12-08T02:23:13.619Z</time>
      </trkpt>
      <trkpt lat="45.88429" lon="3.74448">
        <ele>836</ele>
        <time>2024-12-08T02:23:14.619Z</time>
      </trkpt>
      <trkpt lat="45.88429" lon="3.7445">
        <ele>836</ele>
        <time>2024-12-08T02:23:15.620Z</time>
      </trkpt>
      <trkpt lat="45.88429" lon="3.74452">
        <ele>836</ele>
        <time>2024-12-08T02:23:16.620Z</time>
      </trkpt>
      <trkpt lat="45.88429" lon="3.74453">
        <ele>836</ele>
        <time>2024-12-08T02:23:17.619Z</time>
      </trkpt>
      <trkpt lat="45.88429" lon="3.74455">
        <ele>836</ele>
        <time>2024-12-08T02:23:18.620Z</time>
      </trkpt>
      <trkpt lat="45.88429" lon="3.74456">
        <ele>836</ele>
        <time>2024-12-08T02:23:19.620Z</time>
      </trkpt>
      <trkpt lat="45.88429" lon="3.74458">
        <ele>835</ele>
        <time>2024-12-08T02:23:20.619Z</time>
      </trkpt>
      <trkpt lat="45.88429" lon="3.74459">
        <ele>835</ele>
        <time>2024-12-08T02:23:21.619Z</time>
      </trkpt>
      <trkpt lat="45.88429" lon="3.7446">
        <ele>835</ele>
        <time>2024-12-08T02:23:22.619Z</time>
      </trkpt>
      <trkpt lat="45.88429" lon="3.74462">
        <ele>835</ele>
        <time>2024-12-08T02:23:23.619Z</time>
      </trkpt>
      <trkpt lat="45.88429" lon="3.74463">
        <ele>835</ele>
        <time>2024-12-08T02:23:24.620Z</time>
      </trkpt>
      <trkpt lat="45.88429" lon="3.74464">
        <ele>835</ele>
        <time>2024-12-08T02:23:25.619Z</time>
      </trkpt>
      <trkpt lat="45.88429" lon="3.74466">
        <ele>835</ele>
        <time>2024-12-08T02:23:26.619Z</time>
      </trkpt>
      <trkpt lat="45.88429" lon="3.74468">
        <ele>835</ele>
        <time>2024-12-08T02:23:27.619Z</time>
      </trkpt>
      <trkpt lat="45.8843" lon="3.7447">
        <ele>835</ele>
        <time>2024-12-08T02:23:28.619Z</time>
      </trkpt>
      <trkpt lat="45.8843" lon="3.74471">
        <ele>835</ele>
        <time>2024-12-08T02:23:29.619Z</time>
      </trkpt>
      <trkpt lat="45.8843" lon="3.74474">
        <ele>835</ele>
        <time>2024-12-08T02:23:30.619Z</time>
      </trkpt>
      <trkpt lat="45.8843" lon="3.74475">
        <ele>835</ele>
        <time>2024-12-08T02:23:31.619Z</time>
      </trkpt>
      <trkpt lat="45.8843" lon="3.74477">
        <ele>835</ele>
        <time>2024-12-08T02:23:32.620Z</time>
      </trkpt>
      <trkpt lat="45.8843" lon="3.74479">
        <ele>835</ele>
        <time>2024-12-08T02:23:33.619Z</time>
      </trkpt>
      <trkpt lat="45.8843" lon="3.7448">
        <ele>835</ele>
        <time>2024-12-08T02:23:34.619Z</time>
      </trkpt>
      <trkpt lat="45.88431" lon="3.74482">
        <ele>835</ele>
        <time>2024-12-08T02:23:35.620Z</time>
      </trkpt>
      <trkpt lat="45.88431" lon="3.74484">
        <ele>835</ele>
        <time>2024-12-08T02:23:36.619Z</time>
      </trkpt>
      <trkpt lat="45.88432" lon="3.74486">
        <ele>835</ele>
        <time>2024-12-08T02:23:37.620Z</time>
      </trkpt>
      <trkpt lat="45.88432" lon="3.74487">
        <ele>836</ele>
        <time>2024-12-08T02:23:38.619Z</time>
      </trkpt>
      <trkpt lat="45.88432" lon="3.74489">
        <ele>836</ele>
        <time>2024-12-08T02:23:39.619Z</time>
      </trkpt>
      <trkpt lat="45.88432" lon="3.74491">
        <ele>836</ele>
        <time>2024-12-08T02:23:40.620Z</time>
      </trkpt>
      <trkpt lat="45.88432" lon="3.74492">
        <ele>836</ele>
        <time>2024-12-08T02:23:41.620Z</time>
      </trkpt>
      <trkpt lat="45.88432" lon="3.74494">
        <ele>836</ele>
        <time>2024-12-08T02:23:42.620Z</time>
      </trkpt>
      <trkpt lat="45.88432" lon="3.74495">
        <ele>836</ele>
        <time>2024-12-08T02:23:43.619Z</time>
      </trkpt>
      <trkpt lat="45.88432" lon="3.74496">
        <ele>836</ele>
        <time>2024-12-08T02:23:44.619Z</time>
      </trkpt>
      <trkpt lat="45.88433" lon="3.74498">
        <ele>836</ele>
        <time>2024-12-08T02:23:45.619Z</time>
      </trkpt>
      <trkpt lat="45.88433" lon="3.745">
        <ele>837</ele>
        <time>2024-12-08T02:23:46.619Z</time>
      </trkpt>
      <trkpt lat="45.88434" lon="3.74502">
        <ele>837</ele>
        <time>2024-12-08T02:23:47.620Z</time>
      </trkpt>
      <trkpt lat="45.88434" lon="3.74504">
        <ele>837</ele>
        <time>2024-12-08T02:23:48.619Z</time>
      </trkpt>
      <trkpt lat="45.88434" lon="3.74505">
        <ele>837</ele>
        <time>2024-12-08T02:23:49.620Z</time>
      </trkpt>
      <trkpt lat="45.88434" lon="3.74507">
        <ele>838</ele>
        <time>2024-12-08T02:23:50.619Z</time>
      </trkpt>
      <trkpt lat="45.88434" lon="3.74509">
        <ele>838</ele>
        <time>2024-12-08T02:23:51.619Z</time>
      </trkpt>
      <trkpt lat="45.88434" lon="3.7451">
        <ele>838</ele>
        <time>2024-12-08T02:23:52.620Z</time>
      </trkpt>
      <trkpt lat="45.88434" lon="3.74511">
        <ele>839</ele>
        <time>2024-12-08T02:23:53.619Z</time>
      </trkpt>
      <trkpt lat="45.88434" lon="3.74513">
        <ele>839</ele>
        <time>2024-12-08T02:23:54.619Z</time>
      </trkpt>
      <trkpt lat="45.88435" lon="3.74515">
        <ele>839</ele>
        <time>2024-12-08T02:23:55.619Z</time>
      </trkpt>
      <trkpt lat="45.88435" lon="3.74517">
        <ele>840</ele>
        <time>2024-12-08T02:23:56.619Z</time>
      </trkpt>
      <trkpt lat="45.88435" lon="3.74518">
        <ele>840</ele>
        <time>2024-12-08T02:23:57.620Z</time>
      </trkpt>
      <trkpt lat="45.88435" lon="3.7452">
        <ele>840</ele>
        <time>2024-12-08T02:23:58.620Z</time>
      </trkpt>
      <trkpt lat="45.88435" lon="3.74521">
        <ele>841</ele>
        <time>2024-12-08T02:23:59.619Z</time>
      </trkpt>
      <trkpt lat="45.88435" lon="3.74523">
        <ele>841</ele>
        <time>2024-12-08T02:24:00.619Z</time>
      </trkpt>
      <trkpt lat="45.88435" lon="3.74524">
        <ele>841</ele>
        <time>2024-12-08T02:24:01.620Z</time>
      </trkpt>
      <trkpt lat="45.88435" lon="3.74525">
        <ele>842</ele>
        <time>2024-12-08T02:24:02.620Z</time>
      </trkpt>
      <trkpt lat="45.88435" lon="3.74527">
        <ele>842</ele>
        <time>2024-12-08T02:24:03.619Z</time>
      </trkpt>
      <trkpt lat="45.88435" lon="3.74529">
        <ele>842</ele>
        <time>2024-12-08T02:24:04.619Z</time>
      </trkpt>
      <trkpt lat="45.88435" lon="3.7453">
        <ele>843</ele>
        <time>2024-12-08T02:24:05.619Z</time>
      </trkpt>
      <trkpt lat="45.88436" lon="3.74532">
        <ele>843</ele>
        <time>2024-12-08T02:24:06.620Z</time>
      </trkpt>
      <trkpt lat="45.88436" lon="3.74533">
        <ele>843</ele>
        <time>2024-12-08T02:24:07.620Z</time>
      </trkpt>
      <trkpt lat="45.88436" lon="3.74535">
        <ele>844</ele>
        <time>2024-12-08T02:24:08.620Z</time>
      </trkpt>
      <trkpt lat="45.88437" lon="3.74537">
        <ele>844</ele>
        <time>2024-12-08T02:24:09.620Z</time>
      </trkpt>
      <trkpt lat="45.88437" lon="3.74539">
        <ele>844</ele>
        <time>2024-12-08T02:24:10.619Z</time>
      </trkpt>
      <trkpt lat="45.88437" lon="3.74541">
        <ele>844</ele>
        <time>2024-12-08T02:24:11.619Z</time>
      </trkpt>
      <trkpt lat="45.88437" lon="3.74542">
        <ele>845</ele>
        <time>2024-12-08T02:24:12.619Z</time>
      </trkpt>
      <trkpt lat="45.88437" lon="3.74543">
        <ele>845</ele>
        <time>2024-12-08T02:24:13.620Z</time>
      </trkpt>
      <trkpt lat="45.88436" lon="3.74545">
        <ele>845</ele>
        <time>2024-12-08T02:24:14.619Z</time>
      </trkpt>
      <trkpt lat="45.88436" lon="3.74546">
        <ele>845</ele>
        <time>2024-12-08T02:24:15.619Z</time>
      </trkpt>
      <trkpt lat="45.88436" lon="3.74547">
        <ele>845</ele>
        <time>2024-12-08T02:24:16.620Z</time>
      </trkpt>
      <trkpt lat="45.88436" lon="3.74549">
        <ele>845</ele>
        <time>2024-12-08T02:24:17.619Z</time>
      </trkpt>
      <trkpt lat="45.88436" lon="3.7455">
        <ele>845</ele>
        <time>2024-12-08T02:24:18.620Z</time>
      </trkpt>
      <trkpt lat="45.88436" lon="3.74552">
        <ele>846</ele>
        <time>2024-12-08T02:24:19.619Z</time>
      </trkpt>
      <trkpt lat="45.88436" lon="3.74554">
        <ele>846</ele>
        <time>2024-12-08T02:24:20.619Z</time>
      </trkpt>
      <trkpt lat="45.88436" lon="3.74555">
        <ele>846</ele>
        <time>2024-12-08T02:24:21.620Z</time>
      </trkpt>
      <trkpt lat="45.88436" lon="3.74556">
        <ele>846</ele>
        <time>2024-12-08T02:24:22.620Z</time>
      </trkpt>
      <trkpt lat="45.88436" lon="3.74558">
        <ele>846</ele>
        <time>2024-12-08T02:24:23.620Z</time>
      </trkpt>
      <trkpt lat="45.88436" lon="3.74559">
        <ele>847</ele>
        <time>2024-12-08T02:24:24.619Z</time>
      </trkpt>
      <trkpt lat="45.88435" lon="3.74561">
        <ele>847</ele>
        <time>2024-12-08T02:24:25.620Z</time>
      </trkpt>
      <trkpt lat="45.88435" lon="3.74562">
        <ele>847</ele>
        <time>2024-12-08T02:24:26.620Z</time>
      </trkpt>
      <trkpt lat="45.88436" lon="3.74563">
        <ele>847</ele>
        <time>2024-12-08T02:24:27.619Z</time>
      </trkpt>
      <trkpt lat="45.88436" lon="3.74565">
        <ele>848</ele>
        <time>2024-12-08T02:24:28.620Z</time>
      </trkpt>
      <trkpt lat="45.88437" lon="3.74566">
        <ele>848</ele>
        <time>2024-12-08T02:24:29.620Z</time>
      </trkpt>
      <trkpt lat="45.88438" lon="3.74567">
        <ele>848</ele>
        <time>2024-12-08T02:24:30.619Z</time>
      </trkpt>
      <trkpt lat="45.88438" lon="3.74568">
        <ele>849</ele>
        <time>2024-12-08T02:24:31.619Z</time>
      </trkpt>
      <trkpt lat="45.88438" lon="3.7457">
        <ele>849</ele>
        <time>2024-12-08T02:24:32.620Z</time>
      </trkpt>
      <trkpt lat="45.88438" lon="3.74572">
        <ele>849</ele>
        <time>2024-12-08T02:24:33.619Z</time>
      </trkpt>
      <trkpt lat="45.88439" lon="3.74573">
        <ele>850</ele>
        <time>2024-12-08T02:24:34.620Z</time>
      </trkpt>
      <trkpt lat="45.88439" lon="3.74578">
        <ele>850</ele>
        <time>2024-12-08T02:24:35.620Z</time>
      </trkpt>
      <trkpt lat="45.88439" lon="3.74579">
        <ele>850</ele>
        <time>2024-12-08T02:24:36.619Z</time>
      </trkpt>
      <trkpt lat="45.88439" lon="3.74581">
        <ele>850</ele>
        <time>2024-12-08T02:24:37.620Z</time>
      </trkpt>
      <trkpt lat="45.88439" lon="3.74583">
        <ele>851</ele>
        <time>2024-12-08T02:24:38.619Z</time>
      </trkpt>
      <trkpt lat="45.8844" lon="3.74585">
        <ele>851</ele>
        <time>2024-12-08T02:24:39.619Z</time>
      </trkpt>
      <trkpt lat="45.8844" lon="3.74586">
        <ele>852</ele>
        <time>2024-12-08T02:24:40.619Z</time>
      </trkpt>
      <trkpt lat="45.8844" lon="3.74587">
        <ele>852</ele>
        <time>2024-12-08T02:24:41.619Z</time>
      </trkpt>
      <trkpt lat="45.88439" lon="3.74588">
        <ele>853</ele>
        <time>2024-12-08T02:24:42.619Z</time>
      </trkpt>
      <trkpt lat="45.88439" lon="3.7459">
        <ele>853</ele>
        <time>2024-12-08T02:24:43.620Z</time>
      </trkpt>
      <trkpt lat="45.88439" lon="3.74591">
        <ele>854</ele>
        <time>2024-12-08T02:24:44.620Z</time>
      </trkpt>
      <trkpt lat="45.88439" lon="3.74593">
        <ele>854</ele>
        <time>2024-12-08T02:24:45.620Z</time>
      </trkpt>
      <trkpt lat="45.8844" lon="3.74594">
        <ele>855</ele>
        <time>2024-12-08T02:24:46.619Z</time>
      </trkpt>
      <trkpt lat="45.8844" lon="3.74596">
        <ele>855</ele>
        <time>2024-12-08T02:24:47.620Z</time>
      </trkpt>
      <trkpt lat="45.88439" lon="3.74598">
        <ele>856</ele>
        <time>2024-12-08T02:24:48.620Z</time>
      </trkpt>
      <trkpt lat="45.88438" lon="3.74599">
        <ele>856</ele>
        <time>2024-12-08T02:24:49.619Z</time>
      </trkpt>
      <trkpt lat="45.88438" lon="3.74601">
        <ele>857</ele>
        <time>2024-12-08T02:24:50.620Z</time>
      </trkpt>
      <trkpt lat="45.88438" lon="3.74603">
        <ele>857</ele>
        <time>2024-12-08T02:24:51.620Z</time>
      </trkpt>
      <trkpt lat="45.88439" lon="3.74605">
        <ele>857</ele>
        <time>2024-12-08T02:24:52.619Z</time>
      </trkpt>
      <trkpt lat="45.88439" lon="3.74606">
        <ele>858</ele>
        <time>2024-12-08T02:24:53.620Z</time>
      </trkpt>
      <trkpt lat="45.88439" lon="3.74607">
        <ele>858</ele>
        <time>2024-12-08T02:24:54.620Z</time>
      </trkpt>
      <trkpt lat="45.88439" lon="3.74608">
        <ele>859</ele>
        <time>2024-12-08T02:24:55.620Z</time>
      </trkpt>
      <trkpt lat="45.88439" lon="3.74609">
        <ele>859</ele>
        <time>2024-12-08T02:24:56.620Z</time>
      </trkpt>
      <trkpt lat="45.8844" lon="3.74611">
        <ele>859</ele>
        <time>2024-12-08T02:24:57.620Z</time>
      </trkpt>
      <trkpt lat="45.88441" lon="3.74613">
        <ele>860</ele>
        <time>2024-12-08T02:24:58.619Z</time>
      </trkpt>
      <trkpt lat="45.88441" lon="3.74615">
        <ele>860</ele>
        <time>2024-12-08T02:24:59.620Z</time>
      </trkpt>
      <trkpt lat="45.88441" lon="3.74616">
        <ele>860</ele>
        <time>2024-12-08T02:25:00.619Z</time>
      </trkpt>
      <trkpt lat="45.88441" lon="3.74618">
        <ele>860</ele>
        <time>2024-12-08T02:25:01.620Z</time>
      </trkpt>
      <trkpt lat="45.88441" lon="3.74619">
        <ele>860</ele>
        <time>2024-12-08T02:25:02.619Z</time>
      </trkpt>
      <trkpt lat="45.88441" lon="3.74621">
        <ele>860</ele>
        <time>2024-12-08T02:25:03.619Z</time>
      </trkpt>
      <trkpt lat="45.8844" lon="3.74622">
        <ele>860</ele>
        <time>2024-12-08T02:25:04.619Z</time>
      </trkpt>
      <trkpt lat="45.88439" lon="3.74623">
        <ele>860</ele>
        <time>2024-12-08T02:25:05.620Z</time>
      </trkpt>
      <trkpt lat="45.8844" lon="3.74624">
        <ele>860</ele>
        <time>2024-12-08T02:25:06.620Z</time>
      </trkpt>
      <trkpt lat="45.88441" lon="3.74626">
        <ele>860</ele>
        <time>2024-12-08T02:25:07.620Z</time>
      </trkpt>
      <trkpt lat="45.88442" lon="3.74629">
        <ele>860</ele>
        <time>2024-12-08T02:25:08.620Z</time>
      </trkpt>
      <trkpt lat="45.88444" lon="3.74632">
        <ele>861</ele>
        <time>2024-12-08T02:25:09.619Z</time>
      </trkpt>
      <trkpt lat="45.88445" lon="3.74633">
        <ele>861</ele>
        <time>2024-12-08T02:25:10.619Z</time>
      </trkpt>
      <trkpt lat="45.88446" lon="3.74635">
        <ele>861</ele>
        <time>2024-12-08T02:25:11.619Z</time>
      </trkpt>
      <trkpt lat="45.88446" lon="3.74637">
        <ele>861</ele>
        <time>2024-12-08T02:25:12.619Z</time>
      </trkpt>
      <trkpt lat="45.88447" lon="3.74639">
        <ele>861</ele>
        <time>2024-12-08T02:25:13.619Z</time>
      </trkpt>
      <trkpt lat="45.88447" lon="3.74642">
        <ele>861</ele>
        <time>2024-12-08T02:25:14.620Z</time>
      </trkpt>
      <trkpt lat="45.88448" lon="3.74643">
        <ele>861</ele>
        <time>2024-12-08T02:25:15.620Z</time>
      </trkpt>
      <trkpt lat="45.88448" lon="3.74645">
        <ele>861</ele>
        <time>2024-12-08T02:25:16.620Z</time>
      </trkpt>
      <trkpt lat="45.88447" lon="3.74645">
        <ele>861</ele>
        <time>2024-12-08T02:25:17.620Z</time>
      </trkpt>
      <trkpt lat="45.88447" lon="3.74646">
        <ele>861</ele>
        <time>2024-12-08T02:25:18.619Z</time>
      </trkpt>
      <trkpt lat="45.88447" lon="3.74647">
        <ele>861</ele>
        <time>2024-12-08T02:25:19.619Z</time>
      </trkpt>
      <trkpt lat="45.88447" lon="3.74649">
        <ele>861</ele>
        <time>2024-12-08T02:25:20.620Z</time>
      </trkpt>
      <trkpt lat="45.88447" lon="3.74651">
        <ele>861</ele>
        <time>2024-12-08T02:25:21.619Z</time>
      </trkpt>
      <trkpt lat="45.88447" lon="3.74654">
        <ele>861</ele>
        <time>2024-12-08T02:25:22.619Z</time>
      </trkpt>
      <trkpt lat="45.88448" lon="3.74656">
        <ele>861</ele>
        <time>2024-12-08T02:25:23.619Z</time>
      </trkpt>
      <trkpt lat="45.88448" lon="3.74658">
        <ele>862</ele>
        <time>2024-12-08T02:25:24.620Z</time>
      </trkpt>
      <trkpt lat="45.88447" lon="3.74658">
        <ele>862</ele>
        <time>2024-12-08T02:25:25.620Z</time>
      </trkpt>
      <trkpt lat="45.88447" lon="3.74661">
        <ele>862</ele>
        <time>2024-12-08T02:25:26.619Z</time>
      </trkpt>
      <trkpt lat="45.88448" lon="3.74663">
        <ele>862</ele>
        <time>2024-12-08T02:25:27.619Z</time>
      </trkpt>
      <trkpt lat="45.88448" lon="3.74665">
        <ele>863</ele>
        <time>2024-12-08T02:25:28.620Z</time>
      </trkpt>
      <trkpt lat="45.88449" lon="3.74666">
        <ele>863</ele>
        <time>2024-12-08T02:25:29.619Z</time>
      </trkpt>
      <trkpt lat="45.88449" lon="3.74668">
        <ele>863</ele>
        <time>2024-12-08T02:25:30.619Z</time>
      </trkpt>
      <trkpt lat="45.88449" lon="3.7467">
        <ele>863</ele>
        <time>2024-12-08T02:25:31.619Z</time>
      </trkpt>
      <trkpt lat="45.88449" lon="3.74672">
        <ele>864</ele>
        <time>2024-12-08T02:25:32.619Z</time>
      </trkpt>
      <trkpt lat="45.8845" lon="3.74673">
        <ele>864</ele>
        <time>2024-12-08T02:25:33.620Z</time>
      </trkpt>
      <trkpt lat="45.88451" lon="3.74675">
        <ele>864</ele>
        <time>2024-12-08T02:25:34.620Z</time>
      </trkpt>
      <trkpt lat="45.8845" lon="3.74677">
        <ele>865</ele>
        <time>2024-12-08T02:25:35.619Z</time>
      </trkpt>
      <trkpt lat="45.8845" lon="3.74679">
        <ele>865</ele>
        <time>2024-12-08T02:25:36.619Z</time>
      </trkpt>
      <trkpt lat="45.8845" lon="3.74681">
        <ele>865</ele>
        <time>2024-12-08T02:25:37.619Z</time>
      </trkpt>
      <trkpt lat="45.8845" lon="3.74682">
        <ele>865</ele>
        <time>2024-12-08T02:25:38.620Z</time>
      </trkpt>
      <trkpt lat="45.8845" lon="3.74683">
        <ele>864</ele>
        <time>2024-12-08T02:25:39.619Z</time>
      </trkpt>
      <trkpt lat="45.8845" lon="3.74685">
        <ele>864</ele>
        <time>2024-12-08T02:25:40.619Z</time>
      </trkpt>
      <trkpt lat="45.88449" lon="3.74686">
        <ele>864</ele>
        <time>2024-12-08T02:25:41.619Z</time>
      </trkpt>
      <trkpt lat="45.8845" lon="3.74687">
        <ele>864</ele>
        <time>2024-12-08T02:25:42.620Z</time>
      </trkpt>
      <trkpt lat="45.8845" lon="3.74689">
        <ele>864</ele>
        <time>2024-12-08T02:25:43.620Z</time>
      </trkpt>
      <trkpt lat="45.8845" lon="3.7469">
        <ele>864</ele>
        <time>2024-12-08T02:25:44.620Z</time>
      </trkpt>
      <trkpt lat="45.8845" lon="3.74691">
        <ele>864</ele>
        <time>2024-12-08T02:25:45.620Z</time>
      </trkpt>
      <trkpt lat="45.8845" lon="3.74692">
        <ele>864</ele>
        <time>2024-12-08T02:25:46.619Z</time>
      </trkpt>
      <trkpt lat="45.88449" lon="3.74694">
        <ele>864</ele>
        <time>2024-12-08T02:25:47.620Z</time>
      </trkpt>
      <trkpt lat="45.88449" lon="3.74696">
        <ele>863</ele>
        <time>2024-12-08T02:25:48.619Z</time>
      </trkpt>
      <trkpt lat="45.88449" lon="3.74698">
        <ele>863</ele>
        <time>2024-12-08T02:25:49.619Z</time>
      </trkpt>
      <trkpt lat="45.88449" lon="3.747">
        <ele>863</ele>
        <time>2024-12-08T02:25:50.620Z</time>
      </trkpt>
      <trkpt lat="45.88449" lon="3.74702">
        <ele>863</ele>
        <time>2024-12-08T02:25:51.619Z</time>
      </trkpt>
      <trkpt lat="45.88449" lon="3.74704">
        <ele>863</ele>
        <time>2024-12-08T02:25:52.619Z</time>
      </trkpt>
      <trkpt lat="45.88449" lon="3.74705">
        <ele>863</ele>
        <time>2024-12-08T02:25:53.620Z</time>
      </trkpt>
      <trkpt lat="45.8845" lon="3.74706">
        <ele>863</ele>
        <time>2024-12-08T02:25:54.619Z</time>
      </trkpt>
      <trkpt lat="45.8845" lon="3.74707">
        <ele>863</ele>
        <time>2024-12-08T02:25:55.619Z</time>
      </trkpt>
      <trkpt lat="45.88451" lon="3.74709">
        <ele>863</ele>
        <time>2024-12-08T02:25:56.620Z</time>
      </trkpt>
      <trkpt lat="45.8845" lon="3.74711">
        <ele>863</ele>
        <time>2024-12-08T02:25:57.620Z</time>
      </trkpt>
      <trkpt lat="45.8845" lon="3.74713">
        <ele>863</ele>
        <time>2024-12-08T02:25:58.620Z</time>
      </trkpt>
      <trkpt lat="45.8845" lon="3.74713">
        <ele>863</ele>
        <time>2024-12-08T02:25:59.619Z</time>
      </trkpt>
      <trkpt lat="45.8845" lon="3.74715">
        <ele>862</ele>
        <time>2024-12-08T02:26:00.620Z</time>
      </trkpt>
      <trkpt lat="45.8845" lon="3.74716">
        <ele>862</ele>
        <time>2024-12-08T02:26:01.620Z</time>
      </trkpt>
      <trkpt lat="45.8845" lon="3.74718">
        <ele>862</ele>
        <time>2024-12-08T02:26:02.619Z</time>
      </trkpt>
      <trkpt lat="45.8845" lon="3.74719">
        <ele>862</ele>
        <time>2024-12-08T02:26:03.619Z</time>
      </trkpt>
      <trkpt lat="45.8845" lon="3.74721">
        <ele>862</ele>
        <time>2024-12-08T02:26:04.620Z</time>
      </trkpt>
      <trkpt lat="45.88451" lon="3.74723">
        <ele>862</ele>
        <time>2024-12-08T02:26:05.620Z</time>
      </trkpt>
      <trkpt lat="45.88451" lon="3.74725">
        <ele>862</ele>
        <time>2024-12-08T02:26:06.619Z</time>
      </trkpt>
      <trkpt lat="45.88451" lon="3.74727">
        <ele>862</ele>
        <time>2024-12-08T02:26:07.620Z</time>
      </trkpt>
      <trkpt lat="45.88452" lon="3.74729">
        <ele>862</ele>
        <time>2024-12-08T02:26:08.619Z</time>
      </trkpt>
      <trkpt lat="45.88452" lon="3.7473">
        <ele>862</ele>
        <time>2024-12-08T02:26:09.619Z</time>
      </trkpt>
      <trkpt lat="45.88452" lon="3.74732">
        <ele>862</ele>
        <time>2024-12-08T02:26:10.620Z</time>
      </trkpt>
      <trkpt lat="45.88452" lon="3.74733">
        <ele>862</ele>
        <time>2024-12-08T02:26:11.619Z</time>
      </trkpt>
      <trkpt lat="45.88451" lon="3.74735">
        <ele>862</ele>
        <time>2024-12-08T02:26:12.619Z</time>
      </trkpt>
      <trkpt lat="45.88451" lon="3.74737">
        <ele>861</ele>
        <time>2024-12-08T02:26:13.619Z</time>
      </trkpt>
      <trkpt lat="45.88451" lon="3.74739">
        <ele>861</ele>
        <time>2024-12-08T02:26:14.620Z</time>
      </trkpt>
      <trkpt lat="45.88451" lon="3.7474">
        <ele>861</ele>
        <time>2024-12-08T02:26:15.619Z</time>
      </trkpt>
      <trkpt lat="45.88452" lon="3.74742">
        <ele>861</ele>
        <time>2024-12-08T02:26:16.619Z</time>
      </trkpt>
      <trkpt lat="45.88452" lon="3.74744">
        <ele>861</ele>
        <time>2024-12-08T02:26:17.620Z</time>
      </trkpt>
      <trkpt lat="45.88452" lon="3.74746">
        <ele>862</ele>
        <time>2024-12-08T02:26:18.620Z</time>
      </trkpt>
      <trkpt lat="45.88452" lon="3.74748">
        <ele>862</ele>
        <time>2024-12-08T02:26:19.620Z</time>
      </trkpt>
      <trkpt lat="45.88451" lon="3.74749">
        <ele>861</ele>
        <time>2024-12-08T02:26:20.619Z</time>
      </trkpt>
      <trkpt lat="45.88451" lon="3.7475">
        <ele>861</ele>
        <time>2024-12-08T02:26:21.620Z</time>
      </trkpt>
      <trkpt lat="45.88451" lon="3.74752">
        <ele>861</ele>
        <time>2024-12-08T02:26:22.620Z</time>
      </trkpt>
      <trkpt lat="45.88451" lon="3.74753">
        <ele>861</ele>
        <time>2024-12-08T02:26:23.620Z</time>
      </trkpt>
      <trkpt lat="45.88451" lon="3.74755">
        <ele>861</ele>
        <time>2024-12-08T02:26:24.619Z</time>
      </trkpt>
      <trkpt lat="45.88451" lon="3.74757">
        <ele>862</ele>
        <time>2024-12-08T02:26:25.619Z</time>
      </trkpt>
      <trkpt lat="45.88451" lon="3.74758">
        <ele>862</ele>
        <time>2024-12-08T02:26:26.620Z</time>
      </trkpt>
      <trkpt lat="45.88451" lon="3.7476">
        <ele>862</ele>
        <time>2024-12-08T02:26:27.620Z</time>
      </trkpt>
      <trkpt lat="45.88451" lon="3.74761">
        <ele>862</ele>
        <time>2024-12-08T02:26:28.619Z</time>
      </trkpt>
      <trkpt lat="45.88451" lon="3.74762">
        <ele>862</ele>
        <time>2024-12-08T02:26:29.620Z</time>
      </trkpt>
      <trkpt lat="45.88451" lon="3.74763">
        <ele>862</ele>
        <time>2024-12-08T02:26:30.619Z</time>
      </trkpt>
      <trkpt lat="45.8845" lon="3.74765">
        <ele>862</ele>
        <time>2024-12-08T02:26:31.620Z</time>
      </trkpt>
      <trkpt lat="45.8845" lon="3.74766">
        <ele>862</ele>
        <time>2024-12-08T02:26:32.619Z</time>
      </trkpt>
      <trkpt lat="45.8845" lon="3.74768">
        <ele>862</ele>
        <time>2024-12-08T02:26:33.620Z</time>
      </trkpt>
      <trkpt lat="45.8845" lon="3.74769">
        <ele>862</ele>
        <time>2024-12-08T02:26:34.619Z</time>
      </trkpt>
      <trkpt lat="45.88449" lon="3.7477">
        <ele>862</ele>
        <time>2024-12-08T02:26:35.620Z</time>
      </trkpt>
      <trkpt lat="45.88449" lon="3.74772">
        <ele>862</ele>
        <time>2024-12-08T02:26:36.619Z</time>
      </trkpt>
      <trkpt lat="45.88449" lon="3.74773">
        <ele>862</ele>
        <time>2024-12-08T02:26:37.619Z</time>
      </trkpt>
      <trkpt lat="45.88449" lon="3.74775">
        <ele>862</ele>
        <time>2024-12-08T02:26:38.619Z</time>
      </trkpt>
      <trkpt lat="45.88449" lon="3.74776">
        <ele>862</ele>
        <time>2024-12-08T02:26:39.620Z</time>
      </trkpt>
      <trkpt lat="45.88448" lon="3.74778">
        <ele>862</ele>
        <time>2024-12-08T02:26:40.620Z</time>
      </trkpt>
      <trkpt lat="45.88448" lon="3.74779">
        <ele>862</ele>
        <time>2024-12-08T02:26:41.619Z</time>
      </trkpt>
      <trkpt lat="45.88448" lon="3.74781">
        <ele>862</ele>
        <time>2024-12-08T02:26:42.620Z</time>
      </trkpt>
      <trkpt lat="45.88448" lon="3.74782">
        <ele>862</ele>
        <time>2024-12-08T02:26:43.619Z</time>
      </trkpt>
      <trkpt lat="45.88447" lon="3.74784">
        <ele>862</ele>
        <time>2024-12-08T02:26:44.619Z</time>
      </trkpt>
      <trkpt lat="45.88447" lon="3.74786">
        <ele>863</ele>
        <time>2024-12-08T02:26:45.620Z</time>
      </trkpt>
      <trkpt lat="45.88447" lon="3.74787">
        <ele>863</ele>
        <time>2024-12-08T02:26:46.619Z</time>
      </trkpt>
      <trkpt lat="45.88447" lon="3.74789">
        <ele>863</ele>
        <time>2024-12-08T02:26:47.619Z</time>
      </trkpt>
      <trkpt lat="45.88447" lon="3.7479">
        <ele>864</ele>
        <time>2024-12-08T02:26:48.620Z</time>
      </trkpt>
      <trkpt lat="45.88447" lon="3.74792">
        <ele>864</ele>
        <time>2024-12-08T02:26:49.620Z</time>
      </trkpt>
      <trkpt lat="45.88446" lon="3.74794">
        <ele>865</ele>
        <time>2024-12-08T02:26:50.620Z</time>
      </trkpt>
      <trkpt lat="45.88446" lon="3.74796">
        <ele>865</ele>
        <time>2024-12-08T02:26:51.620Z</time>
      </trkpt>
      <trkpt lat="45.88446" lon="3.74797">
        <ele>865</ele>
        <time>2024-12-08T02:26:52.620Z</time>
      </trkpt>
      <trkpt lat="45.88445" lon="3.74799">
        <ele>866</ele>
        <time>2024-12-08T02:26:53.619Z</time>
      </trkpt>
      <trkpt lat="45.88445" lon="3.74801">
        <ele>866</ele>
        <time>2024-12-08T02:26:54.619Z</time>
      </trkpt>
      <trkpt lat="45.88445" lon="3.74803">
        <ele>866</ele>
        <time>2024-12-08T02:26:55.620Z</time>
      </trkpt>
      <trkpt lat="45.88444" lon="3.74804">
        <ele>866</ele>
        <time>2024-12-08T02:26:56.619Z</time>
      </trkpt>
      <trkpt lat="45.88444" lon="3.74806">
        <ele>866</ele>
        <time>2024-12-08T02:26:57.620Z</time>
      </trkpt>
      <trkpt lat="45.88444" lon="3.74808">
        <ele>866</ele>
        <time>2024-12-08T02:26:58.620Z</time>
      </trkpt>
      <trkpt lat="45.88443" lon="3.74809">
        <ele>866</ele>
        <time>2024-12-08T02:26:59.619Z</time>
      </trkpt>
      <trkpt lat="45.88443" lon="3.74811">
        <ele>867</ele>
        <time>2024-12-08T02:27:00.619Z</time>
      </trkpt>
      <trkpt lat="45.88442" lon="3.74813">
        <ele>867</ele>
        <time>2024-12-08T02:27:01.619Z</time>
      </trkpt>
      <trkpt lat="45.88441" lon="3.74814">
        <ele>867</ele>
        <time>2024-12-08T02:27:02.619Z</time>
      </trkpt>
      <trkpt lat="45.8844" lon="3.74815">
        <ele>866</ele>
        <time>2024-12-08T02:27:03.619Z</time>
      </trkpt>
      <trkpt lat="45.88439" lon="3.74817">
        <ele>866</ele>
        <time>2024-12-08T02:27:04.620Z</time>
      </trkpt>
      <trkpt lat="45.88439" lon="3.74819">
        <ele>866</ele>
        <time>2024-12-08T02:27:05.620Z</time>
      </trkpt>
      <trkpt lat="45.88439" lon="3.7482">
        <ele>866</ele>
        <time>2024-12-08T02:27:06.620Z</time>
      </trkpt>
      <trkpt lat="45.88438" lon="3.74822">
        <ele>866</ele>
        <time>2024-12-08T02:27:07.619Z</time>
      </trkpt>
      <trkpt lat="45.88437" lon="3.74823">
        <ele>866</ele>
        <time>2024-12-08T02:27:08.619Z</time>
      </trkpt>
      <trkpt lat="45.88437" lon="3.74825">
        <ele>866</ele>
        <time>2024-12-08T02:27:09.619Z</time>
      </trkpt>
      <trkpt lat="45.88436" lon="3.74827">
        <ele>866</ele>
        <time>2024-12-08T02:27:10.620Z</time>
      </trkpt>
      <trkpt lat="45.88436" lon="3.74828">
        <ele>866</ele>
        <time>2024-12-08T02:27:11.619Z</time>
      </trkpt>
      <trkpt lat="45.88436" lon="3.7483">
        <ele>866</ele>
        <time>2024-12-08T02:27:12.619Z</time>
      </trkpt>
      <trkpt lat="45.88435" lon="3.74832">
        <ele>866</ele>
        <time>2024-12-08T02:27:13.620Z</time>
      </trkpt>
      <trkpt lat="45.88435" lon="3.74833">
        <ele>866</ele>
        <time>2024-12-08T02:27:14.620Z</time>
      </trkpt>
      <trkpt lat="45.88434" lon="3.74835">
        <ele>866</ele>
        <time>2024-12-08T02:27:15.620Z</time>
      </trkpt>
      <trkpt lat="45.88434" lon="3.74836">
        <ele>866</ele>
        <time>2024-12-08T02:27:16.619Z</time>
      </trkpt>
      <trkpt lat="45.88433" lon="3.74838">
        <ele>866</ele>
        <time>2024-12-08T02:27:17.619Z</time>
      </trkpt>
      <trkpt lat="45.88433" lon="3.74839">
        <ele>866</ele>
        <time>2024-12-08T02:27:18.620Z</time>
      </trkpt>
      <trkpt lat="45.88433" lon="3.74841">
        <ele>867</ele>
        <time>2024-12-08T02:27:19.619Z</time>
      </trkpt>
      <trkpt lat="45.88433" lon="3.74842">
        <ele>867</ele>
        <time>2024-12-08T02:27:20.619Z</time>
      </trkpt>
      <trkpt lat="45.88432" lon="3.74844">
        <ele>868</ele>
        <time>2024-12-08T02:27:21.620Z</time>
      </trkpt>
      <trkpt lat="45.88432" lon="3.74845">
        <ele>868</ele>
        <time>2024-12-08T02:27:22.620Z</time>
      </trkpt>
      <trkpt lat="45.88432" lon="3.74847">
        <ele>869</ele>
        <time>2024-12-08T02:27:23.620Z</time>
      </trkpt>
      <trkpt lat="45.88432" lon="3.74849">
        <ele>869</ele>
        <time>2024-12-08T02:27:24.620Z</time>
      </trkpt>
      <trkpt lat="45.88431" lon="3.7485">
        <ele>869</ele>
        <time>2024-12-08T02:27:25.620Z</time>
      </trkpt>
      <trkpt lat="45.88431" lon="3.74851">
        <ele>870</ele>
        <time>2024-12-08T02:27:26.619Z</time>
      </trkpt>
      <trkpt lat="45.8843" lon="3.74853">
        <ele>870</ele>
        <time>2024-12-08T02:27:27.619Z</time>
      </trkpt>
      <trkpt lat="45.88429" lon="3.74854">
        <ele>870</ele>
        <time>2024-12-08T02:27:28.620Z</time>
      </trkpt>
      <trkpt lat="45.88429" lon="3.74856">
        <ele>870</ele>
        <time>2024-12-08T02:27:29.619Z</time>
      </trkpt>
      <trkpt lat="45.88429" lon="3.74857">
        <ele>870</ele>
        <time>2024-12-08T02:27:30.620Z</time>
      </trkpt>
      <trkpt lat="45.88428" lon="3.74859">
        <ele>870</ele>
        <time>2024-12-08T02:27:31.620Z</time>
      </trkpt>
      <trkpt lat="45.88428" lon="3.74861">
        <ele>870</ele>
        <time>2024-12-08T02:27:32.620Z</time>
      </trkpt>
      <trkpt lat="45.88428" lon="3.74863">
        <ele>870</ele>
        <time>2024-12-08T02:27:33.619Z</time>
      </trkpt>
      <trkpt lat="45.88428" lon="3.74865">
        <ele>870</ele>
        <time>2024-12-08T02:27:34.619Z</time>
      </trkpt>
      <trkpt lat="45.88427" lon="3.74866">
        <ele>871</ele>
        <time>2024-12-08T02:27:35.619Z</time>
      </trkpt>
      <trkpt lat="45.88427" lon="3.74867">
        <ele>871</ele>
        <time>2024-12-08T02:27:36.619Z</time>
      </trkpt>
      <trkpt lat="45.88427" lon="3.74869">
        <ele>871</ele>
        <time>2024-12-08T02:27:37.620Z</time>
      </trkpt>
      <trkpt lat="45.88426" lon="3.7487">
        <ele>871</ele>
        <time>2024-12-08T02:27:38.619Z</time>
      </trkpt>
      <trkpt lat="45.88426" lon="3.74872">
        <ele>871</ele>
        <time>2024-12-08T02:27:39.620Z</time>
      </trkpt>
      <trkpt lat="45.88426" lon="3.74873">
        <ele>871</ele>
        <time>2024-12-08T02:27:40.619Z</time>
      </trkpt>
      <trkpt lat="45.88425" lon="3.74875">
        <ele>871</ele>
        <time>2024-12-08T02:27:41.619Z</time>
      </trkpt>
      <trkpt lat="45.88425" lon="3.74877">
        <ele>872</ele>
        <time>2024-12-08T02:27:42.620Z</time>
      </trkpt>
      <trkpt lat="45.88425" lon="3.74879">
        <ele>872</ele>
        <time>2024-12-08T02:27:43.620Z</time>
      </trkpt>
      <trkpt lat="45.88424" lon="3.7488">
        <ele>872</ele>
        <time>2024-12-08T02:27:44.619Z</time>
      </trkpt>
      <trkpt lat="45.88424" lon="3.74882">
        <ele>872</ele>
        <time>2024-12-08T02:27:45.619Z</time>
      </trkpt>
      <trkpt lat="45.88423" lon="3.74883">
        <ele>872</ele>
        <time>2024-12-08T02:27:46.620Z</time>
      </trkpt>
      <trkpt lat="45.88423" lon="3.74885">
        <ele>872</ele>
        <time>2024-12-08T02:27:47.619Z</time>
      </trkpt>
      <trkpt lat="45.88423" lon="3.74887">
        <ele>872</ele>
        <time>2024-12-08T02:27:48.620Z</time>
      </trkpt>
      <trkpt lat="45.88423" lon="3.74889">
        <ele>873</ele>
        <time>2024-12-08T02:27:49.620Z</time>
      </trkpt>
      <trkpt lat="45.88423" lon="3.74891">
        <ele>873</ele>
        <time>2024-12-08T02:27:50.619Z</time>
      </trkpt>
      <trkpt lat="45.88422" lon="3.74892">
        <ele>874</ele>
        <time>2024-12-08T02:27:51.619Z</time>
      </trkpt>
      <trkpt lat="45.88422" lon="3.74894">
        <ele>874</ele>
        <time>2024-12-08T02:27:52.620Z</time>
      </trkpt>
      <trkpt lat="45.88422" lon="3.74896">
        <ele>875</ele>
        <time>2024-12-08T02:27:53.619Z</time>
      </trkpt>
      <trkpt lat="45.88421" lon="3.74898">
        <ele>875</ele>
        <time>2024-12-08T02:27:54.620Z</time>
      </trkpt>
      <trkpt lat="45.88421" lon="3.74899">
        <ele>875</ele>
        <time>2024-12-08T02:27:55.620Z</time>
      </trkpt>
      <trkpt lat="45.8842" lon="3.749">
        <ele>875</ele>
        <time>2024-12-08T02:27:56.619Z</time>
      </trkpt>
      <trkpt lat="45.8842" lon="3.74902">
        <ele>875</ele>
        <time>2024-12-08T02:27:57.619Z</time>
      </trkpt>
      <trkpt lat="45.88419" lon="3.74904">
        <ele>875</ele>
        <time>2024-12-08T02:27:58.619Z</time>
      </trkpt>
      <trkpt lat="45.88419" lon="3.74905">
        <ele>875</ele>
        <time>2024-12-08T02:27:59.620Z</time>
      </trkpt>
      <trkpt lat="45.88419" lon="3.74907">
        <ele>876</ele>
        <time>2024-12-08T02:28:00.620Z</time>
      </trkpt>
      <trkpt lat="45.88419" lon="3.74908">
        <ele>876</ele>
        <time>2024-12-08T02:28:01.620Z</time>
      </trkpt>
      <trkpt lat="45.88419" lon="3.7491">
        <ele>877</ele>
        <time>2024-12-08T02:28:02.620Z</time>
      </trkpt>
      <trkpt lat="45.88419" lon="3.74912">
        <ele>877</ele>
        <time>2024-12-08T02:28:03.619Z</time>
      </trkpt>
      <trkpt lat="45.88419" lon="3.74914">
        <ele>878</ele>
        <time>2024-12-08T02:28:04.620Z</time>
      </trkpt>
      <trkpt lat="45.88419" lon="3.74916">
        <ele>878</ele>
        <time>2024-12-08T02:28:05.619Z</time>
      </trkpt>
      <trkpt lat="45.88419" lon="3.74918">
        <ele>878</ele>
        <time>2024-12-08T02:28:06.619Z</time>
      </trkpt>
      <trkpt lat="45.88419" lon="3.7492">
        <ele>878</ele>
        <time>2024-12-08T02:28:07.619Z</time>
      </trkpt>
      <trkpt lat="45.88419" lon="3.74922">
        <ele>878</ele>
        <time>2024-12-08T02:28:08.620Z</time>
      </trkpt>
      <trkpt lat="45.88419" lon="3.74924">
        <ele>878</ele>
        <time>2024-12-08T02:28:09.619Z</time>
      </trkpt>
      <trkpt lat="45.88418" lon="3.74925">
        <ele>878</ele>
        <time>2024-12-08T02:28:10.619Z</time>
      </trkpt>
      <trkpt lat="45.88418" lon="3.74927">
        <ele>878</ele>
        <time>2024-12-08T02:28:11.619Z</time>
      </trkpt>
      <trkpt lat="45.88418" lon="3.74929">
        <ele>878</ele>
        <time>2024-12-08T02:28:12.620Z</time>
      </trkpt>
      <trkpt lat="45.88417" lon="3.7493">
        <ele>878</ele>
        <time>2024-12-08T02:28:13.620Z</time>
      </trkpt>
      <trkpt lat="45.88417" lon="3.74931">
        <ele>877</ele>
        <time>2024-12-08T02:28:14.619Z</time>
      </trkpt>
      <trkpt lat="45.88417" lon="3.74933">
        <ele>877</ele>
        <time>2024-12-08T02:28:15.619Z</time>
      </trkpt>
      <trkpt lat="45.88417" lon="3.74934">
        <ele>876</ele>
        <time>2024-12-08T02:28:16.619Z</time>
      </trkpt>
      <trkpt lat="45.88417" lon="3.74936">
        <ele>876</ele>
        <time>2024-12-08T02:28:17.620Z</time>
      </trkpt>
      <trkpt lat="45.88417" lon="3.74937">
        <ele>876</ele>
        <time>2024-12-08T02:28:18.619Z</time>
      </trkpt>
      <trkpt lat="45.88417" lon="3.74939">
        <ele>876</ele>
        <time>2024-12-08T02:28:19.619Z</time>
      </trkpt>
      <trkpt lat="45.88417" lon="3.7494">
        <ele>876</ele>
        <time>2024-12-08T02:28:20.619Z</time>
      </trkpt>
      <trkpt lat="45.88416" lon="3.74941">
        <ele>876</ele>
        <time>2024-12-08T02:28:21.620Z</time>
      </trkpt>
      <trkpt lat="45.88417" lon="3.74943">
        <ele>877</ele>
        <time>2024-12-08T02:28:22.619Z</time>
      </trkpt>
      <trkpt lat="45.88417" lon="3.74945">
        <ele>877</ele>
        <time>2024-12-08T02:28:23.620Z</time>
      </trkpt>
      <trkpt lat="45.88417" lon="3.74946">
        <ele>877</ele>
        <time>2024-12-08T02:28:24.620Z</time>
      </trkpt>
      <trkpt lat="45.88417" lon="3.74948">
        <ele>877</ele>
        <time>2024-12-08T02:28:25.619Z</time>
      </trkpt>
      <trkpt lat="45.88417" lon="3.74949">
        <ele>877</ele>
        <time>2024-12-08T02:28:26.620Z</time>
      </trkpt>
      <trkpt lat="45.88417" lon="3.7495">
        <ele>878</ele>
        <time>2024-12-08T02:28:27.619Z</time>
      </trkpt>
      <trkpt lat="45.88417" lon="3.74952">
        <ele>878</ele>
        <time>2024-12-08T02:28:28.619Z</time>
      </trkpt>
      <trkpt lat="45.88417" lon="3.74953">
        <ele>878</ele>
        <time>2024-12-08T02:28:29.619Z</time>
      </trkpt>
      <trkpt lat="45.88417" lon="3.74955">
        <ele>878</ele>
        <time>2024-12-08T02:28:30.619Z</time>
      </trkpt>
      <trkpt lat="45.88417" lon="3.74956">
        <ele>878</ele>
        <time>2024-12-08T02:28:31.619Z</time>
      </trkpt>
      <trkpt lat="45.88417" lon="3.74958">
        <ele>878</ele>
        <time>2024-12-08T02:28:32.620Z</time>
      </trkpt>
      <trkpt lat="45.88417" lon="3.7496">
        <ele>878</ele>
        <time>2024-12-08T02:28:33.620Z</time>
      </trkpt>
      <trkpt lat="45.88417" lon="3.74961">
        <ele>878</ele>
        <time>2024-12-08T02:28:34.619Z</time>
      </trkpt>
      <trkpt lat="45.88417" lon="3.74963">
        <ele>879</ele>
        <time>2024-12-08T02:28:35.620Z</time>
      </trkpt>
      <trkpt lat="45.88417" lon="3.74965">
        <ele>879</ele>
        <time>2024-12-08T02:28:36.619Z</time>
      </trkpt>
      <trkpt lat="45.88417" lon="3.74967">
        <ele>879</ele>
        <time>2024-12-08T02:28:37.619Z</time>
      </trkpt>
      <trkpt lat="45.88417" lon="3.74969">
        <ele>879</ele>
        <time>2024-12-08T02:28:38.619Z</time>
      </trkpt>
      <trkpt lat="45.88417" lon="3.7497">
        <ele>880</ele>
        <time>2024-12-08T02:28:39.620Z</time>
      </trkpt>
      <trkpt lat="45.88418" lon="3.74972">
        <ele>880</ele>
        <time>2024-12-08T02:28:40.620Z</time>
      </trkpt>
      <trkpt lat="45.88418" lon="3.74973">
        <ele>880</ele>
        <time>2024-12-08T02:28:41.619Z</time>
      </trkpt>
      <trkpt lat="45.88418" lon="3.74975">
        <ele>880</ele>
        <time>2024-12-08T02:28:42.620Z</time>
      </trkpt>
      <trkpt lat="45.88418" lon="3.74977">
        <ele>880</ele>
        <time>2024-12-08T02:28:43.619Z</time>
      </trkpt>
      <trkpt lat="45.88418" lon="3.74979">
        <ele>881</ele>
        <time>2024-12-08T02:28:44.620Z</time>
      </trkpt>
      <trkpt lat="45.88418" lon="3.7498">
        <ele>881</ele>
        <time>2024-12-08T02:28:45.620Z</time>
      </trkpt>
      <trkpt lat="45.88418" lon="3.74982">
        <ele>881</ele>
        <time>2024-12-08T02:28:46.619Z</time>
      </trkpt>
      <trkpt lat="45.88419" lon="3.74983">
        <ele>882</ele>
        <time>2024-12-08T02:28:47.619Z</time>
      </trkpt>
      <trkpt lat="45.8842" lon="3.74985">
        <ele>882</ele>
        <time>2024-12-08T02:28:48.620Z</time>
      </trkpt>
      <trkpt lat="45.8842" lon="3.74987">
        <ele>883</ele>
        <time>2024-12-08T02:28:49.620Z</time>
      </trkpt>
      <trkpt lat="45.8842" lon="3.74989">
        <ele>883</ele>
        <time>2024-12-08T02:28:50.620Z</time>
      </trkpt>
      <trkpt lat="45.88421" lon="3.7499">
        <ele>883</ele>
        <time>2024-12-08T02:28:51.620Z</time>
      </trkpt>
      <trkpt lat="45.88421" lon="3.74992">
        <ele>884</ele>
        <time>2024-12-08T02:28:52.620Z</time>
      </trkpt>
      <trkpt lat="45.88421" lon="3.74994">
        <ele>884</ele>
        <time>2024-12-08T02:28:53.619Z</time>
      </trkpt>
      <trkpt lat="45.88422" lon="3.74995">
        <ele>884</ele>
        <time>2024-12-08T02:28:54.619Z</time>
      </trkpt>
      <trkpt lat="45.88422" lon="3.74997">
        <ele>885</ele>
        <time>2024-12-08T02:28:55.619Z</time>
      </trkpt>
      <trkpt lat="45.88422" lon="3.74999">
        <ele>885</ele>
        <time>2024-12-08T02:28:56.620Z</time>
      </trkpt>
      <trkpt lat="45.88422" lon="3.75">
        <ele>885</ele>
        <time>2024-12-08T02:28:57.619Z</time>
      </trkpt>
      <trkpt lat="45.88422" lon="3.75002">
        <ele>885</ele>
        <time>2024-12-08T02:28:58.620Z</time>
      </trkpt>
      <trkpt lat="45.88423" lon="3.75003">
        <ele>885</ele>
        <time>2024-12-08T02:28:59.619Z</time>
      </trkpt>
      <trkpt lat="45.88423" lon="3.75005">
        <ele>885</ele>
        <time>2024-12-08T02:29:00.619Z</time>
      </trkpt>
      <trkpt lat="45.88424" lon="3.75006">
        <ele>885</ele>
        <time>2024-12-08T02:29:01.619Z</time>
      </trkpt>
      <trkpt lat="45.88424" lon="3.75007">
        <ele>885</ele>
        <time>2024-12-08T02:29:02.619Z</time>
      </trkpt>
      <trkpt lat="45.88424" lon="3.75009">
        <ele>885</ele>
        <time>2024-12-08T02:29:03.619Z</time>
      </trkpt>
      <trkpt lat="45.88424" lon="3.7501">
        <ele>885</ele>
        <time>2024-12-08T02:29:04.619Z</time>
      </trkpt>
      <trkpt lat="45.88424" lon="3.75012">
        <ele>885</ele>
        <time>2024-12-08T02:29:05.620Z</time>
      </trkpt>
      <trkpt lat="45.88425" lon="3.75014">
        <ele>885</ele>
        <time>2024-12-08T02:29:06.620Z</time>
      </trkpt>
      <trkpt lat="45.88425" lon="3.75015">
        <ele>885</ele>
        <time>2024-12-08T02:29:07.620Z</time>
      </trkpt>
      <trkpt lat="45.88425" lon="3.75016">
        <ele>885</ele>
        <time>2024-12-08T02:29:08.620Z</time>
      </trkpt>
      <trkpt lat="45.88425" lon="3.75018">
        <ele>885</ele>
        <time>2024-12-08T02:29:09.619Z</time>
      </trkpt>
      <trkpt lat="45.88425" lon="3.75019">
        <ele>885</ele>
        <time>2024-12-08T02:29:10.619Z</time>
      </trkpt>
      <trkpt lat="45.88425" lon="3.7502">
        <ele>885</ele>
        <time>2024-12-08T02:29:11.619Z</time>
      </trkpt>
      <trkpt lat="45.88425" lon="3.75022">
        <ele>885</ele>
        <time>2024-12-08T02:29:12.619Z</time>
      </trkpt>
      <trkpt lat="45.88425" lon="3.75023">
        <ele>885</ele>
        <time>2024-12-08T02:29:13.619Z</time>
      </trkpt>
      <trkpt lat="45.88425" lon="3.75025">
        <ele>885</ele>
        <time>2024-12-08T02:29:14.620Z</time>
      </trkpt>
      <trkpt lat="45.88426" lon="3.75026">
        <ele>885</ele>
        <time>2024-12-08T02:29:15.620Z</time>
      </trkpt>
      <trkpt lat="45.88426" lon="3.75028">
        <ele>885</ele>
        <time>2024-12-08T02:29:16.620Z</time>
      </trkpt>
      <trkpt lat="45.88426" lon="3.7503">
        <ele>886</ele>
        <time>2024-12-08T02:29:17.620Z</time>
      </trkpt>
      <trkpt lat="45.88426" lon="3.75031">
        <ele>886</ele>
        <time>2024-12-08T02:29:18.619Z</time>
      </trkpt>
      <trkpt lat="45.88427" lon="3.75033">
        <ele>886</ele>
        <time>2024-12-08T02:29:19.620Z</time>
      </trkpt>
      <trkpt lat="45.88427" lon="3.75035">
        <ele>886</ele>
        <time>2024-12-08T02:29:20.620Z</time>
      </trkpt>
      <trkpt lat="45.88427" lon="3.75036">
        <ele>886</ele>
        <time>2024-12-08T02:29:21.620Z</time>
      </trkpt>
      <trkpt lat="45.88427" lon="3.75038">
        <ele>886</ele>
        <time>2024-12-08T02:29:22.619Z</time>
      </trkpt>
      <trkpt lat="45.88427" lon="3.75039">
        <ele>886</ele>
        <time>2024-12-08T02:29:23.619Z</time>
      </trkpt>
      <trkpt lat="45.88428" lon="3.7504">
        <ele>886</ele>
        <time>2024-12-08T02:29:24.620Z</time>
      </trkpt>
      <trkpt lat="45.88428" lon="3.75042">
        <ele>886</ele>
        <time>2024-12-08T02:29:25.620Z</time>
      </trkpt>
      <trkpt lat="45.88428" lon="3.75044">
        <ele>887</ele>
        <time>2024-12-08T02:29:26.619Z</time>
      </trkpt>
      <trkpt lat="45.88428" lon="3.75045">
        <ele>887</ele>
        <time>2024-12-08T02:29:27.619Z</time>
      </trkpt>
      <trkpt lat="45.88429" lon="3.75047">
        <ele>888</ele>
        <time>2024-12-08T02:29:28.619Z</time>
      </trkpt>
      <trkpt lat="45.88429" lon="3.75048">
        <ele>888</ele>
        <time>2024-12-08T02:29:29.620Z</time>
      </trkpt>
      <trkpt lat="45.88429" lon="3.75049">
        <ele>888</ele>
        <time>2024-12-08T02:29:30.620Z</time>
      </trkpt>
      <trkpt lat="45.88429" lon="3.75051">
        <ele>888</ele>
        <time>2024-12-08T02:29:31.619Z</time>
      </trkpt>
      <trkpt lat="45.88429" lon="3.75052">
        <ele>888</ele>
        <time>2024-12-08T02:29:32.620Z</time>
      </trkpt>
      <trkpt lat="45.88429" lon="3.75054">
        <ele>888</ele>
        <time>2024-12-08T02:29:33.620Z</time>
      </trkpt>
      <trkpt lat="45.8843" lon="3.75055">
        <ele>888</ele>
        <time>2024-12-08T02:29:34.619Z</time>
      </trkpt>
      <trkpt lat="45.8843" lon="3.75057">
        <ele>888</ele>
        <time>2024-12-08T02:29:35.619Z</time>
      </trkpt>
      <trkpt lat="45.8843" lon="3.75058">
        <ele>888</ele>
        <time>2024-12-08T02:29:36.619Z</time>
      </trkpt>
      <trkpt lat="45.8843" lon="3.75059">
        <ele>888</ele>
        <time>2024-12-08T02:29:37.619Z</time>
      </trkpt>
      <trkpt lat="45.8843" lon="3.75061">
        <ele>889</ele>
        <time>2024-12-08T02:29:38.619Z</time>
      </trkpt>
      <trkpt lat="45.88431" lon="3.75062">
        <ele>889</ele>
        <time>2024-12-08T02:29:39.620Z</time>
      </trkpt>
      <trkpt lat="45.88431" lon="3.75063">
        <ele>889</ele>
        <time>2024-12-08T02:29:40.619Z</time>
      </trkpt>
      <trkpt lat="45.88431" lon="3.75064">
        <ele>889</ele>
        <time>2024-12-08T02:29:41.619Z</time>
      </trkpt>
      <trkpt lat="45.88431" lon="3.75066">
        <ele>889</ele>
        <time>2024-12-08T02:29:42.620Z</time>
      </trkpt>
      <trkpt lat="45.88431" lon="3.75068">
        <ele>890</ele>
        <time>2024-12-08T02:29:43.620Z</time>
      </trkpt>
      <trkpt lat="45.88432" lon="3.75069">
        <ele>890</ele>
        <time>2024-12-08T02:29:44.619Z</time>
      </trkpt>
      <trkpt lat="45.88432" lon="3.7507">
        <ele>890</ele>
        <time>2024-12-08T02:29:45.619Z</time>
      </trkpt>
      <trkpt lat="45.88432" lon="3.75072">
        <ele>890</ele>
        <time>2024-12-08T02:29:46.619Z</time>
      </trkpt>
      <trkpt lat="45.88432" lon="3.75073">
        <ele>890</ele>
        <time>2024-12-08T02:29:47.619Z</time>
      </trkpt>
      <trkpt lat="45.88433" lon="3.75075">
        <ele>890</ele>
        <time>2024-12-08T02:29:48.619Z</time>
      </trkpt>
      <trkpt lat="45.88433" lon="3.75076">
        <ele>890</ele>
        <time>2024-12-08T02:29:49.619Z</time>
      </trkpt>
      <trkpt lat="45.88433" lon="3.75077">
        <ele>890</ele>
        <time>2024-12-08T02:29:50.619Z</time>
      </trkpt>
      <trkpt lat="45.88433" lon="3.75078">
        <ele>890</ele>
        <time>2024-12-08T02:29:51.620Z</time>
      </trkpt>
      <trkpt lat="45.88433" lon="3.7508">
        <ele>890</ele>
        <time>2024-12-08T02:29:52.620Z</time>
      </trkpt>
      <trkpt lat="45.88433" lon="3.75081">
        <ele>890</ele>
        <time>2024-12-08T02:29:53.619Z</time>
      </trkpt>
      <trkpt lat="45.88433" lon="3.75082">
        <ele>890</ele>
        <time>2024-12-08T02:29:54.619Z</time>
      </trkpt>
      <trkpt lat="45.88434" lon="3.75084">
        <ele>890</ele>
        <time>2024-12-08T02:29:55.619Z</time>
      </trkpt>
      <trkpt lat="45.88434" lon="3.75086">
        <ele>890</ele>
        <time>2024-12-08T02:29:56.619Z</time>
      </trkpt>
      <trkpt lat="45.88434" lon="3.75087">
        <ele>890</ele>
        <time>2024-12-08T02:29:57.619Z</time>
      </trkpt>
      <trkpt lat="45.88434" lon="3.75088">
        <ele>890</ele>
        <time>2024-12-08T02:29:58.620Z</time>
      </trkpt>
      <trkpt lat="45.88433" lon="3.7509">
        <ele>890</ele>
        <time>2024-12-08T02:29:59.619Z</time>
      </trkpt>
      <trkpt lat="45.88433" lon="3.75091">
        <ele>889</ele>
        <time>2024-12-08T02:30:00.620Z</time>
      </trkpt>
      <trkpt lat="45.88433" lon="3.75092">
        <ele>889</ele>
        <time>2024-12-08T02:30:01.620Z</time>
      </trkpt>
      <trkpt lat="45.88433" lon="3.75094">
        <ele>889</ele>
        <time>2024-12-08T02:30:02.619Z</time>
      </trkpt>
      <trkpt lat="45.88434" lon="3.75095">
        <ele>890</ele>
        <time>2024-12-08T02:30:03.620Z</time>
      </trkpt>
      <trkpt lat="45.88434" lon="3.75097">
        <ele>890</ele>
        <time>2024-12-08T02:30:04.620Z</time>
      </trkpt>
      <trkpt lat="45.88434" lon="3.75098">
        <ele>890</ele>
        <time>2024-12-08T02:30:05.620Z</time>
      </trkpt>
      <trkpt lat="45.88435" lon="3.75099">
        <ele>890</ele>
        <time>2024-12-08T02:30:06.620Z</time>
      </trkpt>
      <trkpt lat="45.88435" lon="3.75101">
        <ele>890</ele>
        <time>2024-12-08T02:30:07.620Z</time>
      </trkpt>
      <trkpt lat="45.88435" lon="3.75103">
        <ele>891</ele>
        <time>2024-12-08T02:30:08.619Z</time>
      </trkpt>
      <trkpt lat="45.88436" lon="3.75105">
        <ele>891</ele>
        <time>2024-12-08T02:30:09.619Z</time>
      </trkpt>
      <trkpt lat="45.88438" lon="3.75107">
        <ele>892</ele>
        <time>2024-12-08T02:30:10.620Z</time>
      </trkpt>
      <trkpt lat="45.88438" lon="3.75109">
        <ele>892</ele>
        <time>2024-12-08T02:30:11.619Z</time>
      </trkpt>
      <trkpt lat="45.88439" lon="3.75111">
        <ele>893</ele>
        <time>2024-12-08T02:30:12.620Z</time>
      </trkpt>
      <trkpt lat="45.88439" lon="3.75112">
        <ele>893</ele>
        <time>2024-12-08T02:30:13.620Z</time>
      </trkpt>
      <trkpt lat="45.8844" lon="3.75113">
        <ele>894</ele>
        <time>2024-12-08T02:30:14.619Z</time>
      </trkpt>
      <trkpt lat="45.8844" lon="3.75115">
        <ele>894</ele>
        <time>2024-12-08T02:30:15.620Z</time>
      </trkpt>
      <trkpt lat="45.88439" lon="3.75116">
        <ele>894</ele>
        <time>2024-12-08T02:30:16.619Z</time>
      </trkpt>
      <trkpt lat="45.88439" lon="3.75117">
        <ele>895</ele>
        <time>2024-12-08T02:30:17.620Z</time>
      </trkpt>
      <trkpt lat="45.8844" lon="3.75118">
        <ele>895</ele>
        <time>2024-12-08T02:30:18.619Z</time>
      </trkpt>
      <trkpt lat="45.8844" lon="3.7512">
        <ele>896</ele>
        <time>2024-12-08T02:30:19.620Z</time>
      </trkpt>
      <trkpt lat="45.8844" lon="3.75121">
        <ele>896</ele>
        <time>2024-12-08T02:30:20.620Z</time>
      </trkpt>
      <trkpt lat="45.8844" lon="3.75123">
        <ele>897</ele>
        <time>2024-12-08T02:30:21.620Z</time>
      </trkpt>
      <trkpt lat="45.8844" lon="3.75124">
        <ele>897</ele>
        <time>2024-12-08T02:30:22.620Z</time>
      </trkpt>
      <trkpt lat="45.88441" lon="3.75125">
        <ele>897</ele>
        <time>2024-12-08T02:30:23.619Z</time>
      </trkpt>
      <trkpt lat="45.88441" lon="3.75127">
        <ele>898</ele>
        <time>2024-12-08T02:30:24.620Z</time>
      </trkpt>
      <trkpt lat="45.88441" lon="3.75129">
        <ele>898</ele>
        <time>2024-12-08T02:30:25.619Z</time>
      </trkpt>
      <trkpt lat="45.88441" lon="3.75131">
        <ele>898</ele>
        <time>2024-12-08T02:30:26.619Z</time>
      </trkpt>
      <trkpt lat="45.88442" lon="3.75133">
        <ele>898</ele>
        <time>2024-12-08T02:30:27.620Z</time>
      </trkpt>
      <trkpt lat="45.88442" lon="3.75134">
        <ele>898</ele>
        <time>2024-12-08T02:30:28.620Z</time>
      </trkpt>
      <trkpt lat="45.88442" lon="3.75136">
        <ele>898</ele>
        <time>2024-12-08T02:30:29.619Z</time>
      </trkpt>
      <trkpt lat="45.88442" lon="3.75137">
        <ele>899</ele>
        <time>2024-12-08T02:30:30.619Z</time>
      </trkpt>
      <trkpt lat="45.88442" lon="3.75138">
        <ele>899</ele>
        <time>2024-12-08T02:30:31.619Z</time>
      </trkpt>
      <trkpt lat="45.88442" lon="3.7514">
        <ele>900</ele>
        <time>2024-12-08T02:30:32.620Z</time>
      </trkpt>
      <trkpt lat="45.88442" lon="3.75141">
        <ele>900</ele>
        <time>2024-12-08T02:30:33.619Z</time>
      </trkpt>
      <trkpt lat="45.88443" lon="3.75143">
        <ele>900</ele>
        <time>2024-12-08T02:30:34.620Z</time>
      </trkpt>
      <trkpt lat="45.88443" lon="3.75144">
        <ele>900</ele>
        <time>2024-12-08T02:30:35.619Z</time>
      </trkpt>
      <trkpt lat="45.88443" lon="3.75146">
        <ele>900</ele>
        <time>2024-12-08T02:30:36.619Z</time>
      </trkpt>
      <trkpt lat="45.88444" lon="3.75147">
        <ele>900</ele>
        <time>2024-12-08T02:30:37.619Z</time>
      </trkpt>
      <trkpt lat="45.88444" lon="3.75149">
        <ele>900</ele>
        <time>2024-12-08T02:30:38.619Z</time>
      </trkpt>
      <trkpt lat="45.88444" lon="3.7515">
        <ele>900</ele>
        <time>2024-12-08T02:30:39.620Z</time>
      </trkpt>
      <trkpt lat="45.88445" lon="3.75151">
        <ele>900</ele>
        <time>2024-12-08T02:30:40.619Z</time>
      </trkpt>
      <trkpt lat="45.88445" lon="3.75153">
        <ele>900</ele>
        <time>2024-12-08T02:30:41.620Z</time>
      </trkpt>
      <trkpt lat="45.88446" lon="3.75154">
        <ele>901</ele>
        <time>2024-12-08T02:30:42.620Z</time>
      </trkpt>
      <trkpt lat="45.88446" lon="3.75156">
        <ele>901</ele>
        <time>2024-12-08T02:30:43.620Z</time>
      </trkpt>
      <trkpt lat="45.88446" lon="3.75158">
        <ele>901</ele>
        <time>2024-12-08T02:30:44.620Z</time>
      </trkpt>
      <trkpt lat="45.88447" lon="3.75159">
        <ele>901</ele>
        <time>2024-12-08T02:30:45.619Z</time>
      </trkpt>
      <trkpt lat="45.88448" lon="3.75161">
        <ele>902</ele>
        <time>2024-12-08T02:30:46.619Z</time>
      </trkpt>
      <trkpt lat="45.88448" lon="3.75163">
        <ele>902</ele>
        <time>2024-12-08T02:30:47.620Z</time>
      </trkpt>
      <trkpt lat="45.88448" lon="3.75164">
        <ele>902</ele>
        <time>2024-12-08T02:30:48.619Z</time>
      </trkpt>
      <trkpt lat="45.88449" lon="3.75165">
        <ele>903</ele>
        <time>2024-12-08T02:30:49.620Z</time>
      </trkpt>
      <trkpt lat="45.88449" lon="3.75167">
        <ele>903</ele>
        <time>2024-12-08T02:30:50.619Z</time>
      </trkpt>
      <trkpt lat="45.8845" lon="3.75168">
        <ele>903</ele>
        <time>2024-12-08T02:30:51.619Z</time>
      </trkpt>
      <trkpt lat="45.8845" lon="3.7517">
        <ele>903</ele>
        <time>2024-12-08T02:30:52.619Z</time>
      </trkpt>
      <trkpt lat="45.8845" lon="3.75171">
        <ele>903</ele>
        <time>2024-12-08T02:30:53.619Z</time>
      </trkpt>
      <trkpt lat="45.8845" lon="3.75173">
        <ele>904</ele>
        <time>2024-12-08T02:30:54.619Z</time>
      </trkpt>
      <trkpt lat="45.88451" lon="3.75174">
        <ele>904</ele>
        <time>2024-12-08T02:30:55.619Z</time>
      </trkpt>
      <trkpt lat="45.88451" lon="3.75176">
        <ele>904</ele>
        <time>2024-12-08T02:30:56.619Z</time>
      </trkpt>
      <trkpt lat="45.88452" lon="3.75177">
        <ele>904</ele>
        <time>2024-12-08T02:30:57.619Z</time>
      </trkpt>
      <trkpt lat="45.88452" lon="3.75179">
        <ele>904</ele>
        <time>2024-12-08T02:30:58.620Z</time>
      </trkpt>
      <trkpt lat="45.88453" lon="3.7518">
        <ele>904</ele>
        <time>2024-12-08T02:30:59.619Z</time>
      </trkpt>
      <trkpt lat="45.88453" lon="3.75182">
        <ele>904</ele>
        <time>2024-12-08T02:31:00.620Z</time>
      </trkpt>
      <trkpt lat="45.88454" lon="3.75183">
        <ele>904</ele>
        <time>2024-12-08T02:31:01.619Z</time>
      </trkpt>
      <trkpt lat="45.88455" lon="3.75184">
        <ele>903</ele>
        <time>2024-12-08T02:31:02.619Z</time>
      </trkpt>
      <trkpt lat="45.88455" lon="3.75186">
        <ele>904</ele>
        <time>2024-12-08T02:31:03.619Z</time>
      </trkpt>
      <trkpt lat="45.88456" lon="3.75188">
        <ele>904</ele>
        <time>2024-12-08T02:31:04.619Z</time>
      </trkpt>
      <trkpt lat="45.88456" lon="3.75189">
        <ele>904</ele>
        <time>2024-12-08T02:31:05.619Z</time>
      </trkpt>
      <trkpt lat="45.88457" lon="3.7519">
        <ele>904</ele>
        <time>2024-12-08T02:31:06.619Z</time>
      </trkpt>
      <trkpt lat="45.88458" lon="3.75192">
        <ele>904</ele>
        <time>2024-12-08T02:31:07.620Z</time>
      </trkpt>
      <trkpt lat="45.88458" lon="3.75193">
        <ele>904</ele>
        <time>2024-12-08T02:31:08.619Z</time>
      </trkpt>
      <trkpt lat="45.88459" lon="3.75194">
        <ele>904</ele>
        <time>2024-12-08T02:31:09.620Z</time>
      </trkpt>
      <trkpt lat="45.88459" lon="3.75195">
        <ele>904</ele>
        <time>2024-12-08T02:31:10.619Z</time>
      </trkpt>
      <trkpt lat="45.8846" lon="3.75196">
        <ele>905</ele>
        <time>2024-12-08T02:31:11.620Z</time>
      </trkpt>
      <trkpt lat="45.88461" lon="3.75197">
        <ele>905</ele>
        <time>2024-12-08T02:31:12.619Z</time>
      </trkpt>
      <trkpt lat="45.88461" lon="3.75199">
        <ele>905</ele>
        <time>2024-12-08T02:31:13.619Z</time>
      </trkpt>
      <trkpt lat="45.88462" lon="3.752">
        <ele>905</ele>
        <time>2024-12-08T02:31:14.619Z</time>
      </trkpt>
      <trkpt lat="45.88462" lon="3.75201">
        <ele>905</ele>
        <time>2024-12-08T02:31:15.619Z</time>
      </trkpt>
      <trkpt lat="45.88463" lon="3.75203">
        <ele>906</ele>
        <time>2024-12-08T02:31:16.620Z</time>
      </trkpt>
      <trkpt lat="45.88464" lon="3.75204">
        <ele>906</ele>
        <time>2024-12-08T02:31:17.620Z</time>
      </trkpt>
      <trkpt lat="45.88464" lon="3.75205">
        <ele>906</ele>
        <time>2024-12-08T02:31:18.619Z</time>
      </trkpt>
      <trkpt lat="45.88465" lon="3.75207">
        <ele>907</ele>
        <time>2024-12-08T02:31:19.619Z</time>
      </trkpt>
      <trkpt lat="45.88466" lon="3.75208">
        <ele>907</ele>
        <time>2024-12-08T02:31:20.620Z</time>
      </trkpt>
      <trkpt lat="45.88467" lon="3.75209">
        <ele>908</ele>
        <time>2024-12-08T02:31:21.619Z</time>
      </trkpt>
      <trkpt lat="45.88468" lon="3.7521">
        <ele>908</ele>
        <time>2024-12-08T02:31:22.620Z</time>
      </trkpt>
      <trkpt lat="45.88469" lon="3.75211">
        <ele>908</ele>
        <time>2024-12-08T02:31:23.620Z</time>
      </trkpt>
      <trkpt lat="45.88469" lon="3.75212">
        <ele>908</ele>
        <time>2024-12-08T02:31:24.619Z</time>
      </trkpt>
      <trkpt lat="45.88471" lon="3.75214">
        <ele>908</ele>
        <time>2024-12-08T02:31:25.619Z</time>
      </trkpt>
      <trkpt lat="45.88471" lon="3.75215">
        <ele>909</ele>
        <time>2024-12-08T02:31:26.619Z</time>
      </trkpt>
      <trkpt lat="45.88472" lon="3.75217">
        <ele>909</ele>
        <time>2024-12-08T02:31:27.619Z</time>
      </trkpt>
      <trkpt lat="45.88473" lon="3.75218">
        <ele>909</ele>
        <time>2024-12-08T02:31:28.619Z</time>
      </trkpt>
      <trkpt lat="45.88473" lon="3.75219">
        <ele>910</ele>
        <time>2024-12-08T02:31:29.619Z</time>
      </trkpt>
      <trkpt lat="45.88474" lon="3.75219">
        <ele>910</ele>
        <time>2024-12-08T02:31:30.620Z</time>
      </trkpt>
      <trkpt lat="45.88474" lon="3.7522">
        <ele>910</ele>
        <time>2024-12-08T02:31:31.619Z</time>
      </trkpt>
      <trkpt lat="45.88475" lon="3.75221">
        <ele>910</ele>
        <time>2024-12-08T02:31:32.620Z</time>
      </trkpt>
      <trkpt lat="45.88476" lon="3.75221">
        <ele>911</ele>
        <time>2024-12-08T02:31:33.619Z</time>
      </trkpt>
      <trkpt lat="45.88477" lon="3.75223">
        <ele>911</ele>
        <time>2024-12-08T02:31:34.620Z</time>
      </trkpt>
      <trkpt lat="45.88478" lon="3.75224">
        <ele>912</ele>
        <time>2024-12-08T02:31:35.619Z</time>
      </trkpt>
      <trkpt lat="45.88479" lon="3.75225">
        <ele>912</ele>
        <time>2024-12-08T02:31:36.620Z</time>
      </trkpt>
      <trkpt lat="45.8848" lon="3.75225">
        <ele>912</ele>
        <time>2024-12-08T02:31:37.620Z</time>
      </trkpt>
      <trkpt lat="45.88481" lon="3.75226">
        <ele>912</ele>
        <time>2024-12-08T02:31:38.619Z</time>
      </trkpt>
      <trkpt lat="45.88482" lon="3.75227">
        <ele>913</ele>
        <time>2024-12-08T02:31:39.620Z</time>
      </trkpt>
      <trkpt lat="45.88483" lon="3.75229">
        <ele>913</ele>
        <time>2024-12-08T02:31:40.620Z</time>
      </trkpt>
      <trkpt lat="45.88484" lon="3.7523">
        <ele>914</ele>
        <time>2024-12-08T02:31:41.620Z</time>
      </trkpt>
      <trkpt lat="45.88484" lon="3.75231">
        <ele>914</ele>
        <time>2024-12-08T02:31:42.619Z</time>
      </trkpt>
      <trkpt lat="45.88486" lon="3.75233">
        <ele>915</ele>
        <time>2024-12-08T02:31:43.619Z</time>
      </trkpt>
      <trkpt lat="45.88487" lon="3.75234">
        <ele>915</ele>
        <time>2024-12-08T02:31:44.620Z</time>
      </trkpt>
      <trkpt lat="45.88488" lon="3.75235">
        <ele>916</ele>
        <time>2024-12-08T02:31:45.619Z</time>
      </trkpt>
      <trkpt lat="45.88489" lon="3.75236">
        <ele>916</ele>
        <time>2024-12-08T02:31:46.619Z</time>
      </trkpt>
      <trkpt lat="45.8849" lon="3.75237">
        <ele>916</ele>
        <time>2024-12-08T02:31:47.620Z</time>
      </trkpt>
      <trkpt lat="45.88491" lon="3.75238">
        <ele>916</ele>
        <time>2024-12-08T02:31:48.619Z</time>
      </trkpt>
      <trkpt lat="45.88492" lon="3.75239">
        <ele>916</ele>
        <time>2024-12-08T02:31:49.619Z</time>
      </trkpt>
      <trkpt lat="45.88493" lon="3.7524">
        <ele>916</ele>
        <time>2024-12-08T02:31:50.620Z</time>
      </trkpt>
      <trkpt lat="45.88494" lon="3.75242">
        <ele>916</ele>
        <time>2024-12-08T02:31:51.620Z</time>
      </trkpt>
      <trkpt lat="45.88495" lon="3.75243">
        <ele>916</ele>
        <time>2024-12-08T02:31:52.620Z</time>
      </trkpt>
      <trkpt lat="45.88496" lon="3.75244">
        <ele>916</ele>
        <time>2024-12-08T02:31:53.619Z</time>
      </trkpt>
      <trkpt lat="45.88497" lon="3.75244">
        <ele>917</ele>
        <time>2024-12-08T02:31:54.619Z</time>
      </trkpt>
      <trkpt lat="45.88497" lon="3.75246">
        <ele>917</ele>
        <time>2024-12-08T02:31:55.619Z</time>
      </trkpt>
      <trkpt lat="45.88498" lon="3.75247">
        <ele>917</ele>
        <time>2024-12-08T02:31:56.620Z</time>
      </trkpt>
      <trkpt lat="45.88499" lon="3.75248">
        <ele>918</ele>
        <time>2024-12-08T02:31:57.620Z</time>
      </trkpt>
      <trkpt lat="45.885" lon="3.7525">
        <ele>918</ele>
        <time>2024-12-08T02:31:58.619Z</time>
      </trkpt>
      <trkpt lat="45.88501" lon="3.75251">
        <ele>919</ele>
        <time>2024-12-08T02:31:59.620Z</time>
      </trkpt>
      <trkpt lat="45.88502" lon="3.75253">
        <ele>919</ele>
        <time>2024-12-08T02:32:00.619Z</time>
      </trkpt>
      <trkpt lat="45.88503" lon="3.75255">
        <ele>919</ele>
        <time>2024-12-08T02:32:01.619Z</time>
      </trkpt>
      <trkpt lat="45.88504" lon="3.75256">
        <ele>919</ele>
        <time>2024-12-08T02:32:02.620Z</time>
      </trkpt>
      <trkpt lat="45.88505" lon="3.75257">
        <ele>919</ele>
        <time>2024-12-08T02:32:03.620Z</time>
      </trkpt>
      <trkpt lat="45.88506" lon="3.75258">
        <ele>919</ele>
        <time>2024-12-08T02:32:04.620Z</time>
      </trkpt>
      <trkpt lat="45.88507" lon="3.75258">
        <ele>919</ele>
        <time>2024-12-08T02:32:05.619Z</time>
      </trkpt>
      <trkpt lat="45.88508" lon="3.7526">
        <ele>920</ele>
        <time>2024-12-08T02:32:06.620Z</time>
      </trkpt>
      <trkpt lat="45.88508" lon="3.75262">
        <ele>920</ele>
        <time>2024-12-08T02:32:07.620Z</time>
      </trkpt>
      <trkpt lat="45.88508" lon="3.75263">
        <ele>920</ele>
        <time>2024-12-08T02:32:08.619Z</time>
      </trkpt>
      <trkpt lat="45.88509" lon="3.75264">
        <ele>921</ele>
        <time>2024-12-08T02:32:09.619Z</time>
      </trkpt>
      <trkpt lat="45.88509" lon="3.75266">
        <ele>921</ele>
        <time>2024-12-08T02:32:10.620Z</time>
      </trkpt>
      <trkpt lat="45.8851" lon="3.75267">
        <ele>921</ele>
        <time>2024-12-08T02:32:11.620Z</time>
      </trkpt>
      <trkpt lat="45.88511" lon="3.75268">
        <ele>921</ele>
        <time>2024-12-08T02:32:12.620Z</time>
      </trkpt>
      <trkpt lat="45.88512" lon="3.7527">
        <ele>921</ele>
        <time>2024-12-08T02:32:13.619Z</time>
      </trkpt>
      <trkpt lat="45.88512" lon="3.75271">
        <ele>921</ele>
        <time>2024-12-08T02:32:14.619Z</time>
      </trkpt>
      <trkpt lat="45.88513" lon="3.75272">
        <ele>920</ele>
        <time>2024-12-08T02:32:15.619Z</time>
      </trkpt>
      <trkpt lat="45.88514" lon="3.75273">
        <ele>921</ele>
        <time>2024-12-08T02:32:16.620Z</time>
      </trkpt>
      <trkpt lat="45.88514" lon="3.75274">
        <ele>921</ele>
        <time>2024-12-08T02:32:17.619Z</time>
      </trkpt>
      <trkpt lat="45.88515" lon="3.75276">
        <ele>921</ele>
        <time>2024-12-08T02:32:18.620Z</time>
      </trkpt>
      <trkpt lat="45.88516" lon="3.75277">
        <ele>922</ele>
        <time>2024-12-08T02:32:19.619Z</time>
      </trkpt>
      <trkpt lat="45.88517" lon="3.75278">
        <ele>922</ele>
        <time>2024-12-08T02:32:20.619Z</time>
      </trkpt>
      <trkpt lat="45.88518" lon="3.75279">
        <ele>922</ele>
        <time>2024-12-08T02:32:21.620Z</time>
      </trkpt>
      <trkpt lat="45.88519" lon="3.7528">
        <ele>922</ele>
        <time>2024-12-08T02:32:22.620Z</time>
      </trkpt>
      <trkpt lat="45.8852" lon="3.75281">
        <ele>923</ele>
        <time>2024-12-08T02:32:23.619Z</time>
      </trkpt>
      <trkpt lat="45.8852" lon="3.75282">
        <ele>923</ele>
        <time>2024-12-08T02:32:24.619Z</time>
      </trkpt>
      <trkpt lat="45.88521" lon="3.75284">
        <ele>923</ele>
        <time>2024-12-08T02:32:25.620Z</time>
      </trkpt>
      <trkpt lat="45.88522" lon="3.75285">
        <ele>923</ele>
        <time>2024-12-08T02:32:26.619Z</time>
      </trkpt>
      <trkpt lat="45.88522" lon="3.75286">
        <ele>923</ele>
        <time>2024-12-08T02:32:27.619Z</time>
      </trkpt>
      <trkpt lat="45.88523" lon="3.75287">
        <ele>923</ele>
        <time>2024-12-08T02:32:28.620Z</time>
      </trkpt>
      <trkpt lat="45.88524" lon="3.75288">
        <ele>923</ele>
        <time>2024-12-08T02:32:29.620Z</time>
      </trkpt>
      <trkpt lat="45.88525" lon="3.75289">
        <ele>923</ele>
        <time>2024-12-08T02:32:30.619Z</time>
      </trkpt>
      <trkpt lat="45.88526" lon="3.7529">
        <ele>923</ele>
        <time>2024-12-08T02:32:31.619Z</time>
      </trkpt>
      <trkpt lat="45.88527" lon="3.75292">
        <ele>923</ele>
        <time>2024-12-08T02:32:32.620Z</time>
      </trkpt>
      <trkpt lat="45.88527" lon="3.75293">
        <ele>922</ele>
        <time>2024-12-08T02:32:33.619Z</time>
      </trkpt>
      <trkpt lat="45.88528" lon="3.75294">
        <ele>922</ele>
        <time>2024-12-08T02:32:34.619Z</time>
      </trkpt>
      <trkpt lat="45.88529" lon="3.75295">
        <ele>922</ele>
        <time>2024-12-08T02:32:35.620Z</time>
      </trkpt>
      <trkpt lat="45.88529" lon="3.75297">
        <ele>921</ele>
        <time>2024-12-08T02:32:36.620Z</time>
      </trkpt>
      <trkpt lat="45.8853" lon="3.75298">
        <ele>921</ele>
        <time>2024-12-08T02:32:37.620Z</time>
      </trkpt>
      <trkpt lat="45.88531" lon="3.75299">
        <ele>921</ele>
        <time>2024-12-08T02:32:38.619Z</time>
      </trkpt>
      <trkpt lat="45.88532" lon="3.753">
        <ele>921</ele>
        <time>2024-12-08T02:32:39.620Z</time>
      </trkpt>
      <trkpt lat="45.88533" lon="3.75302">
        <ele>921</ele>
        <time>2024-12-08T02:32:40.620Z</time>
      </trkpt>
      <trkpt lat="45.88533" lon="3.75303">
        <ele>921</ele>
        <time>2024-12-08T02:32:41.619Z</time>
      </trkpt>
      <trkpt lat="45.88534" lon="3.75304">
        <ele>921</ele>
        <time>2024-12-08T02:32:42.620Z</time>
      </trkpt>
      <trkpt lat="45.88534" lon="3.75305">
        <ele>921</ele>
        <time>2024-12-08T02:32:43.619Z</time>
      </trkpt>
      <trkpt lat="45.88535" lon="3.75306">
        <ele>921</ele>
        <time>2024-12-08T02:32:44.620Z</time>
      </trkpt>
      <trkpt lat="45.88536" lon="3.75307">
        <ele>921</ele>
        <time>2024-12-08T02:32:45.620Z</time>
      </trkpt>
      <trkpt lat="45.88537" lon="3.75309">
        <ele>922</ele>
        <time>2024-12-08T02:32:46.619Z</time>
      </trkpt>
      <trkpt lat="45.88538" lon="3.7531">
        <ele>922</ele>
        <time>2024-12-08T02:32:47.620Z</time>
      </trkpt>
      <trkpt lat="45.88539" lon="3.75311">
        <ele>922</ele>
        <time>2024-12-08T02:32:48.620Z</time>
      </trkpt>
      <trkpt lat="45.88539" lon="3.75312">
        <ele>922</ele>
        <time>2024-12-08T02:32:49.619Z</time>
      </trkpt>
      <trkpt lat="45.8854" lon="3.75313">
        <ele>922</ele>
        <time>2024-12-08T02:32:50.619Z</time>
      </trkpt>
      <trkpt lat="45.8854" lon="3.75314">
        <ele>922</ele>
        <time>2024-12-08T02:32:51.619Z</time>
      </trkpt>
      <trkpt lat="45.88541" lon="3.75316">
        <ele>922</ele>
        <time>2024-12-08T02:32:52.619Z</time>
      </trkpt>
      <trkpt lat="45.88542" lon="3.75317">
        <ele>922</ele>
        <time>2024-12-08T02:32:53.619Z</time>
      </trkpt>
      <trkpt lat="45.88543" lon="3.75318">
        <ele>922</ele>
        <time>2024-12-08T02:32:54.620Z</time>
      </trkpt>
      <trkpt lat="45.88544" lon="3.7532">
        <ele>923</ele>
        <time>2024-12-08T02:32:55.620Z</time>
      </trkpt>
      <trkpt lat="45.88545" lon="3.75321">
        <ele>923</ele>
        <time>2024-12-08T02:32:56.619Z</time>
      </trkpt>
      <trkpt lat="45.88546" lon="3.75322">
        <ele>923</ele>
        <time>2024-12-08T02:32:57.619Z</time>
      </trkpt>
      <trkpt lat="45.88546" lon="3.75323">
        <ele>923</ele>
        <time>2024-12-08T02:32:58.620Z</time>
      </trkpt>
      <trkpt lat="45.88547" lon="3.75324">
        <ele>924</ele>
        <time>2024-12-08T02:32:59.620Z</time>
      </trkpt>
      <trkpt lat="45.88546" lon="3.75324">
        <ele>924</ele>
        <time>2024-12-08T02:33:00.619Z</time>
      </trkpt>
      <trkpt lat="45.88547" lon="3.75325">
        <ele>924</ele>
        <time>2024-12-08T02:33:01.619Z</time>
      </trkpt>
      <trkpt lat="45.88548" lon="3.75326">
        <ele>924</ele>
        <time>2024-12-08T02:33:02.619Z</time>
      </trkpt>
      <trkpt lat="45.88549" lon="3.75327">
        <ele>924</ele>
        <time>2024-12-08T02:33:03.619Z</time>
      </trkpt>
      <trkpt lat="45.88549" lon="3.75328">
        <ele>925</ele>
        <time>2024-12-08T02:33:04.620Z</time>
      </trkpt>
      <trkpt lat="45.8855" lon="3.75329">
        <ele>925</ele>
        <time>2024-12-08T02:33:05.620Z</time>
      </trkpt>
      <trkpt lat="45.8855" lon="3.7533">
        <ele>925</ele>
        <time>2024-12-08T02:33:06.619Z</time>
      </trkpt>
      <trkpt lat="45.88551" lon="3.75331">
        <ele>925</ele>
        <time>2024-12-08T02:33:07.620Z</time>
      </trkpt>
      <trkpt lat="45.88552" lon="3.75332">
        <ele>925</ele>
        <time>2024-12-08T02:33:08.619Z</time>
      </trkpt>
      <trkpt lat="45.88553" lon="3.75334">
        <ele>925</ele>
        <time>2024-12-08T02:33:09.620Z</time>
      </trkpt>
      <trkpt lat="45.88554" lon="3.75335">
        <ele>925</ele>
        <time>2024-12-08T02:33:10.619Z</time>
      </trkpt>
      <trkpt lat="45.88555" lon="3.75337">
        <ele>926</ele>
        <time>2024-12-08T02:33:11.619Z</time>
      </trkpt>
      <trkpt lat="45.88556" lon="3.75338">
        <ele>926</ele>
        <time>2024-12-08T02:33:12.620Z</time>
      </trkpt>
      <trkpt lat="45.88557" lon="3.75339">
        <ele>926</ele>
        <time>2024-12-08T02:33:13.619Z</time>
      </trkpt>
      <trkpt lat="45.88558" lon="3.7534">
        <ele>926</ele>
        <time>2024-12-08T02:33:14.619Z</time>
      </trkpt>
      <trkpt lat="45.88559" lon="3.75342">
        <ele>926</ele>
        <time>2024-12-08T02:33:15.620Z</time>
      </trkpt>
      <trkpt lat="45.8856" lon="3.75343">
        <ele>926</ele>
        <time>2024-12-08T02:33:16.620Z</time>
      </trkpt>
      <trkpt lat="45.88561" lon="3.75344">
        <ele>926</ele>
        <time>2024-12-08T02:33:17.619Z</time>
      </trkpt>
      <trkpt lat="45.88562" lon="3.75345">
        <ele>926</ele>
        <time>2024-12-08T02:33:18.619Z</time>
      </trkpt>
      <trkpt lat="45.88563" lon="3.75346">
        <ele>926</ele>
        <time>2024-12-08T02:33:19.620Z</time>
      </trkpt>
      <trkpt lat="45.88563" lon="3.75347">
        <ele>926</ele>
        <time>2024-12-08T02:33:20.620Z</time>
      </trkpt>
      <trkpt lat="45.88564" lon="3.75348">
        <ele>926</ele>
        <time>2024-12-08T02:33:21.620Z</time>
      </trkpt>
      <trkpt lat="45.88565" lon="3.75349">
        <ele>926</ele>
        <time>2024-12-08T02:33:22.619Z</time>
      </trkpt>
      <trkpt lat="45.88566" lon="3.7535">
        <ele>926</ele>
        <time>2024-12-08T02:33:23.620Z</time>
      </trkpt>
      <trkpt lat="45.88567" lon="3.75351">
        <ele>926</ele>
        <time>2024-12-08T02:33:24.620Z</time>
      </trkpt>
      <trkpt lat="45.88567" lon="3.75352">
        <ele>926</ele>
        <time>2024-12-08T02:33:25.619Z</time>
      </trkpt>
      <trkpt lat="45.88568" lon="3.75353">
        <ele>926</ele>
        <time>2024-12-08T02:33:26.620Z</time>
      </trkpt>
      <trkpt lat="45.88569" lon="3.75354">
        <ele>926</ele>
        <time>2024-12-08T02:33:27.619Z</time>
      </trkpt>
      <trkpt lat="45.8857" lon="3.75355">
        <ele>926</ele>
        <time>2024-12-08T02:33:28.620Z</time>
      </trkpt>
      <trkpt lat="45.8857" lon="3.75356">
        <ele>926</ele>
        <time>2024-12-08T02:33:29.620Z</time>
      </trkpt>
      <trkpt lat="45.88571" lon="3.75357">
        <ele>926</ele>
        <time>2024-12-08T02:33:30.619Z</time>
      </trkpt>
      <trkpt lat="45.88572" lon="3.75359">
        <ele>926</ele>
        <time>2024-12-08T02:33:31.619Z</time>
      </trkpt>
      <trkpt lat="45.88572" lon="3.7536">
        <ele>927</ele>
        <time>2024-12-08T02:33:32.619Z</time>
      </trkpt>
      <trkpt lat="45.88573" lon="3.75361">
        <ele>927</ele>
        <time>2024-12-08T02:33:33.619Z</time>
      </trkpt>
      <trkpt lat="45.88574" lon="3.75362">
        <ele>927</ele>
        <time>2024-12-08T02:33:34.619Z</time>
      </trkpt>
      <trkpt lat="45.88575" lon="3.75364">
        <ele>928</ele>
        <time>2024-12-08T02:33:35.619Z</time>
      </trkpt>
      <trkpt lat="45.88576" lon="3.75365">
        <ele>928</ele>
        <time>2024-12-08T02:33:36.620Z</time>
      </trkpt>
      <trkpt lat="45.88576" lon="3.75366">
        <ele>928</ele>
        <time>2024-12-08T02:33:37.620Z</time>
      </trkpt>
      <trkpt lat="45.88577" lon="3.75367">
        <ele>928</ele>
        <time>2024-12-08T02:33:38.620Z</time>
      </trkpt>
      <trkpt lat="45.88578" lon="3.75368">
        <ele>928</ele>
        <time>2024-12-08T02:33:39.620Z</time>
      </trkpt>
      <trkpt lat="45.88579" lon="3.7537">
        <ele>928</ele>
        <time>2024-12-08T02:33:40.620Z</time>
      </trkpt>
      <trkpt lat="45.88579" lon="3.75371">
        <ele>928</ele>
        <time>2024-12-08T02:33:41.620Z</time>
      </trkpt>
      <trkpt lat="45.8858" lon="3.75372">
        <ele>928</ele>
        <time>2024-12-08T02:33:42.620Z</time>
      </trkpt>
      <trkpt lat="45.88581" lon="3.75374">
        <ele>929</ele>
        <time>2024-12-08T02:33:43.619Z</time>
      </trkpt>
      <trkpt lat="45.88581" lon="3.75375">
        <ele>929</ele>
        <time>2024-12-08T02:33:44.620Z</time>
      </trkpt>
      <trkpt lat="45.88582" lon="3.75376">
        <ele>929</ele>
        <time>2024-12-08T02:33:45.620Z</time>
      </trkpt>
      <trkpt lat="45.88583" lon="3.75378">
        <ele>929</ele>
        <time>2024-12-08T02:33:46.619Z</time>
      </trkpt>
      <trkpt lat="45.88584" lon="3.75379">
        <ele>929</ele>
        <time>2024-12-08T02:33:47.620Z</time>
      </trkpt>
      <trkpt lat="45.88585" lon="3.7538">
        <ele>929</ele>
        <time>2024-12-08T02:33:48.620Z</time>
      </trkpt>
      <trkpt lat="45.88586" lon="3.75381">
        <ele>929</ele>
        <time>2024-12-08T02:33:49.620Z</time>
      </trkpt>
      <trkpt lat="45.88587" lon="3.75383">
        <ele>929</ele>
        <time>2024-12-08T02:33:50.620Z</time>
      </trkpt>
      <trkpt lat="45.88587" lon="3.75384">
        <ele>929</ele>
        <time>2024-12-08T02:33:51.619Z</time>
      </trkpt>
      <trkpt lat="45.88588" lon="3.75385">
        <ele>929</ele>
        <time>2024-12-08T02:33:52.620Z</time>
      </trkpt>
      <trkpt lat="45.88588" lon="3.75387">
        <ele>929</ele>
        <time>2024-12-08T02:33:53.619Z</time>
      </trkpt>
      <trkpt lat="45.88589" lon="3.75388">
        <ele>930</ele>
        <time>2024-12-08T02:33:54.619Z</time>
      </trkpt>
      <trkpt lat="45.8859" lon="3.75389">
        <ele>930</ele>
        <time>2024-12-08T02:33:55.619Z</time>
      </trkpt>
      <trkpt lat="45.8859" lon="3.7539">
        <ele>930</ele>
        <time>2024-12-08T02:33:56.620Z</time>
      </trkpt>
      <trkpt lat="45.88591" lon="3.75392">
        <ele>931</ele>
        <time>2024-12-08T02:33:57.619Z</time>
      </trkpt>
      <trkpt lat="45.88592" lon="3.75393">
        <ele>931</ele>
        <time>2024-12-08T02:33:58.620Z</time>
      </trkpt>
      <trkpt lat="45.88594" lon="3.75394">
        <ele>931</ele>
        <time>2024-12-08T02:33:59.620Z</time>
      </trkpt>
      <trkpt lat="45.88595" lon="3.75396">
        <ele>931</ele>
        <time>2024-12-08T02:34:00.620Z</time>
      </trkpt>
      <trkpt lat="45.88595" lon="3.75397">
        <ele>931</ele>
        <time>2024-12-08T02:34:01.619Z</time>
      </trkpt>
      <trkpt lat="45.88596" lon="3.75398">
        <ele>931</ele>
        <time>2024-12-08T02:34:02.619Z</time>
      </trkpt>
      <trkpt lat="45.88597" lon="3.754">
        <ele>932</ele>
        <time>2024-12-08T02:34:03.620Z</time>
      </trkpt>
      <trkpt lat="45.88598" lon="3.75401">
        <ele>932</ele>
        <time>2024-12-08T02:34:04.619Z</time>
      </trkpt>
      <trkpt lat="45.88599" lon="3.75403">
        <ele>932</ele>
        <time>2024-12-08T02:34:05.620Z</time>
      </trkpt>
      <trkpt lat="45.88599" lon="3.75404">
        <ele>932</ele>
        <time>2024-12-08T02:34:06.619Z</time>
      </trkpt>
      <trkpt lat="45.886" lon="3.75405">
        <ele>933</ele>
        <time>2024-12-08T02:34:07.620Z</time>
      </trkpt>
      <trkpt lat="45.88601" lon="3.75407">
        <ele>933</ele>
        <time>2024-12-08T02:34:08.620Z</time>
      </trkpt>
      <trkpt lat="45.88602" lon="3.75408">
        <ele>934</ele>
        <time>2024-12-08T02:34:09.620Z</time>
      </trkpt>
      <trkpt lat="45.88602" lon="3.7541">
        <ele>934</ele>
        <time>2024-12-08T02:34:10.619Z</time>
      </trkpt>
      <trkpt lat="45.88603" lon="3.75411">
        <ele>934</ele>
        <time>2024-12-08T02:34:11.620Z</time>
      </trkpt>
      <trkpt lat="45.88603" lon="3.75412">
        <ele>934</ele>
        <time>2024-12-08T02:34:12.620Z</time>
      </trkpt>
      <trkpt lat="45.88604" lon="3.75413">
        <ele>934</ele>
        <time>2024-12-08T02:34:13.620Z</time>
      </trkpt>
      <trkpt lat="45.88604" lon="3.75414">
        <ele>934</ele>
        <time>2024-12-08T02:34:14.620Z</time>
      </trkpt>
      <trkpt lat="45.88604" lon="3.75415">
        <ele>934</ele>
        <time>2024-12-08T02:34:15.619Z</time>
      </trkpt>
      <trkpt lat="45.88605" lon="3.75416">
        <ele>934</ele>
        <time>2024-12-08T02:34:16.619Z</time>
      </trkpt>
      <trkpt lat="45.88605" lon="3.75417">
        <ele>933</ele>
        <time>2024-12-08T02:34:17.619Z</time>
      </trkpt>
      <trkpt lat="45.88605" lon="3.75418">
        <ele>933</ele>
        <time>2024-12-08T02:34:18.619Z</time>
      </trkpt>
      <trkpt lat="45.88606" lon="3.75418">
        <ele>933</ele>
        <time>2024-12-08T02:34:19.620Z</time>
      </trkpt>
      <trkpt lat="45.88606" lon="3.75419">
        <ele>933</ele>
        <time>2024-12-08T02:34:20.620Z</time>
      </trkpt>
      <trkpt lat="45.88607" lon="3.7542">
        <ele>933</ele>
        <time>2024-12-08T02:34:21.620Z</time>
      </trkpt>
      <trkpt lat="45.88607" lon="3.7542">
        <ele>933</ele>
        <time>2024-12-08T02:34:22.620Z</time>
      </trkpt>
      <trkpt lat="45.88607" lon="3.75421">
        <ele>933</ele>
        <time>2024-12-08T02:34:23.620Z</time>
      </trkpt>
      <trkpt lat="45.88607" lon="3.75421">
        <ele>933</ele>
        <time>2024-12-08T02:34:24.619Z</time>
      </trkpt>
      <trkpt lat="45.88607" lon="3.75421">
        <ele>933</ele>
        <time>2024-12-08T02:34:25.620Z</time>
      </trkpt>
      <trkpt lat="45.88607" lon="3.75421">
        <ele>933</ele>
        <time>2024-12-08T02:34:26.619Z</time>
      </trkpt>
      <trkpt lat="45.88608" lon="3.75422">
        <ele>934</ele>
        <time>2024-12-08T02:34:27.620Z</time>
      </trkpt>
      <trkpt lat="45.88608" lon="3.75423">
        <ele>934</ele>
        <time>2024-12-08T02:34:28.619Z</time>
      </trkpt>
      <trkpt lat="45.88609" lon="3.75424">
        <ele>934</ele>
        <time>2024-12-08T02:34:29.619Z</time>
      </trkpt>
      <trkpt lat="45.88609" lon="3.75425">
        <ele>934</ele>
        <time>2024-12-08T02:34:30.620Z</time>
      </trkpt>
      <trkpt lat="45.88609" lon="3.75425">
        <ele>935</ele>
        <time>2024-12-08T02:34:31.619Z</time>
      </trkpt>
      <trkpt lat="45.88609" lon="3.75426">
        <ele>935</ele>
        <time>2024-12-08T02:34:32.620Z</time>
      </trkpt>
      <trkpt lat="45.88609" lon="3.75426">
        <ele>935</ele>
        <time>2024-12-08T02:34:33.620Z</time>
      </trkpt>
      <trkpt lat="45.88609" lon="3.75426">
        <ele>935</ele>
        <time>2024-12-08T02:34:34.619Z</time>
      </trkpt>
      <trkpt lat="45.88609" lon="3.75426">
        <ele>934</ele>
        <time>2024-12-08T02:34:35.620Z</time>
      </trkpt>
      <trkpt lat="45.8861" lon="3.75427">
        <ele>934</ele>
        <time>2024-12-08T02:34:36.619Z</time>
      </trkpt>
      <trkpt lat="45.8861" lon="3.75428">
        <ele>934</ele>
        <time>2024-12-08T02:34:37.619Z</time>
      </trkpt>
      <trkpt lat="45.88611" lon="3.75428">
        <ele>934</ele>
        <time>2024-12-08T02:34:38.620Z</time>
      </trkpt>
      <trkpt lat="45.88612" lon="3.75429">
        <ele>934</ele>
        <time>2024-12-08T02:34:39.620Z</time>
      </trkpt>
      <trkpt lat="45.88612" lon="3.7543">
        <ele>934</ele>
        <time>2024-12-08T02:34:40.620Z</time>
      </trkpt>
      <trkpt lat="45.88613" lon="3.75431">
        <ele>934</ele>
        <time>2024-12-08T02:34:41.620Z</time>
      </trkpt>
      <trkpt lat="45.88613" lon="3.75432">
        <ele>934</ele>
        <time>2024-12-08T02:34:42.620Z</time>
      </trkpt>
      <trkpt lat="45.88614" lon="3.75432">
        <ele>934</ele>
        <time>2024-12-08T02:34:43.619Z</time>
      </trkpt>
      <trkpt lat="45.88614" lon="3.75432">
        <ele>934</ele>
        <time>2024-12-08T02:34:44.619Z</time>
      </trkpt>
      <trkpt lat="45.88615" lon="3.75433">
        <ele>934</ele>
        <time>2024-12-08T02:34:45.619Z</time>
      </trkpt>
      <trkpt lat="45.88616" lon="3.75433">
        <ele>934</ele>
        <time>2024-12-08T02:34:46.619Z</time>
      </trkpt>
      <trkpt lat="45.88617" lon="3.75433">
        <ele>933</ele>
        <time>2024-12-08T02:34:47.620Z</time>
      </trkpt>
      <trkpt lat="45.88618" lon="3.75433">
        <ele>933</ele>
        <time>2024-12-08T02:34:48.620Z</time>
      </trkpt>
      <trkpt lat="45.88618" lon="3.75433">
        <ele>933</ele>
        <time>2024-12-08T02:34:49.620Z</time>
      </trkpt>
      <trkpt lat="45.88619" lon="3.75433">
        <ele>933</ele>
        <time>2024-12-08T02:34:50.619Z</time>
      </trkpt>
      <trkpt lat="45.88619" lon="3.75433">
        <ele>933</ele>
        <time>2024-12-08T02:34:51.619Z</time>
      </trkpt>
      <trkpt lat="45.88619" lon="3.75433">
        <ele>933</ele>
        <time>2024-12-08T02:34:52.620Z</time>
      </trkpt>
      <trkpt lat="45.88619" lon="3.75433">
        <ele>933</ele>
        <time>2024-12-08T02:34:53.619Z</time>
      </trkpt>
      <trkpt lat="45.88618" lon="3.75433">
        <ele>933</ele>
        <time>2024-12-08T02:34:54.619Z</time>
      </trkpt>
      <trkpt lat="45.88618" lon="3.75432">
        <ele>933</ele>
        <time>2024-12-08T02:34:55.619Z</time>
      </trkpt>
      <trkpt lat="45.88617" lon="3.7543">
        <ele>933</ele>
        <time>2024-12-08T02:34:56.619Z</time>
      </trkpt>
      <trkpt lat="45.88616" lon="3.75429">
        <ele>933</ele>
        <time>2024-12-08T02:34:57.620Z</time>
      </trkpt>
      <trkpt lat="45.88616" lon="3.75428">
        <ele>933</ele>
        <time>2024-12-08T02:34:58.619Z</time>
      </trkpt>
      <trkpt lat="45.88616" lon="3.75427">
        <ele>933</ele>
        <time>2024-12-08T02:34:59.620Z</time>
      </trkpt>
      <trkpt lat="45.88617" lon="3.75426">
        <ele>932</ele>
        <time>2024-12-08T02:35:00.620Z</time>
      </trkpt>
      <trkpt lat="45.88617" lon="3.75425">
        <ele>932</ele>
        <time>2024-12-08T02:35:01.619Z</time>
      </trkpt>
      <trkpt lat="45.88618" lon="3.75425">
        <ele>932</ele>
        <time>2024-12-08T02:35:02.620Z</time>
      </trkpt>
      <trkpt lat="45.88619" lon="3.75424">
        <ele>932</ele>
        <time>2024-12-08T02:35:03.620Z</time>
      </trkpt>
      <trkpt lat="45.88619" lon="3.75424">
        <ele>932</ele>
        <time>2024-12-08T02:35:04.619Z</time>
      </trkpt>
      <trkpt lat="45.88619" lon="3.75424">
        <ele>932</ele>
        <time>2024-12-08T02:35:05.620Z</time>
      </trkpt>
      <trkpt lat="45.88619" lon="3.75424">
        <ele>932</ele>
        <time>2024-12-08T02:35:06.619Z</time>
      </trkpt>
      <trkpt lat="45.88619" lon="3.75424">
        <ele>932</ele>
        <time>2024-12-08T02:35:07.620Z</time>
      </trkpt>
      <trkpt lat="45.8862" lon="3.75424">
        <ele>933</ele>
        <time>2024-12-08T02:35:08.619Z</time>
      </trkpt>
      <trkpt lat="45.8862" lon="3.75424">
        <ele>933</ele>
        <time>2024-12-08T02:35:09.619Z</time>
      </trkpt>
      <trkpt lat="45.8862" lon="3.75424">
        <ele>933</ele>
        <time>2024-12-08T02:35:10.619Z</time>
      </trkpt>
      <trkpt lat="45.8862" lon="3.75424">
        <ele>933</ele>
        <time>2024-12-08T02:35:11.620Z</time>
      </trkpt>
      <trkpt lat="45.88619" lon="3.75424">
        <ele>933</ele>
        <time>2024-12-08T02:35:12.620Z</time>
      </trkpt>
      <trkpt lat="45.88619" lon="3.75424">
        <ele>933</ele>
        <time>2024-12-08T02:35:13.620Z</time>
      </trkpt>
      <trkpt lat="45.88619" lon="3.75424">
        <ele>933</ele>
        <time>2024-12-08T02:35:14.619Z</time>
      </trkpt>
      <trkpt lat="45.88619" lon="3.75424">
        <ele>933</ele>
        <time>2024-12-08T02:35:15.620Z</time>
      </trkpt>
      <trkpt lat="45.88619" lon="3.75424">
        <ele>933</ele>
        <time>2024-12-08T02:35:16.619Z</time>
      </trkpt>
      <trkpt lat="45.88619" lon="3.75424">
        <ele>933</ele>
        <time>2024-12-08T02:35:17.619Z</time>
      </trkpt>
      <trkpt lat="45.88619" lon="3.75424">
        <ele>934</ele>
        <time>2024-12-08T02:35:18.619Z</time>
      </trkpt>
      <trkpt lat="45.88619" lon="3.75424">
        <ele>934</ele>
        <time>2024-12-08T02:35:19.620Z</time>
      </trkpt>
      <trkpt lat="45.88619" lon="3.75424">
        <ele>934</ele>
        <time>2024-12-08T02:35:20.619Z</time>
      </trkpt>
      <trkpt lat="45.88619" lon="3.75424">
        <ele>934</ele>
        <time>2024-12-08T02:35:21.619Z</time>
      </trkpt>
      <trkpt lat="45.88619" lon="3.75424">
        <ele>934</ele>
        <time>2024-12-08T02:35:22.619Z</time>
      </trkpt>
      <trkpt lat="45.88619" lon="3.75424">
        <ele>934</ele>
        <time>2024-12-08T02:35:23.620Z</time>
      </trkpt>
      <trkpt lat="45.88619" lon="3.75424">
        <ele>934</ele>
        <time>2024-12-08T02:35:24.620Z</time>
      </trkpt>
      <trkpt lat="45.88619" lon="3.75424">
        <ele>934</ele>
        <time>2024-12-08T02:35:25.620Z</time>
      </trkpt>
      <trkpt lat="45.88619" lon="3.75424">
        <ele>934</ele>
        <time>2024-12-08T02:35:26.620Z</time>
      </trkpt>
      <trkpt lat="45.88619" lon="3.75424">
        <ele>934</ele>
        <time>2024-12-08T02:35:27.620Z</time>
      </trkpt>
      <trkpt lat="45.88619" lon="3.75424">
        <ele>934</ele>
        <time>2024-12-08T02:35:28.619Z</time>
      </trkpt>
      <trkpt lat="45.88619" lon="3.75424">
        <ele>934</ele>
        <time>2024-12-08T02:35:29.620Z</time>
      </trkpt>
      <trkpt lat="45.88619" lon="3.75424">
        <ele>934</ele>
        <time>2024-12-08T02:35:30.620Z</time>
      </trkpt>
      <trkpt lat="45.88619" lon="3.75424">
        <ele>934</ele>
        <time>2024-12-08T02:35:31.619Z</time>
      </trkpt>
      <trkpt lat="45.88619" lon="3.75424">
        <ele>934</ele>
        <time>2024-12-08T02:35:32.620Z</time>
      </trkpt>
      <trkpt lat="45.88619" lon="3.75424">
        <ele>934</ele>
        <time>2024-12-08T02:35:33.620Z</time>
      </trkpt>
      <trkpt lat="45.88619" lon="3.75424">
        <ele>934</ele>
        <time>2024-12-08T02:35:34.619Z</time>
      </trkpt>
      <trkpt lat="45.88618" lon="3.75425">
        <ele>934</ele>
        <time>2024-12-08T02:35:35.620Z</time>
      </trkpt>
      <trkpt lat="45.88618" lon="3.75427">
        <ele>934</ele>
        <time>2024-12-08T02:35:36.620Z</time>
      </trkpt>
      <trkpt lat="45.88618" lon="3.75428">
        <ele>934</ele>
        <time>2024-12-08T02:35:37.619Z</time>
      </trkpt>
      <trkpt lat="45.88618" lon="3.75429">
        <ele>934</ele>
        <time>2024-12-08T02:35:38.620Z</time>
      </trkpt>
      <trkpt lat="45.88618" lon="3.75431">
        <ele>934</ele>
        <time>2024-12-08T02:35:39.620Z</time>
      </trkpt>
      <trkpt lat="45.88618" lon="3.75432">
        <ele>934</ele>
        <time>2024-12-08T02:35:40.620Z</time>
      </trkpt>
      <trkpt lat="45.88618" lon="3.75434">
        <ele>934</ele>
        <time>2024-12-08T02:35:41.619Z</time>
      </trkpt>
      <trkpt lat="45.88618" lon="3.75435">
        <ele>934</ele>
        <time>2024-12-08T02:35:42.619Z</time>
      </trkpt>
      <trkpt lat="45.88618" lon="3.75435">
        <ele>934</ele>
        <time>2024-12-08T02:35:43.620Z</time>
      </trkpt>
      <trkpt lat="45.88618" lon="3.75435">
        <ele>934</ele>
        <time>2024-12-08T02:35:44.620Z</time>
      </trkpt>
      <trkpt lat="45.88618" lon="3.75435">
        <ele>934</ele>
        <time>2024-12-08T02:35:45.619Z</time>
      </trkpt>
      <trkpt lat="45.88619" lon="3.75435">
        <ele>934</ele>
        <time>2024-12-08T02:35:46.619Z</time>
      </trkpt>
      <trkpt lat="45.88619" lon="3.75435">
        <ele>935</ele>
        <time>2024-12-08T02:35:47.619Z</time>
      </trkpt>
      <trkpt lat="45.88619" lon="3.75436">
        <ele>935</ele>
        <time>2024-12-08T02:35:48.619Z</time>
      </trkpt>
      <trkpt lat="45.88619" lon="3.75435">
        <ele>935</ele>
        <time>2024-12-08T02:35:49.619Z</time>
      </trkpt>
      <trkpt lat="45.88619" lon="3.75436">
        <ele>936</ele>
        <time>2024-12-08T02:35:50.619Z</time>
      </trkpt>
      <trkpt lat="45.88619" lon="3.75436">
        <ele>936</ele>
        <time>2024-12-08T02:35:51.619Z</time>
      </trkpt>
      <trkpt lat="45.88619" lon="3.75436">
        <ele>936</ele>
        <time>2024-12-08T02:35:52.619Z</time>
      </trkpt>
      <trkpt lat="45.88619" lon="3.75436">
        <ele>936</ele>
        <time>2024-12-08T02:35:53.620Z</time>
      </trkpt>
      <trkpt lat="45.88619" lon="3.75436">
        <ele>936</ele>
        <time>2024-12-08T02:35:54.619Z</time>
      </trkpt>
      <trkpt lat="45.88619" lon="3.75436">
        <ele>936</ele>
        <time>2024-12-08T02:35:55.620Z</time>
      </trkpt>
      <trkpt lat="45.88619" lon="3.75436">
        <ele>936</ele>
        <time>2024-12-08T02:35:56.619Z</time>
      </trkpt>
      <trkpt lat="45.88619" lon="3.75436">
        <ele>936</ele>
        <time>2024-12-08T02:35:57.620Z</time>
      </trkpt>
      <trkpt lat="45.88619" lon="3.75436">
        <ele>936</ele>
        <time>2024-12-08T02:35:58.620Z</time>
      </trkpt>
      <trkpt lat="45.88619" lon="3.75436">
        <ele>936</ele>
        <time>2024-12-08T02:35:59.620Z</time>
      </trkpt>
      <trkpt lat="45.88619" lon="3.75436">
        <ele>936</ele>
        <time>2024-12-08T02:36:00.620Z</time>
      </trkpt>
      <trkpt lat="45.88619" lon="3.75436">
        <ele>936</ele>
        <time>2024-12-08T02:36:01.620Z</time>
      </trkpt>
      <trkpt lat="45.88619" lon="3.75436">
        <ele>936</ele>
        <time>2024-12-08T02:36:02.619Z</time>
      </trkpt>
      <trkpt lat="45.88619" lon="3.75435">
        <ele>936</ele>
        <time>2024-12-08T02:36:03.620Z</time>
      </trkpt>
      <trkpt lat="45.88619" lon="3.75435">
        <ele>936</ele>
        <time>2024-12-08T02:36:04.620Z</time>
      </trkpt>
      <trkpt lat="45.88619" lon="3.75435">
        <ele>936</ele>
        <time>2024-12-08T02:36:05.620Z</time>
      </trkpt>
      <trkpt lat="45.88619" lon="3.75435">
        <ele>936</ele>
        <time>2024-12-08T02:36:06.620Z</time>
      </trkpt>
      <trkpt lat="45.88619" lon="3.75435">
        <ele>936</ele>
        <time>2024-12-08T02:36:07.619Z</time>
      </trkpt>
      <trkpt lat="45.88619" lon="3.75435">
        <ele>936</ele>
        <time>2024-12-08T02:36:08.619Z</time>
      </trkpt>
      <trkpt lat="45.88619" lon="3.75435">
        <ele>936</ele>
        <time>2024-12-08T02:36:09.619Z</time>
      </trkpt>
      <trkpt lat="45.88619" lon="3.75435">
        <ele>936</ele>
        <time>2024-12-08T02:36:10.620Z</time>
      </trkpt>
      <trkpt lat="45.88619" lon="3.75435">
        <ele>936</ele>
        <time>2024-12-08T02:36:11.619Z</time>
      </trkpt>
      <trkpt lat="45.88619" lon="3.75435">
        <ele>936</ele>
        <time>2024-12-08T02:36:12.620Z</time>
      </trkpt>
      <trkpt lat="45.88619" lon="3.75435">
        <ele>936</ele>
        <time>2024-12-08T02:36:13.619Z</time>
      </trkpt>
      <trkpt lat="45.88619" lon="3.75435">
        <ele>936</ele>
        <time>2024-12-08T02:36:14.620Z</time>
      </trkpt>
      <trkpt lat="45.88619" lon="3.75435">
        <ele>936</ele>
        <time>2024-12-08T02:36:15.619Z</time>
      </trkpt>
      <trkpt lat="45.88619" lon="3.75435">
        <ele>936</ele>
        <time>2024-12-08T02:36:16.619Z</time>
      </trkpt>
      <trkpt lat="45.88619" lon="3.75435">
        <ele>936</ele>
        <time>2024-12-08T02:36:17.620Z</time>
      </trkpt>
      <trkpt lat="45.88619" lon="3.75435">
        <ele>936</ele>
        <time>2024-12-08T02:36:18.619Z</time>
      </trkpt>
      <trkpt lat="45.8862" lon="3.75435">
        <ele>936</ele>
        <time>2024-12-08T02:36:19.620Z</time>
      </trkpt>
      <trkpt lat="45.8862" lon="3.75435">
        <ele>936</ele>
        <time>2024-12-08T02:36:20.619Z</time>
      </trkpt>
      <trkpt lat="45.8862" lon="3.75435">
        <ele>936</ele>
        <time>2024-12-08T02:36:21.620Z</time>
      </trkpt>
      <trkpt lat="45.8862" lon="3.75435">
        <ele>936</ele>
        <time>2024-12-08T02:36:22.619Z</time>
      </trkpt>
      <trkpt lat="45.8862" lon="3.75435">
        <ele>936</ele>
        <time>2024-12-08T02:36:23.620Z</time>
      </trkpt>
      <trkpt lat="45.8862" lon="3.75435">
        <ele>936</ele>
        <time>2024-12-08T02:36:24.619Z</time>
      </trkpt>
      <trkpt lat="45.8862" lon="3.75435">
        <ele>936</ele>
        <time>2024-12-08T02:36:25.619Z</time>
      </trkpt>
      <trkpt lat="45.8862" lon="3.75435">
        <ele>936</ele>
        <time>2024-12-08T02:36:26.620Z</time>
      </trkpt>
      <trkpt lat="45.8862" lon="3.75435">
        <ele>936</ele>
        <time>2024-12-08T02:36:27.620Z</time>
      </trkpt>
      <trkpt lat="45.8862" lon="3.75435">
        <ele>936</ele>
        <time>2024-12-08T02:36:28.620Z</time>
      </trkpt>
      <trkpt lat="45.8862" lon="3.75435">
        <ele>936</ele>
        <time>2024-12-08T02:36:29.619Z</time>
      </trkpt>
      <trkpt lat="45.8862" lon="3.75435">
        <ele>936</ele>
        <time>2024-12-08T02:36:30.620Z</time>
      </trkpt>
      <trkpt lat="45.8862" lon="3.75435">
        <ele>936</ele>
        <time>2024-12-08T02:36:31.620Z</time>
      </trkpt>
      <trkpt lat="45.8862" lon="3.75435">
        <ele>936</ele>
        <time>2024-12-08T02:36:32.619Z</time>
      </trkpt>
      <trkpt lat="45.8862" lon="3.75435">
        <ele>936</ele>
        <time>2024-12-08T02:36:33.620Z</time>
      </trkpt>
      <trkpt lat="45.8862" lon="3.75435">
        <ele>936</ele>
        <time>2024-12-08T02:36:34.619Z</time>
      </trkpt>
      <trkpt lat="45.8862" lon="3.75435">
        <ele>936</ele>
        <time>2024-12-08T02:36:35.620Z</time>
      </trkpt>
      <trkpt lat="45.8862" lon="3.75435">
        <ele>936</ele>
        <time>2024-12-08T02:36:36.619Z</time>
      </trkpt>
      <trkpt lat="45.8862" lon="3.75435">
        <ele>936</ele>
        <time>2024-12-08T02:36:37.620Z</time>
      </trkpt>
      <trkpt lat="45.8862" lon="3.75435">
        <ele>936</ele>
        <time>2024-12-08T02:36:38.620Z</time>
      </trkpt>
      <trkpt lat="45.8862" lon="3.75435">
        <ele>936</ele>
        <time>2024-12-08T02:36:39.620Z</time>
      </trkpt>
      <trkpt lat="45.8862" lon="3.75435">
        <ele>936</ele>
        <time>2024-12-08T02:36:40.619Z</time>
      </trkpt>
      <trkpt lat="45.8862" lon="3.75435">
        <ele>936</ele>
        <time>2024-12-08T02:36:41.619Z</time>
      </trkpt>
      <trkpt lat="45.8862" lon="3.75435">
        <ele>936</ele>
        <time>2024-12-08T02:36:42.620Z</time>
      </trkpt>
      <trkpt lat="45.8862" lon="3.75435">
        <ele>936</ele>
        <time>2024-12-08T02:36:43.620Z</time>
      </trkpt>
      <trkpt lat="45.8862" lon="3.75435">
        <ele>936</ele>
        <time>2024-12-08T02:36:44.620Z</time>
      </trkpt>
      <trkpt lat="45.8862" lon="3.75435">
        <ele>936</ele>
        <time>2024-12-08T02:36:45.620Z</time>
      </trkpt>
      <trkpt lat="45.8862" lon="3.75435">
        <ele>936</ele>
        <time>2024-12-08T02:36:46.620Z</time>
      </trkpt>
      <trkpt lat="45.8862" lon="3.75435">
        <ele>936</ele>
        <time>2024-12-08T02:36:47.619Z</time>
      </trkpt>
      <trkpt lat="45.8862" lon="3.75435">
        <ele>936</ele>
        <time>2024-12-08T02:36:48.620Z</time>
      </trkpt>
      <trkpt lat="45.8862" lon="3.75435">
        <ele>936</ele>
        <time>2024-12-08T02:36:49.619Z</time>
      </trkpt>
      <trkpt lat="45.8862" lon="3.75435">
        <ele>936</ele>
        <time>2024-12-08T02:36:50.620Z</time>
      </trkpt>
      <trkpt lat="45.8862" lon="3.75434">
        <ele>936</ele>
        <time>2024-12-08T02:36:51.620Z</time>
      </trkpt>
      <trkpt lat="45.8862" lon="3.75434">
        <ele>936</ele>
        <time>2024-12-08T02:36:52.620Z</time>
      </trkpt>
      <trkpt lat="45.8862" lon="3.75434">
        <ele>936</ele>
        <time>2024-12-08T02:36:53.620Z</time>
      </trkpt>
      <trkpt lat="45.8862" lon="3.75434">
        <ele>936</ele>
        <time>2024-12-08T02:36:54.620Z</time>
      </trkpt>
      <trkpt lat="45.8862" lon="3.75433">
        <ele>936</ele>
        <time>2024-12-08T02:36:55.619Z</time>
      </trkpt>
      <trkpt lat="45.8862" lon="3.75433">
        <ele>936</ele>
        <time>2024-12-08T02:36:56.620Z</time>
      </trkpt>
      <trkpt lat="45.8862" lon="3.75433">
        <ele>936</ele>
        <time>2024-12-08T02:36:57.619Z</time>
      </trkpt>
      <trkpt lat="45.8862" lon="3.75433">
        <ele>936</ele>
        <time>2024-12-08T02:36:58.620Z</time>
      </trkpt>
      <trkpt lat="45.8862" lon="3.75433">
        <ele>936</ele>
        <time>2024-12-08T02:36:59.620Z</time>
      </trkpt>
      <trkpt lat="45.8862" lon="3.75433">
        <ele>936</ele>
        <time>2024-12-08T02:37:00.619Z</time>
      </trkpt>
      <trkpt lat="45.8862" lon="3.75433">
        <ele>936</ele>
        <time>2024-12-08T02:37:01.619Z</time>
      </trkpt>
      <trkpt lat="45.8862" lon="3.75433">
        <ele>936</ele>
        <time>2024-12-08T02:37:02.619Z</time>
      </trkpt>
      <trkpt lat="45.8862" lon="3.75433">
        <ele>936</ele>
        <time>2024-12-08T02:37:03.620Z</time>
      </trkpt>
      <trkpt lat="45.8862" lon="3.75433">
        <ele>936</ele>
        <time>2024-12-08T02:37:04.620Z</time>
      </trkpt>
      <trkpt lat="45.8862" lon="3.75433">
        <ele>935</ele>
        <time>2024-12-08T02:37:05.620Z</time>
      </trkpt>
      <trkpt lat="45.8862" lon="3.75433">
        <ele>935</ele>
        <time>2024-12-08T02:37:06.619Z</time>
      </trkpt>
      <trkpt lat="45.8862" lon="3.75433">
        <ele>935</ele>
        <time>2024-12-08T02:37:07.620Z</time>
      </trkpt>
      <trkpt lat="45.88619" lon="3.75433">
        <ele>935</ele>
        <time>2024-12-08T02:37:08.619Z</time>
      </trkpt>
      <trkpt lat="45.88619" lon="3.75433">
        <ele>935</ele>
        <time>2024-12-08T02:37:09.620Z</time>
      </trkpt>
      <trkpt lat="45.88619" lon="3.75433">
        <ele>935</ele>
        <time>2024-12-08T02:37:10.619Z</time>
      </trkpt>
      <trkpt lat="45.88619" lon="3.75433">
        <ele>935</ele>
        <time>2024-12-08T02:37:11.620Z</time>
      </trkpt>
      <trkpt lat="45.88619" lon="3.75433">
        <ele>935</ele>
        <time>2024-12-08T02:37:12.620Z</time>
      </trkpt>
      <trkpt lat="45.88619" lon="3.75433">
        <ele>935</ele>
        <time>2024-12-08T02:37:13.619Z</time>
      </trkpt>
      <trkpt lat="45.88619" lon="3.75433">
        <ele>935</ele>
        <time>2024-12-08T02:37:14.619Z</time>
      </trkpt>
      <trkpt lat="45.88619" lon="3.75433">
        <ele>935</ele>
        <time>2024-12-08T02:37:15.619Z</time>
      </trkpt>
      <trkpt lat="45.88619" lon="3.75433">
        <ele>935</ele>
        <time>2024-12-08T02:37:16.620Z</time>
      </trkpt>
      <trkpt lat="45.88619" lon="3.75433">
        <ele>935</ele>
        <time>2024-12-08T02:37:17.620Z</time>
      </trkpt>
      <trkpt lat="45.88619" lon="3.75433">
        <ele>935</ele>
        <time>2024-12-08T02:37:18.620Z</time>
      </trkpt>
      <trkpt lat="45.88619" lon="3.75432">
        <ele>935</ele>
        <time>2024-12-08T02:37:19.619Z</time>
      </trkpt>
      <trkpt lat="45.88619" lon="3.75432">
        <ele>935</ele>
        <time>2024-12-08T02:37:20.619Z</time>
      </trkpt>
      <trkpt lat="45.88619" lon="3.75432">
        <ele>935</ele>
        <time>2024-12-08T02:37:21.620Z</time>
      </trkpt>
      <trkpt lat="45.88619" lon="3.75432">
        <ele>935</ele>
        <time>2024-12-08T02:37:22.620Z</time>
      </trkpt>
      <trkpt lat="45.88619" lon="3.75432">
        <ele>935</ele>
        <time>2024-12-08T02:37:23.619Z</time>
      </trkpt>
      <trkpt lat="45.88619" lon="3.75432">
        <ele>935</ele>
        <time>2024-12-08T02:37:24.619Z</time>
      </trkpt>
      <trkpt lat="45.88619" lon="3.75432">
        <ele>935</ele>
        <time>2024-12-08T02:37:25.619Z</time>
      </trkpt>
      <trkpt lat="45.88619" lon="3.75432">
        <ele>935</ele>
        <time>2024-12-08T02:37:26.620Z</time>
      </trkpt>
      <trkpt lat="45.88619" lon="3.75432">
        <ele>935</ele>
        <time>2024-12-08T02:37:27.619Z</time>
      </trkpt>
      <trkpt lat="45.88619" lon="3.75432">
        <ele>935</ele>
        <time>2024-12-08T02:37:28.620Z</time>
      </trkpt>
      <trkpt lat="45.88619" lon="3.75432">
        <ele>935</ele>
        <time>2024-12-08T02:37:29.620Z</time>
      </trkpt>
      <trkpt lat="45.88619" lon="3.75432">
        <ele>935</ele>
        <time>2024-12-08T02:37:30.619Z</time>
      </trkpt>
      <trkpt lat="45.88619" lon="3.75432">
        <ele>935</ele>
        <time>2024-12-08T02:37:31.620Z</time>
      </trkpt>
      <trkpt lat="45.88619" lon="3.75432">
        <ele>935</ele>
        <time>2024-12-08T02:37:32.619Z</time>
      </trkpt>
      <trkpt lat="45.88619" lon="3.75432">
        <ele>935</ele>
        <time>2024-12-08T02:37:33.620Z</time>
      </trkpt>
      <trkpt lat="45.88619" lon="3.75432">
        <ele>935</ele>
        <time>2024-12-08T02:37:34.619Z</time>
      </trkpt>
      <trkpt lat="45.88619" lon="3.75432">
        <ele>935</ele>
        <time>2024-12-08T02:37:35.619Z</time>
      </trkpt>
      <trkpt lat="45.88619" lon="3.75432">
        <ele>935</ele>
        <time>2024-12-08T02:37:36.619Z</time>
      </trkpt>
      <trkpt lat="45.88619" lon="3.75432">
        <ele>935</ele>
        <time>2024-12-08T02:37:37.620Z</time>
      </trkpt>
      <trkpt lat="45.88619" lon="3.75432">
        <ele>935</ele>
        <time>2024-12-08T02:37:38.619Z</time>
      </trkpt>
      <trkpt lat="45.88619" lon="3.75432">
        <ele>935</ele>
        <time>2024-12-08T02:37:39.620Z</time>
      </trkpt>
      <trkpt lat="45.88619" lon="3.75432">
        <ele>935</ele>
        <time>2024-12-08T02:37:40.619Z</time>
      </trkpt>
      <trkpt lat="45.88619" lon="3.75432">
        <ele>935</ele>
        <time>2024-12-08T02:37:41.619Z</time>
      </trkpt>
      <trkpt lat="45.88619" lon="3.75432">
        <ele>935</ele>
        <time>2024-12-08T02:37:42.619Z</time>
      </trkpt>
      <trkpt lat="45.88619" lon="3.75432">
        <ele>935</ele>
        <time>2024-12-08T02:37:43.620Z</time>
      </trkpt>
      <trkpt lat="45.88619" lon="3.75432">
        <ele>935</ele>
        <time>2024-12-08T02:37:44.620Z</time>
      </trkpt>
      <trkpt lat="45.88619" lon="3.75432">
        <ele>935</ele>
        <time>2024-12-08T02:37:45.620Z</time>
      </trkpt>
      <trkpt lat="45.88619" lon="3.75432">
        <ele>936</ele>
        <time>2024-12-08T02:37:46.620Z</time>
      </trkpt>
      <trkpt lat="45.88619" lon="3.75432">
        <ele>936</ele>
        <time>2024-12-08T02:37:47.620Z</time>
      </trkpt>
      <trkpt lat="45.88619" lon="3.75432">
        <ele>936</ele>
        <time>2024-12-08T02:37:48.620Z</time>
      </trkpt>
      <trkpt lat="45.88619" lon="3.75432">
        <ele>936</ele>
        <time>2024-12-08T02:37:49.619Z</time>
      </trkpt>
      <trkpt lat="45.88619" lon="3.75432">
        <ele>936</ele>
        <time>2024-12-08T02:37:50.620Z</time>
      </trkpt>
      <trkpt lat="45.88619" lon="3.75432">
        <ele>936</ele>
        <time>2024-12-08T02:37:51.620Z</time>
      </trkpt>
      <trkpt lat="45.88619" lon="3.75432">
        <ele>936</ele>
        <time>2024-12-08T02:37:52.620Z</time>
      </trkpt>
      <trkpt lat="45.88619" lon="3.75432">
        <ele>936</ele>
        <time>2024-12-08T02:37:53.619Z</time>
      </trkpt>
      <trkpt lat="45.88619" lon="3.75432">
        <ele>935</ele>
        <time>2024-12-08T02:37:54.620Z</time>
      </trkpt>
      <trkpt lat="45.88619" lon="3.75432">
        <ele>935</ele>
        <time>2024-12-08T02:37:55.620Z</time>
      </trkpt>
      <trkpt lat="45.88619" lon="3.75432">
        <ele>935</ele>
        <time>2024-12-08T02:37:56.620Z</time>
      </trkpt>
      <trkpt lat="45.88619" lon="3.75432">
        <ele>935</ele>
        <time>2024-12-08T02:37:57.620Z</time>
      </trkpt>
      <trkpt lat="45.88619" lon="3.75432">
        <ele>935</ele>
        <time>2024-12-08T02:37:58.619Z</time>
      </trkpt>
      <trkpt lat="45.88619" lon="3.75432">
        <ele>935</ele>
        <time>2024-12-08T02:37:59.619Z</time>
      </trkpt>
      <trkpt lat="45.88619" lon="3.75433">
        <ele>935</ele>
        <time>2024-12-08T02:38:00.619Z</time>
      </trkpt>
      <trkpt lat="45.88618" lon="3.75435">
        <ele>935</ele>
        <time>2024-12-08T02:38:01.619Z</time>
      </trkpt>
      <trkpt lat="45.88617" lon="3.75436">
        <ele>935</ele>
        <time>2024-12-08T02:38:02.620Z</time>
      </trkpt>
      <trkpt lat="45.88616" lon="3.75439">
        <ele>935</ele>
        <time>2024-12-08T02:38:03.620Z</time>
      </trkpt>
      <trkpt lat="45.88615" lon="3.75441">
        <ele>935</ele>
        <time>2024-12-08T02:38:04.619Z</time>
      </trkpt>
      <trkpt lat="45.88615" lon="3.75443">
        <ele>935</ele>
        <time>2024-12-08T02:38:05.620Z</time>
      </trkpt>
      <trkpt lat="45.88614" lon="3.75446">
        <ele>934</ele>
        <time>2024-12-08T02:38:06.620Z</time>
      </trkpt>
      <trkpt lat="45.88614" lon="3.75449">
        <ele>935</ele>
        <time>2024-12-08T02:38:07.620Z</time>
      </trkpt>
      <trkpt lat="45.88613" lon="3.75451">
        <ele>934</ele>
        <time>2024-12-08T02:38:08.620Z</time>
      </trkpt>
      <trkpt lat="45.88612" lon="3.75454">
        <ele>934</ele>
        <time>2024-12-08T02:38:09.619Z</time>
      </trkpt>
      <trkpt lat="45.88612" lon="3.75455">
        <ele>934</ele>
        <time>2024-12-08T02:38:10.619Z</time>
      </trkpt>
      <trkpt lat="45.88611" lon="3.75457">
        <ele>934</ele>
        <time>2024-12-08T02:38:11.619Z</time>
      </trkpt>
      <trkpt lat="45.88611" lon="3.75459">
        <ele>933</ele>
        <time>2024-12-08T02:38:12.619Z</time>
      </trkpt>
      <trkpt lat="45.8861" lon="3.7546">
        <ele>933</ele>
        <time>2024-12-08T02:38:13.620Z</time>
      </trkpt>
      <trkpt lat="45.8861" lon="3.75461">
        <ele>932</ele>
        <time>2024-12-08T02:38:14.620Z</time>
      </trkpt>
      <trkpt lat="45.88609" lon="3.75462">
        <ele>932</ele>
        <time>2024-12-08T02:38:15.620Z</time>
      </trkpt>
      <trkpt lat="45.88608" lon="3.75464">
        <ele>931</ele>
        <time>2024-12-08T02:38:16.619Z</time>
      </trkpt>
      <trkpt lat="45.88607" lon="3.75465">
        <ele>931</ele>
        <time>2024-12-08T02:38:17.620Z</time>
      </trkpt>
      <trkpt lat="45.88607" lon="3.75467">
        <ele>931</ele>
        <time>2024-12-08T02:38:18.620Z</time>
      </trkpt>
      <trkpt lat="45.88606" lon="3.75468">
        <ele>931</ele>
        <time>2024-12-08T02:38:19.619Z</time>
      </trkpt>
      <trkpt lat="45.88606" lon="3.75469">
        <ele>931</ele>
        <time>2024-12-08T02:38:20.620Z</time>
      </trkpt>
      <trkpt lat="45.88605" lon="3.75471">
        <ele>931</ele>
        <time>2024-12-08T02:38:21.619Z</time>
      </trkpt>
      <trkpt lat="45.88604" lon="3.75472">
        <ele>931</ele>
        <time>2024-12-08T02:38:22.620Z</time>
      </trkpt>
      <trkpt lat="45.88604" lon="3.75472">
        <ele>930</ele>
        <time>2024-12-08T02:38:23.619Z</time>
      </trkpt>
      <trkpt lat="45.88604" lon="3.75473">
        <ele>930</ele>
        <time>2024-12-08T02:38:24.619Z</time>
      </trkpt>
      <trkpt lat="45.88604" lon="3.75473">
        <ele>930</ele>
        <time>2024-12-08T02:38:25.620Z</time>
      </trkpt>
      <trkpt lat="45.88604" lon="3.75473">
        <ele>930</ele>
        <time>2024-12-08T02:38:26.619Z</time>
      </trkpt>
      <trkpt lat="45.88604" lon="3.75473">
        <ele>929</ele>
        <time>2024-12-08T02:38:27.620Z</time>
      </trkpt>
      <trkpt lat="45.88603" lon="3.75473">
        <ele>929</ele>
        <time>2024-12-08T02:38:28.619Z</time>
      </trkpt>
      <trkpt lat="45.88603" lon="3.75472">
        <ele>929</ele>
        <time>2024-12-08T02:38:29.619Z</time>
      </trkpt>
      <trkpt lat="45.88603" lon="3.75473">
        <ele>928</ele>
        <time>2024-12-08T02:38:30.619Z</time>
      </trkpt>
      <trkpt lat="45.88603" lon="3.75473">
        <ele>928</ele>
        <time>2024-12-08T02:38:31.620Z</time>
      </trkpt>
      <trkpt lat="45.88603" lon="3.75474">
        <ele>928</ele>
        <time>2024-12-08T02:38:32.620Z</time>
      </trkpt>
      <trkpt lat="45.88602" lon="3.75475">
        <ele>928</ele>
        <time>2024-12-08T02:38:33.620Z</time>
      </trkpt>
      <trkpt lat="45.88601" lon="3.75475">
        <ele>927</ele>
        <time>2024-12-08T02:38:34.619Z</time>
      </trkpt>
      <trkpt lat="45.88601" lon="3.75476">
        <ele>927</ele>
        <time>2024-12-08T02:38:35.620Z</time>
      </trkpt>
      <trkpt lat="45.886" lon="3.75477">
        <ele>927</ele>
        <time>2024-12-08T02:38:36.619Z</time>
      </trkpt>
      <trkpt lat="45.886" lon="3.75478">
        <ele>927</ele>
        <time>2024-12-08T02:38:37.620Z</time>
      </trkpt>
      <trkpt lat="45.886" lon="3.75478">
        <ele>927</ele>
        <time>2024-12-08T02:38:38.619Z</time>
      </trkpt>
      <trkpt lat="45.88599" lon="3.75479">
        <ele>928</ele>
        <time>2024-12-08T02:38:39.620Z</time>
      </trkpt>
      <trkpt lat="45.88599" lon="3.7548">
        <ele>928</ele>
        <time>2024-12-08T02:38:40.619Z</time>
      </trkpt>
      <trkpt lat="45.88598" lon="3.75481">
        <ele>928</ele>
        <time>2024-12-08T02:38:41.619Z</time>
      </trkpt>
      <trkpt lat="45.88597" lon="3.75482">
        <ele>928</ele>
        <time>2024-12-08T02:38:42.620Z</time>
      </trkpt>
      <trkpt lat="45.88597" lon="3.75483">
        <ele>929</ele>
        <time>2024-12-08T02:38:43.619Z</time>
      </trkpt>
      <trkpt lat="45.88596" lon="3.75485">
        <ele>929</ele>
        <time>2024-12-08T02:38:44.619Z</time>
      </trkpt>
      <trkpt lat="45.88595" lon="3.75486">
        <ele>929</ele>
        <time>2024-12-08T02:38:45.619Z</time>
      </trkpt>
      <trkpt lat="45.88594" lon="3.75488">
        <ele>929</ele>
        <time>2024-12-08T02:38:46.620Z</time>
      </trkpt>
      <trkpt lat="45.88593" lon="3.75489">
        <ele>929</ele>
        <time>2024-12-08T02:38:47.619Z</time>
      </trkpt>
      <trkpt lat="45.88592" lon="3.75491">
        <ele>929</ele>
        <time>2024-12-08T02:38:48.620Z</time>
      </trkpt>
      <trkpt lat="45.8859" lon="3.75492">
        <ele>929</ele>
        <time>2024-12-08T02:38:49.619Z</time>
      </trkpt>
      <trkpt lat="45.88589" lon="3.75494">
        <ele>929</ele>
        <time>2024-12-08T02:38:50.620Z</time>
      </trkpt>
      <trkpt lat="45.88588" lon="3.75495">
        <ele>929</ele>
        <time>2024-12-08T02:38:51.619Z</time>
      </trkpt>
      <trkpt lat="45.88587" lon="3.75497">
        <ele>929</ele>
        <time>2024-12-08T02:38:52.619Z</time>
      </trkpt>
      <trkpt lat="45.88586" lon="3.75498">
        <ele>929</ele>
        <time>2024-12-08T02:38:53.620Z</time>
      </trkpt>
      <trkpt lat="45.88584" lon="3.75499">
        <ele>929</ele>
        <time>2024-12-08T02:38:54.620Z</time>
      </trkpt>
      <trkpt lat="45.88583" lon="3.75501">
        <ele>929</ele>
        <time>2024-12-08T02:38:55.619Z</time>
      </trkpt>
      <trkpt lat="45.88582" lon="3.75502">
        <ele>929</ele>
        <time>2024-12-08T02:38:56.619Z</time>
      </trkpt>
      <trkpt lat="45.88581" lon="3.75503">
        <ele>929</ele>
        <time>2024-12-08T02:38:57.620Z</time>
      </trkpt>
      <trkpt lat="45.88579" lon="3.75505">
        <ele>929</ele>
        <time>2024-12-08T02:38:58.619Z</time>
      </trkpt>
      <trkpt lat="45.88578" lon="3.75506">
        <ele>929</ele>
        <time>2024-12-08T02:38:59.619Z</time>
      </trkpt>
      <trkpt lat="45.88577" lon="3.75508">
        <ele>929</ele>
        <time>2024-12-08T02:39:00.619Z</time>
      </trkpt>
      <trkpt lat="45.88576" lon="3.75509">
        <ele>930</ele>
        <time>2024-12-08T02:39:01.620Z</time>
      </trkpt>
      <trkpt lat="45.88575" lon="3.75511">
        <ele>930</ele>
        <time>2024-12-08T02:39:02.620Z</time>
      </trkpt>
      <trkpt lat="45.88574" lon="3.75512">
        <ele>929</ele>
        <time>2024-12-08T02:39:03.620Z</time>
      </trkpt>
      <trkpt lat="45.88573" lon="3.75513">
        <ele>929</ele>
        <time>2024-12-08T02:39:04.619Z</time>
      </trkpt>
      <trkpt lat="45.88572" lon="3.75515">
        <ele>929</ele>
        <time>2024-12-08T02:39:05.619Z</time>
      </trkpt>
      <trkpt lat="45.88571" lon="3.75516">
        <ele>928</ele>
        <time>2024-12-08T02:39:06.620Z</time>
      </trkpt>
      <trkpt lat="45.8857" lon="3.75518">
        <ele>928</ele>
        <time>2024-12-08T02:39:07.620Z</time>
      </trkpt>
      <trkpt lat="45.88569" lon="3.7552">
        <ele>928</ele>
        <time>2024-12-08T02:39:08.620Z</time>
      </trkpt>
      <trkpt lat="45.88568" lon="3.75521">
        <ele>928</ele>
        <time>2024-12-08T02:39:09.619Z</time>
      </trkpt>
      <trkpt lat="45.88567" lon="3.75523">
        <ele>928</ele>
        <time>2024-12-08T02:39:10.620Z</time>
      </trkpt>
      <trkpt lat="45.88567" lon="3.75525">
        <ele>928</ele>
        <time>2024-12-08T02:39:11.619Z</time>
      </trkpt>
      <trkpt lat="45.88566" lon="3.75527">
        <ele>928</ele>
        <time>2024-12-08T02:39:12.619Z</time>
      </trkpt>
      <trkpt lat="45.88565" lon="3.75529">
        <ele>928</ele>
        <time>2024-12-08T02:39:13.620Z</time>
      </trkpt>
      <trkpt lat="45.88564" lon="3.7553">
        <ele>928</ele>
        <time>2024-12-08T02:39:14.619Z</time>
      </trkpt>
      <trkpt lat="45.88563" lon="3.75531">
        <ele>928</ele>
        <time>2024-12-08T02:39:15.620Z</time>
      </trkpt>
      <trkpt lat="45.88562" lon="3.75533">
        <ele>928</ele>
        <time>2024-12-08T02:39:16.619Z</time>
      </trkpt>
      <trkpt lat="45.8856" lon="3.75534">
        <ele>928</ele>
        <time>2024-12-08T02:39:17.619Z</time>
      </trkpt>
      <trkpt lat="45.88559" lon="3.75535">
        <ele>928</ele>
        <time>2024-12-08T02:39:18.619Z</time>
      </trkpt>
      <trkpt lat="45.88558" lon="3.75537">
        <ele>928</ele>
        <time>2024-12-08T02:39:19.619Z</time>
      </trkpt>
      <trkpt lat="45.88556" lon="3.75538">
        <ele>928</ele>
        <time>2024-12-08T02:39:20.619Z</time>
      </trkpt>
      <trkpt lat="45.88555" lon="3.75541">
        <ele>928</ele>
        <time>2024-12-08T02:39:21.619Z</time>
      </trkpt>
      <trkpt lat="45.88554" lon="3.75542">
        <ele>928</ele>
        <time>2024-12-08T02:39:22.619Z</time>
      </trkpt>
      <trkpt lat="45.88553" lon="3.75544">
        <ele>928</ele>
        <time>2024-12-08T02:39:23.620Z</time>
      </trkpt>
      <trkpt lat="45.88552" lon="3.75545">
        <ele>928</ele>
        <time>2024-12-08T02:39:24.619Z</time>
      </trkpt>
      <trkpt lat="45.88551" lon="3.75547">
        <ele>928</ele>
        <time>2024-12-08T02:39:25.620Z</time>
      </trkpt>
      <trkpt lat="45.8855" lon="3.75549">
        <ele>928</ele>
        <time>2024-12-08T02:39:26.620Z</time>
      </trkpt>
      <trkpt lat="45.8855" lon="3.75551">
        <ele>928</ele>
        <time>2024-12-08T02:39:27.620Z</time>
      </trkpt>
      <trkpt lat="45.88549" lon="3.75554">
        <ele>929</ele>
        <time>2024-12-08T02:39:28.620Z</time>
      </trkpt>
      <trkpt lat="45.88548" lon="3.75556">
        <ele>929</ele>
        <time>2024-12-08T02:39:29.620Z</time>
      </trkpt>
      <trkpt lat="45.88547" lon="3.75557">
        <ele>929</ele>
        <time>2024-12-08T02:39:30.619Z</time>
      </trkpt>
      <trkpt lat="45.88547" lon="3.75559">
        <ele>928</ele>
        <time>2024-12-08T02:39:31.620Z</time>
      </trkpt>
      <trkpt lat="45.88546" lon="3.7556">
        <ele>928</ele>
        <time>2024-12-08T02:39:32.620Z</time>
      </trkpt>
      <trkpt lat="45.88545" lon="3.75562">
        <ele>927</ele>
        <time>2024-12-08T02:39:33.620Z</time>
      </trkpt>
      <trkpt lat="45.88544" lon="3.75564">
        <ele>927</ele>
        <time>2024-12-08T02:39:34.619Z</time>
      </trkpt>
      <trkpt lat="45.88544" lon="3.75566">
        <ele>926</ele>
        <time>2024-12-08T02:39:35.620Z</time>
      </trkpt>
      <trkpt lat="45.88544" lon="3.75567">
        <ele>925</ele>
        <time>2024-12-08T02:39:36.620Z</time>
      </trkpt>
      <trkpt lat="45.88544" lon="3.75569">
        <ele>925</ele>
        <time>2024-12-08T02:39:37.620Z</time>
      </trkpt>
      <trkpt lat="45.88544" lon="3.7557">
        <ele>924</ele>
        <time>2024-12-08T02:39:38.620Z</time>
      </trkpt>
      <trkpt lat="45.88544" lon="3.75572">
        <ele>924</ele>
        <time>2024-12-08T02:39:39.619Z</time>
      </trkpt>
      <trkpt lat="45.88544" lon="3.75574">
        <ele>924</ele>
        <time>2024-12-08T02:39:40.620Z</time>
      </trkpt>
      <trkpt lat="45.88545" lon="3.75576">
        <ele>924</ele>
        <time>2024-12-08T02:39:41.619Z</time>
      </trkpt>
      <trkpt lat="45.88545" lon="3.75578">
        <ele>923</ele>
        <time>2024-12-08T02:39:42.620Z</time>
      </trkpt>
      <trkpt lat="45.88545" lon="3.75581">
        <ele>923</ele>
        <time>2024-12-08T02:39:43.619Z</time>
      </trkpt>
      <trkpt lat="45.88546" lon="3.75583">
        <ele>923</ele>
        <time>2024-12-08T02:39:44.620Z</time>
      </trkpt>
      <trkpt lat="45.88547" lon="3.75585">
        <ele>923</ele>
        <time>2024-12-08T02:39:45.620Z</time>
      </trkpt>
      <trkpt lat="45.88547" lon="3.75587">
        <ele>924</ele>
        <time>2024-12-08T02:39:46.620Z</time>
      </trkpt>
      <trkpt lat="45.88547" lon="3.75588">
        <ele>924</ele>
        <time>2024-12-08T02:39:47.619Z</time>
      </trkpt>
      <trkpt lat="45.88548" lon="3.7559">
        <ele>924</ele>
        <time>2024-12-08T02:39:48.620Z</time>
      </trkpt>
      <trkpt lat="45.88549" lon="3.75592">
        <ele>924</ele>
        <time>2024-12-08T02:39:49.620Z</time>
      </trkpt>
      <trkpt lat="45.88549" lon="3.75594">
        <ele>924</ele>
        <time>2024-12-08T02:39:50.620Z</time>
      </trkpt>
      <trkpt lat="45.88551" lon="3.75596">
        <ele>925</ele>
        <time>2024-12-08T02:39:51.620Z</time>
      </trkpt>
      <trkpt lat="45.88553" lon="3.75598">
        <ele>925</ele>
        <time>2024-12-08T02:39:52.619Z</time>
      </trkpt>
      <trkpt lat="45.88554" lon="3.75599">
        <ele>925</ele>
        <time>2024-12-08T02:39:53.620Z</time>
      </trkpt>
      <trkpt lat="45.88556" lon="3.756">
        <ele>925</ele>
        <time>2024-12-08T02:39:54.619Z</time>
      </trkpt>
      <trkpt lat="45.88557" lon="3.75602">
        <ele>925</ele>
        <time>2024-12-08T02:39:55.619Z</time>
      </trkpt>
      <trkpt lat="45.88558" lon="3.75604">
        <ele>925</ele>
        <time>2024-12-08T02:39:56.619Z</time>
      </trkpt>
      <trkpt lat="45.88559" lon="3.75606">
        <ele>926</ele>
        <time>2024-12-08T02:39:57.619Z</time>
      </trkpt>
      <trkpt lat="45.8856" lon="3.75608">
        <ele>926</ele>
        <time>2024-12-08T02:39:58.619Z</time>
      </trkpt>
      <trkpt lat="45.88561" lon="3.7561">
        <ele>926</ele>
        <time>2024-12-08T02:39:59.620Z</time>
      </trkpt>
      <trkpt lat="45.88562" lon="3.75611">
        <ele>926</ele>
        <time>2024-12-08T02:40:00.619Z</time>
      </trkpt>
      <trkpt lat="45.88563" lon="3.75613">
        <ele>926</ele>
        <time>2024-12-08T02:40:01.620Z</time>
      </trkpt>
      <trkpt lat="45.88564" lon="3.75615">
        <ele>926</ele>
        <time>2024-12-08T02:40:02.619Z</time>
      </trkpt>
      <trkpt lat="45.88565" lon="3.75617">
        <ele>926</ele>
        <time>2024-12-08T02:40:03.620Z</time>
      </trkpt>
      <trkpt lat="45.88567" lon="3.75618">
        <ele>926</ele>
        <time>2024-12-08T02:40:04.620Z</time>
      </trkpt>
      <trkpt lat="45.88568" lon="3.7562">
        <ele>926</ele>
        <time>2024-12-08T02:40:05.620Z</time>
      </trkpt>
      <trkpt lat="45.88569" lon="3.75622">
        <ele>926</ele>
        <time>2024-12-08T02:40:06.620Z</time>
      </trkpt>
      <trkpt lat="45.88571" lon="3.75624">
        <ele>926</ele>
        <time>2024-12-08T02:40:07.619Z</time>
      </trkpt>
      <trkpt lat="45.88573" lon="3.75625">
        <ele>926</ele>
        <time>2024-12-08T02:40:08.620Z</time>
      </trkpt>
      <trkpt lat="45.88574" lon="3.75627">
        <ele>926</ele>
        <time>2024-12-08T02:40:09.620Z</time>
      </trkpt>
      <trkpt lat="45.88575" lon="3.75629">
        <ele>925</ele>
        <time>2024-12-08T02:40:10.620Z</time>
      </trkpt>
      <trkpt lat="45.88576" lon="3.75631">
        <ele>925</ele>
        <time>2024-12-08T02:40:11.619Z</time>
      </trkpt>
      <trkpt lat="45.88577" lon="3.75633">
        <ele>924</ele>
        <time>2024-12-08T02:40:12.620Z</time>
      </trkpt>
      <trkpt lat="45.88578" lon="3.75635">
        <ele>924</ele>
        <time>2024-12-08T02:40:13.619Z</time>
      </trkpt>
      <trkpt lat="45.8858" lon="3.75636">
        <ele>923</ele>
        <time>2024-12-08T02:40:14.620Z</time>
      </trkpt>
      <trkpt lat="45.88581" lon="3.75638">
        <ele>922</ele>
        <time>2024-12-08T02:40:15.620Z</time>
      </trkpt>
      <trkpt lat="45.88581" lon="3.7564">
        <ele>922</ele>
        <time>2024-12-08T02:40:16.620Z</time>
      </trkpt>
      <trkpt lat="45.88582" lon="3.75641">
        <ele>921</ele>
        <time>2024-12-08T02:40:17.620Z</time>
      </trkpt>
      <trkpt lat="45.88583" lon="3.75643">
        <ele>921</ele>
        <time>2024-12-08T02:40:18.619Z</time>
      </trkpt>
      <trkpt lat="45.88584" lon="3.75644">
        <ele>921</ele>
        <time>2024-12-08T02:40:19.620Z</time>
      </trkpt>
      <trkpt lat="45.88585" lon="3.75646">
        <ele>921</ele>
        <time>2024-12-08T02:40:20.619Z</time>
      </trkpt>
      <trkpt lat="45.88586" lon="3.75648">
        <ele>921</ele>
        <time>2024-12-08T02:40:21.620Z</time>
      </trkpt>
      <trkpt lat="45.88587" lon="3.75649">
        <ele>920</ele>
        <time>2024-12-08T02:40:22.620Z</time>
      </trkpt>
      <trkpt lat="45.88589" lon="3.7565">
        <ele>920</ele>
        <time>2024-12-08T02:40:23.620Z</time>
      </trkpt>
      <trkpt lat="45.8859" lon="3.75652">
        <ele>919</ele>
        <time>2024-12-08T02:40:24.620Z</time>
      </trkpt>
      <trkpt lat="45.88591" lon="3.75653">
        <ele>919</ele>
        <time>2024-12-08T02:40:25.619Z</time>
      </trkpt>
      <trkpt lat="45.88592" lon="3.75655">
        <ele>919</ele>
        <time>2024-12-08T02:40:26.619Z</time>
      </trkpt>
      <trkpt lat="45.88593" lon="3.75657">
        <ele>918</ele>
        <time>2024-12-08T02:40:27.619Z</time>
      </trkpt>
      <trkpt lat="45.88595" lon="3.75659">
        <ele>918</ele>
        <time>2024-12-08T02:40:28.619Z</time>
      </trkpt>
      <trkpt lat="45.88596" lon="3.7566">
        <ele>918</ele>
        <time>2024-12-08T02:40:29.619Z</time>
      </trkpt>
      <trkpt lat="45.88597" lon="3.75662">
        <ele>917</ele>
        <time>2024-12-08T02:40:30.619Z</time>
      </trkpt>
      <trkpt lat="45.88598" lon="3.75664">
        <ele>917</ele>
        <time>2024-12-08T02:40:31.620Z</time>
      </trkpt>
      <trkpt lat="45.88599" lon="3.75665">
        <ele>917</ele>
        <time>2024-12-08T02:40:32.619Z</time>
      </trkpt>
      <trkpt lat="45.886" lon="3.75667">
        <ele>917</ele>
        <time>2024-12-08T02:40:33.619Z</time>
      </trkpt>
      <trkpt lat="45.88602" lon="3.75668">
        <ele>918</ele>
        <time>2024-12-08T02:40:34.619Z</time>
      </trkpt>
      <trkpt lat="45.88603" lon="3.75669">
        <ele>918</ele>
        <time>2024-12-08T02:40:35.619Z</time>
      </trkpt>
      <trkpt lat="45.88604" lon="3.75671">
        <ele>918</ele>
        <time>2024-12-08T02:40:36.619Z</time>
      </trkpt>
      <trkpt lat="45.88606" lon="3.75673">
        <ele>918</ele>
        <time>2024-12-08T02:40:37.619Z</time>
      </trkpt>
      <trkpt lat="45.88608" lon="3.75677">
        <ele>918</ele>
        <time>2024-12-08T02:40:38.619Z</time>
      </trkpt>
      <trkpt lat="45.88609" lon="3.75679">
        <ele>918</ele>
        <time>2024-12-08T02:40:39.619Z</time>
      </trkpt>
      <trkpt lat="45.8861" lon="3.75681">
        <ele>919</ele>
        <time>2024-12-08T02:40:40.620Z</time>
      </trkpt>
      <trkpt lat="45.88611" lon="3.75683">
        <ele>919</ele>
        <time>2024-12-08T02:40:41.619Z</time>
      </trkpt>
      <trkpt lat="45.88612" lon="3.75686">
        <ele>919</ele>
        <time>2024-12-08T02:40:42.620Z</time>
      </trkpt>
      <trkpt lat="45.88613" lon="3.75688">
        <ele>918</ele>
        <time>2024-12-08T02:40:43.619Z</time>
      </trkpt>
      <trkpt lat="45.88613" lon="3.7569">
        <ele>918</ele>
        <time>2024-12-08T02:40:44.619Z</time>
      </trkpt>
      <trkpt lat="45.88614" lon="3.75692">
        <ele>917</ele>
        <time>2024-12-08T02:40:45.620Z</time>
      </trkpt>
      <trkpt lat="45.88615" lon="3.75694">
        <ele>917</ele>
        <time>2024-12-08T02:40:46.620Z</time>
      </trkpt>
      <trkpt lat="45.88616" lon="3.75695">
        <ele>917</ele>
        <time>2024-12-08T02:40:47.619Z</time>
      </trkpt>
      <trkpt lat="45.88618" lon="3.75696">
        <ele>916</ele>
        <time>2024-12-08T02:40:48.620Z</time>
      </trkpt>
      <trkpt lat="45.88619" lon="3.75698">
        <ele>916</ele>
        <time>2024-12-08T02:40:49.620Z</time>
      </trkpt>
      <trkpt lat="45.8862" lon="3.75699">
        <ele>916</ele>
        <time>2024-12-08T02:40:50.620Z</time>
      </trkpt>
      <trkpt lat="45.88621" lon="3.75701">
        <ele>916</ele>
        <time>2024-12-08T02:40:51.620Z</time>
      </trkpt>
      <trkpt lat="45.88622" lon="3.75704">
        <ele>915</ele>
        <time>2024-12-08T02:40:52.620Z</time>
      </trkpt>
      <trkpt lat="45.88624" lon="3.75706">
        <ele>915</ele>
        <time>2024-12-08T02:40:53.619Z</time>
      </trkpt>
      <trkpt lat="45.88626" lon="3.75708">
        <ele>915</ele>
        <time>2024-12-08T02:40:54.620Z</time>
      </trkpt>
      <trkpt lat="45.88627" lon="3.75709">
        <ele>914</ele>
        <time>2024-12-08T02:40:55.620Z</time>
      </trkpt>
      <trkpt lat="45.88628" lon="3.75711">
        <ele>914</ele>
        <time>2024-12-08T02:40:56.619Z</time>
      </trkpt>
      <trkpt lat="45.88628" lon="3.75714">
        <ele>914</ele>
        <time>2024-12-08T02:40:57.619Z</time>
      </trkpt>
      <trkpt lat="45.8863" lon="3.75716">
        <ele>913</ele>
        <time>2024-12-08T02:40:58.620Z</time>
      </trkpt>
      <trkpt lat="45.88631" lon="3.75718">
        <ele>913</ele>
        <time>2024-12-08T02:40:59.619Z</time>
      </trkpt>
      <trkpt lat="45.88634" lon="3.7572">
        <ele>913</ele>
        <time>2024-12-08T02:41:00.620Z</time>
      </trkpt>
      <trkpt lat="45.88635" lon="3.75722">
        <ele>913</ele>
        <time>2024-12-08T02:41:01.619Z</time>
      </trkpt>
      <trkpt lat="45.88637" lon="3.75724">
        <ele>913</ele>
        <time>2024-12-08T02:41:02.620Z</time>
      </trkpt>
      <trkpt lat="45.88638" lon="3.75726">
        <ele>913</ele>
        <time>2024-12-08T02:41:03.620Z</time>
      </trkpt>
      <trkpt lat="45.88639" lon="3.75727">
        <ele>914</ele>
        <time>2024-12-08T02:41:04.620Z</time>
      </trkpt>
      <trkpt lat="45.8864" lon="3.7573">
        <ele>914</ele>
        <time>2024-12-08T02:41:05.620Z</time>
      </trkpt>
      <trkpt lat="45.88642" lon="3.75731">
        <ele>914</ele>
        <time>2024-12-08T02:41:06.619Z</time>
      </trkpt>
      <trkpt lat="45.88642" lon="3.75733">
        <ele>914</ele>
        <time>2024-12-08T02:41:07.620Z</time>
      </trkpt>
      <trkpt lat="45.88643" lon="3.75734">
        <ele>914</ele>
        <time>2024-12-08T02:41:08.620Z</time>
      </trkpt>
      <trkpt lat="45.88645" lon="3.75735">
        <ele>914</ele>
        <time>2024-12-08T02:41:09.619Z</time>
      </trkpt>
      <trkpt lat="45.88646" lon="3.75736">
        <ele>914</ele>
        <time>2024-12-08T02:41:10.620Z</time>
      </trkpt>
      <trkpt lat="45.88646" lon="3.75738">
        <ele>914</ele>
        <time>2024-12-08T02:41:11.619Z</time>
      </trkpt>
      <trkpt lat="45.88647" lon="3.75739">
        <ele>913</ele>
        <time>2024-12-08T02:41:12.620Z</time>
      </trkpt>
      <trkpt lat="45.88649" lon="3.75741">
        <ele>913</ele>
        <time>2024-12-08T02:41:13.620Z</time>
      </trkpt>
      <trkpt lat="45.8865" lon="3.75743">
        <ele>913</ele>
        <time>2024-12-08T02:41:14.619Z</time>
      </trkpt>
      <trkpt lat="45.88651" lon="3.75745">
        <ele>913</ele>
        <time>2024-12-08T02:41:15.619Z</time>
      </trkpt>
      <trkpt lat="45.88652" lon="3.75747">
        <ele>913</ele>
        <time>2024-12-08T02:41:16.620Z</time>
      </trkpt>
      <trkpt lat="45.88654" lon="3.75748">
        <ele>912</ele>
        <time>2024-12-08T02:41:17.619Z</time>
      </trkpt>
      <trkpt lat="45.88655" lon="3.75749">
        <ele>912</ele>
        <time>2024-12-08T02:41:18.619Z</time>
      </trkpt>
      <trkpt lat="45.88656" lon="3.7575">
        <ele>912</ele>
        <time>2024-12-08T02:41:19.620Z</time>
      </trkpt>
      <trkpt lat="45.88657" lon="3.75751">
        <ele>912</ele>
        <time>2024-12-08T02:41:20.620Z</time>
      </trkpt>
      <trkpt lat="45.88658" lon="3.75752">
        <ele>911</ele>
        <time>2024-12-08T02:41:21.619Z</time>
      </trkpt>
      <trkpt lat="45.8866" lon="3.75753">
        <ele>911</ele>
        <time>2024-12-08T02:41:22.619Z</time>
      </trkpt>
      <trkpt lat="45.88661" lon="3.75754">
        <ele>911</ele>
        <time>2024-12-08T02:41:23.620Z</time>
      </trkpt>
      <trkpt lat="45.88663" lon="3.75755">
        <ele>911</ele>
        <time>2024-12-08T02:41:24.620Z</time>
      </trkpt>
      <trkpt lat="45.88664" lon="3.75755">
        <ele>911</ele>
        <time>2024-12-08T02:41:25.620Z</time>
      </trkpt>
      <trkpt lat="45.88665" lon="3.75756">
        <ele>911</ele>
        <time>2024-12-08T02:41:26.619Z</time>
      </trkpt>
      <trkpt lat="45.88667" lon="3.75756">
        <ele>911</ele>
        <time>2024-12-08T02:41:27.620Z</time>
      </trkpt>
      <trkpt lat="45.88668" lon="3.75757">
        <ele>911</ele>
        <time>2024-12-08T02:41:28.619Z</time>
      </trkpt>
      <trkpt lat="45.8867" lon="3.75758">
        <ele>911</ele>
        <time>2024-12-08T02:41:29.620Z</time>
      </trkpt>
      <trkpt lat="45.88672" lon="3.75758">
        <ele>911</ele>
        <time>2024-12-08T02:41:30.620Z</time>
      </trkpt>
      <trkpt lat="45.88673" lon="3.75759">
        <ele>911</ele>
        <time>2024-12-08T02:41:31.619Z</time>
      </trkpt>
      <trkpt lat="45.88674" lon="3.75759">
        <ele>912</ele>
        <time>2024-12-08T02:41:32.620Z</time>
      </trkpt>
      <trkpt lat="45.88675" lon="3.75759">
        <ele>912</ele>
        <time>2024-12-08T02:41:33.620Z</time>
      </trkpt>
      <trkpt lat="45.88677" lon="3.75759">
        <ele>912</ele>
        <time>2024-12-08T02:41:34.619Z</time>
      </trkpt>
      <trkpt lat="45.88678" lon="3.75758">
        <ele>912</ele>
        <time>2024-12-08T02:41:35.619Z</time>
      </trkpt>
      <trkpt lat="45.88679" lon="3.75758">
        <ele>912</ele>
        <time>2024-12-08T02:41:36.619Z</time>
      </trkpt>
      <trkpt lat="45.8868" lon="3.75758">
        <ele>912</ele>
        <time>2024-12-08T02:41:37.619Z</time>
      </trkpt>
      <trkpt lat="45.88682" lon="3.75759">
        <ele>911</ele>
        <time>2024-12-08T02:41:38.620Z</time>
      </trkpt>
      <trkpt lat="45.88683" lon="3.7576">
        <ele>911</ele>
        <time>2024-12-08T02:41:39.619Z</time>
      </trkpt>
      <trkpt lat="45.88685" lon="3.7576">
        <ele>911</ele>
        <time>2024-12-08T02:41:40.620Z</time>
      </trkpt>
      <trkpt lat="45.88686" lon="3.75759">
        <ele>911</ele>
        <time>2024-12-08T02:41:41.620Z</time>
      </trkpt>
      <trkpt lat="45.88688" lon="3.75759">
        <ele>911</ele>
        <time>2024-12-08T02:41:42.620Z</time>
      </trkpt>
      <trkpt lat="45.88689" lon="3.75758">
        <ele>911</ele>
        <time>2024-12-08T02:41:43.620Z</time>
      </trkpt>
      <trkpt lat="45.88691" lon="3.75759">
        <ele>911</ele>
        <time>2024-12-08T02:41:44.620Z</time>
      </trkpt>
      <trkpt lat="45.88692" lon="3.75759">
        <ele>912</ele>
        <time>2024-12-08T02:41:45.620Z</time>
      </trkpt>
      <trkpt lat="45.88694" lon="3.7576">
        <ele>912</ele>
        <time>2024-12-08T02:41:46.619Z</time>
      </trkpt>
      <trkpt lat="45.88696" lon="3.7576">
        <ele>912</ele>
        <time>2024-12-08T02:41:47.620Z</time>
      </trkpt>
      <trkpt lat="45.88697" lon="3.7576">
        <ele>911</ele>
        <time>2024-12-08T02:41:48.620Z</time>
      </trkpt>
      <trkpt lat="45.88699" lon="3.7576">
        <ele>911</ele>
        <time>2024-12-08T02:41:49.619Z</time>
      </trkpt>
      <trkpt lat="45.88701" lon="3.7576">
        <ele>911</ele>
        <time>2024-12-08T02:41:50.620Z</time>
      </trkpt>
      <trkpt lat="45.88703" lon="3.7576">
        <ele>911</ele>
        <time>2024-12-08T02:41:51.619Z</time>
      </trkpt>
      <trkpt lat="45.88705" lon="3.7576">
        <ele>911</ele>
        <time>2024-12-08T02:41:52.620Z</time>
      </trkpt>
      <trkpt lat="45.88707" lon="3.7576">
        <ele>910</ele>
        <time>2024-12-08T02:41:53.620Z</time>
      </trkpt>
      <trkpt lat="45.88708" lon="3.7576">
        <ele>910</ele>
        <time>2024-12-08T02:41:54.619Z</time>
      </trkpt>
      <trkpt lat="45.8871" lon="3.75761">
        <ele>910</ele>
        <time>2024-12-08T02:41:55.619Z</time>
      </trkpt>
      <trkpt lat="45.88712" lon="3.75762">
        <ele>910</ele>
        <time>2024-12-08T02:41:56.620Z</time>
      </trkpt>
      <trkpt lat="45.88713" lon="3.75763">
        <ele>910</ele>
        <time>2024-12-08T02:41:57.620Z</time>
      </trkpt>
      <trkpt lat="45.88715" lon="3.75764">
        <ele>910</ele>
        <time>2024-12-08T02:41:58.620Z</time>
      </trkpt>
      <trkpt lat="45.88717" lon="3.75764">
        <ele>910</ele>
        <time>2024-12-08T02:41:59.619Z</time>
      </trkpt>
      <trkpt lat="45.88718" lon="3.75764">
        <ele>910</ele>
        <time>2024-12-08T02:42:00.620Z</time>
      </trkpt>
      <trkpt lat="45.8872" lon="3.75764">
        <ele>910</ele>
        <time>2024-12-08T02:42:01.619Z</time>
      </trkpt>
      <trkpt lat="45.88722" lon="3.75764">
        <ele>910</ele>
        <time>2024-12-08T02:42:02.620Z</time>
      </trkpt>
      <trkpt lat="45.88723" lon="3.75764">
        <ele>909</ele>
        <time>2024-12-08T02:42:03.620Z</time>
      </trkpt>
      <trkpt lat="45.88724" lon="3.75764">
        <ele>909</ele>
        <time>2024-12-08T02:42:04.619Z</time>
      </trkpt>
      <trkpt lat="45.88726" lon="3.75764">
        <ele>909</ele>
        <time>2024-12-08T02:42:05.620Z</time>
      </trkpt>
      <trkpt lat="45.88727" lon="3.75764">
        <ele>909</ele>
        <time>2024-12-08T02:42:06.619Z</time>
      </trkpt>
      <trkpt lat="45.88729" lon="3.75764">
        <ele>909</ele>
        <time>2024-12-08T02:42:07.620Z</time>
      </trkpt>
      <trkpt lat="45.8873" lon="3.75764">
        <ele>909</ele>
        <time>2024-12-08T02:42:08.619Z</time>
      </trkpt>
      <trkpt lat="45.88732" lon="3.75764">
        <ele>909</ele>
        <time>2024-12-08T02:42:09.620Z</time>
      </trkpt>
      <trkpt lat="45.88733" lon="3.75764">
        <ele>909</ele>
        <time>2024-12-08T02:42:10.620Z</time>
      </trkpt>
      <trkpt lat="45.88735" lon="3.75764">
        <ele>908</ele>
        <time>2024-12-08T02:42:11.620Z</time>
      </trkpt>
      <trkpt lat="45.88737" lon="3.75765">
        <ele>908</ele>
        <time>2024-12-08T02:42:12.619Z</time>
      </trkpt>
      <trkpt lat="45.88738" lon="3.75765">
        <ele>907</ele>
        <time>2024-12-08T02:42:13.620Z</time>
      </trkpt>
      <trkpt lat="45.8874" lon="3.75766">
        <ele>907</ele>
        <time>2024-12-08T02:42:14.619Z</time>
      </trkpt>
      <trkpt lat="45.88742" lon="3.75766">
        <ele>907</ele>
        <time>2024-12-08T02:42:15.619Z</time>
      </trkpt>
      <trkpt lat="45.88743" lon="3.75766">
        <ele>906</ele>
        <time>2024-12-08T02:42:16.619Z</time>
      </trkpt>
      <trkpt lat="45.88745" lon="3.75767">
        <ele>906</ele>
        <time>2024-12-08T02:42:17.620Z</time>
      </trkpt>
      <trkpt lat="45.88747" lon="3.75768">
        <ele>906</ele>
        <time>2024-12-08T02:42:18.619Z</time>
      </trkpt>
      <trkpt lat="45.88748" lon="3.75768">
        <ele>906</ele>
        <time>2024-12-08T02:42:19.620Z</time>
      </trkpt>
      <trkpt lat="45.8875" lon="3.75768">
        <ele>906</ele>
        <time>2024-12-08T02:42:20.619Z</time>
      </trkpt>
      <trkpt lat="45.88751" lon="3.75768">
        <ele>906</ele>
        <time>2024-12-08T02:42:21.619Z</time>
      </trkpt>
      <trkpt lat="45.88753" lon="3.75768">
        <ele>905</ele>
        <time>2024-12-08T02:42:22.619Z</time>
      </trkpt>
      <trkpt lat="45.88755" lon="3.75768">
        <ele>905</ele>
        <time>2024-12-08T02:42:23.620Z</time>
      </trkpt>
      <trkpt lat="45.88757" lon="3.75768">
        <ele>905</ele>
        <time>2024-12-08T02:42:24.620Z</time>
      </trkpt>
      <trkpt lat="45.88758" lon="3.75768">
        <ele>904</ele>
        <time>2024-12-08T02:42:25.620Z</time>
      </trkpt>
      <trkpt lat="45.8876" lon="3.75769">
        <ele>904</ele>
        <time>2024-12-08T02:42:26.620Z</time>
      </trkpt>
      <trkpt lat="45.88761" lon="3.7577">
        <ele>904</ele>
        <time>2024-12-08T02:42:27.620Z</time>
      </trkpt>
      <trkpt lat="45.88762" lon="3.75771">
        <ele>903</ele>
        <time>2024-12-08T02:42:28.620Z</time>
      </trkpt>
      <trkpt lat="45.88764" lon="3.75772">
        <ele>903</ele>
        <time>2024-12-08T02:42:29.619Z</time>
      </trkpt>
      <trkpt lat="45.88765" lon="3.75773">
        <ele>902</ele>
        <time>2024-12-08T02:42:30.620Z</time>
      </trkpt>
      <trkpt lat="45.88767" lon="3.75774">
        <ele>902</ele>
        <time>2024-12-08T02:42:31.619Z</time>
      </trkpt>
      <trkpt lat="45.88769" lon="3.75774">
        <ele>902</ele>
        <time>2024-12-08T02:42:32.620Z</time>
      </trkpt>
      <trkpt lat="45.88771" lon="3.75774">
        <ele>902</ele>
        <time>2024-12-08T02:42:33.619Z</time>
      </trkpt>
      <trkpt lat="45.88772" lon="3.75774">
        <ele>902</ele>
        <time>2024-12-08T02:42:34.620Z</time>
      </trkpt>
      <trkpt lat="45.88774" lon="3.75774">
        <ele>902</ele>
        <time>2024-12-08T02:42:35.619Z</time>
      </trkpt>
      <trkpt lat="45.88776" lon="3.75774">
        <ele>902</ele>
        <time>2024-12-08T02:42:36.620Z</time>
      </trkpt>
      <trkpt lat="45.88778" lon="3.75775">
        <ele>901</ele>
        <time>2024-12-08T02:42:37.619Z</time>
      </trkpt>
      <trkpt lat="45.8878" lon="3.75775">
        <ele>901</ele>
        <time>2024-12-08T02:42:38.620Z</time>
      </trkpt>
      <trkpt lat="45.88782" lon="3.75776">
        <ele>901</ele>
        <time>2024-12-08T02:42:39.619Z</time>
      </trkpt>
      <trkpt lat="45.88783" lon="3.75776">
        <ele>901</ele>
        <time>2024-12-08T02:42:40.620Z</time>
      </trkpt>
      <trkpt lat="45.88785" lon="3.75776">
        <ele>901</ele>
        <time>2024-12-08T02:42:41.619Z</time>
      </trkpt>
      <trkpt lat="45.88787" lon="3.75777">
        <ele>901</ele>
        <time>2024-12-08T02:42:42.619Z</time>
      </trkpt>
      <trkpt lat="45.88789" lon="3.75777">
        <ele>901</ele>
        <time>2024-12-08T02:42:43.619Z</time>
      </trkpt>
      <trkpt lat="45.8879" lon="3.75776">
        <ele>901</ele>
        <time>2024-12-08T02:42:44.619Z</time>
      </trkpt>
      <trkpt lat="45.88792" lon="3.75776">
        <ele>901</ele>
        <time>2024-12-08T02:42:45.619Z</time>
      </trkpt>
      <trkpt lat="45.88794" lon="3.75776">
        <ele>901</ele>
        <time>2024-12-08T02:42:46.620Z</time>
      </trkpt>
      <trkpt lat="45.88796" lon="3.75776">
        <ele>902</ele>
        <time>2024-12-08T02:42:47.619Z</time>
      </trkpt>
      <trkpt lat="45.88797" lon="3.75777">
        <ele>902</ele>
        <time>2024-12-08T02:42:48.620Z</time>
      </trkpt>
      <trkpt lat="45.88798" lon="3.75778">
        <ele>902</ele>
        <time>2024-12-08T02:42:49.619Z</time>
      </trkpt>
      <trkpt lat="45.888" lon="3.75778">
        <ele>902</ele>
        <time>2024-12-08T02:42:50.619Z</time>
      </trkpt>
      <trkpt lat="45.88802" lon="3.75779">
        <ele>903</ele>
        <time>2024-12-08T02:42:51.620Z</time>
      </trkpt>
      <trkpt lat="45.88803" lon="3.7578">
        <ele>903</ele>
        <time>2024-12-08T02:42:52.619Z</time>
      </trkpt>
      <trkpt lat="45.88805" lon="3.75781">
        <ele>904</ele>
        <time>2024-12-08T02:42:53.619Z</time>
      </trkpt>
      <trkpt lat="45.88807" lon="3.75782">
        <ele>904</ele>
        <time>2024-12-08T02:42:54.619Z</time>
      </trkpt>
      <trkpt lat="45.88809" lon="3.75783">
        <ele>905</ele>
        <time>2024-12-08T02:42:55.619Z</time>
      </trkpt>
      <trkpt lat="45.88811" lon="3.75784">
        <ele>905</ele>
        <time>2024-12-08T02:42:56.619Z</time>
      </trkpt>
      <trkpt lat="45.88813" lon="3.75786">
        <ele>905</ele>
        <time>2024-12-08T02:42:57.619Z</time>
      </trkpt>
      <trkpt lat="45.88815" lon="3.75787">
        <ele>906</ele>
        <time>2024-12-08T02:42:58.620Z</time>
      </trkpt>
      <trkpt lat="45.88817" lon="3.75787">
        <ele>906</ele>
        <time>2024-12-08T02:42:59.619Z</time>
      </trkpt>
      <trkpt lat="45.8882" lon="3.75789">
        <ele>906</ele>
        <time>2024-12-08T02:43:00.619Z</time>
      </trkpt>
      <trkpt lat="45.88822" lon="3.75789">
        <ele>906</ele>
        <time>2024-12-08T02:43:01.620Z</time>
      </trkpt>
      <trkpt lat="45.88824" lon="3.7579">
        <ele>906</ele>
        <time>2024-12-08T02:43:02.620Z</time>
      </trkpt>
      <trkpt lat="45.88826" lon="3.75791">
        <ele>906</ele>
        <time>2024-12-08T02:43:03.619Z</time>
      </trkpt>
      <trkpt lat="45.88828" lon="3.75791">
        <ele>906</ele>
        <time>2024-12-08T02:43:04.620Z</time>
      </trkpt>
      <trkpt lat="45.88829" lon="3.75792">
        <ele>906</ele>
        <time>2024-12-08T02:43:05.620Z</time>
      </trkpt>
      <trkpt lat="45.88831" lon="3.75793">
        <ele>907</ele>
        <time>2024-12-08T02:43:06.620Z</time>
      </trkpt>
      <trkpt lat="45.88833" lon="3.75794">
        <ele>907</ele>
        <time>2024-12-08T02:43:07.619Z</time>
      </trkpt>
      <trkpt lat="45.88834" lon="3.75795">
        <ele>907</ele>
        <time>2024-12-08T02:43:08.620Z</time>
      </trkpt>
      <trkpt lat="45.88835" lon="3.75796">
        <ele>907</ele>
        <time>2024-12-08T02:43:09.620Z</time>
      </trkpt>
      <trkpt lat="45.88835" lon="3.75796">
        <ele>907</ele>
        <time>2024-12-08T02:43:10.619Z</time>
      </trkpt>
      <trkpt lat="45.88837" lon="3.75797">
        <ele>907</ele>
        <time>2024-12-08T02:43:11.620Z</time>
      </trkpt>
      <trkpt lat="45.88838" lon="3.75798">
        <ele>907</ele>
        <time>2024-12-08T02:43:12.619Z</time>
      </trkpt>
      <trkpt lat="45.88839" lon="3.75799">
        <ele>907</ele>
        <time>2024-12-08T02:43:13.620Z</time>
      </trkpt>
      <trkpt lat="45.8884" lon="3.758">
        <ele>907</ele>
        <time>2024-12-08T02:43:14.619Z</time>
      </trkpt>
      <trkpt lat="45.88842" lon="3.75801">
        <ele>907</ele>
        <time>2024-12-08T02:43:15.620Z</time>
      </trkpt>
      <trkpt lat="45.88844" lon="3.75802">
        <ele>907</ele>
        <time>2024-12-08T02:43:16.619Z</time>
      </trkpt>
      <trkpt lat="45.88845" lon="3.75803">
        <ele>907</ele>
        <time>2024-12-08T02:43:17.620Z</time>
      </trkpt>
      <trkpt lat="45.88847" lon="3.75804">
        <ele>907</ele>
        <time>2024-12-08T02:43:18.619Z</time>
      </trkpt>
      <trkpt lat="45.88848" lon="3.75805">
        <ele>907</ele>
        <time>2024-12-08T02:43:19.619Z</time>
      </trkpt>
      <trkpt lat="45.8885" lon="3.75806">
        <ele>908</ele>
        <time>2024-12-08T02:43:20.620Z</time>
      </trkpt>
      <trkpt lat="45.88852" lon="3.75806">
        <ele>908</ele>
        <time>2024-12-08T02:43:21.619Z</time>
      </trkpt>
      <trkpt lat="45.88854" lon="3.75807">
        <ele>907</ele>
        <time>2024-12-08T02:43:22.619Z</time>
      </trkpt>
      <trkpt lat="45.88856" lon="3.75808">
        <ele>907</ele>
        <time>2024-12-08T02:43:23.620Z</time>
      </trkpt>
      <trkpt lat="45.88858" lon="3.7581">
        <ele>907</ele>
        <time>2024-12-08T02:43:24.619Z</time>
      </trkpt>
      <trkpt lat="45.8886" lon="3.75811">
        <ele>906</ele>
        <time>2024-12-08T02:43:25.620Z</time>
      </trkpt>
      <trkpt lat="45.88861" lon="3.75812">
        <ele>906</ele>
        <time>2024-12-08T02:43:26.619Z</time>
      </trkpt>
      <trkpt lat="45.88863" lon="3.75812">
        <ele>905</ele>
        <time>2024-12-08T02:43:27.620Z</time>
      </trkpt>
      <trkpt lat="45.88864" lon="3.75813">
        <ele>905</ele>
        <time>2024-12-08T02:43:28.619Z</time>
      </trkpt>
      <trkpt lat="45.88866" lon="3.75814">
        <ele>905</ele>
        <time>2024-12-08T02:43:29.619Z</time>
      </trkpt>
      <trkpt lat="45.88867" lon="3.75815">
        <ele>904</ele>
        <time>2024-12-08T02:43:30.620Z</time>
      </trkpt>
      <trkpt lat="45.88869" lon="3.75817">
        <ele>903</ele>
        <time>2024-12-08T02:43:31.619Z</time>
      </trkpt>
      <trkpt lat="45.88871" lon="3.75818">
        <ele>903</ele>
        <time>2024-12-08T02:43:32.619Z</time>
      </trkpt>
      <trkpt lat="45.88873" lon="3.75819">
        <ele>902</ele>
        <time>2024-12-08T02:43:33.620Z</time>
      </trkpt>
      <trkpt lat="45.88875" lon="3.75819">
        <ele>902</ele>
        <time>2024-12-08T02:43:34.619Z</time>
      </trkpt>
      <trkpt lat="45.88877" lon="3.75821">
        <ele>901</ele>
        <time>2024-12-08T02:43:35.619Z</time>
      </trkpt>
      <trkpt lat="45.8888" lon="3.75823">
        <ele>901</ele>
        <time>2024-12-08T02:43:36.619Z</time>
      </trkpt>
      <trkpt lat="45.88882" lon="3.75824">
        <ele>900</ele>
        <time>2024-12-08T02:43:37.619Z</time>
      </trkpt>
      <trkpt lat="45.88884" lon="3.75825">
        <ele>900</ele>
        <time>2024-12-08T02:43:38.619Z</time>
      </trkpt>
      <trkpt lat="45.88886" lon="3.75827">
        <ele>899</ele>
        <time>2024-12-08T02:43:39.619Z</time>
      </trkpt>
      <trkpt lat="45.88887" lon="3.75829">
        <ele>898</ele>
        <time>2024-12-08T02:43:40.619Z</time>
      </trkpt>
      <trkpt lat="45.88889" lon="3.7583">
        <ele>897</ele>
        <time>2024-12-08T02:43:41.620Z</time>
      </trkpt>
      <trkpt lat="45.8889" lon="3.75831">
        <ele>896</ele>
        <time>2024-12-08T02:43:42.619Z</time>
      </trkpt>
      <trkpt lat="45.88892" lon="3.75832">
        <ele>896</ele>
        <time>2024-12-08T02:43:43.620Z</time>
      </trkpt>
      <trkpt lat="45.88893" lon="3.75832">
        <ele>895</ele>
        <time>2024-12-08T02:43:44.620Z</time>
      </trkpt>
      <trkpt lat="45.88895" lon="3.75833">
        <ele>894</ele>
        <time>2024-12-08T02:43:45.619Z</time>
      </trkpt>
      <trkpt lat="45.88896" lon="3.75833">
        <ele>893</ele>
        <time>2024-12-08T02:43:46.620Z</time>
      </trkpt>
      <trkpt lat="45.88897" lon="3.75834">
        <ele>893</ele>
        <time>2024-12-08T02:43:47.619Z</time>
      </trkpt>
      <trkpt lat="45.88899" lon="3.75835">
        <ele>892</ele>
        <time>2024-12-08T02:43:48.620Z</time>
      </trkpt>
      <trkpt lat="45.88901" lon="3.75837">
        <ele>892</ele>
        <time>2024-12-08T02:43:49.619Z</time>
      </trkpt>
      <trkpt lat="45.88903" lon="3.75837">
        <ele>891</ele>
        <time>2024-12-08T02:43:50.619Z</time>
      </trkpt>
      <trkpt lat="45.88904" lon="3.75838">
        <ele>891</ele>
        <time>2024-12-08T02:43:51.619Z</time>
      </trkpt>
      <trkpt lat="45.88905" lon="3.75839">
        <ele>891</ele>
        <time>2024-12-08T02:43:52.619Z</time>
      </trkpt>
      <trkpt lat="45.88907" lon="3.7584">
        <ele>891</ele>
        <time>2024-12-08T02:43:53.619Z</time>
      </trkpt>
      <trkpt lat="45.88909" lon="3.7584">
        <ele>891</ele>
        <time>2024-12-08T02:43:54.620Z</time>
      </trkpt>
      <trkpt lat="45.8891" lon="3.75841">
        <ele>891</ele>
        <time>2024-12-08T02:43:55.619Z</time>
      </trkpt>
      <trkpt lat="45.88912" lon="3.75842">
        <ele>891</ele>
        <time>2024-12-08T02:43:56.620Z</time>
      </trkpt>
      <trkpt lat="45.88913" lon="3.75843">
        <ele>891</ele>
        <time>2024-12-08T02:43:57.619Z</time>
      </trkpt>
      <trkpt lat="45.88915" lon="3.75844">
        <ele>892</ele>
        <time>2024-12-08T02:43:58.620Z</time>
      </trkpt>
      <trkpt lat="45.88916" lon="3.75845">
        <ele>892</ele>
        <time>2024-12-08T02:43:59.619Z</time>
      </trkpt>
      <trkpt lat="45.88918" lon="3.75846">
        <ele>892</ele>
        <time>2024-12-08T02:44:00.619Z</time>
      </trkpt>
      <trkpt lat="45.8892" lon="3.75846">
        <ele>892</ele>
        <time>2024-12-08T02:44:01.619Z</time>
      </trkpt>
      <trkpt lat="45.88921" lon="3.75847">
        <ele>892</ele>
        <time>2024-12-08T02:44:02.619Z</time>
      </trkpt>
      <trkpt lat="45.88923" lon="3.75848">
        <ele>891</ele>
        <time>2024-12-08T02:44:03.620Z</time>
      </trkpt>
      <trkpt lat="45.88924" lon="3.75849">
        <ele>891</ele>
        <time>2024-12-08T02:44:04.620Z</time>
      </trkpt>
      <trkpt lat="45.88926" lon="3.7585">
        <ele>891</ele>
        <time>2024-12-08T02:44:05.620Z</time>
      </trkpt>
      <trkpt lat="45.88929" lon="3.75851">
        <ele>890</ele>
        <time>2024-12-08T02:44:06.620Z</time>
      </trkpt>
      <trkpt lat="45.8893" lon="3.75852">
        <ele>890</ele>
        <time>2024-12-08T02:44:07.619Z</time>
      </trkpt>
      <trkpt lat="45.88932" lon="3.75852">
        <ele>890</ele>
        <time>2024-12-08T02:44:08.619Z</time>
      </trkpt>
      <trkpt lat="45.88934" lon="3.75853">
        <ele>889</ele>
        <time>2024-12-08T02:44:09.619Z</time>
      </trkpt>
      <trkpt lat="45.88936" lon="3.75854">
        <ele>889</ele>
        <time>2024-12-08T02:44:10.620Z</time>
      </trkpt>
      <trkpt lat="45.88938" lon="3.75855">
        <ele>889</ele>
        <time>2024-12-08T02:44:11.619Z</time>
      </trkpt>
      <trkpt lat="45.8894" lon="3.75856">
        <ele>889</ele>
        <time>2024-12-08T02:44:12.619Z</time>
      </trkpt>
      <trkpt lat="45.88941" lon="3.75858">
        <ele>888</ele>
        <time>2024-12-08T02:44:13.619Z</time>
      </trkpt>
      <trkpt lat="45.88943" lon="3.75859">
        <ele>888</ele>
        <time>2024-12-08T02:44:14.620Z</time>
      </trkpt>
      <trkpt lat="45.88945" lon="3.7586">
        <ele>888</ele>
        <time>2024-12-08T02:44:15.620Z</time>
      </trkpt>
      <trkpt lat="45.88946" lon="3.75861">
        <ele>888</ele>
        <time>2024-12-08T02:44:16.619Z</time>
      </trkpt>
      <trkpt lat="45.88947" lon="3.75862">
        <ele>887</ele>
        <time>2024-12-08T02:44:17.620Z</time>
      </trkpt>
      <trkpt lat="45.88949" lon="3.75863">
        <ele>887</ele>
        <time>2024-12-08T02:44:18.619Z</time>
      </trkpt>
      <trkpt lat="45.8895" lon="3.75864">
        <ele>887</ele>
        <time>2024-12-08T02:44:19.620Z</time>
      </trkpt>
      <trkpt lat="45.88952" lon="3.75866">
        <ele>886</ele>
        <time>2024-12-08T02:44:20.619Z</time>
      </trkpt>
      <trkpt lat="45.88954" lon="3.75867">
        <ele>885</ele>
        <time>2024-12-08T02:44:21.620Z</time>
      </trkpt>
      <trkpt lat="45.88955" lon="3.75868">
        <ele>885</ele>
        <time>2024-12-08T02:44:22.620Z</time>
      </trkpt>
      <trkpt lat="45.88956" lon="3.75869">
        <ele>884</ele>
        <time>2024-12-08T02:44:23.619Z</time>
      </trkpt>
      <trkpt lat="45.88957" lon="3.7587">
        <ele>884</ele>
        <time>2024-12-08T02:44:24.620Z</time>
      </trkpt>
      <trkpt lat="45.88959" lon="3.75871">
        <ele>883</ele>
        <time>2024-12-08T02:44:25.619Z</time>
      </trkpt>
      <trkpt lat="45.88961" lon="3.75873">
        <ele>882</ele>
        <time>2024-12-08T02:44:26.619Z</time>
      </trkpt>
      <trkpt lat="45.88962" lon="3.75874">
        <ele>882</ele>
        <time>2024-12-08T02:44:27.619Z</time>
      </trkpt>
      <trkpt lat="45.88963" lon="3.75876">
        <ele>881</ele>
        <time>2024-12-08T02:44:28.620Z</time>
      </trkpt>
      <trkpt lat="45.88965" lon="3.75877">
        <ele>880</ele>
        <time>2024-12-08T02:44:29.620Z</time>
      </trkpt>
      <trkpt lat="45.88966" lon="3.75878">
        <ele>880</ele>
        <time>2024-12-08T02:44:30.620Z</time>
      </trkpt>
      <trkpt lat="45.88967" lon="3.7588">
        <ele>880</ele>
        <time>2024-12-08T02:44:31.620Z</time>
      </trkpt>
      <trkpt lat="45.88968" lon="3.75881">
        <ele>879</ele>
        <time>2024-12-08T02:44:32.619Z</time>
      </trkpt>
      <trkpt lat="45.8897" lon="3.75882">
        <ele>879</ele>
        <time>2024-12-08T02:44:33.620Z</time>
      </trkpt>
      <trkpt lat="45.88971" lon="3.75883">
        <ele>879</ele>
        <time>2024-12-08T02:44:34.620Z</time>
      </trkpt>
      <trkpt lat="45.88973" lon="3.75885">
        <ele>878</ele>
        <time>2024-12-08T02:44:35.619Z</time>
      </trkpt>
      <trkpt lat="45.88974" lon="3.75887">
        <ele>878</ele>
        <time>2024-12-08T02:44:36.619Z</time>
      </trkpt>
      <trkpt lat="45.88976" lon="3.75888">
        <ele>877</ele>
        <time>2024-12-08T02:44:37.620Z</time>
      </trkpt>
      <trkpt lat="45.88977" lon="3.75889">
        <ele>877</ele>
        <time>2024-12-08T02:44:38.619Z</time>
      </trkpt>
      <trkpt lat="45.88979" lon="3.75889">
        <ele>877</ele>
        <time>2024-12-08T02:44:39.620Z</time>
      </trkpt>
      <trkpt lat="45.8898" lon="3.75891">
        <ele>877</ele>
        <time>2024-12-08T02:44:40.620Z</time>
      </trkpt>
      <trkpt lat="45.88982" lon="3.75892">
        <ele>877</ele>
        <time>2024-12-08T02:44:41.619Z</time>
      </trkpt>
      <trkpt lat="45.88983" lon="3.75894">
        <ele>877</ele>
        <time>2024-12-08T02:44:42.619Z</time>
      </trkpt>
      <trkpt lat="45.88985" lon="3.75896">
        <ele>877</ele>
        <time>2024-12-08T02:44:43.620Z</time>
      </trkpt>
      <trkpt lat="45.88986" lon="3.75898">
        <ele>877</ele>
        <time>2024-12-08T02:44:44.619Z</time>
      </trkpt>
      <trkpt lat="45.88987" lon="3.759">
        <ele>878</ele>
        <time>2024-12-08T02:44:45.619Z</time>
      </trkpt>
      <trkpt lat="45.88988" lon="3.75902">
        <ele>878</ele>
        <time>2024-12-08T02:44:46.619Z</time>
      </trkpt>
      <trkpt lat="45.88989" lon="3.75904">
        <ele>878</ele>
        <time>2024-12-08T02:44:47.619Z</time>
      </trkpt>
      <trkpt lat="45.8899" lon="3.75906">
        <ele>878</ele>
        <time>2024-12-08T02:44:48.619Z</time>
      </trkpt>
      <trkpt lat="45.88991" lon="3.75907">
        <ele>878</ele>
        <time>2024-12-08T02:44:49.619Z</time>
      </trkpt>
      <trkpt lat="45.88993" lon="3.75909">
        <ele>877</ele>
        <time>2024-12-08T02:44:50.619Z</time>
      </trkpt>
      <trkpt lat="45.88994" lon="3.75911">
        <ele>877</ele>
        <time>2024-12-08T02:44:51.620Z</time>
      </trkpt>
      <trkpt lat="45.88996" lon="3.75912">
        <ele>877</ele>
        <time>2024-12-08T02:44:52.620Z</time>
      </trkpt>
      <trkpt lat="45.88998" lon="3.75914">
        <ele>878</ele>
        <time>2024-12-08T02:44:53.619Z</time>
      </trkpt>
      <trkpt lat="45.89" lon="3.75916">
        <ele>877</ele>
        <time>2024-12-08T02:44:54.619Z</time>
      </trkpt>
      <trkpt lat="45.89002" lon="3.75919">
        <ele>877</ele>
        <time>2024-12-08T02:44:55.619Z</time>
      </trkpt>
      <trkpt lat="45.89004" lon="3.75921">
        <ele>877</ele>
        <time>2024-12-08T02:44:56.619Z</time>
      </trkpt>
      <trkpt lat="45.89005" lon="3.75923">
        <ele>877</ele>
        <time>2024-12-08T02:44:57.619Z</time>
      </trkpt>
      <trkpt lat="45.89006" lon="3.75925">
        <ele>877</ele>
        <time>2024-12-08T02:44:58.619Z</time>
      </trkpt>
      <trkpt lat="45.89008" lon="3.75927">
        <ele>876</ele>
        <time>2024-12-08T02:44:59.619Z</time>
      </trkpt>
      <trkpt lat="45.8901" lon="3.75929">
        <ele>876</ele>
        <time>2024-12-08T02:45:00.619Z</time>
      </trkpt>
      <trkpt lat="45.89011" lon="3.75931">
        <ele>876</ele>
        <time>2024-12-08T02:45:01.620Z</time>
      </trkpt>
      <trkpt lat="45.89013" lon="3.75932">
        <ele>876</ele>
        <time>2024-12-08T02:45:02.619Z</time>
      </trkpt>
      <trkpt lat="45.89014" lon="3.75934">
        <ele>875</ele>
        <time>2024-12-08T02:45:03.620Z</time>
      </trkpt>
      <trkpt lat="45.89015" lon="3.75936">
        <ele>875</ele>
        <time>2024-12-08T02:45:04.620Z</time>
      </trkpt>
      <trkpt lat="45.89016" lon="3.75938">
        <ele>874</ele>
        <time>2024-12-08T02:45:05.619Z</time>
      </trkpt>
      <trkpt lat="45.89018" lon="3.7594">
        <ele>874</ele>
        <time>2024-12-08T02:45:06.619Z</time>
      </trkpt>
      <trkpt lat="45.89019" lon="3.75941">
        <ele>873</ele>
        <time>2024-12-08T02:45:07.620Z</time>
      </trkpt>
      <trkpt lat="45.89021" lon="3.75943">
        <ele>873</ele>
        <time>2024-12-08T02:45:08.620Z</time>
      </trkpt>
      <trkpt lat="45.89021" lon="3.75946">
        <ele>872</ele>
        <time>2024-12-08T02:45:09.620Z</time>
      </trkpt>
      <trkpt lat="45.89022" lon="3.75949">
        <ele>872</ele>
        <time>2024-12-08T02:45:10.620Z</time>
      </trkpt>
      <trkpt lat="45.89023" lon="3.75951">
        <ele>872</ele>
        <time>2024-12-08T02:45:11.620Z</time>
      </trkpt>
      <trkpt lat="45.89024" lon="3.75953">
        <ele>872</ele>
        <time>2024-12-08T02:45:12.620Z</time>
      </trkpt>
      <trkpt lat="45.89026" lon="3.75955">
        <ele>872</ele>
        <time>2024-12-08T02:45:13.620Z</time>
      </trkpt>
      <trkpt lat="45.89028" lon="3.75957">
        <ele>872</ele>
        <time>2024-12-08T02:45:14.619Z</time>
      </trkpt>
      <trkpt lat="45.89029" lon="3.75959">
        <ele>872</ele>
        <time>2024-12-08T02:45:15.619Z</time>
      </trkpt>
      <trkpt lat="45.89031" lon="3.75962">
        <ele>873</ele>
        <time>2024-12-08T02:45:16.620Z</time>
      </trkpt>
      <trkpt lat="45.89034" lon="3.75965">
        <ele>873</ele>
        <time>2024-12-08T02:45:17.619Z</time>
      </trkpt>
      <trkpt lat="45.89035" lon="3.75967">
        <ele>873</ele>
        <time>2024-12-08T02:45:18.620Z</time>
      </trkpt>
      <trkpt lat="45.89037" lon="3.75969">
        <ele>873</ele>
        <time>2024-12-08T02:45:19.620Z</time>
      </trkpt>
      <trkpt lat="45.89039" lon="3.7597">
        <ele>873</ele>
        <time>2024-12-08T02:45:20.620Z</time>
      </trkpt>
      <trkpt lat="45.8904" lon="3.75972">
        <ele>873</ele>
        <time>2024-12-08T02:45:21.620Z</time>
      </trkpt>
      <trkpt lat="45.89042" lon="3.75974">
        <ele>872</ele>
        <time>2024-12-08T02:45:22.619Z</time>
      </trkpt>
      <trkpt lat="45.89043" lon="3.75976">
        <ele>872</ele>
        <time>2024-12-08T02:45:23.619Z</time>
      </trkpt>
      <trkpt lat="45.89044" lon="3.75978">
        <ele>871</ele>
        <time>2024-12-08T02:45:24.620Z</time>
      </trkpt>
      <trkpt lat="45.89045" lon="3.7598">
        <ele>870</ele>
        <time>2024-12-08T02:45:25.620Z</time>
      </trkpt>
      <trkpt lat="45.89046" lon="3.75982">
        <ele>870</ele>
        <time>2024-12-08T02:45:26.619Z</time>
      </trkpt>
      <trkpt lat="45.89046" lon="3.75984">
        <ele>869</ele>
        <time>2024-12-08T02:45:27.620Z</time>
      </trkpt>
      <trkpt lat="45.89047" lon="3.75985">
        <ele>868</ele>
        <time>2024-12-08T02:45:28.619Z</time>
      </trkpt>
      <trkpt lat="45.89048" lon="3.75987">
        <ele>868</ele>
        <time>2024-12-08T02:45:29.619Z</time>
      </trkpt>
      <trkpt lat="45.89049" lon="3.75988">
        <ele>868</ele>
        <time>2024-12-08T02:45:30.620Z</time>
      </trkpt>
      <trkpt lat="45.89049" lon="3.7599">
        <ele>867</ele>
        <time>2024-12-08T02:45:31.619Z</time>
      </trkpt>
      <trkpt lat="45.8905" lon="3.75991">
        <ele>866</ele>
        <time>2024-12-08T02:45:32.620Z</time>
      </trkpt>
      <trkpt lat="45.89051" lon="3.75993">
        <ele>865</ele>
        <time>2024-12-08T02:45:33.619Z</time>
      </trkpt>
      <trkpt lat="45.89052" lon="3.75995">
        <ele>864</ele>
        <time>2024-12-08T02:45:34.620Z</time>
      </trkpt>
      <trkpt lat="45.89053" lon="3.75997">
        <ele>864</ele>
        <time>2024-12-08T02:45:35.619Z</time>
      </trkpt>
      <trkpt lat="45.89054" lon="3.75998">
        <ele>863</ele>
        <time>2024-12-08T02:45:36.620Z</time>
      </trkpt>
      <trkpt lat="45.89055" lon="3.76">
        <ele>862</ele>
        <time>2024-12-08T02:45:37.620Z</time>
      </trkpt>
      <trkpt lat="45.89056" lon="3.76001">
        <ele>862</ele>
        <time>2024-12-08T02:45:38.619Z</time>
      </trkpt>
      <trkpt lat="45.89057" lon="3.76002">
        <ele>861</ele>
        <time>2024-12-08T02:45:39.619Z</time>
      </trkpt>
      <trkpt lat="45.89057" lon="3.76003">
        <ele>860</ele>
        <time>2024-12-08T02:45:40.620Z</time>
      </trkpt>
      <trkpt lat="45.89058" lon="3.76005">
        <ele>860</ele>
        <time>2024-12-08T02:45:41.619Z</time>
      </trkpt>
      <trkpt lat="45.89059" lon="3.76006">
        <ele>859</ele>
        <time>2024-12-08T02:45:42.619Z</time>
      </trkpt>
      <trkpt lat="45.89061" lon="3.76008">
        <ele>858</ele>
        <time>2024-12-08T02:45:43.620Z</time>
      </trkpt>
      <trkpt lat="45.89062" lon="3.7601">
        <ele>858</ele>
        <time>2024-12-08T02:45:44.620Z</time>
      </trkpt>
      <trkpt lat="45.89063" lon="3.76011">
        <ele>858</ele>
        <time>2024-12-08T02:45:45.619Z</time>
      </trkpt>
      <trkpt lat="45.89065" lon="3.76013">
        <ele>857</ele>
        <time>2024-12-08T02:45:46.620Z</time>
      </trkpt>
      <trkpt lat="45.89066" lon="3.76014">
        <ele>857</ele>
        <time>2024-12-08T02:45:47.619Z</time>
      </trkpt>
      <trkpt lat="45.89067" lon="3.76016">
        <ele>856</ele>
        <time>2024-12-08T02:45:48.619Z</time>
      </trkpt>
      <trkpt lat="45.89068" lon="3.76017">
        <ele>856</ele>
        <time>2024-12-08T02:45:49.620Z</time>
      </trkpt>
      <trkpt lat="45.89069" lon="3.76019">
        <ele>855</ele>
        <time>2024-12-08T02:45:50.620Z</time>
      </trkpt>
      <trkpt lat="45.89071" lon="3.7602">
        <ele>855</ele>
        <time>2024-12-08T02:45:51.619Z</time>
      </trkpt>
      <trkpt lat="45.89073" lon="3.76022">
        <ele>855</ele>
        <time>2024-12-08T02:45:52.620Z</time>
      </trkpt>
      <trkpt lat="45.89074" lon="3.76023">
        <ele>855</ele>
        <time>2024-12-08T02:45:53.619Z</time>
      </trkpt>
      <trkpt lat="45.89076" lon="3.76025">
        <ele>855</ele>
        <time>2024-12-08T02:45:54.619Z</time>
      </trkpt>
      <trkpt lat="45.89077" lon="3.76027">
        <ele>855</ele>
        <time>2024-12-08T02:45:55.619Z</time>
      </trkpt>
      <trkpt lat="45.89078" lon="3.76028">
        <ele>855</ele>
        <time>2024-12-08T02:45:56.620Z</time>
      </trkpt>
      <trkpt lat="45.89079" lon="3.7603">
        <ele>854</ele>
        <time>2024-12-08T02:45:57.620Z</time>
      </trkpt>
      <trkpt lat="45.8908" lon="3.76032">
        <ele>854</ele>
        <time>2024-12-08T02:45:58.620Z</time>
      </trkpt>
      <trkpt lat="45.89081" lon="3.76033">
        <ele>854</ele>
        <time>2024-12-08T02:45:59.620Z</time>
      </trkpt>
      <trkpt lat="45.89082" lon="3.76035">
        <ele>854</ele>
        <time>2024-12-08T02:46:00.620Z</time>
      </trkpt>
      <trkpt lat="45.89084" lon="3.76036">
        <ele>853</ele>
        <time>2024-12-08T02:46:01.619Z</time>
      </trkpt>
      <trkpt lat="45.89085" lon="3.76038">
        <ele>853</ele>
        <time>2024-12-08T02:46:02.620Z</time>
      </trkpt>
      <trkpt lat="45.89086" lon="3.7604">
        <ele>853</ele>
        <time>2024-12-08T02:46:03.619Z</time>
      </trkpt>
      <trkpt lat="45.89087" lon="3.76042">
        <ele>852</ele>
        <time>2024-12-08T02:46:04.620Z</time>
      </trkpt>
      <trkpt lat="45.89088" lon="3.76045">
        <ele>852</ele>
        <time>2024-12-08T02:46:05.619Z</time>
      </trkpt>
      <trkpt lat="45.89089" lon="3.76047">
        <ele>852</ele>
        <time>2024-12-08T02:46:06.620Z</time>
      </trkpt>
      <trkpt lat="45.89089" lon="3.7605">
        <ele>852</ele>
        <time>2024-12-08T02:46:07.620Z</time>
      </trkpt>
      <trkpt lat="45.89089" lon="3.76053">
        <ele>852</ele>
        <time>2024-12-08T02:46:08.619Z</time>
      </trkpt>
      <trkpt lat="45.89089" lon="3.76055">
        <ele>851</ele>
        <time>2024-12-08T02:46:09.619Z</time>
      </trkpt>
      <trkpt lat="45.89088" lon="3.76057">
        <ele>850</ele>
        <time>2024-12-08T02:46:10.619Z</time>
      </trkpt>
      <trkpt lat="45.89087" lon="3.76059">
        <ele>850</ele>
        <time>2024-12-08T02:46:11.620Z</time>
      </trkpt>
      <trkpt lat="45.89087" lon="3.76062">
        <ele>849</ele>
        <time>2024-12-08T02:46:12.619Z</time>
      </trkpt>
      <trkpt lat="45.89085" lon="3.76064">
        <ele>849</ele>
        <time>2024-12-08T02:46:13.620Z</time>
      </trkpt>
      <trkpt lat="45.89084" lon="3.76066">
        <ele>849</ele>
        <time>2024-12-08T02:46:14.620Z</time>
      </trkpt>
      <trkpt lat="45.89084" lon="3.76068">
        <ele>848</ele>
        <time>2024-12-08T02:46:15.619Z</time>
      </trkpt>
      <trkpt lat="45.89083" lon="3.7607">
        <ele>848</ele>
        <time>2024-12-08T02:46:16.619Z</time>
      </trkpt>
      <trkpt lat="45.89081" lon="3.76071">
        <ele>848</ele>
        <time>2024-12-08T02:46:17.619Z</time>
      </trkpt>
      <trkpt lat="45.89079" lon="3.76073">
        <ele>848</ele>
        <time>2024-12-08T02:46:18.619Z</time>
      </trkpt>
      <trkpt lat="45.89078" lon="3.76074">
        <ele>848</ele>
        <time>2024-12-08T02:46:19.619Z</time>
      </trkpt>
      <trkpt lat="45.89076" lon="3.76076">
        <ele>848</ele>
        <time>2024-12-08T02:46:20.619Z</time>
      </trkpt>
      <trkpt lat="45.89074" lon="3.76076">
        <ele>848</ele>
        <time>2024-12-08T02:46:21.619Z</time>
      </trkpt>
      <trkpt lat="45.89072" lon="3.76077">
        <ele>848</ele>
        <time>2024-12-08T02:46:22.619Z</time>
      </trkpt>
      <trkpt lat="45.8907" lon="3.76078">
        <ele>848</ele>
        <time>2024-12-08T02:46:23.619Z</time>
      </trkpt>
      <trkpt lat="45.89069" lon="3.76079">
        <ele>848</ele>
        <time>2024-12-08T02:46:24.619Z</time>
      </trkpt>
      <trkpt lat="45.89067" lon="3.76079">
        <ele>848</ele>
        <time>2024-12-08T02:46:25.620Z</time>
      </trkpt>
      <trkpt lat="45.89065" lon="3.76079">
        <ele>848</ele>
        <time>2024-12-08T02:46:26.619Z</time>
      </trkpt>
      <trkpt lat="45.89063" lon="3.76078">
        <ele>849</ele>
        <time>2024-12-08T02:46:27.619Z</time>
      </trkpt>
      <trkpt lat="45.89061" lon="3.76077">
        <ele>849</ele>
        <time>2024-12-08T02:46:28.620Z</time>
      </trkpt>
      <trkpt lat="45.8906" lon="3.76077">
        <ele>849</ele>
        <time>2024-12-08T02:46:29.619Z</time>
      </trkpt>
      <trkpt lat="45.89058" lon="3.76076">
        <ele>849</ele>
        <time>2024-12-08T02:46:30.620Z</time>
      </trkpt>
      <trkpt lat="45.89056" lon="3.76075">
        <ele>849</ele>
        <time>2024-12-08T02:46:31.619Z</time>
      </trkpt>
      <trkpt lat="45.89055" lon="3.76074">
        <ele>849</ele>
        <time>2024-12-08T02:46:32.620Z</time>
      </trkpt>
      <trkpt lat="45.89053" lon="3.76074">
        <ele>849</ele>
        <time>2024-12-08T02:46:33.620Z</time>
      </trkpt>
      <trkpt lat="45.89051" lon="3.76073">
        <ele>849</ele>
        <time>2024-12-08T02:46:34.620Z</time>
      </trkpt>
      <trkpt lat="45.89049" lon="3.76073">
        <ele>850</ele>
        <time>2024-12-08T02:46:35.619Z</time>
      </trkpt>
      <trkpt lat="45.89047" lon="3.76073">
        <ele>850</ele>
        <time>2024-12-08T02:46:36.620Z</time>
      </trkpt>
      <trkpt lat="45.89046" lon="3.76074">
        <ele>850</ele>
        <time>2024-12-08T02:46:37.620Z</time>
      </trkpt>
      <trkpt lat="45.89044" lon="3.76074">
        <ele>851</ele>
        <time>2024-12-08T02:46:38.620Z</time>
      </trkpt>
      <trkpt lat="45.89043" lon="3.76074">
        <ele>851</ele>
        <time>2024-12-08T02:46:39.619Z</time>
      </trkpt>
      <trkpt lat="45.8904" lon="3.76074">
        <ele>851</ele>
        <time>2024-12-08T02:46:40.619Z</time>
      </trkpt>
      <trkpt lat="45.89038" lon="3.76074">
        <ele>852</ele>
        <time>2024-12-08T02:46:41.619Z</time>
      </trkpt>
      <trkpt lat="45.89036" lon="3.76074">
        <ele>852</ele>
        <time>2024-12-08T02:46:42.619Z</time>
      </trkpt>
      <trkpt lat="45.89034" lon="3.76073">
        <ele>853</ele>
        <time>2024-12-08T02:46:43.620Z</time>
      </trkpt>
      <trkpt lat="45.89032" lon="3.76073">
        <ele>853</ele>
        <time>2024-12-08T02:46:44.619Z</time>
      </trkpt>
      <trkpt lat="45.8903" lon="3.76073">
        <ele>853</ele>
        <time>2024-12-08T02:46:45.620Z</time>
      </trkpt>
      <trkpt lat="45.89028" lon="3.76073">
        <ele>853</ele>
        <time>2024-12-08T02:46:46.620Z</time>
      </trkpt>
      <trkpt lat="45.89025" lon="3.76074">
        <ele>853</ele>
        <time>2024-12-08T02:46:47.619Z</time>
      </trkpt>
      <trkpt lat="45.89023" lon="3.76073">
        <ele>853</ele>
        <time>2024-12-08T02:46:48.619Z</time>
      </trkpt>
      <trkpt lat="45.89021" lon="3.76073">
        <ele>853</ele>
        <time>2024-12-08T02:46:49.620Z</time>
      </trkpt>
      <trkpt lat="45.89019" lon="3.76073">
        <ele>853</ele>
        <time>2024-12-08T02:46:50.619Z</time>
      </trkpt>
      <trkpt lat="45.89017" lon="3.76074">
        <ele>853</ele>
        <time>2024-12-08T02:46:51.619Z</time>
      </trkpt>
      <trkpt lat="45.89015" lon="3.76074">
        <ele>853</ele>
        <time>2024-12-08T02:46:52.620Z</time>
      </trkpt>
      <trkpt lat="45.89013" lon="3.76074">
        <ele>853</ele>
        <time>2024-12-08T02:46:53.620Z</time>
      </trkpt>
      <trkpt lat="45.89011" lon="3.76074">
        <ele>853</ele>
        <time>2024-12-08T02:46:54.619Z</time>
      </trkpt>
      <trkpt lat="45.8901" lon="3.76074">
        <ele>853</ele>
        <time>2024-12-08T02:46:55.619Z</time>
      </trkpt>
      <trkpt lat="45.89008" lon="3.76073">
        <ele>853</ele>
        <time>2024-12-08T02:46:56.619Z</time>
      </trkpt>
      <trkpt lat="45.89007" lon="3.76072">
        <ele>853</ele>
        <time>2024-12-08T02:46:57.620Z</time>
      </trkpt>
      <trkpt lat="45.89005" lon="3.76072">
        <ele>853</ele>
        <time>2024-12-08T02:46:58.620Z</time>
      </trkpt>
      <trkpt lat="45.89003" lon="3.76073">
        <ele>853</ele>
        <time>2024-12-08T02:46:59.619Z</time>
      </trkpt>
      <trkpt lat="45.89002" lon="3.76073">
        <ele>853</ele>
        <time>2024-12-08T02:47:00.620Z</time>
      </trkpt>
      <trkpt lat="45.89" lon="3.76073">
        <ele>853</ele>
        <time>2024-12-08T02:47:01.620Z</time>
      </trkpt>
      <trkpt lat="45.88998" lon="3.76074">
        <ele>853</ele>
        <time>2024-12-08T02:47:02.620Z</time>
      </trkpt>
      <trkpt lat="45.88997" lon="3.76074">
        <ele>854</ele>
        <time>2024-12-08T02:47:03.619Z</time>
      </trkpt>
      <trkpt lat="45.88995" lon="3.76074">
        <ele>854</ele>
        <time>2024-12-08T02:47:04.620Z</time>
      </trkpt>
      <trkpt lat="45.88993" lon="3.76074">
        <ele>854</ele>
        <time>2024-12-08T02:47:05.620Z</time>
      </trkpt>
      <trkpt lat="45.88992" lon="3.76074">
        <ele>854</ele>
        <time>2024-12-08T02:47:06.619Z</time>
      </trkpt>
      <trkpt lat="45.88989" lon="3.76073">
        <ele>855</ele>
        <time>2024-12-08T02:47:07.620Z</time>
      </trkpt>
      <trkpt lat="45.88987" lon="3.76074">
        <ele>855</ele>
        <time>2024-12-08T02:47:08.619Z</time>
      </trkpt>
      <trkpt lat="45.88985" lon="3.76074">
        <ele>855</ele>
        <time>2024-12-08T02:47:09.620Z</time>
      </trkpt>
      <trkpt lat="45.88983" lon="3.76074">
        <ele>855</ele>
        <time>2024-12-08T02:47:10.620Z</time>
      </trkpt>
      <trkpt lat="45.8898" lon="3.76074">
        <ele>856</ele>
        <time>2024-12-08T02:47:11.620Z</time>
      </trkpt>
      <trkpt lat="45.88978" lon="3.76074">
        <ele>856</ele>
        <time>2024-12-08T02:47:12.619Z</time>
      </trkpt>
      <trkpt lat="45.88977" lon="3.76074">
        <ele>856</ele>
        <time>2024-12-08T02:47:13.619Z</time>
      </trkpt>
      <trkpt lat="45.88975" lon="3.76075">
        <ele>856</ele>
        <time>2024-12-08T02:47:14.620Z</time>
      </trkpt>
      <trkpt lat="45.88973" lon="3.76076">
        <ele>856</ele>
        <time>2024-12-08T02:47:15.620Z</time>
      </trkpt>
      <trkpt lat="45.88972" lon="3.76076">
        <ele>856</ele>
        <time>2024-12-08T02:47:16.620Z</time>
      </trkpt>
      <trkpt lat="45.8897" lon="3.76076">
        <ele>856</ele>
        <time>2024-12-08T02:47:17.620Z</time>
      </trkpt>
      <trkpt lat="45.88968" lon="3.76077">
        <ele>856</ele>
        <time>2024-12-08T02:47:18.619Z</time>
      </trkpt>
      <trkpt lat="45.88966" lon="3.76077">
        <ele>856</ele>
        <time>2024-12-08T02:47:19.619Z</time>
      </trkpt>
      <trkpt lat="45.88964" lon="3.76077">
        <ele>856</ele>
        <time>2024-12-08T02:47:20.620Z</time>
      </trkpt>
      <trkpt lat="45.88963" lon="3.76077">
        <ele>856</ele>
        <time>2024-12-08T02:47:21.619Z</time>
      </trkpt>
      <trkpt lat="45.88961" lon="3.76078">
        <ele>856</ele>
        <time>2024-12-08T02:47:22.619Z</time>
      </trkpt>
      <trkpt lat="45.88959" lon="3.76078">
        <ele>856</ele>
        <time>2024-12-08T02:47:23.619Z</time>
      </trkpt>
      <trkpt lat="45.88958" lon="3.76078">
        <ele>855</ele>
        <time>2024-12-08T02:47:24.619Z</time>
      </trkpt>
      <trkpt lat="45.88957" lon="3.76078">
        <ele>855</ele>
        <time>2024-12-08T02:47:25.619Z</time>
      </trkpt>
      <trkpt lat="45.88955" lon="3.76079">
        <ele>855</ele>
        <time>2024-12-08T02:47:26.619Z</time>
      </trkpt>
      <trkpt lat="45.88954" lon="3.7608">
        <ele>854</ele>
        <time>2024-12-08T02:47:27.620Z</time>
      </trkpt>
      <trkpt lat="45.88951" lon="3.7608">
        <ele>854</ele>
        <time>2024-12-08T02:47:28.619Z</time>
      </trkpt>
      <trkpt lat="45.88949" lon="3.76081">
        <ele>854</ele>
        <time>2024-12-08T02:47:29.620Z</time>
      </trkpt>
      <trkpt lat="45.88947" lon="3.76081">
        <ele>854</ele>
        <time>2024-12-08T02:47:30.620Z</time>
      </trkpt>
      <trkpt lat="45.88946" lon="3.76081">
        <ele>854</ele>
        <time>2024-12-08T02:47:31.620Z</time>
      </trkpt>
      <trkpt lat="45.88944" lon="3.76082">
        <ele>853</ele>
        <time>2024-12-08T02:47:32.620Z</time>
      </trkpt>
      <trkpt lat="45.88943" lon="3.76082">
        <ele>853</ele>
        <time>2024-12-08T02:47:33.619Z</time>
      </trkpt>
      <trkpt lat="45.88942" lon="3.76083">
        <ele>853</ele>
        <time>2024-12-08T02:47:34.619Z</time>
      </trkpt>
      <trkpt lat="45.8894" lon="3.76083">
        <ele>853</ele>
        <time>2024-12-08T02:47:35.619Z</time>
      </trkpt>
      <trkpt lat="45.88939" lon="3.76084">
        <ele>852</ele>
        <time>2024-12-08T02:47:36.619Z</time>
      </trkpt>
      <trkpt lat="45.88937" lon="3.76085">
        <ele>852</ele>
        <time>2024-12-08T02:47:37.620Z</time>
      </trkpt>
      <trkpt lat="45.88936" lon="3.76087">
        <ele>852</ele>
        <time>2024-12-08T02:47:38.619Z</time>
      </trkpt>
      <trkpt lat="45.88935" lon="3.76088">
        <ele>851</ele>
        <time>2024-12-08T02:47:39.620Z</time>
      </trkpt>
      <trkpt lat="45.88934" lon="3.76089">
        <ele>850</ele>
        <time>2024-12-08T02:47:40.619Z</time>
      </trkpt>
      <trkpt lat="45.88933" lon="3.76091">
        <ele>849</ele>
        <time>2024-12-08T02:47:41.620Z</time>
      </trkpt>
      <trkpt lat="45.88932" lon="3.76092">
        <ele>849</ele>
        <time>2024-12-08T02:47:42.620Z</time>
      </trkpt>
      <trkpt lat="45.88931" lon="3.76094">
        <ele>848</ele>
        <time>2024-12-08T02:47:43.619Z</time>
      </trkpt>
      <trkpt lat="45.8893" lon="3.76096">
        <ele>847</ele>
        <time>2024-12-08T02:47:44.620Z</time>
      </trkpt>
      <trkpt lat="45.88929" lon="3.76097">
        <ele>846</ele>
        <time>2024-12-08T02:47:45.619Z</time>
      </trkpt>
      <trkpt lat="45.88929" lon="3.761">
        <ele>844</ele>
        <time>2024-12-08T02:47:46.620Z</time>
      </trkpt>
      <trkpt lat="45.88928" lon="3.76101">
        <ele>843</ele>
        <time>2024-12-08T02:47:47.620Z</time>
      </trkpt>
      <trkpt lat="45.88928" lon="3.76103">
        <ele>842</ele>
        <time>2024-12-08T02:47:48.620Z</time>
      </trkpt>
      <trkpt lat="45.88928" lon="3.76105">
        <ele>840</ele>
        <time>2024-12-08T02:47:49.619Z</time>
      </trkpt>
      <trkpt lat="45.88928" lon="3.76108">
        <ele>839</ele>
        <time>2024-12-08T02:47:50.620Z</time>
      </trkpt>
      <trkpt lat="45.88928" lon="3.7611">
        <ele>838</ele>
        <time>2024-12-08T02:47:51.620Z</time>
      </trkpt>
      <trkpt lat="45.88928" lon="3.76113">
        <ele>837</ele>
        <time>2024-12-08T02:47:52.620Z</time>
      </trkpt>
      <trkpt lat="45.88929" lon="3.76116">
        <ele>836</ele>
        <time>2024-12-08T02:47:53.619Z</time>
      </trkpt>
      <trkpt lat="45.88929" lon="3.76117">
        <ele>836</ele>
        <time>2024-12-08T02:47:54.619Z</time>
      </trkpt>
      <trkpt lat="45.88929" lon="3.76119">
        <ele>835</ele>
        <time>2024-12-08T02:47:55.619Z</time>
      </trkpt>
      <trkpt lat="45.8893" lon="3.76121">
        <ele>834</ele>
        <time>2024-12-08T02:47:56.619Z</time>
      </trkpt>
      <trkpt lat="45.88931" lon="3.76124">
        <ele>834</ele>
        <time>2024-12-08T02:47:57.620Z</time>
      </trkpt>
      <trkpt lat="45.88932" lon="3.76126">
        <ele>833</ele>
        <time>2024-12-08T02:47:58.620Z</time>
      </trkpt>
      <trkpt lat="45.88932" lon="3.76128">
        <ele>833</ele>
        <time>2024-12-08T02:47:59.619Z</time>
      </trkpt>
      <trkpt lat="45.88932" lon="3.7613">
        <ele>833</ele>
        <time>2024-12-08T02:48:00.620Z</time>
      </trkpt>
      <trkpt lat="45.88932" lon="3.76132">
        <ele>832</ele>
        <time>2024-12-08T02:48:01.619Z</time>
      </trkpt>
      <trkpt lat="45.88932" lon="3.76134">
        <ele>832</ele>
        <time>2024-12-08T02:48:02.620Z</time>
      </trkpt>
      <trkpt lat="45.88933" lon="3.76136">
        <ele>831</ele>
        <time>2024-12-08T02:48:03.619Z</time>
      </trkpt>
      <trkpt lat="45.88934" lon="3.76138">
        <ele>831</ele>
        <time>2024-12-08T02:48:04.620Z</time>
      </trkpt>
      <trkpt lat="45.88935" lon="3.7614">
        <ele>830</ele>
        <time>2024-12-08T02:48:05.619Z</time>
      </trkpt>
      <trkpt lat="45.88936" lon="3.76142">
        <ele>830</ele>
        <time>2024-12-08T02:48:06.620Z</time>
      </trkpt>
      <trkpt lat="45.88937" lon="3.76145">
        <ele>829</ele>
        <time>2024-12-08T02:48:07.619Z</time>
      </trkpt>
      <trkpt lat="45.88938" lon="3.76148">
        <ele>829</ele>
        <time>2024-12-08T02:48:08.620Z</time>
      </trkpt>
      <trkpt lat="45.88939" lon="3.76151">
        <ele>829</ele>
        <time>2024-12-08T02:48:09.620Z</time>
      </trkpt>
      <trkpt lat="45.8894" lon="3.76153">
        <ele>829</ele>
        <time>2024-12-08T02:48:10.620Z</time>
      </trkpt>
      <trkpt lat="45.8894" lon="3.76156">
        <ele>829</ele>
        <time>2024-12-08T02:48:11.620Z</time>
      </trkpt>
      <trkpt lat="45.88941" lon="3.76158">
        <ele>829</ele>
        <time>2024-12-08T02:48:12.619Z</time>
      </trkpt>
      <trkpt lat="45.88942" lon="3.76161">
        <ele>830</ele>
        <time>2024-12-08T02:48:13.620Z</time>
      </trkpt>
      <trkpt lat="45.88942" lon="3.76164">
        <ele>830</ele>
        <time>2024-12-08T02:48:14.619Z</time>
      </trkpt>
      <trkpt lat="45.88943" lon="3.76167">
        <ele>830</ele>
        <time>2024-12-08T02:48:15.620Z</time>
      </trkpt>
      <trkpt lat="45.88944" lon="3.7617">
        <ele>830</ele>
        <time>2024-12-08T02:48:16.619Z</time>
      </trkpt>
      <trkpt lat="45.88946" lon="3.76173">
        <ele>830</ele>
        <time>2024-12-08T02:48:17.619Z</time>
      </trkpt>
      <trkpt lat="45.88946" lon="3.76175">
        <ele>830</ele>
        <time>2024-12-08T02:48:18.619Z</time>
      </trkpt>
      <trkpt lat="45.88947" lon="3.76177">
        <ele>830</ele>
        <time>2024-12-08T02:48:19.620Z</time>
      </trkpt>
      <trkpt lat="45.88947" lon="3.7618">
        <ele>830</ele>
        <time>2024-12-08T02:48:20.619Z</time>
      </trkpt>
      <trkpt lat="45.88948" lon="3.76183">
        <ele>830</ele>
        <time>2024-12-08T02:48:21.619Z</time>
      </trkpt>
      <trkpt lat="45.88948" lon="3.76186">
        <ele>831</ele>
        <time>2024-12-08T02:48:22.620Z</time>
      </trkpt>
      <trkpt lat="45.88948" lon="3.76189">
        <ele>831</ele>
        <time>2024-12-08T02:48:23.620Z</time>
      </trkpt>
      <trkpt lat="45.88948" lon="3.76191">
        <ele>831</ele>
        <time>2024-12-08T02:48:24.620Z</time>
      </trkpt>
      <trkpt lat="45.88947" lon="3.76194">
        <ele>831</ele>
        <time>2024-12-08T02:48:25.619Z</time>
      </trkpt>
      <trkpt lat="45.88946" lon="3.76198">
        <ele>831</ele>
        <time>2024-12-08T02:48:26.619Z</time>
      </trkpt>
      <trkpt lat="45.88947" lon="3.76202">
        <ele>832</ele>
        <time>2024-12-08T02:48:27.619Z</time>
      </trkpt>
      <trkpt lat="45.88948" lon="3.76205">
        <ele>832</ele>
        <time>2024-12-08T02:48:28.619Z</time>
      </trkpt>
      <trkpt lat="45.88949" lon="3.76208">
        <ele>832</ele>
        <time>2024-12-08T02:48:29.619Z</time>
      </trkpt>
      <trkpt lat="45.88949" lon="3.76208">
        <ele>832</ele>
        <time>2024-12-08T02:48:30.620Z</time>
      </trkpt>
      <trkpt lat="45.8895" lon="3.76209">
        <ele>831</ele>
        <time>2024-12-08T02:48:31.620Z</time>
      </trkpt>
      <trkpt lat="45.8895" lon="3.7621">
        <ele>831</ele>
        <time>2024-12-08T02:48:32.619Z</time>
      </trkpt>
      <trkpt lat="45.8895" lon="3.76212">
        <ele>830</ele>
        <time>2024-12-08T02:48:33.620Z</time>
      </trkpt>
      <trkpt lat="45.8895" lon="3.76215">
        <ele>829</ele>
        <time>2024-12-08T02:48:34.619Z</time>
      </trkpt>
      <trkpt lat="45.8895" lon="3.76217">
        <ele>829</ele>
        <time>2024-12-08T02:48:35.619Z</time>
      </trkpt>
      <trkpt lat="45.88951" lon="3.76219">
        <ele>828</ele>
        <time>2024-12-08T02:48:36.619Z</time>
      </trkpt>
      <trkpt lat="45.88951" lon="3.76221">
        <ele>827</ele>
        <time>2024-12-08T02:48:37.619Z</time>
      </trkpt>
      <trkpt lat="45.88952" lon="3.76224">
        <ele>826</ele>
        <time>2024-12-08T02:48:38.619Z</time>
      </trkpt>
      <trkpt lat="45.88952" lon="3.76226">
        <ele>826</ele>
        <time>2024-12-08T02:48:39.620Z</time>
      </trkpt>
      <trkpt lat="45.88953" lon="3.76229">
        <ele>825</ele>
        <time>2024-12-08T02:48:40.619Z</time>
      </trkpt>
      <trkpt lat="45.88954" lon="3.76231">
        <ele>825</ele>
        <time>2024-12-08T02:48:41.619Z</time>
      </trkpt>
      <trkpt lat="45.88955" lon="3.76233">
        <ele>824</ele>
        <time>2024-12-08T02:48:42.619Z</time>
      </trkpt>
      <trkpt lat="45.88956" lon="3.76234">
        <ele>824</ele>
        <time>2024-12-08T02:48:43.619Z</time>
      </trkpt>
      <trkpt lat="45.88957" lon="3.76236">
        <ele>823</ele>
        <time>2024-12-08T02:48:44.619Z</time>
      </trkpt>
      <trkpt lat="45.88958" lon="3.76238">
        <ele>822</ele>
        <time>2024-12-08T02:48:45.620Z</time>
      </trkpt>
      <trkpt lat="45.88959" lon="3.76241">
        <ele>822</ele>
        <time>2024-12-08T02:48:46.620Z</time>
      </trkpt>
      <trkpt lat="45.8896" lon="3.76243">
        <ele>821</ele>
        <time>2024-12-08T02:48:47.619Z</time>
      </trkpt>
      <trkpt lat="45.8896" lon="3.76245">
        <ele>821</ele>
        <time>2024-12-08T02:48:48.619Z</time>
      </trkpt>
      <trkpt lat="45.8896" lon="3.76248">
        <ele>821</ele>
        <time>2024-12-08T02:48:49.619Z</time>
      </trkpt>
      <trkpt lat="45.88961" lon="3.7625">
        <ele>820</ele>
        <time>2024-12-08T02:48:50.619Z</time>
      </trkpt>
      <trkpt lat="45.88961" lon="3.76253">
        <ele>820</ele>
        <time>2024-12-08T02:48:51.619Z</time>
      </trkpt>
      <trkpt lat="45.88961" lon="3.76255">
        <ele>820</ele>
        <time>2024-12-08T02:48:52.620Z</time>
      </trkpt>
      <trkpt lat="45.88961" lon="3.76258">
        <ele>819</ele>
        <time>2024-12-08T02:48:53.619Z</time>
      </trkpt>
      <trkpt lat="45.88961" lon="3.7626">
        <ele>819</ele>
        <time>2024-12-08T02:48:54.620Z</time>
      </trkpt>
      <trkpt lat="45.88961" lon="3.76262">
        <ele>819</ele>
        <time>2024-12-08T02:48:55.619Z</time>
      </trkpt>
      <trkpt lat="45.88961" lon="3.76264">
        <ele>819</ele>
        <time>2024-12-08T02:48:56.620Z</time>
      </trkpt>
      <trkpt lat="45.88961" lon="3.76267">
        <ele>818</ele>
        <time>2024-12-08T02:48:57.619Z</time>
      </trkpt>
      <trkpt lat="45.88962" lon="3.76269">
        <ele>818</ele>
        <time>2024-12-08T02:48:58.620Z</time>
      </trkpt>
      <trkpt lat="45.88962" lon="3.76272">
        <ele>818</ele>
        <time>2024-12-08T02:48:59.620Z</time>
      </trkpt>
      <trkpt lat="45.88962" lon="3.76275">
        <ele>818</ele>
        <time>2024-12-08T02:49:00.620Z</time>
      </trkpt>
      <trkpt lat="45.88961" lon="3.76276">
        <ele>818</ele>
        <time>2024-12-08T02:49:01.620Z</time>
      </trkpt>
      <trkpt lat="45.88961" lon="3.76279">
        <ele>818</ele>
        <time>2024-12-08T02:49:02.619Z</time>
      </trkpt>
      <trkpt lat="45.88962" lon="3.76282">
        <ele>818</ele>
        <time>2024-12-08T02:49:03.619Z</time>
      </trkpt>
      <trkpt lat="45.88962" lon="3.76284">
        <ele>818</ele>
        <time>2024-12-08T02:49:04.619Z</time>
      </trkpt>
      <trkpt lat="45.88962" lon="3.76286">
        <ele>817</ele>
        <time>2024-12-08T02:49:05.620Z</time>
      </trkpt>
      <trkpt lat="45.88962" lon="3.76288">
        <ele>817</ele>
        <time>2024-12-08T02:49:06.620Z</time>
      </trkpt>
      <trkpt lat="45.88963" lon="3.7629">
        <ele>817</ele>
        <time>2024-12-08T02:49:07.619Z</time>
      </trkpt>
      <trkpt lat="45.88963" lon="3.76293">
        <ele>817</ele>
        <time>2024-12-08T02:49:08.620Z</time>
      </trkpt>
      <trkpt lat="45.88964" lon="3.76296">
        <ele>817</ele>
        <time>2024-12-08T02:49:09.619Z</time>
      </trkpt>
      <trkpt lat="45.88965" lon="3.76299">
        <ele>817</ele>
        <time>2024-12-08T02:49:10.620Z</time>
      </trkpt>
      <trkpt lat="45.88965" lon="3.76301">
        <ele>817</ele>
        <time>2024-12-08T02:49:11.620Z</time>
      </trkpt>
      <trkpt lat="45.88965" lon="3.76303">
        <ele>817</ele>
        <time>2024-12-08T02:49:12.620Z</time>
      </trkpt>
      <trkpt lat="45.88965" lon="3.76305">
        <ele>816</ele>
        <time>2024-12-08T02:49:13.619Z</time>
      </trkpt>
      <trkpt lat="45.88964" lon="3.76307">
        <ele>815</ele>
        <time>2024-12-08T02:49:14.620Z</time>
      </trkpt>
      <trkpt lat="45.88964" lon="3.7631">
        <ele>814</ele>
        <time>2024-12-08T02:49:15.619Z</time>
      </trkpt>
      <trkpt lat="45.88964" lon="3.76312">
        <ele>814</ele>
        <time>2024-12-08T02:49:16.619Z</time>
      </trkpt>
      <trkpt lat="45.88965" lon="3.76314">
        <ele>813</ele>
        <time>2024-12-08T02:49:17.619Z</time>
      </trkpt>
      <trkpt lat="45.88965" lon="3.76317">
        <ele>813</ele>
        <time>2024-12-08T02:49:18.620Z</time>
      </trkpt>
      <trkpt lat="45.88964" lon="3.76319">
        <ele>813</ele>
        <time>2024-12-08T02:49:19.620Z</time>
      </trkpt>
      <trkpt lat="45.88965" lon="3.76321">
        <ele>812</ele>
        <time>2024-12-08T02:49:20.620Z</time>
      </trkpt>
      <trkpt lat="45.88965" lon="3.76324">
        <ele>812</ele>
        <time>2024-12-08T02:49:21.619Z</time>
      </trkpt>
      <trkpt lat="45.88967" lon="3.76327">
        <ele>812</ele>
        <time>2024-12-08T02:49:22.620Z</time>
      </trkpt>
      <trkpt lat="45.88968" lon="3.7633">
        <ele>812</ele>
        <time>2024-12-08T02:49:23.619Z</time>
      </trkpt>
      <trkpt lat="45.8897" lon="3.76333">
        <ele>813</ele>
        <time>2024-12-08T02:49:24.620Z</time>
      </trkpt>
      <trkpt lat="45.8897" lon="3.76335">
        <ele>813</ele>
        <time>2024-12-08T02:49:25.619Z</time>
      </trkpt>
      <trkpt lat="45.88971" lon="3.76337">
        <ele>813</ele>
        <time>2024-12-08T02:49:26.619Z</time>
      </trkpt>
      <trkpt lat="45.8897" lon="3.7634">
        <ele>814</ele>
        <time>2024-12-08T02:49:27.620Z</time>
      </trkpt>
      <trkpt lat="45.88971" lon="3.76343">
        <ele>814</ele>
        <time>2024-12-08T02:49:28.619Z</time>
      </trkpt>
      <trkpt lat="45.88971" lon="3.76345">
        <ele>814</ele>
        <time>2024-12-08T02:49:29.620Z</time>
      </trkpt>
      <trkpt lat="45.88971" lon="3.76347">
        <ele>813</ele>
        <time>2024-12-08T02:49:30.619Z</time>
      </trkpt>
      <trkpt lat="45.88971" lon="3.76349">
        <ele>813</ele>
        <time>2024-12-08T02:49:31.620Z</time>
      </trkpt>
      <trkpt lat="45.88972" lon="3.76351">
        <ele>813</ele>
        <time>2024-12-08T02:49:32.619Z</time>
      </trkpt>
      <trkpt lat="45.88972" lon="3.76353">
        <ele>812</ele>
        <time>2024-12-08T02:49:33.620Z</time>
      </trkpt>
      <trkpt lat="45.88973" lon="3.76355">
        <ele>812</ele>
        <time>2024-12-08T02:49:34.620Z</time>
      </trkpt>
      <trkpt lat="45.88973" lon="3.76356">
        <ele>812</ele>
        <time>2024-12-08T02:49:35.619Z</time>
      </trkpt>
      <trkpt lat="45.88973" lon="3.76358">
        <ele>811</ele>
        <time>2024-12-08T02:49:36.619Z</time>
      </trkpt>
      <trkpt lat="45.88973" lon="3.7636">
        <ele>811</ele>
        <time>2024-12-08T02:49:37.620Z</time>
      </trkpt>
      <trkpt lat="45.88973" lon="3.76363">
        <ele>811</ele>
        <time>2024-12-08T02:49:38.619Z</time>
      </trkpt>
      <trkpt lat="45.88974" lon="3.76365">
        <ele>810</ele>
        <time>2024-12-08T02:49:39.620Z</time>
      </trkpt>
      <trkpt lat="45.88974" lon="3.76367">
        <ele>810</ele>
        <time>2024-12-08T02:49:40.620Z</time>
      </trkpt>
      <trkpt lat="45.88974" lon="3.76369">
        <ele>810</ele>
        <time>2024-12-08T02:49:41.619Z</time>
      </trkpt>
      <trkpt lat="45.88975" lon="3.76372">
        <ele>810</ele>
        <time>2024-12-08T02:49:42.619Z</time>
      </trkpt>
      <trkpt lat="45.88975" lon="3.76374">
        <ele>810</ele>
        <time>2024-12-08T02:49:43.620Z</time>
      </trkpt>
      <trkpt lat="45.88975" lon="3.76375">
        <ele>810</ele>
        <time>2024-12-08T02:49:44.619Z</time>
      </trkpt>
      <trkpt lat="45.88976" lon="3.76376">
        <ele>810</ele>
        <time>2024-12-08T02:49:45.619Z</time>
      </trkpt>
      <trkpt lat="45.88976" lon="3.76379">
        <ele>810</ele>
        <time>2024-12-08T02:49:46.620Z</time>
      </trkpt>
      <trkpt lat="45.88976" lon="3.7638">
        <ele>809</ele>
        <time>2024-12-08T02:49:47.619Z</time>
      </trkpt>
      <trkpt lat="45.88977" lon="3.76382">
        <ele>809</ele>
        <time>2024-12-08T02:49:48.620Z</time>
      </trkpt>
      <trkpt lat="45.88977" lon="3.76384">
        <ele>809</ele>
        <time>2024-12-08T02:49:49.619Z</time>
      </trkpt>
      <trkpt lat="45.88977" lon="3.76386">
        <ele>809</ele>
        <time>2024-12-08T02:49:50.619Z</time>
      </trkpt>
      <trkpt lat="45.88977" lon="3.76389">
        <ele>808</ele>
        <time>2024-12-08T02:49:51.620Z</time>
      </trkpt>
      <trkpt lat="45.88977" lon="3.76391">
        <ele>808</ele>
        <time>2024-12-08T02:49:52.619Z</time>
      </trkpt>
      <trkpt lat="45.88977" lon="3.76393">
        <ele>808</ele>
        <time>2024-12-08T02:49:53.619Z</time>
      </trkpt>
      <trkpt lat="45.88978" lon="3.76396">
        <ele>807</ele>
        <time>2024-12-08T02:49:54.619Z</time>
      </trkpt>
      <trkpt lat="45.88978" lon="3.76398">
        <ele>807</ele>
        <time>2024-12-08T02:49:55.620Z</time>
      </trkpt>
      <trkpt lat="45.88978" lon="3.76401">
        <ele>807</ele>
        <time>2024-12-08T02:49:56.619Z</time>
      </trkpt>
      <trkpt lat="45.88979" lon="3.76403">
        <ele>806</ele>
        <time>2024-12-08T02:49:57.620Z</time>
      </trkpt>
      <trkpt lat="45.88979" lon="3.76405">
        <ele>806</ele>
        <time>2024-12-08T02:49:58.620Z</time>
      </trkpt>
      <trkpt lat="45.8898" lon="3.76408">
        <ele>805</ele>
        <time>2024-12-08T02:49:59.619Z</time>
      </trkpt>
      <trkpt lat="45.8898" lon="3.76411">
        <ele>805</ele>
        <time>2024-12-08T02:50:00.620Z</time>
      </trkpt>
      <trkpt lat="45.8898" lon="3.76413">
        <ele>806</ele>
        <time>2024-12-08T02:50:01.619Z</time>
      </trkpt>
      <trkpt lat="45.88981" lon="3.76416">
        <ele>806</ele>
        <time>2024-12-08T02:50:02.619Z</time>
      </trkpt>
      <trkpt lat="45.88981" lon="3.76418">
        <ele>806</ele>
        <time>2024-12-08T02:50:03.619Z</time>
      </trkpt>
      <trkpt lat="45.88982" lon="3.76421">
        <ele>806</ele>
        <time>2024-12-08T02:50:04.619Z</time>
      </trkpt>
      <trkpt lat="45.88982" lon="3.76423">
        <ele>806</ele>
        <time>2024-12-08T02:50:05.620Z</time>
      </trkpt>
      <trkpt lat="45.88983" lon="3.76426">
        <ele>806</ele>
        <time>2024-12-08T02:50:06.619Z</time>
      </trkpt>
      <trkpt lat="45.88983" lon="3.76428">
        <ele>806</ele>
        <time>2024-12-08T02:50:07.619Z</time>
      </trkpt>
      <trkpt lat="45.88984" lon="3.76431">
        <ele>806</ele>
        <time>2024-12-08T02:50:08.619Z</time>
      </trkpt>
      <trkpt lat="45.88984" lon="3.76433">
        <ele>806</ele>
        <time>2024-12-08T02:50:09.619Z</time>
      </trkpt>
      <trkpt lat="45.88985" lon="3.76435">
        <ele>806</ele>
        <time>2024-12-08T02:50:10.619Z</time>
      </trkpt>
      <trkpt lat="45.88985" lon="3.76437">
        <ele>806</ele>
        <time>2024-12-08T02:50:11.620Z</time>
      </trkpt>
      <trkpt lat="45.88985" lon="3.76439">
        <ele>805</ele>
        <time>2024-12-08T02:50:12.619Z</time>
      </trkpt>
      <trkpt lat="45.88985" lon="3.76441">
        <ele>805</ele>
        <time>2024-12-08T02:50:13.620Z</time>
      </trkpt>
      <trkpt lat="45.88985" lon="3.76444">
        <ele>805</ele>
        <time>2024-12-08T02:50:14.620Z</time>
      </trkpt>
      <trkpt lat="45.88986" lon="3.76446">
        <ele>805</ele>
        <time>2024-12-08T02:50:15.619Z</time>
      </trkpt>
      <trkpt lat="45.88986" lon="3.76448">
        <ele>805</ele>
        <time>2024-12-08T02:50:16.620Z</time>
      </trkpt>
      <trkpt lat="45.88987" lon="3.7645">
        <ele>805</ele>
        <time>2024-12-08T02:50:17.619Z</time>
      </trkpt>
      <trkpt lat="45.88987" lon="3.76452">
        <ele>804</ele>
        <time>2024-12-08T02:50:18.620Z</time>
      </trkpt>
      <trkpt lat="45.88988" lon="3.76455">
        <ele>804</ele>
        <time>2024-12-08T02:50:19.619Z</time>
      </trkpt>
      <trkpt lat="45.88988" lon="3.76457">
        <ele>804</ele>
        <time>2024-12-08T02:50:20.620Z</time>
      </trkpt>
      <trkpt lat="45.88989" lon="3.7646">
        <ele>804</ele>
        <time>2024-12-08T02:50:21.619Z</time>
      </trkpt>
      <trkpt lat="45.88989" lon="3.76462">
        <ele>804</ele>
        <time>2024-12-08T02:50:22.619Z</time>
      </trkpt>
      <trkpt lat="45.88989" lon="3.76464">
        <ele>804</ele>
        <time>2024-12-08T02:50:23.619Z</time>
      </trkpt>
      <trkpt lat="45.8899" lon="3.76466">
        <ele>804</ele>
        <time>2024-12-08T02:50:24.620Z</time>
      </trkpt>
      <trkpt lat="45.8899" lon="3.76469">
        <ele>805</ele>
        <time>2024-12-08T02:50:25.619Z</time>
      </trkpt>
      <trkpt lat="45.88991" lon="3.76471">
        <ele>804</ele>
        <time>2024-12-08T02:50:26.620Z</time>
      </trkpt>
      <trkpt lat="45.88991" lon="3.76473">
        <ele>804</ele>
        <time>2024-12-08T02:50:27.619Z</time>
      </trkpt>
      <trkpt lat="45.88991" lon="3.76476">
        <ele>804</ele>
        <time>2024-12-08T02:50:28.619Z</time>
      </trkpt>
      <trkpt lat="45.88991" lon="3.76478">
        <ele>804</ele>
        <time>2024-12-08T02:50:29.619Z</time>
      </trkpt>
      <trkpt lat="45.88992" lon="3.7648">
        <ele>804</ele>
        <time>2024-12-08T02:50:30.619Z</time>
      </trkpt>
      <trkpt lat="45.88992" lon="3.76483">
        <ele>804</ele>
        <time>2024-12-08T02:50:31.619Z</time>
      </trkpt>
      <trkpt lat="45.88993" lon="3.76485">
        <ele>804</ele>
        <time>2024-12-08T02:50:32.620Z</time>
      </trkpt>
      <trkpt lat="45.88993" lon="3.76488">
        <ele>804</ele>
        <time>2024-12-08T02:50:33.620Z</time>
      </trkpt>
      <trkpt lat="45.88994" lon="3.7649">
        <ele>804</ele>
        <time>2024-12-08T02:50:34.619Z</time>
      </trkpt>
      <trkpt lat="45.88994" lon="3.76493">
        <ele>804</ele>
        <time>2024-12-08T02:50:35.619Z</time>
      </trkpt>
      <trkpt lat="45.88995" lon="3.76495">
        <ele>804</ele>
        <time>2024-12-08T02:50:36.620Z</time>
      </trkpt>
      <trkpt lat="45.88995" lon="3.76497">
        <ele>804</ele>
        <time>2024-12-08T02:50:37.620Z</time>
      </trkpt>
      <trkpt lat="45.88995" lon="3.765">
        <ele>804</ele>
        <time>2024-12-08T02:50:38.619Z</time>
      </trkpt>
      <trkpt lat="45.88995" lon="3.76501">
        <ele>804</ele>
        <time>2024-12-08T02:50:39.619Z</time>
      </trkpt>
      <trkpt lat="45.88995" lon="3.76504">
        <ele>803</ele>
        <time>2024-12-08T02:50:40.619Z</time>
      </trkpt>
      <trkpt lat="45.88995" lon="3.76506">
        <ele>803</ele>
        <time>2024-12-08T02:50:41.619Z</time>
      </trkpt>
      <trkpt lat="45.88995" lon="3.76509">
        <ele>803</ele>
        <time>2024-12-08T02:50:42.620Z</time>
      </trkpt>
      <trkpt lat="45.88995" lon="3.76511">
        <ele>803</ele>
        <time>2024-12-08T02:50:43.619Z</time>
      </trkpt>
      <trkpt lat="45.88996" lon="3.76513">
        <ele>803</ele>
        <time>2024-12-08T02:50:44.620Z</time>
      </trkpt>
      <trkpt lat="45.88996" lon="3.76515">
        <ele>802</ele>
        <time>2024-12-08T02:50:45.619Z</time>
      </trkpt>
      <trkpt lat="45.88996" lon="3.76518">
        <ele>802</ele>
        <time>2024-12-08T02:50:46.620Z</time>
      </trkpt>
      <trkpt lat="45.88996" lon="3.7652">
        <ele>802</ele>
        <time>2024-12-08T02:50:47.619Z</time>
      </trkpt>
      <trkpt lat="45.88996" lon="3.76523">
        <ele>802</ele>
        <time>2024-12-08T02:50:48.619Z</time>
      </trkpt>
      <trkpt lat="45.88996" lon="3.76526">
        <ele>802</ele>
        <time>2024-12-08T02:50:49.620Z</time>
      </trkpt>
      <trkpt lat="45.88996" lon="3.76528">
        <ele>802</ele>
        <time>2024-12-08T02:50:50.620Z</time>
      </trkpt>
      <trkpt lat="45.88996" lon="3.76531">
        <ele>803</ele>
        <time>2024-12-08T02:50:51.620Z</time>
      </trkpt>
      <trkpt lat="45.88996" lon="3.76533">
        <ele>803</ele>
        <time>2024-12-08T02:50:52.619Z</time>
      </trkpt>
      <trkpt lat="45.88996" lon="3.76536">
        <ele>803</ele>
        <time>2024-12-08T02:50:53.619Z</time>
      </trkpt>
      <trkpt lat="45.88996" lon="3.76538">
        <ele>803</ele>
        <time>2024-12-08T02:50:54.620Z</time>
      </trkpt>
      <trkpt lat="45.88996" lon="3.7654">
        <ele>803</ele>
        <time>2024-12-08T02:50:55.619Z</time>
      </trkpt>
      <trkpt lat="45.88996" lon="3.76543">
        <ele>803</ele>
        <time>2024-12-08T02:50:56.619Z</time>
      </trkpt>
      <trkpt lat="45.88995" lon="3.76545">
        <ele>803</ele>
        <time>2024-12-08T02:50:57.620Z</time>
      </trkpt>
      <trkpt lat="45.88995" lon="3.76548">
        <ele>803</ele>
        <time>2024-12-08T02:50:58.619Z</time>
      </trkpt>
      <trkpt lat="45.88995" lon="3.7655">
        <ele>803</ele>
        <time>2024-12-08T02:50:59.619Z</time>
      </trkpt>
      <trkpt lat="45.88994" lon="3.76553">
        <ele>803</ele>
        <time>2024-12-08T02:51:00.620Z</time>
      </trkpt>
      <trkpt lat="45.88993" lon="3.76556">
        <ele>803</ele>
        <time>2024-12-08T02:51:01.620Z</time>
      </trkpt>
      <trkpt lat="45.88993" lon="3.76558">
        <ele>804</ele>
        <time>2024-12-08T02:51:02.619Z</time>
      </trkpt>
      <trkpt lat="45.88992" lon="3.76561">
        <ele>804</ele>
        <time>2024-12-08T02:51:03.619Z</time>
      </trkpt>
      <trkpt lat="45.88991" lon="3.76563">
        <ele>805</ele>
        <time>2024-12-08T02:51:04.620Z</time>
      </trkpt>
      <trkpt lat="45.88991" lon="3.76565">
        <ele>805</ele>
        <time>2024-12-08T02:51:05.620Z</time>
      </trkpt>
      <trkpt lat="45.8899" lon="3.76567">
        <ele>805</ele>
        <time>2024-12-08T02:51:06.620Z</time>
      </trkpt>
      <trkpt lat="45.88989" lon="3.76569">
        <ele>805</ele>
        <time>2024-12-08T02:51:07.619Z</time>
      </trkpt>
      <trkpt lat="45.88989" lon="3.76572">
        <ele>805</ele>
        <time>2024-12-08T02:51:08.620Z</time>
      </trkpt>
      <trkpt lat="45.88988" lon="3.76574">
        <ele>805</ele>
        <time>2024-12-08T02:51:09.619Z</time>
      </trkpt>
      <trkpt lat="45.88987" lon="3.76576">
        <ele>805</ele>
        <time>2024-12-08T02:51:10.620Z</time>
      </trkpt>
      <trkpt lat="45.88986" lon="3.76579">
        <ele>805</ele>
        <time>2024-12-08T02:51:11.619Z</time>
      </trkpt>
      <trkpt lat="45.88985" lon="3.76581">
        <ele>805</ele>
        <time>2024-12-08T02:51:12.619Z</time>
      </trkpt>
      <trkpt lat="45.88985" lon="3.76584">
        <ele>805</ele>
        <time>2024-12-08T02:51:13.619Z</time>
      </trkpt>
      <trkpt lat="45.88984" lon="3.76586">
        <ele>805</ele>
        <time>2024-12-08T02:51:14.620Z</time>
      </trkpt>
      <trkpt lat="45.88983" lon="3.76588">
        <ele>805</ele>
        <time>2024-12-08T02:51:15.619Z</time>
      </trkpt>
      <trkpt lat="45.88982" lon="3.7659">
        <ele>805</ele>
        <time>2024-12-08T02:51:16.620Z</time>
      </trkpt>
      <trkpt lat="45.88981" lon="3.76592">
        <ele>805</ele>
        <time>2024-12-08T02:51:17.619Z</time>
      </trkpt>
      <trkpt lat="45.8898" lon="3.76594">
        <ele>805</ele>
        <time>2024-12-08T02:51:18.620Z</time>
      </trkpt>
      <trkpt lat="45.88979" lon="3.76596">
        <ele>805</ele>
        <time>2024-12-08T02:51:19.619Z</time>
      </trkpt>
      <trkpt lat="45.88979" lon="3.76598">
        <ele>805</ele>
        <time>2024-12-08T02:51:20.619Z</time>
      </trkpt>
      <trkpt lat="45.88978" lon="3.766">
        <ele>805</ele>
        <time>2024-12-08T02:51:21.620Z</time>
      </trkpt>
      <trkpt lat="45.88976" lon="3.76601">
        <ele>805</ele>
        <time>2024-12-08T02:51:22.620Z</time>
      </trkpt>
      <trkpt lat="45.88975" lon="3.76604">
        <ele>805</ele>
        <time>2024-12-08T02:51:23.620Z</time>
      </trkpt>
      <trkpt lat="45.88974" lon="3.76606">
        <ele>806</ele>
        <time>2024-12-08T02:51:24.619Z</time>
      </trkpt>
      <trkpt lat="45.88974" lon="3.76609">
        <ele>806</ele>
        <time>2024-12-08T02:51:25.620Z</time>
      </trkpt>
      <trkpt lat="45.88973" lon="3.76611">
        <ele>807</ele>
        <time>2024-12-08T02:51:26.620Z</time>
      </trkpt>
      <trkpt lat="45.88972" lon="3.76614">
        <ele>807</ele>
        <time>2024-12-08T02:51:27.620Z</time>
      </trkpt>
      <trkpt lat="45.88972" lon="3.76616">
        <ele>807</ele>
        <time>2024-12-08T02:51:28.619Z</time>
      </trkpt>
      <trkpt lat="45.88971" lon="3.76618">
        <ele>807</ele>
        <time>2024-12-08T02:51:29.620Z</time>
      </trkpt>
      <trkpt lat="45.8897" lon="3.7662">
        <ele>807</ele>
        <time>2024-12-08T02:51:30.619Z</time>
      </trkpt>
      <trkpt lat="45.8897" lon="3.76622">
        <ele>806</ele>
        <time>2024-12-08T02:51:31.619Z</time>
      </trkpt>
      <trkpt lat="45.88969" lon="3.76624">
        <ele>806</ele>
        <time>2024-12-08T02:51:32.619Z</time>
      </trkpt>
      <trkpt lat="45.88969" lon="3.76627">
        <ele>806</ele>
        <time>2024-12-08T02:51:33.619Z</time>
      </trkpt>
      <trkpt lat="45.88968" lon="3.76629">
        <ele>806</ele>
        <time>2024-12-08T02:51:34.620Z</time>
      </trkpt>
      <trkpt lat="45.88967" lon="3.76631">
        <ele>806</ele>
        <time>2024-12-08T02:51:35.619Z</time>
      </trkpt>
      <trkpt lat="45.88966" lon="3.76633">
        <ele>805</ele>
        <time>2024-12-08T02:51:36.620Z</time>
      </trkpt>
      <trkpt lat="45.88966" lon="3.76635">
        <ele>805</ele>
        <time>2024-12-08T02:51:37.619Z</time>
      </trkpt>
      <trkpt lat="45.88965" lon="3.76638">
        <ele>805</ele>
        <time>2024-12-08T02:51:38.620Z</time>
      </trkpt>
      <trkpt lat="45.88965" lon="3.7664">
        <ele>805</ele>
        <time>2024-12-08T02:51:39.620Z</time>
      </trkpt>
      <trkpt lat="45.88965" lon="3.76643">
        <ele>804</ele>
        <time>2024-12-08T02:51:40.620Z</time>
      </trkpt>
      <trkpt lat="45.88964" lon="3.76645">
        <ele>805</ele>
        <time>2024-12-08T02:51:41.619Z</time>
      </trkpt>
      <trkpt lat="45.88964" lon="3.76647">
        <ele>805</ele>
        <time>2024-12-08T02:51:42.620Z</time>
      </trkpt>
      <trkpt lat="45.88964" lon="3.76649">
        <ele>805</ele>
        <time>2024-12-08T02:51:43.619Z</time>
      </trkpt>
      <trkpt lat="45.88963" lon="3.76651">
        <ele>804</ele>
        <time>2024-12-08T02:51:44.619Z</time>
      </trkpt>
      <trkpt lat="45.88963" lon="3.76654">
        <ele>804</ele>
        <time>2024-12-08T02:51:45.619Z</time>
      </trkpt>
      <trkpt lat="45.88963" lon="3.76656">
        <ele>804</ele>
        <time>2024-12-08T02:51:46.620Z</time>
      </trkpt>
      <trkpt lat="45.88962" lon="3.76658">
        <ele>803</ele>
        <time>2024-12-08T02:51:47.619Z</time>
      </trkpt>
      <trkpt lat="45.88962" lon="3.76661">
        <ele>803</ele>
        <time>2024-12-08T02:51:48.620Z</time>
      </trkpt>
      <trkpt lat="45.88963" lon="3.76664">
        <ele>803</ele>
        <time>2024-12-08T02:51:49.620Z</time>
      </trkpt>
      <trkpt lat="45.88963" lon="3.76666">
        <ele>803</ele>
        <time>2024-12-08T02:51:50.619Z</time>
      </trkpt>
      <trkpt lat="45.88962" lon="3.76668">
        <ele>802</ele>
        <time>2024-12-08T02:51:51.619Z</time>
      </trkpt>
      <trkpt lat="45.88962" lon="3.7667">
        <ele>802</ele>
        <time>2024-12-08T02:51:52.619Z</time>
      </trkpt>
      <trkpt lat="45.88962" lon="3.76672">
        <ele>802</ele>
        <time>2024-12-08T02:51:53.620Z</time>
      </trkpt>
      <trkpt lat="45.88962" lon="3.76675">
        <ele>802</ele>
        <time>2024-12-08T02:51:54.619Z</time>
      </trkpt>
      <trkpt lat="45.88962" lon="3.76677">
        <ele>801</ele>
        <time>2024-12-08T02:51:55.620Z</time>
      </trkpt>
      <trkpt lat="45.88962" lon="3.76679">
        <ele>801</ele>
        <time>2024-12-08T02:51:56.619Z</time>
      </trkpt>
      <trkpt lat="45.88962" lon="3.76681">
        <ele>801</ele>
        <time>2024-12-08T02:51:57.620Z</time>
      </trkpt>
      <trkpt lat="45.88963" lon="3.76684">
        <ele>801</ele>
        <time>2024-12-08T02:51:58.619Z</time>
      </trkpt>
      <trkpt lat="45.88963" lon="3.76686">
        <ele>800</ele>
        <time>2024-12-08T02:51:59.620Z</time>
      </trkpt>
      <trkpt lat="45.88964" lon="3.76688">
        <ele>800</ele>
        <time>2024-12-08T02:52:00.620Z</time>
      </trkpt>
      <trkpt lat="45.88965" lon="3.76691">
        <ele>800</ele>
        <time>2024-12-08T02:52:01.620Z</time>
      </trkpt>
      <trkpt lat="45.88965" lon="3.76693">
        <ele>800</ele>
        <time>2024-12-08T02:52:02.620Z</time>
      </trkpt>
      <trkpt lat="45.88966" lon="3.76696">
        <ele>800</ele>
        <time>2024-12-08T02:52:03.620Z</time>
      </trkpt>
      <trkpt lat="45.88966" lon="3.76698">
        <ele>800</ele>
        <time>2024-12-08T02:52:04.620Z</time>
      </trkpt>
      <trkpt lat="45.88967" lon="3.767">
        <ele>800</ele>
        <time>2024-12-08T02:52:05.619Z</time>
      </trkpt>
      <trkpt lat="45.88967" lon="3.76703">
        <ele>799</ele>
        <time>2024-12-08T02:52:06.620Z</time>
      </trkpt>
      <trkpt lat="45.88968" lon="3.76705">
        <ele>798</ele>
        <time>2024-12-08T02:52:07.619Z</time>
      </trkpt>
      <trkpt lat="45.88968" lon="3.76708">
        <ele>798</ele>
        <time>2024-12-08T02:52:08.619Z</time>
      </trkpt>
      <trkpt lat="45.88969" lon="3.7671">
        <ele>798</ele>
        <time>2024-12-08T02:52:09.619Z</time>
      </trkpt>
      <trkpt lat="45.8897" lon="3.76712">
        <ele>798</ele>
        <time>2024-12-08T02:52:10.620Z</time>
      </trkpt>
      <trkpt lat="45.88971" lon="3.76714">
        <ele>798</ele>
        <time>2024-12-08T02:52:11.619Z</time>
      </trkpt>
      <trkpt lat="45.88972" lon="3.76716">
        <ele>798</ele>
        <time>2024-12-08T02:52:12.619Z</time>
      </trkpt>
      <trkpt lat="45.88973" lon="3.76719">
        <ele>798</ele>
        <time>2024-12-08T02:52:13.620Z</time>
      </trkpt>
      <trkpt lat="45.88974" lon="3.7672">
        <ele>798</ele>
        <time>2024-12-08T02:52:14.620Z</time>
      </trkpt>
      <trkpt lat="45.88975" lon="3.76722">
        <ele>798</ele>
        <time>2024-12-08T02:52:15.620Z</time>
      </trkpt>
      <trkpt lat="45.88976" lon="3.76724">
        <ele>798</ele>
        <time>2024-12-08T02:52:16.619Z</time>
      </trkpt>
      <trkpt lat="45.88978" lon="3.76727">
        <ele>798</ele>
        <time>2024-12-08T02:52:17.620Z</time>
      </trkpt>
      <trkpt lat="45.88978" lon="3.76729">
        <ele>798</ele>
        <time>2024-12-08T02:52:18.619Z</time>
      </trkpt>
      <trkpt lat="45.88979" lon="3.76731">
        <ele>798</ele>
        <time>2024-12-08T02:52:19.619Z</time>
      </trkpt>
      <trkpt lat="45.8898" lon="3.76733">
        <ele>798</ele>
        <time>2024-12-08T02:52:20.619Z</time>
      </trkpt>
      <trkpt lat="45.88981" lon="3.76736">
        <ele>798</ele>
        <time>2024-12-08T02:52:21.620Z</time>
      </trkpt>
      <trkpt lat="45.88982" lon="3.76738">
        <ele>798</ele>
        <time>2024-12-08T02:52:22.619Z</time>
      </trkpt>
      <trkpt lat="45.88983" lon="3.7674">
        <ele>798</ele>
        <time>2024-12-08T02:52:23.620Z</time>
      </trkpt>
      <trkpt lat="45.88984" lon="3.76742">
        <ele>798</ele>
        <time>2024-12-08T02:52:24.619Z</time>
      </trkpt>
      <trkpt lat="45.88985" lon="3.76744">
        <ele>798</ele>
        <time>2024-12-08T02:52:25.620Z</time>
      </trkpt>
      <trkpt lat="45.88986" lon="3.76746">
        <ele>798</ele>
        <time>2024-12-08T02:52:26.620Z</time>
      </trkpt>
      <trkpt lat="45.88986" lon="3.76749">
        <ele>798</ele>
        <time>2024-12-08T02:52:27.619Z</time>
      </trkpt>
      <trkpt lat="45.88987" lon="3.76751">
        <ele>798</ele>
        <time>2024-12-08T02:52:28.620Z</time>
      </trkpt>
      <trkpt lat="45.88989" lon="3.76753">
        <ele>798</ele>
        <time>2024-12-08T02:52:29.619Z</time>
      </trkpt>
      <trkpt lat="45.8899" lon="3.76756">
        <ele>798</ele>
        <time>2024-12-08T02:52:30.620Z</time>
      </trkpt>
      <trkpt lat="45.88991" lon="3.76758">
        <ele>798</ele>
        <time>2024-12-08T02:52:31.620Z</time>
      </trkpt>
      <trkpt lat="45.88991" lon="3.7676">
        <ele>798</ele>
        <time>2024-12-08T02:52:32.619Z</time>
      </trkpt>
      <trkpt lat="45.88992" lon="3.76762">
        <ele>798</ele>
        <time>2024-12-08T02:52:33.620Z</time>
      </trkpt>
      <trkpt lat="45.88993" lon="3.76764">
        <ele>798</ele>
        <time>2024-12-08T02:52:34.620Z</time>
      </trkpt>
      <trkpt lat="45.88994" lon="3.76765">
        <ele>798</ele>
        <time>2024-12-08T02:52:35.619Z</time>
      </trkpt>
      <trkpt lat="45.88995" lon="3.76767">
        <ele>798</ele>
        <time>2024-12-08T02:52:36.619Z</time>
      </trkpt>
      <trkpt lat="45.88996" lon="3.76769">
        <ele>798</ele>
        <time>2024-12-08T02:52:37.619Z</time>
      </trkpt>
      <trkpt lat="45.88997" lon="3.76771">
        <ele>798</ele>
        <time>2024-12-08T02:52:38.619Z</time>
      </trkpt>
      <trkpt lat="45.88998" lon="3.76773">
        <ele>798</ele>
        <time>2024-12-08T02:52:39.620Z</time>
      </trkpt>
      <trkpt lat="45.88999" lon="3.76775">
        <ele>798</ele>
        <time>2024-12-08T02:52:40.619Z</time>
      </trkpt>
      <trkpt lat="45.89" lon="3.76777">
        <ele>799</ele>
        <time>2024-12-08T02:52:41.620Z</time>
      </trkpt>
      <trkpt lat="45.89001" lon="3.76779">
        <ele>799</ele>
        <time>2024-12-08T02:52:42.619Z</time>
      </trkpt>
      <trkpt lat="45.89002" lon="3.7678">
        <ele>799</ele>
        <time>2024-12-08T02:52:43.619Z</time>
      </trkpt>
      <trkpt lat="45.89003" lon="3.76782">
        <ele>799</ele>
        <time>2024-12-08T02:52:44.619Z</time>
      </trkpt>
      <trkpt lat="45.89004" lon="3.76783">
        <ele>799</ele>
        <time>2024-12-08T02:52:45.620Z</time>
      </trkpt>
      <trkpt lat="45.89004" lon="3.76785">
        <ele>799</ele>
        <time>2024-12-08T02:52:46.620Z</time>
      </trkpt>
      <trkpt lat="45.89005" lon="3.76787">
        <ele>799</ele>
        <time>2024-12-08T02:52:47.619Z</time>
      </trkpt>
      <trkpt lat="45.89006" lon="3.7679">
        <ele>798</ele>
        <time>2024-12-08T02:52:48.620Z</time>
      </trkpt>
      <trkpt lat="45.89007" lon="3.76793">
        <ele>798</ele>
        <time>2024-12-08T02:52:49.619Z</time>
      </trkpt>
      <trkpt lat="45.89007" lon="3.76796">
        <ele>798</ele>
        <time>2024-12-08T02:52:50.620Z</time>
      </trkpt>
      <trkpt lat="45.89008" lon="3.768">
        <ele>798</ele>
        <time>2024-12-08T02:52:51.619Z</time>
      </trkpt>
      <trkpt lat="45.89008" lon="3.76802">
        <ele>797</ele>
        <time>2024-12-08T02:52:52.620Z</time>
      </trkpt>
      <trkpt lat="45.89009" lon="3.76804">
        <ele>797</ele>
        <time>2024-12-08T02:52:53.619Z</time>
      </trkpt>
      <trkpt lat="45.8901" lon="3.76807">
        <ele>797</ele>
        <time>2024-12-08T02:52:54.619Z</time>
      </trkpt>
      <trkpt lat="45.89011" lon="3.76809">
        <ele>796</ele>
        <time>2024-12-08T02:52:55.619Z</time>
      </trkpt>
      <trkpt lat="45.89012" lon="3.76811">
        <ele>796</ele>
        <time>2024-12-08T02:52:56.620Z</time>
      </trkpt>
      <trkpt lat="45.89013" lon="3.76812">
        <ele>795</ele>
        <time>2024-12-08T02:52:57.619Z</time>
      </trkpt>
      <trkpt lat="45.89014" lon="3.76814">
        <ele>795</ele>
        <time>2024-12-08T02:52:58.619Z</time>
      </trkpt>
      <trkpt lat="45.89014" lon="3.76816">
        <ele>795</ele>
        <time>2024-12-08T02:52:59.620Z</time>
      </trkpt>
      <trkpt lat="45.89015" lon="3.76818">
        <ele>795</ele>
        <time>2024-12-08T02:53:00.620Z</time>
      </trkpt>
      <trkpt lat="45.89016" lon="3.7682">
        <ele>795</ele>
        <time>2024-12-08T02:53:01.620Z</time>
      </trkpt>
      <trkpt lat="45.89017" lon="3.76822">
        <ele>794</ele>
        <time>2024-12-08T02:53:02.619Z</time>
      </trkpt>
      <trkpt lat="45.89018" lon="3.76825">
        <ele>794</ele>
        <time>2024-12-08T02:53:03.620Z</time>
      </trkpt>
      <trkpt lat="45.89018" lon="3.76827">
        <ele>794</ele>
        <time>2024-12-08T02:53:04.619Z</time>
      </trkpt>
      <trkpt lat="45.89019" lon="3.76829">
        <ele>794</ele>
        <time>2024-12-08T02:53:05.620Z</time>
      </trkpt>
      <trkpt lat="45.89019" lon="3.76831">
        <ele>794</ele>
        <time>2024-12-08T02:53:06.619Z</time>
      </trkpt>
      <trkpt lat="45.89019" lon="3.76834">
        <ele>793</ele>
        <time>2024-12-08T02:53:07.619Z</time>
      </trkpt>
      <trkpt lat="45.8902" lon="3.76836">
        <ele>793</ele>
        <time>2024-12-08T02:53:08.619Z</time>
      </trkpt>
      <trkpt lat="45.8902" lon="3.76839">
        <ele>792</ele>
        <time>2024-12-08T02:53:09.620Z</time>
      </trkpt>
      <trkpt lat="45.89021" lon="3.76841">
        <ele>791</ele>
        <time>2024-12-08T02:53:10.619Z</time>
      </trkpt>
      <trkpt lat="45.89021" lon="3.76844">
        <ele>791</ele>
        <time>2024-12-08T02:53:11.620Z</time>
      </trkpt>
      <trkpt lat="45.89022" lon="3.76847">
        <ele>791</ele>
        <time>2024-12-08T02:53:12.620Z</time>
      </trkpt>
      <trkpt lat="45.89022" lon="3.76849">
        <ele>791</ele>
        <time>2024-12-08T02:53:13.620Z</time>
      </trkpt>
      <trkpt lat="45.89023" lon="3.76851">
        <ele>790</ele>
        <time>2024-12-08T02:53:14.620Z</time>
      </trkpt>
      <trkpt lat="45.89023" lon="3.76854">
        <ele>790</ele>
        <time>2024-12-08T02:53:15.619Z</time>
      </trkpt>
      <trkpt lat="45.89023" lon="3.76857">
        <ele>790</ele>
        <time>2024-12-08T02:53:16.620Z</time>
      </trkpt>
      <trkpt lat="45.89023" lon="3.76859">
        <ele>790</ele>
        <time>2024-12-08T02:53:17.619Z</time>
      </trkpt>
      <trkpt lat="45.89024" lon="3.76862">
        <ele>790</ele>
        <time>2024-12-08T02:53:18.619Z</time>
      </trkpt>
      <trkpt lat="45.89024" lon="3.76864">
        <ele>791</ele>
        <time>2024-12-08T02:53:19.620Z</time>
      </trkpt>
      <trkpt lat="45.89024" lon="3.76867">
        <ele>790</ele>
        <time>2024-12-08T02:53:20.620Z</time>
      </trkpt>
      <trkpt lat="45.89025" lon="3.76869">
        <ele>791</ele>
        <time>2024-12-08T02:53:21.619Z</time>
      </trkpt>
      <trkpt lat="45.89025" lon="3.76871">
        <ele>791</ele>
        <time>2024-12-08T02:53:22.619Z</time>
      </trkpt>
      <trkpt lat="45.89025" lon="3.76874">
        <ele>791</ele>
        <time>2024-12-08T02:53:23.619Z</time>
      </trkpt>
      <trkpt lat="45.89025" lon="3.76876">
        <ele>790</ele>
        <time>2024-12-08T02:53:24.619Z</time>
      </trkpt>
      <trkpt lat="45.89025" lon="3.76878">
        <ele>789</ele>
        <time>2024-12-08T02:53:25.620Z</time>
      </trkpt>
      <trkpt lat="45.89025" lon="3.76881">
        <ele>789</ele>
        <time>2024-12-08T02:53:26.619Z</time>
      </trkpt>
      <trkpt lat="45.89025" lon="3.76883">
        <ele>788</ele>
        <time>2024-12-08T02:53:27.619Z</time>
      </trkpt>
      <trkpt lat="45.89025" lon="3.76886">
        <ele>788</ele>
        <time>2024-12-08T02:53:28.620Z</time>
      </trkpt>
      <trkpt lat="45.89025" lon="3.7689">
        <ele>788</ele>
        <time>2024-12-08T02:53:29.620Z</time>
      </trkpt>
      <trkpt lat="45.89025" lon="3.76893">
        <ele>787</ele>
        <time>2024-12-08T02:53:30.620Z</time>
      </trkpt>
      <trkpt lat="45.89024" lon="3.76896">
        <ele>787</ele>
        <time>2024-12-08T02:53:31.620Z</time>
      </trkpt>
      <trkpt lat="45.89024" lon="3.76898">
        <ele>787</ele>
        <time>2024-12-08T02:53:32.619Z</time>
      </trkpt>
      <trkpt lat="45.89024" lon="3.76901">
        <ele>787</ele>
        <time>2024-12-08T02:53:33.620Z</time>
      </trkpt>
      <trkpt lat="45.89024" lon="3.76903">
        <ele>787</ele>
        <time>2024-12-08T02:53:34.620Z</time>
      </trkpt>
      <trkpt lat="45.89023" lon="3.76905">
        <ele>787</ele>
        <time>2024-12-08T02:53:35.620Z</time>
      </trkpt>
      <trkpt lat="45.89023" lon="3.76908">
        <ele>787</ele>
        <time>2024-12-08T02:53:36.619Z</time>
      </trkpt>
      <trkpt lat="45.89023" lon="3.7691">
        <ele>787</ele>
        <time>2024-12-08T02:53:37.620Z</time>
      </trkpt>
      <trkpt lat="45.89022" lon="3.76913">
        <ele>787</ele>
        <time>2024-12-08T02:53:38.619Z</time>
      </trkpt>
      <trkpt lat="45.89022" lon="3.76916">
        <ele>787</ele>
        <time>2024-12-08T02:53:39.619Z</time>
      </trkpt>
      <trkpt lat="45.89022" lon="3.76919">
        <ele>787</ele>
        <time>2024-12-08T02:53:40.619Z</time>
      </trkpt>
      <trkpt lat="45.89022" lon="3.76921">
        <ele>786</ele>
        <time>2024-12-08T02:53:41.620Z</time>
      </trkpt>
      <trkpt lat="45.89022" lon="3.76924">
        <ele>786</ele>
        <time>2024-12-08T02:53:42.619Z</time>
      </trkpt>
      <trkpt lat="45.89022" lon="3.76926">
        <ele>786</ele>
        <time>2024-12-08T02:53:43.619Z</time>
      </trkpt>
      <trkpt lat="45.89021" lon="3.76929">
        <ele>786</ele>
        <time>2024-12-08T02:53:44.620Z</time>
      </trkpt>
      <trkpt lat="45.89021" lon="3.76931">
        <ele>786</ele>
        <time>2024-12-08T02:53:45.619Z</time>
      </trkpt>
      <trkpt lat="45.89021" lon="3.76934">
        <ele>786</ele>
        <time>2024-12-08T02:53:46.619Z</time>
      </trkpt>
      <trkpt lat="45.89021" lon="3.76937">
        <ele>786</ele>
        <time>2024-12-08T02:53:47.619Z</time>
      </trkpt>
      <trkpt lat="45.89021" lon="3.7694">
        <ele>786</ele>
        <time>2024-12-08T02:53:48.619Z</time>
      </trkpt>
      <trkpt lat="45.89021" lon="3.76943">
        <ele>786</ele>
        <time>2024-12-08T02:53:49.619Z</time>
      </trkpt>
      <trkpt lat="45.89021" lon="3.76945">
        <ele>785</ele>
        <time>2024-12-08T02:53:50.619Z</time>
      </trkpt>
      <trkpt lat="45.89021" lon="3.76947">
        <ele>785</ele>
        <time>2024-12-08T02:53:51.619Z</time>
      </trkpt>
      <trkpt lat="45.89021" lon="3.7695">
        <ele>785</ele>
        <time>2024-12-08T02:53:52.619Z</time>
      </trkpt>
      <trkpt lat="45.89021" lon="3.76952">
        <ele>785</ele>
        <time>2024-12-08T02:53:53.619Z</time>
      </trkpt>
      <trkpt lat="45.89021" lon="3.76955">
        <ele>785</ele>
        <time>2024-12-08T02:53:54.619Z</time>
      </trkpt>
      <trkpt lat="45.89021" lon="3.76957">
        <ele>785</ele>
        <time>2024-12-08T02:53:55.619Z</time>
      </trkpt>
      <trkpt lat="45.89021" lon="3.7696">
        <ele>785</ele>
        <time>2024-12-08T02:53:56.619Z</time>
      </trkpt>
      <trkpt lat="45.89021" lon="3.76963">
        <ele>785</ele>
        <time>2024-12-08T02:53:57.619Z</time>
      </trkpt>
      <trkpt lat="45.89021" lon="3.76965">
        <ele>784</ele>
        <time>2024-12-08T02:53:58.619Z</time>
      </trkpt>
      <trkpt lat="45.89021" lon="3.76968">
        <ele>785</ele>
        <time>2024-12-08T02:53:59.620Z</time>
      </trkpt>
      <trkpt lat="45.8902" lon="3.7697">
        <ele>785</ele>
        <time>2024-12-08T02:54:00.619Z</time>
      </trkpt>
      <trkpt lat="45.8902" lon="3.76972">
        <ele>785</ele>
        <time>2024-12-08T02:54:01.619Z</time>
      </trkpt>
      <trkpt lat="45.8902" lon="3.76975">
        <ele>785</ele>
        <time>2024-12-08T02:54:02.619Z</time>
      </trkpt>
      <trkpt lat="45.8902" lon="3.76977">
        <ele>785</ele>
        <time>2024-12-08T02:54:03.619Z</time>
      </trkpt>
      <trkpt lat="45.89019" lon="3.7698">
        <ele>785</ele>
        <time>2024-12-08T02:54:04.619Z</time>
      </trkpt>
      <trkpt lat="45.89019" lon="3.76983">
        <ele>785</ele>
        <time>2024-12-08T02:54:05.619Z</time>
      </trkpt>
      <trkpt lat="45.89018" lon="3.76985">
        <ele>785</ele>
        <time>2024-12-08T02:54:06.619Z</time>
      </trkpt>
      <trkpt lat="45.89018" lon="3.76988">
        <ele>784</ele>
        <time>2024-12-08T02:54:07.620Z</time>
      </trkpt>
      <trkpt lat="45.89018" lon="3.7699">
        <ele>784</ele>
        <time>2024-12-08T02:54:08.620Z</time>
      </trkpt>
      <trkpt lat="45.89018" lon="3.76993">
        <ele>784</ele>
        <time>2024-12-08T02:54:09.619Z</time>
      </trkpt>
      <trkpt lat="45.89017" lon="3.76995">
        <ele>784</ele>
        <time>2024-12-08T02:54:10.619Z</time>
      </trkpt>
      <trkpt lat="45.89017" lon="3.76998">
        <ele>784</ele>
        <time>2024-12-08T02:54:11.619Z</time>
      </trkpt>
      <trkpt lat="45.89016" lon="3.77001">
        <ele>783</ele>
        <time>2024-12-08T02:54:12.620Z</time>
      </trkpt>
      <trkpt lat="45.89016" lon="3.77003">
        <ele>783</ele>
        <time>2024-12-08T02:54:13.619Z</time>
      </trkpt>
      <trkpt lat="45.89016" lon="3.77006">
        <ele>783</ele>
        <time>2024-12-08T02:54:14.620Z</time>
      </trkpt>
      <trkpt lat="45.89015" lon="3.77009">
        <ele>783</ele>
        <time>2024-12-08T02:54:15.619Z</time>
      </trkpt>
      <trkpt lat="45.89015" lon="3.77012">
        <ele>783</ele>
        <time>2024-12-08T02:54:16.619Z</time>
      </trkpt>
      <trkpt lat="45.89014" lon="3.77014">
        <ele>783</ele>
        <time>2024-12-08T02:54:17.619Z</time>
      </trkpt>
      <trkpt lat="45.89014" lon="3.77016">
        <ele>783</ele>
        <time>2024-12-08T02:54:18.619Z</time>
      </trkpt>
      <trkpt lat="45.89014" lon="3.77019">
        <ele>783</ele>
        <time>2024-12-08T02:54:19.620Z</time>
      </trkpt>
      <trkpt lat="45.89014" lon="3.77022">
        <ele>783</ele>
        <time>2024-12-08T02:54:20.619Z</time>
      </trkpt>
      <trkpt lat="45.89014" lon="3.77024">
        <ele>782</ele>
        <time>2024-12-08T02:54:21.619Z</time>
      </trkpt>
      <trkpt lat="45.89013" lon="3.77027">
        <ele>782</ele>
        <time>2024-12-08T02:54:22.619Z</time>
      </trkpt>
      <trkpt lat="45.89013" lon="3.7703">
        <ele>782</ele>
        <time>2024-12-08T02:54:23.619Z</time>
      </trkpt>
      <trkpt lat="45.89012" lon="3.77032">
        <ele>782</ele>
        <time>2024-12-08T02:54:24.619Z</time>
      </trkpt>
      <trkpt lat="45.89012" lon="3.77035">
        <ele>782</ele>
        <time>2024-12-08T02:54:25.620Z</time>
      </trkpt>
      <trkpt lat="45.89012" lon="3.77037">
        <ele>782</ele>
        <time>2024-12-08T02:54:26.619Z</time>
      </trkpt>
      <trkpt lat="45.89011" lon="3.7704">
        <ele>782</ele>
        <time>2024-12-08T02:54:27.620Z</time>
      </trkpt>
      <trkpt lat="45.8901" lon="3.77042">
        <ele>781</ele>
        <time>2024-12-08T02:54:28.620Z</time>
      </trkpt>
      <trkpt lat="45.8901" lon="3.77045">
        <ele>781</ele>
        <time>2024-12-08T02:54:29.619Z</time>
      </trkpt>
      <trkpt lat="45.89009" lon="3.77047">
        <ele>781</ele>
        <time>2024-12-08T02:54:30.619Z</time>
      </trkpt>
      <trkpt lat="45.89009" lon="3.77049">
        <ele>781</ele>
        <time>2024-12-08T02:54:31.619Z</time>
      </trkpt>
      <trkpt lat="45.89008" lon="3.77051">
        <ele>781</ele>
        <time>2024-12-08T02:54:32.620Z</time>
      </trkpt>
      <trkpt lat="45.89007" lon="3.77054">
        <ele>781</ele>
        <time>2024-12-08T02:54:33.620Z</time>
      </trkpt>
      <trkpt lat="45.89007" lon="3.77056">
        <ele>781</ele>
        <time>2024-12-08T02:54:34.619Z</time>
      </trkpt>
      <trkpt lat="45.89007" lon="3.77059">
        <ele>781</ele>
        <time>2024-12-08T02:54:35.619Z</time>
      </trkpt>
      <trkpt lat="45.89006" lon="3.77061">
        <ele>781</ele>
        <time>2024-12-08T02:54:36.620Z</time>
      </trkpt>
      <trkpt lat="45.89006" lon="3.77064">
        <ele>781</ele>
        <time>2024-12-08T02:54:37.619Z</time>
      </trkpt>
      <trkpt lat="45.89006" lon="3.77066">
        <ele>781</ele>
        <time>2024-12-08T02:54:38.620Z</time>
      </trkpt>
      <trkpt lat="45.89006" lon="3.77069">
        <ele>781</ele>
        <time>2024-12-08T02:54:39.620Z</time>
      </trkpt>
      <trkpt lat="45.89006" lon="3.77071">
        <ele>780</ele>
        <time>2024-12-08T02:54:40.619Z</time>
      </trkpt>
      <trkpt lat="45.89005" lon="3.77074">
        <ele>780</ele>
        <time>2024-12-08T02:54:41.620Z</time>
      </trkpt>
      <trkpt lat="45.89005" lon="3.77077">
        <ele>780</ele>
        <time>2024-12-08T02:54:42.620Z</time>
      </trkpt>
      <trkpt lat="45.89005" lon="3.77079">
        <ele>780</ele>
        <time>2024-12-08T02:54:43.620Z</time>
      </trkpt>
      <trkpt lat="45.89004" lon="3.77082">
        <ele>780</ele>
        <time>2024-12-08T02:54:44.619Z</time>
      </trkpt>
      <trkpt lat="45.89004" lon="3.77085">
        <ele>780</ele>
        <time>2024-12-08T02:54:45.619Z</time>
      </trkpt>
      <trkpt lat="45.89004" lon="3.77087">
        <ele>779</ele>
        <time>2024-12-08T02:54:46.620Z</time>
      </trkpt>
      <trkpt lat="45.89003" lon="3.7709">
        <ele>779</ele>
        <time>2024-12-08T02:54:47.619Z</time>
      </trkpt>
      <trkpt lat="45.89003" lon="3.77092">
        <ele>779</ele>
        <time>2024-12-08T02:54:48.619Z</time>
      </trkpt>
      <trkpt lat="45.89002" lon="3.77095">
        <ele>779</ele>
        <time>2024-12-08T02:54:49.619Z</time>
      </trkpt>
      <trkpt lat="45.89002" lon="3.77098">
        <ele>779</ele>
        <time>2024-12-08T02:54:50.620Z</time>
      </trkpt>
      <trkpt lat="45.89001" lon="3.771">
        <ele>778</ele>
        <time>2024-12-08T02:54:51.619Z</time>
      </trkpt>
      <trkpt lat="45.89001" lon="3.77103">
        <ele>778</ele>
        <time>2024-12-08T02:54:52.619Z</time>
      </trkpt>
      <trkpt lat="45.89001" lon="3.77106">
        <ele>778</ele>
        <time>2024-12-08T02:54:53.619Z</time>
      </trkpt>
      <trkpt lat="45.89" lon="3.77109">
        <ele>778</ele>
        <time>2024-12-08T02:54:54.619Z</time>
      </trkpt>
      <trkpt lat="45.89" lon="3.77111">
        <ele>778</ele>
        <time>2024-12-08T02:54:55.619Z</time>
      </trkpt>
      <trkpt lat="45.89" lon="3.77114">
        <ele>778</ele>
        <time>2024-12-08T02:54:56.619Z</time>
      </trkpt>
      <trkpt lat="45.88999" lon="3.77117">
        <ele>778</ele>
        <time>2024-12-08T02:54:57.619Z</time>
      </trkpt>
      <trkpt lat="45.88999" lon="3.77119">
        <ele>778</ele>
        <time>2024-12-08T02:54:58.619Z</time>
      </trkpt>
      <trkpt lat="45.88998" lon="3.77122">
        <ele>778</ele>
        <time>2024-12-08T02:54:59.620Z</time>
      </trkpt>
      <trkpt lat="45.88998" lon="3.77124">
        <ele>778</ele>
        <time>2024-12-08T02:55:00.619Z</time>
      </trkpt>
      <trkpt lat="45.88997" lon="3.77127">
        <ele>778</ele>
        <time>2024-12-08T02:55:01.619Z</time>
      </trkpt>
      <trkpt lat="45.88997" lon="3.77129">
        <ele>778</ele>
        <time>2024-12-08T02:55:02.620Z</time>
      </trkpt>
      <trkpt lat="45.88997" lon="3.77131">
        <ele>778</ele>
        <time>2024-12-08T02:55:03.620Z</time>
      </trkpt>
      <trkpt lat="45.88996" lon="3.77134">
        <ele>778</ele>
        <time>2024-12-08T02:55:04.620Z</time>
      </trkpt>
      <trkpt lat="45.88996" lon="3.77137">
        <ele>778</ele>
        <time>2024-12-08T02:55:05.619Z</time>
      </trkpt>
      <trkpt lat="45.88996" lon="3.77139">
        <ele>778</ele>
        <time>2024-12-08T02:55:06.619Z</time>
      </trkpt>
      <trkpt lat="45.88996" lon="3.77142">
        <ele>778</ele>
        <time>2024-12-08T02:55:07.619Z</time>
      </trkpt>
      <trkpt lat="45.88996" lon="3.77144">
        <ele>777</ele>
        <time>2024-12-08T02:55:08.620Z</time>
      </trkpt>
      <trkpt lat="45.88996" lon="3.77146">
        <ele>777</ele>
        <time>2024-12-08T02:55:09.619Z</time>
      </trkpt>
      <trkpt lat="45.88996" lon="3.77149">
        <ele>777</ele>
        <time>2024-12-08T02:55:10.620Z</time>
      </trkpt>
      <trkpt lat="45.88996" lon="3.77151">
        <ele>776</ele>
        <time>2024-12-08T02:55:11.619Z</time>
      </trkpt>
      <trkpt lat="45.88996" lon="3.77154">
        <ele>776</ele>
        <time>2024-12-08T02:55:12.619Z</time>
      </trkpt>
      <trkpt lat="45.88996" lon="3.77156">
        <ele>775</ele>
        <time>2024-12-08T02:55:13.619Z</time>
      </trkpt>
      <trkpt lat="45.88996" lon="3.77159">
        <ele>774</ele>
        <time>2024-12-08T02:55:14.619Z</time>
      </trkpt>
      <trkpt lat="45.88996" lon="3.77161">
        <ele>774</ele>
        <time>2024-12-08T02:55:15.620Z</time>
      </trkpt>
      <trkpt lat="45.88996" lon="3.77163">
        <ele>773</ele>
        <time>2024-12-08T02:55:16.620Z</time>
      </trkpt>
      <trkpt lat="45.88996" lon="3.77165">
        <ele>773</ele>
        <time>2024-12-08T02:55:17.619Z</time>
      </trkpt>
      <trkpt lat="45.88997" lon="3.77168">
        <ele>773</ele>
        <time>2024-12-08T02:55:18.620Z</time>
      </trkpt>
      <trkpt lat="45.88997" lon="3.7717">
        <ele>773</ele>
        <time>2024-12-08T02:55:19.619Z</time>
      </trkpt>
      <trkpt lat="45.88998" lon="3.77173">
        <ele>773</ele>
        <time>2024-12-08T02:55:20.620Z</time>
      </trkpt>
      <trkpt lat="45.88998" lon="3.77176">
        <ele>773</ele>
        <time>2024-12-08T02:55:21.620Z</time>
      </trkpt>
      <trkpt lat="45.88999" lon="3.77178">
        <ele>773</ele>
        <time>2024-12-08T02:55:22.619Z</time>
      </trkpt>
      <trkpt lat="45.89" lon="3.77181">
        <ele>773</ele>
        <time>2024-12-08T02:55:23.619Z</time>
      </trkpt>
      <trkpt lat="45.89" lon="3.77183">
        <ele>773</ele>
        <time>2024-12-08T02:55:24.620Z</time>
      </trkpt>
      <trkpt lat="45.89001" lon="3.77185">
        <ele>773</ele>
        <time>2024-12-08T02:55:25.620Z</time>
      </trkpt>
      <trkpt lat="45.89002" lon="3.77188">
        <ele>773</ele>
        <time>2024-12-08T02:55:26.619Z</time>
      </trkpt>
      <trkpt lat="45.89002" lon="3.77191">
        <ele>772</ele>
        <time>2024-12-08T02:55:27.620Z</time>
      </trkpt>
      <trkpt lat="45.89003" lon="3.77193">
        <ele>772</ele>
        <time>2024-12-08T02:55:28.619Z</time>
      </trkpt>
      <trkpt lat="45.89004" lon="3.77196">
        <ele>772</ele>
        <time>2024-12-08T02:55:29.620Z</time>
      </trkpt>
      <trkpt lat="45.89005" lon="3.77198">
        <ele>772</ele>
        <time>2024-12-08T02:55:30.619Z</time>
      </trkpt>
      <trkpt lat="45.89006" lon="3.772">
        <ele>772</ele>
        <time>2024-12-08T02:55:31.619Z</time>
      </trkpt>
      <trkpt lat="45.89007" lon="3.77203">
        <ele>771</ele>
        <time>2024-12-08T02:55:32.620Z</time>
      </trkpt>
      <trkpt lat="45.89008" lon="3.77205">
        <ele>771</ele>
        <time>2024-12-08T02:55:33.620Z</time>
      </trkpt>
      <trkpt lat="45.89009" lon="3.77207">
        <ele>771</ele>
        <time>2024-12-08T02:55:34.620Z</time>
      </trkpt>
      <trkpt lat="45.8901" lon="3.77209">
        <ele>770</ele>
        <time>2024-12-08T02:55:35.620Z</time>
      </trkpt>
      <trkpt lat="45.89011" lon="3.77211">
        <ele>770</ele>
        <time>2024-12-08T02:55:36.619Z</time>
      </trkpt>
      <trkpt lat="45.89012" lon="3.77214">
        <ele>770</ele>
        <time>2024-12-08T02:55:37.619Z</time>
      </trkpt>
      <trkpt lat="45.89013" lon="3.77217">
        <ele>770</ele>
        <time>2024-12-08T02:55:38.619Z</time>
      </trkpt>
      <trkpt lat="45.89013" lon="3.7722">
        <ele>770</ele>
        <time>2024-12-08T02:55:39.619Z</time>
      </trkpt>
      <trkpt lat="45.89014" lon="3.77222">
        <ele>770</ele>
        <time>2024-12-08T02:55:40.620Z</time>
      </trkpt>
      <trkpt lat="45.89015" lon="3.77225">
        <ele>770</ele>
        <time>2024-12-08T02:55:41.620Z</time>
      </trkpt>
      <trkpt lat="45.89016" lon="3.77227">
        <ele>770</ele>
        <time>2024-12-08T02:55:42.619Z</time>
      </trkpt>
      <trkpt lat="45.89017" lon="3.7723">
        <ele>770</ele>
        <time>2024-12-08T02:55:43.620Z</time>
      </trkpt>
      <trkpt lat="45.89018" lon="3.77232">
        <ele>769</ele>
        <time>2024-12-08T02:55:44.620Z</time>
      </trkpt>
      <trkpt lat="45.89019" lon="3.77235">
        <ele>769</ele>
        <time>2024-12-08T02:55:45.619Z</time>
      </trkpt>
      <trkpt lat="45.8902" lon="3.77237">
        <ele>769</ele>
        <time>2024-12-08T02:55:46.620Z</time>
      </trkpt>
      <trkpt lat="45.8902" lon="3.77239">
        <ele>769</ele>
        <time>2024-12-08T02:55:47.619Z</time>
      </trkpt>
      <trkpt lat="45.89021" lon="3.77241">
        <ele>768</ele>
        <time>2024-12-08T02:55:48.619Z</time>
      </trkpt>
      <trkpt lat="45.89023" lon="3.77243">
        <ele>768</ele>
        <time>2024-12-08T02:55:49.620Z</time>
      </trkpt>
      <trkpt lat="45.89024" lon="3.77245">
        <ele>767</ele>
        <time>2024-12-08T02:55:50.620Z</time>
      </trkpt>
      <trkpt lat="45.89025" lon="3.77247">
        <ele>767</ele>
        <time>2024-12-08T02:55:51.619Z</time>
      </trkpt>
      <trkpt lat="45.89026" lon="3.7725">
        <ele>767</ele>
        <time>2024-12-08T02:55:52.620Z</time>
      </trkpt>
      <trkpt lat="45.89027" lon="3.77252">
        <ele>766</ele>
        <time>2024-12-08T02:55:53.619Z</time>
      </trkpt>
      <trkpt lat="45.89028" lon="3.77254">
        <ele>766</ele>
        <time>2024-12-08T02:55:54.620Z</time>
      </trkpt>
      <trkpt lat="45.89028" lon="3.77256">
        <ele>766</ele>
        <time>2024-12-08T02:55:55.620Z</time>
      </trkpt>
      <trkpt lat="45.89028" lon="3.77259">
        <ele>766</ele>
        <time>2024-12-08T02:55:56.619Z</time>
      </trkpt>
      <trkpt lat="45.89029" lon="3.77261">
        <ele>766</ele>
        <time>2024-12-08T02:55:57.619Z</time>
      </trkpt>
      <trkpt lat="45.8903" lon="3.77264">
        <ele>766</ele>
        <time>2024-12-08T02:55:58.619Z</time>
      </trkpt>
      <trkpt lat="45.8903" lon="3.77266">
        <ele>766</ele>
        <time>2024-12-08T02:55:59.619Z</time>
      </trkpt>
      <trkpt lat="45.89031" lon="3.77268">
        <ele>765</ele>
        <time>2024-12-08T02:56:00.619Z</time>
      </trkpt>
      <trkpt lat="45.89032" lon="3.7727">
        <ele>765</ele>
        <time>2024-12-08T02:56:01.620Z</time>
      </trkpt>
      <trkpt lat="45.89032" lon="3.77273">
        <ele>765</ele>
        <time>2024-12-08T02:56:02.620Z</time>
      </trkpt>
      <trkpt lat="45.89033" lon="3.77276">
        <ele>764</ele>
        <time>2024-12-08T02:56:03.620Z</time>
      </trkpt>
      <trkpt lat="45.89034" lon="3.77278">
        <ele>764</ele>
        <time>2024-12-08T02:56:04.619Z</time>
      </trkpt>
      <trkpt lat="45.89034" lon="3.7728">
        <ele>764</ele>
        <time>2024-12-08T02:56:05.620Z</time>
      </trkpt>
      <trkpt lat="45.89035" lon="3.77282">
        <ele>763</ele>
        <time>2024-12-08T02:56:06.620Z</time>
      </trkpt>
      <trkpt lat="45.89035" lon="3.77284">
        <ele>762</ele>
        <time>2024-12-08T02:56:07.620Z</time>
      </trkpt>
      <trkpt lat="45.89036" lon="3.77286">
        <ele>762</ele>
        <time>2024-12-08T02:56:08.620Z</time>
      </trkpt>
      <trkpt lat="45.89037" lon="3.77289">
        <ele>762</ele>
        <time>2024-12-08T02:56:09.619Z</time>
      </trkpt>
      <trkpt lat="45.89037" lon="3.77291">
        <ele>761</ele>
        <time>2024-12-08T02:56:10.620Z</time>
      </trkpt>
      <trkpt lat="45.89038" lon="3.77293">
        <ele>761</ele>
        <time>2024-12-08T02:56:11.619Z</time>
      </trkpt>
      <trkpt lat="45.89039" lon="3.77296">
        <ele>761</ele>
        <time>2024-12-08T02:56:12.619Z</time>
      </trkpt>
      <trkpt lat="45.8904" lon="3.77298">
        <ele>761</ele>
        <time>2024-12-08T02:56:13.620Z</time>
      </trkpt>
      <trkpt lat="45.8904" lon="3.77301">
        <ele>761</ele>
        <time>2024-12-08T02:56:14.620Z</time>
      </trkpt>
      <trkpt lat="45.89041" lon="3.77303">
        <ele>761</ele>
        <time>2024-12-08T02:56:15.619Z</time>
      </trkpt>
      <trkpt lat="45.89041" lon="3.77306">
        <ele>761</ele>
        <time>2024-12-08T02:56:16.620Z</time>
      </trkpt>
      <trkpt lat="45.89042" lon="3.77308">
        <ele>761</ele>
        <time>2024-12-08T02:56:17.620Z</time>
      </trkpt>
      <trkpt lat="45.89042" lon="3.7731">
        <ele>760</ele>
        <time>2024-12-08T02:56:18.619Z</time>
      </trkpt>
      <trkpt lat="45.89043" lon="3.77312">
        <ele>760</ele>
        <time>2024-12-08T02:56:19.620Z</time>
      </trkpt>
      <trkpt lat="45.89044" lon="3.77314">
        <ele>760</ele>
        <time>2024-12-08T02:56:20.619Z</time>
      </trkpt>
      <trkpt lat="45.89045" lon="3.77317">
        <ele>760</ele>
        <time>2024-12-08T02:56:21.620Z</time>
      </trkpt>
      <trkpt lat="45.89046" lon="3.7732">
        <ele>760</ele>
        <time>2024-12-08T02:56:22.619Z</time>
      </trkpt>
      <trkpt lat="45.89046" lon="3.77322">
        <ele>760</ele>
        <time>2024-12-08T02:56:23.620Z</time>
      </trkpt>
      <trkpt lat="45.89047" lon="3.77325">
        <ele>760</ele>
        <time>2024-12-08T02:56:24.619Z</time>
      </trkpt>
      <trkpt lat="45.89048" lon="3.77328">
        <ele>760</ele>
        <time>2024-12-08T02:56:25.620Z</time>
      </trkpt>
      <trkpt lat="45.89049" lon="3.7733">
        <ele>760</ele>
        <time>2024-12-08T02:56:26.620Z</time>
      </trkpt>
      <trkpt lat="45.8905" lon="3.77333">
        <ele>760</ele>
        <time>2024-12-08T02:56:27.620Z</time>
      </trkpt>
      <trkpt lat="45.8905" lon="3.77335">
        <ele>760</ele>
        <time>2024-12-08T02:56:28.620Z</time>
      </trkpt>
      <trkpt lat="45.89051" lon="3.77338">
        <ele>760</ele>
        <time>2024-12-08T02:56:29.619Z</time>
      </trkpt>
      <trkpt lat="45.89052" lon="3.77341">
        <ele>760</ele>
        <time>2024-12-08T02:56:30.620Z</time>
      </trkpt>
      <trkpt lat="45.89052" lon="3.77344">
        <ele>761</ele>
        <time>2024-12-08T02:56:31.620Z</time>
      </trkpt>
      <trkpt lat="45.89053" lon="3.77347">
        <ele>761</ele>
        <time>2024-12-08T02:56:32.620Z</time>
      </trkpt>
      <trkpt lat="45.89054" lon="3.77349">
        <ele>761</ele>
        <time>2024-12-08T02:56:33.620Z</time>
      </trkpt>
      <trkpt lat="45.89054" lon="3.7735">
        <ele>761</ele>
        <time>2024-12-08T02:56:34.620Z</time>
      </trkpt>
      <trkpt lat="45.89055" lon="3.77352">
        <ele>761</ele>
        <time>2024-12-08T02:56:35.619Z</time>
      </trkpt>
      <trkpt lat="45.89056" lon="3.77355">
        <ele>761</ele>
        <time>2024-12-08T02:56:36.619Z</time>
      </trkpt>
      <trkpt lat="45.89057" lon="3.77357">
        <ele>761</ele>
        <time>2024-12-08T02:56:37.620Z</time>
      </trkpt>
      <trkpt lat="45.89057" lon="3.77358">
        <ele>760</ele>
        <time>2024-12-08T02:56:38.619Z</time>
      </trkpt>
      <trkpt lat="45.89058" lon="3.7736">
        <ele>759</ele>
        <time>2024-12-08T02:56:39.619Z</time>
      </trkpt>
      <trkpt lat="45.89058" lon="3.77361">
        <ele>758</ele>
        <time>2024-12-08T02:56:40.620Z</time>
      </trkpt>
      <trkpt lat="45.89059" lon="3.77364">
        <ele>757</ele>
        <time>2024-12-08T02:56:41.620Z</time>
      </trkpt>
      <trkpt lat="45.89059" lon="3.77366">
        <ele>756</ele>
        <time>2024-12-08T02:56:42.619Z</time>
      </trkpt>
      <trkpt lat="45.8906" lon="3.77369">
        <ele>755</ele>
        <time>2024-12-08T02:56:43.619Z</time>
      </trkpt>
      <trkpt lat="45.89061" lon="3.77371">
        <ele>755</ele>
        <time>2024-12-08T02:56:44.619Z</time>
      </trkpt>
      <trkpt lat="45.89061" lon="3.77374">
        <ele>754</ele>
        <time>2024-12-08T02:56:45.619Z</time>
      </trkpt>
      <trkpt lat="45.89062" lon="3.77376">
        <ele>754</ele>
        <time>2024-12-08T02:56:46.619Z</time>
      </trkpt>
      <trkpt lat="45.89063" lon="3.77378">
        <ele>753</ele>
        <time>2024-12-08T02:56:47.620Z</time>
      </trkpt>
      <trkpt lat="45.89063" lon="3.77381">
        <ele>753</ele>
        <time>2024-12-08T02:56:48.620Z</time>
      </trkpt>
      <trkpt lat="45.89064" lon="3.77383">
        <ele>752</ele>
        <time>2024-12-08T02:56:49.620Z</time>
      </trkpt>
      <trkpt lat="45.89065" lon="3.77385">
        <ele>752</ele>
        <time>2024-12-08T02:56:50.620Z</time>
      </trkpt>
      <trkpt lat="45.89065" lon="3.77388">
        <ele>752</ele>
        <time>2024-12-08T02:56:51.619Z</time>
      </trkpt>
      <trkpt lat="45.89066" lon="3.7739">
        <ele>752</ele>
        <time>2024-12-08T02:56:52.619Z</time>
      </trkpt>
      <trkpt lat="45.89066" lon="3.77392">
        <ele>752</ele>
        <time>2024-12-08T02:56:53.619Z</time>
      </trkpt>
      <trkpt lat="45.89067" lon="3.77395">
        <ele>751</ele>
        <time>2024-12-08T02:56:54.619Z</time>
      </trkpt>
      <trkpt lat="45.89067" lon="3.77397">
        <ele>751</ele>
        <time>2024-12-08T02:56:55.619Z</time>
      </trkpt>
      <trkpt lat="45.89068" lon="3.77399">
        <ele>751</ele>
        <time>2024-12-08T02:56:56.620Z</time>
      </trkpt>
      <trkpt lat="45.89069" lon="3.77402">
        <ele>750</ele>
        <time>2024-12-08T02:56:57.620Z</time>
      </trkpt>
      <trkpt lat="45.8907" lon="3.77404">
        <ele>750</ele>
        <time>2024-12-08T02:56:58.619Z</time>
      </trkpt>
      <trkpt lat="45.89071" lon="3.77406">
        <ele>750</ele>
        <time>2024-12-08T02:56:59.620Z</time>
      </trkpt>
      <trkpt lat="45.89072" lon="3.77408">
        <ele>750</ele>
        <time>2024-12-08T02:57:00.620Z</time>
      </trkpt>
      <trkpt lat="45.89073" lon="3.7741">
        <ele>750</ele>
        <time>2024-12-08T02:57:01.620Z</time>
      </trkpt>
      <trkpt lat="45.89074" lon="3.77412">
        <ele>750</ele>
        <time>2024-12-08T02:57:02.619Z</time>
      </trkpt>
      <trkpt lat="45.89075" lon="3.77415">
        <ele>749</ele>
        <time>2024-12-08T02:57:03.619Z</time>
      </trkpt>
      <trkpt lat="45.89075" lon="3.77417">
        <ele>749</ele>
        <time>2024-12-08T02:57:04.620Z</time>
      </trkpt>
      <trkpt lat="45.89076" lon="3.77419">
        <ele>749</ele>
        <time>2024-12-08T02:57:05.620Z</time>
      </trkpt>
      <trkpt lat="45.89077" lon="3.77421">
        <ele>749</ele>
        <time>2024-12-08T02:57:06.620Z</time>
      </trkpt>
      <trkpt lat="45.89077" lon="3.77424">
        <ele>749</ele>
        <time>2024-12-08T02:57:07.619Z</time>
      </trkpt>
      <trkpt lat="45.89078" lon="3.77426">
        <ele>749</ele>
        <time>2024-12-08T02:57:08.620Z</time>
      </trkpt>
      <trkpt lat="45.89078" lon="3.77429">
        <ele>749</ele>
        <time>2024-12-08T02:57:09.619Z</time>
      </trkpt>
      <trkpt lat="45.89079" lon="3.77431">
        <ele>749</ele>
        <time>2024-12-08T02:57:10.620Z</time>
      </trkpt>
      <trkpt lat="45.8908" lon="3.77433">
        <ele>749</ele>
        <time>2024-12-08T02:57:11.620Z</time>
      </trkpt>
      <trkpt lat="45.89081" lon="3.77436">
        <ele>749</ele>
        <time>2024-12-08T02:57:12.619Z</time>
      </trkpt>
      <trkpt lat="45.89081" lon="3.77438">
        <ele>750</ele>
        <time>2024-12-08T02:57:13.620Z</time>
      </trkpt>
      <trkpt lat="45.89082" lon="3.7744">
        <ele>750</ele>
        <time>2024-12-08T02:57:14.620Z</time>
      </trkpt>
      <trkpt lat="45.89083" lon="3.77443">
        <ele>750</ele>
        <time>2024-12-08T02:57:15.619Z</time>
      </trkpt>
      <trkpt lat="45.89084" lon="3.77445">
        <ele>751</ele>
        <time>2024-12-08T02:57:16.620Z</time>
      </trkpt>
      <trkpt lat="45.89084" lon="3.77448">
        <ele>751</ele>
        <time>2024-12-08T02:57:17.620Z</time>
      </trkpt>
      <trkpt lat="45.89085" lon="3.77451">
        <ele>750</ele>
        <time>2024-12-08T02:57:18.619Z</time>
      </trkpt>
      <trkpt lat="45.89086" lon="3.77453">
        <ele>750</ele>
        <time>2024-12-08T02:57:19.620Z</time>
      </trkpt>
      <trkpt lat="45.89086" lon="3.77456">
        <ele>750</ele>
        <time>2024-12-08T02:57:20.619Z</time>
      </trkpt>
      <trkpt lat="45.89087" lon="3.77458">
        <ele>750</ele>
        <time>2024-12-08T02:57:21.620Z</time>
      </trkpt>
      <trkpt lat="45.89087" lon="3.7746">
        <ele>749</ele>
        <time>2024-12-08T02:57:22.620Z</time>
      </trkpt>
      <trkpt lat="45.89088" lon="3.77462">
        <ele>749</ele>
        <time>2024-12-08T02:57:23.620Z</time>
      </trkpt>
      <trkpt lat="45.89089" lon="3.77465">
        <ele>749</ele>
        <time>2024-12-08T02:57:24.619Z</time>
      </trkpt>
      <trkpt lat="45.89089" lon="3.77467">
        <ele>748</ele>
        <time>2024-12-08T02:57:25.620Z</time>
      </trkpt>
      <trkpt lat="45.8909" lon="3.77469">
        <ele>748</ele>
        <time>2024-12-08T02:57:26.619Z</time>
      </trkpt>
      <trkpt lat="45.8909" lon="3.77472">
        <ele>748</ele>
        <time>2024-12-08T02:57:27.619Z</time>
      </trkpt>
      <trkpt lat="45.89091" lon="3.77474">
        <ele>748</ele>
        <time>2024-12-08T02:57:28.620Z</time>
      </trkpt>
      <trkpt lat="45.89092" lon="3.77476">
        <ele>747</ele>
        <time>2024-12-08T02:57:29.620Z</time>
      </trkpt>
      <trkpt lat="45.89092" lon="3.77479">
        <ele>747</ele>
        <time>2024-12-08T02:57:30.620Z</time>
      </trkpt>
      <trkpt lat="45.89093" lon="3.77481">
        <ele>747</ele>
        <time>2024-12-08T02:57:31.619Z</time>
      </trkpt>
      <trkpt lat="45.89094" lon="3.77483">
        <ele>747</ele>
        <time>2024-12-08T02:57:32.619Z</time>
      </trkpt>
      <trkpt lat="45.89094" lon="3.77485">
        <ele>747</ele>
        <time>2024-12-08T02:57:33.620Z</time>
      </trkpt>
      <trkpt lat="45.89095" lon="3.77487">
        <ele>747</ele>
        <time>2024-12-08T02:57:34.619Z</time>
      </trkpt>
      <trkpt lat="45.89096" lon="3.77489">
        <ele>747</ele>
        <time>2024-12-08T02:57:35.619Z</time>
      </trkpt>
      <trkpt lat="45.89097" lon="3.77492">
        <ele>746</ele>
        <time>2024-12-08T02:57:36.620Z</time>
      </trkpt>
      <trkpt lat="45.89097" lon="3.77494">
        <ele>746</ele>
        <time>2024-12-08T02:57:37.620Z</time>
      </trkpt>
      <trkpt lat="45.89098" lon="3.77497">
        <ele>747</ele>
        <time>2024-12-08T02:57:38.619Z</time>
      </trkpt>
      <trkpt lat="45.89099" lon="3.77499">
        <ele>747</ele>
        <time>2024-12-08T02:57:39.620Z</time>
      </trkpt>
      <trkpt lat="45.89099" lon="3.77501">
        <ele>747</ele>
        <time>2024-12-08T02:57:40.619Z</time>
      </trkpt>
      <trkpt lat="45.891" lon="3.77504">
        <ele>747</ele>
        <time>2024-12-08T02:57:41.620Z</time>
      </trkpt>
      <trkpt lat="45.89101" lon="3.77506">
        <ele>747</ele>
        <time>2024-12-08T02:57:42.620Z</time>
      </trkpt>
      <trkpt lat="45.89101" lon="3.77508">
        <ele>747</ele>
        <time>2024-12-08T02:57:43.619Z</time>
      </trkpt>
      <trkpt lat="45.89102" lon="3.7751">
        <ele>748</ele>
        <time>2024-12-08T02:57:44.619Z</time>
      </trkpt>
      <trkpt lat="45.89102" lon="3.77513">
        <ele>747</ele>
        <time>2024-12-08T02:57:45.620Z</time>
      </trkpt>
      <trkpt lat="45.89103" lon="3.77515">
        <ele>747</ele>
        <time>2024-12-08T02:57:46.619Z</time>
      </trkpt>
      <trkpt lat="45.89104" lon="3.77517">
        <ele>747</ele>
        <time>2024-12-08T02:57:47.619Z</time>
      </trkpt>
      <trkpt lat="45.89105" lon="3.77519">
        <ele>746</ele>
        <time>2024-12-08T02:57:48.620Z</time>
      </trkpt>
      <trkpt lat="45.89105" lon="3.77522">
        <ele>746</ele>
        <time>2024-12-08T02:57:49.619Z</time>
      </trkpt>
      <trkpt lat="45.89106" lon="3.77524">
        <ele>746</ele>
        <time>2024-12-08T02:57:50.619Z</time>
      </trkpt>
      <trkpt lat="45.89107" lon="3.77526">
        <ele>746</ele>
        <time>2024-12-08T02:57:51.620Z</time>
      </trkpt>
      <trkpt lat="45.89107" lon="3.77529">
        <ele>746</ele>
        <time>2024-12-08T02:57:52.620Z</time>
      </trkpt>
      <trkpt lat="45.89108" lon="3.77531">
        <ele>746</ele>
        <time>2024-12-08T02:57:53.619Z</time>
      </trkpt>
      <trkpt lat="45.89109" lon="3.77534">
        <ele>746</ele>
        <time>2024-12-08T02:57:54.620Z</time>
      </trkpt>
      <trkpt lat="45.89109" lon="3.77536">
        <ele>746</ele>
        <time>2024-12-08T02:57:55.620Z</time>
      </trkpt>
      <trkpt lat="45.8911" lon="3.77538">
        <ele>747</ele>
        <time>2024-12-08T02:57:56.619Z</time>
      </trkpt>
      <trkpt lat="45.89111" lon="3.7754">
        <ele>747</ele>
        <time>2024-12-08T02:57:57.619Z</time>
      </trkpt>
      <trkpt lat="45.89111" lon="3.77542">
        <ele>747</ele>
        <time>2024-12-08T02:57:58.620Z</time>
      </trkpt>
      <trkpt lat="45.89111" lon="3.77544">
        <ele>747</ele>
        <time>2024-12-08T02:57:59.619Z</time>
      </trkpt>
      <trkpt lat="45.89112" lon="3.77546">
        <ele>747</ele>
        <time>2024-12-08T02:58:00.620Z</time>
      </trkpt>
      <trkpt lat="45.89113" lon="3.77548">
        <ele>747</ele>
        <time>2024-12-08T02:58:01.619Z</time>
      </trkpt>
      <trkpt lat="45.89114" lon="3.7755">
        <ele>747</ele>
        <time>2024-12-08T02:58:02.619Z</time>
      </trkpt>
      <trkpt lat="45.89114" lon="3.77553">
        <ele>747</ele>
        <time>2024-12-08T02:58:03.620Z</time>
      </trkpt>
      <trkpt lat="45.89115" lon="3.77555">
        <ele>747</ele>
        <time>2024-12-08T02:58:04.620Z</time>
      </trkpt>
      <trkpt lat="45.89115" lon="3.77557">
        <ele>747</ele>
        <time>2024-12-08T02:58:05.619Z</time>
      </trkpt>
      <trkpt lat="45.89116" lon="3.7756">
        <ele>747</ele>
        <time>2024-12-08T02:58:06.619Z</time>
      </trkpt>
      <trkpt lat="45.89117" lon="3.77562">
        <ele>746</ele>
        <time>2024-12-08T02:58:07.620Z</time>
      </trkpt>
      <trkpt lat="45.89118" lon="3.77565">
        <ele>746</ele>
        <time>2024-12-08T02:58:08.619Z</time>
      </trkpt>
      <trkpt lat="45.89119" lon="3.77567">
        <ele>746</ele>
        <time>2024-12-08T02:58:09.619Z</time>
      </trkpt>
      <trkpt lat="45.8912" lon="3.77569">
        <ele>746</ele>
        <time>2024-12-08T02:58:10.620Z</time>
      </trkpt>
      <trkpt lat="45.89121" lon="3.77572">
        <ele>746</ele>
        <time>2024-12-08T02:58:11.619Z</time>
      </trkpt>
      <trkpt lat="45.89121" lon="3.77574">
        <ele>746</ele>
        <time>2024-12-08T02:58:12.620Z</time>
      </trkpt>
      <trkpt lat="45.89122" lon="3.77576">
        <ele>746</ele>
        <time>2024-12-08T02:58:13.620Z</time>
      </trkpt>
      <trkpt lat="45.89122" lon="3.77577">
        <ele>746</ele>
        <time>2024-12-08T02:58:14.620Z</time>
      </trkpt>
      <trkpt lat="45.89123" lon="3.77579">
        <ele>746</ele>
        <time>2024-12-08T02:58:15.619Z</time>
      </trkpt>
      <trkpt lat="45.89123" lon="3.77581">
        <ele>746</ele>
        <time>2024-12-08T02:58:16.620Z</time>
      </trkpt>
      <trkpt lat="45.89124" lon="3.77583">
        <ele>746</ele>
        <time>2024-12-08T02:58:17.620Z</time>
      </trkpt>
      <trkpt lat="45.89125" lon="3.77585">
        <ele>746</ele>
        <time>2024-12-08T02:58:18.619Z</time>
      </trkpt>
      <trkpt lat="45.89125" lon="3.77587">
        <ele>745</ele>
        <time>2024-12-08T02:58:19.619Z</time>
      </trkpt>
      <trkpt lat="45.89125" lon="3.77589">
        <ele>745</ele>
        <time>2024-12-08T02:58:20.619Z</time>
      </trkpt>
      <trkpt lat="45.89126" lon="3.77592">
        <ele>745</ele>
        <time>2024-12-08T02:58:21.619Z</time>
      </trkpt>
      <trkpt lat="45.89127" lon="3.77594">
        <ele>745</ele>
        <time>2024-12-08T02:58:22.620Z</time>
      </trkpt>
      <trkpt lat="45.89128" lon="3.77596">
        <ele>745</ele>
        <time>2024-12-08T02:58:23.620Z</time>
      </trkpt>
      <trkpt lat="45.89129" lon="3.77599">
        <ele>744</ele>
        <time>2024-12-08T02:58:24.619Z</time>
      </trkpt>
      <trkpt lat="45.89129" lon="3.77601">
        <ele>744</ele>
        <time>2024-12-08T02:58:25.620Z</time>
      </trkpt>
      <trkpt lat="45.8913" lon="3.77603">
        <ele>744</ele>
        <time>2024-12-08T02:58:26.619Z</time>
      </trkpt>
      <trkpt lat="45.89131" lon="3.77606">
        <ele>744</ele>
        <time>2024-12-08T02:58:27.619Z</time>
      </trkpt>
      <trkpt lat="45.89131" lon="3.77608">
        <ele>744</ele>
        <time>2024-12-08T02:58:28.620Z</time>
      </trkpt>
      <trkpt lat="45.89132" lon="3.7761">
        <ele>744</ele>
        <time>2024-12-08T02:58:29.619Z</time>
      </trkpt>
      <trkpt lat="45.89132" lon="3.77612">
        <ele>744</ele>
        <time>2024-12-08T02:58:30.619Z</time>
      </trkpt>
      <trkpt lat="45.89133" lon="3.77615">
        <ele>744</ele>
        <time>2024-12-08T02:58:31.619Z</time>
      </trkpt>
      <trkpt lat="45.89134" lon="3.77617">
        <ele>744</ele>
        <time>2024-12-08T02:58:32.620Z</time>
      </trkpt>
      <trkpt lat="45.89135" lon="3.77619">
        <ele>745</ele>
        <time>2024-12-08T02:58:33.619Z</time>
      </trkpt>
      <trkpt lat="45.89135" lon="3.77622">
        <ele>745</ele>
        <time>2024-12-08T02:58:34.619Z</time>
      </trkpt>
      <trkpt lat="45.89136" lon="3.77624">
        <ele>745</ele>
        <time>2024-12-08T02:58:35.619Z</time>
      </trkpt>
      <trkpt lat="45.89137" lon="3.77627">
        <ele>745</ele>
        <time>2024-12-08T02:58:36.619Z</time>
      </trkpt>
      <trkpt lat="45.89137" lon="3.77629">
        <ele>745</ele>
        <time>2024-12-08T02:58:37.619Z</time>
      </trkpt>
      <trkpt lat="45.89138" lon="3.77631">
        <ele>745</ele>
        <time>2024-12-08T02:58:38.620Z</time>
      </trkpt>
      <trkpt lat="45.89139" lon="3.77634">
        <ele>745</ele>
        <time>2024-12-08T02:58:39.620Z</time>
      </trkpt>
      <trkpt lat="45.8914" lon="3.77636">
        <ele>745</ele>
        <time>2024-12-08T02:58:40.620Z</time>
      </trkpt>
      <trkpt lat="45.8914" lon="3.77638">
        <ele>745</ele>
        <time>2024-12-08T02:58:41.619Z</time>
      </trkpt>
      <trkpt lat="45.89141" lon="3.7764">
        <ele>745</ele>
        <time>2024-12-08T02:58:42.619Z</time>
      </trkpt>
      <trkpt lat="45.89142" lon="3.77643">
        <ele>745</ele>
        <time>2024-12-08T02:58:43.620Z</time>
      </trkpt>
      <trkpt lat="45.89143" lon="3.77645">
        <ele>745</ele>
        <time>2024-12-08T02:58:44.620Z</time>
      </trkpt>
      <trkpt lat="45.89143" lon="3.77647">
        <ele>745</ele>
        <time>2024-12-08T02:58:45.620Z</time>
      </trkpt>
      <trkpt lat="45.89144" lon="3.77649">
        <ele>745</ele>
        <time>2024-12-08T02:58:46.619Z</time>
      </trkpt>
      <trkpt lat="45.89145" lon="3.77652">
        <ele>745</ele>
        <time>2024-12-08T02:58:47.619Z</time>
      </trkpt>
      <trkpt lat="45.89146" lon="3.77654">
        <ele>745</ele>
        <time>2024-12-08T02:58:48.620Z</time>
      </trkpt>
      <trkpt lat="45.89147" lon="3.77656">
        <ele>745</ele>
        <time>2024-12-08T02:58:49.620Z</time>
      </trkpt>
      <trkpt lat="45.89148" lon="3.77659">
        <ele>745</ele>
        <time>2024-12-08T02:58:50.619Z</time>
      </trkpt>
      <trkpt lat="45.89149" lon="3.77661">
        <ele>745</ele>
        <time>2024-12-08T02:58:51.619Z</time>
      </trkpt>
      <trkpt lat="45.8915" lon="3.77663">
        <ele>745</ele>
        <time>2024-12-08T02:58:52.620Z</time>
      </trkpt>
      <trkpt lat="45.8915" lon="3.77665">
        <ele>745</ele>
        <time>2024-12-08T02:58:53.619Z</time>
      </trkpt>
      <trkpt lat="45.89151" lon="3.77667">
        <ele>745</ele>
        <time>2024-12-08T02:58:54.619Z</time>
      </trkpt>
      <trkpt lat="45.89152" lon="3.77669">
        <ele>745</ele>
        <time>2024-12-08T02:58:55.619Z</time>
      </trkpt>
      <trkpt lat="45.89152" lon="3.77671">
        <ele>745</ele>
        <time>2024-12-08T02:58:56.619Z</time>
      </trkpt>
      <trkpt lat="45.89153" lon="3.77673">
        <ele>745</ele>
        <time>2024-12-08T02:58:57.620Z</time>
      </trkpt>
      <trkpt lat="45.89154" lon="3.77676">
        <ele>745</ele>
        <time>2024-12-08T02:58:58.619Z</time>
      </trkpt>
      <trkpt lat="45.89155" lon="3.77678">
        <ele>745</ele>
        <time>2024-12-08T02:58:59.620Z</time>
      </trkpt>
      <trkpt lat="45.89156" lon="3.77681">
        <ele>745</ele>
        <time>2024-12-08T02:59:00.620Z</time>
      </trkpt>
      <trkpt lat="45.89158" lon="3.77683">
        <ele>745</ele>
        <time>2024-12-08T02:59:01.620Z</time>
      </trkpt>
      <trkpt lat="45.89159" lon="3.77684">
        <ele>746</ele>
        <time>2024-12-08T02:59:02.619Z</time>
      </trkpt>
      <trkpt lat="45.8916" lon="3.77686">
        <ele>745</ele>
        <time>2024-12-08T02:59:03.620Z</time>
      </trkpt>
      <trkpt lat="45.89161" lon="3.77688">
        <ele>745</ele>
        <time>2024-12-08T02:59:04.620Z</time>
      </trkpt>
      <trkpt lat="45.89162" lon="3.7769">
        <ele>745</ele>
        <time>2024-12-08T02:59:05.619Z</time>
      </trkpt>
      <trkpt lat="45.89163" lon="3.77692">
        <ele>745</ele>
        <time>2024-12-08T02:59:06.619Z</time>
      </trkpt>
      <trkpt lat="45.89165" lon="3.77693">
        <ele>745</ele>
        <time>2024-12-08T02:59:07.619Z</time>
      </trkpt>
      <trkpt lat="45.89166" lon="3.77695">
        <ele>745</ele>
        <time>2024-12-08T02:59:08.619Z</time>
      </trkpt>
      <trkpt lat="45.89168" lon="3.77698">
        <ele>745</ele>
        <time>2024-12-08T02:59:09.619Z</time>
      </trkpt>
      <trkpt lat="45.89169" lon="3.777">
        <ele>745</ele>
        <time>2024-12-08T02:59:10.619Z</time>
      </trkpt>
      <trkpt lat="45.8917" lon="3.77702">
        <ele>745</ele>
        <time>2024-12-08T02:59:11.620Z</time>
      </trkpt>
      <trkpt lat="45.89171" lon="3.77704">
        <ele>744</ele>
        <time>2024-12-08T02:59:12.620Z</time>
      </trkpt>
      <trkpt lat="45.89171" lon="3.77706">
        <ele>744</ele>
        <time>2024-12-08T02:59:13.619Z</time>
      </trkpt>
      <trkpt lat="45.89172" lon="3.77708">
        <ele>743</ele>
        <time>2024-12-08T02:59:14.619Z</time>
      </trkpt>
      <trkpt lat="45.89173" lon="3.7771">
        <ele>743</ele>
        <time>2024-12-08T02:59:15.620Z</time>
      </trkpt>
      <trkpt lat="45.89173" lon="3.77713">
        <ele>742</ele>
        <time>2024-12-08T02:59:16.619Z</time>
      </trkpt>
      <trkpt lat="45.89173" lon="3.77716">
        <ele>742</ele>
        <time>2024-12-08T02:59:17.619Z</time>
      </trkpt>
      <trkpt lat="45.89173" lon="3.77718">
        <ele>742</ele>
        <time>2024-12-08T02:59:18.619Z</time>
      </trkpt>
      <trkpt lat="45.89174" lon="3.77721">
        <ele>742</ele>
        <time>2024-12-08T02:59:19.619Z</time>
      </trkpt>
      <trkpt lat="45.89174" lon="3.77724">
        <ele>741</ele>
        <time>2024-12-08T02:59:20.619Z</time>
      </trkpt>
      <trkpt lat="45.89174" lon="3.77726">
        <ele>741</ele>
        <time>2024-12-08T02:59:21.619Z</time>
      </trkpt>
      <trkpt lat="45.89174" lon="3.77729">
        <ele>741</ele>
        <time>2024-12-08T02:59:22.619Z</time>
      </trkpt>
      <trkpt lat="45.89174" lon="3.77732">
        <ele>741</ele>
        <time>2024-12-08T02:59:23.620Z</time>
      </trkpt>
      <trkpt lat="45.89175" lon="3.77734">
        <ele>741</ele>
        <time>2024-12-08T02:59:24.619Z</time>
      </trkpt>
      <trkpt lat="45.89175" lon="3.77736">
        <ele>740</ele>
        <time>2024-12-08T02:59:25.620Z</time>
      </trkpt>
      <trkpt lat="45.89175" lon="3.77738">
        <ele>740</ele>
        <time>2024-12-08T02:59:26.620Z</time>
      </trkpt>
      <trkpt lat="45.89176" lon="3.77741">
        <ele>740</ele>
        <time>2024-12-08T02:59:27.619Z</time>
      </trkpt>
      <trkpt lat="45.89177" lon="3.77743">
        <ele>740</ele>
        <time>2024-12-08T02:59:28.619Z</time>
      </trkpt>
      <trkpt lat="45.89178" lon="3.77745">
        <ele>739</ele>
        <time>2024-12-08T02:59:29.620Z</time>
      </trkpt>
      <trkpt lat="45.89178" lon="3.77747">
        <ele>739</ele>
        <time>2024-12-08T02:59:30.619Z</time>
      </trkpt>
      <trkpt lat="45.89179" lon="3.77749">
        <ele>739</ele>
        <time>2024-12-08T02:59:31.619Z</time>
      </trkpt>
      <trkpt lat="45.89179" lon="3.77751">
        <ele>739</ele>
        <time>2024-12-08T02:59:32.620Z</time>
      </trkpt>
      <trkpt lat="45.8918" lon="3.77754">
        <ele>738</ele>
        <time>2024-12-08T02:59:33.620Z</time>
      </trkpt>
      <trkpt lat="45.8918" lon="3.77756">
        <ele>738</ele>
        <time>2024-12-08T02:59:34.619Z</time>
      </trkpt>
      <trkpt lat="45.89181" lon="3.77758">
        <ele>738</ele>
        <time>2024-12-08T02:59:35.619Z</time>
      </trkpt>
      <trkpt lat="45.89181" lon="3.7776">
        <ele>738</ele>
        <time>2024-12-08T02:59:36.619Z</time>
      </trkpt>
      <trkpt lat="45.89182" lon="3.77763">
        <ele>737</ele>
        <time>2024-12-08T02:59:37.620Z</time>
      </trkpt>
      <trkpt lat="45.89182" lon="3.77765">
        <ele>737</ele>
        <time>2024-12-08T02:59:38.619Z</time>
      </trkpt>
      <trkpt lat="45.89183" lon="3.77768">
        <ele>737</ele>
        <time>2024-12-08T02:59:39.620Z</time>
      </trkpt>
      <trkpt lat="45.89184" lon="3.7777">
        <ele>737</ele>
        <time>2024-12-08T02:59:40.619Z</time>
      </trkpt>
      <trkpt lat="45.89184" lon="3.77773">
        <ele>737</ele>
        <time>2024-12-08T02:59:41.619Z</time>
      </trkpt>
      <trkpt lat="45.89185" lon="3.77775">
        <ele>737</ele>
        <time>2024-12-08T02:59:42.620Z</time>
      </trkpt>
      <trkpt lat="45.89186" lon="3.77777">
        <ele>737</ele>
        <time>2024-12-08T02:59:43.620Z</time>
      </trkpt>
      <trkpt lat="45.89187" lon="3.7778">
        <ele>736</ele>
        <time>2024-12-08T02:59:44.620Z</time>
      </trkpt>
      <trkpt lat="45.89188" lon="3.77783">
        <ele>736</ele>
        <time>2024-12-08T02:59:45.619Z</time>
      </trkpt>
      <trkpt lat="45.89189" lon="3.77785">
        <ele>736</ele>
        <time>2024-12-08T02:59:46.619Z</time>
      </trkpt>
      <trkpt lat="45.8919" lon="3.77788">
        <ele>736</ele>
        <time>2024-12-08T02:59:47.620Z</time>
      </trkpt>
      <trkpt lat="45.8919" lon="3.7779">
        <ele>736</ele>
        <time>2024-12-08T02:59:48.620Z</time>
      </trkpt>
      <trkpt lat="45.89191" lon="3.77793">
        <ele>736</ele>
        <time>2024-12-08T02:59:49.619Z</time>
      </trkpt>
      <trkpt lat="45.89192" lon="3.77795">
        <ele>736</ele>
        <time>2024-12-08T02:59:50.619Z</time>
      </trkpt>
      <trkpt lat="45.89192" lon="3.77797">
        <ele>736</ele>
        <time>2024-12-08T02:59:51.620Z</time>
      </trkpt>
      <trkpt lat="45.89193" lon="3.77799">
        <ele>736</ele>
        <time>2024-12-08T02:59:52.619Z</time>
      </trkpt>
      <trkpt lat="45.89193" lon="3.77802">
        <ele>735</ele>
        <time>2024-12-08T02:59:53.620Z</time>
      </trkpt>
      <trkpt lat="45.89194" lon="3.77804">
        <ele>735</ele>
        <time>2024-12-08T02:59:54.619Z</time>
      </trkpt>
      <trkpt lat="45.89195" lon="3.77806">
        <ele>735</ele>
        <time>2024-12-08T02:59:55.620Z</time>
      </trkpt>
      <trkpt lat="45.89195" lon="3.77809">
        <ele>734</ele>
        <time>2024-12-08T02:59:56.620Z</time>
      </trkpt>
      <trkpt lat="45.89196" lon="3.77811">
        <ele>734</ele>
        <time>2024-12-08T02:59:57.620Z</time>
      </trkpt>
      <trkpt lat="45.89196" lon="3.77814">
        <ele>734</ele>
        <time>2024-12-08T02:59:58.619Z</time>
      </trkpt>
      <trkpt lat="45.89197" lon="3.77816">
        <ele>733</ele>
        <time>2024-12-08T02:59:59.619Z</time>
      </trkpt>
      <trkpt lat="45.89197" lon="3.77818">
        <ele>733</ele>
        <time>2024-12-08T03:00:00.620Z</time>
      </trkpt>
      <trkpt lat="45.89198" lon="3.7782">
        <ele>733</ele>
        <time>2024-12-08T03:00:01.620Z</time>
      </trkpt>
      <trkpt lat="45.89199" lon="3.77822">
        <ele>732</ele>
        <time>2024-12-08T03:00:02.620Z</time>
      </trkpt>
      <trkpt lat="45.892" lon="3.77824">
        <ele>732</ele>
        <time>2024-12-08T03:00:03.619Z</time>
      </trkpt>
      <trkpt lat="45.89201" lon="3.77827">
        <ele>732</ele>
        <time>2024-12-08T03:00:04.619Z</time>
      </trkpt>
      <trkpt lat="45.89202" lon="3.77829">
        <ele>732</ele>
        <time>2024-12-08T03:00:05.619Z</time>
      </trkpt>
      <trkpt lat="45.89202" lon="3.77832">
        <ele>732</ele>
        <time>2024-12-08T03:00:06.620Z</time>
      </trkpt>
      <trkpt lat="45.89203" lon="3.77834">
        <ele>732</ele>
        <time>2024-12-08T03:00:07.619Z</time>
      </trkpt>
      <trkpt lat="45.89203" lon="3.77836">
        <ele>732</ele>
        <time>2024-12-08T03:00:08.619Z</time>
      </trkpt>
      <trkpt lat="45.89204" lon="3.77838">
        <ele>731</ele>
        <time>2024-12-08T03:00:09.619Z</time>
      </trkpt>
      <trkpt lat="45.89205" lon="3.77841">
        <ele>731</ele>
        <time>2024-12-08T03:00:10.619Z</time>
      </trkpt>
      <trkpt lat="45.89206" lon="3.77843">
        <ele>731</ele>
        <time>2024-12-08T03:00:11.619Z</time>
      </trkpt>
      <trkpt lat="45.89207" lon="3.77845">
        <ele>731</ele>
        <time>2024-12-08T03:00:12.619Z</time>
      </trkpt>
      <trkpt lat="45.89207" lon="3.77847">
        <ele>730</ele>
        <time>2024-12-08T03:00:13.620Z</time>
      </trkpt>
      <trkpt lat="45.89208" lon="3.7785">
        <ele>730</ele>
        <time>2024-12-08T03:00:14.619Z</time>
      </trkpt>
      <trkpt lat="45.89209" lon="3.77852">
        <ele>730</ele>
        <time>2024-12-08T03:00:15.620Z</time>
      </trkpt>
      <trkpt lat="45.8921" lon="3.77854">
        <ele>730</ele>
        <time>2024-12-08T03:00:16.620Z</time>
      </trkpt>
      <trkpt lat="45.8921" lon="3.77857">
        <ele>730</ele>
        <time>2024-12-08T03:00:17.619Z</time>
      </trkpt>
      <trkpt lat="45.89211" lon="3.77859">
        <ele>729</ele>
        <time>2024-12-08T03:00:18.620Z</time>
      </trkpt>
      <trkpt lat="45.89212" lon="3.77861">
        <ele>729</ele>
        <time>2024-12-08T03:00:19.620Z</time>
      </trkpt>
      <trkpt lat="45.89213" lon="3.77864">
        <ele>728</ele>
        <time>2024-12-08T03:00:20.619Z</time>
      </trkpt>
      <trkpt lat="45.89213" lon="3.77866">
        <ele>728</ele>
        <time>2024-12-08T03:00:21.620Z</time>
      </trkpt>
      <trkpt lat="45.89214" lon="3.77868">
        <ele>728</ele>
        <time>2024-12-08T03:00:22.619Z</time>
      </trkpt>
      <trkpt lat="45.89215" lon="3.77871">
        <ele>728</ele>
        <time>2024-12-08T03:00:23.619Z</time>
      </trkpt>
      <trkpt lat="45.89216" lon="3.77873">
        <ele>728</ele>
        <time>2024-12-08T03:00:24.620Z</time>
      </trkpt>
      <trkpt lat="45.89216" lon="3.77876">
        <ele>728</ele>
        <time>2024-12-08T03:00:25.619Z</time>
      </trkpt>
      <trkpt lat="45.89217" lon="3.77878">
        <ele>728</ele>
        <time>2024-12-08T03:00:26.620Z</time>
      </trkpt>
      <trkpt lat="45.89217" lon="3.77881">
        <ele>728</ele>
        <time>2024-12-08T03:00:27.620Z</time>
      </trkpt>
      <trkpt lat="45.89218" lon="3.77883">
        <ele>728</ele>
        <time>2024-12-08T03:00:28.620Z</time>
      </trkpt>
      <trkpt lat="45.89219" lon="3.77885">
        <ele>727</ele>
        <time>2024-12-08T03:00:29.619Z</time>
      </trkpt>
      <trkpt lat="45.89219" lon="3.77888">
        <ele>727</ele>
        <time>2024-12-08T03:00:30.620Z</time>
      </trkpt>
      <trkpt lat="45.8922" lon="3.77891">
        <ele>727</ele>
        <time>2024-12-08T03:00:31.619Z</time>
      </trkpt>
      <trkpt lat="45.8922" lon="3.77893">
        <ele>727</ele>
        <time>2024-12-08T03:00:32.619Z</time>
      </trkpt>
      <trkpt lat="45.89221" lon="3.77896">
        <ele>727</ele>
        <time>2024-12-08T03:00:33.620Z</time>
      </trkpt>
      <trkpt lat="45.89221" lon="3.77898">
        <ele>726</ele>
        <time>2024-12-08T03:00:34.619Z</time>
      </trkpt>
      <trkpt lat="45.89222" lon="3.779">
        <ele>726</ele>
        <time>2024-12-08T03:00:35.620Z</time>
      </trkpt>
      <trkpt lat="45.89223" lon="3.77903">
        <ele>726</ele>
        <time>2024-12-08T03:00:36.620Z</time>
      </trkpt>
      <trkpt lat="45.89224" lon="3.77905">
        <ele>726</ele>
        <time>2024-12-08T03:00:37.619Z</time>
      </trkpt>
      <trkpt lat="45.89224" lon="3.77908">
        <ele>726</ele>
        <time>2024-12-08T03:00:38.619Z</time>
      </trkpt>
      <trkpt lat="45.89225" lon="3.7791">
        <ele>725</ele>
        <time>2024-12-08T03:00:39.619Z</time>
      </trkpt>
      <trkpt lat="45.89225" lon="3.77913">
        <ele>725</ele>
        <time>2024-12-08T03:00:40.619Z</time>
      </trkpt>
      <trkpt lat="45.89226" lon="3.77915">
        <ele>725</ele>
        <time>2024-12-08T03:00:41.619Z</time>
      </trkpt>
      <trkpt lat="45.89227" lon="3.77918">
        <ele>724</ele>
        <time>2024-12-08T03:00:42.619Z</time>
      </trkpt>
      <trkpt lat="45.89228" lon="3.7792">
        <ele>724</ele>
        <time>2024-12-08T03:00:43.619Z</time>
      </trkpt>
      <trkpt lat="45.89228" lon="3.77923">
        <ele>724</ele>
        <time>2024-12-08T03:00:44.620Z</time>
      </trkpt>
      <trkpt lat="45.89229" lon="3.77926">
        <ele>724</ele>
        <time>2024-12-08T03:00:45.619Z</time>
      </trkpt>
      <trkpt lat="45.8923" lon="3.77928">
        <ele>724</ele>
        <time>2024-12-08T03:00:46.619Z</time>
      </trkpt>
      <trkpt lat="45.89231" lon="3.7793">
        <ele>723</ele>
        <time>2024-12-08T03:00:47.619Z</time>
      </trkpt>
      <trkpt lat="45.89232" lon="3.77933">
        <ele>723</ele>
        <time>2024-12-08T03:00:48.620Z</time>
      </trkpt>
      <trkpt lat="45.89233" lon="3.77936">
        <ele>723</ele>
        <time>2024-12-08T03:00:49.619Z</time>
      </trkpt>
      <trkpt lat="45.89234" lon="3.77938">
        <ele>723</ele>
        <time>2024-12-08T03:00:50.619Z</time>
      </trkpt>
      <trkpt lat="45.89234" lon="3.77941">
        <ele>723</ele>
        <time>2024-12-08T03:00:51.619Z</time>
      </trkpt>
      <trkpt lat="45.89235" lon="3.77943">
        <ele>722</ele>
        <time>2024-12-08T03:00:52.620Z</time>
      </trkpt>
      <trkpt lat="45.89236" lon="3.77946">
        <ele>722</ele>
        <time>2024-12-08T03:00:53.620Z</time>
      </trkpt>
      <trkpt lat="45.89237" lon="3.77948">
        <ele>722</ele>
        <time>2024-12-08T03:00:54.620Z</time>
      </trkpt>
      <trkpt lat="45.89237" lon="3.77951">
        <ele>722</ele>
        <time>2024-12-08T03:00:55.619Z</time>
      </trkpt>
      <trkpt lat="45.89238" lon="3.77954">
        <ele>722</ele>
        <time>2024-12-08T03:00:56.620Z</time>
      </trkpt>
      <trkpt lat="45.89238" lon="3.77956">
        <ele>722</ele>
        <time>2024-12-08T03:00:57.619Z</time>
      </trkpt>
      <trkpt lat="45.89238" lon="3.77959">
        <ele>722</ele>
        <time>2024-12-08T03:00:58.620Z</time>
      </trkpt>
      <trkpt lat="45.89239" lon="3.77961">
        <ele>722</ele>
        <time>2024-12-08T03:00:59.619Z</time>
      </trkpt>
      <trkpt lat="45.8924" lon="3.77963">
        <ele>722</ele>
        <time>2024-12-08T03:01:00.620Z</time>
      </trkpt>
      <trkpt lat="45.8924" lon="3.77966">
        <ele>721</ele>
        <time>2024-12-08T03:01:01.619Z</time>
      </trkpt>
      <trkpt lat="45.89241" lon="3.77968">
        <ele>721</ele>
        <time>2024-12-08T03:01:02.620Z</time>
      </trkpt>
      <trkpt lat="45.89242" lon="3.77971">
        <ele>721</ele>
        <time>2024-12-08T03:01:03.619Z</time>
      </trkpt>
      <trkpt lat="45.89242" lon="3.77973">
        <ele>720</ele>
        <time>2024-12-08T03:01:04.619Z</time>
      </trkpt>
      <trkpt lat="45.89243" lon="3.77975">
        <ele>720</ele>
        <time>2024-12-08T03:01:05.619Z</time>
      </trkpt>
      <trkpt lat="45.89244" lon="3.77978">
        <ele>720</ele>
        <time>2024-12-08T03:01:06.619Z</time>
      </trkpt>
      <trkpt lat="45.89245" lon="3.7798">
        <ele>720</ele>
        <time>2024-12-08T03:01:07.619Z</time>
      </trkpt>
      <trkpt lat="45.89245" lon="3.77983">
        <ele>720</ele>
        <time>2024-12-08T03:01:08.619Z</time>
      </trkpt>
      <trkpt lat="45.89246" lon="3.77985">
        <ele>720</ele>
        <time>2024-12-08T03:01:09.619Z</time>
      </trkpt>
      <trkpt lat="45.89247" lon="3.77988">
        <ele>720</ele>
        <time>2024-12-08T03:01:10.620Z</time>
      </trkpt>
      <trkpt lat="45.89248" lon="3.7799">
        <ele>720</ele>
        <time>2024-12-08T03:01:11.620Z</time>
      </trkpt>
      <trkpt lat="45.89248" lon="3.77992">
        <ele>719</ele>
        <time>2024-12-08T03:01:12.620Z</time>
      </trkpt>
      <trkpt lat="45.89249" lon="3.77994">
        <ele>719</ele>
        <time>2024-12-08T03:01:13.620Z</time>
      </trkpt>
      <trkpt lat="45.89249" lon="3.77997">
        <ele>719</ele>
        <time>2024-12-08T03:01:14.620Z</time>
      </trkpt>
      <trkpt lat="45.8925" lon="3.77999">
        <ele>719</ele>
        <time>2024-12-08T03:01:15.619Z</time>
      </trkpt>
      <trkpt lat="45.89251" lon="3.78001">
        <ele>719</ele>
        <time>2024-12-08T03:01:16.619Z</time>
      </trkpt>
      <trkpt lat="45.89252" lon="3.78003">
        <ele>719</ele>
        <time>2024-12-08T03:01:17.619Z</time>
      </trkpt>
      <trkpt lat="45.89252" lon="3.78006">
        <ele>719</ele>
        <time>2024-12-08T03:01:18.619Z</time>
      </trkpt>
      <trkpt lat="45.89253" lon="3.78008">
        <ele>719</ele>
        <time>2024-12-08T03:01:19.619Z</time>
      </trkpt>
      <trkpt lat="45.89254" lon="3.78011">
        <ele>718</ele>
        <time>2024-12-08T03:01:20.619Z</time>
      </trkpt>
      <trkpt lat="45.89254" lon="3.78013">
        <ele>718</ele>
        <time>2024-12-08T03:01:21.620Z</time>
      </trkpt>
      <trkpt lat="45.89255" lon="3.78015">
        <ele>718</ele>
        <time>2024-12-08T03:01:22.620Z</time>
      </trkpt>
      <trkpt lat="45.89256" lon="3.78017">
        <ele>718</ele>
        <time>2024-12-08T03:01:23.619Z</time>
      </trkpt>
      <trkpt lat="45.89257" lon="3.78019">
        <ele>718</ele>
        <time>2024-12-08T03:01:24.620Z</time>
      </trkpt>
      <trkpt lat="45.89258" lon="3.78022">
        <ele>718</ele>
        <time>2024-12-08T03:01:25.619Z</time>
      </trkpt>
      <trkpt lat="45.89259" lon="3.78024">
        <ele>719</ele>
        <time>2024-12-08T03:01:26.620Z</time>
      </trkpt>
      <trkpt lat="45.89259" lon="3.78027">
        <ele>719</ele>
        <time>2024-12-08T03:01:27.619Z</time>
      </trkpt>
      <trkpt lat="45.8926" lon="3.78029">
        <ele>719</ele>
        <time>2024-12-08T03:01:28.619Z</time>
      </trkpt>
      <trkpt lat="45.89261" lon="3.78031">
        <ele>719</ele>
        <time>2024-12-08T03:01:29.619Z</time>
      </trkpt>
      <trkpt lat="45.89262" lon="3.78033">
        <ele>718</ele>
        <time>2024-12-08T03:01:30.620Z</time>
      </trkpt>
      <trkpt lat="45.89262" lon="3.78035">
        <ele>718</ele>
        <time>2024-12-08T03:01:31.619Z</time>
      </trkpt>
      <trkpt lat="45.89263" lon="3.78038">
        <ele>718</ele>
        <time>2024-12-08T03:01:32.619Z</time>
      </trkpt>
      <trkpt lat="45.89264" lon="3.7804">
        <ele>718</ele>
        <time>2024-12-08T03:01:33.620Z</time>
      </trkpt>
      <trkpt lat="45.89264" lon="3.78043">
        <ele>718</ele>
        <time>2024-12-08T03:01:34.620Z</time>
      </trkpt>
      <trkpt lat="45.89265" lon="3.78045">
        <ele>717</ele>
        <time>2024-12-08T03:01:35.619Z</time>
      </trkpt>
      <trkpt lat="45.89266" lon="3.78047">
        <ele>717</ele>
        <time>2024-12-08T03:01:36.620Z</time>
      </trkpt>
      <trkpt lat="45.89267" lon="3.78049">
        <ele>717</ele>
        <time>2024-12-08T03:01:37.620Z</time>
      </trkpt>
      <trkpt lat="45.89268" lon="3.78052">
        <ele>717</ele>
        <time>2024-12-08T03:01:38.619Z</time>
      </trkpt>
      <trkpt lat="45.89268" lon="3.78054">
        <ele>717</ele>
        <time>2024-12-08T03:01:39.619Z</time>
      </trkpt>
      <trkpt lat="45.89269" lon="3.78056">
        <ele>716</ele>
        <time>2024-12-08T03:01:40.620Z</time>
      </trkpt>
      <trkpt lat="45.89269" lon="3.78059">
        <ele>717</ele>
        <time>2024-12-08T03:01:41.619Z</time>
      </trkpt>
      <trkpt lat="45.8927" lon="3.78062">
        <ele>717</ele>
        <time>2024-12-08T03:01:42.620Z</time>
      </trkpt>
      <trkpt lat="45.89271" lon="3.78065">
        <ele>717</ele>
        <time>2024-12-08T03:01:43.620Z</time>
      </trkpt>
      <trkpt lat="45.89271" lon="3.78067">
        <ele>716</ele>
        <time>2024-12-08T03:01:44.620Z</time>
      </trkpt>
      <trkpt lat="45.89271" lon="3.7807">
        <ele>716</ele>
        <time>2024-12-08T03:01:45.619Z</time>
      </trkpt>
      <trkpt lat="45.89272" lon="3.78072">
        <ele>716</ele>
        <time>2024-12-08T03:01:46.620Z</time>
      </trkpt>
      <trkpt lat="45.89272" lon="3.78074">
        <ele>716</ele>
        <time>2024-12-08T03:01:47.620Z</time>
      </trkpt>
      <trkpt lat="45.89273" lon="3.78077">
        <ele>716</ele>
        <time>2024-12-08T03:01:48.620Z</time>
      </trkpt>
      <trkpt lat="45.89273" lon="3.78079">
        <ele>716</ele>
        <time>2024-12-08T03:01:49.620Z</time>
      </trkpt>
      <trkpt lat="45.89274" lon="3.78081">
        <ele>716</ele>
        <time>2024-12-08T03:01:50.620Z</time>
      </trkpt>
      <trkpt lat="45.89275" lon="3.78083">
        <ele>715</ele>
        <time>2024-12-08T03:01:51.619Z</time>
      </trkpt>
      <trkpt lat="45.89276" lon="3.78086">
        <ele>715</ele>
        <time>2024-12-08T03:01:52.619Z</time>
      </trkpt>
      <trkpt lat="45.89276" lon="3.78088">
        <ele>715</ele>
        <time>2024-12-08T03:01:53.620Z</time>
      </trkpt>
      <trkpt lat="45.89277" lon="3.7809">
        <ele>714</ele>
        <time>2024-12-08T03:01:54.620Z</time>
      </trkpt>
      <trkpt lat="45.89278" lon="3.78092">
        <ele>714</ele>
        <time>2024-12-08T03:01:55.619Z</time>
      </trkpt>
      <trkpt lat="45.89279" lon="3.78094">
        <ele>714</ele>
        <time>2024-12-08T03:01:56.619Z</time>
      </trkpt>
      <trkpt lat="45.8928" lon="3.78097">
        <ele>714</ele>
        <time>2024-12-08T03:01:57.619Z</time>
      </trkpt>
      <trkpt lat="45.89281" lon="3.78099">
        <ele>714</ele>
        <time>2024-12-08T03:01:58.620Z</time>
      </trkpt>
      <trkpt lat="45.89282" lon="3.78102">
        <ele>714</ele>
        <time>2024-12-08T03:01:59.620Z</time>
      </trkpt>
      <trkpt lat="45.89282" lon="3.78104">
        <ele>713</ele>
        <time>2024-12-08T03:02:00.619Z</time>
      </trkpt>
      <trkpt lat="45.89283" lon="3.78106">
        <ele>713</ele>
        <time>2024-12-08T03:02:01.620Z</time>
      </trkpt>
      <trkpt lat="45.89284" lon="3.78109">
        <ele>713</ele>
        <time>2024-12-08T03:02:02.620Z</time>
      </trkpt>
      <trkpt lat="45.89285" lon="3.78111">
        <ele>713</ele>
        <time>2024-12-08T03:02:03.620Z</time>
      </trkpt>
      <trkpt lat="45.89286" lon="3.78114">
        <ele>713</ele>
        <time>2024-12-08T03:02:04.619Z</time>
      </trkpt>
      <trkpt lat="45.89287" lon="3.78116">
        <ele>713</ele>
        <time>2024-12-08T03:02:05.619Z</time>
      </trkpt>
      <trkpt lat="45.89288" lon="3.78118">
        <ele>713</ele>
        <time>2024-12-08T03:02:06.620Z</time>
      </trkpt>
      <trkpt lat="45.89288" lon="3.7812">
        <ele>712</ele>
        <time>2024-12-08T03:02:07.619Z</time>
      </trkpt>
      <trkpt lat="45.89289" lon="3.78123">
        <ele>712</ele>
        <time>2024-12-08T03:02:08.620Z</time>
      </trkpt>
      <trkpt lat="45.89289" lon="3.78125">
        <ele>712</ele>
        <time>2024-12-08T03:02:09.619Z</time>
      </trkpt>
      <trkpt lat="45.8929" lon="3.78127">
        <ele>712</ele>
        <time>2024-12-08T03:02:10.619Z</time>
      </trkpt>
      <trkpt lat="45.89291" lon="3.78129">
        <ele>711</ele>
        <time>2024-12-08T03:02:11.619Z</time>
      </trkpt>
      <trkpt lat="45.89292" lon="3.78131">
        <ele>711</ele>
        <time>2024-12-08T03:02:12.619Z</time>
      </trkpt>
      <trkpt lat="45.89292" lon="3.78134">
        <ele>711</ele>
        <time>2024-12-08T03:02:13.619Z</time>
      </trkpt>
      <trkpt lat="45.89293" lon="3.78136">
        <ele>710</ele>
        <time>2024-12-08T03:02:14.619Z</time>
      </trkpt>
      <trkpt lat="45.89294" lon="3.78139">
        <ele>710</ele>
        <time>2024-12-08T03:02:15.620Z</time>
      </trkpt>
      <trkpt lat="45.89294" lon="3.78141">
        <ele>710</ele>
        <time>2024-12-08T03:02:16.619Z</time>
      </trkpt>
      <trkpt lat="45.89295" lon="3.78143">
        <ele>709</ele>
        <time>2024-12-08T03:02:17.619Z</time>
      </trkpt>
      <trkpt lat="45.89296" lon="3.78146">
        <ele>709</ele>
        <time>2024-12-08T03:02:18.619Z</time>
      </trkpt>
      <trkpt lat="45.89297" lon="3.78149">
        <ele>709</ele>
        <time>2024-12-08T03:02:19.619Z</time>
      </trkpt>
      <trkpt lat="45.89297" lon="3.78151">
        <ele>709</ele>
        <time>2024-12-08T03:02:20.620Z</time>
      </trkpt>
      <trkpt lat="45.89298" lon="3.78154">
        <ele>709</ele>
        <time>2024-12-08T03:02:21.620Z</time>
      </trkpt>
      <trkpt lat="45.89299" lon="3.78156">
        <ele>709</ele>
        <time>2024-12-08T03:02:22.619Z</time>
      </trkpt>
      <trkpt lat="45.89299" lon="3.78158">
        <ele>710</ele>
        <time>2024-12-08T03:02:23.619Z</time>
      </trkpt>
      <trkpt lat="45.893" lon="3.78161">
        <ele>709</ele>
        <time>2024-12-08T03:02:24.619Z</time>
      </trkpt>
      <trkpt lat="45.893" lon="3.78163">
        <ele>709</ele>
        <time>2024-12-08T03:02:25.620Z</time>
      </trkpt>
      <trkpt lat="45.89301" lon="3.78165">
        <ele>709</ele>
        <time>2024-12-08T03:02:26.619Z</time>
      </trkpt>
      <trkpt lat="45.89302" lon="3.78168">
        <ele>709</ele>
        <time>2024-12-08T03:02:27.619Z</time>
      </trkpt>
      <trkpt lat="45.89302" lon="3.7817">
        <ele>709</ele>
        <time>2024-12-08T03:02:28.620Z</time>
      </trkpt>
      <trkpt lat="45.89303" lon="3.78173">
        <ele>709</ele>
        <time>2024-12-08T03:02:29.619Z</time>
      </trkpt>
      <trkpt lat="45.89304" lon="3.78175">
        <ele>709</ele>
        <time>2024-12-08T03:02:30.619Z</time>
      </trkpt>
      <trkpt lat="45.89305" lon="3.78178">
        <ele>709</ele>
        <time>2024-12-08T03:02:31.620Z</time>
      </trkpt>
      <trkpt lat="45.89306" lon="3.7818">
        <ele>709</ele>
        <time>2024-12-08T03:02:32.620Z</time>
      </trkpt>
      <trkpt lat="45.89306" lon="3.78182">
        <ele>709</ele>
        <time>2024-12-08T03:02:33.620Z</time>
      </trkpt>
      <trkpt lat="45.89307" lon="3.78184">
        <ele>709</ele>
        <time>2024-12-08T03:02:34.620Z</time>
      </trkpt>
      <trkpt lat="45.89308" lon="3.78187">
        <ele>709</ele>
        <time>2024-12-08T03:02:35.620Z</time>
      </trkpt>
      <trkpt lat="45.89309" lon="3.78189">
        <ele>709</ele>
        <time>2024-12-08T03:02:36.620Z</time>
      </trkpt>
      <trkpt lat="45.8931" lon="3.78191">
        <ele>710</ele>
        <time>2024-12-08T03:02:37.619Z</time>
      </trkpt>
      <trkpt lat="45.8931" lon="3.78194">
        <ele>710</ele>
        <time>2024-12-08T03:02:38.620Z</time>
      </trkpt>
      <trkpt lat="45.89311" lon="3.78196">
        <ele>710</ele>
        <time>2024-12-08T03:02:39.619Z</time>
      </trkpt>
      <trkpt lat="45.89312" lon="3.78198">
        <ele>710</ele>
        <time>2024-12-08T03:02:40.620Z</time>
      </trkpt>
      <trkpt lat="45.89312" lon="3.782">
        <ele>710</ele>
        <time>2024-12-08T03:02:41.619Z</time>
      </trkpt>
      <trkpt lat="45.89313" lon="3.78202">
        <ele>711</ele>
        <time>2024-12-08T03:02:42.619Z</time>
      </trkpt>
      <trkpt lat="45.89314" lon="3.78205">
        <ele>711</ele>
        <time>2024-12-08T03:02:43.619Z</time>
      </trkpt>
      <trkpt lat="45.89315" lon="3.78207">
        <ele>711</ele>
        <time>2024-12-08T03:02:44.619Z</time>
      </trkpt>
      <trkpt lat="45.89316" lon="3.7821">
        <ele>711</ele>
        <time>2024-12-08T03:02:45.620Z</time>
      </trkpt>
      <trkpt lat="45.89317" lon="3.78212">
        <ele>711</ele>
        <time>2024-12-08T03:02:46.619Z</time>
      </trkpt>
      <trkpt lat="45.89317" lon="3.78215">
        <ele>711</ele>
        <time>2024-12-08T03:02:47.619Z</time>
      </trkpt>
      <trkpt lat="45.89317" lon="3.78217">
        <ele>712</ele>
        <time>2024-12-08T03:02:48.619Z</time>
      </trkpt>
      <trkpt lat="45.89318" lon="3.7822">
        <ele>712</ele>
        <time>2024-12-08T03:02:49.619Z</time>
      </trkpt>
      <trkpt lat="45.89319" lon="3.78222">
        <ele>712</ele>
        <time>2024-12-08T03:02:50.620Z</time>
      </trkpt>
      <trkpt lat="45.89319" lon="3.78224">
        <ele>712</ele>
        <time>2024-12-08T03:02:51.619Z</time>
      </trkpt>
      <trkpt lat="45.89319" lon="3.78227">
        <ele>712</ele>
        <time>2024-12-08T03:02:52.619Z</time>
      </trkpt>
      <trkpt lat="45.8932" lon="3.78229">
        <ele>712</ele>
        <time>2024-12-08T03:02:53.619Z</time>
      </trkpt>
      <trkpt lat="45.89321" lon="3.78231">
        <ele>712</ele>
        <time>2024-12-08T03:02:54.620Z</time>
      </trkpt>
      <trkpt lat="45.89321" lon="3.78234">
        <ele>712</ele>
        <time>2024-12-08T03:02:55.619Z</time>
      </trkpt>
      <trkpt lat="45.89322" lon="3.78236">
        <ele>711</ele>
        <time>2024-12-08T03:02:56.619Z</time>
      </trkpt>
      <trkpt lat="45.89323" lon="3.78238">
        <ele>711</ele>
        <time>2024-12-08T03:02:57.619Z</time>
      </trkpt>
      <trkpt lat="45.89324" lon="3.7824">
        <ele>711</ele>
        <time>2024-12-08T03:02:58.619Z</time>
      </trkpt>
      <trkpt lat="45.89324" lon="3.78243">
        <ele>711</ele>
        <time>2024-12-08T03:02:59.620Z</time>
      </trkpt>
      <trkpt lat="45.89325" lon="3.78245">
        <ele>710</ele>
        <time>2024-12-08T03:03:00.619Z</time>
      </trkpt>
      <trkpt lat="45.89325" lon="3.78248">
        <ele>710</ele>
        <time>2024-12-08T03:03:01.619Z</time>
      </trkpt>
      <trkpt lat="45.89326" lon="3.78251">
        <ele>710</ele>
        <time>2024-12-08T03:03:02.620Z</time>
      </trkpt>
      <trkpt lat="45.89326" lon="3.78253">
        <ele>710</ele>
        <time>2024-12-08T03:03:03.619Z</time>
      </trkpt>
      <trkpt lat="45.89326" lon="3.78256">
        <ele>710</ele>
        <time>2024-12-08T03:03:04.620Z</time>
      </trkpt>
      <trkpt lat="45.89327" lon="3.78258">
        <ele>710</ele>
        <time>2024-12-08T03:03:05.620Z</time>
      </trkpt>
      <trkpt lat="45.89328" lon="3.7826">
        <ele>710</ele>
        <time>2024-12-08T03:03:06.619Z</time>
      </trkpt>
      <trkpt lat="45.89328" lon="3.78262">
        <ele>710</ele>
        <time>2024-12-08T03:03:07.620Z</time>
      </trkpt>
      <trkpt lat="45.89329" lon="3.78265">
        <ele>709</ele>
        <time>2024-12-08T03:03:08.619Z</time>
      </trkpt>
      <trkpt lat="45.8933" lon="3.78267">
        <ele>709</ele>
        <time>2024-12-08T03:03:09.620Z</time>
      </trkpt>
      <trkpt lat="45.8933" lon="3.78269">
        <ele>709</ele>
        <time>2024-12-08T03:03:10.620Z</time>
      </trkpt>
      <trkpt lat="45.89331" lon="3.78271">
        <ele>709</ele>
        <time>2024-12-08T03:03:11.619Z</time>
      </trkpt>
      <trkpt lat="45.89332" lon="3.78273">
        <ele>709</ele>
        <time>2024-12-08T03:03:12.620Z</time>
      </trkpt>
      <trkpt lat="45.89333" lon="3.78276">
        <ele>709</ele>
        <time>2024-12-08T03:03:13.620Z</time>
      </trkpt>
      <trkpt lat="45.89333" lon="3.78278">
        <ele>709</ele>
        <time>2024-12-08T03:03:14.619Z</time>
      </trkpt>
      <trkpt lat="45.89334" lon="3.78281">
        <ele>709</ele>
        <time>2024-12-08T03:03:15.619Z</time>
      </trkpt>
      <trkpt lat="45.89334" lon="3.78283">
        <ele>709</ele>
        <time>2024-12-08T03:03:16.620Z</time>
      </trkpt>
      <trkpt lat="45.89335" lon="3.78285">
        <ele>709</ele>
        <time>2024-12-08T03:03:17.620Z</time>
      </trkpt>
      <trkpt lat="45.89336" lon="3.78288">
        <ele>709</ele>
        <time>2024-12-08T03:03:18.619Z</time>
      </trkpt>
      <trkpt lat="45.89337" lon="3.7829">
        <ele>708</ele>
        <time>2024-12-08T03:03:19.619Z</time>
      </trkpt>
      <trkpt lat="45.89338" lon="3.78293">
        <ele>708</ele>
        <time>2024-12-08T03:03:20.620Z</time>
      </trkpt>
      <trkpt lat="45.89339" lon="3.78295">
        <ele>708</ele>
        <time>2024-12-08T03:03:21.620Z</time>
      </trkpt>
      <trkpt lat="45.8934" lon="3.78298">
        <ele>709</ele>
        <time>2024-12-08T03:03:22.620Z</time>
      </trkpt>
      <trkpt lat="45.89341" lon="3.783">
        <ele>709</ele>
        <time>2024-12-08T03:03:23.619Z</time>
      </trkpt>
      <trkpt lat="45.89342" lon="3.78302">
        <ele>709</ele>
        <time>2024-12-08T03:03:24.619Z</time>
      </trkpt>
      <trkpt lat="45.89343" lon="3.78304">
        <ele>709</ele>
        <time>2024-12-08T03:03:25.620Z</time>
      </trkpt>
      <trkpt lat="45.89344" lon="3.78306">
        <ele>709</ele>
        <time>2024-12-08T03:03:26.620Z</time>
      </trkpt>
      <trkpt lat="45.89345" lon="3.78309">
        <ele>710</ele>
        <time>2024-12-08T03:03:27.619Z</time>
      </trkpt>
      <trkpt lat="45.89346" lon="3.78311">
        <ele>710</ele>
        <time>2024-12-08T03:03:28.620Z</time>
      </trkpt>
      <trkpt lat="45.89347" lon="3.78313">
        <ele>710</ele>
        <time>2024-12-08T03:03:29.620Z</time>
      </trkpt>
      <trkpt lat="45.89347" lon="3.78316">
        <ele>710</ele>
        <time>2024-12-08T03:03:30.620Z</time>
      </trkpt>
      <trkpt lat="45.89348" lon="3.78318">
        <ele>710</ele>
        <time>2024-12-08T03:03:31.620Z</time>
      </trkpt>
      <trkpt lat="45.89348" lon="3.7832">
        <ele>709</ele>
        <time>2024-12-08T03:03:32.619Z</time>
      </trkpt>
      <trkpt lat="45.89349" lon="3.78323">
        <ele>709</ele>
        <time>2024-12-08T03:03:33.619Z</time>
      </trkpt>
      <trkpt lat="45.8935" lon="3.78325">
        <ele>709</ele>
        <time>2024-12-08T03:03:34.620Z</time>
      </trkpt>
      <trkpt lat="45.8935" lon="3.78327">
        <ele>708</ele>
        <time>2024-12-08T03:03:35.619Z</time>
      </trkpt>
      <trkpt lat="45.8935" lon="3.7833">
        <ele>708</ele>
        <time>2024-12-08T03:03:36.619Z</time>
      </trkpt>
      <trkpt lat="45.89351" lon="3.78333">
        <ele>708</ele>
        <time>2024-12-08T03:03:37.620Z</time>
      </trkpt>
      <trkpt lat="45.89352" lon="3.78335">
        <ele>707</ele>
        <time>2024-12-08T03:03:38.619Z</time>
      </trkpt>
      <trkpt lat="45.89353" lon="3.78337">
        <ele>707</ele>
        <time>2024-12-08T03:03:39.620Z</time>
      </trkpt>
      <trkpt lat="45.89354" lon="3.7834">
        <ele>707</ele>
        <time>2024-12-08T03:03:40.619Z</time>
      </trkpt>
      <trkpt lat="45.89355" lon="3.78342">
        <ele>707</ele>
        <time>2024-12-08T03:03:41.620Z</time>
      </trkpt>
      <trkpt lat="45.89355" lon="3.78345">
        <ele>707</ele>
        <time>2024-12-08T03:03:42.620Z</time>
      </trkpt>
      <trkpt lat="45.89356" lon="3.78347">
        <ele>707</ele>
        <time>2024-12-08T03:03:43.620Z</time>
      </trkpt>
      <trkpt lat="45.89356" lon="3.7835">
        <ele>707</ele>
        <time>2024-12-08T03:03:44.619Z</time>
      </trkpt>
      <trkpt lat="45.89357" lon="3.78352">
        <ele>707</ele>
        <time>2024-12-08T03:03:45.620Z</time>
      </trkpt>
      <trkpt lat="45.89357" lon="3.78354">
        <ele>707</ele>
        <time>2024-12-08T03:03:46.619Z</time>
      </trkpt>
      <trkpt lat="45.89358" lon="3.78356">
        <ele>706</ele>
        <time>2024-12-08T03:03:47.620Z</time>
      </trkpt>
      <trkpt lat="45.89359" lon="3.78358">
        <ele>706</ele>
        <time>2024-12-08T03:03:48.619Z</time>
      </trkpt>
      <trkpt lat="45.89359" lon="3.78361">
        <ele>706</ele>
        <time>2024-12-08T03:03:49.620Z</time>
      </trkpt>
      <trkpt lat="45.8936" lon="3.78363">
        <ele>706</ele>
        <time>2024-12-08T03:03:50.619Z</time>
      </trkpt>
      <trkpt lat="45.89361" lon="3.78365">
        <ele>706</ele>
        <time>2024-12-08T03:03:51.619Z</time>
      </trkpt>
      <trkpt lat="45.89362" lon="3.78368">
        <ele>706</ele>
        <time>2024-12-08T03:03:52.619Z</time>
      </trkpt>
      <trkpt lat="45.89362" lon="3.7837">
        <ele>705</ele>
        <time>2024-12-08T03:03:53.619Z</time>
      </trkpt>
      <trkpt lat="45.89363" lon="3.78372">
        <ele>705</ele>
        <time>2024-12-08T03:03:54.620Z</time>
      </trkpt>
      <trkpt lat="45.89363" lon="3.78374">
        <ele>705</ele>
        <time>2024-12-08T03:03:55.619Z</time>
      </trkpt>
      <trkpt lat="45.89364" lon="3.78377">
        <ele>705</ele>
        <time>2024-12-08T03:03:56.619Z</time>
      </trkpt>
      <trkpt lat="45.89364" lon="3.78379">
        <ele>705</ele>
        <time>2024-12-08T03:03:57.619Z</time>
      </trkpt>
      <trkpt lat="45.89365" lon="3.78381">
        <ele>705</ele>
        <time>2024-12-08T03:03:58.619Z</time>
      </trkpt>
      <trkpt lat="45.89365" lon="3.78383">
        <ele>705</ele>
        <time>2024-12-08T03:03:59.620Z</time>
      </trkpt>
      <trkpt lat="45.89366" lon="3.78385">
        <ele>706</ele>
        <time>2024-12-08T03:04:00.620Z</time>
      </trkpt>
      <trkpt lat="45.89367" lon="3.78388">
        <ele>705</ele>
        <time>2024-12-08T03:04:01.619Z</time>
      </trkpt>
      <trkpt lat="45.89368" lon="3.7839">
        <ele>705</ele>
        <time>2024-12-08T03:04:02.619Z</time>
      </trkpt>
      <trkpt lat="45.89368" lon="3.78392">
        <ele>705</ele>
        <time>2024-12-08T03:04:03.619Z</time>
      </trkpt>
      <trkpt lat="45.89369" lon="3.78395">
        <ele>705</ele>
        <time>2024-12-08T03:04:04.620Z</time>
      </trkpt>
      <trkpt lat="45.8937" lon="3.78397">
        <ele>705</ele>
        <time>2024-12-08T03:04:05.619Z</time>
      </trkpt>
      <trkpt lat="45.8937" lon="3.78399">
        <ele>705</ele>
        <time>2024-12-08T03:04:06.620Z</time>
      </trkpt>
      <trkpt lat="45.89371" lon="3.78401">
        <ele>705</ele>
        <time>2024-12-08T03:04:07.620Z</time>
      </trkpt>
      <trkpt lat="45.89371" lon="3.78404">
        <ele>705</ele>
        <time>2024-12-08T03:04:08.619Z</time>
      </trkpt>
      <trkpt lat="45.89372" lon="3.78405">
        <ele>705</ele>
        <time>2024-12-08T03:04:09.620Z</time>
      </trkpt>
      <trkpt lat="45.89372" lon="3.78407">
        <ele>704</ele>
        <time>2024-12-08T03:04:10.620Z</time>
      </trkpt>
      <trkpt lat="45.89373" lon="3.78409">
        <ele>704</ele>
        <time>2024-12-08T03:04:11.619Z</time>
      </trkpt>
      <trkpt lat="45.89374" lon="3.78411">
        <ele>704</ele>
        <time>2024-12-08T03:04:12.620Z</time>
      </trkpt>
      <trkpt lat="45.89374" lon="3.78414">
        <ele>704</ele>
        <time>2024-12-08T03:04:13.620Z</time>
      </trkpt>
      <trkpt lat="45.89375" lon="3.78416">
        <ele>704</ele>
        <time>2024-12-08T03:04:14.620Z</time>
      </trkpt>
      <trkpt lat="45.89376" lon="3.78418">
        <ele>705</ele>
        <time>2024-12-08T03:04:15.619Z</time>
      </trkpt>
      <trkpt lat="45.89376" lon="3.7842">
        <ele>704</ele>
        <time>2024-12-08T03:04:16.620Z</time>
      </trkpt>
      <trkpt lat="45.89377" lon="3.78423">
        <ele>704</ele>
        <time>2024-12-08T03:04:17.620Z</time>
      </trkpt>
      <trkpt lat="45.89378" lon="3.78425">
        <ele>704</ele>
        <time>2024-12-08T03:04:18.620Z</time>
      </trkpt>
      <trkpt lat="45.89378" lon="3.78427">
        <ele>704</ele>
        <time>2024-12-08T03:04:19.619Z</time>
      </trkpt>
      <trkpt lat="45.89379" lon="3.7843">
        <ele>704</ele>
        <time>2024-12-08T03:04:20.619Z</time>
      </trkpt>
      <trkpt lat="45.8938" lon="3.78433">
        <ele>704</ele>
        <time>2024-12-08T03:04:21.620Z</time>
      </trkpt>
      <trkpt lat="45.89381" lon="3.78435">
        <ele>704</ele>
        <time>2024-12-08T03:04:22.620Z</time>
      </trkpt>
      <trkpt lat="45.89382" lon="3.78437">
        <ele>704</ele>
        <time>2024-12-08T03:04:23.620Z</time>
      </trkpt>
      <trkpt lat="45.89382" lon="3.7844">
        <ele>704</ele>
        <time>2024-12-08T03:04:24.620Z</time>
      </trkpt>
      <trkpt lat="45.89383" lon="3.78442">
        <ele>704</ele>
        <time>2024-12-08T03:04:25.619Z</time>
      </trkpt>
      <trkpt lat="45.89384" lon="3.78444">
        <ele>704</ele>
        <time>2024-12-08T03:04:26.619Z</time>
      </trkpt>
      <trkpt lat="45.89385" lon="3.78446">
        <ele>704</ele>
        <time>2024-12-08T03:04:27.619Z</time>
      </trkpt>
      <trkpt lat="45.89385" lon="3.78449">
        <ele>704</ele>
        <time>2024-12-08T03:04:28.619Z</time>
      </trkpt>
      <trkpt lat="45.89386" lon="3.78451">
        <ele>704</ele>
        <time>2024-12-08T03:04:29.619Z</time>
      </trkpt>
      <trkpt lat="45.89387" lon="3.78453">
        <ele>704</ele>
        <time>2024-12-08T03:04:30.620Z</time>
      </trkpt>
      <trkpt lat="45.89387" lon="3.78455">
        <ele>704</ele>
        <time>2024-12-08T03:04:31.619Z</time>
      </trkpt>
      <trkpt lat="45.89388" lon="3.78458">
        <ele>704</ele>
        <time>2024-12-08T03:04:32.619Z</time>
      </trkpt>
      <trkpt lat="45.89389" lon="3.7846">
        <ele>703</ele>
        <time>2024-12-08T03:04:33.619Z</time>
      </trkpt>
      <trkpt lat="45.8939" lon="3.78462">
        <ele>703</ele>
        <time>2024-12-08T03:04:34.620Z</time>
      </trkpt>
      <trkpt lat="45.8939" lon="3.78465">
        <ele>703</ele>
        <time>2024-12-08T03:04:35.620Z</time>
      </trkpt>
      <trkpt lat="45.89391" lon="3.78467">
        <ele>703</ele>
        <time>2024-12-08T03:04:36.620Z</time>
      </trkpt>
      <trkpt lat="45.89392" lon="3.78469">
        <ele>703</ele>
        <time>2024-12-08T03:04:37.619Z</time>
      </trkpt>
      <trkpt lat="45.89392" lon="3.78471">
        <ele>703</ele>
        <time>2024-12-08T03:04:38.620Z</time>
      </trkpt>
      <trkpt lat="45.89393" lon="3.78473">
        <ele>703</ele>
        <time>2024-12-08T03:04:39.619Z</time>
      </trkpt>
      <trkpt lat="45.89394" lon="3.78476">
        <ele>703</ele>
        <time>2024-12-08T03:04:40.620Z</time>
      </trkpt>
      <trkpt lat="45.89395" lon="3.78478">
        <ele>703</ele>
        <time>2024-12-08T03:04:41.620Z</time>
      </trkpt>
      <trkpt lat="45.89396" lon="3.78481">
        <ele>703</ele>
        <time>2024-12-08T03:04:42.620Z</time>
      </trkpt>
      <trkpt lat="45.89396" lon="3.78483">
        <ele>703</ele>
        <time>2024-12-08T03:04:43.620Z</time>
      </trkpt>
      <trkpt lat="45.89397" lon="3.78485">
        <ele>703</ele>
        <time>2024-12-08T03:04:44.619Z</time>
      </trkpt>
      <trkpt lat="45.89398" lon="3.78488">
        <ele>703</ele>
        <time>2024-12-08T03:04:45.620Z</time>
      </trkpt>
      <trkpt lat="45.89398" lon="3.7849">
        <ele>703</ele>
        <time>2024-12-08T03:04:46.620Z</time>
      </trkpt>
      <trkpt lat="45.89399" lon="3.78492">
        <ele>703</ele>
        <time>2024-12-08T03:04:47.619Z</time>
      </trkpt>
      <trkpt lat="45.894" lon="3.78494">
        <ele>703</ele>
        <time>2024-12-08T03:04:48.620Z</time>
      </trkpt>
      <trkpt lat="45.894" lon="3.78497">
        <ele>703</ele>
        <time>2024-12-08T03:04:49.620Z</time>
      </trkpt>
      <trkpt lat="45.89401" lon="3.78499">
        <ele>702</ele>
        <time>2024-12-08T03:04:50.619Z</time>
      </trkpt>
      <trkpt lat="45.89402" lon="3.78502">
        <ele>702</ele>
        <time>2024-12-08T03:04:51.620Z</time>
      </trkpt>
      <trkpt lat="45.89403" lon="3.78504">
        <ele>702</ele>
        <time>2024-12-08T03:04:52.619Z</time>
      </trkpt>
      <trkpt lat="45.89404" lon="3.78506">
        <ele>702</ele>
        <time>2024-12-08T03:04:53.619Z</time>
      </trkpt>
      <trkpt lat="45.89404" lon="3.78509">
        <ele>702</ele>
        <time>2024-12-08T03:04:54.619Z</time>
      </trkpt>
      <trkpt lat="45.89405" lon="3.78511">
        <ele>702</ele>
        <time>2024-12-08T03:04:55.619Z</time>
      </trkpt>
      <trkpt lat="45.89405" lon="3.78513">
        <ele>702</ele>
        <time>2024-12-08T03:04:56.619Z</time>
      </trkpt>
      <trkpt lat="45.89406" lon="3.78515">
        <ele>702</ele>
        <time>2024-12-08T03:04:57.620Z</time>
      </trkpt>
      <trkpt lat="45.89407" lon="3.78518">
        <ele>702</ele>
        <time>2024-12-08T03:04:58.620Z</time>
      </trkpt>
      <trkpt lat="45.89407" lon="3.7852">
        <ele>702</ele>
        <time>2024-12-08T03:04:59.620Z</time>
      </trkpt>
      <trkpt lat="45.89408" lon="3.78522">
        <ele>702</ele>
        <time>2024-12-08T03:05:00.620Z</time>
      </trkpt>
      <trkpt lat="45.89409" lon="3.78525">
        <ele>702</ele>
        <time>2024-12-08T03:05:01.620Z</time>
      </trkpt>
      <trkpt lat="45.89409" lon="3.78527">
        <ele>702</ele>
        <time>2024-12-08T03:05:02.620Z</time>
      </trkpt>
      <trkpt lat="45.8941" lon="3.7853">
        <ele>702</ele>
        <time>2024-12-08T03:05:03.620Z</time>
      </trkpt>
      <trkpt lat="45.89411" lon="3.78532">
        <ele>702</ele>
        <time>2024-12-08T03:05:04.619Z</time>
      </trkpt>
      <trkpt lat="45.89411" lon="3.78535">
        <ele>702</ele>
        <time>2024-12-08T03:05:05.620Z</time>
      </trkpt>
      <trkpt lat="45.89412" lon="3.78537">
        <ele>701</ele>
        <time>2024-12-08T03:05:06.619Z</time>
      </trkpt>
      <trkpt lat="45.89413" lon="3.78539">
        <ele>701</ele>
        <time>2024-12-08T03:05:07.619Z</time>
      </trkpt>
      <trkpt lat="45.89413" lon="3.78541">
        <ele>701</ele>
        <time>2024-12-08T03:05:08.620Z</time>
      </trkpt>
      <trkpt lat="45.89414" lon="3.78544">
        <ele>701</ele>
        <time>2024-12-08T03:05:09.619Z</time>
      </trkpt>
      <trkpt lat="45.89415" lon="3.78547">
        <ele>701</ele>
        <time>2024-12-08T03:05:10.620Z</time>
      </trkpt>
      <trkpt lat="45.89416" lon="3.78549">
        <ele>701</ele>
        <time>2024-12-08T03:05:11.619Z</time>
      </trkpt>
      <trkpt lat="45.89416" lon="3.78552">
        <ele>701</ele>
        <time>2024-12-08T03:05:12.619Z</time>
      </trkpt>
      <trkpt lat="45.89417" lon="3.78554">
        <ele>701</ele>
        <time>2024-12-08T03:05:13.619Z</time>
      </trkpt>
      <trkpt lat="45.89418" lon="3.78556">
        <ele>701</ele>
        <time>2024-12-08T03:05:14.620Z</time>
      </trkpt>
      <trkpt lat="45.89418" lon="3.78558">
        <ele>701</ele>
        <time>2024-12-08T03:05:15.619Z</time>
      </trkpt>
      <trkpt lat="45.89419" lon="3.7856">
        <ele>701</ele>
        <time>2024-12-08T03:05:16.619Z</time>
      </trkpt>
      <trkpt lat="45.8942" lon="3.78563">
        <ele>701</ele>
        <time>2024-12-08T03:05:17.619Z</time>
      </trkpt>
      <trkpt lat="45.89421" lon="3.78565">
        <ele>701</ele>
        <time>2024-12-08T03:05:18.619Z</time>
      </trkpt>
      <trkpt lat="45.89422" lon="3.78568">
        <ele>702</ele>
        <time>2024-12-08T03:05:19.620Z</time>
      </trkpt>
      <trkpt lat="45.89423" lon="3.7857">
        <ele>702</ele>
        <time>2024-12-08T03:05:20.620Z</time>
      </trkpt>
      <trkpt lat="45.89423" lon="3.78573">
        <ele>702</ele>
        <time>2024-12-08T03:05:21.620Z</time>
      </trkpt>
      <trkpt lat="45.89424" lon="3.78575">
        <ele>702</ele>
        <time>2024-12-08T03:05:22.619Z</time>
      </trkpt>
      <trkpt lat="45.89424" lon="3.78577">
        <ele>702</ele>
        <time>2024-12-08T03:05:23.620Z</time>
      </trkpt>
      <trkpt lat="45.89425" lon="3.7858">
        <ele>702</ele>
        <time>2024-12-08T03:05:24.619Z</time>
      </trkpt>
      <trkpt lat="45.89426" lon="3.78582">
        <ele>701</ele>
        <time>2024-12-08T03:05:25.619Z</time>
      </trkpt>
      <trkpt lat="45.89427" lon="3.78585">
        <ele>701</ele>
        <time>2024-12-08T03:05:26.620Z</time>
      </trkpt>
      <trkpt lat="45.89427" lon="3.78587">
        <ele>701</ele>
        <time>2024-12-08T03:05:27.620Z</time>
      </trkpt>
      <trkpt lat="45.89428" lon="3.78589">
        <ele>701</ele>
        <time>2024-12-08T03:05:28.620Z</time>
      </trkpt>
      <trkpt lat="45.89429" lon="3.78592">
        <ele>701</ele>
        <time>2024-12-08T03:05:29.619Z</time>
      </trkpt>
      <trkpt lat="45.8943" lon="3.78594">
        <ele>701</ele>
        <time>2024-12-08T03:05:30.620Z</time>
      </trkpt>
      <trkpt lat="45.8943" lon="3.78596">
        <ele>701</ele>
        <time>2024-12-08T03:05:31.619Z</time>
      </trkpt>
      <trkpt lat="45.89431" lon="3.78598">
        <ele>700</ele>
        <time>2024-12-08T03:05:32.620Z</time>
      </trkpt>
      <trkpt lat="45.89432" lon="3.78601">
        <ele>700</ele>
        <time>2024-12-08T03:05:33.620Z</time>
      </trkpt>
      <trkpt lat="45.89432" lon="3.78603">
        <ele>700</ele>
        <time>2024-12-08T03:05:34.619Z</time>
      </trkpt>
      <trkpt lat="45.89433" lon="3.78606">
        <ele>700</ele>
        <time>2024-12-08T03:05:35.620Z</time>
      </trkpt>
      <trkpt lat="45.89434" lon="3.78608">
        <ele>700</ele>
        <time>2024-12-08T03:05:36.620Z</time>
      </trkpt>
      <trkpt lat="45.89434" lon="3.7861">
        <ele>700</ele>
        <time>2024-12-08T03:05:37.620Z</time>
      </trkpt>
      <trkpt lat="45.89435" lon="3.78613">
        <ele>700</ele>
        <time>2024-12-08T03:05:38.619Z</time>
      </trkpt>
      <trkpt lat="45.89435" lon="3.78615">
        <ele>700</ele>
        <time>2024-12-08T03:05:39.619Z</time>
      </trkpt>
      <trkpt lat="45.89436" lon="3.78617">
        <ele>700</ele>
        <time>2024-12-08T03:05:40.619Z</time>
      </trkpt>
      <trkpt lat="45.89437" lon="3.78619">
        <ele>699</ele>
        <time>2024-12-08T03:05:41.619Z</time>
      </trkpt>
      <trkpt lat="45.89438" lon="3.78622">
        <ele>699</ele>
        <time>2024-12-08T03:05:42.620Z</time>
      </trkpt>
      <trkpt lat="45.89439" lon="3.78624">
        <ele>699</ele>
        <time>2024-12-08T03:05:43.619Z</time>
      </trkpt>
      <trkpt lat="45.89439" lon="3.78626">
        <ele>699</ele>
        <time>2024-12-08T03:05:44.619Z</time>
      </trkpt>
      <trkpt lat="45.8944" lon="3.78629">
        <ele>699</ele>
        <time>2024-12-08T03:05:45.620Z</time>
      </trkpt>
      <trkpt lat="45.89441" lon="3.78631">
        <ele>699</ele>
        <time>2024-12-08T03:05:46.619Z</time>
      </trkpt>
      <trkpt lat="45.89441" lon="3.78633">
        <ele>698</ele>
        <time>2024-12-08T03:05:47.619Z</time>
      </trkpt>
      <trkpt lat="45.89442" lon="3.78636">
        <ele>698</ele>
        <time>2024-12-08T03:05:48.619Z</time>
      </trkpt>
      <trkpt lat="45.89443" lon="3.78638">
        <ele>698</ele>
        <time>2024-12-08T03:05:49.619Z</time>
      </trkpt>
      <trkpt lat="45.89444" lon="3.7864">
        <ele>698</ele>
        <time>2024-12-08T03:05:50.619Z</time>
      </trkpt>
      <trkpt lat="45.89444" lon="3.78643">
        <ele>698</ele>
        <time>2024-12-08T03:05:51.620Z</time>
      </trkpt>
      <trkpt lat="45.89445" lon="3.78645">
        <ele>698</ele>
        <time>2024-12-08T03:05:52.619Z</time>
      </trkpt>
      <trkpt lat="45.89446" lon="3.78648">
        <ele>698</ele>
        <time>2024-12-08T03:05:53.620Z</time>
      </trkpt>
      <trkpt lat="45.89447" lon="3.7865">
        <ele>698</ele>
        <time>2024-12-08T03:05:54.619Z</time>
      </trkpt>
      <trkpt lat="45.89447" lon="3.78652">
        <ele>698</ele>
        <time>2024-12-08T03:05:55.619Z</time>
      </trkpt>
      <trkpt lat="45.89448" lon="3.78655">
        <ele>698</ele>
        <time>2024-12-08T03:05:56.619Z</time>
      </trkpt>
      <trkpt lat="45.89449" lon="3.78657">
        <ele>698</ele>
        <time>2024-12-08T03:05:57.620Z</time>
      </trkpt>
      <trkpt lat="45.8945" lon="3.78659">
        <ele>698</ele>
        <time>2024-12-08T03:05:58.620Z</time>
      </trkpt>
      <trkpt lat="45.8945" lon="3.78661">
        <ele>698</ele>
        <time>2024-12-08T03:05:59.620Z</time>
      </trkpt>
      <trkpt lat="45.89451" lon="3.78663">
        <ele>697</ele>
        <time>2024-12-08T03:06:00.620Z</time>
      </trkpt>
      <trkpt lat="45.89452" lon="3.78666">
        <ele>697</ele>
        <time>2024-12-08T03:06:01.619Z</time>
      </trkpt>
      <trkpt lat="45.89453" lon="3.78668">
        <ele>697</ele>
        <time>2024-12-08T03:06:02.619Z</time>
      </trkpt>
      <trkpt lat="45.89454" lon="3.78671">
        <ele>697</ele>
        <time>2024-12-08T03:06:03.619Z</time>
      </trkpt>
      <trkpt lat="45.89454" lon="3.78673">
        <ele>698</ele>
        <time>2024-12-08T03:06:04.619Z</time>
      </trkpt>
      <trkpt lat="45.89455" lon="3.78676">
        <ele>698</ele>
        <time>2024-12-08T03:06:05.620Z</time>
      </trkpt>
      <trkpt lat="45.89456" lon="3.78678">
        <ele>699</ele>
        <time>2024-12-08T03:06:06.619Z</time>
      </trkpt>
      <trkpt lat="45.89456" lon="3.7868">
        <ele>699</ele>
        <time>2024-12-08T03:06:07.620Z</time>
      </trkpt>
      <trkpt lat="45.89457" lon="3.78682">
        <ele>699</ele>
        <time>2024-12-08T03:06:08.620Z</time>
      </trkpt>
      <trkpt lat="45.89458" lon="3.78684">
        <ele>698</ele>
        <time>2024-12-08T03:06:09.620Z</time>
      </trkpt>
      <trkpt lat="45.89458" lon="3.78687">
        <ele>698</ele>
        <time>2024-12-08T03:06:10.620Z</time>
      </trkpt>
      <trkpt lat="45.89459" lon="3.78689">
        <ele>698</ele>
        <time>2024-12-08T03:06:11.620Z</time>
      </trkpt>
      <trkpt lat="45.89459" lon="3.78692">
        <ele>698</ele>
        <time>2024-12-08T03:06:12.620Z</time>
      </trkpt>
      <trkpt lat="45.8946" lon="3.78694">
        <ele>697</ele>
        <time>2024-12-08T03:06:13.619Z</time>
      </trkpt>
      <trkpt lat="45.89461" lon="3.78696">
        <ele>697</ele>
        <time>2024-12-08T03:06:14.620Z</time>
      </trkpt>
      <trkpt lat="45.89461" lon="3.78699">
        <ele>697</ele>
        <time>2024-12-08T03:06:15.620Z</time>
      </trkpt>
      <trkpt lat="45.89462" lon="3.78701">
        <ele>697</ele>
        <time>2024-12-08T03:06:16.619Z</time>
      </trkpt>
      <trkpt lat="45.89463" lon="3.78703">
        <ele>697</ele>
        <time>2024-12-08T03:06:17.619Z</time>
      </trkpt>
      <trkpt lat="45.89463" lon="3.78705">
        <ele>697</ele>
        <time>2024-12-08T03:06:18.619Z</time>
      </trkpt>
      <trkpt lat="45.89464" lon="3.78707">
        <ele>697</ele>
        <time>2024-12-08T03:06:19.620Z</time>
      </trkpt>
      <trkpt lat="45.89465" lon="3.78709">
        <ele>697</ele>
        <time>2024-12-08T03:06:20.620Z</time>
      </trkpt>
      <trkpt lat="45.89465" lon="3.78712">
        <ele>697</ele>
        <time>2024-12-08T03:06:21.620Z</time>
      </trkpt>
      <trkpt lat="45.89466" lon="3.78714">
        <ele>697</ele>
        <time>2024-12-08T03:06:22.619Z</time>
      </trkpt>
      <trkpt lat="45.89467" lon="3.78716">
        <ele>697</ele>
        <time>2024-12-08T03:06:23.619Z</time>
      </trkpt>
      <trkpt lat="45.89468" lon="3.78719">
        <ele>696</ele>
        <time>2024-12-08T03:06:24.620Z</time>
      </trkpt>
      <trkpt lat="45.89468" lon="3.78721">
        <ele>696</ele>
        <time>2024-12-08T03:06:25.619Z</time>
      </trkpt>
      <trkpt lat="45.89469" lon="3.78724">
        <ele>696</ele>
        <time>2024-12-08T03:06:26.620Z</time>
      </trkpt>
      <trkpt lat="45.8947" lon="3.78726">
        <ele>696</ele>
        <time>2024-12-08T03:06:27.620Z</time>
      </trkpt>
      <trkpt lat="45.8947" lon="3.78728">
        <ele>696</ele>
        <time>2024-12-08T03:06:28.619Z</time>
      </trkpt>
      <trkpt lat="45.89471" lon="3.7873">
        <ele>696</ele>
        <time>2024-12-08T03:06:29.620Z</time>
      </trkpt>
      <trkpt lat="45.89472" lon="3.78733">
        <ele>696</ele>
        <time>2024-12-08T03:06:30.619Z</time>
      </trkpt>
      <trkpt lat="45.89472" lon="3.78735">
        <ele>696</ele>
        <time>2024-12-08T03:06:31.620Z</time>
      </trkpt>
      <trkpt lat="45.89473" lon="3.78737">
        <ele>696</ele>
        <time>2024-12-08T03:06:32.619Z</time>
      </trkpt>
      <trkpt lat="45.89474" lon="3.78739">
        <ele>696</ele>
        <time>2024-12-08T03:06:33.620Z</time>
      </trkpt>
      <trkpt lat="45.89475" lon="3.78742">
        <ele>696</ele>
        <time>2024-12-08T03:06:34.620Z</time>
      </trkpt>
      <trkpt lat="45.89475" lon="3.78744">
        <ele>696</ele>
        <time>2024-12-08T03:06:35.619Z</time>
      </trkpt>
      <trkpt lat="45.89476" lon="3.78747">
        <ele>696</ele>
        <time>2024-12-08T03:06:36.619Z</time>
      </trkpt>
      <trkpt lat="45.89477" lon="3.78749">
        <ele>696</ele>
        <time>2024-12-08T03:06:37.619Z</time>
      </trkpt>
      <trkpt lat="45.89477" lon="3.78752">
        <ele>696</ele>
        <time>2024-12-08T03:06:38.619Z</time>
      </trkpt>
      <trkpt lat="45.89478" lon="3.78754">
        <ele>696</ele>
        <time>2024-12-08T03:06:39.620Z</time>
      </trkpt>
      <trkpt lat="45.89479" lon="3.78756">
        <ele>696</ele>
        <time>2024-12-08T03:06:40.620Z</time>
      </trkpt>
      <trkpt lat="45.8948" lon="3.78758">
        <ele>696</ele>
        <time>2024-12-08T03:06:41.620Z</time>
      </trkpt>
      <trkpt lat="45.89481" lon="3.7876">
        <ele>696</ele>
        <time>2024-12-08T03:06:42.619Z</time>
      </trkpt>
      <trkpt lat="45.89482" lon="3.78763">
        <ele>696</ele>
        <time>2024-12-08T03:06:43.620Z</time>
      </trkpt>
      <trkpt lat="45.89482" lon="3.78765">
        <ele>696</ele>
        <time>2024-12-08T03:06:44.620Z</time>
      </trkpt>
      <trkpt lat="45.89483" lon="3.78768">
        <ele>696</ele>
        <time>2024-12-08T03:06:45.619Z</time>
      </trkpt>
      <trkpt lat="45.89484" lon="3.7877">
        <ele>696</ele>
        <time>2024-12-08T03:06:46.620Z</time>
      </trkpt>
      <trkpt lat="45.89485" lon="3.78773">
        <ele>696</ele>
        <time>2024-12-08T03:06:47.619Z</time>
      </trkpt>
      <trkpt lat="45.89485" lon="3.78775">
        <ele>696</ele>
        <time>2024-12-08T03:06:48.620Z</time>
      </trkpt>
      <trkpt lat="45.89486" lon="3.78777">
        <ele>696</ele>
        <time>2024-12-08T03:06:49.619Z</time>
      </trkpt>
      <trkpt lat="45.89487" lon="3.78779">
        <ele>696</ele>
        <time>2024-12-08T03:06:50.619Z</time>
      </trkpt>
      <trkpt lat="45.89487" lon="3.78781">
        <ele>696</ele>
        <time>2024-12-08T03:06:51.619Z</time>
      </trkpt>
      <trkpt lat="45.89488" lon="3.78784">
        <ele>696</ele>
        <time>2024-12-08T03:06:52.620Z</time>
      </trkpt>
      <trkpt lat="45.89489" lon="3.78786">
        <ele>695</ele>
        <time>2024-12-08T03:06:53.620Z</time>
      </trkpt>
      <trkpt lat="45.89489" lon="3.78789">
        <ele>695</ele>
        <time>2024-12-08T03:06:54.619Z</time>
      </trkpt>
      <trkpt lat="45.8949" lon="3.78791">
        <ele>695</ele>
        <time>2024-12-08T03:06:55.619Z</time>
      </trkpt>
      <trkpt lat="45.89491" lon="3.78793">
        <ele>695</ele>
        <time>2024-12-08T03:06:56.619Z</time>
      </trkpt>
      <trkpt lat="45.89492" lon="3.78796">
        <ele>695</ele>
        <time>2024-12-08T03:06:57.619Z</time>
      </trkpt>
      <trkpt lat="45.89492" lon="3.78798">
        <ele>695</ele>
        <time>2024-12-08T03:06:58.619Z</time>
      </trkpt>
      <trkpt lat="45.89493" lon="3.788">
        <ele>695</ele>
        <time>2024-12-08T03:06:59.620Z</time>
      </trkpt>
      <trkpt lat="45.89494" lon="3.78803">
        <ele>695</ele>
        <time>2024-12-08T03:07:00.620Z</time>
      </trkpt>
      <trkpt lat="45.89495" lon="3.78805">
        <ele>695</ele>
        <time>2024-12-08T03:07:01.620Z</time>
      </trkpt>
      <trkpt lat="45.89495" lon="3.78808">
        <ele>695</ele>
        <time>2024-12-08T03:07:02.620Z</time>
      </trkpt>
      <trkpt lat="45.89496" lon="3.7881">
        <ele>695</ele>
        <time>2024-12-08T03:07:03.619Z</time>
      </trkpt>
      <trkpt lat="45.89497" lon="3.78812">
        <ele>695</ele>
        <time>2024-12-08T03:07:04.620Z</time>
      </trkpt>
      <trkpt lat="45.89498" lon="3.78815">
        <ele>695</ele>
        <time>2024-12-08T03:07:05.619Z</time>
      </trkpt>
      <trkpt lat="45.89498" lon="3.78817">
        <ele>695</ele>
        <time>2024-12-08T03:07:06.620Z</time>
      </trkpt>
      <trkpt lat="45.89499" lon="3.78819">
        <ele>695</ele>
        <time>2024-12-08T03:07:07.619Z</time>
      </trkpt>
      <trkpt lat="45.895" lon="3.78821">
        <ele>695</ele>
        <time>2024-12-08T03:07:08.620Z</time>
      </trkpt>
      <trkpt lat="45.89501" lon="3.78824">
        <ele>695</ele>
        <time>2024-12-08T03:07:09.620Z</time>
      </trkpt>
      <trkpt lat="45.89501" lon="3.78826">
        <ele>695</ele>
        <time>2024-12-08T03:07:10.619Z</time>
      </trkpt>
      <trkpt lat="45.89502" lon="3.78828">
        <ele>695</ele>
        <time>2024-12-08T03:07:11.619Z</time>
      </trkpt>
      <trkpt lat="45.89503" lon="3.78831">
        <ele>695</ele>
        <time>2024-12-08T03:07:12.620Z</time>
      </trkpt>
      <trkpt lat="45.89503" lon="3.78833">
        <ele>695</ele>
        <time>2024-12-08T03:07:13.620Z</time>
      </trkpt>
      <trkpt lat="45.89504" lon="3.78836">
        <ele>695</ele>
        <time>2024-12-08T03:07:14.620Z</time>
      </trkpt>
      <trkpt lat="45.89504" lon="3.78838">
        <ele>694</ele>
        <time>2024-12-08T03:07:15.620Z</time>
      </trkpt>
      <trkpt lat="45.89505" lon="3.7884">
        <ele>694</ele>
        <time>2024-12-08T03:07:16.620Z</time>
      </trkpt>
      <trkpt lat="45.89506" lon="3.78842">
        <ele>693</ele>
        <time>2024-12-08T03:07:17.619Z</time>
      </trkpt>
      <trkpt lat="45.89507" lon="3.78844">
        <ele>693</ele>
        <time>2024-12-08T03:07:18.619Z</time>
      </trkpt>
      <trkpt lat="45.89507" lon="3.78847">
        <ele>693</ele>
        <time>2024-12-08T03:07:19.619Z</time>
      </trkpt>
      <trkpt lat="45.89508" lon="3.78849">
        <ele>693</ele>
        <time>2024-12-08T03:07:20.620Z</time>
      </trkpt>
      <trkpt lat="45.89509" lon="3.78852">
        <ele>693</ele>
        <time>2024-12-08T03:07:21.620Z</time>
      </trkpt>
      <trkpt lat="45.8951" lon="3.78854">
        <ele>693</ele>
        <time>2024-12-08T03:07:22.620Z</time>
      </trkpt>
      <trkpt lat="45.8951" lon="3.78857">
        <ele>693</ele>
        <time>2024-12-08T03:07:23.619Z</time>
      </trkpt>
      <trkpt lat="45.8951" lon="3.78859">
        <ele>693</ele>
        <time>2024-12-08T03:07:24.620Z</time>
      </trkpt>
      <trkpt lat="45.89511" lon="3.78861">
        <ele>693</ele>
        <time>2024-12-08T03:07:25.619Z</time>
      </trkpt>
      <trkpt lat="45.89512" lon="3.78863">
        <ele>693</ele>
        <time>2024-12-08T03:07:26.619Z</time>
      </trkpt>
      <trkpt lat="45.89512" lon="3.78865">
        <ele>693</ele>
        <time>2024-12-08T03:07:27.619Z</time>
      </trkpt>
      <trkpt lat="45.89513" lon="3.78868">
        <ele>693</ele>
        <time>2024-12-08T03:07:28.619Z</time>
      </trkpt>
      <trkpt lat="45.89514" lon="3.7887">
        <ele>693</ele>
        <time>2024-12-08T03:07:29.620Z</time>
      </trkpt>
      <trkpt lat="45.89515" lon="3.78872">
        <ele>693</ele>
        <time>2024-12-08T03:07:30.620Z</time>
      </trkpt>
      <trkpt lat="45.89515" lon="3.78875">
        <ele>693</ele>
        <time>2024-12-08T03:07:31.619Z</time>
      </trkpt>
      <trkpt lat="45.89516" lon="3.78877">
        <ele>693</ele>
        <time>2024-12-08T03:07:32.619Z</time>
      </trkpt>
      <trkpt lat="45.89517" lon="3.78879">
        <ele>693</ele>
        <time>2024-12-08T03:07:33.620Z</time>
      </trkpt>
      <trkpt lat="45.89517" lon="3.78882">
        <ele>693</ele>
        <time>2024-12-08T03:07:34.620Z</time>
      </trkpt>
      <trkpt lat="45.89518" lon="3.78884">
        <ele>692</ele>
        <time>2024-12-08T03:07:35.619Z</time>
      </trkpt>
      <trkpt lat="45.89519" lon="3.78886">
        <ele>692</ele>
        <time>2024-12-08T03:07:36.619Z</time>
      </trkpt>
      <trkpt lat="45.89519" lon="3.78888">
        <ele>692</ele>
        <time>2024-12-08T03:07:37.620Z</time>
      </trkpt>
      <trkpt lat="45.8952" lon="3.7889">
        <ele>692</ele>
        <time>2024-12-08T03:07:38.619Z</time>
      </trkpt>
      <trkpt lat="45.89521" lon="3.78893">
        <ele>692</ele>
        <time>2024-12-08T03:07:39.619Z</time>
      </trkpt>
      <trkpt lat="45.89522" lon="3.78895">
        <ele>692</ele>
        <time>2024-12-08T03:07:40.620Z</time>
      </trkpt>
      <trkpt lat="45.89523" lon="3.78897">
        <ele>692</ele>
        <time>2024-12-08T03:07:41.620Z</time>
      </trkpt>
      <trkpt lat="45.89523" lon="3.789">
        <ele>691</ele>
        <time>2024-12-08T03:07:42.620Z</time>
      </trkpt>
      <trkpt lat="45.89524" lon="3.78902">
        <ele>691</ele>
        <time>2024-12-08T03:07:43.620Z</time>
      </trkpt>
      <trkpt lat="45.89525" lon="3.78905">
        <ele>691</ele>
        <time>2024-12-08T03:07:44.620Z</time>
      </trkpt>
      <trkpt lat="45.89526" lon="3.78907">
        <ele>691</ele>
        <time>2024-12-08T03:07:45.619Z</time>
      </trkpt>
      <trkpt lat="45.89526" lon="3.7891">
        <ele>691</ele>
        <time>2024-12-08T03:07:46.619Z</time>
      </trkpt>
      <trkpt lat="45.89527" lon="3.78912">
        <ele>691</ele>
        <time>2024-12-08T03:07:47.620Z</time>
      </trkpt>
      <trkpt lat="45.89528" lon="3.78914">
        <ele>691</ele>
        <time>2024-12-08T03:07:48.620Z</time>
      </trkpt>
      <trkpt lat="45.89528" lon="3.78916">
        <ele>691</ele>
        <time>2024-12-08T03:07:49.620Z</time>
      </trkpt>
      <trkpt lat="45.89529" lon="3.78918">
        <ele>691</ele>
        <time>2024-12-08T03:07:50.620Z</time>
      </trkpt>
      <trkpt lat="45.8953" lon="3.78921">
        <ele>691</ele>
        <time>2024-12-08T03:07:51.620Z</time>
      </trkpt>
      <trkpt lat="45.89531" lon="3.78923">
        <ele>691</ele>
        <time>2024-12-08T03:07:52.619Z</time>
      </trkpt>
      <trkpt lat="45.89531" lon="3.78926">
        <ele>691</ele>
        <time>2024-12-08T03:07:53.620Z</time>
      </trkpt>
      <trkpt lat="45.89532" lon="3.78928">
        <ele>691</ele>
        <time>2024-12-08T03:07:54.620Z</time>
      </trkpt>
      <trkpt lat="45.89533" lon="3.7893">
        <ele>691</ele>
        <time>2024-12-08T03:07:55.620Z</time>
      </trkpt>
      <trkpt lat="45.89534" lon="3.78932">
        <ele>691</ele>
        <time>2024-12-08T03:07:56.620Z</time>
      </trkpt>
      <trkpt lat="45.89534" lon="3.78935">
        <ele>692</ele>
        <time>2024-12-08T03:07:57.620Z</time>
      </trkpt>
      <trkpt lat="45.89535" lon="3.78937">
        <ele>692</ele>
        <time>2024-12-08T03:07:58.619Z</time>
      </trkpt>
      <trkpt lat="45.89535" lon="3.78939">
        <ele>691</ele>
        <time>2024-12-08T03:07:59.620Z</time>
      </trkpt>
      <trkpt lat="45.89536" lon="3.78942">
        <ele>691</ele>
        <time>2024-12-08T03:08:00.620Z</time>
      </trkpt>
      <trkpt lat="45.89537" lon="3.78944">
        <ele>691</ele>
        <time>2024-12-08T03:08:01.620Z</time>
      </trkpt>
      <trkpt lat="45.89537" lon="3.78947">
        <ele>691</ele>
        <time>2024-12-08T03:08:02.620Z</time>
      </trkpt>
      <trkpt lat="45.89538" lon="3.78949">
        <ele>692</ele>
        <time>2024-12-08T03:08:03.619Z</time>
      </trkpt>
      <trkpt lat="45.89539" lon="3.78952">
        <ele>692</ele>
        <time>2024-12-08T03:08:04.619Z</time>
      </trkpt>
      <trkpt lat="45.89539" lon="3.78954">
        <ele>691</ele>
        <time>2024-12-08T03:08:05.619Z</time>
      </trkpt>
      <trkpt lat="45.8954" lon="3.78956">
        <ele>691</ele>
        <time>2024-12-08T03:08:06.620Z</time>
      </trkpt>
      <trkpt lat="45.89541" lon="3.78959">
        <ele>691</ele>
        <time>2024-12-08T03:08:07.620Z</time>
      </trkpt>
      <trkpt lat="45.89541" lon="3.78961">
        <ele>691</ele>
        <time>2024-12-08T03:08:08.619Z</time>
      </trkpt>
      <trkpt lat="45.89542" lon="3.78963">
        <ele>691</ele>
        <time>2024-12-08T03:08:09.619Z</time>
      </trkpt>
      <trkpt lat="45.89543" lon="3.78965">
        <ele>691</ele>
        <time>2024-12-08T03:08:10.619Z</time>
      </trkpt>
      <trkpt lat="45.89544" lon="3.78968">
        <ele>691</ele>
        <time>2024-12-08T03:08:11.620Z</time>
      </trkpt>
      <trkpt lat="45.89544" lon="3.7897">
        <ele>691</ele>
        <time>2024-12-08T03:08:12.620Z</time>
      </trkpt>
      <trkpt lat="45.89545" lon="3.78972">
        <ele>691</ele>
        <time>2024-12-08T03:08:13.619Z</time>
      </trkpt>
      <trkpt lat="45.89546" lon="3.78975">
        <ele>691</ele>
        <time>2024-12-08T03:08:14.619Z</time>
      </trkpt>
      <trkpt lat="45.89546" lon="3.78977">
        <ele>692</ele>
        <time>2024-12-08T03:08:15.619Z</time>
      </trkpt>
      <trkpt lat="45.89547" lon="3.7898">
        <ele>692</ele>
        <time>2024-12-08T03:08:16.619Z</time>
      </trkpt>
      <trkpt lat="45.89547" lon="3.78982">
        <ele>692</ele>
        <time>2024-12-08T03:08:17.619Z</time>
      </trkpt>
      <trkpt lat="45.89548" lon="3.78984">
        <ele>692</ele>
        <time>2024-12-08T03:08:18.620Z</time>
      </trkpt>
      <trkpt lat="45.89549" lon="3.78986">
        <ele>692</ele>
        <time>2024-12-08T03:08:19.619Z</time>
      </trkpt>
      <trkpt lat="45.89549" lon="3.78988">
        <ele>692</ele>
        <time>2024-12-08T03:08:20.620Z</time>
      </trkpt>
      <trkpt lat="45.8955" lon="3.78991">
        <ele>692</ele>
        <time>2024-12-08T03:08:21.619Z</time>
      </trkpt>
      <trkpt lat="45.89551" lon="3.78993">
        <ele>692</ele>
        <time>2024-12-08T03:08:22.620Z</time>
      </trkpt>
      <trkpt lat="45.89551" lon="3.78996">
        <ele>692</ele>
        <time>2024-12-08T03:08:23.620Z</time>
      </trkpt>
      <trkpt lat="45.89552" lon="3.78998">
        <ele>692</ele>
        <time>2024-12-08T03:08:24.620Z</time>
      </trkpt>
      <trkpt lat="45.89553" lon="3.79">
        <ele>692</ele>
        <time>2024-12-08T03:08:25.620Z</time>
      </trkpt>
      <trkpt lat="45.89553" lon="3.79003">
        <ele>691</ele>
        <time>2024-12-08T03:08:26.620Z</time>
      </trkpt>
      <trkpt lat="45.89554" lon="3.79005">
        <ele>691</ele>
        <time>2024-12-08T03:08:27.619Z</time>
      </trkpt>
      <trkpt lat="45.89554" lon="3.79007">
        <ele>691</ele>
        <time>2024-12-08T03:08:28.620Z</time>
      </trkpt>
      <trkpt lat="45.89555" lon="3.79009">
        <ele>691</ele>
        <time>2024-12-08T03:08:29.619Z</time>
      </trkpt>
      <trkpt lat="45.89556" lon="3.79012">
        <ele>691</ele>
        <time>2024-12-08T03:08:30.620Z</time>
      </trkpt>
      <trkpt lat="45.89556" lon="3.79014">
        <ele>691</ele>
        <time>2024-12-08T03:08:31.619Z</time>
      </trkpt>
      <trkpt lat="45.89557" lon="3.79017">
        <ele>691</ele>
        <time>2024-12-08T03:08:32.619Z</time>
      </trkpt>
      <trkpt lat="45.89557" lon="3.79019">
        <ele>691</ele>
        <time>2024-12-08T03:08:33.619Z</time>
      </trkpt>
      <trkpt lat="45.89558" lon="3.79021">
        <ele>690</ele>
        <time>2024-12-08T03:08:34.619Z</time>
      </trkpt>
      <trkpt lat="45.89558" lon="3.79024">
        <ele>690</ele>
        <time>2024-12-08T03:08:35.620Z</time>
      </trkpt>
      <trkpt lat="45.89559" lon="3.79026">
        <ele>690</ele>
        <time>2024-12-08T03:08:36.620Z</time>
      </trkpt>
      <trkpt lat="45.8956" lon="3.79028">
        <ele>691</ele>
        <time>2024-12-08T03:08:37.620Z</time>
      </trkpt>
      <trkpt lat="45.8956" lon="3.79031">
        <ele>691</ele>
        <time>2024-12-08T03:08:38.620Z</time>
      </trkpt>
      <trkpt lat="45.89561" lon="3.79034">
        <ele>691</ele>
        <time>2024-12-08T03:08:39.620Z</time>
      </trkpt>
      <trkpt lat="45.89562" lon="3.79036">
        <ele>691</ele>
        <time>2024-12-08T03:08:40.620Z</time>
      </trkpt>
      <trkpt lat="45.89562" lon="3.79038">
        <ele>691</ele>
        <time>2024-12-08T03:08:41.620Z</time>
      </trkpt>
      <trkpt lat="45.89563" lon="3.79041">
        <ele>691</ele>
        <time>2024-12-08T03:08:42.620Z</time>
      </trkpt>
      <trkpt lat="45.89563" lon="3.79043">
        <ele>691</ele>
        <time>2024-12-08T03:08:43.620Z</time>
      </trkpt>
      <trkpt lat="45.89564" lon="3.79046">
        <ele>690</ele>
        <time>2024-12-08T03:08:44.619Z</time>
      </trkpt>
      <trkpt lat="45.89564" lon="3.79048">
        <ele>690</ele>
        <time>2024-12-08T03:08:45.620Z</time>
      </trkpt>
      <trkpt lat="45.89564" lon="3.79051">
        <ele>690</ele>
        <time>2024-12-08T03:08:46.620Z</time>
      </trkpt>
      <trkpt lat="45.89565" lon="3.79053">
        <ele>690</ele>
        <time>2024-12-08T03:08:47.619Z</time>
      </trkpt>
      <trkpt lat="45.89565" lon="3.79056">
        <ele>689</ele>
        <time>2024-12-08T03:08:48.619Z</time>
      </trkpt>
      <trkpt lat="45.89566" lon="3.79058">
        <ele>689</ele>
        <time>2024-12-08T03:08:49.619Z</time>
      </trkpt>
      <trkpt lat="45.89566" lon="3.7906">
        <ele>689</ele>
        <time>2024-12-08T03:08:50.619Z</time>
      </trkpt>
      <trkpt lat="45.89566" lon="3.79063">
        <ele>689</ele>
        <time>2024-12-08T03:08:51.620Z</time>
      </trkpt>
      <trkpt lat="45.89567" lon="3.79065">
        <ele>688</ele>
        <time>2024-12-08T03:08:52.620Z</time>
      </trkpt>
      <trkpt lat="45.89568" lon="3.79068">
        <ele>688</ele>
        <time>2024-12-08T03:08:53.620Z</time>
      </trkpt>
      <trkpt lat="45.89568" lon="3.79071">
        <ele>688</ele>
        <time>2024-12-08T03:08:54.619Z</time>
      </trkpt>
      <trkpt lat="45.89568" lon="3.79074">
        <ele>688</ele>
        <time>2024-12-08T03:08:55.619Z</time>
      </trkpt>
      <trkpt lat="45.89569" lon="3.79076">
        <ele>688</ele>
        <time>2024-12-08T03:08:56.620Z</time>
      </trkpt>
      <trkpt lat="45.8957" lon="3.79079">
        <ele>688</ele>
        <time>2024-12-08T03:08:57.620Z</time>
      </trkpt>
      <trkpt lat="45.8957" lon="3.79081">
        <ele>688</ele>
        <time>2024-12-08T03:08:58.620Z</time>
      </trkpt>
      <trkpt lat="45.89571" lon="3.79084">
        <ele>688</ele>
        <time>2024-12-08T03:08:59.619Z</time>
      </trkpt>
      <trkpt lat="45.89571" lon="3.79087">
        <ele>688</ele>
        <time>2024-12-08T03:09:00.619Z</time>
      </trkpt>
      <trkpt lat="45.89571" lon="3.79089">
        <ele>687</ele>
        <time>2024-12-08T03:09:01.619Z</time>
      </trkpt>
      <trkpt lat="45.89572" lon="3.79092">
        <ele>687</ele>
        <time>2024-12-08T03:09:02.619Z</time>
      </trkpt>
      <trkpt lat="45.89572" lon="3.79095">
        <ele>687</ele>
        <time>2024-12-08T03:09:03.619Z</time>
      </trkpt>
      <trkpt lat="45.89572" lon="3.79097">
        <ele>687</ele>
        <time>2024-12-08T03:09:04.619Z</time>
      </trkpt>
      <trkpt lat="45.89573" lon="3.791">
        <ele>687</ele>
        <time>2024-12-08T03:09:05.620Z</time>
      </trkpt>
      <trkpt lat="45.89573" lon="3.79102">
        <ele>687</ele>
        <time>2024-12-08T03:09:06.620Z</time>
      </trkpt>
      <trkpt lat="45.89573" lon="3.79105">
        <ele>687</ele>
        <time>2024-12-08T03:09:07.619Z</time>
      </trkpt>
      <trkpt lat="45.89574" lon="3.79108">
        <ele>687</ele>
        <time>2024-12-08T03:09:08.619Z</time>
      </trkpt>
      <trkpt lat="45.89574" lon="3.7911">
        <ele>686</ele>
        <time>2024-12-08T03:09:09.619Z</time>
      </trkpt>
      <trkpt lat="45.89574" lon="3.79113">
        <ele>686</ele>
        <time>2024-12-08T03:09:10.620Z</time>
      </trkpt>
      <trkpt lat="45.89574" lon="3.79116">
        <ele>686</ele>
        <time>2024-12-08T03:09:11.619Z</time>
      </trkpt>
      <trkpt lat="45.89575" lon="3.79118">
        <ele>686</ele>
        <time>2024-12-08T03:09:12.620Z</time>
      </trkpt>
      <trkpt lat="45.89575" lon="3.79121">
        <ele>686</ele>
        <time>2024-12-08T03:09:13.619Z</time>
      </trkpt>
      <trkpt lat="45.89575" lon="3.79124">
        <ele>685</ele>
        <time>2024-12-08T03:09:14.619Z</time>
      </trkpt>
      <trkpt lat="45.89575" lon="3.79127">
        <ele>685</ele>
        <time>2024-12-08T03:09:15.619Z</time>
      </trkpt>
      <trkpt lat="45.89576" lon="3.79129">
        <ele>685</ele>
        <time>2024-12-08T03:09:16.620Z</time>
      </trkpt>
      <trkpt lat="45.89576" lon="3.79132">
        <ele>685</ele>
        <time>2024-12-08T03:09:17.619Z</time>
      </trkpt>
      <trkpt lat="45.89576" lon="3.79134">
        <ele>685</ele>
        <time>2024-12-08T03:09:18.620Z</time>
      </trkpt>
      <trkpt lat="45.89576" lon="3.79137">
        <ele>685</ele>
        <time>2024-12-08T03:09:19.620Z</time>
      </trkpt>
      <trkpt lat="45.89577" lon="3.79139">
        <ele>685</ele>
        <time>2024-12-08T03:09:20.619Z</time>
      </trkpt>
      <trkpt lat="45.89577" lon="3.79142">
        <ele>685</ele>
        <time>2024-12-08T03:09:21.619Z</time>
      </trkpt>
      <trkpt lat="45.89577" lon="3.79145">
        <ele>685</ele>
        <time>2024-12-08T03:09:22.620Z</time>
      </trkpt>
      <trkpt lat="45.89577" lon="3.79147">
        <ele>684</ele>
        <time>2024-12-08T03:09:23.619Z</time>
      </trkpt>
      <trkpt lat="45.89578" lon="3.7915">
        <ele>684</ele>
        <time>2024-12-08T03:09:24.619Z</time>
      </trkpt>
      <trkpt lat="45.89578" lon="3.79153">
        <ele>684</ele>
        <time>2024-12-08T03:09:25.619Z</time>
      </trkpt>
      <trkpt lat="45.89578" lon="3.79155">
        <ele>683</ele>
        <time>2024-12-08T03:09:26.619Z</time>
      </trkpt>
      <trkpt lat="45.89579" lon="3.79158">
        <ele>683</ele>
        <time>2024-12-08T03:09:27.619Z</time>
      </trkpt>
      <trkpt lat="45.89579" lon="3.79161">
        <ele>683</ele>
        <time>2024-12-08T03:09:28.620Z</time>
      </trkpt>
      <trkpt lat="45.89579" lon="3.79163">
        <ele>682</ele>
        <time>2024-12-08T03:09:29.619Z</time>
      </trkpt>
      <trkpt lat="45.89579" lon="3.79166">
        <ele>682</ele>
        <time>2024-12-08T03:09:30.619Z</time>
      </trkpt>
      <trkpt lat="45.8958" lon="3.79168">
        <ele>682</ele>
        <time>2024-12-08T03:09:31.620Z</time>
      </trkpt>
      <trkpt lat="45.8958" lon="3.79171">
        <ele>682</ele>
        <time>2024-12-08T03:09:32.620Z</time>
      </trkpt>
      <trkpt lat="45.89581" lon="3.79174">
        <ele>682</ele>
        <time>2024-12-08T03:09:33.620Z</time>
      </trkpt>
      <trkpt lat="45.89581" lon="3.79176">
        <ele>682</ele>
        <time>2024-12-08T03:09:34.619Z</time>
      </trkpt>
      <trkpt lat="45.89581" lon="3.79179">
        <ele>681</ele>
        <time>2024-12-08T03:09:35.620Z</time>
      </trkpt>
      <trkpt lat="45.89582" lon="3.79181">
        <ele>681</ele>
        <time>2024-12-08T03:09:36.619Z</time>
      </trkpt>
      <trkpt lat="45.89582" lon="3.79184">
        <ele>681</ele>
        <time>2024-12-08T03:09:37.620Z</time>
      </trkpt>
      <trkpt lat="45.89583" lon="3.79186">
        <ele>681</ele>
        <time>2024-12-08T03:09:38.619Z</time>
      </trkpt>
      <trkpt lat="45.89583" lon="3.79189">
        <ele>680</ele>
        <time>2024-12-08T03:09:39.620Z</time>
      </trkpt>
      <trkpt lat="45.89583" lon="3.79192">
        <ele>680</ele>
        <time>2024-12-08T03:09:40.619Z</time>
      </trkpt>
      <trkpt lat="45.89584" lon="3.79195">
        <ele>680</ele>
        <time>2024-12-08T03:09:41.619Z</time>
      </trkpt>
      <trkpt lat="45.89584" lon="3.79197">
        <ele>679</ele>
        <time>2024-12-08T03:09:42.619Z</time>
      </trkpt>
      <trkpt lat="45.89585" lon="3.792">
        <ele>679</ele>
        <time>2024-12-08T03:09:43.619Z</time>
      </trkpt>
      <trkpt lat="45.89585" lon="3.79202">
        <ele>679</ele>
        <time>2024-12-08T03:09:44.619Z</time>
      </trkpt>
      <trkpt lat="45.89585" lon="3.79205">
        <ele>679</ele>
        <time>2024-12-08T03:09:45.619Z</time>
      </trkpt>
      <trkpt lat="45.89586" lon="3.79208">
        <ele>679</ele>
        <time>2024-12-08T03:09:46.620Z</time>
      </trkpt>
      <trkpt lat="45.89586" lon="3.79211">
        <ele>679</ele>
        <time>2024-12-08T03:09:47.620Z</time>
      </trkpt>
      <trkpt lat="45.89586" lon="3.79213">
        <ele>678</ele>
        <time>2024-12-08T03:09:48.620Z</time>
      </trkpt>
      <trkpt lat="45.89587" lon="3.79216">
        <ele>678</ele>
        <time>2024-12-08T03:09:49.619Z</time>
      </trkpt>
      <trkpt lat="45.89587" lon="3.79219">
        <ele>678</ele>
        <time>2024-12-08T03:09:50.619Z</time>
      </trkpt>
      <trkpt lat="45.89587" lon="3.79221">
        <ele>678</ele>
        <time>2024-12-08T03:09:51.620Z</time>
      </trkpt>
      <trkpt lat="45.89588" lon="3.79224">
        <ele>678</ele>
        <time>2024-12-08T03:09:52.619Z</time>
      </trkpt>
      <trkpt lat="45.89588" lon="3.79227">
        <ele>678</ele>
        <time>2024-12-08T03:09:53.619Z</time>
      </trkpt>
      <trkpt lat="45.89588" lon="3.7923">
        <ele>678</ele>
        <time>2024-12-08T03:09:54.620Z</time>
      </trkpt>
      <trkpt lat="45.89589" lon="3.79233">
        <ele>677</ele>
        <time>2024-12-08T03:09:55.620Z</time>
      </trkpt>
      <trkpt lat="45.89589" lon="3.79235">
        <ele>677</ele>
        <time>2024-12-08T03:09:56.620Z</time>
      </trkpt>
      <trkpt lat="45.8959" lon="3.79238">
        <ele>677</ele>
        <time>2024-12-08T03:09:57.620Z</time>
      </trkpt>
      <trkpt lat="45.8959" lon="3.7924">
        <ele>677</ele>
        <time>2024-12-08T03:09:58.619Z</time>
      </trkpt>
      <trkpt lat="45.89591" lon="3.79242">
        <ele>676</ele>
        <time>2024-12-08T03:09:59.619Z</time>
      </trkpt>
      <trkpt lat="45.89591" lon="3.79245">
        <ele>676</ele>
        <time>2024-12-08T03:10:00.619Z</time>
      </trkpt>
      <trkpt lat="45.89591" lon="3.79248">
        <ele>676</ele>
        <time>2024-12-08T03:10:01.620Z</time>
      </trkpt>
      <trkpt lat="45.89591" lon="3.79251">
        <ele>676</ele>
        <time>2024-12-08T03:10:02.619Z</time>
      </trkpt>
      <trkpt lat="45.89592" lon="3.79253">
        <ele>676</ele>
        <time>2024-12-08T03:10:03.620Z</time>
      </trkpt>
      <trkpt lat="45.89592" lon="3.79256">
        <ele>675</ele>
        <time>2024-12-08T03:10:04.620Z</time>
      </trkpt>
      <trkpt lat="45.89592" lon="3.79258">
        <ele>675</ele>
        <time>2024-12-08T03:10:05.620Z</time>
      </trkpt>
      <trkpt lat="45.89593" lon="3.79261">
        <ele>675</ele>
        <time>2024-12-08T03:10:06.619Z</time>
      </trkpt>
      <trkpt lat="45.89593" lon="3.79264">
        <ele>675</ele>
        <time>2024-12-08T03:10:07.620Z</time>
      </trkpt>
      <trkpt lat="45.89594" lon="3.79267">
        <ele>676</ele>
        <time>2024-12-08T03:10:08.620Z</time>
      </trkpt>
      <trkpt lat="45.89594" lon="3.7927">
        <ele>676</ele>
        <time>2024-12-08T03:10:09.620Z</time>
      </trkpt>
      <trkpt lat="45.89594" lon="3.79273">
        <ele>677</ele>
        <time>2024-12-08T03:10:10.619Z</time>
      </trkpt>
      <trkpt lat="45.89594" lon="3.79275">
        <ele>677</ele>
        <time>2024-12-08T03:10:11.620Z</time>
      </trkpt>
      <trkpt lat="45.89595" lon="3.79279">
        <ele>677</ele>
        <time>2024-12-08T03:10:12.620Z</time>
      </trkpt>
      <trkpt lat="45.89595" lon="3.79281">
        <ele>677</ele>
        <time>2024-12-08T03:10:13.620Z</time>
      </trkpt>
      <trkpt lat="45.89596" lon="3.79284">
        <ele>677</ele>
        <time>2024-12-08T03:10:14.620Z</time>
      </trkpt>
      <trkpt lat="45.89596" lon="3.79286">
        <ele>677</ele>
        <time>2024-12-08T03:10:15.619Z</time>
      </trkpt>
      <trkpt lat="45.89597" lon="3.79289">
        <ele>676</ele>
        <time>2024-12-08T03:10:16.620Z</time>
      </trkpt>
      <trkpt lat="45.89597" lon="3.79291">
        <ele>676</ele>
        <time>2024-12-08T03:10:17.619Z</time>
      </trkpt>
      <trkpt lat="45.89597" lon="3.79294">
        <ele>676</ele>
        <time>2024-12-08T03:10:18.620Z</time>
      </trkpt>
      <trkpt lat="45.89598" lon="3.79296">
        <ele>676</ele>
        <time>2024-12-08T03:10:19.619Z</time>
      </trkpt>
      <trkpt lat="45.89598" lon="3.79299">
        <ele>675</ele>
        <time>2024-12-08T03:10:20.619Z</time>
      </trkpt>
      <trkpt lat="45.89599" lon="3.79302">
        <ele>675</ele>
        <time>2024-12-08T03:10:21.619Z</time>
      </trkpt>
      <trkpt lat="45.89599" lon="3.79304">
        <ele>674</ele>
        <time>2024-12-08T03:10:22.619Z</time>
      </trkpt>
      <trkpt lat="45.89599" lon="3.79307">
        <ele>674</ele>
        <time>2024-12-08T03:10:23.620Z</time>
      </trkpt>
      <trkpt lat="45.89599" lon="3.7931">
        <ele>674</ele>
        <time>2024-12-08T03:10:24.619Z</time>
      </trkpt>
      <trkpt lat="45.896" lon="3.79312">
        <ele>675</ele>
        <time>2024-12-08T03:10:25.619Z</time>
      </trkpt>
      <trkpt lat="45.896" lon="3.79314">
        <ele>675</ele>
        <time>2024-12-08T03:10:26.619Z</time>
      </trkpt>
      <trkpt lat="45.896" lon="3.79317">
        <ele>674</ele>
        <time>2024-12-08T03:10:27.619Z</time>
      </trkpt>
      <trkpt lat="45.896" lon="3.79319">
        <ele>674</ele>
        <time>2024-12-08T03:10:28.619Z</time>
      </trkpt>
      <trkpt lat="45.89601" lon="3.79322">
        <ele>674</ele>
        <time>2024-12-08T03:10:29.619Z</time>
      </trkpt>
      <trkpt lat="45.89601" lon="3.79324">
        <ele>673</ele>
        <time>2024-12-08T03:10:30.619Z</time>
      </trkpt>
      <trkpt lat="45.896" lon="3.79327">
        <ele>673</ele>
        <time>2024-12-08T03:10:31.619Z</time>
      </trkpt>
      <trkpt lat="45.896" lon="3.7933">
        <ele>673</ele>
        <time>2024-12-08T03:10:32.619Z</time>
      </trkpt>
      <trkpt lat="45.89601" lon="3.79332">
        <ele>673</ele>
        <time>2024-12-08T03:10:33.619Z</time>
      </trkpt>
      <trkpt lat="45.89601" lon="3.79335">
        <ele>673</ele>
        <time>2024-12-08T03:10:34.619Z</time>
      </trkpt>
      <trkpt lat="45.89601" lon="3.79337">
        <ele>673</ele>
        <time>2024-12-08T03:10:35.620Z</time>
      </trkpt>
      <trkpt lat="45.89602" lon="3.7934">
        <ele>673</ele>
        <time>2024-12-08T03:10:36.620Z</time>
      </trkpt>
      <trkpt lat="45.89603" lon="3.79343">
        <ele>673</ele>
        <time>2024-12-08T03:10:37.619Z</time>
      </trkpt>
      <trkpt lat="45.89603" lon="3.79345">
        <ele>673</ele>
        <time>2024-12-08T03:10:38.619Z</time>
      </trkpt>
      <trkpt lat="45.89603" lon="3.79348">
        <ele>673</ele>
        <time>2024-12-08T03:10:39.620Z</time>
      </trkpt>
      <trkpt lat="45.89603" lon="3.79351">
        <ele>673</ele>
        <time>2024-12-08T03:10:40.619Z</time>
      </trkpt>
      <trkpt lat="45.89604" lon="3.79354">
        <ele>673</ele>
        <time>2024-12-08T03:10:41.619Z</time>
      </trkpt>
      <trkpt lat="45.89604" lon="3.79356">
        <ele>673</ele>
        <time>2024-12-08T03:10:42.619Z</time>
      </trkpt>
      <trkpt lat="45.89605" lon="3.79358">
        <ele>673</ele>
        <time>2024-12-08T03:10:43.619Z</time>
      </trkpt>
      <trkpt lat="45.89605" lon="3.79361">
        <ele>673</ele>
        <time>2024-12-08T03:10:44.619Z</time>
      </trkpt>
      <trkpt lat="45.89605" lon="3.79363">
        <ele>673</ele>
        <time>2024-12-08T03:10:45.620Z</time>
      </trkpt>
      <trkpt lat="45.89606" lon="3.79366">
        <ele>673</ele>
        <time>2024-12-08T03:10:46.619Z</time>
      </trkpt>
      <trkpt lat="45.89606" lon="3.79369">
        <ele>673</ele>
        <time>2024-12-08T03:10:47.620Z</time>
      </trkpt>
      <trkpt lat="45.89606" lon="3.79372">
        <ele>673</ele>
        <time>2024-12-08T03:10:48.620Z</time>
      </trkpt>
      <trkpt lat="45.89606" lon="3.79375">
        <ele>673</ele>
        <time>2024-12-08T03:10:49.620Z</time>
      </trkpt>
      <trkpt lat="45.89606" lon="3.79377">
        <ele>673</ele>
        <time>2024-12-08T03:10:50.619Z</time>
      </trkpt>
      <trkpt lat="45.89606" lon="3.79379">
        <ele>673</ele>
        <time>2024-12-08T03:10:51.620Z</time>
      </trkpt>
      <trkpt lat="45.89607" lon="3.79381">
        <ele>673</ele>
        <time>2024-12-08T03:10:52.620Z</time>
      </trkpt>
      <trkpt lat="45.89607" lon="3.79384">
        <ele>674</ele>
        <time>2024-12-08T03:10:53.619Z</time>
      </trkpt>
      <trkpt lat="45.89607" lon="3.79387">
        <ele>674</ele>
        <time>2024-12-08T03:10:54.619Z</time>
      </trkpt>
      <trkpt lat="45.89607" lon="3.7939">
        <ele>674</ele>
        <time>2024-12-08T03:10:55.619Z</time>
      </trkpt>
      <trkpt lat="45.89608" lon="3.79392">
        <ele>674</ele>
        <time>2024-12-08T03:10:56.619Z</time>
      </trkpt>
      <trkpt lat="45.89608" lon="3.79395">
        <ele>674</ele>
        <time>2024-12-08T03:10:57.620Z</time>
      </trkpt>
      <trkpt lat="45.89608" lon="3.79397">
        <ele>674</ele>
        <time>2024-12-08T03:10:58.620Z</time>
      </trkpt>
      <trkpt lat="45.89609" lon="3.794">
        <ele>674</ele>
        <time>2024-12-08T03:10:59.619Z</time>
      </trkpt>
      <trkpt lat="45.89609" lon="3.79402">
        <ele>674</ele>
        <time>2024-12-08T03:11:00.619Z</time>
      </trkpt>
      <trkpt lat="45.89609" lon="3.79405">
        <ele>673</ele>
        <time>2024-12-08T03:11:01.619Z</time>
      </trkpt>
      <trkpt lat="45.8961" lon="3.79408">
        <ele>673</ele>
        <time>2024-12-08T03:11:02.620Z</time>
      </trkpt>
      <trkpt lat="45.8961" lon="3.7941">
        <ele>673</ele>
        <time>2024-12-08T03:11:03.620Z</time>
      </trkpt>
      <trkpt lat="45.89611" lon="3.79413">
        <ele>673</ele>
        <time>2024-12-08T03:11:04.619Z</time>
      </trkpt>
      <trkpt lat="45.89611" lon="3.79416">
        <ele>672</ele>
        <time>2024-12-08T03:11:05.619Z</time>
      </trkpt>
      <trkpt lat="45.89611" lon="3.79419">
        <ele>672</ele>
        <time>2024-12-08T03:11:06.619Z</time>
      </trkpt>
      <trkpt lat="45.89611" lon="3.79421">
        <ele>672</ele>
        <time>2024-12-08T03:11:07.619Z</time>
      </trkpt>
      <trkpt lat="45.89611" lon="3.79424">
        <ele>672</ele>
        <time>2024-12-08T03:11:08.620Z</time>
      </trkpt>
      <trkpt lat="45.89612" lon="3.79426">
        <ele>672</ele>
        <time>2024-12-08T03:11:09.619Z</time>
      </trkpt>
      <trkpt lat="45.89612" lon="3.79429">
        <ele>672</ele>
        <time>2024-12-08T03:11:10.619Z</time>
      </trkpt>
      <trkpt lat="45.89612" lon="3.79431">
        <ele>672</ele>
        <time>2024-12-08T03:11:11.620Z</time>
      </trkpt>
      <trkpt lat="45.89613" lon="3.79434">
        <ele>672</ele>
        <time>2024-12-08T03:11:12.619Z</time>
      </trkpt>
      <trkpt lat="45.89613" lon="3.79437">
        <ele>672</ele>
        <time>2024-12-08T03:11:13.619Z</time>
      </trkpt>
      <trkpt lat="45.89613" lon="3.79439">
        <ele>673</ele>
        <time>2024-12-08T03:11:14.620Z</time>
      </trkpt>
      <trkpt lat="45.89613" lon="3.79442">
        <ele>673</ele>
        <time>2024-12-08T03:11:15.620Z</time>
      </trkpt>
      <trkpt lat="45.89614" lon="3.79445">
        <ele>673</ele>
        <time>2024-12-08T03:11:16.619Z</time>
      </trkpt>
      <trkpt lat="45.89614" lon="3.79447">
        <ele>674</ele>
        <time>2024-12-08T03:11:17.620Z</time>
      </trkpt>
      <trkpt lat="45.89614" lon="3.7945">
        <ele>674</ele>
        <time>2024-12-08T03:11:18.619Z</time>
      </trkpt>
      <trkpt lat="45.89614" lon="3.79453">
        <ele>674</ele>
        <time>2024-12-08T03:11:19.620Z</time>
      </trkpt>
      <trkpt lat="45.89614" lon="3.79455">
        <ele>674</ele>
        <time>2024-12-08T03:11:20.619Z</time>
      </trkpt>
      <trkpt lat="45.89615" lon="3.79458">
        <ele>674</ele>
        <time>2024-12-08T03:11:21.620Z</time>
      </trkpt>
      <trkpt lat="45.89615" lon="3.79461">
        <ele>674</ele>
        <time>2024-12-08T03:11:22.619Z</time>
      </trkpt>
      <trkpt lat="45.89615" lon="3.79463">
        <ele>674</ele>
        <time>2024-12-08T03:11:23.619Z</time>
      </trkpt>
      <trkpt lat="45.89615" lon="3.79466">
        <ele>674</ele>
        <time>2024-12-08T03:11:24.619Z</time>
      </trkpt>
      <trkpt lat="45.89616" lon="3.79468">
        <ele>673</ele>
        <time>2024-12-08T03:11:25.620Z</time>
      </trkpt>
      <trkpt lat="45.89617" lon="3.79471">
        <ele>673</ele>
        <time>2024-12-08T03:11:26.620Z</time>
      </trkpt>
      <trkpt lat="45.89617" lon="3.79473">
        <ele>673</ele>
        <time>2024-12-08T03:11:27.619Z</time>
      </trkpt>
      <trkpt lat="45.89618" lon="3.79476">
        <ele>673</ele>
        <time>2024-12-08T03:11:28.619Z</time>
      </trkpt>
      <trkpt lat="45.89618" lon="3.79479">
        <ele>672</ele>
        <time>2024-12-08T03:11:29.619Z</time>
      </trkpt>
      <trkpt lat="45.89618" lon="3.79481">
        <ele>672</ele>
        <time>2024-12-08T03:11:30.619Z</time>
      </trkpt>
      <trkpt lat="45.89618" lon="3.79484">
        <ele>672</ele>
        <time>2024-12-08T03:11:31.620Z</time>
      </trkpt>
      <trkpt lat="45.89619" lon="3.79487">
        <ele>673</ele>
        <time>2024-12-08T03:11:32.619Z</time>
      </trkpt>
      <trkpt lat="45.89619" lon="3.79489">
        <ele>673</ele>
        <time>2024-12-08T03:11:33.620Z</time>
      </trkpt>
      <trkpt lat="45.89619" lon="3.79492">
        <ele>673</ele>
        <time>2024-12-08T03:11:34.620Z</time>
      </trkpt>
      <trkpt lat="45.8962" lon="3.79495">
        <ele>673</ele>
        <time>2024-12-08T03:11:35.619Z</time>
      </trkpt>
      <trkpt lat="45.8962" lon="3.79498">
        <ele>673</ele>
        <time>2024-12-08T03:11:36.620Z</time>
      </trkpt>
      <trkpt lat="45.8962" lon="3.795">
        <ele>673</ele>
        <time>2024-12-08T03:11:37.619Z</time>
      </trkpt>
      <trkpt lat="45.8962" lon="3.79503">
        <ele>673</ele>
        <time>2024-12-08T03:11:38.620Z</time>
      </trkpt>
      <trkpt lat="45.89621" lon="3.79505">
        <ele>673</ele>
        <time>2024-12-08T03:11:39.620Z</time>
      </trkpt>
      <trkpt lat="45.89621" lon="3.79508">
        <ele>673</ele>
        <time>2024-12-08T03:11:40.620Z</time>
      </trkpt>
      <trkpt lat="45.89621" lon="3.7951">
        <ele>673</ele>
        <time>2024-12-08T03:11:41.620Z</time>
      </trkpt>
      <trkpt lat="45.89622" lon="3.79513">
        <ele>673</ele>
        <time>2024-12-08T03:11:42.620Z</time>
      </trkpt>
      <trkpt lat="45.89622" lon="3.79516">
        <ele>673</ele>
        <time>2024-12-08T03:11:43.620Z</time>
      </trkpt>
      <trkpt lat="45.89622" lon="3.79518">
        <ele>673</ele>
        <time>2024-12-08T03:11:44.619Z</time>
      </trkpt>
      <trkpt lat="45.89623" lon="3.79521">
        <ele>673</ele>
        <time>2024-12-08T03:11:45.620Z</time>
      </trkpt>
      <trkpt lat="45.89623" lon="3.79524">
        <ele>672</ele>
        <time>2024-12-08T03:11:46.620Z</time>
      </trkpt>
      <trkpt lat="45.89623" lon="3.79526">
        <ele>672</ele>
        <time>2024-12-08T03:11:47.620Z</time>
      </trkpt>
      <trkpt lat="45.89623" lon="3.79529">
        <ele>672</ele>
        <time>2024-12-08T03:11:48.619Z</time>
      </trkpt>
      <trkpt lat="45.89624" lon="3.79532">
        <ele>672</ele>
        <time>2024-12-08T03:11:49.620Z</time>
      </trkpt>
      <trkpt lat="45.89624" lon="3.79534">
        <ele>672</ele>
        <time>2024-12-08T03:11:50.619Z</time>
      </trkpt>
      <trkpt lat="45.89624" lon="3.79537">
        <ele>672</ele>
        <time>2024-12-08T03:11:51.619Z</time>
      </trkpt>
      <trkpt lat="45.89624" lon="3.7954">
        <ele>672</ele>
        <time>2024-12-08T03:11:52.620Z</time>
      </trkpt>
      <trkpt lat="45.89624" lon="3.79543">
        <ele>672</ele>
        <time>2024-12-08T03:11:53.619Z</time>
      </trkpt>
      <trkpt lat="45.89624" lon="3.79546">
        <ele>672</ele>
        <time>2024-12-08T03:11:54.620Z</time>
      </trkpt>
      <trkpt lat="45.89625" lon="3.79548">
        <ele>672</ele>
        <time>2024-12-08T03:11:55.619Z</time>
      </trkpt>
      <trkpt lat="45.89625" lon="3.79551">
        <ele>672</ele>
        <time>2024-12-08T03:11:56.620Z</time>
      </trkpt>
      <trkpt lat="45.89625" lon="3.79554">
        <ele>671</ele>
        <time>2024-12-08T03:11:57.619Z</time>
      </trkpt>
      <trkpt lat="45.89625" lon="3.79556">
        <ele>671</ele>
        <time>2024-12-08T03:11:58.620Z</time>
      </trkpt>
      <trkpt lat="45.89626" lon="3.79559">
        <ele>671</ele>
        <time>2024-12-08T03:11:59.620Z</time>
      </trkpt>
      <trkpt lat="45.89626" lon="3.79562">
        <ele>671</ele>
        <time>2024-12-08T03:12:00.620Z</time>
      </trkpt>
      <trkpt lat="45.89626" lon="3.79565">
        <ele>670</ele>
        <time>2024-12-08T03:12:01.619Z</time>
      </trkpt>
      <trkpt lat="45.89627" lon="3.79568">
        <ele>670</ele>
        <time>2024-12-08T03:12:02.619Z</time>
      </trkpt>
      <trkpt lat="45.89627" lon="3.7957">
        <ele>670</ele>
        <time>2024-12-08T03:12:03.619Z</time>
      </trkpt>
      <trkpt lat="45.89628" lon="3.79573">
        <ele>670</ele>
        <time>2024-12-08T03:12:04.620Z</time>
      </trkpt>
      <trkpt lat="45.89628" lon="3.79576">
        <ele>669</ele>
        <time>2024-12-08T03:12:05.620Z</time>
      </trkpt>
      <trkpt lat="45.89628" lon="3.79578">
        <ele>669</ele>
        <time>2024-12-08T03:12:06.619Z</time>
      </trkpt>
      <trkpt lat="45.89629" lon="3.79581">
        <ele>669</ele>
        <time>2024-12-08T03:12:07.620Z</time>
      </trkpt>
      <trkpt lat="45.89629" lon="3.79584">
        <ele>669</ele>
        <time>2024-12-08T03:12:08.620Z</time>
      </trkpt>
      <trkpt lat="45.8963" lon="3.79587">
        <ele>669</ele>
        <time>2024-12-08T03:12:09.620Z</time>
      </trkpt>
      <trkpt lat="45.8963" lon="3.7959">
        <ele>669</ele>
        <time>2024-12-08T03:12:10.619Z</time>
      </trkpt>
      <trkpt lat="45.89631" lon="3.79593">
        <ele>669</ele>
        <time>2024-12-08T03:12:11.619Z</time>
      </trkpt>
      <trkpt lat="45.89631" lon="3.79596">
        <ele>669</ele>
        <time>2024-12-08T03:12:12.619Z</time>
      </trkpt>
      <trkpt lat="45.89632" lon="3.79598">
        <ele>669</ele>
        <time>2024-12-08T03:12:13.619Z</time>
      </trkpt>
      <trkpt lat="45.89632" lon="3.79601">
        <ele>669</ele>
        <time>2024-12-08T03:12:14.620Z</time>
      </trkpt>
      <trkpt lat="45.89633" lon="3.79603">
        <ele>669</ele>
        <time>2024-12-08T03:12:15.619Z</time>
      </trkpt>
      <trkpt lat="45.89633" lon="3.79606">
        <ele>669</ele>
        <time>2024-12-08T03:12:16.620Z</time>
      </trkpt>
      <trkpt lat="45.89634" lon="3.79608">
        <ele>669</ele>
        <time>2024-12-08T03:12:17.619Z</time>
      </trkpt>
      <trkpt lat="45.89634" lon="3.79611">
        <ele>669</ele>
        <time>2024-12-08T03:12:18.620Z</time>
      </trkpt>
      <trkpt lat="45.89635" lon="3.79613">
        <ele>669</ele>
        <time>2024-12-08T03:12:19.619Z</time>
      </trkpt>
      <trkpt lat="45.89635" lon="3.79616">
        <ele>669</ele>
        <time>2024-12-08T03:12:20.619Z</time>
      </trkpt>
      <trkpt lat="45.89636" lon="3.79619">
        <ele>669</ele>
        <time>2024-12-08T03:12:21.619Z</time>
      </trkpt>
      <trkpt lat="45.89636" lon="3.79622">
        <ele>668</ele>
        <time>2024-12-08T03:12:22.620Z</time>
      </trkpt>
      <trkpt lat="45.89636" lon="3.79624">
        <ele>668</ele>
        <time>2024-12-08T03:12:23.619Z</time>
      </trkpt>
      <trkpt lat="45.89636" lon="3.79627">
        <ele>668</ele>
        <time>2024-12-08T03:12:24.620Z</time>
      </trkpt>
      <trkpt lat="45.89636" lon="3.7963">
        <ele>668</ele>
        <time>2024-12-08T03:12:25.619Z</time>
      </trkpt>
      <trkpt lat="45.89637" lon="3.79633">
        <ele>668</ele>
        <time>2024-12-08T03:12:26.620Z</time>
      </trkpt>
      <trkpt lat="45.89637" lon="3.79635">
        <ele>667</ele>
        <time>2024-12-08T03:12:27.620Z</time>
      </trkpt>
      <trkpt lat="45.89637" lon="3.79638">
        <ele>666</ele>
        <time>2024-12-08T03:12:28.620Z</time>
      </trkpt>
      <trkpt lat="45.89637" lon="3.79641">
        <ele>666</ele>
        <time>2024-12-08T03:12:29.620Z</time>
      </trkpt>
      <trkpt lat="45.89638" lon="3.79643">
        <ele>665</ele>
        <time>2024-12-08T03:12:30.619Z</time>
      </trkpt>
      <trkpt lat="45.89638" lon="3.79645">
        <ele>665</ele>
        <time>2024-12-08T03:12:31.620Z</time>
      </trkpt>
      <trkpt lat="45.89638" lon="3.79648">
        <ele>665</ele>
        <time>2024-12-08T03:12:32.619Z</time>
      </trkpt>
      <trkpt lat="45.89639" lon="3.79651">
        <ele>665</ele>
        <time>2024-12-08T03:12:33.620Z</time>
      </trkpt>
      <trkpt lat="45.8964" lon="3.79654">
        <ele>665</ele>
        <time>2024-12-08T03:12:34.619Z</time>
      </trkpt>
      <trkpt lat="45.8964" lon="3.79656">
        <ele>664</ele>
        <time>2024-12-08T03:12:35.620Z</time>
      </trkpt>
      <trkpt lat="45.8964" lon="3.79659">
        <ele>664</ele>
        <time>2024-12-08T03:12:36.619Z</time>
      </trkpt>
      <trkpt lat="45.8964" lon="3.79662">
        <ele>664</ele>
        <time>2024-12-08T03:12:37.619Z</time>
      </trkpt>
      <trkpt lat="45.89641" lon="3.79664">
        <ele>664</ele>
        <time>2024-12-08T03:12:38.619Z</time>
      </trkpt>
      <trkpt lat="45.89641" lon="3.79667">
        <ele>664</ele>
        <time>2024-12-08T03:12:39.619Z</time>
      </trkpt>
      <trkpt lat="45.89641" lon="3.7967">
        <ele>664</ele>
        <time>2024-12-08T03:12:40.619Z</time>
      </trkpt>
      <trkpt lat="45.89641" lon="3.79673">
        <ele>664</ele>
        <time>2024-12-08T03:12:41.619Z</time>
      </trkpt>
      <trkpt lat="45.89641" lon="3.79676">
        <ele>664</ele>
        <time>2024-12-08T03:12:42.620Z</time>
      </trkpt>
      <trkpt lat="45.89642" lon="3.79678">
        <ele>664</ele>
        <time>2024-12-08T03:12:43.620Z</time>
      </trkpt>
      <trkpt lat="45.89642" lon="3.79681">
        <ele>664</ele>
        <time>2024-12-08T03:12:44.619Z</time>
      </trkpt>
      <trkpt lat="45.89643" lon="3.79683">
        <ele>663</ele>
        <time>2024-12-08T03:12:45.619Z</time>
      </trkpt>
      <trkpt lat="45.89643" lon="3.79686">
        <ele>663</ele>
        <time>2024-12-08T03:12:46.620Z</time>
      </trkpt>
      <trkpt lat="45.89644" lon="3.79689">
        <ele>663</ele>
        <time>2024-12-08T03:12:47.619Z</time>
      </trkpt>
      <trkpt lat="45.89644" lon="3.79692">
        <ele>662</ele>
        <time>2024-12-08T03:12:48.619Z</time>
      </trkpt>
      <trkpt lat="45.89645" lon="3.79694">
        <ele>662</ele>
        <time>2024-12-08T03:12:49.619Z</time>
      </trkpt>
      <trkpt lat="45.89646" lon="3.79697">
        <ele>662</ele>
        <time>2024-12-08T03:12:50.620Z</time>
      </trkpt>
      <trkpt lat="45.89646" lon="3.79699">
        <ele>662</ele>
        <time>2024-12-08T03:12:51.620Z</time>
      </trkpt>
      <trkpt lat="45.89647" lon="3.79702">
        <ele>662</ele>
        <time>2024-12-08T03:12:52.619Z</time>
      </trkpt>
      <trkpt lat="45.89648" lon="3.79704">
        <ele>661</ele>
        <time>2024-12-08T03:12:53.620Z</time>
      </trkpt>
      <trkpt lat="45.89648" lon="3.79707">
        <ele>661</ele>
        <time>2024-12-08T03:12:54.619Z</time>
      </trkpt>
      <trkpt lat="45.89648" lon="3.79709">
        <ele>661</ele>
        <time>2024-12-08T03:12:55.620Z</time>
      </trkpt>
      <trkpt lat="45.89649" lon="3.79712">
        <ele>661</ele>
        <time>2024-12-08T03:12:56.619Z</time>
      </trkpt>
      <trkpt lat="45.89649" lon="3.79714">
        <ele>661</ele>
        <time>2024-12-08T03:12:57.620Z</time>
      </trkpt>
      <trkpt lat="45.89649" lon="3.79717">
        <ele>661</ele>
        <time>2024-12-08T03:12:58.619Z</time>
      </trkpt>
      <trkpt lat="45.89649" lon="3.79719">
        <ele>660</ele>
        <time>2024-12-08T03:12:59.620Z</time>
      </trkpt>
      <trkpt lat="45.89649" lon="3.79722">
        <ele>660</ele>
        <time>2024-12-08T03:13:00.619Z</time>
      </trkpt>
      <trkpt lat="45.8965" lon="3.79724">
        <ele>660</ele>
        <time>2024-12-08T03:13:01.620Z</time>
      </trkpt>
      <trkpt lat="45.8965" lon="3.79727">
        <ele>660</ele>
        <time>2024-12-08T03:13:02.619Z</time>
      </trkpt>
      <trkpt lat="45.8965" lon="3.7973">
        <ele>660</ele>
        <time>2024-12-08T03:13:03.620Z</time>
      </trkpt>
      <trkpt lat="45.89651" lon="3.79732">
        <ele>660</ele>
        <time>2024-12-08T03:13:04.620Z</time>
      </trkpt>
      <trkpt lat="45.89651" lon="3.79735">
        <ele>659</ele>
        <time>2024-12-08T03:13:05.620Z</time>
      </trkpt>
      <trkpt lat="45.89652" lon="3.79737">
        <ele>659</ele>
        <time>2024-12-08T03:13:06.619Z</time>
      </trkpt>
      <trkpt lat="45.89652" lon="3.79739">
        <ele>659</ele>
        <time>2024-12-08T03:13:07.619Z</time>
      </trkpt>
      <trkpt lat="45.89652" lon="3.79742">
        <ele>659</ele>
        <time>2024-12-08T03:13:08.620Z</time>
      </trkpt>
      <trkpt lat="45.89653" lon="3.79745">
        <ele>658</ele>
        <time>2024-12-08T03:13:09.619Z</time>
      </trkpt>
      <trkpt lat="45.89653" lon="3.79748">
        <ele>658</ele>
        <time>2024-12-08T03:13:10.620Z</time>
      </trkpt>
      <trkpt lat="45.89654" lon="3.79751">
        <ele>658</ele>
        <time>2024-12-08T03:13:11.619Z</time>
      </trkpt>
      <trkpt lat="45.89654" lon="3.79754">
        <ele>658</ele>
        <time>2024-12-08T03:13:12.619Z</time>
      </trkpt>
      <trkpt lat="45.89654" lon="3.79756">
        <ele>658</ele>
        <time>2024-12-08T03:13:13.619Z</time>
      </trkpt>
      <trkpt lat="45.89654" lon="3.79759">
        <ele>658</ele>
        <time>2024-12-08T03:13:14.620Z</time>
      </trkpt>
      <trkpt lat="45.89654" lon="3.79761">
        <ele>658</ele>
        <time>2024-12-08T03:13:15.620Z</time>
      </trkpt>
      <trkpt lat="45.89654" lon="3.79764">
        <ele>658</ele>
        <time>2024-12-08T03:13:16.619Z</time>
      </trkpt>
      <trkpt lat="45.89655" lon="3.79766">
        <ele>658</ele>
        <time>2024-12-08T03:13:17.619Z</time>
      </trkpt>
      <trkpt lat="45.89656" lon="3.79768">
        <ele>658</ele>
        <time>2024-12-08T03:13:18.620Z</time>
      </trkpt>
      <trkpt lat="45.89657" lon="3.79771">
        <ele>658</ele>
        <time>2024-12-08T03:13:19.619Z</time>
      </trkpt>
      <trkpt lat="45.89657" lon="3.79774">
        <ele>658</ele>
        <time>2024-12-08T03:13:20.620Z</time>
      </trkpt>
      <trkpt lat="45.89658" lon="3.79776">
        <ele>658</ele>
        <time>2024-12-08T03:13:21.619Z</time>
      </trkpt>
      <trkpt lat="45.89658" lon="3.79779">
        <ele>658</ele>
        <time>2024-12-08T03:13:22.620Z</time>
      </trkpt>
      <trkpt lat="45.89658" lon="3.79781">
        <ele>658</ele>
        <time>2024-12-08T03:13:23.620Z</time>
      </trkpt>
      <trkpt lat="45.89659" lon="3.79784">
        <ele>658</ele>
        <time>2024-12-08T03:13:24.619Z</time>
      </trkpt>
      <trkpt lat="45.89659" lon="3.79786">
        <ele>658</ele>
        <time>2024-12-08T03:13:25.619Z</time>
      </trkpt>
      <trkpt lat="45.8966" lon="3.79789">
        <ele>658</ele>
        <time>2024-12-08T03:13:26.620Z</time>
      </trkpt>
      <trkpt lat="45.8966" lon="3.79792">
        <ele>657</ele>
        <time>2024-12-08T03:13:27.619Z</time>
      </trkpt>
      <trkpt lat="45.8966" lon="3.79794">
        <ele>657</ele>
        <time>2024-12-08T03:13:28.620Z</time>
      </trkpt>
      <trkpt lat="45.8966" lon="3.79797">
        <ele>657</ele>
        <time>2024-12-08T03:13:29.619Z</time>
      </trkpt>
      <trkpt lat="45.8966" lon="3.798">
        <ele>657</ele>
        <time>2024-12-08T03:13:30.620Z</time>
      </trkpt>
      <trkpt lat="45.89661" lon="3.79803">
        <ele>658</ele>
        <time>2024-12-08T03:13:31.620Z</time>
      </trkpt>
      <trkpt lat="45.89661" lon="3.79805">
        <ele>658</ele>
        <time>2024-12-08T03:13:32.619Z</time>
      </trkpt>
      <trkpt lat="45.89662" lon="3.79808">
        <ele>657</ele>
        <time>2024-12-08T03:13:33.620Z</time>
      </trkpt>
      <trkpt lat="45.89662" lon="3.7981">
        <ele>657</ele>
        <time>2024-12-08T03:13:34.619Z</time>
      </trkpt>
      <trkpt lat="45.89663" lon="3.79813">
        <ele>657</ele>
        <time>2024-12-08T03:13:35.620Z</time>
      </trkpt>
      <trkpt lat="45.89663" lon="3.79815">
        <ele>656</ele>
        <time>2024-12-08T03:13:36.619Z</time>
      </trkpt>
      <trkpt lat="45.89663" lon="3.79818">
        <ele>656</ele>
        <time>2024-12-08T03:13:37.620Z</time>
      </trkpt>
      <trkpt lat="45.89664" lon="3.7982">
        <ele>656</ele>
        <time>2024-12-08T03:13:38.620Z</time>
      </trkpt>
      <trkpt lat="45.89664" lon="3.79823">
        <ele>656</ele>
        <time>2024-12-08T03:13:39.619Z</time>
      </trkpt>
      <trkpt lat="45.89664" lon="3.79825">
        <ele>657</ele>
        <time>2024-12-08T03:13:40.620Z</time>
      </trkpt>
      <trkpt lat="45.89665" lon="3.79828">
        <ele>657</ele>
        <time>2024-12-08T03:13:41.619Z</time>
      </trkpt>
      <trkpt lat="45.89665" lon="3.7983">
        <ele>657</ele>
        <time>2024-12-08T03:13:42.620Z</time>
      </trkpt>
      <trkpt lat="45.89666" lon="3.79833">
        <ele>657</ele>
        <time>2024-12-08T03:13:43.620Z</time>
      </trkpt>
      <trkpt lat="45.89666" lon="3.79836">
        <ele>658</ele>
        <time>2024-12-08T03:13:44.619Z</time>
      </trkpt>
      <trkpt lat="45.89667" lon="3.79838">
        <ele>658</ele>
        <time>2024-12-08T03:13:45.619Z</time>
      </trkpt>
      <trkpt lat="45.89667" lon="3.79841">
        <ele>658</ele>
        <time>2024-12-08T03:13:46.619Z</time>
      </trkpt>
      <trkpt lat="45.89667" lon="3.79843">
        <ele>658</ele>
        <time>2024-12-08T03:13:47.619Z</time>
      </trkpt>
      <trkpt lat="45.89668" lon="3.79846">
        <ele>658</ele>
        <time>2024-12-08T03:13:48.619Z</time>
      </trkpt>
      <trkpt lat="45.89668" lon="3.79848">
        <ele>658</ele>
        <time>2024-12-08T03:13:49.619Z</time>
      </trkpt>
      <trkpt lat="45.89668" lon="3.79851">
        <ele>658</ele>
        <time>2024-12-08T03:13:50.619Z</time>
      </trkpt>
      <trkpt lat="45.89669" lon="3.79853">
        <ele>658</ele>
        <time>2024-12-08T03:13:51.620Z</time>
      </trkpt>
      <trkpt lat="45.89669" lon="3.79856">
        <ele>658</ele>
        <time>2024-12-08T03:13:52.620Z</time>
      </trkpt>
      <trkpt lat="45.89669" lon="3.79858">
        <ele>658</ele>
        <time>2024-12-08T03:13:53.620Z</time>
      </trkpt>
      <trkpt lat="45.89669" lon="3.79861">
        <ele>658</ele>
        <time>2024-12-08T03:13:54.619Z</time>
      </trkpt>
      <trkpt lat="45.8967" lon="3.79863">
        <ele>658</ele>
        <time>2024-12-08T03:13:55.619Z</time>
      </trkpt>
      <trkpt lat="45.8967" lon="3.79865">
        <ele>657</ele>
        <time>2024-12-08T03:13:56.620Z</time>
      </trkpt>
      <trkpt lat="45.89671" lon="3.79868">
        <ele>657</ele>
        <time>2024-12-08T03:13:57.620Z</time>
      </trkpt>
      <trkpt lat="45.89671" lon="3.7987">
        <ele>657</ele>
        <time>2024-12-08T03:13:58.619Z</time>
      </trkpt>
      <trkpt lat="45.89671" lon="3.79872">
        <ele>657</ele>
        <time>2024-12-08T03:13:59.620Z</time>
      </trkpt>
      <trkpt lat="45.89671" lon="3.79875">
        <ele>657</ele>
        <time>2024-12-08T03:14:00.620Z</time>
      </trkpt>
      <trkpt lat="45.89671" lon="3.79878">
        <ele>657</ele>
        <time>2024-12-08T03:14:01.619Z</time>
      </trkpt>
      <trkpt lat="45.89671" lon="3.7988">
        <ele>657</ele>
        <time>2024-12-08T03:14:02.619Z</time>
      </trkpt>
      <trkpt lat="45.89672" lon="3.79883">
        <ele>657</ele>
        <time>2024-12-08T03:14:03.620Z</time>
      </trkpt>
      <trkpt lat="45.89672" lon="3.79885">
        <ele>657</ele>
        <time>2024-12-08T03:14:04.619Z</time>
      </trkpt>
      <trkpt lat="45.89673" lon="3.79887">
        <ele>657</ele>
        <time>2024-12-08T03:14:05.620Z</time>
      </trkpt>
      <trkpt lat="45.89673" lon="3.7989">
        <ele>657</ele>
        <time>2024-12-08T03:14:06.620Z</time>
      </trkpt>
      <trkpt lat="45.89673" lon="3.79893">
        <ele>657</ele>
        <time>2024-12-08T03:14:07.619Z</time>
      </trkpt>
      <trkpt lat="45.89674" lon="3.79895">
        <ele>657</ele>
        <time>2024-12-08T03:14:08.620Z</time>
      </trkpt>
      <trkpt lat="45.89674" lon="3.79897">
        <ele>657</ele>
        <time>2024-12-08T03:14:09.619Z</time>
      </trkpt>
      <trkpt lat="45.89675" lon="3.799">
        <ele>657</ele>
        <time>2024-12-08T03:14:10.620Z</time>
      </trkpt>
      <trkpt lat="45.89675" lon="3.79902">
        <ele>657</ele>
        <time>2024-12-08T03:14:11.620Z</time>
      </trkpt>
      <trkpt lat="45.89676" lon="3.79904">
        <ele>657</ele>
        <time>2024-12-08T03:14:12.619Z</time>
      </trkpt>
      <trkpt lat="45.89676" lon="3.79906">
        <ele>657</ele>
        <time>2024-12-08T03:14:13.620Z</time>
      </trkpt>
      <trkpt lat="45.89676" lon="3.79909">
        <ele>657</ele>
        <time>2024-12-08T03:14:14.620Z</time>
      </trkpt>
      <trkpt lat="45.89676" lon="3.79911">
        <ele>657</ele>
        <time>2024-12-08T03:14:15.620Z</time>
      </trkpt>
      <trkpt lat="45.89676" lon="3.79915">
        <ele>657</ele>
        <time>2024-12-08T03:14:16.619Z</time>
      </trkpt>
      <trkpt lat="45.89676" lon="3.79917">
        <ele>657</ele>
        <time>2024-12-08T03:14:17.619Z</time>
      </trkpt>
      <trkpt lat="45.89676" lon="3.79919">
        <ele>657</ele>
        <time>2024-12-08T03:14:18.619Z</time>
      </trkpt>
      <trkpt lat="45.89676" lon="3.79921">
        <ele>657</ele>
        <time>2024-12-08T03:14:19.620Z</time>
      </trkpt>
      <trkpt lat="45.89677" lon="3.79924">
        <ele>656</ele>
        <time>2024-12-08T03:14:20.620Z</time>
      </trkpt>
      <trkpt lat="45.89677" lon="3.79927">
        <ele>656</ele>
        <time>2024-12-08T03:14:21.619Z</time>
      </trkpt>
      <trkpt lat="45.89677" lon="3.79929">
        <ele>656</ele>
        <time>2024-12-08T03:14:22.620Z</time>
      </trkpt>
      <trkpt lat="45.89678" lon="3.79931">
        <ele>656</ele>
        <time>2024-12-08T03:14:23.619Z</time>
      </trkpt>
      <trkpt lat="45.89679" lon="3.79934">
        <ele>656</ele>
        <time>2024-12-08T03:14:24.619Z</time>
      </trkpt>
      <trkpt lat="45.89679" lon="3.79936">
        <ele>656</ele>
        <time>2024-12-08T03:14:25.620Z</time>
      </trkpt>
      <trkpt lat="45.8968" lon="3.79939">
        <ele>657</ele>
        <time>2024-12-08T03:14:26.620Z</time>
      </trkpt>
      <trkpt lat="45.89681" lon="3.7994">
        <ele>657</ele>
        <time>2024-12-08T03:14:27.620Z</time>
      </trkpt>
      <trkpt lat="45.89682" lon="3.79943">
        <ele>656</ele>
        <time>2024-12-08T03:14:28.620Z</time>
      </trkpt>
      <trkpt lat="45.89682" lon="3.79945">
        <ele>656</ele>
        <time>2024-12-08T03:14:29.619Z</time>
      </trkpt>
      <trkpt lat="45.89682" lon="3.79947">
        <ele>656</ele>
        <time>2024-12-08T03:14:30.619Z</time>
      </trkpt>
      <trkpt lat="45.89683" lon="3.7995">
        <ele>656</ele>
        <time>2024-12-08T03:14:31.619Z</time>
      </trkpt>
      <trkpt lat="45.89683" lon="3.79952">
        <ele>656</ele>
        <time>2024-12-08T03:14:32.619Z</time>
      </trkpt>
      <trkpt lat="45.89683" lon="3.79955">
        <ele>656</ele>
        <time>2024-12-08T03:14:33.620Z</time>
      </trkpt>
      <trkpt lat="45.89683" lon="3.79957">
        <ele>656</ele>
        <time>2024-12-08T03:14:34.619Z</time>
      </trkpt>
      <trkpt lat="45.89684" lon="3.7996">
        <ele>656</ele>
        <time>2024-12-08T03:14:35.619Z</time>
      </trkpt>
      <trkpt lat="45.89684" lon="3.79962">
        <ele>657</ele>
        <time>2024-12-08T03:14:36.619Z</time>
      </trkpt>
      <trkpt lat="45.89684" lon="3.79965">
        <ele>657</ele>
        <time>2024-12-08T03:14:37.620Z</time>
      </trkpt>
      <trkpt lat="45.89685" lon="3.79967">
        <ele>657</ele>
        <time>2024-12-08T03:14:38.619Z</time>
      </trkpt>
      <trkpt lat="45.89685" lon="3.79969">
        <ele>656</ele>
        <time>2024-12-08T03:14:39.619Z</time>
      </trkpt>
      <trkpt lat="45.89685" lon="3.79971">
        <ele>657</ele>
        <time>2024-12-08T03:14:40.619Z</time>
      </trkpt>
      <trkpt lat="45.89685" lon="3.79974">
        <ele>657</ele>
        <time>2024-12-08T03:14:41.620Z</time>
      </trkpt>
      <trkpt lat="45.89686" lon="3.79977">
        <ele>657</ele>
        <time>2024-12-08T03:14:42.620Z</time>
      </trkpt>
      <trkpt lat="45.89686" lon="3.79979">
        <ele>657</ele>
        <time>2024-12-08T03:14:43.619Z</time>
      </trkpt>
      <trkpt lat="45.89686" lon="3.79981">
        <ele>657</ele>
        <time>2024-12-08T03:14:44.619Z</time>
      </trkpt>
      <trkpt lat="45.89686" lon="3.79984">
        <ele>657</ele>
        <time>2024-12-08T03:14:45.620Z</time>
      </trkpt>
      <trkpt lat="45.89686" lon="3.79986">
        <ele>657</ele>
        <time>2024-12-08T03:14:46.619Z</time>
      </trkpt>
      <trkpt lat="45.89686" lon="3.79988">
        <ele>657</ele>
        <time>2024-12-08T03:14:47.619Z</time>
      </trkpt>
      <trkpt lat="45.89686" lon="3.7999">
        <ele>657</ele>
        <time>2024-12-08T03:14:48.620Z</time>
      </trkpt>
      <trkpt lat="45.89686" lon="3.79993">
        <ele>657</ele>
        <time>2024-12-08T03:14:49.620Z</time>
      </trkpt>
      <trkpt lat="45.89686" lon="3.79995">
        <ele>657</ele>
        <time>2024-12-08T03:14:50.620Z</time>
      </trkpt>
      <trkpt lat="45.89686" lon="3.79997">
        <ele>657</ele>
        <time>2024-12-08T03:14:51.619Z</time>
      </trkpt>
      <trkpt lat="45.89687" lon="3.8">
        <ele>657</ele>
        <time>2024-12-08T03:14:52.619Z</time>
      </trkpt>
      <trkpt lat="45.89687" lon="3.80002">
        <ele>657</ele>
        <time>2024-12-08T03:14:53.619Z</time>
      </trkpt>
      <trkpt lat="45.89687" lon="3.80004">
        <ele>657</ele>
        <time>2024-12-08T03:14:54.620Z</time>
      </trkpt>
      <trkpt lat="45.89687" lon="3.80006">
        <ele>657</ele>
        <time>2024-12-08T03:14:55.619Z</time>
      </trkpt>
      <trkpt lat="45.89688" lon="3.80008">
        <ele>657</ele>
        <time>2024-12-08T03:14:56.620Z</time>
      </trkpt>
      <trkpt lat="45.89688" lon="3.8001">
        <ele>657</ele>
        <time>2024-12-08T03:14:57.620Z</time>
      </trkpt>
      <trkpt lat="45.89688" lon="3.80012">
        <ele>657</ele>
        <time>2024-12-08T03:14:58.619Z</time>
      </trkpt>
      <trkpt lat="45.89688" lon="3.80014">
        <ele>657</ele>
        <time>2024-12-08T03:14:59.619Z</time>
      </trkpt>
      <trkpt lat="45.89688" lon="3.80017">
        <ele>657</ele>
        <time>2024-12-08T03:15:00.619Z</time>
      </trkpt>
      <trkpt lat="45.89689" lon="3.80019">
        <ele>657</ele>
        <time>2024-12-08T03:15:01.619Z</time>
      </trkpt>
      <trkpt lat="45.89689" lon="3.80021">
        <ele>657</ele>
        <time>2024-12-08T03:15:02.620Z</time>
      </trkpt>
      <trkpt lat="45.89689" lon="3.80024">
        <ele>657</ele>
        <time>2024-12-08T03:15:03.619Z</time>
      </trkpt>
      <trkpt lat="45.89689" lon="3.80026">
        <ele>657</ele>
        <time>2024-12-08T03:15:04.619Z</time>
      </trkpt>
      <trkpt lat="45.8969" lon="3.80028">
        <ele>657</ele>
        <time>2024-12-08T03:15:05.620Z</time>
      </trkpt>
      <trkpt lat="45.8969" lon="3.8003">
        <ele>658</ele>
        <time>2024-12-08T03:15:06.619Z</time>
      </trkpt>
      <trkpt lat="45.8969" lon="3.80032">
        <ele>658</ele>
        <time>2024-12-08T03:15:07.620Z</time>
      </trkpt>
      <trkpt lat="45.8969" lon="3.80035">
        <ele>658</ele>
        <time>2024-12-08T03:15:08.619Z</time>
      </trkpt>
      <trkpt lat="45.8969" lon="3.80037">
        <ele>659</ele>
        <time>2024-12-08T03:15:09.619Z</time>
      </trkpt>
      <trkpt lat="45.89691" lon="3.8004">
        <ele>659</ele>
        <time>2024-12-08T03:15:10.619Z</time>
      </trkpt>
      <trkpt lat="45.89691" lon="3.80042">
        <ele>660</ele>
        <time>2024-12-08T03:15:11.620Z</time>
      </trkpt>
      <trkpt lat="45.89691" lon="3.80044">
        <ele>660</ele>
        <time>2024-12-08T03:15:12.619Z</time>
      </trkpt>
      <trkpt lat="45.89691" lon="3.80047">
        <ele>660</ele>
        <time>2024-12-08T03:15:13.619Z</time>
      </trkpt>
      <trkpt lat="45.89691" lon="3.80049">
        <ele>660</ele>
        <time>2024-12-08T03:15:14.620Z</time>
      </trkpt>
      <trkpt lat="45.89691" lon="3.80052">
        <ele>660</ele>
        <time>2024-12-08T03:15:15.620Z</time>
      </trkpt>
      <trkpt lat="45.89691" lon="3.80054">
        <ele>660</ele>
        <time>2024-12-08T03:15:16.620Z</time>
      </trkpt>
      <trkpt lat="45.89692" lon="3.80056">
        <ele>659</ele>
        <time>2024-12-08T03:15:17.619Z</time>
      </trkpt>
      <trkpt lat="45.89692" lon="3.80059">
        <ele>659</ele>
        <time>2024-12-08T03:15:18.619Z</time>
      </trkpt>
      <trkpt lat="45.89692" lon="3.80061">
        <ele>659</ele>
        <time>2024-12-08T03:15:19.620Z</time>
      </trkpt>
      <trkpt lat="45.89692" lon="3.80064">
        <ele>659</ele>
        <time>2024-12-08T03:15:20.619Z</time>
      </trkpt>
      <trkpt lat="45.89692" lon="3.80066">
        <ele>658</ele>
        <time>2024-12-08T03:15:21.620Z</time>
      </trkpt>
      <trkpt lat="45.89693" lon="3.80069">
        <ele>658</ele>
        <time>2024-12-08T03:15:22.619Z</time>
      </trkpt>
      <trkpt lat="45.89693" lon="3.80071">
        <ele>659</ele>
        <time>2024-12-08T03:15:23.620Z</time>
      </trkpt>
      <trkpt lat="45.89693" lon="3.80074">
        <ele>659</ele>
        <time>2024-12-08T03:15:24.619Z</time>
      </trkpt>
      <trkpt lat="45.89693" lon="3.80076">
        <ele>659</ele>
        <time>2024-12-08T03:15:25.619Z</time>
      </trkpt>
      <trkpt lat="45.89693" lon="3.80078">
        <ele>659</ele>
        <time>2024-12-08T03:15:26.620Z</time>
      </trkpt>
      <trkpt lat="45.89693" lon="3.80081">
        <ele>659</ele>
        <time>2024-12-08T03:15:27.619Z</time>
      </trkpt>
      <trkpt lat="45.89694" lon="3.80083">
        <ele>660</ele>
        <time>2024-12-08T03:15:28.619Z</time>
      </trkpt>
      <trkpt lat="45.89694" lon="3.80085">
        <ele>660</ele>
        <time>2024-12-08T03:15:29.620Z</time>
      </trkpt>
      <trkpt lat="45.89694" lon="3.80087">
        <ele>660</ele>
        <time>2024-12-08T03:15:30.620Z</time>
      </trkpt>
      <trkpt lat="45.89694" lon="3.8009">
        <ele>660</ele>
        <time>2024-12-08T03:15:31.619Z</time>
      </trkpt>
      <trkpt lat="45.89695" lon="3.80092">
        <ele>659</ele>
        <time>2024-12-08T03:15:32.619Z</time>
      </trkpt>
      <trkpt lat="45.89695" lon="3.80094">
        <ele>659</ele>
        <time>2024-12-08T03:15:33.620Z</time>
      </trkpt>
      <trkpt lat="45.89695" lon="3.80097">
        <ele>659</ele>
        <time>2024-12-08T03:15:34.620Z</time>
      </trkpt>
      <trkpt lat="45.89696" lon="3.80099">
        <ele>659</ele>
        <time>2024-12-08T03:15:35.619Z</time>
      </trkpt>
      <trkpt lat="45.89696" lon="3.80101">
        <ele>659</ele>
        <time>2024-12-08T03:15:36.620Z</time>
      </trkpt>
      <trkpt lat="45.89696" lon="3.80104">
        <ele>659</ele>
        <time>2024-12-08T03:15:37.619Z</time>
      </trkpt>
      <trkpt lat="45.89696" lon="3.80107">
        <ele>659</ele>
        <time>2024-12-08T03:15:38.620Z</time>
      </trkpt>
      <trkpt lat="45.89697" lon="3.80109">
        <ele>658</ele>
        <time>2024-12-08T03:15:39.620Z</time>
      </trkpt>
      <trkpt lat="45.89697" lon="3.80112">
        <ele>658</ele>
        <time>2024-12-08T03:15:40.620Z</time>
      </trkpt>
      <trkpt lat="45.89697" lon="3.80114">
        <ele>658</ele>
        <time>2024-12-08T03:15:41.620Z</time>
      </trkpt>
      <trkpt lat="45.89697" lon="3.80117">
        <ele>658</ele>
        <time>2024-12-08T03:15:42.620Z</time>
      </trkpt>
      <trkpt lat="45.89698" lon="3.8012">
        <ele>658</ele>
        <time>2024-12-08T03:15:43.619Z</time>
      </trkpt>
      <trkpt lat="45.89698" lon="3.80122">
        <ele>658</ele>
        <time>2024-12-08T03:15:44.620Z</time>
      </trkpt>
      <trkpt lat="45.89698" lon="3.80125">
        <ele>658</ele>
        <time>2024-12-08T03:15:45.620Z</time>
      </trkpt>
      <trkpt lat="45.89698" lon="3.80127">
        <ele>658</ele>
        <time>2024-12-08T03:15:46.620Z</time>
      </trkpt>
      <trkpt lat="45.89698" lon="3.8013">
        <ele>658</ele>
        <time>2024-12-08T03:15:47.619Z</time>
      </trkpt>
      <trkpt lat="45.89699" lon="3.80133">
        <ele>658</ele>
        <time>2024-12-08T03:15:48.619Z</time>
      </trkpt>
      <trkpt lat="45.89699" lon="3.80135">
        <ele>658</ele>
        <time>2024-12-08T03:15:49.619Z</time>
      </trkpt>
      <trkpt lat="45.89699" lon="3.80138">
        <ele>658</ele>
        <time>2024-12-08T03:15:50.619Z</time>
      </trkpt>
      <trkpt lat="45.897" lon="3.8014">
        <ele>658</ele>
        <time>2024-12-08T03:15:51.619Z</time>
      </trkpt>
      <trkpt lat="45.897" lon="3.80143">
        <ele>658</ele>
        <time>2024-12-08T03:15:52.620Z</time>
      </trkpt>
      <trkpt lat="45.897" lon="3.80145">
        <ele>658</ele>
        <time>2024-12-08T03:15:53.619Z</time>
      </trkpt>
      <trkpt lat="45.89701" lon="3.80148">
        <ele>658</ele>
        <time>2024-12-08T03:15:54.619Z</time>
      </trkpt>
      <trkpt lat="45.89701" lon="3.8015">
        <ele>658</ele>
        <time>2024-12-08T03:15:55.619Z</time>
      </trkpt>
      <trkpt lat="45.89701" lon="3.80153">
        <ele>658</ele>
        <time>2024-12-08T03:15:56.620Z</time>
      </trkpt>
      <trkpt lat="45.89702" lon="3.80156">
        <ele>659</ele>
        <time>2024-12-08T03:15:57.619Z</time>
      </trkpt>
      <trkpt lat="45.89703" lon="3.80158">
        <ele>659</ele>
        <time>2024-12-08T03:15:58.619Z</time>
      </trkpt>
      <trkpt lat="45.89703" lon="3.80161">
        <ele>659</ele>
        <time>2024-12-08T03:15:59.620Z</time>
      </trkpt>
      <trkpt lat="45.89703" lon="3.80164">
        <ele>659</ele>
        <time>2024-12-08T03:16:00.620Z</time>
      </trkpt>
      <trkpt lat="45.89703" lon="3.80166">
        <ele>659</ele>
        <time>2024-12-08T03:16:01.620Z</time>
      </trkpt>
      <trkpt lat="45.89704" lon="3.80169">
        <ele>659</ele>
        <time>2024-12-08T03:16:02.620Z</time>
      </trkpt>
      <trkpt lat="45.89704" lon="3.80171">
        <ele>659</ele>
        <time>2024-12-08T03:16:03.620Z</time>
      </trkpt>
      <trkpt lat="45.89704" lon="3.80174">
        <ele>659</ele>
        <time>2024-12-08T03:16:04.619Z</time>
      </trkpt>
      <trkpt lat="45.89705" lon="3.80176">
        <ele>659</ele>
        <time>2024-12-08T03:16:05.620Z</time>
      </trkpt>
      <trkpt lat="45.89705" lon="3.80179">
        <ele>659</ele>
        <time>2024-12-08T03:16:06.619Z</time>
      </trkpt>
      <trkpt lat="45.89705" lon="3.80182">
        <ele>659</ele>
        <time>2024-12-08T03:16:07.620Z</time>
      </trkpt>
      <trkpt lat="45.89705" lon="3.80184">
        <ele>658</ele>
        <time>2024-12-08T03:16:08.620Z</time>
      </trkpt>
      <trkpt lat="45.89705" lon="3.80187">
        <ele>658</ele>
        <time>2024-12-08T03:16:09.619Z</time>
      </trkpt>
      <trkpt lat="45.89706" lon="3.80189">
        <ele>658</ele>
        <time>2024-12-08T03:16:10.619Z</time>
      </trkpt>
      <trkpt lat="45.89706" lon="3.80191">
        <ele>657</ele>
        <time>2024-12-08T03:16:11.620Z</time>
      </trkpt>
      <trkpt lat="45.89707" lon="3.80194">
        <ele>657</ele>
        <time>2024-12-08T03:16:12.619Z</time>
      </trkpt>
      <trkpt lat="45.89707" lon="3.80196">
        <ele>657</ele>
        <time>2024-12-08T03:16:13.620Z</time>
      </trkpt>
      <trkpt lat="45.89707" lon="3.80199">
        <ele>657</ele>
        <time>2024-12-08T03:16:14.619Z</time>
      </trkpt>
      <trkpt lat="45.89708" lon="3.80201">
        <ele>657</ele>
        <time>2024-12-08T03:16:15.620Z</time>
      </trkpt>
      <trkpt lat="45.89708" lon="3.80204">
        <ele>656</ele>
        <time>2024-12-08T03:16:16.619Z</time>
      </trkpt>
      <trkpt lat="45.89708" lon="3.80207">
        <ele>656</ele>
        <time>2024-12-08T03:16:17.620Z</time>
      </trkpt>
      <trkpt lat="45.89708" lon="3.80209">
        <ele>656</ele>
        <time>2024-12-08T03:16:18.619Z</time>
      </trkpt>
      <trkpt lat="45.89709" lon="3.80212">
        <ele>656</ele>
        <time>2024-12-08T03:16:19.619Z</time>
      </trkpt>
      <trkpt lat="45.89709" lon="3.80215">
        <ele>656</ele>
        <time>2024-12-08T03:16:20.619Z</time>
      </trkpt>
      <trkpt lat="45.89709" lon="3.80217">
        <ele>656</ele>
        <time>2024-12-08T03:16:21.620Z</time>
      </trkpt>
      <trkpt lat="45.89709" lon="3.8022">
        <ele>656</ele>
        <time>2024-12-08T03:16:22.620Z</time>
      </trkpt>
      <trkpt lat="45.8971" lon="3.80222">
        <ele>655</ele>
        <time>2024-12-08T03:16:23.620Z</time>
      </trkpt>
      <trkpt lat="45.8971" lon="3.80224">
        <ele>655</ele>
        <time>2024-12-08T03:16:24.620Z</time>
      </trkpt>
      <trkpt lat="45.8971" lon="3.80227">
        <ele>655</ele>
        <time>2024-12-08T03:16:25.620Z</time>
      </trkpt>
      <trkpt lat="45.89711" lon="3.8023">
        <ele>654</ele>
        <time>2024-12-08T03:16:26.620Z</time>
      </trkpt>
      <trkpt lat="45.89711" lon="3.80232">
        <ele>654</ele>
        <time>2024-12-08T03:16:27.619Z</time>
      </trkpt>
      <trkpt lat="45.89711" lon="3.80235">
        <ele>654</ele>
        <time>2024-12-08T03:16:28.620Z</time>
      </trkpt>
      <trkpt lat="45.89711" lon="3.80237">
        <ele>654</ele>
        <time>2024-12-08T03:16:29.619Z</time>
      </trkpt>
      <trkpt lat="45.89712" lon="3.8024">
        <ele>654</ele>
        <time>2024-12-08T03:16:30.620Z</time>
      </trkpt>
      <trkpt lat="45.89712" lon="3.80242">
        <ele>654</ele>
        <time>2024-12-08T03:16:31.619Z</time>
      </trkpt>
      <trkpt lat="45.89713" lon="3.80244">
        <ele>654</ele>
        <time>2024-12-08T03:16:32.620Z</time>
      </trkpt>
      <trkpt lat="45.89713" lon="3.80247">
        <ele>654</ele>
        <time>2024-12-08T03:16:33.619Z</time>
      </trkpt>
      <trkpt lat="45.89713" lon="3.8025">
        <ele>654</ele>
        <time>2024-12-08T03:16:34.619Z</time>
      </trkpt>
      <trkpt lat="45.89713" lon="3.80252">
        <ele>653</ele>
        <time>2024-12-08T03:16:35.619Z</time>
      </trkpt>
      <trkpt lat="45.89714" lon="3.80255">
        <ele>653</ele>
        <time>2024-12-08T03:16:36.620Z</time>
      </trkpt>
      <trkpt lat="45.89714" lon="3.80258">
        <ele>653</ele>
        <time>2024-12-08T03:16:37.620Z</time>
      </trkpt>
      <trkpt lat="45.89714" lon="3.8026">
        <ele>653</ele>
        <time>2024-12-08T03:16:38.620Z</time>
      </trkpt>
      <trkpt lat="45.89714" lon="3.80263">
        <ele>653</ele>
        <time>2024-12-08T03:16:39.620Z</time>
      </trkpt>
      <trkpt lat="45.89715" lon="3.80265">
        <ele>653</ele>
        <time>2024-12-08T03:16:40.619Z</time>
      </trkpt>
      <trkpt lat="45.89715" lon="3.80268">
        <ele>653</ele>
        <time>2024-12-08T03:16:41.620Z</time>
      </trkpt>
      <trkpt lat="45.89716" lon="3.8027">
        <ele>653</ele>
        <time>2024-12-08T03:16:42.619Z</time>
      </trkpt>
      <trkpt lat="45.89716" lon="3.80273">
        <ele>653</ele>
        <time>2024-12-08T03:16:43.620Z</time>
      </trkpt>
      <trkpt lat="45.89716" lon="3.80276">
        <ele>653</ele>
        <time>2024-12-08T03:16:44.619Z</time>
      </trkpt>
      <trkpt lat="45.89717" lon="3.80279">
        <ele>652</ele>
        <time>2024-12-08T03:16:45.620Z</time>
      </trkpt>
      <trkpt lat="45.89717" lon="3.80281">
        <ele>652</ele>
        <time>2024-12-08T03:16:46.619Z</time>
      </trkpt>
      <trkpt lat="45.89717" lon="3.80283">
        <ele>652</ele>
        <time>2024-12-08T03:16:47.619Z</time>
      </trkpt>
      <trkpt lat="45.89717" lon="3.80286">
        <ele>652</ele>
        <time>2024-12-08T03:16:48.620Z</time>
      </trkpt>
      <trkpt lat="45.89718" lon="3.80288">
        <ele>652</ele>
        <time>2024-12-08T03:16:49.619Z</time>
      </trkpt>
      <trkpt lat="45.89718" lon="3.8029">
        <ele>652</ele>
        <time>2024-12-08T03:16:50.619Z</time>
      </trkpt>
      <trkpt lat="45.89719" lon="3.80292">
        <ele>652</ele>
        <time>2024-12-08T03:16:51.620Z</time>
      </trkpt>
      <trkpt lat="45.89719" lon="3.80295">
        <ele>652</ele>
        <time>2024-12-08T03:16:52.619Z</time>
      </trkpt>
      <trkpt lat="45.89719" lon="3.80297">
        <ele>652</ele>
        <time>2024-12-08T03:16:53.620Z</time>
      </trkpt>
      <trkpt lat="45.8972" lon="3.80299">
        <ele>651</ele>
        <time>2024-12-08T03:16:54.620Z</time>
      </trkpt>
      <trkpt lat="45.8972" lon="3.80302">
        <ele>651</ele>
        <time>2024-12-08T03:16:55.620Z</time>
      </trkpt>
      <trkpt lat="45.8972" lon="3.80305">
        <ele>651</ele>
        <time>2024-12-08T03:16:56.620Z</time>
      </trkpt>
      <trkpt lat="45.89721" lon="3.80308">
        <ele>651</ele>
        <time>2024-12-08T03:16:57.619Z</time>
      </trkpt>
      <trkpt lat="45.89721" lon="3.8031">
        <ele>650</ele>
        <time>2024-12-08T03:16:58.619Z</time>
      </trkpt>
      <trkpt lat="45.89722" lon="3.80313">
        <ele>650</ele>
        <time>2024-12-08T03:16:59.620Z</time>
      </trkpt>
      <trkpt lat="45.89722" lon="3.80315">
        <ele>650</ele>
        <time>2024-12-08T03:17:00.619Z</time>
      </trkpt>
      <trkpt lat="45.89723" lon="3.80318">
        <ele>650</ele>
        <time>2024-12-08T03:17:01.619Z</time>
      </trkpt>
      <trkpt lat="45.89723" lon="3.8032">
        <ele>650</ele>
        <time>2024-12-08T03:17:02.620Z</time>
      </trkpt>
      <trkpt lat="45.89723" lon="3.80323">
        <ele>650</ele>
        <time>2024-12-08T03:17:03.620Z</time>
      </trkpt>
      <trkpt lat="45.89724" lon="3.80326">
        <ele>650</ele>
        <time>2024-12-08T03:17:04.619Z</time>
      </trkpt>
      <trkpt lat="45.89724" lon="3.80328">
        <ele>650</ele>
        <time>2024-12-08T03:17:05.619Z</time>
      </trkpt>
      <trkpt lat="45.89724" lon="3.80331">
        <ele>649</ele>
        <time>2024-12-08T03:17:06.619Z</time>
      </trkpt>
      <trkpt lat="45.89724" lon="3.80334">
        <ele>649</ele>
        <time>2024-12-08T03:17:07.619Z</time>
      </trkpt>
      <trkpt lat="45.89724" lon="3.80336">
        <ele>649</ele>
        <time>2024-12-08T03:17:08.620Z</time>
      </trkpt>
      <trkpt lat="45.89724" lon="3.80339">
        <ele>649</ele>
        <time>2024-12-08T03:17:09.619Z</time>
      </trkpt>
      <trkpt lat="45.89725" lon="3.80341">
        <ele>648</ele>
        <time>2024-12-08T03:17:10.620Z</time>
      </trkpt>
      <trkpt lat="45.89725" lon="3.80344">
        <ele>648</ele>
        <time>2024-12-08T03:17:11.619Z</time>
      </trkpt>
      <trkpt lat="45.89725" lon="3.80347">
        <ele>648</ele>
        <time>2024-12-08T03:17:12.620Z</time>
      </trkpt>
      <trkpt lat="45.89726" lon="3.80349">
        <ele>648</ele>
        <time>2024-12-08T03:17:13.619Z</time>
      </trkpt>
      <trkpt lat="45.89726" lon="3.80352">
        <ele>648</ele>
        <time>2024-12-08T03:17:14.619Z</time>
      </trkpt>
      <trkpt lat="45.89726" lon="3.80355">
        <ele>648</ele>
        <time>2024-12-08T03:17:15.620Z</time>
      </trkpt>
      <trkpt lat="45.89726" lon="3.80358">
        <ele>648</ele>
        <time>2024-12-08T03:17:16.620Z</time>
      </trkpt>
      <trkpt lat="45.89727" lon="3.8036">
        <ele>648</ele>
        <time>2024-12-08T03:17:17.620Z</time>
      </trkpt>
      <trkpt lat="45.89727" lon="3.80363">
        <ele>648</ele>
        <time>2024-12-08T03:17:18.620Z</time>
      </trkpt>
      <trkpt lat="45.89727" lon="3.80365">
        <ele>648</ele>
        <time>2024-12-08T03:17:19.619Z</time>
      </trkpt>
      <trkpt lat="45.89727" lon="3.80367">
        <ele>648</ele>
        <time>2024-12-08T03:17:20.620Z</time>
      </trkpt>
      <trkpt lat="45.89728" lon="3.8037">
        <ele>648</ele>
        <time>2024-12-08T03:17:21.619Z</time>
      </trkpt>
      <trkpt lat="45.89728" lon="3.80372">
        <ele>648</ele>
        <time>2024-12-08T03:17:22.619Z</time>
      </trkpt>
      <trkpt lat="45.89728" lon="3.80375">
        <ele>647</ele>
        <time>2024-12-08T03:17:23.619Z</time>
      </trkpt>
      <trkpt lat="45.89729" lon="3.80378">
        <ele>647</ele>
        <time>2024-12-08T03:17:24.619Z</time>
      </trkpt>
      <trkpt lat="45.89729" lon="3.80381">
        <ele>647</ele>
        <time>2024-12-08T03:17:25.620Z</time>
      </trkpt>
      <trkpt lat="45.89729" lon="3.80383">
        <ele>647</ele>
        <time>2024-12-08T03:17:26.619Z</time>
      </trkpt>
      <trkpt lat="45.89729" lon="3.80386">
        <ele>646</ele>
        <time>2024-12-08T03:17:27.620Z</time>
      </trkpt>
      <trkpt lat="45.8973" lon="3.80388">
        <ele>646</ele>
        <time>2024-12-08T03:17:28.620Z</time>
      </trkpt>
      <trkpt lat="45.8973" lon="3.80391">
        <ele>646</ele>
        <time>2024-12-08T03:17:29.620Z</time>
      </trkpt>
      <trkpt lat="45.8973" lon="3.80393">
        <ele>646</ele>
        <time>2024-12-08T03:17:30.619Z</time>
      </trkpt>
      <trkpt lat="45.8973" lon="3.80396">
        <ele>646</ele>
        <time>2024-12-08T03:17:31.620Z</time>
      </trkpt>
      <trkpt lat="45.89731" lon="3.80398">
        <ele>646</ele>
        <time>2024-12-08T03:17:32.619Z</time>
      </trkpt>
      <trkpt lat="45.89731" lon="3.80401">
        <ele>646</ele>
        <time>2024-12-08T03:17:33.620Z</time>
      </trkpt>
      <trkpt lat="45.89732" lon="3.80403">
        <ele>646</ele>
        <time>2024-12-08T03:17:34.619Z</time>
      </trkpt>
      <trkpt lat="45.89732" lon="3.80406">
        <ele>647</ele>
        <time>2024-12-08T03:17:35.619Z</time>
      </trkpt>
      <trkpt lat="45.89732" lon="3.80409">
        <ele>647</ele>
        <time>2024-12-08T03:17:36.620Z</time>
      </trkpt>
      <trkpt lat="45.89732" lon="3.80411">
        <ele>647</ele>
        <time>2024-12-08T03:17:37.620Z</time>
      </trkpt>
      <trkpt lat="45.89732" lon="3.80414">
        <ele>646</ele>
        <time>2024-12-08T03:17:38.620Z</time>
      </trkpt>
      <trkpt lat="45.89732" lon="3.80416">
        <ele>646</ele>
        <time>2024-12-08T03:17:39.620Z</time>
      </trkpt>
      <trkpt lat="45.89733" lon="3.80419">
        <ele>646</ele>
        <time>2024-12-08T03:17:40.620Z</time>
      </trkpt>
      <trkpt lat="45.89733" lon="3.80422">
        <ele>646</ele>
        <time>2024-12-08T03:17:41.620Z</time>
      </trkpt>
      <trkpt lat="45.89734" lon="3.80425">
        <ele>646</ele>
        <time>2024-12-08T03:17:42.619Z</time>
      </trkpt>
      <trkpt lat="45.89734" lon="3.80428">
        <ele>645</ele>
        <time>2024-12-08T03:17:43.619Z</time>
      </trkpt>
      <trkpt lat="45.89735" lon="3.80431">
        <ele>645</ele>
        <time>2024-12-08T03:17:44.619Z</time>
      </trkpt>
      <trkpt lat="45.89735" lon="3.80433">
        <ele>645</ele>
        <time>2024-12-08T03:17:45.619Z</time>
      </trkpt>
      <trkpt lat="45.89735" lon="3.80436">
        <ele>644</ele>
        <time>2024-12-08T03:17:46.619Z</time>
      </trkpt>
      <trkpt lat="45.89736" lon="3.80438">
        <ele>644</ele>
        <time>2024-12-08T03:17:47.620Z</time>
      </trkpt>
      <trkpt lat="45.89736" lon="3.80441">
        <ele>644</ele>
        <time>2024-12-08T03:17:48.619Z</time>
      </trkpt>
      <trkpt lat="45.89736" lon="3.80444">
        <ele>644</ele>
        <time>2024-12-08T03:17:49.619Z</time>
      </trkpt>
      <trkpt lat="45.89737" lon="3.80446">
        <ele>644</ele>
        <time>2024-12-08T03:17:50.619Z</time>
      </trkpt>
      <trkpt lat="45.89737" lon="3.80449">
        <ele>644</ele>
        <time>2024-12-08T03:17:51.619Z</time>
      </trkpt>
      <trkpt lat="45.89737" lon="3.80452">
        <ele>644</ele>
        <time>2024-12-08T03:17:52.620Z</time>
      </trkpt>
      <trkpt lat="45.89738" lon="3.80454">
        <ele>643</ele>
        <time>2024-12-08T03:17:53.620Z</time>
      </trkpt>
      <trkpt lat="45.89738" lon="3.80457">
        <ele>643</ele>
        <time>2024-12-08T03:17:54.620Z</time>
      </trkpt>
      <trkpt lat="45.89738" lon="3.80459">
        <ele>643</ele>
        <time>2024-12-08T03:17:55.620Z</time>
      </trkpt>
      <trkpt lat="45.89739" lon="3.80462">
        <ele>643</ele>
        <time>2024-12-08T03:17:56.620Z</time>
      </trkpt>
      <trkpt lat="45.89739" lon="3.80465">
        <ele>643</ele>
        <time>2024-12-08T03:17:57.619Z</time>
      </trkpt>
      <trkpt lat="45.89739" lon="3.80467">
        <ele>643</ele>
        <time>2024-12-08T03:17:58.619Z</time>
      </trkpt>
      <trkpt lat="45.89739" lon="3.8047">
        <ele>643</ele>
        <time>2024-12-08T03:17:59.619Z</time>
      </trkpt>
      <trkpt lat="45.8974" lon="3.80472">
        <ele>643</ele>
        <time>2024-12-08T03:18:00.620Z</time>
      </trkpt>
      <trkpt lat="45.8974" lon="3.80474">
        <ele>643</ele>
        <time>2024-12-08T03:18:01.619Z</time>
      </trkpt>
      <trkpt lat="45.8974" lon="3.80477">
        <ele>643</ele>
        <time>2024-12-08T03:18:02.619Z</time>
      </trkpt>
      <trkpt lat="45.89741" lon="3.80479">
        <ele>643</ele>
        <time>2024-12-08T03:18:03.619Z</time>
      </trkpt>
      <trkpt lat="45.89741" lon="3.80482">
        <ele>643</ele>
        <time>2024-12-08T03:18:04.619Z</time>
      </trkpt>
      <trkpt lat="45.89741" lon="3.80485">
        <ele>643</ele>
        <time>2024-12-08T03:18:05.620Z</time>
      </trkpt>
      <trkpt lat="45.89741" lon="3.80487">
        <ele>643</ele>
        <time>2024-12-08T03:18:06.620Z</time>
      </trkpt>
      <trkpt lat="45.89741" lon="3.8049">
        <ele>643</ele>
        <time>2024-12-08T03:18:07.619Z</time>
      </trkpt>
      <trkpt lat="45.89742" lon="3.80492">
        <ele>642</ele>
        <time>2024-12-08T03:18:08.619Z</time>
      </trkpt>
      <trkpt lat="45.89742" lon="3.80495">
        <ele>642</ele>
        <time>2024-12-08T03:18:09.620Z</time>
      </trkpt>
      <trkpt lat="45.89742" lon="3.80497">
        <ele>642</ele>
        <time>2024-12-08T03:18:10.619Z</time>
      </trkpt>
      <trkpt lat="45.89743" lon="3.805">
        <ele>642</ele>
        <time>2024-12-08T03:18:11.620Z</time>
      </trkpt>
      <trkpt lat="45.89743" lon="3.80503">
        <ele>641</ele>
        <time>2024-12-08T03:18:12.619Z</time>
      </trkpt>
      <trkpt lat="45.89743" lon="3.80505">
        <ele>641</ele>
        <time>2024-12-08T03:18:13.619Z</time>
      </trkpt>
      <trkpt lat="45.89743" lon="3.80508">
        <ele>641</ele>
        <time>2024-12-08T03:18:14.620Z</time>
      </trkpt>
      <trkpt lat="45.89743" lon="3.80511">
        <ele>641</ele>
        <time>2024-12-08T03:18:15.619Z</time>
      </trkpt>
      <trkpt lat="45.89744" lon="3.80513">
        <ele>641</ele>
        <time>2024-12-08T03:18:16.620Z</time>
      </trkpt>
      <trkpt lat="45.89744" lon="3.80516">
        <ele>641</ele>
        <time>2024-12-08T03:18:17.619Z</time>
      </trkpt>
      <trkpt lat="45.89744" lon="3.80518">
        <ele>641</ele>
        <time>2024-12-08T03:18:18.619Z</time>
      </trkpt>
      <trkpt lat="45.89745" lon="3.80521">
        <ele>641</ele>
        <time>2024-12-08T03:18:19.619Z</time>
      </trkpt>
      <trkpt lat="45.89745" lon="3.80523">
        <ele>641</ele>
        <time>2024-12-08T03:18:20.619Z</time>
      </trkpt>
      <trkpt lat="45.89746" lon="3.80526">
        <ele>641</ele>
        <time>2024-12-08T03:18:21.620Z</time>
      </trkpt>
      <trkpt lat="45.89747" lon="3.80529">
        <ele>640</ele>
        <time>2024-12-08T03:18:22.620Z</time>
      </trkpt>
      <trkpt lat="45.89747" lon="3.80531">
        <ele>640</ele>
        <time>2024-12-08T03:18:23.620Z</time>
      </trkpt>
      <trkpt lat="45.89747" lon="3.80534">
        <ele>640</ele>
        <time>2024-12-08T03:18:24.620Z</time>
      </trkpt>
      <trkpt lat="45.89748" lon="3.80536">
        <ele>640</ele>
        <time>2024-12-08T03:18:25.620Z</time>
      </trkpt>
      <trkpt lat="45.89748" lon="3.80539">
        <ele>639</ele>
        <time>2024-12-08T03:18:26.619Z</time>
      </trkpt>
      <trkpt lat="45.89748" lon="3.80541">
        <ele>639</ele>
        <time>2024-12-08T03:18:27.620Z</time>
      </trkpt>
      <trkpt lat="45.89748" lon="3.80544">
        <ele>639</ele>
        <time>2024-12-08T03:18:28.620Z</time>
      </trkpt>
      <trkpt lat="45.89749" lon="3.80546">
        <ele>639</ele>
        <time>2024-12-08T03:18:29.619Z</time>
      </trkpt>
      <trkpt lat="45.89749" lon="3.80549">
        <ele>639</ele>
        <time>2024-12-08T03:18:30.620Z</time>
      </trkpt>
      <trkpt lat="45.89749" lon="3.80551">
        <ele>639</ele>
        <time>2024-12-08T03:18:31.619Z</time>
      </trkpt>
      <trkpt lat="45.89749" lon="3.80554">
        <ele>639</ele>
        <time>2024-12-08T03:18:32.620Z</time>
      </trkpt>
      <trkpt lat="45.8975" lon="3.80557">
        <ele>639</ele>
        <time>2024-12-08T03:18:33.620Z</time>
      </trkpt>
      <trkpt lat="45.8975" lon="3.80559">
        <ele>639</ele>
        <time>2024-12-08T03:18:34.619Z</time>
      </trkpt>
      <trkpt lat="45.8975" lon="3.80561">
        <ele>639</ele>
        <time>2024-12-08T03:18:35.619Z</time>
      </trkpt>
      <trkpt lat="45.89751" lon="3.80564">
        <ele>639</ele>
        <time>2024-12-08T03:18:36.619Z</time>
      </trkpt>
      <trkpt lat="45.89751" lon="3.80566">
        <ele>639</ele>
        <time>2024-12-08T03:18:37.619Z</time>
      </trkpt>
      <trkpt lat="45.89751" lon="3.80569">
        <ele>640</ele>
        <time>2024-12-08T03:18:38.620Z</time>
      </trkpt>
      <trkpt lat="45.89751" lon="3.80572">
        <ele>640</ele>
        <time>2024-12-08T03:18:39.620Z</time>
      </trkpt>
      <trkpt lat="45.89751" lon="3.80574">
        <ele>640</ele>
        <time>2024-12-08T03:18:40.619Z</time>
      </trkpt>
      <trkpt lat="45.89751" lon="3.80577">
        <ele>640</ele>
        <time>2024-12-08T03:18:41.619Z</time>
      </trkpt>
      <trkpt lat="45.89752" lon="3.8058">
        <ele>640</ele>
        <time>2024-12-08T03:18:42.619Z</time>
      </trkpt>
      <trkpt lat="45.89752" lon="3.80582">
        <ele>640</ele>
        <time>2024-12-08T03:18:43.619Z</time>
      </trkpt>
      <trkpt lat="45.89753" lon="3.80584">
        <ele>640</ele>
        <time>2024-12-08T03:18:44.619Z</time>
      </trkpt>
      <trkpt lat="45.89753" lon="3.80587">
        <ele>639</ele>
        <time>2024-12-08T03:18:45.619Z</time>
      </trkpt>
      <trkpt lat="45.89754" lon="3.80589">
        <ele>639</ele>
        <time>2024-12-08T03:18:46.620Z</time>
      </trkpt>
      <trkpt lat="45.89754" lon="3.80591">
        <ele>639</ele>
        <time>2024-12-08T03:18:47.619Z</time>
      </trkpt>
      <trkpt lat="45.89755" lon="3.80594">
        <ele>638</ele>
        <time>2024-12-08T03:18:48.619Z</time>
      </trkpt>
      <trkpt lat="45.89755" lon="3.80596">
        <ele>638</ele>
        <time>2024-12-08T03:18:49.619Z</time>
      </trkpt>
      <trkpt lat="45.89756" lon="3.80598">
        <ele>637</ele>
        <time>2024-12-08T03:18:50.620Z</time>
      </trkpt>
      <trkpt lat="45.89756" lon="3.80601">
        <ele>637</ele>
        <time>2024-12-08T03:18:51.619Z</time>
      </trkpt>
      <trkpt lat="45.89757" lon="3.80603">
        <ele>637</ele>
        <time>2024-12-08T03:18:52.619Z</time>
      </trkpt>
      <trkpt lat="45.89757" lon="3.80606">
        <ele>636</ele>
        <time>2024-12-08T03:18:53.620Z</time>
      </trkpt>
      <trkpt lat="45.89758" lon="3.80609">
        <ele>637</ele>
        <time>2024-12-08T03:18:54.620Z</time>
      </trkpt>
      <trkpt lat="45.89758" lon="3.80611">
        <ele>637</ele>
        <time>2024-12-08T03:18:55.620Z</time>
      </trkpt>
      <trkpt lat="45.89758" lon="3.80613">
        <ele>637</ele>
        <time>2024-12-08T03:18:56.619Z</time>
      </trkpt>
      <trkpt lat="45.89759" lon="3.80616">
        <ele>637</ele>
        <time>2024-12-08T03:18:57.620Z</time>
      </trkpt>
      <trkpt lat="45.89759" lon="3.80618">
        <ele>638</ele>
        <time>2024-12-08T03:18:58.619Z</time>
      </trkpt>
      <trkpt lat="45.89759" lon="3.80621">
        <ele>638</ele>
        <time>2024-12-08T03:18:59.619Z</time>
      </trkpt>
      <trkpt lat="45.8976" lon="3.80623">
        <ele>638</ele>
        <time>2024-12-08T03:19:00.619Z</time>
      </trkpt>
      <trkpt lat="45.8976" lon="3.80625">
        <ele>638</ele>
        <time>2024-12-08T03:19:01.620Z</time>
      </trkpt>
      <trkpt lat="45.8976" lon="3.80627">
        <ele>638</ele>
        <time>2024-12-08T03:19:02.620Z</time>
      </trkpt>
      <trkpt lat="45.8976" lon="3.8063">
        <ele>637</ele>
        <time>2024-12-08T03:19:03.620Z</time>
      </trkpt>
      <trkpt lat="45.89761" lon="3.80632">
        <ele>637</ele>
        <time>2024-12-08T03:19:04.619Z</time>
      </trkpt>
      <trkpt lat="45.89761" lon="3.80635">
        <ele>637</ele>
        <time>2024-12-08T03:19:05.619Z</time>
      </trkpt>
      <trkpt lat="45.89761" lon="3.80638">
        <ele>637</ele>
        <time>2024-12-08T03:19:06.619Z</time>
      </trkpt>
      <trkpt lat="45.89761" lon="3.80642">
        <ele>637</ele>
        <time>2024-12-08T03:19:07.620Z</time>
      </trkpt>
      <trkpt lat="45.89761" lon="3.80645">
        <ele>637</ele>
        <time>2024-12-08T03:19:08.619Z</time>
      </trkpt>
      <trkpt lat="45.89761" lon="3.80648">
        <ele>638</ele>
        <time>2024-12-08T03:19:09.619Z</time>
      </trkpt>
      <trkpt lat="45.89762" lon="3.8065">
        <ele>638</ele>
        <time>2024-12-08T03:19:10.620Z</time>
      </trkpt>
      <trkpt lat="45.89762" lon="3.80653">
        <ele>638</ele>
        <time>2024-12-08T03:19:11.620Z</time>
      </trkpt>
      <trkpt lat="45.89763" lon="3.80655">
        <ele>638</ele>
        <time>2024-12-08T03:19:12.619Z</time>
      </trkpt>
      <trkpt lat="45.89763" lon="3.80658">
        <ele>638</ele>
        <time>2024-12-08T03:19:13.619Z</time>
      </trkpt>
      <trkpt lat="45.89763" lon="3.8066">
        <ele>638</ele>
        <time>2024-12-08T03:19:14.619Z</time>
      </trkpt>
      <trkpt lat="45.89763" lon="3.80663">
        <ele>638</ele>
        <time>2024-12-08T03:19:15.620Z</time>
      </trkpt>
      <trkpt lat="45.89764" lon="3.80666">
        <ele>638</ele>
        <time>2024-12-08T03:19:16.619Z</time>
      </trkpt>
      <trkpt lat="45.89764" lon="3.80669">
        <ele>638</ele>
        <time>2024-12-08T03:19:17.619Z</time>
      </trkpt>
      <trkpt lat="45.89764" lon="3.80671">
        <ele>638</ele>
        <time>2024-12-08T03:19:18.620Z</time>
      </trkpt>
      <trkpt lat="45.89765" lon="3.80674">
        <ele>638</ele>
        <time>2024-12-08T03:19:19.620Z</time>
      </trkpt>
      <trkpt lat="45.89765" lon="3.80676">
        <ele>638</ele>
        <time>2024-12-08T03:19:20.620Z</time>
      </trkpt>
      <trkpt lat="45.89765" lon="3.80679">
        <ele>638</ele>
        <time>2024-12-08T03:19:21.619Z</time>
      </trkpt>
      <trkpt lat="45.89766" lon="3.80681">
        <ele>637</ele>
        <time>2024-12-08T03:19:22.619Z</time>
      </trkpt>
      <trkpt lat="45.89766" lon="3.80684">
        <ele>637</ele>
        <time>2024-12-08T03:19:23.619Z</time>
      </trkpt>
      <trkpt lat="45.89766" lon="3.80687">
        <ele>637</ele>
        <time>2024-12-08T03:19:24.619Z</time>
      </trkpt>
      <trkpt lat="45.89767" lon="3.80689">
        <ele>637</ele>
        <time>2024-12-08T03:19:25.619Z</time>
      </trkpt>
      <trkpt lat="45.89767" lon="3.80691">
        <ele>637</ele>
        <time>2024-12-08T03:19:26.619Z</time>
      </trkpt>
      <trkpt lat="45.89767" lon="3.80694">
        <ele>637</ele>
        <time>2024-12-08T03:19:27.619Z</time>
      </trkpt>
      <trkpt lat="45.89767" lon="3.80696">
        <ele>636</ele>
        <time>2024-12-08T03:19:28.620Z</time>
      </trkpt>
      <trkpt lat="45.89767" lon="3.80698">
        <ele>636</ele>
        <time>2024-12-08T03:19:29.620Z</time>
      </trkpt>
      <trkpt lat="45.89768" lon="3.80701">
        <ele>636</ele>
        <time>2024-12-08T03:19:30.620Z</time>
      </trkpt>
      <trkpt lat="45.89768" lon="3.80703">
        <ele>636</ele>
        <time>2024-12-08T03:19:31.620Z</time>
      </trkpt>
      <trkpt lat="45.89768" lon="3.80706">
        <ele>636</ele>
        <time>2024-12-08T03:19:32.619Z</time>
      </trkpt>
      <trkpt lat="45.89769" lon="3.80709">
        <ele>636</ele>
        <time>2024-12-08T03:19:33.619Z</time>
      </trkpt>
      <trkpt lat="45.89769" lon="3.80711">
        <ele>636</ele>
        <time>2024-12-08T03:19:34.620Z</time>
      </trkpt>
      <trkpt lat="45.8977" lon="3.80714">
        <ele>636</ele>
        <time>2024-12-08T03:19:35.620Z</time>
      </trkpt>
      <trkpt lat="45.8977" lon="3.80717">
        <ele>637</ele>
        <time>2024-12-08T03:19:36.620Z</time>
      </trkpt>
      <trkpt lat="45.8977" lon="3.80719">
        <ele>637</ele>
        <time>2024-12-08T03:19:37.619Z</time>
      </trkpt>
      <trkpt lat="45.89771" lon="3.80721">
        <ele>637</ele>
        <time>2024-12-08T03:19:38.620Z</time>
      </trkpt>
      <trkpt lat="45.89771" lon="3.80724">
        <ele>637</ele>
        <time>2024-12-08T03:19:39.620Z</time>
      </trkpt>
      <trkpt lat="45.89771" lon="3.80727">
        <ele>637</ele>
        <time>2024-12-08T03:19:40.619Z</time>
      </trkpt>
      <trkpt lat="45.89771" lon="3.80729">
        <ele>636</ele>
        <time>2024-12-08T03:19:41.619Z</time>
      </trkpt>
      <trkpt lat="45.89772" lon="3.80732">
        <ele>636</ele>
        <time>2024-12-08T03:19:42.619Z</time>
      </trkpt>
      <trkpt lat="45.89772" lon="3.80735">
        <ele>636</ele>
        <time>2024-12-08T03:19:43.619Z</time>
      </trkpt>
      <trkpt lat="45.89772" lon="3.80738">
        <ele>636</ele>
        <time>2024-12-08T03:19:44.619Z</time>
      </trkpt>
      <trkpt lat="45.89773" lon="3.8074">
        <ele>636</ele>
        <time>2024-12-08T03:19:45.620Z</time>
      </trkpt>
      <trkpt lat="45.89773" lon="3.80743">
        <ele>636</ele>
        <time>2024-12-08T03:19:46.619Z</time>
      </trkpt>
      <trkpt lat="45.89774" lon="3.80745">
        <ele>635</ele>
        <time>2024-12-08T03:19:47.619Z</time>
      </trkpt>
      <trkpt lat="45.89774" lon="3.80747">
        <ele>635</ele>
        <time>2024-12-08T03:19:48.620Z</time>
      </trkpt>
      <trkpt lat="45.89774" lon="3.8075">
        <ele>635</ele>
        <time>2024-12-08T03:19:49.620Z</time>
      </trkpt>
      <trkpt lat="45.89775" lon="3.80753">
        <ele>635</ele>
        <time>2024-12-08T03:19:50.619Z</time>
      </trkpt>
      <trkpt lat="45.89775" lon="3.80755">
        <ele>635</ele>
        <time>2024-12-08T03:19:51.620Z</time>
      </trkpt>
      <trkpt lat="45.89775" lon="3.80758">
        <ele>635</ele>
        <time>2024-12-08T03:19:52.619Z</time>
      </trkpt>
      <trkpt lat="45.89776" lon="3.8076">
        <ele>635</ele>
        <time>2024-12-08T03:19:53.619Z</time>
      </trkpt>
      <trkpt lat="45.89776" lon="3.80763">
        <ele>634</ele>
        <time>2024-12-08T03:19:54.620Z</time>
      </trkpt>
      <trkpt lat="45.89777" lon="3.80766">
        <ele>634</ele>
        <time>2024-12-08T03:19:55.619Z</time>
      </trkpt>
      <trkpt lat="45.89777" lon="3.80768">
        <ele>634</ele>
        <time>2024-12-08T03:19:56.620Z</time>
      </trkpt>
      <trkpt lat="45.89777" lon="3.80771">
        <ele>634</ele>
        <time>2024-12-08T03:19:57.620Z</time>
      </trkpt>
      <trkpt lat="45.89777" lon="3.80773">
        <ele>634</ele>
        <time>2024-12-08T03:19:58.620Z</time>
      </trkpt>
      <trkpt lat="45.89778" lon="3.80775">
        <ele>634</ele>
        <time>2024-12-08T03:19:59.619Z</time>
      </trkpt>
      <trkpt lat="45.89778" lon="3.80778">
        <ele>634</ele>
        <time>2024-12-08T03:20:00.619Z</time>
      </trkpt>
      <trkpt lat="45.89778" lon="3.8078">
        <ele>635</ele>
        <time>2024-12-08T03:20:01.619Z</time>
      </trkpt>
      <trkpt lat="45.89779" lon="3.80782">
        <ele>635</ele>
        <time>2024-12-08T03:20:02.619Z</time>
      </trkpt>
      <trkpt lat="45.89779" lon="3.80785">
        <ele>635</ele>
        <time>2024-12-08T03:20:03.619Z</time>
      </trkpt>
      <trkpt lat="45.8978" lon="3.80787">
        <ele>635</ele>
        <time>2024-12-08T03:20:04.619Z</time>
      </trkpt>
      <trkpt lat="45.8978" lon="3.8079">
        <ele>636</ele>
        <time>2024-12-08T03:20:05.619Z</time>
      </trkpt>
      <trkpt lat="45.8978" lon="3.80792">
        <ele>636</ele>
        <time>2024-12-08T03:20:06.619Z</time>
      </trkpt>
      <trkpt lat="45.8978" lon="3.80794">
        <ele>636</ele>
        <time>2024-12-08T03:20:07.620Z</time>
      </trkpt>
      <trkpt lat="45.8978" lon="3.80796">
        <ele>636</ele>
        <time>2024-12-08T03:20:08.619Z</time>
      </trkpt>
      <trkpt lat="45.89781" lon="3.80799">
        <ele>636</ele>
        <time>2024-12-08T03:20:09.620Z</time>
      </trkpt>
      <trkpt lat="45.89781" lon="3.80802">
        <ele>636</ele>
        <time>2024-12-08T03:20:10.619Z</time>
      </trkpt>
      <trkpt lat="45.89781" lon="3.80804">
        <ele>636</ele>
        <time>2024-12-08T03:20:11.620Z</time>
      </trkpt>
      <trkpt lat="45.89781" lon="3.80807">
        <ele>636</ele>
        <time>2024-12-08T03:20:12.619Z</time>
      </trkpt>
      <trkpt lat="45.89781" lon="3.80809">
        <ele>636</ele>
        <time>2024-12-08T03:20:13.619Z</time>
      </trkpt>
      <trkpt lat="45.89781" lon="3.80811">
        <ele>636</ele>
        <time>2024-12-08T03:20:14.620Z</time>
      </trkpt>
      <trkpt lat="45.89782" lon="3.80814">
        <ele>636</ele>
        <time>2024-12-08T03:20:15.619Z</time>
      </trkpt>
      <trkpt lat="45.89782" lon="3.80816">
        <ele>636</ele>
        <time>2024-12-08T03:20:16.619Z</time>
      </trkpt>
      <trkpt lat="45.89783" lon="3.80819">
        <ele>636</ele>
        <time>2024-12-08T03:20:17.619Z</time>
      </trkpt>
      <trkpt lat="45.89783" lon="3.80821">
        <ele>637</ele>
        <time>2024-12-08T03:20:18.620Z</time>
      </trkpt>
      <trkpt lat="45.89784" lon="3.80823">
        <ele>637</ele>
        <time>2024-12-08T03:20:19.619Z</time>
      </trkpt>
      <trkpt lat="45.89784" lon="3.80826">
        <ele>637</ele>
        <time>2024-12-08T03:20:20.619Z</time>
      </trkpt>
      <trkpt lat="45.89784" lon="3.80828">
        <ele>637</ele>
        <time>2024-12-08T03:20:21.620Z</time>
      </trkpt>
      <trkpt lat="45.89784" lon="3.8083">
        <ele>636</ele>
        <time>2024-12-08T03:20:22.619Z</time>
      </trkpt>
      <trkpt lat="45.89784" lon="3.80832">
        <ele>636</ele>
        <time>2024-12-08T03:20:23.619Z</time>
      </trkpt>
      <trkpt lat="45.89784" lon="3.80834">
        <ele>635</ele>
        <time>2024-12-08T03:20:24.620Z</time>
      </trkpt>
      <trkpt lat="45.89785" lon="3.80836">
        <ele>634</ele>
        <time>2024-12-08T03:20:25.620Z</time>
      </trkpt>
      <trkpt lat="45.89785" lon="3.80838">
        <ele>634</ele>
        <time>2024-12-08T03:20:26.619Z</time>
      </trkpt>
      <trkpt lat="45.89785" lon="3.80841">
        <ele>634</ele>
        <time>2024-12-08T03:20:27.620Z</time>
      </trkpt>
      <trkpt lat="45.89786" lon="3.80843">
        <ele>634</ele>
        <time>2024-12-08T03:20:28.620Z</time>
      </trkpt>
      <trkpt lat="45.89786" lon="3.80846">
        <ele>634</ele>
        <time>2024-12-08T03:20:29.620Z</time>
      </trkpt>
      <trkpt lat="45.89786" lon="3.80848">
        <ele>634</ele>
        <time>2024-12-08T03:20:30.620Z</time>
      </trkpt>
      <trkpt lat="45.89787" lon="3.8085">
        <ele>634</ele>
        <time>2024-12-08T03:20:31.619Z</time>
      </trkpt>
      <trkpt lat="45.89787" lon="3.80852">
        <ele>635</ele>
        <time>2024-12-08T03:20:32.619Z</time>
      </trkpt>
      <trkpt lat="45.89788" lon="3.80854">
        <ele>635</ele>
        <time>2024-12-08T03:20:33.619Z</time>
      </trkpt>
      <trkpt lat="45.89788" lon="3.80856">
        <ele>635</ele>
        <time>2024-12-08T03:20:34.620Z</time>
      </trkpt>
      <trkpt lat="45.89788" lon="3.80859">
        <ele>636</ele>
        <time>2024-12-08T03:20:35.620Z</time>
      </trkpt>
      <trkpt lat="45.89788" lon="3.80861">
        <ele>636</ele>
        <time>2024-12-08T03:20:36.619Z</time>
      </trkpt>
      <trkpt lat="45.89788" lon="3.80864">
        <ele>636</ele>
        <time>2024-12-08T03:20:37.619Z</time>
      </trkpt>
      <trkpt lat="45.89788" lon="3.80867">
        <ele>637</ele>
        <time>2024-12-08T03:20:38.619Z</time>
      </trkpt>
      <trkpt lat="45.89789" lon="3.80869">
        <ele>637</ele>
        <time>2024-12-08T03:20:39.619Z</time>
      </trkpt>
      <trkpt lat="45.89789" lon="3.80872">
        <ele>637</ele>
        <time>2024-12-08T03:20:40.619Z</time>
      </trkpt>
      <trkpt lat="45.89789" lon="3.80874">
        <ele>638</ele>
        <time>2024-12-08T03:20:41.620Z</time>
      </trkpt>
      <trkpt lat="45.8979" lon="3.80877">
        <ele>639</ele>
        <time>2024-12-08T03:20:42.619Z</time>
      </trkpt>
      <trkpt lat="45.8979" lon="3.80879">
        <ele>639</ele>
        <time>2024-12-08T03:20:43.620Z</time>
      </trkpt>
      <trkpt lat="45.8979" lon="3.80882">
        <ele>640</ele>
        <time>2024-12-08T03:20:44.619Z</time>
      </trkpt>
      <trkpt lat="45.8979" lon="3.80884">
        <ele>640</ele>
        <time>2024-12-08T03:20:45.619Z</time>
      </trkpt>
      <trkpt lat="45.89791" lon="3.80886">
        <ele>640</ele>
        <time>2024-12-08T03:20:46.619Z</time>
      </trkpt>
      <trkpt lat="45.89791" lon="3.80889">
        <ele>641</ele>
        <time>2024-12-08T03:20:47.620Z</time>
      </trkpt>
      <trkpt lat="45.89791" lon="3.80891">
        <ele>641</ele>
        <time>2024-12-08T03:20:48.620Z</time>
      </trkpt>
      <trkpt lat="45.89792" lon="3.80893">
        <ele>641</ele>
        <time>2024-12-08T03:20:49.619Z</time>
      </trkpt>
      <trkpt lat="45.89793" lon="3.80895">
        <ele>641</ele>
        <time>2024-12-08T03:20:50.620Z</time>
      </trkpt>
      <trkpt lat="45.89793" lon="3.80898">
        <ele>640</ele>
        <time>2024-12-08T03:20:51.619Z</time>
      </trkpt>
      <trkpt lat="45.89793" lon="3.80899">
        <ele>640</ele>
        <time>2024-12-08T03:20:52.619Z</time>
      </trkpt>
      <trkpt lat="45.89793" lon="3.80902">
        <ele>640</ele>
        <time>2024-12-08T03:20:53.620Z</time>
      </trkpt>
      <trkpt lat="45.89794" lon="3.80904">
        <ele>640</ele>
        <time>2024-12-08T03:20:54.620Z</time>
      </trkpt>
      <trkpt lat="45.89794" lon="3.80907">
        <ele>640</ele>
        <time>2024-12-08T03:20:55.620Z</time>
      </trkpt>
      <trkpt lat="45.89794" lon="3.80909">
        <ele>640</ele>
        <time>2024-12-08T03:20:56.619Z</time>
      </trkpt>
      <trkpt lat="45.89794" lon="3.80911">
        <ele>640</ele>
        <time>2024-12-08T03:20:57.620Z</time>
      </trkpt>
      <trkpt lat="45.89794" lon="3.80913">
        <ele>640</ele>
        <time>2024-12-08T03:20:58.619Z</time>
      </trkpt>
      <trkpt lat="45.89794" lon="3.80915">
        <ele>641</ele>
        <time>2024-12-08T03:20:59.620Z</time>
      </trkpt>
      <trkpt lat="45.89794" lon="3.80918">
        <ele>641</ele>
        <time>2024-12-08T03:21:00.620Z</time>
      </trkpt>
      <trkpt lat="45.89794" lon="3.8092">
        <ele>641</ele>
        <time>2024-12-08T03:21:01.619Z</time>
      </trkpt>
      <trkpt lat="45.89794" lon="3.80922">
        <ele>641</ele>
        <time>2024-12-08T03:21:02.620Z</time>
      </trkpt>
      <trkpt lat="45.89794" lon="3.80924">
        <ele>641</ele>
        <time>2024-12-08T03:21:03.620Z</time>
      </trkpt>
      <trkpt lat="45.89794" lon="3.80925">
        <ele>641</ele>
        <time>2024-12-08T03:21:04.619Z</time>
      </trkpt>
      <trkpt lat="45.89794" lon="3.80927">
        <ele>641</ele>
        <time>2024-12-08T03:21:05.620Z</time>
      </trkpt>
      <trkpt lat="45.89794" lon="3.80929">
        <ele>640</ele>
        <time>2024-12-08T03:21:06.619Z</time>
      </trkpt>
      <trkpt lat="45.89794" lon="3.80932">
        <ele>640</ele>
        <time>2024-12-08T03:21:07.620Z</time>
      </trkpt>
      <trkpt lat="45.89794" lon="3.80934">
        <ele>639</ele>
        <time>2024-12-08T03:21:08.620Z</time>
      </trkpt>
      <trkpt lat="45.89795" lon="3.80936">
        <ele>639</ele>
        <time>2024-12-08T03:21:09.620Z</time>
      </trkpt>
      <trkpt lat="45.89795" lon="3.80937">
        <ele>639</ele>
        <time>2024-12-08T03:21:10.619Z</time>
      </trkpt>
      <trkpt lat="45.89795" lon="3.80939">
        <ele>639</ele>
        <time>2024-12-08T03:21:11.619Z</time>
      </trkpt>
      <trkpt lat="45.89795" lon="3.80941">
        <ele>639</ele>
        <time>2024-12-08T03:21:12.620Z</time>
      </trkpt>
      <trkpt lat="45.89794" lon="3.80943">
        <ele>639</ele>
        <time>2024-12-08T03:21:13.619Z</time>
      </trkpt>
      <trkpt lat="45.89794" lon="3.80945">
        <ele>640</ele>
        <time>2024-12-08T03:21:14.619Z</time>
      </trkpt>
      <trkpt lat="45.89794" lon="3.80947">
        <ele>641</ele>
        <time>2024-12-08T03:21:15.619Z</time>
      </trkpt>
      <trkpt lat="45.89793" lon="3.80949">
        <ele>641</ele>
        <time>2024-12-08T03:21:16.619Z</time>
      </trkpt>
      <trkpt lat="45.89793" lon="3.80951">
        <ele>642</ele>
        <time>2024-12-08T03:21:17.619Z</time>
      </trkpt>
      <trkpt lat="45.89792" lon="3.80953">
        <ele>642</ele>
        <time>2024-12-08T03:21:18.620Z</time>
      </trkpt>
      <trkpt lat="45.89792" lon="3.80955">
        <ele>643</ele>
        <time>2024-12-08T03:21:19.619Z</time>
      </trkpt>
      <trkpt lat="45.89792" lon="3.80957">
        <ele>643</ele>
        <time>2024-12-08T03:21:20.620Z</time>
      </trkpt>
      <trkpt lat="45.89791" lon="3.80959">
        <ele>644</ele>
        <time>2024-12-08T03:21:21.619Z</time>
      </trkpt>
      <trkpt lat="45.8979" lon="3.80961">
        <ele>645</ele>
        <time>2024-12-08T03:21:22.620Z</time>
      </trkpt>
      <trkpt lat="45.8979" lon="3.80963">
        <ele>645</ele>
        <time>2024-12-08T03:21:23.619Z</time>
      </trkpt>
      <trkpt lat="45.89789" lon="3.80965">
        <ele>645</ele>
        <time>2024-12-08T03:21:24.620Z</time>
      </trkpt>
      <trkpt lat="45.89789" lon="3.80966">
        <ele>646</ele>
        <time>2024-12-08T03:21:25.620Z</time>
      </trkpt>
      <trkpt lat="45.89788" lon="3.80968">
        <ele>646</ele>
        <time>2024-12-08T03:21:26.619Z</time>
      </trkpt>
      <trkpt lat="45.89787" lon="3.8097">
        <ele>646</ele>
        <time>2024-12-08T03:21:27.620Z</time>
      </trkpt>
      <trkpt lat="45.89786" lon="3.80972">
        <ele>646</ele>
        <time>2024-12-08T03:21:28.620Z</time>
      </trkpt>
      <trkpt lat="45.89785" lon="3.80974">
        <ele>646</ele>
        <time>2024-12-08T03:21:29.619Z</time>
      </trkpt>
      <trkpt lat="45.89785" lon="3.80975">
        <ele>646</ele>
        <time>2024-12-08T03:21:30.620Z</time>
      </trkpt>
      <trkpt lat="45.89784" lon="3.80977">
        <ele>646</ele>
        <time>2024-12-08T03:21:31.619Z</time>
      </trkpt>
      <trkpt lat="45.89783" lon="3.80978">
        <ele>647</ele>
        <time>2024-12-08T03:21:32.619Z</time>
      </trkpt>
      <trkpt lat="45.89782" lon="3.80979">
        <ele>647</ele>
        <time>2024-12-08T03:21:33.620Z</time>
      </trkpt>
      <trkpt lat="45.89781" lon="3.80981">
        <ele>647</ele>
        <time>2024-12-08T03:21:34.620Z</time>
      </trkpt>
      <trkpt lat="45.8978" lon="3.80982">
        <ele>647</ele>
        <time>2024-12-08T03:21:35.619Z</time>
      </trkpt>
      <trkpt lat="45.89779" lon="3.80984">
        <ele>648</ele>
        <time>2024-12-08T03:21:36.619Z</time>
      </trkpt>
      <trkpt lat="45.89778" lon="3.80986">
        <ele>648</ele>
        <time>2024-12-08T03:21:37.620Z</time>
      </trkpt>
      <trkpt lat="45.89777" lon="3.80988">
        <ele>648</ele>
        <time>2024-12-08T03:21:38.620Z</time>
      </trkpt>
      <trkpt lat="45.89776" lon="3.8099">
        <ele>649</ele>
        <time>2024-12-08T03:21:39.619Z</time>
      </trkpt>
      <trkpt lat="45.89775" lon="3.80991">
        <ele>649</ele>
        <time>2024-12-08T03:21:40.619Z</time>
      </trkpt>
      <trkpt lat="45.89775" lon="3.80992">
        <ele>649</ele>
        <time>2024-12-08T03:21:41.619Z</time>
      </trkpt>
      <trkpt lat="45.89774" lon="3.80994">
        <ele>649</ele>
        <time>2024-12-08T03:21:42.620Z</time>
      </trkpt>
      <trkpt lat="45.89773" lon="3.80995">
        <ele>649</ele>
        <time>2024-12-08T03:21:43.619Z</time>
      </trkpt>
      <trkpt lat="45.89771" lon="3.80997">
        <ele>649</ele>
        <time>2024-12-08T03:21:44.620Z</time>
      </trkpt>
      <trkpt lat="45.89771" lon="3.80999">
        <ele>650</ele>
        <time>2024-12-08T03:21:45.620Z</time>
      </trkpt>
      <trkpt lat="45.8977" lon="3.81">
        <ele>650</ele>
        <time>2024-12-08T03:21:46.619Z</time>
      </trkpt>
      <trkpt lat="45.89769" lon="3.81001">
        <ele>650</ele>
        <time>2024-12-08T03:21:47.620Z</time>
      </trkpt>
      <trkpt lat="45.89767" lon="3.81002">
        <ele>650</ele>
        <time>2024-12-08T03:21:48.619Z</time>
      </trkpt>
      <trkpt lat="45.89767" lon="3.81003">
        <ele>650</ele>
        <time>2024-12-08T03:21:49.620Z</time>
      </trkpt>
      <trkpt lat="45.89766" lon="3.81005">
        <ele>650</ele>
        <time>2024-12-08T03:21:50.619Z</time>
      </trkpt>
      <trkpt lat="45.89765" lon="3.81006">
        <ele>650</ele>
        <time>2024-12-08T03:21:51.619Z</time>
      </trkpt>
      <trkpt lat="45.89764" lon="3.81007">
        <ele>650</ele>
        <time>2024-12-08T03:21:52.619Z</time>
      </trkpt>
      <trkpt lat="45.89763" lon="3.81008">
        <ele>650</ele>
        <time>2024-12-08T03:21:53.619Z</time>
      </trkpt>
      <trkpt lat="45.89762" lon="3.8101">
        <ele>651</ele>
        <time>2024-12-08T03:21:54.619Z</time>
      </trkpt>
      <trkpt lat="45.89761" lon="3.81011">
        <ele>651</ele>
        <time>2024-12-08T03:21:55.619Z</time>
      </trkpt>
      <trkpt lat="45.8976" lon="3.81013">
        <ele>651</ele>
        <time>2024-12-08T03:21:56.619Z</time>
      </trkpt>
      <trkpt lat="45.89759" lon="3.81014">
        <ele>651</ele>
        <time>2024-12-08T03:21:57.619Z</time>
      </trkpt>
      <trkpt lat="45.89758" lon="3.81015">
        <ele>652</ele>
        <time>2024-12-08T03:21:58.619Z</time>
      </trkpt>
      <trkpt lat="45.89757" lon="3.81016">
        <ele>652</ele>
        <time>2024-12-08T03:21:59.619Z</time>
      </trkpt>
      <trkpt lat="45.89756" lon="3.81018">
        <ele>652</ele>
        <time>2024-12-08T03:22:00.619Z</time>
      </trkpt>
      <trkpt lat="45.89755" lon="3.81019">
        <ele>653</ele>
        <time>2024-12-08T03:22:01.619Z</time>
      </trkpt>
      <trkpt lat="45.89754" lon="3.8102">
        <ele>653</ele>
        <time>2024-12-08T03:22:02.620Z</time>
      </trkpt>
      <trkpt lat="45.89754" lon="3.81022">
        <ele>653</ele>
        <time>2024-12-08T03:22:03.619Z</time>
      </trkpt>
      <trkpt lat="45.89753" lon="3.81024">
        <ele>654</ele>
        <time>2024-12-08T03:22:04.619Z</time>
      </trkpt>
      <trkpt lat="45.89751" lon="3.81025">
        <ele>654</ele>
        <time>2024-12-08T03:22:05.619Z</time>
      </trkpt>
      <trkpt lat="45.8975" lon="3.81026">
        <ele>654</ele>
        <time>2024-12-08T03:22:06.620Z</time>
      </trkpt>
      <trkpt lat="45.89749" lon="3.81027">
        <ele>654</ele>
        <time>2024-12-08T03:22:07.620Z</time>
      </trkpt>
      <trkpt lat="45.89748" lon="3.81028">
        <ele>654</ele>
        <time>2024-12-08T03:22:08.619Z</time>
      </trkpt>
      <trkpt lat="45.89747" lon="3.81029">
        <ele>654</ele>
        <time>2024-12-08T03:22:09.620Z</time>
      </trkpt>
      <trkpt lat="45.89746" lon="3.8103">
        <ele>655</ele>
        <time>2024-12-08T03:22:10.620Z</time>
      </trkpt>
      <trkpt lat="45.89745" lon="3.81031">
        <ele>655</ele>
        <time>2024-12-08T03:22:11.620Z</time>
      </trkpt>
      <trkpt lat="45.89743" lon="3.81032">
        <ele>655</ele>
        <time>2024-12-08T03:22:12.620Z</time>
      </trkpt>
      <trkpt lat="45.89742" lon="3.81033">
        <ele>656</ele>
        <time>2024-12-08T03:22:13.619Z</time>
      </trkpt>
      <trkpt lat="45.89741" lon="3.81033">
        <ele>656</ele>
        <time>2024-12-08T03:22:14.619Z</time>
      </trkpt>
      <trkpt lat="45.8974" lon="3.81034">
        <ele>657</ele>
        <time>2024-12-08T03:22:15.619Z</time>
      </trkpt>
      <trkpt lat="45.89739" lon="3.81035">
        <ele>657</ele>
        <time>2024-12-08T03:22:16.620Z</time>
      </trkpt>
      <trkpt lat="45.89738" lon="3.81036">
        <ele>658</ele>
        <time>2024-12-08T03:22:17.619Z</time>
      </trkpt>
      <trkpt lat="45.89737" lon="3.81037">
        <ele>658</ele>
        <time>2024-12-08T03:22:18.619Z</time>
      </trkpt>
      <trkpt lat="45.89736" lon="3.81039">
        <ele>658</ele>
        <time>2024-12-08T03:22:19.619Z</time>
      </trkpt>
      <trkpt lat="45.89735" lon="3.8104">
        <ele>658</ele>
        <time>2024-12-08T03:22:20.619Z</time>
      </trkpt>
      <trkpt lat="45.89734" lon="3.81042">
        <ele>658</ele>
        <time>2024-12-08T03:22:21.620Z</time>
      </trkpt>
      <trkpt lat="45.89733" lon="3.81043">
        <ele>659</ele>
        <time>2024-12-08T03:22:22.620Z</time>
      </trkpt>
      <trkpt lat="45.89732" lon="3.81044">
        <ele>659</ele>
        <time>2024-12-08T03:22:23.620Z</time>
      </trkpt>
      <trkpt lat="45.89731" lon="3.81045">
        <ele>659</ele>
        <time>2024-12-08T03:22:24.619Z</time>
      </trkpt>
      <trkpt lat="45.8973" lon="3.81047">
        <ele>659</ele>
        <time>2024-12-08T03:22:25.619Z</time>
      </trkpt>
      <trkpt lat="45.89729" lon="3.81048">
        <ele>659</ele>
        <time>2024-12-08T03:22:26.620Z</time>
      </trkpt>
      <trkpt lat="45.89729" lon="3.81049">
        <ele>658</ele>
        <time>2024-12-08T03:22:27.619Z</time>
      </trkpt>
      <trkpt lat="45.89728" lon="3.8105">
        <ele>658</ele>
        <time>2024-12-08T03:22:28.620Z</time>
      </trkpt>
      <trkpt lat="45.89727" lon="3.81051">
        <ele>658</ele>
        <time>2024-12-08T03:22:29.619Z</time>
      </trkpt>
      <trkpt lat="45.89726" lon="3.81053">
        <ele>658</ele>
        <time>2024-12-08T03:22:30.619Z</time>
      </trkpt>
      <trkpt lat="45.89725" lon="3.81054">
        <ele>657</ele>
        <time>2024-12-08T03:22:31.619Z</time>
      </trkpt>
      <trkpt lat="45.89724" lon="3.81056">
        <ele>657</ele>
        <time>2024-12-08T03:22:32.619Z</time>
      </trkpt>
      <trkpt lat="45.89723" lon="3.81057">
        <ele>657</ele>
        <time>2024-12-08T03:22:33.619Z</time>
      </trkpt>
      <trkpt lat="45.89722" lon="3.81058">
        <ele>657</ele>
        <time>2024-12-08T03:22:34.620Z</time>
      </trkpt>
      <trkpt lat="45.89721" lon="3.8106">
        <ele>657</ele>
        <time>2024-12-08T03:22:35.619Z</time>
      </trkpt>
      <trkpt lat="45.8972" lon="3.81061">
        <ele>657</ele>
        <time>2024-12-08T03:22:36.620Z</time>
      </trkpt>
      <trkpt lat="45.8972" lon="3.81063">
        <ele>657</ele>
        <time>2024-12-08T03:22:37.619Z</time>
      </trkpt>
      <trkpt lat="45.89719" lon="3.81065">
        <ele>657</ele>
        <time>2024-12-08T03:22:38.620Z</time>
      </trkpt>
      <trkpt lat="45.89718" lon="3.81067">
        <ele>658</ele>
        <time>2024-12-08T03:22:39.620Z</time>
      </trkpt>
      <trkpt lat="45.89717" lon="3.81068">
        <ele>658</ele>
        <time>2024-12-08T03:22:40.620Z</time>
      </trkpt>
      <trkpt lat="45.89716" lon="3.8107">
        <ele>658</ele>
        <time>2024-12-08T03:22:41.620Z</time>
      </trkpt>
      <trkpt lat="45.89715" lon="3.81071">
        <ele>658</ele>
        <time>2024-12-08T03:22:42.620Z</time>
      </trkpt>
      <trkpt lat="45.89714" lon="3.81073">
        <ele>659</ele>
        <time>2024-12-08T03:22:43.619Z</time>
      </trkpt>
      <trkpt lat="45.89713" lon="3.81074">
        <ele>659</ele>
        <time>2024-12-08T03:22:44.619Z</time>
      </trkpt>
      <trkpt lat="45.89713" lon="3.81075">
        <ele>659</ele>
        <time>2024-12-08T03:22:45.620Z</time>
      </trkpt>
      <trkpt lat="45.89712" lon="3.81076">
        <ele>659</ele>
        <time>2024-12-08T03:22:46.619Z</time>
      </trkpt>
      <trkpt lat="45.89711" lon="3.81078">
        <ele>660</ele>
        <time>2024-12-08T03:22:47.619Z</time>
      </trkpt>
      <trkpt lat="45.8971" lon="3.81079">
        <ele>660</ele>
        <time>2024-12-08T03:22:48.619Z</time>
      </trkpt>
      <trkpt lat="45.89709" lon="3.81081">
        <ele>660</ele>
        <time>2024-12-08T03:22:49.619Z</time>
      </trkpt>
      <trkpt lat="45.89708" lon="3.81082">
        <ele>660</ele>
        <time>2024-12-08T03:22:50.619Z</time>
      </trkpt>
      <trkpt lat="45.89707" lon="3.81084">
        <ele>661</ele>
        <time>2024-12-08T03:22:51.620Z</time>
      </trkpt>
      <trkpt lat="45.89707" lon="3.81085">
        <ele>661</ele>
        <time>2024-12-08T03:22:52.620Z</time>
      </trkpt>
      <trkpt lat="45.89706" lon="3.81087">
        <ele>661</ele>
        <time>2024-12-08T03:22:53.620Z</time>
      </trkpt>
      <trkpt lat="45.89705" lon="3.81089">
        <ele>662</ele>
        <time>2024-12-08T03:22:54.620Z</time>
      </trkpt>
      <trkpt lat="45.89704" lon="3.8109">
        <ele>662</ele>
        <time>2024-12-08T03:22:55.620Z</time>
      </trkpt>
      <trkpt lat="45.89703" lon="3.81092">
        <ele>663</ele>
        <time>2024-12-08T03:22:56.620Z</time>
      </trkpt>
      <trkpt lat="45.89702" lon="3.81093">
        <ele>663</ele>
        <time>2024-12-08T03:22:57.620Z</time>
      </trkpt>
      <trkpt lat="45.89702" lon="3.81094">
        <ele>663</ele>
        <time>2024-12-08T03:22:58.620Z</time>
      </trkpt>
      <trkpt lat="45.89701" lon="3.81096">
        <ele>663</ele>
        <time>2024-12-08T03:22:59.620Z</time>
      </trkpt>
      <trkpt lat="45.897" lon="3.81097">
        <ele>664</ele>
        <time>2024-12-08T03:23:00.620Z</time>
      </trkpt>
      <trkpt lat="45.89699" lon="3.81098">
        <ele>664</ele>
        <time>2024-12-08T03:23:01.619Z</time>
      </trkpt>
      <trkpt lat="45.89698" lon="3.811">
        <ele>664</ele>
        <time>2024-12-08T03:23:02.620Z</time>
      </trkpt>
      <trkpt lat="45.89697" lon="3.81102">
        <ele>664</ele>
        <time>2024-12-08T03:23:03.619Z</time>
      </trkpt>
      <trkpt lat="45.89697" lon="3.81103">
        <ele>665</ele>
        <time>2024-12-08T03:23:04.619Z</time>
      </trkpt>
      <trkpt lat="45.89696" lon="3.81105">
        <ele>665</ele>
        <time>2024-12-08T03:23:05.620Z</time>
      </trkpt>
      <trkpt lat="45.89695" lon="3.81106">
        <ele>665</ele>
        <time>2024-12-08T03:23:06.620Z</time>
      </trkpt>
      <trkpt lat="45.89695" lon="3.81108">
        <ele>665</ele>
        <time>2024-12-08T03:23:07.619Z</time>
      </trkpt>
      <trkpt lat="45.89694" lon="3.81109">
        <ele>666</ele>
        <time>2024-12-08T03:23:08.620Z</time>
      </trkpt>
      <trkpt lat="45.89693" lon="3.81111">
        <ele>666</ele>
        <time>2024-12-08T03:23:09.619Z</time>
      </trkpt>
      <trkpt lat="45.89692" lon="3.81112">
        <ele>666</ele>
        <time>2024-12-08T03:23:10.620Z</time>
      </trkpt>
      <trkpt lat="45.89691" lon="3.81113">
        <ele>666</ele>
        <time>2024-12-08T03:23:11.620Z</time>
      </trkpt>
      <trkpt lat="45.8969" lon="3.81115">
        <ele>667</ele>
        <time>2024-12-08T03:23:12.620Z</time>
      </trkpt>
      <trkpt lat="45.89689" lon="3.81117">
        <ele>667</ele>
        <time>2024-12-08T03:23:13.619Z</time>
      </trkpt>
      <trkpt lat="45.89688" lon="3.81118">
        <ele>667</ele>
        <time>2024-12-08T03:23:14.620Z</time>
      </trkpt>
      <trkpt lat="45.89687" lon="3.8112">
        <ele>667</ele>
        <time>2024-12-08T03:23:15.620Z</time>
      </trkpt>
      <trkpt lat="45.89686" lon="3.81121">
        <ele>667</ele>
        <time>2024-12-08T03:23:16.620Z</time>
      </trkpt>
      <trkpt lat="45.89685" lon="3.81122">
        <ele>668</ele>
        <time>2024-12-08T03:23:17.619Z</time>
      </trkpt>
      <trkpt lat="45.89684" lon="3.81124">
        <ele>668</ele>
        <time>2024-12-08T03:23:18.620Z</time>
      </trkpt>
      <trkpt lat="45.89683" lon="3.81125">
        <ele>669</ele>
        <time>2024-12-08T03:23:19.620Z</time>
      </trkpt>
      <trkpt lat="45.89683" lon="3.81127">
        <ele>669</ele>
        <time>2024-12-08T03:23:20.619Z</time>
      </trkpt>
      <trkpt lat="45.89682" lon="3.81128">
        <ele>669</ele>
        <time>2024-12-08T03:23:21.619Z</time>
      </trkpt>
      <trkpt lat="45.89681" lon="3.81129">
        <ele>670</ele>
        <time>2024-12-08T03:23:22.619Z</time>
      </trkpt>
      <trkpt lat="45.8968" lon="3.8113">
        <ele>670</ele>
        <time>2024-12-08T03:23:23.619Z</time>
      </trkpt>
      <trkpt lat="45.89678" lon="3.81131">
        <ele>670</ele>
        <time>2024-12-08T03:23:24.620Z</time>
      </trkpt>
      <trkpt lat="45.89677" lon="3.81132">
        <ele>670</ele>
        <time>2024-12-08T03:23:25.619Z</time>
      </trkpt>
      <trkpt lat="45.89676" lon="3.81133">
        <ele>671</ele>
        <time>2024-12-08T03:23:26.619Z</time>
      </trkpt>
      <trkpt lat="45.89675" lon="3.81134">
        <ele>671</ele>
        <time>2024-12-08T03:23:27.619Z</time>
      </trkpt>
      <trkpt lat="45.89675" lon="3.81136">
        <ele>671</ele>
        <time>2024-12-08T03:23:28.619Z</time>
      </trkpt>
      <trkpt lat="45.89674" lon="3.81137">
        <ele>671</ele>
        <time>2024-12-08T03:23:29.620Z</time>
      </trkpt>
      <trkpt lat="45.89673" lon="3.81138">
        <ele>671</ele>
        <time>2024-12-08T03:23:30.620Z</time>
      </trkpt>
      <trkpt lat="45.89672" lon="3.81139">
        <ele>671</ele>
        <time>2024-12-08T03:23:31.620Z</time>
      </trkpt>
      <trkpt lat="45.89671" lon="3.8114">
        <ele>672</ele>
        <time>2024-12-08T03:23:32.619Z</time>
      </trkpt>
      <trkpt lat="45.8967" lon="3.81141">
        <ele>672</ele>
        <time>2024-12-08T03:23:33.620Z</time>
      </trkpt>
      <trkpt lat="45.89669" lon="3.81143">
        <ele>672</ele>
        <time>2024-12-08T03:23:34.619Z</time>
      </trkpt>
      <trkpt lat="45.89668" lon="3.81144">
        <ele>672</ele>
        <time>2024-12-08T03:23:35.620Z</time>
      </trkpt>
      <trkpt lat="45.89667" lon="3.81146">
        <ele>672</ele>
        <time>2024-12-08T03:23:36.619Z</time>
      </trkpt>
      <trkpt lat="45.89667" lon="3.81147">
        <ele>672</ele>
        <time>2024-12-08T03:23:37.619Z</time>
      </trkpt>
      <trkpt lat="45.89666" lon="3.81149">
        <ele>672</ele>
        <time>2024-12-08T03:23:38.619Z</time>
      </trkpt>
      <trkpt lat="45.89665" lon="3.8115">
        <ele>672</ele>
        <time>2024-12-08T03:23:39.619Z</time>
      </trkpt>
      <trkpt lat="45.89664" lon="3.81152">
        <ele>672</ele>
        <time>2024-12-08T03:23:40.620Z</time>
      </trkpt>
      <trkpt lat="45.89664" lon="3.81154">
        <ele>672</ele>
        <time>2024-12-08T03:23:41.619Z</time>
      </trkpt>
      <trkpt lat="45.89663" lon="3.81155">
        <ele>672</ele>
        <time>2024-12-08T03:23:42.620Z</time>
      </trkpt>
      <trkpt lat="45.89663" lon="3.81157">
        <ele>672</ele>
        <time>2024-12-08T03:23:43.619Z</time>
      </trkpt>
      <trkpt lat="45.89663" lon="3.81159">
        <ele>672</ele>
        <time>2024-12-08T03:23:44.620Z</time>
      </trkpt>
      <trkpt lat="45.89663" lon="3.81161">
        <ele>672</ele>
        <time>2024-12-08T03:23:45.620Z</time>
      </trkpt>
      <trkpt lat="45.89663" lon="3.81163">
        <ele>672</ele>
        <time>2024-12-08T03:23:46.620Z</time>
      </trkpt>
      <trkpt lat="45.89664" lon="3.81165">
        <ele>672</ele>
        <time>2024-12-08T03:23:47.620Z</time>
      </trkpt>
      <trkpt lat="45.89664" lon="3.81166">
        <ele>671</ele>
        <time>2024-12-08T03:23:48.619Z</time>
      </trkpt>
      <trkpt lat="45.89664" lon="3.81168">
        <ele>671</ele>
        <time>2024-12-08T03:23:49.620Z</time>
      </trkpt>
      <trkpt lat="45.89665" lon="3.8117">
        <ele>671</ele>
        <time>2024-12-08T03:23:50.620Z</time>
      </trkpt>
      <trkpt lat="45.89666" lon="3.81172">
        <ele>671</ele>
        <time>2024-12-08T03:23:51.619Z</time>
      </trkpt>
      <trkpt lat="45.89666" lon="3.81173">
        <ele>671</ele>
        <time>2024-12-08T03:23:52.620Z</time>
      </trkpt>
      <trkpt lat="45.89667" lon="3.81175">
        <ele>671</ele>
        <time>2024-12-08T03:23:53.619Z</time>
      </trkpt>
      <trkpt lat="45.89668" lon="3.81176">
        <ele>672</ele>
        <time>2024-12-08T03:23:54.620Z</time>
      </trkpt>
      <trkpt lat="45.89669" lon="3.81177">
        <ele>672</ele>
        <time>2024-12-08T03:23:55.620Z</time>
      </trkpt>
      <trkpt lat="45.89669" lon="3.81178">
        <ele>673</ele>
        <time>2024-12-08T03:23:56.620Z</time>
      </trkpt>
      <trkpt lat="45.8967" lon="3.8118">
        <ele>673</ele>
        <time>2024-12-08T03:23:57.619Z</time>
      </trkpt>
      <trkpt lat="45.89671" lon="3.81181">
        <ele>673</ele>
        <time>2024-12-08T03:23:58.620Z</time>
      </trkpt>
      <trkpt lat="45.89672" lon="3.81182">
        <ele>673</ele>
        <time>2024-12-08T03:23:59.619Z</time>
      </trkpt>
      <trkpt lat="45.89673" lon="3.81183">
        <ele>673</ele>
        <time>2024-12-08T03:24:00.620Z</time>
      </trkpt>
      <trkpt lat="45.89675" lon="3.81184">
        <ele>673</ele>
        <time>2024-12-08T03:24:01.619Z</time>
      </trkpt>
      <trkpt lat="45.89676" lon="3.81185">
        <ele>673</ele>
        <time>2024-12-08T03:24:02.619Z</time>
      </trkpt>
      <trkpt lat="45.89677" lon="3.81185">
        <ele>674</ele>
        <time>2024-12-08T03:24:03.620Z</time>
      </trkpt>
      <trkpt lat="45.89679" lon="3.81186">
        <ele>674</ele>
        <time>2024-12-08T03:24:04.620Z</time>
      </trkpt>
      <trkpt lat="45.8968" lon="3.81187">
        <ele>674</ele>
        <time>2024-12-08T03:24:05.620Z</time>
      </trkpt>
      <trkpt lat="45.89682" lon="3.81187">
        <ele>674</ele>
        <time>2024-12-08T03:24:06.619Z</time>
      </trkpt>
      <trkpt lat="45.89682" lon="3.81188">
        <ele>674</ele>
        <time>2024-12-08T03:24:07.620Z</time>
      </trkpt>
      <trkpt lat="45.89684" lon="3.81188">
        <ele>674</ele>
        <time>2024-12-08T03:24:08.620Z</time>
      </trkpt>
      <trkpt lat="45.89685" lon="3.81188">
        <ele>675</ele>
        <time>2024-12-08T03:24:09.619Z</time>
      </trkpt>
      <trkpt lat="45.89688" lon="3.81189">
        <ele>675</ele>
        <time>2024-12-08T03:24:10.619Z</time>
      </trkpt>
      <trkpt lat="45.8969" lon="3.81189">
        <ele>675</ele>
        <time>2024-12-08T03:24:11.619Z</time>
      </trkpt>
      <trkpt lat="45.89692" lon="3.81189">
        <ele>676</ele>
        <time>2024-12-08T03:24:12.620Z</time>
      </trkpt>
      <trkpt lat="45.89693" lon="3.81189">
        <ele>676</ele>
        <time>2024-12-08T03:24:13.619Z</time>
      </trkpt>
      <trkpt lat="45.89695" lon="3.81189">
        <ele>677</ele>
        <time>2024-12-08T03:24:14.620Z</time>
      </trkpt>
      <trkpt lat="45.89696" lon="3.81189">
        <ele>678</ele>
        <time>2024-12-08T03:24:15.620Z</time>
      </trkpt>
      <trkpt lat="45.89696" lon="3.8119">
        <ele>678</ele>
        <time>2024-12-08T03:24:16.619Z</time>
      </trkpt>
      <trkpt lat="45.89698" lon="3.8119">
        <ele>678</ele>
        <time>2024-12-08T03:24:17.620Z</time>
      </trkpt>
      <trkpt lat="45.89699" lon="3.81191">
        <ele>679</ele>
        <time>2024-12-08T03:24:18.620Z</time>
      </trkpt>
      <trkpt lat="45.89701" lon="3.81191">
        <ele>679</ele>
        <time>2024-12-08T03:24:19.620Z</time>
      </trkpt>
      <trkpt lat="45.89702" lon="3.81192">
        <ele>679</ele>
        <time>2024-12-08T03:24:20.619Z</time>
      </trkpt>
      <trkpt lat="45.89703" lon="3.81193">
        <ele>679</ele>
        <time>2024-12-08T03:24:21.619Z</time>
      </trkpt>
      <trkpt lat="45.89705" lon="3.81194">
        <ele>680</ele>
        <time>2024-12-08T03:24:22.619Z</time>
      </trkpt>
      <trkpt lat="45.89706" lon="3.81195">
        <ele>680</ele>
        <time>2024-12-08T03:24:23.619Z</time>
      </trkpt>
      <trkpt lat="45.89707" lon="3.81195">
        <ele>680</ele>
        <time>2024-12-08T03:24:24.620Z</time>
      </trkpt>
      <trkpt lat="45.89708" lon="3.81196">
        <ele>680</ele>
        <time>2024-12-08T03:24:25.619Z</time>
      </trkpt>
      <trkpt lat="45.89709" lon="3.81196">
        <ele>680</ele>
        <time>2024-12-08T03:24:26.619Z</time>
      </trkpt>
      <trkpt lat="45.8971" lon="3.81197">
        <ele>680</ele>
        <time>2024-12-08T03:24:27.619Z</time>
      </trkpt>
      <trkpt lat="45.89712" lon="3.81198">
        <ele>681</ele>
        <time>2024-12-08T03:24:28.619Z</time>
      </trkpt>
      <trkpt lat="45.89713" lon="3.81198">
        <ele>681</ele>
        <time>2024-12-08T03:24:29.619Z</time>
      </trkpt>
      <trkpt lat="45.89715" lon="3.81198">
        <ele>681</ele>
        <time>2024-12-08T03:24:30.619Z</time>
      </trkpt>
      <trkpt lat="45.89716" lon="3.81199">
        <ele>680</ele>
        <time>2024-12-08T03:24:31.620Z</time>
      </trkpt>
      <trkpt lat="45.89718" lon="3.81199">
        <ele>680</ele>
        <time>2024-12-08T03:24:32.620Z</time>
      </trkpt>
      <trkpt lat="45.89719" lon="3.812">
        <ele>680</ele>
        <time>2024-12-08T03:24:33.620Z</time>
      </trkpt>
      <trkpt lat="45.8972" lon="3.812">
        <ele>681</ele>
        <time>2024-12-08T03:24:34.619Z</time>
      </trkpt>
      <trkpt lat="45.89722" lon="3.81201">
        <ele>681</ele>
        <time>2024-12-08T03:24:35.620Z</time>
      </trkpt>
      <trkpt lat="45.89723" lon="3.81201">
        <ele>681</ele>
        <time>2024-12-08T03:24:36.619Z</time>
      </trkpt>
      <trkpt lat="45.89725" lon="3.81202">
        <ele>681</ele>
        <time>2024-12-08T03:24:37.620Z</time>
      </trkpt>
      <trkpt lat="45.89726" lon="3.81202">
        <ele>680</ele>
        <time>2024-12-08T03:24:38.619Z</time>
      </trkpt>
      <trkpt lat="45.89727" lon="3.81203">
        <ele>680</ele>
        <time>2024-12-08T03:24:39.620Z</time>
      </trkpt>
      <trkpt lat="45.89728" lon="3.81204">
        <ele>680</ele>
        <time>2024-12-08T03:24:40.619Z</time>
      </trkpt>
      <trkpt lat="45.89729" lon="3.81204">
        <ele>679</ele>
        <time>2024-12-08T03:24:41.620Z</time>
      </trkpt>
      <trkpt lat="45.8973" lon="3.81205">
        <ele>679</ele>
        <time>2024-12-08T03:24:42.619Z</time>
      </trkpt>
      <trkpt lat="45.89731" lon="3.81205">
        <ele>679</ele>
        <time>2024-12-08T03:24:43.620Z</time>
      </trkpt>
      <trkpt lat="45.89732" lon="3.81206">
        <ele>679</ele>
        <time>2024-12-08T03:24:44.619Z</time>
      </trkpt>
      <trkpt lat="45.89733" lon="3.81207">
        <ele>679</ele>
        <time>2024-12-08T03:24:45.620Z</time>
      </trkpt>
      <trkpt lat="45.89735" lon="3.81207">
        <ele>679</ele>
        <time>2024-12-08T03:24:46.620Z</time>
      </trkpt>
      <trkpt lat="45.89736" lon="3.81208">
        <ele>679</ele>
        <time>2024-12-08T03:24:47.619Z</time>
      </trkpt>
      <trkpt lat="45.89738" lon="3.81209">
        <ele>678</ele>
        <time>2024-12-08T03:24:48.620Z</time>
      </trkpt>
      <trkpt lat="45.89739" lon="3.8121">
        <ele>678</ele>
        <time>2024-12-08T03:24:49.620Z</time>
      </trkpt>
      <trkpt lat="45.8974" lon="3.8121">
        <ele>677</ele>
        <time>2024-12-08T03:24:50.620Z</time>
      </trkpt>
      <trkpt lat="45.89741" lon="3.81211">
        <ele>678</ele>
        <time>2024-12-08T03:24:51.619Z</time>
      </trkpt>
      <trkpt lat="45.89742" lon="3.81212">
        <ele>678</ele>
        <time>2024-12-08T03:24:52.620Z</time>
      </trkpt>
      <trkpt lat="45.89743" lon="3.81213">
        <ele>678</ele>
        <time>2024-12-08T03:24:53.619Z</time>
      </trkpt>
      <trkpt lat="45.89744" lon="3.81214">
        <ele>678</ele>
        <time>2024-12-08T03:24:54.620Z</time>
      </trkpt>
      <trkpt lat="45.89746" lon="3.81214">
        <ele>678</ele>
        <time>2024-12-08T03:24:55.619Z</time>
      </trkpt>
      <trkpt lat="45.89747" lon="3.81215">
        <ele>678</ele>
        <time>2024-12-08T03:24:56.620Z</time>
      </trkpt>
      <trkpt lat="45.89748" lon="3.81215">
        <ele>678</ele>
        <time>2024-12-08T03:24:57.619Z</time>
      </trkpt>
      <trkpt lat="45.8975" lon="3.81216">
        <ele>678</ele>
        <time>2024-12-08T03:24:58.619Z</time>
      </trkpt>
      <trkpt lat="45.89751" lon="3.81216">
        <ele>678</ele>
        <time>2024-12-08T03:24:59.620Z</time>
      </trkpt>
      <trkpt lat="45.89752" lon="3.81217">
        <ele>678</ele>
        <time>2024-12-08T03:25:00.620Z</time>
      </trkpt>
      <trkpt lat="45.89754" lon="3.81217">
        <ele>678</ele>
        <time>2024-12-08T03:25:01.620Z</time>
      </trkpt>
      <trkpt lat="45.89755" lon="3.81218">
        <ele>679</ele>
        <time>2024-12-08T03:25:02.619Z</time>
      </trkpt>
      <trkpt lat="45.89756" lon="3.81219">
        <ele>679</ele>
        <time>2024-12-08T03:25:03.619Z</time>
      </trkpt>
      <trkpt lat="45.89758" lon="3.81219">
        <ele>679</ele>
        <time>2024-12-08T03:25:04.620Z</time>
      </trkpt>
      <trkpt lat="45.89759" lon="3.8122">
        <ele>679</ele>
        <time>2024-12-08T03:25:05.620Z</time>
      </trkpt>
      <trkpt lat="45.89761" lon="3.81221">
        <ele>679</ele>
        <time>2024-12-08T03:25:06.619Z</time>
      </trkpt>
      <trkpt lat="45.89762" lon="3.81222">
        <ele>679</ele>
        <time>2024-12-08T03:25:07.620Z</time>
      </trkpt>
      <trkpt lat="45.89763" lon="3.81223">
        <ele>679</ele>
        <time>2024-12-08T03:25:08.620Z</time>
      </trkpt>
      <trkpt lat="45.89764" lon="3.81223">
        <ele>680</ele>
        <time>2024-12-08T03:25:09.619Z</time>
      </trkpt>
      <trkpt lat="45.89766" lon="3.81223">
        <ele>680</ele>
        <time>2024-12-08T03:25:10.620Z</time>
      </trkpt>
      <trkpt lat="45.89767" lon="3.81224">
        <ele>680</ele>
        <time>2024-12-08T03:25:11.620Z</time>
      </trkpt>
      <trkpt lat="45.89769" lon="3.81225">
        <ele>680</ele>
        <time>2024-12-08T03:25:12.620Z</time>
      </trkpt>
      <trkpt lat="45.8977" lon="3.81225">
        <ele>680</ele>
        <time>2024-12-08T03:25:13.619Z</time>
      </trkpt>
      <trkpt lat="45.89771" lon="3.81226">
        <ele>681</ele>
        <time>2024-12-08T03:25:14.620Z</time>
      </trkpt>
      <trkpt lat="45.89773" lon="3.81227">
        <ele>681</ele>
        <time>2024-12-08T03:25:15.619Z</time>
      </trkpt>
      <trkpt lat="45.89775" lon="3.81228">
        <ele>681</ele>
        <time>2024-12-08T03:25:16.620Z</time>
      </trkpt>
      <trkpt lat="45.89776" lon="3.81229">
        <ele>682</ele>
        <time>2024-12-08T03:25:17.620Z</time>
      </trkpt>
      <trkpt lat="45.89777" lon="3.81229">
        <ele>682</ele>
        <time>2024-12-08T03:25:18.620Z</time>
      </trkpt>
      <trkpt lat="45.89779" lon="3.8123">
        <ele>682</ele>
        <time>2024-12-08T03:25:19.619Z</time>
      </trkpt>
      <trkpt lat="45.8978" lon="3.8123">
        <ele>682</ele>
        <time>2024-12-08T03:25:20.620Z</time>
      </trkpt>
      <trkpt lat="45.89781" lon="3.81231">
        <ele>682</ele>
        <time>2024-12-08T03:25:21.619Z</time>
      </trkpt>
      <trkpt lat="45.89783" lon="3.81231">
        <ele>682</ele>
        <time>2024-12-08T03:25:22.620Z</time>
      </trkpt>
      <trkpt lat="45.89784" lon="3.81232">
        <ele>682</ele>
        <time>2024-12-08T03:25:23.619Z</time>
      </trkpt>
      <trkpt lat="45.89785" lon="3.81233">
        <ele>682</ele>
        <time>2024-12-08T03:25:24.619Z</time>
      </trkpt>
      <trkpt lat="45.89787" lon="3.81234">
        <ele>682</ele>
        <time>2024-12-08T03:25:25.620Z</time>
      </trkpt>
      <trkpt lat="45.89788" lon="3.81234">
        <ele>682</ele>
        <time>2024-12-08T03:25:26.620Z</time>
      </trkpt>
      <trkpt lat="45.8979" lon="3.81235">
        <ele>682</ele>
        <time>2024-12-08T03:25:27.620Z</time>
      </trkpt>
      <trkpt lat="45.89791" lon="3.81235">
        <ele>683</ele>
        <time>2024-12-08T03:25:28.620Z</time>
      </trkpt>
      <trkpt lat="45.89792" lon="3.81236">
        <ele>683</ele>
        <time>2024-12-08T03:25:29.620Z</time>
      </trkpt>
      <trkpt lat="45.89794" lon="3.81237">
        <ele>683</ele>
        <time>2024-12-08T03:25:30.619Z</time>
      </trkpt>
      <trkpt lat="45.89795" lon="3.81237">
        <ele>683</ele>
        <time>2024-12-08T03:25:31.619Z</time>
      </trkpt>
      <trkpt lat="45.89796" lon="3.81238">
        <ele>683</ele>
        <time>2024-12-08T03:25:32.619Z</time>
      </trkpt>
      <trkpt lat="45.89798" lon="3.81239">
        <ele>683</ele>
        <time>2024-12-08T03:25:33.620Z</time>
      </trkpt>
      <trkpt lat="45.89799" lon="3.8124">
        <ele>683</ele>
        <time>2024-12-08T03:25:34.619Z</time>
      </trkpt>
      <trkpt lat="45.898" lon="3.8124">
        <ele>684</ele>
        <time>2024-12-08T03:25:35.619Z</time>
      </trkpt>
      <trkpt lat="45.89802" lon="3.81241">
        <ele>684</ele>
        <time>2024-12-08T03:25:36.619Z</time>
      </trkpt>
      <trkpt lat="45.89803" lon="3.81241">
        <ele>684</ele>
        <time>2024-12-08T03:25:37.619Z</time>
      </trkpt>
      <trkpt lat="45.89804" lon="3.81242">
        <ele>685</ele>
        <time>2024-12-08T03:25:38.619Z</time>
      </trkpt>
      <trkpt lat="45.89806" lon="3.81242">
        <ele>685</ele>
        <time>2024-12-08T03:25:39.620Z</time>
      </trkpt>
      <trkpt lat="45.89807" lon="3.81243">
        <ele>685</ele>
        <time>2024-12-08T03:25:40.620Z</time>
      </trkpt>
      <trkpt lat="45.89808" lon="3.81243">
        <ele>685</ele>
        <time>2024-12-08T03:25:41.619Z</time>
      </trkpt>
      <trkpt lat="45.8981" lon="3.81244">
        <ele>686</ele>
        <time>2024-12-08T03:25:42.620Z</time>
      </trkpt>
      <trkpt lat="45.89811" lon="3.81245">
        <ele>686</ele>
        <time>2024-12-08T03:25:43.619Z</time>
      </trkpt>
      <trkpt lat="45.89813" lon="3.81245">
        <ele>686</ele>
        <time>2024-12-08T03:25:44.620Z</time>
      </trkpt>
      <trkpt lat="45.89815" lon="3.81246">
        <ele>686</ele>
        <time>2024-12-08T03:25:45.619Z</time>
      </trkpt>
      <trkpt lat="45.89816" lon="3.81246">
        <ele>687</ele>
        <time>2024-12-08T03:25:46.619Z</time>
      </trkpt>
      <trkpt lat="45.89818" lon="3.81247">
        <ele>687</ele>
        <time>2024-12-08T03:25:47.619Z</time>
      </trkpt>
      <trkpt lat="45.89819" lon="3.81247">
        <ele>687</ele>
        <time>2024-12-08T03:25:48.620Z</time>
      </trkpt>
      <trkpt lat="45.89821" lon="3.81248">
        <ele>687</ele>
        <time>2024-12-08T03:25:49.620Z</time>
      </trkpt>
      <trkpt lat="45.89822" lon="3.81248">
        <ele>688</ele>
        <time>2024-12-08T03:25:50.620Z</time>
      </trkpt>
      <trkpt lat="45.89824" lon="3.81249">
        <ele>688</ele>
        <time>2024-12-08T03:25:51.619Z</time>
      </trkpt>
      <trkpt lat="45.89825" lon="3.8125">
        <ele>688</ele>
        <time>2024-12-08T03:25:52.620Z</time>
      </trkpt>
      <trkpt lat="45.89826" lon="3.81251">
        <ele>689</ele>
        <time>2024-12-08T03:25:53.619Z</time>
      </trkpt>
      <trkpt lat="45.89827" lon="3.81252">
        <ele>689</ele>
        <time>2024-12-08T03:25:54.619Z</time>
      </trkpt>
      <trkpt lat="45.89829" lon="3.81253">
        <ele>689</ele>
        <time>2024-12-08T03:25:55.620Z</time>
      </trkpt>
      <trkpt lat="45.8983" lon="3.81253">
        <ele>689</ele>
        <time>2024-12-08T03:25:56.619Z</time>
      </trkpt>
      <trkpt lat="45.89832" lon="3.81254">
        <ele>689</ele>
        <time>2024-12-08T03:25:57.620Z</time>
      </trkpt>
      <trkpt lat="45.89833" lon="3.81256">
        <ele>689</ele>
        <time>2024-12-08T03:25:58.619Z</time>
      </trkpt>
      <trkpt lat="45.89835" lon="3.81257">
        <ele>689</ele>
        <time>2024-12-08T03:25:59.620Z</time>
      </trkpt>
      <trkpt lat="45.89836" lon="3.81258">
        <ele>690</ele>
        <time>2024-12-08T03:26:00.619Z</time>
      </trkpt>
      <trkpt lat="45.89837" lon="3.81259">
        <ele>690</ele>
        <time>2024-12-08T03:26:01.620Z</time>
      </trkpt>
      <trkpt lat="45.89838" lon="3.8126">
        <ele>690</ele>
        <time>2024-12-08T03:26:02.620Z</time>
      </trkpt>
      <trkpt lat="45.89839" lon="3.81261">
        <ele>690</ele>
        <time>2024-12-08T03:26:03.620Z</time>
      </trkpt>
      <trkpt lat="45.8984" lon="3.81262">
        <ele>690</ele>
        <time>2024-12-08T03:26:04.620Z</time>
      </trkpt>
      <trkpt lat="45.89841" lon="3.81263">
        <ele>690</ele>
        <time>2024-12-08T03:26:05.619Z</time>
      </trkpt>
      <trkpt lat="45.89842" lon="3.81265">
        <ele>690</ele>
        <time>2024-12-08T03:26:06.620Z</time>
      </trkpt>
      <trkpt lat="45.89842" lon="3.81266">
        <ele>690</ele>
        <time>2024-12-08T03:26:07.619Z</time>
      </trkpt>
      <trkpt lat="45.89843" lon="3.81268">
        <ele>689</ele>
        <time>2024-12-08T03:26:08.620Z</time>
      </trkpt>
      <trkpt lat="45.89844" lon="3.8127">
        <ele>689</ele>
        <time>2024-12-08T03:26:09.619Z</time>
      </trkpt>
      <trkpt lat="45.89845" lon="3.81272">
        <ele>689</ele>
        <time>2024-12-08T03:26:10.620Z</time>
      </trkpt>
      <trkpt lat="45.89846" lon="3.81274">
        <ele>690</ele>
        <time>2024-12-08T03:26:11.620Z</time>
      </trkpt>
      <trkpt lat="45.89847" lon="3.81276">
        <ele>690</ele>
        <time>2024-12-08T03:26:12.619Z</time>
      </trkpt>
      <trkpt lat="45.89848" lon="3.81277">
        <ele>690</ele>
        <time>2024-12-08T03:26:13.620Z</time>
      </trkpt>
      <trkpt lat="45.89849" lon="3.81279">
        <ele>690</ele>
        <time>2024-12-08T03:26:14.619Z</time>
      </trkpt>
      <trkpt lat="45.8985" lon="3.81281">
        <ele>691</ele>
        <time>2024-12-08T03:26:15.619Z</time>
      </trkpt>
      <trkpt lat="45.89851" lon="3.81282">
        <ele>692</ele>
        <time>2024-12-08T03:26:16.620Z</time>
      </trkpt>
      <trkpt lat="45.89851" lon="3.81284">
        <ele>692</ele>
        <time>2024-12-08T03:26:17.620Z</time>
      </trkpt>
      <trkpt lat="45.89852" lon="3.81286">
        <ele>692</ele>
        <time>2024-12-08T03:26:18.619Z</time>
      </trkpt>
      <trkpt lat="45.89853" lon="3.81287">
        <ele>693</ele>
        <time>2024-12-08T03:26:19.620Z</time>
      </trkpt>
      <trkpt lat="45.89853" lon="3.81289">
        <ele>693</ele>
        <time>2024-12-08T03:26:20.619Z</time>
      </trkpt>
      <trkpt lat="45.89854" lon="3.81291">
        <ele>693</ele>
        <time>2024-12-08T03:26:21.620Z</time>
      </trkpt>
      <trkpt lat="45.89855" lon="3.81293">
        <ele>693</ele>
        <time>2024-12-08T03:26:22.619Z</time>
      </trkpt>
      <trkpt lat="45.89855" lon="3.81295">
        <ele>693</ele>
        <time>2024-12-08T03:26:23.620Z</time>
      </trkpt>
      <trkpt lat="45.89855" lon="3.81297">
        <ele>693</ele>
        <time>2024-12-08T03:26:24.620Z</time>
      </trkpt>
      <trkpt lat="45.89855" lon="3.81299">
        <ele>693</ele>
        <time>2024-12-08T03:26:25.620Z</time>
      </trkpt>
      <trkpt lat="45.89856" lon="3.813">
        <ele>693</ele>
        <time>2024-12-08T03:26:26.620Z</time>
      </trkpt>
      <trkpt lat="45.89856" lon="3.81302">
        <ele>693</ele>
        <time>2024-12-08T03:26:27.620Z</time>
      </trkpt>
      <trkpt lat="45.89857" lon="3.81304">
        <ele>693</ele>
        <time>2024-12-08T03:26:28.620Z</time>
      </trkpt>
      <trkpt lat="45.89857" lon="3.81306">
        <ele>694</ele>
        <time>2024-12-08T03:26:29.620Z</time>
      </trkpt>
      <trkpt lat="45.89858" lon="3.81309">
        <ele>694</ele>
        <time>2024-12-08T03:26:30.619Z</time>
      </trkpt>
      <trkpt lat="45.89858" lon="3.81311">
        <ele>694</ele>
        <time>2024-12-08T03:26:31.619Z</time>
      </trkpt>
      <trkpt lat="45.89858" lon="3.81313">
        <ele>694</ele>
        <time>2024-12-08T03:26:32.620Z</time>
      </trkpt>
      <trkpt lat="45.89859" lon="3.81314">
        <ele>694</ele>
        <time>2024-12-08T03:26:33.620Z</time>
      </trkpt>
      <trkpt lat="45.89859" lon="3.81316">
        <ele>694</ele>
        <time>2024-12-08T03:26:34.619Z</time>
      </trkpt>
      <trkpt lat="45.8986" lon="3.81318">
        <ele>694</ele>
        <time>2024-12-08T03:26:35.619Z</time>
      </trkpt>
      <trkpt lat="45.8986" lon="3.8132">
        <ele>695</ele>
        <time>2024-12-08T03:26:36.620Z</time>
      </trkpt>
      <trkpt lat="45.89861" lon="3.81322">
        <ele>695</ele>
        <time>2024-12-08T03:26:37.619Z</time>
      </trkpt>
      <trkpt lat="45.89861" lon="3.81325">
        <ele>695</ele>
        <time>2024-12-08T03:26:38.619Z</time>
      </trkpt>
      <trkpt lat="45.89861" lon="3.81327">
        <ele>695</ele>
        <time>2024-12-08T03:26:39.619Z</time>
      </trkpt>
      <trkpt lat="45.89861" lon="3.81329">
        <ele>695</ele>
        <time>2024-12-08T03:26:40.619Z</time>
      </trkpt>
      <trkpt lat="45.89862" lon="3.81331">
        <ele>695</ele>
        <time>2024-12-08T03:26:41.620Z</time>
      </trkpt>
      <trkpt lat="45.89862" lon="3.81333">
        <ele>695</ele>
        <time>2024-12-08T03:26:42.619Z</time>
      </trkpt>
      <trkpt lat="45.89863" lon="3.81336">
        <ele>695</ele>
        <time>2024-12-08T03:26:43.620Z</time>
      </trkpt>
      <trkpt lat="45.89863" lon="3.81338">
        <ele>695</ele>
        <time>2024-12-08T03:26:44.619Z</time>
      </trkpt>
      <trkpt lat="45.89864" lon="3.8134">
        <ele>695</ele>
        <time>2024-12-08T03:26:45.620Z</time>
      </trkpt>
      <trkpt lat="45.89864" lon="3.81342">
        <ele>695</ele>
        <time>2024-12-08T03:26:46.619Z</time>
      </trkpt>
      <trkpt lat="45.89864" lon="3.81344">
        <ele>695</ele>
        <time>2024-12-08T03:26:47.619Z</time>
      </trkpt>
      <trkpt lat="45.89865" lon="3.81347">
        <ele>695</ele>
        <time>2024-12-08T03:26:48.620Z</time>
      </trkpt>
      <trkpt lat="45.89866" lon="3.81349">
        <ele>695</ele>
        <time>2024-12-08T03:26:49.619Z</time>
      </trkpt>
      <trkpt lat="45.89866" lon="3.81351">
        <ele>695</ele>
        <time>2024-12-08T03:26:50.619Z</time>
      </trkpt>
      <trkpt lat="45.89867" lon="3.81353">
        <ele>695</ele>
        <time>2024-12-08T03:26:51.620Z</time>
      </trkpt>
      <trkpt lat="45.89868" lon="3.81355">
        <ele>695</ele>
        <time>2024-12-08T03:26:52.619Z</time>
      </trkpt>
      <trkpt lat="45.89868" lon="3.81357">
        <ele>695</ele>
        <time>2024-12-08T03:26:53.620Z</time>
      </trkpt>
      <trkpt lat="45.89869" lon="3.81359">
        <ele>695</ele>
        <time>2024-12-08T03:26:54.620Z</time>
      </trkpt>
      <trkpt lat="45.89869" lon="3.81361">
        <ele>696</ele>
        <time>2024-12-08T03:26:55.620Z</time>
      </trkpt>
      <trkpt lat="45.8987" lon="3.81363">
        <ele>696</ele>
        <time>2024-12-08T03:26:56.619Z</time>
      </trkpt>
      <trkpt lat="45.8987" lon="3.81365">
        <ele>696</ele>
        <time>2024-12-08T03:26:57.619Z</time>
      </trkpt>
      <trkpt lat="45.89871" lon="3.81368">
        <ele>696</ele>
        <time>2024-12-08T03:26:58.619Z</time>
      </trkpt>
      <trkpt lat="45.89871" lon="3.8137">
        <ele>696</ele>
        <time>2024-12-08T03:26:59.619Z</time>
      </trkpt>
      <trkpt lat="45.89872" lon="3.81372">
        <ele>696</ele>
        <time>2024-12-08T03:27:00.619Z</time>
      </trkpt>
      <trkpt lat="45.89872" lon="3.81374">
        <ele>696</ele>
        <time>2024-12-08T03:27:01.619Z</time>
      </trkpt>
      <trkpt lat="45.89872" lon="3.81376">
        <ele>697</ele>
        <time>2024-12-08T03:27:02.619Z</time>
      </trkpt>
      <trkpt lat="45.89873" lon="3.81378">
        <ele>697</ele>
        <time>2024-12-08T03:27:03.619Z</time>
      </trkpt>
      <trkpt lat="45.89874" lon="3.8138">
        <ele>698</ele>
        <time>2024-12-08T03:27:04.619Z</time>
      </trkpt>
      <trkpt lat="45.89874" lon="3.81383">
        <ele>698</ele>
        <time>2024-12-08T03:27:05.620Z</time>
      </trkpt>
      <trkpt lat="45.89875" lon="3.81385">
        <ele>698</ele>
        <time>2024-12-08T03:27:06.619Z</time>
      </trkpt>
      <trkpt lat="45.89876" lon="3.81387">
        <ele>699</ele>
        <time>2024-12-08T03:27:07.619Z</time>
      </trkpt>
      <trkpt lat="45.89876" lon="3.81389">
        <ele>699</ele>
        <time>2024-12-08T03:27:08.619Z</time>
      </trkpt>
      <trkpt lat="45.89877" lon="3.81392">
        <ele>699</ele>
        <time>2024-12-08T03:27:09.619Z</time>
      </trkpt>
      <trkpt lat="45.89877" lon="3.81394">
        <ele>699</ele>
        <time>2024-12-08T03:27:10.619Z</time>
      </trkpt>
      <trkpt lat="45.89877" lon="3.81396">
        <ele>700</ele>
        <time>2024-12-08T03:27:11.619Z</time>
      </trkpt>
      <trkpt lat="45.89878" lon="3.81398">
        <ele>700</ele>
        <time>2024-12-08T03:27:12.619Z</time>
      </trkpt>
      <trkpt lat="45.89879" lon="3.81401">
        <ele>700</ele>
        <time>2024-12-08T03:27:13.620Z</time>
      </trkpt>
      <trkpt lat="45.89879" lon="3.81403">
        <ele>701</ele>
        <time>2024-12-08T03:27:14.619Z</time>
      </trkpt>
      <trkpt lat="45.8988" lon="3.81405">
        <ele>701</ele>
        <time>2024-12-08T03:27:15.619Z</time>
      </trkpt>
      <trkpt lat="45.89881" lon="3.81407">
        <ele>701</ele>
        <time>2024-12-08T03:27:16.619Z</time>
      </trkpt>
      <trkpt lat="45.89881" lon="3.81409">
        <ele>701</ele>
        <time>2024-12-08T03:27:17.619Z</time>
      </trkpt>
      <trkpt lat="45.89882" lon="3.8141">
        <ele>701</ele>
        <time>2024-12-08T03:27:18.619Z</time>
      </trkpt>
      <trkpt lat="45.89882" lon="3.81412">
        <ele>702</ele>
        <time>2024-12-08T03:27:19.619Z</time>
      </trkpt>
      <trkpt lat="45.89883" lon="3.81414">
        <ele>702</ele>
        <time>2024-12-08T03:27:20.619Z</time>
      </trkpt>
      <trkpt lat="45.89883" lon="3.81416">
        <ele>702</ele>
        <time>2024-12-08T03:27:21.620Z</time>
      </trkpt>
      <trkpt lat="45.89883" lon="3.81418">
        <ele>702</ele>
        <time>2024-12-08T03:27:22.620Z</time>
      </trkpt>
      <trkpt lat="45.89884" lon="3.8142">
        <ele>702</ele>
        <time>2024-12-08T03:27:23.619Z</time>
      </trkpt>
      <trkpt lat="45.89885" lon="3.81422">
        <ele>702</ele>
        <time>2024-12-08T03:27:24.619Z</time>
      </trkpt>
      <trkpt lat="45.89885" lon="3.81424">
        <ele>702</ele>
        <time>2024-12-08T03:27:25.619Z</time>
      </trkpt>
      <trkpt lat="45.89886" lon="3.81426">
        <ele>702</ele>
        <time>2024-12-08T03:27:26.619Z</time>
      </trkpt>
      <trkpt lat="45.89887" lon="3.81429">
        <ele>703</ele>
        <time>2024-12-08T03:27:27.619Z</time>
      </trkpt>
      <trkpt lat="45.89887" lon="3.81431">
        <ele>703</ele>
        <time>2024-12-08T03:27:28.619Z</time>
      </trkpt>
      <trkpt lat="45.89888" lon="3.81433">
        <ele>703</ele>
        <time>2024-12-08T03:27:29.620Z</time>
      </trkpt>
      <trkpt lat="45.89888" lon="3.81435">
        <ele>704</ele>
        <time>2024-12-08T03:27:30.619Z</time>
      </trkpt>
      <trkpt lat="45.89889" lon="3.81437">
        <ele>704</ele>
        <time>2024-12-08T03:27:31.620Z</time>
      </trkpt>
      <trkpt lat="45.8989" lon="3.81439">
        <ele>704</ele>
        <time>2024-12-08T03:27:32.619Z</time>
      </trkpt>
      <trkpt lat="45.89891" lon="3.8144">
        <ele>704</ele>
        <time>2024-12-08T03:27:33.619Z</time>
      </trkpt>
      <trkpt lat="45.89892" lon="3.81442">
        <ele>704</ele>
        <time>2024-12-08T03:27:34.619Z</time>
      </trkpt>
      <trkpt lat="45.89893" lon="3.81443">
        <ele>704</ele>
        <time>2024-12-08T03:27:35.620Z</time>
      </trkpt>
      <trkpt lat="45.89895" lon="3.81444">
        <ele>704</ele>
        <time>2024-12-08T03:27:36.619Z</time>
      </trkpt>
      <trkpt lat="45.89896" lon="3.81445">
        <ele>704</ele>
        <time>2024-12-08T03:27:37.620Z</time>
      </trkpt>
      <trkpt lat="45.89898" lon="3.81447">
        <ele>704</ele>
        <time>2024-12-08T03:27:38.619Z</time>
      </trkpt>
      <trkpt lat="45.89898" lon="3.81448">
        <ele>704</ele>
        <time>2024-12-08T03:27:39.620Z</time>
      </trkpt>
      <trkpt lat="45.89899" lon="3.8145">
        <ele>704</ele>
        <time>2024-12-08T03:27:40.619Z</time>
      </trkpt>
      <trkpt lat="45.899" lon="3.81451">
        <ele>704</ele>
        <time>2024-12-08T03:27:41.620Z</time>
      </trkpt>
      <trkpt lat="45.89901" lon="3.81452">
        <ele>704</ele>
        <time>2024-12-08T03:27:42.620Z</time>
      </trkpt>
      <trkpt lat="45.89902" lon="3.81454">
        <ele>704</ele>
        <time>2024-12-08T03:27:43.619Z</time>
      </trkpt>
      <trkpt lat="45.89903" lon="3.81455">
        <ele>704</ele>
        <time>2024-12-08T03:27:44.619Z</time>
      </trkpt>
      <trkpt lat="45.89905" lon="3.81457">
        <ele>704</ele>
        <time>2024-12-08T03:27:45.619Z</time>
      </trkpt>
      <trkpt lat="45.89906" lon="3.81458">
        <ele>705</ele>
        <time>2024-12-08T03:27:46.619Z</time>
      </trkpt>
      <trkpt lat="45.89908" lon="3.8146">
        <ele>705</ele>
        <time>2024-12-08T03:27:47.620Z</time>
      </trkpt>
      <trkpt lat="45.89909" lon="3.81461">
        <ele>705</ele>
        <time>2024-12-08T03:27:48.620Z</time>
      </trkpt>
      <trkpt lat="45.89911" lon="3.81462">
        <ele>706</ele>
        <time>2024-12-08T03:27:49.620Z</time>
      </trkpt>
      <trkpt lat="45.89912" lon="3.81463">
        <ele>706</ele>
        <time>2024-12-08T03:27:50.620Z</time>
      </trkpt>
      <trkpt lat="45.89913" lon="3.81464">
        <ele>707</ele>
        <time>2024-12-08T03:27:51.619Z</time>
      </trkpt>
      <trkpt lat="45.89914" lon="3.81466">
        <ele>707</ele>
        <time>2024-12-08T03:27:52.620Z</time>
      </trkpt>
      <trkpt lat="45.89915" lon="3.81467">
        <ele>708</ele>
        <time>2024-12-08T03:27:53.619Z</time>
      </trkpt>
      <trkpt lat="45.89916" lon="3.81468">
        <ele>708</ele>
        <time>2024-12-08T03:27:54.620Z</time>
      </trkpt>
      <trkpt lat="45.89917" lon="3.8147">
        <ele>708</ele>
        <time>2024-12-08T03:27:55.619Z</time>
      </trkpt>
      <trkpt lat="45.89918" lon="3.81471">
        <ele>708</ele>
        <time>2024-12-08T03:27:56.619Z</time>
      </trkpt>
      <trkpt lat="45.89919" lon="3.81472">
        <ele>708</ele>
        <time>2024-12-08T03:27:57.619Z</time>
      </trkpt>
      <trkpt lat="45.89921" lon="3.81473">
        <ele>708</ele>
        <time>2024-12-08T03:27:58.619Z</time>
      </trkpt>
      <trkpt lat="45.89922" lon="3.81474">
        <ele>708</ele>
        <time>2024-12-08T03:27:59.619Z</time>
      </trkpt>
      <trkpt lat="45.89923" lon="3.81476">
        <ele>709</ele>
        <time>2024-12-08T03:28:00.619Z</time>
      </trkpt>
      <trkpt lat="45.89924" lon="3.81477">
        <ele>709</ele>
        <time>2024-12-08T03:28:01.620Z</time>
      </trkpt>
      <trkpt lat="45.89925" lon="3.81479">
        <ele>709</ele>
        <time>2024-12-08T03:28:02.619Z</time>
      </trkpt>
      <trkpt lat="45.89926" lon="3.8148">
        <ele>709</ele>
        <time>2024-12-08T03:28:03.619Z</time>
      </trkpt>
      <trkpt lat="45.89927" lon="3.81481">
        <ele>709</ele>
        <time>2024-12-08T03:28:04.619Z</time>
      </trkpt>
      <trkpt lat="45.89927" lon="3.81483">
        <ele>710</ele>
        <time>2024-12-08T03:28:05.620Z</time>
      </trkpt>
      <trkpt lat="45.89928" lon="3.81484">
        <ele>710</ele>
        <time>2024-12-08T03:28:06.619Z</time>
      </trkpt>
      <trkpt lat="45.8993" lon="3.81485">
        <ele>710</ele>
        <time>2024-12-08T03:28:07.620Z</time>
      </trkpt>
      <trkpt lat="45.89931" lon="3.81487">
        <ele>711</ele>
        <time>2024-12-08T03:28:08.620Z</time>
      </trkpt>
      <trkpt lat="45.89932" lon="3.81488">
        <ele>711</ele>
        <time>2024-12-08T03:28:09.619Z</time>
      </trkpt>
      <trkpt lat="45.89934" lon="3.81489">
        <ele>711</ele>
        <time>2024-12-08T03:28:10.619Z</time>
      </trkpt>
      <trkpt lat="45.89935" lon="3.8149">
        <ele>711</ele>
        <time>2024-12-08T03:28:11.619Z</time>
      </trkpt>
      <trkpt lat="45.89937" lon="3.81491">
        <ele>711</ele>
        <time>2024-12-08T03:28:12.620Z</time>
      </trkpt>
      <trkpt lat="45.89938" lon="3.81492">
        <ele>711</ele>
        <time>2024-12-08T03:28:13.619Z</time>
      </trkpt>
      <trkpt lat="45.89939" lon="3.81494">
        <ele>712</ele>
        <time>2024-12-08T03:28:14.619Z</time>
      </trkpt>
      <trkpt lat="45.8994" lon="3.81495">
        <ele>712</ele>
        <time>2024-12-08T03:28:15.620Z</time>
      </trkpt>
      <trkpt lat="45.89941" lon="3.81496">
        <ele>712</ele>
        <time>2024-12-08T03:28:16.619Z</time>
      </trkpt>
      <trkpt lat="45.89942" lon="3.81497">
        <ele>713</ele>
        <time>2024-12-08T03:28:17.619Z</time>
      </trkpt>
      <trkpt lat="45.89943" lon="3.81498">
        <ele>713</ele>
        <time>2024-12-08T03:28:18.619Z</time>
      </trkpt>
      <trkpt lat="45.89945" lon="3.81499">
        <ele>713</ele>
        <time>2024-12-08T03:28:19.620Z</time>
      </trkpt>
      <trkpt lat="45.89946" lon="3.815">
        <ele>713</ele>
        <time>2024-12-08T03:28:20.620Z</time>
      </trkpt>
      <trkpt lat="45.89947" lon="3.81501">
        <ele>713</ele>
        <time>2024-12-08T03:28:21.620Z</time>
      </trkpt>
      <trkpt lat="45.89948" lon="3.81502">
        <ele>713</ele>
        <time>2024-12-08T03:28:22.619Z</time>
      </trkpt>
      <trkpt lat="45.89949" lon="3.81502">
        <ele>713</ele>
        <time>2024-12-08T03:28:23.620Z</time>
      </trkpt>
      <trkpt lat="45.8995" lon="3.81503">
        <ele>712</ele>
        <time>2024-12-08T03:28:24.619Z</time>
      </trkpt>
      <trkpt lat="45.89951" lon="3.81503">
        <ele>712</ele>
        <time>2024-12-08T03:28:25.620Z</time>
      </trkpt>
      <trkpt lat="45.89952" lon="3.81504">
        <ele>712</ele>
        <time>2024-12-08T03:28:26.620Z</time>
      </trkpt>
      <trkpt lat="45.89953" lon="3.81506">
        <ele>712</ele>
        <time>2024-12-08T03:28:27.619Z</time>
      </trkpt>
      <trkpt lat="45.89955" lon="3.81507">
        <ele>712</ele>
        <time>2024-12-08T03:28:28.620Z</time>
      </trkpt>
      <trkpt lat="45.89956" lon="3.81508">
        <ele>712</ele>
        <time>2024-12-08T03:28:29.619Z</time>
      </trkpt>
      <trkpt lat="45.89958" lon="3.81509">
        <ele>713</ele>
        <time>2024-12-08T03:28:30.620Z</time>
      </trkpt>
      <trkpt lat="45.89959" lon="3.81509">
        <ele>713</ele>
        <time>2024-12-08T03:28:31.619Z</time>
      </trkpt>
      <trkpt lat="45.89961" lon="3.8151">
        <ele>713</ele>
        <time>2024-12-08T03:28:32.619Z</time>
      </trkpt>
      <trkpt lat="45.89962" lon="3.81511">
        <ele>713</ele>
        <time>2024-12-08T03:28:33.619Z</time>
      </trkpt>
      <trkpt lat="45.89963" lon="3.81512">
        <ele>713</ele>
        <time>2024-12-08T03:28:34.619Z</time>
      </trkpt>
      <trkpt lat="45.89964" lon="3.81513">
        <ele>713</ele>
        <time>2024-12-08T03:28:35.620Z</time>
      </trkpt>
      <trkpt lat="45.89965" lon="3.81514">
        <ele>714</ele>
        <time>2024-12-08T03:28:36.620Z</time>
      </trkpt>
      <trkpt lat="45.89966" lon="3.81515">
        <ele>714</ele>
        <time>2024-12-08T03:28:37.619Z</time>
      </trkpt>
      <trkpt lat="45.89967" lon="3.81516">
        <ele>713</ele>
        <time>2024-12-08T03:28:38.620Z</time>
      </trkpt>
      <trkpt lat="45.89968" lon="3.81517">
        <ele>713</ele>
        <time>2024-12-08T03:28:39.619Z</time>
      </trkpt>
      <trkpt lat="45.89969" lon="3.81518">
        <ele>713</ele>
        <time>2024-12-08T03:28:40.619Z</time>
      </trkpt>
      <trkpt lat="45.8997" lon="3.81519">
        <ele>713</ele>
        <time>2024-12-08T03:28:41.620Z</time>
      </trkpt>
      <trkpt lat="45.89971" lon="3.8152">
        <ele>713</ele>
        <time>2024-12-08T03:28:42.619Z</time>
      </trkpt>
      <trkpt lat="45.89972" lon="3.81521">
        <ele>713</ele>
        <time>2024-12-08T03:28:43.619Z</time>
      </trkpt>
      <trkpt lat="45.89973" lon="3.81522">
        <ele>713</ele>
        <time>2024-12-08T03:28:44.620Z</time>
      </trkpt>
      <trkpt lat="45.89974" lon="3.81523">
        <ele>712</ele>
        <time>2024-12-08T03:28:45.619Z</time>
      </trkpt>
      <trkpt lat="45.89975" lon="3.81525">
        <ele>712</ele>
        <time>2024-12-08T03:28:46.620Z</time>
      </trkpt>
      <trkpt lat="45.89976" lon="3.81526">
        <ele>712</ele>
        <time>2024-12-08T03:28:47.619Z</time>
      </trkpt>
      <trkpt lat="45.89977" lon="3.81527">
        <ele>713</ele>
        <time>2024-12-08T03:28:48.620Z</time>
      </trkpt>
      <trkpt lat="45.89978" lon="3.81528">
        <ele>713</ele>
        <time>2024-12-08T03:28:49.620Z</time>
      </trkpt>
      <trkpt lat="45.8998" lon="3.81529">
        <ele>714</ele>
        <time>2024-12-08T03:28:50.620Z</time>
      </trkpt>
      <trkpt lat="45.89981" lon="3.8153">
        <ele>714</ele>
        <time>2024-12-08T03:28:51.619Z</time>
      </trkpt>
      <trkpt lat="45.89982" lon="3.81531">
        <ele>715</ele>
        <time>2024-12-08T03:28:52.620Z</time>
      </trkpt>
      <trkpt lat="45.89984" lon="3.81532">
        <ele>715</ele>
        <time>2024-12-08T03:28:53.619Z</time>
      </trkpt>
      <trkpt lat="45.89986" lon="3.81533">
        <ele>715</ele>
        <time>2024-12-08T03:28:54.619Z</time>
      </trkpt>
      <trkpt lat="45.89987" lon="3.81534">
        <ele>716</ele>
        <time>2024-12-08T03:28:55.620Z</time>
      </trkpt>
      <trkpt lat="45.89989" lon="3.81535">
        <ele>716</ele>
        <time>2024-12-08T03:28:56.620Z</time>
      </trkpt>
      <trkpt lat="45.8999" lon="3.81536">
        <ele>716</ele>
        <time>2024-12-08T03:28:57.620Z</time>
      </trkpt>
      <trkpt lat="45.89991" lon="3.81537">
        <ele>716</ele>
        <time>2024-12-08T03:28:58.619Z</time>
      </trkpt>
      <trkpt lat="45.89992" lon="3.81538">
        <ele>717</ele>
        <time>2024-12-08T03:28:59.619Z</time>
      </trkpt>
      <trkpt lat="45.89993" lon="3.81539">
        <ele>716</ele>
        <time>2024-12-08T03:29:00.619Z</time>
      </trkpt>
      <trkpt lat="45.89994" lon="3.8154">
        <ele>716</ele>
        <time>2024-12-08T03:29:01.619Z</time>
      </trkpt>
      <trkpt lat="45.89995" lon="3.81541">
        <ele>716</ele>
        <time>2024-12-08T03:29:02.619Z</time>
      </trkpt>
      <trkpt lat="45.89996" lon="3.81542">
        <ele>717</ele>
        <time>2024-12-08T03:29:03.620Z</time>
      </trkpt>
      <trkpt lat="45.89997" lon="3.81543">
        <ele>717</ele>
        <time>2024-12-08T03:29:04.619Z</time>
      </trkpt>
      <trkpt lat="45.89998" lon="3.81544">
        <ele>717</ele>
        <time>2024-12-08T03:29:05.619Z</time>
      </trkpt>
      <trkpt lat="45.89999" lon="3.81545">
        <ele>717</ele>
        <time>2024-12-08T03:29:06.620Z</time>
      </trkpt>
      <trkpt lat="45.9" lon="3.81546">
        <ele>718</ele>
        <time>2024-12-08T03:29:07.619Z</time>
      </trkpt>
      <trkpt lat="45.90001" lon="3.81547">
        <ele>718</ele>
        <time>2024-12-08T03:29:08.620Z</time>
      </trkpt>
      <trkpt lat="45.90002" lon="3.81548">
        <ele>718</ele>
        <time>2024-12-08T03:29:09.619Z</time>
      </trkpt>
      <trkpt lat="45.90003" lon="3.81549">
        <ele>719</ele>
        <time>2024-12-08T03:29:10.619Z</time>
      </trkpt>
      <trkpt lat="45.90004" lon="3.8155">
        <ele>719</ele>
        <time>2024-12-08T03:29:11.620Z</time>
      </trkpt>
      <trkpt lat="45.90006" lon="3.81552">
        <ele>719</ele>
        <time>2024-12-08T03:29:12.619Z</time>
      </trkpt>
      <trkpt lat="45.90007" lon="3.81553">
        <ele>720</ele>
        <time>2024-12-08T03:29:13.619Z</time>
      </trkpt>
      <trkpt lat="45.90008" lon="3.81554">
        <ele>720</ele>
        <time>2024-12-08T03:29:14.619Z</time>
      </trkpt>
      <trkpt lat="45.9001" lon="3.81555">
        <ele>720</ele>
        <time>2024-12-08T03:29:15.619Z</time>
      </trkpt>
      <trkpt lat="45.9001" lon="3.81556">
        <ele>719</ele>
        <time>2024-12-08T03:29:16.619Z</time>
      </trkpt>
      <trkpt lat="45.90011" lon="3.81557">
        <ele>719</ele>
        <time>2024-12-08T03:29:17.620Z</time>
      </trkpt>
      <trkpt lat="45.90012" lon="3.81558">
        <ele>719</ele>
        <time>2024-12-08T03:29:18.619Z</time>
      </trkpt>
      <trkpt lat="45.90014" lon="3.81559">
        <ele>719</ele>
        <time>2024-12-08T03:29:19.620Z</time>
      </trkpt>
      <trkpt lat="45.90015" lon="3.8156">
        <ele>719</ele>
        <time>2024-12-08T03:29:20.619Z</time>
      </trkpt>
      <trkpt lat="45.90016" lon="3.81561">
        <ele>719</ele>
        <time>2024-12-08T03:29:21.619Z</time>
      </trkpt>
      <trkpt lat="45.90017" lon="3.81563">
        <ele>719</ele>
        <time>2024-12-08T03:29:22.620Z</time>
      </trkpt>
      <trkpt lat="45.90018" lon="3.81564">
        <ele>720</ele>
        <time>2024-12-08T03:29:23.620Z</time>
      </trkpt>
      <trkpt lat="45.90019" lon="3.81565">
        <ele>720</ele>
        <time>2024-12-08T03:29:24.619Z</time>
      </trkpt>
      <trkpt lat="45.9002" lon="3.81566">
        <ele>720</ele>
        <time>2024-12-08T03:29:25.620Z</time>
      </trkpt>
      <trkpt lat="45.90021" lon="3.81567">
        <ele>721</ele>
        <time>2024-12-08T03:29:26.619Z</time>
      </trkpt>
      <trkpt lat="45.90022" lon="3.81568">
        <ele>721</ele>
        <time>2024-12-08T03:29:27.620Z</time>
      </trkpt>
      <trkpt lat="45.90023" lon="3.81569">
        <ele>721</ele>
        <time>2024-12-08T03:29:28.619Z</time>
      </trkpt>
      <trkpt lat="45.90024" lon="3.8157">
        <ele>721</ele>
        <time>2024-12-08T03:29:29.620Z</time>
      </trkpt>
      <trkpt lat="45.90025" lon="3.81572">
        <ele>721</ele>
        <time>2024-12-08T03:29:30.619Z</time>
      </trkpt>
      <trkpt lat="45.90027" lon="3.81573">
        <ele>721</ele>
        <time>2024-12-08T03:29:31.620Z</time>
      </trkpt>
      <trkpt lat="45.90028" lon="3.81574">
        <ele>721</ele>
        <time>2024-12-08T03:29:32.620Z</time>
      </trkpt>
      <trkpt lat="45.90029" lon="3.81575">
        <ele>721</ele>
        <time>2024-12-08T03:29:33.620Z</time>
      </trkpt>
      <trkpt lat="45.9003" lon="3.81576">
        <ele>721</ele>
        <time>2024-12-08T03:29:34.620Z</time>
      </trkpt>
      <trkpt lat="45.90032" lon="3.81577">
        <ele>721</ele>
        <time>2024-12-08T03:29:35.619Z</time>
      </trkpt>
      <trkpt lat="45.90033" lon="3.81578">
        <ele>722</ele>
        <time>2024-12-08T03:29:36.620Z</time>
      </trkpt>
      <trkpt lat="45.90034" lon="3.8158">
        <ele>722</ele>
        <time>2024-12-08T03:29:37.620Z</time>
      </trkpt>
      <trkpt lat="45.90036" lon="3.81581">
        <ele>722</ele>
        <time>2024-12-08T03:29:38.619Z</time>
      </trkpt>
      <trkpt lat="45.90037" lon="3.81582">
        <ele>723</ele>
        <time>2024-12-08T03:29:39.620Z</time>
      </trkpt>
      <trkpt lat="45.90038" lon="3.81583">
        <ele>722</ele>
        <time>2024-12-08T03:29:40.620Z</time>
      </trkpt>
      <trkpt lat="45.90039" lon="3.81584">
        <ele>722</ele>
        <time>2024-12-08T03:29:41.620Z</time>
      </trkpt>
      <trkpt lat="45.9004" lon="3.81585">
        <ele>723</ele>
        <time>2024-12-08T03:29:42.619Z</time>
      </trkpt>
      <trkpt lat="45.90041" lon="3.81586">
        <ele>723</ele>
        <time>2024-12-08T03:29:43.620Z</time>
      </trkpt>
      <trkpt lat="45.90042" lon="3.81588">
        <ele>724</ele>
        <time>2024-12-08T03:29:44.619Z</time>
      </trkpt>
      <trkpt lat="45.90043" lon="3.81589">
        <ele>724</ele>
        <time>2024-12-08T03:29:45.619Z</time>
      </trkpt>
      <trkpt lat="45.90045" lon="3.81591">
        <ele>724</ele>
        <time>2024-12-08T03:29:46.619Z</time>
      </trkpt>
      <trkpt lat="45.90047" lon="3.81592">
        <ele>725</ele>
        <time>2024-12-08T03:29:47.619Z</time>
      </trkpt>
      <trkpt lat="45.90048" lon="3.81593">
        <ele>725</ele>
        <time>2024-12-08T03:29:48.620Z</time>
      </trkpt>
      <trkpt lat="45.90049" lon="3.81594">
        <ele>725</ele>
        <time>2024-12-08T03:29:49.620Z</time>
      </trkpt>
      <trkpt lat="45.90051" lon="3.81594">
        <ele>725</ele>
        <time>2024-12-08T03:29:50.620Z</time>
      </trkpt>
      <trkpt lat="45.90052" lon="3.81595">
        <ele>726</ele>
        <time>2024-12-08T03:29:51.619Z</time>
      </trkpt>
      <trkpt lat="45.90053" lon="3.81596">
        <ele>726</ele>
        <time>2024-12-08T03:29:52.619Z</time>
      </trkpt>
      <trkpt lat="45.90054" lon="3.81597">
        <ele>726</ele>
        <time>2024-12-08T03:29:53.620Z</time>
      </trkpt>
      <trkpt lat="45.90055" lon="3.81598">
        <ele>726</ele>
        <time>2024-12-08T03:29:54.620Z</time>
      </trkpt>
      <trkpt lat="45.90056" lon="3.81599">
        <ele>726</ele>
        <time>2024-12-08T03:29:55.619Z</time>
      </trkpt>
      <trkpt lat="45.90057" lon="3.816">
        <ele>726</ele>
        <time>2024-12-08T03:29:56.619Z</time>
      </trkpt>
      <trkpt lat="45.90058" lon="3.81601">
        <ele>726</ele>
        <time>2024-12-08T03:29:57.620Z</time>
      </trkpt>
      <trkpt lat="45.90059" lon="3.81602">
        <ele>726</ele>
        <time>2024-12-08T03:29:58.619Z</time>
      </trkpt>
      <trkpt lat="45.9006" lon="3.81603">
        <ele>726</ele>
        <time>2024-12-08T03:29:59.620Z</time>
      </trkpt>
      <trkpt lat="45.90061" lon="3.81604">
        <ele>726</ele>
        <time>2024-12-08T03:30:00.619Z</time>
      </trkpt>
      <trkpt lat="45.90062" lon="3.81605">
        <ele>726</ele>
        <time>2024-12-08T03:30:01.619Z</time>
      </trkpt>
      <trkpt lat="45.90063" lon="3.81606">
        <ele>726</ele>
        <time>2024-12-08T03:30:02.619Z</time>
      </trkpt>
      <trkpt lat="45.90064" lon="3.81607">
        <ele>726</ele>
        <time>2024-12-08T03:30:03.620Z</time>
      </trkpt>
      <trkpt lat="45.90065" lon="3.81609">
        <ele>726</ele>
        <time>2024-12-08T03:30:04.619Z</time>
      </trkpt>
      <trkpt lat="45.90066" lon="3.8161">
        <ele>726</ele>
        <time>2024-12-08T03:30:05.619Z</time>
      </trkpt>
      <trkpt lat="45.90068" lon="3.81611">
        <ele>726</ele>
        <time>2024-12-08T03:30:06.619Z</time>
      </trkpt>
      <trkpt lat="45.90069" lon="3.81612">
        <ele>726</ele>
        <time>2024-12-08T03:30:07.619Z</time>
      </trkpt>
      <trkpt lat="45.9007" lon="3.81613">
        <ele>726</ele>
        <time>2024-12-08T03:30:08.620Z</time>
      </trkpt>
      <trkpt lat="45.90071" lon="3.81614">
        <ele>726</ele>
        <time>2024-12-08T03:30:09.619Z</time>
      </trkpt>
      <trkpt lat="45.90072" lon="3.81615">
        <ele>727</ele>
        <time>2024-12-08T03:30:10.620Z</time>
      </trkpt>
      <trkpt lat="45.90073" lon="3.81616">
        <ele>727</ele>
        <time>2024-12-08T03:30:11.619Z</time>
      </trkpt>
      <trkpt lat="45.90074" lon="3.81618">
        <ele>727</ele>
        <time>2024-12-08T03:30:12.619Z</time>
      </trkpt>
      <trkpt lat="45.90076" lon="3.81619">
        <ele>727</ele>
        <time>2024-12-08T03:30:13.619Z</time>
      </trkpt>
      <trkpt lat="45.90077" lon="3.81619">
        <ele>727</ele>
        <time>2024-12-08T03:30:14.620Z</time>
      </trkpt>
      <trkpt lat="45.90079" lon="3.8162">
        <ele>727</ele>
        <time>2024-12-08T03:30:15.619Z</time>
      </trkpt>
      <trkpt lat="45.9008" lon="3.81621">
        <ele>728</ele>
        <time>2024-12-08T03:30:16.619Z</time>
      </trkpt>
      <trkpt lat="45.90081" lon="3.81622">
        <ele>728</ele>
        <time>2024-12-08T03:30:17.619Z</time>
      </trkpt>
      <trkpt lat="45.90082" lon="3.81623">
        <ele>728</ele>
        <time>2024-12-08T03:30:18.619Z</time>
      </trkpt>
      <trkpt lat="45.90083" lon="3.81624">
        <ele>728</ele>
        <time>2024-12-08T03:30:19.619Z</time>
      </trkpt>
      <trkpt lat="45.90084" lon="3.81625">
        <ele>729</ele>
        <time>2024-12-08T03:30:20.619Z</time>
      </trkpt>
      <trkpt lat="45.90085" lon="3.81626">
        <ele>729</ele>
        <time>2024-12-08T03:30:21.619Z</time>
      </trkpt>
      <trkpt lat="45.90086" lon="3.81627">
        <ele>730</ele>
        <time>2024-12-08T03:30:22.619Z</time>
      </trkpt>
      <trkpt lat="45.90087" lon="3.81629">
        <ele>730</ele>
        <time>2024-12-08T03:30:23.619Z</time>
      </trkpt>
      <trkpt lat="45.90088" lon="3.8163">
        <ele>730</ele>
        <time>2024-12-08T03:30:24.620Z</time>
      </trkpt>
      <trkpt lat="45.90089" lon="3.81631">
        <ele>731</ele>
        <time>2024-12-08T03:30:25.619Z</time>
      </trkpt>
      <trkpt lat="45.9009" lon="3.81632">
        <ele>731</ele>
        <time>2024-12-08T03:30:26.619Z</time>
      </trkpt>
      <trkpt lat="45.90091" lon="3.81633">
        <ele>731</ele>
        <time>2024-12-08T03:30:27.619Z</time>
      </trkpt>
      <trkpt lat="45.90092" lon="3.81635">
        <ele>731</ele>
        <time>2024-12-08T03:30:28.619Z</time>
      </trkpt>
      <trkpt lat="45.90093" lon="3.81636">
        <ele>732</ele>
        <time>2024-12-08T03:30:29.619Z</time>
      </trkpt>
      <trkpt lat="45.90094" lon="3.81637">
        <ele>732</ele>
        <time>2024-12-08T03:30:30.619Z</time>
      </trkpt>
      <trkpt lat="45.90096" lon="3.81638">
        <ele>732</ele>
        <time>2024-12-08T03:30:31.620Z</time>
      </trkpt>
      <trkpt lat="45.90097" lon="3.8164">
        <ele>733</ele>
        <time>2024-12-08T03:30:32.619Z</time>
      </trkpt>
      <trkpt lat="45.90099" lon="3.81641">
        <ele>733</ele>
        <time>2024-12-08T03:30:33.620Z</time>
      </trkpt>
      <trkpt lat="45.901" lon="3.81642">
        <ele>733</ele>
        <time>2024-12-08T03:30:34.620Z</time>
      </trkpt>
      <trkpt lat="45.90102" lon="3.81643">
        <ele>733</ele>
        <time>2024-12-08T03:30:35.619Z</time>
      </trkpt>
      <trkpt lat="45.90103" lon="3.81645">
        <ele>734</ele>
        <time>2024-12-08T03:30:36.619Z</time>
      </trkpt>
      <trkpt lat="45.90105" lon="3.81646">
        <ele>734</ele>
        <time>2024-12-08T03:30:37.620Z</time>
      </trkpt>
      <trkpt lat="45.90106" lon="3.81648">
        <ele>734</ele>
        <time>2024-12-08T03:30:38.619Z</time>
      </trkpt>
      <trkpt lat="45.90107" lon="3.81649">
        <ele>734</ele>
        <time>2024-12-08T03:30:39.619Z</time>
      </trkpt>
      <trkpt lat="45.90108" lon="3.8165">
        <ele>734</ele>
        <time>2024-12-08T03:30:40.620Z</time>
      </trkpt>
      <trkpt lat="45.9011" lon="3.81651">
        <ele>734</ele>
        <time>2024-12-08T03:30:41.620Z</time>
      </trkpt>
      <trkpt lat="45.90111" lon="3.81654">
        <ele>734</ele>
        <time>2024-12-08T03:30:42.619Z</time>
      </trkpt>
      <trkpt lat="45.90112" lon="3.81655">
        <ele>734</ele>
        <time>2024-12-08T03:30:43.620Z</time>
      </trkpt>
      <trkpt lat="45.90115" lon="3.81658">
        <ele>734</ele>
        <time>2024-12-08T03:30:44.620Z</time>
      </trkpt>
      <trkpt lat="45.90116" lon="3.81659">
        <ele>734</ele>
        <time>2024-12-08T03:30:45.620Z</time>
      </trkpt>
      <trkpt lat="45.90118" lon="3.81659">
        <ele>734</ele>
        <time>2024-12-08T03:30:46.619Z</time>
      </trkpt>
      <trkpt lat="45.90119" lon="3.8166">
        <ele>733</ele>
        <time>2024-12-08T03:30:47.619Z</time>
      </trkpt>
      <trkpt lat="45.90121" lon="3.81661">
        <ele>733</ele>
        <time>2024-12-08T03:30:48.620Z</time>
      </trkpt>
      <trkpt lat="45.90122" lon="3.81663">
        <ele>734</ele>
        <time>2024-12-08T03:30:49.619Z</time>
      </trkpt>
      <trkpt lat="45.90124" lon="3.81664">
        <ele>734</ele>
        <time>2024-12-08T03:30:50.619Z</time>
      </trkpt>
      <trkpt lat="45.90125" lon="3.81665">
        <ele>734</ele>
        <time>2024-12-08T03:30:51.620Z</time>
      </trkpt>
      <trkpt lat="45.90127" lon="3.81666">
        <ele>734</ele>
        <time>2024-12-08T03:30:52.619Z</time>
      </trkpt>
      <trkpt lat="45.90128" lon="3.81668">
        <ele>733</ele>
        <time>2024-12-08T03:30:53.620Z</time>
      </trkpt>
      <trkpt lat="45.90129" lon="3.81669">
        <ele>733</ele>
        <time>2024-12-08T03:30:54.619Z</time>
      </trkpt>
      <trkpt lat="45.9013" lon="3.8167">
        <ele>733</ele>
        <time>2024-12-08T03:30:55.619Z</time>
      </trkpt>
      <trkpt lat="45.90131" lon="3.81672">
        <ele>733</ele>
        <time>2024-12-08T03:30:56.619Z</time>
      </trkpt>
      <trkpt lat="45.90132" lon="3.81673">
        <ele>733</ele>
        <time>2024-12-08T03:30:57.619Z</time>
      </trkpt>
      <trkpt lat="45.90134" lon="3.81674">
        <ele>733</ele>
        <time>2024-12-08T03:30:58.620Z</time>
      </trkpt>
      <trkpt lat="45.90135" lon="3.81675">
        <ele>733</ele>
        <time>2024-12-08T03:30:59.620Z</time>
      </trkpt>
      <trkpt lat="45.90137" lon="3.81675">
        <ele>733</ele>
        <time>2024-12-08T03:31:00.620Z</time>
      </trkpt>
      <trkpt lat="45.90139" lon="3.81676">
        <ele>733</ele>
        <time>2024-12-08T03:31:01.620Z</time>
      </trkpt>
      <trkpt lat="45.90141" lon="3.81678">
        <ele>733</ele>
        <time>2024-12-08T03:31:02.619Z</time>
      </trkpt>
      <trkpt lat="45.90142" lon="3.81679">
        <ele>733</ele>
        <time>2024-12-08T03:31:03.619Z</time>
      </trkpt>
      <trkpt lat="45.90143" lon="3.8168">
        <ele>733</ele>
        <time>2024-12-08T03:31:04.619Z</time>
      </trkpt>
      <trkpt lat="45.90144" lon="3.81681">
        <ele>734</ele>
        <time>2024-12-08T03:31:05.620Z</time>
      </trkpt>
      <trkpt lat="45.90145" lon="3.81683">
        <ele>734</ele>
        <time>2024-12-08T03:31:06.619Z</time>
      </trkpt>
      <trkpt lat="45.90147" lon="3.81684">
        <ele>734</ele>
        <time>2024-12-08T03:31:07.620Z</time>
      </trkpt>
      <trkpt lat="45.90148" lon="3.81686">
        <ele>734</ele>
        <time>2024-12-08T03:31:08.620Z</time>
      </trkpt>
      <trkpt lat="45.90149" lon="3.81687">
        <ele>734</ele>
        <time>2024-12-08T03:31:09.619Z</time>
      </trkpt>
      <trkpt lat="45.90151" lon="3.81688">
        <ele>733</ele>
        <time>2024-12-08T03:31:10.619Z</time>
      </trkpt>
      <trkpt lat="45.90153" lon="3.81689">
        <ele>733</ele>
        <time>2024-12-08T03:31:11.619Z</time>
      </trkpt>
      <trkpt lat="45.90155" lon="3.81691">
        <ele>733</ele>
        <time>2024-12-08T03:31:12.620Z</time>
      </trkpt>
      <trkpt lat="45.90157" lon="3.81691">
        <ele>733</ele>
        <time>2024-12-08T03:31:13.619Z</time>
      </trkpt>
      <trkpt lat="45.90158" lon="3.81693">
        <ele>733</ele>
        <time>2024-12-08T03:31:14.619Z</time>
      </trkpt>
      <trkpt lat="45.9016" lon="3.81694">
        <ele>733</ele>
        <time>2024-12-08T03:31:15.620Z</time>
      </trkpt>
      <trkpt lat="45.90161" lon="3.81695">
        <ele>733</ele>
        <time>2024-12-08T03:31:16.619Z</time>
      </trkpt>
      <trkpt lat="45.90162" lon="3.81697">
        <ele>733</ele>
        <time>2024-12-08T03:31:17.620Z</time>
      </trkpt>
      <trkpt lat="45.90164" lon="3.81698">
        <ele>733</ele>
        <time>2024-12-08T03:31:18.620Z</time>
      </trkpt>
      <trkpt lat="45.90165" lon="3.81699">
        <ele>733</ele>
        <time>2024-12-08T03:31:19.619Z</time>
      </trkpt>
      <trkpt lat="45.90166" lon="3.81701">
        <ele>734</ele>
        <time>2024-12-08T03:31:20.620Z</time>
      </trkpt>
      <trkpt lat="45.90167" lon="3.81702">
        <ele>734</ele>
        <time>2024-12-08T03:31:21.620Z</time>
      </trkpt>
      <trkpt lat="45.90168" lon="3.81704">
        <ele>734</ele>
        <time>2024-12-08T03:31:22.619Z</time>
      </trkpt>
      <trkpt lat="45.90168" lon="3.81705">
        <ele>734</ele>
        <time>2024-12-08T03:31:23.620Z</time>
      </trkpt>
      <trkpt lat="45.9017" lon="3.81706">
        <ele>734</ele>
        <time>2024-12-08T03:31:24.619Z</time>
      </trkpt>
      <trkpt lat="45.90171" lon="3.81707">
        <ele>734</ele>
        <time>2024-12-08T03:31:25.620Z</time>
      </trkpt>
      <trkpt lat="45.90173" lon="3.81708">
        <ele>734</ele>
        <time>2024-12-08T03:31:26.620Z</time>
      </trkpt>
      <trkpt lat="45.90175" lon="3.81709">
        <ele>734</ele>
        <time>2024-12-08T03:31:27.620Z</time>
      </trkpt>
      <trkpt lat="45.90177" lon="3.8171">
        <ele>734</ele>
        <time>2024-12-08T03:31:28.620Z</time>
      </trkpt>
      <trkpt lat="45.90178" lon="3.81712">
        <ele>734</ele>
        <time>2024-12-08T03:31:29.620Z</time>
      </trkpt>
      <trkpt lat="45.9018" lon="3.81713">
        <ele>734</ele>
        <time>2024-12-08T03:31:30.620Z</time>
      </trkpt>
      <trkpt lat="45.90181" lon="3.81715">
        <ele>734</ele>
        <time>2024-12-08T03:31:31.619Z</time>
      </trkpt>
      <trkpt lat="45.90183" lon="3.81716">
        <ele>734</ele>
        <time>2024-12-08T03:31:32.620Z</time>
      </trkpt>
      <trkpt lat="45.90185" lon="3.81718">
        <ele>734</ele>
        <time>2024-12-08T03:31:33.619Z</time>
      </trkpt>
      <trkpt lat="45.90186" lon="3.81719">
        <ele>734</ele>
        <time>2024-12-08T03:31:34.619Z</time>
      </trkpt>
      <trkpt lat="45.90187" lon="3.8172">
        <ele>734</ele>
        <time>2024-12-08T03:31:35.619Z</time>
      </trkpt>
      <trkpt lat="45.90188" lon="3.81722">
        <ele>734</ele>
        <time>2024-12-08T03:31:36.619Z</time>
      </trkpt>
      <trkpt lat="45.9019" lon="3.81723">
        <ele>733</ele>
        <time>2024-12-08T03:31:37.619Z</time>
      </trkpt>
      <trkpt lat="45.90191" lon="3.81724">
        <ele>733</ele>
        <time>2024-12-08T03:31:38.619Z</time>
      </trkpt>
      <trkpt lat="45.90192" lon="3.81726">
        <ele>733</ele>
        <time>2024-12-08T03:31:39.620Z</time>
      </trkpt>
      <trkpt lat="45.90193" lon="3.81727">
        <ele>733</ele>
        <time>2024-12-08T03:31:40.620Z</time>
      </trkpt>
      <trkpt lat="45.90195" lon="3.81729">
        <ele>733</ele>
        <time>2024-12-08T03:31:41.620Z</time>
      </trkpt>
      <trkpt lat="45.90196" lon="3.8173">
        <ele>732</ele>
        <time>2024-12-08T03:31:42.619Z</time>
      </trkpt>
      <trkpt lat="45.90198" lon="3.81731">
        <ele>732</ele>
        <time>2024-12-08T03:31:43.620Z</time>
      </trkpt>
      <trkpt lat="45.90199" lon="3.81733">
        <ele>732</ele>
        <time>2024-12-08T03:31:44.620Z</time>
      </trkpt>
      <trkpt lat="45.90201" lon="3.81734">
        <ele>732</ele>
        <time>2024-12-08T03:31:45.619Z</time>
      </trkpt>
      <trkpt lat="45.90202" lon="3.81736">
        <ele>732</ele>
        <time>2024-12-08T03:31:46.620Z</time>
      </trkpt>
      <trkpt lat="45.90205" lon="3.81737">
        <ele>733</ele>
        <time>2024-12-08T03:31:47.619Z</time>
      </trkpt>
      <trkpt lat="45.90206" lon="3.81739">
        <ele>733</ele>
        <time>2024-12-08T03:31:48.619Z</time>
      </trkpt>
      <trkpt lat="45.90208" lon="3.81741">
        <ele>733</ele>
        <time>2024-12-08T03:31:49.619Z</time>
      </trkpt>
      <trkpt lat="45.90209" lon="3.81742">
        <ele>733</ele>
        <time>2024-12-08T03:31:50.619Z</time>
      </trkpt>
      <trkpt lat="45.90211" lon="3.81744">
        <ele>733</ele>
        <time>2024-12-08T03:31:51.620Z</time>
      </trkpt>
      <trkpt lat="45.90213" lon="3.81745">
        <ele>733</ele>
        <time>2024-12-08T03:31:52.620Z</time>
      </trkpt>
      <trkpt lat="45.90215" lon="3.81747">
        <ele>733</ele>
        <time>2024-12-08T03:31:53.620Z</time>
      </trkpt>
      <trkpt lat="45.90217" lon="3.81748">
        <ele>733</ele>
        <time>2024-12-08T03:31:54.620Z</time>
      </trkpt>
      <trkpt lat="45.90218" lon="3.8175">
        <ele>734</ele>
        <time>2024-12-08T03:31:55.620Z</time>
      </trkpt>
      <trkpt lat="45.90219" lon="3.81752">
        <ele>733</ele>
        <time>2024-12-08T03:31:56.619Z</time>
      </trkpt>
      <trkpt lat="45.9022" lon="3.81753">
        <ele>733</ele>
        <time>2024-12-08T03:31:57.619Z</time>
      </trkpt>
      <trkpt lat="45.90221" lon="3.81755">
        <ele>733</ele>
        <time>2024-12-08T03:31:58.620Z</time>
      </trkpt>
      <trkpt lat="45.90222" lon="3.81757">
        <ele>733</ele>
        <time>2024-12-08T03:31:59.620Z</time>
      </trkpt>
      <trkpt lat="45.90223" lon="3.81758">
        <ele>732</ele>
        <time>2024-12-08T03:32:00.619Z</time>
      </trkpt>
      <trkpt lat="45.90224" lon="3.8176">
        <ele>732</ele>
        <time>2024-12-08T03:32:01.619Z</time>
      </trkpt>
      <trkpt lat="45.90225" lon="3.81761">
        <ele>732</ele>
        <time>2024-12-08T03:32:02.619Z</time>
      </trkpt>
      <trkpt lat="45.90227" lon="3.81762">
        <ele>732</ele>
        <time>2024-12-08T03:32:03.620Z</time>
      </trkpt>
      <trkpt lat="45.90228" lon="3.81764">
        <ele>731</ele>
        <time>2024-12-08T03:32:04.620Z</time>
      </trkpt>
      <trkpt lat="45.90229" lon="3.81765">
        <ele>731</ele>
        <time>2024-12-08T03:32:05.619Z</time>
      </trkpt>
      <trkpt lat="45.90231" lon="3.81767">
        <ele>731</ele>
        <time>2024-12-08T03:32:06.619Z</time>
      </trkpt>
      <trkpt lat="45.90232" lon="3.81768">
        <ele>731</ele>
        <time>2024-12-08T03:32:07.619Z</time>
      </trkpt>
      <trkpt lat="45.90234" lon="3.8177">
        <ele>731</ele>
        <time>2024-12-08T03:32:08.619Z</time>
      </trkpt>
      <trkpt lat="45.90235" lon="3.81771">
        <ele>731</ele>
        <time>2024-12-08T03:32:09.620Z</time>
      </trkpt>
      <trkpt lat="45.90236" lon="3.81773">
        <ele>732</ele>
        <time>2024-12-08T03:32:10.620Z</time>
      </trkpt>
      <trkpt lat="45.90238" lon="3.81774">
        <ele>731</ele>
        <time>2024-12-08T03:32:11.619Z</time>
      </trkpt>
      <trkpt lat="45.90239" lon="3.81776">
        <ele>732</ele>
        <time>2024-12-08T03:32:12.619Z</time>
      </trkpt>
      <trkpt lat="45.9024" lon="3.81777">
        <ele>732</ele>
        <time>2024-12-08T03:32:13.620Z</time>
      </trkpt>
      <trkpt lat="45.90241" lon="3.81778">
        <ele>732</ele>
        <time>2024-12-08T03:32:14.620Z</time>
      </trkpt>
      <trkpt lat="45.90243" lon="3.8178">
        <ele>732</ele>
        <time>2024-12-08T03:32:15.619Z</time>
      </trkpt>
      <trkpt lat="45.90244" lon="3.81781">
        <ele>732</ele>
        <time>2024-12-08T03:32:16.620Z</time>
      </trkpt>
      <trkpt lat="45.90246" lon="3.81782">
        <ele>732</ele>
        <time>2024-12-08T03:32:17.620Z</time>
      </trkpt>
      <trkpt lat="45.90248" lon="3.81783">
        <ele>732</ele>
        <time>2024-12-08T03:32:18.619Z</time>
      </trkpt>
      <trkpt lat="45.90249" lon="3.81785">
        <ele>732</ele>
        <time>2024-12-08T03:32:19.620Z</time>
      </trkpt>
      <trkpt lat="45.90251" lon="3.81786">
        <ele>732</ele>
        <time>2024-12-08T03:32:20.619Z</time>
      </trkpt>
      <trkpt lat="45.90252" lon="3.81788">
        <ele>732</ele>
        <time>2024-12-08T03:32:21.619Z</time>
      </trkpt>
      <trkpt lat="45.90253" lon="3.8179">
        <ele>732</ele>
        <time>2024-12-08T03:32:22.619Z</time>
      </trkpt>
      <trkpt lat="45.90255" lon="3.81791">
        <ele>732</ele>
        <time>2024-12-08T03:32:23.619Z</time>
      </trkpt>
      <trkpt lat="45.90256" lon="3.81793">
        <ele>732</ele>
        <time>2024-12-08T03:32:24.620Z</time>
      </trkpt>
      <trkpt lat="45.90258" lon="3.81794">
        <ele>732</ele>
        <time>2024-12-08T03:32:25.619Z</time>
      </trkpt>
      <trkpt lat="45.90259" lon="3.81795">
        <ele>732</ele>
        <time>2024-12-08T03:32:26.620Z</time>
      </trkpt>
      <trkpt lat="45.9026" lon="3.81796">
        <ele>732</ele>
        <time>2024-12-08T03:32:27.619Z</time>
      </trkpt>
      <trkpt lat="45.90262" lon="3.81798">
        <ele>732</ele>
        <time>2024-12-08T03:32:28.619Z</time>
      </trkpt>
      <trkpt lat="45.90263" lon="3.81799">
        <ele>732</ele>
        <time>2024-12-08T03:32:29.619Z</time>
      </trkpt>
      <trkpt lat="45.90265" lon="3.818">
        <ele>732</ele>
        <time>2024-12-08T03:32:30.620Z</time>
      </trkpt>
      <trkpt lat="45.90266" lon="3.81802">
        <ele>732</ele>
        <time>2024-12-08T03:32:31.619Z</time>
      </trkpt>
      <trkpt lat="45.90268" lon="3.81803">
        <ele>732</ele>
        <time>2024-12-08T03:32:32.619Z</time>
      </trkpt>
      <trkpt lat="45.90269" lon="3.81805">
        <ele>732</ele>
        <time>2024-12-08T03:32:33.619Z</time>
      </trkpt>
      <trkpt lat="45.90271" lon="3.81806">
        <ele>732</ele>
        <time>2024-12-08T03:32:34.620Z</time>
      </trkpt>
      <trkpt lat="45.90272" lon="3.81807">
        <ele>731</ele>
        <time>2024-12-08T03:32:35.620Z</time>
      </trkpt>
      <trkpt lat="45.90274" lon="3.81809">
        <ele>731</ele>
        <time>2024-12-08T03:32:36.619Z</time>
      </trkpt>
      <trkpt lat="45.90275" lon="3.8181">
        <ele>731</ele>
        <time>2024-12-08T03:32:37.619Z</time>
      </trkpt>
      <trkpt lat="45.90277" lon="3.81811">
        <ele>732</ele>
        <time>2024-12-08T03:32:38.620Z</time>
      </trkpt>
      <trkpt lat="45.90278" lon="3.81812">
        <ele>732</ele>
        <time>2024-12-08T03:32:39.620Z</time>
      </trkpt>
      <trkpt lat="45.90279" lon="3.81814">
        <ele>732</ele>
        <time>2024-12-08T03:32:40.619Z</time>
      </trkpt>
      <trkpt lat="45.9028" lon="3.81815">
        <ele>732</ele>
        <time>2024-12-08T03:32:41.620Z</time>
      </trkpt>
      <trkpt lat="45.90281" lon="3.81816">
        <ele>732</ele>
        <time>2024-12-08T03:32:42.620Z</time>
      </trkpt>
      <trkpt lat="45.90282" lon="3.81818">
        <ele>732</ele>
        <time>2024-12-08T03:32:43.620Z</time>
      </trkpt>
      <trkpt lat="45.90284" lon="3.81819">
        <ele>732</ele>
        <time>2024-12-08T03:32:44.619Z</time>
      </trkpt>
      <trkpt lat="45.90285" lon="3.81821">
        <ele>732</ele>
        <time>2024-12-08T03:32:45.619Z</time>
      </trkpt>
      <trkpt lat="45.90286" lon="3.81822">
        <ele>732</ele>
        <time>2024-12-08T03:32:46.619Z</time>
      </trkpt>
      <trkpt lat="45.90288" lon="3.81823">
        <ele>731</ele>
        <time>2024-12-08T03:32:47.619Z</time>
      </trkpt>
      <trkpt lat="45.90289" lon="3.81825">
        <ele>731</ele>
        <time>2024-12-08T03:32:48.619Z</time>
      </trkpt>
      <trkpt lat="45.90291" lon="3.81827">
        <ele>731</ele>
        <time>2024-12-08T03:32:49.619Z</time>
      </trkpt>
      <trkpt lat="45.90292" lon="3.81828">
        <ele>731</ele>
        <time>2024-12-08T03:32:50.619Z</time>
      </trkpt>
      <trkpt lat="45.90293" lon="3.8183">
        <ele>731</ele>
        <time>2024-12-08T03:32:51.620Z</time>
      </trkpt>
      <trkpt lat="45.90295" lon="3.81831">
        <ele>730</ele>
        <time>2024-12-08T03:32:52.619Z</time>
      </trkpt>
      <trkpt lat="45.90296" lon="3.81832">
        <ele>730</ele>
        <time>2024-12-08T03:32:53.619Z</time>
      </trkpt>
      <trkpt lat="45.90297" lon="3.81834">
        <ele>730</ele>
        <time>2024-12-08T03:32:54.619Z</time>
      </trkpt>
      <trkpt lat="45.90299" lon="3.81835">
        <ele>731</ele>
        <time>2024-12-08T03:32:55.620Z</time>
      </trkpt>
      <trkpt lat="45.903" lon="3.81836">
        <ele>731</ele>
        <time>2024-12-08T03:32:56.619Z</time>
      </trkpt>
      <trkpt lat="45.90302" lon="3.81838">
        <ele>731</ele>
        <time>2024-12-08T03:32:57.619Z</time>
      </trkpt>
      <trkpt lat="45.90303" lon="3.8184">
        <ele>731</ele>
        <time>2024-12-08T03:32:58.619Z</time>
      </trkpt>
      <trkpt lat="45.90304" lon="3.81842">
        <ele>731</ele>
        <time>2024-12-08T03:32:59.620Z</time>
      </trkpt>
      <trkpt lat="45.90305" lon="3.81843">
        <ele>731</ele>
        <time>2024-12-08T03:33:00.620Z</time>
      </trkpt>
      <trkpt lat="45.90307" lon="3.81845">
        <ele>731</ele>
        <time>2024-12-08T03:33:01.619Z</time>
      </trkpt>
      <trkpt lat="45.90308" lon="3.81846">
        <ele>731</ele>
        <time>2024-12-08T03:33:02.619Z</time>
      </trkpt>
      <trkpt lat="45.9031" lon="3.81847">
        <ele>731</ele>
        <time>2024-12-08T03:33:03.620Z</time>
      </trkpt>
      <trkpt lat="45.90311" lon="3.81849">
        <ele>731</ele>
        <time>2024-12-08T03:33:04.620Z</time>
      </trkpt>
      <trkpt lat="45.90313" lon="3.8185">
        <ele>731</ele>
        <time>2024-12-08T03:33:05.619Z</time>
      </trkpt>
      <trkpt lat="45.90314" lon="3.81852">
        <ele>731</ele>
        <time>2024-12-08T03:33:06.619Z</time>
      </trkpt>
      <trkpt lat="45.90316" lon="3.81854">
        <ele>731</ele>
        <time>2024-12-08T03:33:07.619Z</time>
      </trkpt>
      <trkpt lat="45.90317" lon="3.81855">
        <ele>731</ele>
        <time>2024-12-08T03:33:08.620Z</time>
      </trkpt>
      <trkpt lat="45.90319" lon="3.81857">
        <ele>731</ele>
        <time>2024-12-08T03:33:09.619Z</time>
      </trkpt>
      <trkpt lat="45.9032" lon="3.81858">
        <ele>731</ele>
        <time>2024-12-08T03:33:10.619Z</time>
      </trkpt>
      <trkpt lat="45.90322" lon="3.8186">
        <ele>731</ele>
        <time>2024-12-08T03:33:11.619Z</time>
      </trkpt>
      <trkpt lat="45.90323" lon="3.81861">
        <ele>731</ele>
        <time>2024-12-08T03:33:12.620Z</time>
      </trkpt>
      <trkpt lat="45.90325" lon="3.81863">
        <ele>731</ele>
        <time>2024-12-08T03:33:13.620Z</time>
      </trkpt>
      <trkpt lat="45.90326" lon="3.81865">
        <ele>731</ele>
        <time>2024-12-08T03:33:14.619Z</time>
      </trkpt>
      <trkpt lat="45.90328" lon="3.81866">
        <ele>731</ele>
        <time>2024-12-08T03:33:15.619Z</time>
      </trkpt>
      <trkpt lat="45.90329" lon="3.81868">
        <ele>731</ele>
        <time>2024-12-08T03:33:16.620Z</time>
      </trkpt>
      <trkpt lat="45.90331" lon="3.8187">
        <ele>730</ele>
        <time>2024-12-08T03:33:17.620Z</time>
      </trkpt>
      <trkpt lat="45.90332" lon="3.81871">
        <ele>730</ele>
        <time>2024-12-08T03:33:18.619Z</time>
      </trkpt>
      <trkpt lat="45.90334" lon="3.81873">
        <ele>730</ele>
        <time>2024-12-08T03:33:19.619Z</time>
      </trkpt>
      <trkpt lat="45.90335" lon="3.81874">
        <ele>731</ele>
        <time>2024-12-08T03:33:20.620Z</time>
      </trkpt>
      <trkpt lat="45.90337" lon="3.81876">
        <ele>731</ele>
        <time>2024-12-08T03:33:21.620Z</time>
      </trkpt>
      <trkpt lat="45.90338" lon="3.81878">
        <ele>731</ele>
        <time>2024-12-08T03:33:22.620Z</time>
      </trkpt>
      <trkpt lat="45.90339" lon="3.8188">
        <ele>731</ele>
        <time>2024-12-08T03:33:23.620Z</time>
      </trkpt>
      <trkpt lat="45.90341" lon="3.81882">
        <ele>731</ele>
        <time>2024-12-08T03:33:24.620Z</time>
      </trkpt>
      <trkpt lat="45.90342" lon="3.81884">
        <ele>731</ele>
        <time>2024-12-08T03:33:25.620Z</time>
      </trkpt>
      <trkpt lat="45.90343" lon="3.81885">
        <ele>731</ele>
        <time>2024-12-08T03:33:26.619Z</time>
      </trkpt>
      <trkpt lat="45.90344" lon="3.81887">
        <ele>731</ele>
        <time>2024-12-08T03:33:27.620Z</time>
      </trkpt>
      <trkpt lat="45.90346" lon="3.81888">
        <ele>731</ele>
        <time>2024-12-08T03:33:28.620Z</time>
      </trkpt>
      <trkpt lat="45.90347" lon="3.8189">
        <ele>731</ele>
        <time>2024-12-08T03:33:29.620Z</time>
      </trkpt>
      <trkpt lat="45.90349" lon="3.81891">
        <ele>731</ele>
        <time>2024-12-08T03:33:30.619Z</time>
      </trkpt>
      <trkpt lat="45.9035" lon="3.81893">
        <ele>732</ele>
        <time>2024-12-08T03:33:31.620Z</time>
      </trkpt>
      <trkpt lat="45.90351" lon="3.81895">
        <ele>732</ele>
        <time>2024-12-08T03:33:32.619Z</time>
      </trkpt>
      <trkpt lat="45.90353" lon="3.81896">
        <ele>733</ele>
        <time>2024-12-08T03:33:33.619Z</time>
      </trkpt>
      <trkpt lat="45.90354" lon="3.81898">
        <ele>733</ele>
        <time>2024-12-08T03:33:34.620Z</time>
      </trkpt>
      <trkpt lat="45.90355" lon="3.81899">
        <ele>733</ele>
        <time>2024-12-08T03:33:35.620Z</time>
      </trkpt>
      <trkpt lat="45.90356" lon="3.81901">
        <ele>733</ele>
        <time>2024-12-08T03:33:36.620Z</time>
      </trkpt>
      <trkpt lat="45.90358" lon="3.81903">
        <ele>733</ele>
        <time>2024-12-08T03:33:37.619Z</time>
      </trkpt>
      <trkpt lat="45.90359" lon="3.81904">
        <ele>733</ele>
        <time>2024-12-08T03:33:38.620Z</time>
      </trkpt>
      <trkpt lat="45.9036" lon="3.81906">
        <ele>733</ele>
        <time>2024-12-08T03:33:39.620Z</time>
      </trkpt>
      <trkpt lat="45.90362" lon="3.81907">
        <ele>733</ele>
        <time>2024-12-08T03:33:40.619Z</time>
      </trkpt>
      <trkpt lat="45.90363" lon="3.81909">
        <ele>733</ele>
        <time>2024-12-08T03:33:41.619Z</time>
      </trkpt>
      <trkpt lat="45.90365" lon="3.81911">
        <ele>733</ele>
        <time>2024-12-08T03:33:42.619Z</time>
      </trkpt>
      <trkpt lat="45.90367" lon="3.81913">
        <ele>733</ele>
        <time>2024-12-08T03:33:43.619Z</time>
      </trkpt>
      <trkpt lat="45.90368" lon="3.81915">
        <ele>733</ele>
        <time>2024-12-08T03:33:44.619Z</time>
      </trkpt>
      <trkpt lat="45.90369" lon="3.81916">
        <ele>733</ele>
        <time>2024-12-08T03:33:45.619Z</time>
      </trkpt>
      <trkpt lat="45.90371" lon="3.81918">
        <ele>733</ele>
        <time>2024-12-08T03:33:46.619Z</time>
      </trkpt>
      <trkpt lat="45.90372" lon="3.81919">
        <ele>733</ele>
        <time>2024-12-08T03:33:47.619Z</time>
      </trkpt>
      <trkpt lat="45.90374" lon="3.81921">
        <ele>733</ele>
        <time>2024-12-08T03:33:48.620Z</time>
      </trkpt>
      <trkpt lat="45.90375" lon="3.81922">
        <ele>733</ele>
        <time>2024-12-08T03:33:49.619Z</time>
      </trkpt>
      <trkpt lat="45.90376" lon="3.81924">
        <ele>734</ele>
        <time>2024-12-08T03:33:50.619Z</time>
      </trkpt>
      <trkpt lat="45.90378" lon="3.81926">
        <ele>734</ele>
        <time>2024-12-08T03:33:51.619Z</time>
      </trkpt>
      <trkpt lat="45.90379" lon="3.81928">
        <ele>734</ele>
        <time>2024-12-08T03:33:52.620Z</time>
      </trkpt>
      <trkpt lat="45.9038" lon="3.81929">
        <ele>734</ele>
        <time>2024-12-08T03:33:53.620Z</time>
      </trkpt>
      <trkpt lat="45.90382" lon="3.81931">
        <ele>734</ele>
        <time>2024-12-08T03:33:54.620Z</time>
      </trkpt>
      <trkpt lat="45.90383" lon="3.81933">
        <ele>734</ele>
        <time>2024-12-08T03:33:55.619Z</time>
      </trkpt>
      <trkpt lat="45.90384" lon="3.81934">
        <ele>734</ele>
        <time>2024-12-08T03:33:56.619Z</time>
      </trkpt>
      <trkpt lat="45.90386" lon="3.81935">
        <ele>734</ele>
        <time>2024-12-08T03:33:57.619Z</time>
      </trkpt>
      <trkpt lat="45.90387" lon="3.81937">
        <ele>734</ele>
        <time>2024-12-08T03:33:58.619Z</time>
      </trkpt>
      <trkpt lat="45.90388" lon="3.81939">
        <ele>734</ele>
        <time>2024-12-08T03:33:59.620Z</time>
      </trkpt>
      <trkpt lat="45.9039" lon="3.8194">
        <ele>734</ele>
        <time>2024-12-08T03:34:00.620Z</time>
      </trkpt>
      <trkpt lat="45.90391" lon="3.81942">
        <ele>734</ele>
        <time>2024-12-08T03:34:01.620Z</time>
      </trkpt>
      <trkpt lat="45.90392" lon="3.81944">
        <ele>734</ele>
        <time>2024-12-08T03:34:02.619Z</time>
      </trkpt>
      <trkpt lat="45.90394" lon="3.81945">
        <ele>734</ele>
        <time>2024-12-08T03:34:03.619Z</time>
      </trkpt>
      <trkpt lat="45.90395" lon="3.81947">
        <ele>734</ele>
        <time>2024-12-08T03:34:04.619Z</time>
      </trkpt>
      <trkpt lat="45.90397" lon="3.81948">
        <ele>734</ele>
        <time>2024-12-08T03:34:05.620Z</time>
      </trkpt>
      <trkpt lat="45.90398" lon="3.8195">
        <ele>734</ele>
        <time>2024-12-08T03:34:06.619Z</time>
      </trkpt>
      <trkpt lat="45.90399" lon="3.81951">
        <ele>733</ele>
        <time>2024-12-08T03:34:07.620Z</time>
      </trkpt>
      <trkpt lat="45.90399" lon="3.81953">
        <ele>733</ele>
        <time>2024-12-08T03:34:08.620Z</time>
      </trkpt>
      <trkpt lat="45.90401" lon="3.81954">
        <ele>733</ele>
        <time>2024-12-08T03:34:09.619Z</time>
      </trkpt>
      <trkpt lat="45.90402" lon="3.81955">
        <ele>732</ele>
        <time>2024-12-08T03:34:10.619Z</time>
      </trkpt>
      <trkpt lat="45.90403" lon="3.81957">
        <ele>732</ele>
        <time>2024-12-08T03:34:11.619Z</time>
      </trkpt>
      <trkpt lat="45.90405" lon="3.81958">
        <ele>732</ele>
        <time>2024-12-08T03:34:12.620Z</time>
      </trkpt>
      <trkpt lat="45.90406" lon="3.8196">
        <ele>732</ele>
        <time>2024-12-08T03:34:13.620Z</time>
      </trkpt>
      <trkpt lat="45.90407" lon="3.81962">
        <ele>732</ele>
        <time>2024-12-08T03:34:14.619Z</time>
      </trkpt>
      <trkpt lat="45.90408" lon="3.81964">
        <ele>733</ele>
        <time>2024-12-08T03:34:15.620Z</time>
      </trkpt>
      <trkpt lat="45.9041" lon="3.81966">
        <ele>733</ele>
        <time>2024-12-08T03:34:16.620Z</time>
      </trkpt>
      <trkpt lat="45.90411" lon="3.81967">
        <ele>733</ele>
        <time>2024-12-08T03:34:17.620Z</time>
      </trkpt>
      <trkpt lat="45.90412" lon="3.81968">
        <ele>733</ele>
        <time>2024-12-08T03:34:18.619Z</time>
      </trkpt>
      <trkpt lat="45.90414" lon="3.81969">
        <ele>733</ele>
        <time>2024-12-08T03:34:19.620Z</time>
      </trkpt>
      <trkpt lat="45.90415" lon="3.81971">
        <ele>733</ele>
        <time>2024-12-08T03:34:20.620Z</time>
      </trkpt>
      <trkpt lat="45.90417" lon="3.81972">
        <ele>733</ele>
        <time>2024-12-08T03:34:21.620Z</time>
      </trkpt>
      <trkpt lat="45.90418" lon="3.81973">
        <ele>733</ele>
        <time>2024-12-08T03:34:22.620Z</time>
      </trkpt>
      <trkpt lat="45.9042" lon="3.81975">
        <ele>733</ele>
        <time>2024-12-08T03:34:23.620Z</time>
      </trkpt>
      <trkpt lat="45.90421" lon="3.81977">
        <ele>733</ele>
        <time>2024-12-08T03:34:24.620Z</time>
      </trkpt>
      <trkpt lat="45.90423" lon="3.81979">
        <ele>733</ele>
        <time>2024-12-08T03:34:25.620Z</time>
      </trkpt>
      <trkpt lat="45.90424" lon="3.8198">
        <ele>734</ele>
        <time>2024-12-08T03:34:26.620Z</time>
      </trkpt>
      <trkpt lat="45.90425" lon="3.81982">
        <ele>734</ele>
        <time>2024-12-08T03:34:27.619Z</time>
      </trkpt>
      <trkpt lat="45.90427" lon="3.81984">
        <ele>734</ele>
        <time>2024-12-08T03:34:28.619Z</time>
      </trkpt>
      <trkpt lat="45.90428" lon="3.81985">
        <ele>735</ele>
        <time>2024-12-08T03:34:29.620Z</time>
      </trkpt>
      <trkpt lat="45.90429" lon="3.81987">
        <ele>734</ele>
        <time>2024-12-08T03:34:30.620Z</time>
      </trkpt>
      <trkpt lat="45.90431" lon="3.81988">
        <ele>734</ele>
        <time>2024-12-08T03:34:31.620Z</time>
      </trkpt>
      <trkpt lat="45.90432" lon="3.81989">
        <ele>734</ele>
        <time>2024-12-08T03:34:32.620Z</time>
      </trkpt>
      <trkpt lat="45.90434" lon="3.8199">
        <ele>735</ele>
        <time>2024-12-08T03:34:33.619Z</time>
      </trkpt>
      <trkpt lat="45.90435" lon="3.81992">
        <ele>735</ele>
        <time>2024-12-08T03:34:34.620Z</time>
      </trkpt>
      <trkpt lat="45.90436" lon="3.81994">
        <ele>735</ele>
        <time>2024-12-08T03:34:35.620Z</time>
      </trkpt>
      <trkpt lat="45.90437" lon="3.81996">
        <ele>735</ele>
        <time>2024-12-08T03:34:36.620Z</time>
      </trkpt>
      <trkpt lat="45.90438" lon="3.81998">
        <ele>735</ele>
        <time>2024-12-08T03:34:37.619Z</time>
      </trkpt>
      <trkpt lat="45.9044" lon="3.81999">
        <ele>735</ele>
        <time>2024-12-08T03:34:38.620Z</time>
      </trkpt>
      <trkpt lat="45.90442" lon="3.82">
        <ele>735</ele>
        <time>2024-12-08T03:34:39.619Z</time>
      </trkpt>
      <trkpt lat="45.90443" lon="3.82002">
        <ele>735</ele>
        <time>2024-12-08T03:34:40.619Z</time>
      </trkpt>
      <trkpt lat="45.90444" lon="3.82003">
        <ele>735</ele>
        <time>2024-12-08T03:34:41.619Z</time>
      </trkpt>
      <trkpt lat="45.90446" lon="3.82005">
        <ele>735</ele>
        <time>2024-12-08T03:34:42.619Z</time>
      </trkpt>
      <trkpt lat="45.90447" lon="3.82006">
        <ele>736</ele>
        <time>2024-12-08T03:34:43.619Z</time>
      </trkpt>
      <trkpt lat="45.90448" lon="3.82007">
        <ele>736</ele>
        <time>2024-12-08T03:34:44.619Z</time>
      </trkpt>
      <trkpt lat="45.9045" lon="3.82009">
        <ele>736</ele>
        <time>2024-12-08T03:34:45.619Z</time>
      </trkpt>
      <trkpt lat="45.90451" lon="3.8201">
        <ele>736</ele>
        <time>2024-12-08T03:34:46.619Z</time>
      </trkpt>
      <trkpt lat="45.90452" lon="3.82011">
        <ele>736</ele>
        <time>2024-12-08T03:34:47.619Z</time>
      </trkpt>
      <trkpt lat="45.90454" lon="3.82012">
        <ele>736</ele>
        <time>2024-12-08T03:34:48.620Z</time>
      </trkpt>
      <trkpt lat="45.90455" lon="3.82013">
        <ele>736</ele>
        <time>2024-12-08T03:34:49.619Z</time>
      </trkpt>
      <trkpt lat="45.90457" lon="3.82015">
        <ele>736</ele>
        <time>2024-12-08T03:34:50.620Z</time>
      </trkpt>
      <trkpt lat="45.90458" lon="3.82016">
        <ele>736</ele>
        <time>2024-12-08T03:34:51.619Z</time>
      </trkpt>
      <trkpt lat="45.9046" lon="3.82017">
        <ele>736</ele>
        <time>2024-12-08T03:34:52.620Z</time>
      </trkpt>
      <trkpt lat="45.90461" lon="3.82018">
        <ele>736</ele>
        <time>2024-12-08T03:34:53.619Z</time>
      </trkpt>
      <trkpt lat="45.90463" lon="3.8202">
        <ele>736</ele>
        <time>2024-12-08T03:34:54.620Z</time>
      </trkpt>
      <trkpt lat="45.90464" lon="3.82022">
        <ele>736</ele>
        <time>2024-12-08T03:34:55.619Z</time>
      </trkpt>
      <trkpt lat="45.90465" lon="3.82023">
        <ele>735</ele>
        <time>2024-12-08T03:34:56.620Z</time>
      </trkpt>
      <trkpt lat="45.90466" lon="3.82025">
        <ele>735</ele>
        <time>2024-12-08T03:34:57.619Z</time>
      </trkpt>
      <trkpt lat="45.90468" lon="3.82026">
        <ele>735</ele>
        <time>2024-12-08T03:34:58.619Z</time>
      </trkpt>
      <trkpt lat="45.90469" lon="3.82028">
        <ele>735</ele>
        <time>2024-12-08T03:34:59.620Z</time>
      </trkpt>
      <trkpt lat="45.9047" lon="3.8203">
        <ele>735</ele>
        <time>2024-12-08T03:35:00.620Z</time>
      </trkpt>
      <trkpt lat="45.90471" lon="3.82031">
        <ele>735</ele>
        <time>2024-12-08T03:35:01.619Z</time>
      </trkpt>
      <trkpt lat="45.90472" lon="3.82032">
        <ele>735</ele>
        <time>2024-12-08T03:35:02.620Z</time>
      </trkpt>
      <trkpt lat="45.90473" lon="3.82034">
        <ele>735</ele>
        <time>2024-12-08T03:35:03.620Z</time>
      </trkpt>
      <trkpt lat="45.90474" lon="3.82035">
        <ele>735</ele>
        <time>2024-12-08T03:35:04.619Z</time>
      </trkpt>
      <trkpt lat="45.90476" lon="3.82036">
        <ele>735</ele>
        <time>2024-12-08T03:35:05.620Z</time>
      </trkpt>
      <trkpt lat="45.90477" lon="3.82038">
        <ele>735</ele>
        <time>2024-12-08T03:35:06.620Z</time>
      </trkpt>
      <trkpt lat="45.90479" lon="3.82039">
        <ele>735</ele>
        <time>2024-12-08T03:35:07.620Z</time>
      </trkpt>
      <trkpt lat="45.9048" lon="3.8204">
        <ele>735</ele>
        <time>2024-12-08T03:35:08.619Z</time>
      </trkpt>
      <trkpt lat="45.90482" lon="3.82041">
        <ele>735</ele>
        <time>2024-12-08T03:35:09.620Z</time>
      </trkpt>
      <trkpt lat="45.90484" lon="3.82042">
        <ele>736</ele>
        <time>2024-12-08T03:35:10.620Z</time>
      </trkpt>
      <trkpt lat="45.90485" lon="3.82044">
        <ele>736</ele>
        <time>2024-12-08T03:35:11.620Z</time>
      </trkpt>
      <trkpt lat="45.90487" lon="3.82045">
        <ele>736</ele>
        <time>2024-12-08T03:35:12.619Z</time>
      </trkpt>
      <trkpt lat="45.90488" lon="3.82047">
        <ele>736</ele>
        <time>2024-12-08T03:35:13.619Z</time>
      </trkpt>
      <trkpt lat="45.90489" lon="3.82048">
        <ele>736</ele>
        <time>2024-12-08T03:35:14.620Z</time>
      </trkpt>
      <trkpt lat="45.9049" lon="3.8205">
        <ele>736</ele>
        <time>2024-12-08T03:35:15.620Z</time>
      </trkpt>
      <trkpt lat="45.90492" lon="3.82052">
        <ele>736</ele>
        <time>2024-12-08T03:35:16.620Z</time>
      </trkpt>
      <trkpt lat="45.90493" lon="3.82053">
        <ele>736</ele>
        <time>2024-12-08T03:35:17.620Z</time>
      </trkpt>
      <trkpt lat="45.90494" lon="3.82055">
        <ele>736</ele>
        <time>2024-12-08T03:35:18.619Z</time>
      </trkpt>
      <trkpt lat="45.90495" lon="3.82057">
        <ele>736</ele>
        <time>2024-12-08T03:35:19.619Z</time>
      </trkpt>
      <trkpt lat="45.90496" lon="3.82059">
        <ele>736</ele>
        <time>2024-12-08T03:35:20.620Z</time>
      </trkpt>
      <trkpt lat="45.90497" lon="3.82061">
        <ele>736</ele>
        <time>2024-12-08T03:35:21.620Z</time>
      </trkpt>
      <trkpt lat="45.90498" lon="3.82063">
        <ele>736</ele>
        <time>2024-12-08T03:35:22.620Z</time>
      </trkpt>
      <trkpt lat="45.90498" lon="3.82065">
        <ele>735</ele>
        <time>2024-12-08T03:35:23.620Z</time>
      </trkpt>
      <trkpt lat="45.90499" lon="3.82067">
        <ele>735</ele>
        <time>2024-12-08T03:35:24.619Z</time>
      </trkpt>
      <trkpt lat="45.905" lon="3.82069">
        <ele>735</ele>
        <time>2024-12-08T03:35:25.620Z</time>
      </trkpt>
      <trkpt lat="45.90501" lon="3.82071">
        <ele>735</ele>
        <time>2024-12-08T03:35:26.619Z</time>
      </trkpt>
      <trkpt lat="45.90503" lon="3.82073">
        <ele>735</ele>
        <time>2024-12-08T03:35:27.620Z</time>
      </trkpt>
      <trkpt lat="45.90504" lon="3.82074">
        <ele>735</ele>
        <time>2024-12-08T03:35:28.620Z</time>
      </trkpt>
      <trkpt lat="45.90505" lon="3.82075">
        <ele>735</ele>
        <time>2024-12-08T03:35:29.620Z</time>
      </trkpt>
      <trkpt lat="45.90506" lon="3.82077">
        <ele>735</ele>
        <time>2024-12-08T03:35:30.619Z</time>
      </trkpt>
      <trkpt lat="45.90507" lon="3.82078">
        <ele>735</ele>
        <time>2024-12-08T03:35:31.620Z</time>
      </trkpt>
      <trkpt lat="45.90509" lon="3.8208">
        <ele>735</ele>
        <time>2024-12-08T03:35:32.619Z</time>
      </trkpt>
      <trkpt lat="45.9051" lon="3.82081">
        <ele>735</ele>
        <time>2024-12-08T03:35:33.620Z</time>
      </trkpt>
      <trkpt lat="45.90511" lon="3.82083">
        <ele>735</ele>
        <time>2024-12-08T03:35:34.619Z</time>
      </trkpt>
      <trkpt lat="45.90513" lon="3.82085">
        <ele>735</ele>
        <time>2024-12-08T03:35:35.619Z</time>
      </trkpt>
      <trkpt lat="45.90514" lon="3.82087">
        <ele>735</ele>
        <time>2024-12-08T03:35:36.619Z</time>
      </trkpt>
      <trkpt lat="45.90515" lon="3.82089">
        <ele>736</ele>
        <time>2024-12-08T03:35:37.619Z</time>
      </trkpt>
      <trkpt lat="45.90516" lon="3.82091">
        <ele>735</ele>
        <time>2024-12-08T03:35:38.620Z</time>
      </trkpt>
      <trkpt lat="45.90518" lon="3.82092">
        <ele>736</ele>
        <time>2024-12-08T03:35:39.620Z</time>
      </trkpt>
      <trkpt lat="45.90519" lon="3.82094">
        <ele>736</ele>
        <time>2024-12-08T03:35:40.620Z</time>
      </trkpt>
      <trkpt lat="45.9052" lon="3.82095">
        <ele>736</ele>
        <time>2024-12-08T03:35:41.620Z</time>
      </trkpt>
      <trkpt lat="45.90521" lon="3.82097">
        <ele>736</ele>
        <time>2024-12-08T03:35:42.619Z</time>
      </trkpt>
      <trkpt lat="45.90522" lon="3.82098">
        <ele>736</ele>
        <time>2024-12-08T03:35:43.619Z</time>
      </trkpt>
      <trkpt lat="45.90523" lon="3.821">
        <ele>736</ele>
        <time>2024-12-08T03:35:44.620Z</time>
      </trkpt>
      <trkpt lat="45.90525" lon="3.82101">
        <ele>736</ele>
        <time>2024-12-08T03:35:45.620Z</time>
      </trkpt>
      <trkpt lat="45.90526" lon="3.82102">
        <ele>736</ele>
        <time>2024-12-08T03:35:46.619Z</time>
      </trkpt>
      <trkpt lat="45.90527" lon="3.82104">
        <ele>736</ele>
        <time>2024-12-08T03:35:47.620Z</time>
      </trkpt>
      <trkpt lat="45.90529" lon="3.82105">
        <ele>736</ele>
        <time>2024-12-08T03:35:48.620Z</time>
      </trkpt>
      <trkpt lat="45.9053" lon="3.82106">
        <ele>736</ele>
        <time>2024-12-08T03:35:49.620Z</time>
      </trkpt>
      <trkpt lat="45.90532" lon="3.82108">
        <ele>736</ele>
        <time>2024-12-08T03:35:50.619Z</time>
      </trkpt>
      <trkpt lat="45.90533" lon="3.8211">
        <ele>736</ele>
        <time>2024-12-08T03:35:51.620Z</time>
      </trkpt>
      <trkpt lat="45.90535" lon="3.82111">
        <ele>737</ele>
        <time>2024-12-08T03:35:52.619Z</time>
      </trkpt>
      <trkpt lat="45.90536" lon="3.82113">
        <ele>737</ele>
        <time>2024-12-08T03:35:53.620Z</time>
      </trkpt>
      <trkpt lat="45.90537" lon="3.82114">
        <ele>737</ele>
        <time>2024-12-08T03:35:54.619Z</time>
      </trkpt>
      <trkpt lat="45.90538" lon="3.82115">
        <ele>736</ele>
        <time>2024-12-08T03:35:55.619Z</time>
      </trkpt>
      <trkpt lat="45.9054" lon="3.82117">
        <ele>736</ele>
        <time>2024-12-08T03:35:56.620Z</time>
      </trkpt>
      <trkpt lat="45.90541" lon="3.82118">
        <ele>736</ele>
        <time>2024-12-08T03:35:57.619Z</time>
      </trkpt>
      <trkpt lat="45.90542" lon="3.8212">
        <ele>736</ele>
        <time>2024-12-08T03:35:58.619Z</time>
      </trkpt>
      <trkpt lat="45.90543" lon="3.82122">
        <ele>736</ele>
        <time>2024-12-08T03:35:59.620Z</time>
      </trkpt>
      <trkpt lat="45.90544" lon="3.82123">
        <ele>737</ele>
        <time>2024-12-08T03:36:00.620Z</time>
      </trkpt>
      <trkpt lat="45.90545" lon="3.82125">
        <ele>737</ele>
        <time>2024-12-08T03:36:01.620Z</time>
      </trkpt>
      <trkpt lat="45.90546" lon="3.82126">
        <ele>737</ele>
        <time>2024-12-08T03:36:02.619Z</time>
      </trkpt>
      <trkpt lat="45.90547" lon="3.82127">
        <ele>736</ele>
        <time>2024-12-08T03:36:03.620Z</time>
      </trkpt>
      <trkpt lat="45.90548" lon="3.82129">
        <ele>736</ele>
        <time>2024-12-08T03:36:04.619Z</time>
      </trkpt>
      <trkpt lat="45.90549" lon="3.8213">
        <ele>736</ele>
        <time>2024-12-08T03:36:05.619Z</time>
      </trkpt>
      <trkpt lat="45.9055" lon="3.82132">
        <ele>736</ele>
        <time>2024-12-08T03:36:06.620Z</time>
      </trkpt>
      <trkpt lat="45.90551" lon="3.82133">
        <ele>736</ele>
        <time>2024-12-08T03:36:07.619Z</time>
      </trkpt>
      <trkpt lat="45.90553" lon="3.82134">
        <ele>736</ele>
        <time>2024-12-08T03:36:08.620Z</time>
      </trkpt>
      <trkpt lat="45.90554" lon="3.82135">
        <ele>736</ele>
        <time>2024-12-08T03:36:09.620Z</time>
      </trkpt>
      <trkpt lat="45.90556" lon="3.82137">
        <ele>736</ele>
        <time>2024-12-08T03:36:10.619Z</time>
      </trkpt>
      <trkpt lat="45.90557" lon="3.82138">
        <ele>736</ele>
        <time>2024-12-08T03:36:11.619Z</time>
      </trkpt>
      <trkpt lat="45.90559" lon="3.8214">
        <ele>737</ele>
        <time>2024-12-08T03:36:12.620Z</time>
      </trkpt>
      <trkpt lat="45.9056" lon="3.82142">
        <ele>736</ele>
        <time>2024-12-08T03:36:13.620Z</time>
      </trkpt>
      <trkpt lat="45.90561" lon="3.82144">
        <ele>736</ele>
        <time>2024-12-08T03:36:14.619Z</time>
      </trkpt>
      <trkpt lat="45.90563" lon="3.82146">
        <ele>736</ele>
        <time>2024-12-08T03:36:15.620Z</time>
      </trkpt>
      <trkpt lat="45.90564" lon="3.82148">
        <ele>737</ele>
        <time>2024-12-08T03:36:16.619Z</time>
      </trkpt>
      <trkpt lat="45.90565" lon="3.8215">
        <ele>737</ele>
        <time>2024-12-08T03:36:17.620Z</time>
      </trkpt>
      <trkpt lat="45.90566" lon="3.82151">
        <ele>737</ele>
        <time>2024-12-08T03:36:18.620Z</time>
      </trkpt>
      <trkpt lat="45.90567" lon="3.82153">
        <ele>737</ele>
        <time>2024-12-08T03:36:19.619Z</time>
      </trkpt>
      <trkpt lat="45.90569" lon="3.82154">
        <ele>737</ele>
        <time>2024-12-08T03:36:20.620Z</time>
      </trkpt>
      <trkpt lat="45.9057" lon="3.82155">
        <ele>737</ele>
        <time>2024-12-08T03:36:21.619Z</time>
      </trkpt>
      <trkpt lat="45.90571" lon="3.82156">
        <ele>737</ele>
        <time>2024-12-08T03:36:22.620Z</time>
      </trkpt>
      <trkpt lat="45.90572" lon="3.82158">
        <ele>737</ele>
        <time>2024-12-08T03:36:23.620Z</time>
      </trkpt>
      <trkpt lat="45.90573" lon="3.82159">
        <ele>737</ele>
        <time>2024-12-08T03:36:24.620Z</time>
      </trkpt>
      <trkpt lat="45.90575" lon="3.82161">
        <ele>737</ele>
        <time>2024-12-08T03:36:25.620Z</time>
      </trkpt>
      <trkpt lat="45.90577" lon="3.82163">
        <ele>737</ele>
        <time>2024-12-08T03:36:26.620Z</time>
      </trkpt>
      <trkpt lat="45.90579" lon="3.82164">
        <ele>737</ele>
        <time>2024-12-08T03:36:27.620Z</time>
      </trkpt>
      <trkpt lat="45.90581" lon="3.82166">
        <ele>737</ele>
        <time>2024-12-08T03:36:28.619Z</time>
      </trkpt>
      <trkpt lat="45.90583" lon="3.82167">
        <ele>738</ele>
        <time>2024-12-08T03:36:29.619Z</time>
      </trkpt>
      <trkpt lat="45.90585" lon="3.82169">
        <ele>738</ele>
        <time>2024-12-08T03:36:30.619Z</time>
      </trkpt>
      <trkpt lat="45.90586" lon="3.8217">
        <ele>739</ele>
        <time>2024-12-08T03:36:31.619Z</time>
      </trkpt>
      <trkpt lat="45.90588" lon="3.82172">
        <ele>739</ele>
        <time>2024-12-08T03:36:32.620Z</time>
      </trkpt>
      <trkpt lat="45.90589" lon="3.82174">
        <ele>739</ele>
        <time>2024-12-08T03:36:33.620Z</time>
      </trkpt>
      <trkpt lat="45.9059" lon="3.82176">
        <ele>739</ele>
        <time>2024-12-08T03:36:34.619Z</time>
      </trkpt>
      <trkpt lat="45.90591" lon="3.82178">
        <ele>740</ele>
        <time>2024-12-08T03:36:35.619Z</time>
      </trkpt>
      <trkpt lat="45.90593" lon="3.8218">
        <ele>740</ele>
        <time>2024-12-08T03:36:36.619Z</time>
      </trkpt>
      <trkpt lat="45.90595" lon="3.82182">
        <ele>740</ele>
        <time>2024-12-08T03:36:37.619Z</time>
      </trkpt>
      <trkpt lat="45.90597" lon="3.82183">
        <ele>740</ele>
        <time>2024-12-08T03:36:38.619Z</time>
      </trkpt>
      <trkpt lat="45.90599" lon="3.82184">
        <ele>740</ele>
        <time>2024-12-08T03:36:39.619Z</time>
      </trkpt>
      <trkpt lat="45.906" lon="3.82185">
        <ele>740</ele>
        <time>2024-12-08T03:36:40.620Z</time>
      </trkpt>
      <trkpt lat="45.90602" lon="3.82186">
        <ele>740</ele>
        <time>2024-12-08T03:36:41.619Z</time>
      </trkpt>
      <trkpt lat="45.90603" lon="3.82188">
        <ele>739</ele>
        <time>2024-12-08T03:36:42.620Z</time>
      </trkpt>
      <trkpt lat="45.90604" lon="3.82189">
        <ele>739</ele>
        <time>2024-12-08T03:36:43.619Z</time>
      </trkpt>
      <trkpt lat="45.90605" lon="3.8219">
        <ele>739</ele>
        <time>2024-12-08T03:36:44.620Z</time>
      </trkpt>
      <trkpt lat="45.90606" lon="3.82192">
        <ele>739</ele>
        <time>2024-12-08T03:36:45.619Z</time>
      </trkpt>
      <trkpt lat="45.90607" lon="3.82194">
        <ele>739</ele>
        <time>2024-12-08T03:36:46.619Z</time>
      </trkpt>
      <trkpt lat="45.90609" lon="3.82196">
        <ele>739</ele>
        <time>2024-12-08T03:36:47.620Z</time>
      </trkpt>
      <trkpt lat="45.9061" lon="3.82198">
        <ele>739</ele>
        <time>2024-12-08T03:36:48.620Z</time>
      </trkpt>
      <trkpt lat="45.90611" lon="3.822">
        <ele>739</ele>
        <time>2024-12-08T03:36:49.620Z</time>
      </trkpt>
      <trkpt lat="45.90613" lon="3.82201">
        <ele>738</ele>
        <time>2024-12-08T03:36:50.620Z</time>
      </trkpt>
      <trkpt lat="45.90614" lon="3.82203">
        <ele>738</ele>
        <time>2024-12-08T03:36:51.620Z</time>
      </trkpt>
      <trkpt lat="45.90615" lon="3.82205">
        <ele>738</ele>
        <time>2024-12-08T03:36:52.620Z</time>
      </trkpt>
      <trkpt lat="45.90616" lon="3.82207">
        <ele>738</ele>
        <time>2024-12-08T03:36:53.619Z</time>
      </trkpt>
      <trkpt lat="45.90617" lon="3.82208">
        <ele>738</ele>
        <time>2024-12-08T03:36:54.619Z</time>
      </trkpt>
      <trkpt lat="45.90618" lon="3.82209">
        <ele>738</ele>
        <time>2024-12-08T03:36:55.620Z</time>
      </trkpt>
      <trkpt lat="45.90619" lon="3.82211">
        <ele>738</ele>
        <time>2024-12-08T03:36:56.619Z</time>
      </trkpt>
      <trkpt lat="45.90621" lon="3.82212">
        <ele>738</ele>
        <time>2024-12-08T03:36:57.620Z</time>
      </trkpt>
      <trkpt lat="45.90622" lon="3.82214">
        <ele>738</ele>
        <time>2024-12-08T03:36:58.619Z</time>
      </trkpt>
      <trkpt lat="45.90623" lon="3.82216">
        <ele>738</ele>
        <time>2024-12-08T03:36:59.619Z</time>
      </trkpt>
      <trkpt lat="45.90625" lon="3.82217">
        <ele>738</ele>
        <time>2024-12-08T03:37:00.620Z</time>
      </trkpt>
      <trkpt lat="45.90626" lon="3.82219">
        <ele>738</ele>
        <time>2024-12-08T03:37:01.620Z</time>
      </trkpt>
      <trkpt lat="45.90628" lon="3.82221">
        <ele>738</ele>
        <time>2024-12-08T03:37:02.619Z</time>
      </trkpt>
      <trkpt lat="45.90629" lon="3.82222">
        <ele>738</ele>
        <time>2024-12-08T03:37:03.619Z</time>
      </trkpt>
      <trkpt lat="45.9063" lon="3.82224">
        <ele>737</ele>
        <time>2024-12-08T03:37:04.619Z</time>
      </trkpt>
      <trkpt lat="45.90631" lon="3.82226">
        <ele>737</ele>
        <time>2024-12-08T03:37:05.620Z</time>
      </trkpt>
      <trkpt lat="45.90632" lon="3.82227">
        <ele>737</ele>
        <time>2024-12-08T03:37:06.619Z</time>
      </trkpt>
      <trkpt lat="45.90634" lon="3.82229">
        <ele>737</ele>
        <time>2024-12-08T03:37:07.619Z</time>
      </trkpt>
      <trkpt lat="45.90635" lon="3.8223">
        <ele>737</ele>
        <time>2024-12-08T03:37:08.619Z</time>
      </trkpt>
      <trkpt lat="45.90636" lon="3.82232">
        <ele>737</ele>
        <time>2024-12-08T03:37:09.620Z</time>
      </trkpt>
      <trkpt lat="45.90638" lon="3.82234">
        <ele>737</ele>
        <time>2024-12-08T03:37:10.619Z</time>
      </trkpt>
      <trkpt lat="45.9064" lon="3.82235">
        <ele>737</ele>
        <time>2024-12-08T03:37:11.619Z</time>
      </trkpt>
      <trkpt lat="45.90641" lon="3.82236">
        <ele>736</ele>
        <time>2024-12-08T03:37:12.620Z</time>
      </trkpt>
      <trkpt lat="45.90642" lon="3.82238">
        <ele>736</ele>
        <time>2024-12-08T03:37:13.620Z</time>
      </trkpt>
      <trkpt lat="45.90644" lon="3.8224">
        <ele>736</ele>
        <time>2024-12-08T03:37:14.619Z</time>
      </trkpt>
      <trkpt lat="45.90645" lon="3.82241">
        <ele>736</ele>
        <time>2024-12-08T03:37:15.619Z</time>
      </trkpt>
      <trkpt lat="45.90646" lon="3.82243">
        <ele>736</ele>
        <time>2024-12-08T03:37:16.620Z</time>
      </trkpt>
      <trkpt lat="45.90648" lon="3.82244">
        <ele>736</ele>
        <time>2024-12-08T03:37:17.619Z</time>
      </trkpt>
      <trkpt lat="45.90649" lon="3.82246">
        <ele>736</ele>
        <time>2024-12-08T03:37:18.619Z</time>
      </trkpt>
      <trkpt lat="45.90651" lon="3.82248">
        <ele>736</ele>
        <time>2024-12-08T03:37:19.620Z</time>
      </trkpt>
      <trkpt lat="45.90652" lon="3.8225">
        <ele>735</ele>
        <time>2024-12-08T03:37:20.619Z</time>
      </trkpt>
      <trkpt lat="45.90654" lon="3.82251">
        <ele>735</ele>
        <time>2024-12-08T03:37:21.620Z</time>
      </trkpt>
      <trkpt lat="45.90655" lon="3.82253">
        <ele>735</ele>
        <time>2024-12-08T03:37:22.620Z</time>
      </trkpt>
      <trkpt lat="45.90656" lon="3.82255">
        <ele>735</ele>
        <time>2024-12-08T03:37:23.620Z</time>
      </trkpt>
      <trkpt lat="45.90657" lon="3.82256">
        <ele>734</ele>
        <time>2024-12-08T03:37:24.620Z</time>
      </trkpt>
      <trkpt lat="45.90659" lon="3.82258">
        <ele>734</ele>
        <time>2024-12-08T03:37:25.619Z</time>
      </trkpt>
      <trkpt lat="45.9066" lon="3.8226">
        <ele>734</ele>
        <time>2024-12-08T03:37:26.620Z</time>
      </trkpt>
      <trkpt lat="45.90661" lon="3.82262">
        <ele>733</ele>
        <time>2024-12-08T03:37:27.620Z</time>
      </trkpt>
      <trkpt lat="45.90662" lon="3.82263">
        <ele>733</ele>
        <time>2024-12-08T03:37:28.619Z</time>
      </trkpt>
      <trkpt lat="45.90663" lon="3.82265">
        <ele>732</ele>
        <time>2024-12-08T03:37:29.620Z</time>
      </trkpt>
      <trkpt lat="45.90665" lon="3.82268">
        <ele>732</ele>
        <time>2024-12-08T03:37:30.620Z</time>
      </trkpt>
      <trkpt lat="45.90666" lon="3.82269">
        <ele>732</ele>
        <time>2024-12-08T03:37:31.620Z</time>
      </trkpt>
      <trkpt lat="45.90668" lon="3.82271">
        <ele>731</ele>
        <time>2024-12-08T03:37:32.620Z</time>
      </trkpt>
      <trkpt lat="45.90669" lon="3.82272">
        <ele>731</ele>
        <time>2024-12-08T03:37:33.619Z</time>
      </trkpt>
      <trkpt lat="45.9067" lon="3.82273">
        <ele>731</ele>
        <time>2024-12-08T03:37:34.619Z</time>
      </trkpt>
      <trkpt lat="45.90671" lon="3.82275">
        <ele>731</ele>
        <time>2024-12-08T03:37:35.619Z</time>
      </trkpt>
      <trkpt lat="45.90673" lon="3.82277">
        <ele>731</ele>
        <time>2024-12-08T03:37:36.619Z</time>
      </trkpt>
      <trkpt lat="45.90674" lon="3.82278">
        <ele>731</ele>
        <time>2024-12-08T03:37:37.620Z</time>
      </trkpt>
      <trkpt lat="45.90676" lon="3.8228">
        <ele>731</ele>
        <time>2024-12-08T03:37:38.619Z</time>
      </trkpt>
      <trkpt lat="45.90677" lon="3.82282">
        <ele>731</ele>
        <time>2024-12-08T03:37:39.620Z</time>
      </trkpt>
      <trkpt lat="45.90678" lon="3.82284">
        <ele>731</ele>
        <time>2024-12-08T03:37:40.619Z</time>
      </trkpt>
      <trkpt lat="45.90679" lon="3.82285">
        <ele>730</ele>
        <time>2024-12-08T03:37:41.620Z</time>
      </trkpt>
      <trkpt lat="45.90681" lon="3.82287">
        <ele>730</ele>
        <time>2024-12-08T03:37:42.620Z</time>
      </trkpt>
      <trkpt lat="45.90682" lon="3.82288">
        <ele>730</ele>
        <time>2024-12-08T03:37:43.620Z</time>
      </trkpt>
      <trkpt lat="45.90684" lon="3.8229">
        <ele>730</ele>
        <time>2024-12-08T03:37:44.620Z</time>
      </trkpt>
      <trkpt lat="45.90685" lon="3.82291">
        <ele>730</ele>
        <time>2024-12-08T03:37:45.620Z</time>
      </trkpt>
      <trkpt lat="45.90687" lon="3.82293">
        <ele>730</ele>
        <time>2024-12-08T03:37:46.619Z</time>
      </trkpt>
      <trkpt lat="45.90688" lon="3.82295">
        <ele>730</ele>
        <time>2024-12-08T03:37:47.620Z</time>
      </trkpt>
      <trkpt lat="45.90689" lon="3.82297">
        <ele>730</ele>
        <time>2024-12-08T03:37:48.620Z</time>
      </trkpt>
      <trkpt lat="45.9069" lon="3.82298">
        <ele>730</ele>
        <time>2024-12-08T03:37:49.619Z</time>
      </trkpt>
      <trkpt lat="45.90691" lon="3.823">
        <ele>730</ele>
        <time>2024-12-08T03:37:50.619Z</time>
      </trkpt>
      <trkpt lat="45.90692" lon="3.82302">
        <ele>730</ele>
        <time>2024-12-08T03:37:51.619Z</time>
      </trkpt>
      <trkpt lat="45.90693" lon="3.82303">
        <ele>730</ele>
        <time>2024-12-08T03:37:52.619Z</time>
      </trkpt>
      <trkpt lat="45.90695" lon="3.82304">
        <ele>730</ele>
        <time>2024-12-08T03:37:53.620Z</time>
      </trkpt>
      <trkpt lat="45.90696" lon="3.82306">
        <ele>730</ele>
        <time>2024-12-08T03:37:54.620Z</time>
      </trkpt>
      <trkpt lat="45.90698" lon="3.82308">
        <ele>730</ele>
        <time>2024-12-08T03:37:55.620Z</time>
      </trkpt>
      <trkpt lat="45.90699" lon="3.82309">
        <ele>730</ele>
        <time>2024-12-08T03:37:56.620Z</time>
      </trkpt>
      <trkpt lat="45.90701" lon="3.82311">
        <ele>730</ele>
        <time>2024-12-08T03:37:57.619Z</time>
      </trkpt>
      <trkpt lat="45.90702" lon="3.82313">
        <ele>730</ele>
        <time>2024-12-08T03:37:58.620Z</time>
      </trkpt>
      <trkpt lat="45.90703" lon="3.82314">
        <ele>731</ele>
        <time>2024-12-08T03:37:59.620Z</time>
      </trkpt>
      <trkpt lat="45.90704" lon="3.82316">
        <ele>731</ele>
        <time>2024-12-08T03:38:00.619Z</time>
      </trkpt>
      <trkpt lat="45.90706" lon="3.82317">
        <ele>731</ele>
        <time>2024-12-08T03:38:01.619Z</time>
      </trkpt>
      <trkpt lat="45.90707" lon="3.82319">
        <ele>731</ele>
        <time>2024-12-08T03:38:02.620Z</time>
      </trkpt>
      <trkpt lat="45.90709" lon="3.8232">
        <ele>731</ele>
        <time>2024-12-08T03:38:03.619Z</time>
      </trkpt>
      <trkpt lat="45.90711" lon="3.82322">
        <ele>731</ele>
        <time>2024-12-08T03:38:04.619Z</time>
      </trkpt>
      <trkpt lat="45.90712" lon="3.82324">
        <ele>731</ele>
        <time>2024-12-08T03:38:05.620Z</time>
      </trkpt>
      <trkpt lat="45.90713" lon="3.82325">
        <ele>731</ele>
        <time>2024-12-08T03:38:06.619Z</time>
      </trkpt>
      <trkpt lat="45.90715" lon="3.82327">
        <ele>731</ele>
        <time>2024-12-08T03:38:07.620Z</time>
      </trkpt>
      <trkpt lat="45.90716" lon="3.82329">
        <ele>731</ele>
        <time>2024-12-08T03:38:08.620Z</time>
      </trkpt>
      <trkpt lat="45.90718" lon="3.8233">
        <ele>731</ele>
        <time>2024-12-08T03:38:09.619Z</time>
      </trkpt>
      <trkpt lat="45.90719" lon="3.82332">
        <ele>731</ele>
        <time>2024-12-08T03:38:10.620Z</time>
      </trkpt>
      <trkpt lat="45.9072" lon="3.82333">
        <ele>731</ele>
        <time>2024-12-08T03:38:11.620Z</time>
      </trkpt>
      <trkpt lat="45.90722" lon="3.82335">
        <ele>731</ele>
        <time>2024-12-08T03:38:12.620Z</time>
      </trkpt>
      <trkpt lat="45.90723" lon="3.82337">
        <ele>731</ele>
        <time>2024-12-08T03:38:13.620Z</time>
      </trkpt>
      <trkpt lat="45.90725" lon="3.82339">
        <ele>731</ele>
        <time>2024-12-08T03:38:14.620Z</time>
      </trkpt>
      <trkpt lat="45.90726" lon="3.82341">
        <ele>731</ele>
        <time>2024-12-08T03:38:15.620Z</time>
      </trkpt>
      <trkpt lat="45.90728" lon="3.82342">
        <ele>731</ele>
        <time>2024-12-08T03:38:16.620Z</time>
      </trkpt>
      <trkpt lat="45.90729" lon="3.82343">
        <ele>730</ele>
        <time>2024-12-08T03:38:17.619Z</time>
      </trkpt>
      <trkpt lat="45.9073" lon="3.82345">
        <ele>730</ele>
        <time>2024-12-08T03:38:18.619Z</time>
      </trkpt>
      <trkpt lat="45.90732" lon="3.82347">
        <ele>730</ele>
        <time>2024-12-08T03:38:19.619Z</time>
      </trkpt>
      <trkpt lat="45.90733" lon="3.82348">
        <ele>730</ele>
        <time>2024-12-08T03:38:20.620Z</time>
      </trkpt>
      <trkpt lat="45.90735" lon="3.8235">
        <ele>730</ele>
        <time>2024-12-08T03:38:21.619Z</time>
      </trkpt>
      <trkpt lat="45.90736" lon="3.82352">
        <ele>730</ele>
        <time>2024-12-08T03:38:22.620Z</time>
      </trkpt>
      <trkpt lat="45.90737" lon="3.82353">
        <ele>730</ele>
        <time>2024-12-08T03:38:23.619Z</time>
      </trkpt>
      <trkpt lat="45.90739" lon="3.82355">
        <ele>731</ele>
        <time>2024-12-08T03:38:24.619Z</time>
      </trkpt>
      <trkpt lat="45.9074" lon="3.82357">
        <ele>731</ele>
        <time>2024-12-08T03:38:25.620Z</time>
      </trkpt>
      <trkpt lat="45.90741" lon="3.82358">
        <ele>731</ele>
        <time>2024-12-08T03:38:26.620Z</time>
      </trkpt>
      <trkpt lat="45.90742" lon="3.8236">
        <ele>731</ele>
        <time>2024-12-08T03:38:27.619Z</time>
      </trkpt>
      <trkpt lat="45.90744" lon="3.82361">
        <ele>731</ele>
        <time>2024-12-08T03:38:28.619Z</time>
      </trkpt>
      <trkpt lat="45.90745" lon="3.82363">
        <ele>730</ele>
        <time>2024-12-08T03:38:29.620Z</time>
      </trkpt>
      <trkpt lat="45.90746" lon="3.82365">
        <ele>730</ele>
        <time>2024-12-08T03:38:30.619Z</time>
      </trkpt>
      <trkpt lat="45.90747" lon="3.82367">
        <ele>730</ele>
        <time>2024-12-08T03:38:31.620Z</time>
      </trkpt>
      <trkpt lat="45.90748" lon="3.82369">
        <ele>730</ele>
        <time>2024-12-08T03:38:32.619Z</time>
      </trkpt>
      <trkpt lat="45.90749" lon="3.82371">
        <ele>730</ele>
        <time>2024-12-08T03:38:33.620Z</time>
      </trkpt>
      <trkpt lat="45.90751" lon="3.82373">
        <ele>729</ele>
        <time>2024-12-08T03:38:34.620Z</time>
      </trkpt>
      <trkpt lat="45.90752" lon="3.82375">
        <ele>729</ele>
        <time>2024-12-08T03:38:35.620Z</time>
      </trkpt>
      <trkpt lat="45.90753" lon="3.82376">
        <ele>729</ele>
        <time>2024-12-08T03:38:36.619Z</time>
      </trkpt>
      <trkpt lat="45.90754" lon="3.82378">
        <ele>729</ele>
        <time>2024-12-08T03:38:37.620Z</time>
      </trkpt>
      <trkpt lat="45.90755" lon="3.8238">
        <ele>729</ele>
        <time>2024-12-08T03:38:38.620Z</time>
      </trkpt>
      <trkpt lat="45.90756" lon="3.82382">
        <ele>729</ele>
        <time>2024-12-08T03:38:39.620Z</time>
      </trkpt>
      <trkpt lat="45.90757" lon="3.82385">
        <ele>729</ele>
        <time>2024-12-08T03:38:40.619Z</time>
      </trkpt>
      <trkpt lat="45.90757" lon="3.82387">
        <ele>729</ele>
        <time>2024-12-08T03:38:41.620Z</time>
      </trkpt>
      <trkpt lat="45.90758" lon="3.8239">
        <ele>729</ele>
        <time>2024-12-08T03:38:42.619Z</time>
      </trkpt>
      <trkpt lat="45.90759" lon="3.82392">
        <ele>728</ele>
        <time>2024-12-08T03:38:43.619Z</time>
      </trkpt>
      <trkpt lat="45.90759" lon="3.82395">
        <ele>728</ele>
        <time>2024-12-08T03:38:44.620Z</time>
      </trkpt>
      <trkpt lat="45.9076" lon="3.82397">
        <ele>728</ele>
        <time>2024-12-08T03:38:45.620Z</time>
      </trkpt>
      <trkpt lat="45.9076" lon="3.82399">
        <ele>728</ele>
        <time>2024-12-08T03:38:46.620Z</time>
      </trkpt>
      <trkpt lat="45.9076" lon="3.82402">
        <ele>728</ele>
        <time>2024-12-08T03:38:47.620Z</time>
      </trkpt>
      <trkpt lat="45.90761" lon="3.82404">
        <ele>728</ele>
        <time>2024-12-08T03:38:48.619Z</time>
      </trkpt>
      <trkpt lat="45.90761" lon="3.82407">
        <ele>728</ele>
        <time>2024-12-08T03:38:49.619Z</time>
      </trkpt>
      <trkpt lat="45.90761" lon="3.82409">
        <ele>728</ele>
        <time>2024-12-08T03:38:50.619Z</time>
      </trkpt>
      <trkpt lat="45.9076" lon="3.82412">
        <ele>728</ele>
        <time>2024-12-08T03:38:51.619Z</time>
      </trkpt>
      <trkpt lat="45.9076" lon="3.82415">
        <ele>728</ele>
        <time>2024-12-08T03:38:52.620Z</time>
      </trkpt>
      <trkpt lat="45.9076" lon="3.82417">
        <ele>728</ele>
        <time>2024-12-08T03:38:53.619Z</time>
      </trkpt>
      <trkpt lat="45.90759" lon="3.8242">
        <ele>729</ele>
        <time>2024-12-08T03:38:54.619Z</time>
      </trkpt>
      <trkpt lat="45.90759" lon="3.82422">
        <ele>729</ele>
        <time>2024-12-08T03:38:55.620Z</time>
      </trkpt>
      <trkpt lat="45.90758" lon="3.82424">
        <ele>729</ele>
        <time>2024-12-08T03:38:56.619Z</time>
      </trkpt>
      <trkpt lat="45.90757" lon="3.82427">
        <ele>729</ele>
        <time>2024-12-08T03:38:57.620Z</time>
      </trkpt>
      <trkpt lat="45.90757" lon="3.82429">
        <ele>729</ele>
        <time>2024-12-08T03:38:58.619Z</time>
      </trkpt>
      <trkpt lat="45.90756" lon="3.82431">
        <ele>729</ele>
        <time>2024-12-08T03:38:59.619Z</time>
      </trkpt>
      <trkpt lat="45.90756" lon="3.82434">
        <ele>729</ele>
        <time>2024-12-08T03:39:00.620Z</time>
      </trkpt>
      <trkpt lat="45.90755" lon="3.82436">
        <ele>730</ele>
        <time>2024-12-08T03:39:01.619Z</time>
      </trkpt>
      <trkpt lat="45.90755" lon="3.82439">
        <ele>730</ele>
        <time>2024-12-08T03:39:02.620Z</time>
      </trkpt>
      <trkpt lat="45.90754" lon="3.82442">
        <ele>731</ele>
        <time>2024-12-08T03:39:03.619Z</time>
      </trkpt>
      <trkpt lat="45.90753" lon="3.82444">
        <ele>731</ele>
        <time>2024-12-08T03:39:04.619Z</time>
      </trkpt>
      <trkpt lat="45.90753" lon="3.82446">
        <ele>731</ele>
        <time>2024-12-08T03:39:05.620Z</time>
      </trkpt>
      <trkpt lat="45.90752" lon="3.82448">
        <ele>731</ele>
        <time>2024-12-08T03:39:06.619Z</time>
      </trkpt>
      <trkpt lat="45.90751" lon="3.8245">
        <ele>731</ele>
        <time>2024-12-08T03:39:07.619Z</time>
      </trkpt>
      <trkpt lat="45.9075" lon="3.82453">
        <ele>731</ele>
        <time>2024-12-08T03:39:08.619Z</time>
      </trkpt>
      <trkpt lat="45.90749" lon="3.82455">
        <ele>731</ele>
        <time>2024-12-08T03:39:09.619Z</time>
      </trkpt>
      <trkpt lat="45.90749" lon="3.82458">
        <ele>730</ele>
        <time>2024-12-08T03:39:10.619Z</time>
      </trkpt>
      <trkpt lat="45.90748" lon="3.8246">
        <ele>730</ele>
        <time>2024-12-08T03:39:11.619Z</time>
      </trkpt>
      <trkpt lat="45.90747" lon="3.82463">
        <ele>730</ele>
        <time>2024-12-08T03:39:12.620Z</time>
      </trkpt>
      <trkpt lat="45.90747" lon="3.82465">
        <ele>730</ele>
        <time>2024-12-08T03:39:13.619Z</time>
      </trkpt>
      <trkpt lat="45.90746" lon="3.82467">
        <ele>730</ele>
        <time>2024-12-08T03:39:14.620Z</time>
      </trkpt>
      <trkpt lat="45.90745" lon="3.82469">
        <ele>730</ele>
        <time>2024-12-08T03:39:15.619Z</time>
      </trkpt>
      <trkpt lat="45.90745" lon="3.82472">
        <ele>730</ele>
        <time>2024-12-08T03:39:16.619Z</time>
      </trkpt>
      <trkpt lat="45.90745" lon="3.82474">
        <ele>729</ele>
        <time>2024-12-08T03:39:17.619Z</time>
      </trkpt>
      <trkpt lat="45.90744" lon="3.82476">
        <ele>729</ele>
        <time>2024-12-08T03:39:18.619Z</time>
      </trkpt>
      <trkpt lat="45.90744" lon="3.82478">
        <ele>729</ele>
        <time>2024-12-08T03:39:19.620Z</time>
      </trkpt>
      <trkpt lat="45.90742" lon="3.82481">
        <ele>729</ele>
        <time>2024-12-08T03:39:20.619Z</time>
      </trkpt>
      <trkpt lat="45.90742" lon="3.82483">
        <ele>729</ele>
        <time>2024-12-08T03:39:21.619Z</time>
      </trkpt>
      <trkpt lat="45.90741" lon="3.82485">
        <ele>728</ele>
        <time>2024-12-08T03:39:22.620Z</time>
      </trkpt>
      <trkpt lat="45.9074" lon="3.82487">
        <ele>728</ele>
        <time>2024-12-08T03:39:23.620Z</time>
      </trkpt>
      <trkpt lat="45.90739" lon="3.82489">
        <ele>728</ele>
        <time>2024-12-08T03:39:24.619Z</time>
      </trkpt>
      <trkpt lat="45.90739" lon="3.8249">
        <ele>728</ele>
        <time>2024-12-08T03:39:25.620Z</time>
      </trkpt>
      <trkpt lat="45.90738" lon="3.82493">
        <ele>728</ele>
        <time>2024-12-08T03:39:26.620Z</time>
      </trkpt>
      <trkpt lat="45.90738" lon="3.82495">
        <ele>728</ele>
        <time>2024-12-08T03:39:27.620Z</time>
      </trkpt>
      <trkpt lat="45.90737" lon="3.82497">
        <ele>728</ele>
        <time>2024-12-08T03:39:28.619Z</time>
      </trkpt>
      <trkpt lat="45.90736" lon="3.82499">
        <ele>728</ele>
        <time>2024-12-08T03:39:29.620Z</time>
      </trkpt>
      <trkpt lat="45.90736" lon="3.82501">
        <ele>729</ele>
        <time>2024-12-08T03:39:30.619Z</time>
      </trkpt>
      <trkpt lat="45.90736" lon="3.82504">
        <ele>729</ele>
        <time>2024-12-08T03:39:31.620Z</time>
      </trkpt>
      <trkpt lat="45.90735" lon="3.82506">
        <ele>728</ele>
        <time>2024-12-08T03:39:32.620Z</time>
      </trkpt>
      <trkpt lat="45.90735" lon="3.82508">
        <ele>728</ele>
        <time>2024-12-08T03:39:33.619Z</time>
      </trkpt>
      <trkpt lat="45.90734" lon="3.82511">
        <ele>728</ele>
        <time>2024-12-08T03:39:34.620Z</time>
      </trkpt>
      <trkpt lat="45.90734" lon="3.82513">
        <ele>728</ele>
        <time>2024-12-08T03:39:35.620Z</time>
      </trkpt>
      <trkpt lat="45.90733" lon="3.82515">
        <ele>728</ele>
        <time>2024-12-08T03:39:36.619Z</time>
      </trkpt>
      <trkpt lat="45.90732" lon="3.82517">
        <ele>727</ele>
        <time>2024-12-08T03:39:37.620Z</time>
      </trkpt>
      <trkpt lat="45.90732" lon="3.8252">
        <ele>727</ele>
        <time>2024-12-08T03:39:38.619Z</time>
      </trkpt>
      <trkpt lat="45.90731" lon="3.82522">
        <ele>727</ele>
        <time>2024-12-08T03:39:39.620Z</time>
      </trkpt>
      <trkpt lat="45.9073" lon="3.82524">
        <ele>727</ele>
        <time>2024-12-08T03:39:40.619Z</time>
      </trkpt>
      <trkpt lat="45.90729" lon="3.82526">
        <ele>726</ele>
        <time>2024-12-08T03:39:41.620Z</time>
      </trkpt>
      <trkpt lat="45.90729" lon="3.82528">
        <ele>726</ele>
        <time>2024-12-08T03:39:42.620Z</time>
      </trkpt>
      <trkpt lat="45.90727" lon="3.82531">
        <ele>726</ele>
        <time>2024-12-08T03:39:43.619Z</time>
      </trkpt>
      <trkpt lat="45.90726" lon="3.82534">
        <ele>726</ele>
        <time>2024-12-08T03:39:44.619Z</time>
      </trkpt>
      <trkpt lat="45.90726" lon="3.82536">
        <ele>726</ele>
        <time>2024-12-08T03:39:45.619Z</time>
      </trkpt>
      <trkpt lat="45.90726" lon="3.82538">
        <ele>726</ele>
        <time>2024-12-08T03:39:46.620Z</time>
      </trkpt>
      <trkpt lat="45.90725" lon="3.82541">
        <ele>726</ele>
        <time>2024-12-08T03:39:47.620Z</time>
      </trkpt>
      <trkpt lat="45.90725" lon="3.82543">
        <ele>726</ele>
        <time>2024-12-08T03:39:48.619Z</time>
      </trkpt>
      <trkpt lat="45.90724" lon="3.82545">
        <ele>726</ele>
        <time>2024-12-08T03:39:49.620Z</time>
      </trkpt>
      <trkpt lat="45.90724" lon="3.82548">
        <ele>727</ele>
        <time>2024-12-08T03:39:50.620Z</time>
      </trkpt>
      <trkpt lat="45.90723" lon="3.8255">
        <ele>727</ele>
        <time>2024-12-08T03:39:51.620Z</time>
      </trkpt>
      <trkpt lat="45.90723" lon="3.82553">
        <ele>727</ele>
        <time>2024-12-08T03:39:52.620Z</time>
      </trkpt>
      <trkpt lat="45.90722" lon="3.82555">
        <ele>727</ele>
        <time>2024-12-08T03:39:53.620Z</time>
      </trkpt>
      <trkpt lat="45.90721" lon="3.82558">
        <ele>726</ele>
        <time>2024-12-08T03:39:54.619Z</time>
      </trkpt>
      <trkpt lat="45.90721" lon="3.8256">
        <ele>726</ele>
        <time>2024-12-08T03:39:55.619Z</time>
      </trkpt>
      <trkpt lat="45.9072" lon="3.82563">
        <ele>726</ele>
        <time>2024-12-08T03:39:56.619Z</time>
      </trkpt>
      <trkpt lat="45.9072" lon="3.82565">
        <ele>725</ele>
        <time>2024-12-08T03:39:57.620Z</time>
      </trkpt>
      <trkpt lat="45.90719" lon="3.82568">
        <ele>725</ele>
        <time>2024-12-08T03:39:58.619Z</time>
      </trkpt>
      <trkpt lat="45.90719" lon="3.82571">
        <ele>724</ele>
        <time>2024-12-08T03:39:59.620Z</time>
      </trkpt>
      <trkpt lat="45.90718" lon="3.82574">
        <ele>724</ele>
        <time>2024-12-08T03:40:00.620Z</time>
      </trkpt>
      <trkpt lat="45.90718" lon="3.82577">
        <ele>723</ele>
        <time>2024-12-08T03:40:01.620Z</time>
      </trkpt>
      <trkpt lat="45.90718" lon="3.8258">
        <ele>723</ele>
        <time>2024-12-08T03:40:02.620Z</time>
      </trkpt>
      <trkpt lat="45.90718" lon="3.82583">
        <ele>723</ele>
        <time>2024-12-08T03:40:03.620Z</time>
      </trkpt>
      <trkpt lat="45.90718" lon="3.82586">
        <ele>723</ele>
        <time>2024-12-08T03:40:04.620Z</time>
      </trkpt>
      <trkpt lat="45.90718" lon="3.82589">
        <ele>723</ele>
        <time>2024-12-08T03:40:05.619Z</time>
      </trkpt>
      <trkpt lat="45.90718" lon="3.82592">
        <ele>723</ele>
        <time>2024-12-08T03:40:06.619Z</time>
      </trkpt>
      <trkpt lat="45.90718" lon="3.82594">
        <ele>723</ele>
        <time>2024-12-08T03:40:07.620Z</time>
      </trkpt>
      <trkpt lat="45.90719" lon="3.82597">
        <ele>723</ele>
        <time>2024-12-08T03:40:08.619Z</time>
      </trkpt>
      <trkpt lat="45.90719" lon="3.826">
        <ele>723</ele>
        <time>2024-12-08T03:40:09.620Z</time>
      </trkpt>
      <trkpt lat="45.90719" lon="3.82602">
        <ele>723</ele>
        <time>2024-12-08T03:40:10.619Z</time>
      </trkpt>
      <trkpt lat="45.90719" lon="3.82605">
        <ele>723</ele>
        <time>2024-12-08T03:40:11.620Z</time>
      </trkpt>
      <trkpt lat="45.9072" lon="3.82607">
        <ele>723</ele>
        <time>2024-12-08T03:40:12.619Z</time>
      </trkpt>
      <trkpt lat="45.9072" lon="3.8261">
        <ele>723</ele>
        <time>2024-12-08T03:40:13.619Z</time>
      </trkpt>
      <trkpt lat="45.9072" lon="3.82612">
        <ele>723</ele>
        <time>2024-12-08T03:40:14.619Z</time>
      </trkpt>
      <trkpt lat="45.90721" lon="3.82614">
        <ele>723</ele>
        <time>2024-12-08T03:40:15.619Z</time>
      </trkpt>
      <trkpt lat="45.90722" lon="3.82617">
        <ele>722</ele>
        <time>2024-12-08T03:40:16.620Z</time>
      </trkpt>
      <trkpt lat="45.90723" lon="3.82619">
        <ele>722</ele>
        <time>2024-12-08T03:40:17.619Z</time>
      </trkpt>
      <trkpt lat="45.90723" lon="3.82622">
        <ele>722</ele>
        <time>2024-12-08T03:40:18.619Z</time>
      </trkpt>
      <trkpt lat="45.90723" lon="3.82625">
        <ele>722</ele>
        <time>2024-12-08T03:40:19.620Z</time>
      </trkpt>
      <trkpt lat="45.90723" lon="3.82628">
        <ele>722</ele>
        <time>2024-12-08T03:40:20.620Z</time>
      </trkpt>
      <trkpt lat="45.90724" lon="3.82631">
        <ele>722</ele>
        <time>2024-12-08T03:40:21.619Z</time>
      </trkpt>
      <trkpt lat="45.90724" lon="3.82634">
        <ele>722</ele>
        <time>2024-12-08T03:40:22.620Z</time>
      </trkpt>
      <trkpt lat="45.90724" lon="3.82636">
        <ele>722</ele>
        <time>2024-12-08T03:40:23.620Z</time>
      </trkpt>
      <trkpt lat="45.90725" lon="3.82638">
        <ele>722</ele>
        <time>2024-12-08T03:40:24.619Z</time>
      </trkpt>
      <trkpt lat="45.90725" lon="3.82641">
        <ele>722</ele>
        <time>2024-12-08T03:40:25.620Z</time>
      </trkpt>
      <trkpt lat="45.90726" lon="3.82643">
        <ele>722</ele>
        <time>2024-12-08T03:40:26.619Z</time>
      </trkpt>
      <trkpt lat="45.90726" lon="3.82646">
        <ele>722</ele>
        <time>2024-12-08T03:40:27.620Z</time>
      </trkpt>
      <trkpt lat="45.90726" lon="3.82649">
        <ele>722</ele>
        <time>2024-12-08T03:40:28.620Z</time>
      </trkpt>
      <trkpt lat="45.90726" lon="3.82651">
        <ele>721</ele>
        <time>2024-12-08T03:40:29.619Z</time>
      </trkpt>
      <trkpt lat="45.90726" lon="3.82654">
        <ele>721</ele>
        <time>2024-12-08T03:40:30.619Z</time>
      </trkpt>
      <trkpt lat="45.90727" lon="3.82657">
        <ele>721</ele>
        <time>2024-12-08T03:40:31.619Z</time>
      </trkpt>
      <trkpt lat="45.90727" lon="3.82659">
        <ele>720</ele>
        <time>2024-12-08T03:40:32.619Z</time>
      </trkpt>
      <trkpt lat="45.90728" lon="3.82661">
        <ele>720</ele>
        <time>2024-12-08T03:40:33.619Z</time>
      </trkpt>
      <trkpt lat="45.90728" lon="3.82664">
        <ele>720</ele>
        <time>2024-12-08T03:40:34.620Z</time>
      </trkpt>
      <trkpt lat="45.90729" lon="3.82666">
        <ele>719</ele>
        <time>2024-12-08T03:40:35.620Z</time>
      </trkpt>
      <trkpt lat="45.90729" lon="3.82669">
        <ele>719</ele>
        <time>2024-12-08T03:40:36.620Z</time>
      </trkpt>
      <trkpt lat="45.90729" lon="3.82672">
        <ele>719</ele>
        <time>2024-12-08T03:40:37.619Z</time>
      </trkpt>
      <trkpt lat="45.90729" lon="3.82674">
        <ele>719</ele>
        <time>2024-12-08T03:40:38.619Z</time>
      </trkpt>
      <trkpt lat="45.90729" lon="3.82677">
        <ele>719</ele>
        <time>2024-12-08T03:40:39.619Z</time>
      </trkpt>
      <trkpt lat="45.9073" lon="3.82679">
        <ele>718</ele>
        <time>2024-12-08T03:40:40.620Z</time>
      </trkpt>
      <trkpt lat="45.90731" lon="3.82682">
        <ele>718</ele>
        <time>2024-12-08T03:40:41.619Z</time>
      </trkpt>
      <trkpt lat="45.90731" lon="3.82684">
        <ele>718</ele>
        <time>2024-12-08T03:40:42.620Z</time>
      </trkpt>
      <trkpt lat="45.90732" lon="3.82686">
        <ele>718</ele>
        <time>2024-12-08T03:40:43.619Z</time>
      </trkpt>
      <trkpt lat="45.90733" lon="3.82688">
        <ele>718</ele>
        <time>2024-12-08T03:40:44.619Z</time>
      </trkpt>
      <trkpt lat="45.90734" lon="3.82691">
        <ele>718</ele>
        <time>2024-12-08T03:40:45.620Z</time>
      </trkpt>
      <trkpt lat="45.90735" lon="3.82693">
        <ele>718</ele>
        <time>2024-12-08T03:40:46.619Z</time>
      </trkpt>
      <trkpt lat="45.90736" lon="3.82695">
        <ele>718</ele>
        <time>2024-12-08T03:40:47.620Z</time>
      </trkpt>
      <trkpt lat="45.90737" lon="3.82698">
        <ele>717</ele>
        <time>2024-12-08T03:40:48.619Z</time>
      </trkpt>
      <trkpt lat="45.90737" lon="3.827">
        <ele>717</ele>
        <time>2024-12-08T03:40:49.620Z</time>
      </trkpt>
      <trkpt lat="45.90737" lon="3.82702">
        <ele>717</ele>
        <time>2024-12-08T03:40:50.620Z</time>
      </trkpt>
      <trkpt lat="45.90738" lon="3.82704">
        <ele>716</ele>
        <time>2024-12-08T03:40:51.620Z</time>
      </trkpt>
      <trkpt lat="45.90739" lon="3.82707">
        <ele>715</ele>
        <time>2024-12-08T03:40:52.620Z</time>
      </trkpt>
      <trkpt lat="45.9074" lon="3.82709">
        <ele>715</ele>
        <time>2024-12-08T03:40:53.619Z</time>
      </trkpt>
      <trkpt lat="45.90741" lon="3.82711">
        <ele>715</ele>
        <time>2024-12-08T03:40:54.619Z</time>
      </trkpt>
      <trkpt lat="45.90742" lon="3.82713">
        <ele>714</ele>
        <time>2024-12-08T03:40:55.619Z</time>
      </trkpt>
      <trkpt lat="45.90743" lon="3.82714">
        <ele>714</ele>
        <time>2024-12-08T03:40:56.620Z</time>
      </trkpt>
      <trkpt lat="45.90745" lon="3.82717">
        <ele>714</ele>
        <time>2024-12-08T03:40:57.619Z</time>
      </trkpt>
      <trkpt lat="45.90745" lon="3.82719">
        <ele>714</ele>
        <time>2024-12-08T03:40:58.619Z</time>
      </trkpt>
      <trkpt lat="45.90747" lon="3.8272">
        <ele>714</ele>
        <time>2024-12-08T03:40:59.620Z</time>
      </trkpt>
      <trkpt lat="45.90748" lon="3.82722">
        <ele>714</ele>
        <time>2024-12-08T03:41:00.620Z</time>
      </trkpt>
      <trkpt lat="45.9075" lon="3.82724">
        <ele>714</ele>
        <time>2024-12-08T03:41:01.619Z</time>
      </trkpt>
      <trkpt lat="45.90751" lon="3.82726">
        <ele>714</ele>
        <time>2024-12-08T03:41:02.619Z</time>
      </trkpt>
      <trkpt lat="45.90752" lon="3.82728">
        <ele>714</ele>
        <time>2024-12-08T03:41:03.620Z</time>
      </trkpt>
      <trkpt lat="45.90753" lon="3.8273">
        <ele>713</ele>
        <time>2024-12-08T03:41:04.620Z</time>
      </trkpt>
      <trkpt lat="45.90754" lon="3.82731">
        <ele>713</ele>
        <time>2024-12-08T03:41:05.619Z</time>
      </trkpt>
      <trkpt lat="45.90755" lon="3.82733">
        <ele>713</ele>
        <time>2024-12-08T03:41:06.619Z</time>
      </trkpt>
      <trkpt lat="45.90757" lon="3.82734">
        <ele>712</ele>
        <time>2024-12-08T03:41:07.619Z</time>
      </trkpt>
      <trkpt lat="45.90759" lon="3.82735">
        <ele>712</ele>
        <time>2024-12-08T03:41:08.619Z</time>
      </trkpt>
      <trkpt lat="45.9076" lon="3.82737">
        <ele>712</ele>
        <time>2024-12-08T03:41:09.620Z</time>
      </trkpt>
      <trkpt lat="45.90762" lon="3.82738">
        <ele>712</ele>
        <time>2024-12-08T03:41:10.620Z</time>
      </trkpt>
      <trkpt lat="45.90763" lon="3.8274">
        <ele>711</ele>
        <time>2024-12-08T03:41:11.620Z</time>
      </trkpt>
      <trkpt lat="45.90764" lon="3.82741">
        <ele>711</ele>
        <time>2024-12-08T03:41:12.619Z</time>
      </trkpt>
      <trkpt lat="45.90765" lon="3.82743">
        <ele>711</ele>
        <time>2024-12-08T03:41:13.620Z</time>
      </trkpt>
      <trkpt lat="45.90766" lon="3.82744">
        <ele>711</ele>
        <time>2024-12-08T03:41:14.619Z</time>
      </trkpt>
      <trkpt lat="45.90768" lon="3.82745">
        <ele>711</ele>
        <time>2024-12-08T03:41:15.619Z</time>
      </trkpt>
      <trkpt lat="45.90769" lon="3.82746">
        <ele>710</ele>
        <time>2024-12-08T03:41:16.619Z</time>
      </trkpt>
      <trkpt lat="45.9077" lon="3.82747">
        <ele>710</ele>
        <time>2024-12-08T03:41:17.619Z</time>
      </trkpt>
      <trkpt lat="45.90772" lon="3.82748">
        <ele>710</ele>
        <time>2024-12-08T03:41:18.619Z</time>
      </trkpt>
      <trkpt lat="45.90774" lon="3.82749">
        <ele>710</ele>
        <time>2024-12-08T03:41:19.619Z</time>
      </trkpt>
      <trkpt lat="45.90775" lon="3.8275">
        <ele>710</ele>
        <time>2024-12-08T03:41:20.620Z</time>
      </trkpt>
      <trkpt lat="45.90777" lon="3.8275">
        <ele>710</ele>
        <time>2024-12-08T03:41:21.619Z</time>
      </trkpt>
      <trkpt lat="45.90779" lon="3.8275">
        <ele>710</ele>
        <time>2024-12-08T03:41:22.619Z</time>
      </trkpt>
      <trkpt lat="45.90781" lon="3.8275">
        <ele>710</ele>
        <time>2024-12-08T03:41:23.619Z</time>
      </trkpt>
      <trkpt lat="45.90783" lon="3.82751">
        <ele>710</ele>
        <time>2024-12-08T03:41:24.619Z</time>
      </trkpt>
      <trkpt lat="45.90785" lon="3.82751">
        <ele>710</ele>
        <time>2024-12-08T03:41:25.620Z</time>
      </trkpt>
      <trkpt lat="45.90787" lon="3.82752">
        <ele>710</ele>
        <time>2024-12-08T03:41:26.619Z</time>
      </trkpt>
      <trkpt lat="45.90788" lon="3.82753">
        <ele>711</ele>
        <time>2024-12-08T03:41:27.620Z</time>
      </trkpt>
      <trkpt lat="45.9079" lon="3.82754">
        <ele>711</ele>
        <time>2024-12-08T03:41:28.620Z</time>
      </trkpt>
      <trkpt lat="45.90792" lon="3.82755">
        <ele>711</ele>
        <time>2024-12-08T03:41:29.620Z</time>
      </trkpt>
      <trkpt lat="45.90793" lon="3.82756">
        <ele>711</ele>
        <time>2024-12-08T03:41:30.619Z</time>
      </trkpt>
      <trkpt lat="45.90795" lon="3.82757">
        <ele>711</ele>
        <time>2024-12-08T03:41:31.620Z</time>
      </trkpt>
      <trkpt lat="45.90797" lon="3.82758">
        <ele>711</ele>
        <time>2024-12-08T03:41:32.619Z</time>
      </trkpt>
      <trkpt lat="45.90798" lon="3.82759">
        <ele>710</ele>
        <time>2024-12-08T03:41:33.620Z</time>
      </trkpt>
      <trkpt lat="45.90799" lon="3.8276">
        <ele>710</ele>
        <time>2024-12-08T03:41:34.620Z</time>
      </trkpt>
      <trkpt lat="45.90801" lon="3.82761">
        <ele>710</ele>
        <time>2024-12-08T03:41:35.619Z</time>
      </trkpt>
      <trkpt lat="45.90803" lon="3.82761">
        <ele>709</ele>
        <time>2024-12-08T03:41:36.619Z</time>
      </trkpt>
      <trkpt lat="45.90804" lon="3.82762">
        <ele>709</ele>
        <time>2024-12-08T03:41:37.620Z</time>
      </trkpt>
      <trkpt lat="45.90806" lon="3.82763">
        <ele>708</ele>
        <time>2024-12-08T03:41:38.620Z</time>
      </trkpt>
      <trkpt lat="45.90807" lon="3.82764">
        <ele>708</ele>
        <time>2024-12-08T03:41:39.620Z</time>
      </trkpt>
      <trkpt lat="45.90809" lon="3.82764">
        <ele>708</ele>
        <time>2024-12-08T03:41:40.619Z</time>
      </trkpt>
      <trkpt lat="45.90811" lon="3.82765">
        <ele>707</ele>
        <time>2024-12-08T03:41:41.619Z</time>
      </trkpt>
      <trkpt lat="45.90813" lon="3.82766">
        <ele>707</ele>
        <time>2024-12-08T03:41:42.619Z</time>
      </trkpt>
      <trkpt lat="45.90815" lon="3.82767">
        <ele>706</ele>
        <time>2024-12-08T03:41:43.619Z</time>
      </trkpt>
      <trkpt lat="45.90817" lon="3.82768">
        <ele>706</ele>
        <time>2024-12-08T03:41:44.619Z</time>
      </trkpt>
      <trkpt lat="45.90819" lon="3.82769">
        <ele>706</ele>
        <time>2024-12-08T03:41:45.620Z</time>
      </trkpt>
      <trkpt lat="45.90821" lon="3.8277">
        <ele>705</ele>
        <time>2024-12-08T03:41:46.620Z</time>
      </trkpt>
      <trkpt lat="45.90823" lon="3.82771">
        <ele>705</ele>
        <time>2024-12-08T03:41:47.620Z</time>
      </trkpt>
      <trkpt lat="45.90825" lon="3.82772">
        <ele>705</ele>
        <time>2024-12-08T03:41:48.619Z</time>
      </trkpt>
      <trkpt lat="45.90826" lon="3.82773">
        <ele>705</ele>
        <time>2024-12-08T03:41:49.620Z</time>
      </trkpt>
      <trkpt lat="45.90828" lon="3.82774">
        <ele>705</ele>
        <time>2024-12-08T03:41:50.619Z</time>
      </trkpt>
      <trkpt lat="45.9083" lon="3.82775">
        <ele>704</ele>
        <time>2024-12-08T03:41:51.619Z</time>
      </trkpt>
      <trkpt lat="45.90833" lon="3.82776">
        <ele>704</ele>
        <time>2024-12-08T03:41:52.619Z</time>
      </trkpt>
      <trkpt lat="45.90835" lon="3.82777">
        <ele>704</ele>
        <time>2024-12-08T03:41:53.619Z</time>
      </trkpt>
      <trkpt lat="45.90837" lon="3.82777">
        <ele>704</ele>
        <time>2024-12-08T03:41:54.620Z</time>
      </trkpt>
      <trkpt lat="45.90838" lon="3.82778">
        <ele>705</ele>
        <time>2024-12-08T03:41:55.619Z</time>
      </trkpt>
      <trkpt lat="45.9084" lon="3.82779">
        <ele>705</ele>
        <time>2024-12-08T03:41:56.620Z</time>
      </trkpt>
      <trkpt lat="45.90842" lon="3.8278">
        <ele>705</ele>
        <time>2024-12-08T03:41:57.619Z</time>
      </trkpt>
      <trkpt lat="45.90843" lon="3.82781">
        <ele>705</ele>
        <time>2024-12-08T03:41:58.620Z</time>
      </trkpt>
      <trkpt lat="45.90844" lon="3.82782">
        <ele>705</ele>
        <time>2024-12-08T03:41:59.620Z</time>
      </trkpt>
      <trkpt lat="45.90846" lon="3.82783">
        <ele>705</ele>
        <time>2024-12-08T03:42:00.619Z</time>
      </trkpt>
      <trkpt lat="45.90848" lon="3.82784">
        <ele>706</ele>
        <time>2024-12-08T03:42:01.619Z</time>
      </trkpt>
      <trkpt lat="45.9085" lon="3.82784">
        <ele>706</ele>
        <time>2024-12-08T03:42:02.620Z</time>
      </trkpt>
      <trkpt lat="45.90851" lon="3.82785">
        <ele>706</ele>
        <time>2024-12-08T03:42:03.620Z</time>
      </trkpt>
      <trkpt lat="45.90853" lon="3.82786">
        <ele>706</ele>
        <time>2024-12-08T03:42:04.619Z</time>
      </trkpt>
      <trkpt lat="45.90854" lon="3.82787">
        <ele>706</ele>
        <time>2024-12-08T03:42:05.620Z</time>
      </trkpt>
      <trkpt lat="45.90856" lon="3.82788">
        <ele>706</ele>
        <time>2024-12-08T03:42:06.619Z</time>
      </trkpt>
      <trkpt lat="45.90857" lon="3.82788">
        <ele>706</ele>
        <time>2024-12-08T03:42:07.619Z</time>
      </trkpt>
      <trkpt lat="45.90859" lon="3.82789">
        <ele>705</ele>
        <time>2024-12-08T03:42:08.620Z</time>
      </trkpt>
      <trkpt lat="45.90861" lon="3.8279">
        <ele>705</ele>
        <time>2024-12-08T03:42:09.619Z</time>
      </trkpt>
      <trkpt lat="45.90863" lon="3.82791">
        <ele>705</ele>
        <time>2024-12-08T03:42:10.620Z</time>
      </trkpt>
      <trkpt lat="45.90865" lon="3.82792">
        <ele>705</ele>
        <time>2024-12-08T03:42:11.620Z</time>
      </trkpt>
      <trkpt lat="45.90866" lon="3.82793">
        <ele>705</ele>
        <time>2024-12-08T03:42:12.619Z</time>
      </trkpt>
      <trkpt lat="45.90868" lon="3.82794">
        <ele>705</ele>
        <time>2024-12-08T03:42:13.620Z</time>
      </trkpt>
      <trkpt lat="45.90869" lon="3.82795">
        <ele>705</ele>
        <time>2024-12-08T03:42:14.619Z</time>
      </trkpt>
      <trkpt lat="45.90871" lon="3.82796">
        <ele>706</ele>
        <time>2024-12-08T03:42:15.619Z</time>
      </trkpt>
      <trkpt lat="45.90873" lon="3.82797">
        <ele>706</ele>
        <time>2024-12-08T03:42:16.619Z</time>
      </trkpt>
      <trkpt lat="45.90875" lon="3.82798">
        <ele>706</ele>
        <time>2024-12-08T03:42:17.619Z</time>
      </trkpt>
      <trkpt lat="45.90877" lon="3.82798">
        <ele>706</ele>
        <time>2024-12-08T03:42:18.620Z</time>
      </trkpt>
      <trkpt lat="45.90879" lon="3.82799">
        <ele>706</ele>
        <time>2024-12-08T03:42:19.619Z</time>
      </trkpt>
      <trkpt lat="45.90882" lon="3.82799">
        <ele>707</ele>
        <time>2024-12-08T03:42:20.620Z</time>
      </trkpt>
      <trkpt lat="45.90883" lon="3.828">
        <ele>707</ele>
        <time>2024-12-08T03:42:21.619Z</time>
      </trkpt>
      <trkpt lat="45.90886" lon="3.82801">
        <ele>707</ele>
        <time>2024-12-08T03:42:22.620Z</time>
      </trkpt>
      <trkpt lat="45.90888" lon="3.82801">
        <ele>707</ele>
        <time>2024-12-08T03:42:23.619Z</time>
      </trkpt>
      <trkpt lat="45.9089" lon="3.82802">
        <ele>707</ele>
        <time>2024-12-08T03:42:24.619Z</time>
      </trkpt>
      <trkpt lat="45.90892" lon="3.82802">
        <ele>707</ele>
        <time>2024-12-08T03:42:25.619Z</time>
      </trkpt>
      <trkpt lat="45.90893" lon="3.82803">
        <ele>707</ele>
        <time>2024-12-08T03:42:26.619Z</time>
      </trkpt>
      <trkpt lat="45.90894" lon="3.82804">
        <ele>708</ele>
        <time>2024-12-08T03:42:27.619Z</time>
      </trkpt>
      <trkpt lat="45.90895" lon="3.82806">
        <ele>708</ele>
        <time>2024-12-08T03:42:28.620Z</time>
      </trkpt>
      <trkpt lat="45.90898" lon="3.82807">
        <ele>708</ele>
        <time>2024-12-08T03:42:29.619Z</time>
      </trkpt>
      <trkpt lat="45.90899" lon="3.82808">
        <ele>708</ele>
        <time>2024-12-08T03:42:30.620Z</time>
      </trkpt>
      <trkpt lat="45.909" lon="3.82809">
        <ele>708</ele>
        <time>2024-12-08T03:42:31.620Z</time>
      </trkpt>
      <trkpt lat="45.90901" lon="3.8281">
        <ele>708</ele>
        <time>2024-12-08T03:42:32.619Z</time>
      </trkpt>
      <trkpt lat="45.90903" lon="3.82811">
        <ele>708</ele>
        <time>2024-12-08T03:42:33.619Z</time>
      </trkpt>
      <trkpt lat="45.90903" lon="3.82812">
        <ele>708</ele>
        <time>2024-12-08T03:42:34.619Z</time>
      </trkpt>
      <trkpt lat="45.90905" lon="3.82813">
        <ele>707</ele>
        <time>2024-12-08T03:42:35.619Z</time>
      </trkpt>
      <trkpt lat="45.90907" lon="3.82814">
        <ele>707</ele>
        <time>2024-12-08T03:42:36.619Z</time>
      </trkpt>
      <trkpt lat="45.90909" lon="3.82815">
        <ele>707</ele>
        <time>2024-12-08T03:42:37.620Z</time>
      </trkpt>
      <trkpt lat="45.90912" lon="3.82816">
        <ele>707</ele>
        <time>2024-12-08T03:42:38.620Z</time>
      </trkpt>
      <trkpt lat="45.90913" lon="3.82817">
        <ele>707</ele>
        <time>2024-12-08T03:42:39.620Z</time>
      </trkpt>
      <trkpt lat="45.90915" lon="3.82818">
        <ele>707</ele>
        <time>2024-12-08T03:42:40.619Z</time>
      </trkpt>
      <trkpt lat="45.90917" lon="3.82819">
        <ele>706</ele>
        <time>2024-12-08T03:42:41.619Z</time>
      </trkpt>
      <trkpt lat="45.90919" lon="3.82819">
        <ele>706</ele>
        <time>2024-12-08T03:42:42.619Z</time>
      </trkpt>
      <trkpt lat="45.90921" lon="3.8282">
        <ele>706</ele>
        <time>2024-12-08T03:42:43.620Z</time>
      </trkpt>
      <trkpt lat="45.90924" lon="3.82821">
        <ele>705</ele>
        <time>2024-12-08T03:42:44.619Z</time>
      </trkpt>
      <trkpt lat="45.90926" lon="3.82822">
        <ele>705</ele>
        <time>2024-12-08T03:42:45.619Z</time>
      </trkpt>
      <trkpt lat="45.90928" lon="3.82824">
        <ele>705</ele>
        <time>2024-12-08T03:42:46.619Z</time>
      </trkpt>
      <trkpt lat="45.9093" lon="3.82825">
        <ele>704</ele>
        <time>2024-12-08T03:42:47.619Z</time>
      </trkpt>
      <trkpt lat="45.90932" lon="3.82825">
        <ele>704</ele>
        <time>2024-12-08T03:42:48.620Z</time>
      </trkpt>
      <trkpt lat="45.90933" lon="3.82827">
        <ele>704</ele>
        <time>2024-12-08T03:42:49.620Z</time>
      </trkpt>
      <trkpt lat="45.90935" lon="3.82828">
        <ele>703</ele>
        <time>2024-12-08T03:42:50.619Z</time>
      </trkpt>
      <trkpt lat="45.90936" lon="3.82829">
        <ele>703</ele>
        <time>2024-12-08T03:42:51.620Z</time>
      </trkpt>
      <trkpt lat="45.90938" lon="3.8283">
        <ele>702</ele>
        <time>2024-12-08T03:42:52.620Z</time>
      </trkpt>
      <trkpt lat="45.90939" lon="3.82831">
        <ele>701</ele>
        <time>2024-12-08T03:42:53.619Z</time>
      </trkpt>
      <trkpt lat="45.90942" lon="3.82832">
        <ele>701</ele>
        <time>2024-12-08T03:42:54.619Z</time>
      </trkpt>
      <trkpt lat="45.90944" lon="3.82833">
        <ele>700</ele>
        <time>2024-12-08T03:42:55.619Z</time>
      </trkpt>
      <trkpt lat="45.90946" lon="3.82834">
        <ele>700</ele>
        <time>2024-12-08T03:42:56.619Z</time>
      </trkpt>
      <trkpt lat="45.90949" lon="3.82835">
        <ele>700</ele>
        <time>2024-12-08T03:42:57.619Z</time>
      </trkpt>
      <trkpt lat="45.90951" lon="3.82836">
        <ele>699</ele>
        <time>2024-12-08T03:42:58.620Z</time>
      </trkpt>
      <trkpt lat="45.90953" lon="3.82837">
        <ele>699</ele>
        <time>2024-12-08T03:42:59.620Z</time>
      </trkpt>
      <trkpt lat="45.90955" lon="3.82837">
        <ele>698</ele>
        <time>2024-12-08T03:43:00.620Z</time>
      </trkpt>
      <trkpt lat="45.90956" lon="3.82838">
        <ele>698</ele>
        <time>2024-12-08T03:43:01.619Z</time>
      </trkpt>
      <trkpt lat="45.90958" lon="3.82839">
        <ele>697</ele>
        <time>2024-12-08T03:43:02.619Z</time>
      </trkpt>
      <trkpt lat="45.90959" lon="3.8284">
        <ele>697</ele>
        <time>2024-12-08T03:43:03.620Z</time>
      </trkpt>
      <trkpt lat="45.90961" lon="3.82842">
        <ele>696</ele>
        <time>2024-12-08T03:43:04.620Z</time>
      </trkpt>
      <trkpt lat="45.90963" lon="3.82843">
        <ele>696</ele>
        <time>2024-12-08T03:43:05.619Z</time>
      </trkpt>
      <trkpt lat="45.90964" lon="3.82845">
        <ele>696</ele>
        <time>2024-12-08T03:43:06.620Z</time>
      </trkpt>
      <trkpt lat="45.90966" lon="3.82846">
        <ele>695</ele>
        <time>2024-12-08T03:43:07.620Z</time>
      </trkpt>
      <trkpt lat="45.90968" lon="3.82847">
        <ele>695</ele>
        <time>2024-12-08T03:43:08.620Z</time>
      </trkpt>
      <trkpt lat="45.9097" lon="3.82849">
        <ele>695</ele>
        <time>2024-12-08T03:43:09.619Z</time>
      </trkpt>
      <trkpt lat="45.90971" lon="3.8285">
        <ele>694</ele>
        <time>2024-12-08T03:43:10.620Z</time>
      </trkpt>
      <trkpt lat="45.90973" lon="3.82851">
        <ele>693</ele>
        <time>2024-12-08T03:43:11.619Z</time>
      </trkpt>
      <trkpt lat="45.90974" lon="3.82853">
        <ele>693</ele>
        <time>2024-12-08T03:43:12.620Z</time>
      </trkpt>
      <trkpt lat="45.90976" lon="3.82854">
        <ele>692</ele>
        <time>2024-12-08T03:43:13.620Z</time>
      </trkpt>
      <trkpt lat="45.90977" lon="3.82856">
        <ele>692</ele>
        <time>2024-12-08T03:43:14.620Z</time>
      </trkpt>
      <trkpt lat="45.90979" lon="3.82857">
        <ele>691</ele>
        <time>2024-12-08T03:43:15.620Z</time>
      </trkpt>
      <trkpt lat="45.9098" lon="3.82858">
        <ele>690</ele>
        <time>2024-12-08T03:43:16.620Z</time>
      </trkpt>
      <trkpt lat="45.90982" lon="3.8286">
        <ele>690</ele>
        <time>2024-12-08T03:43:17.619Z</time>
      </trkpt>
      <trkpt lat="45.90984" lon="3.82861">
        <ele>689</ele>
        <time>2024-12-08T03:43:18.620Z</time>
      </trkpt>
      <trkpt lat="45.90986" lon="3.82863">
        <ele>689</ele>
        <time>2024-12-08T03:43:19.620Z</time>
      </trkpt>
      <trkpt lat="45.90987" lon="3.82864">
        <ele>688</ele>
        <time>2024-12-08T03:43:20.619Z</time>
      </trkpt>
      <trkpt lat="45.90989" lon="3.82866">
        <ele>688</ele>
        <time>2024-12-08T03:43:21.620Z</time>
      </trkpt>
      <trkpt lat="45.9099" lon="3.82867">
        <ele>687</ele>
        <time>2024-12-08T03:43:22.619Z</time>
      </trkpt>
      <trkpt lat="45.90992" lon="3.82869">
        <ele>687</ele>
        <time>2024-12-08T03:43:23.619Z</time>
      </trkpt>
      <trkpt lat="45.90994" lon="3.82871">
        <ele>686</ele>
        <time>2024-12-08T03:43:24.619Z</time>
      </trkpt>
      <trkpt lat="45.90996" lon="3.82873">
        <ele>686</ele>
        <time>2024-12-08T03:43:25.620Z</time>
      </trkpt>
      <trkpt lat="45.90997" lon="3.82874">
        <ele>686</ele>
        <time>2024-12-08T03:43:26.620Z</time>
      </trkpt>
      <trkpt lat="45.90998" lon="3.82876">
        <ele>685</ele>
        <time>2024-12-08T03:43:27.620Z</time>
      </trkpt>
      <trkpt lat="45.91" lon="3.82878">
        <ele>685</ele>
        <time>2024-12-08T03:43:28.620Z</time>
      </trkpt>
      <trkpt lat="45.91002" lon="3.8288">
        <ele>685</ele>
        <time>2024-12-08T03:43:29.620Z</time>
      </trkpt>
      <trkpt lat="45.91004" lon="3.82882">
        <ele>685</ele>
        <time>2024-12-08T03:43:30.620Z</time>
      </trkpt>
      <trkpt lat="45.91006" lon="3.82883">
        <ele>685</ele>
        <time>2024-12-08T03:43:31.619Z</time>
      </trkpt>
      <trkpt lat="45.91007" lon="3.82885">
        <ele>684</ele>
        <time>2024-12-08T03:43:32.620Z</time>
      </trkpt>
      <trkpt lat="45.91009" lon="3.82886">
        <ele>684</ele>
        <time>2024-12-08T03:43:33.619Z</time>
      </trkpt>
      <trkpt lat="45.91011" lon="3.82888">
        <ele>684</ele>
        <time>2024-12-08T03:43:34.620Z</time>
      </trkpt>
      <trkpt lat="45.91013" lon="3.82889">
        <ele>684</ele>
        <time>2024-12-08T03:43:35.619Z</time>
      </trkpt>
      <trkpt lat="45.91014" lon="3.8289">
        <ele>683</ele>
        <time>2024-12-08T03:43:36.619Z</time>
      </trkpt>
      <trkpt lat="45.91016" lon="3.82892">
        <ele>683</ele>
        <time>2024-12-08T03:43:37.619Z</time>
      </trkpt>
      <trkpt lat="45.91017" lon="3.82894">
        <ele>683</ele>
        <time>2024-12-08T03:43:38.620Z</time>
      </trkpt>
      <trkpt lat="45.91018" lon="3.82896">
        <ele>683</ele>
        <time>2024-12-08T03:43:39.620Z</time>
      </trkpt>
      <trkpt lat="45.9102" lon="3.82898">
        <ele>683</ele>
        <time>2024-12-08T03:43:40.620Z</time>
      </trkpt>
      <trkpt lat="45.91021" lon="3.829">
        <ele>683</ele>
        <time>2024-12-08T03:43:41.620Z</time>
      </trkpt>
      <trkpt lat="45.91023" lon="3.82902">
        <ele>683</ele>
        <time>2024-12-08T03:43:42.619Z</time>
      </trkpt>
      <trkpt lat="45.91024" lon="3.82904">
        <ele>683</ele>
        <time>2024-12-08T03:43:43.619Z</time>
      </trkpt>
      <trkpt lat="45.91026" lon="3.82906">
        <ele>683</ele>
        <time>2024-12-08T03:43:44.619Z</time>
      </trkpt>
      <trkpt lat="45.91027" lon="3.82908">
        <ele>683</ele>
        <time>2024-12-08T03:43:45.619Z</time>
      </trkpt>
      <trkpt lat="45.9103" lon="3.82909">
        <ele>683</ele>
        <time>2024-12-08T03:43:46.619Z</time>
      </trkpt>
      <trkpt lat="45.91031" lon="3.82911">
        <ele>683</ele>
        <time>2024-12-08T03:43:47.619Z</time>
      </trkpt>
      <trkpt lat="45.91033" lon="3.82913">
        <ele>683</ele>
        <time>2024-12-08T03:43:48.619Z</time>
      </trkpt>
      <trkpt lat="45.91034" lon="3.82914">
        <ele>683</ele>
        <time>2024-12-08T03:43:49.620Z</time>
      </trkpt>
      <trkpt lat="45.91036" lon="3.82916">
        <ele>682</ele>
        <time>2024-12-08T03:43:50.619Z</time>
      </trkpt>
      <trkpt lat="45.91037" lon="3.82918">
        <ele>682</ele>
        <time>2024-12-08T03:43:51.619Z</time>
      </trkpt>
      <trkpt lat="45.91039" lon="3.82919">
        <ele>682</ele>
        <time>2024-12-08T03:43:52.619Z</time>
      </trkpt>
      <trkpt lat="45.9104" lon="3.82921">
        <ele>681</ele>
        <time>2024-12-08T03:43:53.619Z</time>
      </trkpt>
      <trkpt lat="45.91043" lon="3.82923">
        <ele>681</ele>
        <time>2024-12-08T03:43:54.619Z</time>
      </trkpt>
      <trkpt lat="45.91045" lon="3.82925">
        <ele>680</ele>
        <time>2024-12-08T03:43:55.619Z</time>
      </trkpt>
      <trkpt lat="45.91046" lon="3.82928">
        <ele>680</ele>
        <time>2024-12-08T03:43:56.619Z</time>
      </trkpt>
      <trkpt lat="45.91048" lon="3.8293">
        <ele>679</ele>
        <time>2024-12-08T03:43:57.620Z</time>
      </trkpt>
      <trkpt lat="45.91049" lon="3.82932">
        <ele>679</ele>
        <time>2024-12-08T03:43:58.619Z</time>
      </trkpt>
      <trkpt lat="45.9105" lon="3.82933">
        <ele>679</ele>
        <time>2024-12-08T03:43:59.620Z</time>
      </trkpt>
      <trkpt lat="45.91051" lon="3.82935">
        <ele>678</ele>
        <time>2024-12-08T03:44:00.619Z</time>
      </trkpt>
      <trkpt lat="45.91052" lon="3.82937">
        <ele>677</ele>
        <time>2024-12-08T03:44:01.619Z</time>
      </trkpt>
      <trkpt lat="45.91054" lon="3.82939">
        <ele>677</ele>
        <time>2024-12-08T03:44:02.620Z</time>
      </trkpt>
      <trkpt lat="45.91055" lon="3.82941">
        <ele>676</ele>
        <time>2024-12-08T03:44:03.620Z</time>
      </trkpt>
      <trkpt lat="45.91056" lon="3.82943">
        <ele>676</ele>
        <time>2024-12-08T03:44:04.620Z</time>
      </trkpt>
      <trkpt lat="45.91057" lon="3.82945">
        <ele>676</ele>
        <time>2024-12-08T03:44:05.619Z</time>
      </trkpt>
      <trkpt lat="45.91058" lon="3.82947">
        <ele>676</ele>
        <time>2024-12-08T03:44:06.620Z</time>
      </trkpt>
      <trkpt lat="45.91059" lon="3.82949">
        <ele>675</ele>
        <time>2024-12-08T03:44:07.619Z</time>
      </trkpt>
      <trkpt lat="45.9106" lon="3.82952">
        <ele>675</ele>
        <time>2024-12-08T03:44:08.619Z</time>
      </trkpt>
      <trkpt lat="45.91061" lon="3.82954">
        <ele>675</ele>
        <time>2024-12-08T03:44:09.620Z</time>
      </trkpt>
      <trkpt lat="45.91062" lon="3.82956">
        <ele>675</ele>
        <time>2024-12-08T03:44:10.619Z</time>
      </trkpt>
      <trkpt lat="45.91063" lon="3.82958">
        <ele>675</ele>
        <time>2024-12-08T03:44:11.619Z</time>
      </trkpt>
      <trkpt lat="45.91064" lon="3.82961">
        <ele>675</ele>
        <time>2024-12-08T03:44:12.619Z</time>
      </trkpt>
      <trkpt lat="45.91065" lon="3.82963">
        <ele>675</ele>
        <time>2024-12-08T03:44:13.619Z</time>
      </trkpt>
      <trkpt lat="45.91066" lon="3.82966">
        <ele>675</ele>
        <time>2024-12-08T03:44:14.619Z</time>
      </trkpt>
      <trkpt lat="45.91067" lon="3.82969">
        <ele>674</ele>
        <time>2024-12-08T03:44:15.619Z</time>
      </trkpt>
      <trkpt lat="45.91068" lon="3.82971">
        <ele>674</ele>
        <time>2024-12-08T03:44:16.620Z</time>
      </trkpt>
      <trkpt lat="45.91069" lon="3.82973">
        <ele>674</ele>
        <time>2024-12-08T03:44:17.619Z</time>
      </trkpt>
      <trkpt lat="45.9107" lon="3.82976">
        <ele>673</ele>
        <time>2024-12-08T03:44:18.620Z</time>
      </trkpt>
      <trkpt lat="45.91071" lon="3.82979">
        <ele>673</ele>
        <time>2024-12-08T03:44:19.620Z</time>
      </trkpt>
      <trkpt lat="45.91071" lon="3.82982">
        <ele>673</ele>
        <time>2024-12-08T03:44:20.619Z</time>
      </trkpt>
      <trkpt lat="45.91073" lon="3.82985">
        <ele>672</ele>
        <time>2024-12-08T03:44:21.620Z</time>
      </trkpt>
      <trkpt lat="45.91073" lon="3.82988">
        <ele>672</ele>
        <time>2024-12-08T03:44:22.619Z</time>
      </trkpt>
      <trkpt lat="45.91074" lon="3.8299">
        <ele>672</ele>
        <time>2024-12-08T03:44:23.620Z</time>
      </trkpt>
      <trkpt lat="45.91075" lon="3.82993">
        <ele>672</ele>
        <time>2024-12-08T03:44:24.619Z</time>
      </trkpt>
      <trkpt lat="45.91075" lon="3.82996">
        <ele>672</ele>
        <time>2024-12-08T03:44:25.620Z</time>
      </trkpt>
      <trkpt lat="45.91076" lon="3.82998">
        <ele>672</ele>
        <time>2024-12-08T03:44:26.619Z</time>
      </trkpt>
      <trkpt lat="45.91077" lon="3.83001">
        <ele>672</ele>
        <time>2024-12-08T03:44:27.620Z</time>
      </trkpt>
      <trkpt lat="45.91078" lon="3.83003">
        <ele>672</ele>
        <time>2024-12-08T03:44:28.619Z</time>
      </trkpt>
      <trkpt lat="45.91079" lon="3.83005">
        <ele>672</ele>
        <time>2024-12-08T03:44:29.619Z</time>
      </trkpt>
      <trkpt lat="45.91079" lon="3.83007">
        <ele>672</ele>
        <time>2024-12-08T03:44:30.620Z</time>
      </trkpt>
      <trkpt lat="45.9108" lon="3.8301">
        <ele>672</ele>
        <time>2024-12-08T03:44:31.620Z</time>
      </trkpt>
      <trkpt lat="45.9108" lon="3.83013">
        <ele>672</ele>
        <time>2024-12-08T03:44:32.620Z</time>
      </trkpt>
      <trkpt lat="45.91081" lon="3.83015">
        <ele>672</ele>
        <time>2024-12-08T03:44:33.619Z</time>
      </trkpt>
      <trkpt lat="45.91081" lon="3.83018">
        <ele>672</ele>
        <time>2024-12-08T03:44:34.620Z</time>
      </trkpt>
      <trkpt lat="45.91082" lon="3.8302">
        <ele>671</ele>
        <time>2024-12-08T03:44:35.619Z</time>
      </trkpt>
      <trkpt lat="45.91083" lon="3.83022">
        <ele>671</ele>
        <time>2024-12-08T03:44:36.620Z</time>
      </trkpt>
      <trkpt lat="45.91083" lon="3.83025">
        <ele>671</ele>
        <time>2024-12-08T03:44:37.619Z</time>
      </trkpt>
      <trkpt lat="45.91084" lon="3.83028">
        <ele>670</ele>
        <time>2024-12-08T03:44:38.619Z</time>
      </trkpt>
      <trkpt lat="45.91085" lon="3.8303">
        <ele>670</ele>
        <time>2024-12-08T03:44:39.619Z</time>
      </trkpt>
      <trkpt lat="45.91086" lon="3.83032">
        <ele>669</ele>
        <time>2024-12-08T03:44:40.620Z</time>
      </trkpt>
      <trkpt lat="45.91087" lon="3.83035">
        <ele>669</ele>
        <time>2024-12-08T03:44:41.619Z</time>
      </trkpt>
      <trkpt lat="45.91088" lon="3.83037">
        <ele>669</ele>
        <time>2024-12-08T03:44:42.620Z</time>
      </trkpt>
      <trkpt lat="45.91089" lon="3.83039">
        <ele>669</ele>
        <time>2024-12-08T03:44:43.619Z</time>
      </trkpt>
      <trkpt lat="45.9109" lon="3.83042">
        <ele>669</ele>
        <time>2024-12-08T03:44:44.620Z</time>
      </trkpt>
      <trkpt lat="45.91091" lon="3.83045">
        <ele>669</ele>
        <time>2024-12-08T03:44:45.620Z</time>
      </trkpt>
      <trkpt lat="45.91091" lon="3.83047">
        <ele>668</ele>
        <time>2024-12-08T03:44:46.620Z</time>
      </trkpt>
      <trkpt lat="45.91092" lon="3.8305">
        <ele>668</ele>
        <time>2024-12-08T03:44:47.620Z</time>
      </trkpt>
      <trkpt lat="45.91093" lon="3.83052">
        <ele>668</ele>
        <time>2024-12-08T03:44:48.619Z</time>
      </trkpt>
      <trkpt lat="45.91093" lon="3.83055">
        <ele>668</ele>
        <time>2024-12-08T03:44:49.619Z</time>
      </trkpt>
      <trkpt lat="45.91094" lon="3.83057">
        <ele>668</ele>
        <time>2024-12-08T03:44:50.619Z</time>
      </trkpt>
      <trkpt lat="45.91095" lon="3.8306">
        <ele>668</ele>
        <time>2024-12-08T03:44:51.620Z</time>
      </trkpt>
      <trkpt lat="45.91096" lon="3.83063">
        <ele>668</ele>
        <time>2024-12-08T03:44:52.620Z</time>
      </trkpt>
      <trkpt lat="45.91096" lon="3.83066">
        <ele>668</ele>
        <time>2024-12-08T03:44:53.620Z</time>
      </trkpt>
      <trkpt lat="45.91096" lon="3.83068">
        <ele>668</ele>
        <time>2024-12-08T03:44:54.619Z</time>
      </trkpt>
      <trkpt lat="45.91096" lon="3.83071">
        <ele>668</ele>
        <time>2024-12-08T03:44:55.619Z</time>
      </trkpt>
      <trkpt lat="45.91097" lon="3.83074">
        <ele>668</ele>
        <time>2024-12-08T03:44:56.620Z</time>
      </trkpt>
      <trkpt lat="45.91097" lon="3.83077">
        <ele>668</ele>
        <time>2024-12-08T03:44:57.620Z</time>
      </trkpt>
      <trkpt lat="45.91097" lon="3.8308">
        <ele>668</ele>
        <time>2024-12-08T03:44:58.620Z</time>
      </trkpt>
      <trkpt lat="45.91097" lon="3.83083">
        <ele>667</ele>
        <time>2024-12-08T03:44:59.619Z</time>
      </trkpt>
      <trkpt lat="45.91097" lon="3.83085">
        <ele>667</ele>
        <time>2024-12-08T03:45:00.620Z</time>
      </trkpt>
      <trkpt lat="45.91096" lon="3.83088">
        <ele>667</ele>
        <time>2024-12-08T03:45:01.620Z</time>
      </trkpt>
      <trkpt lat="45.91096" lon="3.83091">
        <ele>667</ele>
        <time>2024-12-08T03:45:02.620Z</time>
      </trkpt>
      <trkpt lat="45.91095" lon="3.83094">
        <ele>666</ele>
        <time>2024-12-08T03:45:03.619Z</time>
      </trkpt>
      <trkpt lat="45.91095" lon="3.83097">
        <ele>666</ele>
        <time>2024-12-08T03:45:04.620Z</time>
      </trkpt>
      <trkpt lat="45.91094" lon="3.83099">
        <ele>666</ele>
        <time>2024-12-08T03:45:05.620Z</time>
      </trkpt>
      <trkpt lat="45.91094" lon="3.83102">
        <ele>666</ele>
        <time>2024-12-08T03:45:06.620Z</time>
      </trkpt>
      <trkpt lat="45.91093" lon="3.83104">
        <ele>665</ele>
        <time>2024-12-08T03:45:07.620Z</time>
      </trkpt>
      <trkpt lat="45.91092" lon="3.83107">
        <ele>665</ele>
        <time>2024-12-08T03:45:08.619Z</time>
      </trkpt>
      <trkpt lat="45.91092" lon="3.8311">
        <ele>665</ele>
        <time>2024-12-08T03:45:09.619Z</time>
      </trkpt>
      <trkpt lat="45.91091" lon="3.83112">
        <ele>665</ele>
        <time>2024-12-08T03:45:10.619Z</time>
      </trkpt>
      <trkpt lat="45.9109" lon="3.83115">
        <ele>665</ele>
        <time>2024-12-08T03:45:11.620Z</time>
      </trkpt>
      <trkpt lat="45.91089" lon="3.83118">
        <ele>665</ele>
        <time>2024-12-08T03:45:12.619Z</time>
      </trkpt>
      <trkpt lat="45.91088" lon="3.8312">
        <ele>665</ele>
        <time>2024-12-08T03:45:13.620Z</time>
      </trkpt>
      <trkpt lat="45.91087" lon="3.83123">
        <ele>665</ele>
        <time>2024-12-08T03:45:14.619Z</time>
      </trkpt>
      <trkpt lat="45.91086" lon="3.83126">
        <ele>665</ele>
        <time>2024-12-08T03:45:15.620Z</time>
      </trkpt>
      <trkpt lat="45.91085" lon="3.83128">
        <ele>665</ele>
        <time>2024-12-08T03:45:16.619Z</time>
      </trkpt>
      <trkpt lat="45.91084" lon="3.8313">
        <ele>665</ele>
        <time>2024-12-08T03:45:17.619Z</time>
      </trkpt>
      <trkpt lat="45.91083" lon="3.83132">
        <ele>665</ele>
        <time>2024-12-08T03:45:18.619Z</time>
      </trkpt>
      <trkpt lat="45.91082" lon="3.83134">
        <ele>664</ele>
        <time>2024-12-08T03:45:19.619Z</time>
      </trkpt>
      <trkpt lat="45.9108" lon="3.83136">
        <ele>664</ele>
        <time>2024-12-08T03:45:20.620Z</time>
      </trkpt>
      <trkpt lat="45.91079" lon="3.83139">
        <ele>664</ele>
        <time>2024-12-08T03:45:21.619Z</time>
      </trkpt>
      <trkpt lat="45.91078" lon="3.83141">
        <ele>664</ele>
        <time>2024-12-08T03:45:22.619Z</time>
      </trkpt>
      <trkpt lat="45.91076" lon="3.83143">
        <ele>664</ele>
        <time>2024-12-08T03:45:23.620Z</time>
      </trkpt>
      <trkpt lat="45.91075" lon="3.83145">
        <ele>663</ele>
        <time>2024-12-08T03:45:24.620Z</time>
      </trkpt>
      <trkpt lat="45.91074" lon="3.83147">
        <ele>663</ele>
        <time>2024-12-08T03:45:25.619Z</time>
      </trkpt>
      <trkpt lat="45.91073" lon="3.8315">
        <ele>663</ele>
        <time>2024-12-08T03:45:26.620Z</time>
      </trkpt>
      <trkpt lat="45.91071" lon="3.83152">
        <ele>663</ele>
        <time>2024-12-08T03:45:27.619Z</time>
      </trkpt>
      <trkpt lat="45.9107" lon="3.83154">
        <ele>662</ele>
        <time>2024-12-08T03:45:28.620Z</time>
      </trkpt>
      <trkpt lat="45.91069" lon="3.83156">
        <ele>662</ele>
        <time>2024-12-08T03:45:29.619Z</time>
      </trkpt>
      <trkpt lat="45.91067" lon="3.83159">
        <ele>662</ele>
        <time>2024-12-08T03:45:30.620Z</time>
      </trkpt>
      <trkpt lat="45.91066" lon="3.83161">
        <ele>662</ele>
        <time>2024-12-08T03:45:31.620Z</time>
      </trkpt>
      <trkpt lat="45.91065" lon="3.83163">
        <ele>662</ele>
        <time>2024-12-08T03:45:32.620Z</time>
      </trkpt>
      <trkpt lat="45.91064" lon="3.83166">
        <ele>662</ele>
        <time>2024-12-08T03:45:33.619Z</time>
      </trkpt>
      <trkpt lat="45.91063" lon="3.83168">
        <ele>662</ele>
        <time>2024-12-08T03:45:34.620Z</time>
      </trkpt>
      <trkpt lat="45.91062" lon="3.8317">
        <ele>662</ele>
        <time>2024-12-08T03:45:35.620Z</time>
      </trkpt>
      <trkpt lat="45.91061" lon="3.83172">
        <ele>661</ele>
        <time>2024-12-08T03:45:36.620Z</time>
      </trkpt>
      <trkpt lat="45.9106" lon="3.83175">
        <ele>661</ele>
        <time>2024-12-08T03:45:37.620Z</time>
      </trkpt>
      <trkpt lat="45.91059" lon="3.83177">
        <ele>661</ele>
        <time>2024-12-08T03:45:38.619Z</time>
      </trkpt>
      <trkpt lat="45.91057" lon="3.83179">
        <ele>661</ele>
        <time>2024-12-08T03:45:39.619Z</time>
      </trkpt>
      <trkpt lat="45.91057" lon="3.83182">
        <ele>661</ele>
        <time>2024-12-08T03:45:40.619Z</time>
      </trkpt>
      <trkpt lat="45.91055" lon="3.83184">
        <ele>661</ele>
        <time>2024-12-08T03:45:41.620Z</time>
      </trkpt>
      <trkpt lat="45.91054" lon="3.83187">
        <ele>662</ele>
        <time>2024-12-08T03:45:42.619Z</time>
      </trkpt>
      <trkpt lat="45.91053" lon="3.83189">
        <ele>662</ele>
        <time>2024-12-08T03:45:43.619Z</time>
      </trkpt>
      <trkpt lat="45.91051" lon="3.83191">
        <ele>662</ele>
        <time>2024-12-08T03:45:44.619Z</time>
      </trkpt>
      <trkpt lat="45.9105" lon="3.83193">
        <ele>661</ele>
        <time>2024-12-08T03:45:45.619Z</time>
      </trkpt>
      <trkpt lat="45.91049" lon="3.83195">
        <ele>661</ele>
        <time>2024-12-08T03:45:46.620Z</time>
      </trkpt>
      <trkpt lat="45.91048" lon="3.83197">
        <ele>660</ele>
        <time>2024-12-08T03:45:47.619Z</time>
      </trkpt>
      <trkpt lat="45.91047" lon="3.83199">
        <ele>659</ele>
        <time>2024-12-08T03:45:48.619Z</time>
      </trkpt>
      <trkpt lat="45.91045" lon="3.83201">
        <ele>659</ele>
        <time>2024-12-08T03:45:49.619Z</time>
      </trkpt>
      <trkpt lat="45.91044" lon="3.83203">
        <ele>659</ele>
        <time>2024-12-08T03:45:50.620Z</time>
      </trkpt>
      <trkpt lat="45.91043" lon="3.83205">
        <ele>658</ele>
        <time>2024-12-08T03:45:51.619Z</time>
      </trkpt>
      <trkpt lat="45.91041" lon="3.83207">
        <ele>658</ele>
        <time>2024-12-08T03:45:52.619Z</time>
      </trkpt>
      <trkpt lat="45.9104" lon="3.8321">
        <ele>658</ele>
        <time>2024-12-08T03:45:53.619Z</time>
      </trkpt>
      <trkpt lat="45.91039" lon="3.83212">
        <ele>658</ele>
        <time>2024-12-08T03:45:54.620Z</time>
      </trkpt>
      <trkpt lat="45.91038" lon="3.83215">
        <ele>657</ele>
        <time>2024-12-08T03:45:55.620Z</time>
      </trkpt>
      <trkpt lat="45.91037" lon="3.83217">
        <ele>657</ele>
        <time>2024-12-08T03:45:56.620Z</time>
      </trkpt>
      <trkpt lat="45.91036" lon="3.83219">
        <ele>657</ele>
        <time>2024-12-08T03:45:57.619Z</time>
      </trkpt>
      <trkpt lat="45.91035" lon="3.83221">
        <ele>657</ele>
        <time>2024-12-08T03:45:58.619Z</time>
      </trkpt>
      <trkpt lat="45.91033" lon="3.83223">
        <ele>657</ele>
        <time>2024-12-08T03:45:59.620Z</time>
      </trkpt>
      <trkpt lat="45.91032" lon="3.83224">
        <ele>657</ele>
        <time>2024-12-08T03:46:00.619Z</time>
      </trkpt>
      <trkpt lat="45.91031" lon="3.83227">
        <ele>656</ele>
        <time>2024-12-08T03:46:01.619Z</time>
      </trkpt>
      <trkpt lat="45.9103" lon="3.83229">
        <ele>656</ele>
        <time>2024-12-08T03:46:02.620Z</time>
      </trkpt>
      <trkpt lat="45.91028" lon="3.8323">
        <ele>655</ele>
        <time>2024-12-08T03:46:03.620Z</time>
      </trkpt>
      <trkpt lat="45.91027" lon="3.83232">
        <ele>655</ele>
        <time>2024-12-08T03:46:04.619Z</time>
      </trkpt>
      <trkpt lat="45.91026" lon="3.83235">
        <ele>655</ele>
        <time>2024-12-08T03:46:05.620Z</time>
      </trkpt>
      <trkpt lat="45.91025" lon="3.83237">
        <ele>655</ele>
        <time>2024-12-08T03:46:06.619Z</time>
      </trkpt>
      <trkpt lat="45.91024" lon="3.83239">
        <ele>654</ele>
        <time>2024-12-08T03:46:07.620Z</time>
      </trkpt>
      <trkpt lat="45.91022" lon="3.83241">
        <ele>654</ele>
        <time>2024-12-08T03:46:08.619Z</time>
      </trkpt>
      <trkpt lat="45.91021" lon="3.83244">
        <ele>654</ele>
        <time>2024-12-08T03:46:09.619Z</time>
      </trkpt>
      <trkpt lat="45.9102" lon="3.83246">
        <ele>654</ele>
        <time>2024-12-08T03:46:10.619Z</time>
      </trkpt>
      <trkpt lat="45.91018" lon="3.83248">
        <ele>653</ele>
        <time>2024-12-08T03:46:11.619Z</time>
      </trkpt>
      <trkpt lat="45.91018" lon="3.8325">
        <ele>653</ele>
        <time>2024-12-08T03:46:12.620Z</time>
      </trkpt>
      <trkpt lat="45.91016" lon="3.83252">
        <ele>653</ele>
        <time>2024-12-08T03:46:13.619Z</time>
      </trkpt>
      <trkpt lat="45.91015" lon="3.83255">
        <ele>653</ele>
        <time>2024-12-08T03:46:14.620Z</time>
      </trkpt>
      <trkpt lat="45.91014" lon="3.83257">
        <ele>653</ele>
        <time>2024-12-08T03:46:15.619Z</time>
      </trkpt>
      <trkpt lat="45.91013" lon="3.83259">
        <ele>653</ele>
        <time>2024-12-08T03:46:16.620Z</time>
      </trkpt>
      <trkpt lat="45.91012" lon="3.83261">
        <ele>653</ele>
        <time>2024-12-08T03:46:17.619Z</time>
      </trkpt>
      <trkpt lat="45.9101" lon="3.83264">
        <ele>653</ele>
        <time>2024-12-08T03:46:18.620Z</time>
      </trkpt>
      <trkpt lat="45.91009" lon="3.83266">
        <ele>653</ele>
        <time>2024-12-08T03:46:19.619Z</time>
      </trkpt>
      <trkpt lat="45.91008" lon="3.83268">
        <ele>653</ele>
        <time>2024-12-08T03:46:20.620Z</time>
      </trkpt>
      <trkpt lat="45.91007" lon="3.83271">
        <ele>652</ele>
        <time>2024-12-08T03:46:21.619Z</time>
      </trkpt>
      <trkpt lat="45.91006" lon="3.83273">
        <ele>652</ele>
        <time>2024-12-08T03:46:22.620Z</time>
      </trkpt>
      <trkpt lat="45.91005" lon="3.83275">
        <ele>652</ele>
        <time>2024-12-08T03:46:23.619Z</time>
      </trkpt>
      <trkpt lat="45.91004" lon="3.83278">
        <ele>652</ele>
        <time>2024-12-08T03:46:24.620Z</time>
      </trkpt>
      <trkpt lat="45.91002" lon="3.8328">
        <ele>652</ele>
        <time>2024-12-08T03:46:25.619Z</time>
      </trkpt>
      <trkpt lat="45.91001" lon="3.83282">
        <ele>651</ele>
        <time>2024-12-08T03:46:26.619Z</time>
      </trkpt>
      <trkpt lat="45.91" lon="3.83285">
        <ele>651</ele>
        <time>2024-12-08T03:46:27.619Z</time>
      </trkpt>
      <trkpt lat="45.90999" lon="3.83287">
        <ele>652</ele>
        <time>2024-12-08T03:46:28.619Z</time>
      </trkpt>
      <trkpt lat="45.90998" lon="3.83289">
        <ele>652</ele>
        <time>2024-12-08T03:46:29.620Z</time>
      </trkpt>
      <trkpt lat="45.90997" lon="3.83292">
        <ele>652</ele>
        <time>2024-12-08T03:46:30.620Z</time>
      </trkpt>
      <trkpt lat="45.90996" lon="3.83295">
        <ele>651</ele>
        <time>2024-12-08T03:46:31.619Z</time>
      </trkpt>
      <trkpt lat="45.90995" lon="3.83297">
        <ele>651</ele>
        <time>2024-12-08T03:46:32.620Z</time>
      </trkpt>
      <trkpt lat="45.90994" lon="3.83299">
        <ele>651</ele>
        <time>2024-12-08T03:46:33.620Z</time>
      </trkpt>
      <trkpt lat="45.90993" lon="3.83302">
        <ele>651</ele>
        <time>2024-12-08T03:46:34.620Z</time>
      </trkpt>
      <trkpt lat="45.90992" lon="3.83304">
        <ele>651</ele>
        <time>2024-12-08T03:46:35.620Z</time>
      </trkpt>
      <trkpt lat="45.90991" lon="3.83307">
        <ele>651</ele>
        <time>2024-12-08T03:46:36.619Z</time>
      </trkpt>
      <trkpt lat="45.9099" lon="3.8331">
        <ele>651</ele>
        <time>2024-12-08T03:46:37.619Z</time>
      </trkpt>
      <trkpt lat="45.90989" lon="3.83313">
        <ele>651</ele>
        <time>2024-12-08T03:46:38.620Z</time>
      </trkpt>
      <trkpt lat="45.90988" lon="3.83316">
        <ele>650</ele>
        <time>2024-12-08T03:46:39.619Z</time>
      </trkpt>
      <trkpt lat="45.90988" lon="3.83318">
        <ele>650</ele>
        <time>2024-12-08T03:46:40.619Z</time>
      </trkpt>
      <trkpt lat="45.90987" lon="3.83321">
        <ele>650</ele>
        <time>2024-12-08T03:46:41.620Z</time>
      </trkpt>
      <trkpt lat="45.90986" lon="3.83323">
        <ele>650</ele>
        <time>2024-12-08T03:46:42.619Z</time>
      </trkpt>
      <trkpt lat="45.90985" lon="3.83326">
        <ele>649</ele>
        <time>2024-12-08T03:46:43.620Z</time>
      </trkpt>
      <trkpt lat="45.90984" lon="3.83329">
        <ele>649</ele>
        <time>2024-12-08T03:46:44.620Z</time>
      </trkpt>
      <trkpt lat="45.90983" lon="3.83331">
        <ele>649</ele>
        <time>2024-12-08T03:46:45.619Z</time>
      </trkpt>
      <trkpt lat="45.90983" lon="3.83333">
        <ele>649</ele>
        <time>2024-12-08T03:46:46.619Z</time>
      </trkpt>
      <trkpt lat="45.90982" lon="3.83336">
        <ele>648</ele>
        <time>2024-12-08T03:46:47.620Z</time>
      </trkpt>
      <trkpt lat="45.90982" lon="3.83338">
        <ele>648</ele>
        <time>2024-12-08T03:46:48.619Z</time>
      </trkpt>
      <trkpt lat="45.90981" lon="3.83341">
        <ele>648</ele>
        <time>2024-12-08T03:46:49.620Z</time>
      </trkpt>
      <trkpt lat="45.90981" lon="3.83344">
        <ele>647</ele>
        <time>2024-12-08T03:46:50.619Z</time>
      </trkpt>
      <trkpt lat="45.9098" lon="3.83346">
        <ele>647</ele>
        <time>2024-12-08T03:46:51.620Z</time>
      </trkpt>
      <trkpt lat="45.9098" lon="3.83349">
        <ele>647</ele>
        <time>2024-12-08T03:46:52.619Z</time>
      </trkpt>
      <trkpt lat="45.90979" lon="3.83351">
        <ele>646</ele>
        <time>2024-12-08T03:46:53.620Z</time>
      </trkpt>
      <trkpt lat="45.90979" lon="3.83353">
        <ele>646</ele>
        <time>2024-12-08T03:46:54.619Z</time>
      </trkpt>
      <trkpt lat="45.90979" lon="3.83356">
        <ele>646</ele>
        <time>2024-12-08T03:46:55.620Z</time>
      </trkpt>
      <trkpt lat="45.90979" lon="3.83358">
        <ele>646</ele>
        <time>2024-12-08T03:46:56.619Z</time>
      </trkpt>
      <trkpt lat="45.90979" lon="3.83361">
        <ele>645</ele>
        <time>2024-12-08T03:46:57.619Z</time>
      </trkpt>
      <trkpt lat="45.90979" lon="3.83364">
        <ele>645</ele>
        <time>2024-12-08T03:46:58.620Z</time>
      </trkpt>
      <trkpt lat="45.90979" lon="3.83367">
        <ele>645</ele>
        <time>2024-12-08T03:46:59.619Z</time>
      </trkpt>
      <trkpt lat="45.90979" lon="3.83369">
        <ele>644</ele>
        <time>2024-12-08T03:47:00.620Z</time>
      </trkpt>
      <trkpt lat="45.9098" lon="3.83372">
        <ele>644</ele>
        <time>2024-12-08T03:47:01.619Z</time>
      </trkpt>
      <trkpt lat="45.9098" lon="3.83374">
        <ele>644</ele>
        <time>2024-12-08T03:47:02.619Z</time>
      </trkpt>
      <trkpt lat="45.90981" lon="3.83377">
        <ele>643</ele>
        <time>2024-12-08T03:47:03.619Z</time>
      </trkpt>
      <trkpt lat="45.90982" lon="3.83379">
        <ele>643</ele>
        <time>2024-12-08T03:47:04.620Z</time>
      </trkpt>
      <trkpt lat="45.90983" lon="3.83381">
        <ele>643</ele>
        <time>2024-12-08T03:47:05.619Z</time>
      </trkpt>
      <trkpt lat="45.90984" lon="3.83383">
        <ele>642</ele>
        <time>2024-12-08T03:47:06.620Z</time>
      </trkpt>
      <trkpt lat="45.90985" lon="3.83385">
        <ele>642</ele>
        <time>2024-12-08T03:47:07.619Z</time>
      </trkpt>
      <trkpt lat="45.90987" lon="3.83387">
        <ele>642</ele>
        <time>2024-12-08T03:47:08.620Z</time>
      </trkpt>
      <trkpt lat="45.90988" lon="3.83389">
        <ele>642</ele>
        <time>2024-12-08T03:47:09.619Z</time>
      </trkpt>
      <trkpt lat="45.9099" lon="3.8339">
        <ele>642</ele>
        <time>2024-12-08T03:47:10.619Z</time>
      </trkpt>
      <trkpt lat="45.90992" lon="3.83391">
        <ele>642</ele>
        <time>2024-12-08T03:47:11.619Z</time>
      </trkpt>
      <trkpt lat="45.90993" lon="3.83392">
        <ele>642</ele>
        <time>2024-12-08T03:47:12.620Z</time>
      </trkpt>
      <trkpt lat="45.90995" lon="3.83394">
        <ele>642</ele>
        <time>2024-12-08T03:47:13.619Z</time>
      </trkpt>
      <trkpt lat="45.90996" lon="3.83394">
        <ele>642</ele>
        <time>2024-12-08T03:47:14.619Z</time>
      </trkpt>
      <trkpt lat="45.90998" lon="3.83395">
        <ele>642</ele>
        <time>2024-12-08T03:47:15.620Z</time>
      </trkpt>
      <trkpt lat="45.91001" lon="3.83396">
        <ele>642</ele>
        <time>2024-12-08T03:47:16.619Z</time>
      </trkpt>
      <trkpt lat="45.91002" lon="3.83397">
        <ele>641</ele>
        <time>2024-12-08T03:47:17.620Z</time>
      </trkpt>
      <trkpt lat="45.91004" lon="3.83398">
        <ele>641</ele>
        <time>2024-12-08T03:47:18.619Z</time>
      </trkpt>
      <trkpt lat="45.91006" lon="3.83399">
        <ele>641</ele>
        <time>2024-12-08T03:47:19.620Z</time>
      </trkpt>
      <trkpt lat="45.91009" lon="3.834">
        <ele>641</ele>
        <time>2024-12-08T03:47:20.619Z</time>
      </trkpt>
      <trkpt lat="45.9101" lon="3.83401">
        <ele>641</ele>
        <time>2024-12-08T03:47:21.620Z</time>
      </trkpt>
      <trkpt lat="45.91013" lon="3.83401">
        <ele>641</ele>
        <time>2024-12-08T03:47:22.619Z</time>
      </trkpt>
      <trkpt lat="45.91014" lon="3.83402">
        <ele>640</ele>
        <time>2024-12-08T03:47:23.620Z</time>
      </trkpt>
      <trkpt lat="45.91017" lon="3.83403">
        <ele>640</ele>
        <time>2024-12-08T03:47:24.619Z</time>
      </trkpt>
      <trkpt lat="45.9102" lon="3.83404">
        <ele>640</ele>
        <time>2024-12-08T03:47:25.619Z</time>
      </trkpt>
      <trkpt lat="45.91022" lon="3.83404">
        <ele>640</ele>
        <time>2024-12-08T03:47:26.620Z</time>
      </trkpt>
      <trkpt lat="45.91024" lon="3.83405">
        <ele>639</ele>
        <time>2024-12-08T03:47:27.620Z</time>
      </trkpt>
      <trkpt lat="45.91026" lon="3.83405">
        <ele>639</ele>
        <time>2024-12-08T03:47:28.619Z</time>
      </trkpt>
      <trkpt lat="45.91027" lon="3.83406">
        <ele>638</ele>
        <time>2024-12-08T03:47:29.620Z</time>
      </trkpt>
      <trkpt lat="45.91029" lon="3.83407">
        <ele>638</ele>
        <time>2024-12-08T03:47:30.619Z</time>
      </trkpt>
      <trkpt lat="45.91031" lon="3.83408">
        <ele>638</ele>
        <time>2024-12-08T03:47:31.619Z</time>
      </trkpt>
      <trkpt lat="45.91033" lon="3.83409">
        <ele>637</ele>
        <time>2024-12-08T03:47:32.620Z</time>
      </trkpt>
      <trkpt lat="45.91034" lon="3.83409">
        <ele>637</ele>
        <time>2024-12-08T03:47:33.620Z</time>
      </trkpt>
      <trkpt lat="45.91037" lon="3.8341">
        <ele>636</ele>
        <time>2024-12-08T03:47:34.619Z</time>
      </trkpt>
      <trkpt lat="45.91039" lon="3.83411">
        <ele>636</ele>
        <time>2024-12-08T03:47:35.619Z</time>
      </trkpt>
      <trkpt lat="45.9104" lon="3.83411">
        <ele>635</ele>
        <time>2024-12-08T03:47:36.620Z</time>
      </trkpt>
      <trkpt lat="45.91042" lon="3.83412">
        <ele>635</ele>
        <time>2024-12-08T03:47:37.619Z</time>
      </trkpt>
      <trkpt lat="45.91044" lon="3.83413">
        <ele>635</ele>
        <time>2024-12-08T03:47:38.619Z</time>
      </trkpt>
      <trkpt lat="45.91046" lon="3.83413">
        <ele>635</ele>
        <time>2024-12-08T03:47:39.619Z</time>
      </trkpt>
      <trkpt lat="45.91048" lon="3.83414">
        <ele>635</ele>
        <time>2024-12-08T03:47:40.619Z</time>
      </trkpt>
      <trkpt lat="45.9105" lon="3.83415">
        <ele>635</ele>
        <time>2024-12-08T03:47:41.619Z</time>
      </trkpt>
      <trkpt lat="45.91052" lon="3.83415">
        <ele>635</ele>
        <time>2024-12-08T03:47:42.620Z</time>
      </trkpt>
      <trkpt lat="45.91054" lon="3.83416">
        <ele>635</ele>
        <time>2024-12-08T03:47:43.619Z</time>
      </trkpt>
      <trkpt lat="45.91056" lon="3.83417">
        <ele>635</ele>
        <time>2024-12-08T03:47:44.619Z</time>
      </trkpt>
      <trkpt lat="45.91058" lon="3.83418">
        <ele>635</ele>
        <time>2024-12-08T03:47:45.620Z</time>
      </trkpt>
      <trkpt lat="45.91059" lon="3.83419">
        <ele>634</ele>
        <time>2024-12-08T03:47:46.619Z</time>
      </trkpt>
      <trkpt lat="45.91061" lon="3.8342">
        <ele>634</ele>
        <time>2024-12-08T03:47:47.620Z</time>
      </trkpt>
      <trkpt lat="45.91063" lon="3.83421">
        <ele>634</ele>
        <time>2024-12-08T03:47:48.620Z</time>
      </trkpt>
      <trkpt lat="45.91065" lon="3.83421">
        <ele>633</ele>
        <time>2024-12-08T03:47:49.620Z</time>
      </trkpt>
      <trkpt lat="45.91067" lon="3.83422">
        <ele>633</ele>
        <time>2024-12-08T03:47:50.620Z</time>
      </trkpt>
      <trkpt lat="45.91069" lon="3.83423">
        <ele>632</ele>
        <time>2024-12-08T03:47:51.619Z</time>
      </trkpt>
      <trkpt lat="45.91071" lon="3.83424">
        <ele>632</ele>
        <time>2024-12-08T03:47:52.620Z</time>
      </trkpt>
      <trkpt lat="45.91073" lon="3.83425">
        <ele>632</ele>
        <time>2024-12-08T03:47:53.620Z</time>
      </trkpt>
      <trkpt lat="45.91075" lon="3.83426">
        <ele>632</ele>
        <time>2024-12-08T03:47:54.619Z</time>
      </trkpt>
      <trkpt lat="45.91076" lon="3.83426">
        <ele>632</ele>
        <time>2024-12-08T03:47:55.619Z</time>
      </trkpt>
      <trkpt lat="45.91078" lon="3.83427">
        <ele>632</ele>
        <time>2024-12-08T03:47:56.620Z</time>
      </trkpt>
      <trkpt lat="45.91079" lon="3.83428">
        <ele>631</ele>
        <time>2024-12-08T03:47:57.619Z</time>
      </trkpt>
      <trkpt lat="45.91081" lon="3.83429">
        <ele>631</ele>
        <time>2024-12-08T03:47:58.620Z</time>
      </trkpt>
      <trkpt lat="45.91083" lon="3.8343">
        <ele>631</ele>
        <time>2024-12-08T03:47:59.620Z</time>
      </trkpt>
      <trkpt lat="45.91085" lon="3.8343">
        <ele>631</ele>
        <time>2024-12-08T03:48:00.619Z</time>
      </trkpt>
      <trkpt lat="45.91087" lon="3.83431">
        <ele>631</ele>
        <time>2024-12-08T03:48:01.619Z</time>
      </trkpt>
      <trkpt lat="45.91089" lon="3.83432">
        <ele>631</ele>
        <time>2024-12-08T03:48:02.619Z</time>
      </trkpt>
      <trkpt lat="45.9109" lon="3.83433">
        <ele>630</ele>
        <time>2024-12-08T03:48:03.619Z</time>
      </trkpt>
      <trkpt lat="45.91092" lon="3.83434">
        <ele>630</ele>
        <time>2024-12-08T03:48:04.620Z</time>
      </trkpt>
      <trkpt lat="45.91093" lon="3.83435">
        <ele>630</ele>
        <time>2024-12-08T03:48:05.619Z</time>
      </trkpt>
      <trkpt lat="45.91095" lon="3.83437">
        <ele>630</ele>
        <time>2024-12-08T03:48:06.619Z</time>
      </trkpt>
      <trkpt lat="45.91097" lon="3.83438">
        <ele>629</ele>
        <time>2024-12-08T03:48:07.620Z</time>
      </trkpt>
      <trkpt lat="45.91098" lon="3.8344">
        <ele>629</ele>
        <time>2024-12-08T03:48:08.619Z</time>
      </trkpt>
      <trkpt lat="45.911" lon="3.83441">
        <ele>629</ele>
        <time>2024-12-08T03:48:09.620Z</time>
      </trkpt>
      <trkpt lat="45.91101" lon="3.83443">
        <ele>628</ele>
        <time>2024-12-08T03:48:10.619Z</time>
      </trkpt>
      <trkpt lat="45.91102" lon="3.83446">
        <ele>628</ele>
        <time>2024-12-08T03:48:11.620Z</time>
      </trkpt>
      <trkpt lat="45.91103" lon="3.83448">
        <ele>628</ele>
        <time>2024-12-08T03:48:12.620Z</time>
      </trkpt>
      <trkpt lat="45.91103" lon="3.83451">
        <ele>627</ele>
        <time>2024-12-08T03:48:13.619Z</time>
      </trkpt>
      <trkpt lat="45.91104" lon="3.83453">
        <ele>627</ele>
        <time>2024-12-08T03:48:14.620Z</time>
      </trkpt>
      <trkpt lat="45.91104" lon="3.83456">
        <ele>627</ele>
        <time>2024-12-08T03:48:15.619Z</time>
      </trkpt>
      <trkpt lat="45.91104" lon="3.83458">
        <ele>627</ele>
        <time>2024-12-08T03:48:16.619Z</time>
      </trkpt>
      <trkpt lat="45.91105" lon="3.83461">
        <ele>626</ele>
        <time>2024-12-08T03:48:17.620Z</time>
      </trkpt>
      <trkpt lat="45.91105" lon="3.83464">
        <ele>626</ele>
        <time>2024-12-08T03:48:18.619Z</time>
      </trkpt>
      <trkpt lat="45.91105" lon="3.83467">
        <ele>626</ele>
        <time>2024-12-08T03:48:19.619Z</time>
      </trkpt>
      <trkpt lat="45.91105" lon="3.8347">
        <ele>626</ele>
        <time>2024-12-08T03:48:20.619Z</time>
      </trkpt>
      <trkpt lat="45.91104" lon="3.83472">
        <ele>626</ele>
        <time>2024-12-08T03:48:21.619Z</time>
      </trkpt>
      <trkpt lat="45.91104" lon="3.83475">
        <ele>626</ele>
        <time>2024-12-08T03:48:22.619Z</time>
      </trkpt>
      <trkpt lat="45.91104" lon="3.83478">
        <ele>626</ele>
        <time>2024-12-08T03:48:23.619Z</time>
      </trkpt>
      <trkpt lat="45.91104" lon="3.83481">
        <ele>626</ele>
        <time>2024-12-08T03:48:24.619Z</time>
      </trkpt>
      <trkpt lat="45.91104" lon="3.83484">
        <ele>625</ele>
        <time>2024-12-08T03:48:25.620Z</time>
      </trkpt>
      <trkpt lat="45.91103" lon="3.83487">
        <ele>625</ele>
        <time>2024-12-08T03:48:26.620Z</time>
      </trkpt>
      <trkpt lat="45.91103" lon="3.8349">
        <ele>625</ele>
        <time>2024-12-08T03:48:27.619Z</time>
      </trkpt>
      <trkpt lat="45.91102" lon="3.83492">
        <ele>625</ele>
        <time>2024-12-08T03:48:28.619Z</time>
      </trkpt>
      <trkpt lat="45.91101" lon="3.83495">
        <ele>625</ele>
        <time>2024-12-08T03:48:29.620Z</time>
      </trkpt>
      <trkpt lat="45.91101" lon="3.83498">
        <ele>625</ele>
        <time>2024-12-08T03:48:30.619Z</time>
      </trkpt>
      <trkpt lat="45.911" lon="3.83501">
        <ele>624</ele>
        <time>2024-12-08T03:48:31.620Z</time>
      </trkpt>
      <trkpt lat="45.911" lon="3.83504">
        <ele>624</ele>
        <time>2024-12-08T03:48:32.619Z</time>
      </trkpt>
      <trkpt lat="45.91099" lon="3.83506">
        <ele>624</ele>
        <time>2024-12-08T03:48:33.620Z</time>
      </trkpt>
      <trkpt lat="45.91099" lon="3.83509">
        <ele>624</ele>
        <time>2024-12-08T03:48:34.620Z</time>
      </trkpt>
      <trkpt lat="45.91098" lon="3.83511">
        <ele>624</ele>
        <time>2024-12-08T03:48:35.620Z</time>
      </trkpt>
      <trkpt lat="45.91098" lon="3.83514">
        <ele>624</ele>
        <time>2024-12-08T03:48:36.620Z</time>
      </trkpt>
      <trkpt lat="45.91097" lon="3.83516">
        <ele>624</ele>
        <time>2024-12-08T03:48:37.619Z</time>
      </trkpt>
      <trkpt lat="45.91096" lon="3.83518">
        <ele>624</ele>
        <time>2024-12-08T03:48:38.620Z</time>
      </trkpt>
      <trkpt lat="45.91096" lon="3.83521">
        <ele>624</ele>
        <time>2024-12-08T03:48:39.619Z</time>
      </trkpt>
      <trkpt lat="45.91095" lon="3.83523">
        <ele>623</ele>
        <time>2024-12-08T03:48:40.619Z</time>
      </trkpt>
      <trkpt lat="45.91095" lon="3.83526">
        <ele>623</ele>
        <time>2024-12-08T03:48:41.620Z</time>
      </trkpt>
      <trkpt lat="45.91094" lon="3.83529">
        <ele>623</ele>
        <time>2024-12-08T03:48:42.619Z</time>
      </trkpt>
      <trkpt lat="45.91094" lon="3.83532">
        <ele>623</ele>
        <time>2024-12-08T03:48:43.619Z</time>
      </trkpt>
      <trkpt lat="45.91093" lon="3.83535">
        <ele>623</ele>
        <time>2024-12-08T03:48:44.619Z</time>
      </trkpt>
      <trkpt lat="45.91092" lon="3.83538">
        <ele>623</ele>
        <time>2024-12-08T03:48:45.619Z</time>
      </trkpt>
      <trkpt lat="45.91092" lon="3.8354">
        <ele>623</ele>
        <time>2024-12-08T03:48:46.620Z</time>
      </trkpt>
      <trkpt lat="45.91092" lon="3.83543">
        <ele>623</ele>
        <time>2024-12-08T03:48:47.619Z</time>
      </trkpt>
      <trkpt lat="45.91091" lon="3.83546">
        <ele>623</ele>
        <time>2024-12-08T03:48:48.619Z</time>
      </trkpt>
      <trkpt lat="45.9109" lon="3.83548">
        <ele>622</ele>
        <time>2024-12-08T03:48:49.619Z</time>
      </trkpt>
      <trkpt lat="45.9109" lon="3.83551">
        <ele>622</ele>
        <time>2024-12-08T03:48:50.620Z</time>
      </trkpt>
      <trkpt lat="45.91089" lon="3.83554">
        <ele>622</ele>
        <time>2024-12-08T03:48:51.620Z</time>
      </trkpt>
      <trkpt lat="45.91089" lon="3.83556">
        <ele>622</ele>
        <time>2024-12-08T03:48:52.619Z</time>
      </trkpt>
      <trkpt lat="45.91088" lon="3.83559">
        <ele>622</ele>
        <time>2024-12-08T03:48:53.619Z</time>
      </trkpt>
      <trkpt lat="45.91087" lon="3.83561">
        <ele>621</ele>
        <time>2024-12-08T03:48:54.619Z</time>
      </trkpt>
      <trkpt lat="45.91086" lon="3.83563">
        <ele>621</ele>
        <time>2024-12-08T03:48:55.619Z</time>
      </trkpt>
      <trkpt lat="45.91086" lon="3.83566">
        <ele>621</ele>
        <time>2024-12-08T03:48:56.620Z</time>
      </trkpt>
      <trkpt lat="45.91085" lon="3.83568">
        <ele>621</ele>
        <time>2024-12-08T03:48:57.620Z</time>
      </trkpt>
      <trkpt lat="45.91085" lon="3.83571">
        <ele>621</ele>
        <time>2024-12-08T03:48:58.619Z</time>
      </trkpt>
      <trkpt lat="45.91084" lon="3.83573">
        <ele>621</ele>
        <time>2024-12-08T03:48:59.619Z</time>
      </trkpt>
      <trkpt lat="45.91083" lon="3.83576">
        <ele>621</ele>
        <time>2024-12-08T03:49:00.620Z</time>
      </trkpt>
      <trkpt lat="45.91083" lon="3.83578">
        <ele>620</ele>
        <time>2024-12-08T03:49:01.620Z</time>
      </trkpt>
      <trkpt lat="45.91083" lon="3.83581">
        <ele>621</ele>
        <time>2024-12-08T03:49:02.620Z</time>
      </trkpt>
      <trkpt lat="45.91083" lon="3.83583">
        <ele>621</ele>
        <time>2024-12-08T03:49:03.619Z</time>
      </trkpt>
      <trkpt lat="45.91082" lon="3.83585">
        <ele>621</ele>
        <time>2024-12-08T03:49:04.620Z</time>
      </trkpt>
      <trkpt lat="45.91082" lon="3.83588">
        <ele>621</ele>
        <time>2024-12-08T03:49:05.619Z</time>
      </trkpt>
      <trkpt lat="45.91081" lon="3.8359">
        <ele>621</ele>
        <time>2024-12-08T03:49:06.619Z</time>
      </trkpt>
      <trkpt lat="45.91081" lon="3.83593">
        <ele>621</ele>
        <time>2024-12-08T03:49:07.620Z</time>
      </trkpt>
      <trkpt lat="45.9108" lon="3.83596">
        <ele>621</ele>
        <time>2024-12-08T03:49:08.619Z</time>
      </trkpt>
      <trkpt lat="45.9108" lon="3.83598">
        <ele>621</ele>
        <time>2024-12-08T03:49:09.619Z</time>
      </trkpt>
      <trkpt lat="45.91079" lon="3.836">
        <ele>621</ele>
        <time>2024-12-08T03:49:10.619Z</time>
      </trkpt>
      <trkpt lat="45.91079" lon="3.83602">
        <ele>622</ele>
        <time>2024-12-08T03:49:11.620Z</time>
      </trkpt>
      <trkpt lat="45.91079" lon="3.83605">
        <ele>622</ele>
        <time>2024-12-08T03:49:12.619Z</time>
      </trkpt>
      <trkpt lat="45.91078" lon="3.83607">
        <ele>622</ele>
        <time>2024-12-08T03:49:13.619Z</time>
      </trkpt>
      <trkpt lat="45.91078" lon="3.83609">
        <ele>622</ele>
        <time>2024-12-08T03:49:14.619Z</time>
      </trkpt>
      <trkpt lat="45.91077" lon="3.83611">
        <ele>622</ele>
        <time>2024-12-08T03:49:15.620Z</time>
      </trkpt>
      <trkpt lat="45.91077" lon="3.83613">
        <ele>622</ele>
        <time>2024-12-08T03:49:16.619Z</time>
      </trkpt>
      <trkpt lat="45.91077" lon="3.83616">
        <ele>621</ele>
        <time>2024-12-08T03:49:17.619Z</time>
      </trkpt>
      <trkpt lat="45.91076" lon="3.83619">
        <ele>621</ele>
        <time>2024-12-08T03:49:18.620Z</time>
      </trkpt>
      <trkpt lat="45.91075" lon="3.83623">
        <ele>620</ele>
        <time>2024-12-08T03:49:19.620Z</time>
      </trkpt>
      <trkpt lat="45.91075" lon="3.83625">
        <ele>620</ele>
        <time>2024-12-08T03:49:20.619Z</time>
      </trkpt>
      <trkpt lat="45.91074" lon="3.83628">
        <ele>620</ele>
        <time>2024-12-08T03:49:21.619Z</time>
      </trkpt>
      <trkpt lat="45.91073" lon="3.83631">
        <ele>620</ele>
        <time>2024-12-08T03:49:22.620Z</time>
      </trkpt>
      <trkpt lat="45.91073" lon="3.83633">
        <ele>619</ele>
        <time>2024-12-08T03:49:23.619Z</time>
      </trkpt>
      <trkpt lat="45.91072" lon="3.83636">
        <ele>619</ele>
        <time>2024-12-08T03:49:24.620Z</time>
      </trkpt>
      <trkpt lat="45.91071" lon="3.83638">
        <ele>619</ele>
        <time>2024-12-08T03:49:25.619Z</time>
      </trkpt>
      <trkpt lat="45.91071" lon="3.83641">
        <ele>618</ele>
        <time>2024-12-08T03:49:26.620Z</time>
      </trkpt>
      <trkpt lat="45.91071" lon="3.83644">
        <ele>618</ele>
        <time>2024-12-08T03:49:27.619Z</time>
      </trkpt>
      <trkpt lat="45.9107" lon="3.83646">
        <ele>617</ele>
        <time>2024-12-08T03:49:28.620Z</time>
      </trkpt>
      <trkpt lat="45.9107" lon="3.83649">
        <ele>617</ele>
        <time>2024-12-08T03:49:29.619Z</time>
      </trkpt>
      <trkpt lat="45.91069" lon="3.83651">
        <ele>617</ele>
        <time>2024-12-08T03:49:30.620Z</time>
      </trkpt>
      <trkpt lat="45.91069" lon="3.83654">
        <ele>617</ele>
        <time>2024-12-08T03:49:31.619Z</time>
      </trkpt>
      <trkpt lat="45.91068" lon="3.83656">
        <ele>617</ele>
        <time>2024-12-08T03:49:32.619Z</time>
      </trkpt>
      <trkpt lat="45.91068" lon="3.83658">
        <ele>616</ele>
        <time>2024-12-08T03:49:33.619Z</time>
      </trkpt>
      <trkpt lat="45.91067" lon="3.83661">
        <ele>616</ele>
        <time>2024-12-08T03:49:34.620Z</time>
      </trkpt>
      <trkpt lat="45.91067" lon="3.83663">
        <ele>616</ele>
        <time>2024-12-08T03:49:35.619Z</time>
      </trkpt>
      <trkpt lat="45.91066" lon="3.83666">
        <ele>616</ele>
        <time>2024-12-08T03:49:36.620Z</time>
      </trkpt>
      <trkpt lat="45.91066" lon="3.83668">
        <ele>616</ele>
        <time>2024-12-08T03:49:37.619Z</time>
      </trkpt>
      <trkpt lat="45.91065" lon="3.83671">
        <ele>616</ele>
        <time>2024-12-08T03:49:38.619Z</time>
      </trkpt>
      <trkpt lat="45.91064" lon="3.83673">
        <ele>616</ele>
        <time>2024-12-08T03:49:39.619Z</time>
      </trkpt>
      <trkpt lat="45.91064" lon="3.83676">
        <ele>616</ele>
        <time>2024-12-08T03:49:40.620Z</time>
      </trkpt>
      <trkpt lat="45.91063" lon="3.83678">
        <ele>616</ele>
        <time>2024-12-08T03:49:41.620Z</time>
      </trkpt>
      <trkpt lat="45.91063" lon="3.83681">
        <ele>615</ele>
        <time>2024-12-08T03:49:42.619Z</time>
      </trkpt>
      <trkpt lat="45.91062" lon="3.83684">
        <ele>615</ele>
        <time>2024-12-08T03:49:43.619Z</time>
      </trkpt>
      <trkpt lat="45.91062" lon="3.83686">
        <ele>615</ele>
        <time>2024-12-08T03:49:44.619Z</time>
      </trkpt>
      <trkpt lat="45.91062" lon="3.83689">
        <ele>615</ele>
        <time>2024-12-08T03:49:45.619Z</time>
      </trkpt>
      <trkpt lat="45.91061" lon="3.83691">
        <ele>615</ele>
        <time>2024-12-08T03:49:46.619Z</time>
      </trkpt>
      <trkpt lat="45.9106" lon="3.83694">
        <ele>616</ele>
        <time>2024-12-08T03:49:47.619Z</time>
      </trkpt>
      <trkpt lat="45.91059" lon="3.83697">
        <ele>616</ele>
        <time>2024-12-08T03:49:48.619Z</time>
      </trkpt>
      <trkpt lat="45.91059" lon="3.837">
        <ele>616</ele>
        <time>2024-12-08T03:49:49.619Z</time>
      </trkpt>
      <trkpt lat="45.91058" lon="3.83702">
        <ele>616</ele>
        <time>2024-12-08T03:49:50.620Z</time>
      </trkpt>
      <trkpt lat="45.91058" lon="3.83705">
        <ele>615</ele>
        <time>2024-12-08T03:49:51.619Z</time>
      </trkpt>
      <trkpt lat="45.91058" lon="3.83708">
        <ele>615</ele>
        <time>2024-12-08T03:49:52.620Z</time>
      </trkpt>
      <trkpt lat="45.91057" lon="3.83711">
        <ele>615</ele>
        <time>2024-12-08T03:49:53.619Z</time>
      </trkpt>
      <trkpt lat="45.91057" lon="3.83713">
        <ele>615</ele>
        <time>2024-12-08T03:49:54.620Z</time>
      </trkpt>
      <trkpt lat="45.91056" lon="3.83715">
        <ele>615</ele>
        <time>2024-12-08T03:49:55.619Z</time>
      </trkpt>
      <trkpt lat="45.91055" lon="3.83718">
        <ele>615</ele>
        <time>2024-12-08T03:49:56.620Z</time>
      </trkpt>
      <trkpt lat="45.91055" lon="3.83721">
        <ele>615</ele>
        <time>2024-12-08T03:49:57.620Z</time>
      </trkpt>
      <trkpt lat="45.91054" lon="3.83724">
        <ele>615</ele>
        <time>2024-12-08T03:49:58.619Z</time>
      </trkpt>
      <trkpt lat="45.91054" lon="3.83726">
        <ele>614</ele>
        <time>2024-12-08T03:49:59.620Z</time>
      </trkpt>
      <trkpt lat="45.91053" lon="3.83729">
        <ele>613</ele>
        <time>2024-12-08T03:50:00.619Z</time>
      </trkpt>
      <trkpt lat="45.91053" lon="3.83732">
        <ele>613</ele>
        <time>2024-12-08T03:50:01.620Z</time>
      </trkpt>
      <trkpt lat="45.91052" lon="3.83735">
        <ele>612</ele>
        <time>2024-12-08T03:50:02.619Z</time>
      </trkpt>
      <trkpt lat="45.91052" lon="3.83738">
        <ele>612</ele>
        <time>2024-12-08T03:50:03.619Z</time>
      </trkpt>
      <trkpt lat="45.91051" lon="3.83741">
        <ele>611</ele>
        <time>2024-12-08T03:50:04.619Z</time>
      </trkpt>
      <trkpt lat="45.91051" lon="3.83744">
        <ele>611</ele>
        <time>2024-12-08T03:50:05.620Z</time>
      </trkpt>
      <trkpt lat="45.9105" lon="3.83746">
        <ele>610</ele>
        <time>2024-12-08T03:50:06.620Z</time>
      </trkpt>
      <trkpt lat="45.9105" lon="3.83749">
        <ele>610</ele>
        <time>2024-12-08T03:50:07.619Z</time>
      </trkpt>
      <trkpt lat="45.9105" lon="3.83752">
        <ele>610</ele>
        <time>2024-12-08T03:50:08.619Z</time>
      </trkpt>
      <trkpt lat="45.91049" lon="3.83755">
        <ele>610</ele>
        <time>2024-12-08T03:50:09.620Z</time>
      </trkpt>
      <trkpt lat="45.91049" lon="3.83758">
        <ele>609</ele>
        <time>2024-12-08T03:50:10.619Z</time>
      </trkpt>
      <trkpt lat="45.91048" lon="3.8376">
        <ele>609</ele>
        <time>2024-12-08T03:50:11.619Z</time>
      </trkpt>
      <trkpt lat="45.91048" lon="3.83763">
        <ele>609</ele>
        <time>2024-12-08T03:50:12.619Z</time>
      </trkpt>
      <trkpt lat="45.91047" lon="3.83766">
        <ele>608</ele>
        <time>2024-12-08T03:50:13.620Z</time>
      </trkpt>
      <trkpt lat="45.91046" lon="3.83769">
        <ele>608</ele>
        <time>2024-12-08T03:50:14.620Z</time>
      </trkpt>
      <trkpt lat="45.91046" lon="3.83772">
        <ele>608</ele>
        <time>2024-12-08T03:50:15.619Z</time>
      </trkpt>
      <trkpt lat="45.91045" lon="3.83775">
        <ele>608</ele>
        <time>2024-12-08T03:50:16.620Z</time>
      </trkpt>
      <trkpt lat="45.91045" lon="3.83777">
        <ele>608</ele>
        <time>2024-12-08T03:50:17.619Z</time>
      </trkpt>
      <trkpt lat="45.91044" lon="3.8378">
        <ele>607</ele>
        <time>2024-12-08T03:50:18.620Z</time>
      </trkpt>
      <trkpt lat="45.91043" lon="3.83783">
        <ele>607</ele>
        <time>2024-12-08T03:50:19.619Z</time>
      </trkpt>
      <trkpt lat="45.91042" lon="3.83785">
        <ele>607</ele>
        <time>2024-12-08T03:50:20.619Z</time>
      </trkpt>
      <trkpt lat="45.91042" lon="3.83788">
        <ele>607</ele>
        <time>2024-12-08T03:50:21.620Z</time>
      </trkpt>
      <trkpt lat="45.91041" lon="3.83791">
        <ele>607</ele>
        <time>2024-12-08T03:50:22.620Z</time>
      </trkpt>
      <trkpt lat="45.91041" lon="3.83794">
        <ele>606</ele>
        <time>2024-12-08T03:50:23.619Z</time>
      </trkpt>
      <trkpt lat="45.9104" lon="3.83796">
        <ele>606</ele>
        <time>2024-12-08T03:50:24.619Z</time>
      </trkpt>
      <trkpt lat="45.9104" lon="3.83799">
        <ele>606</ele>
        <time>2024-12-08T03:50:25.620Z</time>
      </trkpt>
      <trkpt lat="45.91039" lon="3.83802">
        <ele>606</ele>
        <time>2024-12-08T03:50:26.620Z</time>
      </trkpt>
      <trkpt lat="45.91038" lon="3.83805">
        <ele>606</ele>
        <time>2024-12-08T03:50:27.619Z</time>
      </trkpt>
      <trkpt lat="45.91038" lon="3.83808">
        <ele>606</ele>
        <time>2024-12-08T03:50:28.619Z</time>
      </trkpt>
      <trkpt lat="45.91038" lon="3.8381">
        <ele>606</ele>
        <time>2024-12-08T03:50:29.620Z</time>
      </trkpt>
      <trkpt lat="45.91037" lon="3.83813">
        <ele>606</ele>
        <time>2024-12-08T03:50:30.619Z</time>
      </trkpt>
      <trkpt lat="45.91037" lon="3.83816">
        <ele>605</ele>
        <time>2024-12-08T03:50:31.620Z</time>
      </trkpt>
      <trkpt lat="45.91037" lon="3.83818">
        <ele>605</ele>
        <time>2024-12-08T03:50:32.619Z</time>
      </trkpt>
      <trkpt lat="45.91036" lon="3.83821">
        <ele>605</ele>
        <time>2024-12-08T03:50:33.619Z</time>
      </trkpt>
      <trkpt lat="45.91036" lon="3.83824">
        <ele>604</ele>
        <time>2024-12-08T03:50:34.619Z</time>
      </trkpt>
      <trkpt lat="45.91035" lon="3.83826">
        <ele>605</ele>
        <time>2024-12-08T03:50:35.619Z</time>
      </trkpt>
      <trkpt lat="45.91034" lon="3.83829">
        <ele>604</ele>
        <time>2024-12-08T03:50:36.619Z</time>
      </trkpt>
      <trkpt lat="45.91034" lon="3.83832">
        <ele>605</ele>
        <time>2024-12-08T03:50:37.619Z</time>
      </trkpt>
      <trkpt lat="45.91033" lon="3.83835">
        <ele>605</ele>
        <time>2024-12-08T03:50:38.619Z</time>
      </trkpt>
      <trkpt lat="45.91032" lon="3.83838">
        <ele>604</ele>
        <time>2024-12-08T03:50:39.620Z</time>
      </trkpt>
      <trkpt lat="45.91031" lon="3.83841">
        <ele>604</ele>
        <time>2024-12-08T03:50:40.620Z</time>
      </trkpt>
      <trkpt lat="45.91031" lon="3.83844">
        <ele>604</ele>
        <time>2024-12-08T03:50:41.619Z</time>
      </trkpt>
      <trkpt lat="45.9103" lon="3.83847">
        <ele>603</ele>
        <time>2024-12-08T03:50:42.620Z</time>
      </trkpt>
      <trkpt lat="45.9103" lon="3.83849">
        <ele>603</ele>
        <time>2024-12-08T03:50:43.620Z</time>
      </trkpt>
      <trkpt lat="45.91029" lon="3.83852">
        <ele>603</ele>
        <time>2024-12-08T03:50:44.619Z</time>
      </trkpt>
      <trkpt lat="45.91029" lon="3.83855">
        <ele>603</ele>
        <time>2024-12-08T03:50:45.619Z</time>
      </trkpt>
      <trkpt lat="45.91028" lon="3.83858">
        <ele>603</ele>
        <time>2024-12-08T03:50:46.620Z</time>
      </trkpt>
      <trkpt lat="45.91028" lon="3.8386">
        <ele>602</ele>
        <time>2024-12-08T03:50:47.619Z</time>
      </trkpt>
      <trkpt lat="45.91027" lon="3.83862">
        <ele>602</ele>
        <time>2024-12-08T03:50:48.620Z</time>
      </trkpt>
      <trkpt lat="45.91027" lon="3.83865">
        <ele>602</ele>
        <time>2024-12-08T03:50:49.620Z</time>
      </trkpt>
      <trkpt lat="45.91026" lon="3.83867">
        <ele>602</ele>
        <time>2024-12-08T03:50:50.620Z</time>
      </trkpt>
      <trkpt lat="45.91026" lon="3.83869">
        <ele>601</ele>
        <time>2024-12-08T03:50:51.620Z</time>
      </trkpt>
      <trkpt lat="45.91026" lon="3.83872">
        <ele>601</ele>
        <time>2024-12-08T03:50:52.619Z</time>
      </trkpt>
      <trkpt lat="45.91025" lon="3.83875">
        <ele>601</ele>
        <time>2024-12-08T03:50:53.619Z</time>
      </trkpt>
      <trkpt lat="45.91024" lon="3.83877">
        <ele>601</ele>
        <time>2024-12-08T03:50:54.620Z</time>
      </trkpt>
      <trkpt lat="45.91024" lon="3.8388">
        <ele>601</ele>
        <time>2024-12-08T03:50:55.620Z</time>
      </trkpt>
      <trkpt lat="45.91023" lon="3.83882">
        <ele>601</ele>
        <time>2024-12-08T03:50:56.619Z</time>
      </trkpt>
      <trkpt lat="45.91023" lon="3.83885">
        <ele>601</ele>
        <time>2024-12-08T03:50:57.620Z</time>
      </trkpt>
      <trkpt lat="45.91023" lon="3.83887">
        <ele>601</ele>
        <time>2024-12-08T03:50:58.620Z</time>
      </trkpt>
      <trkpt lat="45.91022" lon="3.8389">
        <ele>602</ele>
        <time>2024-12-08T03:50:59.620Z</time>
      </trkpt>
      <trkpt lat="45.91021" lon="3.83892">
        <ele>602</ele>
        <time>2024-12-08T03:51:00.619Z</time>
      </trkpt>
      <trkpt lat="45.91021" lon="3.83894">
        <ele>602</ele>
        <time>2024-12-08T03:51:01.619Z</time>
      </trkpt>
      <trkpt lat="45.9102" lon="3.83897">
        <ele>602</ele>
        <time>2024-12-08T03:51:02.619Z</time>
      </trkpt>
      <trkpt lat="45.9102" lon="3.83899">
        <ele>602</ele>
        <time>2024-12-08T03:51:03.620Z</time>
      </trkpt>
      <trkpt lat="45.91019" lon="3.83902">
        <ele>602</ele>
        <time>2024-12-08T03:51:04.620Z</time>
      </trkpt>
      <trkpt lat="45.91019" lon="3.83904">
        <ele>601</ele>
        <time>2024-12-08T03:51:05.620Z</time>
      </trkpt>
      <trkpt lat="45.91018" lon="3.83907">
        <ele>601</ele>
        <time>2024-12-08T03:51:06.619Z</time>
      </trkpt>
      <trkpt lat="45.91018" lon="3.83909">
        <ele>601</ele>
        <time>2024-12-08T03:51:07.620Z</time>
      </trkpt>
      <trkpt lat="45.91017" lon="3.83911">
        <ele>600</ele>
        <time>2024-12-08T03:51:08.619Z</time>
      </trkpt>
      <trkpt lat="45.91017" lon="3.83914">
        <ele>600</ele>
        <time>2024-12-08T03:51:09.619Z</time>
      </trkpt>
      <trkpt lat="45.91017" lon="3.83916">
        <ele>600</ele>
        <time>2024-12-08T03:51:10.619Z</time>
      </trkpt>
      <trkpt lat="45.91016" lon="3.83918">
        <ele>600</ele>
        <time>2024-12-08T03:51:11.619Z</time>
      </trkpt>
      <trkpt lat="45.91016" lon="3.8392">
        <ele>600</ele>
        <time>2024-12-08T03:51:12.619Z</time>
      </trkpt>
      <trkpt lat="45.91015" lon="3.83922">
        <ele>599</ele>
        <time>2024-12-08T03:51:13.620Z</time>
      </trkpt>
      <trkpt lat="45.91015" lon="3.83925">
        <ele>599</ele>
        <time>2024-12-08T03:51:14.619Z</time>
      </trkpt>
      <trkpt lat="45.91014" lon="3.83928">
        <ele>600</ele>
        <time>2024-12-08T03:51:15.619Z</time>
      </trkpt>
      <trkpt lat="45.91013" lon="3.83931">
        <ele>600</ele>
        <time>2024-12-08T03:51:16.620Z</time>
      </trkpt>
      <trkpt lat="45.91012" lon="3.83933">
        <ele>600</ele>
        <time>2024-12-08T03:51:17.619Z</time>
      </trkpt>
      <trkpt lat="45.91012" lon="3.83936">
        <ele>600</ele>
        <time>2024-12-08T03:51:18.620Z</time>
      </trkpt>
      <trkpt lat="45.91011" lon="3.83938">
        <ele>600</ele>
        <time>2024-12-08T03:51:19.619Z</time>
      </trkpt>
      <trkpt lat="45.91011" lon="3.83941">
        <ele>600</ele>
        <time>2024-12-08T03:51:20.620Z</time>
      </trkpt>
      <trkpt lat="45.91011" lon="3.83943">
        <ele>600</ele>
        <time>2024-12-08T03:51:21.619Z</time>
      </trkpt>
      <trkpt lat="45.9101" lon="3.83946">
        <ele>600</ele>
        <time>2024-12-08T03:51:22.620Z</time>
      </trkpt>
      <trkpt lat="45.9101" lon="3.83949">
        <ele>600</ele>
        <time>2024-12-08T03:51:23.620Z</time>
      </trkpt>
      <trkpt lat="45.91009" lon="3.83951">
        <ele>600</ele>
        <time>2024-12-08T03:51:24.620Z</time>
      </trkpt>
      <trkpt lat="45.91009" lon="3.83954">
        <ele>600</ele>
        <time>2024-12-08T03:51:25.619Z</time>
      </trkpt>
      <trkpt lat="45.91008" lon="3.83957">
        <ele>600</ele>
        <time>2024-12-08T03:51:26.620Z</time>
      </trkpt>
      <trkpt lat="45.91008" lon="3.83959">
        <ele>600</ele>
        <time>2024-12-08T03:51:27.619Z</time>
      </trkpt>
      <trkpt lat="45.91007" lon="3.83962">
        <ele>600</ele>
        <time>2024-12-08T03:51:28.620Z</time>
      </trkpt>
      <trkpt lat="45.91007" lon="3.83965">
        <ele>600</ele>
        <time>2024-12-08T03:51:29.620Z</time>
      </trkpt>
      <trkpt lat="45.91006" lon="3.83968">
        <ele>600</ele>
        <time>2024-12-08T03:51:30.619Z</time>
      </trkpt>
      <trkpt lat="45.91006" lon="3.83971">
        <ele>600</ele>
        <time>2024-12-08T03:51:31.620Z</time>
      </trkpt>
      <trkpt lat="45.91006" lon="3.83973">
        <ele>599</ele>
        <time>2024-12-08T03:51:32.619Z</time>
      </trkpt>
      <trkpt lat="45.91005" lon="3.83976">
        <ele>599</ele>
        <time>2024-12-08T03:51:33.620Z</time>
      </trkpt>
      <trkpt lat="45.91005" lon="3.83978">
        <ele>599</ele>
        <time>2024-12-08T03:51:34.619Z</time>
      </trkpt>
      <trkpt lat="45.91005" lon="3.83981">
        <ele>598</ele>
        <time>2024-12-08T03:51:35.619Z</time>
      </trkpt>
      <trkpt lat="45.91005" lon="3.83984">
        <ele>598</ele>
        <time>2024-12-08T03:51:36.619Z</time>
      </trkpt>
      <trkpt lat="45.91005" lon="3.83986">
        <ele>598</ele>
        <time>2024-12-08T03:51:37.619Z</time>
      </trkpt>
      <trkpt lat="45.91005" lon="3.83988">
        <ele>598</ele>
        <time>2024-12-08T03:51:38.619Z</time>
      </trkpt>
      <trkpt lat="45.91005" lon="3.83991">
        <ele>598</ele>
        <time>2024-12-08T03:51:39.620Z</time>
      </trkpt>
      <trkpt lat="45.91005" lon="3.83994">
        <ele>597</ele>
        <time>2024-12-08T03:51:40.619Z</time>
      </trkpt>
      <trkpt lat="45.91005" lon="3.83997">
        <ele>597</ele>
        <time>2024-12-08T03:51:41.619Z</time>
      </trkpt>
      <trkpt lat="45.91006" lon="3.83999">
        <ele>597</ele>
        <time>2024-12-08T03:51:42.619Z</time>
      </trkpt>
      <trkpt lat="45.91006" lon="3.84002">
        <ele>598</ele>
        <time>2024-12-08T03:51:43.619Z</time>
      </trkpt>
      <trkpt lat="45.91007" lon="3.84005">
        <ele>598</ele>
        <time>2024-12-08T03:51:44.619Z</time>
      </trkpt>
      <trkpt lat="45.91007" lon="3.84007">
        <ele>598</ele>
        <time>2024-12-08T03:51:45.620Z</time>
      </trkpt>
      <trkpt lat="45.91008" lon="3.8401">
        <ele>598</ele>
        <time>2024-12-08T03:51:46.620Z</time>
      </trkpt>
      <trkpt lat="45.91009" lon="3.84012">
        <ele>598</ele>
        <time>2024-12-08T03:51:47.619Z</time>
      </trkpt>
      <trkpt lat="45.9101" lon="3.84014">
        <ele>598</ele>
        <time>2024-12-08T03:51:48.620Z</time>
      </trkpt>
      <trkpt lat="45.91011" lon="3.84017">
        <ele>598</ele>
        <time>2024-12-08T03:51:49.619Z</time>
      </trkpt>
      <trkpt lat="45.91012" lon="3.84019">
        <ele>598</ele>
        <time>2024-12-08T03:51:50.619Z</time>
      </trkpt>
      <trkpt lat="45.91013" lon="3.84021">
        <ele>598</ele>
        <time>2024-12-08T03:51:51.619Z</time>
      </trkpt>
      <trkpt lat="45.91014" lon="3.84023">
        <ele>599</ele>
        <time>2024-12-08T03:51:52.620Z</time>
      </trkpt>
      <trkpt lat="45.91015" lon="3.84025">
        <ele>599</ele>
        <time>2024-12-08T03:51:53.620Z</time>
      </trkpt>
      <trkpt lat="45.91016" lon="3.84027">
        <ele>599</ele>
        <time>2024-12-08T03:51:54.620Z</time>
      </trkpt>
      <trkpt lat="45.91017" lon="3.84029">
        <ele>599</ele>
        <time>2024-12-08T03:51:55.619Z</time>
      </trkpt>
      <trkpt lat="45.91018" lon="3.84031">
        <ele>599</ele>
        <time>2024-12-08T03:51:56.620Z</time>
      </trkpt>
      <trkpt lat="45.91019" lon="3.84033">
        <ele>598</ele>
        <time>2024-12-08T03:51:57.619Z</time>
      </trkpt>
      <trkpt lat="45.9102" lon="3.84035">
        <ele>598</ele>
        <time>2024-12-08T03:51:58.620Z</time>
      </trkpt>
      <trkpt lat="45.91022" lon="3.84037">
        <ele>599</ele>
        <time>2024-12-08T03:51:59.620Z</time>
      </trkpt>
      <trkpt lat="45.91023" lon="3.84039">
        <ele>599</ele>
        <time>2024-12-08T03:52:00.620Z</time>
      </trkpt>
      <trkpt lat="45.91024" lon="3.84041">
        <ele>598</ele>
        <time>2024-12-08T03:52:01.619Z</time>
      </trkpt>
      <trkpt lat="45.91025" lon="3.84043">
        <ele>598</ele>
        <time>2024-12-08T03:52:02.619Z</time>
      </trkpt>
      <trkpt lat="45.91026" lon="3.84045">
        <ele>598</ele>
        <time>2024-12-08T03:52:03.620Z</time>
      </trkpt>
      <trkpt lat="45.91027" lon="3.84047">
        <ele>598</ele>
        <time>2024-12-08T03:52:04.619Z</time>
      </trkpt>
      <trkpt lat="45.91028" lon="3.84049">
        <ele>598</ele>
        <time>2024-12-08T03:52:05.620Z</time>
      </trkpt>
      <trkpt lat="45.9103" lon="3.8405">
        <ele>598</ele>
        <time>2024-12-08T03:52:06.620Z</time>
      </trkpt>
      <trkpt lat="45.91031" lon="3.84051">
        <ele>598</ele>
        <time>2024-12-08T03:52:07.620Z</time>
      </trkpt>
      <trkpt lat="45.91032" lon="3.84053">
        <ele>598</ele>
        <time>2024-12-08T03:52:08.620Z</time>
      </trkpt>
      <trkpt lat="45.91034" lon="3.84055">
        <ele>598</ele>
        <time>2024-12-08T03:52:09.619Z</time>
      </trkpt>
      <trkpt lat="45.91035" lon="3.84056">
        <ele>598</ele>
        <time>2024-12-08T03:52:10.620Z</time>
      </trkpt>
      <trkpt lat="45.91037" lon="3.84058">
        <ele>598</ele>
        <time>2024-12-08T03:52:11.620Z</time>
      </trkpt>
      <trkpt lat="45.91038" lon="3.8406">
        <ele>598</ele>
        <time>2024-12-08T03:52:12.619Z</time>
      </trkpt>
      <trkpt lat="45.91039" lon="3.84061">
        <ele>597</ele>
        <time>2024-12-08T03:52:13.620Z</time>
      </trkpt>
      <trkpt lat="45.91041" lon="3.84063">
        <ele>598</ele>
        <time>2024-12-08T03:52:14.619Z</time>
      </trkpt>
      <trkpt lat="45.91042" lon="3.84064">
        <ele>598</ele>
        <time>2024-12-08T03:52:15.620Z</time>
      </trkpt>
      <trkpt lat="45.91044" lon="3.84065">
        <ele>598</ele>
        <time>2024-12-08T03:52:16.619Z</time>
      </trkpt>
      <trkpt lat="45.91046" lon="3.84066">
        <ele>598</ele>
        <time>2024-12-08T03:52:17.620Z</time>
      </trkpt>
      <trkpt lat="45.91047" lon="3.84068">
        <ele>599</ele>
        <time>2024-12-08T03:52:18.619Z</time>
      </trkpt>
      <trkpt lat="45.91049" lon="3.84069">
        <ele>599</ele>
        <time>2024-12-08T03:52:19.619Z</time>
      </trkpt>
      <trkpt lat="45.91051" lon="3.8407">
        <ele>600</ele>
        <time>2024-12-08T03:52:20.620Z</time>
      </trkpt>
      <trkpt lat="45.91053" lon="3.84071">
        <ele>601</ele>
        <time>2024-12-08T03:52:21.620Z</time>
      </trkpt>
      <trkpt lat="45.91054" lon="3.84072">
        <ele>601</ele>
        <time>2024-12-08T03:52:22.619Z</time>
      </trkpt>
      <trkpt lat="45.91055" lon="3.84073">
        <ele>602</ele>
        <time>2024-12-08T03:52:23.619Z</time>
      </trkpt>
      <trkpt lat="45.91056" lon="3.84075">
        <ele>602</ele>
        <time>2024-12-08T03:52:24.619Z</time>
      </trkpt>
      <trkpt lat="45.91058" lon="3.84076">
        <ele>602</ele>
        <time>2024-12-08T03:52:25.619Z</time>
      </trkpt>
      <trkpt lat="45.91059" lon="3.84077">
        <ele>602</ele>
        <time>2024-12-08T03:52:26.619Z</time>
      </trkpt>
      <trkpt lat="45.91061" lon="3.84078">
        <ele>602</ele>
        <time>2024-12-08T03:52:27.620Z</time>
      </trkpt>
      <trkpt lat="45.91063" lon="3.84079">
        <ele>603</ele>
        <time>2024-12-08T03:52:28.619Z</time>
      </trkpt>
      <trkpt lat="45.91064" lon="3.8408">
        <ele>603</ele>
        <time>2024-12-08T03:52:29.620Z</time>
      </trkpt>
      <trkpt lat="45.91066" lon="3.84081">
        <ele>604</ele>
        <time>2024-12-08T03:52:30.619Z</time>
      </trkpt>
      <trkpt lat="45.91068" lon="3.84082">
        <ele>604</ele>
        <time>2024-12-08T03:52:31.619Z</time>
      </trkpt>
      <trkpt lat="45.9107" lon="3.84083">
        <ele>605</ele>
        <time>2024-12-08T03:52:32.619Z</time>
      </trkpt>
      <trkpt lat="45.91071" lon="3.84083">
        <ele>605</ele>
        <time>2024-12-08T03:52:33.620Z</time>
      </trkpt>
      <trkpt lat="45.91073" lon="3.84084">
        <ele>605</ele>
        <time>2024-12-08T03:52:34.619Z</time>
      </trkpt>
      <trkpt lat="45.91075" lon="3.84085">
        <ele>605</ele>
        <time>2024-12-08T03:52:35.620Z</time>
      </trkpt>
      <trkpt lat="45.91076" lon="3.84086">
        <ele>605</ele>
        <time>2024-12-08T03:52:36.620Z</time>
      </trkpt>
      <trkpt lat="45.91078" lon="3.84087">
        <ele>605</ele>
        <time>2024-12-08T03:52:37.620Z</time>
      </trkpt>
      <trkpt lat="45.9108" lon="3.84088">
        <ele>605</ele>
        <time>2024-12-08T03:52:38.619Z</time>
      </trkpt>
      <trkpt lat="45.91082" lon="3.84089">
        <ele>605</ele>
        <time>2024-12-08T03:52:39.619Z</time>
      </trkpt>
      <trkpt lat="45.91083" lon="3.84089">
        <ele>605</ele>
        <time>2024-12-08T03:52:40.620Z</time>
      </trkpt>
      <trkpt lat="45.91085" lon="3.8409">
        <ele>605</ele>
        <time>2024-12-08T03:52:41.619Z</time>
      </trkpt>
      <trkpt lat="45.91086" lon="3.84091">
        <ele>605</ele>
        <time>2024-12-08T03:52:42.620Z</time>
      </trkpt>
      <trkpt lat="45.91088" lon="3.84091">
        <ele>606</ele>
        <time>2024-12-08T03:52:43.620Z</time>
      </trkpt>
      <trkpt lat="45.9109" lon="3.84092">
        <ele>606</ele>
        <time>2024-12-08T03:52:44.619Z</time>
      </trkpt>
      <trkpt lat="45.91092" lon="3.84093">
        <ele>606</ele>
        <time>2024-12-08T03:52:45.619Z</time>
      </trkpt>
      <trkpt lat="45.91094" lon="3.84094">
        <ele>606</ele>
        <time>2024-12-08T03:52:46.620Z</time>
      </trkpt>
      <trkpt lat="45.91096" lon="3.84095">
        <ele>606</ele>
        <time>2024-12-08T03:52:47.619Z</time>
      </trkpt>
      <trkpt lat="45.91098" lon="3.84096">
        <ele>605</ele>
        <time>2024-12-08T03:52:48.619Z</time>
      </trkpt>
      <trkpt lat="45.911" lon="3.84097">
        <ele>605</ele>
        <time>2024-12-08T03:52:49.620Z</time>
      </trkpt>
      <trkpt lat="45.91101" lon="3.84098">
        <ele>604</ele>
        <time>2024-12-08T03:52:50.620Z</time>
      </trkpt>
      <trkpt lat="45.91103" lon="3.84099">
        <ele>604</ele>
        <time>2024-12-08T03:52:51.619Z</time>
      </trkpt>
      <trkpt lat="45.91104" lon="3.84099">
        <ele>604</ele>
        <time>2024-12-08T03:52:52.620Z</time>
      </trkpt>
      <trkpt lat="45.91106" lon="3.841">
        <ele>604</ele>
        <time>2024-12-08T03:52:53.619Z</time>
      </trkpt>
      <trkpt lat="45.91108" lon="3.84101">
        <ele>604</ele>
        <time>2024-12-08T03:52:54.620Z</time>
      </trkpt>
      <trkpt lat="45.91109" lon="3.84101">
        <ele>603</ele>
        <time>2024-12-08T03:52:55.620Z</time>
      </trkpt>
      <trkpt lat="45.91111" lon="3.84102">
        <ele>603</ele>
        <time>2024-12-08T03:52:56.619Z</time>
      </trkpt>
      <trkpt lat="45.91113" lon="3.84103">
        <ele>603</ele>
        <time>2024-12-08T03:52:57.619Z</time>
      </trkpt>
      <trkpt lat="45.91114" lon="3.84104">
        <ele>603</ele>
        <time>2024-12-08T03:52:58.619Z</time>
      </trkpt>
      <trkpt lat="45.91116" lon="3.84105">
        <ele>603</ele>
        <time>2024-12-08T03:52:59.620Z</time>
      </trkpt>
      <trkpt lat="45.91118" lon="3.84106">
        <ele>603</ele>
        <time>2024-12-08T03:53:00.620Z</time>
      </trkpt>
      <trkpt lat="45.9112" lon="3.84106">
        <ele>603</ele>
        <time>2024-12-08T03:53:01.620Z</time>
      </trkpt>
      <trkpt lat="45.91121" lon="3.84107">
        <ele>603</ele>
        <time>2024-12-08T03:53:02.619Z</time>
      </trkpt>
      <trkpt lat="45.91123" lon="3.84108">
        <ele>603</ele>
        <time>2024-12-08T03:53:03.620Z</time>
      </trkpt>
      <trkpt lat="45.91124" lon="3.84109">
        <ele>603</ele>
        <time>2024-12-08T03:53:04.620Z</time>
      </trkpt>
      <trkpt lat="45.91125" lon="3.8411">
        <ele>603</ele>
        <time>2024-12-08T03:53:05.619Z</time>
      </trkpt>
      <trkpt lat="45.91126" lon="3.84111">
        <ele>603</ele>
        <time>2024-12-08T03:53:06.620Z</time>
      </trkpt>
      <trkpt lat="45.91128" lon="3.84112">
        <ele>603</ele>
        <time>2024-12-08T03:53:07.619Z</time>
      </trkpt>
      <trkpt lat="45.91129" lon="3.84113">
        <ele>603</ele>
        <time>2024-12-08T03:53:08.620Z</time>
      </trkpt>
      <trkpt lat="45.91131" lon="3.84114">
        <ele>603</ele>
        <time>2024-12-08T03:53:09.619Z</time>
      </trkpt>
      <trkpt lat="45.91132" lon="3.84115">
        <ele>604</ele>
        <time>2024-12-08T03:53:10.619Z</time>
      </trkpt>
      <trkpt lat="45.91134" lon="3.84116">
        <ele>604</ele>
        <time>2024-12-08T03:53:11.620Z</time>
      </trkpt>
      <trkpt lat="45.91136" lon="3.84116">
        <ele>604</ele>
        <time>2024-12-08T03:53:12.620Z</time>
      </trkpt>
      <trkpt lat="45.91137" lon="3.84117">
        <ele>604</ele>
        <time>2024-12-08T03:53:13.619Z</time>
      </trkpt>
      <trkpt lat="45.91139" lon="3.84118">
        <ele>605</ele>
        <time>2024-12-08T03:53:14.620Z</time>
      </trkpt>
      <trkpt lat="45.9114" lon="3.84118">
        <ele>605</ele>
        <time>2024-12-08T03:53:15.620Z</time>
      </trkpt>
      <trkpt lat="45.91142" lon="3.84119">
        <ele>605</ele>
        <time>2024-12-08T03:53:16.619Z</time>
      </trkpt>
      <trkpt lat="45.91143" lon="3.84119">
        <ele>605</ele>
        <time>2024-12-08T03:53:17.619Z</time>
      </trkpt>
      <trkpt lat="45.91145" lon="3.84119">
        <ele>605</ele>
        <time>2024-12-08T03:53:18.619Z</time>
      </trkpt>
      <trkpt lat="45.91146" lon="3.8412">
        <ele>605</ele>
        <time>2024-12-08T03:53:19.620Z</time>
      </trkpt>
      <trkpt lat="45.91147" lon="3.84121">
        <ele>604</ele>
        <time>2024-12-08T03:53:20.619Z</time>
      </trkpt>
      <trkpt lat="45.91149" lon="3.84122">
        <ele>604</ele>
        <time>2024-12-08T03:53:21.619Z</time>
      </trkpt>
      <trkpt lat="45.9115" lon="3.84123">
        <ele>604</ele>
        <time>2024-12-08T03:53:22.619Z</time>
      </trkpt>
      <trkpt lat="45.91152" lon="3.84124">
        <ele>604</ele>
        <time>2024-12-08T03:53:23.620Z</time>
      </trkpt>
      <trkpt lat="45.91154" lon="3.84125">
        <ele>604</ele>
        <time>2024-12-08T03:53:24.620Z</time>
      </trkpt>
      <trkpt lat="45.91155" lon="3.84125">
        <ele>604</ele>
        <time>2024-12-08T03:53:25.620Z</time>
      </trkpt>
      <trkpt lat="45.91157" lon="3.84126">
        <ele>604</ele>
        <time>2024-12-08T03:53:26.619Z</time>
      </trkpt>
      <trkpt lat="45.91158" lon="3.84127">
        <ele>604</ele>
        <time>2024-12-08T03:53:27.620Z</time>
      </trkpt>
      <trkpt lat="45.9116" lon="3.84128">
        <ele>604</ele>
        <time>2024-12-08T03:53:28.619Z</time>
      </trkpt>
      <trkpt lat="45.91161" lon="3.84129">
        <ele>604</ele>
        <time>2024-12-08T03:53:29.620Z</time>
      </trkpt>
      <trkpt lat="45.91163" lon="3.8413">
        <ele>604</ele>
        <time>2024-12-08T03:53:30.619Z</time>
      </trkpt>
      <trkpt lat="45.91164" lon="3.84131">
        <ele>605</ele>
        <time>2024-12-08T03:53:31.619Z</time>
      </trkpt>
      <trkpt lat="45.91166" lon="3.84132">
        <ele>605</ele>
        <time>2024-12-08T03:53:32.620Z</time>
      </trkpt>
      <trkpt lat="45.91168" lon="3.84133">
        <ele>605</ele>
        <time>2024-12-08T03:53:33.620Z</time>
      </trkpt>
      <trkpt lat="45.9117" lon="3.84134">
        <ele>605</ele>
        <time>2024-12-08T03:53:34.619Z</time>
      </trkpt>
      <trkpt lat="45.91172" lon="3.84135">
        <ele>605</ele>
        <time>2024-12-08T03:53:35.620Z</time>
      </trkpt>
      <trkpt lat="45.91173" lon="3.84136">
        <ele>605</ele>
        <time>2024-12-08T03:53:36.620Z</time>
      </trkpt>
      <trkpt lat="45.91175" lon="3.84136">
        <ele>604</ele>
        <time>2024-12-08T03:53:37.620Z</time>
      </trkpt>
      <trkpt lat="45.91177" lon="3.84137">
        <ele>604</ele>
        <time>2024-12-08T03:53:38.620Z</time>
      </trkpt>
      <trkpt lat="45.91178" lon="3.84138">
        <ele>604</ele>
        <time>2024-12-08T03:53:39.619Z</time>
      </trkpt>
      <trkpt lat="45.9118" lon="3.84139">
        <ele>604</ele>
        <time>2024-12-08T03:53:40.619Z</time>
      </trkpt>
      <trkpt lat="45.91181" lon="3.8414">
        <ele>604</ele>
        <time>2024-12-08T03:53:41.619Z</time>
      </trkpt>
      <trkpt lat="45.91183" lon="3.84141">
        <ele>604</ele>
        <time>2024-12-08T03:53:42.620Z</time>
      </trkpt>
      <trkpt lat="45.91185" lon="3.84141">
        <ele>604</ele>
        <time>2024-12-08T03:53:43.619Z</time>
      </trkpt>
      <trkpt lat="45.91186" lon="3.84142">
        <ele>604</ele>
        <time>2024-12-08T03:53:44.619Z</time>
      </trkpt>
      <trkpt lat="45.91188" lon="3.84143">
        <ele>604</ele>
        <time>2024-12-08T03:53:45.619Z</time>
      </trkpt>
      <trkpt lat="45.9119" lon="3.84144">
        <ele>604</ele>
        <time>2024-12-08T03:53:46.620Z</time>
      </trkpt>
      <trkpt lat="45.91191" lon="3.84145">
        <ele>604</ele>
        <time>2024-12-08T03:53:47.619Z</time>
      </trkpt>
      <trkpt lat="45.91193" lon="3.84146">
        <ele>604</ele>
        <time>2024-12-08T03:53:48.620Z</time>
      </trkpt>
      <trkpt lat="45.91194" lon="3.84146">
        <ele>604</ele>
        <time>2024-12-08T03:53:49.619Z</time>
      </trkpt>
      <trkpt lat="45.91196" lon="3.84147">
        <ele>605</ele>
        <time>2024-12-08T03:53:50.620Z</time>
      </trkpt>
      <trkpt lat="45.91198" lon="3.84148">
        <ele>605</ele>
        <time>2024-12-08T03:53:51.620Z</time>
      </trkpt>
      <trkpt lat="45.912" lon="3.84149">
        <ele>605</ele>
        <time>2024-12-08T03:53:52.620Z</time>
      </trkpt>
      <trkpt lat="45.91202" lon="3.8415">
        <ele>605</ele>
        <time>2024-12-08T03:53:53.619Z</time>
      </trkpt>
      <trkpt lat="45.91203" lon="3.84151">
        <ele>605</ele>
        <time>2024-12-08T03:53:54.620Z</time>
      </trkpt>
      <trkpt lat="45.91205" lon="3.84152">
        <ele>605</ele>
        <time>2024-12-08T03:53:55.619Z</time>
      </trkpt>
      <trkpt lat="45.91207" lon="3.84153">
        <ele>606</ele>
        <time>2024-12-08T03:53:56.619Z</time>
      </trkpt>
      <trkpt lat="45.91208" lon="3.84154">
        <ele>606</ele>
        <time>2024-12-08T03:53:57.620Z</time>
      </trkpt>
      <trkpt lat="45.9121" lon="3.84155">
        <ele>607</ele>
        <time>2024-12-08T03:53:58.620Z</time>
      </trkpt>
      <trkpt lat="45.91211" lon="3.84156">
        <ele>607</ele>
        <time>2024-12-08T03:53:59.620Z</time>
      </trkpt>
      <trkpt lat="45.91213" lon="3.84156">
        <ele>608</ele>
        <time>2024-12-08T03:54:00.620Z</time>
      </trkpt>
      <trkpt lat="45.91214" lon="3.84157">
        <ele>608</ele>
        <time>2024-12-08T03:54:01.620Z</time>
      </trkpt>
      <trkpt lat="45.91215" lon="3.84158">
        <ele>608</ele>
        <time>2024-12-08T03:54:02.619Z</time>
      </trkpt>
      <trkpt lat="45.91217" lon="3.84158">
        <ele>608</ele>
        <time>2024-12-08T03:54:03.620Z</time>
      </trkpt>
      <trkpt lat="45.91219" lon="3.84159">
        <ele>609</ele>
        <time>2024-12-08T03:54:04.619Z</time>
      </trkpt>
      <trkpt lat="45.91221" lon="3.8416">
        <ele>609</ele>
        <time>2024-12-08T03:54:05.619Z</time>
      </trkpt>
      <trkpt lat="45.91222" lon="3.84161">
        <ele>609</ele>
        <time>2024-12-08T03:54:06.619Z</time>
      </trkpt>
      <trkpt lat="45.91224" lon="3.84161">
        <ele>609</ele>
        <time>2024-12-08T03:54:07.620Z</time>
      </trkpt>
      <trkpt lat="45.91225" lon="3.84162">
        <ele>609</ele>
        <time>2024-12-08T03:54:08.619Z</time>
      </trkpt>
      <trkpt lat="45.91227" lon="3.84162">
        <ele>609</ele>
        <time>2024-12-08T03:54:09.619Z</time>
      </trkpt>
      <trkpt lat="45.91229" lon="3.84163">
        <ele>609</ele>
        <time>2024-12-08T03:54:10.619Z</time>
      </trkpt>
      <trkpt lat="45.9123" lon="3.84164">
        <ele>609</ele>
        <time>2024-12-08T03:54:11.619Z</time>
      </trkpt>
      <trkpt lat="45.91232" lon="3.84164">
        <ele>609</ele>
        <time>2024-12-08T03:54:12.620Z</time>
      </trkpt>
      <trkpt lat="45.91234" lon="3.84165">
        <ele>608</ele>
        <time>2024-12-08T03:54:13.620Z</time>
      </trkpt>
      <trkpt lat="45.91235" lon="3.84166">
        <ele>608</ele>
        <time>2024-12-08T03:54:14.620Z</time>
      </trkpt>
      <trkpt lat="45.91237" lon="3.84168">
        <ele>608</ele>
        <time>2024-12-08T03:54:15.619Z</time>
      </trkpt>
      <trkpt lat="45.91238" lon="3.84168">
        <ele>608</ele>
        <time>2024-12-08T03:54:16.619Z</time>
      </trkpt>
      <trkpt lat="45.9124" lon="3.84169">
        <ele>608</ele>
        <time>2024-12-08T03:54:17.619Z</time>
      </trkpt>
      <trkpt lat="45.91242" lon="3.8417">
        <ele>607</ele>
        <time>2024-12-08T03:54:18.619Z</time>
      </trkpt>
      <trkpt lat="45.91244" lon="3.84171">
        <ele>607</ele>
        <time>2024-12-08T03:54:19.619Z</time>
      </trkpt>
      <trkpt lat="45.91245" lon="3.84172">
        <ele>608</ele>
        <time>2024-12-08T03:54:20.620Z</time>
      </trkpt>
      <trkpt lat="45.91247" lon="3.84172">
        <ele>608</ele>
        <time>2024-12-08T03:54:21.620Z</time>
      </trkpt>
      <trkpt lat="45.91248" lon="3.84173">
        <ele>608</ele>
        <time>2024-12-08T03:54:22.619Z</time>
      </trkpt>
      <trkpt lat="45.91249" lon="3.84174">
        <ele>608</ele>
        <time>2024-12-08T03:54:23.620Z</time>
      </trkpt>
      <trkpt lat="45.9125" lon="3.84175">
        <ele>608</ele>
        <time>2024-12-08T03:54:24.619Z</time>
      </trkpt>
      <trkpt lat="45.91251" lon="3.84177">
        <ele>608</ele>
        <time>2024-12-08T03:54:25.620Z</time>
      </trkpt>
      <trkpt lat="45.91252" lon="3.84178">
        <ele>608</ele>
        <time>2024-12-08T03:54:26.619Z</time>
      </trkpt>
      <trkpt lat="45.91253" lon="3.8418">
        <ele>608</ele>
        <time>2024-12-08T03:54:27.619Z</time>
      </trkpt>
      <trkpt lat="45.91255" lon="3.8418">
        <ele>608</ele>
        <time>2024-12-08T03:54:28.620Z</time>
      </trkpt>
      <trkpt lat="45.91256" lon="3.84181">
        <ele>608</ele>
        <time>2024-12-08T03:54:29.619Z</time>
      </trkpt>
      <trkpt lat="45.91258" lon="3.84181">
        <ele>608</ele>
        <time>2024-12-08T03:54:30.619Z</time>
      </trkpt>
      <trkpt lat="45.9126" lon="3.84182">
        <ele>608</ele>
        <time>2024-12-08T03:54:31.619Z</time>
      </trkpt>
      <trkpt lat="45.91261" lon="3.84183">
        <ele>608</ele>
        <time>2024-12-08T03:54:32.619Z</time>
      </trkpt>
      <trkpt lat="45.91262" lon="3.84184">
        <ele>608</ele>
        <time>2024-12-08T03:54:33.620Z</time>
      </trkpt>
      <trkpt lat="45.91264" lon="3.84185">
        <ele>608</ele>
        <time>2024-12-08T03:54:34.619Z</time>
      </trkpt>
      <trkpt lat="45.91265" lon="3.84185">
        <ele>609</ele>
        <time>2024-12-08T03:54:35.619Z</time>
      </trkpt>
      <trkpt lat="45.91266" lon="3.84186">
        <ele>609</ele>
        <time>2024-12-08T03:54:36.619Z</time>
      </trkpt>
      <trkpt lat="45.91267" lon="3.84187">
        <ele>610</ele>
        <time>2024-12-08T03:54:37.620Z</time>
      </trkpt>
      <trkpt lat="45.91268" lon="3.84187">
        <ele>611</ele>
        <time>2024-12-08T03:54:38.620Z</time>
      </trkpt>
      <trkpt lat="45.9127" lon="3.84187">
        <ele>611</ele>
        <time>2024-12-08T03:54:39.619Z</time>
      </trkpt>
      <trkpt lat="45.91272" lon="3.84187">
        <ele>612</ele>
        <time>2024-12-08T03:54:40.619Z</time>
      </trkpt>
      <trkpt lat="45.91273" lon="3.84188">
        <ele>612</ele>
        <time>2024-12-08T03:54:41.620Z</time>
      </trkpt>
      <trkpt lat="45.91275" lon="3.84188">
        <ele>613</ele>
        <time>2024-12-08T03:54:42.620Z</time>
      </trkpt>
      <trkpt lat="45.91277" lon="3.84188">
        <ele>613</ele>
        <time>2024-12-08T03:54:43.620Z</time>
      </trkpt>
      <trkpt lat="45.91278" lon="3.84189">
        <ele>613</ele>
        <time>2024-12-08T03:54:44.619Z</time>
      </trkpt>
      <trkpt lat="45.91281" lon="3.8419">
        <ele>613</ele>
        <time>2024-12-08T03:54:45.619Z</time>
      </trkpt>
      <trkpt lat="45.91282" lon="3.84191">
        <ele>613</ele>
        <time>2024-12-08T03:54:46.620Z</time>
      </trkpt>
      <trkpt lat="45.91283" lon="3.8419">
        <ele>614</ele>
        <time>2024-12-08T03:54:47.619Z</time>
      </trkpt>
      <trkpt lat="45.91285" lon="3.84191">
        <ele>614</ele>
        <time>2024-12-08T03:54:48.620Z</time>
      </trkpt>
      <trkpt lat="45.91286" lon="3.84192">
        <ele>614</ele>
        <time>2024-12-08T03:54:49.619Z</time>
      </trkpt>
      <trkpt lat="45.91288" lon="3.84193">
        <ele>615</ele>
        <time>2024-12-08T03:54:50.620Z</time>
      </trkpt>
      <trkpt lat="45.91289" lon="3.84194">
        <ele>615</ele>
        <time>2024-12-08T03:54:51.619Z</time>
      </trkpt>
      <trkpt lat="45.9129" lon="3.84194">
        <ele>615</ele>
        <time>2024-12-08T03:54:52.620Z</time>
      </trkpt>
      <trkpt lat="45.91292" lon="3.84195">
        <ele>615</ele>
        <time>2024-12-08T03:54:53.619Z</time>
      </trkpt>
      <trkpt lat="45.91293" lon="3.84196">
        <ele>615</ele>
        <time>2024-12-08T03:54:54.619Z</time>
      </trkpt>
      <trkpt lat="45.91294" lon="3.84196">
        <ele>615</ele>
        <time>2024-12-08T03:54:55.619Z</time>
      </trkpt>
      <trkpt lat="45.91295" lon="3.84197">
        <ele>615</ele>
        <time>2024-12-08T03:54:56.620Z</time>
      </trkpt>
      <trkpt lat="45.91296" lon="3.84198">
        <ele>615</ele>
        <time>2024-12-08T03:54:57.620Z</time>
      </trkpt>
      <trkpt lat="45.91296" lon="3.84199">
        <ele>615</ele>
        <time>2024-12-08T03:54:58.619Z</time>
      </trkpt>
      <trkpt lat="45.91297" lon="3.842">
        <ele>616</ele>
        <time>2024-12-08T03:54:59.619Z</time>
      </trkpt>
      <trkpt lat="45.91298" lon="3.842">
        <ele>616</ele>
        <time>2024-12-08T03:55:00.619Z</time>
      </trkpt>
      <trkpt lat="45.91299" lon="3.84201">
        <ele>616</ele>
        <time>2024-12-08T03:55:01.619Z</time>
      </trkpt>
      <trkpt lat="45.913" lon="3.84201">
        <ele>616</ele>
        <time>2024-12-08T03:55:02.619Z</time>
      </trkpt>
      <trkpt lat="45.91301" lon="3.84202">
        <ele>616</ele>
        <time>2024-12-08T03:55:03.619Z</time>
      </trkpt>
      <trkpt lat="45.91302" lon="3.84203">
        <ele>617</ele>
        <time>2024-12-08T03:55:04.619Z</time>
      </trkpt>
      <trkpt lat="45.91303" lon="3.84203">
        <ele>617</ele>
        <time>2024-12-08T03:55:05.619Z</time>
      </trkpt>
      <trkpt lat="45.91305" lon="3.84204">
        <ele>617</ele>
        <time>2024-12-08T03:55:06.620Z</time>
      </trkpt>
      <trkpt lat="45.91306" lon="3.84204">
        <ele>617</ele>
        <time>2024-12-08T03:55:07.619Z</time>
      </trkpt>
      <trkpt lat="45.91307" lon="3.84205">
        <ele>617</ele>
        <time>2024-12-08T03:55:08.619Z</time>
      </trkpt>
      <trkpt lat="45.91308" lon="3.84206">
        <ele>617</ele>
        <time>2024-12-08T03:55:09.620Z</time>
      </trkpt>
      <trkpt lat="45.9131" lon="3.84207">
        <ele>617</ele>
        <time>2024-12-08T03:55:10.619Z</time>
      </trkpt>
      <trkpt lat="45.91311" lon="3.84208">
        <ele>617</ele>
        <time>2024-12-08T03:55:11.619Z</time>
      </trkpt>
      <trkpt lat="45.91312" lon="3.84209">
        <ele>617</ele>
        <time>2024-12-08T03:55:12.619Z</time>
      </trkpt>
      <trkpt lat="45.91314" lon="3.8421">
        <ele>617</ele>
        <time>2024-12-08T03:55:13.620Z</time>
      </trkpt>
      <trkpt lat="45.91315" lon="3.8421">
        <ele>616</ele>
        <time>2024-12-08T03:55:14.619Z</time>
      </trkpt>
      <trkpt lat="45.91316" lon="3.84211">
        <ele>616</ele>
        <time>2024-12-08T03:55:15.619Z</time>
      </trkpt>
      <trkpt lat="45.91318" lon="3.84212">
        <ele>616</ele>
        <time>2024-12-08T03:55:16.619Z</time>
      </trkpt>
      <trkpt lat="45.91319" lon="3.84213">
        <ele>616</ele>
        <time>2024-12-08T03:55:17.620Z</time>
      </trkpt>
      <trkpt lat="45.91321" lon="3.84213">
        <ele>617</ele>
        <time>2024-12-08T03:55:18.620Z</time>
      </trkpt>
      <trkpt lat="45.91322" lon="3.84213">
        <ele>617</ele>
        <time>2024-12-08T03:55:19.619Z</time>
      </trkpt>
      <trkpt lat="45.91324" lon="3.84213">
        <ele>617</ele>
        <time>2024-12-08T03:55:20.619Z</time>
      </trkpt>
      <trkpt lat="45.91326" lon="3.84213">
        <ele>617</ele>
        <time>2024-12-08T03:55:21.619Z</time>
      </trkpt>
      <trkpt lat="45.91327" lon="3.84214">
        <ele>617</ele>
        <time>2024-12-08T03:55:22.619Z</time>
      </trkpt>
      <trkpt lat="45.91329" lon="3.84214">
        <ele>617</ele>
        <time>2024-12-08T03:55:23.619Z</time>
      </trkpt>
      <trkpt lat="45.91331" lon="3.84215">
        <ele>618</ele>
        <time>2024-12-08T03:55:24.619Z</time>
      </trkpt>
      <trkpt lat="45.91333" lon="3.84216">
        <ele>618</ele>
        <time>2024-12-08T03:55:25.619Z</time>
      </trkpt>
      <trkpt lat="45.91334" lon="3.84217">
        <ele>618</ele>
        <time>2024-12-08T03:55:26.619Z</time>
      </trkpt>
      <trkpt lat="45.91335" lon="3.84217">
        <ele>618</ele>
        <time>2024-12-08T03:55:27.620Z</time>
      </trkpt>
      <trkpt lat="45.91337" lon="3.84218">
        <ele>618</ele>
        <time>2024-12-08T03:55:28.620Z</time>
      </trkpt>
      <trkpt lat="45.91338" lon="3.84219">
        <ele>618</ele>
        <time>2024-12-08T03:55:29.620Z</time>
      </trkpt>
      <trkpt lat="45.91339" lon="3.84219">
        <ele>618</ele>
        <time>2024-12-08T03:55:30.619Z</time>
      </trkpt>
      <trkpt lat="45.9134" lon="3.8422">
        <ele>617</ele>
        <time>2024-12-08T03:55:31.619Z</time>
      </trkpt>
      <trkpt lat="45.91342" lon="3.84221">
        <ele>618</ele>
        <time>2024-12-08T03:55:32.619Z</time>
      </trkpt>
      <trkpt lat="45.91343" lon="3.84221">
        <ele>618</ele>
        <time>2024-12-08T03:55:33.619Z</time>
      </trkpt>
      <trkpt lat="45.91344" lon="3.84222">
        <ele>618</ele>
        <time>2024-12-08T03:55:34.620Z</time>
      </trkpt>
      <trkpt lat="45.91345" lon="3.84223">
        <ele>618</ele>
        <time>2024-12-08T03:55:35.620Z</time>
      </trkpt>
      <trkpt lat="45.91347" lon="3.84224">
        <ele>618</ele>
        <time>2024-12-08T03:55:36.620Z</time>
      </trkpt>
      <trkpt lat="45.91349" lon="3.84226">
        <ele>619</ele>
        <time>2024-12-08T03:55:37.619Z</time>
      </trkpt>
      <trkpt lat="45.9135" lon="3.84227">
        <ele>619</ele>
        <time>2024-12-08T03:55:38.620Z</time>
      </trkpt>
      <trkpt lat="45.91351" lon="3.84227">
        <ele>619</ele>
        <time>2024-12-08T03:55:39.620Z</time>
      </trkpt>
      <trkpt lat="45.91352" lon="3.84228">
        <ele>620</ele>
        <time>2024-12-08T03:55:40.619Z</time>
      </trkpt>
      <trkpt lat="45.91354" lon="3.84229">
        <ele>620</ele>
        <time>2024-12-08T03:55:41.620Z</time>
      </trkpt>
      <trkpt lat="45.91355" lon="3.84229">
        <ele>620</ele>
        <time>2024-12-08T03:55:42.619Z</time>
      </trkpt>
      <trkpt lat="45.91356" lon="3.8423">
        <ele>620</ele>
        <time>2024-12-08T03:55:43.620Z</time>
      </trkpt>
      <trkpt lat="45.91358" lon="3.8423">
        <ele>620</ele>
        <time>2024-12-08T03:55:44.619Z</time>
      </trkpt>
      <trkpt lat="45.91359" lon="3.84231">
        <ele>620</ele>
        <time>2024-12-08T03:55:45.620Z</time>
      </trkpt>
      <trkpt lat="45.91361" lon="3.84232">
        <ele>621</ele>
        <time>2024-12-08T03:55:46.620Z</time>
      </trkpt>
      <trkpt lat="45.91362" lon="3.84232">
        <ele>621</ele>
        <time>2024-12-08T03:55:47.619Z</time>
      </trkpt>
      <trkpt lat="45.91363" lon="3.84233">
        <ele>621</ele>
        <time>2024-12-08T03:55:48.620Z</time>
      </trkpt>
      <trkpt lat="45.91364" lon="3.84234">
        <ele>622</ele>
        <time>2024-12-08T03:55:49.619Z</time>
      </trkpt>
      <trkpt lat="45.91366" lon="3.84234">
        <ele>622</ele>
        <time>2024-12-08T03:55:50.619Z</time>
      </trkpt>
      <trkpt lat="45.91367" lon="3.84235">
        <ele>622</ele>
        <time>2024-12-08T03:55:51.619Z</time>
      </trkpt>
      <trkpt lat="45.91368" lon="3.84236">
        <ele>622</ele>
        <time>2024-12-08T03:55:52.620Z</time>
      </trkpt>
      <trkpt lat="45.9137" lon="3.84236">
        <ele>621</ele>
        <time>2024-12-08T03:55:53.620Z</time>
      </trkpt>
      <trkpt lat="45.91371" lon="3.84237">
        <ele>621</ele>
        <time>2024-12-08T03:55:54.619Z</time>
      </trkpt>
      <trkpt lat="45.91373" lon="3.84238">
        <ele>621</ele>
        <time>2024-12-08T03:55:55.620Z</time>
      </trkpt>
      <trkpt lat="45.91374" lon="3.84239">
        <ele>622</ele>
        <time>2024-12-08T03:55:56.620Z</time>
      </trkpt>
      <trkpt lat="45.91375" lon="3.8424">
        <ele>622</ele>
        <time>2024-12-08T03:55:57.620Z</time>
      </trkpt>
      <trkpt lat="45.91376" lon="3.84242">
        <ele>622</ele>
        <time>2024-12-08T03:55:58.619Z</time>
      </trkpt>
      <trkpt lat="45.91377" lon="3.84243">
        <ele>621</ele>
        <time>2024-12-08T03:55:59.619Z</time>
      </trkpt>
      <trkpt lat="45.91378" lon="3.84244">
        <ele>622</ele>
        <time>2024-12-08T03:56:00.620Z</time>
      </trkpt>
      <trkpt lat="45.91379" lon="3.84246">
        <ele>622</ele>
        <time>2024-12-08T03:56:01.620Z</time>
      </trkpt>
      <trkpt lat="45.9138" lon="3.84247">
        <ele>622</ele>
        <time>2024-12-08T03:56:02.619Z</time>
      </trkpt>
      <trkpt lat="45.91381" lon="3.84249">
        <ele>622</ele>
        <time>2024-12-08T03:56:03.620Z</time>
      </trkpt>
      <trkpt lat="45.91382" lon="3.8425">
        <ele>622</ele>
        <time>2024-12-08T03:56:04.620Z</time>
      </trkpt>
      <trkpt lat="45.91383" lon="3.84252">
        <ele>622</ele>
        <time>2024-12-08T03:56:05.620Z</time>
      </trkpt>
      <trkpt lat="45.91384" lon="3.84253">
        <ele>622</ele>
        <time>2024-12-08T03:56:06.620Z</time>
      </trkpt>
      <trkpt lat="45.91385" lon="3.84255">
        <ele>623</ele>
        <time>2024-12-08T03:56:07.620Z</time>
      </trkpt>
      <trkpt lat="45.91386" lon="3.84256">
        <ele>623</ele>
        <time>2024-12-08T03:56:08.620Z</time>
      </trkpt>
      <trkpt lat="45.91387" lon="3.84257">
        <ele>623</ele>
        <time>2024-12-08T03:56:09.619Z</time>
      </trkpt>
      <trkpt lat="45.91389" lon="3.84258">
        <ele>623</ele>
        <time>2024-12-08T03:56:10.619Z</time>
      </trkpt>
      <trkpt lat="45.9139" lon="3.84259">
        <ele>623</ele>
        <time>2024-12-08T03:56:11.620Z</time>
      </trkpt>
      <trkpt lat="45.91391" lon="3.8426">
        <ele>624</ele>
        <time>2024-12-08T03:56:12.620Z</time>
      </trkpt>
      <trkpt lat="45.91392" lon="3.84262">
        <ele>624</ele>
        <time>2024-12-08T03:56:13.619Z</time>
      </trkpt>
      <trkpt lat="45.91393" lon="3.84263">
        <ele>624</ele>
        <time>2024-12-08T03:56:14.619Z</time>
      </trkpt>
      <trkpt lat="45.91394" lon="3.84265">
        <ele>624</ele>
        <time>2024-12-08T03:56:15.619Z</time>
      </trkpt>
      <trkpt lat="45.91395" lon="3.84266">
        <ele>624</ele>
        <time>2024-12-08T03:56:16.620Z</time>
      </trkpt>
      <trkpt lat="45.91396" lon="3.84267">
        <ele>624</ele>
        <time>2024-12-08T03:56:17.620Z</time>
      </trkpt>
      <trkpt lat="45.91397" lon="3.84268">
        <ele>624</ele>
        <time>2024-12-08T03:56:18.619Z</time>
      </trkpt>
      <trkpt lat="45.91399" lon="3.84269">
        <ele>624</ele>
        <time>2024-12-08T03:56:19.619Z</time>
      </trkpt>
      <trkpt lat="45.914" lon="3.8427">
        <ele>624</ele>
        <time>2024-12-08T03:56:20.619Z</time>
      </trkpt>
      <trkpt lat="45.91402" lon="3.8427">
        <ele>624</ele>
        <time>2024-12-08T03:56:21.619Z</time>
      </trkpt>
      <trkpt lat="45.91403" lon="3.84271">
        <ele>624</ele>
        <time>2024-12-08T03:56:22.620Z</time>
      </trkpt>
      <trkpt lat="45.91404" lon="3.84272">
        <ele>624</ele>
        <time>2024-12-08T03:56:23.619Z</time>
      </trkpt>
      <trkpt lat="45.91406" lon="3.84272">
        <ele>624</ele>
        <time>2024-12-08T03:56:24.619Z</time>
      </trkpt>
      <trkpt lat="45.91407" lon="3.84274">
        <ele>623</ele>
        <time>2024-12-08T03:56:25.619Z</time>
      </trkpt>
      <trkpt lat="45.91408" lon="3.84275">
        <ele>623</ele>
        <time>2024-12-08T03:56:26.619Z</time>
      </trkpt>
      <trkpt lat="45.91409" lon="3.84276">
        <ele>623</ele>
        <time>2024-12-08T03:56:27.620Z</time>
      </trkpt>
      <trkpt lat="45.91411" lon="3.84277">
        <ele>623</ele>
        <time>2024-12-08T03:56:28.619Z</time>
      </trkpt>
      <trkpt lat="45.91412" lon="3.84279">
        <ele>623</ele>
        <time>2024-12-08T03:56:29.619Z</time>
      </trkpt>
      <trkpt lat="45.91413" lon="3.8428">
        <ele>623</ele>
        <time>2024-12-08T03:56:30.619Z</time>
      </trkpt>
      <trkpt lat="45.91415" lon="3.84282">
        <ele>623</ele>
        <time>2024-12-08T03:56:31.619Z</time>
      </trkpt>
      <trkpt lat="45.91416" lon="3.84283">
        <ele>624</ele>
        <time>2024-12-08T03:56:32.619Z</time>
      </trkpt>
      <trkpt lat="45.91417" lon="3.84285">
        <ele>624</ele>
        <time>2024-12-08T03:56:33.619Z</time>
      </trkpt>
      <trkpt lat="45.91418" lon="3.84287">
        <ele>624</ele>
        <time>2024-12-08T03:56:34.620Z</time>
      </trkpt>
      <trkpt lat="45.91419" lon="3.84289">
        <ele>624</ele>
        <time>2024-12-08T03:56:35.619Z</time>
      </trkpt>
      <trkpt lat="45.91421" lon="3.8429">
        <ele>624</ele>
        <time>2024-12-08T03:56:36.620Z</time>
      </trkpt>
      <trkpt lat="45.91422" lon="3.84292">
        <ele>625</ele>
        <time>2024-12-08T03:56:37.620Z</time>
      </trkpt>
      <trkpt lat="45.91422" lon="3.84294">
        <ele>625</ele>
        <time>2024-12-08T03:56:38.619Z</time>
      </trkpt>
      <trkpt lat="45.91422" lon="3.84296">
        <ele>625</ele>
        <time>2024-12-08T03:56:39.620Z</time>
      </trkpt>
      <trkpt lat="45.91422" lon="3.84298">
        <ele>626</ele>
        <time>2024-12-08T03:56:40.620Z</time>
      </trkpt>
      <trkpt lat="45.91421" lon="3.84299">
        <ele>626</ele>
        <time>2024-12-08T03:56:41.620Z</time>
      </trkpt>
      <trkpt lat="45.91421" lon="3.84301">
        <ele>626</ele>
        <time>2024-12-08T03:56:42.620Z</time>
      </trkpt>
      <trkpt lat="45.9142" lon="3.84303">
        <ele>625</ele>
        <time>2024-12-08T03:56:43.620Z</time>
      </trkpt>
      <trkpt lat="45.9142" lon="3.84305">
        <ele>626</ele>
        <time>2024-12-08T03:56:44.619Z</time>
      </trkpt>
      <trkpt lat="45.9142" lon="3.84306">
        <ele>626</ele>
        <time>2024-12-08T03:56:45.619Z</time>
      </trkpt>
      <trkpt lat="45.9142" lon="3.84306">
        <ele>626</ele>
        <time>2024-12-08T03:56:46.620Z</time>
      </trkpt>
      <trkpt lat="45.9142" lon="3.84306">
        <ele>626</ele>
        <time>2024-12-08T03:56:47.620Z</time>
      </trkpt>
      <trkpt lat="45.9142" lon="3.84306">
        <ele>627</ele>
        <time>2024-12-08T03:56:48.620Z</time>
      </trkpt>
      <trkpt lat="45.9142" lon="3.84306">
        <ele>627</ele>
        <time>2024-12-08T03:56:49.619Z</time>
      </trkpt>
      <trkpt lat="45.91421" lon="3.84306">
        <ele>627</ele>
        <time>2024-12-08T03:56:50.619Z</time>
      </trkpt>
      <trkpt lat="45.91421" lon="3.84306">
        <ele>627</ele>
        <time>2024-12-08T03:56:51.619Z</time>
      </trkpt>
      <trkpt lat="45.9142" lon="3.84306">
        <ele>628</ele>
        <time>2024-12-08T03:56:52.620Z</time>
      </trkpt>
      <trkpt lat="45.9142" lon="3.84306">
        <ele>628</ele>
        <time>2024-12-08T03:56:53.619Z</time>
      </trkpt>
      <trkpt lat="45.91433" lon="3.84326">
        <ele>628</ele>
        <time>2024-12-08T03:57:13.619Z</time>
      </trkpt>
      <trkpt lat="45.91433" lon="3.84326">
        <ele>628</ele>
        <time>2024-12-08T03:57:14.620Z</time>
      </trkpt>
      <trkpt lat="45.91433" lon="3.84326">
        <ele>629</ele>
        <time>2024-12-08T03:57:15.620Z</time>
      </trkpt>
      <trkpt lat="45.9143" lon="3.84325">
        <ele>629</ele>
        <time>2024-12-08T03:57:16.620Z</time>
      </trkpt>
      <trkpt lat="45.9143" lon="3.84325">
        <ele>629</ele>
        <time>2024-12-08T03:57:17.619Z</time>
      </trkpt>
      <trkpt lat="45.91429" lon="3.84327">
        <ele>630</ele>
        <time>2024-12-08T03:57:18.619Z</time>
      </trkpt>
      <trkpt lat="45.91427" lon="3.84327">
        <ele>630</ele>
        <time>2024-12-08T03:57:19.619Z</time>
      </trkpt>
      <trkpt lat="45.91427" lon="3.84327">
        <ele>631</ele>
        <time>2024-12-08T03:57:20.620Z</time>
      </trkpt>
      <trkpt lat="45.91426" lon="3.84327">
        <ele>631</ele>
        <time>2024-12-08T03:57:21.620Z</time>
      </trkpt>
      <trkpt lat="45.91425" lon="3.84328">
        <ele>631</ele>
        <time>2024-12-08T03:57:22.619Z</time>
      </trkpt>
      <trkpt lat="45.91424" lon="3.84326">
        <ele>632</ele>
        <time>2024-12-08T03:57:23.620Z</time>
      </trkpt>
      <trkpt lat="45.91423" lon="3.84325">
        <ele>632</ele>
        <time>2024-12-08T03:57:24.619Z</time>
      </trkpt>
      <trkpt lat="45.91423" lon="3.84326">
        <ele>632</ele>
        <time>2024-12-08T03:57:25.620Z</time>
      </trkpt>
      <trkpt lat="45.91423" lon="3.84325">
        <ele>632</ele>
        <time>2024-12-08T03:57:26.620Z</time>
      </trkpt>
      <trkpt lat="45.91424" lon="3.84326">
        <ele>632</ele>
        <time>2024-12-08T03:57:27.620Z</time>
      </trkpt>
      <trkpt lat="45.91425" lon="3.84326">
        <ele>633</ele>
        <time>2024-12-08T03:57:28.620Z</time>
      </trkpt>
      <trkpt lat="45.91425" lon="3.84326">
        <ele>633</ele>
        <time>2024-12-08T03:57:29.620Z</time>
      </trkpt>
      <trkpt lat="45.91425" lon="3.84326">
        <ele>633</ele>
        <time>2024-12-08T03:57:30.619Z</time>
      </trkpt>
      <trkpt lat="45.91425" lon="3.84326">
        <ele>633</ele>
        <time>2024-12-08T03:57:31.620Z</time>
      </trkpt>
      <trkpt lat="45.91425" lon="3.84326">
        <ele>633</ele>
        <time>2024-12-08T03:57:32.619Z</time>
      </trkpt>
      <trkpt lat="45.91425" lon="3.84326">
        <ele>634</ele>
        <time>2024-12-08T03:57:33.619Z</time>
      </trkpt>
      <trkpt lat="45.91425" lon="3.84327">
        <ele>634</ele>
        <time>2024-12-08T03:57:34.620Z</time>
      </trkpt>
      <trkpt lat="45.91425" lon="3.84327">
        <ele>634</ele>
        <time>2024-12-08T03:57:35.619Z</time>
      </trkpt>
      <trkpt lat="45.91426" lon="3.84327">
        <ele>635</ele>
        <time>2024-12-08T03:57:36.620Z</time>
      </trkpt>
      <trkpt lat="45.91426" lon="3.84327">
        <ele>635</ele>
        <time>2024-12-08T03:57:37.620Z</time>
      </trkpt>
      <trkpt lat="45.91426" lon="3.84327">
        <ele>635</ele>
        <time>2024-12-08T03:57:38.620Z</time>
      </trkpt>
      <trkpt lat="45.91426" lon="3.84327">
        <ele>636</ele>
        <time>2024-12-08T03:57:39.619Z</time>
      </trkpt>
      <trkpt lat="45.91426" lon="3.84327">
        <ele>636</ele>
        <time>2024-12-08T03:57:40.619Z</time>
      </trkpt>
      <trkpt lat="45.91426" lon="3.84327">
        <ele>636</ele>
        <time>2024-12-08T03:57:41.619Z</time>
      </trkpt>
      <trkpt lat="45.91427" lon="3.84327">
        <ele>636</ele>
        <time>2024-12-08T03:57:42.620Z</time>
      </trkpt>
      <trkpt lat="45.91427" lon="3.84328">
        <ele>635</ele>
        <time>2024-12-08T03:57:43.620Z</time>
      </trkpt>
      <trkpt lat="45.91426" lon="3.84328">
        <ele>634</ele>
        <time>2024-12-08T03:57:44.620Z</time>
      </trkpt>
      <trkpt lat="45.91426" lon="3.84327">
        <ele>634</ele>
        <time>2024-12-08T03:57:45.620Z</time>
      </trkpt>
      <trkpt lat="45.91426" lon="3.84327">
        <ele>633</ele>
        <time>2024-12-08T03:57:46.620Z</time>
      </trkpt>
      <trkpt lat="45.91426" lon="3.84327">
        <ele>632</ele>
        <time>2024-12-08T03:57:47.619Z</time>
      </trkpt>
      <trkpt lat="45.91426" lon="3.84326">
        <ele>632</ele>
        <time>2024-12-08T03:57:48.620Z</time>
      </trkpt>
      <trkpt lat="45.91426" lon="3.84326">
        <ele>631</ele>
        <time>2024-12-08T03:57:49.620Z</time>
      </trkpt>
      <trkpt lat="45.91426" lon="3.84326">
        <ele>631</ele>
        <time>2024-12-08T03:57:50.619Z</time>
      </trkpt>
      <trkpt lat="45.91426" lon="3.84326">
        <ele>631</ele>
        <time>2024-12-08T03:57:51.620Z</time>
      </trkpt>
      <trkpt lat="45.91426" lon="3.84326">
        <ele>631</ele>
        <time>2024-12-08T03:57:52.620Z</time>
      </trkpt>
      <trkpt lat="45.91426" lon="3.84325">
        <ele>631</ele>
        <time>2024-12-08T03:57:53.620Z</time>
      </trkpt>
      <trkpt lat="45.91426" lon="3.84325">
        <ele>631</ele>
        <time>2024-12-08T03:57:54.619Z</time>
      </trkpt>
      <trkpt lat="45.91426" lon="3.84325">
        <ele>631</ele>
        <time>2024-12-08T03:57:55.620Z</time>
      </trkpt>
      <trkpt lat="45.91426" lon="3.84325">
        <ele>631</ele>
        <time>2024-12-08T03:57:56.619Z</time>
      </trkpt>
      <trkpt lat="45.91426" lon="3.84325">
        <ele>631</ele>
        <time>2024-12-08T03:57:57.620Z</time>
      </trkpt>
      <trkpt lat="45.91426" lon="3.84325">
        <ele>631</ele>
        <time>2024-12-08T03:57:58.619Z</time>
      </trkpt>
      <trkpt lat="45.91426" lon="3.84325">
        <ele>631</ele>
        <time>2024-12-08T03:57:59.619Z</time>
      </trkpt>
      <trkpt lat="45.91426" lon="3.84325">
        <ele>632</ele>
        <time>2024-12-08T03:58:00.620Z</time>
      </trkpt>
      <trkpt lat="45.91426" lon="3.84325">
        <ele>632</ele>
        <time>2024-12-08T03:58:01.620Z</time>
      </trkpt>
      <trkpt lat="45.91426" lon="3.84325">
        <ele>632</ele>
        <time>2024-12-08T03:58:02.619Z</time>
      </trkpt>
      <trkpt lat="45.91426" lon="3.84325">
        <ele>632</ele>
        <time>2024-12-08T03:58:03.619Z</time>
      </trkpt>
      <trkpt lat="45.91426" lon="3.84325">
        <ele>632</ele>
        <time>2024-12-08T03:58:04.619Z</time>
      </trkpt>
      <trkpt lat="45.91426" lon="3.84325">
        <ele>632</ele>
        <time>2024-12-08T03:58:05.619Z</time>
      </trkpt>
      <trkpt lat="45.91426" lon="3.84325">
        <ele>632</ele>
        <time>2024-12-08T03:58:06.620Z</time>
      </trkpt>
      <trkpt lat="45.91426" lon="3.84325">
        <ele>632</ele>
        <time>2024-12-08T03:58:07.619Z</time>
      </trkpt>
      <trkpt lat="45.91426" lon="3.84325">
        <ele>633</ele>
        <time>2024-12-08T03:58:08.619Z</time>
      </trkpt>
      <trkpt lat="45.91426" lon="3.84325">
        <ele>633</ele>
        <time>2024-12-08T03:58:09.620Z</time>
      </trkpt>
      <trkpt lat="45.91426" lon="3.84325">
        <ele>633</ele>
        <time>2024-12-08T03:58:10.620Z</time>
      </trkpt>
      <trkpt lat="45.91426" lon="3.84325">
        <ele>633</ele>
        <time>2024-12-08T03:58:11.620Z</time>
      </trkpt>
      <trkpt lat="45.91426" lon="3.84325">
        <ele>633</ele>
        <time>2024-12-08T03:58:12.619Z</time>
      </trkpt>
      <trkpt lat="45.91426" lon="3.84325">
        <ele>633</ele>
        <time>2024-12-08T03:58:13.619Z</time>
      </trkpt>
      <trkpt lat="45.91426" lon="3.84325">
        <ele>633</ele>
        <time>2024-12-08T03:58:14.619Z</time>
      </trkpt>
      <trkpt lat="45.91426" lon="3.84326">
        <ele>633</ele>
        <time>2024-12-08T03:58:15.620Z</time>
      </trkpt>
      <trkpt lat="45.91426" lon="3.84326">
        <ele>633</ele>
        <time>2024-12-08T03:58:16.620Z</time>
      </trkpt>
      <trkpt lat="45.91426" lon="3.84326">
        <ele>633</ele>
        <time>2024-12-08T03:58:17.619Z</time>
      </trkpt>
      <trkpt lat="45.91426" lon="3.84326">
        <ele>633</ele>
        <time>2024-12-08T03:58:18.620Z</time>
      </trkpt>
      <trkpt lat="45.91426" lon="3.84326">
        <ele>633</ele>
        <time>2024-12-08T03:58:19.619Z</time>
      </trkpt>
      <trkpt lat="45.91426" lon="3.84326">
        <ele>633</ele>
        <time>2024-12-08T03:58:20.620Z</time>
      </trkpt>
      <trkpt lat="45.91426" lon="3.84326">
        <ele>633</ele>
        <time>2024-12-08T03:58:21.619Z</time>
      </trkpt>
      <trkpt lat="45.91426" lon="3.84326">
        <ele>633</ele>
        <time>2024-12-08T03:58:22.620Z</time>
      </trkpt>
      <trkpt lat="45.91426" lon="3.84326">
        <ele>633</ele>
        <time>2024-12-08T03:58:23.619Z</time>
      </trkpt>
      <trkpt lat="45.91426" lon="3.84326">
        <ele>633</ele>
        <time>2024-12-08T03:58:24.620Z</time>
      </trkpt>
      <trkpt lat="45.91426" lon="3.84326">
        <ele>633</ele>
        <time>2024-12-08T03:58:25.619Z</time>
      </trkpt>
      <trkpt lat="45.91426" lon="3.84326">
        <ele>633</ele>
        <time>2024-12-08T03:58:26.620Z</time>
      </trkpt>
      <trkpt lat="45.91426" lon="3.84326">
        <ele>633</ele>
        <time>2024-12-08T03:58:27.619Z</time>
      </trkpt>
      <trkpt lat="45.91426" lon="3.84326">
        <ele>633</ele>
        <time>2024-12-08T03:58:28.620Z</time>
      </trkpt>
      <trkpt lat="45.91425" lon="3.84327">
        <ele>633</ele>
        <time>2024-12-08T03:58:29.620Z</time>
      </trkpt>
      <trkpt lat="45.91425" lon="3.84327">
        <ele>633</ele>
        <time>2024-12-08T03:58:30.620Z</time>
      </trkpt>
      <trkpt lat="45.91425" lon="3.84327">
        <ele>633</ele>
        <time>2024-12-08T03:58:31.620Z</time>
      </trkpt>
      <trkpt lat="45.91425" lon="3.84327">
        <ele>633</ele>
        <time>2024-12-08T03:58:32.620Z</time>
      </trkpt>
      <trkpt lat="45.91425" lon="3.84327">
        <ele>633</ele>
        <time>2024-12-08T03:58:33.620Z</time>
      </trkpt>
      <trkpt lat="45.91425" lon="3.84327">
        <ele>633</ele>
        <time>2024-12-08T03:58:34.619Z</time>
      </trkpt>
      <trkpt lat="45.91425" lon="3.84327">
        <ele>633</ele>
        <time>2024-12-08T03:58:35.619Z</time>
      </trkpt>
      <trkpt lat="45.91425" lon="3.84327">
        <ele>633</ele>
        <time>2024-12-08T03:58:36.619Z</time>
      </trkpt>
      <trkpt lat="45.91425" lon="3.84327">
        <ele>634</ele>
        <time>2024-12-08T03:58:37.619Z</time>
      </trkpt>
      <trkpt lat="45.91425" lon="3.84327">
        <ele>634</ele>
        <time>2024-12-08T03:58:38.620Z</time>
      </trkpt>
      <trkpt lat="45.91425" lon="3.84327">
        <ele>634</ele>
        <time>2024-12-08T03:58:39.619Z</time>
      </trkpt>
      <trkpt lat="45.91425" lon="3.84327">
        <ele>634</ele>
        <time>2024-12-08T03:58:40.620Z</time>
      </trkpt>
      <trkpt lat="45.91425" lon="3.84327">
        <ele>634</ele>
        <time>2024-12-08T03:58:41.619Z</time>
      </trkpt>
      <trkpt lat="45.91425" lon="3.84328">
        <ele>634</ele>
        <time>2024-12-08T03:58:42.619Z</time>
      </trkpt>
      <trkpt lat="45.91425" lon="3.84328">
        <ele>634</ele>
        <time>2024-12-08T03:58:43.620Z</time>
      </trkpt>
      <trkpt lat="45.91425" lon="3.84328">
        <ele>634</ele>
        <time>2024-12-08T03:58:44.620Z</time>
      </trkpt>
      <trkpt lat="45.91425" lon="3.84328">
        <ele>634</ele>
        <time>2024-12-08T03:58:45.620Z</time>
      </trkpt>
      <trkpt lat="45.91425" lon="3.84328">
        <ele>634</ele>
        <time>2024-12-08T03:58:46.619Z</time>
      </trkpt>
      <trkpt lat="45.91425" lon="3.84328">
        <ele>634</ele>
        <time>2024-12-08T03:58:47.619Z</time>
      </trkpt>
      <trkpt lat="45.91424" lon="3.84328">
        <ele>634</ele>
        <time>2024-12-08T03:58:48.620Z</time>
      </trkpt>
      <trkpt lat="45.91424" lon="3.84328">
        <ele>634</ele>
        <time>2024-12-08T03:58:49.619Z</time>
      </trkpt>
      <trkpt lat="45.91424" lon="3.84328">
        <ele>634</ele>
        <time>2024-12-08T03:58:50.620Z</time>
      </trkpt>
      <trkpt lat="45.91424" lon="3.84328">
        <ele>634</ele>
        <time>2024-12-08T03:58:51.619Z</time>
      </trkpt>
      <trkpt lat="45.91424" lon="3.84328">
        <ele>634</ele>
        <time>2024-12-08T03:58:52.620Z</time>
      </trkpt>
      <trkpt lat="45.91424" lon="3.84328">
        <ele>634</ele>
        <time>2024-12-08T03:58:53.619Z</time>
      </trkpt>
      <trkpt lat="45.91424" lon="3.84328">
        <ele>634</ele>
        <time>2024-12-08T03:58:54.620Z</time>
      </trkpt>
      <trkpt lat="45.91424" lon="3.84328">
        <ele>634</ele>
        <time>2024-12-08T03:58:55.619Z</time>
      </trkpt>
      <trkpt lat="45.91424" lon="3.84328">
        <ele>634</ele>
        <time>2024-12-08T03:58:56.619Z</time>
      </trkpt>
      <trkpt lat="45.91424" lon="3.84328">
        <ele>634</ele>
        <time>2024-12-08T03:58:57.619Z</time>
      </trkpt>
      <trkpt lat="45.91424" lon="3.84328">
        <ele>634</ele>
        <time>2024-12-08T03:58:58.620Z</time>
      </trkpt>
      <trkpt lat="45.91424" lon="3.84328">
        <ele>634</ele>
        <time>2024-12-08T03:58:59.619Z</time>
      </trkpt>
      <trkpt lat="45.91424" lon="3.84328">
        <ele>634</ele>
        <time>2024-12-08T03:59:00.619Z</time>
      </trkpt>
      <trkpt lat="45.91424" lon="3.84328">
        <ele>634</ele>
        <time>2024-12-08T03:59:01.619Z</time>
      </trkpt>
      <trkpt lat="45.91424" lon="3.84328">
        <ele>634</ele>
        <time>2024-12-08T03:59:02.619Z</time>
      </trkpt>
      <trkpt lat="45.91424" lon="3.84328">
        <ele>634</ele>
        <time>2024-12-08T03:59:03.619Z</time>
      </trkpt>
      <trkpt lat="45.91424" lon="3.84328">
        <ele>634</ele>
        <time>2024-12-08T03:59:04.619Z</time>
      </trkpt>
      <trkpt lat="45.91424" lon="3.84328">
        <ele>634</ele>
        <time>2024-12-08T03:59:05.619Z</time>
      </trkpt>
      <trkpt lat="45.91424" lon="3.84328">
        <ele>634</ele>
        <time>2024-12-08T03:59:06.620Z</time>
      </trkpt>
      <trkpt lat="45.91424" lon="3.84328">
        <ele>634</ele>
        <time>2024-12-08T03:59:07.619Z</time>
      </trkpt>
      <trkpt lat="45.91424" lon="3.84328">
        <ele>634</ele>
        <time>2024-12-08T03:59:08.619Z</time>
      </trkpt>
      <trkpt lat="45.91424" lon="3.84328">
        <ele>634</ele>
        <time>2024-12-08T03:59:09.619Z</time>
      </trkpt>
      <trkpt lat="45.91424" lon="3.84328">
        <ele>634</ele>
        <time>2024-12-08T03:59:10.620Z</time>
      </trkpt>
      <trkpt lat="45.91424" lon="3.84328">
        <ele>634</ele>
        <time>2024-12-08T03:59:11.620Z</time>
      </trkpt>
      <trkpt lat="45.91424" lon="3.84328">
        <ele>634</ele>
        <time>2024-12-08T03:59:12.619Z</time>
      </trkpt>
      <trkpt lat="45.91424" lon="3.84328">
        <ele>634</ele>
        <time>2024-12-08T03:59:13.620Z</time>
      </trkpt>
      <trkpt lat="45.91424" lon="3.84328">
        <ele>634</ele>
        <time>2024-12-08T03:59:14.620Z</time>
      </trkpt>
      <trkpt lat="45.91424" lon="3.84328">
        <ele>634</ele>
        <time>2024-12-08T03:59:15.620Z</time>
      </trkpt>
      <trkpt lat="45.91424" lon="3.84328">
        <ele>634</ele>
        <time>2024-12-08T03:59:16.619Z</time>
      </trkpt>
      <trkpt lat="45.91424" lon="3.84328">
        <ele>634</ele>
        <time>2024-12-08T03:59:17.619Z</time>
      </trkpt>
      <trkpt lat="45.91424" lon="3.84328">
        <ele>634</ele>
        <time>2024-12-08T03:59:18.620Z</time>
      </trkpt>
      <trkpt lat="45.91424" lon="3.84328">
        <ele>634</ele>
        <time>2024-12-08T03:59:19.620Z</time>
      </trkpt>
      <trkpt lat="45.91424" lon="3.84328">
        <ele>634</ele>
        <time>2024-12-08T03:59:20.620Z</time>
      </trkpt>
      <trkpt lat="45.91425" lon="3.84327">
        <ele>634</ele>
        <time>2024-12-08T03:59:21.619Z</time>
      </trkpt>
      <trkpt lat="45.91425" lon="3.84327">
        <ele>634</ele>
        <time>2024-12-08T03:59:22.619Z</time>
      </trkpt>
      <trkpt lat="45.91426" lon="3.84327">
        <ele>634</ele>
        <time>2024-12-08T03:59:23.619Z</time>
      </trkpt>
      <trkpt lat="45.91426" lon="3.84327">
        <ele>634</ele>
        <time>2024-12-08T03:59:24.619Z</time>
      </trkpt>
      <trkpt lat="45.91426" lon="3.84327">
        <ele>634</ele>
        <time>2024-12-08T03:59:25.620Z</time>
      </trkpt>
      <trkpt lat="45.91426" lon="3.84327">
        <ele>634</ele>
        <time>2024-12-08T03:59:26.619Z</time>
      </trkpt>
      <trkpt lat="45.91427" lon="3.84326">
        <ele>634</ele>
        <time>2024-12-08T03:59:27.620Z</time>
      </trkpt>
      <trkpt lat="45.91427" lon="3.84326">
        <ele>634</ele>
        <time>2024-12-08T03:59:28.619Z</time>
      </trkpt>
      <trkpt lat="45.91427" lon="3.84326">
        <ele>634</ele>
        <time>2024-12-08T03:59:29.619Z</time>
      </trkpt>
      <trkpt lat="45.91427" lon="3.84325">
        <ele>634</ele>
        <time>2024-12-08T03:59:30.619Z</time>
      </trkpt>
      <trkpt lat="45.91427" lon="3.84325">
        <ele>634</ele>
        <time>2024-12-08T03:59:31.619Z</time>
      </trkpt>
      <trkpt lat="45.91427" lon="3.84325">
        <ele>634</ele>
        <time>2024-12-08T03:59:32.620Z</time>
      </trkpt>
      <trkpt lat="45.91427" lon="3.84325">
        <ele>634</ele>
        <time>2024-12-08T03:59:33.619Z</time>
      </trkpt>
      <trkpt lat="45.91428" lon="3.84325">
        <ele>634</ele>
        <time>2024-12-08T03:59:34.620Z</time>
      </trkpt>
      <trkpt lat="45.91428" lon="3.84325">
        <ele>634</ele>
        <time>2024-12-08T03:59:35.620Z</time>
      </trkpt>
      <trkpt lat="45.91428" lon="3.84325">
        <ele>634</ele>
        <time>2024-12-08T03:59:36.619Z</time>
      </trkpt>
      <trkpt lat="45.91429" lon="3.84325">
        <ele>634</ele>
        <time>2024-12-08T03:59:37.619Z</time>
      </trkpt>
      <trkpt lat="45.91429" lon="3.84325">
        <ele>634</ele>
        <time>2024-12-08T03:59:38.619Z</time>
      </trkpt>
      <trkpt lat="45.91429" lon="3.84325">
        <ele>634</ele>
        <time>2024-12-08T03:59:39.619Z</time>
      </trkpt>
      <trkpt lat="45.91429" lon="3.84325">
        <ele>634</ele>
        <time>2024-12-08T03:59:40.619Z</time>
      </trkpt>
      <trkpt lat="45.91429" lon="3.84325">
        <ele>634</ele>
        <time>2024-12-08T03:59:41.619Z</time>
      </trkpt>
      <trkpt lat="45.91429" lon="3.84325">
        <ele>634</ele>
        <time>2024-12-08T03:59:42.620Z</time>
      </trkpt>
      <trkpt lat="45.9143" lon="3.84325">
        <ele>634</ele>
        <time>2024-12-08T03:59:43.619Z</time>
      </trkpt>
      <trkpt lat="45.9143" lon="3.84325">
        <ele>634</ele>
        <time>2024-12-08T03:59:44.620Z</time>
      </trkpt>
      <trkpt lat="45.91431" lon="3.84325">
        <ele>634</ele>
        <time>2024-12-08T03:59:45.620Z</time>
      </trkpt>
      <trkpt lat="45.91431" lon="3.84325">
        <ele>634</ele>
        <time>2024-12-08T03:59:46.620Z</time>
      </trkpt>
      <trkpt lat="45.91431" lon="3.84325">
        <ele>634</ele>
        <time>2024-12-08T03:59:47.619Z</time>
      </trkpt>
      <trkpt lat="45.91431" lon="3.84325">
        <ele>634</ele>
        <time>2024-12-08T03:59:48.619Z</time>
      </trkpt>
      <trkpt lat="45.91431" lon="3.84325">
        <ele>634</ele>
        <time>2024-12-08T03:59:49.619Z</time>
      </trkpt>
      <trkpt lat="45.91431" lon="3.84325">
        <ele>634</ele>
        <time>2024-12-08T03:59:50.619Z</time>
      </trkpt>
      <trkpt lat="45.91431" lon="3.84326">
        <ele>634</ele>
        <time>2024-12-08T03:59:51.620Z</time>
      </trkpt>
      <trkpt lat="45.91431" lon="3.84326">
        <ele>634</ele>
        <time>2024-12-08T03:59:52.620Z</time>
      </trkpt>
      <trkpt lat="45.91431" lon="3.84326">
        <ele>634</ele>
        <time>2024-12-08T03:59:53.619Z</time>
      </trkpt>
      <trkpt lat="45.91431" lon="3.84326">
        <ele>634</ele>
        <time>2024-12-08T03:59:54.619Z</time>
      </trkpt>
      <trkpt lat="45.91431" lon="3.84326">
        <ele>634</ele>
        <time>2024-12-08T03:59:55.619Z</time>
      </trkpt>
      <trkpt lat="45.91431" lon="3.84326">
        <ele>634</ele>
        <time>2024-12-08T03:59:56.620Z</time>
      </trkpt>
      <trkpt lat="45.91432" lon="3.84326">
        <ele>634</ele>
        <time>2024-12-08T03:59:57.619Z</time>
      </trkpt>
      <trkpt lat="45.91432" lon="3.84326">
        <ele>634</ele>
        <time>2024-12-08T03:59:58.619Z</time>
      </trkpt>
      <trkpt lat="45.91432" lon="3.84326">
        <ele>634</ele>
        <time>2024-12-08T03:59:59.620Z</time>
      </trkpt>
      <trkpt lat="45.91432" lon="3.84326">
        <ele>634</ele>
        <time>2024-12-08T04:00:00.620Z</time>
      </trkpt>
      <trkpt lat="45.91432" lon="3.84326">
        <ele>634</ele>
        <time>2024-12-08T04:00:01.620Z</time>
      </trkpt>
      <trkpt lat="45.91432" lon="3.84326">
        <ele>634</ele>
        <time>2024-12-08T04:00:02.619Z</time>
      </trkpt>
      <trkpt lat="45.91432" lon="3.84326">
        <ele>634</ele>
        <time>2024-12-08T04:00:03.620Z</time>
      </trkpt>
      <trkpt lat="45.91432" lon="3.84326">
        <ele>634</ele>
        <time>2024-12-08T04:00:04.620Z</time>
      </trkpt>
      <trkpt lat="45.91432" lon="3.84326">
        <ele>634</ele>
        <time>2024-12-08T04:00:05.620Z</time>
      </trkpt>
      <trkpt lat="45.91432" lon="3.84326">
        <ele>634</ele>
        <time>2024-12-08T04:00:06.619Z</time>
      </trkpt>
      <trkpt lat="45.91432" lon="3.84326">
        <ele>634</ele>
        <time>2024-12-08T04:00:07.619Z</time>
      </trkpt>
      <trkpt lat="45.91432" lon="3.84326">
        <ele>634</ele>
        <time>2024-12-08T04:00:08.619Z</time>
      </trkpt>
      <trkpt lat="45.91432" lon="3.84326">
        <ele>634</ele>
        <time>2024-12-08T04:00:09.619Z</time>
      </trkpt>
      <trkpt lat="45.91432" lon="3.84326">
        <ele>634</ele>
        <time>2024-12-08T04:00:10.620Z</time>
      </trkpt>
      <trkpt lat="45.91432" lon="3.84326">
        <ele>634</ele>
        <time>2024-12-08T04:00:11.619Z</time>
      </trkpt>
      <trkpt lat="45.91432" lon="3.84326">
        <ele>634</ele>
        <time>2024-12-08T04:00:12.619Z</time>
      </trkpt>
      <trkpt lat="45.91432" lon="3.84326">
        <ele>634</ele>
        <time>2024-12-08T04:00:13.620Z</time>
      </trkpt>
      <trkpt lat="45.91432" lon="3.84326">
        <ele>634</ele>
        <time>2024-12-08T04:00:14.620Z</time>
      </trkpt>
      <trkpt lat="45.91432" lon="3.84326">
        <ele>634</ele>
        <time>2024-12-08T04:00:15.619Z</time>
      </trkpt>
      <trkpt lat="45.91431" lon="3.84326">
        <ele>634</ele>
        <time>2024-12-08T04:00:16.619Z</time>
      </trkpt>
      <trkpt lat="45.91431" lon="3.84326">
        <ele>634</ele>
        <time>2024-12-08T04:00:17.619Z</time>
      </trkpt>
      <trkpt lat="45.91431" lon="3.84326">
        <ele>634</ele>
        <time>2024-12-08T04:00:18.620Z</time>
      </trkpt>
      <trkpt lat="45.91431" lon="3.84326">
        <ele>634</ele>
        <time>2024-12-08T04:00:19.620Z</time>
      </trkpt>
      <trkpt lat="45.91431" lon="3.84326">
        <ele>634</ele>
        <time>2024-12-08T04:00:20.619Z</time>
      </trkpt>
      <trkpt lat="45.91431" lon="3.84326">
        <ele>634</ele>
        <time>2024-12-08T04:00:21.619Z</time>
      </trkpt>
      <trkpt lat="45.91431" lon="3.84326">
        <ele>634</ele>
        <time>2024-12-08T04:00:22.620Z</time>
      </trkpt>
      <trkpt lat="45.91431" lon="3.84326">
        <ele>634</ele>
        <time>2024-12-08T04:00:23.619Z</time>
      </trkpt>
      <trkpt lat="45.9143" lon="3.84326">
        <ele>634</ele>
        <time>2024-12-08T04:00:24.620Z</time>
      </trkpt>
      <trkpt lat="45.9143" lon="3.84326">
        <ele>634</ele>
        <time>2024-12-08T04:00:25.619Z</time>
      </trkpt>
      <trkpt lat="45.9143" lon="3.84326">
        <ele>634</ele>
        <time>2024-12-08T04:00:26.620Z</time>
      </trkpt>
      <trkpt lat="45.9143" lon="3.84326">
        <ele>634</ele>
        <time>2024-12-08T04:00:27.619Z</time>
      </trkpt>
      <trkpt lat="45.9143" lon="3.84326">
        <ele>634</ele>
        <time>2024-12-08T04:00:28.620Z</time>
      </trkpt>
      <trkpt lat="45.9143" lon="3.84326">
        <ele>634</ele>
        <time>2024-12-08T04:00:29.619Z</time>
      </trkpt>
      <trkpt lat="45.91429" lon="3.84326">
        <ele>634</ele>
        <time>2024-12-08T04:00:30.619Z</time>
      </trkpt>
      <trkpt lat="45.91429" lon="3.84326">
        <ele>634</ele>
        <time>2024-12-08T04:00:31.619Z</time>
      </trkpt>
      <trkpt lat="45.91429" lon="3.84326">
        <ele>634</ele>
        <time>2024-12-08T04:00:32.619Z</time>
      </trkpt>
      <trkpt lat="45.91429" lon="3.84327">
        <ele>634</ele>
        <time>2024-12-08T04:00:33.620Z</time>
      </trkpt>
      <trkpt lat="45.91429" lon="3.84327">
        <ele>634</ele>
        <time>2024-12-08T04:00:34.619Z</time>
      </trkpt>
      <trkpt lat="45.91429" lon="3.84327">
        <ele>633</ele>
        <time>2024-12-08T04:00:35.620Z</time>
      </trkpt>
      <trkpt lat="45.91429" lon="3.84327">
        <ele>633</ele>
        <time>2024-12-08T04:00:36.619Z</time>
      </trkpt>
      <trkpt lat="45.91429" lon="3.84327">
        <ele>633</ele>
        <time>2024-12-08T04:00:37.620Z</time>
      </trkpt>
      <trkpt lat="45.91429" lon="3.84327">
        <ele>633</ele>
        <time>2024-12-08T04:00:38.619Z</time>
      </trkpt>
      <trkpt lat="45.91429" lon="3.84327">
        <ele>633</ele>
        <time>2024-12-08T04:00:39.619Z</time>
      </trkpt>
      <trkpt lat="45.91429" lon="3.84327">
        <ele>633</ele>
        <time>2024-12-08T04:00:40.619Z</time>
      </trkpt>
      <trkpt lat="45.91429" lon="3.84328">
        <ele>633</ele>
        <time>2024-12-08T04:00:41.619Z</time>
      </trkpt>
      <trkpt lat="45.91429" lon="3.84328">
        <ele>633</ele>
        <time>2024-12-08T04:00:42.619Z</time>
      </trkpt>
      <trkpt lat="45.91429" lon="3.84328">
        <ele>633</ele>
        <time>2024-12-08T04:00:43.619Z</time>
      </trkpt>
      <trkpt lat="45.91429" lon="3.84328">
        <ele>633</ele>
        <time>2024-12-08T04:00:44.620Z</time>
      </trkpt>
      <trkpt lat="45.91429" lon="3.84328">
        <ele>633</ele>
        <time>2024-12-08T04:00:45.619Z</time>
      </trkpt>
      <trkpt lat="45.91429" lon="3.84328">
        <ele>633</ele>
        <time>2024-12-08T04:00:46.619Z</time>
      </trkpt>
      <trkpt lat="45.91429" lon="3.84328">
        <ele>633</ele>
        <time>2024-12-08T04:00:47.619Z</time>
      </trkpt>
      <trkpt lat="45.91429" lon="3.84328">
        <ele>633</ele>
        <time>2024-12-08T04:00:48.619Z</time>
      </trkpt>
      <trkpt lat="45.91429" lon="3.84328">
        <ele>633</ele>
        <time>2024-12-08T04:00:49.619Z</time>
      </trkpt>
      <trkpt lat="45.91429" lon="3.84328">
        <ele>633</ele>
        <time>2024-12-08T04:00:50.619Z</time>
      </trkpt>
      <trkpt lat="45.91429" lon="3.84328">
        <ele>633</ele>
        <time>2024-12-08T04:00:51.620Z</time>
      </trkpt>
      <trkpt lat="45.91429" lon="3.84328">
        <ele>633</ele>
        <time>2024-12-08T04:00:52.620Z</time>
      </trkpt>
      <trkpt lat="45.91429" lon="3.84328">
        <ele>633</ele>
        <time>2024-12-08T04:00:53.619Z</time>
      </trkpt>
      <trkpt lat="45.91429" lon="3.84328">
        <ele>633</ele>
        <time>2024-12-08T04:00:54.619Z</time>
      </trkpt>
      <trkpt lat="45.91429" lon="3.84328">
        <ele>633</ele>
        <time>2024-12-08T04:00:55.619Z</time>
      </trkpt>
      <trkpt lat="45.91429" lon="3.84328">
        <ele>633</ele>
        <time>2024-12-08T04:00:56.619Z</time>
      </trkpt>
      <trkpt lat="45.91429" lon="3.84328">
        <ele>633</ele>
        <time>2024-12-08T04:00:57.619Z</time>
      </trkpt>
      <trkpt lat="45.91429" lon="3.84328">
        <ele>633</ele>
        <time>2024-12-08T04:00:58.620Z</time>
      </trkpt>
      <trkpt lat="45.91429" lon="3.84328">
        <ele>633</ele>
        <time>2024-12-08T04:00:59.620Z</time>
      </trkpt>
      <trkpt lat="45.91429" lon="3.84328">
        <ele>633</ele>
        <time>2024-12-08T04:01:00.620Z</time>
      </trkpt>
      <trkpt lat="45.91429" lon="3.84328">
        <ele>633</ele>
        <time>2024-12-08T04:01:01.619Z</time>
      </trkpt>
      <trkpt lat="45.91429" lon="3.84328">
        <ele>633</ele>
        <time>2024-12-08T04:01:02.620Z</time>
      </trkpt>
      <trkpt lat="45.9143" lon="3.84328">
        <ele>633</ele>
        <time>2024-12-08T04:01:03.620Z</time>
      </trkpt>
      <trkpt lat="45.9143" lon="3.84328">
        <ele>633</ele>
        <time>2024-12-08T04:01:04.620Z</time>
      </trkpt>
      <trkpt lat="45.9143" lon="3.84328">
        <ele>633</ele>
        <time>2024-12-08T04:01:05.620Z</time>
      </trkpt>
      <trkpt lat="45.9143" lon="3.84328">
        <ele>633</ele>
        <time>2024-12-08T04:01:06.620Z</time>
      </trkpt>
      <trkpt lat="45.9143" lon="3.84328">
        <ele>633</ele>
        <time>2024-12-08T04:01:07.619Z</time>
      </trkpt>
      <trkpt lat="45.9143" lon="3.84328">
        <ele>633</ele>
        <time>2024-12-08T04:01:08.620Z</time>
      </trkpt>
      <trkpt lat="45.9143" lon="3.84328">
        <ele>633</ele>
        <time>2024-12-08T04:01:09.619Z</time>
      </trkpt>
      <trkpt lat="45.9143" lon="3.84328">
        <ele>633</ele>
        <time>2024-12-08T04:01:10.620Z</time>
      </trkpt>
      <trkpt lat="45.9143" lon="3.84328">
        <ele>633</ele>
        <time>2024-12-08T04:01:11.620Z</time>
      </trkpt>
      <trkpt lat="45.9143" lon="3.84328">
        <ele>633</ele>
        <time>2024-12-08T04:01:12.619Z</time>
      </trkpt>
      <trkpt lat="45.9143" lon="3.84328">
        <ele>633</ele>
        <time>2024-12-08T04:01:13.619Z</time>
      </trkpt>
      <trkpt lat="45.9143" lon="3.84328">
        <ele>633</ele>
        <time>2024-12-08T04:01:14.619Z</time>
      </trkpt>
      <trkpt lat="45.9143" lon="3.84328">
        <ele>633</ele>
        <time>2024-12-08T04:01:15.620Z</time>
      </trkpt>
      <trkpt lat="45.91429" lon="3.84328">
        <ele>633</ele>
        <time>2024-12-08T04:01:16.619Z</time>
      </trkpt>
      <trkpt lat="45.91429" lon="3.84328">
        <ele>633</ele>
        <time>2024-12-08T04:01:17.619Z</time>
      </trkpt>
      <trkpt lat="45.91429" lon="3.84328">
        <ele>633</ele>
        <time>2024-12-08T04:01:18.619Z</time>
      </trkpt>
      <trkpt lat="45.9143" lon="3.84328">
        <ele>633</ele>
        <time>2024-12-08T04:01:19.620Z</time>
      </trkpt>
      <trkpt lat="45.9143" lon="3.84328">
        <ele>633</ele>
        <time>2024-12-08T04:01:20.619Z</time>
      </trkpt>
      <trkpt lat="45.9143" lon="3.84328">
        <ele>633</ele>
        <time>2024-12-08T04:01:21.619Z</time>
      </trkpt>
      <trkpt lat="45.9143" lon="3.84328">
        <ele>633</ele>
        <time>2024-12-08T04:01:22.619Z</time>
      </trkpt>
      <trkpt lat="45.9143" lon="3.84328">
        <ele>633</ele>
        <time>2024-12-08T04:01:23.619Z</time>
      </trkpt>
      <trkpt lat="45.9143" lon="3.84328">
        <ele>633</ele>
        <time>2024-12-08T04:01:24.619Z</time>
      </trkpt>
      <trkpt lat="45.9143" lon="3.84328">
        <ele>633</ele>
        <time>2024-12-08T04:01:25.620Z</time>
      </trkpt>
      <trkpt lat="45.9143" lon="3.84328">
        <ele>633</ele>
        <time>2024-12-08T04:01:26.620Z</time>
      </trkpt>
      <trkpt lat="45.9143" lon="3.84328">
        <ele>633</ele>
        <time>2024-12-08T04:01:27.619Z</time>
      </trkpt>
      <trkpt lat="45.9143" lon="3.84328">
        <ele>633</ele>
        <time>2024-12-08T04:01:28.619Z</time>
      </trkpt>
      <trkpt lat="45.9143" lon="3.84328">
        <ele>633</ele>
        <time>2024-12-08T04:01:29.619Z</time>
      </trkpt>
      <trkpt lat="45.9143" lon="3.84328">
        <ele>633</ele>
        <time>2024-12-08T04:01:30.620Z</time>
      </trkpt>
      <trkpt lat="45.9143" lon="3.84328">
        <ele>633</ele>
        <time>2024-12-08T04:01:31.619Z</time>
      </trkpt>
      <trkpt lat="45.9143" lon="3.84328">
        <ele>633</ele>
        <time>2024-12-08T04:01:32.620Z</time>
      </trkpt>
      <trkpt lat="45.91429" lon="3.84329">
        <ele>633</ele>
        <time>2024-12-08T04:01:33.619Z</time>
      </trkpt>
      <trkpt lat="45.91428" lon="3.8433">
        <ele>633</ele>
        <time>2024-12-08T04:01:34.619Z</time>
      </trkpt>
      <trkpt lat="45.91428" lon="3.84331">
        <ele>633</ele>
        <time>2024-12-08T04:01:35.619Z</time>
      </trkpt>
      <trkpt lat="45.91427" lon="3.84331">
        <ele>633</ele>
        <time>2024-12-08T04:01:36.619Z</time>
      </trkpt>
      <trkpt lat="45.91426" lon="3.84332">
        <ele>633</ele>
        <time>2024-12-08T04:01:37.619Z</time>
      </trkpt>
      <trkpt lat="45.91426" lon="3.84332">
        <ele>633</ele>
        <time>2024-12-08T04:01:38.620Z</time>
      </trkpt>
      <trkpt lat="45.91426" lon="3.84332">
        <ele>633</ele>
        <time>2024-12-08T04:01:39.620Z</time>
      </trkpt>
      <trkpt lat="45.91425" lon="3.84332">
        <ele>633</ele>
        <time>2024-12-08T04:01:40.619Z</time>
      </trkpt>
      <trkpt lat="45.91424" lon="3.84333">
        <ele>633</ele>
        <time>2024-12-08T04:01:41.619Z</time>
      </trkpt>
      <trkpt lat="45.91423" lon="3.84333">
        <ele>633</ele>
        <time>2024-12-08T04:01:42.620Z</time>
      </trkpt>
      <trkpt lat="45.91423" lon="3.84333">
        <ele>633</ele>
        <time>2024-12-08T04:01:43.620Z</time>
      </trkpt>
      <trkpt lat="45.91423" lon="3.84333">
        <ele>633</ele>
        <time>2024-12-08T04:01:44.619Z</time>
      </trkpt>
      <trkpt lat="45.91423" lon="3.84333">
        <ele>633</ele>
        <time>2024-12-08T04:01:45.619Z</time>
      </trkpt>
      <trkpt lat="45.91423" lon="3.84333">
        <ele>633</ele>
        <time>2024-12-08T04:01:46.620Z</time>
      </trkpt>
      <trkpt lat="45.91423" lon="3.84333">
        <ele>633</ele>
        <time>2024-12-08T04:01:47.620Z</time>
      </trkpt>
      <trkpt lat="45.91423" lon="3.84333">
        <ele>633</ele>
        <time>2024-12-08T04:01:48.619Z</time>
      </trkpt>
      <trkpt lat="45.91423" lon="3.84333">
        <ele>633</ele>
        <time>2024-12-08T04:01:49.619Z</time>
      </trkpt>
      <trkpt lat="45.91423" lon="3.84333">
        <ele>633</ele>
        <time>2024-12-08T04:01:50.619Z</time>
      </trkpt>
      <trkpt lat="45.91423" lon="3.84333">
        <ele>634</ele>
        <time>2024-12-08T04:01:51.620Z</time>
      </trkpt>
      <trkpt lat="45.91423" lon="3.84333">
        <ele>634</ele>
        <time>2024-12-08T04:01:52.619Z</time>
      </trkpt>
      <trkpt lat="45.91423" lon="3.84333">
        <ele>634</ele>
        <time>2024-12-08T04:01:53.620Z</time>
      </trkpt>
      <trkpt lat="45.91423" lon="3.84333">
        <ele>634</ele>
        <time>2024-12-08T04:01:54.620Z</time>
      </trkpt>
      <trkpt lat="45.91423" lon="3.84333">
        <ele>634</ele>
        <time>2024-12-08T04:01:55.620Z</time>
      </trkpt>
      <trkpt lat="45.91423" lon="3.84333">
        <ele>634</ele>
        <time>2024-12-08T04:01:56.620Z</time>
      </trkpt>
      <trkpt lat="45.91423" lon="3.84333">
        <ele>635</ele>
        <time>2024-12-08T04:01:57.619Z</time>
      </trkpt>
      <trkpt lat="45.91423" lon="3.84333">
        <ele>635</ele>
        <time>2024-12-08T04:01:58.619Z</time>
      </trkpt>
      <trkpt lat="45.91423" lon="3.84333">
        <ele>635</ele>
        <time>2024-12-08T04:01:59.620Z</time>
      </trkpt>
      <trkpt lat="45.91423" lon="3.84333">
        <ele>635</ele>
        <time>2024-12-08T04:02:00.619Z</time>
      </trkpt>
      <trkpt lat="45.91423" lon="3.84333">
        <ele>635</ele>
        <time>2024-12-08T04:02:01.620Z</time>
      </trkpt>
      <trkpt lat="45.91423" lon="3.84333">
        <ele>635</ele>
        <time>2024-12-08T04:02:02.619Z</time>
      </trkpt>
      <trkpt lat="45.91423" lon="3.84333">
        <ele>635</ele>
        <time>2024-12-08T04:02:03.619Z</time>
      </trkpt>
      <trkpt lat="45.91423" lon="3.84333">
        <ele>635</ele>
        <time>2024-12-08T04:02:04.619Z</time>
      </trkpt>
      <trkpt lat="45.91423" lon="3.84333">
        <ele>635</ele>
        <time>2024-12-08T04:02:05.619Z</time>
      </trkpt>
      <trkpt lat="45.91423" lon="3.84333">
        <ele>635</ele>
        <time>2024-12-08T04:02:06.619Z</time>
      </trkpt>
      <trkpt lat="45.91423" lon="3.84333">
        <ele>635</ele>
        <time>2024-12-08T04:02:07.619Z</time>
      </trkpt>
      <trkpt lat="45.91423" lon="3.84333">
        <ele>635</ele>
        <time>2024-12-08T04:02:08.619Z</time>
      </trkpt>
      <trkpt lat="45.91423" lon="3.84333">
        <ele>635</ele>
        <time>2024-12-08T04:02:09.619Z</time>
      </trkpt>
      <trkpt lat="45.91423" lon="3.84333">
        <ele>635</ele>
        <time>2024-12-08T04:02:10.619Z</time>
      </trkpt>
      <trkpt lat="45.91423" lon="3.84333">
        <ele>636</ele>
        <time>2024-12-08T04:02:11.619Z</time>
      </trkpt>
      <trkpt lat="45.91423" lon="3.84333">
        <ele>636</ele>
        <time>2024-12-08T04:02:12.620Z</time>
      </trkpt>
      <trkpt lat="45.91423" lon="3.84333">
        <ele>636</ele>
        <time>2024-12-08T04:02:13.619Z</time>
      </trkpt>
      <trkpt lat="45.91423" lon="3.84333">
        <ele>636</ele>
        <time>2024-12-08T04:02:14.619Z</time>
      </trkpt>
      <trkpt lat="45.91423" lon="3.84333">
        <ele>636</ele>
        <time>2024-12-08T04:02:15.620Z</time>
      </trkpt>
      <trkpt lat="45.91423" lon="3.84333">
        <ele>636</ele>
        <time>2024-12-08T04:02:16.620Z</time>
      </trkpt>
      <trkpt lat="45.91423" lon="3.84333">
        <ele>636</ele>
        <time>2024-12-08T04:02:17.619Z</time>
      </trkpt>
      <trkpt lat="45.91423" lon="3.84333">
        <ele>636</ele>
        <time>2024-12-08T04:02:18.619Z</time>
      </trkpt>
      <trkpt lat="45.91423" lon="3.84333">
        <ele>636</ele>
        <time>2024-12-08T04:02:19.620Z</time>
      </trkpt>
      <trkpt lat="45.91423" lon="3.84333">
        <ele>636</ele>
        <time>2024-12-08T04:02:20.620Z</time>
      </trkpt>
      <trkpt lat="45.91423" lon="3.84333">
        <ele>636</ele>
        <time>2024-12-08T04:02:21.619Z</time>
      </trkpt>
      <trkpt lat="45.91423" lon="3.84333">
        <ele>636</ele>
        <time>2024-12-08T04:02:22.620Z</time>
      </trkpt>
      <trkpt lat="45.91424" lon="3.84333">
        <ele>636</ele>
        <time>2024-12-08T04:02:23.619Z</time>
      </trkpt>
      <trkpt lat="45.91424" lon="3.84333">
        <ele>636</ele>
        <time>2024-12-08T04:02:24.620Z</time>
      </trkpt>
      <trkpt lat="45.91424" lon="3.84333">
        <ele>636</ele>
        <time>2024-12-08T04:02:25.619Z</time>
      </trkpt>
      <trkpt lat="45.91425" lon="3.84334">
        <ele>636</ele>
        <time>2024-12-08T04:02:26.619Z</time>
      </trkpt>
      <trkpt lat="45.91426" lon="3.84334">
        <ele>636</ele>
        <time>2024-12-08T04:02:27.620Z</time>
      </trkpt>
      <trkpt lat="45.91427" lon="3.84333">
        <ele>636</ele>
        <time>2024-12-08T04:02:28.619Z</time>
      </trkpt>
      <trkpt lat="45.91427" lon="3.84333">
        <ele>636</ele>
        <time>2024-12-08T04:02:29.620Z</time>
      </trkpt>
      <trkpt lat="45.91428" lon="3.84333">
        <ele>636</ele>
        <time>2024-12-08T04:02:30.619Z</time>
      </trkpt>
      <trkpt lat="45.91428" lon="3.84333">
        <ele>636</ele>
        <time>2024-12-08T04:02:31.620Z</time>
      </trkpt>
      <trkpt lat="45.91428" lon="3.84334">
        <ele>636</ele>
        <time>2024-12-08T04:02:32.620Z</time>
      </trkpt>
      <trkpt lat="45.91429" lon="3.84333">
        <ele>636</ele>
        <time>2024-12-08T04:02:33.619Z</time>
      </trkpt>
      <trkpt lat="45.91429" lon="3.84334">
        <ele>636</ele>
        <time>2024-12-08T04:02:34.619Z</time>
      </trkpt>
      <trkpt lat="45.91429" lon="3.84334">
        <ele>636</ele>
        <time>2024-12-08T04:02:35.619Z</time>
      </trkpt>
      <trkpt lat="45.91429" lon="3.84334">
        <ele>636</ele>
        <time>2024-12-08T04:02:36.619Z</time>
      </trkpt>
      <trkpt lat="45.91429" lon="3.84334">
        <ele>636</ele>
        <time>2024-12-08T04:02:37.620Z</time>
      </trkpt>
      <trkpt lat="45.91429" lon="3.84334">
        <ele>636</ele>
        <time>2024-12-08T04:02:38.619Z</time>
      </trkpt>
      <trkpt lat="45.91428" lon="3.84334">
        <ele>636</ele>
        <time>2024-12-08T04:02:39.619Z</time>
      </trkpt>
      <trkpt lat="45.91428" lon="3.84334">
        <ele>637</ele>
        <time>2024-12-08T04:02:40.620Z</time>
      </trkpt>
      <trkpt lat="45.91428" lon="3.84334">
        <ele>637</ele>
        <time>2024-12-08T04:02:41.619Z</time>
      </trkpt>
      <trkpt lat="45.91428" lon="3.84334">
        <ele>637</ele>
        <time>2024-12-08T04:02:42.619Z</time>
      </trkpt>
      <trkpt lat="45.91428" lon="3.84334">
        <ele>637</ele>
        <time>2024-12-08T04:02:43.619Z</time>
      </trkpt>
      <trkpt lat="45.91428" lon="3.84334">
        <ele>637</ele>
        <time>2024-12-08T04:02:44.620Z</time>
      </trkpt>
      <trkpt lat="45.91428" lon="3.84334">
        <ele>637</ele>
        <time>2024-12-08T04:02:45.619Z</time>
      </trkpt>
      <trkpt lat="45.91428" lon="3.84334">
        <ele>637</ele>
        <time>2024-12-08T04:02:46.619Z</time>
      </trkpt>
      <trkpt lat="45.91428" lon="3.84334">
        <ele>637</ele>
        <time>2024-12-08T04:02:47.620Z</time>
      </trkpt>
      <trkpt lat="45.91428" lon="3.84334">
        <ele>637</ele>
        <time>2024-12-08T04:02:48.620Z</time>
      </trkpt>
      <trkpt lat="45.91428" lon="3.84334">
        <ele>637</ele>
        <time>2024-12-08T04:02:49.619Z</time>
      </trkpt>
      <trkpt lat="45.91428" lon="3.84334">
        <ele>637</ele>
        <time>2024-12-08T04:02:50.620Z</time>
      </trkpt>
      <trkpt lat="45.91429" lon="3.84334">
        <ele>637</ele>
        <time>2024-12-08T04:02:51.620Z</time>
      </trkpt>
      <trkpt lat="45.91429" lon="3.84334">
        <ele>637</ele>
        <time>2024-12-08T04:02:52.619Z</time>
      </trkpt>
      <trkpt lat="45.91429" lon="3.84334">
        <ele>637</ele>
        <time>2024-12-08T04:02:53.619Z</time>
      </trkpt>
      <trkpt lat="45.91429" lon="3.84334">
        <ele>637</ele>
        <time>2024-12-08T04:02:54.620Z</time>
      </trkpt>
      <trkpt lat="45.91429" lon="3.84334">
        <ele>637</ele>
        <time>2024-12-08T04:02:55.620Z</time>
      </trkpt>
      <trkpt lat="45.91429" lon="3.84334">
        <ele>637</ele>
        <time>2024-12-08T04:02:56.619Z</time>
      </trkpt>
      <trkpt lat="45.91429" lon="3.84333">
        <ele>637</ele>
        <time>2024-12-08T04:02:57.620Z</time>
      </trkpt>
      <trkpt lat="45.91429" lon="3.84333">
        <ele>637</ele>
        <time>2024-12-08T04:02:58.619Z</time>
      </trkpt>
      <trkpt lat="45.91429" lon="3.84333">
        <ele>637</ele>
        <time>2024-12-08T04:02:59.619Z</time>
      </trkpt>
      <trkpt lat="45.91428" lon="3.8433">
        <ele>637</ele>
        <time>2024-12-08T04:03:00.620Z</time>
      </trkpt>
      <trkpt lat="45.91428" lon="3.84328">
        <ele>637</ele>
        <time>2024-12-08T04:03:01.619Z</time>
      </trkpt>
      <trkpt lat="45.91428" lon="3.84327">
        <ele>637</ele>
        <time>2024-12-08T04:03:02.619Z</time>
      </trkpt>
      <trkpt lat="45.91427" lon="3.84325">
        <ele>637</ele>
        <time>2024-12-08T04:03:03.620Z</time>
      </trkpt>
      <trkpt lat="45.91427" lon="3.84323">
        <ele>637</ele>
        <time>2024-12-08T04:03:04.619Z</time>
      </trkpt>
      <trkpt lat="45.91426" lon="3.84321">
        <ele>637</ele>
        <time>2024-12-08T04:03:05.619Z</time>
      </trkpt>
      <trkpt lat="45.91425" lon="3.8432">
        <ele>637</ele>
        <time>2024-12-08T04:03:06.620Z</time>
      </trkpt>
      <trkpt lat="45.91425" lon="3.84318">
        <ele>637</ele>
        <time>2024-12-08T04:03:07.619Z</time>
      </trkpt>
      <trkpt lat="45.91425" lon="3.84317">
        <ele>637</ele>
        <time>2024-12-08T04:03:08.619Z</time>
      </trkpt>
      <trkpt lat="45.91426" lon="3.84316">
        <ele>637</ele>
        <time>2024-12-08T04:03:09.619Z</time>
      </trkpt>
      <trkpt lat="45.91426" lon="3.84316">
        <ele>637</ele>
        <time>2024-12-08T04:03:10.619Z</time>
      </trkpt>
      <trkpt lat="45.91426" lon="3.84315">
        <ele>637</ele>
        <time>2024-12-08T04:03:11.619Z</time>
      </trkpt>
      <trkpt lat="45.91427" lon="3.84314">
        <ele>637</ele>
        <time>2024-12-08T04:03:12.619Z</time>
      </trkpt>
      <trkpt lat="45.91427" lon="3.84312">
        <ele>637</ele>
        <time>2024-12-08T04:03:13.620Z</time>
      </trkpt>
      <trkpt lat="45.91427" lon="3.84312">
        <ele>637</ele>
        <time>2024-12-08T04:03:14.619Z</time>
      </trkpt>
      <trkpt lat="45.91427" lon="3.84312">
        <ele>637</ele>
        <time>2024-12-08T04:03:15.619Z</time>
      </trkpt>
      <trkpt lat="45.91425" lon="3.84311">
        <ele>637</ele>
        <time>2024-12-08T04:03:16.620Z</time>
      </trkpt>
      <trkpt lat="45.91425" lon="3.84311">
        <ele>637</ele>
        <time>2024-12-08T04:03:17.620Z</time>
      </trkpt>
      <trkpt lat="45.91423" lon="3.8431">
        <ele>636</ele>
        <time>2024-12-08T04:03:18.619Z</time>
      </trkpt>
      <trkpt lat="45.91419" lon="3.84308">
        <ele>636</ele>
        <time>2024-12-08T04:03:19.619Z</time>
      </trkpt>
      <trkpt lat="45.91418" lon="3.84307">
        <ele>636</ele>
        <time>2024-12-08T04:03:20.620Z</time>
      </trkpt>
      <trkpt lat="45.91416" lon="3.84305">
        <ele>636</ele>
        <time>2024-12-08T04:03:21.619Z</time>
      </trkpt>
      <trkpt lat="45.91414" lon="3.84303">
        <ele>636</ele>
        <time>2024-12-08T04:03:22.619Z</time>
      </trkpt>
      <trkpt lat="45.91413" lon="3.84303">
        <ele>636</ele>
        <time>2024-12-08T04:03:23.620Z</time>
      </trkpt>
      <trkpt lat="45.91412" lon="3.84302">
        <ele>636</ele>
        <time>2024-12-08T04:03:24.620Z</time>
      </trkpt>
      <trkpt lat="45.91412" lon="3.84302">
        <ele>636</ele>
        <time>2024-12-08T04:03:25.620Z</time>
      </trkpt>
      <trkpt lat="45.91412" lon="3.84302">
        <ele>636</ele>
        <time>2024-12-08T04:03:26.620Z</time>
      </trkpt>
      <trkpt lat="45.91413" lon="3.84302">
        <ele>636</ele>
        <time>2024-12-08T04:03:27.619Z</time>
      </trkpt>
      <trkpt lat="45.91414" lon="3.84302">
        <ele>637</ele>
        <time>2024-12-08T04:03:28.620Z</time>
      </trkpt>
      <trkpt lat="45.91414" lon="3.84302">
        <ele>637</ele>
        <time>2024-12-08T04:03:29.620Z</time>
      </trkpt>
      <trkpt lat="45.91415" lon="3.84302">
        <ele>637</ele>
        <time>2024-12-08T04:03:30.620Z</time>
      </trkpt>
      <trkpt lat="45.91416" lon="3.84303">
        <ele>637</ele>
        <time>2024-12-08T04:03:31.619Z</time>
      </trkpt>
      <trkpt lat="45.91415" lon="3.84303">
        <ele>637</ele>
        <time>2024-12-08T04:03:32.619Z</time>
      </trkpt>
      <trkpt lat="45.91415" lon="3.84303">
        <ele>637</ele>
        <time>2024-12-08T04:03:33.620Z</time>
      </trkpt>
      <trkpt lat="45.91413" lon="3.84302">
        <ele>637</ele>
        <time>2024-12-08T04:03:34.619Z</time>
      </trkpt>
      <trkpt lat="45.91413" lon="3.84302">
        <ele>638</ele>
        <time>2024-12-08T04:03:35.620Z</time>
      </trkpt>
      <trkpt lat="45.91413" lon="3.84302">
        <ele>638</ele>
        <time>2024-12-08T04:03:36.619Z</time>
      </trkpt>
      <trkpt lat="45.91414" lon="3.84304">
        <ele>638</ele>
        <time>2024-12-08T04:03:37.619Z</time>
      </trkpt>
      <trkpt lat="45.91415" lon="3.84305">
        <ele>638</ele>
        <time>2024-12-08T04:03:38.620Z</time>
      </trkpt>
      <trkpt lat="45.91416" lon="3.84306">
        <ele>638</ele>
        <time>2024-12-08T04:03:39.619Z</time>
      </trkpt>
      <trkpt lat="45.91416" lon="3.84305">
        <ele>638</ele>
        <time>2024-12-08T04:03:40.619Z</time>
      </trkpt>
      <trkpt lat="45.91416" lon="3.84303">
        <ele>638</ele>
        <time>2024-12-08T04:03:41.620Z</time>
      </trkpt>
      <trkpt lat="45.91419" lon="3.843">
        <ele>638</ele>
        <time>2024-12-08T04:03:42.619Z</time>
      </trkpt>
      <trkpt lat="45.91415" lon="3.84297">
        <ele>638</ele>
        <time>2024-12-08T04:03:43.620Z</time>
      </trkpt>
      <trkpt lat="45.91415" lon="3.84297">
        <ele>637</ele>
        <time>2024-12-08T04:03:44.620Z</time>
      </trkpt>
      <trkpt lat="45.91414" lon="3.84297">
        <ele>637</ele>
        <time>2024-12-08T04:03:45.620Z</time>
      </trkpt>
      <trkpt lat="45.91414" lon="3.84297">
        <ele>637</ele>
        <time>2024-12-08T04:03:46.620Z</time>
      </trkpt>
      <trkpt lat="45.91414" lon="3.84297">
        <ele>636</ele>
        <time>2024-12-08T04:03:47.619Z</time>
      </trkpt>
      <trkpt lat="45.91412" lon="3.84296">
        <ele>636</ele>
        <time>2024-12-08T04:03:48.619Z</time>
      </trkpt>
      <trkpt lat="45.91409" lon="3.84296">
        <ele>635</ele>
        <time>2024-12-08T04:03:49.620Z</time>
      </trkpt>
      <trkpt lat="45.91408" lon="3.84296">
        <ele>635</ele>
        <time>2024-12-08T04:03:50.620Z</time>
      </trkpt>
      <trkpt lat="45.91407" lon="3.84295">
        <ele>634</ele>
        <time>2024-12-08T04:03:51.619Z</time>
      </trkpt>
      <trkpt lat="45.91407" lon="3.84295">
        <ele>634</ele>
        <time>2024-12-08T04:03:52.619Z</time>
      </trkpt>
      <trkpt lat="45.91406" lon="3.84295">
        <ele>633</ele>
        <time>2024-12-08T04:03:53.620Z</time>
      </trkpt>
      <trkpt lat="45.91406" lon="3.84294">
        <ele>633</ele>
        <time>2024-12-08T04:03:54.619Z</time>
      </trkpt>
      <trkpt lat="45.91405" lon="3.84294">
        <ele>632</ele>
        <time>2024-12-08T04:03:55.619Z</time>
      </trkpt>
      <trkpt lat="45.91405" lon="3.84294">
        <ele>632</ele>
        <time>2024-12-08T04:03:56.619Z</time>
      </trkpt>
      <trkpt lat="45.91403" lon="3.84294">
        <ele>632</ele>
        <time>2024-12-08T04:03:57.620Z</time>
      </trkpt>
      <trkpt lat="45.91401" lon="3.84293">
        <ele>631</ele>
        <time>2024-12-08T04:03:58.619Z</time>
      </trkpt>
      <trkpt lat="45.91401" lon="3.84293">
        <ele>631</ele>
        <time>2024-12-08T04:03:59.620Z</time>
      </trkpt>
      <trkpt lat="45.91401" lon="3.84292">
        <ele>631</ele>
        <time>2024-12-08T04:04:00.620Z</time>
      </trkpt>
      <trkpt lat="45.91401" lon="3.84292">
        <ele>630</ele>
        <time>2024-12-08T04:04:01.619Z</time>
      </trkpt>
      <trkpt lat="45.91401" lon="3.84293">
        <ele>630</ele>
        <time>2024-12-08T04:04:02.620Z</time>
      </trkpt>
      <trkpt lat="45.91403" lon="3.84294">
        <ele>630</ele>
        <time>2024-12-08T04:04:03.620Z</time>
      </trkpt>
      <trkpt lat="45.91404" lon="3.84295">
        <ele>629</ele>
        <time>2024-12-08T04:04:04.619Z</time>
      </trkpt>
      <trkpt lat="45.91405" lon="3.84297">
        <ele>629</ele>
        <time>2024-12-08T04:04:05.619Z</time>
      </trkpt>
      <trkpt lat="45.91406" lon="3.84297">
        <ele>628</ele>
        <time>2024-12-08T04:04:06.620Z</time>
      </trkpt>
      <trkpt lat="45.91406" lon="3.84298">
        <ele>628</ele>
        <time>2024-12-08T04:04:07.620Z</time>
      </trkpt>
      <trkpt lat="45.91407" lon="3.84299">
        <ele>628</ele>
        <time>2024-12-08T04:04:08.620Z</time>
      </trkpt>
      <trkpt lat="45.91407" lon="3.843">
        <ele>627</ele>
        <time>2024-12-08T04:04:09.619Z</time>
      </trkpt>
      <trkpt lat="45.91407" lon="3.84301">
        <ele>627</ele>
        <time>2024-12-08T04:04:10.619Z</time>
      </trkpt>
      <trkpt lat="45.91408" lon="3.84301">
        <ele>627</ele>
        <time>2024-12-08T04:04:11.620Z</time>
      </trkpt>
      <trkpt lat="45.91409" lon="3.84301">
        <ele>627</ele>
        <time>2024-12-08T04:04:12.620Z</time>
      </trkpt>
      <trkpt lat="45.91409" lon="3.84298">
        <ele>627</ele>
        <time>2024-12-08T04:04:13.620Z</time>
      </trkpt>
      <trkpt lat="45.91409" lon="3.84296">
        <ele>627</ele>
        <time>2024-12-08T04:04:14.619Z</time>
      </trkpt>
      <trkpt lat="45.9141" lon="3.84294">
        <ele>627</ele>
        <time>2024-12-08T04:04:15.619Z</time>
      </trkpt>
      <trkpt lat="45.9141" lon="3.84293">
        <ele>627</ele>
        <time>2024-12-08T04:04:16.620Z</time>
      </trkpt>
      <trkpt lat="45.9141" lon="3.84291">
        <ele>627</ele>
        <time>2024-12-08T04:04:17.620Z</time>
      </trkpt>
      <trkpt lat="45.91412" lon="3.8429">
        <ele>627</ele>
        <time>2024-12-08T04:04:18.619Z</time>
      </trkpt>
      <trkpt lat="45.91414" lon="3.84291">
        <ele>627</ele>
        <time>2024-12-08T04:04:19.620Z</time>
      </trkpt>
      <trkpt lat="45.91417" lon="3.84293">
        <ele>627</ele>
        <time>2024-12-08T04:04:20.620Z</time>
      </trkpt>
      <trkpt lat="45.91418" lon="3.84297">
        <ele>627</ele>
        <time>2024-12-08T04:04:21.619Z</time>
      </trkpt>
      <trkpt lat="45.91418" lon="3.84297">
        <ele>626</ele>
        <time>2024-12-08T04:04:22.620Z</time>
      </trkpt>
      <trkpt lat="45.91418" lon="3.843">
        <ele>626</ele>
        <time>2024-12-08T04:04:23.619Z</time>
      </trkpt>
      <trkpt lat="45.91416" lon="3.84301">
        <ele>626</ele>
        <time>2024-12-08T04:04:24.620Z</time>
      </trkpt>
      <trkpt lat="45.91414" lon="3.84302">
        <ele>626</ele>
        <time>2024-12-08T04:04:25.620Z</time>
      </trkpt>
      <trkpt lat="45.91413" lon="3.84304">
        <ele>627</ele>
        <time>2024-12-08T04:04:26.620Z</time>
      </trkpt>
      <trkpt lat="45.91412" lon="3.84303">
        <ele>628</ele>
        <time>2024-12-08T04:04:27.619Z</time>
      </trkpt>
      <trkpt lat="45.91412" lon="3.84303">
        <ele>629</ele>
        <time>2024-12-08T04:04:28.620Z</time>
      </trkpt>
      <trkpt lat="45.91412" lon="3.84301">
        <ele>629</ele>
        <time>2024-12-08T04:04:29.620Z</time>
      </trkpt>
      <trkpt lat="45.91412" lon="3.84299">
        <ele>630</ele>
        <time>2024-12-08T04:04:30.619Z</time>
      </trkpt>
      <trkpt lat="45.91412" lon="3.84297">
        <ele>630</ele>
        <time>2024-12-08T04:04:31.619Z</time>
      </trkpt>
      <trkpt lat="45.91412" lon="3.84295">
        <ele>630</ele>
        <time>2024-12-08T04:04:32.620Z</time>
      </trkpt>
      <trkpt lat="45.91413" lon="3.84293">
        <ele>630</ele>
        <time>2024-12-08T04:04:33.619Z</time>
      </trkpt>
      <trkpt lat="45.91414" lon="3.84292">
        <ele>631</ele>
        <time>2024-12-08T04:04:34.620Z</time>
      </trkpt>
      <trkpt lat="45.91415" lon="3.84291">
        <ele>631</ele>
        <time>2024-12-08T04:04:35.619Z</time>
      </trkpt>
      <trkpt lat="45.91416" lon="3.84289">
        <ele>632</ele>
        <time>2024-12-08T04:04:36.619Z</time>
      </trkpt>
      <trkpt lat="45.91417" lon="3.84287">
        <ele>633</ele>
        <time>2024-12-08T04:04:37.620Z</time>
      </trkpt>
      <trkpt lat="45.91417" lon="3.84285">
        <ele>633</ele>
        <time>2024-12-08T04:04:38.619Z</time>
      </trkpt>
      <trkpt lat="45.91417" lon="3.84283">
        <ele>634</ele>
        <time>2024-12-08T04:04:39.620Z</time>
      </trkpt>
      <trkpt lat="45.91417" lon="3.84282">
        <ele>635</ele>
        <time>2024-12-08T04:04:40.619Z</time>
      </trkpt>
      <trkpt lat="45.91418" lon="3.84282">
        <ele>636</ele>
        <time>2024-12-08T04:04:41.620Z</time>
      </trkpt>
      <trkpt lat="45.91419" lon="3.84282">
        <ele>637</ele>
        <time>2024-12-08T04:04:42.620Z</time>
      </trkpt>
      <trkpt lat="45.91419" lon="3.84282">
        <ele>637</ele>
        <time>2024-12-08T04:04:43.619Z</time>
      </trkpt>
      <trkpt lat="45.91419" lon="3.84281">
        <ele>638</ele>
        <time>2024-12-08T04:04:44.619Z</time>
      </trkpt>
      <trkpt lat="45.9142" lon="3.84281">
        <ele>637</ele>
        <time>2024-12-08T04:04:45.619Z</time>
      </trkpt>
      <trkpt lat="45.9142" lon="3.84279">
        <ele>637</ele>
        <time>2024-12-08T04:04:46.620Z</time>
      </trkpt>
      <trkpt lat="45.91421" lon="3.84279">
        <ele>637</ele>
        <time>2024-12-08T04:04:47.619Z</time>
      </trkpt>
      <trkpt lat="45.91422" lon="3.84278">
        <ele>637</ele>
        <time>2024-12-08T04:04:48.619Z</time>
      </trkpt>
      <trkpt lat="45.91424" lon="3.84278">
        <ele>637</ele>
        <time>2024-12-08T04:04:49.619Z</time>
      </trkpt>
      <trkpt lat="45.91426" lon="3.84279">
        <ele>637</ele>
        <time>2024-12-08T04:04:50.620Z</time>
      </trkpt>
      <trkpt lat="45.91427" lon="3.8428">
        <ele>637</ele>
        <time>2024-12-08T04:04:51.620Z</time>
      </trkpt>
      <trkpt lat="45.91428" lon="3.84282">
        <ele>636</ele>
        <time>2024-12-08T04:04:52.619Z</time>
      </trkpt>
      <trkpt lat="45.91429" lon="3.84283">
        <ele>636</ele>
        <time>2024-12-08T04:04:53.620Z</time>
      </trkpt>
      <trkpt lat="45.91431" lon="3.84284">
        <ele>636</ele>
        <time>2024-12-08T04:04:54.620Z</time>
      </trkpt>
      <trkpt lat="45.91432" lon="3.84285">
        <ele>636</ele>
        <time>2024-12-08T04:04:55.619Z</time>
      </trkpt>
      <trkpt lat="45.91433" lon="3.84286">
        <ele>636</ele>
        <time>2024-12-08T04:04:56.619Z</time>
      </trkpt>
      <trkpt lat="45.91436" lon="3.84286">
        <ele>636</ele>
        <time>2024-12-08T04:04:57.619Z</time>
      </trkpt>
      <trkpt lat="45.91438" lon="3.84288">
        <ele>636</ele>
        <time>2024-12-08T04:04:58.619Z</time>
      </trkpt>
      <trkpt lat="45.9144" lon="3.84289">
        <ele>636</ele>
        <time>2024-12-08T04:04:59.619Z</time>
      </trkpt>
      <trkpt lat="45.91442" lon="3.8429">
        <ele>637</ele>
        <time>2024-12-08T04:05:00.619Z</time>
      </trkpt>
      <trkpt lat="45.91443" lon="3.84291">
        <ele>637</ele>
        <time>2024-12-08T04:05:01.620Z</time>
      </trkpt>
      <trkpt lat="45.91444" lon="3.84292">
        <ele>637</ele>
        <time>2024-12-08T04:05:02.620Z</time>
      </trkpt>
      <trkpt lat="45.91445" lon="3.84294">
        <ele>637</ele>
        <time>2024-12-08T04:05:03.620Z</time>
      </trkpt>
      <trkpt lat="45.91445" lon="3.84295">
        <ele>637</ele>
        <time>2024-12-08T04:05:04.620Z</time>
      </trkpt>
      <trkpt lat="45.91447" lon="3.84296">
        <ele>636</ele>
        <time>2024-12-08T04:05:05.619Z</time>
      </trkpt>
      <trkpt lat="45.91448" lon="3.84297">
        <ele>636</ele>
        <time>2024-12-08T04:05:06.619Z</time>
      </trkpt>
      <trkpt lat="45.91449" lon="3.84298">
        <ele>636</ele>
        <time>2024-12-08T04:05:07.620Z</time>
      </trkpt>
      <trkpt lat="45.91451" lon="3.84299">
        <ele>636</ele>
        <time>2024-12-08T04:05:08.619Z</time>
      </trkpt>
      <trkpt lat="45.91452" lon="3.84299">
        <ele>635</ele>
        <time>2024-12-08T04:05:09.619Z</time>
      </trkpt>
      <trkpt lat="45.91453" lon="3.84299">
        <ele>635</ele>
        <time>2024-12-08T04:05:10.620Z</time>
      </trkpt>
      <trkpt lat="45.91453" lon="3.84299">
        <ele>634</ele>
        <time>2024-12-08T04:05:11.620Z</time>
      </trkpt>
      <trkpt lat="45.91454" lon="3.84298">
        <ele>634</ele>
        <time>2024-12-08T04:05:12.619Z</time>
      </trkpt>
      <trkpt lat="45.91454" lon="3.84298">
        <ele>633</ele>
        <time>2024-12-08T04:05:13.619Z</time>
      </trkpt>
      <trkpt lat="45.91454" lon="3.84298">
        <ele>633</ele>
        <time>2024-12-08T04:05:14.620Z</time>
      </trkpt>
      <trkpt lat="45.91455" lon="3.84298">
        <ele>632</ele>
        <time>2024-12-08T04:05:15.620Z</time>
      </trkpt>
      <trkpt lat="45.91455" lon="3.84298">
        <ele>632</ele>
        <time>2024-12-08T04:05:16.619Z</time>
      </trkpt>
      <trkpt lat="45.91456" lon="3.84298">
        <ele>632</ele>
        <time>2024-12-08T04:05:17.619Z</time>
      </trkpt>
      <trkpt lat="45.91456" lon="3.84298">
        <ele>631</ele>
        <time>2024-12-08T04:05:18.619Z</time>
      </trkpt>
      <trkpt lat="45.91456" lon="3.84298">
        <ele>631</ele>
        <time>2024-12-08T04:05:19.620Z</time>
      </trkpt>
      <trkpt lat="45.91457" lon="3.84298">
        <ele>630</ele>
        <time>2024-12-08T04:05:20.619Z</time>
      </trkpt>
      <trkpt lat="45.91458" lon="3.84297">
        <ele>630</ele>
        <time>2024-12-08T04:05:21.619Z</time>
      </trkpt>
      <trkpt lat="45.91459" lon="3.84297">
        <ele>629</ele>
        <time>2024-12-08T04:05:22.620Z</time>
      </trkpt>
      <trkpt lat="45.9146" lon="3.84298">
        <ele>629</ele>
        <time>2024-12-08T04:05:23.619Z</time>
      </trkpt>
      <trkpt lat="45.9146" lon="3.84299">
        <ele>629</ele>
        <time>2024-12-08T04:05:24.619Z</time>
      </trkpt>
      <trkpt lat="45.91461" lon="3.843">
        <ele>629</ele>
        <time>2024-12-08T04:05:25.620Z</time>
      </trkpt>
      <trkpt lat="45.91462" lon="3.84302">
        <ele>629</ele>
        <time>2024-12-08T04:05:26.619Z</time>
      </trkpt>
      <trkpt lat="45.91462" lon="3.84304">
        <ele>629</ele>
        <time>2024-12-08T04:05:27.619Z</time>
      </trkpt>
      <trkpt lat="45.91463" lon="3.84305">
        <ele>629</ele>
        <time>2024-12-08T04:05:28.619Z</time>
      </trkpt>
      <trkpt lat="45.91463" lon="3.84307">
        <ele>630</ele>
        <time>2024-12-08T04:05:29.620Z</time>
      </trkpt>
      <trkpt lat="45.91464" lon="3.84309">
        <ele>630</ele>
        <time>2024-12-08T04:05:30.620Z</time>
      </trkpt>
      <trkpt lat="45.91464" lon="3.8431">
        <ele>630</ele>
        <time>2024-12-08T04:05:31.619Z</time>
      </trkpt>
      <trkpt lat="45.91464" lon="3.84312">
        <ele>631</ele>
        <time>2024-12-08T04:05:32.619Z</time>
      </trkpt>
      <trkpt lat="45.91465" lon="3.84313">
        <ele>631</ele>
        <time>2024-12-08T04:05:33.620Z</time>
      </trkpt>
      <trkpt lat="45.91466" lon="3.84315">
        <ele>631</ele>
        <time>2024-12-08T04:05:34.619Z</time>
      </trkpt>
      <trkpt lat="45.91466" lon="3.84317">
        <ele>631</ele>
        <time>2024-12-08T04:05:35.619Z</time>
      </trkpt>
      <trkpt lat="45.91467" lon="3.84319">
        <ele>631</ele>
        <time>2024-12-08T04:05:36.619Z</time>
      </trkpt>
      <trkpt lat="45.91467" lon="3.84321">
        <ele>631</ele>
        <time>2024-12-08T04:05:37.619Z</time>
      </trkpt>
      <trkpt lat="45.91468" lon="3.84323">
        <ele>631</ele>
        <time>2024-12-08T04:05:38.619Z</time>
      </trkpt>
      <trkpt lat="45.91468" lon="3.84325">
        <ele>631</ele>
        <time>2024-12-08T04:05:39.619Z</time>
      </trkpt>
      <trkpt lat="45.91468" lon="3.84327">
        <ele>631</ele>
        <time>2024-12-08T04:05:40.619Z</time>
      </trkpt>
      <trkpt lat="45.91468" lon="3.84329">
        <ele>631</ele>
        <time>2024-12-08T04:05:41.619Z</time>
      </trkpt>
      <trkpt lat="45.91468" lon="3.84331">
        <ele>631</ele>
        <time>2024-12-08T04:05:42.620Z</time>
      </trkpt>
      <trkpt lat="45.91468" lon="3.84332">
        <ele>631</ele>
        <time>2024-12-08T04:05:43.620Z</time>
      </trkpt>
      <trkpt lat="45.91468" lon="3.84334">
        <ele>631</ele>
        <time>2024-12-08T04:05:44.620Z</time>
      </trkpt>
      <trkpt lat="45.91468" lon="3.84336">
        <ele>631</ele>
        <time>2024-12-08T04:05:45.620Z</time>
      </trkpt>
      <trkpt lat="45.91467" lon="3.84339">
        <ele>631</ele>
        <time>2024-12-08T04:05:46.620Z</time>
      </trkpt>
      <trkpt lat="45.91467" lon="3.84341">
        <ele>632</ele>
        <time>2024-12-08T04:05:47.619Z</time>
      </trkpt>
      <trkpt lat="45.91467" lon="3.84343">
        <ele>632</ele>
        <time>2024-12-08T04:05:48.620Z</time>
      </trkpt>
      <trkpt lat="45.91467" lon="3.84344">
        <ele>631</ele>
        <time>2024-12-08T04:05:49.620Z</time>
      </trkpt>
      <trkpt lat="45.91467" lon="3.84346">
        <ele>631</ele>
        <time>2024-12-08T04:05:50.620Z</time>
      </trkpt>
      <trkpt lat="45.91467" lon="3.84348">
        <ele>632</ele>
        <time>2024-12-08T04:05:51.619Z</time>
      </trkpt>
      <trkpt lat="45.91467" lon="3.8435">
        <ele>632</ele>
        <time>2024-12-08T04:05:52.620Z</time>
      </trkpt>
      <trkpt lat="45.91467" lon="3.84352">
        <ele>632</ele>
        <time>2024-12-08T04:05:53.620Z</time>
      </trkpt>
      <trkpt lat="45.91467" lon="3.84353">
        <ele>632</ele>
        <time>2024-12-08T04:05:54.619Z</time>
      </trkpt>
      <trkpt lat="45.91467" lon="3.84355">
        <ele>632</ele>
        <time>2024-12-08T04:05:55.619Z</time>
      </trkpt>
      <trkpt lat="45.91466" lon="3.84357">
        <ele>631</ele>
        <time>2024-12-08T04:05:56.620Z</time>
      </trkpt>
      <trkpt lat="45.91466" lon="3.84359">
        <ele>632</ele>
        <time>2024-12-08T04:05:57.620Z</time>
      </trkpt>
      <trkpt lat="45.91466" lon="3.84361">
        <ele>632</ele>
        <time>2024-12-08T04:05:58.619Z</time>
      </trkpt>
      <trkpt lat="45.91465" lon="3.84363">
        <ele>632</ele>
        <time>2024-12-08T04:05:59.619Z</time>
      </trkpt>
      <trkpt lat="45.91465" lon="3.84365">
        <ele>632</ele>
        <time>2024-12-08T04:06:00.619Z</time>
      </trkpt>
      <trkpt lat="45.91464" lon="3.84367">
        <ele>633</ele>
        <time>2024-12-08T04:06:01.620Z</time>
      </trkpt>
      <trkpt lat="45.91464" lon="3.84369">
        <ele>633</ele>
        <time>2024-12-08T04:06:02.619Z</time>
      </trkpt>
      <trkpt lat="45.91464" lon="3.8437">
        <ele>633</ele>
        <time>2024-12-08T04:06:03.620Z</time>
      </trkpt>
      <trkpt lat="45.91464" lon="3.84372">
        <ele>634</ele>
        <time>2024-12-08T04:06:04.620Z</time>
      </trkpt>
      <trkpt lat="45.91464" lon="3.84373">
        <ele>634</ele>
        <time>2024-12-08T04:06:05.620Z</time>
      </trkpt>
      <trkpt lat="45.91463" lon="3.84375">
        <ele>634</ele>
        <time>2024-12-08T04:06:06.619Z</time>
      </trkpt>
      <trkpt lat="45.91463" lon="3.84377">
        <ele>634</ele>
        <time>2024-12-08T04:06:07.620Z</time>
      </trkpt>
      <trkpt lat="45.91463" lon="3.84379">
        <ele>634</ele>
        <time>2024-12-08T04:06:08.619Z</time>
      </trkpt>
      <trkpt lat="45.91463" lon="3.84381">
        <ele>635</ele>
        <time>2024-12-08T04:06:09.619Z</time>
      </trkpt>
      <trkpt lat="45.91463" lon="3.84383">
        <ele>635</ele>
        <time>2024-12-08T04:06:10.620Z</time>
      </trkpt>
      <trkpt lat="45.91463" lon="3.84385">
        <ele>635</ele>
        <time>2024-12-08T04:06:11.619Z</time>
      </trkpt>
      <trkpt lat="45.91463" lon="3.84387">
        <ele>635</ele>
        <time>2024-12-08T04:06:12.619Z</time>
      </trkpt>
      <trkpt lat="45.91463" lon="3.84388">
        <ele>636</ele>
        <time>2024-12-08T04:06:13.620Z</time>
      </trkpt>
      <trkpt lat="45.91463" lon="3.8439">
        <ele>636</ele>
        <time>2024-12-08T04:06:14.620Z</time>
      </trkpt>
      <trkpt lat="45.91462" lon="3.84392">
        <ele>636</ele>
        <time>2024-12-08T04:06:15.619Z</time>
      </trkpt>
      <trkpt lat="45.91463" lon="3.84394">
        <ele>636</ele>
        <time>2024-12-08T04:06:16.620Z</time>
      </trkpt>
      <trkpt lat="45.91462" lon="3.84395">
        <ele>636</ele>
        <time>2024-12-08T04:06:17.619Z</time>
      </trkpt>
      <trkpt lat="45.91462" lon="3.84397">
        <ele>636</ele>
        <time>2024-12-08T04:06:18.619Z</time>
      </trkpt>
      <trkpt lat="45.91462" lon="3.84399">
        <ele>637</ele>
        <time>2024-12-08T04:06:19.619Z</time>
      </trkpt>
      <trkpt lat="45.91462" lon="3.84401">
        <ele>637</ele>
        <time>2024-12-08T04:06:20.620Z</time>
      </trkpt>
      <trkpt lat="45.91462" lon="3.84403">
        <ele>637</ele>
        <time>2024-12-08T04:06:21.619Z</time>
      </trkpt>
      <trkpt lat="45.91462" lon="3.84405">
        <ele>637</ele>
        <time>2024-12-08T04:06:22.620Z</time>
      </trkpt>
      <trkpt lat="45.91462" lon="3.84407">
        <ele>638</ele>
        <time>2024-12-08T04:06:23.620Z</time>
      </trkpt>
      <trkpt lat="45.91462" lon="3.84409">
        <ele>638</ele>
        <time>2024-12-08T04:06:24.619Z</time>
      </trkpt>
      <trkpt lat="45.91462" lon="3.84411">
        <ele>639</ele>
        <time>2024-12-08T04:06:25.620Z</time>
      </trkpt>
      <trkpt lat="45.91462" lon="3.84413">
        <ele>640</ele>
        <time>2024-12-08T04:06:26.619Z</time>
      </trkpt>
      <trkpt lat="45.91462" lon="3.84415">
        <ele>641</ele>
        <time>2024-12-08T04:06:27.619Z</time>
      </trkpt>
      <trkpt lat="45.91462" lon="3.84418">
        <ele>641</ele>
        <time>2024-12-08T04:06:28.620Z</time>
      </trkpt>
      <trkpt lat="45.91462" lon="3.8442">
        <ele>642</ele>
        <time>2024-12-08T04:06:29.620Z</time>
      </trkpt>
      <trkpt lat="45.91462" lon="3.84422">
        <ele>642</ele>
        <time>2024-12-08T04:06:30.620Z</time>
      </trkpt>
      <trkpt lat="45.91462" lon="3.84424">
        <ele>642</ele>
        <time>2024-12-08T04:06:31.619Z</time>
      </trkpt>
      <trkpt lat="45.91462" lon="3.84426">
        <ele>643</ele>
        <time>2024-12-08T04:06:32.619Z</time>
      </trkpt>
      <trkpt lat="45.91462" lon="3.84428">
        <ele>643</ele>
        <time>2024-12-08T04:06:33.619Z</time>
      </trkpt>
      <trkpt lat="45.91462" lon="3.8443">
        <ele>644</ele>
        <time>2024-12-08T04:06:34.619Z</time>
      </trkpt>
      <trkpt lat="45.91462" lon="3.84432">
        <ele>644</ele>
        <time>2024-12-08T04:06:35.619Z</time>
      </trkpt>
      <trkpt lat="45.91462" lon="3.84434">
        <ele>645</ele>
        <time>2024-12-08T04:06:36.619Z</time>
      </trkpt>
      <trkpt lat="45.91462" lon="3.84437">
        <ele>645</ele>
        <time>2024-12-08T04:06:37.619Z</time>
      </trkpt>
      <trkpt lat="45.91462" lon="3.84438">
        <ele>646</ele>
        <time>2024-12-08T04:06:38.619Z</time>
      </trkpt>
      <trkpt lat="45.91462" lon="3.84441">
        <ele>646</ele>
        <time>2024-12-08T04:06:39.619Z</time>
      </trkpt>
      <trkpt lat="45.91462" lon="3.84443">
        <ele>646</ele>
        <time>2024-12-08T04:06:40.620Z</time>
      </trkpt>
      <trkpt lat="45.91461" lon="3.84445">
        <ele>646</ele>
        <time>2024-12-08T04:06:41.620Z</time>
      </trkpt>
      <trkpt lat="45.91461" lon="3.84447">
        <ele>647</ele>
        <time>2024-12-08T04:06:42.620Z</time>
      </trkpt>
      <trkpt lat="45.91461" lon="3.84449">
        <ele>647</ele>
        <time>2024-12-08T04:06:43.620Z</time>
      </trkpt>
      <trkpt lat="45.91461" lon="3.84451">
        <ele>646</ele>
        <time>2024-12-08T04:06:44.620Z</time>
      </trkpt>
      <trkpt lat="45.9146" lon="3.84453">
        <ele>646</ele>
        <time>2024-12-08T04:06:45.620Z</time>
      </trkpt>
      <trkpt lat="45.9146" lon="3.84455">
        <ele>646</ele>
        <time>2024-12-08T04:06:46.620Z</time>
      </trkpt>
      <trkpt lat="45.91459" lon="3.84458">
        <ele>645</ele>
        <time>2024-12-08T04:06:47.619Z</time>
      </trkpt>
      <trkpt lat="45.91459" lon="3.8446">
        <ele>646</ele>
        <time>2024-12-08T04:06:48.620Z</time>
      </trkpt>
      <trkpt lat="45.91458" lon="3.84462">
        <ele>646</ele>
        <time>2024-12-08T04:06:49.619Z</time>
      </trkpt>
      <trkpt lat="45.91458" lon="3.84464">
        <ele>646</ele>
        <time>2024-12-08T04:06:50.620Z</time>
      </trkpt>
      <trkpt lat="45.91458" lon="3.84466">
        <ele>646</ele>
        <time>2024-12-08T04:06:51.620Z</time>
      </trkpt>
      <trkpt lat="45.91458" lon="3.84468">
        <ele>646</ele>
        <time>2024-12-08T04:06:52.619Z</time>
      </trkpt>
      <trkpt lat="45.91458" lon="3.8447">
        <ele>646</ele>
        <time>2024-12-08T04:06:53.620Z</time>
      </trkpt>
      <trkpt lat="45.91458" lon="3.84472">
        <ele>647</ele>
        <time>2024-12-08T04:06:54.619Z</time>
      </trkpt>
      <trkpt lat="45.91458" lon="3.84474">
        <ele>647</ele>
        <time>2024-12-08T04:06:55.620Z</time>
      </trkpt>
      <trkpt lat="45.91457" lon="3.84476">
        <ele>648</ele>
        <time>2024-12-08T04:06:56.619Z</time>
      </trkpt>
      <trkpt lat="45.91457" lon="3.84478">
        <ele>648</ele>
        <time>2024-12-08T04:06:57.619Z</time>
      </trkpt>
      <trkpt lat="45.91457" lon="3.8448">
        <ele>648</ele>
        <time>2024-12-08T04:06:58.620Z</time>
      </trkpt>
      <trkpt lat="45.91457" lon="3.84482">
        <ele>649</ele>
        <time>2024-12-08T04:06:59.620Z</time>
      </trkpt>
      <trkpt lat="45.91457" lon="3.84484">
        <ele>649</ele>
        <time>2024-12-08T04:07:00.619Z</time>
      </trkpt>
      <trkpt lat="45.91457" lon="3.84486">
        <ele>649</ele>
        <time>2024-12-08T04:07:01.619Z</time>
      </trkpt>
      <trkpt lat="45.91457" lon="3.84488">
        <ele>650</ele>
        <time>2024-12-08T04:07:02.620Z</time>
      </trkpt>
      <trkpt lat="45.91457" lon="3.8449">
        <ele>650</ele>
        <time>2024-12-08T04:07:03.620Z</time>
      </trkpt>
      <trkpt lat="45.91457" lon="3.84492">
        <ele>651</ele>
        <time>2024-12-08T04:07:04.620Z</time>
      </trkpt>
      <trkpt lat="45.91457" lon="3.84494">
        <ele>651</ele>
        <time>2024-12-08T04:07:05.619Z</time>
      </trkpt>
      <trkpt lat="45.91457" lon="3.84496">
        <ele>652</ele>
        <time>2024-12-08T04:07:06.619Z</time>
      </trkpt>
      <trkpt lat="45.91457" lon="3.84498">
        <ele>652</ele>
        <time>2024-12-08T04:07:07.620Z</time>
      </trkpt>
      <trkpt lat="45.91457" lon="3.845">
        <ele>652</ele>
        <time>2024-12-08T04:07:08.619Z</time>
      </trkpt>
      <trkpt lat="45.91457" lon="3.84502">
        <ele>653</ele>
        <time>2024-12-08T04:07:09.620Z</time>
      </trkpt>
      <trkpt lat="45.91457" lon="3.84504">
        <ele>653</ele>
        <time>2024-12-08T04:07:10.620Z</time>
      </trkpt>
      <trkpt lat="45.91456" lon="3.84506">
        <ele>653</ele>
        <time>2024-12-08T04:07:11.620Z</time>
      </trkpt>
      <trkpt lat="45.91456" lon="3.84507">
        <ele>654</ele>
        <time>2024-12-08T04:07:12.619Z</time>
      </trkpt>
      <trkpt lat="45.91456" lon="3.8451">
        <ele>654</ele>
        <time>2024-12-08T04:07:13.619Z</time>
      </trkpt>
      <trkpt lat="45.91455" lon="3.84512">
        <ele>654</ele>
        <time>2024-12-08T04:07:14.619Z</time>
      </trkpt>
      <trkpt lat="45.91455" lon="3.84514">
        <ele>654</ele>
        <time>2024-12-08T04:07:15.620Z</time>
      </trkpt>
      <trkpt lat="45.91455" lon="3.84516">
        <ele>654</ele>
        <time>2024-12-08T04:07:16.620Z</time>
      </trkpt>
      <trkpt lat="45.91456" lon="3.84518">
        <ele>655</ele>
        <time>2024-12-08T04:07:17.619Z</time>
      </trkpt>
      <trkpt lat="45.91456" lon="3.8452">
        <ele>654</ele>
        <time>2024-12-08T04:07:18.619Z</time>
      </trkpt>
      <trkpt lat="45.91456" lon="3.84521">
        <ele>654</ele>
        <time>2024-12-08T04:07:19.620Z</time>
      </trkpt>
      <trkpt lat="45.91456" lon="3.84523">
        <ele>654</ele>
        <time>2024-12-08T04:07:20.620Z</time>
      </trkpt>
      <trkpt lat="45.91456" lon="3.84524">
        <ele>654</ele>
        <time>2024-12-08T04:07:21.620Z</time>
      </trkpt>
      <trkpt lat="45.91456" lon="3.84526">
        <ele>654</ele>
        <time>2024-12-08T04:07:22.619Z</time>
      </trkpt>
      <trkpt lat="45.91456" lon="3.84528">
        <ele>654</ele>
        <time>2024-12-08T04:07:23.620Z</time>
      </trkpt>
      <trkpt lat="45.91456" lon="3.8453">
        <ele>653</ele>
        <time>2024-12-08T04:07:24.619Z</time>
      </trkpt>
      <trkpt lat="45.91456" lon="3.84532">
        <ele>653</ele>
        <time>2024-12-08T04:07:25.620Z</time>
      </trkpt>
      <trkpt lat="45.91456" lon="3.84534">
        <ele>653</ele>
        <time>2024-12-08T04:07:26.619Z</time>
      </trkpt>
      <trkpt lat="45.91456" lon="3.84537">
        <ele>653</ele>
        <time>2024-12-08T04:07:27.619Z</time>
      </trkpt>
      <trkpt lat="45.91456" lon="3.84539">
        <ele>653</ele>
        <time>2024-12-08T04:07:28.619Z</time>
      </trkpt>
      <trkpt lat="45.91456" lon="3.84541">
        <ele>653</ele>
        <time>2024-12-08T04:07:29.619Z</time>
      </trkpt>
      <trkpt lat="45.91456" lon="3.84543">
        <ele>653</ele>
        <time>2024-12-08T04:07:30.620Z</time>
      </trkpt>
      <trkpt lat="45.91456" lon="3.84545">
        <ele>653</ele>
        <time>2024-12-08T04:07:31.620Z</time>
      </trkpt>
      <trkpt lat="45.91455" lon="3.84547">
        <ele>654</ele>
        <time>2024-12-08T04:07:32.619Z</time>
      </trkpt>
      <trkpt lat="45.91455" lon="3.84549">
        <ele>654</ele>
        <time>2024-12-08T04:07:33.619Z</time>
      </trkpt>
      <trkpt lat="45.91455" lon="3.84551">
        <ele>655</ele>
        <time>2024-12-08T04:07:34.620Z</time>
      </trkpt>
      <trkpt lat="45.91454" lon="3.84553">
        <ele>655</ele>
        <time>2024-12-08T04:07:35.619Z</time>
      </trkpt>
      <trkpt lat="45.91455" lon="3.84555">
        <ele>655</ele>
        <time>2024-12-08T04:07:36.620Z</time>
      </trkpt>
      <trkpt lat="45.91456" lon="3.84557">
        <ele>656</ele>
        <time>2024-12-08T04:07:37.619Z</time>
      </trkpt>
      <trkpt lat="45.91457" lon="3.84559">
        <ele>656</ele>
        <time>2024-12-08T04:07:38.620Z</time>
      </trkpt>
      <trkpt lat="45.91459" lon="3.84561">
        <ele>656</ele>
        <time>2024-12-08T04:07:39.619Z</time>
      </trkpt>
      <trkpt lat="45.91461" lon="3.84562">
        <ele>656</ele>
        <time>2024-12-08T04:07:40.619Z</time>
      </trkpt>
      <trkpt lat="45.91462" lon="3.84564">
        <ele>656</ele>
        <time>2024-12-08T04:07:41.619Z</time>
      </trkpt>
      <trkpt lat="45.91462" lon="3.84567">
        <ele>656</ele>
        <time>2024-12-08T04:07:42.620Z</time>
      </trkpt>
      <trkpt lat="45.91463" lon="3.84569">
        <ele>656</ele>
        <time>2024-12-08T04:07:43.619Z</time>
      </trkpt>
      <trkpt lat="45.91463" lon="3.84571">
        <ele>656</ele>
        <time>2024-12-08T04:07:44.620Z</time>
      </trkpt>
      <trkpt lat="45.91464" lon="3.84573">
        <ele>657</ele>
        <time>2024-12-08T04:07:45.620Z</time>
      </trkpt>
      <trkpt lat="45.91465" lon="3.84575">
        <ele>657</ele>
        <time>2024-12-08T04:07:46.619Z</time>
      </trkpt>
      <trkpt lat="45.91468" lon="3.84577">
        <ele>657</ele>
        <time>2024-12-08T04:07:47.620Z</time>
      </trkpt>
      <trkpt lat="45.91468" lon="3.84579">
        <ele>657</ele>
        <time>2024-12-08T04:07:48.619Z</time>
      </trkpt>
      <trkpt lat="45.91469" lon="3.84582">
        <ele>657</ele>
        <time>2024-12-08T04:07:49.619Z</time>
      </trkpt>
      <trkpt lat="45.9147" lon="3.84584">
        <ele>657</ele>
        <time>2024-12-08T04:07:50.619Z</time>
      </trkpt>
      <trkpt lat="45.91469" lon="3.84586">
        <ele>658</ele>
        <time>2024-12-08T04:07:51.620Z</time>
      </trkpt>
      <trkpt lat="45.91468" lon="3.84588">
        <ele>658</ele>
        <time>2024-12-08T04:07:52.620Z</time>
      </trkpt>
      <trkpt lat="45.91468" lon="3.84591">
        <ele>658</ele>
        <time>2024-12-08T04:07:53.620Z</time>
      </trkpt>
      <trkpt lat="45.91468" lon="3.84593">
        <ele>658</ele>
        <time>2024-12-08T04:07:54.620Z</time>
      </trkpt>
      <trkpt lat="45.91467" lon="3.84595">
        <ele>659</ele>
        <time>2024-12-08T04:07:55.619Z</time>
      </trkpt>
      <trkpt lat="45.91468" lon="3.84596">
        <ele>659</ele>
        <time>2024-12-08T04:07:56.619Z</time>
      </trkpt>
      <trkpt lat="45.91468" lon="3.84597">
        <ele>659</ele>
        <time>2024-12-08T04:07:57.619Z</time>
      </trkpt>
      <trkpt lat="45.91468" lon="3.84597">
        <ele>660</ele>
        <time>2024-12-08T04:07:58.620Z</time>
      </trkpt>
      <trkpt lat="45.91468" lon="3.84596">
        <ele>660</ele>
        <time>2024-12-08T04:07:59.619Z</time>
      </trkpt>
      <trkpt lat="45.91468" lon="3.84595">
        <ele>661</ele>
        <time>2024-12-08T04:08:00.620Z</time>
      </trkpt>
      <trkpt lat="45.91469" lon="3.84594">
        <ele>661</ele>
        <time>2024-12-08T04:08:01.619Z</time>
      </trkpt>
      <trkpt lat="45.91469" lon="3.84593">
        <ele>661</ele>
        <time>2024-12-08T04:08:02.620Z</time>
      </trkpt>
      <trkpt lat="45.91469" lon="3.84591">
        <ele>662</ele>
        <time>2024-12-08T04:08:03.620Z</time>
      </trkpt>
      <trkpt lat="45.91469" lon="3.8459">
        <ele>662</ele>
        <time>2024-12-08T04:08:04.619Z</time>
      </trkpt>
      <trkpt lat="45.91469" lon="3.84589">
        <ele>662</ele>
        <time>2024-12-08T04:08:05.620Z</time>
      </trkpt>
      <trkpt lat="45.91469" lon="3.84588">
        <ele>663</ele>
        <time>2024-12-08T04:08:06.620Z</time>
      </trkpt>
      <trkpt lat="45.9147" lon="3.84586">
        <ele>663</ele>
        <time>2024-12-08T04:08:07.619Z</time>
      </trkpt>
      <trkpt lat="45.91471" lon="3.84586">
        <ele>663</ele>
        <time>2024-12-08T04:08:08.619Z</time>
      </trkpt>
      <trkpt lat="45.91473" lon="3.84586">
        <ele>664</ele>
        <time>2024-12-08T04:08:09.620Z</time>
      </trkpt>
      <trkpt lat="45.91474" lon="3.84585">
        <ele>664</ele>
        <time>2024-12-08T04:08:10.620Z</time>
      </trkpt>
      <trkpt lat="45.91475" lon="3.84585">
        <ele>664</ele>
        <time>2024-12-08T04:08:11.620Z</time>
      </trkpt>
      <trkpt lat="45.91476" lon="3.84584">
        <ele>664</ele>
        <time>2024-12-08T04:08:12.619Z</time>
      </trkpt>
      <trkpt lat="45.91477" lon="3.84582">
        <ele>664</ele>
        <time>2024-12-08T04:08:13.619Z</time>
      </trkpt>
      <trkpt lat="45.91479" lon="3.84581">
        <ele>664</ele>
        <time>2024-12-08T04:08:14.620Z</time>
      </trkpt>
      <trkpt lat="45.91479" lon="3.84579">
        <ele>664</ele>
        <time>2024-12-08T04:08:15.620Z</time>
      </trkpt>
      <trkpt lat="45.9148" lon="3.84577">
        <ele>664</ele>
        <time>2024-12-08T04:08:16.619Z</time>
      </trkpt>
      <trkpt lat="45.91481" lon="3.84576">
        <ele>664</ele>
        <time>2024-12-08T04:08:17.619Z</time>
      </trkpt>
      <trkpt lat="45.91482" lon="3.84574">
        <ele>664</ele>
        <time>2024-12-08T04:08:18.620Z</time>
      </trkpt>
      <trkpt lat="45.91483" lon="3.84572">
        <ele>664</ele>
        <time>2024-12-08T04:08:19.619Z</time>
      </trkpt>
      <trkpt lat="45.91484" lon="3.8457">
        <ele>665</ele>
        <time>2024-12-08T04:08:20.619Z</time>
      </trkpt>
      <trkpt lat="45.91484" lon="3.84568">
        <ele>665</ele>
        <time>2024-12-08T04:08:21.619Z</time>
      </trkpt>
      <trkpt lat="45.91485" lon="3.84567">
        <ele>665</ele>
        <time>2024-12-08T04:08:22.619Z</time>
      </trkpt>
      <trkpt lat="45.91486" lon="3.84566">
        <ele>665</ele>
        <time>2024-12-08T04:08:23.620Z</time>
      </trkpt>
      <trkpt lat="45.91488" lon="3.84565">
        <ele>665</ele>
        <time>2024-12-08T04:08:24.619Z</time>
      </trkpt>
      <trkpt lat="45.9149" lon="3.84565">
        <ele>666</ele>
        <time>2024-12-08T04:08:25.619Z</time>
      </trkpt>
      <trkpt lat="45.91491" lon="3.84565">
        <ele>666</ele>
        <time>2024-12-08T04:08:26.620Z</time>
      </trkpt>
      <trkpt lat="45.91493" lon="3.84565">
        <ele>666</ele>
        <time>2024-12-08T04:08:27.619Z</time>
      </trkpt>
      <trkpt lat="45.91495" lon="3.84565">
        <ele>666</ele>
        <time>2024-12-08T04:08:28.620Z</time>
      </trkpt>
      <trkpt lat="45.91497" lon="3.84564">
        <ele>666</ele>
        <time>2024-12-08T04:08:29.620Z</time>
      </trkpt>
      <trkpt lat="45.91498" lon="3.84563">
        <ele>666</ele>
        <time>2024-12-08T04:08:30.620Z</time>
      </trkpt>
      <trkpt lat="45.91499" lon="3.84562">
        <ele>666</ele>
        <time>2024-12-08T04:08:31.619Z</time>
      </trkpt>
      <trkpt lat="45.915" lon="3.8456">
        <ele>666</ele>
        <time>2024-12-08T04:08:32.620Z</time>
      </trkpt>
      <trkpt lat="45.91501" lon="3.84559">
        <ele>666</ele>
        <time>2024-12-08T04:08:33.619Z</time>
      </trkpt>
      <trkpt lat="45.91502" lon="3.84558">
        <ele>666</ele>
        <time>2024-12-08T04:08:34.619Z</time>
      </trkpt>
      <trkpt lat="45.91504" lon="3.84557">
        <ele>666</ele>
        <time>2024-12-08T04:08:35.620Z</time>
      </trkpt>
      <trkpt lat="45.91505" lon="3.84557">
        <ele>666</ele>
        <time>2024-12-08T04:08:36.619Z</time>
      </trkpt>
      <trkpt lat="45.91506" lon="3.84556">
        <ele>665</ele>
        <time>2024-12-08T04:08:37.620Z</time>
      </trkpt>
      <trkpt lat="45.91507" lon="3.84555">
        <ele>665</ele>
        <time>2024-12-08T04:08:38.619Z</time>
      </trkpt>
      <trkpt lat="45.91507" lon="3.84554">
        <ele>665</ele>
        <time>2024-12-08T04:08:39.620Z</time>
      </trkpt>
      <trkpt lat="45.91508" lon="3.84554">
        <ele>666</ele>
        <time>2024-12-08T04:08:40.620Z</time>
      </trkpt>
      <trkpt lat="45.91509" lon="3.84553">
        <ele>666</ele>
        <time>2024-12-08T04:08:41.619Z</time>
      </trkpt>
      <trkpt lat="45.9151" lon="3.84553">
        <ele>666</ele>
        <time>2024-12-08T04:08:42.620Z</time>
      </trkpt>
      <trkpt lat="45.91511" lon="3.84552">
        <ele>666</ele>
        <time>2024-12-08T04:08:43.619Z</time>
      </trkpt>
      <trkpt lat="45.91512" lon="3.84551">
        <ele>666</ele>
        <time>2024-12-08T04:08:44.620Z</time>
      </trkpt>
      <trkpt lat="45.91513" lon="3.84551">
        <ele>666</ele>
        <time>2024-12-08T04:08:45.620Z</time>
      </trkpt>
      <trkpt lat="45.91514" lon="3.84551">
        <ele>666</ele>
        <time>2024-12-08T04:08:46.619Z</time>
      </trkpt>
      <trkpt lat="45.91516" lon="3.8455">
        <ele>667</ele>
        <time>2024-12-08T04:08:47.620Z</time>
      </trkpt>
      <trkpt lat="45.91517" lon="3.8455">
        <ele>667</ele>
        <time>2024-12-08T04:08:48.620Z</time>
      </trkpt>
      <trkpt lat="45.91518" lon="3.84549">
        <ele>667</ele>
        <time>2024-12-08T04:08:49.619Z</time>
      </trkpt>
      <trkpt lat="45.91518" lon="3.84547">
        <ele>668</ele>
        <time>2024-12-08T04:08:50.620Z</time>
      </trkpt>
      <trkpt lat="45.91519" lon="3.84547">
        <ele>668</ele>
        <time>2024-12-08T04:08:51.619Z</time>
      </trkpt>
      <trkpt lat="45.9152" lon="3.84547">
        <ele>668</ele>
        <time>2024-12-08T04:08:52.619Z</time>
      </trkpt>
      <trkpt lat="45.91521" lon="3.84546">
        <ele>669</ele>
        <time>2024-12-08T04:08:53.619Z</time>
      </trkpt>
      <trkpt lat="45.91521" lon="3.84545">
        <ele>669</ele>
        <time>2024-12-08T04:08:54.620Z</time>
      </trkpt>
      <trkpt lat="45.91522" lon="3.84544">
        <ele>669</ele>
        <time>2024-12-08T04:08:55.620Z</time>
      </trkpt>
      <trkpt lat="45.91524" lon="3.84544">
        <ele>669</ele>
        <time>2024-12-08T04:08:56.620Z</time>
      </trkpt>
      <trkpt lat="45.91525" lon="3.84544">
        <ele>670</ele>
        <time>2024-12-08T04:08:57.619Z</time>
      </trkpt>
      <trkpt lat="45.91526" lon="3.84543">
        <ele>670</ele>
        <time>2024-12-08T04:08:58.620Z</time>
      </trkpt>
      <trkpt lat="45.91527" lon="3.84543">
        <ele>670</ele>
        <time>2024-12-08T04:08:59.620Z</time>
      </trkpt>
      <trkpt lat="45.91529" lon="3.84543">
        <ele>671</ele>
        <time>2024-12-08T04:09:00.620Z</time>
      </trkpt>
      <trkpt lat="45.9153" lon="3.84542">
        <ele>671</ele>
        <time>2024-12-08T04:09:01.620Z</time>
      </trkpt>
      <trkpt lat="45.91531" lon="3.84542">
        <ele>671</ele>
        <time>2024-12-08T04:09:02.620Z</time>
      </trkpt>
      <trkpt lat="45.91533" lon="3.84541">
        <ele>672</ele>
        <time>2024-12-08T04:09:03.620Z</time>
      </trkpt>
      <trkpt lat="45.91534" lon="3.84541">
        <ele>672</ele>
        <time>2024-12-08T04:09:04.620Z</time>
      </trkpt>
      <trkpt lat="45.91535" lon="3.84541">
        <ele>673</ele>
        <time>2024-12-08T04:09:05.619Z</time>
      </trkpt>
      <trkpt lat="45.91537" lon="3.84541">
        <ele>673</ele>
        <time>2024-12-08T04:09:06.620Z</time>
      </trkpt>
      <trkpt lat="45.91539" lon="3.84541">
        <ele>673</ele>
        <time>2024-12-08T04:09:07.620Z</time>
      </trkpt>
      <trkpt lat="45.91541" lon="3.84541">
        <ele>674</ele>
        <time>2024-12-08T04:09:08.620Z</time>
      </trkpt>
      <trkpt lat="45.91542" lon="3.84541">
        <ele>674</ele>
        <time>2024-12-08T04:09:09.619Z</time>
      </trkpt>
      <trkpt lat="45.91544" lon="3.8454">
        <ele>675</ele>
        <time>2024-12-08T04:09:10.620Z</time>
      </trkpt>
      <trkpt lat="45.91545" lon="3.8454">
        <ele>675</ele>
        <time>2024-12-08T04:09:11.619Z</time>
      </trkpt>
      <trkpt lat="45.91546" lon="3.84539">
        <ele>676</ele>
        <time>2024-12-08T04:09:12.620Z</time>
      </trkpt>
      <trkpt lat="45.91548" lon="3.84539">
        <ele>676</ele>
        <time>2024-12-08T04:09:13.620Z</time>
      </trkpt>
      <trkpt lat="45.9155" lon="3.84538">
        <ele>676</ele>
        <time>2024-12-08T04:09:14.619Z</time>
      </trkpt>
      <trkpt lat="45.91551" lon="3.84537">
        <ele>677</ele>
        <time>2024-12-08T04:09:15.620Z</time>
      </trkpt>
      <trkpt lat="45.91553" lon="3.84536">
        <ele>677</ele>
        <time>2024-12-08T04:09:16.620Z</time>
      </trkpt>
      <trkpt lat="45.91554" lon="3.84535">
        <ele>678</ele>
        <time>2024-12-08T04:09:17.619Z</time>
      </trkpt>
      <trkpt lat="45.91556" lon="3.84534">
        <ele>678</ele>
        <time>2024-12-08T04:09:18.620Z</time>
      </trkpt>
      <trkpt lat="45.91558" lon="3.84532">
        <ele>679</ele>
        <time>2024-12-08T04:09:19.620Z</time>
      </trkpt>
      <trkpt lat="45.9156" lon="3.8453">
        <ele>679</ele>
        <time>2024-12-08T04:09:20.620Z</time>
      </trkpt>
      <trkpt lat="45.91561" lon="3.84528">
        <ele>680</ele>
        <time>2024-12-08T04:09:21.619Z</time>
      </trkpt>
      <trkpt lat="45.91563" lon="3.84528">
        <ele>680</ele>
        <time>2024-12-08T04:09:22.620Z</time>
      </trkpt>
      <trkpt lat="45.91564" lon="3.84527">
        <ele>681</ele>
        <time>2024-12-08T04:09:23.620Z</time>
      </trkpt>
      <trkpt lat="45.91566" lon="3.84526">
        <ele>682</ele>
        <time>2024-12-08T04:09:24.619Z</time>
      </trkpt>
      <trkpt lat="45.91567" lon="3.84526">
        <ele>682</ele>
        <time>2024-12-08T04:09:25.620Z</time>
      </trkpt>
      <trkpt lat="45.91568" lon="3.84525">
        <ele>683</ele>
        <time>2024-12-08T04:09:26.620Z</time>
      </trkpt>
      <trkpt lat="45.91569" lon="3.84524">
        <ele>684</ele>
        <time>2024-12-08T04:09:27.619Z</time>
      </trkpt>
      <trkpt lat="45.91571" lon="3.84524">
        <ele>684</ele>
        <time>2024-12-08T04:09:28.620Z</time>
      </trkpt>
      <trkpt lat="45.91572" lon="3.84523">
        <ele>685</ele>
        <time>2024-12-08T04:09:29.619Z</time>
      </trkpt>
      <trkpt lat="45.91573" lon="3.84523">
        <ele>685</ele>
        <time>2024-12-08T04:09:30.619Z</time>
      </trkpt>
      <trkpt lat="45.91575" lon="3.84522">
        <ele>686</ele>
        <time>2024-12-08T04:09:31.619Z</time>
      </trkpt>
      <trkpt lat="45.91576" lon="3.84522">
        <ele>687</ele>
        <time>2024-12-08T04:09:32.620Z</time>
      </trkpt>
      <trkpt lat="45.91577" lon="3.84522">
        <ele>687</ele>
        <time>2024-12-08T04:09:33.620Z</time>
      </trkpt>
      <trkpt lat="45.91578" lon="3.84521">
        <ele>688</ele>
        <time>2024-12-08T04:09:34.620Z</time>
      </trkpt>
      <trkpt lat="45.9158" lon="3.8452">
        <ele>688</ele>
        <time>2024-12-08T04:09:35.619Z</time>
      </trkpt>
      <trkpt lat="45.9158" lon="3.84519">
        <ele>689</ele>
        <time>2024-12-08T04:09:36.619Z</time>
      </trkpt>
      <trkpt lat="45.91581" lon="3.84518">
        <ele>690</ele>
        <time>2024-12-08T04:09:37.619Z</time>
      </trkpt>
      <trkpt lat="45.91583" lon="3.84517">
        <ele>691</ele>
        <time>2024-12-08T04:09:38.619Z</time>
      </trkpt>
      <trkpt lat="45.91584" lon="3.84517">
        <ele>691</ele>
        <time>2024-12-08T04:09:39.620Z</time>
      </trkpt>
      <trkpt lat="45.91586" lon="3.84517">
        <ele>691</ele>
        <time>2024-12-08T04:09:40.620Z</time>
      </trkpt>
      <trkpt lat="45.91587" lon="3.84517">
        <ele>690</ele>
        <time>2024-12-08T04:09:41.620Z</time>
      </trkpt>
      <trkpt lat="45.91588" lon="3.84518">
        <ele>690</ele>
        <time>2024-12-08T04:09:42.620Z</time>
      </trkpt>
      <trkpt lat="45.9159" lon="3.8452">
        <ele>690</ele>
        <time>2024-12-08T04:09:43.619Z</time>
      </trkpt>
      <trkpt lat="45.91592" lon="3.84521">
        <ele>689</ele>
        <time>2024-12-08T04:09:44.619Z</time>
      </trkpt>
      <trkpt lat="45.91593" lon="3.84522">
        <ele>689</ele>
        <time>2024-12-08T04:09:45.619Z</time>
      </trkpt>
      <trkpt lat="45.91594" lon="3.84524">
        <ele>688</ele>
        <time>2024-12-08T04:09:46.619Z</time>
      </trkpt>
      <trkpt lat="45.91596" lon="3.84526">
        <ele>688</ele>
        <time>2024-12-08T04:09:47.620Z</time>
      </trkpt>
      <trkpt lat="45.91596" lon="3.84528">
        <ele>688</ele>
        <time>2024-12-08T04:09:48.619Z</time>
      </trkpt>
      <trkpt lat="45.91597" lon="3.84529">
        <ele>687</ele>
        <time>2024-12-08T04:09:49.619Z</time>
      </trkpt>
      <trkpt lat="45.91598" lon="3.84531">
        <ele>687</ele>
        <time>2024-12-08T04:09:50.619Z</time>
      </trkpt>
      <trkpt lat="45.91599" lon="3.84533">
        <ele>687</ele>
        <time>2024-12-08T04:09:51.620Z</time>
      </trkpt>
      <trkpt lat="45.91599" lon="3.84535">
        <ele>687</ele>
        <time>2024-12-08T04:09:52.619Z</time>
      </trkpt>
      <trkpt lat="45.91599" lon="3.84537">
        <ele>686</ele>
        <time>2024-12-08T04:09:53.619Z</time>
      </trkpt>
      <trkpt lat="45.91598" lon="3.84539">
        <ele>686</ele>
        <time>2024-12-08T04:09:54.620Z</time>
      </trkpt>
      <trkpt lat="45.91598" lon="3.84541">
        <ele>686</ele>
        <time>2024-12-08T04:09:55.619Z</time>
      </trkpt>
      <trkpt lat="45.91597" lon="3.84542">
        <ele>686</ele>
        <time>2024-12-08T04:09:56.620Z</time>
      </trkpt>
      <trkpt lat="45.91597" lon="3.84544">
        <ele>685</ele>
        <time>2024-12-08T04:09:57.620Z</time>
      </trkpt>
      <trkpt lat="45.91596" lon="3.84546">
        <ele>685</ele>
        <time>2024-12-08T04:09:58.620Z</time>
      </trkpt>
      <trkpt lat="45.91596" lon="3.84547">
        <ele>685</ele>
        <time>2024-12-08T04:09:59.620Z</time>
      </trkpt>
      <trkpt lat="45.91596" lon="3.84549">
        <ele>685</ele>
        <time>2024-12-08T04:10:00.619Z</time>
      </trkpt>
      <trkpt lat="45.91596" lon="3.8455">
        <ele>685</ele>
        <time>2024-12-08T04:10:01.620Z</time>
      </trkpt>
      <trkpt lat="45.91596" lon="3.84552">
        <ele>684</ele>
        <time>2024-12-08T04:10:02.619Z</time>
      </trkpt>
      <trkpt lat="45.91596" lon="3.84553">
        <ele>684</ele>
        <time>2024-12-08T04:10:03.620Z</time>
      </trkpt>
      <trkpt lat="45.91597" lon="3.84555">
        <ele>683</ele>
        <time>2024-12-08T04:10:04.619Z</time>
      </trkpt>
      <trkpt lat="45.91597" lon="3.84557">
        <ele>683</ele>
        <time>2024-12-08T04:10:05.619Z</time>
      </trkpt>
      <trkpt lat="45.91597" lon="3.84558">
        <ele>683</ele>
        <time>2024-12-08T04:10:06.620Z</time>
      </trkpt>
      <trkpt lat="45.91596" lon="3.8456">
        <ele>683</ele>
        <time>2024-12-08T04:10:07.619Z</time>
      </trkpt>
      <trkpt lat="45.91596" lon="3.84562">
        <ele>683</ele>
        <time>2024-12-08T04:10:08.620Z</time>
      </trkpt>
      <trkpt lat="45.91597" lon="3.84564">
        <ele>682</ele>
        <time>2024-12-08T04:10:09.619Z</time>
      </trkpt>
      <trkpt lat="45.91597" lon="3.84565">
        <ele>682</ele>
        <time>2024-12-08T04:10:10.620Z</time>
      </trkpt>
      <trkpt lat="45.91597" lon="3.84567">
        <ele>682</ele>
        <time>2024-12-08T04:10:11.620Z</time>
      </trkpt>
      <trkpt lat="45.91596" lon="3.84569">
        <ele>682</ele>
        <time>2024-12-08T04:10:12.620Z</time>
      </trkpt>
      <trkpt lat="45.91596" lon="3.84571">
        <ele>681</ele>
        <time>2024-12-08T04:10:13.619Z</time>
      </trkpt>
      <trkpt lat="45.91596" lon="3.84572">
        <ele>681</ele>
        <time>2024-12-08T04:10:14.619Z</time>
      </trkpt>
      <trkpt lat="45.91596" lon="3.84574">
        <ele>681</ele>
        <time>2024-12-08T04:10:15.619Z</time>
      </trkpt>
      <trkpt lat="45.91596" lon="3.84575">
        <ele>681</ele>
        <time>2024-12-08T04:10:16.620Z</time>
      </trkpt>
      <trkpt lat="45.91596" lon="3.84577">
        <ele>682</ele>
        <time>2024-12-08T04:10:17.620Z</time>
      </trkpt>
      <trkpt lat="45.91595" lon="3.84579">
        <ele>682</ele>
        <time>2024-12-08T04:10:18.620Z</time>
      </trkpt>
      <trkpt lat="45.91595" lon="3.84581">
        <ele>682</ele>
        <time>2024-12-08T04:10:19.620Z</time>
      </trkpt>
      <trkpt lat="45.91596" lon="3.84583">
        <ele>682</ele>
        <time>2024-12-08T04:10:20.619Z</time>
      </trkpt>
      <trkpt lat="45.91596" lon="3.84585">
        <ele>682</ele>
        <time>2024-12-08T04:10:21.619Z</time>
      </trkpt>
      <trkpt lat="45.91596" lon="3.84586">
        <ele>682</ele>
        <time>2024-12-08T04:10:22.619Z</time>
      </trkpt>
      <trkpt lat="45.91596" lon="3.84588">
        <ele>682</ele>
        <time>2024-12-08T04:10:23.619Z</time>
      </trkpt>
      <trkpt lat="45.91596" lon="3.8459">
        <ele>683</ele>
        <time>2024-12-08T04:10:24.620Z</time>
      </trkpt>
      <trkpt lat="45.91596" lon="3.84592">
        <ele>683</ele>
        <time>2024-12-08T04:10:25.619Z</time>
      </trkpt>
      <trkpt lat="45.91596" lon="3.84593">
        <ele>683</ele>
        <time>2024-12-08T04:10:26.619Z</time>
      </trkpt>
      <trkpt lat="45.91596" lon="3.84595">
        <ele>684</ele>
        <time>2024-12-08T04:10:27.619Z</time>
      </trkpt>
      <trkpt lat="45.91596" lon="3.84596">
        <ele>685</ele>
        <time>2024-12-08T04:10:28.619Z</time>
      </trkpt>
      <trkpt lat="45.91596" lon="3.84598">
        <ele>685</ele>
        <time>2024-12-08T04:10:29.620Z</time>
      </trkpt>
      <trkpt lat="45.91596" lon="3.846">
        <ele>685</ele>
        <time>2024-12-08T04:10:30.620Z</time>
      </trkpt>
      <trkpt lat="45.91595" lon="3.84602">
        <ele>685</ele>
        <time>2024-12-08T04:10:31.619Z</time>
      </trkpt>
      <trkpt lat="45.91595" lon="3.84604">
        <ele>686</ele>
        <time>2024-12-08T04:10:32.620Z</time>
      </trkpt>
      <trkpt lat="45.91595" lon="3.84606">
        <ele>686</ele>
        <time>2024-12-08T04:10:33.619Z</time>
      </trkpt>
      <trkpt lat="45.91596" lon="3.84607">
        <ele>686</ele>
        <time>2024-12-08T04:10:34.620Z</time>
      </trkpt>
      <trkpt lat="45.91596" lon="3.84609">
        <ele>686</ele>
        <time>2024-12-08T04:10:35.620Z</time>
      </trkpt>
      <trkpt lat="45.91596" lon="3.84611">
        <ele>686</ele>
        <time>2024-12-08T04:10:36.619Z</time>
      </trkpt>
      <trkpt lat="45.91596" lon="3.84613">
        <ele>686</ele>
        <time>2024-12-08T04:10:37.619Z</time>
      </trkpt>
      <trkpt lat="45.91596" lon="3.84615">
        <ele>686</ele>
        <time>2024-12-08T04:10:38.619Z</time>
      </trkpt>
      <trkpt lat="45.91596" lon="3.84617">
        <ele>686</ele>
        <time>2024-12-08T04:10:39.620Z</time>
      </trkpt>
      <trkpt lat="45.91596" lon="3.84619">
        <ele>687</ele>
        <time>2024-12-08T04:10:40.619Z</time>
      </trkpt>
      <trkpt lat="45.91596" lon="3.84621">
        <ele>687</ele>
        <time>2024-12-08T04:10:41.620Z</time>
      </trkpt>
      <trkpt lat="45.91597" lon="3.84623">
        <ele>687</ele>
        <time>2024-12-08T04:10:42.620Z</time>
      </trkpt>
      <trkpt lat="45.91597" lon="3.84624">
        <ele>687</ele>
        <time>2024-12-08T04:10:43.619Z</time>
      </trkpt>
      <trkpt lat="45.91597" lon="3.84626">
        <ele>688</ele>
        <time>2024-12-08T04:10:44.619Z</time>
      </trkpt>
      <trkpt lat="45.91597" lon="3.84628">
        <ele>688</ele>
        <time>2024-12-08T04:10:45.620Z</time>
      </trkpt>
      <trkpt lat="45.91598" lon="3.84629">
        <ele>688</ele>
        <time>2024-12-08T04:10:46.619Z</time>
      </trkpt>
      <trkpt lat="45.91599" lon="3.84631">
        <ele>689</ele>
        <time>2024-12-08T04:10:47.620Z</time>
      </trkpt>
      <trkpt lat="45.916" lon="3.84632">
        <ele>689</ele>
        <time>2024-12-08T04:10:48.619Z</time>
      </trkpt>
      <trkpt lat="45.91601" lon="3.84633">
        <ele>689</ele>
        <time>2024-12-08T04:10:49.620Z</time>
      </trkpt>
      <trkpt lat="45.91602" lon="3.84635">
        <ele>689</ele>
        <time>2024-12-08T04:10:50.619Z</time>
      </trkpt>
      <trkpt lat="45.91602" lon="3.84636">
        <ele>689</ele>
        <time>2024-12-08T04:10:51.619Z</time>
      </trkpt>
      <trkpt lat="45.91602" lon="3.84638">
        <ele>689</ele>
        <time>2024-12-08T04:10:52.620Z</time>
      </trkpt>
      <trkpt lat="45.91603" lon="3.8464">
        <ele>689</ele>
        <time>2024-12-08T04:10:53.619Z</time>
      </trkpt>
      <trkpt lat="45.91603" lon="3.84641">
        <ele>689</ele>
        <time>2024-12-08T04:10:54.620Z</time>
      </trkpt>
      <trkpt lat="45.91603" lon="3.84643">
        <ele>689</ele>
        <time>2024-12-08T04:10:55.620Z</time>
      </trkpt>
      <trkpt lat="45.91604" lon="3.84645">
        <ele>689</ele>
        <time>2024-12-08T04:10:56.620Z</time>
      </trkpt>
      <trkpt lat="45.91604" lon="3.84647">
        <ele>689</ele>
        <time>2024-12-08T04:10:57.619Z</time>
      </trkpt>
      <trkpt lat="45.91605" lon="3.84649">
        <ele>689</ele>
        <time>2024-12-08T04:10:58.620Z</time>
      </trkpt>
      <trkpt lat="45.91605" lon="3.8465">
        <ele>689</ele>
        <time>2024-12-08T04:10:59.619Z</time>
      </trkpt>
      <trkpt lat="45.91606" lon="3.84651">
        <ele>688</ele>
        <time>2024-12-08T04:11:00.620Z</time>
      </trkpt>
      <trkpt lat="45.91606" lon="3.84653">
        <ele>688</ele>
        <time>2024-12-08T04:11:01.619Z</time>
      </trkpt>
      <trkpt lat="45.91606" lon="3.84655">
        <ele>688</ele>
        <time>2024-12-08T04:11:02.620Z</time>
      </trkpt>
      <trkpt lat="45.91607" lon="3.84657">
        <ele>688</ele>
        <time>2024-12-08T04:11:03.619Z</time>
      </trkpt>
      <trkpt lat="45.91607" lon="3.84658">
        <ele>687</ele>
        <time>2024-12-08T04:11:04.619Z</time>
      </trkpt>
      <trkpt lat="45.91608" lon="3.8466">
        <ele>687</ele>
        <time>2024-12-08T04:11:05.619Z</time>
      </trkpt>
      <trkpt lat="45.91608" lon="3.84661">
        <ele>687</ele>
        <time>2024-12-08T04:11:06.620Z</time>
      </trkpt>
      <trkpt lat="45.91609" lon="3.84663">
        <ele>687</ele>
        <time>2024-12-08T04:11:07.620Z</time>
      </trkpt>
      <trkpt lat="45.9161" lon="3.84664">
        <ele>687</ele>
        <time>2024-12-08T04:11:08.620Z</time>
      </trkpt>
      <trkpt lat="45.9161" lon="3.84666">
        <ele>687</ele>
        <time>2024-12-08T04:11:09.620Z</time>
      </trkpt>
      <trkpt lat="45.91611" lon="3.84668">
        <ele>688</ele>
        <time>2024-12-08T04:11:10.619Z</time>
      </trkpt>
      <trkpt lat="45.91612" lon="3.84668">
        <ele>688</ele>
        <time>2024-12-08T04:11:11.620Z</time>
      </trkpt>
      <trkpt lat="45.91613" lon="3.8467">
        <ele>688</ele>
        <time>2024-12-08T04:11:12.620Z</time>
      </trkpt>
      <trkpt lat="45.91614" lon="3.84672">
        <ele>688</ele>
        <time>2024-12-08T04:11:13.619Z</time>
      </trkpt>
      <trkpt lat="45.91615" lon="3.84673">
        <ele>688</ele>
        <time>2024-12-08T04:11:14.620Z</time>
      </trkpt>
      <trkpt lat="45.91615" lon="3.84675">
        <ele>688</ele>
        <time>2024-12-08T04:11:15.619Z</time>
      </trkpt>
      <trkpt lat="45.91615" lon="3.84676">
        <ele>688</ele>
        <time>2024-12-08T04:11:16.620Z</time>
      </trkpt>
      <trkpt lat="45.91616" lon="3.84678">
        <ele>688</ele>
        <time>2024-12-08T04:11:17.619Z</time>
      </trkpt>
      <trkpt lat="45.91616" lon="3.84679">
        <ele>688</ele>
        <time>2024-12-08T04:11:18.619Z</time>
      </trkpt>
      <trkpt lat="45.91617" lon="3.8468">
        <ele>688</ele>
        <time>2024-12-08T04:11:19.619Z</time>
      </trkpt>
      <trkpt lat="45.91618" lon="3.84681">
        <ele>688</ele>
        <time>2024-12-08T04:11:20.619Z</time>
      </trkpt>
      <trkpt lat="45.91619" lon="3.84683">
        <ele>689</ele>
        <time>2024-12-08T04:11:21.619Z</time>
      </trkpt>
      <trkpt lat="45.91619" lon="3.84684">
        <ele>689</ele>
        <time>2024-12-08T04:11:22.620Z</time>
      </trkpt>
      <trkpt lat="45.91619" lon="3.84686">
        <ele>689</ele>
        <time>2024-12-08T04:11:23.619Z</time>
      </trkpt>
      <trkpt lat="45.9162" lon="3.84687">
        <ele>689</ele>
        <time>2024-12-08T04:11:24.620Z</time>
      </trkpt>
      <trkpt lat="45.9162" lon="3.84687">
        <ele>690</ele>
        <time>2024-12-08T04:11:25.620Z</time>
      </trkpt>
      <trkpt lat="45.91621" lon="3.84688">
        <ele>690</ele>
        <time>2024-12-08T04:11:26.620Z</time>
      </trkpt>
      <trkpt lat="45.91622" lon="3.84689">
        <ele>690</ele>
        <time>2024-12-08T04:11:27.619Z</time>
      </trkpt>
      <trkpt lat="45.91623" lon="3.8469">
        <ele>690</ele>
        <time>2024-12-08T04:11:28.620Z</time>
      </trkpt>
      <trkpt lat="45.91624" lon="3.84691">
        <ele>691</ele>
        <time>2024-12-08T04:11:29.619Z</time>
      </trkpt>
      <trkpt lat="45.91625" lon="3.84692">
        <ele>691</ele>
        <time>2024-12-08T04:11:30.619Z</time>
      </trkpt>
      <trkpt lat="45.91626" lon="3.84694">
        <ele>691</ele>
        <time>2024-12-08T04:11:31.620Z</time>
      </trkpt>
      <trkpt lat="45.91627" lon="3.84695">
        <ele>692</ele>
        <time>2024-12-08T04:11:32.619Z</time>
      </trkpt>
      <trkpt lat="45.91628" lon="3.84697">
        <ele>692</ele>
        <time>2024-12-08T04:11:33.620Z</time>
      </trkpt>
      <trkpt lat="45.91628" lon="3.84698">
        <ele>692</ele>
        <time>2024-12-08T04:11:34.620Z</time>
      </trkpt>
      <trkpt lat="45.91629" lon="3.84699">
        <ele>692</ele>
        <time>2024-12-08T04:11:35.620Z</time>
      </trkpt>
      <trkpt lat="45.9163" lon="3.84701">
        <ele>692</ele>
        <time>2024-12-08T04:11:36.619Z</time>
      </trkpt>
      <trkpt lat="45.9163" lon="3.84702">
        <ele>692</ele>
        <time>2024-12-08T04:11:37.620Z</time>
      </trkpt>
      <trkpt lat="45.91631" lon="3.84704">
        <ele>692</ele>
        <time>2024-12-08T04:11:38.620Z</time>
      </trkpt>
      <trkpt lat="45.91631" lon="3.84705">
        <ele>692</ele>
        <time>2024-12-08T04:11:39.619Z</time>
      </trkpt>
      <trkpt lat="45.91632" lon="3.84707">
        <ele>693</ele>
        <time>2024-12-08T04:11:40.619Z</time>
      </trkpt>
      <trkpt lat="45.91632" lon="3.84708">
        <ele>693</ele>
        <time>2024-12-08T04:11:41.620Z</time>
      </trkpt>
      <trkpt lat="45.91633" lon="3.8471">
        <ele>694</ele>
        <time>2024-12-08T04:11:42.619Z</time>
      </trkpt>
      <trkpt lat="45.91633" lon="3.84711">
        <ele>694</ele>
        <time>2024-12-08T04:11:43.620Z</time>
      </trkpt>
      <trkpt lat="45.91634" lon="3.84713">
        <ele>694</ele>
        <time>2024-12-08T04:11:44.620Z</time>
      </trkpt>
      <trkpt lat="45.91634" lon="3.84714">
        <ele>694</ele>
        <time>2024-12-08T04:11:45.620Z</time>
      </trkpt>
      <trkpt lat="45.91635" lon="3.84716">
        <ele>694</ele>
        <time>2024-12-08T04:11:46.620Z</time>
      </trkpt>
      <trkpt lat="45.91636" lon="3.84717">
        <ele>695</ele>
        <time>2024-12-08T04:11:47.619Z</time>
      </trkpt>
      <trkpt lat="45.91637" lon="3.84719">
        <ele>695</ele>
        <time>2024-12-08T04:11:48.619Z</time>
      </trkpt>
      <trkpt lat="45.91637" lon="3.8472">
        <ele>695</ele>
        <time>2024-12-08T04:11:49.619Z</time>
      </trkpt>
      <trkpt lat="45.91638" lon="3.84721">
        <ele>695</ele>
        <time>2024-12-08T04:11:50.619Z</time>
      </trkpt>
      <trkpt lat="45.91639" lon="3.84723">
        <ele>695</ele>
        <time>2024-12-08T04:11:51.619Z</time>
      </trkpt>
      <trkpt lat="45.9164" lon="3.84724">
        <ele>695</ele>
        <time>2024-12-08T04:11:52.619Z</time>
      </trkpt>
      <trkpt lat="45.91641" lon="3.84726">
        <ele>695</ele>
        <time>2024-12-08T04:11:53.620Z</time>
      </trkpt>
      <trkpt lat="45.91642" lon="3.84727">
        <ele>696</ele>
        <time>2024-12-08T04:11:54.620Z</time>
      </trkpt>
      <trkpt lat="45.91642" lon="3.84729">
        <ele>696</ele>
        <time>2024-12-08T04:11:55.619Z</time>
      </trkpt>
      <trkpt lat="45.91643" lon="3.8473">
        <ele>696</ele>
        <time>2024-12-08T04:11:56.619Z</time>
      </trkpt>
      <trkpt lat="45.91644" lon="3.84731">
        <ele>696</ele>
        <time>2024-12-08T04:11:57.620Z</time>
      </trkpt>
      <trkpt lat="45.91645" lon="3.84732">
        <ele>696</ele>
        <time>2024-12-08T04:11:58.619Z</time>
      </trkpt>
      <trkpt lat="45.91646" lon="3.84733">
        <ele>697</ele>
        <time>2024-12-08T04:11:59.619Z</time>
      </trkpt>
      <trkpt lat="45.91647" lon="3.84735">
        <ele>697</ele>
        <time>2024-12-08T04:12:00.619Z</time>
      </trkpt>
      <trkpt lat="45.91647" lon="3.84736">
        <ele>697</ele>
        <time>2024-12-08T04:12:01.619Z</time>
      </trkpt>
      <trkpt lat="45.91648" lon="3.84737">
        <ele>698</ele>
        <time>2024-12-08T04:12:02.619Z</time>
      </trkpt>
      <trkpt lat="45.91649" lon="3.84739">
        <ele>698</ele>
        <time>2024-12-08T04:12:03.619Z</time>
      </trkpt>
      <trkpt lat="45.91649" lon="3.84741">
        <ele>698</ele>
        <time>2024-12-08T04:12:04.619Z</time>
      </trkpt>
      <trkpt lat="45.9165" lon="3.84743">
        <ele>698</ele>
        <time>2024-12-08T04:12:05.620Z</time>
      </trkpt>
      <trkpt lat="45.9165" lon="3.84744">
        <ele>698</ele>
        <time>2024-12-08T04:12:06.619Z</time>
      </trkpt>
      <trkpt lat="45.91651" lon="3.84745">
        <ele>698</ele>
        <time>2024-12-08T04:12:07.620Z</time>
      </trkpt>
      <trkpt lat="45.91651" lon="3.84747">
        <ele>698</ele>
        <time>2024-12-08T04:12:08.620Z</time>
      </trkpt>
      <trkpt lat="45.91652" lon="3.84749">
        <ele>698</ele>
        <time>2024-12-08T04:12:09.619Z</time>
      </trkpt>
      <trkpt lat="45.91653" lon="3.8475">
        <ele>698</ele>
        <time>2024-12-08T04:12:10.620Z</time>
      </trkpt>
      <trkpt lat="45.91653" lon="3.84751">
        <ele>699</ele>
        <time>2024-12-08T04:12:11.619Z</time>
      </trkpt>
      <trkpt lat="45.91654" lon="3.84752">
        <ele>699</ele>
        <time>2024-12-08T04:12:12.620Z</time>
      </trkpt>
      <trkpt lat="45.91655" lon="3.84753">
        <ele>699</ele>
        <time>2024-12-08T04:12:13.619Z</time>
      </trkpt>
      <trkpt lat="45.91656" lon="3.84754">
        <ele>700</ele>
        <time>2024-12-08T04:12:14.619Z</time>
      </trkpt>
      <trkpt lat="45.91657" lon="3.84756">
        <ele>700</ele>
        <time>2024-12-08T04:12:15.619Z</time>
      </trkpt>
      <trkpt lat="45.91657" lon="3.84757">
        <ele>700</ele>
        <time>2024-12-08T04:12:16.620Z</time>
      </trkpt>
      <trkpt lat="45.91658" lon="3.84759">
        <ele>700</ele>
        <time>2024-12-08T04:12:17.620Z</time>
      </trkpt>
      <trkpt lat="45.91658" lon="3.84761">
        <ele>700</ele>
        <time>2024-12-08T04:12:18.620Z</time>
      </trkpt>
      <trkpt lat="45.91659" lon="3.84762">
        <ele>700</ele>
        <time>2024-12-08T04:12:19.619Z</time>
      </trkpt>
      <trkpt lat="45.91659" lon="3.84764">
        <ele>700</ele>
        <time>2024-12-08T04:12:20.619Z</time>
      </trkpt>
      <trkpt lat="45.91661" lon="3.84765">
        <ele>700</ele>
        <time>2024-12-08T04:12:21.620Z</time>
      </trkpt>
      <trkpt lat="45.91662" lon="3.84767">
        <ele>700</ele>
        <time>2024-12-08T04:12:22.620Z</time>
      </trkpt>
      <trkpt lat="45.91664" lon="3.84768">
        <ele>699</ele>
        <time>2024-12-08T04:12:23.619Z</time>
      </trkpt>
      <trkpt lat="45.91665" lon="3.8477">
        <ele>699</ele>
        <time>2024-12-08T04:12:24.619Z</time>
      </trkpt>
      <trkpt lat="45.91665" lon="3.84771">
        <ele>699</ele>
        <time>2024-12-08T04:12:25.619Z</time>
      </trkpt>
      <trkpt lat="45.91666" lon="3.84773">
        <ele>699</ele>
        <time>2024-12-08T04:12:26.620Z</time>
      </trkpt>
      <trkpt lat="45.91666" lon="3.84774">
        <ele>699</ele>
        <time>2024-12-08T04:12:27.619Z</time>
      </trkpt>
      <trkpt lat="45.91667" lon="3.84776">
        <ele>700</ele>
        <time>2024-12-08T04:12:28.620Z</time>
      </trkpt>
      <trkpt lat="45.91667" lon="3.84777">
        <ele>700</ele>
        <time>2024-12-08T04:12:29.620Z</time>
      </trkpt>
      <trkpt lat="45.91668" lon="3.84779">
        <ele>700</ele>
        <time>2024-12-08T04:12:30.619Z</time>
      </trkpt>
      <trkpt lat="45.91669" lon="3.8478">
        <ele>701</ele>
        <time>2024-12-08T04:12:31.619Z</time>
      </trkpt>
      <trkpt lat="45.9167" lon="3.84782">
        <ele>701</ele>
        <time>2024-12-08T04:12:32.619Z</time>
      </trkpt>
      <trkpt lat="45.9167" lon="3.84783">
        <ele>702</ele>
        <time>2024-12-08T04:12:33.620Z</time>
      </trkpt>
      <trkpt lat="45.91671" lon="3.84785">
        <ele>702</ele>
        <time>2024-12-08T04:12:34.619Z</time>
      </trkpt>
      <trkpt lat="45.91672" lon="3.84787">
        <ele>702</ele>
        <time>2024-12-08T04:12:35.620Z</time>
      </trkpt>
      <trkpt lat="45.91672" lon="3.84788">
        <ele>703</ele>
        <time>2024-12-08T04:12:36.620Z</time>
      </trkpt>
      <trkpt lat="45.91673" lon="3.8479">
        <ele>703</ele>
        <time>2024-12-08T04:12:37.620Z</time>
      </trkpt>
      <trkpt lat="45.91673" lon="3.84791">
        <ele>703</ele>
        <time>2024-12-08T04:12:38.619Z</time>
      </trkpt>
      <trkpt lat="45.91674" lon="3.84793">
        <ele>703</ele>
        <time>2024-12-08T04:12:39.620Z</time>
      </trkpt>
      <trkpt lat="45.91674" lon="3.84794">
        <ele>703</ele>
        <time>2024-12-08T04:12:40.620Z</time>
      </trkpt>
      <trkpt lat="45.91675" lon="3.84796">
        <ele>703</ele>
        <time>2024-12-08T04:12:41.620Z</time>
      </trkpt>
      <trkpt lat="45.91676" lon="3.84797">
        <ele>703</ele>
        <time>2024-12-08T04:12:42.619Z</time>
      </trkpt>
      <trkpt lat="45.91676" lon="3.84799">
        <ele>703</ele>
        <time>2024-12-08T04:12:43.619Z</time>
      </trkpt>
      <trkpt lat="45.91677" lon="3.848">
        <ele>704</ele>
        <time>2024-12-08T04:12:44.620Z</time>
      </trkpt>
      <trkpt lat="45.91678" lon="3.84802">
        <ele>704</ele>
        <time>2024-12-08T04:12:45.619Z</time>
      </trkpt>
      <trkpt lat="45.91678" lon="3.84803">
        <ele>704</ele>
        <time>2024-12-08T04:12:46.620Z</time>
      </trkpt>
      <trkpt lat="45.91679" lon="3.84805">
        <ele>704</ele>
        <time>2024-12-08T04:12:47.619Z</time>
      </trkpt>
      <trkpt lat="45.9168" lon="3.84806">
        <ele>704</ele>
        <time>2024-12-08T04:12:48.619Z</time>
      </trkpt>
      <trkpt lat="45.91681" lon="3.84808">
        <ele>705</ele>
        <time>2024-12-08T04:12:49.619Z</time>
      </trkpt>
      <trkpt lat="45.91682" lon="3.84809">
        <ele>705</ele>
        <time>2024-12-08T04:12:50.620Z</time>
      </trkpt>
      <trkpt lat="45.91682" lon="3.84811">
        <ele>705</ele>
        <time>2024-12-08T04:12:51.620Z</time>
      </trkpt>
      <trkpt lat="45.91683" lon="3.84812">
        <ele>706</ele>
        <time>2024-12-08T04:12:52.619Z</time>
      </trkpt>
      <trkpt lat="45.91684" lon="3.84813">
        <ele>706</ele>
        <time>2024-12-08T04:12:53.620Z</time>
      </trkpt>
      <trkpt lat="45.91685" lon="3.84814">
        <ele>706</ele>
        <time>2024-12-08T04:12:54.619Z</time>
      </trkpt>
      <trkpt lat="45.91686" lon="3.84815">
        <ele>707</ele>
        <time>2024-12-08T04:12:55.619Z</time>
      </trkpt>
      <trkpt lat="45.91687" lon="3.84816">
        <ele>707</ele>
        <time>2024-12-08T04:12:56.620Z</time>
      </trkpt>
      <trkpt lat="45.91687" lon="3.84818">
        <ele>707</ele>
        <time>2024-12-08T04:12:57.620Z</time>
      </trkpt>
      <trkpt lat="45.91688" lon="3.84819">
        <ele>708</ele>
        <time>2024-12-08T04:12:58.620Z</time>
      </trkpt>
      <trkpt lat="45.91689" lon="3.8482">
        <ele>708</ele>
        <time>2024-12-08T04:12:59.620Z</time>
      </trkpt>
      <trkpt lat="45.9169" lon="3.84821">
        <ele>708</ele>
        <time>2024-12-08T04:13:00.619Z</time>
      </trkpt>
      <trkpt lat="45.91691" lon="3.84822">
        <ele>708</ele>
        <time>2024-12-08T04:13:01.620Z</time>
      </trkpt>
      <trkpt lat="45.91692" lon="3.84824">
        <ele>708</ele>
        <time>2024-12-08T04:13:02.619Z</time>
      </trkpt>
      <trkpt lat="45.91692" lon="3.84825">
        <ele>708</ele>
        <time>2024-12-08T04:13:03.620Z</time>
      </trkpt>
      <trkpt lat="45.91693" lon="3.84827">
        <ele>708</ele>
        <time>2024-12-08T04:13:04.619Z</time>
      </trkpt>
      <trkpt lat="45.91694" lon="3.84828">
        <ele>709</ele>
        <time>2024-12-08T04:13:05.620Z</time>
      </trkpt>
      <trkpt lat="45.91695" lon="3.8483">
        <ele>709</ele>
        <time>2024-12-08T04:13:06.619Z</time>
      </trkpt>
      <trkpt lat="45.91696" lon="3.84831">
        <ele>709</ele>
        <time>2024-12-08T04:13:07.619Z</time>
      </trkpt>
      <trkpt lat="45.91697" lon="3.84833">
        <ele>709</ele>
        <time>2024-12-08T04:13:08.619Z</time>
      </trkpt>
      <trkpt lat="45.91698" lon="3.84834">
        <ele>709</ele>
        <time>2024-12-08T04:13:09.620Z</time>
      </trkpt>
      <trkpt lat="45.91699" lon="3.84836">
        <ele>710</ele>
        <time>2024-12-08T04:13:10.620Z</time>
      </trkpt>
      <trkpt lat="45.917" lon="3.84837">
        <ele>710</ele>
        <time>2024-12-08T04:13:11.619Z</time>
      </trkpt>
      <trkpt lat="45.917" lon="3.84839">
        <ele>710</ele>
        <time>2024-12-08T04:13:12.620Z</time>
      </trkpt>
      <trkpt lat="45.91701" lon="3.8484">
        <ele>711</ele>
        <time>2024-12-08T04:13:13.620Z</time>
      </trkpt>
      <trkpt lat="45.91702" lon="3.84842">
        <ele>711</ele>
        <time>2024-12-08T04:13:14.620Z</time>
      </trkpt>
      <trkpt lat="45.91702" lon="3.84844">
        <ele>711</ele>
        <time>2024-12-08T04:13:15.620Z</time>
      </trkpt>
      <trkpt lat="45.91703" lon="3.84845">
        <ele>711</ele>
        <time>2024-12-08T04:13:16.619Z</time>
      </trkpt>
      <trkpt lat="45.91703" lon="3.84847">
        <ele>712</ele>
        <time>2024-12-08T04:13:17.619Z</time>
      </trkpt>
      <trkpt lat="45.91704" lon="3.84848">
        <ele>712</ele>
        <time>2024-12-08T04:13:18.620Z</time>
      </trkpt>
      <trkpt lat="45.91705" lon="3.8485">
        <ele>711</ele>
        <time>2024-12-08T04:13:19.620Z</time>
      </trkpt>
      <trkpt lat="45.91705" lon="3.84852">
        <ele>712</ele>
        <time>2024-12-08T04:13:20.620Z</time>
      </trkpt>
      <trkpt lat="45.91706" lon="3.84853">
        <ele>712</ele>
        <time>2024-12-08T04:13:21.619Z</time>
      </trkpt>
      <trkpt lat="45.91707" lon="3.84855">
        <ele>712</ele>
        <time>2024-12-08T04:13:22.619Z</time>
      </trkpt>
      <trkpt lat="45.91707" lon="3.84856">
        <ele>712</ele>
        <time>2024-12-08T04:13:23.620Z</time>
      </trkpt>
      <trkpt lat="45.91708" lon="3.84858">
        <ele>713</ele>
        <time>2024-12-08T04:13:24.620Z</time>
      </trkpt>
      <trkpt lat="45.91709" lon="3.84859">
        <ele>713</ele>
        <time>2024-12-08T04:13:25.620Z</time>
      </trkpt>
      <trkpt lat="45.91709" lon="3.84861">
        <ele>713</ele>
        <time>2024-12-08T04:13:26.619Z</time>
      </trkpt>
      <trkpt lat="45.9171" lon="3.84862">
        <ele>713</ele>
        <time>2024-12-08T04:13:27.619Z</time>
      </trkpt>
      <trkpt lat="45.9171" lon="3.84865">
        <ele>714</ele>
        <time>2024-12-08T04:13:28.619Z</time>
      </trkpt>
      <trkpt lat="45.9171" lon="3.84867">
        <ele>714</ele>
        <time>2024-12-08T04:13:29.620Z</time>
      </trkpt>
      <trkpt lat="45.9171" lon="3.84869">
        <ele>714</ele>
        <time>2024-12-08T04:13:30.619Z</time>
      </trkpt>
      <trkpt lat="45.91711" lon="3.84871">
        <ele>714</ele>
        <time>2024-12-08T04:13:31.619Z</time>
      </trkpt>
      <trkpt lat="45.91711" lon="3.84872">
        <ele>714</ele>
        <time>2024-12-08T04:13:32.620Z</time>
      </trkpt>
      <trkpt lat="45.91712" lon="3.84874">
        <ele>714</ele>
        <time>2024-12-08T04:13:33.619Z</time>
      </trkpt>
      <trkpt lat="45.91713" lon="3.84875">
        <ele>714</ele>
        <time>2024-12-08T04:13:34.620Z</time>
      </trkpt>
      <trkpt lat="45.91713" lon="3.84877">
        <ele>714</ele>
        <time>2024-12-08T04:13:35.619Z</time>
      </trkpt>
      <trkpt lat="45.91714" lon="3.84878">
        <ele>714</ele>
        <time>2024-12-08T04:13:36.620Z</time>
      </trkpt>
      <trkpt lat="45.91715" lon="3.8488">
        <ele>714</ele>
        <time>2024-12-08T04:13:37.619Z</time>
      </trkpt>
      <trkpt lat="45.91716" lon="3.84882">
        <ele>714</ele>
        <time>2024-12-08T04:13:38.620Z</time>
      </trkpt>
      <trkpt lat="45.91716" lon="3.84883">
        <ele>714</ele>
        <time>2024-12-08T04:13:39.619Z</time>
      </trkpt>
      <trkpt lat="45.91717" lon="3.84884">
        <ele>714</ele>
        <time>2024-12-08T04:13:40.619Z</time>
      </trkpt>
      <trkpt lat="45.91719" lon="3.84885">
        <ele>715</ele>
        <time>2024-12-08T04:13:41.619Z</time>
      </trkpt>
      <trkpt lat="45.9172" lon="3.84887">
        <ele>715</ele>
        <time>2024-12-08T04:13:42.620Z</time>
      </trkpt>
      <trkpt lat="45.91721" lon="3.84888">
        <ele>715</ele>
        <time>2024-12-08T04:13:43.619Z</time>
      </trkpt>
      <trkpt lat="45.91722" lon="3.84889">
        <ele>716</ele>
        <time>2024-12-08T04:13:44.620Z</time>
      </trkpt>
      <trkpt lat="45.91723" lon="3.8489">
        <ele>716</ele>
        <time>2024-12-08T04:13:45.620Z</time>
      </trkpt>
      <trkpt lat="45.91724" lon="3.84892">
        <ele>717</ele>
        <time>2024-12-08T04:13:46.619Z</time>
      </trkpt>
      <trkpt lat="45.91724" lon="3.84894">
        <ele>717</ele>
        <time>2024-12-08T04:13:47.620Z</time>
      </trkpt>
      <trkpt lat="45.91725" lon="3.84896">
        <ele>718</ele>
        <time>2024-12-08T04:13:48.619Z</time>
      </trkpt>
      <trkpt lat="45.91725" lon="3.84897">
        <ele>718</ele>
        <time>2024-12-08T04:13:49.620Z</time>
      </trkpt>
      <trkpt lat="45.91725" lon="3.84899">
        <ele>718</ele>
        <time>2024-12-08T04:13:50.619Z</time>
      </trkpt>
      <trkpt lat="45.91725" lon="3.84901">
        <ele>719</ele>
        <time>2024-12-08T04:13:51.620Z</time>
      </trkpt>
      <trkpt lat="45.91726" lon="3.84902">
        <ele>719</ele>
        <time>2024-12-08T04:13:52.619Z</time>
      </trkpt>
      <trkpt lat="45.91726" lon="3.84904">
        <ele>719</ele>
        <time>2024-12-08T04:13:53.620Z</time>
      </trkpt>
      <trkpt lat="45.91727" lon="3.84905">
        <ele>720</ele>
        <time>2024-12-08T04:13:54.620Z</time>
      </trkpt>
      <trkpt lat="45.91727" lon="3.84907">
        <ele>720</ele>
        <time>2024-12-08T04:13:55.619Z</time>
      </trkpt>
      <trkpt lat="45.91728" lon="3.84908">
        <ele>720</ele>
        <time>2024-12-08T04:13:56.619Z</time>
      </trkpt>
      <trkpt lat="45.91729" lon="3.8491">
        <ele>720</ele>
        <time>2024-12-08T04:13:57.620Z</time>
      </trkpt>
      <trkpt lat="45.91729" lon="3.84911">
        <ele>721</ele>
        <time>2024-12-08T04:13:58.619Z</time>
      </trkpt>
      <trkpt lat="45.9173" lon="3.84913">
        <ele>721</ele>
        <time>2024-12-08T04:13:59.620Z</time>
      </trkpt>
      <trkpt lat="45.9173" lon="3.84914">
        <ele>721</ele>
        <time>2024-12-08T04:14:00.619Z</time>
      </trkpt>
      <trkpt lat="45.91731" lon="3.84915">
        <ele>721</ele>
        <time>2024-12-08T04:14:01.619Z</time>
      </trkpt>
      <trkpt lat="45.91732" lon="3.84915">
        <ele>721</ele>
        <time>2024-12-08T04:14:02.619Z</time>
      </trkpt>
      <trkpt lat="45.91733" lon="3.84917">
        <ele>721</ele>
        <time>2024-12-08T04:14:03.620Z</time>
      </trkpt>
      <trkpt lat="45.91734" lon="3.84918">
        <ele>722</ele>
        <time>2024-12-08T04:14:04.620Z</time>
      </trkpt>
      <trkpt lat="45.91735" lon="3.84921">
        <ele>722</ele>
        <time>2024-12-08T04:14:05.619Z</time>
      </trkpt>
      <trkpt lat="45.91736" lon="3.84923">
        <ele>722</ele>
        <time>2024-12-08T04:14:06.619Z</time>
      </trkpt>
      <trkpt lat="45.91737" lon="3.84924">
        <ele>723</ele>
        <time>2024-12-08T04:14:07.619Z</time>
      </trkpt>
      <trkpt lat="45.91738" lon="3.84926">
        <ele>723</ele>
        <time>2024-12-08T04:14:08.619Z</time>
      </trkpt>
      <trkpt lat="45.91738" lon="3.84927">
        <ele>723</ele>
        <time>2024-12-08T04:14:09.620Z</time>
      </trkpt>
      <trkpt lat="45.9174" lon="3.84928">
        <ele>722</ele>
        <time>2024-12-08T04:14:10.620Z</time>
      </trkpt>
      <trkpt lat="45.9174" lon="3.8493">
        <ele>722</ele>
        <time>2024-12-08T04:14:11.620Z</time>
      </trkpt>
      <trkpt lat="45.9174" lon="3.84931">
        <ele>722</ele>
        <time>2024-12-08T04:14:12.619Z</time>
      </trkpt>
      <trkpt lat="45.91741" lon="3.84933">
        <ele>722</ele>
        <time>2024-12-08T04:14:13.620Z</time>
      </trkpt>
      <trkpt lat="45.91742" lon="3.84934">
        <ele>722</ele>
        <time>2024-12-08T04:14:14.619Z</time>
      </trkpt>
      <trkpt lat="45.91744" lon="3.84936">
        <ele>723</ele>
        <time>2024-12-08T04:14:15.620Z</time>
      </trkpt>
      <trkpt lat="45.91745" lon="3.84938">
        <ele>723</ele>
        <time>2024-12-08T04:14:16.620Z</time>
      </trkpt>
      <trkpt lat="45.91745" lon="3.84939">
        <ele>724</ele>
        <time>2024-12-08T04:14:17.619Z</time>
      </trkpt>
      <trkpt lat="45.91746" lon="3.8494">
        <ele>724</ele>
        <time>2024-12-08T04:14:18.619Z</time>
      </trkpt>
      <trkpt lat="45.91746" lon="3.84941">
        <ele>725</ele>
        <time>2024-12-08T04:14:19.619Z</time>
      </trkpt>
      <trkpt lat="45.91747" lon="3.84943">
        <ele>725</ele>
        <time>2024-12-08T04:14:20.620Z</time>
      </trkpt>
      <trkpt lat="45.91747" lon="3.84944">
        <ele>726</ele>
        <time>2024-12-08T04:14:21.620Z</time>
      </trkpt>
      <trkpt lat="45.91747" lon="3.84946">
        <ele>726</ele>
        <time>2024-12-08T04:14:22.620Z</time>
      </trkpt>
      <trkpt lat="45.91748" lon="3.84947">
        <ele>726</ele>
        <time>2024-12-08T04:14:23.620Z</time>
      </trkpt>
      <trkpt lat="45.91748" lon="3.84948">
        <ele>726</ele>
        <time>2024-12-08T04:14:24.620Z</time>
      </trkpt>
      <trkpt lat="45.91748" lon="3.8495">
        <ele>726</ele>
        <time>2024-12-08T04:14:25.619Z</time>
      </trkpt>
      <trkpt lat="45.9175" lon="3.84951">
        <ele>726</ele>
        <time>2024-12-08T04:14:26.619Z</time>
      </trkpt>
      <trkpt lat="45.91751" lon="3.84952">
        <ele>726</ele>
        <time>2024-12-08T04:14:27.619Z</time>
      </trkpt>
      <trkpt lat="45.91753" lon="3.84954">
        <ele>726</ele>
        <time>2024-12-08T04:14:28.620Z</time>
      </trkpt>
      <trkpt lat="45.91754" lon="3.84955">
        <ele>726</ele>
        <time>2024-12-08T04:14:29.619Z</time>
      </trkpt>
      <trkpt lat="45.91754" lon="3.84957">
        <ele>726</ele>
        <time>2024-12-08T04:14:30.619Z</time>
      </trkpt>
      <trkpt lat="45.91755" lon="3.84958">
        <ele>726</ele>
        <time>2024-12-08T04:14:31.619Z</time>
      </trkpt>
      <trkpt lat="45.91755" lon="3.8496">
        <ele>726</ele>
        <time>2024-12-08T04:14:32.620Z</time>
      </trkpt>
      <trkpt lat="45.91756" lon="3.84961">
        <ele>726</ele>
        <time>2024-12-08T04:14:33.619Z</time>
      </trkpt>
      <trkpt lat="45.91756" lon="3.84963">
        <ele>726</ele>
        <time>2024-12-08T04:14:34.619Z</time>
      </trkpt>
      <trkpt lat="45.91757" lon="3.84964">
        <ele>727</ele>
        <time>2024-12-08T04:14:35.620Z</time>
      </trkpt>
      <trkpt lat="45.91757" lon="3.84965">
        <ele>727</ele>
        <time>2024-12-08T04:14:36.620Z</time>
      </trkpt>
      <trkpt lat="45.91758" lon="3.84966">
        <ele>727</ele>
        <time>2024-12-08T04:14:37.619Z</time>
      </trkpt>
      <trkpt lat="45.91758" lon="3.84968">
        <ele>728</ele>
        <time>2024-12-08T04:14:38.619Z</time>
      </trkpt>
      <trkpt lat="45.91759" lon="3.84969">
        <ele>728</ele>
        <time>2024-12-08T04:14:39.619Z</time>
      </trkpt>
      <trkpt lat="45.91759" lon="3.8497">
        <ele>728</ele>
        <time>2024-12-08T04:14:40.619Z</time>
      </trkpt>
      <trkpt lat="45.9176" lon="3.84972">
        <ele>729</ele>
        <time>2024-12-08T04:14:41.620Z</time>
      </trkpt>
      <trkpt lat="45.9176" lon="3.84973">
        <ele>729</ele>
        <time>2024-12-08T04:14:42.619Z</time>
      </trkpt>
      <trkpt lat="45.91761" lon="3.84975">
        <ele>729</ele>
        <time>2024-12-08T04:14:43.620Z</time>
      </trkpt>
      <trkpt lat="45.91761" lon="3.84976">
        <ele>729</ele>
        <time>2024-12-08T04:14:44.619Z</time>
      </trkpt>
      <trkpt lat="45.91762" lon="3.84978">
        <ele>729</ele>
        <time>2024-12-08T04:14:45.619Z</time>
      </trkpt>
      <trkpt lat="45.91762" lon="3.84979">
        <ele>729</ele>
        <time>2024-12-08T04:14:46.619Z</time>
      </trkpt>
      <trkpt lat="45.91763" lon="3.8498">
        <ele>729</ele>
        <time>2024-12-08T04:14:47.620Z</time>
      </trkpt>
      <trkpt lat="45.91764" lon="3.84982">
        <ele>729</ele>
        <time>2024-12-08T04:14:48.620Z</time>
      </trkpt>
      <trkpt lat="45.91765" lon="3.84983">
        <ele>729</ele>
        <time>2024-12-08T04:14:49.620Z</time>
      </trkpt>
      <trkpt lat="45.91765" lon="3.84985">
        <ele>730</ele>
        <time>2024-12-08T04:14:50.620Z</time>
      </trkpt>
      <trkpt lat="45.91766" lon="3.84986">
        <ele>730</ele>
        <time>2024-12-08T04:14:51.619Z</time>
      </trkpt>
      <trkpt lat="45.91767" lon="3.84987">
        <ele>729</ele>
        <time>2024-12-08T04:14:52.619Z</time>
      </trkpt>
      <trkpt lat="45.91767" lon="3.84989">
        <ele>729</ele>
        <time>2024-12-08T04:14:53.619Z</time>
      </trkpt>
      <trkpt lat="45.91768" lon="3.8499">
        <ele>729</ele>
        <time>2024-12-08T04:14:54.620Z</time>
      </trkpt>
      <trkpt lat="45.91769" lon="3.84992">
        <ele>730</ele>
        <time>2024-12-08T04:14:55.619Z</time>
      </trkpt>
      <trkpt lat="45.9177" lon="3.84993">
        <ele>730</ele>
        <time>2024-12-08T04:14:56.620Z</time>
      </trkpt>
      <trkpt lat="45.91771" lon="3.84995">
        <ele>730</ele>
        <time>2024-12-08T04:14:57.619Z</time>
      </trkpt>
      <trkpt lat="45.91771" lon="3.84996">
        <ele>730</ele>
        <time>2024-12-08T04:14:58.620Z</time>
      </trkpt>
      <trkpt lat="45.91772" lon="3.84997">
        <ele>730</ele>
        <time>2024-12-08T04:14:59.619Z</time>
      </trkpt>
      <trkpt lat="45.91772" lon="3.84999">
        <ele>730</ele>
        <time>2024-12-08T04:15:00.619Z</time>
      </trkpt>
      <trkpt lat="45.91773" lon="3.85001">
        <ele>730</ele>
        <time>2024-12-08T04:15:01.619Z</time>
      </trkpt>
      <trkpt lat="45.91773" lon="3.85002">
        <ele>730</ele>
        <time>2024-12-08T04:15:02.620Z</time>
      </trkpt>
      <trkpt lat="45.91774" lon="3.85003">
        <ele>730</ele>
        <time>2024-12-08T04:15:03.620Z</time>
      </trkpt>
      <trkpt lat="45.91775" lon="3.85005">
        <ele>731</ele>
        <time>2024-12-08T04:15:04.620Z</time>
      </trkpt>
      <trkpt lat="45.91776" lon="3.85006">
        <ele>731</ele>
        <time>2024-12-08T04:15:05.620Z</time>
      </trkpt>
      <trkpt lat="45.91777" lon="3.85007">
        <ele>731</ele>
        <time>2024-12-08T04:15:06.619Z</time>
      </trkpt>
      <trkpt lat="45.91779" lon="3.85008">
        <ele>732</ele>
        <time>2024-12-08T04:15:07.620Z</time>
      </trkpt>
      <trkpt lat="45.9178" lon="3.8501">
        <ele>732</ele>
        <time>2024-12-08T04:15:08.619Z</time>
      </trkpt>
      <trkpt lat="45.91781" lon="3.85011">
        <ele>732</ele>
        <time>2024-12-08T04:15:09.620Z</time>
      </trkpt>
      <trkpt lat="45.91782" lon="3.85013">
        <ele>732</ele>
        <time>2024-12-08T04:15:10.619Z</time>
      </trkpt>
      <trkpt lat="45.91783" lon="3.85014">
        <ele>732</ele>
        <time>2024-12-08T04:15:11.620Z</time>
      </trkpt>
      <trkpt lat="45.91784" lon="3.85016">
        <ele>732</ele>
        <time>2024-12-08T04:15:12.619Z</time>
      </trkpt>
      <trkpt lat="45.91785" lon="3.85017">
        <ele>733</ele>
        <time>2024-12-08T04:15:13.619Z</time>
      </trkpt>
      <trkpt lat="45.91786" lon="3.85019">
        <ele>733</ele>
        <time>2024-12-08T04:15:14.620Z</time>
      </trkpt>
      <trkpt lat="45.91787" lon="3.8502">
        <ele>733</ele>
        <time>2024-12-08T04:15:15.620Z</time>
      </trkpt>
      <trkpt lat="45.91788" lon="3.85022">
        <ele>733</ele>
        <time>2024-12-08T04:15:16.619Z</time>
      </trkpt>
      <trkpt lat="45.91788" lon="3.85023">
        <ele>734</ele>
        <time>2024-12-08T04:15:17.620Z</time>
      </trkpt>
      <trkpt lat="45.91789" lon="3.85025">
        <ele>734</ele>
        <time>2024-12-08T04:15:18.620Z</time>
      </trkpt>
      <trkpt lat="45.91789" lon="3.85026">
        <ele>735</ele>
        <time>2024-12-08T04:15:19.620Z</time>
      </trkpt>
      <trkpt lat="45.91789" lon="3.85028">
        <ele>735</ele>
        <time>2024-12-08T04:15:20.620Z</time>
      </trkpt>
      <trkpt lat="45.9179" lon="3.85029">
        <ele>735</ele>
        <time>2024-12-08T04:15:21.620Z</time>
      </trkpt>
      <trkpt lat="45.9179" lon="3.8503">
        <ele>735</ele>
        <time>2024-12-08T04:15:22.620Z</time>
      </trkpt>
      <trkpt lat="45.91791" lon="3.85032">
        <ele>735</ele>
        <time>2024-12-08T04:15:23.619Z</time>
      </trkpt>
      <trkpt lat="45.91791" lon="3.85034">
        <ele>734</ele>
        <time>2024-12-08T04:15:24.620Z</time>
      </trkpt>
      <trkpt lat="45.91792" lon="3.85035">
        <ele>734</ele>
        <time>2024-12-08T04:15:25.619Z</time>
      </trkpt>
      <trkpt lat="45.91793" lon="3.85036">
        <ele>734</ele>
        <time>2024-12-08T04:15:26.620Z</time>
      </trkpt>
      <trkpt lat="45.91793" lon="3.85038">
        <ele>734</ele>
        <time>2024-12-08T04:15:27.619Z</time>
      </trkpt>
      <trkpt lat="45.91794" lon="3.85039">
        <ele>735</ele>
        <time>2024-12-08T04:15:28.620Z</time>
      </trkpt>
      <trkpt lat="45.91795" lon="3.8504">
        <ele>735</ele>
        <time>2024-12-08T04:15:29.620Z</time>
      </trkpt>
      <trkpt lat="45.91796" lon="3.85042">
        <ele>735</ele>
        <time>2024-12-08T04:15:30.620Z</time>
      </trkpt>
      <trkpt lat="45.91796" lon="3.85044">
        <ele>735</ele>
        <time>2024-12-08T04:15:31.619Z</time>
      </trkpt>
      <trkpt lat="45.91797" lon="3.85045">
        <ele>735</ele>
        <time>2024-12-08T04:15:32.620Z</time>
      </trkpt>
      <trkpt lat="45.91798" lon="3.85046">
        <ele>735</ele>
        <time>2024-12-08T04:15:33.620Z</time>
      </trkpt>
      <trkpt lat="45.91798" lon="3.85048">
        <ele>735</ele>
        <time>2024-12-08T04:15:34.620Z</time>
      </trkpt>
      <trkpt lat="45.91799" lon="3.85049">
        <ele>735</ele>
        <time>2024-12-08T04:15:35.620Z</time>
      </trkpt>
      <trkpt lat="45.918" lon="3.85051">
        <ele>736</ele>
        <time>2024-12-08T04:15:36.620Z</time>
      </trkpt>
      <trkpt lat="45.918" lon="3.85052">
        <ele>736</ele>
        <time>2024-12-08T04:15:37.620Z</time>
      </trkpt>
      <trkpt lat="45.91801" lon="3.85054">
        <ele>736</ele>
        <time>2024-12-08T04:15:38.619Z</time>
      </trkpt>
      <trkpt lat="45.91801" lon="3.85055">
        <ele>736</ele>
        <time>2024-12-08T04:15:39.620Z</time>
      </trkpt>
      <trkpt lat="45.91802" lon="3.85057">
        <ele>736</ele>
        <time>2024-12-08T04:15:40.619Z</time>
      </trkpt>
      <trkpt lat="45.91802" lon="3.85058">
        <ele>736</ele>
        <time>2024-12-08T04:15:41.620Z</time>
      </trkpt>
      <trkpt lat="45.91803" lon="3.8506">
        <ele>737</ele>
        <time>2024-12-08T04:15:42.619Z</time>
      </trkpt>
      <trkpt lat="45.91803" lon="3.85061">
        <ele>737</ele>
        <time>2024-12-08T04:15:43.619Z</time>
      </trkpt>
      <trkpt lat="45.91803" lon="3.85063">
        <ele>737</ele>
        <time>2024-12-08T04:15:44.619Z</time>
      </trkpt>
      <trkpt lat="45.91804" lon="3.85064">
        <ele>738</ele>
        <time>2024-12-08T04:15:45.620Z</time>
      </trkpt>
      <trkpt lat="45.91804" lon="3.85066">
        <ele>738</ele>
        <time>2024-12-08T04:15:46.620Z</time>
      </trkpt>
      <trkpt lat="45.91804" lon="3.85068">
        <ele>739</ele>
        <time>2024-12-08T04:15:47.619Z</time>
      </trkpt>
      <trkpt lat="45.91804" lon="3.85069">
        <ele>739</ele>
        <time>2024-12-08T04:15:48.619Z</time>
      </trkpt>
      <trkpt lat="45.91804" lon="3.85071">
        <ele>740</ele>
        <time>2024-12-08T04:15:49.619Z</time>
      </trkpt>
      <trkpt lat="45.91804" lon="3.85073">
        <ele>740</ele>
        <time>2024-12-08T04:15:50.620Z</time>
      </trkpt>
      <trkpt lat="45.91804" lon="3.85074">
        <ele>740</ele>
        <time>2024-12-08T04:15:51.619Z</time>
      </trkpt>
      <trkpt lat="45.91805" lon="3.85076">
        <ele>741</ele>
        <time>2024-12-08T04:15:52.620Z</time>
      </trkpt>
      <trkpt lat="45.91805" lon="3.85078">
        <ele>741</ele>
        <time>2024-12-08T04:15:53.619Z</time>
      </trkpt>
      <trkpt lat="45.91805" lon="3.8508">
        <ele>741</ele>
        <time>2024-12-08T04:15:54.619Z</time>
      </trkpt>
      <trkpt lat="45.91804" lon="3.85082">
        <ele>741</ele>
        <time>2024-12-08T04:15:55.619Z</time>
      </trkpt>
      <trkpt lat="45.91804" lon="3.85083">
        <ele>742</ele>
        <time>2024-12-08T04:15:56.620Z</time>
      </trkpt>
      <trkpt lat="45.91803" lon="3.85085">
        <ele>742</ele>
        <time>2024-12-08T04:15:57.620Z</time>
      </trkpt>
      <trkpt lat="45.91803" lon="3.85087">
        <ele>742</ele>
        <time>2024-12-08T04:15:58.619Z</time>
      </trkpt>
      <trkpt lat="45.91803" lon="3.85089">
        <ele>743</ele>
        <time>2024-12-08T04:15:59.619Z</time>
      </trkpt>
      <trkpt lat="45.91803" lon="3.8509">
        <ele>743</ele>
        <time>2024-12-08T04:16:00.619Z</time>
      </trkpt>
      <trkpt lat="45.91802" lon="3.85092">
        <ele>743</ele>
        <time>2024-12-08T04:16:01.620Z</time>
      </trkpt>
      <trkpt lat="45.91802" lon="3.85094">
        <ele>743</ele>
        <time>2024-12-08T04:16:02.619Z</time>
      </trkpt>
      <trkpt lat="45.91802" lon="3.85095">
        <ele>743</ele>
        <time>2024-12-08T04:16:03.620Z</time>
      </trkpt>
      <trkpt lat="45.91802" lon="3.85097">
        <ele>744</ele>
        <time>2024-12-08T04:16:04.619Z</time>
      </trkpt>
      <trkpt lat="45.91801" lon="3.85099">
        <ele>744</ele>
        <time>2024-12-08T04:16:05.620Z</time>
      </trkpt>
      <trkpt lat="45.91801" lon="3.85101">
        <ele>744</ele>
        <time>2024-12-08T04:16:06.619Z</time>
      </trkpt>
      <trkpt lat="45.91801" lon="3.85104">
        <ele>744</ele>
        <time>2024-12-08T04:16:07.620Z</time>
      </trkpt>
      <trkpt lat="45.91801" lon="3.85106">
        <ele>744</ele>
        <time>2024-12-08T04:16:08.619Z</time>
      </trkpt>
      <trkpt lat="45.91801" lon="3.85108">
        <ele>744</ele>
        <time>2024-12-08T04:16:09.620Z</time>
      </trkpt>
      <trkpt lat="45.91801" lon="3.8511">
        <ele>745</ele>
        <time>2024-12-08T04:16:10.619Z</time>
      </trkpt>
      <trkpt lat="45.91801" lon="3.85111">
        <ele>745</ele>
        <time>2024-12-08T04:16:11.620Z</time>
      </trkpt>
      <trkpt lat="45.91801" lon="3.85113">
        <ele>745</ele>
        <time>2024-12-08T04:16:12.619Z</time>
      </trkpt>
      <trkpt lat="45.91801" lon="3.85114">
        <ele>745</ele>
        <time>2024-12-08T04:16:13.620Z</time>
      </trkpt>
      <trkpt lat="45.91801" lon="3.85115">
        <ele>746</ele>
        <time>2024-12-08T04:16:14.620Z</time>
      </trkpt>
      <trkpt lat="45.918" lon="3.85117">
        <ele>746</ele>
        <time>2024-12-08T04:16:15.620Z</time>
      </trkpt>
      <trkpt lat="45.91799" lon="3.85118">
        <ele>746</ele>
        <time>2024-12-08T04:16:16.619Z</time>
      </trkpt>
      <trkpt lat="45.91798" lon="3.8512">
        <ele>746</ele>
        <time>2024-12-08T04:16:17.620Z</time>
      </trkpt>
      <trkpt lat="45.91798" lon="3.85122">
        <ele>747</ele>
        <time>2024-12-08T04:16:18.620Z</time>
      </trkpt>
      <trkpt lat="45.91798" lon="3.85123">
        <ele>747</ele>
        <time>2024-12-08T04:16:19.619Z</time>
      </trkpt>
      <trkpt lat="45.91798" lon="3.85124">
        <ele>747</ele>
        <time>2024-12-08T04:16:20.620Z</time>
      </trkpt>
      <trkpt lat="45.91798" lon="3.85125">
        <ele>747</ele>
        <time>2024-12-08T04:16:21.619Z</time>
      </trkpt>
      <trkpt lat="45.91798" lon="3.85128">
        <ele>748</ele>
        <time>2024-12-08T04:16:22.619Z</time>
      </trkpt>
      <trkpt lat="45.91798" lon="3.8513">
        <ele>748</ele>
        <time>2024-12-08T04:16:23.619Z</time>
      </trkpt>
      <trkpt lat="45.91797" lon="3.85132">
        <ele>748</ele>
        <time>2024-12-08T04:16:24.620Z</time>
      </trkpt>
      <trkpt lat="45.91797" lon="3.85133">
        <ele>748</ele>
        <time>2024-12-08T04:16:25.620Z</time>
      </trkpt>
      <trkpt lat="45.91797" lon="3.85134">
        <ele>748</ele>
        <time>2024-12-08T04:16:26.620Z</time>
      </trkpt>
      <trkpt lat="45.91797" lon="3.85136">
        <ele>748</ele>
        <time>2024-12-08T04:16:27.619Z</time>
      </trkpt>
      <trkpt lat="45.91796" lon="3.85138">
        <ele>748</ele>
        <time>2024-12-08T04:16:28.620Z</time>
      </trkpt>
      <trkpt lat="45.91796" lon="3.85139">
        <ele>748</ele>
        <time>2024-12-08T04:16:29.620Z</time>
      </trkpt>
      <trkpt lat="45.91795" lon="3.85141">
        <ele>748</ele>
        <time>2024-12-08T04:16:30.620Z</time>
      </trkpt>
      <trkpt lat="45.91794" lon="3.85143">
        <ele>748</ele>
        <time>2024-12-08T04:16:31.620Z</time>
      </trkpt>
      <trkpt lat="45.91794" lon="3.85145">
        <ele>748</ele>
        <time>2024-12-08T04:16:32.620Z</time>
      </trkpt>
      <trkpt lat="45.91793" lon="3.85148">
        <ele>748</ele>
        <time>2024-12-08T04:16:33.619Z</time>
      </trkpt>
      <trkpt lat="45.91793" lon="3.8515">
        <ele>748</ele>
        <time>2024-12-08T04:16:34.619Z</time>
      </trkpt>
      <trkpt lat="45.91793" lon="3.85151">
        <ele>748</ele>
        <time>2024-12-08T04:16:35.620Z</time>
      </trkpt>
      <trkpt lat="45.91792" lon="3.85153">
        <ele>748</ele>
        <time>2024-12-08T04:16:36.619Z</time>
      </trkpt>
      <trkpt lat="45.91792" lon="3.85155">
        <ele>748</ele>
        <time>2024-12-08T04:16:37.620Z</time>
      </trkpt>
      <trkpt lat="45.91792" lon="3.85157">
        <ele>748</ele>
        <time>2024-12-08T04:16:38.619Z</time>
      </trkpt>
      <trkpt lat="45.91792" lon="3.85158">
        <ele>748</ele>
        <time>2024-12-08T04:16:39.619Z</time>
      </trkpt>
      <trkpt lat="45.91791" lon="3.8516">
        <ele>748</ele>
        <time>2024-12-08T04:16:40.619Z</time>
      </trkpt>
      <trkpt lat="45.91791" lon="3.85162">
        <ele>748</ele>
        <time>2024-12-08T04:16:41.620Z</time>
      </trkpt>
      <trkpt lat="45.91792" lon="3.85163">
        <ele>748</ele>
        <time>2024-12-08T04:16:42.620Z</time>
      </trkpt>
      <trkpt lat="45.91792" lon="3.85164">
        <ele>748</ele>
        <time>2024-12-08T04:16:43.619Z</time>
      </trkpt>
      <trkpt lat="45.91791" lon="3.85166">
        <ele>748</ele>
        <time>2024-12-08T04:16:44.620Z</time>
      </trkpt>
      <trkpt lat="45.91791" lon="3.85168">
        <ele>748</ele>
        <time>2024-12-08T04:16:45.619Z</time>
      </trkpt>
      <trkpt lat="45.9179" lon="3.8517">
        <ele>748</ele>
        <time>2024-12-08T04:16:46.620Z</time>
      </trkpt>
      <trkpt lat="45.9179" lon="3.85172">
        <ele>748</ele>
        <time>2024-12-08T04:16:47.619Z</time>
      </trkpt>
      <trkpt lat="45.91789" lon="3.85174">
        <ele>748</ele>
        <time>2024-12-08T04:16:48.620Z</time>
      </trkpt>
      <trkpt lat="45.91788" lon="3.85176">
        <ele>748</ele>
        <time>2024-12-08T04:16:49.619Z</time>
      </trkpt>
      <trkpt lat="45.91788" lon="3.85178">
        <ele>748</ele>
        <time>2024-12-08T04:16:50.619Z</time>
      </trkpt>
      <trkpt lat="45.91788" lon="3.8518">
        <ele>748</ele>
        <time>2024-12-08T04:16:51.619Z</time>
      </trkpt>
      <trkpt lat="45.91789" lon="3.85182">
        <ele>747</ele>
        <time>2024-12-08T04:16:52.620Z</time>
      </trkpt>
      <trkpt lat="45.91789" lon="3.85183">
        <ele>747</ele>
        <time>2024-12-08T04:16:53.619Z</time>
      </trkpt>
      <trkpt lat="45.91788" lon="3.85184">
        <ele>747</ele>
        <time>2024-12-08T04:16:54.619Z</time>
      </trkpt>
      <trkpt lat="45.91788" lon="3.85185">
        <ele>747</ele>
        <time>2024-12-08T04:16:55.620Z</time>
      </trkpt>
      <trkpt lat="45.91787" lon="3.85186">
        <ele>748</ele>
        <time>2024-12-08T04:16:56.619Z</time>
      </trkpt>
      <trkpt lat="45.91786" lon="3.85188">
        <ele>748</ele>
        <time>2024-12-08T04:16:57.620Z</time>
      </trkpt>
      <trkpt lat="45.91785" lon="3.8519">
        <ele>748</ele>
        <time>2024-12-08T04:16:58.619Z</time>
      </trkpt>
      <trkpt lat="45.91785" lon="3.85191">
        <ele>748</ele>
        <time>2024-12-08T04:16:59.619Z</time>
      </trkpt>
      <trkpt lat="45.91784" lon="3.85193">
        <ele>749</ele>
        <time>2024-12-08T04:17:00.619Z</time>
      </trkpt>
      <trkpt lat="45.91784" lon="3.85195">
        <ele>749</ele>
        <time>2024-12-08T04:17:01.619Z</time>
      </trkpt>
      <trkpt lat="45.91785" lon="3.85196">
        <ele>749</ele>
        <time>2024-12-08T04:17:02.619Z</time>
      </trkpt>
      <trkpt lat="45.91785" lon="3.85198">
        <ele>750</ele>
        <time>2024-12-08T04:17:03.619Z</time>
      </trkpt>
      <trkpt lat="45.91785" lon="3.85199">
        <ele>750</ele>
        <time>2024-12-08T04:17:04.620Z</time>
      </trkpt>
      <trkpt lat="45.91785" lon="3.85202">
        <ele>750</ele>
        <time>2024-12-08T04:17:05.620Z</time>
      </trkpt>
      <trkpt lat="45.91784" lon="3.85203">
        <ele>751</ele>
        <time>2024-12-08T04:17:06.619Z</time>
      </trkpt>
      <trkpt lat="45.91784" lon="3.85205">
        <ele>751</ele>
        <time>2024-12-08T04:17:07.619Z</time>
      </trkpt>
      <trkpt lat="45.91783" lon="3.85206">
        <ele>751</ele>
        <time>2024-12-08T04:17:08.619Z</time>
      </trkpt>
      <trkpt lat="45.91783" lon="3.85208">
        <ele>752</ele>
        <time>2024-12-08T04:17:09.619Z</time>
      </trkpt>
      <trkpt lat="45.91783" lon="3.8521">
        <ele>752</ele>
        <time>2024-12-08T04:17:10.619Z</time>
      </trkpt>
      <trkpt lat="45.91782" lon="3.85212">
        <ele>752</ele>
        <time>2024-12-08T04:17:11.620Z</time>
      </trkpt>
      <trkpt lat="45.91782" lon="3.85213">
        <ele>752</ele>
        <time>2024-12-08T04:17:12.619Z</time>
      </trkpt>
      <trkpt lat="45.91782" lon="3.85215">
        <ele>752</ele>
        <time>2024-12-08T04:17:13.619Z</time>
      </trkpt>
      <trkpt lat="45.91781" lon="3.85216">
        <ele>752</ele>
        <time>2024-12-08T04:17:14.620Z</time>
      </trkpt>
      <trkpt lat="45.91781" lon="3.85218">
        <ele>752</ele>
        <time>2024-12-08T04:17:15.619Z</time>
      </trkpt>
      <trkpt lat="45.9178" lon="3.85219">
        <ele>752</ele>
        <time>2024-12-08T04:17:16.619Z</time>
      </trkpt>
      <trkpt lat="45.9178" lon="3.8522">
        <ele>752</ele>
        <time>2024-12-08T04:17:17.619Z</time>
      </trkpt>
      <trkpt lat="45.9178" lon="3.85222">
        <ele>752</ele>
        <time>2024-12-08T04:17:18.619Z</time>
      </trkpt>
      <trkpt lat="45.91779" lon="3.85223">
        <ele>752</ele>
        <time>2024-12-08T04:17:19.619Z</time>
      </trkpt>
      <trkpt lat="45.91779" lon="3.85225">
        <ele>752</ele>
        <time>2024-12-08T04:17:20.620Z</time>
      </trkpt>
      <trkpt lat="45.91778" lon="3.85226">
        <ele>752</ele>
        <time>2024-12-08T04:17:21.619Z</time>
      </trkpt>
      <trkpt lat="45.91778" lon="3.85228">
        <ele>752</ele>
        <time>2024-12-08T04:17:22.620Z</time>
      </trkpt>
      <trkpt lat="45.91777" lon="3.85229">
        <ele>752</ele>
        <time>2024-12-08T04:17:23.619Z</time>
      </trkpt>
      <trkpt lat="45.91777" lon="3.85231">
        <ele>752</ele>
        <time>2024-12-08T04:17:24.619Z</time>
      </trkpt>
      <trkpt lat="45.91777" lon="3.85232">
        <ele>752</ele>
        <time>2024-12-08T04:17:25.620Z</time>
      </trkpt>
      <trkpt lat="45.91777" lon="3.85233">
        <ele>752</ele>
        <time>2024-12-08T04:17:26.619Z</time>
      </trkpt>
      <trkpt lat="45.91777" lon="3.85234">
        <ele>752</ele>
        <time>2024-12-08T04:17:27.620Z</time>
      </trkpt>
      <trkpt lat="45.91776" lon="3.85236">
        <ele>752</ele>
        <time>2024-12-08T04:17:28.619Z</time>
      </trkpt>
      <trkpt lat="45.91776" lon="3.85238">
        <ele>752</ele>
        <time>2024-12-08T04:17:29.619Z</time>
      </trkpt>
      <trkpt lat="45.91775" lon="3.85239">
        <ele>753</ele>
        <time>2024-12-08T04:17:30.619Z</time>
      </trkpt>
      <trkpt lat="45.91774" lon="3.85241">
        <ele>753</ele>
        <time>2024-12-08T04:17:31.620Z</time>
      </trkpt>
      <trkpt lat="45.91774" lon="3.85242">
        <ele>753</ele>
        <time>2024-12-08T04:17:32.619Z</time>
      </trkpt>
      <trkpt lat="45.91773" lon="3.85244">
        <ele>754</ele>
        <time>2024-12-08T04:17:33.620Z</time>
      </trkpt>
      <trkpt lat="45.91773" lon="3.85245">
        <ele>754</ele>
        <time>2024-12-08T04:17:34.619Z</time>
      </trkpt>
      <trkpt lat="45.91773" lon="3.85247">
        <ele>754</ele>
        <time>2024-12-08T04:17:35.620Z</time>
      </trkpt>
      <trkpt lat="45.91772" lon="3.85248">
        <ele>754</ele>
        <time>2024-12-08T04:17:36.619Z</time>
      </trkpt>
      <trkpt lat="45.91772" lon="3.8525">
        <ele>754</ele>
        <time>2024-12-08T04:17:37.620Z</time>
      </trkpt>
      <trkpt lat="45.91772" lon="3.85251">
        <ele>754</ele>
        <time>2024-12-08T04:17:38.619Z</time>
      </trkpt>
      <trkpt lat="45.91772" lon="3.85253">
        <ele>754</ele>
        <time>2024-12-08T04:17:39.620Z</time>
      </trkpt>
      <trkpt lat="45.91771" lon="3.85255">
        <ele>753</ele>
        <time>2024-12-08T04:17:40.620Z</time>
      </trkpt>
      <trkpt lat="45.91771" lon="3.85257">
        <ele>753</ele>
        <time>2024-12-08T04:17:41.620Z</time>
      </trkpt>
      <trkpt lat="45.91771" lon="3.85258">
        <ele>753</ele>
        <time>2024-12-08T04:17:42.619Z</time>
      </trkpt>
      <trkpt lat="45.9177" lon="3.8526">
        <ele>754</ele>
        <time>2024-12-08T04:17:43.619Z</time>
      </trkpt>
      <trkpt lat="45.9177" lon="3.85261">
        <ele>754</ele>
        <time>2024-12-08T04:17:44.620Z</time>
      </trkpt>
      <trkpt lat="45.9177" lon="3.85263">
        <ele>754</ele>
        <time>2024-12-08T04:17:45.619Z</time>
      </trkpt>
      <trkpt lat="45.9177" lon="3.85264">
        <ele>754</ele>
        <time>2024-12-08T04:17:46.620Z</time>
      </trkpt>
      <trkpt lat="45.91769" lon="3.85265">
        <ele>754</ele>
        <time>2024-12-08T04:17:47.620Z</time>
      </trkpt>
      <trkpt lat="45.91769" lon="3.85266">
        <ele>754</ele>
        <time>2024-12-08T04:17:48.620Z</time>
      </trkpt>
      <trkpt lat="45.91769" lon="3.85267">
        <ele>754</ele>
        <time>2024-12-08T04:17:49.619Z</time>
      </trkpt>
      <trkpt lat="45.91769" lon="3.85269">
        <ele>754</ele>
        <time>2024-12-08T04:17:50.619Z</time>
      </trkpt>
      <trkpt lat="45.91769" lon="3.85271">
        <ele>755</ele>
        <time>2024-12-08T04:17:51.620Z</time>
      </trkpt>
      <trkpt lat="45.91769" lon="3.85273">
        <ele>755</ele>
        <time>2024-12-08T04:17:52.620Z</time>
      </trkpt>
      <trkpt lat="45.91769" lon="3.85274">
        <ele>755</ele>
        <time>2024-12-08T04:17:53.619Z</time>
      </trkpt>
      <trkpt lat="45.91769" lon="3.85276">
        <ele>755</ele>
        <time>2024-12-08T04:17:54.620Z</time>
      </trkpt>
      <trkpt lat="45.91769" lon="3.85277">
        <ele>756</ele>
        <time>2024-12-08T04:17:55.620Z</time>
      </trkpt>
      <trkpt lat="45.91769" lon="3.85279">
        <ele>756</ele>
        <time>2024-12-08T04:17:56.619Z</time>
      </trkpt>
      <trkpt lat="45.91768" lon="3.85281">
        <ele>756</ele>
        <time>2024-12-08T04:17:57.620Z</time>
      </trkpt>
      <trkpt lat="45.91767" lon="3.85283">
        <ele>757</ele>
        <time>2024-12-08T04:17:58.619Z</time>
      </trkpt>
      <trkpt lat="45.91767" lon="3.85284">
        <ele>757</ele>
        <time>2024-12-08T04:17:59.619Z</time>
      </trkpt>
      <trkpt lat="45.91766" lon="3.85285">
        <ele>757</ele>
        <time>2024-12-08T04:18:00.620Z</time>
      </trkpt>
      <trkpt lat="45.91766" lon="3.85286">
        <ele>757</ele>
        <time>2024-12-08T04:18:01.619Z</time>
      </trkpt>
      <trkpt lat="45.91765" lon="3.85286">
        <ele>758</ele>
        <time>2024-12-08T04:18:02.620Z</time>
      </trkpt>
      <trkpt lat="45.91765" lon="3.85287">
        <ele>758</ele>
        <time>2024-12-08T04:18:03.619Z</time>
      </trkpt>
      <trkpt lat="45.91764" lon="3.85289">
        <ele>758</ele>
        <time>2024-12-08T04:18:04.619Z</time>
      </trkpt>
      <trkpt lat="45.91764" lon="3.8529">
        <ele>759</ele>
        <time>2024-12-08T04:18:05.619Z</time>
      </trkpt>
      <trkpt lat="45.91764" lon="3.85291">
        <ele>759</ele>
        <time>2024-12-08T04:18:06.619Z</time>
      </trkpt>
      <trkpt lat="45.91763" lon="3.85293">
        <ele>759</ele>
        <time>2024-12-08T04:18:07.619Z</time>
      </trkpt>
      <trkpt lat="45.91763" lon="3.85295">
        <ele>759</ele>
        <time>2024-12-08T04:18:08.620Z</time>
      </trkpt>
      <trkpt lat="45.91762" lon="3.85296">
        <ele>759</ele>
        <time>2024-12-08T04:18:09.620Z</time>
      </trkpt>
      <trkpt lat="45.91763" lon="3.85297">
        <ele>760</ele>
        <time>2024-12-08T04:18:10.619Z</time>
      </trkpt>
      <trkpt lat="45.91762" lon="3.85299">
        <ele>760</ele>
        <time>2024-12-08T04:18:11.619Z</time>
      </trkpt>
      <trkpt lat="45.91762" lon="3.853">
        <ele>760</ele>
        <time>2024-12-08T04:18:12.619Z</time>
      </trkpt>
      <trkpt lat="45.91762" lon="3.85301">
        <ele>760</ele>
        <time>2024-12-08T04:18:13.619Z</time>
      </trkpt>
      <trkpt lat="45.91761" lon="3.85302">
        <ele>760</ele>
        <time>2024-12-08T04:18:14.619Z</time>
      </trkpt>
      <trkpt lat="45.91761" lon="3.85303">
        <ele>760</ele>
        <time>2024-12-08T04:18:15.619Z</time>
      </trkpt>
      <trkpt lat="45.91761" lon="3.85305">
        <ele>760</ele>
        <time>2024-12-08T04:18:16.619Z</time>
      </trkpt>
      <trkpt lat="45.9176" lon="3.85306">
        <ele>760</ele>
        <time>2024-12-08T04:18:17.619Z</time>
      </trkpt>
      <trkpt lat="45.9176" lon="3.85308">
        <ele>760</ele>
        <time>2024-12-08T04:18:18.619Z</time>
      </trkpt>
      <trkpt lat="45.9176" lon="3.85309">
        <ele>760</ele>
        <time>2024-12-08T04:18:19.619Z</time>
      </trkpt>
      <trkpt lat="45.91759" lon="3.8531">
        <ele>760</ele>
        <time>2024-12-08T04:18:20.619Z</time>
      </trkpt>
      <trkpt lat="45.91759" lon="3.85312">
        <ele>760</ele>
        <time>2024-12-08T04:18:21.620Z</time>
      </trkpt>
      <trkpt lat="45.91759" lon="3.85313">
        <ele>760</ele>
        <time>2024-12-08T04:18:22.619Z</time>
      </trkpt>
      <trkpt lat="45.91758" lon="3.85314">
        <ele>760</ele>
        <time>2024-12-08T04:18:23.619Z</time>
      </trkpt>
      <trkpt lat="45.91758" lon="3.85316">
        <ele>761</ele>
        <time>2024-12-08T04:18:24.619Z</time>
      </trkpt>
      <trkpt lat="45.91758" lon="3.85317">
        <ele>761</ele>
        <time>2024-12-08T04:18:25.620Z</time>
      </trkpt>
      <trkpt lat="45.91758" lon="3.85319">
        <ele>761</ele>
        <time>2024-12-08T04:18:26.620Z</time>
      </trkpt>
      <trkpt lat="45.91758" lon="3.8532">
        <ele>761</ele>
        <time>2024-12-08T04:18:27.619Z</time>
      </trkpt>
      <trkpt lat="45.91758" lon="3.85322">
        <ele>760</ele>
        <time>2024-12-08T04:18:28.620Z</time>
      </trkpt>
      <trkpt lat="45.91757" lon="3.85324">
        <ele>761</ele>
        <time>2024-12-08T04:18:29.619Z</time>
      </trkpt>
      <trkpt lat="45.91757" lon="3.85325">
        <ele>761</ele>
        <time>2024-12-08T04:18:30.620Z</time>
      </trkpt>
      <trkpt lat="45.91757" lon="3.85327">
        <ele>760</ele>
        <time>2024-12-08T04:18:31.619Z</time>
      </trkpt>
      <trkpt lat="45.91757" lon="3.85328">
        <ele>760</ele>
        <time>2024-12-08T04:18:32.620Z</time>
      </trkpt>
      <trkpt lat="45.91757" lon="3.8533">
        <ele>760</ele>
        <time>2024-12-08T04:18:33.619Z</time>
      </trkpt>
      <trkpt lat="45.91757" lon="3.85332">
        <ele>761</ele>
        <time>2024-12-08T04:18:34.619Z</time>
      </trkpt>
      <trkpt lat="45.91757" lon="3.85333">
        <ele>761</ele>
        <time>2024-12-08T04:18:35.620Z</time>
      </trkpt>
      <trkpt lat="45.91757" lon="3.85335">
        <ele>760</ele>
        <time>2024-12-08T04:18:36.619Z</time>
      </trkpt>
      <trkpt lat="45.91756" lon="3.85336">
        <ele>761</ele>
        <time>2024-12-08T04:18:37.620Z</time>
      </trkpt>
      <trkpt lat="45.91756" lon="3.85338">
        <ele>761</ele>
        <time>2024-12-08T04:18:38.619Z</time>
      </trkpt>
      <trkpt lat="45.91756" lon="3.85339">
        <ele>761</ele>
        <time>2024-12-08T04:18:39.620Z</time>
      </trkpt>
      <trkpt lat="45.91756" lon="3.85341">
        <ele>762</ele>
        <time>2024-12-08T04:18:40.620Z</time>
      </trkpt>
      <trkpt lat="45.91756" lon="3.85343">
        <ele>762</ele>
        <time>2024-12-08T04:18:41.619Z</time>
      </trkpt>
      <trkpt lat="45.91756" lon="3.85344">
        <ele>763</ele>
        <time>2024-12-08T04:18:42.619Z</time>
      </trkpt>
      <trkpt lat="45.91756" lon="3.85346">
        <ele>763</ele>
        <time>2024-12-08T04:18:43.619Z</time>
      </trkpt>
      <trkpt lat="45.91757" lon="3.85348">
        <ele>763</ele>
        <time>2024-12-08T04:18:44.619Z</time>
      </trkpt>
      <trkpt lat="45.91756" lon="3.8535">
        <ele>763</ele>
        <time>2024-12-08T04:18:45.620Z</time>
      </trkpt>
      <trkpt lat="45.91756" lon="3.85351">
        <ele>763</ele>
        <time>2024-12-08T04:18:46.619Z</time>
      </trkpt>
      <trkpt lat="45.91756" lon="3.85353">
        <ele>763</ele>
        <time>2024-12-08T04:18:47.619Z</time>
      </trkpt>
      <trkpt lat="45.91756" lon="3.85356">
        <ele>763</ele>
        <time>2024-12-08T04:18:48.620Z</time>
      </trkpt>
      <trkpt lat="45.91756" lon="3.85358">
        <ele>764</ele>
        <time>2024-12-08T04:18:49.619Z</time>
      </trkpt>
      <trkpt lat="45.91755" lon="3.85359">
        <ele>764</ele>
        <time>2024-12-08T04:18:50.620Z</time>
      </trkpt>
      <trkpt lat="45.91755" lon="3.85361">
        <ele>764</ele>
        <time>2024-12-08T04:18:51.620Z</time>
      </trkpt>
      <trkpt lat="45.91755" lon="3.85363">
        <ele>765</ele>
        <time>2024-12-08T04:18:52.619Z</time>
      </trkpt>
      <trkpt lat="45.91756" lon="3.85364">
        <ele>765</ele>
        <time>2024-12-08T04:18:53.620Z</time>
      </trkpt>
      <trkpt lat="45.91756" lon="3.85365">
        <ele>765</ele>
        <time>2024-12-08T04:18:54.619Z</time>
      </trkpt>
      <trkpt lat="45.91757" lon="3.85367">
        <ele>765</ele>
        <time>2024-12-08T04:18:55.620Z</time>
      </trkpt>
      <trkpt lat="45.91757" lon="3.85368">
        <ele>766</ele>
        <time>2024-12-08T04:18:56.619Z</time>
      </trkpt>
      <trkpt lat="45.91758" lon="3.8537">
        <ele>766</ele>
        <time>2024-12-08T04:18:57.619Z</time>
      </trkpt>
      <trkpt lat="45.91759" lon="3.85371">
        <ele>767</ele>
        <time>2024-12-08T04:18:58.620Z</time>
      </trkpt>
      <trkpt lat="45.91758" lon="3.85373">
        <ele>767</ele>
        <time>2024-12-08T04:18:59.620Z</time>
      </trkpt>
      <trkpt lat="45.91758" lon="3.85376">
        <ele>768</ele>
        <time>2024-12-08T04:19:00.619Z</time>
      </trkpt>
      <trkpt lat="45.91757" lon="3.85377">
        <ele>768</ele>
        <time>2024-12-08T04:19:01.620Z</time>
      </trkpt>
      <trkpt lat="45.91757" lon="3.85379">
        <ele>768</ele>
        <time>2024-12-08T04:19:02.619Z</time>
      </trkpt>
      <trkpt lat="45.91757" lon="3.85381">
        <ele>768</ele>
        <time>2024-12-08T04:19:03.620Z</time>
      </trkpt>
      <trkpt lat="45.91757" lon="3.85383">
        <ele>768</ele>
        <time>2024-12-08T04:19:04.619Z</time>
      </trkpt>
      <trkpt lat="45.91757" lon="3.85385">
        <ele>768</ele>
        <time>2024-12-08T04:19:05.620Z</time>
      </trkpt>
      <trkpt lat="45.91757" lon="3.85386">
        <ele>768</ele>
        <time>2024-12-08T04:19:06.619Z</time>
      </trkpt>
      <trkpt lat="45.91757" lon="3.85388">
        <ele>767</ele>
        <time>2024-12-08T04:19:07.620Z</time>
      </trkpt>
      <trkpt lat="45.91758" lon="3.85389">
        <ele>767</ele>
        <time>2024-12-08T04:19:08.619Z</time>
      </trkpt>
      <trkpt lat="45.91758" lon="3.85391">
        <ele>768</ele>
        <time>2024-12-08T04:19:09.619Z</time>
      </trkpt>
      <trkpt lat="45.91759" lon="3.85393">
        <ele>768</ele>
        <time>2024-12-08T04:19:10.620Z</time>
      </trkpt>
      <trkpt lat="45.91759" lon="3.85394">
        <ele>768</ele>
        <time>2024-12-08T04:19:11.620Z</time>
      </trkpt>
      <trkpt lat="45.9176" lon="3.85395">
        <ele>768</ele>
        <time>2024-12-08T04:19:12.620Z</time>
      </trkpt>
      <trkpt lat="45.91761" lon="3.85397">
        <ele>768</ele>
        <time>2024-12-08T04:19:13.620Z</time>
      </trkpt>
      <trkpt lat="45.91761" lon="3.85398">
        <ele>769</ele>
        <time>2024-12-08T04:19:14.620Z</time>
      </trkpt>
      <trkpt lat="45.91762" lon="3.854">
        <ele>769</ele>
        <time>2024-12-08T04:19:15.619Z</time>
      </trkpt>
      <trkpt lat="45.91762" lon="3.85401">
        <ele>769</ele>
        <time>2024-12-08T04:19:16.620Z</time>
      </trkpt>
      <trkpt lat="45.91762" lon="3.85403">
        <ele>769</ele>
        <time>2024-12-08T04:19:17.620Z</time>
      </trkpt>
      <trkpt lat="45.91763" lon="3.85404">
        <ele>770</ele>
        <time>2024-12-08T04:19:18.619Z</time>
      </trkpt>
      <trkpt lat="45.91764" lon="3.85405">
        <ele>770</ele>
        <time>2024-12-08T04:19:19.620Z</time>
      </trkpt>
      <trkpt lat="45.91765" lon="3.85407">
        <ele>771</ele>
        <time>2024-12-08T04:19:20.620Z</time>
      </trkpt>
      <trkpt lat="45.91766" lon="3.85408">
        <ele>771</ele>
        <time>2024-12-08T04:19:21.619Z</time>
      </trkpt>
      <trkpt lat="45.91767" lon="3.85409">
        <ele>771</ele>
        <time>2024-12-08T04:19:22.619Z</time>
      </trkpt>
      <trkpt lat="45.91768" lon="3.85409">
        <ele>771</ele>
        <time>2024-12-08T04:19:23.620Z</time>
      </trkpt>
      <trkpt lat="45.91768" lon="3.85411">
        <ele>771</ele>
        <time>2024-12-08T04:19:24.619Z</time>
      </trkpt>
      <trkpt lat="45.91769" lon="3.85411">
        <ele>770</ele>
        <time>2024-12-08T04:19:25.619Z</time>
      </trkpt>
      <trkpt lat="45.9177" lon="3.85413">
        <ele>770</ele>
        <time>2024-12-08T04:19:26.619Z</time>
      </trkpt>
      <trkpt lat="45.91771" lon="3.85414">
        <ele>770</ele>
        <time>2024-12-08T04:19:27.619Z</time>
      </trkpt>
      <trkpt lat="45.91772" lon="3.85416">
        <ele>770</ele>
        <time>2024-12-08T04:19:28.620Z</time>
      </trkpt>
      <trkpt lat="45.91773" lon="3.85417">
        <ele>770</ele>
        <time>2024-12-08T04:19:29.620Z</time>
      </trkpt>
      <trkpt lat="45.91774" lon="3.85418">
        <ele>770</ele>
        <time>2024-12-08T04:19:30.619Z</time>
      </trkpt>
      <trkpt lat="45.91775" lon="3.85419">
        <ele>770</ele>
        <time>2024-12-08T04:19:31.619Z</time>
      </trkpt>
      <trkpt lat="45.91776" lon="3.85419">
        <ele>770</ele>
        <time>2024-12-08T04:19:32.619Z</time>
      </trkpt>
      <trkpt lat="45.91777" lon="3.8542">
        <ele>770</ele>
        <time>2024-12-08T04:19:33.619Z</time>
      </trkpt>
      <trkpt lat="45.91778" lon="3.85421">
        <ele>770</ele>
        <time>2024-12-08T04:19:34.620Z</time>
      </trkpt>
      <trkpt lat="45.91779" lon="3.85422">
        <ele>770</ele>
        <time>2024-12-08T04:19:35.619Z</time>
      </trkpt>
      <trkpt lat="45.9178" lon="3.85423">
        <ele>770</ele>
        <time>2024-12-08T04:19:36.619Z</time>
      </trkpt>
      <trkpt lat="45.91781" lon="3.85424">
        <ele>770</ele>
        <time>2024-12-08T04:19:37.620Z</time>
      </trkpt>
      <trkpt lat="45.91782" lon="3.85425">
        <ele>770</ele>
        <time>2024-12-08T04:19:38.619Z</time>
      </trkpt>
      <trkpt lat="45.91783" lon="3.85426">
        <ele>770</ele>
        <time>2024-12-08T04:19:39.620Z</time>
      </trkpt>
      <trkpt lat="45.91785" lon="3.85427">
        <ele>770</ele>
        <time>2024-12-08T04:19:40.619Z</time>
      </trkpt>
      <trkpt lat="45.91786" lon="3.85427">
        <ele>770</ele>
        <time>2024-12-08T04:19:41.619Z</time>
      </trkpt>
      <trkpt lat="45.91787" lon="3.85428">
        <ele>770</ele>
        <time>2024-12-08T04:19:42.620Z</time>
      </trkpt>
      <trkpt lat="45.91789" lon="3.85429">
        <ele>770</ele>
        <time>2024-12-08T04:19:43.619Z</time>
      </trkpt>
      <trkpt lat="45.9179" lon="3.8543">
        <ele>770</ele>
        <time>2024-12-08T04:19:44.620Z</time>
      </trkpt>
      <trkpt lat="45.91791" lon="3.8543">
        <ele>770</ele>
        <time>2024-12-08T04:19:45.620Z</time>
      </trkpt>
      <trkpt lat="45.91791" lon="3.85431">
        <ele>770</ele>
        <time>2024-12-08T04:19:46.619Z</time>
      </trkpt>
      <trkpt lat="45.91792" lon="3.85431">
        <ele>771</ele>
        <time>2024-12-08T04:19:47.620Z</time>
      </trkpt>
      <trkpt lat="45.91794" lon="3.85432">
        <ele>771</ele>
        <time>2024-12-08T04:19:48.619Z</time>
      </trkpt>
      <trkpt lat="45.91795" lon="3.85432">
        <ele>771</ele>
        <time>2024-12-08T04:19:49.619Z</time>
      </trkpt>
      <trkpt lat="45.91796" lon="3.85433">
        <ele>771</ele>
        <time>2024-12-08T04:19:50.620Z</time>
      </trkpt>
      <trkpt lat="45.91797" lon="3.85433">
        <ele>771</ele>
        <time>2024-12-08T04:19:51.619Z</time>
      </trkpt>
      <trkpt lat="45.91798" lon="3.85434">
        <ele>771</ele>
        <time>2024-12-08T04:19:52.620Z</time>
      </trkpt>
      <trkpt lat="45.918" lon="3.85435">
        <ele>772</ele>
        <time>2024-12-08T04:19:53.619Z</time>
      </trkpt>
      <trkpt lat="45.91801" lon="3.85435">
        <ele>772</ele>
        <time>2024-12-08T04:19:54.619Z</time>
      </trkpt>
      <trkpt lat="45.91803" lon="3.85436">
        <ele>772</ele>
        <time>2024-12-08T04:19:55.620Z</time>
      </trkpt>
      <trkpt lat="45.91804" lon="3.85437">
        <ele>771</ele>
        <time>2024-12-08T04:19:56.620Z</time>
      </trkpt>
      <trkpt lat="45.91806" lon="3.85438">
        <ele>771</ele>
        <time>2024-12-08T04:19:57.619Z</time>
      </trkpt>
      <trkpt lat="45.91807" lon="3.85439">
        <ele>771</ele>
        <time>2024-12-08T04:19:58.619Z</time>
      </trkpt>
      <trkpt lat="45.91808" lon="3.8544">
        <ele>771</ele>
        <time>2024-12-08T04:19:59.620Z</time>
      </trkpt>
      <trkpt lat="45.91809" lon="3.85441">
        <ele>771</ele>
        <time>2024-12-08T04:20:00.619Z</time>
      </trkpt>
      <trkpt lat="45.9181" lon="3.85442">
        <ele>772</ele>
        <time>2024-12-08T04:20:01.620Z</time>
      </trkpt>
      <trkpt lat="45.91811" lon="3.85444">
        <ele>772</ele>
        <time>2024-12-08T04:20:02.620Z</time>
      </trkpt>
      <trkpt lat="45.91812" lon="3.85445">
        <ele>773</ele>
        <time>2024-12-08T04:20:03.619Z</time>
      </trkpt>
      <trkpt lat="45.91814" lon="3.85446">
        <ele>773</ele>
        <time>2024-12-08T04:20:04.620Z</time>
      </trkpt>
      <trkpt lat="45.91815" lon="3.85447">
        <ele>774</ele>
        <time>2024-12-08T04:20:05.619Z</time>
      </trkpt>
      <trkpt lat="45.91817" lon="3.85448">
        <ele>774</ele>
        <time>2024-12-08T04:20:06.619Z</time>
      </trkpt>
      <trkpt lat="45.91819" lon="3.8545">
        <ele>775</ele>
        <time>2024-12-08T04:20:07.619Z</time>
      </trkpt>
      <trkpt lat="45.9182" lon="3.85451">
        <ele>775</ele>
        <time>2024-12-08T04:20:08.620Z</time>
      </trkpt>
      <trkpt lat="45.91821" lon="3.85452">
        <ele>776</ele>
        <time>2024-12-08T04:20:09.620Z</time>
      </trkpt>
      <trkpt lat="45.91822" lon="3.85453">
        <ele>776</ele>
        <time>2024-12-08T04:20:10.619Z</time>
      </trkpt>
      <trkpt lat="45.91823" lon="3.85455">
        <ele>777</ele>
        <time>2024-12-08T04:20:11.620Z</time>
      </trkpt>
      <trkpt lat="45.91824" lon="3.85455">
        <ele>777</ele>
        <time>2024-12-08T04:20:12.619Z</time>
      </trkpt>
      <trkpt lat="45.91825" lon="3.85457">
        <ele>777</ele>
        <time>2024-12-08T04:20:13.619Z</time>
      </trkpt>
      <trkpt lat="45.91826" lon="3.85458">
        <ele>777</ele>
        <time>2024-12-08T04:20:14.620Z</time>
      </trkpt>
      <trkpt lat="45.91827" lon="3.85458">
        <ele>777</ele>
        <time>2024-12-08T04:20:15.620Z</time>
      </trkpt>
      <trkpt lat="45.91829" lon="3.85459">
        <ele>778</ele>
        <time>2024-12-08T04:20:16.619Z</time>
      </trkpt>
      <trkpt lat="45.9183" lon="3.8546">
        <ele>778</ele>
        <time>2024-12-08T04:20:17.619Z</time>
      </trkpt>
      <trkpt lat="45.91831" lon="3.85461">
        <ele>777</ele>
        <time>2024-12-08T04:20:18.620Z</time>
      </trkpt>
      <trkpt lat="45.91832" lon="3.85462">
        <ele>777</ele>
        <time>2024-12-08T04:20:19.620Z</time>
      </trkpt>
      <trkpt lat="45.91833" lon="3.85462">
        <ele>777</ele>
        <time>2024-12-08T04:20:20.620Z</time>
      </trkpt>
      <trkpt lat="45.91835" lon="3.85463">
        <ele>777</ele>
        <time>2024-12-08T04:20:21.620Z</time>
      </trkpt>
      <trkpt lat="45.91836" lon="3.85464">
        <ele>777</ele>
        <time>2024-12-08T04:20:22.620Z</time>
      </trkpt>
      <trkpt lat="45.91837" lon="3.85466">
        <ele>777</ele>
        <time>2024-12-08T04:20:23.619Z</time>
      </trkpt>
      <trkpt lat="45.91839" lon="3.85467">
        <ele>777</ele>
        <time>2024-12-08T04:20:24.620Z</time>
      </trkpt>
      <trkpt lat="45.9184" lon="3.85468">
        <ele>777</ele>
        <time>2024-12-08T04:20:25.620Z</time>
      </trkpt>
      <trkpt lat="45.91841" lon="3.85468">
        <ele>777</ele>
        <time>2024-12-08T04:20:26.620Z</time>
      </trkpt>
      <trkpt lat="45.91842" lon="3.85469">
        <ele>777</ele>
        <time>2024-12-08T04:20:27.619Z</time>
      </trkpt>
      <trkpt lat="45.91843" lon="3.8547">
        <ele>777</ele>
        <time>2024-12-08T04:20:28.620Z</time>
      </trkpt>
      <trkpt lat="45.91844" lon="3.85471">
        <ele>777</ele>
        <time>2024-12-08T04:20:29.620Z</time>
      </trkpt>
      <trkpt lat="45.91845" lon="3.85472">
        <ele>777</ele>
        <time>2024-12-08T04:20:30.619Z</time>
      </trkpt>
      <trkpt lat="45.91847" lon="3.85473">
        <ele>777</ele>
        <time>2024-12-08T04:20:31.620Z</time>
      </trkpt>
      <trkpt lat="45.91848" lon="3.85474">
        <ele>777</ele>
        <time>2024-12-08T04:20:32.619Z</time>
      </trkpt>
      <trkpt lat="45.91849" lon="3.85475">
        <ele>777</ele>
        <time>2024-12-08T04:20:33.620Z</time>
      </trkpt>
      <trkpt lat="45.9185" lon="3.85475">
        <ele>777</ele>
        <time>2024-12-08T04:20:34.620Z</time>
      </trkpt>
      <trkpt lat="45.91852" lon="3.85476">
        <ele>778</ele>
        <time>2024-12-08T04:20:35.619Z</time>
      </trkpt>
      <trkpt lat="45.91854" lon="3.85476">
        <ele>778</ele>
        <time>2024-12-08T04:20:36.620Z</time>
      </trkpt>
      <trkpt lat="45.91855" lon="3.85477">
        <ele>778</ele>
        <time>2024-12-08T04:20:37.619Z</time>
      </trkpt>
      <trkpt lat="45.91856" lon="3.85478">
        <ele>778</ele>
        <time>2024-12-08T04:20:38.619Z</time>
      </trkpt>
      <trkpt lat="45.91857" lon="3.85479">
        <ele>777</ele>
        <time>2024-12-08T04:20:39.620Z</time>
      </trkpt>
      <trkpt lat="45.91858" lon="3.8548">
        <ele>777</ele>
        <time>2024-12-08T04:20:40.619Z</time>
      </trkpt>
      <trkpt lat="45.91859" lon="3.85481">
        <ele>777</ele>
        <time>2024-12-08T04:20:41.619Z</time>
      </trkpt>
      <trkpt lat="45.91861" lon="3.85482">
        <ele>777</ele>
        <time>2024-12-08T04:20:42.619Z</time>
      </trkpt>
      <trkpt lat="45.91862" lon="3.85482">
        <ele>777</ele>
        <time>2024-12-08T04:20:43.620Z</time>
      </trkpt>
      <trkpt lat="45.91863" lon="3.85483">
        <ele>777</ele>
        <time>2024-12-08T04:20:44.620Z</time>
      </trkpt>
      <trkpt lat="45.91864" lon="3.85484">
        <ele>776</ele>
        <time>2024-12-08T04:20:45.620Z</time>
      </trkpt>
      <trkpt lat="45.91865" lon="3.85485">
        <ele>776</ele>
        <time>2024-12-08T04:20:46.620Z</time>
      </trkpt>
      <trkpt lat="45.91866" lon="3.85486">
        <ele>776</ele>
        <time>2024-12-08T04:20:47.620Z</time>
      </trkpt>
      <trkpt lat="45.91867" lon="3.85488">
        <ele>776</ele>
        <time>2024-12-08T04:20:48.619Z</time>
      </trkpt>
      <trkpt lat="45.91867" lon="3.8549">
        <ele>776</ele>
        <time>2024-12-08T04:20:49.619Z</time>
      </trkpt>
      <trkpt lat="45.91867" lon="3.85491">
        <ele>776</ele>
        <time>2024-12-08T04:20:50.619Z</time>
      </trkpt>
      <trkpt lat="45.91868" lon="3.85493">
        <ele>776</ele>
        <time>2024-12-08T04:20:51.619Z</time>
      </trkpt>
      <trkpt lat="45.91869" lon="3.85493">
        <ele>776</ele>
        <time>2024-12-08T04:20:52.619Z</time>
      </trkpt>
      <trkpt lat="45.9187" lon="3.85494">
        <ele>776</ele>
        <time>2024-12-08T04:20:53.620Z</time>
      </trkpt>
      <trkpt lat="45.91871" lon="3.85495">
        <ele>775</ele>
        <time>2024-12-08T04:20:54.619Z</time>
      </trkpt>
      <trkpt lat="45.91872" lon="3.85496">
        <ele>775</ele>
        <time>2024-12-08T04:20:55.619Z</time>
      </trkpt>
      <trkpt lat="45.91873" lon="3.85497">
        <ele>776</ele>
        <time>2024-12-08T04:20:56.619Z</time>
      </trkpt>
      <trkpt lat="45.91874" lon="3.85497">
        <ele>776</ele>
        <time>2024-12-08T04:20:57.620Z</time>
      </trkpt>
      <trkpt lat="45.91875" lon="3.85498">
        <ele>776</ele>
        <time>2024-12-08T04:20:58.619Z</time>
      </trkpt>
      <trkpt lat="45.91876" lon="3.85499">
        <ele>776</ele>
        <time>2024-12-08T04:20:59.619Z</time>
      </trkpt>
      <trkpt lat="45.91877" lon="3.855">
        <ele>776</ele>
        <time>2024-12-08T04:21:00.620Z</time>
      </trkpt>
      <trkpt lat="45.91878" lon="3.855">
        <ele>777</ele>
        <time>2024-12-08T04:21:01.619Z</time>
      </trkpt>
      <trkpt lat="45.9188" lon="3.85501">
        <ele>777</ele>
        <time>2024-12-08T04:21:02.620Z</time>
      </trkpt>
      <trkpt lat="45.91881" lon="3.85502">
        <ele>777</ele>
        <time>2024-12-08T04:21:03.620Z</time>
      </trkpt>
      <trkpt lat="45.91882" lon="3.85502">
        <ele>777</ele>
        <time>2024-12-08T04:21:04.620Z</time>
      </trkpt>
      <trkpt lat="45.91883" lon="3.85502">
        <ele>778</ele>
        <time>2024-12-08T04:21:05.619Z</time>
      </trkpt>
      <trkpt lat="45.91884" lon="3.85503">
        <ele>778</ele>
        <time>2024-12-08T04:21:06.620Z</time>
      </trkpt>
      <trkpt lat="45.91885" lon="3.85503">
        <ele>778</ele>
        <time>2024-12-08T04:21:07.619Z</time>
      </trkpt>
      <trkpt lat="45.91886" lon="3.85504">
        <ele>778</ele>
        <time>2024-12-08T04:21:08.620Z</time>
      </trkpt>
      <trkpt lat="45.91887" lon="3.85505">
        <ele>778</ele>
        <time>2024-12-08T04:21:09.619Z</time>
      </trkpt>
      <trkpt lat="45.91888" lon="3.85505">
        <ele>779</ele>
        <time>2024-12-08T04:21:10.620Z</time>
      </trkpt>
      <trkpt lat="45.91888" lon="3.85506">
        <ele>779</ele>
        <time>2024-12-08T04:21:11.619Z</time>
      </trkpt>
      <trkpt lat="45.91889" lon="3.85508">
        <ele>780</ele>
        <time>2024-12-08T04:21:12.619Z</time>
      </trkpt>
      <trkpt lat="45.9189" lon="3.85509">
        <ele>780</ele>
        <time>2024-12-08T04:21:13.620Z</time>
      </trkpt>
      <trkpt lat="45.91891" lon="3.8551">
        <ele>780</ele>
        <time>2024-12-08T04:21:14.619Z</time>
      </trkpt>
      <trkpt lat="45.91891" lon="3.8551">
        <ele>780</ele>
        <time>2024-12-08T04:21:15.619Z</time>
      </trkpt>
      <trkpt lat="45.91892" lon="3.85511">
        <ele>780</ele>
        <time>2024-12-08T04:21:16.620Z</time>
      </trkpt>
      <trkpt lat="45.91893" lon="3.85512">
        <ele>780</ele>
        <time>2024-12-08T04:21:17.620Z</time>
      </trkpt>
      <trkpt lat="45.91894" lon="3.85513">
        <ele>781</ele>
        <time>2024-12-08T04:21:18.620Z</time>
      </trkpt>
      <trkpt lat="45.91895" lon="3.85514">
        <ele>781</ele>
        <time>2024-12-08T04:21:19.619Z</time>
      </trkpt>
      <trkpt lat="45.91897" lon="3.85515">
        <ele>781</ele>
        <time>2024-12-08T04:21:20.620Z</time>
      </trkpt>
      <trkpt lat="45.91898" lon="3.85515">
        <ele>781</ele>
        <time>2024-12-08T04:21:21.619Z</time>
      </trkpt>
      <trkpt lat="45.91899" lon="3.85516">
        <ele>781</ele>
        <time>2024-12-08T04:21:22.620Z</time>
      </trkpt>
      <trkpt lat="45.919" lon="3.85517">
        <ele>781</ele>
        <time>2024-12-08T04:21:23.620Z</time>
      </trkpt>
      <trkpt lat="45.91901" lon="3.85518">
        <ele>782</ele>
        <time>2024-12-08T04:21:24.620Z</time>
      </trkpt>
      <trkpt lat="45.91902" lon="3.85518">
        <ele>782</ele>
        <time>2024-12-08T04:21:25.619Z</time>
      </trkpt>
      <trkpt lat="45.91904" lon="3.85519">
        <ele>782</ele>
        <time>2024-12-08T04:21:26.619Z</time>
      </trkpt>
      <trkpt lat="45.91905" lon="3.85519">
        <ele>782</ele>
        <time>2024-12-08T04:21:27.619Z</time>
      </trkpt>
      <trkpt lat="45.91906" lon="3.8552">
        <ele>783</ele>
        <time>2024-12-08T04:21:28.619Z</time>
      </trkpt>
      <trkpt lat="45.91908" lon="3.8552">
        <ele>783</ele>
        <time>2024-12-08T04:21:29.619Z</time>
      </trkpt>
      <trkpt lat="45.91909" lon="3.85521">
        <ele>783</ele>
        <time>2024-12-08T04:21:30.619Z</time>
      </trkpt>
      <trkpt lat="45.9191" lon="3.85522">
        <ele>783</ele>
        <time>2024-12-08T04:21:31.620Z</time>
      </trkpt>
      <trkpt lat="45.91912" lon="3.85522">
        <ele>784</ele>
        <time>2024-12-08T04:21:32.619Z</time>
      </trkpt>
      <trkpt lat="45.91913" lon="3.85522">
        <ele>784</ele>
        <time>2024-12-08T04:21:33.620Z</time>
      </trkpt>
      <trkpt lat="45.91914" lon="3.85524">
        <ele>784</ele>
        <time>2024-12-08T04:21:34.620Z</time>
      </trkpt>
      <trkpt lat="45.91915" lon="3.85525">
        <ele>784</ele>
        <time>2024-12-08T04:21:35.620Z</time>
      </trkpt>
      <trkpt lat="45.91916" lon="3.85525">
        <ele>785</ele>
        <time>2024-12-08T04:21:36.619Z</time>
      </trkpt>
      <trkpt lat="45.91918" lon="3.85526">
        <ele>785</ele>
        <time>2024-12-08T04:21:37.619Z</time>
      </trkpt>
      <trkpt lat="45.91919" lon="3.85527">
        <ele>785</ele>
        <time>2024-12-08T04:21:38.619Z</time>
      </trkpt>
      <trkpt lat="45.9192" lon="3.85528">
        <ele>785</ele>
        <time>2024-12-08T04:21:39.619Z</time>
      </trkpt>
      <trkpt lat="45.9192" lon="3.85529">
        <ele>786</ele>
        <time>2024-12-08T04:21:40.619Z</time>
      </trkpt>
      <trkpt lat="45.91921" lon="3.8553">
        <ele>786</ele>
        <time>2024-12-08T04:21:41.619Z</time>
      </trkpt>
      <trkpt lat="45.91921" lon="3.85531">
        <ele>786</ele>
        <time>2024-12-08T04:21:42.619Z</time>
      </trkpt>
      <trkpt lat="45.91921" lon="3.85532">
        <ele>787</ele>
        <time>2024-12-08T04:21:43.619Z</time>
      </trkpt>
      <trkpt lat="45.91922" lon="3.85532">
        <ele>787</ele>
        <time>2024-12-08T04:21:44.619Z</time>
      </trkpt>
      <trkpt lat="45.91923" lon="3.85532">
        <ele>788</ele>
        <time>2024-12-08T04:21:45.620Z</time>
      </trkpt>
      <trkpt lat="45.91924" lon="3.85533">
        <ele>788</ele>
        <time>2024-12-08T04:21:46.620Z</time>
      </trkpt>
      <trkpt lat="45.91925" lon="3.85533">
        <ele>788</ele>
        <time>2024-12-08T04:21:47.619Z</time>
      </trkpt>
      <trkpt lat="45.91926" lon="3.85534">
        <ele>788</ele>
        <time>2024-12-08T04:21:48.620Z</time>
      </trkpt>
      <trkpt lat="45.91926" lon="3.85536">
        <ele>789</ele>
        <time>2024-12-08T04:21:49.620Z</time>
      </trkpt>
      <trkpt lat="45.91927" lon="3.85537">
        <ele>789</ele>
        <time>2024-12-08T04:21:50.620Z</time>
      </trkpt>
      <trkpt lat="45.91928" lon="3.85537">
        <ele>789</ele>
        <time>2024-12-08T04:21:51.619Z</time>
      </trkpt>
      <trkpt lat="45.91929" lon="3.85538">
        <ele>789</ele>
        <time>2024-12-08T04:21:52.620Z</time>
      </trkpt>
      <trkpt lat="45.9193" lon="3.85538">
        <ele>789</ele>
        <time>2024-12-08T04:21:53.619Z</time>
      </trkpt>
      <trkpt lat="45.91932" lon="3.85539">
        <ele>789</ele>
        <time>2024-12-08T04:21:54.619Z</time>
      </trkpt>
      <trkpt lat="45.91932" lon="3.8554">
        <ele>789</ele>
        <time>2024-12-08T04:21:55.620Z</time>
      </trkpt>
      <trkpt lat="45.91933" lon="3.85541">
        <ele>789</ele>
        <time>2024-12-08T04:21:56.620Z</time>
      </trkpt>
      <trkpt lat="45.91934" lon="3.85542">
        <ele>789</ele>
        <time>2024-12-08T04:21:57.619Z</time>
      </trkpt>
      <trkpt lat="45.91935" lon="3.85543">
        <ele>790</ele>
        <time>2024-12-08T04:21:58.619Z</time>
      </trkpt>
      <trkpt lat="45.91935" lon="3.85545">
        <ele>790</ele>
        <time>2024-12-08T04:21:59.619Z</time>
      </trkpt>
      <trkpt lat="45.91936" lon="3.85546">
        <ele>790</ele>
        <time>2024-12-08T04:22:00.619Z</time>
      </trkpt>
      <trkpt lat="45.91937" lon="3.85547">
        <ele>790</ele>
        <time>2024-12-08T04:22:01.620Z</time>
      </trkpt>
      <trkpt lat="45.91939" lon="3.85547">
        <ele>790</ele>
        <time>2024-12-08T04:22:02.620Z</time>
      </trkpt>
      <trkpt lat="45.9194" lon="3.85547">
        <ele>790</ele>
        <time>2024-12-08T04:22:03.619Z</time>
      </trkpt>
      <trkpt lat="45.91941" lon="3.85548">
        <ele>790</ele>
        <time>2024-12-08T04:22:04.619Z</time>
      </trkpt>
      <trkpt lat="45.91942" lon="3.85549">
        <ele>790</ele>
        <time>2024-12-08T04:22:05.619Z</time>
      </trkpt>
      <trkpt lat="45.91944" lon="3.8555">
        <ele>790</ele>
        <time>2024-12-08T04:22:06.620Z</time>
      </trkpt>
      <trkpt lat="45.91945" lon="3.8555">
        <ele>791</ele>
        <time>2024-12-08T04:22:07.619Z</time>
      </trkpt>
      <trkpt lat="45.91946" lon="3.8555">
        <ele>791</ele>
        <time>2024-12-08T04:22:08.619Z</time>
      </trkpt>
      <trkpt lat="45.91947" lon="3.85551">
        <ele>791</ele>
        <time>2024-12-08T04:22:09.620Z</time>
      </trkpt>
      <trkpt lat="45.91948" lon="3.85552">
        <ele>791</ele>
        <time>2024-12-08T04:22:10.619Z</time>
      </trkpt>
      <trkpt lat="45.91949" lon="3.85553">
        <ele>791</ele>
        <time>2024-12-08T04:22:11.619Z</time>
      </trkpt>
      <trkpt lat="45.91951" lon="3.85554">
        <ele>791</ele>
        <time>2024-12-08T04:22:12.620Z</time>
      </trkpt>
      <trkpt lat="45.91952" lon="3.85555">
        <ele>792</ele>
        <time>2024-12-08T04:22:13.619Z</time>
      </trkpt>
      <trkpt lat="45.91953" lon="3.85556">
        <ele>792</ele>
        <time>2024-12-08T04:22:14.620Z</time>
      </trkpt>
      <trkpt lat="45.91954" lon="3.85556">
        <ele>792</ele>
        <time>2024-12-08T04:22:15.619Z</time>
      </trkpt>
      <trkpt lat="45.91955" lon="3.85557">
        <ele>792</ele>
        <time>2024-12-08T04:22:16.620Z</time>
      </trkpt>
      <trkpt lat="45.91955" lon="3.85557">
        <ele>792</ele>
        <time>2024-12-08T04:22:17.619Z</time>
      </trkpt>
      <trkpt lat="45.91957" lon="3.85558">
        <ele>792</ele>
        <time>2024-12-08T04:22:18.619Z</time>
      </trkpt>
      <trkpt lat="45.91958" lon="3.85559">
        <ele>792</ele>
        <time>2024-12-08T04:22:19.619Z</time>
      </trkpt>
      <trkpt lat="45.9196" lon="3.8556">
        <ele>792</ele>
        <time>2024-12-08T04:22:20.620Z</time>
      </trkpt>
      <trkpt lat="45.91961" lon="3.85561">
        <ele>792</ele>
        <time>2024-12-08T04:22:21.620Z</time>
      </trkpt>
      <trkpt lat="45.91963" lon="3.85562">
        <ele>792</ele>
        <time>2024-12-08T04:22:22.620Z</time>
      </trkpt>
      <trkpt lat="45.91965" lon="3.85562">
        <ele>793</ele>
        <time>2024-12-08T04:22:23.620Z</time>
      </trkpt>
      <trkpt lat="45.91967" lon="3.85564">
        <ele>793</ele>
        <time>2024-12-08T04:22:24.620Z</time>
      </trkpt>
      <trkpt lat="45.91967" lon="3.85565">
        <ele>793</ele>
        <time>2024-12-08T04:22:25.619Z</time>
      </trkpt>
      <trkpt lat="45.91968" lon="3.85565">
        <ele>794</ele>
        <time>2024-12-08T04:22:26.619Z</time>
      </trkpt>
      <trkpt lat="45.91968" lon="3.85566">
        <ele>794</ele>
        <time>2024-12-08T04:22:27.620Z</time>
      </trkpt>
      <trkpt lat="45.91969" lon="3.85567">
        <ele>794</ele>
        <time>2024-12-08T04:22:28.619Z</time>
      </trkpt>
      <trkpt lat="45.91971" lon="3.85567">
        <ele>794</ele>
        <time>2024-12-08T04:22:29.620Z</time>
      </trkpt>
      <trkpt lat="45.91973" lon="3.85568">
        <ele>794</ele>
        <time>2024-12-08T04:22:30.619Z</time>
      </trkpt>
      <trkpt lat="45.91972" lon="3.85569">
        <ele>795</ele>
        <time>2024-12-08T04:22:31.620Z</time>
      </trkpt>
      <trkpt lat="45.91972" lon="3.85571">
        <ele>795</ele>
        <time>2024-12-08T04:22:32.619Z</time>
      </trkpt>
      <trkpt lat="45.91972" lon="3.85573">
        <ele>795</ele>
        <time>2024-12-08T04:22:33.620Z</time>
      </trkpt>
      <trkpt lat="45.91973" lon="3.85574">
        <ele>794</ele>
        <time>2024-12-08T04:22:34.619Z</time>
      </trkpt>
      <trkpt lat="45.91973" lon="3.85575">
        <ele>794</ele>
        <time>2024-12-08T04:22:35.620Z</time>
      </trkpt>
      <trkpt lat="45.91974" lon="3.85575">
        <ele>794</ele>
        <time>2024-12-08T04:22:36.620Z</time>
      </trkpt>
      <trkpt lat="45.91975" lon="3.85576">
        <ele>794</ele>
        <time>2024-12-08T04:22:37.620Z</time>
      </trkpt>
      <trkpt lat="45.91977" lon="3.85575">
        <ele>794</ele>
        <time>2024-12-08T04:22:38.619Z</time>
      </trkpt>
      <trkpt lat="45.91979" lon="3.85576">
        <ele>794</ele>
        <time>2024-12-08T04:22:39.619Z</time>
      </trkpt>
      <trkpt lat="45.91981" lon="3.85576">
        <ele>795</ele>
        <time>2024-12-08T04:22:40.620Z</time>
      </trkpt>
      <trkpt lat="45.91982" lon="3.85577">
        <ele>795</ele>
        <time>2024-12-08T04:22:41.619Z</time>
      </trkpt>
      <trkpt lat="45.91983" lon="3.85578">
        <ele>795</ele>
        <time>2024-12-08T04:22:42.620Z</time>
      </trkpt>
      <trkpt lat="45.91985" lon="3.85578">
        <ele>796</ele>
        <time>2024-12-08T04:22:43.619Z</time>
      </trkpt>
      <trkpt lat="45.91986" lon="3.85579">
        <ele>796</ele>
        <time>2024-12-08T04:22:44.620Z</time>
      </trkpt>
      <trkpt lat="45.91986" lon="3.8558">
        <ele>796</ele>
        <time>2024-12-08T04:22:45.619Z</time>
      </trkpt>
      <trkpt lat="45.91987" lon="3.85581">
        <ele>796</ele>
        <time>2024-12-08T04:22:46.619Z</time>
      </trkpt>
      <trkpt lat="45.91989" lon="3.85582">
        <ele>797</ele>
        <time>2024-12-08T04:22:47.619Z</time>
      </trkpt>
      <trkpt lat="45.9199" lon="3.85582">
        <ele>797</ele>
        <time>2024-12-08T04:22:48.619Z</time>
      </trkpt>
      <trkpt lat="45.91991" lon="3.85582">
        <ele>797</ele>
        <time>2024-12-08T04:22:49.620Z</time>
      </trkpt>
      <trkpt lat="45.91991" lon="3.85582">
        <ele>797</ele>
        <time>2024-12-08T04:22:50.619Z</time>
      </trkpt>
      <trkpt lat="45.91992" lon="3.85583">
        <ele>798</ele>
        <time>2024-12-08T04:22:51.620Z</time>
      </trkpt>
      <trkpt lat="45.91993" lon="3.85583">
        <ele>798</ele>
        <time>2024-12-08T04:22:52.619Z</time>
      </trkpt>
      <trkpt lat="45.91994" lon="3.85583">
        <ele>798</ele>
        <time>2024-12-08T04:22:53.619Z</time>
      </trkpt>
      <trkpt lat="45.91995" lon="3.85584">
        <ele>799</ele>
        <time>2024-12-08T04:22:54.619Z</time>
      </trkpt>
      <trkpt lat="45.91996" lon="3.85584">
        <ele>799</ele>
        <time>2024-12-08T04:22:55.619Z</time>
      </trkpt>
      <trkpt lat="45.91997" lon="3.85585">
        <ele>800</ele>
        <time>2024-12-08T04:22:56.620Z</time>
      </trkpt>
      <trkpt lat="45.91997" lon="3.85586">
        <ele>801</ele>
        <time>2024-12-08T04:22:57.619Z</time>
      </trkpt>
      <trkpt lat="45.91998" lon="3.85587">
        <ele>801</ele>
        <time>2024-12-08T04:22:58.620Z</time>
      </trkpt>
      <trkpt lat="45.91999" lon="3.85588">
        <ele>802</ele>
        <time>2024-12-08T04:22:59.620Z</time>
      </trkpt>
      <trkpt lat="45.92" lon="3.85588">
        <ele>802</ele>
        <time>2024-12-08T04:23:00.619Z</time>
      </trkpt>
      <trkpt lat="45.92001" lon="3.85589">
        <ele>802</ele>
        <time>2024-12-08T04:23:01.619Z</time>
      </trkpt>
      <trkpt lat="45.92002" lon="3.85589">
        <ele>802</ele>
        <time>2024-12-08T04:23:02.620Z</time>
      </trkpt>
      <trkpt lat="45.92003" lon="3.85589">
        <ele>803</ele>
        <time>2024-12-08T04:23:03.620Z</time>
      </trkpt>
      <trkpt lat="45.92004" lon="3.8559">
        <ele>803</ele>
        <time>2024-12-08T04:23:04.620Z</time>
      </trkpt>
      <trkpt lat="45.92004" lon="3.85591">
        <ele>803</ele>
        <time>2024-12-08T04:23:05.619Z</time>
      </trkpt>
      <trkpt lat="45.92005" lon="3.85592">
        <ele>803</ele>
        <time>2024-12-08T04:23:06.619Z</time>
      </trkpt>
      <trkpt lat="45.92006" lon="3.85592">
        <ele>804</ele>
        <time>2024-12-08T04:23:07.620Z</time>
      </trkpt>
      <trkpt lat="45.92007" lon="3.85593">
        <ele>804</ele>
        <time>2024-12-08T04:23:08.620Z</time>
      </trkpt>
      <trkpt lat="45.92008" lon="3.85593">
        <ele>805</ele>
        <time>2024-12-08T04:23:09.619Z</time>
      </trkpt>
      <trkpt lat="45.92009" lon="3.85593">
        <ele>805</ele>
        <time>2024-12-08T04:23:10.619Z</time>
      </trkpt>
      <trkpt lat="45.9201" lon="3.85593">
        <ele>805</ele>
        <time>2024-12-08T04:23:11.619Z</time>
      </trkpt>
      <trkpt lat="45.92011" lon="3.85593">
        <ele>806</ele>
        <time>2024-12-08T04:23:12.619Z</time>
      </trkpt>
      <trkpt lat="45.92012" lon="3.85593">
        <ele>806</ele>
        <time>2024-12-08T04:23:13.619Z</time>
      </trkpt>
      <trkpt lat="45.92012" lon="3.85594">
        <ele>806</ele>
        <time>2024-12-08T04:23:14.620Z</time>
      </trkpt>
      <trkpt lat="45.92013" lon="3.85594">
        <ele>806</ele>
        <time>2024-12-08T04:23:15.620Z</time>
      </trkpt>
      <trkpt lat="45.92014" lon="3.85595">
        <ele>806</ele>
        <time>2024-12-08T04:23:16.620Z</time>
      </trkpt>
      <trkpt lat="45.92015" lon="3.85595">
        <ele>806</ele>
        <time>2024-12-08T04:23:17.620Z</time>
      </trkpt>
      <trkpt lat="45.92017" lon="3.85596">
        <ele>806</ele>
        <time>2024-12-08T04:23:18.620Z</time>
      </trkpt>
      <trkpt lat="45.92018" lon="3.85597">
        <ele>806</ele>
        <time>2024-12-08T04:23:19.620Z</time>
      </trkpt>
      <trkpt lat="45.92019" lon="3.85597">
        <ele>806</ele>
        <time>2024-12-08T04:23:20.620Z</time>
      </trkpt>
      <trkpt lat="45.9202" lon="3.85597">
        <ele>806</ele>
        <time>2024-12-08T04:23:21.620Z</time>
      </trkpt>
      <trkpt lat="45.92022" lon="3.85599">
        <ele>806</ele>
        <time>2024-12-08T04:23:22.619Z</time>
      </trkpt>
      <trkpt lat="45.92023" lon="3.85601">
        <ele>806</ele>
        <time>2024-12-08T04:23:23.619Z</time>
      </trkpt>
      <trkpt lat="45.92024" lon="3.85602">
        <ele>806</ele>
        <time>2024-12-08T04:23:24.619Z</time>
      </trkpt>
      <trkpt lat="45.92024" lon="3.85602">
        <ele>806</ele>
        <time>2024-12-08T04:23:25.619Z</time>
      </trkpt>
      <trkpt lat="45.92025" lon="3.85603">
        <ele>806</ele>
        <time>2024-12-08T04:23:26.620Z</time>
      </trkpt>
      <trkpt lat="45.92026" lon="3.85605">
        <ele>806</ele>
        <time>2024-12-08T04:23:27.620Z</time>
      </trkpt>
      <trkpt lat="45.92027" lon="3.85606">
        <ele>805</ele>
        <time>2024-12-08T04:23:28.619Z</time>
      </trkpt>
      <trkpt lat="45.92028" lon="3.85607">
        <ele>805</ele>
        <time>2024-12-08T04:23:29.619Z</time>
      </trkpt>
      <trkpt lat="45.92029" lon="3.85608">
        <ele>805</ele>
        <time>2024-12-08T04:23:30.619Z</time>
      </trkpt>
      <trkpt lat="45.9203" lon="3.85609">
        <ele>805</ele>
        <time>2024-12-08T04:23:31.620Z</time>
      </trkpt>
      <trkpt lat="45.9203" lon="3.85609">
        <ele>805</ele>
        <time>2024-12-08T04:23:32.620Z</time>
      </trkpt>
      <trkpt lat="45.92032" lon="3.8561">
        <ele>805</ele>
        <time>2024-12-08T04:23:33.620Z</time>
      </trkpt>
      <trkpt lat="45.92032" lon="3.8561">
        <ele>805</ele>
        <time>2024-12-08T04:23:34.620Z</time>
      </trkpt>
      <trkpt lat="45.92033" lon="3.85611">
        <ele>805</ele>
        <time>2024-12-08T04:23:35.619Z</time>
      </trkpt>
      <trkpt lat="45.92034" lon="3.85611">
        <ele>805</ele>
        <time>2024-12-08T04:23:36.619Z</time>
      </trkpt>
      <trkpt lat="45.92035" lon="3.85612">
        <ele>805</ele>
        <time>2024-12-08T04:23:37.620Z</time>
      </trkpt>
      <trkpt lat="45.92036" lon="3.85613">
        <ele>805</ele>
        <time>2024-12-08T04:23:38.620Z</time>
      </trkpt>
      <trkpt lat="45.92037" lon="3.85613">
        <ele>805</ele>
        <time>2024-12-08T04:23:39.620Z</time>
      </trkpt>
      <trkpt lat="45.92038" lon="3.85614">
        <ele>805</ele>
        <time>2024-12-08T04:23:40.620Z</time>
      </trkpt>
      <trkpt lat="45.92039" lon="3.85615">
        <ele>805</ele>
        <time>2024-12-08T04:23:41.620Z</time>
      </trkpt>
      <trkpt lat="45.92039" lon="3.85616">
        <ele>804</ele>
        <time>2024-12-08T04:23:42.620Z</time>
      </trkpt>
      <trkpt lat="45.9204" lon="3.85617">
        <ele>804</ele>
        <time>2024-12-08T04:23:43.619Z</time>
      </trkpt>
      <trkpt lat="45.92041" lon="3.85618">
        <ele>803</ele>
        <time>2024-12-08T04:23:44.620Z</time>
      </trkpt>
      <trkpt lat="45.92042" lon="3.85618">
        <ele>803</ele>
        <time>2024-12-08T04:23:45.620Z</time>
      </trkpt>
      <trkpt lat="45.92043" lon="3.85619">
        <ele>803</ele>
        <time>2024-12-08T04:23:46.619Z</time>
      </trkpt>
      <trkpt lat="45.92045" lon="3.8562">
        <ele>803</ele>
        <time>2024-12-08T04:23:47.619Z</time>
      </trkpt>
      <trkpt lat="45.92046" lon="3.85621">
        <ele>803</ele>
        <time>2024-12-08T04:23:48.620Z</time>
      </trkpt>
      <trkpt lat="45.92047" lon="3.85621">
        <ele>804</ele>
        <time>2024-12-08T04:23:49.620Z</time>
      </trkpt>
      <trkpt lat="45.92048" lon="3.85622">
        <ele>804</ele>
        <time>2024-12-08T04:23:50.619Z</time>
      </trkpt>
      <trkpt lat="45.92049" lon="3.85623">
        <ele>804</ele>
        <time>2024-12-08T04:23:51.620Z</time>
      </trkpt>
      <trkpt lat="45.9205" lon="3.85624">
        <ele>804</ele>
        <time>2024-12-08T04:23:52.619Z</time>
      </trkpt>
      <trkpt lat="45.92051" lon="3.85624">
        <ele>804</ele>
        <time>2024-12-08T04:23:53.620Z</time>
      </trkpt>
      <trkpt lat="45.92052" lon="3.85625">
        <ele>804</ele>
        <time>2024-12-08T04:23:54.620Z</time>
      </trkpt>
      <trkpt lat="45.92052" lon="3.85626">
        <ele>805</ele>
        <time>2024-12-08T04:23:55.619Z</time>
      </trkpt>
      <trkpt lat="45.92053" lon="3.85627">
        <ele>805</ele>
        <time>2024-12-08T04:23:56.620Z</time>
      </trkpt>
      <trkpt lat="45.92054" lon="3.85628">
        <ele>805</ele>
        <time>2024-12-08T04:23:57.620Z</time>
      </trkpt>
      <trkpt lat="45.92055" lon="3.8563">
        <ele>805</ele>
        <time>2024-12-08T04:23:58.620Z</time>
      </trkpt>
      <trkpt lat="45.92056" lon="3.8563">
        <ele>805</ele>
        <time>2024-12-08T04:23:59.620Z</time>
      </trkpt>
      <trkpt lat="45.92058" lon="3.85631">
        <ele>805</ele>
        <time>2024-12-08T04:24:00.620Z</time>
      </trkpt>
      <trkpt lat="45.92059" lon="3.85632">
        <ele>805</ele>
        <time>2024-12-08T04:24:01.620Z</time>
      </trkpt>
      <trkpt lat="45.9206" lon="3.85633">
        <ele>806</ele>
        <time>2024-12-08T04:24:02.620Z</time>
      </trkpt>
      <trkpt lat="45.92061" lon="3.85633">
        <ele>806</ele>
        <time>2024-12-08T04:24:03.619Z</time>
      </trkpt>
      <trkpt lat="45.92062" lon="3.85634">
        <ele>806</ele>
        <time>2024-12-08T04:24:04.619Z</time>
      </trkpt>
      <trkpt lat="45.92063" lon="3.85635">
        <ele>806</ele>
        <time>2024-12-08T04:24:05.620Z</time>
      </trkpt>
      <trkpt lat="45.92064" lon="3.85636">
        <ele>806</ele>
        <time>2024-12-08T04:24:06.620Z</time>
      </trkpt>
      <trkpt lat="45.92064" lon="3.85636">
        <ele>807</ele>
        <time>2024-12-08T04:24:07.619Z</time>
      </trkpt>
      <trkpt lat="45.92066" lon="3.85637">
        <ele>807</ele>
        <time>2024-12-08T04:24:08.620Z</time>
      </trkpt>
      <trkpt lat="45.92067" lon="3.85638">
        <ele>807</ele>
        <time>2024-12-08T04:24:09.620Z</time>
      </trkpt>
      <trkpt lat="45.92068" lon="3.85638">
        <ele>807</ele>
        <time>2024-12-08T04:24:10.620Z</time>
      </trkpt>
      <trkpt lat="45.92069" lon="3.85639">
        <ele>807</ele>
        <time>2024-12-08T04:24:11.620Z</time>
      </trkpt>
      <trkpt lat="45.9207" lon="3.8564">
        <ele>807</ele>
        <time>2024-12-08T04:24:12.619Z</time>
      </trkpt>
      <trkpt lat="45.92071" lon="3.85641">
        <ele>807</ele>
        <time>2024-12-08T04:24:13.619Z</time>
      </trkpt>
      <trkpt lat="45.92072" lon="3.85642">
        <ele>806</ele>
        <time>2024-12-08T04:24:14.620Z</time>
      </trkpt>
      <trkpt lat="45.92073" lon="3.85643">
        <ele>806</ele>
        <time>2024-12-08T04:24:15.619Z</time>
      </trkpt>
      <trkpt lat="45.92074" lon="3.85644">
        <ele>806</ele>
        <time>2024-12-08T04:24:16.620Z</time>
      </trkpt>
      <trkpt lat="45.92074" lon="3.85645">
        <ele>806</ele>
        <time>2024-12-08T04:24:17.619Z</time>
      </trkpt>
      <trkpt lat="45.92075" lon="3.85646">
        <ele>807</ele>
        <time>2024-12-08T04:24:18.619Z</time>
      </trkpt>
      <trkpt lat="45.92077" lon="3.85647">
        <ele>807</ele>
        <time>2024-12-08T04:24:19.619Z</time>
      </trkpt>
      <trkpt lat="45.92078" lon="3.85647">
        <ele>807</ele>
        <time>2024-12-08T04:24:20.620Z</time>
      </trkpt>
      <trkpt lat="45.92079" lon="3.85648">
        <ele>807</ele>
        <time>2024-12-08T04:24:21.620Z</time>
      </trkpt>
      <trkpt lat="45.9208" lon="3.85648">
        <ele>808</ele>
        <time>2024-12-08T04:24:22.620Z</time>
      </trkpt>
      <trkpt lat="45.92081" lon="3.85649">
        <ele>808</ele>
        <time>2024-12-08T04:24:23.620Z</time>
      </trkpt>
      <trkpt lat="45.92083" lon="3.85649">
        <ele>808</ele>
        <time>2024-12-08T04:24:24.620Z</time>
      </trkpt>
      <trkpt lat="45.92083" lon="3.8565">
        <ele>808</ele>
        <time>2024-12-08T04:24:25.620Z</time>
      </trkpt>
      <trkpt lat="45.92084" lon="3.85651">
        <ele>808</ele>
        <time>2024-12-08T04:24:26.619Z</time>
      </trkpt>
      <trkpt lat="45.92085" lon="3.85652">
        <ele>808</ele>
        <time>2024-12-08T04:24:27.619Z</time>
      </trkpt>
      <trkpt lat="45.92086" lon="3.85653">
        <ele>809</ele>
        <time>2024-12-08T04:24:28.620Z</time>
      </trkpt>
      <trkpt lat="45.92088" lon="3.85653">
        <ele>809</ele>
        <time>2024-12-08T04:24:29.619Z</time>
      </trkpt>
      <trkpt lat="45.92089" lon="3.85654">
        <ele>809</ele>
        <time>2024-12-08T04:24:30.619Z</time>
      </trkpt>
      <trkpt lat="45.92089" lon="3.85654">
        <ele>809</ele>
        <time>2024-12-08T04:24:31.620Z</time>
      </trkpt>
      <trkpt lat="45.92091" lon="3.85655">
        <ele>809</ele>
        <time>2024-12-08T04:24:32.619Z</time>
      </trkpt>
      <trkpt lat="45.92092" lon="3.85655">
        <ele>808</ele>
        <time>2024-12-08T04:24:33.620Z</time>
      </trkpt>
      <trkpt lat="45.92093" lon="3.85656">
        <ele>809</ele>
        <time>2024-12-08T04:24:34.619Z</time>
      </trkpt>
      <trkpt lat="45.92094" lon="3.85657">
        <ele>809</ele>
        <time>2024-12-08T04:24:35.619Z</time>
      </trkpt>
      <trkpt lat="45.92095" lon="3.85658">
        <ele>809</ele>
        <time>2024-12-08T04:24:36.619Z</time>
      </trkpt>
      <trkpt lat="45.92095" lon="3.85659">
        <ele>809</ele>
        <time>2024-12-08T04:24:37.620Z</time>
      </trkpt>
      <trkpt lat="45.92096" lon="3.8566">
        <ele>809</ele>
        <time>2024-12-08T04:24:38.620Z</time>
      </trkpt>
      <trkpt lat="45.92097" lon="3.8566">
        <ele>809</ele>
        <time>2024-12-08T04:24:39.619Z</time>
      </trkpt>
      <trkpt lat="45.92099" lon="3.8566">
        <ele>809</ele>
        <time>2024-12-08T04:24:40.620Z</time>
      </trkpt>
      <trkpt lat="45.921" lon="3.85661">
        <ele>810</ele>
        <time>2024-12-08T04:24:41.619Z</time>
      </trkpt>
      <trkpt lat="45.92101" lon="3.85662">
        <ele>810</ele>
        <time>2024-12-08T04:24:42.620Z</time>
      </trkpt>
      <trkpt lat="45.92102" lon="3.85662">
        <ele>810</ele>
        <time>2024-12-08T04:24:43.619Z</time>
      </trkpt>
      <trkpt lat="45.92103" lon="3.85663">
        <ele>810</ele>
        <time>2024-12-08T04:24:44.620Z</time>
      </trkpt>
      <trkpt lat="45.92103" lon="3.85664">
        <ele>810</ele>
        <time>2024-12-08T04:24:45.619Z</time>
      </trkpt>
      <trkpt lat="45.92104" lon="3.85665">
        <ele>810</ele>
        <time>2024-12-08T04:24:46.619Z</time>
      </trkpt>
      <trkpt lat="45.92105" lon="3.85666">
        <ele>811</ele>
        <time>2024-12-08T04:24:47.620Z</time>
      </trkpt>
      <trkpt lat="45.92106" lon="3.85667">
        <ele>811</ele>
        <time>2024-12-08T04:24:48.619Z</time>
      </trkpt>
      <trkpt lat="45.92107" lon="3.85667">
        <ele>811</ele>
        <time>2024-12-08T04:24:49.620Z</time>
      </trkpt>
      <trkpt lat="45.92109" lon="3.85667">
        <ele>811</ele>
        <time>2024-12-08T04:24:50.620Z</time>
      </trkpt>
      <trkpt lat="45.9211" lon="3.85668">
        <ele>811</ele>
        <time>2024-12-08T04:24:51.619Z</time>
      </trkpt>
      <trkpt lat="45.92111" lon="3.85669">
        <ele>811</ele>
        <time>2024-12-08T04:24:52.619Z</time>
      </trkpt>
      <trkpt lat="45.92112" lon="3.85669">
        <ele>811</ele>
        <time>2024-12-08T04:24:53.619Z</time>
      </trkpt>
      <trkpt lat="45.92113" lon="3.8567">
        <ele>811</ele>
        <time>2024-12-08T04:24:54.619Z</time>
      </trkpt>
      <trkpt lat="45.92114" lon="3.85671">
        <ele>811</ele>
        <time>2024-12-08T04:24:55.619Z</time>
      </trkpt>
      <trkpt lat="45.92115" lon="3.85672">
        <ele>811</ele>
        <time>2024-12-08T04:24:56.620Z</time>
      </trkpt>
      <trkpt lat="45.92116" lon="3.85673">
        <ele>812</ele>
        <time>2024-12-08T04:24:57.620Z</time>
      </trkpt>
      <trkpt lat="45.92116" lon="3.85674">
        <ele>812</ele>
        <time>2024-12-08T04:24:58.619Z</time>
      </trkpt>
      <trkpt lat="45.92117" lon="3.85675">
        <ele>812</ele>
        <time>2024-12-08T04:24:59.619Z</time>
      </trkpt>
      <trkpt lat="45.92118" lon="3.85675">
        <ele>813</ele>
        <time>2024-12-08T04:25:00.619Z</time>
      </trkpt>
      <trkpt lat="45.92119" lon="3.85676">
        <ele>813</ele>
        <time>2024-12-08T04:25:01.619Z</time>
      </trkpt>
      <trkpt lat="45.92119" lon="3.85677">
        <ele>813</ele>
        <time>2024-12-08T04:25:02.619Z</time>
      </trkpt>
      <trkpt lat="45.9212" lon="3.85678">
        <ele>813</ele>
        <time>2024-12-08T04:25:03.620Z</time>
      </trkpt>
      <trkpt lat="45.92121" lon="3.85679">
        <ele>813</ele>
        <time>2024-12-08T04:25:04.619Z</time>
      </trkpt>
      <trkpt lat="45.92123" lon="3.8568">
        <ele>813</ele>
        <time>2024-12-08T04:25:05.620Z</time>
      </trkpt>
      <trkpt lat="45.92124" lon="3.8568">
        <ele>813</ele>
        <time>2024-12-08T04:25:06.620Z</time>
      </trkpt>
      <trkpt lat="45.92125" lon="3.85681">
        <ele>812</ele>
        <time>2024-12-08T04:25:07.619Z</time>
      </trkpt>
      <trkpt lat="45.92126" lon="3.85682">
        <ele>812</ele>
        <time>2024-12-08T04:25:08.619Z</time>
      </trkpt>
      <trkpt lat="45.92126" lon="3.85682">
        <ele>812</ele>
        <time>2024-12-08T04:25:09.620Z</time>
      </trkpt>
      <trkpt lat="45.92127" lon="3.85683">
        <ele>812</ele>
        <time>2024-12-08T04:25:10.619Z</time>
      </trkpt>
      <trkpt lat="45.92128" lon="3.85684">
        <ele>812</ele>
        <time>2024-12-08T04:25:11.619Z</time>
      </trkpt>
      <trkpt lat="45.92129" lon="3.85684">
        <ele>812</ele>
        <time>2024-12-08T04:25:12.620Z</time>
      </trkpt>
      <trkpt lat="45.9213" lon="3.85684">
        <ele>813</ele>
        <time>2024-12-08T04:25:13.619Z</time>
      </trkpt>
      <trkpt lat="45.9213" lon="3.85684">
        <ele>813</ele>
        <time>2024-12-08T04:25:14.619Z</time>
      </trkpt>
      <trkpt lat="45.92131" lon="3.85685">
        <ele>813</ele>
        <time>2024-12-08T04:25:15.619Z</time>
      </trkpt>
      <trkpt lat="45.92133" lon="3.85685">
        <ele>813</ele>
        <time>2024-12-08T04:25:16.619Z</time>
      </trkpt>
      <trkpt lat="45.92134" lon="3.85686">
        <ele>813</ele>
        <time>2024-12-08T04:25:17.620Z</time>
      </trkpt>
      <trkpt lat="45.92135" lon="3.85687">
        <ele>814</ele>
        <time>2024-12-08T04:25:18.619Z</time>
      </trkpt>
      <trkpt lat="45.92136" lon="3.85688">
        <ele>814</ele>
        <time>2024-12-08T04:25:19.620Z</time>
      </trkpt>
      <trkpt lat="45.92137" lon="3.85689">
        <ele>815</ele>
        <time>2024-12-08T04:25:20.619Z</time>
      </trkpt>
      <trkpt lat="45.92138" lon="3.85689">
        <ele>815</ele>
        <time>2024-12-08T04:25:21.619Z</time>
      </trkpt>
      <trkpt lat="45.92138" lon="3.8569">
        <ele>815</ele>
        <time>2024-12-08T04:25:22.620Z</time>
      </trkpt>
      <trkpt lat="45.92139" lon="3.85691">
        <ele>815</ele>
        <time>2024-12-08T04:25:23.620Z</time>
      </trkpt>
      <trkpt lat="45.9214" lon="3.85691">
        <ele>815</ele>
        <time>2024-12-08T04:25:24.619Z</time>
      </trkpt>
      <trkpt lat="45.92141" lon="3.85692">
        <ele>815</ele>
        <time>2024-12-08T04:25:25.619Z</time>
      </trkpt>
      <trkpt lat="45.92141" lon="3.85693">
        <ele>815</ele>
        <time>2024-12-08T04:25:26.619Z</time>
      </trkpt>
      <trkpt lat="45.92142" lon="3.85694">
        <ele>815</ele>
        <time>2024-12-08T04:25:27.620Z</time>
      </trkpt>
      <trkpt lat="45.92143" lon="3.85694">
        <ele>815</ele>
        <time>2024-12-08T04:25:28.620Z</time>
      </trkpt>
      <trkpt lat="45.92143" lon="3.85694">
        <ele>815</ele>
        <time>2024-12-08T04:25:29.619Z</time>
      </trkpt>
      <trkpt lat="45.92144" lon="3.85694">
        <ele>816</ele>
        <time>2024-12-08T04:25:30.620Z</time>
      </trkpt>
      <trkpt lat="45.92145" lon="3.85695">
        <ele>816</ele>
        <time>2024-12-08T04:25:31.619Z</time>
      </trkpt>
      <trkpt lat="45.92145" lon="3.85695">
        <ele>816</ele>
        <time>2024-12-08T04:25:32.619Z</time>
      </trkpt>
      <trkpt lat="45.92146" lon="3.85696">
        <ele>816</ele>
        <time>2024-12-08T04:25:33.619Z</time>
      </trkpt>
      <trkpt lat="45.92147" lon="3.85697">
        <ele>816</ele>
        <time>2024-12-08T04:25:34.619Z</time>
      </trkpt>
      <trkpt lat="45.92148" lon="3.85698">
        <ele>816</ele>
        <time>2024-12-08T04:25:35.620Z</time>
      </trkpt>
      <trkpt lat="45.92149" lon="3.85699">
        <ele>816</ele>
        <time>2024-12-08T04:25:36.620Z</time>
      </trkpt>
      <trkpt lat="45.9215" lon="3.857">
        <ele>816</ele>
        <time>2024-12-08T04:25:37.619Z</time>
      </trkpt>
      <trkpt lat="45.9215" lon="3.85701">
        <ele>816</ele>
        <time>2024-12-08T04:25:38.620Z</time>
      </trkpt>
      <trkpt lat="45.92151" lon="3.85702">
        <ele>816</ele>
        <time>2024-12-08T04:25:39.619Z</time>
      </trkpt>
      <trkpt lat="45.92153" lon="3.85702">
        <ele>815</ele>
        <time>2024-12-08T04:25:40.619Z</time>
      </trkpt>
      <trkpt lat="45.92153" lon="3.85703">
        <ele>815</ele>
        <time>2024-12-08T04:25:41.620Z</time>
      </trkpt>
      <trkpt lat="45.92155" lon="3.85703">
        <ele>815</ele>
        <time>2024-12-08T04:25:42.620Z</time>
      </trkpt>
      <trkpt lat="45.92156" lon="3.85703">
        <ele>815</ele>
        <time>2024-12-08T04:25:43.620Z</time>
      </trkpt>
      <trkpt lat="45.92157" lon="3.85703">
        <ele>815</ele>
        <time>2024-12-08T04:25:44.619Z</time>
      </trkpt>
      <trkpt lat="45.92159" lon="3.85704">
        <ele>815</ele>
        <time>2024-12-08T04:25:45.620Z</time>
      </trkpt>
      <trkpt lat="45.9216" lon="3.85705">
        <ele>815</ele>
        <time>2024-12-08T04:25:46.620Z</time>
      </trkpt>
      <trkpt lat="45.92161" lon="3.85705">
        <ele>815</ele>
        <time>2024-12-08T04:25:47.619Z</time>
      </trkpt>
      <trkpt lat="45.92162" lon="3.85705">
        <ele>816</ele>
        <time>2024-12-08T04:25:48.619Z</time>
      </trkpt>
      <trkpt lat="45.92164" lon="3.85705">
        <ele>816</ele>
        <time>2024-12-08T04:25:49.619Z</time>
      </trkpt>
      <trkpt lat="45.92165" lon="3.85705">
        <ele>816</ele>
        <time>2024-12-08T04:25:50.619Z</time>
      </trkpt>
      <trkpt lat="45.92167" lon="3.85705">
        <ele>817</ele>
        <time>2024-12-08T04:25:51.620Z</time>
      </trkpt>
      <trkpt lat="45.92168" lon="3.85705">
        <ele>817</ele>
        <time>2024-12-08T04:25:52.620Z</time>
      </trkpt>
      <trkpt lat="45.92169" lon="3.85705">
        <ele>817</ele>
        <time>2024-12-08T04:25:53.620Z</time>
      </trkpt>
      <trkpt lat="45.9217" lon="3.85706">
        <ele>817</ele>
        <time>2024-12-08T04:25:54.620Z</time>
      </trkpt>
      <trkpt lat="45.92171" lon="3.85706">
        <ele>817</ele>
        <time>2024-12-08T04:25:55.620Z</time>
      </trkpt>
      <trkpt lat="45.92172" lon="3.85706">
        <ele>817</ele>
        <time>2024-12-08T04:25:56.619Z</time>
      </trkpt>
      <trkpt lat="45.92173" lon="3.85706">
        <ele>817</ele>
        <time>2024-12-08T04:25:57.619Z</time>
      </trkpt>
      <trkpt lat="45.92173" lon="3.85706">
        <ele>817</ele>
        <time>2024-12-08T04:25:58.620Z</time>
      </trkpt>
      <trkpt lat="45.92175" lon="3.85706">
        <ele>818</ele>
        <time>2024-12-08T04:25:59.620Z</time>
      </trkpt>
      <trkpt lat="45.92176" lon="3.85706">
        <ele>818</ele>
        <time>2024-12-08T04:26:00.619Z</time>
      </trkpt>
      <trkpt lat="45.92177" lon="3.85706">
        <ele>818</ele>
        <time>2024-12-08T04:26:01.620Z</time>
      </trkpt>
      <trkpt lat="45.92178" lon="3.85706">
        <ele>818</ele>
        <time>2024-12-08T04:26:02.619Z</time>
      </trkpt>
      <trkpt lat="45.92179" lon="3.85706">
        <ele>818</ele>
        <time>2024-12-08T04:26:03.620Z</time>
      </trkpt>
      <trkpt lat="45.9218" lon="3.85706">
        <ele>818</ele>
        <time>2024-12-08T04:26:04.619Z</time>
      </trkpt>
      <trkpt lat="45.92181" lon="3.85707">
        <ele>818</ele>
        <time>2024-12-08T04:26:05.620Z</time>
      </trkpt>
      <trkpt lat="45.92182" lon="3.85707">
        <ele>818</ele>
        <time>2024-12-08T04:26:06.620Z</time>
      </trkpt>
      <trkpt lat="45.92182" lon="3.85707">
        <ele>818</ele>
        <time>2024-12-08T04:26:07.619Z</time>
      </trkpt>
      <trkpt lat="45.92183" lon="3.85707">
        <ele>819</ele>
        <time>2024-12-08T04:26:08.619Z</time>
      </trkpt>
      <trkpt lat="45.92184" lon="3.85707">
        <ele>819</ele>
        <time>2024-12-08T04:26:09.619Z</time>
      </trkpt>
      <trkpt lat="45.92185" lon="3.85707">
        <ele>820</ele>
        <time>2024-12-08T04:26:10.620Z</time>
      </trkpt>
      <trkpt lat="45.92186" lon="3.85706">
        <ele>820</ele>
        <time>2024-12-08T04:26:11.620Z</time>
      </trkpt>
      <trkpt lat="45.92188" lon="3.85706">
        <ele>820</ele>
        <time>2024-12-08T04:26:12.620Z</time>
      </trkpt>
      <trkpt lat="45.92188" lon="3.85705">
        <ele>821</ele>
        <time>2024-12-08T04:26:13.619Z</time>
      </trkpt>
      <trkpt lat="45.9219" lon="3.85705">
        <ele>821</ele>
        <time>2024-12-08T04:26:14.620Z</time>
      </trkpt>
      <trkpt lat="45.92192" lon="3.85704">
        <ele>821</ele>
        <time>2024-12-08T04:26:15.620Z</time>
      </trkpt>
      <trkpt lat="45.92193" lon="3.85704">
        <ele>822</ele>
        <time>2024-12-08T04:26:16.619Z</time>
      </trkpt>
      <trkpt lat="45.92194" lon="3.85704">
        <ele>822</ele>
        <time>2024-12-08T04:26:17.620Z</time>
      </trkpt>
      <trkpt lat="45.92195" lon="3.85704">
        <ele>822</ele>
        <time>2024-12-08T04:26:18.620Z</time>
      </trkpt>
      <trkpt lat="45.92196" lon="3.85704">
        <ele>822</ele>
        <time>2024-12-08T04:26:19.620Z</time>
      </trkpt>
      <trkpt lat="45.92197" lon="3.85703">
        <ele>822</ele>
        <time>2024-12-08T04:26:20.619Z</time>
      </trkpt>
      <trkpt lat="45.92198" lon="3.85703">
        <ele>822</ele>
        <time>2024-12-08T04:26:21.620Z</time>
      </trkpt>
      <trkpt lat="45.922" lon="3.85703">
        <ele>822</ele>
        <time>2024-12-08T04:26:22.620Z</time>
      </trkpt>
      <trkpt lat="45.92201" lon="3.85702">
        <ele>822</ele>
        <time>2024-12-08T04:26:23.619Z</time>
      </trkpt>
      <trkpt lat="45.92202" lon="3.85702">
        <ele>822</ele>
        <time>2024-12-08T04:26:24.619Z</time>
      </trkpt>
      <trkpt lat="45.92203" lon="3.85702">
        <ele>822</ele>
        <time>2024-12-08T04:26:25.619Z</time>
      </trkpt>
      <trkpt lat="45.92204" lon="3.85702">
        <ele>821</ele>
        <time>2024-12-08T04:26:26.620Z</time>
      </trkpt>
      <trkpt lat="45.92206" lon="3.85701">
        <ele>821</ele>
        <time>2024-12-08T04:26:27.619Z</time>
      </trkpt>
      <trkpt lat="45.92207" lon="3.85701">
        <ele>821</ele>
        <time>2024-12-08T04:26:28.619Z</time>
      </trkpt>
      <trkpt lat="45.92208" lon="3.85701">
        <ele>821</ele>
        <time>2024-12-08T04:26:29.619Z</time>
      </trkpt>
      <trkpt lat="45.92209" lon="3.857">
        <ele>822</ele>
        <time>2024-12-08T04:26:30.619Z</time>
      </trkpt>
      <trkpt lat="45.9221" lon="3.857">
        <ele>822</ele>
        <time>2024-12-08T04:26:31.619Z</time>
      </trkpt>
      <trkpt lat="45.92211" lon="3.857">
        <ele>822</ele>
        <time>2024-12-08T04:26:32.619Z</time>
      </trkpt>
      <trkpt lat="45.92212" lon="3.857">
        <ele>822</ele>
        <time>2024-12-08T04:26:33.619Z</time>
      </trkpt>
      <trkpt lat="45.92214" lon="3.857">
        <ele>822</ele>
        <time>2024-12-08T04:26:34.619Z</time>
      </trkpt>
      <trkpt lat="45.92215" lon="3.857">
        <ele>822</ele>
        <time>2024-12-08T04:26:35.619Z</time>
      </trkpt>
      <trkpt lat="45.92216" lon="3.857">
        <ele>822</ele>
        <time>2024-12-08T04:26:36.619Z</time>
      </trkpt>
      <trkpt lat="45.92217" lon="3.857">
        <ele>822</ele>
        <time>2024-12-08T04:26:37.620Z</time>
      </trkpt>
      <trkpt lat="45.92218" lon="3.857">
        <ele>822</ele>
        <time>2024-12-08T04:26:38.620Z</time>
      </trkpt>
      <trkpt lat="45.92219" lon="3.857">
        <ele>823</ele>
        <time>2024-12-08T04:26:39.620Z</time>
      </trkpt>
      <trkpt lat="45.9222" lon="3.857">
        <ele>823</ele>
        <time>2024-12-08T04:26:40.620Z</time>
      </trkpt>
      <trkpt lat="45.92221" lon="3.85701">
        <ele>823</ele>
        <time>2024-12-08T04:26:41.620Z</time>
      </trkpt>
      <trkpt lat="45.92222" lon="3.85701">
        <ele>823</ele>
        <time>2024-12-08T04:26:42.620Z</time>
      </trkpt>
      <trkpt lat="45.92223" lon="3.85701">
        <ele>823</ele>
        <time>2024-12-08T04:26:43.619Z</time>
      </trkpt>
      <trkpt lat="45.92224" lon="3.85701">
        <ele>823</ele>
        <time>2024-12-08T04:26:44.619Z</time>
      </trkpt>
      <trkpt lat="45.92225" lon="3.85701">
        <ele>824</ele>
        <time>2024-12-08T04:26:45.620Z</time>
      </trkpt>
      <trkpt lat="45.92226" lon="3.85701">
        <ele>824</ele>
        <time>2024-12-08T04:26:46.620Z</time>
      </trkpt>
      <trkpt lat="45.92227" lon="3.85701">
        <ele>824</ele>
        <time>2024-12-08T04:26:47.619Z</time>
      </trkpt>
      <trkpt lat="45.92227" lon="3.85701">
        <ele>824</ele>
        <time>2024-12-08T04:26:48.619Z</time>
      </trkpt>
      <trkpt lat="45.92228" lon="3.85701">
        <ele>824</ele>
        <time>2024-12-08T04:26:49.620Z</time>
      </trkpt>
      <trkpt lat="45.92229" lon="3.85701">
        <ele>824</ele>
        <time>2024-12-08T04:26:50.619Z</time>
      </trkpt>
      <trkpt lat="45.9223" lon="3.85701">
        <ele>824</ele>
        <time>2024-12-08T04:26:51.619Z</time>
      </trkpt>
      <trkpt lat="45.92231" lon="3.85701">
        <ele>824</ele>
        <time>2024-12-08T04:26:52.619Z</time>
      </trkpt>
      <trkpt lat="45.92232" lon="3.85701">
        <ele>824</ele>
        <time>2024-12-08T04:26:53.619Z</time>
      </trkpt>
      <trkpt lat="45.92233" lon="3.85701">
        <ele>824</ele>
        <time>2024-12-08T04:26:54.620Z</time>
      </trkpt>
      <trkpt lat="45.92234" lon="3.85701">
        <ele>824</ele>
        <time>2024-12-08T04:26:55.619Z</time>
      </trkpt>
      <trkpt lat="45.92235" lon="3.85701">
        <ele>824</ele>
        <time>2024-12-08T04:26:56.620Z</time>
      </trkpt>
      <trkpt lat="45.92236" lon="3.85701">
        <ele>824</ele>
        <time>2024-12-08T04:26:57.619Z</time>
      </trkpt>
      <trkpt lat="45.92237" lon="3.85702">
        <ele>824</ele>
        <time>2024-12-08T04:26:58.620Z</time>
      </trkpt>
      <trkpt lat="45.92238" lon="3.85702">
        <ele>824</ele>
        <time>2024-12-08T04:26:59.619Z</time>
      </trkpt>
      <trkpt lat="45.9224" lon="3.85701">
        <ele>824</ele>
        <time>2024-12-08T04:27:00.620Z</time>
      </trkpt>
      <trkpt lat="45.9224" lon="3.85701">
        <ele>824</ele>
        <time>2024-12-08T04:27:01.619Z</time>
      </trkpt>
      <trkpt lat="45.92241" lon="3.85701">
        <ele>824</ele>
        <time>2024-12-08T04:27:02.620Z</time>
      </trkpt>
      <trkpt lat="45.92242" lon="3.85701">
        <ele>824</ele>
        <time>2024-12-08T04:27:03.620Z</time>
      </trkpt>
      <trkpt lat="45.92244" lon="3.857">
        <ele>824</ele>
        <time>2024-12-08T04:27:04.619Z</time>
      </trkpt>
      <trkpt lat="45.92244" lon="3.85701">
        <ele>824</ele>
        <time>2024-12-08T04:27:05.619Z</time>
      </trkpt>
      <trkpt lat="45.92245" lon="3.85701">
        <ele>824</ele>
        <time>2024-12-08T04:27:06.619Z</time>
      </trkpt>
      <trkpt lat="45.92246" lon="3.857">
        <ele>824</ele>
        <time>2024-12-08T04:27:07.619Z</time>
      </trkpt>
      <trkpt lat="45.92247" lon="3.857">
        <ele>824</ele>
        <time>2024-12-08T04:27:08.619Z</time>
      </trkpt>
      <trkpt lat="45.92248" lon="3.85699">
        <ele>824</ele>
        <time>2024-12-08T04:27:09.620Z</time>
      </trkpt>
      <trkpt lat="45.92249" lon="3.85699">
        <ele>825</ele>
        <time>2024-12-08T04:27:10.620Z</time>
      </trkpt>
      <trkpt lat="45.9225" lon="3.85699">
        <ele>825</ele>
        <time>2024-12-08T04:27:11.619Z</time>
      </trkpt>
      <trkpt lat="45.92251" lon="3.85699">
        <ele>825</ele>
        <time>2024-12-08T04:27:12.620Z</time>
      </trkpt>
      <trkpt lat="45.92252" lon="3.85699">
        <ele>825</ele>
        <time>2024-12-08T04:27:13.619Z</time>
      </trkpt>
      <trkpt lat="45.92253" lon="3.85699">
        <ele>825</ele>
        <time>2024-12-08T04:27:14.620Z</time>
      </trkpt>
      <trkpt lat="45.92254" lon="3.857">
        <ele>826</ele>
        <time>2024-12-08T04:27:15.620Z</time>
      </trkpt>
      <trkpt lat="45.92256" lon="3.857">
        <ele>826</ele>
        <time>2024-12-08T04:27:16.620Z</time>
      </trkpt>
      <trkpt lat="45.92257" lon="3.85699">
        <ele>826</ele>
        <time>2024-12-08T04:27:17.619Z</time>
      </trkpt>
      <trkpt lat="45.92258" lon="3.85699">
        <ele>826</ele>
        <time>2024-12-08T04:27:18.620Z</time>
      </trkpt>
      <trkpt lat="45.92259" lon="3.85699">
        <ele>826</ele>
        <time>2024-12-08T04:27:19.620Z</time>
      </trkpt>
      <trkpt lat="45.9226" lon="3.85699">
        <ele>827</ele>
        <time>2024-12-08T04:27:20.620Z</time>
      </trkpt>
      <trkpt lat="45.92261" lon="3.85698">
        <ele>827</ele>
        <time>2024-12-08T04:27:21.620Z</time>
      </trkpt>
      <trkpt lat="45.92262" lon="3.85698">
        <ele>827</ele>
        <time>2024-12-08T04:27:22.620Z</time>
      </trkpt>
      <trkpt lat="45.92263" lon="3.85698">
        <ele>827</ele>
        <time>2024-12-08T04:27:23.620Z</time>
      </trkpt>
      <trkpt lat="45.92264" lon="3.85698">
        <ele>828</ele>
        <time>2024-12-08T04:27:24.619Z</time>
      </trkpt>
      <trkpt lat="45.92265" lon="3.85697">
        <ele>828</ele>
        <time>2024-12-08T04:27:25.619Z</time>
      </trkpt>
      <trkpt lat="45.92265" lon="3.85697">
        <ele>828</ele>
        <time>2024-12-08T04:27:26.619Z</time>
      </trkpt>
      <trkpt lat="45.92267" lon="3.85696">
        <ele>828</ele>
        <time>2024-12-08T04:27:27.620Z</time>
      </trkpt>
      <trkpt lat="45.92268" lon="3.85696">
        <ele>829</ele>
        <time>2024-12-08T04:27:28.620Z</time>
      </trkpt>
      <trkpt lat="45.92269" lon="3.85696">
        <ele>829</ele>
        <time>2024-12-08T04:27:29.619Z</time>
      </trkpt>
      <trkpt lat="45.9227" lon="3.85696">
        <ele>829</ele>
        <time>2024-12-08T04:27:30.619Z</time>
      </trkpt>
      <trkpt lat="45.92271" lon="3.85696">
        <ele>830</ele>
        <time>2024-12-08T04:27:31.619Z</time>
      </trkpt>
      <trkpt lat="45.92272" lon="3.85695">
        <ele>830</ele>
        <time>2024-12-08T04:27:32.620Z</time>
      </trkpt>
      <trkpt lat="45.92273" lon="3.85695">
        <ele>830</ele>
        <time>2024-12-08T04:27:33.620Z</time>
      </trkpt>
      <trkpt lat="45.92274" lon="3.85696">
        <ele>831</ele>
        <time>2024-12-08T04:27:34.619Z</time>
      </trkpt>
      <trkpt lat="45.92276" lon="3.85697">
        <ele>831</ele>
        <time>2024-12-08T04:27:35.619Z</time>
      </trkpt>
      <trkpt lat="45.92278" lon="3.85697">
        <ele>831</ele>
        <time>2024-12-08T04:27:36.619Z</time>
      </trkpt>
      <trkpt lat="45.92279" lon="3.85697">
        <ele>831</ele>
        <time>2024-12-08T04:27:37.620Z</time>
      </trkpt>
      <trkpt lat="45.92281" lon="3.85697">
        <ele>831</ele>
        <time>2024-12-08T04:27:38.619Z</time>
      </trkpt>
      <trkpt lat="45.92282" lon="3.85697">
        <ele>831</ele>
        <time>2024-12-08T04:27:39.620Z</time>
      </trkpt>
      <trkpt lat="45.92283" lon="3.85696">
        <ele>831</ele>
        <time>2024-12-08T04:27:40.619Z</time>
      </trkpt>
      <trkpt lat="45.92284" lon="3.85697">
        <ele>832</ele>
        <time>2024-12-08T04:27:41.619Z</time>
      </trkpt>
      <trkpt lat="45.92286" lon="3.85697">
        <ele>832</ele>
        <time>2024-12-08T04:27:42.620Z</time>
      </trkpt>
      <trkpt lat="45.92287" lon="3.85697">
        <ele>833</ele>
        <time>2024-12-08T04:27:43.620Z</time>
      </trkpt>
      <trkpt lat="45.92288" lon="3.85698">
        <ele>833</ele>
        <time>2024-12-08T04:27:44.620Z</time>
      </trkpt>
      <trkpt lat="45.92289" lon="3.85698">
        <ele>834</ele>
        <time>2024-12-08T04:27:45.619Z</time>
      </trkpt>
      <trkpt lat="45.9229" lon="3.85698">
        <ele>834</ele>
        <time>2024-12-08T04:27:46.619Z</time>
      </trkpt>
      <trkpt lat="45.92291" lon="3.85698">
        <ele>835</ele>
        <time>2024-12-08T04:27:47.619Z</time>
      </trkpt>
      <trkpt lat="45.92292" lon="3.85698">
        <ele>835</ele>
        <time>2024-12-08T04:27:48.620Z</time>
      </trkpt>
      <trkpt lat="45.92293" lon="3.85698">
        <ele>835</ele>
        <time>2024-12-08T04:27:49.620Z</time>
      </trkpt>
      <trkpt lat="45.92294" lon="3.85698">
        <ele>835</ele>
        <time>2024-12-08T04:27:50.620Z</time>
      </trkpt>
      <trkpt lat="45.92295" lon="3.85697">
        <ele>835</ele>
        <time>2024-12-08T04:27:51.620Z</time>
      </trkpt>
      <trkpt lat="45.92296" lon="3.85697">
        <ele>836</ele>
        <time>2024-12-08T04:27:52.619Z</time>
      </trkpt>
      <trkpt lat="45.92297" lon="3.85696">
        <ele>836</ele>
        <time>2024-12-08T04:27:53.619Z</time>
      </trkpt>
      <trkpt lat="45.92299" lon="3.85695">
        <ele>837</ele>
        <time>2024-12-08T04:27:54.620Z</time>
      </trkpt>
      <trkpt lat="45.923" lon="3.85695">
        <ele>837</ele>
        <time>2024-12-08T04:27:55.619Z</time>
      </trkpt>
      <trkpt lat="45.92301" lon="3.85695">
        <ele>837</ele>
        <time>2024-12-08T04:27:56.619Z</time>
      </trkpt>
      <trkpt lat="45.92302" lon="3.85695">
        <ele>838</ele>
        <time>2024-12-08T04:27:57.619Z</time>
      </trkpt>
      <trkpt lat="45.92303" lon="3.85695">
        <ele>838</ele>
        <time>2024-12-08T04:27:58.619Z</time>
      </trkpt>
      <trkpt lat="45.92304" lon="3.85695">
        <ele>838</ele>
        <time>2024-12-08T04:27:59.620Z</time>
      </trkpt>
      <trkpt lat="45.92306" lon="3.85694">
        <ele>839</ele>
        <time>2024-12-08T04:28:00.620Z</time>
      </trkpt>
      <trkpt lat="45.92307" lon="3.85695">
        <ele>839</ele>
        <time>2024-12-08T04:28:01.620Z</time>
      </trkpt>
      <trkpt lat="45.92308" lon="3.85695">
        <ele>839</ele>
        <time>2024-12-08T04:28:02.619Z</time>
      </trkpt>
      <trkpt lat="45.92309" lon="3.85695">
        <ele>839</ele>
        <time>2024-12-08T04:28:03.619Z</time>
      </trkpt>
      <trkpt lat="45.9231" lon="3.85695">
        <ele>839</ele>
        <time>2024-12-08T04:28:04.620Z</time>
      </trkpt>
      <trkpt lat="45.92311" lon="3.85695">
        <ele>839</ele>
        <time>2024-12-08T04:28:05.620Z</time>
      </trkpt>
      <trkpt lat="45.92313" lon="3.85695">
        <ele>839</ele>
        <time>2024-12-08T04:28:06.619Z</time>
      </trkpt>
      <trkpt lat="45.92314" lon="3.85695">
        <ele>838</ele>
        <time>2024-12-08T04:28:07.620Z</time>
      </trkpt>
      <trkpt lat="45.92315" lon="3.85695">
        <ele>838</ele>
        <time>2024-12-08T04:28:08.620Z</time>
      </trkpt>
      <trkpt lat="45.92316" lon="3.85695">
        <ele>838</ele>
        <time>2024-12-08T04:28:09.619Z</time>
      </trkpt>
      <trkpt lat="45.92317" lon="3.85695">
        <ele>838</ele>
        <time>2024-12-08T04:28:10.619Z</time>
      </trkpt>
      <trkpt lat="45.92318" lon="3.85695">
        <ele>837</ele>
        <time>2024-12-08T04:28:11.619Z</time>
      </trkpt>
      <trkpt lat="45.9232" lon="3.85695">
        <ele>837</ele>
        <time>2024-12-08T04:28:12.619Z</time>
      </trkpt>
      <trkpt lat="45.92321" lon="3.85695">
        <ele>837</ele>
        <time>2024-12-08T04:28:13.620Z</time>
      </trkpt>
      <trkpt lat="45.92323" lon="3.85696">
        <ele>837</ele>
        <time>2024-12-08T04:28:14.619Z</time>
      </trkpt>
      <trkpt lat="45.92324" lon="3.85696">
        <ele>837</ele>
        <time>2024-12-08T04:28:15.620Z</time>
      </trkpt>
      <trkpt lat="45.92325" lon="3.85696">
        <ele>837</ele>
        <time>2024-12-08T04:28:16.619Z</time>
      </trkpt>
      <trkpt lat="45.92326" lon="3.85696">
        <ele>837</ele>
        <time>2024-12-08T04:28:17.619Z</time>
      </trkpt>
      <trkpt lat="45.92328" lon="3.85696">
        <ele>837</ele>
        <time>2024-12-08T04:28:18.619Z</time>
      </trkpt>
      <trkpt lat="45.92328" lon="3.85696">
        <ele>837</ele>
        <time>2024-12-08T04:28:19.619Z</time>
      </trkpt>
      <trkpt lat="45.9233" lon="3.85696">
        <ele>837</ele>
        <time>2024-12-08T04:28:20.619Z</time>
      </trkpt>
      <trkpt lat="45.92331" lon="3.85696">
        <ele>837</ele>
        <time>2024-12-08T04:28:21.619Z</time>
      </trkpt>
      <trkpt lat="45.92332" lon="3.85696">
        <ele>837</ele>
        <time>2024-12-08T04:28:22.619Z</time>
      </trkpt>
      <trkpt lat="45.92334" lon="3.85696">
        <ele>837</ele>
        <time>2024-12-08T04:28:23.620Z</time>
      </trkpt>
      <trkpt lat="45.92335" lon="3.85696">
        <ele>837</ele>
        <time>2024-12-08T04:28:24.619Z</time>
      </trkpt>
      <trkpt lat="45.92336" lon="3.85696">
        <ele>837</ele>
        <time>2024-12-08T04:28:25.619Z</time>
      </trkpt>
      <trkpt lat="45.92337" lon="3.85696">
        <ele>836</ele>
        <time>2024-12-08T04:28:26.620Z</time>
      </trkpt>
      <trkpt lat="45.92338" lon="3.85696">
        <ele>836</ele>
        <time>2024-12-08T04:28:27.619Z</time>
      </trkpt>
      <trkpt lat="45.9234" lon="3.85696">
        <ele>836</ele>
        <time>2024-12-08T04:28:28.619Z</time>
      </trkpt>
      <trkpt lat="45.92341" lon="3.85696">
        <ele>836</ele>
        <time>2024-12-08T04:28:29.620Z</time>
      </trkpt>
      <trkpt lat="45.92343" lon="3.85696">
        <ele>836</ele>
        <time>2024-12-08T04:28:30.619Z</time>
      </trkpt>
      <trkpt lat="45.92344" lon="3.85696">
        <ele>836</ele>
        <time>2024-12-08T04:28:31.619Z</time>
      </trkpt>
      <trkpt lat="45.92346" lon="3.85696">
        <ele>836</ele>
        <time>2024-12-08T04:28:32.619Z</time>
      </trkpt>
      <trkpt lat="45.92347" lon="3.85696">
        <ele>837</ele>
        <time>2024-12-08T04:28:33.619Z</time>
      </trkpt>
      <trkpt lat="45.92348" lon="3.85695">
        <ele>837</ele>
        <time>2024-12-08T04:28:34.619Z</time>
      </trkpt>
      <trkpt lat="45.9235" lon="3.85694">
        <ele>837</ele>
        <time>2024-12-08T04:28:35.619Z</time>
      </trkpt>
      <trkpt lat="45.92351" lon="3.85694">
        <ele>837</ele>
        <time>2024-12-08T04:28:36.619Z</time>
      </trkpt>
      <trkpt lat="45.92352" lon="3.85694">
        <ele>837</ele>
        <time>2024-12-08T04:28:37.620Z</time>
      </trkpt>
      <trkpt lat="45.92354" lon="3.85694">
        <ele>837</ele>
        <time>2024-12-08T04:28:38.619Z</time>
      </trkpt>
      <trkpt lat="45.92356" lon="3.85693">
        <ele>837</ele>
        <time>2024-12-08T04:28:39.619Z</time>
      </trkpt>
      <trkpt lat="45.92357" lon="3.85693">
        <ele>837</ele>
        <time>2024-12-08T04:28:40.620Z</time>
      </trkpt>
      <trkpt lat="45.92358" lon="3.85693">
        <ele>838</ele>
        <time>2024-12-08T04:28:41.620Z</time>
      </trkpt>
      <trkpt lat="45.92359" lon="3.85693">
        <ele>838</ele>
        <time>2024-12-08T04:28:42.620Z</time>
      </trkpt>
      <trkpt lat="45.92361" lon="3.85693">
        <ele>838</ele>
        <time>2024-12-08T04:28:43.620Z</time>
      </trkpt>
      <trkpt lat="45.92362" lon="3.85693">
        <ele>838</ele>
        <time>2024-12-08T04:28:44.620Z</time>
      </trkpt>
      <trkpt lat="45.92363" lon="3.85693">
        <ele>838</ele>
        <time>2024-12-08T04:28:45.619Z</time>
      </trkpt>
      <trkpt lat="45.92364" lon="3.85692">
        <ele>839</ele>
        <time>2024-12-08T04:28:46.619Z</time>
      </trkpt>
      <trkpt lat="45.92365" lon="3.85692">
        <ele>839</ele>
        <time>2024-12-08T04:28:47.620Z</time>
      </trkpt>
      <trkpt lat="45.92365" lon="3.85692">
        <ele>839</ele>
        <time>2024-12-08T04:28:48.620Z</time>
      </trkpt>
      <trkpt lat="45.92367" lon="3.85692">
        <ele>839</ele>
        <time>2024-12-08T04:28:49.619Z</time>
      </trkpt>
      <trkpt lat="45.92368" lon="3.85692">
        <ele>839</ele>
        <time>2024-12-08T04:28:50.620Z</time>
      </trkpt>
      <trkpt lat="45.92369" lon="3.85692">
        <ele>839</ele>
        <time>2024-12-08T04:28:51.619Z</time>
      </trkpt>
      <trkpt lat="45.9237" lon="3.85692">
        <ele>839</ele>
        <time>2024-12-08T04:28:52.620Z</time>
      </trkpt>
      <trkpt lat="45.92371" lon="3.85692">
        <ele>839</ele>
        <time>2024-12-08T04:28:53.620Z</time>
      </trkpt>
      <trkpt lat="45.92373" lon="3.85691">
        <ele>840</ele>
        <time>2024-12-08T04:28:54.619Z</time>
      </trkpt>
      <trkpt lat="45.92374" lon="3.85692">
        <ele>840</ele>
        <time>2024-12-08T04:28:55.620Z</time>
      </trkpt>
      <trkpt lat="45.92375" lon="3.85692">
        <ele>840</ele>
        <time>2024-12-08T04:28:56.620Z</time>
      </trkpt>
      <trkpt lat="45.92376" lon="3.85692">
        <ele>840</ele>
        <time>2024-12-08T04:28:57.620Z</time>
      </trkpt>
      <trkpt lat="45.92377" lon="3.85692">
        <ele>841</ele>
        <time>2024-12-08T04:28:58.620Z</time>
      </trkpt>
      <trkpt lat="45.92378" lon="3.85692">
        <ele>841</ele>
        <time>2024-12-08T04:28:59.619Z</time>
      </trkpt>
      <trkpt lat="45.92379" lon="3.85692">
        <ele>841</ele>
        <time>2024-12-08T04:29:00.619Z</time>
      </trkpt>
      <trkpt lat="45.92381" lon="3.85692">
        <ele>842</ele>
        <time>2024-12-08T04:29:01.619Z</time>
      </trkpt>
      <trkpt lat="45.92382" lon="3.85692">
        <ele>842</ele>
        <time>2024-12-08T04:29:02.619Z</time>
      </trkpt>
      <trkpt lat="45.92383" lon="3.85692">
        <ele>842</ele>
        <time>2024-12-08T04:29:03.620Z</time>
      </trkpt>
      <trkpt lat="45.92384" lon="3.85691">
        <ele>843</ele>
        <time>2024-12-08T04:29:04.619Z</time>
      </trkpt>
      <trkpt lat="45.92386" lon="3.85691">
        <ele>843</ele>
        <time>2024-12-08T04:29:05.620Z</time>
      </trkpt>
      <trkpt lat="45.92387" lon="3.85691">
        <ele>843</ele>
        <time>2024-12-08T04:29:06.619Z</time>
      </trkpt>
      <trkpt lat="45.92388" lon="3.85691">
        <ele>843</ele>
        <time>2024-12-08T04:29:07.619Z</time>
      </trkpt>
      <trkpt lat="45.92389" lon="3.85691">
        <ele>843</ele>
        <time>2024-12-08T04:29:08.620Z</time>
      </trkpt>
      <trkpt lat="45.9239" lon="3.8569">
        <ele>844</ele>
        <time>2024-12-08T04:29:09.619Z</time>
      </trkpt>
      <trkpt lat="45.92391" lon="3.8569">
        <ele>844</ele>
        <time>2024-12-08T04:29:10.619Z</time>
      </trkpt>
      <trkpt lat="45.92393" lon="3.85691">
        <ele>845</ele>
        <time>2024-12-08T04:29:11.620Z</time>
      </trkpt>
      <trkpt lat="45.92394" lon="3.85691">
        <ele>845</ele>
        <time>2024-12-08T04:29:12.620Z</time>
      </trkpt>
      <trkpt lat="45.92395" lon="3.8569">
        <ele>845</ele>
        <time>2024-12-08T04:29:13.619Z</time>
      </trkpt>
      <trkpt lat="45.92396" lon="3.85691">
        <ele>845</ele>
        <time>2024-12-08T04:29:14.620Z</time>
      </trkpt>
      <trkpt lat="45.92397" lon="3.85691">
        <ele>845</ele>
        <time>2024-12-08T04:29:15.619Z</time>
      </trkpt>
      <trkpt lat="45.92399" lon="3.85691">
        <ele>845</ele>
        <time>2024-12-08T04:29:16.620Z</time>
      </trkpt>
      <trkpt lat="45.924" lon="3.85691">
        <ele>845</ele>
        <time>2024-12-08T04:29:17.619Z</time>
      </trkpt>
      <trkpt lat="45.92401" lon="3.85691">
        <ele>845</ele>
        <time>2024-12-08T04:29:18.619Z</time>
      </trkpt>
      <trkpt lat="45.92402" lon="3.85691">
        <ele>845</ele>
        <time>2024-12-08T04:29:19.619Z</time>
      </trkpt>
      <trkpt lat="45.92404" lon="3.85691">
        <ele>844</ele>
        <time>2024-12-08T04:29:20.619Z</time>
      </trkpt>
      <trkpt lat="45.92405" lon="3.85691">
        <ele>844</ele>
        <time>2024-12-08T04:29:21.620Z</time>
      </trkpt>
      <trkpt lat="45.92406" lon="3.85691">
        <ele>844</ele>
        <time>2024-12-08T04:29:22.619Z</time>
      </trkpt>
      <trkpt lat="45.92407" lon="3.8569">
        <ele>844</ele>
        <time>2024-12-08T04:29:23.620Z</time>
      </trkpt>
      <trkpt lat="45.92408" lon="3.8569">
        <ele>844</ele>
        <time>2024-12-08T04:29:24.619Z</time>
      </trkpt>
      <trkpt lat="45.9241" lon="3.8569">
        <ele>844</ele>
        <time>2024-12-08T04:29:25.620Z</time>
      </trkpt>
      <trkpt lat="45.92411" lon="3.8569">
        <ele>844</ele>
        <time>2024-12-08T04:29:26.619Z</time>
      </trkpt>
      <trkpt lat="45.92412" lon="3.8569">
        <ele>844</ele>
        <time>2024-12-08T04:29:27.620Z</time>
      </trkpt>
      <trkpt lat="45.92413" lon="3.8569">
        <ele>844</ele>
        <time>2024-12-08T04:29:28.619Z</time>
      </trkpt>
      <trkpt lat="45.92414" lon="3.8569">
        <ele>844</ele>
        <time>2024-12-08T04:29:29.620Z</time>
      </trkpt>
      <trkpt lat="45.92415" lon="3.85689">
        <ele>844</ele>
        <time>2024-12-08T04:29:30.620Z</time>
      </trkpt>
      <trkpt lat="45.92416" lon="3.85689">
        <ele>844</ele>
        <time>2024-12-08T04:29:31.620Z</time>
      </trkpt>
      <trkpt lat="45.92417" lon="3.85688">
        <ele>844</ele>
        <time>2024-12-08T04:29:32.620Z</time>
      </trkpt>
      <trkpt lat="45.92419" lon="3.85687">
        <ele>844</ele>
        <time>2024-12-08T04:29:33.619Z</time>
      </trkpt>
      <trkpt lat="45.9242" lon="3.85687">
        <ele>844</ele>
        <time>2024-12-08T04:29:34.619Z</time>
      </trkpt>
      <trkpt lat="45.92421" lon="3.85687">
        <ele>844</ele>
        <time>2024-12-08T04:29:35.620Z</time>
      </trkpt>
      <trkpt lat="45.92421" lon="3.85688">
        <ele>844</ele>
        <time>2024-12-08T04:29:36.620Z</time>
      </trkpt>
      <trkpt lat="45.92422" lon="3.85688">
        <ele>844</ele>
        <time>2024-12-08T04:29:37.620Z</time>
      </trkpt>
      <trkpt lat="45.92424" lon="3.85689">
        <ele>844</ele>
        <time>2024-12-08T04:29:38.619Z</time>
      </trkpt>
      <trkpt lat="45.92425" lon="3.85692">
        <ele>844</ele>
        <time>2024-12-08T04:29:39.620Z</time>
      </trkpt>
      <trkpt lat="45.92427" lon="3.85693">
        <ele>843</ele>
        <time>2024-12-08T04:29:40.619Z</time>
      </trkpt>
      <trkpt lat="45.92428" lon="3.85692">
        <ele>843</ele>
        <time>2024-12-08T04:29:41.620Z</time>
      </trkpt>
      <trkpt lat="45.9243" lon="3.85692">
        <ele>843</ele>
        <time>2024-12-08T04:29:42.619Z</time>
      </trkpt>
      <trkpt lat="45.92432" lon="3.85692">
        <ele>843</ele>
        <time>2024-12-08T04:29:43.619Z</time>
      </trkpt>
      <trkpt lat="45.92433" lon="3.85693">
        <ele>843</ele>
        <time>2024-12-08T04:29:44.620Z</time>
      </trkpt>
      <trkpt lat="45.92434" lon="3.85693">
        <ele>843</ele>
        <time>2024-12-08T04:29:45.620Z</time>
      </trkpt>
      <trkpt lat="45.92435" lon="3.85693">
        <ele>843</ele>
        <time>2024-12-08T04:29:46.620Z</time>
      </trkpt>
      <trkpt lat="45.92436" lon="3.85693">
        <ele>844</ele>
        <time>2024-12-08T04:29:47.620Z</time>
      </trkpt>
      <trkpt lat="45.92437" lon="3.85692">
        <ele>844</ele>
        <time>2024-12-08T04:29:48.620Z</time>
      </trkpt>
      <trkpt lat="45.92439" lon="3.85692">
        <ele>844</ele>
        <time>2024-12-08T04:29:49.619Z</time>
      </trkpt>
      <trkpt lat="45.9244" lon="3.85692">
        <ele>844</ele>
        <time>2024-12-08T04:29:50.620Z</time>
      </trkpt>
      <trkpt lat="45.92441" lon="3.85692">
        <ele>844</ele>
        <time>2024-12-08T04:29:51.619Z</time>
      </trkpt>
      <trkpt lat="45.92442" lon="3.85691">
        <ele>845</ele>
        <time>2024-12-08T04:29:52.620Z</time>
      </trkpt>
      <trkpt lat="45.92443" lon="3.85691">
        <ele>845</ele>
        <time>2024-12-08T04:29:53.619Z</time>
      </trkpt>
      <trkpt lat="45.92444" lon="3.85691">
        <ele>845</ele>
        <time>2024-12-08T04:29:54.620Z</time>
      </trkpt>
      <trkpt lat="45.92446" lon="3.85691">
        <ele>846</ele>
        <time>2024-12-08T04:29:55.619Z</time>
      </trkpt>
      <trkpt lat="45.92447" lon="3.85692">
        <ele>846</ele>
        <time>2024-12-08T04:29:56.620Z</time>
      </trkpt>
      <trkpt lat="45.92448" lon="3.85692">
        <ele>846</ele>
        <time>2024-12-08T04:29:57.620Z</time>
      </trkpt>
      <trkpt lat="45.92449" lon="3.85692">
        <ele>846</ele>
        <time>2024-12-08T04:29:58.620Z</time>
      </trkpt>
      <trkpt lat="45.9245" lon="3.85692">
        <ele>846</ele>
        <time>2024-12-08T04:29:59.619Z</time>
      </trkpt>
      <trkpt lat="45.92451" lon="3.85692">
        <ele>846</ele>
        <time>2024-12-08T04:30:00.619Z</time>
      </trkpt>
      <trkpt lat="45.92453" lon="3.85692">
        <ele>845</ele>
        <time>2024-12-08T04:30:01.620Z</time>
      </trkpt>
      <trkpt lat="45.92454" lon="3.85692">
        <ele>845</ele>
        <time>2024-12-08T04:30:02.619Z</time>
      </trkpt>
      <trkpt lat="45.92455" lon="3.85692">
        <ele>845</ele>
        <time>2024-12-08T04:30:03.619Z</time>
      </trkpt>
      <trkpt lat="45.92456" lon="3.85692">
        <ele>844</ele>
        <time>2024-12-08T04:30:04.619Z</time>
      </trkpt>
      <trkpt lat="45.92457" lon="3.85692">
        <ele>844</ele>
        <time>2024-12-08T04:30:05.620Z</time>
      </trkpt>
      <trkpt lat="45.92458" lon="3.85692">
        <ele>844</ele>
        <time>2024-12-08T04:30:06.619Z</time>
      </trkpt>
      <trkpt lat="45.92459" lon="3.85692">
        <ele>844</ele>
        <time>2024-12-08T04:30:07.619Z</time>
      </trkpt>
      <trkpt lat="45.9246" lon="3.85692">
        <ele>844</ele>
        <time>2024-12-08T04:30:08.619Z</time>
      </trkpt>
      <trkpt lat="45.92461" lon="3.85692">
        <ele>844</ele>
        <time>2024-12-08T04:30:09.619Z</time>
      </trkpt>
      <trkpt lat="45.92463" lon="3.85692">
        <ele>844</ele>
        <time>2024-12-08T04:30:10.619Z</time>
      </trkpt>
      <trkpt lat="45.92464" lon="3.85692">
        <ele>844</ele>
        <time>2024-12-08T04:30:11.619Z</time>
      </trkpt>
      <trkpt lat="45.92465" lon="3.85692">
        <ele>844</ele>
        <time>2024-12-08T04:30:12.620Z</time>
      </trkpt>
      <trkpt lat="45.92466" lon="3.85693">
        <ele>844</ele>
        <time>2024-12-08T04:30:13.619Z</time>
      </trkpt>
      <trkpt lat="45.92467" lon="3.85693">
        <ele>844</ele>
        <time>2024-12-08T04:30:14.620Z</time>
      </trkpt>
      <trkpt lat="45.92468" lon="3.85693">
        <ele>844</ele>
        <time>2024-12-08T04:30:15.619Z</time>
      </trkpt>
      <trkpt lat="45.9247" lon="3.85693">
        <ele>844</ele>
        <time>2024-12-08T04:30:16.620Z</time>
      </trkpt>
      <trkpt lat="45.92471" lon="3.85694">
        <ele>844</ele>
        <time>2024-12-08T04:30:17.619Z</time>
      </trkpt>
      <trkpt lat="45.92472" lon="3.85694">
        <ele>844</ele>
        <time>2024-12-08T04:30:18.620Z</time>
      </trkpt>
      <trkpt lat="45.92473" lon="3.85695">
        <ele>844</ele>
        <time>2024-12-08T04:30:19.619Z</time>
      </trkpt>
      <trkpt lat="45.92474" lon="3.85695">
        <ele>844</ele>
        <time>2024-12-08T04:30:20.619Z</time>
      </trkpt>
      <trkpt lat="45.92476" lon="3.85695">
        <ele>845</ele>
        <time>2024-12-08T04:30:21.619Z</time>
      </trkpt>
      <trkpt lat="45.92477" lon="3.85696">
        <ele>845</ele>
        <time>2024-12-08T04:30:22.620Z</time>
      </trkpt>
      <trkpt lat="45.92478" lon="3.85696">
        <ele>845</ele>
        <time>2024-12-08T04:30:23.620Z</time>
      </trkpt>
      <trkpt lat="45.92479" lon="3.85697">
        <ele>844</ele>
        <time>2024-12-08T04:30:24.620Z</time>
      </trkpt>
      <trkpt lat="45.92481" lon="3.85698">
        <ele>844</ele>
        <time>2024-12-08T04:30:25.620Z</time>
      </trkpt>
      <trkpt lat="45.92482" lon="3.85698">
        <ele>845</ele>
        <time>2024-12-08T04:30:26.619Z</time>
      </trkpt>
      <trkpt lat="45.92483" lon="3.85699">
        <ele>845</ele>
        <time>2024-12-08T04:30:27.620Z</time>
      </trkpt>
      <trkpt lat="45.92484" lon="3.85699">
        <ele>845</ele>
        <time>2024-12-08T04:30:28.619Z</time>
      </trkpt>
      <trkpt lat="45.92485" lon="3.85699">
        <ele>845</ele>
        <time>2024-12-08T04:30:29.620Z</time>
      </trkpt>
      <trkpt lat="45.92486" lon="3.857">
        <ele>845</ele>
        <time>2024-12-08T04:30:30.619Z</time>
      </trkpt>
      <trkpt lat="45.92488" lon="3.85701">
        <ele>846</ele>
        <time>2024-12-08T04:30:31.620Z</time>
      </trkpt>
      <trkpt lat="45.92489" lon="3.85701">
        <ele>845</ele>
        <time>2024-12-08T04:30:32.619Z</time>
      </trkpt>
      <trkpt lat="45.9249" lon="3.85702">
        <ele>845</ele>
        <time>2024-12-08T04:30:33.619Z</time>
      </trkpt>
      <trkpt lat="45.92491" lon="3.85702">
        <ele>846</ele>
        <time>2024-12-08T04:30:34.620Z</time>
      </trkpt>
      <trkpt lat="45.92493" lon="3.85703">
        <ele>846</ele>
        <time>2024-12-08T04:30:35.619Z</time>
      </trkpt>
      <trkpt lat="45.92494" lon="3.85704">
        <ele>846</ele>
        <time>2024-12-08T04:30:36.619Z</time>
      </trkpt>
      <trkpt lat="45.92495" lon="3.85705">
        <ele>846</ele>
        <time>2024-12-08T04:30:37.619Z</time>
      </trkpt>
      <trkpt lat="45.92496" lon="3.85705">
        <ele>846</ele>
        <time>2024-12-08T04:30:38.619Z</time>
      </trkpt>
      <trkpt lat="45.92498" lon="3.85706">
        <ele>846</ele>
        <time>2024-12-08T04:30:39.619Z</time>
      </trkpt>
      <trkpt lat="45.92499" lon="3.85706">
        <ele>846</ele>
        <time>2024-12-08T04:30:40.619Z</time>
      </trkpt>
      <trkpt lat="45.925" lon="3.85707">
        <ele>846</ele>
        <time>2024-12-08T04:30:41.619Z</time>
      </trkpt>
      <trkpt lat="45.92501" lon="3.85708">
        <ele>846</ele>
        <time>2024-12-08T04:30:42.620Z</time>
      </trkpt>
      <trkpt lat="45.92503" lon="3.85709">
        <ele>846</ele>
        <time>2024-12-08T04:30:43.619Z</time>
      </trkpt>
      <trkpt lat="45.92504" lon="3.8571">
        <ele>847</ele>
        <time>2024-12-08T04:30:44.620Z</time>
      </trkpt>
      <trkpt lat="45.92505" lon="3.8571">
        <ele>847</ele>
        <time>2024-12-08T04:30:45.619Z</time>
      </trkpt>
      <trkpt lat="45.92506" lon="3.85711">
        <ele>847</ele>
        <time>2024-12-08T04:30:46.620Z</time>
      </trkpt>
      <trkpt lat="45.92508" lon="3.85712">
        <ele>848</ele>
        <time>2024-12-08T04:30:47.619Z</time>
      </trkpt>
      <trkpt lat="45.92509" lon="3.85713">
        <ele>848</ele>
        <time>2024-12-08T04:30:48.620Z</time>
      </trkpt>
      <trkpt lat="45.9251" lon="3.85713">
        <ele>848</ele>
        <time>2024-12-08T04:30:49.620Z</time>
      </trkpt>
      <trkpt lat="45.92511" lon="3.85714">
        <ele>849</ele>
        <time>2024-12-08T04:30:50.619Z</time>
      </trkpt>
      <trkpt lat="45.92513" lon="3.85715">
        <ele>849</ele>
        <time>2024-12-08T04:30:51.620Z</time>
      </trkpt>
      <trkpt lat="45.92514" lon="3.85716">
        <ele>849</ele>
        <time>2024-12-08T04:30:52.620Z</time>
      </trkpt>
      <trkpt lat="45.92515" lon="3.85716">
        <ele>849</ele>
        <time>2024-12-08T04:30:53.619Z</time>
      </trkpt>
      <trkpt lat="45.92517" lon="3.85717">
        <ele>849</ele>
        <time>2024-12-08T04:30:54.619Z</time>
      </trkpt>
      <trkpt lat="45.92517" lon="3.85718">
        <ele>849</ele>
        <time>2024-12-08T04:30:55.620Z</time>
      </trkpt>
      <trkpt lat="45.92519" lon="3.85719">
        <ele>849</ele>
        <time>2024-12-08T04:30:56.620Z</time>
      </trkpt>
      <trkpt lat="45.9252" lon="3.8572">
        <ele>849</ele>
        <time>2024-12-08T04:30:57.620Z</time>
      </trkpt>
      <trkpt lat="45.92521" lon="3.8572">
        <ele>850</ele>
        <time>2024-12-08T04:30:58.620Z</time>
      </trkpt>
      <trkpt lat="45.92522" lon="3.85721">
        <ele>850</ele>
        <time>2024-12-08T04:30:59.620Z</time>
      </trkpt>
      <trkpt lat="45.92523" lon="3.85722">
        <ele>850</ele>
        <time>2024-12-08T04:31:00.619Z</time>
      </trkpt>
      <trkpt lat="45.92524" lon="3.85722">
        <ele>850</ele>
        <time>2024-12-08T04:31:01.620Z</time>
      </trkpt>
      <trkpt lat="45.92526" lon="3.85723">
        <ele>851</ele>
        <time>2024-12-08T04:31:02.620Z</time>
      </trkpt>
      <trkpt lat="45.92527" lon="3.85724">
        <ele>851</ele>
        <time>2024-12-08T04:31:03.620Z</time>
      </trkpt>
      <trkpt lat="45.92528" lon="3.85724">
        <ele>851</ele>
        <time>2024-12-08T04:31:04.620Z</time>
      </trkpt>
      <trkpt lat="45.92528" lon="3.85725">
        <ele>851</ele>
        <time>2024-12-08T04:31:05.620Z</time>
      </trkpt>
      <trkpt lat="45.9253" lon="3.85726">
        <ele>851</ele>
        <time>2024-12-08T04:31:06.620Z</time>
      </trkpt>
      <trkpt lat="45.92531" lon="3.85727">
        <ele>851</ele>
        <time>2024-12-08T04:31:07.620Z</time>
      </trkpt>
      <trkpt lat="45.92532" lon="3.85728">
        <ele>851</ele>
        <time>2024-12-08T04:31:08.620Z</time>
      </trkpt>
      <trkpt lat="45.92533" lon="3.85729">
        <ele>851</ele>
        <time>2024-12-08T04:31:09.619Z</time>
      </trkpt>
      <trkpt lat="45.92534" lon="3.8573">
        <ele>851</ele>
        <time>2024-12-08T04:31:10.620Z</time>
      </trkpt>
      <trkpt lat="45.92535" lon="3.85731">
        <ele>851</ele>
        <time>2024-12-08T04:31:11.620Z</time>
      </trkpt>
      <trkpt lat="45.92537" lon="3.85732">
        <ele>851</ele>
        <time>2024-12-08T04:31:12.620Z</time>
      </trkpt>
      <trkpt lat="45.92538" lon="3.85732">
        <ele>851</ele>
        <time>2024-12-08T04:31:13.619Z</time>
      </trkpt>
      <trkpt lat="45.92539" lon="3.85733">
        <ele>852</ele>
        <time>2024-12-08T04:31:14.620Z</time>
      </trkpt>
      <trkpt lat="45.9254" lon="3.85734">
        <ele>852</ele>
        <time>2024-12-08T04:31:15.620Z</time>
      </trkpt>
      <trkpt lat="45.92541" lon="3.85734">
        <ele>852</ele>
        <time>2024-12-08T04:31:16.620Z</time>
      </trkpt>
      <trkpt lat="45.92542" lon="3.85735">
        <ele>852</ele>
        <time>2024-12-08T04:31:17.620Z</time>
      </trkpt>
      <trkpt lat="45.92543" lon="3.85736">
        <ele>852</ele>
        <time>2024-12-08T04:31:18.619Z</time>
      </trkpt>
      <trkpt lat="45.92545" lon="3.85736">
        <ele>852</ele>
        <time>2024-12-08T04:31:19.619Z</time>
      </trkpt>
      <trkpt lat="45.92546" lon="3.85737">
        <ele>852</ele>
        <time>2024-12-08T04:31:20.620Z</time>
      </trkpt>
      <trkpt lat="45.92548" lon="3.85738">
        <ele>852</ele>
        <time>2024-12-08T04:31:21.620Z</time>
      </trkpt>
      <trkpt lat="45.92549" lon="3.85739">
        <ele>852</ele>
        <time>2024-12-08T04:31:22.619Z</time>
      </trkpt>
      <trkpt lat="45.9255" lon="3.8574">
        <ele>852</ele>
        <time>2024-12-08T04:31:23.620Z</time>
      </trkpt>
      <trkpt lat="45.92551" lon="3.8574">
        <ele>852</ele>
        <time>2024-12-08T04:31:24.619Z</time>
      </trkpt>
      <trkpt lat="45.92552" lon="3.85741">
        <ele>852</ele>
        <time>2024-12-08T04:31:25.619Z</time>
      </trkpt>
      <trkpt lat="45.92553" lon="3.85742">
        <ele>852</ele>
        <time>2024-12-08T04:31:26.619Z</time>
      </trkpt>
      <trkpt lat="45.92554" lon="3.85742">
        <ele>851</ele>
        <time>2024-12-08T04:31:27.620Z</time>
      </trkpt>
      <trkpt lat="45.92556" lon="3.85742">
        <ele>851</ele>
        <time>2024-12-08T04:31:28.620Z</time>
      </trkpt>
      <trkpt lat="45.92557" lon="3.85743">
        <ele>852</ele>
        <time>2024-12-08T04:31:29.620Z</time>
      </trkpt>
      <trkpt lat="45.92559" lon="3.85744">
        <ele>852</ele>
        <time>2024-12-08T04:31:30.620Z</time>
      </trkpt>
      <trkpt lat="45.9256" lon="3.85744">
        <ele>852</ele>
        <time>2024-12-08T04:31:31.619Z</time>
      </trkpt>
      <trkpt lat="45.9256" lon="3.85745">
        <ele>852</ele>
        <time>2024-12-08T04:31:32.620Z</time>
      </trkpt>
      <trkpt lat="45.92561" lon="3.85745">
        <ele>852</ele>
        <time>2024-12-08T04:31:33.620Z</time>
      </trkpt>
      <trkpt lat="45.92562" lon="3.85746">
        <ele>853</ele>
        <time>2024-12-08T04:31:34.620Z</time>
      </trkpt>
      <trkpt lat="45.92563" lon="3.85746">
        <ele>853</ele>
        <time>2024-12-08T04:31:35.619Z</time>
      </trkpt>
      <trkpt lat="45.92564" lon="3.85747">
        <ele>854</ele>
        <time>2024-12-08T04:31:36.620Z</time>
      </trkpt>
      <trkpt lat="45.92565" lon="3.85747">
        <ele>854</ele>
        <time>2024-12-08T04:31:37.619Z</time>
      </trkpt>
      <trkpt lat="45.92566" lon="3.85748">
        <ele>855</ele>
        <time>2024-12-08T04:31:38.620Z</time>
      </trkpt>
      <trkpt lat="45.92567" lon="3.85749">
        <ele>855</ele>
        <time>2024-12-08T04:31:39.619Z</time>
      </trkpt>
      <trkpt lat="45.92568" lon="3.8575">
        <ele>855</ele>
        <time>2024-12-08T04:31:40.620Z</time>
      </trkpt>
      <trkpt lat="45.92569" lon="3.8575">
        <ele>855</ele>
        <time>2024-12-08T04:31:41.620Z</time>
      </trkpt>
      <trkpt lat="45.9257" lon="3.85751">
        <ele>855</ele>
        <time>2024-12-08T04:31:42.620Z</time>
      </trkpt>
      <trkpt lat="45.92571" lon="3.85752">
        <ele>855</ele>
        <time>2024-12-08T04:31:43.620Z</time>
      </trkpt>
      <trkpt lat="45.92572" lon="3.85753">
        <ele>855</ele>
        <time>2024-12-08T04:31:44.619Z</time>
      </trkpt>
      <trkpt lat="45.92573" lon="3.85753">
        <ele>855</ele>
        <time>2024-12-08T04:31:45.619Z</time>
      </trkpt>
      <trkpt lat="45.92574" lon="3.85755">
        <ele>855</ele>
        <time>2024-12-08T04:31:46.619Z</time>
      </trkpt>
      <trkpt lat="45.92575" lon="3.85756">
        <ele>855</ele>
        <time>2024-12-08T04:31:47.620Z</time>
      </trkpt>
      <trkpt lat="45.92576" lon="3.85757">
        <ele>855</ele>
        <time>2024-12-08T04:31:48.619Z</time>
      </trkpt>
      <trkpt lat="45.92577" lon="3.85758">
        <ele>854</ele>
        <time>2024-12-08T04:31:49.620Z</time>
      </trkpt>
      <trkpt lat="45.92578" lon="3.85759">
        <ele>854</ele>
        <time>2024-12-08T04:31:50.619Z</time>
      </trkpt>
      <trkpt lat="45.92579" lon="3.8576">
        <ele>854</ele>
        <time>2024-12-08T04:31:51.620Z</time>
      </trkpt>
      <trkpt lat="45.9258" lon="3.85761">
        <ele>854</ele>
        <time>2024-12-08T04:31:52.620Z</time>
      </trkpt>
      <trkpt lat="45.92581" lon="3.85763">
        <ele>854</ele>
        <time>2024-12-08T04:31:53.620Z</time>
      </trkpt>
      <trkpt lat="45.92583" lon="3.85764">
        <ele>854</ele>
        <time>2024-12-08T04:31:54.619Z</time>
      </trkpt>
      <trkpt lat="45.92584" lon="3.85765">
        <ele>854</ele>
        <time>2024-12-08T04:31:55.619Z</time>
      </trkpt>
      <trkpt lat="45.92585" lon="3.85766">
        <ele>854</ele>
        <time>2024-12-08T04:31:56.620Z</time>
      </trkpt>
      <trkpt lat="45.92585" lon="3.85768">
        <ele>855</ele>
        <time>2024-12-08T04:31:57.620Z</time>
      </trkpt>
      <trkpt lat="45.92586" lon="3.85769">
        <ele>855</ele>
        <time>2024-12-08T04:31:58.619Z</time>
      </trkpt>
      <trkpt lat="45.92588" lon="3.8577">
        <ele>855</ele>
        <time>2024-12-08T04:31:59.620Z</time>
      </trkpt>
      <trkpt lat="45.92589" lon="3.85771">
        <ele>856</ele>
        <time>2024-12-08T04:32:00.620Z</time>
      </trkpt>
      <trkpt lat="45.9259" lon="3.85772">
        <ele>856</ele>
        <time>2024-12-08T04:32:01.619Z</time>
      </trkpt>
      <trkpt lat="45.92591" lon="3.85773">
        <ele>856</ele>
        <time>2024-12-08T04:32:02.619Z</time>
      </trkpt>
      <trkpt lat="45.92592" lon="3.85774">
        <ele>856</ele>
        <time>2024-12-08T04:32:03.619Z</time>
      </trkpt>
      <trkpt lat="45.92593" lon="3.85775">
        <ele>856</ele>
        <time>2024-12-08T04:32:04.620Z</time>
      </trkpt>
      <trkpt lat="45.92593" lon="3.85777">
        <ele>856</ele>
        <time>2024-12-08T04:32:05.619Z</time>
      </trkpt>
      <trkpt lat="45.92594" lon="3.85778">
        <ele>856</ele>
        <time>2024-12-08T04:32:06.620Z</time>
      </trkpt>
      <trkpt lat="45.92595" lon="3.85779">
        <ele>856</ele>
        <time>2024-12-08T04:32:07.619Z</time>
      </trkpt>
      <trkpt lat="45.92596" lon="3.8578">
        <ele>857</ele>
        <time>2024-12-08T04:32:08.620Z</time>
      </trkpt>
      <trkpt lat="45.92597" lon="3.85782">
        <ele>857</ele>
        <time>2024-12-08T04:32:09.620Z</time>
      </trkpt>
      <trkpt lat="45.92598" lon="3.85783">
        <ele>857</ele>
        <time>2024-12-08T04:32:10.620Z</time>
      </trkpt>
      <trkpt lat="45.92599" lon="3.85784">
        <ele>857</ele>
        <time>2024-12-08T04:32:11.620Z</time>
      </trkpt>
      <trkpt lat="45.926" lon="3.85785">
        <ele>857</ele>
        <time>2024-12-08T04:32:12.619Z</time>
      </trkpt>
      <trkpt lat="45.92601" lon="3.85786">
        <ele>857</ele>
        <time>2024-12-08T04:32:13.619Z</time>
      </trkpt>
      <trkpt lat="45.92602" lon="3.85787">
        <ele>857</ele>
        <time>2024-12-08T04:32:14.620Z</time>
      </trkpt>
      <trkpt lat="45.92602" lon="3.85788">
        <ele>857</ele>
        <time>2024-12-08T04:32:15.619Z</time>
      </trkpt>
      <trkpt lat="45.92603" lon="3.85789">
        <ele>857</ele>
        <time>2024-12-08T04:32:16.619Z</time>
      </trkpt>
      <trkpt lat="45.92604" lon="3.85791">
        <ele>857</ele>
        <time>2024-12-08T04:32:17.619Z</time>
      </trkpt>
      <trkpt lat="45.92605" lon="3.85792">
        <ele>856</ele>
        <time>2024-12-08T04:32:18.620Z</time>
      </trkpt>
      <trkpt lat="45.92606" lon="3.85793">
        <ele>856</ele>
        <time>2024-12-08T04:32:19.620Z</time>
      </trkpt>
      <trkpt lat="45.92606" lon="3.85794">
        <ele>856</ele>
        <time>2024-12-08T04:32:20.619Z</time>
      </trkpt>
      <trkpt lat="45.92608" lon="3.85795">
        <ele>856</ele>
        <time>2024-12-08T04:32:21.620Z</time>
      </trkpt>
      <trkpt lat="45.92609" lon="3.85796">
        <ele>857</ele>
        <time>2024-12-08T04:32:22.619Z</time>
      </trkpt>
      <trkpt lat="45.92609" lon="3.85796">
        <ele>857</ele>
        <time>2024-12-08T04:32:23.620Z</time>
      </trkpt>
      <trkpt lat="45.9261" lon="3.85798">
        <ele>857</ele>
        <time>2024-12-08T04:32:24.619Z</time>
      </trkpt>
      <trkpt lat="45.9261" lon="3.85799">
        <ele>857</ele>
        <time>2024-12-08T04:32:25.620Z</time>
      </trkpt>
      <trkpt lat="45.92611" lon="3.858">
        <ele>857</ele>
        <time>2024-12-08T04:32:26.619Z</time>
      </trkpt>
      <trkpt lat="45.92612" lon="3.85801">
        <ele>857</ele>
        <time>2024-12-08T04:32:27.620Z</time>
      </trkpt>
      <trkpt lat="45.92613" lon="3.85802">
        <ele>857</ele>
        <time>2024-12-08T04:32:28.620Z</time>
      </trkpt>
      <trkpt lat="45.92614" lon="3.85803">
        <ele>857</ele>
        <time>2024-12-08T04:32:29.620Z</time>
      </trkpt>
      <trkpt lat="45.92615" lon="3.85804">
        <ele>857</ele>
        <time>2024-12-08T04:32:30.620Z</time>
      </trkpt>
      <trkpt lat="45.92617" lon="3.85805">
        <ele>857</ele>
        <time>2024-12-08T04:32:31.619Z</time>
      </trkpt>
      <trkpt lat="45.92618" lon="3.85806">
        <ele>858</ele>
        <time>2024-12-08T04:32:32.619Z</time>
      </trkpt>
      <trkpt lat="45.92619" lon="3.85807">
        <ele>858</ele>
        <time>2024-12-08T04:32:33.619Z</time>
      </trkpt>
      <trkpt lat="45.9262" lon="3.85807">
        <ele>858</ele>
        <time>2024-12-08T04:32:34.619Z</time>
      </trkpt>
      <trkpt lat="45.9262" lon="3.85809">
        <ele>858</ele>
        <time>2024-12-08T04:32:35.619Z</time>
      </trkpt>
      <trkpt lat="45.92621" lon="3.8581">
        <ele>858</ele>
        <time>2024-12-08T04:32:36.619Z</time>
      </trkpt>
      <trkpt lat="45.92623" lon="3.85811">
        <ele>859</ele>
        <time>2024-12-08T04:32:37.620Z</time>
      </trkpt>
      <trkpt lat="45.92623" lon="3.85812">
        <ele>858</ele>
        <time>2024-12-08T04:32:38.619Z</time>
      </trkpt>
      <trkpt lat="45.92624" lon="3.85813">
        <ele>858</ele>
        <time>2024-12-08T04:32:39.619Z</time>
      </trkpt>
      <trkpt lat="45.92625" lon="3.85814">
        <ele>858</ele>
        <time>2024-12-08T04:32:40.619Z</time>
      </trkpt>
      <trkpt lat="45.92626" lon="3.85815">
        <ele>858</ele>
        <time>2024-12-08T04:32:41.620Z</time>
      </trkpt>
      <trkpt lat="45.92626" lon="3.85816">
        <ele>859</ele>
        <time>2024-12-08T04:32:42.619Z</time>
      </trkpt>
      <trkpt lat="45.92628" lon="3.85817">
        <ele>859</ele>
        <time>2024-12-08T04:32:43.619Z</time>
      </trkpt>
      <trkpt lat="45.92629" lon="3.85818">
        <ele>859</ele>
        <time>2024-12-08T04:32:44.620Z</time>
      </trkpt>
      <trkpt lat="45.9263" lon="3.85819">
        <ele>859</ele>
        <time>2024-12-08T04:32:45.619Z</time>
      </trkpt>
      <trkpt lat="45.9263" lon="3.8582">
        <ele>859</ele>
        <time>2024-12-08T04:32:46.620Z</time>
      </trkpt>
      <trkpt lat="45.92631" lon="3.85821">
        <ele>860</ele>
        <time>2024-12-08T04:32:47.619Z</time>
      </trkpt>
      <trkpt lat="45.92632" lon="3.85822">
        <ele>860</ele>
        <time>2024-12-08T04:32:48.620Z</time>
      </trkpt>
      <trkpt lat="45.92633" lon="3.85823">
        <ele>860</ele>
        <time>2024-12-08T04:32:49.620Z</time>
      </trkpt>
      <trkpt lat="45.92634" lon="3.85824">
        <ele>861</ele>
        <time>2024-12-08T04:32:50.619Z</time>
      </trkpt>
      <trkpt lat="45.92635" lon="3.85826">
        <ele>861</ele>
        <time>2024-12-08T04:32:51.619Z</time>
      </trkpt>
      <trkpt lat="45.92635" lon="3.85827">
        <ele>861</ele>
        <time>2024-12-08T04:32:52.620Z</time>
      </trkpt>
      <trkpt lat="45.92636" lon="3.85828">
        <ele>861</ele>
        <time>2024-12-08T04:32:53.620Z</time>
      </trkpt>
      <trkpt lat="45.92637" lon="3.85829">
        <ele>861</ele>
        <time>2024-12-08T04:32:54.620Z</time>
      </trkpt>
      <trkpt lat="45.92638" lon="3.8583">
        <ele>861</ele>
        <time>2024-12-08T04:32:55.619Z</time>
      </trkpt>
      <trkpt lat="45.92639" lon="3.85832">
        <ele>862</ele>
        <time>2024-12-08T04:32:56.620Z</time>
      </trkpt>
      <trkpt lat="45.9264" lon="3.85833">
        <ele>862</ele>
        <time>2024-12-08T04:32:57.619Z</time>
      </trkpt>
      <trkpt lat="45.92641" lon="3.85835">
        <ele>862</ele>
        <time>2024-12-08T04:32:58.620Z</time>
      </trkpt>
      <trkpt lat="45.92642" lon="3.85836">
        <ele>862</ele>
        <time>2024-12-08T04:32:59.620Z</time>
      </trkpt>
      <trkpt lat="45.92643" lon="3.85837">
        <ele>862</ele>
        <time>2024-12-08T04:33:00.620Z</time>
      </trkpt>
      <trkpt lat="45.92644" lon="3.85838">
        <ele>862</ele>
        <time>2024-12-08T04:33:01.620Z</time>
      </trkpt>
      <trkpt lat="45.92645" lon="3.85839">
        <ele>862</ele>
        <time>2024-12-08T04:33:02.619Z</time>
      </trkpt>
      <trkpt lat="45.92646" lon="3.8584">
        <ele>863</ele>
        <time>2024-12-08T04:33:03.620Z</time>
      </trkpt>
      <trkpt lat="45.92647" lon="3.85841">
        <ele>863</ele>
        <time>2024-12-08T04:33:04.619Z</time>
      </trkpt>
      <trkpt lat="45.92647" lon="3.85842">
        <ele>863</ele>
        <time>2024-12-08T04:33:05.620Z</time>
      </trkpt>
      <trkpt lat="45.92648" lon="3.85843">
        <ele>863</ele>
        <time>2024-12-08T04:33:06.619Z</time>
      </trkpt>
      <trkpt lat="45.92649" lon="3.85844">
        <ele>864</ele>
        <time>2024-12-08T04:33:07.620Z</time>
      </trkpt>
      <trkpt lat="45.9265" lon="3.85845">
        <ele>864</ele>
        <time>2024-12-08T04:33:08.619Z</time>
      </trkpt>
      <trkpt lat="45.92651" lon="3.85847">
        <ele>864</ele>
        <time>2024-12-08T04:33:09.619Z</time>
      </trkpt>
      <trkpt lat="45.92652" lon="3.85848">
        <ele>864</ele>
        <time>2024-12-08T04:33:10.619Z</time>
      </trkpt>
      <trkpt lat="45.92653" lon="3.85849">
        <ele>864</ele>
        <time>2024-12-08T04:33:11.619Z</time>
      </trkpt>
      <trkpt lat="45.92653" lon="3.8585">
        <ele>864</ele>
        <time>2024-12-08T04:33:12.620Z</time>
      </trkpt>
      <trkpt lat="45.92654" lon="3.85851">
        <ele>864</ele>
        <time>2024-12-08T04:33:13.620Z</time>
      </trkpt>
      <trkpt lat="45.92655" lon="3.85852">
        <ele>864</ele>
        <time>2024-12-08T04:33:14.620Z</time>
      </trkpt>
      <trkpt lat="45.92656" lon="3.85853">
        <ele>864</ele>
        <time>2024-12-08T04:33:15.620Z</time>
      </trkpt>
      <trkpt lat="45.92657" lon="3.85854">
        <ele>864</ele>
        <time>2024-12-08T04:33:16.620Z</time>
      </trkpt>
      <trkpt lat="45.92658" lon="3.85855">
        <ele>864</ele>
        <time>2024-12-08T04:33:17.620Z</time>
      </trkpt>
      <trkpt lat="45.92659" lon="3.85856">
        <ele>864</ele>
        <time>2024-12-08T04:33:18.620Z</time>
      </trkpt>
      <trkpt lat="45.9266" lon="3.85857">
        <ele>864</ele>
        <time>2024-12-08T04:33:19.620Z</time>
      </trkpt>
      <trkpt lat="45.92661" lon="3.85858">
        <ele>864</ele>
        <time>2024-12-08T04:33:20.619Z</time>
      </trkpt>
      <trkpt lat="45.92662" lon="3.85859">
        <ele>864</ele>
        <time>2024-12-08T04:33:21.620Z</time>
      </trkpt>
      <trkpt lat="45.92663" lon="3.85861">
        <ele>864</ele>
        <time>2024-12-08T04:33:22.620Z</time>
      </trkpt>
      <trkpt lat="45.92664" lon="3.85862">
        <ele>865</ele>
        <time>2024-12-08T04:33:23.619Z</time>
      </trkpt>
      <trkpt lat="45.92664" lon="3.85863">
        <ele>865</ele>
        <time>2024-12-08T04:33:24.620Z</time>
      </trkpt>
      <trkpt lat="45.92665" lon="3.85864">
        <ele>865</ele>
        <time>2024-12-08T04:33:25.619Z</time>
      </trkpt>
      <trkpt lat="45.92666" lon="3.85865">
        <ele>866</ele>
        <time>2024-12-08T04:33:26.620Z</time>
      </trkpt>
      <trkpt lat="45.92667" lon="3.85866">
        <ele>866</ele>
        <time>2024-12-08T04:33:27.619Z</time>
      </trkpt>
      <trkpt lat="45.92668" lon="3.85867">
        <ele>866</ele>
        <time>2024-12-08T04:33:28.620Z</time>
      </trkpt>
      <trkpt lat="45.92669" lon="3.85868">
        <ele>866</ele>
        <time>2024-12-08T04:33:29.619Z</time>
      </trkpt>
      <trkpt lat="45.9267" lon="3.8587">
        <ele>866</ele>
        <time>2024-12-08T04:33:30.619Z</time>
      </trkpt>
      <trkpt lat="45.9267" lon="3.85871">
        <ele>866</ele>
        <time>2024-12-08T04:33:31.620Z</time>
      </trkpt>
      <trkpt lat="45.92671" lon="3.85872">
        <ele>866</ele>
        <time>2024-12-08T04:33:32.619Z</time>
      </trkpt>
      <trkpt lat="45.92672" lon="3.85873">
        <ele>866</ele>
        <time>2024-12-08T04:33:33.620Z</time>
      </trkpt>
      <trkpt lat="45.92673" lon="3.85874">
        <ele>866</ele>
        <time>2024-12-08T04:33:34.619Z</time>
      </trkpt>
      <trkpt lat="45.92674" lon="3.85875">
        <ele>867</ele>
        <time>2024-12-08T04:33:35.620Z</time>
      </trkpt>
      <trkpt lat="45.92675" lon="3.85876">
        <ele>867</ele>
        <time>2024-12-08T04:33:36.619Z</time>
      </trkpt>
      <trkpt lat="45.92676" lon="3.85877">
        <ele>867</ele>
        <time>2024-12-08T04:33:37.620Z</time>
      </trkpt>
      <trkpt lat="45.92677" lon="3.85879">
        <ele>866</ele>
        <time>2024-12-08T04:33:38.620Z</time>
      </trkpt>
      <trkpt lat="45.92678" lon="3.8588">
        <ele>866</ele>
        <time>2024-12-08T04:33:39.619Z</time>
      </trkpt>
      <trkpt lat="45.92679" lon="3.85881">
        <ele>866</ele>
        <time>2024-12-08T04:33:40.620Z</time>
      </trkpt>
      <trkpt lat="45.9268" lon="3.85882">
        <ele>866</ele>
        <time>2024-12-08T04:33:41.619Z</time>
      </trkpt>
      <trkpt lat="45.9268" lon="3.85883">
        <ele>866</ele>
        <time>2024-12-08T04:33:42.619Z</time>
      </trkpt>
      <trkpt lat="45.92681" lon="3.85885">
        <ele>867</ele>
        <time>2024-12-08T04:33:43.620Z</time>
      </trkpt>
      <trkpt lat="45.92682" lon="3.85886">
        <ele>867</ele>
        <time>2024-12-08T04:33:44.619Z</time>
      </trkpt>
      <trkpt lat="45.92682" lon="3.85886">
        <ele>867</ele>
        <time>2024-12-08T04:33:45.619Z</time>
      </trkpt>
      <trkpt lat="45.92683" lon="3.85888">
        <ele>867</ele>
        <time>2024-12-08T04:33:46.619Z</time>
      </trkpt>
      <trkpt lat="45.92684" lon="3.85889">
        <ele>867</ele>
        <time>2024-12-08T04:33:47.619Z</time>
      </trkpt>
      <trkpt lat="45.92685" lon="3.8589">
        <ele>868</ele>
        <time>2024-12-08T04:33:48.619Z</time>
      </trkpt>
      <trkpt lat="45.92686" lon="3.85891">
        <ele>868</ele>
        <time>2024-12-08T04:33:49.619Z</time>
      </trkpt>
      <trkpt lat="45.92688" lon="3.85892">
        <ele>869</ele>
        <time>2024-12-08T04:33:50.620Z</time>
      </trkpt>
      <trkpt lat="45.92689" lon="3.85893">
        <ele>869</ele>
        <time>2024-12-08T04:33:51.619Z</time>
      </trkpt>
      <trkpt lat="45.9269" lon="3.85894">
        <ele>870</ele>
        <time>2024-12-08T04:33:52.619Z</time>
      </trkpt>
      <trkpt lat="45.92691" lon="3.85895">
        <ele>870</ele>
        <time>2024-12-08T04:33:53.619Z</time>
      </trkpt>
      <trkpt lat="45.92691" lon="3.85896">
        <ele>871</ele>
        <time>2024-12-08T04:33:54.620Z</time>
      </trkpt>
      <trkpt lat="45.92692" lon="3.85897">
        <ele>871</ele>
        <time>2024-12-08T04:33:55.619Z</time>
      </trkpt>
      <trkpt lat="45.92693" lon="3.85898">
        <ele>871</ele>
        <time>2024-12-08T04:33:56.620Z</time>
      </trkpt>
      <trkpt lat="45.92694" lon="3.85899">
        <ele>871</ele>
        <time>2024-12-08T04:33:57.620Z</time>
      </trkpt>
      <trkpt lat="45.92695" lon="3.85901">
        <ele>871</ele>
        <time>2024-12-08T04:33:58.619Z</time>
      </trkpt>
      <trkpt lat="45.92695" lon="3.85902">
        <ele>871</ele>
        <time>2024-12-08T04:33:59.620Z</time>
      </trkpt>
      <trkpt lat="45.92696" lon="3.85904">
        <ele>871</ele>
        <time>2024-12-08T04:34:00.620Z</time>
      </trkpt>
      <trkpt lat="45.92697" lon="3.85906">
        <ele>871</ele>
        <time>2024-12-08T04:34:01.619Z</time>
      </trkpt>
      <trkpt lat="45.92698" lon="3.85906">
        <ele>870</ele>
        <time>2024-12-08T04:34:02.619Z</time>
      </trkpt>
      <trkpt lat="45.92699" lon="3.85907">
        <ele>871</ele>
        <time>2024-12-08T04:34:03.619Z</time>
      </trkpt>
      <trkpt lat="45.927" lon="3.85908">
        <ele>871</ele>
        <time>2024-12-08T04:34:04.619Z</time>
      </trkpt>
      <trkpt lat="45.92701" lon="3.8591">
        <ele>871</ele>
        <time>2024-12-08T04:34:05.619Z</time>
      </trkpt>
      <trkpt lat="45.92702" lon="3.85911">
        <ele>871</ele>
        <time>2024-12-08T04:34:06.619Z</time>
      </trkpt>
      <trkpt lat="45.92703" lon="3.85912">
        <ele>871</ele>
        <time>2024-12-08T04:34:07.619Z</time>
      </trkpt>
      <trkpt lat="45.92705" lon="3.85913">
        <ele>871</ele>
        <time>2024-12-08T04:34:08.619Z</time>
      </trkpt>
      <trkpt lat="45.92706" lon="3.85914">
        <ele>871</ele>
        <time>2024-12-08T04:34:09.619Z</time>
      </trkpt>
      <trkpt lat="45.92707" lon="3.85915">
        <ele>871</ele>
        <time>2024-12-08T04:34:10.619Z</time>
      </trkpt>
      <trkpt lat="45.92708" lon="3.85916">
        <ele>872</ele>
        <time>2024-12-08T04:34:11.619Z</time>
      </trkpt>
      <trkpt lat="45.92709" lon="3.85917">
        <ele>872</ele>
        <time>2024-12-08T04:34:12.620Z</time>
      </trkpt>
      <trkpt lat="45.9271" lon="3.85918">
        <ele>872</ele>
        <time>2024-12-08T04:34:13.620Z</time>
      </trkpt>
      <trkpt lat="45.92711" lon="3.8592">
        <ele>872</ele>
        <time>2024-12-08T04:34:14.619Z</time>
      </trkpt>
      <trkpt lat="45.92712" lon="3.85921">
        <ele>873</ele>
        <time>2024-12-08T04:34:15.619Z</time>
      </trkpt>
      <trkpt lat="45.92714" lon="3.85922">
        <ele>873</ele>
        <time>2024-12-08T04:34:16.620Z</time>
      </trkpt>
      <trkpt lat="45.92714" lon="3.85923">
        <ele>873</ele>
        <time>2024-12-08T04:34:17.619Z</time>
      </trkpt>
      <trkpt lat="45.92715" lon="3.85924">
        <ele>873</ele>
        <time>2024-12-08T04:34:18.620Z</time>
      </trkpt>
      <trkpt lat="45.92716" lon="3.85926">
        <ele>873</ele>
        <time>2024-12-08T04:34:19.620Z</time>
      </trkpt>
      <trkpt lat="45.92717" lon="3.85927">
        <ele>873</ele>
        <time>2024-12-08T04:34:20.619Z</time>
      </trkpt>
      <trkpt lat="45.92718" lon="3.85928">
        <ele>873</ele>
        <time>2024-12-08T04:34:21.619Z</time>
      </trkpt>
      <trkpt lat="45.92719" lon="3.85929">
        <ele>873</ele>
        <time>2024-12-08T04:34:22.620Z</time>
      </trkpt>
      <trkpt lat="45.9272" lon="3.8593">
        <ele>873</ele>
        <time>2024-12-08T04:34:23.620Z</time>
      </trkpt>
      <trkpt lat="45.92721" lon="3.85931">
        <ele>874</ele>
        <time>2024-12-08T04:34:24.619Z</time>
      </trkpt>
      <trkpt lat="45.92722" lon="3.85933">
        <ele>873</ele>
        <time>2024-12-08T04:34:25.619Z</time>
      </trkpt>
      <trkpt lat="45.92723" lon="3.85934">
        <ele>873</ele>
        <time>2024-12-08T04:34:26.619Z</time>
      </trkpt>
      <trkpt lat="45.92724" lon="3.85935">
        <ele>873</ele>
        <time>2024-12-08T04:34:27.619Z</time>
      </trkpt>
      <trkpt lat="45.92726" lon="3.85936">
        <ele>873</ele>
        <time>2024-12-08T04:34:28.619Z</time>
      </trkpt>
      <trkpt lat="45.92727" lon="3.85938">
        <ele>873</ele>
        <time>2024-12-08T04:34:29.619Z</time>
      </trkpt>
      <trkpt lat="45.92727" lon="3.85939">
        <ele>873</ele>
        <time>2024-12-08T04:34:30.619Z</time>
      </trkpt>
      <trkpt lat="45.92729" lon="3.85939">
        <ele>873</ele>
        <time>2024-12-08T04:34:31.619Z</time>
      </trkpt>
      <trkpt lat="45.9273" lon="3.8594">
        <ele>873</ele>
        <time>2024-12-08T04:34:32.620Z</time>
      </trkpt>
      <trkpt lat="45.9273" lon="3.85942">
        <ele>873</ele>
        <time>2024-12-08T04:34:33.619Z</time>
      </trkpt>
      <trkpt lat="45.92731" lon="3.85943">
        <ele>873</ele>
        <time>2024-12-08T04:34:34.619Z</time>
      </trkpt>
      <trkpt lat="45.92732" lon="3.85944">
        <ele>873</ele>
        <time>2024-12-08T04:34:35.619Z</time>
      </trkpt>
      <trkpt lat="45.92733" lon="3.85945">
        <ele>873</ele>
        <time>2024-12-08T04:34:36.619Z</time>
      </trkpt>
      <trkpt lat="45.92733" lon="3.85946">
        <ele>873</ele>
        <time>2024-12-08T04:34:37.620Z</time>
      </trkpt>
      <trkpt lat="45.92734" lon="3.85947">
        <ele>873</ele>
        <time>2024-12-08T04:34:38.620Z</time>
      </trkpt>
      <trkpt lat="45.92735" lon="3.85948">
        <ele>873</ele>
        <time>2024-12-08T04:34:39.619Z</time>
      </trkpt>
      <trkpt lat="45.92736" lon="3.85949">
        <ele>873</ele>
        <time>2024-12-08T04:34:40.619Z</time>
      </trkpt>
      <trkpt lat="45.92736" lon="3.8595">
        <ele>873</ele>
        <time>2024-12-08T04:34:41.619Z</time>
      </trkpt>
      <trkpt lat="45.92737" lon="3.85952">
        <ele>873</ele>
        <time>2024-12-08T04:34:42.620Z</time>
      </trkpt>
      <trkpt lat="45.92739" lon="3.85953">
        <ele>873</ele>
        <time>2024-12-08T04:34:43.620Z</time>
      </trkpt>
      <trkpt lat="45.9274" lon="3.85953">
        <ele>873</ele>
        <time>2024-12-08T04:34:44.619Z</time>
      </trkpt>
      <trkpt lat="45.92741" lon="3.85955">
        <ele>874</ele>
        <time>2024-12-08T04:34:45.619Z</time>
      </trkpt>
      <trkpt lat="45.92742" lon="3.85955">
        <ele>874</ele>
        <time>2024-12-08T04:34:46.620Z</time>
      </trkpt>
      <trkpt lat="45.92743" lon="3.85957">
        <ele>874</ele>
        <time>2024-12-08T04:34:47.619Z</time>
      </trkpt>
      <trkpt lat="45.92744" lon="3.85958">
        <ele>875</ele>
        <time>2024-12-08T04:34:48.619Z</time>
      </trkpt>
      <trkpt lat="45.92745" lon="3.85959">
        <ele>875</ele>
        <time>2024-12-08T04:34:49.619Z</time>
      </trkpt>
      <trkpt lat="45.92746" lon="3.8596">
        <ele>875</ele>
        <time>2024-12-08T04:34:50.619Z</time>
      </trkpt>
      <trkpt lat="45.92748" lon="3.85961">
        <ele>875</ele>
        <time>2024-12-08T04:34:51.620Z</time>
      </trkpt>
      <trkpt lat="45.92748" lon="3.85962">
        <ele>875</ele>
        <time>2024-12-08T04:34:52.619Z</time>
      </trkpt>
      <trkpt lat="45.92749" lon="3.85962">
        <ele>875</ele>
        <time>2024-12-08T04:34:53.619Z</time>
      </trkpt>
      <trkpt lat="45.9275" lon="3.85963">
        <ele>876</ele>
        <time>2024-12-08T04:34:54.620Z</time>
      </trkpt>
      <trkpt lat="45.92751" lon="3.85964">
        <ele>876</ele>
        <time>2024-12-08T04:34:55.619Z</time>
      </trkpt>
      <trkpt lat="45.92752" lon="3.85965">
        <ele>876</ele>
        <time>2024-12-08T04:34:56.619Z</time>
      </trkpt>
      <trkpt lat="45.92752" lon="3.85967">
        <ele>877</ele>
        <time>2024-12-08T04:34:57.619Z</time>
      </trkpt>
      <trkpt lat="45.92753" lon="3.85968">
        <ele>877</ele>
        <time>2024-12-08T04:34:58.620Z</time>
      </trkpt>
      <trkpt lat="45.92753" lon="3.85969">
        <ele>878</ele>
        <time>2024-12-08T04:34:59.620Z</time>
      </trkpt>
      <trkpt lat="45.92754" lon="3.8597">
        <ele>878</ele>
        <time>2024-12-08T04:35:00.619Z</time>
      </trkpt>
      <trkpt lat="45.92755" lon="3.85971">
        <ele>879</ele>
        <time>2024-12-08T04:35:01.619Z</time>
      </trkpt>
      <trkpt lat="45.92756" lon="3.85971">
        <ele>879</ele>
        <time>2024-12-08T04:35:02.619Z</time>
      </trkpt>
      <trkpt lat="45.92757" lon="3.85972">
        <ele>879</ele>
        <time>2024-12-08T04:35:03.619Z</time>
      </trkpt>
      <trkpt lat="45.92757" lon="3.85973">
        <ele>879</ele>
        <time>2024-12-08T04:35:04.620Z</time>
      </trkpt>
      <trkpt lat="45.92758" lon="3.85975">
        <ele>879</ele>
        <time>2024-12-08T04:35:05.619Z</time>
      </trkpt>
      <trkpt lat="45.92759" lon="3.85976">
        <ele>879</ele>
        <time>2024-12-08T04:35:06.620Z</time>
      </trkpt>
      <trkpt lat="45.9276" lon="3.85977">
        <ele>880</ele>
        <time>2024-12-08T04:35:07.620Z</time>
      </trkpt>
      <trkpt lat="45.92761" lon="3.85979">
        <ele>880</ele>
        <time>2024-12-08T04:35:08.619Z</time>
      </trkpt>
      <trkpt lat="45.92761" lon="3.85979">
        <ele>880</ele>
        <time>2024-12-08T04:35:09.619Z</time>
      </trkpt>
      <trkpt lat="45.92762" lon="3.8598">
        <ele>880</ele>
        <time>2024-12-08T04:35:10.620Z</time>
      </trkpt>
      <trkpt lat="45.92763" lon="3.85981">
        <ele>880</ele>
        <time>2024-12-08T04:35:11.619Z</time>
      </trkpt>
      <trkpt lat="45.92764" lon="3.85982">
        <ele>880</ele>
        <time>2024-12-08T04:35:12.619Z</time>
      </trkpt>
      <trkpt lat="45.92765" lon="3.85983">
        <ele>881</ele>
        <time>2024-12-08T04:35:13.619Z</time>
      </trkpt>
      <trkpt lat="45.92765" lon="3.85985">
        <ele>881</ele>
        <time>2024-12-08T04:35:14.619Z</time>
      </trkpt>
      <trkpt lat="45.92765" lon="3.85986">
        <ele>881</ele>
        <time>2024-12-08T04:35:15.620Z</time>
      </trkpt>
      <trkpt lat="45.92766" lon="3.85987">
        <ele>881</ele>
        <time>2024-12-08T04:35:16.619Z</time>
      </trkpt>
      <trkpt lat="45.92766" lon="3.85989">
        <ele>881</ele>
        <time>2024-12-08T04:35:17.619Z</time>
      </trkpt>
      <trkpt lat="45.92767" lon="3.8599">
        <ele>880</ele>
        <time>2024-12-08T04:35:18.619Z</time>
      </trkpt>
      <trkpt lat="45.92768" lon="3.85991">
        <ele>880</ele>
        <time>2024-12-08T04:35:19.619Z</time>
      </trkpt>
      <trkpt lat="45.92769" lon="3.85991">
        <ele>880</ele>
        <time>2024-12-08T04:35:20.619Z</time>
      </trkpt>
      <trkpt lat="45.9277" lon="3.85992">
        <ele>880</ele>
        <time>2024-12-08T04:35:21.619Z</time>
      </trkpt>
      <trkpt lat="45.92771" lon="3.85993">
        <ele>881</ele>
        <time>2024-12-08T04:35:22.620Z</time>
      </trkpt>
      <trkpt lat="45.92772" lon="3.85994">
        <ele>881</ele>
        <time>2024-12-08T04:35:23.620Z</time>
      </trkpt>
      <trkpt lat="45.92773" lon="3.85995">
        <ele>880</ele>
        <time>2024-12-08T04:35:24.619Z</time>
      </trkpt>
      <trkpt lat="45.92773" lon="3.85996">
        <ele>880</ele>
        <time>2024-12-08T04:35:25.619Z</time>
      </trkpt>
      <trkpt lat="45.92774" lon="3.85997">
        <ele>880</ele>
        <time>2024-12-08T04:35:26.620Z</time>
      </trkpt>
      <trkpt lat="45.92775" lon="3.85998">
        <ele>880</ele>
        <time>2024-12-08T04:35:27.619Z</time>
      </trkpt>
      <trkpt lat="45.92776" lon="3.85998">
        <ele>880</ele>
        <time>2024-12-08T04:35:28.620Z</time>
      </trkpt>
      <trkpt lat="45.92777" lon="3.85999">
        <ele>880</ele>
        <time>2024-12-08T04:35:29.619Z</time>
      </trkpt>
      <trkpt lat="45.92778" lon="3.86">
        <ele>881</ele>
        <time>2024-12-08T04:35:30.619Z</time>
      </trkpt>
      <trkpt lat="45.92779" lon="3.86001">
        <ele>881</ele>
        <time>2024-12-08T04:35:31.620Z</time>
      </trkpt>
      <trkpt lat="45.9278" lon="3.86002">
        <ele>881</ele>
        <time>2024-12-08T04:35:32.619Z</time>
      </trkpt>
      <trkpt lat="45.92781" lon="3.86004">
        <ele>881</ele>
        <time>2024-12-08T04:35:33.619Z</time>
      </trkpt>
      <trkpt lat="45.92782" lon="3.86005">
        <ele>881</ele>
        <time>2024-12-08T04:35:34.620Z</time>
      </trkpt>
      <trkpt lat="45.92782" lon="3.86006">
        <ele>882</ele>
        <time>2024-12-08T04:35:35.619Z</time>
      </trkpt>
      <trkpt lat="45.92783" lon="3.86007">
        <ele>882</ele>
        <time>2024-12-08T04:35:36.620Z</time>
      </trkpt>
      <trkpt lat="45.92783" lon="3.86008">
        <ele>882</ele>
        <time>2024-12-08T04:35:37.619Z</time>
      </trkpt>
      <trkpt lat="45.92784" lon="3.8601">
        <ele>882</ele>
        <time>2024-12-08T04:35:38.619Z</time>
      </trkpt>
      <trkpt lat="45.92785" lon="3.86011">
        <ele>882</ele>
        <time>2024-12-08T04:35:39.620Z</time>
      </trkpt>
      <trkpt lat="45.92786" lon="3.86012">
        <ele>881</ele>
        <time>2024-12-08T04:35:40.619Z</time>
      </trkpt>
      <trkpt lat="45.92786" lon="3.86013">
        <ele>882</ele>
        <time>2024-12-08T04:35:41.619Z</time>
      </trkpt>
      <trkpt lat="45.92787" lon="3.86014">
        <ele>882</ele>
        <time>2024-12-08T04:35:42.620Z</time>
      </trkpt>
      <trkpt lat="45.92788" lon="3.86015">
        <ele>882</ele>
        <time>2024-12-08T04:35:43.620Z</time>
      </trkpt>
      <trkpt lat="45.92789" lon="3.86016">
        <ele>882</ele>
        <time>2024-12-08T04:35:44.619Z</time>
      </trkpt>
      <trkpt lat="45.9279" lon="3.86018">
        <ele>882</ele>
        <time>2024-12-08T04:35:45.620Z</time>
      </trkpt>
      <trkpt lat="45.92791" lon="3.86019">
        <ele>882</ele>
        <time>2024-12-08T04:35:46.619Z</time>
      </trkpt>
      <trkpt lat="45.92791" lon="3.8602">
        <ele>882</ele>
        <time>2024-12-08T04:35:47.620Z</time>
      </trkpt>
      <trkpt lat="45.92792" lon="3.86022">
        <ele>882</ele>
        <time>2024-12-08T04:35:48.620Z</time>
      </trkpt>
      <trkpt lat="45.92793" lon="3.86024">
        <ele>883</ele>
        <time>2024-12-08T04:35:49.619Z</time>
      </trkpt>
      <trkpt lat="45.92793" lon="3.86025">
        <ele>883</ele>
        <time>2024-12-08T04:35:50.619Z</time>
      </trkpt>
      <trkpt lat="45.92794" lon="3.86026">
        <ele>883</ele>
        <time>2024-12-08T04:35:51.620Z</time>
      </trkpt>
      <trkpt lat="45.92794" lon="3.86027">
        <ele>884</ele>
        <time>2024-12-08T04:35:52.619Z</time>
      </trkpt>
      <trkpt lat="45.92794" lon="3.86029">
        <ele>885</ele>
        <time>2024-12-08T04:35:53.619Z</time>
      </trkpt>
      <trkpt lat="45.92794" lon="3.8603">
        <ele>885</ele>
        <time>2024-12-08T04:35:54.620Z</time>
      </trkpt>
      <trkpt lat="45.92795" lon="3.86031">
        <ele>886</ele>
        <time>2024-12-08T04:35:55.620Z</time>
      </trkpt>
      <trkpt lat="45.92796" lon="3.86032">
        <ele>886</ele>
        <time>2024-12-08T04:35:56.619Z</time>
      </trkpt>
      <trkpt lat="45.92796" lon="3.86034">
        <ele>886</ele>
        <time>2024-12-08T04:35:57.619Z</time>
      </trkpt>
      <trkpt lat="45.92797" lon="3.86035">
        <ele>886</ele>
        <time>2024-12-08T04:35:58.619Z</time>
      </trkpt>
      <trkpt lat="45.92798" lon="3.86037">
        <ele>886</ele>
        <time>2024-12-08T04:35:59.620Z</time>
      </trkpt>
      <trkpt lat="45.92798" lon="3.86039">
        <ele>886</ele>
        <time>2024-12-08T04:36:00.619Z</time>
      </trkpt>
      <trkpt lat="45.92799" lon="3.86041">
        <ele>886</ele>
        <time>2024-12-08T04:36:01.619Z</time>
      </trkpt>
      <trkpt lat="45.92799" lon="3.86043">
        <ele>886</ele>
        <time>2024-12-08T04:36:02.620Z</time>
      </trkpt>
      <trkpt lat="45.928" lon="3.86045">
        <ele>887</ele>
        <time>2024-12-08T04:36:03.619Z</time>
      </trkpt>
      <trkpt lat="45.928" lon="3.86047">
        <ele>887</ele>
        <time>2024-12-08T04:36:04.620Z</time>
      </trkpt>
      <trkpt lat="45.92801" lon="3.86049">
        <ele>887</ele>
        <time>2024-12-08T04:36:05.620Z</time>
      </trkpt>
      <trkpt lat="45.92802" lon="3.8605">
        <ele>887</ele>
        <time>2024-12-08T04:36:06.619Z</time>
      </trkpt>
      <trkpt lat="45.92803" lon="3.86052">
        <ele>887</ele>
        <time>2024-12-08T04:36:07.619Z</time>
      </trkpt>
      <trkpt lat="45.92803" lon="3.86055">
        <ele>887</ele>
        <time>2024-12-08T04:36:08.619Z</time>
      </trkpt>
      <trkpt lat="45.92803" lon="3.86057">
        <ele>886</ele>
        <time>2024-12-08T04:36:09.620Z</time>
      </trkpt>
      <trkpt lat="45.92803" lon="3.8606">
        <ele>886</ele>
        <time>2024-12-08T04:36:10.620Z</time>
      </trkpt>
      <trkpt lat="45.92803" lon="3.86062">
        <ele>886</ele>
        <time>2024-12-08T04:36:11.620Z</time>
      </trkpt>
      <trkpt lat="45.92803" lon="3.86064">
        <ele>886</ele>
        <time>2024-12-08T04:36:12.620Z</time>
      </trkpt>
      <trkpt lat="45.92804" lon="3.86067">
        <ele>886</ele>
        <time>2024-12-08T04:36:13.620Z</time>
      </trkpt>
      <trkpt lat="45.92805" lon="3.86069">
        <ele>886</ele>
        <time>2024-12-08T04:36:14.620Z</time>
      </trkpt>
      <trkpt lat="45.92805" lon="3.86071">
        <ele>886</ele>
        <time>2024-12-08T04:36:15.619Z</time>
      </trkpt>
      <trkpt lat="45.92806" lon="3.86073">
        <ele>886</ele>
        <time>2024-12-08T04:36:16.619Z</time>
      </trkpt>
      <trkpt lat="45.92806" lon="3.86075">
        <ele>887</ele>
        <time>2024-12-08T04:36:17.620Z</time>
      </trkpt>
      <trkpt lat="45.92806" lon="3.86076">
        <ele>887</ele>
        <time>2024-12-08T04:36:18.619Z</time>
      </trkpt>
      <trkpt lat="45.92807" lon="3.86078">
        <ele>887</ele>
        <time>2024-12-08T04:36:19.619Z</time>
      </trkpt>
      <trkpt lat="45.92807" lon="3.8608">
        <ele>887</ele>
        <time>2024-12-08T04:36:20.620Z</time>
      </trkpt>
      <trkpt lat="45.92807" lon="3.86082">
        <ele>887</ele>
        <time>2024-12-08T04:36:21.620Z</time>
      </trkpt>
      <trkpt lat="45.92807" lon="3.86084">
        <ele>886</ele>
        <time>2024-12-08T04:36:22.619Z</time>
      </trkpt>
      <trkpt lat="45.92807" lon="3.86086">
        <ele>886</ele>
        <time>2024-12-08T04:36:23.619Z</time>
      </trkpt>
      <trkpt lat="45.92807" lon="3.86088">
        <ele>886</ele>
        <time>2024-12-08T04:36:24.620Z</time>
      </trkpt>
      <trkpt lat="45.92807" lon="3.8609">
        <ele>886</ele>
        <time>2024-12-08T04:36:25.619Z</time>
      </trkpt>
      <trkpt lat="45.92807" lon="3.86092">
        <ele>886</ele>
        <time>2024-12-08T04:36:26.620Z</time>
      </trkpt>
      <trkpt lat="45.92808" lon="3.86094">
        <ele>885</ele>
        <time>2024-12-08T04:36:27.620Z</time>
      </trkpt>
      <trkpt lat="45.92809" lon="3.86097">
        <ele>885</ele>
        <time>2024-12-08T04:36:28.620Z</time>
      </trkpt>
      <trkpt lat="45.92809" lon="3.86099">
        <ele>885</ele>
        <time>2024-12-08T04:36:29.620Z</time>
      </trkpt>
      <trkpt lat="45.9281" lon="3.861">
        <ele>885</ele>
        <time>2024-12-08T04:36:30.619Z</time>
      </trkpt>
      <trkpt lat="45.9281" lon="3.86102">
        <ele>885</ele>
        <time>2024-12-08T04:36:31.619Z</time>
      </trkpt>
      <trkpt lat="45.92811" lon="3.86104">
        <ele>885</ele>
        <time>2024-12-08T04:36:32.620Z</time>
      </trkpt>
      <trkpt lat="45.92811" lon="3.86106">
        <ele>886</ele>
        <time>2024-12-08T04:36:33.619Z</time>
      </trkpt>
      <trkpt lat="45.92811" lon="3.86108">
        <ele>886</ele>
        <time>2024-12-08T04:36:34.620Z</time>
      </trkpt>
      <trkpt lat="45.92811" lon="3.86109">
        <ele>885</ele>
        <time>2024-12-08T04:36:35.620Z</time>
      </trkpt>
      <trkpt lat="45.92812" lon="3.86112">
        <ele>885</ele>
        <time>2024-12-08T04:36:36.620Z</time>
      </trkpt>
      <trkpt lat="45.92812" lon="3.86114">
        <ele>885</ele>
        <time>2024-12-08T04:36:37.620Z</time>
      </trkpt>
      <trkpt lat="45.92812" lon="3.86116">
        <ele>885</ele>
        <time>2024-12-08T04:36:38.619Z</time>
      </trkpt>
      <trkpt lat="45.92813" lon="3.86118">
        <ele>884</ele>
        <time>2024-12-08T04:36:39.620Z</time>
      </trkpt>
      <trkpt lat="45.92814" lon="3.8612">
        <ele>884</ele>
        <time>2024-12-08T04:36:40.619Z</time>
      </trkpt>
      <trkpt lat="45.92814" lon="3.86122">
        <ele>884</ele>
        <time>2024-12-08T04:36:41.619Z</time>
      </trkpt>
      <trkpt lat="45.92814" lon="3.86123">
        <ele>883</ele>
        <time>2024-12-08T04:36:42.620Z</time>
      </trkpt>
      <trkpt lat="45.92814" lon="3.86126">
        <ele>883</ele>
        <time>2024-12-08T04:36:43.619Z</time>
      </trkpt>
      <trkpt lat="45.92815" lon="3.86127">
        <ele>883</ele>
        <time>2024-12-08T04:36:44.619Z</time>
      </trkpt>
      <trkpt lat="45.92815" lon="3.86129">
        <ele>882</ele>
        <time>2024-12-08T04:36:45.619Z</time>
      </trkpt>
      <trkpt lat="45.92815" lon="3.86132">
        <ele>882</ele>
        <time>2024-12-08T04:36:46.619Z</time>
      </trkpt>
      <trkpt lat="45.92815" lon="3.86134">
        <ele>882</ele>
        <time>2024-12-08T04:36:47.619Z</time>
      </trkpt>
      <trkpt lat="45.92816" lon="3.86136">
        <ele>882</ele>
        <time>2024-12-08T04:36:48.619Z</time>
      </trkpt>
      <trkpt lat="45.92817" lon="3.86138">
        <ele>882</ele>
        <time>2024-12-08T04:36:49.619Z</time>
      </trkpt>
      <trkpt lat="45.92817" lon="3.8614">
        <ele>882</ele>
        <time>2024-12-08T04:36:50.619Z</time>
      </trkpt>
      <trkpt lat="45.92818" lon="3.86143">
        <ele>882</ele>
        <time>2024-12-08T04:36:51.619Z</time>
      </trkpt>
      <trkpt lat="45.92818" lon="3.86145">
        <ele>882</ele>
        <time>2024-12-08T04:36:52.619Z</time>
      </trkpt>
      <trkpt lat="45.92818" lon="3.86147">
        <ele>882</ele>
        <time>2024-12-08T04:36:53.619Z</time>
      </trkpt>
      <trkpt lat="45.92818" lon="3.8615">
        <ele>882</ele>
        <time>2024-12-08T04:36:54.620Z</time>
      </trkpt>
      <trkpt lat="45.92818" lon="3.86152">
        <ele>881</ele>
        <time>2024-12-08T04:36:55.619Z</time>
      </trkpt>
      <trkpt lat="45.92819" lon="3.86155">
        <ele>881</ele>
        <time>2024-12-08T04:36:56.619Z</time>
      </trkpt>
      <trkpt lat="45.92819" lon="3.86157">
        <ele>881</ele>
        <time>2024-12-08T04:36:57.620Z</time>
      </trkpt>
      <trkpt lat="45.92819" lon="3.8616">
        <ele>882</ele>
        <time>2024-12-08T04:36:58.620Z</time>
      </trkpt>
      <trkpt lat="45.92819" lon="3.86162">
        <ele>882</ele>
        <time>2024-12-08T04:36:59.620Z</time>
      </trkpt>
      <trkpt lat="45.92819" lon="3.86165">
        <ele>882</ele>
        <time>2024-12-08T04:37:00.620Z</time>
      </trkpt>
      <trkpt lat="45.9282" lon="3.86167">
        <ele>882</ele>
        <time>2024-12-08T04:37:01.620Z</time>
      </trkpt>
      <trkpt lat="45.9282" lon="3.86169">
        <ele>882</ele>
        <time>2024-12-08T04:37:02.620Z</time>
      </trkpt>
      <trkpt lat="45.92821" lon="3.86171">
        <ele>883</ele>
        <time>2024-12-08T04:37:03.620Z</time>
      </trkpt>
      <trkpt lat="45.92821" lon="3.86173">
        <ele>883</ele>
        <time>2024-12-08T04:37:04.619Z</time>
      </trkpt>
      <trkpt lat="45.92821" lon="3.86176">
        <ele>884</ele>
        <time>2024-12-08T04:37:05.619Z</time>
      </trkpt>
      <trkpt lat="45.92822" lon="3.86178">
        <ele>884</ele>
        <time>2024-12-08T04:37:06.620Z</time>
      </trkpt>
      <trkpt lat="45.92822" lon="3.8618">
        <ele>884</ele>
        <time>2024-12-08T04:37:07.619Z</time>
      </trkpt>
      <trkpt lat="45.92822" lon="3.86182">
        <ele>884</ele>
        <time>2024-12-08T04:37:08.619Z</time>
      </trkpt>
      <trkpt lat="45.92823" lon="3.86185">
        <ele>884</ele>
        <time>2024-12-08T04:37:09.619Z</time>
      </trkpt>
      <trkpt lat="45.92823" lon="3.86188">
        <ele>884</ele>
        <time>2024-12-08T04:37:10.620Z</time>
      </trkpt>
      <trkpt lat="45.92824" lon="3.86191">
        <ele>884</ele>
        <time>2024-12-08T04:37:11.619Z</time>
      </trkpt>
      <trkpt lat="45.92825" lon="3.86192">
        <ele>884</ele>
        <time>2024-12-08T04:37:12.620Z</time>
      </trkpt>
      <trkpt lat="45.92825" lon="3.86194">
        <ele>884</ele>
        <time>2024-12-08T04:37:13.620Z</time>
      </trkpt>
      <trkpt lat="45.92825" lon="3.86196">
        <ele>884</ele>
        <time>2024-12-08T04:37:14.620Z</time>
      </trkpt>
      <trkpt lat="45.92826" lon="3.86199">
        <ele>884</ele>
        <time>2024-12-08T04:37:15.619Z</time>
      </trkpt>
      <trkpt lat="45.92826" lon="3.86201">
        <ele>884</ele>
        <time>2024-12-08T04:37:16.620Z</time>
      </trkpt>
      <trkpt lat="45.92827" lon="3.86202">
        <ele>884</ele>
        <time>2024-12-08T04:37:17.620Z</time>
      </trkpt>
      <trkpt lat="45.92827" lon="3.86205">
        <ele>883</ele>
        <time>2024-12-08T04:37:18.620Z</time>
      </trkpt>
      <trkpt lat="45.92827" lon="3.86208">
        <ele>883</ele>
        <time>2024-12-08T04:37:19.619Z</time>
      </trkpt>
      <trkpt lat="45.92826" lon="3.8621">
        <ele>883</ele>
        <time>2024-12-08T04:37:20.620Z</time>
      </trkpt>
      <trkpt lat="45.92826" lon="3.86212">
        <ele>883</ele>
        <time>2024-12-08T04:37:21.619Z</time>
      </trkpt>
      <trkpt lat="45.92827" lon="3.86215">
        <ele>882</ele>
        <time>2024-12-08T04:37:22.619Z</time>
      </trkpt>
      <trkpt lat="45.92827" lon="3.86217">
        <ele>882</ele>
        <time>2024-12-08T04:37:23.620Z</time>
      </trkpt>
      <trkpt lat="45.92827" lon="3.8622">
        <ele>882</ele>
        <time>2024-12-08T04:37:24.619Z</time>
      </trkpt>
      <trkpt lat="45.92828" lon="3.86222">
        <ele>882</ele>
        <time>2024-12-08T04:37:25.619Z</time>
      </trkpt>
      <trkpt lat="45.92828" lon="3.86224">
        <ele>882</ele>
        <time>2024-12-08T04:37:26.619Z</time>
      </trkpt>
      <trkpt lat="45.92828" lon="3.86226">
        <ele>882</ele>
        <time>2024-12-08T04:37:27.620Z</time>
      </trkpt>
      <trkpt lat="45.92829" lon="3.86229">
        <ele>882</ele>
        <time>2024-12-08T04:37:28.619Z</time>
      </trkpt>
      <trkpt lat="45.92829" lon="3.86231">
        <ele>882</ele>
        <time>2024-12-08T04:37:29.620Z</time>
      </trkpt>
      <trkpt lat="45.9283" lon="3.86233">
        <ele>883</ele>
        <time>2024-12-08T04:37:30.619Z</time>
      </trkpt>
      <trkpt lat="45.9283" lon="3.86235">
        <ele>883</ele>
        <time>2024-12-08T04:37:31.619Z</time>
      </trkpt>
      <trkpt lat="45.9283" lon="3.86237">
        <ele>883</ele>
        <time>2024-12-08T04:37:32.620Z</time>
      </trkpt>
      <trkpt lat="45.92831" lon="3.86239">
        <ele>883</ele>
        <time>2024-12-08T04:37:33.620Z</time>
      </trkpt>
      <trkpt lat="45.9283" lon="3.86241">
        <ele>883</ele>
        <time>2024-12-08T04:37:34.619Z</time>
      </trkpt>
      <trkpt lat="45.9283" lon="3.86243">
        <ele>882</ele>
        <time>2024-12-08T04:37:35.619Z</time>
      </trkpt>
      <trkpt lat="45.9283" lon="3.86246">
        <ele>882</ele>
        <time>2024-12-08T04:37:36.619Z</time>
      </trkpt>
      <trkpt lat="45.9283" lon="3.86248">
        <ele>882</ele>
        <time>2024-12-08T04:37:37.619Z</time>
      </trkpt>
      <trkpt lat="45.9283" lon="3.8625">
        <ele>882</ele>
        <time>2024-12-08T04:37:38.620Z</time>
      </trkpt>
      <trkpt lat="45.9283" lon="3.86252">
        <ele>882</ele>
        <time>2024-12-08T04:37:39.620Z</time>
      </trkpt>
      <trkpt lat="45.9283" lon="3.86255">
        <ele>882</ele>
        <time>2024-12-08T04:37:40.619Z</time>
      </trkpt>
      <trkpt lat="45.9283" lon="3.86257">
        <ele>882</ele>
        <time>2024-12-08T04:37:41.619Z</time>
      </trkpt>
      <trkpt lat="45.9283" lon="3.8626">
        <ele>881</ele>
        <time>2024-12-08T04:37:42.620Z</time>
      </trkpt>
      <trkpt lat="45.9283" lon="3.86262">
        <ele>881</ele>
        <time>2024-12-08T04:37:43.620Z</time>
      </trkpt>
      <trkpt lat="45.9283" lon="3.86265">
        <ele>880</ele>
        <time>2024-12-08T04:37:44.620Z</time>
      </trkpt>
      <trkpt lat="45.9283" lon="3.86266">
        <ele>880</ele>
        <time>2024-12-08T04:37:45.619Z</time>
      </trkpt>
      <trkpt lat="45.9283" lon="3.86268">
        <ele>880</ele>
        <time>2024-12-08T04:37:46.620Z</time>
      </trkpt>
      <trkpt lat="45.9283" lon="3.86271">
        <ele>880</ele>
        <time>2024-12-08T04:37:47.619Z</time>
      </trkpt>
      <trkpt lat="45.9283" lon="3.86273">
        <ele>880</ele>
        <time>2024-12-08T04:37:48.620Z</time>
      </trkpt>
      <trkpt lat="45.9283" lon="3.86275">
        <ele>879</ele>
        <time>2024-12-08T04:37:49.619Z</time>
      </trkpt>
      <trkpt lat="45.9283" lon="3.86277">
        <ele>879</ele>
        <time>2024-12-08T04:37:50.620Z</time>
      </trkpt>
      <trkpt lat="45.9283" lon="3.86279">
        <ele>878</ele>
        <time>2024-12-08T04:37:51.620Z</time>
      </trkpt>
      <trkpt lat="45.92831" lon="3.86281">
        <ele>878</ele>
        <time>2024-12-08T04:37:52.619Z</time>
      </trkpt>
      <trkpt lat="45.92831" lon="3.86283">
        <ele>878</ele>
        <time>2024-12-08T04:37:53.619Z</time>
      </trkpt>
      <trkpt lat="45.92832" lon="3.86285">
        <ele>877</ele>
        <time>2024-12-08T04:37:54.620Z</time>
      </trkpt>
      <trkpt lat="45.92832" lon="3.86288">
        <ele>877</ele>
        <time>2024-12-08T04:37:55.620Z</time>
      </trkpt>
      <trkpt lat="45.92833" lon="3.8629">
        <ele>877</ele>
        <time>2024-12-08T04:37:56.620Z</time>
      </trkpt>
      <trkpt lat="45.92833" lon="3.86292">
        <ele>877</ele>
        <time>2024-12-08T04:37:57.619Z</time>
      </trkpt>
      <trkpt lat="45.92833" lon="3.86294">
        <ele>877</ele>
        <time>2024-12-08T04:37:58.620Z</time>
      </trkpt>
      <trkpt lat="45.92834" lon="3.86296">
        <ele>877</ele>
        <time>2024-12-08T04:37:59.620Z</time>
      </trkpt>
      <trkpt lat="45.92834" lon="3.86298">
        <ele>877</ele>
        <time>2024-12-08T04:38:00.619Z</time>
      </trkpt>
      <trkpt lat="45.92833" lon="3.863">
        <ele>876</ele>
        <time>2024-12-08T04:38:01.620Z</time>
      </trkpt>
      <trkpt lat="45.92833" lon="3.86302">
        <ele>876</ele>
        <time>2024-12-08T04:38:02.620Z</time>
      </trkpt>
      <trkpt lat="45.92833" lon="3.86304">
        <ele>876</ele>
        <time>2024-12-08T04:38:03.620Z</time>
      </trkpt>
      <trkpt lat="45.92833" lon="3.86307">
        <ele>876</ele>
        <time>2024-12-08T04:38:04.620Z</time>
      </trkpt>
      <trkpt lat="45.92833" lon="3.86309">
        <ele>876</ele>
        <time>2024-12-08T04:38:05.620Z</time>
      </trkpt>
      <trkpt lat="45.92833" lon="3.86311">
        <ele>876</ele>
        <time>2024-12-08T04:38:06.620Z</time>
      </trkpt>
      <trkpt lat="45.92833" lon="3.86314">
        <ele>877</ele>
        <time>2024-12-08T04:38:07.619Z</time>
      </trkpt>
      <trkpt lat="45.92833" lon="3.86316">
        <ele>877</ele>
        <time>2024-12-08T04:38:08.619Z</time>
      </trkpt>
      <trkpt lat="45.92833" lon="3.86319">
        <ele>878</ele>
        <time>2024-12-08T04:38:09.620Z</time>
      </trkpt>
      <trkpt lat="45.92833" lon="3.86322">
        <ele>878</ele>
        <time>2024-12-08T04:38:10.620Z</time>
      </trkpt>
      <trkpt lat="45.92834" lon="3.86325">
        <ele>878</ele>
        <time>2024-12-08T04:38:11.620Z</time>
      </trkpt>
      <trkpt lat="45.92835" lon="3.86328">
        <ele>879</ele>
        <time>2024-12-08T04:38:12.620Z</time>
      </trkpt>
      <trkpt lat="45.92836" lon="3.8633">
        <ele>879</ele>
        <time>2024-12-08T04:38:13.619Z</time>
      </trkpt>
      <trkpt lat="45.92836" lon="3.86332">
        <ele>879</ele>
        <time>2024-12-08T04:38:14.620Z</time>
      </trkpt>
      <trkpt lat="45.92835" lon="3.86334">
        <ele>879</ele>
        <time>2024-12-08T04:38:15.620Z</time>
      </trkpt>
      <trkpt lat="45.92834" lon="3.86336">
        <ele>880</ele>
        <time>2024-12-08T04:38:16.619Z</time>
      </trkpt>
      <trkpt lat="45.92834" lon="3.86338">
        <ele>880</ele>
        <time>2024-12-08T04:38:17.620Z</time>
      </trkpt>
      <trkpt lat="45.92834" lon="3.8634">
        <ele>881</ele>
        <time>2024-12-08T04:38:18.620Z</time>
      </trkpt>
      <trkpt lat="45.92835" lon="3.86342">
        <ele>881</ele>
        <time>2024-12-08T04:38:19.620Z</time>
      </trkpt>
      <trkpt lat="45.92835" lon="3.86344">
        <ele>881</ele>
        <time>2024-12-08T04:38:20.619Z</time>
      </trkpt>
      <trkpt lat="45.92835" lon="3.86346">
        <ele>881</ele>
        <time>2024-12-08T04:38:21.619Z</time>
      </trkpt>
      <trkpt lat="45.92835" lon="3.86349">
        <ele>881</ele>
        <time>2024-12-08T04:38:22.620Z</time>
      </trkpt>
      <trkpt lat="45.92836" lon="3.86351">
        <ele>881</ele>
        <time>2024-12-08T04:38:23.620Z</time>
      </trkpt>
      <trkpt lat="45.92837" lon="3.86353">
        <ele>880</ele>
        <time>2024-12-08T04:38:24.620Z</time>
      </trkpt>
      <trkpt lat="45.92838" lon="3.86355">
        <ele>880</ele>
        <time>2024-12-08T04:38:25.619Z</time>
      </trkpt>
      <trkpt lat="45.92838" lon="3.86357">
        <ele>880</ele>
        <time>2024-12-08T04:38:26.620Z</time>
      </trkpt>
      <trkpt lat="45.92839" lon="3.8636">
        <ele>880</ele>
        <time>2024-12-08T04:38:27.620Z</time>
      </trkpt>
      <trkpt lat="45.92839" lon="3.86362">
        <ele>879</ele>
        <time>2024-12-08T04:38:28.620Z</time>
      </trkpt>
      <trkpt lat="45.92839" lon="3.86364">
        <ele>879</ele>
        <time>2024-12-08T04:38:29.619Z</time>
      </trkpt>
      <trkpt lat="45.9284" lon="3.86366">
        <ele>878</ele>
        <time>2024-12-08T04:38:30.619Z</time>
      </trkpt>
      <trkpt lat="45.9284" lon="3.86368">
        <ele>878</ele>
        <time>2024-12-08T04:38:31.620Z</time>
      </trkpt>
      <trkpt lat="45.9284" lon="3.8637">
        <ele>877</ele>
        <time>2024-12-08T04:38:32.620Z</time>
      </trkpt>
      <trkpt lat="45.9284" lon="3.86373">
        <ele>877</ele>
        <time>2024-12-08T04:38:33.619Z</time>
      </trkpt>
      <trkpt lat="45.9284" lon="3.86375">
        <ele>876</ele>
        <time>2024-12-08T04:38:34.619Z</time>
      </trkpt>
      <trkpt lat="45.92841" lon="3.86377">
        <ele>876</ele>
        <time>2024-12-08T04:38:35.619Z</time>
      </trkpt>
      <trkpt lat="45.92841" lon="3.8638">
        <ele>875</ele>
        <time>2024-12-08T04:38:36.619Z</time>
      </trkpt>
      <trkpt lat="45.92842" lon="3.86383">
        <ele>875</ele>
        <time>2024-12-08T04:38:37.620Z</time>
      </trkpt>
      <trkpt lat="45.92842" lon="3.86386">
        <ele>875</ele>
        <time>2024-12-08T04:38:38.619Z</time>
      </trkpt>
      <trkpt lat="45.92842" lon="3.86388">
        <ele>875</ele>
        <time>2024-12-08T04:38:39.620Z</time>
      </trkpt>
      <trkpt lat="45.92843" lon="3.86391">
        <ele>874</ele>
        <time>2024-12-08T04:38:40.620Z</time>
      </trkpt>
      <trkpt lat="45.92843" lon="3.86394">
        <ele>874</ele>
        <time>2024-12-08T04:38:41.619Z</time>
      </trkpt>
      <trkpt lat="45.92844" lon="3.86396">
        <ele>874</ele>
        <time>2024-12-08T04:38:42.619Z</time>
      </trkpt>
      <trkpt lat="45.92845" lon="3.86399">
        <ele>874</ele>
        <time>2024-12-08T04:38:43.620Z</time>
      </trkpt>
      <trkpt lat="45.92845" lon="3.86401">
        <ele>874</ele>
        <time>2024-12-08T04:38:44.619Z</time>
      </trkpt>
      <trkpt lat="45.92846" lon="3.86403">
        <ele>873</ele>
        <time>2024-12-08T04:38:45.619Z</time>
      </trkpt>
      <trkpt lat="45.92847" lon="3.86405">
        <ele>873</ele>
        <time>2024-12-08T04:38:46.619Z</time>
      </trkpt>
      <trkpt lat="45.92847" lon="3.86407">
        <ele>873</ele>
        <time>2024-12-08T04:38:47.620Z</time>
      </trkpt>
      <trkpt lat="45.92847" lon="3.86409">
        <ele>872</ele>
        <time>2024-12-08T04:38:48.620Z</time>
      </trkpt>
      <trkpt lat="45.92847" lon="3.86412">
        <ele>872</ele>
        <time>2024-12-08T04:38:49.619Z</time>
      </trkpt>
      <trkpt lat="45.92848" lon="3.86414">
        <ele>871</ele>
        <time>2024-12-08T04:38:50.620Z</time>
      </trkpt>
      <trkpt lat="45.92848" lon="3.86416">
        <ele>871</ele>
        <time>2024-12-08T04:38:51.619Z</time>
      </trkpt>
      <trkpt lat="45.92848" lon="3.86418">
        <ele>871</ele>
        <time>2024-12-08T04:38:52.620Z</time>
      </trkpt>
      <trkpt lat="45.92848" lon="3.8642">
        <ele>871</ele>
        <time>2024-12-08T04:38:53.620Z</time>
      </trkpt>
      <trkpt lat="45.92849" lon="3.86423">
        <ele>871</ele>
        <time>2024-12-08T04:38:54.619Z</time>
      </trkpt>
      <trkpt lat="45.92849" lon="3.86425">
        <ele>872</ele>
        <time>2024-12-08T04:38:55.619Z</time>
      </trkpt>
      <trkpt lat="45.92849" lon="3.86427">
        <ele>871</ele>
        <time>2024-12-08T04:38:56.620Z</time>
      </trkpt>
      <trkpt lat="45.9285" lon="3.8643">
        <ele>871</ele>
        <time>2024-12-08T04:38:57.619Z</time>
      </trkpt>
      <trkpt lat="45.9285" lon="3.86432">
        <ele>871</ele>
        <time>2024-12-08T04:38:58.619Z</time>
      </trkpt>
      <trkpt lat="45.9285" lon="3.86434">
        <ele>871</ele>
        <time>2024-12-08T04:38:59.620Z</time>
      </trkpt>
      <trkpt lat="45.92851" lon="3.86436">
        <ele>871</ele>
        <time>2024-12-08T04:39:00.620Z</time>
      </trkpt>
      <trkpt lat="45.92851" lon="3.86438">
        <ele>871</ele>
        <time>2024-12-08T04:39:01.619Z</time>
      </trkpt>
      <trkpt lat="45.92851" lon="3.86441">
        <ele>871</ele>
        <time>2024-12-08T04:39:02.620Z</time>
      </trkpt>
      <trkpt lat="45.92851" lon="3.86443">
        <ele>871</ele>
        <time>2024-12-08T04:39:03.620Z</time>
      </trkpt>
      <trkpt lat="45.92852" lon="3.86446">
        <ele>870</ele>
        <time>2024-12-08T04:39:04.619Z</time>
      </trkpt>
      <trkpt lat="45.92853" lon="3.86449">
        <ele>870</ele>
        <time>2024-12-08T04:39:05.619Z</time>
      </trkpt>
      <trkpt lat="45.92853" lon="3.8645">
        <ele>870</ele>
        <time>2024-12-08T04:39:06.619Z</time>
      </trkpt>
      <trkpt lat="45.92853" lon="3.86453">
        <ele>870</ele>
        <time>2024-12-08T04:39:07.620Z</time>
      </trkpt>
      <trkpt lat="45.92853" lon="3.86456">
        <ele>870</ele>
        <time>2024-12-08T04:39:08.620Z</time>
      </trkpt>
      <trkpt lat="45.92853" lon="3.86458">
        <ele>870</ele>
        <time>2024-12-08T04:39:09.619Z</time>
      </trkpt>
      <trkpt lat="45.92854" lon="3.8646">
        <ele>870</ele>
        <time>2024-12-08T04:39:10.619Z</time>
      </trkpt>
      <trkpt lat="45.92854" lon="3.86463">
        <ele>869</ele>
        <time>2024-12-08T04:39:11.620Z</time>
      </trkpt>
      <trkpt lat="45.92855" lon="3.86465">
        <ele>869</ele>
        <time>2024-12-08T04:39:12.620Z</time>
      </trkpt>
      <trkpt lat="45.92855" lon="3.86467">
        <ele>869</ele>
        <time>2024-12-08T04:39:13.620Z</time>
      </trkpt>
      <trkpt lat="45.92855" lon="3.86468">
        <ele>869</ele>
        <time>2024-12-08T04:39:14.619Z</time>
      </trkpt>
      <trkpt lat="45.92855" lon="3.86471">
        <ele>869</ele>
        <time>2024-12-08T04:39:15.620Z</time>
      </trkpt>
      <trkpt lat="45.92856" lon="3.86472">
        <ele>869</ele>
        <time>2024-12-08T04:39:16.620Z</time>
      </trkpt>
      <trkpt lat="45.92857" lon="3.86474">
        <ele>869</ele>
        <time>2024-12-08T04:39:17.620Z</time>
      </trkpt>
      <trkpt lat="45.92858" lon="3.86476">
        <ele>869</ele>
        <time>2024-12-08T04:39:18.620Z</time>
      </trkpt>
      <trkpt lat="45.92858" lon="3.86478">
        <ele>869</ele>
        <time>2024-12-08T04:39:19.619Z</time>
      </trkpt>
      <trkpt lat="45.92859" lon="3.86479">
        <ele>869</ele>
        <time>2024-12-08T04:39:20.620Z</time>
      </trkpt>
      <trkpt lat="45.92861" lon="3.86481">
        <ele>869</ele>
        <time>2024-12-08T04:39:21.619Z</time>
      </trkpt>
      <trkpt lat="45.92862" lon="3.86484">
        <ele>869</ele>
        <time>2024-12-08T04:39:22.620Z</time>
      </trkpt>
      <trkpt lat="45.92863" lon="3.86485">
        <ele>869</ele>
        <time>2024-12-08T04:39:23.619Z</time>
      </trkpt>
      <trkpt lat="45.92862" lon="3.86487">
        <ele>869</ele>
        <time>2024-12-08T04:39:24.619Z</time>
      </trkpt>
      <trkpt lat="45.92862" lon="3.8649">
        <ele>869</ele>
        <time>2024-12-08T04:39:25.619Z</time>
      </trkpt>
      <trkpt lat="45.92864" lon="3.86491">
        <ele>869</ele>
        <time>2024-12-08T04:39:26.619Z</time>
      </trkpt>
      <trkpt lat="45.92864" lon="3.86493">
        <ele>869</ele>
        <time>2024-12-08T04:39:27.619Z</time>
      </trkpt>
      <trkpt lat="45.92865" lon="3.86494">
        <ele>869</ele>
        <time>2024-12-08T04:39:28.619Z</time>
      </trkpt>
      <trkpt lat="45.92866" lon="3.86497">
        <ele>870</ele>
        <time>2024-12-08T04:39:29.619Z</time>
      </trkpt>
      <trkpt lat="45.92867" lon="3.86499">
        <ele>870</ele>
        <time>2024-12-08T04:39:30.620Z</time>
      </trkpt>
      <trkpt lat="45.92868" lon="3.86502">
        <ele>870</ele>
        <time>2024-12-08T04:39:31.619Z</time>
      </trkpt>
      <trkpt lat="45.92869" lon="3.86503">
        <ele>871</ele>
        <time>2024-12-08T04:39:32.620Z</time>
      </trkpt>
      <trkpt lat="45.9287" lon="3.86505">
        <ele>871</ele>
        <time>2024-12-08T04:39:33.619Z</time>
      </trkpt>
      <trkpt lat="45.92871" lon="3.86507">
        <ele>871</ele>
        <time>2024-12-08T04:39:34.619Z</time>
      </trkpt>
      <trkpt lat="45.92871" lon="3.86509">
        <ele>871</ele>
        <time>2024-12-08T04:39:35.620Z</time>
      </trkpt>
      <trkpt lat="45.92872" lon="3.86511">
        <ele>871</ele>
        <time>2024-12-08T04:39:36.619Z</time>
      </trkpt>
      <trkpt lat="45.92873" lon="3.86512">
        <ele>871</ele>
        <time>2024-12-08T04:39:37.620Z</time>
      </trkpt>
      <trkpt lat="45.92874" lon="3.86514">
        <ele>871</ele>
        <time>2024-12-08T04:39:38.619Z</time>
      </trkpt>
      <trkpt lat="45.92876" lon="3.86516">
        <ele>871</ele>
        <time>2024-12-08T04:39:39.620Z</time>
      </trkpt>
      <trkpt lat="45.92877" lon="3.86518">
        <ele>871</ele>
        <time>2024-12-08T04:39:40.619Z</time>
      </trkpt>
      <trkpt lat="45.92878" lon="3.8652">
        <ele>871</ele>
        <time>2024-12-08T04:39:41.619Z</time>
      </trkpt>
      <trkpt lat="45.92879" lon="3.86522">
        <ele>871</ele>
        <time>2024-12-08T04:39:42.619Z</time>
      </trkpt>
      <trkpt lat="45.9288" lon="3.86524">
        <ele>871</ele>
        <time>2024-12-08T04:39:43.619Z</time>
      </trkpt>
      <trkpt lat="45.92881" lon="3.86526">
        <ele>871</ele>
        <time>2024-12-08T04:39:44.619Z</time>
      </trkpt>
      <trkpt lat="45.92882" lon="3.86527">
        <ele>871</ele>
        <time>2024-12-08T04:39:45.619Z</time>
      </trkpt>
      <trkpt lat="45.92883" lon="3.86529">
        <ele>872</ele>
        <time>2024-12-08T04:39:46.619Z</time>
      </trkpt>
      <trkpt lat="45.92884" lon="3.86531">
        <ele>872</ele>
        <time>2024-12-08T04:39:47.620Z</time>
      </trkpt>
      <trkpt lat="45.92885" lon="3.86532">
        <ele>872</ele>
        <time>2024-12-08T04:39:48.620Z</time>
      </trkpt>
      <trkpt lat="45.92886" lon="3.86534">
        <ele>872</ele>
        <time>2024-12-08T04:39:49.619Z</time>
      </trkpt>
      <trkpt lat="45.92888" lon="3.86536">
        <ele>872</ele>
        <time>2024-12-08T04:39:50.619Z</time>
      </trkpt>
      <trkpt lat="45.9289" lon="3.86538">
        <ele>872</ele>
        <time>2024-12-08T04:39:51.620Z</time>
      </trkpt>
      <trkpt lat="45.92891" lon="3.8654">
        <ele>871</ele>
        <time>2024-12-08T04:39:52.619Z</time>
      </trkpt>
      <trkpt lat="45.92892" lon="3.86542">
        <ele>871</ele>
        <time>2024-12-08T04:39:53.620Z</time>
      </trkpt>
      <trkpt lat="45.92893" lon="3.86544">
        <ele>872</ele>
        <time>2024-12-08T04:39:54.619Z</time>
      </trkpt>
      <trkpt lat="45.92894" lon="3.86545">
        <ele>872</ele>
        <time>2024-12-08T04:39:55.620Z</time>
      </trkpt>
      <trkpt lat="45.92895" lon="3.86547">
        <ele>872</ele>
        <time>2024-12-08T04:39:56.619Z</time>
      </trkpt>
      <trkpt lat="45.92897" lon="3.86548">
        <ele>872</ele>
        <time>2024-12-08T04:39:57.619Z</time>
      </trkpt>
      <trkpt lat="45.92898" lon="3.86549">
        <ele>873</ele>
        <time>2024-12-08T04:39:58.620Z</time>
      </trkpt>
      <trkpt lat="45.92898" lon="3.86551">
        <ele>873</ele>
        <time>2024-12-08T04:39:59.620Z</time>
      </trkpt>
      <trkpt lat="45.92899" lon="3.86552">
        <ele>873</ele>
        <time>2024-12-08T04:40:00.619Z</time>
      </trkpt>
      <trkpt lat="45.929" lon="3.86554">
        <ele>874</ele>
        <time>2024-12-08T04:40:01.619Z</time>
      </trkpt>
      <trkpt lat="45.92901" lon="3.86556">
        <ele>874</ele>
        <time>2024-12-08T04:40:02.620Z</time>
      </trkpt>
      <trkpt lat="45.92902" lon="3.86557">
        <ele>874</ele>
        <time>2024-12-08T04:40:03.619Z</time>
      </trkpt>
      <trkpt lat="45.92903" lon="3.86559">
        <ele>874</ele>
        <time>2024-12-08T04:40:04.620Z</time>
      </trkpt>
      <trkpt lat="45.92904" lon="3.8656">
        <ele>874</ele>
        <time>2024-12-08T04:40:05.620Z</time>
      </trkpt>
      <trkpt lat="45.92905" lon="3.86562">
        <ele>874</ele>
        <time>2024-12-08T04:40:06.620Z</time>
      </trkpt>
      <trkpt lat="45.92906" lon="3.86564">
        <ele>874</ele>
        <time>2024-12-08T04:40:07.619Z</time>
      </trkpt>
      <trkpt lat="45.92907" lon="3.86565">
        <ele>874</ele>
        <time>2024-12-08T04:40:08.619Z</time>
      </trkpt>
      <trkpt lat="45.92908" lon="3.86567">
        <ele>874</ele>
        <time>2024-12-08T04:40:09.620Z</time>
      </trkpt>
      <trkpt lat="45.92909" lon="3.86569">
        <ele>874</ele>
        <time>2024-12-08T04:40:10.620Z</time>
      </trkpt>
      <trkpt lat="45.9291" lon="3.86571">
        <ele>874</ele>
        <time>2024-12-08T04:40:11.619Z</time>
      </trkpt>
      <trkpt lat="45.92911" lon="3.86572">
        <ele>874</ele>
        <time>2024-12-08T04:40:12.620Z</time>
      </trkpt>
      <trkpt lat="45.92913" lon="3.86574">
        <ele>874</ele>
        <time>2024-12-08T04:40:13.620Z</time>
      </trkpt>
      <trkpt lat="45.92914" lon="3.86575">
        <ele>875</ele>
        <time>2024-12-08T04:40:14.619Z</time>
      </trkpt>
      <trkpt lat="45.92915" lon="3.86576">
        <ele>875</ele>
        <time>2024-12-08T04:40:15.619Z</time>
      </trkpt>
      <trkpt lat="45.92917" lon="3.86578">
        <ele>875</ele>
        <time>2024-12-08T04:40:16.619Z</time>
      </trkpt>
      <trkpt lat="45.92918" lon="3.86579">
        <ele>875</ele>
        <time>2024-12-08T04:40:17.619Z</time>
      </trkpt>
      <trkpt lat="45.92919" lon="3.86581">
        <ele>875</ele>
        <time>2024-12-08T04:40:18.620Z</time>
      </trkpt>
      <trkpt lat="45.92919" lon="3.86582">
        <ele>875</ele>
        <time>2024-12-08T04:40:19.619Z</time>
      </trkpt>
      <trkpt lat="45.9292" lon="3.86584">
        <ele>875</ele>
        <time>2024-12-08T04:40:20.620Z</time>
      </trkpt>
      <trkpt lat="45.92921" lon="3.86586">
        <ele>875</ele>
        <time>2024-12-08T04:40:21.619Z</time>
      </trkpt>
      <trkpt lat="45.92922" lon="3.86588">
        <ele>875</ele>
        <time>2024-12-08T04:40:22.619Z</time>
      </trkpt>
      <trkpt lat="45.92923" lon="3.86589">
        <ele>874</ele>
        <time>2024-12-08T04:40:23.620Z</time>
      </trkpt>
      <trkpt lat="45.92924" lon="3.86591">
        <ele>874</ele>
        <time>2024-12-08T04:40:24.620Z</time>
      </trkpt>
      <trkpt lat="45.92925" lon="3.86592">
        <ele>874</ele>
        <time>2024-12-08T04:40:25.619Z</time>
      </trkpt>
      <trkpt lat="45.92926" lon="3.86594">
        <ele>874</ele>
        <time>2024-12-08T04:40:26.620Z</time>
      </trkpt>
      <trkpt lat="45.92928" lon="3.86595">
        <ele>874</ele>
        <time>2024-12-08T04:40:27.619Z</time>
      </trkpt>
      <trkpt lat="45.92929" lon="3.86596">
        <ele>874</ele>
        <time>2024-12-08T04:40:28.620Z</time>
      </trkpt>
      <trkpt lat="45.9293" lon="3.86597">
        <ele>874</ele>
        <time>2024-12-08T04:40:29.620Z</time>
      </trkpt>
      <trkpt lat="45.92932" lon="3.86599">
        <ele>874</ele>
        <time>2024-12-08T04:40:30.620Z</time>
      </trkpt>
      <trkpt lat="45.92933" lon="3.866">
        <ele>874</ele>
        <time>2024-12-08T04:40:31.619Z</time>
      </trkpt>
      <trkpt lat="45.92933" lon="3.86602">
        <ele>874</ele>
        <time>2024-12-08T04:40:32.620Z</time>
      </trkpt>
      <trkpt lat="45.92934" lon="3.86605">
        <ele>874</ele>
        <time>2024-12-08T04:40:33.620Z</time>
      </trkpt>
      <trkpt lat="45.92935" lon="3.86607">
        <ele>874</ele>
        <time>2024-12-08T04:40:34.619Z</time>
      </trkpt>
      <trkpt lat="45.92936" lon="3.86609">
        <ele>874</ele>
        <time>2024-12-08T04:40:35.619Z</time>
      </trkpt>
      <trkpt lat="45.92937" lon="3.8661">
        <ele>874</ele>
        <time>2024-12-08T04:40:36.619Z</time>
      </trkpt>
      <trkpt lat="45.92938" lon="3.86612">
        <ele>874</ele>
        <time>2024-12-08T04:40:37.620Z</time>
      </trkpt>
      <trkpt lat="45.92938" lon="3.86614">
        <ele>874</ele>
        <time>2024-12-08T04:40:38.620Z</time>
      </trkpt>
      <trkpt lat="45.92939" lon="3.86616">
        <ele>874</ele>
        <time>2024-12-08T04:40:39.620Z</time>
      </trkpt>
      <trkpt lat="45.92941" lon="3.86618">
        <ele>874</ele>
        <time>2024-12-08T04:40:40.620Z</time>
      </trkpt>
      <trkpt lat="45.92941" lon="3.8662">
        <ele>874</ele>
        <time>2024-12-08T04:40:41.619Z</time>
      </trkpt>
      <trkpt lat="45.92942" lon="3.86621">
        <ele>874</ele>
        <time>2024-12-08T04:40:42.620Z</time>
      </trkpt>
      <trkpt lat="45.92943" lon="3.86623">
        <ele>874</ele>
        <time>2024-12-08T04:40:43.620Z</time>
      </trkpt>
      <trkpt lat="45.92944" lon="3.86625">
        <ele>874</ele>
        <time>2024-12-08T04:40:44.619Z</time>
      </trkpt>
      <trkpt lat="45.92946" lon="3.86627">
        <ele>874</ele>
        <time>2024-12-08T04:40:45.620Z</time>
      </trkpt>
      <trkpt lat="45.92947" lon="3.86628">
        <ele>874</ele>
        <time>2024-12-08T04:40:46.619Z</time>
      </trkpt>
      <trkpt lat="45.92948" lon="3.8663">
        <ele>874</ele>
        <time>2024-12-08T04:40:47.620Z</time>
      </trkpt>
      <trkpt lat="45.9295" lon="3.86632">
        <ele>874</ele>
        <time>2024-12-08T04:40:48.620Z</time>
      </trkpt>
      <trkpt lat="45.92951" lon="3.86634">
        <ele>874</ele>
        <time>2024-12-08T04:40:49.619Z</time>
      </trkpt>
      <trkpt lat="45.92951" lon="3.86635">
        <ele>874</ele>
        <time>2024-12-08T04:40:50.619Z</time>
      </trkpt>
      <trkpt lat="45.92952" lon="3.86637">
        <ele>874</ele>
        <time>2024-12-08T04:40:51.620Z</time>
      </trkpt>
      <trkpt lat="45.92953" lon="3.86639">
        <ele>873</ele>
        <time>2024-12-08T04:40:52.619Z</time>
      </trkpt>
      <trkpt lat="45.92954" lon="3.86641">
        <ele>873</ele>
        <time>2024-12-08T04:40:53.620Z</time>
      </trkpt>
      <trkpt lat="45.92955" lon="3.86643">
        <ele>872</ele>
        <time>2024-12-08T04:40:54.619Z</time>
      </trkpt>
      <trkpt lat="45.92956" lon="3.86645">
        <ele>872</ele>
        <time>2024-12-08T04:40:55.619Z</time>
      </trkpt>
      <trkpt lat="45.92956" lon="3.86647">
        <ele>871</ele>
        <time>2024-12-08T04:40:56.619Z</time>
      </trkpt>
      <trkpt lat="45.92957" lon="3.86648">
        <ele>871</ele>
        <time>2024-12-08T04:40:57.620Z</time>
      </trkpt>
      <trkpt lat="45.92958" lon="3.8665">
        <ele>871</ele>
        <time>2024-12-08T04:40:58.620Z</time>
      </trkpt>
      <trkpt lat="45.92959" lon="3.86652">
        <ele>870</ele>
        <time>2024-12-08T04:40:59.620Z</time>
      </trkpt>
      <trkpt lat="45.9296" lon="3.86654">
        <ele>870</ele>
        <time>2024-12-08T04:41:00.619Z</time>
      </trkpt>
      <trkpt lat="45.92961" lon="3.86656">
        <ele>870</ele>
        <time>2024-12-08T04:41:01.619Z</time>
      </trkpt>
      <trkpt lat="45.92962" lon="3.86658">
        <ele>870</ele>
        <time>2024-12-08T04:41:02.619Z</time>
      </trkpt>
      <trkpt lat="45.92963" lon="3.8666">
        <ele>870</ele>
        <time>2024-12-08T04:41:03.620Z</time>
      </trkpt>
      <trkpt lat="45.92964" lon="3.86662">
        <ele>870</ele>
        <time>2024-12-08T04:41:04.619Z</time>
      </trkpt>
      <trkpt lat="45.92965" lon="3.86664">
        <ele>870</ele>
        <time>2024-12-08T04:41:05.620Z</time>
      </trkpt>
      <trkpt lat="45.92966" lon="3.86666">
        <ele>870</ele>
        <time>2024-12-08T04:41:06.620Z</time>
      </trkpt>
      <trkpt lat="45.92967" lon="3.86667">
        <ele>870</ele>
        <time>2024-12-08T04:41:07.619Z</time>
      </trkpt>
      <trkpt lat="45.92967" lon="3.86669">
        <ele>870</ele>
        <time>2024-12-08T04:41:08.619Z</time>
      </trkpt>
      <trkpt lat="45.92968" lon="3.86671">
        <ele>870</ele>
        <time>2024-12-08T04:41:09.619Z</time>
      </trkpt>
      <trkpt lat="45.92969" lon="3.86672">
        <ele>870</ele>
        <time>2024-12-08T04:41:10.619Z</time>
      </trkpt>
      <trkpt lat="45.9297" lon="3.86674">
        <ele>870</ele>
        <time>2024-12-08T04:41:11.619Z</time>
      </trkpt>
      <trkpt lat="45.92971" lon="3.86675">
        <ele>870</ele>
        <time>2024-12-08T04:41:12.619Z</time>
      </trkpt>
      <trkpt lat="45.92972" lon="3.86677">
        <ele>870</ele>
        <time>2024-12-08T04:41:13.620Z</time>
      </trkpt>
      <trkpt lat="45.92974" lon="3.86678">
        <ele>870</ele>
        <time>2024-12-08T04:41:14.619Z</time>
      </trkpt>
      <trkpt lat="45.92975" lon="3.8668">
        <ele>870</ele>
        <time>2024-12-08T04:41:15.620Z</time>
      </trkpt>
      <trkpt lat="45.92976" lon="3.86682">
        <ele>870</ele>
        <time>2024-12-08T04:41:16.619Z</time>
      </trkpt>
      <trkpt lat="45.92977" lon="3.86683">
        <ele>870</ele>
        <time>2024-12-08T04:41:17.620Z</time>
      </trkpt>
      <trkpt lat="45.92979" lon="3.86684">
        <ele>870</ele>
        <time>2024-12-08T04:41:18.620Z</time>
      </trkpt>
      <trkpt lat="45.9298" lon="3.86686">
        <ele>869</ele>
        <time>2024-12-08T04:41:19.620Z</time>
      </trkpt>
      <trkpt lat="45.92981" lon="3.86687">
        <ele>869</ele>
        <time>2024-12-08T04:41:20.620Z</time>
      </trkpt>
      <trkpt lat="45.92982" lon="3.86689">
        <ele>870</ele>
        <time>2024-12-08T04:41:21.620Z</time>
      </trkpt>
      <trkpt lat="45.92983" lon="3.86691">
        <ele>870</ele>
        <time>2024-12-08T04:41:22.619Z</time>
      </trkpt>
      <trkpt lat="45.92984" lon="3.86692">
        <ele>870</ele>
        <time>2024-12-08T04:41:23.620Z</time>
      </trkpt>
      <trkpt lat="45.92985" lon="3.86694">
        <ele>870</ele>
        <time>2024-12-08T04:41:24.619Z</time>
      </trkpt>
      <trkpt lat="45.92986" lon="3.86695">
        <ele>870</ele>
        <time>2024-12-08T04:41:25.619Z</time>
      </trkpt>
      <trkpt lat="45.92988" lon="3.86697">
        <ele>870</ele>
        <time>2024-12-08T04:41:26.620Z</time>
      </trkpt>
      <trkpt lat="45.92989" lon="3.86698">
        <ele>870</ele>
        <time>2024-12-08T04:41:27.619Z</time>
      </trkpt>
      <trkpt lat="45.9299" lon="3.86699">
        <ele>870</ele>
        <time>2024-12-08T04:41:28.620Z</time>
      </trkpt>
      <trkpt lat="45.92991" lon="3.86701">
        <ele>871</ele>
        <time>2024-12-08T04:41:29.619Z</time>
      </trkpt>
      <trkpt lat="45.92992" lon="3.86702">
        <ele>871</ele>
        <time>2024-12-08T04:41:30.619Z</time>
      </trkpt>
      <trkpt lat="45.92993" lon="3.86704">
        <ele>871</ele>
        <time>2024-12-08T04:41:31.619Z</time>
      </trkpt>
      <trkpt lat="45.92994" lon="3.86705">
        <ele>872</ele>
        <time>2024-12-08T04:41:32.619Z</time>
      </trkpt>
      <trkpt lat="45.92996" lon="3.86707">
        <ele>872</ele>
        <time>2024-12-08T04:41:33.620Z</time>
      </trkpt>
      <trkpt lat="45.92997" lon="3.86708">
        <ele>872</ele>
        <time>2024-12-08T04:41:34.620Z</time>
      </trkpt>
      <trkpt lat="45.92998" lon="3.8671">
        <ele>872</ele>
        <time>2024-12-08T04:41:35.620Z</time>
      </trkpt>
      <trkpt lat="45.92998" lon="3.86711">
        <ele>871</ele>
        <time>2024-12-08T04:41:36.620Z</time>
      </trkpt>
      <trkpt lat="45.92999" lon="3.86713">
        <ele>871</ele>
        <time>2024-12-08T04:41:37.619Z</time>
      </trkpt>
      <trkpt lat="45.93" lon="3.86715">
        <ele>871</ele>
        <time>2024-12-08T04:41:38.620Z</time>
      </trkpt>
      <trkpt lat="45.93001" lon="3.86717">
        <ele>870</ele>
        <time>2024-12-08T04:41:39.619Z</time>
      </trkpt>
      <trkpt lat="45.93002" lon="3.86718">
        <ele>870</ele>
        <time>2024-12-08T04:41:40.619Z</time>
      </trkpt>
      <trkpt lat="45.93003" lon="3.8672">
        <ele>870</ele>
        <time>2024-12-08T04:41:41.620Z</time>
      </trkpt>
      <trkpt lat="45.93004" lon="3.86721">
        <ele>870</ele>
        <time>2024-12-08T04:41:42.619Z</time>
      </trkpt>
      <trkpt lat="45.93005" lon="3.86723">
        <ele>870</ele>
        <time>2024-12-08T04:41:43.620Z</time>
      </trkpt>
      <trkpt lat="45.93006" lon="3.86725">
        <ele>870</ele>
        <time>2024-12-08T04:41:44.620Z</time>
      </trkpt>
      <trkpt lat="45.93007" lon="3.86727">
        <ele>870</ele>
        <time>2024-12-08T04:41:45.620Z</time>
      </trkpt>
      <trkpt lat="45.93008" lon="3.86729">
        <ele>870</ele>
        <time>2024-12-08T04:41:46.620Z</time>
      </trkpt>
      <trkpt lat="45.9301" lon="3.8673">
        <ele>870</ele>
        <time>2024-12-08T04:41:47.619Z</time>
      </trkpt>
      <trkpt lat="45.93011" lon="3.86732">
        <ele>870</ele>
        <time>2024-12-08T04:41:48.620Z</time>
      </trkpt>
      <trkpt lat="45.93012" lon="3.86734">
        <ele>870</ele>
        <time>2024-12-08T04:41:49.619Z</time>
      </trkpt>
      <trkpt lat="45.93012" lon="3.86737">
        <ele>871</ele>
        <time>2024-12-08T04:41:50.620Z</time>
      </trkpt>
      <trkpt lat="45.93013" lon="3.86739">
        <ele>871</ele>
        <time>2024-12-08T04:41:51.619Z</time>
      </trkpt>
      <trkpt lat="45.93014" lon="3.86741">
        <ele>871</ele>
        <time>2024-12-08T04:41:52.620Z</time>
      </trkpt>
      <trkpt lat="45.93015" lon="3.86743">
        <ele>871</ele>
        <time>2024-12-08T04:41:53.619Z</time>
      </trkpt>
      <trkpt lat="45.93016" lon="3.86745">
        <ele>871</ele>
        <time>2024-12-08T04:41:54.620Z</time>
      </trkpt>
      <trkpt lat="45.93017" lon="3.86747">
        <ele>871</ele>
        <time>2024-12-08T04:41:55.620Z</time>
      </trkpt>
      <trkpt lat="45.93019" lon="3.86749">
        <ele>871</ele>
        <time>2024-12-08T04:41:56.619Z</time>
      </trkpt>
      <trkpt lat="45.93019" lon="3.86751">
        <ele>871</ele>
        <time>2024-12-08T04:41:57.619Z</time>
      </trkpt>
      <trkpt lat="45.93021" lon="3.86752">
        <ele>872</ele>
        <time>2024-12-08T04:41:58.620Z</time>
      </trkpt>
      <trkpt lat="45.93022" lon="3.86753">
        <ele>872</ele>
        <time>2024-12-08T04:41:59.619Z</time>
      </trkpt>
      <trkpt lat="45.93024" lon="3.86755">
        <ele>872</ele>
        <time>2024-12-08T04:42:00.619Z</time>
      </trkpt>
      <trkpt lat="45.93025" lon="3.86756">
        <ele>872</ele>
        <time>2024-12-08T04:42:01.620Z</time>
      </trkpt>
      <trkpt lat="45.93026" lon="3.86758">
        <ele>872</ele>
        <time>2024-12-08T04:42:02.620Z</time>
      </trkpt>
      <trkpt lat="45.93027" lon="3.8676">
        <ele>872</ele>
        <time>2024-12-08T04:42:03.620Z</time>
      </trkpt>
      <trkpt lat="45.93028" lon="3.86762">
        <ele>872</ele>
        <time>2024-12-08T04:42:04.619Z</time>
      </trkpt>
      <trkpt lat="45.93029" lon="3.86763">
        <ele>873</ele>
        <time>2024-12-08T04:42:05.619Z</time>
      </trkpt>
      <trkpt lat="45.9303" lon="3.86765">
        <ele>873</ele>
        <time>2024-12-08T04:42:06.620Z</time>
      </trkpt>
      <trkpt lat="45.93031" lon="3.86767">
        <ele>873</ele>
        <time>2024-12-08T04:42:07.619Z</time>
      </trkpt>
      <trkpt lat="45.93032" lon="3.86768">
        <ele>873</ele>
        <time>2024-12-08T04:42:08.620Z</time>
      </trkpt>
      <trkpt lat="45.93033" lon="3.86769">
        <ele>873</ele>
        <time>2024-12-08T04:42:09.619Z</time>
      </trkpt>
      <trkpt lat="45.93034" lon="3.86771">
        <ele>873</ele>
        <time>2024-12-08T04:42:10.620Z</time>
      </trkpt>
      <trkpt lat="45.93035" lon="3.86772">
        <ele>873</ele>
        <time>2024-12-08T04:42:11.620Z</time>
      </trkpt>
      <trkpt lat="45.93036" lon="3.86774">
        <ele>873</ele>
        <time>2024-12-08T04:42:12.619Z</time>
      </trkpt>
      <trkpt lat="45.93037" lon="3.86775">
        <ele>873</ele>
        <time>2024-12-08T04:42:13.619Z</time>
      </trkpt>
      <trkpt lat="45.93038" lon="3.86777">
        <ele>874</ele>
        <time>2024-12-08T04:42:14.620Z</time>
      </trkpt>
      <trkpt lat="45.93039" lon="3.86779">
        <ele>874</ele>
        <time>2024-12-08T04:42:15.620Z</time>
      </trkpt>
      <trkpt lat="45.9304" lon="3.8678">
        <ele>874</ele>
        <time>2024-12-08T04:42:16.620Z</time>
      </trkpt>
      <trkpt lat="45.93041" lon="3.86782">
        <ele>874</ele>
        <time>2024-12-08T04:42:17.619Z</time>
      </trkpt>
      <trkpt lat="45.93042" lon="3.86783">
        <ele>874</ele>
        <time>2024-12-08T04:42:18.619Z</time>
      </trkpt>
      <trkpt lat="45.93043" lon="3.86785">
        <ele>874</ele>
        <time>2024-12-08T04:42:19.620Z</time>
      </trkpt>
      <trkpt lat="45.93044" lon="3.86786">
        <ele>874</ele>
        <time>2024-12-08T04:42:20.620Z</time>
      </trkpt>
      <trkpt lat="45.93045" lon="3.86788">
        <ele>874</ele>
        <time>2024-12-08T04:42:21.619Z</time>
      </trkpt>
      <trkpt lat="45.93046" lon="3.86789">
        <ele>874</ele>
        <time>2024-12-08T04:42:22.619Z</time>
      </trkpt>
      <trkpt lat="45.93047" lon="3.86791">
        <ele>874</ele>
        <time>2024-12-08T04:42:23.620Z</time>
      </trkpt>
      <trkpt lat="45.93048" lon="3.86792">
        <ele>874</ele>
        <time>2024-12-08T04:42:24.619Z</time>
      </trkpt>
      <trkpt lat="45.93049" lon="3.86794">
        <ele>874</ele>
        <time>2024-12-08T04:42:25.619Z</time>
      </trkpt>
      <trkpt lat="45.93049" lon="3.86796">
        <ele>874</ele>
        <time>2024-12-08T04:42:26.619Z</time>
      </trkpt>
      <trkpt lat="45.93051" lon="3.86798">
        <ele>875</ele>
        <time>2024-12-08T04:42:27.620Z</time>
      </trkpt>
      <trkpt lat="45.93052" lon="3.86799">
        <ele>875</ele>
        <time>2024-12-08T04:42:28.620Z</time>
      </trkpt>
      <trkpt lat="45.93053" lon="3.868">
        <ele>875</ele>
        <time>2024-12-08T04:42:29.619Z</time>
      </trkpt>
      <trkpt lat="45.93053" lon="3.86802">
        <ele>875</ele>
        <time>2024-12-08T04:42:30.619Z</time>
      </trkpt>
      <trkpt lat="45.93054" lon="3.86804">
        <ele>875</ele>
        <time>2024-12-08T04:42:31.620Z</time>
      </trkpt>
      <trkpt lat="45.93055" lon="3.86805">
        <ele>876</ele>
        <time>2024-12-08T04:42:32.620Z</time>
      </trkpt>
      <trkpt lat="45.93057" lon="3.86807">
        <ele>876</ele>
        <time>2024-12-08T04:42:33.619Z</time>
      </trkpt>
      <trkpt lat="45.93058" lon="3.86809">
        <ele>876</ele>
        <time>2024-12-08T04:42:34.619Z</time>
      </trkpt>
      <trkpt lat="45.93059" lon="3.86811">
        <ele>876</ele>
        <time>2024-12-08T04:42:35.620Z</time>
      </trkpt>
      <trkpt lat="45.9306" lon="3.86813">
        <ele>876</ele>
        <time>2024-12-08T04:42:36.619Z</time>
      </trkpt>
      <trkpt lat="45.93061" lon="3.86814">
        <ele>876</ele>
        <time>2024-12-08T04:42:37.620Z</time>
      </trkpt>
      <trkpt lat="45.93063" lon="3.86816">
        <ele>875</ele>
        <time>2024-12-08T04:42:38.620Z</time>
      </trkpt>
      <trkpt lat="45.93064" lon="3.86818">
        <ele>875</ele>
        <time>2024-12-08T04:42:39.620Z</time>
      </trkpt>
      <trkpt lat="45.93065" lon="3.8682">
        <ele>875</ele>
        <time>2024-12-08T04:42:40.620Z</time>
      </trkpt>
      <trkpt lat="45.93066" lon="3.86822">
        <ele>875</ele>
        <time>2024-12-08T04:42:41.620Z</time>
      </trkpt>
      <trkpt lat="45.93066" lon="3.86824">
        <ele>875</ele>
        <time>2024-12-08T04:42:42.620Z</time>
      </trkpt>
      <trkpt lat="45.93067" lon="3.86825">
        <ele>875</ele>
        <time>2024-12-08T04:42:43.620Z</time>
      </trkpt>
      <trkpt lat="45.93068" lon="3.86827">
        <ele>875</ele>
        <time>2024-12-08T04:42:44.619Z</time>
      </trkpt>
      <trkpt lat="45.93069" lon="3.86829">
        <ele>875</ele>
        <time>2024-12-08T04:42:45.619Z</time>
      </trkpt>
      <trkpt lat="45.9307" lon="3.86831">
        <ele>875</ele>
        <time>2024-12-08T04:42:46.619Z</time>
      </trkpt>
      <trkpt lat="45.93071" lon="3.86832">
        <ele>875</ele>
        <time>2024-12-08T04:42:47.619Z</time>
      </trkpt>
      <trkpt lat="45.93072" lon="3.86834">
        <ele>875</ele>
        <time>2024-12-08T04:42:48.620Z</time>
      </trkpt>
      <trkpt lat="45.93073" lon="3.86835">
        <ele>875</ele>
        <time>2024-12-08T04:42:49.620Z</time>
      </trkpt>
      <trkpt lat="45.93074" lon="3.86837">
        <ele>875</ele>
        <time>2024-12-08T04:42:50.619Z</time>
      </trkpt>
      <trkpt lat="45.93075" lon="3.86839">
        <ele>875</ele>
        <time>2024-12-08T04:42:51.620Z</time>
      </trkpt>
      <trkpt lat="45.93076" lon="3.8684">
        <ele>875</ele>
        <time>2024-12-08T04:42:52.619Z</time>
      </trkpt>
      <trkpt lat="45.93077" lon="3.86842">
        <ele>875</ele>
        <time>2024-12-08T04:42:53.620Z</time>
      </trkpt>
      <trkpt lat="45.93078" lon="3.86843">
        <ele>875</ele>
        <time>2024-12-08T04:42:54.619Z</time>
      </trkpt>
      <trkpt lat="45.93079" lon="3.86845">
        <ele>874</ele>
        <time>2024-12-08T04:42:55.619Z</time>
      </trkpt>
      <trkpt lat="45.9308" lon="3.86847">
        <ele>874</ele>
        <time>2024-12-08T04:42:56.619Z</time>
      </trkpt>
      <trkpt lat="45.93082" lon="3.86848">
        <ele>874</ele>
        <time>2024-12-08T04:42:57.620Z</time>
      </trkpt>
      <trkpt lat="45.93083" lon="3.8685">
        <ele>874</ele>
        <time>2024-12-08T04:42:58.619Z</time>
      </trkpt>
      <trkpt lat="45.93085" lon="3.86852">
        <ele>874</ele>
        <time>2024-12-08T04:42:59.619Z</time>
      </trkpt>
      <trkpt lat="45.93086" lon="3.86853">
        <ele>874</ele>
        <time>2024-12-08T04:43:00.620Z</time>
      </trkpt>
      <trkpt lat="45.93088" lon="3.86855">
        <ele>875</ele>
        <time>2024-12-08T04:43:01.619Z</time>
      </trkpt>
      <trkpt lat="45.93089" lon="3.86857">
        <ele>875</ele>
        <time>2024-12-08T04:43:02.619Z</time>
      </trkpt>
      <trkpt lat="45.9309" lon="3.86858">
        <ele>875</ele>
        <time>2024-12-08T04:43:03.620Z</time>
      </trkpt>
      <trkpt lat="45.93092" lon="3.8686">
        <ele>875</ele>
        <time>2024-12-08T04:43:04.619Z</time>
      </trkpt>
      <trkpt lat="45.93093" lon="3.86862">
        <ele>875</ele>
        <time>2024-12-08T04:43:05.620Z</time>
      </trkpt>
      <trkpt lat="45.93094" lon="3.86863">
        <ele>875</ele>
        <time>2024-12-08T04:43:06.620Z</time>
      </trkpt>
      <trkpt lat="45.93096" lon="3.86864">
        <ele>875</ele>
        <time>2024-12-08T04:43:07.620Z</time>
      </trkpt>
      <trkpt lat="45.93097" lon="3.86865">
        <ele>876</ele>
        <time>2024-12-08T04:43:08.619Z</time>
      </trkpt>
      <trkpt lat="45.93099" lon="3.86867">
        <ele>876</ele>
        <time>2024-12-08T04:43:09.619Z</time>
      </trkpt>
      <trkpt lat="45.931" lon="3.86868">
        <ele>875</ele>
        <time>2024-12-08T04:43:10.619Z</time>
      </trkpt>
      <trkpt lat="45.93102" lon="3.8687">
        <ele>876</ele>
        <time>2024-12-08T04:43:11.620Z</time>
      </trkpt>
      <trkpt lat="45.93103" lon="3.86871">
        <ele>876</ele>
        <time>2024-12-08T04:43:12.620Z</time>
      </trkpt>
      <trkpt lat="45.93104" lon="3.86872">
        <ele>876</ele>
        <time>2024-12-08T04:43:13.620Z</time>
      </trkpt>
      <trkpt lat="45.93106" lon="3.86873">
        <ele>876</ele>
        <time>2024-12-08T04:43:14.620Z</time>
      </trkpt>
      <trkpt lat="45.93107" lon="3.86875">
        <ele>876</ele>
        <time>2024-12-08T04:43:15.620Z</time>
      </trkpt>
      <trkpt lat="45.93109" lon="3.86876">
        <ele>876</ele>
        <time>2024-12-08T04:43:16.619Z</time>
      </trkpt>
      <trkpt lat="45.9311" lon="3.86877">
        <ele>876</ele>
        <time>2024-12-08T04:43:17.620Z</time>
      </trkpt>
      <trkpt lat="45.93112" lon="3.86878">
        <ele>876</ele>
        <time>2024-12-08T04:43:18.620Z</time>
      </trkpt>
      <trkpt lat="45.93114" lon="3.86879">
        <ele>876</ele>
        <time>2024-12-08T04:43:19.619Z</time>
      </trkpt>
      <trkpt lat="45.93115" lon="3.8688">
        <ele>876</ele>
        <time>2024-12-08T04:43:20.619Z</time>
      </trkpt>
      <trkpt lat="45.93117" lon="3.8688">
        <ele>876</ele>
        <time>2024-12-08T04:43:21.620Z</time>
      </trkpt>
      <trkpt lat="45.93118" lon="3.86881">
        <ele>876</ele>
        <time>2024-12-08T04:43:22.620Z</time>
      </trkpt>
      <trkpt lat="45.9312" lon="3.86882">
        <ele>876</ele>
        <time>2024-12-08T04:43:23.619Z</time>
      </trkpt>
      <trkpt lat="45.93121" lon="3.86882">
        <ele>876</ele>
        <time>2024-12-08T04:43:24.620Z</time>
      </trkpt>
      <trkpt lat="45.93123" lon="3.86883">
        <ele>876</ele>
        <time>2024-12-08T04:43:25.620Z</time>
      </trkpt>
      <trkpt lat="45.93124" lon="3.86883">
        <ele>876</ele>
        <time>2024-12-08T04:43:26.620Z</time>
      </trkpt>
      <trkpt lat="45.93126" lon="3.86884">
        <ele>876</ele>
        <time>2024-12-08T04:43:27.620Z</time>
      </trkpt>
      <trkpt lat="45.93128" lon="3.86884">
        <ele>876</ele>
        <time>2024-12-08T04:43:28.619Z</time>
      </trkpt>
      <trkpt lat="45.9313" lon="3.86885">
        <ele>875</ele>
        <time>2024-12-08T04:43:29.620Z</time>
      </trkpt>
      <trkpt lat="45.93131" lon="3.86885">
        <ele>875</ele>
        <time>2024-12-08T04:43:30.620Z</time>
      </trkpt>
      <trkpt lat="45.93133" lon="3.86886">
        <ele>875</ele>
        <time>2024-12-08T04:43:31.619Z</time>
      </trkpt>
      <trkpt lat="45.93134" lon="3.86886">
        <ele>875</ele>
        <time>2024-12-08T04:43:32.619Z</time>
      </trkpt>
      <trkpt lat="45.93136" lon="3.86886">
        <ele>875</ele>
        <time>2024-12-08T04:43:33.619Z</time>
      </trkpt>
      <trkpt lat="45.93137" lon="3.86886">
        <ele>875</ele>
        <time>2024-12-08T04:43:34.620Z</time>
      </trkpt>
      <trkpt lat="45.93138" lon="3.86887">
        <ele>875</ele>
        <time>2024-12-08T04:43:35.619Z</time>
      </trkpt>
      <trkpt lat="45.93139" lon="3.86887">
        <ele>874</ele>
        <time>2024-12-08T04:43:36.620Z</time>
      </trkpt>
      <trkpt lat="45.93141" lon="3.86887">
        <ele>874</ele>
        <time>2024-12-08T04:43:37.620Z</time>
      </trkpt>
      <trkpt lat="45.93143" lon="3.86887">
        <ele>874</ele>
        <time>2024-12-08T04:43:38.619Z</time>
      </trkpt>
      <trkpt lat="45.93145" lon="3.86887">
        <ele>874</ele>
        <time>2024-12-08T04:43:39.619Z</time>
      </trkpt>
      <trkpt lat="45.93147" lon="3.86888">
        <ele>874</ele>
        <time>2024-12-08T04:43:40.620Z</time>
      </trkpt>
      <trkpt lat="45.93149" lon="3.86888">
        <ele>874</ele>
        <time>2024-12-08T04:43:41.620Z</time>
      </trkpt>
      <trkpt lat="45.93151" lon="3.86888">
        <ele>875</ele>
        <time>2024-12-08T04:43:42.619Z</time>
      </trkpt>
      <trkpt lat="45.93153" lon="3.86888">
        <ele>875</ele>
        <time>2024-12-08T04:43:43.619Z</time>
      </trkpt>
      <trkpt lat="45.93155" lon="3.86888">
        <ele>875</ele>
        <time>2024-12-08T04:43:44.620Z</time>
      </trkpt>
      <trkpt lat="45.93156" lon="3.86888">
        <ele>875</ele>
        <time>2024-12-08T04:43:45.619Z</time>
      </trkpt>
      <trkpt lat="45.93158" lon="3.86888">
        <ele>875</ele>
        <time>2024-12-08T04:43:46.620Z</time>
      </trkpt>
      <trkpt lat="45.9316" lon="3.86888">
        <ele>875</ele>
        <time>2024-12-08T04:43:47.619Z</time>
      </trkpt>
      <trkpt lat="45.93162" lon="3.86888">
        <ele>875</ele>
        <time>2024-12-08T04:43:48.619Z</time>
      </trkpt>
      <trkpt lat="45.93164" lon="3.86888">
        <ele>875</ele>
        <time>2024-12-08T04:43:49.620Z</time>
      </trkpt>
      <trkpt lat="45.93166" lon="3.86889">
        <ele>874</ele>
        <time>2024-12-08T04:43:50.619Z</time>
      </trkpt>
      <trkpt lat="45.93167" lon="3.86889">
        <ele>874</ele>
        <time>2024-12-08T04:43:51.619Z</time>
      </trkpt>
      <trkpt lat="45.93169" lon="3.86889">
        <ele>874</ele>
        <time>2024-12-08T04:43:52.619Z</time>
      </trkpt>
      <trkpt lat="45.9317" lon="3.86889">
        <ele>874</ele>
        <time>2024-12-08T04:43:53.619Z</time>
      </trkpt>
      <trkpt lat="45.93172" lon="3.86889">
        <ele>874</ele>
        <time>2024-12-08T04:43:54.619Z</time>
      </trkpt>
      <trkpt lat="45.93173" lon="3.86889">
        <ele>873</ele>
        <time>2024-12-08T04:43:55.619Z</time>
      </trkpt>
      <trkpt lat="45.93175" lon="3.86889">
        <ele>873</ele>
        <time>2024-12-08T04:43:56.619Z</time>
      </trkpt>
      <trkpt lat="45.93178" lon="3.86889">
        <ele>873</ele>
        <time>2024-12-08T04:43:57.620Z</time>
      </trkpt>
      <trkpt lat="45.93179" lon="3.8689">
        <ele>872</ele>
        <time>2024-12-08T04:43:58.619Z</time>
      </trkpt>
      <trkpt lat="45.9318" lon="3.8689">
        <ele>872</ele>
        <time>2024-12-08T04:43:59.619Z</time>
      </trkpt>
      <trkpt lat="45.93182" lon="3.86891">
        <ele>871</ele>
        <time>2024-12-08T04:44:00.620Z</time>
      </trkpt>
      <trkpt lat="45.93184" lon="3.86891">
        <ele>871</ele>
        <time>2024-12-08T04:44:01.620Z</time>
      </trkpt>
      <trkpt lat="45.93187" lon="3.86892">
        <ele>870</ele>
        <time>2024-12-08T04:44:02.620Z</time>
      </trkpt>
      <trkpt lat="45.93188" lon="3.86892">
        <ele>870</ele>
        <time>2024-12-08T04:44:03.619Z</time>
      </trkpt>
      <trkpt lat="45.9319" lon="3.86893">
        <ele>870</ele>
        <time>2024-12-08T04:44:04.620Z</time>
      </trkpt>
      <trkpt lat="45.93192" lon="3.86893">
        <ele>869</ele>
        <time>2024-12-08T04:44:05.620Z</time>
      </trkpt>
      <trkpt lat="45.93193" lon="3.86893">
        <ele>869</ele>
        <time>2024-12-08T04:44:06.619Z</time>
      </trkpt>
      <trkpt lat="45.93196" lon="3.86893">
        <ele>869</ele>
        <time>2024-12-08T04:44:07.620Z</time>
      </trkpt>
      <trkpt lat="45.93198" lon="3.86893">
        <ele>869</ele>
        <time>2024-12-08T04:44:08.620Z</time>
      </trkpt>
      <trkpt lat="45.932" lon="3.86893">
        <ele>868</ele>
        <time>2024-12-08T04:44:09.619Z</time>
      </trkpt>
      <trkpt lat="45.93201" lon="3.86893">
        <ele>868</ele>
        <time>2024-12-08T04:44:10.619Z</time>
      </trkpt>
      <trkpt lat="45.93203" lon="3.86894">
        <ele>868</ele>
        <time>2024-12-08T04:44:11.619Z</time>
      </trkpt>
      <trkpt lat="45.93204" lon="3.86894">
        <ele>868</ele>
        <time>2024-12-08T04:44:12.620Z</time>
      </trkpt>
      <trkpt lat="45.93206" lon="3.86895">
        <ele>867</ele>
        <time>2024-12-08T04:44:13.620Z</time>
      </trkpt>
      <trkpt lat="45.93208" lon="3.86895">
        <ele>867</ele>
        <time>2024-12-08T04:44:14.619Z</time>
      </trkpt>
      <trkpt lat="45.9321" lon="3.86895">
        <ele>868</ele>
        <time>2024-12-08T04:44:15.620Z</time>
      </trkpt>
      <trkpt lat="45.93212" lon="3.86895">
        <ele>868</ele>
        <time>2024-12-08T04:44:16.619Z</time>
      </trkpt>
      <trkpt lat="45.93214" lon="3.86895">
        <ele>868</ele>
        <time>2024-12-08T04:44:17.619Z</time>
      </trkpt>
      <trkpt lat="45.93216" lon="3.86896">
        <ele>868</ele>
        <time>2024-12-08T04:44:18.619Z</time>
      </trkpt>
      <trkpt lat="45.93218" lon="3.86896">
        <ele>868</ele>
        <time>2024-12-08T04:44:19.619Z</time>
      </trkpt>
      <trkpt lat="45.9322" lon="3.86896">
        <ele>868</ele>
        <time>2024-12-08T04:44:20.619Z</time>
      </trkpt>
      <trkpt lat="45.93221" lon="3.86897">
        <ele>868</ele>
        <time>2024-12-08T04:44:21.620Z</time>
      </trkpt>
      <trkpt lat="45.93223" lon="3.86897">
        <ele>867</ele>
        <time>2024-12-08T04:44:22.619Z</time>
      </trkpt>
      <trkpt lat="45.93225" lon="3.86897">
        <ele>867</ele>
        <time>2024-12-08T04:44:23.619Z</time>
      </trkpt>
      <trkpt lat="45.93226" lon="3.86898">
        <ele>867</ele>
        <time>2024-12-08T04:44:24.619Z</time>
      </trkpt>
      <trkpt lat="45.93228" lon="3.86899">
        <ele>866</ele>
        <time>2024-12-08T04:44:25.619Z</time>
      </trkpt>
      <trkpt lat="45.9323" lon="3.86899">
        <ele>866</ele>
        <time>2024-12-08T04:44:26.619Z</time>
      </trkpt>
      <trkpt lat="45.93232" lon="3.86899">
        <ele>866</ele>
        <time>2024-12-08T04:44:27.620Z</time>
      </trkpt>
      <trkpt lat="45.93234" lon="3.86899">
        <ele>865</ele>
        <time>2024-12-08T04:44:28.620Z</time>
      </trkpt>
      <trkpt lat="45.93236" lon="3.869">
        <ele>865</ele>
        <time>2024-12-08T04:44:29.619Z</time>
      </trkpt>
      <trkpt lat="45.93237" lon="3.869">
        <ele>865</ele>
        <time>2024-12-08T04:44:30.620Z</time>
      </trkpt>
      <trkpt lat="45.93239" lon="3.86901">
        <ele>864</ele>
        <time>2024-12-08T04:44:31.620Z</time>
      </trkpt>
      <trkpt lat="45.9324" lon="3.86901">
        <ele>864</ele>
        <time>2024-12-08T04:44:32.619Z</time>
      </trkpt>
      <trkpt lat="45.93242" lon="3.86901">
        <ele>864</ele>
        <time>2024-12-08T04:44:33.619Z</time>
      </trkpt>
      <trkpt lat="45.93244" lon="3.86902">
        <ele>864</ele>
        <time>2024-12-08T04:44:34.619Z</time>
      </trkpt>
      <trkpt lat="45.93245" lon="3.86902">
        <ele>864</ele>
        <time>2024-12-08T04:44:35.619Z</time>
      </trkpt>
      <trkpt lat="45.93247" lon="3.86902">
        <ele>864</ele>
        <time>2024-12-08T04:44:36.619Z</time>
      </trkpt>
      <trkpt lat="45.93248" lon="3.86903">
        <ele>864</ele>
        <time>2024-12-08T04:44:37.619Z</time>
      </trkpt>
      <trkpt lat="45.9325" lon="3.86903">
        <ele>864</ele>
        <time>2024-12-08T04:44:38.620Z</time>
      </trkpt>
      <trkpt lat="45.93252" lon="3.86903">
        <ele>863</ele>
        <time>2024-12-08T04:44:39.620Z</time>
      </trkpt>
      <trkpt lat="45.93253" lon="3.86903">
        <ele>863</ele>
        <time>2024-12-08T04:44:40.619Z</time>
      </trkpt>
      <trkpt lat="45.93255" lon="3.86903">
        <ele>863</ele>
        <time>2024-12-08T04:44:41.620Z</time>
      </trkpt>
      <trkpt lat="45.93256" lon="3.86902">
        <ele>862</ele>
        <time>2024-12-08T04:44:42.619Z</time>
      </trkpt>
      <trkpt lat="45.93259" lon="3.86902">
        <ele>862</ele>
        <time>2024-12-08T04:44:43.620Z</time>
      </trkpt>
      <trkpt lat="45.9326" lon="3.86903">
        <ele>862</ele>
        <time>2024-12-08T04:44:44.619Z</time>
      </trkpt>
      <trkpt lat="45.93261" lon="3.86903">
        <ele>862</ele>
        <time>2024-12-08T04:44:45.619Z</time>
      </trkpt>
      <trkpt lat="45.93263" lon="3.86903">
        <ele>862</ele>
        <time>2024-12-08T04:44:46.619Z</time>
      </trkpt>
      <trkpt lat="45.93265" lon="3.86903">
        <ele>862</ele>
        <time>2024-12-08T04:44:47.619Z</time>
      </trkpt>
      <trkpt lat="45.93266" lon="3.86904">
        <ele>862</ele>
        <time>2024-12-08T04:44:48.619Z</time>
      </trkpt>
      <trkpt lat="45.93268" lon="3.86904">
        <ele>862</ele>
        <time>2024-12-08T04:44:49.619Z</time>
      </trkpt>
      <trkpt lat="45.9327" lon="3.86904">
        <ele>862</ele>
        <time>2024-12-08T04:44:50.619Z</time>
      </trkpt>
      <trkpt lat="45.93272" lon="3.86904">
        <ele>862</ele>
        <time>2024-12-08T04:44:51.619Z</time>
      </trkpt>
      <trkpt lat="45.93274" lon="3.86904">
        <ele>862</ele>
        <time>2024-12-08T04:44:52.619Z</time>
      </trkpt>
      <trkpt lat="45.93275" lon="3.86904">
        <ele>861</ele>
        <time>2024-12-08T04:44:53.620Z</time>
      </trkpt>
      <trkpt lat="45.93277" lon="3.86905">
        <ele>861</ele>
        <time>2024-12-08T04:44:54.620Z</time>
      </trkpt>
      <trkpt lat="45.93278" lon="3.86905">
        <ele>861</ele>
        <time>2024-12-08T04:44:55.619Z</time>
      </trkpt>
      <trkpt lat="45.9328" lon="3.86905">
        <ele>861</ele>
        <time>2024-12-08T04:44:56.620Z</time>
      </trkpt>
      <trkpt lat="45.93282" lon="3.86905">
        <ele>861</ele>
        <time>2024-12-08T04:44:57.619Z</time>
      </trkpt>
      <trkpt lat="45.93284" lon="3.86905">
        <ele>861</ele>
        <time>2024-12-08T04:44:58.619Z</time>
      </trkpt>
      <trkpt lat="45.93285" lon="3.86905">
        <ele>860</ele>
        <time>2024-12-08T04:44:59.619Z</time>
      </trkpt>
      <trkpt lat="45.93287" lon="3.86906">
        <ele>860</ele>
        <time>2024-12-08T04:45:00.619Z</time>
      </trkpt>
      <trkpt lat="45.93289" lon="3.86906">
        <ele>860</ele>
        <time>2024-12-08T04:45:01.619Z</time>
      </trkpt>
      <trkpt lat="45.93291" lon="3.86906">
        <ele>860</ele>
        <time>2024-12-08T04:45:02.619Z</time>
      </trkpt>
      <trkpt lat="45.93293" lon="3.86906">
        <ele>860</ele>
        <time>2024-12-08T04:45:03.620Z</time>
      </trkpt>
      <trkpt lat="45.93295" lon="3.86906">
        <ele>860</ele>
        <time>2024-12-08T04:45:04.619Z</time>
      </trkpt>
      <trkpt lat="45.93297" lon="3.86906">
        <ele>859</ele>
        <time>2024-12-08T04:45:05.620Z</time>
      </trkpt>
      <trkpt lat="45.93299" lon="3.86906">
        <ele>859</ele>
        <time>2024-12-08T04:45:06.619Z</time>
      </trkpt>
      <trkpt lat="45.93301" lon="3.86906">
        <ele>859</ele>
        <time>2024-12-08T04:45:07.619Z</time>
      </trkpt>
      <trkpt lat="45.93303" lon="3.86906">
        <ele>859</ele>
        <time>2024-12-08T04:45:08.620Z</time>
      </trkpt>
      <trkpt lat="45.93304" lon="3.86906">
        <ele>859</ele>
        <time>2024-12-08T04:45:09.619Z</time>
      </trkpt>
      <trkpt lat="45.93306" lon="3.86906">
        <ele>859</ele>
        <time>2024-12-08T04:45:10.619Z</time>
      </trkpt>
      <trkpt lat="45.93308" lon="3.86906">
        <ele>859</ele>
        <time>2024-12-08T04:45:11.619Z</time>
      </trkpt>
      <trkpt lat="45.9331" lon="3.86906">
        <ele>859</ele>
        <time>2024-12-08T04:45:12.619Z</time>
      </trkpt>
      <trkpt lat="45.93312" lon="3.86906">
        <ele>859</ele>
        <time>2024-12-08T04:45:13.619Z</time>
      </trkpt>
      <trkpt lat="45.93314" lon="3.86906">
        <ele>859</ele>
        <time>2024-12-08T04:45:14.619Z</time>
      </trkpt>
      <trkpt lat="45.93315" lon="3.86906">
        <ele>858</ele>
        <time>2024-12-08T04:45:15.619Z</time>
      </trkpt>
      <trkpt lat="45.93318" lon="3.86907">
        <ele>858</ele>
        <time>2024-12-08T04:45:16.620Z</time>
      </trkpt>
      <trkpt lat="45.93319" lon="3.86907">
        <ele>858</ele>
        <time>2024-12-08T04:45:17.619Z</time>
      </trkpt>
      <trkpt lat="45.93321" lon="3.86907">
        <ele>858</ele>
        <time>2024-12-08T04:45:18.619Z</time>
      </trkpt>
      <trkpt lat="45.93323" lon="3.86907">
        <ele>858</ele>
        <time>2024-12-08T04:45:19.619Z</time>
      </trkpt>
      <trkpt lat="45.93325" lon="3.86907">
        <ele>857</ele>
        <time>2024-12-08T04:45:20.620Z</time>
      </trkpt>
      <trkpt lat="45.93326" lon="3.86907">
        <ele>857</ele>
        <time>2024-12-08T04:45:21.619Z</time>
      </trkpt>
      <trkpt lat="45.93328" lon="3.86907">
        <ele>857</ele>
        <time>2024-12-08T04:45:22.619Z</time>
      </trkpt>
      <trkpt lat="45.9333" lon="3.86907">
        <ele>857</ele>
        <time>2024-12-08T04:45:23.619Z</time>
      </trkpt>
      <trkpt lat="45.93332" lon="3.86908">
        <ele>857</ele>
        <time>2024-12-08T04:45:24.620Z</time>
      </trkpt>
      <trkpt lat="45.93334" lon="3.86908">
        <ele>856</ele>
        <time>2024-12-08T04:45:25.620Z</time>
      </trkpt>
      <trkpt lat="45.93335" lon="3.86908">
        <ele>856</ele>
        <time>2024-12-08T04:45:26.620Z</time>
      </trkpt>
      <trkpt lat="45.93337" lon="3.86908">
        <ele>856</ele>
        <time>2024-12-08T04:45:27.620Z</time>
      </trkpt>
      <trkpt lat="45.93339" lon="3.86908">
        <ele>856</ele>
        <time>2024-12-08T04:45:28.620Z</time>
      </trkpt>
      <trkpt lat="45.93341" lon="3.86908">
        <ele>856</ele>
        <time>2024-12-08T04:45:29.619Z</time>
      </trkpt>
      <trkpt lat="45.93342" lon="3.86909">
        <ele>857</ele>
        <time>2024-12-08T04:45:30.619Z</time>
      </trkpt>
      <trkpt lat="45.93344" lon="3.86909">
        <ele>857</ele>
        <time>2024-12-08T04:45:31.619Z</time>
      </trkpt>
      <trkpt lat="45.93346" lon="3.86909">
        <ele>856</ele>
        <time>2024-12-08T04:45:32.619Z</time>
      </trkpt>
      <trkpt lat="45.93347" lon="3.86909">
        <ele>856</ele>
        <time>2024-12-08T04:45:33.619Z</time>
      </trkpt>
      <trkpt lat="45.9335" lon="3.86909">
        <ele>856</ele>
        <time>2024-12-08T04:45:34.620Z</time>
      </trkpt>
      <trkpt lat="45.93351" lon="3.86909">
        <ele>856</ele>
        <time>2024-12-08T04:45:35.619Z</time>
      </trkpt>
      <trkpt lat="45.93353" lon="3.86909">
        <ele>856</ele>
        <time>2024-12-08T04:45:36.620Z</time>
      </trkpt>
      <trkpt lat="45.93355" lon="3.86909">
        <ele>856</ele>
        <time>2024-12-08T04:45:37.619Z</time>
      </trkpt>
      <trkpt lat="45.93357" lon="3.86909">
        <ele>856</ele>
        <time>2024-12-08T04:45:38.619Z</time>
      </trkpt>
      <trkpt lat="45.93358" lon="3.86909">
        <ele>856</ele>
        <time>2024-12-08T04:45:39.619Z</time>
      </trkpt>
      <trkpt lat="45.93361" lon="3.86909">
        <ele>856</ele>
        <time>2024-12-08T04:45:40.619Z</time>
      </trkpt>
      <trkpt lat="45.93363" lon="3.86909">
        <ele>856</ele>
        <time>2024-12-08T04:45:41.620Z</time>
      </trkpt>
      <trkpt lat="45.93365" lon="3.86909">
        <ele>856</ele>
        <time>2024-12-08T04:45:42.619Z</time>
      </trkpt>
      <trkpt lat="45.93366" lon="3.86909">
        <ele>857</ele>
        <time>2024-12-08T04:45:43.619Z</time>
      </trkpt>
      <trkpt lat="45.93368" lon="3.8691">
        <ele>857</ele>
        <time>2024-12-08T04:45:44.620Z</time>
      </trkpt>
      <trkpt lat="45.93369" lon="3.8691">
        <ele>857</ele>
        <time>2024-12-08T04:45:45.620Z</time>
      </trkpt>
      <trkpt lat="45.9337" lon="3.8691">
        <ele>858</ele>
        <time>2024-12-08T04:45:46.620Z</time>
      </trkpt>
      <trkpt lat="45.93371" lon="3.8691">
        <ele>858</ele>
        <time>2024-12-08T04:45:47.620Z</time>
      </trkpt>
      <trkpt lat="45.93372" lon="3.8691">
        <ele>858</ele>
        <time>2024-12-08T04:45:48.619Z</time>
      </trkpt>
      <trkpt lat="45.93374" lon="3.8691">
        <ele>859</ele>
        <time>2024-12-08T04:45:49.620Z</time>
      </trkpt>
      <trkpt lat="45.93376" lon="3.8691">
        <ele>859</ele>
        <time>2024-12-08T04:45:50.620Z</time>
      </trkpt>
      <trkpt lat="45.93379" lon="3.8691">
        <ele>860</ele>
        <time>2024-12-08T04:45:51.619Z</time>
      </trkpt>
      <trkpt lat="45.93381" lon="3.8691">
        <ele>861</ele>
        <time>2024-12-08T04:45:52.620Z</time>
      </trkpt>
      <trkpt lat="45.93382" lon="3.8691">
        <ele>861</ele>
        <time>2024-12-08T04:45:53.619Z</time>
      </trkpt>
      <trkpt lat="45.93383" lon="3.86911">
        <ele>861</ele>
        <time>2024-12-08T04:45:54.619Z</time>
      </trkpt>
      <trkpt lat="45.93385" lon="3.86911">
        <ele>862</ele>
        <time>2024-12-08T04:45:55.619Z</time>
      </trkpt>
      <trkpt lat="45.93387" lon="3.86912">
        <ele>862</ele>
        <time>2024-12-08T04:45:56.619Z</time>
      </trkpt>
      <trkpt lat="45.93388" lon="3.86913">
        <ele>862</ele>
        <time>2024-12-08T04:45:57.620Z</time>
      </trkpt>
      <trkpt lat="45.9339" lon="3.86912">
        <ele>862</ele>
        <time>2024-12-08T04:45:58.620Z</time>
      </trkpt>
      <trkpt lat="45.93392" lon="3.86912">
        <ele>863</ele>
        <time>2024-12-08T04:45:59.619Z</time>
      </trkpt>
      <trkpt lat="45.93394" lon="3.86913">
        <ele>863</ele>
        <time>2024-12-08T04:46:00.620Z</time>
      </trkpt>
      <trkpt lat="45.93395" lon="3.86913">
        <ele>863</ele>
        <time>2024-12-08T04:46:01.619Z</time>
      </trkpt>
      <trkpt lat="45.93397" lon="3.86914">
        <ele>863</ele>
        <time>2024-12-08T04:46:02.619Z</time>
      </trkpt>
      <trkpt lat="45.93399" lon="3.86914">
        <ele>863</ele>
        <time>2024-12-08T04:46:03.620Z</time>
      </trkpt>
      <trkpt lat="45.93401" lon="3.86915">
        <ele>863</ele>
        <time>2024-12-08T04:46:04.620Z</time>
      </trkpt>
      <trkpt lat="45.93402" lon="3.86915">
        <ele>863</ele>
        <time>2024-12-08T04:46:05.619Z</time>
      </trkpt>
      <trkpt lat="45.93403" lon="3.86915">
        <ele>862</ele>
        <time>2024-12-08T04:46:06.620Z</time>
      </trkpt>
      <trkpt lat="45.93405" lon="3.86915">
        <ele>862</ele>
        <time>2024-12-08T04:46:07.619Z</time>
      </trkpt>
      <trkpt lat="45.93407" lon="3.86915">
        <ele>862</ele>
        <time>2024-12-08T04:46:08.619Z</time>
      </trkpt>
      <trkpt lat="45.93409" lon="3.86915">
        <ele>861</ele>
        <time>2024-12-08T04:46:09.620Z</time>
      </trkpt>
      <trkpt lat="45.93411" lon="3.86916">
        <ele>861</ele>
        <time>2024-12-08T04:46:10.619Z</time>
      </trkpt>
      <trkpt lat="45.93413" lon="3.86916">
        <ele>861</ele>
        <time>2024-12-08T04:46:11.620Z</time>
      </trkpt>
      <trkpt lat="45.93414" lon="3.86916">
        <ele>860</ele>
        <time>2024-12-08T04:46:12.619Z</time>
      </trkpt>
      <trkpt lat="45.93416" lon="3.86916">
        <ele>860</ele>
        <time>2024-12-08T04:46:13.619Z</time>
      </trkpt>
      <trkpt lat="45.93418" lon="3.86916">
        <ele>859</ele>
        <time>2024-12-08T04:46:14.619Z</time>
      </trkpt>
      <trkpt lat="45.9342" lon="3.86916">
        <ele>859</ele>
        <time>2024-12-08T04:46:15.619Z</time>
      </trkpt>
      <trkpt lat="45.93422" lon="3.86916">
        <ele>858</ele>
        <time>2024-12-08T04:46:16.619Z</time>
      </trkpt>
      <trkpt lat="45.93425" lon="3.86916">
        <ele>858</ele>
        <time>2024-12-08T04:46:17.619Z</time>
      </trkpt>
      <trkpt lat="45.93426" lon="3.86916">
        <ele>857</ele>
        <time>2024-12-08T04:46:18.619Z</time>
      </trkpt>
      <trkpt lat="45.93428" lon="3.86916">
        <ele>857</ele>
        <time>2024-12-08T04:46:19.619Z</time>
      </trkpt>
      <trkpt lat="45.9343" lon="3.86916">
        <ele>857</ele>
        <time>2024-12-08T04:46:20.619Z</time>
      </trkpt>
      <trkpt lat="45.93432" lon="3.86917">
        <ele>856</ele>
        <time>2024-12-08T04:46:21.620Z</time>
      </trkpt>
      <trkpt lat="45.93434" lon="3.86916">
        <ele>856</ele>
        <time>2024-12-08T04:46:22.619Z</time>
      </trkpt>
      <trkpt lat="45.93435" lon="3.86916">
        <ele>856</ele>
        <time>2024-12-08T04:46:23.620Z</time>
      </trkpt>
      <trkpt lat="45.93437" lon="3.86916">
        <ele>856</ele>
        <time>2024-12-08T04:46:24.619Z</time>
      </trkpt>
      <trkpt lat="45.93439" lon="3.86917">
        <ele>855</ele>
        <time>2024-12-08T04:46:25.620Z</time>
      </trkpt>
      <trkpt lat="45.93441" lon="3.86917">
        <ele>855</ele>
        <time>2024-12-08T04:46:26.619Z</time>
      </trkpt>
      <trkpt lat="45.93443" lon="3.86917">
        <ele>855</ele>
        <time>2024-12-08T04:46:27.620Z</time>
      </trkpt>
      <trkpt lat="45.93445" lon="3.86917">
        <ele>855</ele>
        <time>2024-12-08T04:46:28.620Z</time>
      </trkpt>
      <trkpt lat="45.93446" lon="3.86917">
        <ele>855</ele>
        <time>2024-12-08T04:46:29.620Z</time>
      </trkpt>
      <trkpt lat="45.93448" lon="3.86917">
        <ele>854</ele>
        <time>2024-12-08T04:46:30.619Z</time>
      </trkpt>
      <trkpt lat="45.9345" lon="3.86917">
        <ele>854</ele>
        <time>2024-12-08T04:46:31.619Z</time>
      </trkpt>
      <trkpt lat="45.93451" lon="3.86918">
        <ele>854</ele>
        <time>2024-12-08T04:46:32.619Z</time>
      </trkpt>
      <trkpt lat="45.93453" lon="3.86918">
        <ele>854</ele>
        <time>2024-12-08T04:46:33.620Z</time>
      </trkpt>
      <trkpt lat="45.93455" lon="3.86918">
        <ele>854</ele>
        <time>2024-12-08T04:46:34.619Z</time>
      </trkpt>
      <trkpt lat="45.93457" lon="3.86917">
        <ele>853</ele>
        <time>2024-12-08T04:46:35.620Z</time>
      </trkpt>
      <trkpt lat="45.93459" lon="3.86918">
        <ele>853</ele>
        <time>2024-12-08T04:46:36.619Z</time>
      </trkpt>
      <trkpt lat="45.9346" lon="3.86918">
        <ele>853</ele>
        <time>2024-12-08T04:46:37.619Z</time>
      </trkpt>
      <trkpt lat="45.93462" lon="3.86918">
        <ele>853</ele>
        <time>2024-12-08T04:46:38.619Z</time>
      </trkpt>
      <trkpt lat="45.93464" lon="3.86919">
        <ele>853</ele>
        <time>2024-12-08T04:46:39.620Z</time>
      </trkpt>
      <trkpt lat="45.93465" lon="3.86919">
        <ele>853</ele>
        <time>2024-12-08T04:46:40.620Z</time>
      </trkpt>
      <trkpt lat="45.93467" lon="3.86919">
        <ele>852</ele>
        <time>2024-12-08T04:46:41.619Z</time>
      </trkpt>
      <trkpt lat="45.93469" lon="3.86919">
        <ele>852</ele>
        <time>2024-12-08T04:46:42.619Z</time>
      </trkpt>
      <trkpt lat="45.93471" lon="3.86919">
        <ele>852</ele>
        <time>2024-12-08T04:46:43.619Z</time>
      </trkpt>
      <trkpt lat="45.93473" lon="3.86919">
        <ele>852</ele>
        <time>2024-12-08T04:46:44.620Z</time>
      </trkpt>
      <trkpt lat="45.93475" lon="3.8692">
        <ele>852</ele>
        <time>2024-12-08T04:46:45.620Z</time>
      </trkpt>
      <trkpt lat="45.93476" lon="3.86919">
        <ele>852</ele>
        <time>2024-12-08T04:46:46.620Z</time>
      </trkpt>
      <trkpt lat="45.93478" lon="3.86919">
        <ele>852</ele>
        <time>2024-12-08T04:46:47.620Z</time>
      </trkpt>
      <trkpt lat="45.9348" lon="3.86919">
        <ele>852</ele>
        <time>2024-12-08T04:46:48.620Z</time>
      </trkpt>
      <trkpt lat="45.93482" lon="3.86919">
        <ele>852</ele>
        <time>2024-12-08T04:46:49.620Z</time>
      </trkpt>
      <trkpt lat="45.93483" lon="3.86919">
        <ele>852</ele>
        <time>2024-12-08T04:46:50.619Z</time>
      </trkpt>
      <trkpt lat="45.93485" lon="3.86919">
        <ele>852</ele>
        <time>2024-12-08T04:46:51.620Z</time>
      </trkpt>
      <trkpt lat="45.93487" lon="3.86919">
        <ele>852</ele>
        <time>2024-12-08T04:46:52.619Z</time>
      </trkpt>
      <trkpt lat="45.93489" lon="3.86918">
        <ele>852</ele>
        <time>2024-12-08T04:46:53.620Z</time>
      </trkpt>
      <trkpt lat="45.93491" lon="3.86919">
        <ele>852</ele>
        <time>2024-12-08T04:46:54.620Z</time>
      </trkpt>
      <trkpt lat="45.93493" lon="3.86919">
        <ele>853</ele>
        <time>2024-12-08T04:46:55.619Z</time>
      </trkpt>
      <trkpt lat="45.93494" lon="3.86919">
        <ele>853</ele>
        <time>2024-12-08T04:46:56.620Z</time>
      </trkpt>
      <trkpt lat="45.93496" lon="3.86919">
        <ele>853</ele>
        <time>2024-12-08T04:46:57.620Z</time>
      </trkpt>
      <trkpt lat="45.93497" lon="3.86919">
        <ele>853</ele>
        <time>2024-12-08T04:46:58.619Z</time>
      </trkpt>
      <trkpt lat="45.935" lon="3.86919">
        <ele>853</ele>
        <time>2024-12-08T04:46:59.619Z</time>
      </trkpt>
      <trkpt lat="45.93501" lon="3.86919">
        <ele>853</ele>
        <time>2024-12-08T04:47:00.619Z</time>
      </trkpt>
      <trkpt lat="45.93503" lon="3.8692">
        <ele>853</ele>
        <time>2024-12-08T04:47:01.619Z</time>
      </trkpt>
      <trkpt lat="45.93504" lon="3.8692">
        <ele>853</ele>
        <time>2024-12-08T04:47:02.619Z</time>
      </trkpt>
      <trkpt lat="45.93506" lon="3.86921">
        <ele>853</ele>
        <time>2024-12-08T04:47:03.619Z</time>
      </trkpt>
      <trkpt lat="45.93508" lon="3.86921">
        <ele>853</ele>
        <time>2024-12-08T04:47:04.619Z</time>
      </trkpt>
      <trkpt lat="45.9351" lon="3.86921">
        <ele>853</ele>
        <time>2024-12-08T04:47:05.620Z</time>
      </trkpt>
      <trkpt lat="45.93511" lon="3.86921">
        <ele>853</ele>
        <time>2024-12-08T04:47:06.620Z</time>
      </trkpt>
      <trkpt lat="45.93513" lon="3.86921">
        <ele>853</ele>
        <time>2024-12-08T04:47:07.620Z</time>
      </trkpt>
      <trkpt lat="45.93514" lon="3.86921">
        <ele>853</ele>
        <time>2024-12-08T04:47:08.619Z</time>
      </trkpt>
      <trkpt lat="45.93516" lon="3.86922">
        <ele>853</ele>
        <time>2024-12-08T04:47:09.619Z</time>
      </trkpt>
      <trkpt lat="45.93518" lon="3.86922">
        <ele>853</ele>
        <time>2024-12-08T04:47:10.619Z</time>
      </trkpt>
      <trkpt lat="45.9352" lon="3.86922">
        <ele>853</ele>
        <time>2024-12-08T04:47:11.619Z</time>
      </trkpt>
      <trkpt lat="45.93521" lon="3.86923">
        <ele>853</ele>
        <time>2024-12-08T04:47:12.619Z</time>
      </trkpt>
      <trkpt lat="45.93523" lon="3.86923">
        <ele>852</ele>
        <time>2024-12-08T04:47:13.619Z</time>
      </trkpt>
      <trkpt lat="45.93524" lon="3.86924">
        <ele>852</ele>
        <time>2024-12-08T04:47:14.619Z</time>
      </trkpt>
      <trkpt lat="45.93526" lon="3.86924">
        <ele>852</ele>
        <time>2024-12-08T04:47:15.619Z</time>
      </trkpt>
      <trkpt lat="45.93527" lon="3.86925">
        <ele>852</ele>
        <time>2024-12-08T04:47:16.620Z</time>
      </trkpt>
      <trkpt lat="45.93528" lon="3.86927">
        <ele>852</ele>
        <time>2024-12-08T04:47:17.619Z</time>
      </trkpt>
      <trkpt lat="45.93528" lon="3.86929">
        <ele>852</ele>
        <time>2024-12-08T04:47:18.620Z</time>
      </trkpt>
      <trkpt lat="45.93529" lon="3.86931">
        <ele>852</ele>
        <time>2024-12-08T04:47:19.619Z</time>
      </trkpt>
      <trkpt lat="45.93531" lon="3.86933">
        <ele>852</ele>
        <time>2024-12-08T04:47:20.620Z</time>
      </trkpt>
      <trkpt lat="45.93532" lon="3.86935">
        <ele>852</ele>
        <time>2024-12-08T04:47:21.619Z</time>
      </trkpt>
      <trkpt lat="45.93533" lon="3.86938">
        <ele>852</ele>
        <time>2024-12-08T04:47:22.620Z</time>
      </trkpt>
      <trkpt lat="45.93534" lon="3.8694">
        <ele>852</ele>
        <time>2024-12-08T04:47:23.620Z</time>
      </trkpt>
      <trkpt lat="45.93534" lon="3.86943">
        <ele>852</ele>
        <time>2024-12-08T04:47:24.620Z</time>
      </trkpt>
      <trkpt lat="45.93534" lon="3.86945">
        <ele>852</ele>
        <time>2024-12-08T04:47:25.619Z</time>
      </trkpt>
      <trkpt lat="45.93535" lon="3.86947">
        <ele>852</ele>
        <time>2024-12-08T04:47:26.619Z</time>
      </trkpt>
      <trkpt lat="45.93536" lon="3.8695">
        <ele>852</ele>
        <time>2024-12-08T04:47:27.619Z</time>
      </trkpt>
      <trkpt lat="45.93536" lon="3.86952">
        <ele>853</ele>
        <time>2024-12-08T04:47:28.620Z</time>
      </trkpt>
      <trkpt lat="45.93536" lon="3.86955">
        <ele>853</ele>
        <time>2024-12-08T04:47:29.619Z</time>
      </trkpt>
      <trkpt lat="45.93537" lon="3.86957">
        <ele>853</ele>
        <time>2024-12-08T04:47:30.619Z</time>
      </trkpt>
      <trkpt lat="45.93538" lon="3.86959">
        <ele>853</ele>
        <time>2024-12-08T04:47:31.620Z</time>
      </trkpt>
      <trkpt lat="45.93539" lon="3.86961">
        <ele>853</ele>
        <time>2024-12-08T04:47:32.620Z</time>
      </trkpt>
      <trkpt lat="45.93539" lon="3.86963">
        <ele>853</ele>
        <time>2024-12-08T04:47:33.620Z</time>
      </trkpt>
      <trkpt lat="45.9354" lon="3.86965">
        <ele>853</ele>
        <time>2024-12-08T04:47:34.619Z</time>
      </trkpt>
      <trkpt lat="45.9354" lon="3.86967">
        <ele>853</ele>
        <time>2024-12-08T04:47:35.620Z</time>
      </trkpt>
      <trkpt lat="45.93541" lon="3.86969">
        <ele>853</ele>
        <time>2024-12-08T04:47:36.619Z</time>
      </trkpt>
      <trkpt lat="45.93542" lon="3.8697">
        <ele>853</ele>
        <time>2024-12-08T04:47:37.620Z</time>
      </trkpt>
      <trkpt lat="45.93542" lon="3.86973">
        <ele>853</ele>
        <time>2024-12-08T04:47:38.619Z</time>
      </trkpt>
      <trkpt lat="45.93543" lon="3.86975">
        <ele>853</ele>
        <time>2024-12-08T04:47:39.620Z</time>
      </trkpt>
      <trkpt lat="45.93544" lon="3.86977">
        <ele>853</ele>
        <time>2024-12-08T04:47:40.619Z</time>
      </trkpt>
      <trkpt lat="45.93544" lon="3.86978">
        <ele>853</ele>
        <time>2024-12-08T04:47:41.620Z</time>
      </trkpt>
      <trkpt lat="45.93544" lon="3.8698">
        <ele>853</ele>
        <time>2024-12-08T04:47:42.619Z</time>
      </trkpt>
      <trkpt lat="45.93545" lon="3.86982">
        <ele>853</ele>
        <time>2024-12-08T04:47:43.620Z</time>
      </trkpt>
      <trkpt lat="45.93546" lon="3.86983">
        <ele>854</ele>
        <time>2024-12-08T04:47:44.619Z</time>
      </trkpt>
      <trkpt lat="45.93546" lon="3.86985">
        <ele>854</ele>
        <time>2024-12-08T04:47:45.620Z</time>
      </trkpt>
      <trkpt lat="45.93547" lon="3.86987">
        <ele>854</ele>
        <time>2024-12-08T04:47:46.619Z</time>
      </trkpt>
      <trkpt lat="45.93548" lon="3.86988">
        <ele>854</ele>
        <time>2024-12-08T04:47:47.619Z</time>
      </trkpt>
      <trkpt lat="45.93549" lon="3.8699">
        <ele>854</ele>
        <time>2024-12-08T04:47:48.619Z</time>
      </trkpt>
      <trkpt lat="45.9355" lon="3.86992">
        <ele>854</ele>
        <time>2024-12-08T04:47:49.620Z</time>
      </trkpt>
      <trkpt lat="45.93551" lon="3.86994">
        <ele>853</ele>
        <time>2024-12-08T04:47:50.619Z</time>
      </trkpt>
      <trkpt lat="45.93552" lon="3.86996">
        <ele>853</ele>
        <time>2024-12-08T04:47:51.620Z</time>
      </trkpt>
      <trkpt lat="45.93553" lon="3.86998">
        <ele>853</ele>
        <time>2024-12-08T04:47:52.620Z</time>
      </trkpt>
      <trkpt lat="45.93554" lon="3.87">
        <ele>853</ele>
        <time>2024-12-08T04:47:53.620Z</time>
      </trkpt>
      <trkpt lat="45.93555" lon="3.87002">
        <ele>853</ele>
        <time>2024-12-08T04:47:54.620Z</time>
      </trkpt>
      <trkpt lat="45.93556" lon="3.87004">
        <ele>854</ele>
        <time>2024-12-08T04:47:55.620Z</time>
      </trkpt>
      <trkpt lat="45.93557" lon="3.87006">
        <ele>854</ele>
        <time>2024-12-08T04:47:56.620Z</time>
      </trkpt>
      <trkpt lat="45.93558" lon="3.87008">
        <ele>853</ele>
        <time>2024-12-08T04:47:57.619Z</time>
      </trkpt>
      <trkpt lat="45.93559" lon="3.8701">
        <ele>853</ele>
        <time>2024-12-08T04:47:58.620Z</time>
      </trkpt>
      <trkpt lat="45.9356" lon="3.87012">
        <ele>853</ele>
        <time>2024-12-08T04:47:59.619Z</time>
      </trkpt>
      <trkpt lat="45.93561" lon="3.87014">
        <ele>853</ele>
        <time>2024-12-08T04:48:00.620Z</time>
      </trkpt>
      <trkpt lat="45.93562" lon="3.87016">
        <ele>853</ele>
        <time>2024-12-08T04:48:01.619Z</time>
      </trkpt>
      <trkpt lat="45.93563" lon="3.87018">
        <ele>853</ele>
        <time>2024-12-08T04:48:02.620Z</time>
      </trkpt>
      <trkpt lat="45.93564" lon="3.8702">
        <ele>853</ele>
        <time>2024-12-08T04:48:03.620Z</time>
      </trkpt>
      <trkpt lat="45.93564" lon="3.87022">
        <ele>853</ele>
        <time>2024-12-08T04:48:04.620Z</time>
      </trkpt>
      <trkpt lat="45.93565" lon="3.87024">
        <ele>853</ele>
        <time>2024-12-08T04:48:05.619Z</time>
      </trkpt>
      <trkpt lat="45.93566" lon="3.87026">
        <ele>853</ele>
        <time>2024-12-08T04:48:06.620Z</time>
      </trkpt>
      <trkpt lat="45.93567" lon="3.87028">
        <ele>853</ele>
        <time>2024-12-08T04:48:07.619Z</time>
      </trkpt>
      <trkpt lat="45.93568" lon="3.87029">
        <ele>853</ele>
        <time>2024-12-08T04:48:08.620Z</time>
      </trkpt>
      <trkpt lat="45.93569" lon="3.87031">
        <ele>853</ele>
        <time>2024-12-08T04:48:09.619Z</time>
      </trkpt>
      <trkpt lat="45.9357" lon="3.87033">
        <ele>853</ele>
        <time>2024-12-08T04:48:10.620Z</time>
      </trkpt>
      <trkpt lat="45.93572" lon="3.87035">
        <ele>853</ele>
        <time>2024-12-08T04:48:11.619Z</time>
      </trkpt>
      <trkpt lat="45.93573" lon="3.87036">
        <ele>853</ele>
        <time>2024-12-08T04:48:12.619Z</time>
      </trkpt>
      <trkpt lat="45.93573" lon="3.87038">
        <ele>853</ele>
        <time>2024-12-08T04:48:13.620Z</time>
      </trkpt>
      <trkpt lat="45.93574" lon="3.87039">
        <ele>853</ele>
        <time>2024-12-08T04:48:14.619Z</time>
      </trkpt>
      <trkpt lat="45.93575" lon="3.87041">
        <ele>853</ele>
        <time>2024-12-08T04:48:15.620Z</time>
      </trkpt>
      <trkpt lat="45.93576" lon="3.87043">
        <ele>853</ele>
        <time>2024-12-08T04:48:16.620Z</time>
      </trkpt>
      <trkpt lat="45.93577" lon="3.87045">
        <ele>853</ele>
        <time>2024-12-08T04:48:17.620Z</time>
      </trkpt>
      <trkpt lat="45.93578" lon="3.87046">
        <ele>854</ele>
        <time>2024-12-08T04:48:18.619Z</time>
      </trkpt>
      <trkpt lat="45.93579" lon="3.87048">
        <ele>854</ele>
        <time>2024-12-08T04:48:19.620Z</time>
      </trkpt>
      <trkpt lat="45.9358" lon="3.8705">
        <ele>854</ele>
        <time>2024-12-08T04:48:20.619Z</time>
      </trkpt>
      <trkpt lat="45.93581" lon="3.87052">
        <ele>854</ele>
        <time>2024-12-08T04:48:21.619Z</time>
      </trkpt>
      <trkpt lat="45.93582" lon="3.87054">
        <ele>853</ele>
        <time>2024-12-08T04:48:22.619Z</time>
      </trkpt>
      <trkpt lat="45.93583" lon="3.87056">
        <ele>853</ele>
        <time>2024-12-08T04:48:23.620Z</time>
      </trkpt>
      <trkpt lat="45.93584" lon="3.87058">
        <ele>853</ele>
        <time>2024-12-08T04:48:24.619Z</time>
      </trkpt>
      <trkpt lat="45.93585" lon="3.8706">
        <ele>853</ele>
        <time>2024-12-08T04:48:25.620Z</time>
      </trkpt>
      <trkpt lat="45.93587" lon="3.87062">
        <ele>853</ele>
        <time>2024-12-08T04:48:26.620Z</time>
      </trkpt>
      <trkpt lat="45.93588" lon="3.87064">
        <ele>854</ele>
        <time>2024-12-08T04:48:27.619Z</time>
      </trkpt>
      <trkpt lat="45.93589" lon="3.87065">
        <ele>854</ele>
        <time>2024-12-08T04:48:28.619Z</time>
      </trkpt>
      <trkpt lat="45.9359" lon="3.87067">
        <ele>854</ele>
        <time>2024-12-08T04:48:29.620Z</time>
      </trkpt>
      <trkpt lat="45.93591" lon="3.87069">
        <ele>854</ele>
        <time>2024-12-08T04:48:30.620Z</time>
      </trkpt>
      <trkpt lat="45.93592" lon="3.87071">
        <ele>854</ele>
        <time>2024-12-08T04:48:31.619Z</time>
      </trkpt>
      <trkpt lat="45.93593" lon="3.87073">
        <ele>854</ele>
        <time>2024-12-08T04:48:32.620Z</time>
      </trkpt>
      <trkpt lat="45.93594" lon="3.87074">
        <ele>854</ele>
        <time>2024-12-08T04:48:33.619Z</time>
      </trkpt>
      <trkpt lat="45.93595" lon="3.87076">
        <ele>854</ele>
        <time>2024-12-08T04:48:34.620Z</time>
      </trkpt>
      <trkpt lat="45.93596" lon="3.87077">
        <ele>854</ele>
        <time>2024-12-08T04:48:35.619Z</time>
      </trkpt>
      <trkpt lat="45.93597" lon="3.87079">
        <ele>854</ele>
        <time>2024-12-08T04:48:36.620Z</time>
      </trkpt>
      <trkpt lat="45.93598" lon="3.8708">
        <ele>854</ele>
        <time>2024-12-08T04:48:37.620Z</time>
      </trkpt>
      <trkpt lat="45.93599" lon="3.87082">
        <ele>854</ele>
        <time>2024-12-08T04:48:38.619Z</time>
      </trkpt>
      <trkpt lat="45.936" lon="3.87083">
        <ele>854</ele>
        <time>2024-12-08T04:48:39.620Z</time>
      </trkpt>
      <trkpt lat="45.93601" lon="3.87085">
        <ele>854</ele>
        <time>2024-12-08T04:48:40.619Z</time>
      </trkpt>
      <trkpt lat="45.93602" lon="3.87086">
        <ele>854</ele>
        <time>2024-12-08T04:48:41.620Z</time>
      </trkpt>
      <trkpt lat="45.93604" lon="3.87088">
        <ele>854</ele>
        <time>2024-12-08T04:48:42.619Z</time>
      </trkpt>
      <trkpt lat="45.93605" lon="3.87089">
        <ele>854</ele>
        <time>2024-12-08T04:48:43.620Z</time>
      </trkpt>
      <trkpt lat="45.93606" lon="3.8709">
        <ele>854</ele>
        <time>2024-12-08T04:48:44.619Z</time>
      </trkpt>
      <trkpt lat="45.93607" lon="3.87092">
        <ele>855</ele>
        <time>2024-12-08T04:48:45.619Z</time>
      </trkpt>
      <trkpt lat="45.93609" lon="3.87093">
        <ele>855</ele>
        <time>2024-12-08T04:48:46.619Z</time>
      </trkpt>
      <trkpt lat="45.9361" lon="3.87095">
        <ele>855</ele>
        <time>2024-12-08T04:48:47.620Z</time>
      </trkpt>
      <trkpt lat="45.93611" lon="3.87096">
        <ele>855</ele>
        <time>2024-12-08T04:48:48.619Z</time>
      </trkpt>
      <trkpt lat="45.93613" lon="3.87098">
        <ele>855</ele>
        <time>2024-12-08T04:48:49.619Z</time>
      </trkpt>
      <trkpt lat="45.93614" lon="3.87099">
        <ele>855</ele>
        <time>2024-12-08T04:48:50.620Z</time>
      </trkpt>
      <trkpt lat="45.93615" lon="3.87101">
        <ele>855</ele>
        <time>2024-12-08T04:48:51.620Z</time>
      </trkpt>
      <trkpt lat="45.93616" lon="3.87103">
        <ele>855</ele>
        <time>2024-12-08T04:48:52.619Z</time>
      </trkpt>
      <trkpt lat="45.93617" lon="3.87104">
        <ele>855</ele>
        <time>2024-12-08T04:48:53.620Z</time>
      </trkpt>
      <trkpt lat="45.93618" lon="3.87106">
        <ele>855</ele>
        <time>2024-12-08T04:48:54.620Z</time>
      </trkpt>
      <trkpt lat="45.9362" lon="3.87108">
        <ele>855</ele>
        <time>2024-12-08T04:48:55.619Z</time>
      </trkpt>
      <trkpt lat="45.93621" lon="3.87109">
        <ele>855</ele>
        <time>2024-12-08T04:48:56.619Z</time>
      </trkpt>
      <trkpt lat="45.93622" lon="3.87111">
        <ele>855</ele>
        <time>2024-12-08T04:48:57.619Z</time>
      </trkpt>
      <trkpt lat="45.93624" lon="3.87112">
        <ele>854</ele>
        <time>2024-12-08T04:48:58.620Z</time>
      </trkpt>
      <trkpt lat="45.93625" lon="3.87114">
        <ele>855</ele>
        <time>2024-12-08T04:48:59.619Z</time>
      </trkpt>
      <trkpt lat="45.93626" lon="3.87115">
        <ele>855</ele>
        <time>2024-12-08T04:49:00.619Z</time>
      </trkpt>
      <trkpt lat="45.93628" lon="3.87116">
        <ele>855</ele>
        <time>2024-12-08T04:49:01.619Z</time>
      </trkpt>
      <trkpt lat="45.93629" lon="3.87117">
        <ele>855</ele>
        <time>2024-12-08T04:49:02.620Z</time>
      </trkpt>
      <trkpt lat="45.93631" lon="3.87118">
        <ele>855</ele>
        <time>2024-12-08T04:49:03.619Z</time>
      </trkpt>
      <trkpt lat="45.93632" lon="3.8712">
        <ele>855</ele>
        <time>2024-12-08T04:49:04.620Z</time>
      </trkpt>
      <trkpt lat="45.93633" lon="3.87121">
        <ele>855</ele>
        <time>2024-12-08T04:49:05.619Z</time>
      </trkpt>
      <trkpt lat="45.93635" lon="3.87122">
        <ele>855</ele>
        <time>2024-12-08T04:49:06.620Z</time>
      </trkpt>
      <trkpt lat="45.93636" lon="3.87124">
        <ele>855</ele>
        <time>2024-12-08T04:49:07.620Z</time>
      </trkpt>
      <trkpt lat="45.93637" lon="3.87125">
        <ele>855</ele>
        <time>2024-12-08T04:49:08.619Z</time>
      </trkpt>
      <trkpt lat="45.93639" lon="3.87127">
        <ele>855</ele>
        <time>2024-12-08T04:49:09.620Z</time>
      </trkpt>
      <trkpt lat="45.9364" lon="3.87128">
        <ele>855</ele>
        <time>2024-12-08T04:49:10.620Z</time>
      </trkpt>
      <trkpt lat="45.93641" lon="3.8713">
        <ele>855</ele>
        <time>2024-12-08T04:49:11.620Z</time>
      </trkpt>
      <trkpt lat="45.93642" lon="3.87131">
        <ele>855</ele>
        <time>2024-12-08T04:49:12.619Z</time>
      </trkpt>
      <trkpt lat="45.93644" lon="3.87132">
        <ele>855</ele>
        <time>2024-12-08T04:49:13.620Z</time>
      </trkpt>
      <trkpt lat="45.93645" lon="3.87133">
        <ele>855</ele>
        <time>2024-12-08T04:49:14.620Z</time>
      </trkpt>
      <trkpt lat="45.93647" lon="3.87134">
        <ele>856</ele>
        <time>2024-12-08T04:49:15.620Z</time>
      </trkpt>
      <trkpt lat="45.93648" lon="3.87135">
        <ele>855</ele>
        <time>2024-12-08T04:49:16.619Z</time>
      </trkpt>
      <trkpt lat="45.93649" lon="3.87136">
        <ele>855</ele>
        <time>2024-12-08T04:49:17.620Z</time>
      </trkpt>
      <trkpt lat="45.9365" lon="3.87137">
        <ele>855</ele>
        <time>2024-12-08T04:49:18.619Z</time>
      </trkpt>
      <trkpt lat="45.93652" lon="3.87138">
        <ele>855</ele>
        <time>2024-12-08T04:49:19.620Z</time>
      </trkpt>
      <trkpt lat="45.93653" lon="3.87139">
        <ele>855</ele>
        <time>2024-12-08T04:49:20.620Z</time>
      </trkpt>
      <trkpt lat="45.93655" lon="3.8714">
        <ele>855</ele>
        <time>2024-12-08T04:49:21.619Z</time>
      </trkpt>
      <trkpt lat="45.93656" lon="3.8714">
        <ele>855</ele>
        <time>2024-12-08T04:49:22.620Z</time>
      </trkpt>
      <trkpt lat="45.93657" lon="3.87141">
        <ele>855</ele>
        <time>2024-12-08T04:49:23.619Z</time>
      </trkpt>
      <trkpt lat="45.93659" lon="3.87142">
        <ele>855</ele>
        <time>2024-12-08T04:49:24.620Z</time>
      </trkpt>
      <trkpt lat="45.9366" lon="3.87142">
        <ele>855</ele>
        <time>2024-12-08T04:49:25.619Z</time>
      </trkpt>
      <trkpt lat="45.93662" lon="3.87143">
        <ele>855</ele>
        <time>2024-12-08T04:49:26.620Z</time>
      </trkpt>
      <trkpt lat="45.93663" lon="3.87144">
        <ele>856</ele>
        <time>2024-12-08T04:49:27.619Z</time>
      </trkpt>
      <trkpt lat="45.93665" lon="3.87145">
        <ele>856</ele>
        <time>2024-12-08T04:49:28.620Z</time>
      </trkpt>
      <trkpt lat="45.93667" lon="3.87146">
        <ele>856</ele>
        <time>2024-12-08T04:49:29.620Z</time>
      </trkpt>
      <trkpt lat="45.93668" lon="3.87146">
        <ele>856</ele>
        <time>2024-12-08T04:49:30.619Z</time>
      </trkpt>
      <trkpt lat="45.9367" lon="3.87146">
        <ele>856</ele>
        <time>2024-12-08T04:49:31.619Z</time>
      </trkpt>
      <trkpt lat="45.93672" lon="3.87147">
        <ele>857</ele>
        <time>2024-12-08T04:49:32.619Z</time>
      </trkpt>
      <trkpt lat="45.93673" lon="3.87148">
        <ele>857</ele>
        <time>2024-12-08T04:49:33.619Z</time>
      </trkpt>
      <trkpt lat="45.93675" lon="3.87148">
        <ele>857</ele>
        <time>2024-12-08T04:49:34.619Z</time>
      </trkpt>
      <trkpt lat="45.93676" lon="3.87148">
        <ele>857</ele>
        <time>2024-12-08T04:49:35.619Z</time>
      </trkpt>
      <trkpt lat="45.93678" lon="3.87149">
        <ele>857</ele>
        <time>2024-12-08T04:49:36.620Z</time>
      </trkpt>
      <trkpt lat="45.93679" lon="3.87149">
        <ele>857</ele>
        <time>2024-12-08T04:49:37.620Z</time>
      </trkpt>
      <trkpt lat="45.93681" lon="3.87149">
        <ele>857</ele>
        <time>2024-12-08T04:49:38.619Z</time>
      </trkpt>
      <trkpt lat="45.93682" lon="3.87149">
        <ele>857</ele>
        <time>2024-12-08T04:49:39.620Z</time>
      </trkpt>
      <trkpt lat="45.93683" lon="3.87149">
        <ele>857</ele>
        <time>2024-12-08T04:49:40.619Z</time>
      </trkpt>
      <trkpt lat="45.93685" lon="3.87149">
        <ele>857</ele>
        <time>2024-12-08T04:49:41.619Z</time>
      </trkpt>
      <trkpt lat="45.93686" lon="3.87149">
        <ele>857</ele>
        <time>2024-12-08T04:49:42.620Z</time>
      </trkpt>
      <trkpt lat="45.93688" lon="3.87149">
        <ele>857</ele>
        <time>2024-12-08T04:49:43.620Z</time>
      </trkpt>
      <trkpt lat="45.93689" lon="3.87149">
        <ele>857</ele>
        <time>2024-12-08T04:49:44.620Z</time>
      </trkpt>
      <trkpt lat="45.9369" lon="3.87149">
        <ele>856</ele>
        <time>2024-12-08T04:49:45.619Z</time>
      </trkpt>
      <trkpt lat="45.93692" lon="3.87149">
        <ele>857</ele>
        <time>2024-12-08T04:49:46.620Z</time>
      </trkpt>
      <trkpt lat="45.93694" lon="3.87149">
        <ele>857</ele>
        <time>2024-12-08T04:49:47.620Z</time>
      </trkpt>
      <trkpt lat="45.93695" lon="3.87149">
        <ele>857</ele>
        <time>2024-12-08T04:49:48.620Z</time>
      </trkpt>
      <trkpt lat="45.93697" lon="3.87149">
        <ele>857</ele>
        <time>2024-12-08T04:49:49.619Z</time>
      </trkpt>
      <trkpt lat="45.93698" lon="3.87149">
        <ele>857</ele>
        <time>2024-12-08T04:49:50.619Z</time>
      </trkpt>
      <trkpt lat="45.937" lon="3.87149">
        <ele>857</ele>
        <time>2024-12-08T04:49:51.619Z</time>
      </trkpt>
      <trkpt lat="45.93702" lon="3.87148">
        <ele>857</ele>
        <time>2024-12-08T04:49:52.620Z</time>
      </trkpt>
      <trkpt lat="45.93703" lon="3.87148">
        <ele>857</ele>
        <time>2024-12-08T04:49:53.619Z</time>
      </trkpt>
      <trkpt lat="45.93704" lon="3.87148">
        <ele>857</ele>
        <time>2024-12-08T04:49:54.620Z</time>
      </trkpt>
      <trkpt lat="45.93706" lon="3.87148">
        <ele>857</ele>
        <time>2024-12-08T04:49:55.620Z</time>
      </trkpt>
      <trkpt lat="45.93707" lon="3.87148">
        <ele>857</ele>
        <time>2024-12-08T04:49:56.620Z</time>
      </trkpt>
      <trkpt lat="45.93708" lon="3.87147">
        <ele>857</ele>
        <time>2024-12-08T04:49:57.620Z</time>
      </trkpt>
      <trkpt lat="45.9371" lon="3.87147">
        <ele>857</ele>
        <time>2024-12-08T04:49:58.620Z</time>
      </trkpt>
      <trkpt lat="45.93711" lon="3.87147">
        <ele>857</ele>
        <time>2024-12-08T04:49:59.620Z</time>
      </trkpt>
      <trkpt lat="45.93713" lon="3.87146">
        <ele>857</ele>
        <time>2024-12-08T04:50:00.619Z</time>
      </trkpt>
      <trkpt lat="45.93714" lon="3.87146">
        <ele>857</ele>
        <time>2024-12-08T04:50:01.620Z</time>
      </trkpt>
      <trkpt lat="45.93716" lon="3.87146">
        <ele>857</ele>
        <time>2024-12-08T04:50:02.619Z</time>
      </trkpt>
      <trkpt lat="45.93717" lon="3.87146">
        <ele>858</ele>
        <time>2024-12-08T04:50:03.620Z</time>
      </trkpt>
      <trkpt lat="45.93719" lon="3.87146">
        <ele>858</ele>
        <time>2024-12-08T04:50:04.619Z</time>
      </trkpt>
      <trkpt lat="45.9372" lon="3.87146">
        <ele>858</ele>
        <time>2024-12-08T04:50:05.619Z</time>
      </trkpt>
      <trkpt lat="45.93722" lon="3.87146">
        <ele>858</ele>
        <time>2024-12-08T04:50:06.619Z</time>
      </trkpt>
      <trkpt lat="45.93724" lon="3.87145">
        <ele>858</ele>
        <time>2024-12-08T04:50:07.619Z</time>
      </trkpt>
      <trkpt lat="45.93725" lon="3.87144">
        <ele>858</ele>
        <time>2024-12-08T04:50:08.620Z</time>
      </trkpt>
      <trkpt lat="45.93727" lon="3.87144">
        <ele>858</ele>
        <time>2024-12-08T04:50:09.619Z</time>
      </trkpt>
      <trkpt lat="45.93728" lon="3.87144">
        <ele>858</ele>
        <time>2024-12-08T04:50:10.619Z</time>
      </trkpt>
      <trkpt lat="45.9373" lon="3.87143">
        <ele>858</ele>
        <time>2024-12-08T04:50:11.619Z</time>
      </trkpt>
      <trkpt lat="45.93731" lon="3.87143">
        <ele>858</ele>
        <time>2024-12-08T04:50:12.619Z</time>
      </trkpt>
      <trkpt lat="45.93732" lon="3.87143">
        <ele>859</ele>
        <time>2024-12-08T04:50:13.619Z</time>
      </trkpt>
      <trkpt lat="45.93734" lon="3.87143">
        <ele>859</ele>
        <time>2024-12-08T04:50:14.619Z</time>
      </trkpt>
      <trkpt lat="45.93735" lon="3.87143">
        <ele>859</ele>
        <time>2024-12-08T04:50:15.619Z</time>
      </trkpt>
      <trkpt lat="45.93737" lon="3.87143">
        <ele>859</ele>
        <time>2024-12-08T04:50:16.619Z</time>
      </trkpt>
      <trkpt lat="45.93738" lon="3.87144">
        <ele>859</ele>
        <time>2024-12-08T04:50:17.620Z</time>
      </trkpt>
      <trkpt lat="45.93739" lon="3.87144">
        <ele>860</ele>
        <time>2024-12-08T04:50:18.619Z</time>
      </trkpt>
      <trkpt lat="45.9374" lon="3.87143">
        <ele>860</ele>
        <time>2024-12-08T04:50:19.620Z</time>
      </trkpt>
      <trkpt lat="45.93742" lon="3.87142">
        <ele>860</ele>
        <time>2024-12-08T04:50:20.619Z</time>
      </trkpt>
      <trkpt lat="45.93743" lon="3.87142">
        <ele>861</ele>
        <time>2024-12-08T04:50:21.619Z</time>
      </trkpt>
      <trkpt lat="45.93744" lon="3.87142">
        <ele>861</ele>
        <time>2024-12-08T04:50:22.619Z</time>
      </trkpt>
      <trkpt lat="45.93745" lon="3.87143">
        <ele>861</ele>
        <time>2024-12-08T04:50:23.619Z</time>
      </trkpt>
      <trkpt lat="45.93746" lon="3.87143">
        <ele>861</ele>
        <time>2024-12-08T04:50:24.619Z</time>
      </trkpt>
      <trkpt lat="45.93747" lon="3.87142">
        <ele>861</ele>
        <time>2024-12-08T04:50:25.619Z</time>
      </trkpt>
      <trkpt lat="45.93749" lon="3.87142">
        <ele>861</ele>
        <time>2024-12-08T04:50:26.619Z</time>
      </trkpt>
      <trkpt lat="45.93751" lon="3.87141">
        <ele>862</ele>
        <time>2024-12-08T04:50:27.619Z</time>
      </trkpt>
      <trkpt lat="45.93752" lon="3.87141">
        <ele>862</ele>
        <time>2024-12-08T04:50:28.619Z</time>
      </trkpt>
      <trkpt lat="45.93753" lon="3.87141">
        <ele>862</ele>
        <time>2024-12-08T04:50:29.619Z</time>
      </trkpt>
      <trkpt lat="45.93755" lon="3.8714">
        <ele>862</ele>
        <time>2024-12-08T04:50:30.619Z</time>
      </trkpt>
      <trkpt lat="45.93756" lon="3.8714">
        <ele>862</ele>
        <time>2024-12-08T04:50:31.619Z</time>
      </trkpt>
      <trkpt lat="45.93758" lon="3.87138">
        <ele>862</ele>
        <time>2024-12-08T04:50:32.619Z</time>
      </trkpt>
      <trkpt lat="45.93759" lon="3.87138">
        <ele>862</ele>
        <time>2024-12-08T04:50:33.620Z</time>
      </trkpt>
      <trkpt lat="45.93761" lon="3.87137">
        <ele>862</ele>
        <time>2024-12-08T04:50:34.620Z</time>
      </trkpt>
      <trkpt lat="45.93762" lon="3.87136">
        <ele>862</ele>
        <time>2024-12-08T04:50:35.619Z</time>
      </trkpt>
      <trkpt lat="45.93764" lon="3.87135">
        <ele>862</ele>
        <time>2024-12-08T04:50:36.619Z</time>
      </trkpt>
      <trkpt lat="45.93765" lon="3.87135">
        <ele>862</ele>
        <time>2024-12-08T04:50:37.619Z</time>
      </trkpt>
      <trkpt lat="45.93766" lon="3.87134">
        <ele>862</ele>
        <time>2024-12-08T04:50:38.619Z</time>
      </trkpt>
      <trkpt lat="45.93767" lon="3.87132">
        <ele>862</ele>
        <time>2024-12-08T04:50:39.619Z</time>
      </trkpt>
      <trkpt lat="45.93768" lon="3.87131">
        <ele>862</ele>
        <time>2024-12-08T04:50:40.619Z</time>
      </trkpt>
      <trkpt lat="45.93769" lon="3.87129">
        <ele>862</ele>
        <time>2024-12-08T04:50:41.619Z</time>
      </trkpt>
      <trkpt lat="45.9377" lon="3.87128">
        <ele>862</ele>
        <time>2024-12-08T04:50:42.619Z</time>
      </trkpt>
      <trkpt lat="45.93771" lon="3.87128">
        <ele>862</ele>
        <time>2024-12-08T04:50:43.619Z</time>
      </trkpt>
      <trkpt lat="45.93772" lon="3.87128">
        <ele>862</ele>
        <time>2024-12-08T04:50:44.619Z</time>
      </trkpt>
      <trkpt lat="45.93774" lon="3.87128">
        <ele>862</ele>
        <time>2024-12-08T04:50:45.619Z</time>
      </trkpt>
      <trkpt lat="45.93776" lon="3.87128">
        <ele>861</ele>
        <time>2024-12-08T04:50:46.620Z</time>
      </trkpt>
      <trkpt lat="45.93778" lon="3.87128">
        <ele>861</ele>
        <time>2024-12-08T04:50:47.619Z</time>
      </trkpt>
      <trkpt lat="45.93779" lon="3.87127">
        <ele>861</ele>
        <time>2024-12-08T04:50:48.619Z</time>
      </trkpt>
      <trkpt lat="45.93781" lon="3.87127">
        <ele>861</ele>
        <time>2024-12-08T04:50:49.619Z</time>
      </trkpt>
      <trkpt lat="45.93783" lon="3.87127">
        <ele>861</ele>
        <time>2024-12-08T04:50:50.619Z</time>
      </trkpt>
      <trkpt lat="45.93785" lon="3.87126">
        <ele>861</ele>
        <time>2024-12-08T04:50:51.619Z</time>
      </trkpt>
      <trkpt lat="45.93787" lon="3.87126">
        <ele>861</ele>
        <time>2024-12-08T04:50:52.619Z</time>
      </trkpt>
      <trkpt lat="45.93788" lon="3.87127">
        <ele>861</ele>
        <time>2024-12-08T04:50:53.619Z</time>
      </trkpt>
      <trkpt lat="45.93789" lon="3.87127">
        <ele>861</ele>
        <time>2024-12-08T04:50:54.619Z</time>
      </trkpt>
      <trkpt lat="45.93791" lon="3.87126">
        <ele>860</ele>
        <time>2024-12-08T04:50:55.619Z</time>
      </trkpt>
      <trkpt lat="45.93793" lon="3.87126">
        <ele>860</ele>
        <time>2024-12-08T04:50:56.619Z</time>
      </trkpt>
      <trkpt lat="45.93794" lon="3.87126">
        <ele>860</ele>
        <time>2024-12-08T04:50:57.620Z</time>
      </trkpt>
      <trkpt lat="45.93796" lon="3.87126">
        <ele>860</ele>
        <time>2024-12-08T04:50:58.619Z</time>
      </trkpt>
      <trkpt lat="45.93797" lon="3.87125">
        <ele>860</ele>
        <time>2024-12-08T04:50:59.619Z</time>
      </trkpt>
      <trkpt lat="45.93799" lon="3.87125">
        <ele>860</ele>
        <time>2024-12-08T04:51:00.619Z</time>
      </trkpt>
      <trkpt lat="45.938" lon="3.87124">
        <ele>860</ele>
        <time>2024-12-08T04:51:01.619Z</time>
      </trkpt>
      <trkpt lat="45.93802" lon="3.87124">
        <ele>860</ele>
        <time>2024-12-08T04:51:02.620Z</time>
      </trkpt>
      <trkpt lat="45.93803" lon="3.87124">
        <ele>860</ele>
        <time>2024-12-08T04:51:03.619Z</time>
      </trkpt>
      <trkpt lat="45.93805" lon="3.87123">
        <ele>860</ele>
        <time>2024-12-08T04:51:04.619Z</time>
      </trkpt>
      <trkpt lat="45.93806" lon="3.87123">
        <ele>860</ele>
        <time>2024-12-08T04:51:05.619Z</time>
      </trkpt>
      <trkpt lat="45.93808" lon="3.87122">
        <ele>860</ele>
        <time>2024-12-08T04:51:06.620Z</time>
      </trkpt>
      <trkpt lat="45.9381" lon="3.87122">
        <ele>860</ele>
        <time>2024-12-08T04:51:07.620Z</time>
      </trkpt>
      <trkpt lat="45.93811" lon="3.87121">
        <ele>861</ele>
        <time>2024-12-08T04:51:08.620Z</time>
      </trkpt>
      <trkpt lat="45.93813" lon="3.87121">
        <ele>861</ele>
        <time>2024-12-08T04:51:09.620Z</time>
      </trkpt>
      <trkpt lat="45.93815" lon="3.87121">
        <ele>861</ele>
        <time>2024-12-08T04:51:10.619Z</time>
      </trkpt>
      <trkpt lat="45.93816" lon="3.8712">
        <ele>861</ele>
        <time>2024-12-08T04:51:11.619Z</time>
      </trkpt>
      <trkpt lat="45.93818" lon="3.8712">
        <ele>861</ele>
        <time>2024-12-08T04:51:12.619Z</time>
      </trkpt>
      <trkpt lat="45.93819" lon="3.87119">
        <ele>861</ele>
        <time>2024-12-08T04:51:13.619Z</time>
      </trkpt>
      <trkpt lat="45.93821" lon="3.87119">
        <ele>861</ele>
        <time>2024-12-08T04:51:14.619Z</time>
      </trkpt>
      <trkpt lat="45.93822" lon="3.87119">
        <ele>861</ele>
        <time>2024-12-08T04:51:15.619Z</time>
      </trkpt>
      <trkpt lat="45.93824" lon="3.87119">
        <ele>861</ele>
        <time>2024-12-08T04:51:16.620Z</time>
      </trkpt>
      <trkpt lat="45.93825" lon="3.87118">
        <ele>861</ele>
        <time>2024-12-08T04:51:17.620Z</time>
      </trkpt>
      <trkpt lat="45.93827" lon="3.87117">
        <ele>861</ele>
        <time>2024-12-08T04:51:18.619Z</time>
      </trkpt>
      <trkpt lat="45.93828" lon="3.87117">
        <ele>861</ele>
        <time>2024-12-08T04:51:19.620Z</time>
      </trkpt>
      <trkpt lat="45.9383" lon="3.87116">
        <ele>861</ele>
        <time>2024-12-08T04:51:20.619Z</time>
      </trkpt>
      <trkpt lat="45.93831" lon="3.87116">
        <ele>860</ele>
        <time>2024-12-08T04:51:21.619Z</time>
      </trkpt>
      <trkpt lat="45.93833" lon="3.87116">
        <ele>860</ele>
        <time>2024-12-08T04:51:22.619Z</time>
      </trkpt>
      <trkpt lat="45.93834" lon="3.87116">
        <ele>860</ele>
        <time>2024-12-08T04:51:23.619Z</time>
      </trkpt>
      <trkpt lat="45.93836" lon="3.87116">
        <ele>860</ele>
        <time>2024-12-08T04:51:24.620Z</time>
      </trkpt>
      <trkpt lat="45.93837" lon="3.87116">
        <ele>860</ele>
        <time>2024-12-08T04:51:25.620Z</time>
      </trkpt>
      <trkpt lat="45.93838" lon="3.87116">
        <ele>860</ele>
        <time>2024-12-08T04:51:26.619Z</time>
      </trkpt>
      <trkpt lat="45.9384" lon="3.87116">
        <ele>860</ele>
        <time>2024-12-08T04:51:27.619Z</time>
      </trkpt>
      <trkpt lat="45.93842" lon="3.87116">
        <ele>860</ele>
        <time>2024-12-08T04:51:28.620Z</time>
      </trkpt>
      <trkpt lat="45.93843" lon="3.87115">
        <ele>860</ele>
        <time>2024-12-08T04:51:29.619Z</time>
      </trkpt>
      <trkpt lat="45.93845" lon="3.87115">
        <ele>860</ele>
        <time>2024-12-08T04:51:30.619Z</time>
      </trkpt>
      <trkpt lat="45.93847" lon="3.87115">
        <ele>860</ele>
        <time>2024-12-08T04:51:31.620Z</time>
      </trkpt>
      <trkpt lat="45.93849" lon="3.87115">
        <ele>860</ele>
        <time>2024-12-08T04:51:32.620Z</time>
      </trkpt>
      <trkpt lat="45.9385" lon="3.87115">
        <ele>860</ele>
        <time>2024-12-08T04:51:33.620Z</time>
      </trkpt>
      <trkpt lat="45.93852" lon="3.87115">
        <ele>860</ele>
        <time>2024-12-08T04:51:34.619Z</time>
      </trkpt>
      <trkpt lat="45.93853" lon="3.87115">
        <ele>860</ele>
        <time>2024-12-08T04:51:35.619Z</time>
      </trkpt>
      <trkpt lat="45.93855" lon="3.87115">
        <ele>860</ele>
        <time>2024-12-08T04:51:36.619Z</time>
      </trkpt>
      <trkpt lat="45.93857" lon="3.87115">
        <ele>860</ele>
        <time>2024-12-08T04:51:37.619Z</time>
      </trkpt>
      <trkpt lat="45.93859" lon="3.87115">
        <ele>860</ele>
        <time>2024-12-08T04:51:38.619Z</time>
      </trkpt>
      <trkpt lat="45.9386" lon="3.87115">
        <ele>861</ele>
        <time>2024-12-08T04:51:39.619Z</time>
      </trkpt>
      <trkpt lat="45.93862" lon="3.87116">
        <ele>861</ele>
        <time>2024-12-08T04:51:40.619Z</time>
      </trkpt>
      <trkpt lat="45.93864" lon="3.87116">
        <ele>861</ele>
        <time>2024-12-08T04:51:41.620Z</time>
      </trkpt>
      <trkpt lat="45.93865" lon="3.87116">
        <ele>861</ele>
        <time>2024-12-08T04:51:42.619Z</time>
      </trkpt>
      <trkpt lat="45.93867" lon="3.87116">
        <ele>861</ele>
        <time>2024-12-08T04:51:43.619Z</time>
      </trkpt>
      <trkpt lat="45.93868" lon="3.87116">
        <ele>862</ele>
        <time>2024-12-08T04:51:44.620Z</time>
      </trkpt>
      <trkpt lat="45.9387" lon="3.87116">
        <ele>862</ele>
        <time>2024-12-08T04:51:45.620Z</time>
      </trkpt>
      <trkpt lat="45.93871" lon="3.87116">
        <ele>862</ele>
        <time>2024-12-08T04:51:46.619Z</time>
      </trkpt>
      <trkpt lat="45.93873" lon="3.87117">
        <ele>862</ele>
        <time>2024-12-08T04:51:47.620Z</time>
      </trkpt>
      <trkpt lat="45.93874" lon="3.87117">
        <ele>862</ele>
        <time>2024-12-08T04:51:48.619Z</time>
      </trkpt>
      <trkpt lat="45.93876" lon="3.87117">
        <ele>862</ele>
        <time>2024-12-08T04:51:49.619Z</time>
      </trkpt>
      <trkpt lat="45.93877" lon="3.87117">
        <ele>862</ele>
        <time>2024-12-08T04:51:50.619Z</time>
      </trkpt>
      <trkpt lat="45.93879" lon="3.87117">
        <ele>862</ele>
        <time>2024-12-08T04:51:51.620Z</time>
      </trkpt>
      <trkpt lat="45.93881" lon="3.87117">
        <ele>862</ele>
        <time>2024-12-08T04:51:52.619Z</time>
      </trkpt>
      <trkpt lat="45.93882" lon="3.87118">
        <ele>862</ele>
        <time>2024-12-08T04:51:53.619Z</time>
      </trkpt>
      <trkpt lat="45.93884" lon="3.87118">
        <ele>862</ele>
        <time>2024-12-08T04:51:54.619Z</time>
      </trkpt>
      <trkpt lat="45.93885" lon="3.87118">
        <ele>863</ele>
        <time>2024-12-08T04:51:55.620Z</time>
      </trkpt>
      <trkpt lat="45.93887" lon="3.87118">
        <ele>863</ele>
        <time>2024-12-08T04:51:56.619Z</time>
      </trkpt>
      <trkpt lat="45.93889" lon="3.87119">
        <ele>863</ele>
        <time>2024-12-08T04:51:57.619Z</time>
      </trkpt>
      <trkpt lat="45.93891" lon="3.87119">
        <ele>863</ele>
        <time>2024-12-08T04:51:58.620Z</time>
      </trkpt>
      <trkpt lat="45.93892" lon="3.87119">
        <ele>863</ele>
        <time>2024-12-08T04:51:59.619Z</time>
      </trkpt>
      <trkpt lat="45.93894" lon="3.87119">
        <ele>863</ele>
        <time>2024-12-08T04:52:00.619Z</time>
      </trkpt>
      <trkpt lat="45.93896" lon="3.87119">
        <ele>863</ele>
        <time>2024-12-08T04:52:01.619Z</time>
      </trkpt>
      <trkpt lat="45.93898" lon="3.87119">
        <ele>863</ele>
        <time>2024-12-08T04:52:02.620Z</time>
      </trkpt>
      <trkpt lat="45.93899" lon="3.87119">
        <ele>864</ele>
        <time>2024-12-08T04:52:03.619Z</time>
      </trkpt>
      <trkpt lat="45.93901" lon="3.87119">
        <ele>863</ele>
        <time>2024-12-08T04:52:04.620Z</time>
      </trkpt>
      <trkpt lat="45.93903" lon="3.8712">
        <ele>864</ele>
        <time>2024-12-08T04:52:05.620Z</time>
      </trkpt>
      <trkpt lat="45.93904" lon="3.8712">
        <ele>863</ele>
        <time>2024-12-08T04:52:06.620Z</time>
      </trkpt>
      <trkpt lat="45.93906" lon="3.8712">
        <ele>863</ele>
        <time>2024-12-08T04:52:07.620Z</time>
      </trkpt>
      <trkpt lat="45.93908" lon="3.87121">
        <ele>863</ele>
        <time>2024-12-08T04:52:08.620Z</time>
      </trkpt>
      <trkpt lat="45.93909" lon="3.87121">
        <ele>863</ele>
        <time>2024-12-08T04:52:09.619Z</time>
      </trkpt>
      <trkpt lat="45.93911" lon="3.87121">
        <ele>863</ele>
        <time>2024-12-08T04:52:10.620Z</time>
      </trkpt>
      <trkpt lat="45.93912" lon="3.87121">
        <ele>863</ele>
        <time>2024-12-08T04:52:11.619Z</time>
      </trkpt>
      <trkpt lat="45.93914" lon="3.87121">
        <ele>863</ele>
        <time>2024-12-08T04:52:12.620Z</time>
      </trkpt>
      <trkpt lat="45.93915" lon="3.87121">
        <ele>863</ele>
        <time>2024-12-08T04:52:13.619Z</time>
      </trkpt>
      <trkpt lat="45.93917" lon="3.87121">
        <ele>863</ele>
        <time>2024-12-08T04:52:14.620Z</time>
      </trkpt>
      <trkpt lat="45.93919" lon="3.8712">
        <ele>864</ele>
        <time>2024-12-08T04:52:15.619Z</time>
      </trkpt>
      <trkpt lat="45.93921" lon="3.8712">
        <ele>864</ele>
        <time>2024-12-08T04:52:16.620Z</time>
      </trkpt>
      <trkpt lat="45.93922" lon="3.8712">
        <ele>864</ele>
        <time>2024-12-08T04:52:17.619Z</time>
      </trkpt>
      <trkpt lat="45.93924" lon="3.8712">
        <ele>864</ele>
        <time>2024-12-08T04:52:18.619Z</time>
      </trkpt>
      <trkpt lat="45.93925" lon="3.87121">
        <ele>864</ele>
        <time>2024-12-08T04:52:19.619Z</time>
      </trkpt>
      <trkpt lat="45.93927" lon="3.87121">
        <ele>864</ele>
        <time>2024-12-08T04:52:20.620Z</time>
      </trkpt>
      <trkpt lat="45.93928" lon="3.87121">
        <ele>864</ele>
        <time>2024-12-08T04:52:21.620Z</time>
      </trkpt>
      <trkpt lat="45.9393" lon="3.87121">
        <ele>864</ele>
        <time>2024-12-08T04:52:22.619Z</time>
      </trkpt>
      <trkpt lat="45.93931" lon="3.87121">
        <ele>864</ele>
        <time>2024-12-08T04:52:23.620Z</time>
      </trkpt>
      <trkpt lat="45.93933" lon="3.87121">
        <ele>864</ele>
        <time>2024-12-08T04:52:24.619Z</time>
      </trkpt>
      <trkpt lat="45.93934" lon="3.87121">
        <ele>864</ele>
        <time>2024-12-08T04:52:25.620Z</time>
      </trkpt>
      <trkpt lat="45.93936" lon="3.8712">
        <ele>864</ele>
        <time>2024-12-08T04:52:26.620Z</time>
      </trkpt>
      <trkpt lat="45.93937" lon="3.8712">
        <ele>864</ele>
        <time>2024-12-08T04:52:27.620Z</time>
      </trkpt>
      <trkpt lat="45.93939" lon="3.8712">
        <ele>864</ele>
        <time>2024-12-08T04:52:28.619Z</time>
      </trkpt>
      <trkpt lat="45.9394" lon="3.8712">
        <ele>864</ele>
        <time>2024-12-08T04:52:29.620Z</time>
      </trkpt>
      <trkpt lat="45.93942" lon="3.87119">
        <ele>864</ele>
        <time>2024-12-08T04:52:30.620Z</time>
      </trkpt>
      <trkpt lat="45.93943" lon="3.87118">
        <ele>864</ele>
        <time>2024-12-08T04:52:31.620Z</time>
      </trkpt>
      <trkpt lat="45.93945" lon="3.87118">
        <ele>864</ele>
        <time>2024-12-08T04:52:32.619Z</time>
      </trkpt>
      <trkpt lat="45.93946" lon="3.87118">
        <ele>864</ele>
        <time>2024-12-08T04:52:33.620Z</time>
      </trkpt>
      <trkpt lat="45.93948" lon="3.87117">
        <ele>864</ele>
        <time>2024-12-08T04:52:34.619Z</time>
      </trkpt>
      <trkpt lat="45.93949" lon="3.87117">
        <ele>864</ele>
        <time>2024-12-08T04:52:35.619Z</time>
      </trkpt>
      <trkpt lat="45.93951" lon="3.87117">
        <ele>864</ele>
        <time>2024-12-08T04:52:36.620Z</time>
      </trkpt>
      <trkpt lat="45.93952" lon="3.87116">
        <ele>864</ele>
        <time>2024-12-08T04:52:37.619Z</time>
      </trkpt>
      <trkpt lat="45.93954" lon="3.87116">
        <ele>864</ele>
        <time>2024-12-08T04:52:38.620Z</time>
      </trkpt>
      <trkpt lat="45.93955" lon="3.87116">
        <ele>864</ele>
        <time>2024-12-08T04:52:39.619Z</time>
      </trkpt>
      <trkpt lat="45.93957" lon="3.87115">
        <ele>864</ele>
        <time>2024-12-08T04:52:40.620Z</time>
      </trkpt>
      <trkpt lat="45.93958" lon="3.87114">
        <ele>864</ele>
        <time>2024-12-08T04:52:41.619Z</time>
      </trkpt>
      <trkpt lat="45.9396" lon="3.87114">
        <ele>864</ele>
        <time>2024-12-08T04:52:42.620Z</time>
      </trkpt>
      <trkpt lat="45.93962" lon="3.87113">
        <ele>864</ele>
        <time>2024-12-08T04:52:43.619Z</time>
      </trkpt>
      <trkpt lat="45.93963" lon="3.87112">
        <ele>864</ele>
        <time>2024-12-08T04:52:44.619Z</time>
      </trkpt>
      <trkpt lat="45.93965" lon="3.87112">
        <ele>865</ele>
        <time>2024-12-08T04:52:45.620Z</time>
      </trkpt>
      <trkpt lat="45.93967" lon="3.87112">
        <ele>865</ele>
        <time>2024-12-08T04:52:46.619Z</time>
      </trkpt>
      <trkpt lat="45.93968" lon="3.87112">
        <ele>865</ele>
        <time>2024-12-08T04:52:47.619Z</time>
      </trkpt>
      <trkpt lat="45.93969" lon="3.87111">
        <ele>865</ele>
        <time>2024-12-08T04:52:48.619Z</time>
      </trkpt>
      <trkpt lat="45.93971" lon="3.87111">
        <ele>865</ele>
        <time>2024-12-08T04:52:49.619Z</time>
      </trkpt>
      <trkpt lat="45.93972" lon="3.8711">
        <ele>865</ele>
        <time>2024-12-08T04:52:50.619Z</time>
      </trkpt>
      <trkpt lat="45.93974" lon="3.8711">
        <ele>865</ele>
        <time>2024-12-08T04:52:51.620Z</time>
      </trkpt>
      <trkpt lat="45.93975" lon="3.87109">
        <ele>865</ele>
        <time>2024-12-08T04:52:52.619Z</time>
      </trkpt>
      <trkpt lat="45.93977" lon="3.87109">
        <ele>865</ele>
        <time>2024-12-08T04:52:53.619Z</time>
      </trkpt>
      <trkpt lat="45.93978" lon="3.87108">
        <ele>865</ele>
        <time>2024-12-08T04:52:54.620Z</time>
      </trkpt>
      <trkpt lat="45.9398" lon="3.87108">
        <ele>865</ele>
        <time>2024-12-08T04:52:55.619Z</time>
      </trkpt>
      <trkpt lat="45.93981" lon="3.87107">
        <ele>865</ele>
        <time>2024-12-08T04:52:56.619Z</time>
      </trkpt>
      <trkpt lat="45.93982" lon="3.87107">
        <ele>865</ele>
        <time>2024-12-08T04:52:57.619Z</time>
      </trkpt>
      <trkpt lat="45.93984" lon="3.87106">
        <ele>865</ele>
        <time>2024-12-08T04:52:58.620Z</time>
      </trkpt>
      <trkpt lat="45.93985" lon="3.87106">
        <ele>865</ele>
        <time>2024-12-08T04:52:59.619Z</time>
      </trkpt>
      <trkpt lat="45.93986" lon="3.87105">
        <ele>865</ele>
        <time>2024-12-08T04:53:00.619Z</time>
      </trkpt>
      <trkpt lat="45.93988" lon="3.87104">
        <ele>866</ele>
        <time>2024-12-08T04:53:01.619Z</time>
      </trkpt>
      <trkpt lat="45.93989" lon="3.87103">
        <ele>866</ele>
        <time>2024-12-08T04:53:02.620Z</time>
      </trkpt>
      <trkpt lat="45.93991" lon="3.87103">
        <ele>866</ele>
        <time>2024-12-08T04:53:03.619Z</time>
      </trkpt>
      <trkpt lat="45.93992" lon="3.87102">
        <ele>866</ele>
        <time>2024-12-08T04:53:04.620Z</time>
      </trkpt>
      <trkpt lat="45.93993" lon="3.87101">
        <ele>866</ele>
        <time>2024-12-08T04:53:05.620Z</time>
      </trkpt>
      <trkpt lat="45.93995" lon="3.87101">
        <ele>866</ele>
        <time>2024-12-08T04:53:06.620Z</time>
      </trkpt>
      <trkpt lat="45.93996" lon="3.871">
        <ele>866</ele>
        <time>2024-12-08T04:53:07.619Z</time>
      </trkpt>
      <trkpt lat="45.93998" lon="3.87099">
        <ele>866</ele>
        <time>2024-12-08T04:53:08.619Z</time>
      </trkpt>
      <trkpt lat="45.93999" lon="3.87099">
        <ele>865</ele>
        <time>2024-12-08T04:53:09.620Z</time>
      </trkpt>
      <trkpt lat="45.94001" lon="3.87098">
        <ele>865</ele>
        <time>2024-12-08T04:53:10.620Z</time>
      </trkpt>
      <trkpt lat="45.94002" lon="3.87097">
        <ele>865</ele>
        <time>2024-12-08T04:53:11.620Z</time>
      </trkpt>
      <trkpt lat="45.94004" lon="3.87097">
        <ele>865</ele>
        <time>2024-12-08T04:53:12.620Z</time>
      </trkpt>
      <trkpt lat="45.94005" lon="3.87096">
        <ele>865</ele>
        <time>2024-12-08T04:53:13.620Z</time>
      </trkpt>
      <trkpt lat="45.94007" lon="3.87095">
        <ele>865</ele>
        <time>2024-12-08T04:53:14.619Z</time>
      </trkpt>
      <trkpt lat="45.94008" lon="3.87095">
        <ele>865</ele>
        <time>2024-12-08T04:53:15.619Z</time>
      </trkpt>
      <trkpt lat="45.9401" lon="3.87094">
        <ele>865</ele>
        <time>2024-12-08T04:53:16.620Z</time>
      </trkpt>
      <trkpt lat="45.94012" lon="3.87094">
        <ele>866</ele>
        <time>2024-12-08T04:53:17.620Z</time>
      </trkpt>
      <trkpt lat="45.94013" lon="3.87093">
        <ele>866</ele>
        <time>2024-12-08T04:53:18.620Z</time>
      </trkpt>
      <trkpt lat="45.94015" lon="3.87093">
        <ele>866</ele>
        <time>2024-12-08T04:53:19.619Z</time>
      </trkpt>
      <trkpt lat="45.94016" lon="3.87092">
        <ele>866</ele>
        <time>2024-12-08T04:53:20.619Z</time>
      </trkpt>
      <trkpt lat="45.94018" lon="3.87092">
        <ele>866</ele>
        <time>2024-12-08T04:53:21.619Z</time>
      </trkpt>
      <trkpt lat="45.9402" lon="3.87092">
        <ele>866</ele>
        <time>2024-12-08T04:53:22.619Z</time>
      </trkpt>
      <trkpt lat="45.94021" lon="3.87091">
        <ele>865</ele>
        <time>2024-12-08T04:53:23.620Z</time>
      </trkpt>
      <trkpt lat="45.94023" lon="3.8709">
        <ele>865</ele>
        <time>2024-12-08T04:53:24.619Z</time>
      </trkpt>
      <trkpt lat="45.94024" lon="3.8709">
        <ele>865</ele>
        <time>2024-12-08T04:53:25.620Z</time>
      </trkpt>
      <trkpt lat="45.94026" lon="3.87089">
        <ele>865</ele>
        <time>2024-12-08T04:53:26.619Z</time>
      </trkpt>
      <trkpt lat="45.94028" lon="3.87089">
        <ele>865</ele>
        <time>2024-12-08T04:53:27.619Z</time>
      </trkpt>
      <trkpt lat="45.94029" lon="3.87088">
        <ele>866</ele>
        <time>2024-12-08T04:53:28.619Z</time>
      </trkpt>
      <trkpt lat="45.94031" lon="3.87087">
        <ele>866</ele>
        <time>2024-12-08T04:53:29.620Z</time>
      </trkpt>
      <trkpt lat="45.94033" lon="3.87087">
        <ele>866</ele>
        <time>2024-12-08T04:53:30.619Z</time>
      </trkpt>
      <trkpt lat="45.94034" lon="3.87086">
        <ele>866</ele>
        <time>2024-12-08T04:53:31.619Z</time>
      </trkpt>
      <trkpt lat="45.94036" lon="3.87086">
        <ele>866</ele>
        <time>2024-12-08T04:53:32.620Z</time>
      </trkpt>
      <trkpt lat="45.94037" lon="3.87085">
        <ele>866</ele>
        <time>2024-12-08T04:53:33.619Z</time>
      </trkpt>
      <trkpt lat="45.94039" lon="3.87084">
        <ele>866</ele>
        <time>2024-12-08T04:53:34.620Z</time>
      </trkpt>
      <trkpt lat="45.9404" lon="3.87083">
        <ele>866</ele>
        <time>2024-12-08T04:53:35.620Z</time>
      </trkpt>
      <trkpt lat="45.94042" lon="3.87083">
        <ele>866</ele>
        <time>2024-12-08T04:53:36.620Z</time>
      </trkpt>
      <trkpt lat="45.94043" lon="3.87082">
        <ele>866</ele>
        <time>2024-12-08T04:53:37.620Z</time>
      </trkpt>
      <trkpt lat="45.94045" lon="3.87081">
        <ele>866</ele>
        <time>2024-12-08T04:53:38.619Z</time>
      </trkpt>
      <trkpt lat="45.94046" lon="3.87081">
        <ele>866</ele>
        <time>2024-12-08T04:53:39.620Z</time>
      </trkpt>
      <trkpt lat="45.94047" lon="3.8708">
        <ele>866</ele>
        <time>2024-12-08T04:53:40.620Z</time>
      </trkpt>
      <trkpt lat="45.94049" lon="3.8708">
        <ele>866</ele>
        <time>2024-12-08T04:53:41.620Z</time>
      </trkpt>
      <trkpt lat="45.9405" lon="3.87079">
        <ele>866</ele>
        <time>2024-12-08T04:53:42.620Z</time>
      </trkpt>
      <trkpt lat="45.94051" lon="3.87078">
        <ele>866</ele>
        <time>2024-12-08T04:53:43.620Z</time>
      </trkpt>
      <trkpt lat="45.94052" lon="3.87077">
        <ele>866</ele>
        <time>2024-12-08T04:53:44.619Z</time>
      </trkpt>
      <trkpt lat="45.94053" lon="3.87075">
        <ele>866</ele>
        <time>2024-12-08T04:53:45.620Z</time>
      </trkpt>
      <trkpt lat="45.94055" lon="3.87074">
        <ele>867</ele>
        <time>2024-12-08T04:53:46.619Z</time>
      </trkpt>
      <trkpt lat="45.94056" lon="3.87073">
        <ele>867</ele>
        <time>2024-12-08T04:53:47.619Z</time>
      </trkpt>
      <trkpt lat="45.94057" lon="3.87072">
        <ele>867</ele>
        <time>2024-12-08T04:53:48.620Z</time>
      </trkpt>
      <trkpt lat="45.94059" lon="3.87071">
        <ele>867</ele>
        <time>2024-12-08T04:53:49.619Z</time>
      </trkpt>
      <trkpt lat="45.9406" lon="3.87069">
        <ele>867</ele>
        <time>2024-12-08T04:53:50.619Z</time>
      </trkpt>
      <trkpt lat="45.94061" lon="3.87068">
        <ele>867</ele>
        <time>2024-12-08T04:53:51.620Z</time>
      </trkpt>
      <trkpt lat="45.94062" lon="3.87066">
        <ele>867</ele>
        <time>2024-12-08T04:53:52.620Z</time>
      </trkpt>
      <trkpt lat="45.94063" lon="3.87065">
        <ele>867</ele>
        <time>2024-12-08T04:53:53.619Z</time>
      </trkpt>
      <trkpt lat="45.94065" lon="3.87064">
        <ele>867</ele>
        <time>2024-12-08T04:53:54.619Z</time>
      </trkpt>
      <trkpt lat="45.94066" lon="3.87063">
        <ele>867</ele>
        <time>2024-12-08T04:53:55.619Z</time>
      </trkpt>
      <trkpt lat="45.94067" lon="3.87061">
        <ele>867</ele>
        <time>2024-12-08T04:53:56.619Z</time>
      </trkpt>
      <trkpt lat="45.94068" lon="3.87059">
        <ele>868</ele>
        <time>2024-12-08T04:53:57.620Z</time>
      </trkpt>
      <trkpt lat="45.9407" lon="3.87057">
        <ele>868</ele>
        <time>2024-12-08T04:53:58.619Z</time>
      </trkpt>
      <trkpt lat="45.94071" lon="3.87055">
        <ele>869</ele>
        <time>2024-12-08T04:53:59.620Z</time>
      </trkpt>
      <trkpt lat="45.94072" lon="3.87054">
        <ele>869</ele>
        <time>2024-12-08T04:54:00.619Z</time>
      </trkpt>
      <trkpt lat="45.94073" lon="3.87052">
        <ele>869</ele>
        <time>2024-12-08T04:54:01.619Z</time>
      </trkpt>
      <trkpt lat="45.94075" lon="3.8705">
        <ele>869</ele>
        <time>2024-12-08T04:54:02.619Z</time>
      </trkpt>
      <trkpt lat="45.94076" lon="3.87048">
        <ele>870</ele>
        <time>2024-12-08T04:54:03.620Z</time>
      </trkpt>
      <trkpt lat="45.94077" lon="3.87046">
        <ele>869</ele>
        <time>2024-12-08T04:54:04.620Z</time>
      </trkpt>
      <trkpt lat="45.94078" lon="3.87045">
        <ele>869</ele>
        <time>2024-12-08T04:54:05.619Z</time>
      </trkpt>
      <trkpt lat="45.94079" lon="3.87043">
        <ele>869</ele>
        <time>2024-12-08T04:54:06.619Z</time>
      </trkpt>
      <trkpt lat="45.9408" lon="3.87042">
        <ele>869</ele>
        <time>2024-12-08T04:54:07.620Z</time>
      </trkpt>
      <trkpt lat="45.94081" lon="3.8704">
        <ele>869</ele>
        <time>2024-12-08T04:54:08.620Z</time>
      </trkpt>
      <trkpt lat="45.94081" lon="3.87039">
        <ele>869</ele>
        <time>2024-12-08T04:54:09.620Z</time>
      </trkpt>
      <trkpt lat="45.94082" lon="3.87037">
        <ele>869</ele>
        <time>2024-12-08T04:54:10.620Z</time>
      </trkpt>
      <trkpt lat="45.94083" lon="3.87036">
        <ele>869</ele>
        <time>2024-12-08T04:54:11.620Z</time>
      </trkpt>
      <trkpt lat="45.94083" lon="3.87034">
        <ele>869</ele>
        <time>2024-12-08T04:54:12.619Z</time>
      </trkpt>
      <trkpt lat="45.94084" lon="3.87033">
        <ele>869</ele>
        <time>2024-12-08T04:54:13.619Z</time>
      </trkpt>
      <trkpt lat="45.94085" lon="3.87031">
        <ele>869</ele>
        <time>2024-12-08T04:54:14.620Z</time>
      </trkpt>
      <trkpt lat="45.94085" lon="3.8703">
        <ele>869</ele>
        <time>2024-12-08T04:54:15.620Z</time>
      </trkpt>
      <trkpt lat="45.94086" lon="3.87028">
        <ele>869</ele>
        <time>2024-12-08T04:54:16.619Z</time>
      </trkpt>
      <trkpt lat="45.94087" lon="3.87027">
        <ele>869</ele>
        <time>2024-12-08T04:54:17.619Z</time>
      </trkpt>
      <trkpt lat="45.94087" lon="3.87025">
        <ele>870</ele>
        <time>2024-12-08T04:54:18.620Z</time>
      </trkpt>
      <trkpt lat="45.94088" lon="3.87023">
        <ele>870</ele>
        <time>2024-12-08T04:54:19.619Z</time>
      </trkpt>
      <trkpt lat="45.94089" lon="3.87021">
        <ele>870</ele>
        <time>2024-12-08T04:54:20.619Z</time>
      </trkpt>
      <trkpt lat="45.94089" lon="3.87019">
        <ele>870</ele>
        <time>2024-12-08T04:54:21.620Z</time>
      </trkpt>
      <trkpt lat="45.9409" lon="3.87018">
        <ele>870</ele>
        <time>2024-12-08T04:54:22.620Z</time>
      </trkpt>
      <trkpt lat="45.94091" lon="3.87017">
        <ele>870</ele>
        <time>2024-12-08T04:54:23.620Z</time>
      </trkpt>
      <trkpt lat="45.94092" lon="3.87015">
        <ele>870</ele>
        <time>2024-12-08T04:54:24.619Z</time>
      </trkpt>
      <trkpt lat="45.94093" lon="3.87013">
        <ele>870</ele>
        <time>2024-12-08T04:54:25.619Z</time>
      </trkpt>
      <trkpt lat="45.94093" lon="3.87012">
        <ele>870</ele>
        <time>2024-12-08T04:54:26.619Z</time>
      </trkpt>
      <trkpt lat="45.94094" lon="3.8701">
        <ele>870</ele>
        <time>2024-12-08T04:54:27.620Z</time>
      </trkpt>
      <trkpt lat="45.94095" lon="3.87008">
        <ele>870</ele>
        <time>2024-12-08T04:54:28.619Z</time>
      </trkpt>
      <trkpt lat="45.94096" lon="3.87006">
        <ele>870</ele>
        <time>2024-12-08T04:54:29.620Z</time>
      </trkpt>
      <trkpt lat="45.94097" lon="3.87005">
        <ele>870</ele>
        <time>2024-12-08T04:54:30.620Z</time>
      </trkpt>
      <trkpt lat="45.94098" lon="3.87004">
        <ele>869</ele>
        <time>2024-12-08T04:54:31.620Z</time>
      </trkpt>
      <trkpt lat="45.94099" lon="3.87002">
        <ele>869</ele>
        <time>2024-12-08T04:54:32.619Z</time>
      </trkpt>
      <trkpt lat="45.941" lon="3.87001">
        <ele>869</ele>
        <time>2024-12-08T04:54:33.619Z</time>
      </trkpt>
      <trkpt lat="45.94101" lon="3.86999">
        <ele>869</ele>
        <time>2024-12-08T04:54:34.620Z</time>
      </trkpt>
      <trkpt lat="45.94103" lon="3.86998">
        <ele>869</ele>
        <time>2024-12-08T04:54:35.620Z</time>
      </trkpt>
      <trkpt lat="45.94104" lon="3.86996">
        <ele>869</ele>
        <time>2024-12-08T04:54:36.620Z</time>
      </trkpt>
      <trkpt lat="45.94105" lon="3.86994">
        <ele>869</ele>
        <time>2024-12-08T04:54:37.619Z</time>
      </trkpt>
      <trkpt lat="45.94106" lon="3.86993">
        <ele>869</ele>
        <time>2024-12-08T04:54:38.619Z</time>
      </trkpt>
      <trkpt lat="45.94107" lon="3.86992">
        <ele>869</ele>
        <time>2024-12-08T04:54:39.619Z</time>
      </trkpt>
      <trkpt lat="45.94108" lon="3.8699">
        <ele>869</ele>
        <time>2024-12-08T04:54:40.619Z</time>
      </trkpt>
      <trkpt lat="45.9411" lon="3.86988">
        <ele>869</ele>
        <time>2024-12-08T04:54:41.620Z</time>
      </trkpt>
      <trkpt lat="45.94111" lon="3.86987">
        <ele>870</ele>
        <time>2024-12-08T04:54:42.619Z</time>
      </trkpt>
      <trkpt lat="45.94112" lon="3.86986">
        <ele>870</ele>
        <time>2024-12-08T04:54:43.620Z</time>
      </trkpt>
      <trkpt lat="45.94114" lon="3.86985">
        <ele>870</ele>
        <time>2024-12-08T04:54:44.619Z</time>
      </trkpt>
      <trkpt lat="45.94115" lon="3.86984">
        <ele>870</ele>
        <time>2024-12-08T04:54:45.619Z</time>
      </trkpt>
      <trkpt lat="45.94116" lon="3.86984">
        <ele>870</ele>
        <time>2024-12-08T04:54:46.620Z</time>
      </trkpt>
      <trkpt lat="45.94117" lon="3.86983">
        <ele>870</ele>
        <time>2024-12-08T04:54:47.619Z</time>
      </trkpt>
      <trkpt lat="45.94119" lon="3.86983">
        <ele>870</ele>
        <time>2024-12-08T04:54:48.619Z</time>
      </trkpt>
      <trkpt lat="45.9412" lon="3.86983">
        <ele>870</ele>
        <time>2024-12-08T04:54:49.620Z</time>
      </trkpt>
      <trkpt lat="45.94121" lon="3.86983">
        <ele>870</ele>
        <time>2024-12-08T04:54:50.619Z</time>
      </trkpt>
      <trkpt lat="45.94123" lon="3.86983">
        <ele>869</ele>
        <time>2024-12-08T04:54:51.620Z</time>
      </trkpt>
      <trkpt lat="45.94124" lon="3.86983">
        <ele>869</ele>
        <time>2024-12-08T04:54:52.620Z</time>
      </trkpt>
      <trkpt lat="45.94126" lon="3.86983">
        <ele>870</ele>
        <time>2024-12-08T04:54:53.619Z</time>
      </trkpt>
      <trkpt lat="45.94127" lon="3.86983">
        <ele>870</ele>
        <time>2024-12-08T04:54:54.620Z</time>
      </trkpt>
      <trkpt lat="45.94129" lon="3.86983">
        <ele>870</ele>
        <time>2024-12-08T04:54:55.620Z</time>
      </trkpt>
      <trkpt lat="45.9413" lon="3.86982">
        <ele>870</ele>
        <time>2024-12-08T04:54:56.620Z</time>
      </trkpt>
      <trkpt lat="45.94132" lon="3.86982">
        <ele>870</ele>
        <time>2024-12-08T04:54:57.620Z</time>
      </trkpt>
      <trkpt lat="45.94133" lon="3.86981">
        <ele>870</ele>
        <time>2024-12-08T04:54:58.620Z</time>
      </trkpt>
      <trkpt lat="45.94135" lon="3.86981">
        <ele>870</ele>
        <time>2024-12-08T04:54:59.619Z</time>
      </trkpt>
      <trkpt lat="45.94137" lon="3.86981">
        <ele>870</ele>
        <time>2024-12-08T04:55:00.620Z</time>
      </trkpt>
      <trkpt lat="45.94138" lon="3.86981">
        <ele>870</ele>
        <time>2024-12-08T04:55:01.619Z</time>
      </trkpt>
      <trkpt lat="45.9414" lon="3.86981">
        <ele>870</ele>
        <time>2024-12-08T04:55:02.620Z</time>
      </trkpt>
      <trkpt lat="45.94142" lon="3.86981">
        <ele>870</ele>
        <time>2024-12-08T04:55:03.619Z</time>
      </trkpt>
      <trkpt lat="45.94143" lon="3.86982">
        <ele>870</ele>
        <time>2024-12-08T04:55:04.619Z</time>
      </trkpt>
      <trkpt lat="45.94145" lon="3.86983">
        <ele>870</ele>
        <time>2024-12-08T04:55:05.620Z</time>
      </trkpt>
      <trkpt lat="45.94147" lon="3.86984">
        <ele>870</ele>
        <time>2024-12-08T04:55:06.620Z</time>
      </trkpt>
      <trkpt lat="45.94148" lon="3.86984">
        <ele>870</ele>
        <time>2024-12-08T04:55:07.620Z</time>
      </trkpt>
      <trkpt lat="45.94149" lon="3.86985">
        <ele>871</ele>
        <time>2024-12-08T04:55:08.619Z</time>
      </trkpt>
      <trkpt lat="45.94151" lon="3.86986">
        <ele>871</ele>
        <time>2024-12-08T04:55:09.620Z</time>
      </trkpt>
      <trkpt lat="45.94152" lon="3.86987">
        <ele>871</ele>
        <time>2024-12-08T04:55:10.619Z</time>
      </trkpt>
      <trkpt lat="45.94154" lon="3.86987">
        <ele>871</ele>
        <time>2024-12-08T04:55:11.620Z</time>
      </trkpt>
      <trkpt lat="45.94155" lon="3.86988">
        <ele>871</ele>
        <time>2024-12-08T04:55:12.620Z</time>
      </trkpt>
      <trkpt lat="45.94156" lon="3.86989">
        <ele>871</ele>
        <time>2024-12-08T04:55:13.619Z</time>
      </trkpt>
      <trkpt lat="45.94157" lon="3.86989">
        <ele>871</ele>
        <time>2024-12-08T04:55:14.620Z</time>
      </trkpt>
      <trkpt lat="45.94158" lon="3.8699">
        <ele>871</ele>
        <time>2024-12-08T04:55:15.619Z</time>
      </trkpt>
      <trkpt lat="45.9416" lon="3.86991">
        <ele>871</ele>
        <time>2024-12-08T04:55:16.619Z</time>
      </trkpt>
      <trkpt lat="45.94161" lon="3.86993">
        <ele>871</ele>
        <time>2024-12-08T04:55:17.619Z</time>
      </trkpt>
      <trkpt lat="45.94163" lon="3.86994">
        <ele>871</ele>
        <time>2024-12-08T04:55:18.619Z</time>
      </trkpt>
      <trkpt lat="45.94164" lon="3.86995">
        <ele>872</ele>
        <time>2024-12-08T04:55:19.620Z</time>
      </trkpt>
      <trkpt lat="45.94165" lon="3.86996">
        <ele>872</ele>
        <time>2024-12-08T04:55:20.619Z</time>
      </trkpt>
      <trkpt lat="45.94166" lon="3.86997">
        <ele>872</ele>
        <time>2024-12-08T04:55:21.620Z</time>
      </trkpt>
      <trkpt lat="45.94167" lon="3.86998">
        <ele>871</ele>
        <time>2024-12-08T04:55:22.620Z</time>
      </trkpt>
      <trkpt lat="45.94168" lon="3.86999">
        <ele>871</ele>
        <time>2024-12-08T04:55:23.619Z</time>
      </trkpt>
      <trkpt lat="45.94169" lon="3.87">
        <ele>871</ele>
        <time>2024-12-08T04:55:24.620Z</time>
      </trkpt>
      <trkpt lat="45.94171" lon="3.87001">
        <ele>871</ele>
        <time>2024-12-08T04:55:25.619Z</time>
      </trkpt>
      <trkpt lat="45.94172" lon="3.87002">
        <ele>871</ele>
        <time>2024-12-08T04:55:26.620Z</time>
      </trkpt>
      <trkpt lat="45.94173" lon="3.87003">
        <ele>871</ele>
        <time>2024-12-08T04:55:27.620Z</time>
      </trkpt>
      <trkpt lat="45.94175" lon="3.87005">
        <ele>871</ele>
        <time>2024-12-08T04:55:28.619Z</time>
      </trkpt>
      <trkpt lat="45.94176" lon="3.87006">
        <ele>871</ele>
        <time>2024-12-08T04:55:29.619Z</time>
      </trkpt>
      <trkpt lat="45.94176" lon="3.87007">
        <ele>871</ele>
        <time>2024-12-08T04:55:30.619Z</time>
      </trkpt>
      <trkpt lat="45.94177" lon="3.87009">
        <ele>871</ele>
        <time>2024-12-08T04:55:31.620Z</time>
      </trkpt>
      <trkpt lat="45.94178" lon="3.87011">
        <ele>871</ele>
        <time>2024-12-08T04:55:32.620Z</time>
      </trkpt>
      <trkpt lat="45.94179" lon="3.87012">
        <ele>871</ele>
        <time>2024-12-08T04:55:33.620Z</time>
      </trkpt>
      <trkpt lat="45.9418" lon="3.87014">
        <ele>871</ele>
        <time>2024-12-08T04:55:34.620Z</time>
      </trkpt>
      <trkpt lat="45.94181" lon="3.87016">
        <ele>871</ele>
        <time>2024-12-08T04:55:35.620Z</time>
      </trkpt>
      <trkpt lat="45.94182" lon="3.87018">
        <ele>871</ele>
        <time>2024-12-08T04:55:36.619Z</time>
      </trkpt>
      <trkpt lat="45.94183" lon="3.8702">
        <ele>871</ele>
        <time>2024-12-08T04:55:37.619Z</time>
      </trkpt>
      <trkpt lat="45.94184" lon="3.87022">
        <ele>871</ele>
        <time>2024-12-08T04:55:38.619Z</time>
      </trkpt>
      <trkpt lat="45.94185" lon="3.87024">
        <ele>871</ele>
        <time>2024-12-08T04:55:39.619Z</time>
      </trkpt>
      <trkpt lat="45.94186" lon="3.87027">
        <ele>871</ele>
        <time>2024-12-08T04:55:40.619Z</time>
      </trkpt>
      <trkpt lat="45.94187" lon="3.87029">
        <ele>871</ele>
        <time>2024-12-08T04:55:41.619Z</time>
      </trkpt>
      <trkpt lat="45.94187" lon="3.87031">
        <ele>871</ele>
        <time>2024-12-08T04:55:42.619Z</time>
      </trkpt>
      <trkpt lat="45.94188" lon="3.87035">
        <ele>870</ele>
        <time>2024-12-08T04:55:43.619Z</time>
      </trkpt>
      <trkpt lat="45.94188" lon="3.87038">
        <ele>870</ele>
        <time>2024-12-08T04:55:44.620Z</time>
      </trkpt>
      <trkpt lat="45.94188" lon="3.8704">
        <ele>870</ele>
        <time>2024-12-08T04:55:45.620Z</time>
      </trkpt>
      <trkpt lat="45.94189" lon="3.87042">
        <ele>870</ele>
        <time>2024-12-08T04:55:46.619Z</time>
      </trkpt>
      <trkpt lat="45.94189" lon="3.87044">
        <ele>870</ele>
        <time>2024-12-08T04:55:47.619Z</time>
      </trkpt>
      <trkpt lat="45.94189" lon="3.87046">
        <ele>870</ele>
        <time>2024-12-08T04:55:48.619Z</time>
      </trkpt>
      <trkpt lat="45.94189" lon="3.87049">
        <ele>870</ele>
        <time>2024-12-08T04:55:49.619Z</time>
      </trkpt>
      <trkpt lat="45.94189" lon="3.87051">
        <ele>870</ele>
        <time>2024-12-08T04:55:50.619Z</time>
      </trkpt>
      <trkpt lat="45.9419" lon="3.87053">
        <ele>870</ele>
        <time>2024-12-08T04:55:51.619Z</time>
      </trkpt>
      <trkpt lat="45.9419" lon="3.87055">
        <ele>870</ele>
        <time>2024-12-08T04:55:52.619Z</time>
      </trkpt>
      <trkpt lat="45.9419" lon="3.87057">
        <ele>871</ele>
        <time>2024-12-08T04:55:53.620Z</time>
      </trkpt>
      <trkpt lat="45.9419" lon="3.87059">
        <ele>871</ele>
        <time>2024-12-08T04:55:54.619Z</time>
      </trkpt>
      <trkpt lat="45.9419" lon="3.87061">
        <ele>871</ele>
        <time>2024-12-08T04:55:55.620Z</time>
      </trkpt>
      <trkpt lat="45.94191" lon="3.87063">
        <ele>872</ele>
        <time>2024-12-08T04:55:56.619Z</time>
      </trkpt>
      <trkpt lat="45.94191" lon="3.87065">
        <ele>872</ele>
        <time>2024-12-08T04:55:57.619Z</time>
      </trkpt>
      <trkpt lat="45.94192" lon="3.87067">
        <ele>872</ele>
        <time>2024-12-08T04:55:58.619Z</time>
      </trkpt>
      <trkpt lat="45.94191" lon="3.87069">
        <ele>872</ele>
        <time>2024-12-08T04:55:59.619Z</time>
      </trkpt>
      <trkpt lat="45.94191" lon="3.87071">
        <ele>872</ele>
        <time>2024-12-08T04:56:00.620Z</time>
      </trkpt>
      <trkpt lat="45.9419" lon="3.87074">
        <ele>872</ele>
        <time>2024-12-08T04:56:01.619Z</time>
      </trkpt>
      <trkpt lat="45.9419" lon="3.87076">
        <ele>872</ele>
        <time>2024-12-08T04:56:02.620Z</time>
      </trkpt>
      <trkpt lat="45.94189" lon="3.87079">
        <ele>872</ele>
        <time>2024-12-08T04:56:03.620Z</time>
      </trkpt>
      <trkpt lat="45.94189" lon="3.87081">
        <ele>872</ele>
        <time>2024-12-08T04:56:04.620Z</time>
      </trkpt>
      <trkpt lat="45.94189" lon="3.87084">
        <ele>872</ele>
        <time>2024-12-08T04:56:05.619Z</time>
      </trkpt>
      <trkpt lat="45.94189" lon="3.87087">
        <ele>872</ele>
        <time>2024-12-08T04:56:06.619Z</time>
      </trkpt>
      <trkpt lat="45.9419" lon="3.8709">
        <ele>872</ele>
        <time>2024-12-08T04:56:07.620Z</time>
      </trkpt>
      <trkpt lat="45.94189" lon="3.87092">
        <ele>872</ele>
        <time>2024-12-08T04:56:08.619Z</time>
      </trkpt>
      <trkpt lat="45.94189" lon="3.87095">
        <ele>872</ele>
        <time>2024-12-08T04:56:09.620Z</time>
      </trkpt>
      <trkpt lat="45.94189" lon="3.87097">
        <ele>872</ele>
        <time>2024-12-08T04:56:10.620Z</time>
      </trkpt>
      <trkpt lat="45.94189" lon="3.871">
        <ele>872</ele>
        <time>2024-12-08T04:56:11.619Z</time>
      </trkpt>
      <trkpt lat="45.94187" lon="3.87102">
        <ele>872</ele>
        <time>2024-12-08T04:56:12.619Z</time>
      </trkpt>
      <trkpt lat="45.94187" lon="3.87105">
        <ele>871</ele>
        <time>2024-12-08T04:56:13.620Z</time>
      </trkpt>
      <trkpt lat="45.94187" lon="3.87107">
        <ele>871</ele>
        <time>2024-12-08T04:56:14.620Z</time>
      </trkpt>
      <trkpt lat="45.94186" lon="3.87109">
        <ele>871</ele>
        <time>2024-12-08T04:56:15.619Z</time>
      </trkpt>
      <trkpt lat="45.94186" lon="3.87111">
        <ele>871</ele>
        <time>2024-12-08T04:56:16.620Z</time>
      </trkpt>
      <trkpt lat="45.94185" lon="3.87114">
        <ele>872</ele>
        <time>2024-12-08T04:56:17.620Z</time>
      </trkpt>
      <trkpt lat="45.94184" lon="3.87116">
        <ele>872</ele>
        <time>2024-12-08T04:56:18.619Z</time>
      </trkpt>
      <trkpt lat="45.94184" lon="3.87118">
        <ele>872</ele>
        <time>2024-12-08T04:56:19.619Z</time>
      </trkpt>
      <trkpt lat="45.94183" lon="3.87121">
        <ele>873</ele>
        <time>2024-12-08T04:56:20.620Z</time>
      </trkpt>
      <trkpt lat="45.94181" lon="3.87123">
        <ele>873</ele>
        <time>2024-12-08T04:56:21.619Z</time>
      </trkpt>
      <trkpt lat="45.9418" lon="3.87125">
        <ele>873</ele>
        <time>2024-12-08T04:56:22.620Z</time>
      </trkpt>
      <trkpt lat="45.94179" lon="3.87127">
        <ele>873</ele>
        <time>2024-12-08T04:56:23.620Z</time>
      </trkpt>
      <trkpt lat="45.9418" lon="3.87129">
        <ele>872</ele>
        <time>2024-12-08T04:56:24.620Z</time>
      </trkpt>
      <trkpt lat="45.9418" lon="3.87131">
        <ele>872</ele>
        <time>2024-12-08T04:56:25.620Z</time>
      </trkpt>
      <trkpt lat="45.94179" lon="3.87133">
        <ele>872</ele>
        <time>2024-12-08T04:56:26.619Z</time>
      </trkpt>
      <trkpt lat="45.94178" lon="3.87135">
        <ele>872</ele>
        <time>2024-12-08T04:56:27.619Z</time>
      </trkpt>
      <trkpt lat="45.94178" lon="3.87137">
        <ele>873</ele>
        <time>2024-12-08T04:56:28.619Z</time>
      </trkpt>
      <trkpt lat="45.94178" lon="3.87139">
        <ele>873</ele>
        <time>2024-12-08T04:56:29.619Z</time>
      </trkpt>
      <trkpt lat="45.94178" lon="3.87142">
        <ele>873</ele>
        <time>2024-12-08T04:56:30.619Z</time>
      </trkpt>
      <trkpt lat="45.94177" lon="3.87144">
        <ele>873</ele>
        <time>2024-12-08T04:56:31.620Z</time>
      </trkpt>
      <trkpt lat="45.94176" lon="3.87146">
        <ele>873</ele>
        <time>2024-12-08T04:56:32.619Z</time>
      </trkpt>
      <trkpt lat="45.94174" lon="3.87148">
        <ele>873</ele>
        <time>2024-12-08T04:56:33.619Z</time>
      </trkpt>
      <trkpt lat="45.94173" lon="3.8715">
        <ele>873</ele>
        <time>2024-12-08T04:56:34.619Z</time>
      </trkpt>
      <trkpt lat="45.94174" lon="3.87152">
        <ele>873</ele>
        <time>2024-12-08T04:56:35.620Z</time>
      </trkpt>
      <trkpt lat="45.94173" lon="3.87154">
        <ele>872</ele>
        <time>2024-12-08T04:56:36.620Z</time>
      </trkpt>
      <trkpt lat="45.94173" lon="3.87156">
        <ele>872</ele>
        <time>2024-12-08T04:56:37.620Z</time>
      </trkpt>
      <trkpt lat="45.94172" lon="3.87158">
        <ele>872</ele>
        <time>2024-12-08T04:56:38.619Z</time>
      </trkpt>
      <trkpt lat="45.94171" lon="3.87161">
        <ele>872</ele>
        <time>2024-12-08T04:56:39.619Z</time>
      </trkpt>
      <trkpt lat="45.94171" lon="3.87163">
        <ele>871</ele>
        <time>2024-12-08T04:56:40.619Z</time>
      </trkpt>
      <trkpt lat="45.9417" lon="3.87165">
        <ele>871</ele>
        <time>2024-12-08T04:56:41.619Z</time>
      </trkpt>
      <trkpt lat="45.94169" lon="3.87167">
        <ele>871</ele>
        <time>2024-12-08T04:56:42.620Z</time>
      </trkpt>
      <trkpt lat="45.94169" lon="3.87169">
        <ele>872</ele>
        <time>2024-12-08T04:56:43.619Z</time>
      </trkpt>
      <trkpt lat="45.94169" lon="3.87171">
        <ele>872</ele>
        <time>2024-12-08T04:56:44.619Z</time>
      </trkpt>
      <trkpt lat="45.94168" lon="3.87173">
        <ele>872</ele>
        <time>2024-12-08T04:56:45.620Z</time>
      </trkpt>
      <trkpt lat="45.94168" lon="3.87175">
        <ele>871</ele>
        <time>2024-12-08T04:56:46.620Z</time>
      </trkpt>
      <trkpt lat="45.94167" lon="3.87178">
        <ele>872</ele>
        <time>2024-12-08T04:56:47.619Z</time>
      </trkpt>
      <trkpt lat="45.94167" lon="3.8718">
        <ele>872</ele>
        <time>2024-12-08T04:56:48.620Z</time>
      </trkpt>
      <trkpt lat="45.94166" lon="3.87182">
        <ele>872</ele>
        <time>2024-12-08T04:56:49.620Z</time>
      </trkpt>
      <trkpt lat="45.94166" lon="3.87185">
        <ele>872</ele>
        <time>2024-12-08T04:56:50.620Z</time>
      </trkpt>
      <trkpt lat="45.94165" lon="3.87187">
        <ele>873</ele>
        <time>2024-12-08T04:56:51.619Z</time>
      </trkpt>
      <trkpt lat="45.94164" lon="3.87189">
        <ele>873</ele>
        <time>2024-12-08T04:56:52.619Z</time>
      </trkpt>
      <trkpt lat="45.94163" lon="3.87192">
        <ele>874</ele>
        <time>2024-12-08T04:56:53.619Z</time>
      </trkpt>
      <trkpt lat="45.94163" lon="3.87194">
        <ele>874</ele>
        <time>2024-12-08T04:56:54.620Z</time>
      </trkpt>
      <trkpt lat="45.94162" lon="3.87196">
        <ele>874</ele>
        <time>2024-12-08T04:56:55.619Z</time>
      </trkpt>
      <trkpt lat="45.94161" lon="3.87198">
        <ele>874</ele>
        <time>2024-12-08T04:56:56.619Z</time>
      </trkpt>
      <trkpt lat="45.94161" lon="3.872">
        <ele>874</ele>
        <time>2024-12-08T04:56:57.619Z</time>
      </trkpt>
      <trkpt lat="45.94161" lon="3.87202">
        <ele>874</ele>
        <time>2024-12-08T04:56:58.619Z</time>
      </trkpt>
      <trkpt lat="45.9416" lon="3.87204">
        <ele>874</ele>
        <time>2024-12-08T04:56:59.620Z</time>
      </trkpt>
      <trkpt lat="45.9416" lon="3.87206">
        <ele>874</ele>
        <time>2024-12-08T04:57:00.620Z</time>
      </trkpt>
      <trkpt lat="45.94159" lon="3.87208">
        <ele>874</ele>
        <time>2024-12-08T04:57:01.619Z</time>
      </trkpt>
      <trkpt lat="45.94159" lon="3.8721">
        <ele>875</ele>
        <time>2024-12-08T04:57:02.620Z</time>
      </trkpt>
      <trkpt lat="45.94157" lon="3.87212">
        <ele>875</ele>
        <time>2024-12-08T04:57:03.620Z</time>
      </trkpt>
      <trkpt lat="45.94157" lon="3.87214">
        <ele>875</ele>
        <time>2024-12-08T04:57:04.619Z</time>
      </trkpt>
      <trkpt lat="45.94157" lon="3.87216">
        <ele>874</ele>
        <time>2024-12-08T04:57:05.620Z</time>
      </trkpt>
      <trkpt lat="45.94156" lon="3.87218">
        <ele>874</ele>
        <time>2024-12-08T04:57:06.620Z</time>
      </trkpt>
      <trkpt lat="45.94156" lon="3.8722">
        <ele>874</ele>
        <time>2024-12-08T04:57:07.619Z</time>
      </trkpt>
      <trkpt lat="45.94155" lon="3.87222">
        <ele>874</ele>
        <time>2024-12-08T04:57:08.620Z</time>
      </trkpt>
      <trkpt lat="45.94154" lon="3.87223">
        <ele>874</ele>
        <time>2024-12-08T04:57:09.620Z</time>
      </trkpt>
      <trkpt lat="45.94154" lon="3.87225">
        <ele>874</ele>
        <time>2024-12-08T04:57:10.620Z</time>
      </trkpt>
      <trkpt lat="45.94153" lon="3.87227">
        <ele>874</ele>
        <time>2024-12-08T04:57:11.620Z</time>
      </trkpt>
      <trkpt lat="45.94153" lon="3.87229">
        <ele>874</ele>
        <time>2024-12-08T04:57:12.620Z</time>
      </trkpt>
      <trkpt lat="45.94152" lon="3.87231">
        <ele>874</ele>
        <time>2024-12-08T04:57:13.619Z</time>
      </trkpt>
      <trkpt lat="45.94152" lon="3.87233">
        <ele>874</ele>
        <time>2024-12-08T04:57:14.620Z</time>
      </trkpt>
      <trkpt lat="45.94151" lon="3.87235">
        <ele>874</ele>
        <time>2024-12-08T04:57:15.620Z</time>
      </trkpt>
      <trkpt lat="45.94151" lon="3.87238">
        <ele>874</ele>
        <time>2024-12-08T04:57:16.620Z</time>
      </trkpt>
      <trkpt lat="45.9415" lon="3.8724">
        <ele>873</ele>
        <time>2024-12-08T04:57:17.619Z</time>
      </trkpt>
      <trkpt lat="45.94149" lon="3.87242">
        <ele>873</ele>
        <time>2024-12-08T04:57:18.620Z</time>
      </trkpt>
      <trkpt lat="45.94149" lon="3.87243">
        <ele>873</ele>
        <time>2024-12-08T04:57:19.620Z</time>
      </trkpt>
      <trkpt lat="45.94148" lon="3.87246">
        <ele>873</ele>
        <time>2024-12-08T04:57:20.620Z</time>
      </trkpt>
      <trkpt lat="45.94146" lon="3.87248">
        <ele>873</ele>
        <time>2024-12-08T04:57:21.619Z</time>
      </trkpt>
      <trkpt lat="45.94145" lon="3.8725">
        <ele>872</ele>
        <time>2024-12-08T04:57:22.620Z</time>
      </trkpt>
      <trkpt lat="45.94145" lon="3.87252">
        <ele>872</ele>
        <time>2024-12-08T04:57:23.620Z</time>
      </trkpt>
      <trkpt lat="45.94144" lon="3.87254">
        <ele>872</ele>
        <time>2024-12-08T04:57:24.619Z</time>
      </trkpt>
      <trkpt lat="45.94143" lon="3.87256">
        <ele>873</ele>
        <time>2024-12-08T04:57:25.619Z</time>
      </trkpt>
      <trkpt lat="45.94143" lon="3.87258">
        <ele>873</ele>
        <time>2024-12-08T04:57:26.620Z</time>
      </trkpt>
      <trkpt lat="45.94142" lon="3.87261">
        <ele>873</ele>
        <time>2024-12-08T04:57:27.619Z</time>
      </trkpt>
      <trkpt lat="45.94141" lon="3.87263">
        <ele>873</ele>
        <time>2024-12-08T04:57:28.619Z</time>
      </trkpt>
      <trkpt lat="45.9414" lon="3.87265">
        <ele>873</ele>
        <time>2024-12-08T04:57:29.620Z</time>
      </trkpt>
      <trkpt lat="45.9414" lon="3.87268">
        <ele>873</ele>
        <time>2024-12-08T04:57:30.619Z</time>
      </trkpt>
      <trkpt lat="45.94139" lon="3.8727">
        <ele>872</ele>
        <time>2024-12-08T04:57:31.619Z</time>
      </trkpt>
      <trkpt lat="45.94139" lon="3.87272">
        <ele>872</ele>
        <time>2024-12-08T04:57:32.620Z</time>
      </trkpt>
      <trkpt lat="45.94139" lon="3.87275">
        <ele>872</ele>
        <time>2024-12-08T04:57:33.620Z</time>
      </trkpt>
      <trkpt lat="45.94139" lon="3.87277">
        <ele>873</ele>
        <time>2024-12-08T04:57:34.620Z</time>
      </trkpt>
      <trkpt lat="45.94138" lon="3.87279">
        <ele>873</ele>
        <time>2024-12-08T04:57:35.620Z</time>
      </trkpt>
      <trkpt lat="45.94137" lon="3.87282">
        <ele>873</ele>
        <time>2024-12-08T04:57:36.619Z</time>
      </trkpt>
      <trkpt lat="45.94136" lon="3.87284">
        <ele>874</ele>
        <time>2024-12-08T04:57:37.620Z</time>
      </trkpt>
      <trkpt lat="45.94136" lon="3.87285">
        <ele>874</ele>
        <time>2024-12-08T04:57:38.620Z</time>
      </trkpt>
      <trkpt lat="45.94135" lon="3.87287">
        <ele>874</ele>
        <time>2024-12-08T04:57:39.619Z</time>
      </trkpt>
      <trkpt lat="45.94135" lon="3.87289">
        <ele>874</ele>
        <time>2024-12-08T04:57:40.619Z</time>
      </trkpt>
      <trkpt lat="45.94135" lon="3.87292">
        <ele>875</ele>
        <time>2024-12-08T04:57:41.619Z</time>
      </trkpt>
      <trkpt lat="45.94134" lon="3.87294">
        <ele>875</ele>
        <time>2024-12-08T04:57:42.620Z</time>
      </trkpt>
      <trkpt lat="45.94134" lon="3.87296">
        <ele>875</ele>
        <time>2024-12-08T04:57:43.620Z</time>
      </trkpt>
      <trkpt lat="45.94133" lon="3.87298">
        <ele>875</ele>
        <time>2024-12-08T04:57:44.620Z</time>
      </trkpt>
      <trkpt lat="45.94133" lon="3.873">
        <ele>875</ele>
        <time>2024-12-08T04:57:45.620Z</time>
      </trkpt>
      <trkpt lat="45.94132" lon="3.87301">
        <ele>875</ele>
        <time>2024-12-08T04:57:46.620Z</time>
      </trkpt>
      <trkpt lat="45.94133" lon="3.87304">
        <ele>875</ele>
        <time>2024-12-08T04:57:47.619Z</time>
      </trkpt>
      <trkpt lat="45.94131" lon="3.87306">
        <ele>875</ele>
        <time>2024-12-08T04:57:48.620Z</time>
      </trkpt>
      <trkpt lat="45.9413" lon="3.87307">
        <ele>874</ele>
        <time>2024-12-08T04:57:49.619Z</time>
      </trkpt>
      <trkpt lat="45.9413" lon="3.87309">
        <ele>874</ele>
        <time>2024-12-08T04:57:50.619Z</time>
      </trkpt>
      <trkpt lat="45.94129" lon="3.87312">
        <ele>874</ele>
        <time>2024-12-08T04:57:51.619Z</time>
      </trkpt>
      <trkpt lat="45.94128" lon="3.87314">
        <ele>874</ele>
        <time>2024-12-08T04:57:52.619Z</time>
      </trkpt>
      <trkpt lat="45.94128" lon="3.87317">
        <ele>875</ele>
        <time>2024-12-08T04:57:53.620Z</time>
      </trkpt>
      <trkpt lat="45.94128" lon="3.87318">
        <ele>875</ele>
        <time>2024-12-08T04:57:54.619Z</time>
      </trkpt>
      <trkpt lat="45.94127" lon="3.8732">
        <ele>875</ele>
        <time>2024-12-08T04:57:55.619Z</time>
      </trkpt>
      <trkpt lat="45.94126" lon="3.87322">
        <ele>875</ele>
        <time>2024-12-08T04:57:56.620Z</time>
      </trkpt>
      <trkpt lat="45.94125" lon="3.87325">
        <ele>875</ele>
        <time>2024-12-08T04:57:57.620Z</time>
      </trkpt>
      <trkpt lat="45.94125" lon="3.87326">
        <ele>874</ele>
        <time>2024-12-08T04:57:58.620Z</time>
      </trkpt>
      <trkpt lat="45.94124" lon="3.87328">
        <ele>874</ele>
        <time>2024-12-08T04:57:59.620Z</time>
      </trkpt>
      <trkpt lat="45.94123" lon="3.8733">
        <ele>874</ele>
        <time>2024-12-08T04:58:00.619Z</time>
      </trkpt>
      <trkpt lat="45.94122" lon="3.87333">
        <ele>874</ele>
        <time>2024-12-08T04:58:01.620Z</time>
      </trkpt>
      <trkpt lat="45.94122" lon="3.87335">
        <ele>874</ele>
        <time>2024-12-08T04:58:02.619Z</time>
      </trkpt>
      <trkpt lat="45.94122" lon="3.87337">
        <ele>874</ele>
        <time>2024-12-08T04:58:03.620Z</time>
      </trkpt>
      <trkpt lat="45.94121" lon="3.87339">
        <ele>875</ele>
        <time>2024-12-08T04:58:04.620Z</time>
      </trkpt>
      <trkpt lat="45.9412" lon="3.87341">
        <ele>875</ele>
        <time>2024-12-08T04:58:05.619Z</time>
      </trkpt>
      <trkpt lat="45.9412" lon="3.87343">
        <ele>875</ele>
        <time>2024-12-08T04:58:06.620Z</time>
      </trkpt>
      <trkpt lat="45.94119" lon="3.87346">
        <ele>875</ele>
        <time>2024-12-08T04:58:07.619Z</time>
      </trkpt>
      <trkpt lat="45.94119" lon="3.87347">
        <ele>876</ele>
        <time>2024-12-08T04:58:08.619Z</time>
      </trkpt>
      <trkpt lat="45.94118" lon="3.8735">
        <ele>876</ele>
        <time>2024-12-08T04:58:09.620Z</time>
      </trkpt>
      <trkpt lat="45.94117" lon="3.87352">
        <ele>876</ele>
        <time>2024-12-08T04:58:10.619Z</time>
      </trkpt>
      <trkpt lat="45.94117" lon="3.87354">
        <ele>876</ele>
        <time>2024-12-08T04:58:11.620Z</time>
      </trkpt>
      <trkpt lat="45.94116" lon="3.87356">
        <ele>876</ele>
        <time>2024-12-08T04:58:12.619Z</time>
      </trkpt>
      <trkpt lat="45.94116" lon="3.87358">
        <ele>876</ele>
        <time>2024-12-08T04:58:13.620Z</time>
      </trkpt>
      <trkpt lat="45.94115" lon="3.8736">
        <ele>876</ele>
        <time>2024-12-08T04:58:14.619Z</time>
      </trkpt>
      <trkpt lat="45.94115" lon="3.87362">
        <ele>876</ele>
        <time>2024-12-08T04:58:15.620Z</time>
      </trkpt>
      <trkpt lat="45.94115" lon="3.87364">
        <ele>876</ele>
        <time>2024-12-08T04:58:16.619Z</time>
      </trkpt>
      <trkpt lat="45.94114" lon="3.87366">
        <ele>877</ele>
        <time>2024-12-08T04:58:17.619Z</time>
      </trkpt>
      <trkpt lat="45.94114" lon="3.87368">
        <ele>877</ele>
        <time>2024-12-08T04:58:18.619Z</time>
      </trkpt>
      <trkpt lat="45.94113" lon="3.8737">
        <ele>877</ele>
        <time>2024-12-08T04:58:19.619Z</time>
      </trkpt>
      <trkpt lat="45.94113" lon="3.87372">
        <ele>876</ele>
        <time>2024-12-08T04:58:20.619Z</time>
      </trkpt>
      <trkpt lat="45.94112" lon="3.87374">
        <ele>876</ele>
        <time>2024-12-08T04:58:21.620Z</time>
      </trkpt>
      <trkpt lat="45.94112" lon="3.87375">
        <ele>876</ele>
        <time>2024-12-08T04:58:22.620Z</time>
      </trkpt>
      <trkpt lat="45.94111" lon="3.87378">
        <ele>876</ele>
        <time>2024-12-08T04:58:23.620Z</time>
      </trkpt>
      <trkpt lat="45.94111" lon="3.8738">
        <ele>876</ele>
        <time>2024-12-08T04:58:24.620Z</time>
      </trkpt>
      <trkpt lat="45.9411" lon="3.87381">
        <ele>875</ele>
        <time>2024-12-08T04:58:25.620Z</time>
      </trkpt>
      <trkpt lat="45.9411" lon="3.87383">
        <ele>875</ele>
        <time>2024-12-08T04:58:26.619Z</time>
      </trkpt>
      <trkpt lat="45.94109" lon="3.87386">
        <ele>875</ele>
        <time>2024-12-08T04:58:27.619Z</time>
      </trkpt>
      <trkpt lat="45.94108" lon="3.87388">
        <ele>875</ele>
        <time>2024-12-08T04:58:28.619Z</time>
      </trkpt>
      <trkpt lat="45.94108" lon="3.87391">
        <ele>875</ele>
        <time>2024-12-08T04:58:29.620Z</time>
      </trkpt>
      <trkpt lat="45.94107" lon="3.87394">
        <ele>875</ele>
        <time>2024-12-08T04:58:30.620Z</time>
      </trkpt>
      <trkpt lat="45.94107" lon="3.87396">
        <ele>875</ele>
        <time>2024-12-08T04:58:31.620Z</time>
      </trkpt>
      <trkpt lat="45.94106" lon="3.87399">
        <ele>875</ele>
        <time>2024-12-08T04:58:32.619Z</time>
      </trkpt>
      <trkpt lat="45.94106" lon="3.87401">
        <ele>875</ele>
        <time>2024-12-08T04:58:33.619Z</time>
      </trkpt>
      <trkpt lat="45.94106" lon="3.87403">
        <ele>876</ele>
        <time>2024-12-08T04:58:34.619Z</time>
      </trkpt>
      <trkpt lat="45.94105" lon="3.87405">
        <ele>876</ele>
        <time>2024-12-08T04:58:35.619Z</time>
      </trkpt>
      <trkpt lat="45.94105" lon="3.87408">
        <ele>876</ele>
        <time>2024-12-08T04:58:36.620Z</time>
      </trkpt>
      <trkpt lat="45.94104" lon="3.8741">
        <ele>876</ele>
        <time>2024-12-08T04:58:37.620Z</time>
      </trkpt>
      <trkpt lat="45.94104" lon="3.87412">
        <ele>876</ele>
        <time>2024-12-08T04:58:38.620Z</time>
      </trkpt>
      <trkpt lat="45.94104" lon="3.87414">
        <ele>876</ele>
        <time>2024-12-08T04:58:39.619Z</time>
      </trkpt>
      <trkpt lat="45.94103" lon="3.87416">
        <ele>875</ele>
        <time>2024-12-08T04:58:40.620Z</time>
      </trkpt>
      <trkpt lat="45.94103" lon="3.87418">
        <ele>875</ele>
        <time>2024-12-08T04:58:41.620Z</time>
      </trkpt>
      <trkpt lat="45.94103" lon="3.8742">
        <ele>875</ele>
        <time>2024-12-08T04:58:42.620Z</time>
      </trkpt>
      <trkpt lat="45.94103" lon="3.87422">
        <ele>875</ele>
        <time>2024-12-08T04:58:43.620Z</time>
      </trkpt>
      <trkpt lat="45.94103" lon="3.87424">
        <ele>875</ele>
        <time>2024-12-08T04:58:44.619Z</time>
      </trkpt>
      <trkpt lat="45.94103" lon="3.87427">
        <ele>875</ele>
        <time>2024-12-08T04:58:45.620Z</time>
      </trkpt>
      <trkpt lat="45.94103" lon="3.87429">
        <ele>875</ele>
        <time>2024-12-08T04:58:46.619Z</time>
      </trkpt>
      <trkpt lat="45.94103" lon="3.87431">
        <ele>875</ele>
        <time>2024-12-08T04:58:47.619Z</time>
      </trkpt>
      <trkpt lat="45.94103" lon="3.87433">
        <ele>875</ele>
        <time>2024-12-08T04:58:48.620Z</time>
      </trkpt>
      <trkpt lat="45.94103" lon="3.87436">
        <ele>875</ele>
        <time>2024-12-08T04:58:49.620Z</time>
      </trkpt>
      <trkpt lat="45.94103" lon="3.87439">
        <ele>875</ele>
        <time>2024-12-08T04:58:50.620Z</time>
      </trkpt>
      <trkpt lat="45.94102" lon="3.87441">
        <ele>875</ele>
        <time>2024-12-08T04:58:51.619Z</time>
      </trkpt>
      <trkpt lat="45.94102" lon="3.87443">
        <ele>875</ele>
        <time>2024-12-08T04:58:52.619Z</time>
      </trkpt>
      <trkpt lat="45.94102" lon="3.87446">
        <ele>875</ele>
        <time>2024-12-08T04:58:53.619Z</time>
      </trkpt>
      <trkpt lat="45.94102" lon="3.87448">
        <ele>875</ele>
        <time>2024-12-08T04:58:54.620Z</time>
      </trkpt>
      <trkpt lat="45.94102" lon="3.8745">
        <ele>875</ele>
        <time>2024-12-08T04:58:55.620Z</time>
      </trkpt>
      <trkpt lat="45.94102" lon="3.87452">
        <ele>875</ele>
        <time>2024-12-08T04:58:56.619Z</time>
      </trkpt>
      <trkpt lat="45.94102" lon="3.87454">
        <ele>876</ele>
        <time>2024-12-08T04:58:57.619Z</time>
      </trkpt>
      <trkpt lat="45.94102" lon="3.87457">
        <ele>876</ele>
        <time>2024-12-08T04:58:58.619Z</time>
      </trkpt>
      <trkpt lat="45.94102" lon="3.87459">
        <ele>876</ele>
        <time>2024-12-08T04:58:59.619Z</time>
      </trkpt>
      <trkpt lat="45.94102" lon="3.87461">
        <ele>876</ele>
        <time>2024-12-08T04:59:00.619Z</time>
      </trkpt>
      <trkpt lat="45.94102" lon="3.87464">
        <ele>876</ele>
        <time>2024-12-08T04:59:01.620Z</time>
      </trkpt>
      <trkpt lat="45.94102" lon="3.87465">
        <ele>876</ele>
        <time>2024-12-08T04:59:02.619Z</time>
      </trkpt>
      <trkpt lat="45.94102" lon="3.87468">
        <ele>876</ele>
        <time>2024-12-08T04:59:03.619Z</time>
      </trkpt>
      <trkpt lat="45.94102" lon="3.87471">
        <ele>875</ele>
        <time>2024-12-08T04:59:04.619Z</time>
      </trkpt>
      <trkpt lat="45.94102" lon="3.87472">
        <ele>876</ele>
        <time>2024-12-08T04:59:05.620Z</time>
      </trkpt>
      <trkpt lat="45.94102" lon="3.87475">
        <ele>876</ele>
        <time>2024-12-08T04:59:06.620Z</time>
      </trkpt>
      <trkpt lat="45.94102" lon="3.87477">
        <ele>876</ele>
        <time>2024-12-08T04:59:07.619Z</time>
      </trkpt>
      <trkpt lat="45.94102" lon="3.8748">
        <ele>876</ele>
        <time>2024-12-08T04:59:08.619Z</time>
      </trkpt>
      <trkpt lat="45.94102" lon="3.87482">
        <ele>876</ele>
        <time>2024-12-08T04:59:09.620Z</time>
      </trkpt>
      <trkpt lat="45.94102" lon="3.87485">
        <ele>876</ele>
        <time>2024-12-08T04:59:10.619Z</time>
      </trkpt>
      <trkpt lat="45.94102" lon="3.87487">
        <ele>876</ele>
        <time>2024-12-08T04:59:11.620Z</time>
      </trkpt>
      <trkpt lat="45.94101" lon="3.87489">
        <ele>876</ele>
        <time>2024-12-08T04:59:12.619Z</time>
      </trkpt>
      <trkpt lat="45.94101" lon="3.87491">
        <ele>877</ele>
        <time>2024-12-08T04:59:13.620Z</time>
      </trkpt>
      <trkpt lat="45.94101" lon="3.87494">
        <ele>877</ele>
        <time>2024-12-08T04:59:14.619Z</time>
      </trkpt>
      <trkpt lat="45.94101" lon="3.87496">
        <ele>877</ele>
        <time>2024-12-08T04:59:15.619Z</time>
      </trkpt>
      <trkpt lat="45.94101" lon="3.87498">
        <ele>878</ele>
        <time>2024-12-08T04:59:16.619Z</time>
      </trkpt>
      <trkpt lat="45.94101" lon="3.875">
        <ele>878</ele>
        <time>2024-12-08T04:59:17.620Z</time>
      </trkpt>
      <trkpt lat="45.94101" lon="3.87502">
        <ele>878</ele>
        <time>2024-12-08T04:59:18.619Z</time>
      </trkpt>
      <trkpt lat="45.94101" lon="3.87505">
        <ele>878</ele>
        <time>2024-12-08T04:59:19.619Z</time>
      </trkpt>
      <trkpt lat="45.94101" lon="3.87507">
        <ele>878</ele>
        <time>2024-12-08T04:59:20.619Z</time>
      </trkpt>
      <trkpt lat="45.941" lon="3.87509">
        <ele>878</ele>
        <time>2024-12-08T04:59:21.620Z</time>
      </trkpt>
      <trkpt lat="45.941" lon="3.87511">
        <ele>879</ele>
        <time>2024-12-08T04:59:22.620Z</time>
      </trkpt>
      <trkpt lat="45.941" lon="3.87513">
        <ele>879</ele>
        <time>2024-12-08T04:59:23.620Z</time>
      </trkpt>
      <trkpt lat="45.94101" lon="3.87516">
        <ele>879</ele>
        <time>2024-12-08T04:59:24.619Z</time>
      </trkpt>
      <trkpt lat="45.94101" lon="3.87518">
        <ele>879</ele>
        <time>2024-12-08T04:59:25.619Z</time>
      </trkpt>
      <trkpt lat="45.94101" lon="3.87521">
        <ele>879</ele>
        <time>2024-12-08T04:59:26.620Z</time>
      </trkpt>
      <trkpt lat="45.94101" lon="3.87523">
        <ele>880</ele>
        <time>2024-12-08T04:59:27.619Z</time>
      </trkpt>
      <trkpt lat="45.94101" lon="3.87525">
        <ele>880</ele>
        <time>2024-12-08T04:59:28.620Z</time>
      </trkpt>
      <trkpt lat="45.94101" lon="3.87528">
        <ele>880</ele>
        <time>2024-12-08T04:59:29.619Z</time>
      </trkpt>
      <trkpt lat="45.94101" lon="3.8753">
        <ele>880</ele>
        <time>2024-12-08T04:59:30.619Z</time>
      </trkpt>
      <trkpt lat="45.94101" lon="3.87532">
        <ele>880</ele>
        <time>2024-12-08T04:59:31.619Z</time>
      </trkpt>
      <trkpt lat="45.941" lon="3.87534">
        <ele>880</ele>
        <time>2024-12-08T04:59:32.619Z</time>
      </trkpt>
      <trkpt lat="45.941" lon="3.87536">
        <ele>880</ele>
        <time>2024-12-08T04:59:33.619Z</time>
      </trkpt>
      <trkpt lat="45.941" lon="3.87538">
        <ele>880</ele>
        <time>2024-12-08T04:59:34.619Z</time>
      </trkpt>
      <trkpt lat="45.941" lon="3.87541">
        <ele>880</ele>
        <time>2024-12-08T04:59:35.620Z</time>
      </trkpt>
      <trkpt lat="45.941" lon="3.87543">
        <ele>880</ele>
        <time>2024-12-08T04:59:36.619Z</time>
      </trkpt>
      <trkpt lat="45.941" lon="3.87545">
        <ele>880</ele>
        <time>2024-12-08T04:59:37.619Z</time>
      </trkpt>
      <trkpt lat="45.941" lon="3.87547">
        <ele>879</ele>
        <time>2024-12-08T04:59:38.619Z</time>
      </trkpt>
      <trkpt lat="45.941" lon="3.8755">
        <ele>879</ele>
        <time>2024-12-08T04:59:39.620Z</time>
      </trkpt>
      <trkpt lat="45.941" lon="3.87552">
        <ele>879</ele>
        <time>2024-12-08T04:59:40.619Z</time>
      </trkpt>
      <trkpt lat="45.941" lon="3.87554">
        <ele>879</ele>
        <time>2024-12-08T04:59:41.619Z</time>
      </trkpt>
      <trkpt lat="45.941" lon="3.87556">
        <ele>879</ele>
        <time>2024-12-08T04:59:42.619Z</time>
      </trkpt>
      <trkpt lat="45.941" lon="3.87558">
        <ele>879</ele>
        <time>2024-12-08T04:59:43.620Z</time>
      </trkpt>
      <trkpt lat="45.94099" lon="3.8756">
        <ele>879</ele>
        <time>2024-12-08T04:59:44.620Z</time>
      </trkpt>
      <trkpt lat="45.941" lon="3.87562">
        <ele>879</ele>
        <time>2024-12-08T04:59:45.619Z</time>
      </trkpt>
      <trkpt lat="45.941" lon="3.87564">
        <ele>880</ele>
        <time>2024-12-08T04:59:46.619Z</time>
      </trkpt>
      <trkpt lat="45.941" lon="3.87566">
        <ele>880</ele>
        <time>2024-12-08T04:59:47.620Z</time>
      </trkpt>
      <trkpt lat="45.941" lon="3.87569">
        <ele>880</ele>
        <time>2024-12-08T04:59:48.620Z</time>
      </trkpt>
      <trkpt lat="45.941" lon="3.87571">
        <ele>880</ele>
        <time>2024-12-08T04:59:49.620Z</time>
      </trkpt>
      <trkpt lat="45.941" lon="3.87573">
        <ele>880</ele>
        <time>2024-12-08T04:59:50.619Z</time>
      </trkpt>
      <trkpt lat="45.941" lon="3.87575">
        <ele>880</ele>
        <time>2024-12-08T04:59:51.620Z</time>
      </trkpt>
      <trkpt lat="45.941" lon="3.87578">
        <ele>880</ele>
        <time>2024-12-08T04:59:52.620Z</time>
      </trkpt>
      <trkpt lat="45.941" lon="3.87581">
        <ele>880</ele>
        <time>2024-12-08T04:59:53.619Z</time>
      </trkpt>
      <trkpt lat="45.941" lon="3.87583">
        <ele>880</ele>
        <time>2024-12-08T04:59:54.619Z</time>
      </trkpt>
      <trkpt lat="45.941" lon="3.87586">
        <ele>880</ele>
        <time>2024-12-08T04:59:55.620Z</time>
      </trkpt>
      <trkpt lat="45.941" lon="3.87588">
        <ele>880</ele>
        <time>2024-12-08T04:59:56.619Z</time>
      </trkpt>
      <trkpt lat="45.941" lon="3.87591">
        <ele>879</ele>
        <time>2024-12-08T04:59:57.619Z</time>
      </trkpt>
      <trkpt lat="45.941" lon="3.87593">
        <ele>879</ele>
        <time>2024-12-08T04:59:58.620Z</time>
      </trkpt>
      <trkpt lat="45.941" lon="3.87595">
        <ele>879</ele>
        <time>2024-12-08T04:59:59.620Z</time>
      </trkpt>
      <trkpt lat="45.941" lon="3.87598">
        <ele>879</ele>
        <time>2024-12-08T05:00:00.619Z</time>
      </trkpt>
      <trkpt lat="45.94101" lon="3.876">
        <ele>879</ele>
        <time>2024-12-08T05:00:01.620Z</time>
      </trkpt>
      <trkpt lat="45.94101" lon="3.87602">
        <ele>879</ele>
        <time>2024-12-08T05:00:02.619Z</time>
      </trkpt>
      <trkpt lat="45.94101" lon="3.87604">
        <ele>879</ele>
        <time>2024-12-08T05:00:03.620Z</time>
      </trkpt>
      <trkpt lat="45.94101" lon="3.87606">
        <ele>879</ele>
        <time>2024-12-08T05:00:04.619Z</time>
      </trkpt>
      <trkpt lat="45.94101" lon="3.87609">
        <ele>879</ele>
        <time>2024-12-08T05:00:05.620Z</time>
      </trkpt>
      <trkpt lat="45.94101" lon="3.87611">
        <ele>879</ele>
        <time>2024-12-08T05:00:06.620Z</time>
      </trkpt>
      <trkpt lat="45.94101" lon="3.87614">
        <ele>879</ele>
        <time>2024-12-08T05:00:07.620Z</time>
      </trkpt>
      <trkpt lat="45.94101" lon="3.87616">
        <ele>879</ele>
        <time>2024-12-08T05:00:08.620Z</time>
      </trkpt>
      <trkpt lat="45.94101" lon="3.87618">
        <ele>879</ele>
        <time>2024-12-08T05:00:09.619Z</time>
      </trkpt>
      <trkpt lat="45.94101" lon="3.87621">
        <ele>879</ele>
        <time>2024-12-08T05:00:10.620Z</time>
      </trkpt>
      <trkpt lat="45.941" lon="3.87623">
        <ele>879</ele>
        <time>2024-12-08T05:00:11.619Z</time>
      </trkpt>
      <trkpt lat="45.941" lon="3.87625">
        <ele>879</ele>
        <time>2024-12-08T05:00:12.619Z</time>
      </trkpt>
      <trkpt lat="45.941" lon="3.87627">
        <ele>879</ele>
        <time>2024-12-08T05:00:13.619Z</time>
      </trkpt>
      <trkpt lat="45.941" lon="3.8763">
        <ele>879</ele>
        <time>2024-12-08T05:00:14.620Z</time>
      </trkpt>
      <trkpt lat="45.941" lon="3.87632">
        <ele>879</ele>
        <time>2024-12-08T05:00:15.619Z</time>
      </trkpt>
      <trkpt lat="45.941" lon="3.87634">
        <ele>879</ele>
        <time>2024-12-08T05:00:16.620Z</time>
      </trkpt>
      <trkpt lat="45.94101" lon="3.87637">
        <ele>879</ele>
        <time>2024-12-08T05:00:17.620Z</time>
      </trkpt>
      <trkpt lat="45.94101" lon="3.8764">
        <ele>879</ele>
        <time>2024-12-08T05:00:18.620Z</time>
      </trkpt>
      <trkpt lat="45.94101" lon="3.87642">
        <ele>880</ele>
        <time>2024-12-08T05:00:19.619Z</time>
      </trkpt>
      <trkpt lat="45.94101" lon="3.87645">
        <ele>880</ele>
        <time>2024-12-08T05:00:20.619Z</time>
      </trkpt>
      <trkpt lat="45.94101" lon="3.87647">
        <ele>880</ele>
        <time>2024-12-08T05:00:21.620Z</time>
      </trkpt>
      <trkpt lat="45.94101" lon="3.8765">
        <ele>880</ele>
        <time>2024-12-08T05:00:22.619Z</time>
      </trkpt>
      <trkpt lat="45.94101" lon="3.87652">
        <ele>880</ele>
        <time>2024-12-08T05:00:23.620Z</time>
      </trkpt>
      <trkpt lat="45.94101" lon="3.87654">
        <ele>881</ele>
        <time>2024-12-08T05:00:24.619Z</time>
      </trkpt>
      <trkpt lat="45.94101" lon="3.87657">
        <ele>881</ele>
        <time>2024-12-08T05:00:25.620Z</time>
      </trkpt>
      <trkpt lat="45.94101" lon="3.87659">
        <ele>881</ele>
        <time>2024-12-08T05:00:26.619Z</time>
      </trkpt>
      <trkpt lat="45.941" lon="3.87661">
        <ele>881</ele>
        <time>2024-12-08T05:00:27.620Z</time>
      </trkpt>
      <trkpt lat="45.941" lon="3.87664">
        <ele>881</ele>
        <time>2024-12-08T05:00:28.620Z</time>
      </trkpt>
      <trkpt lat="45.941" lon="3.87666">
        <ele>881</ele>
        <time>2024-12-08T05:00:29.619Z</time>
      </trkpt>
      <trkpt lat="45.941" lon="3.87669">
        <ele>880</ele>
        <time>2024-12-08T05:00:30.619Z</time>
      </trkpt>
      <trkpt lat="45.94101" lon="3.87671">
        <ele>880</ele>
        <time>2024-12-08T05:00:31.619Z</time>
      </trkpt>
      <trkpt lat="45.94101" lon="3.87673">
        <ele>880</ele>
        <time>2024-12-08T05:00:32.620Z</time>
      </trkpt>
      <trkpt lat="45.94101" lon="3.87675">
        <ele>881</ele>
        <time>2024-12-08T05:00:33.619Z</time>
      </trkpt>
      <trkpt lat="45.94102" lon="3.87678">
        <ele>881</ele>
        <time>2024-12-08T05:00:34.619Z</time>
      </trkpt>
      <trkpt lat="45.94103" lon="3.87679">
        <ele>881</ele>
        <time>2024-12-08T05:00:35.620Z</time>
      </trkpt>
      <trkpt lat="45.94103" lon="3.87682">
        <ele>881</ele>
        <time>2024-12-08T05:00:36.620Z</time>
      </trkpt>
      <trkpt lat="45.94104" lon="3.87684">
        <ele>881</ele>
        <time>2024-12-08T05:00:37.620Z</time>
      </trkpt>
      <trkpt lat="45.94105" lon="3.87686">
        <ele>881</ele>
        <time>2024-12-08T05:00:38.620Z</time>
      </trkpt>
      <trkpt lat="45.94106" lon="3.87688">
        <ele>881</ele>
        <time>2024-12-08T05:00:39.620Z</time>
      </trkpt>
      <trkpt lat="45.94107" lon="3.8769">
        <ele>881</ele>
        <time>2024-12-08T05:00:40.619Z</time>
      </trkpt>
      <trkpt lat="45.94108" lon="3.87692">
        <ele>882</ele>
        <time>2024-12-08T05:00:41.620Z</time>
      </trkpt>
      <trkpt lat="45.94109" lon="3.87694">
        <ele>882</ele>
        <time>2024-12-08T05:00:42.619Z</time>
      </trkpt>
      <trkpt lat="45.94109" lon="3.87695">
        <ele>882</ele>
        <time>2024-12-08T05:00:43.620Z</time>
      </trkpt>
      <trkpt lat="45.9411" lon="3.87697">
        <ele>882</ele>
        <time>2024-12-08T05:00:44.619Z</time>
      </trkpt>
      <trkpt lat="45.94111" lon="3.87698">
        <ele>882</ele>
        <time>2024-12-08T05:00:45.620Z</time>
      </trkpt>
      <trkpt lat="45.94112" lon="3.877">
        <ele>881</ele>
        <time>2024-12-08T05:00:46.619Z</time>
      </trkpt>
      <trkpt lat="45.94113" lon="3.87701">
        <ele>881</ele>
        <time>2024-12-08T05:00:47.620Z</time>
      </trkpt>
      <trkpt lat="45.94114" lon="3.87702">
        <ele>881</ele>
        <time>2024-12-08T05:00:48.620Z</time>
      </trkpt>
      <trkpt lat="45.94115" lon="3.87703">
        <ele>881</ele>
        <time>2024-12-08T05:00:49.619Z</time>
      </trkpt>
      <trkpt lat="45.94115" lon="3.87704">
        <ele>881</ele>
        <time>2024-12-08T05:00:50.620Z</time>
      </trkpt>
      <trkpt lat="45.94116" lon="3.87706">
        <ele>881</ele>
        <time>2024-12-08T05:00:51.619Z</time>
      </trkpt>
      <trkpt lat="45.94117" lon="3.87707">
        <ele>881</ele>
        <time>2024-12-08T05:00:52.620Z</time>
      </trkpt>
      <trkpt lat="45.94118" lon="3.87708">
        <ele>881</ele>
        <time>2024-12-08T05:00:53.620Z</time>
      </trkpt>
      <trkpt lat="45.94119" lon="3.87709">
        <ele>881</ele>
        <time>2024-12-08T05:00:54.620Z</time>
      </trkpt>
      <trkpt lat="45.94121" lon="3.8771">
        <ele>882</ele>
        <time>2024-12-08T05:00:55.619Z</time>
      </trkpt>
      <trkpt lat="45.94122" lon="3.8771">
        <ele>882</ele>
        <time>2024-12-08T05:00:56.620Z</time>
      </trkpt>
      <trkpt lat="45.94123" lon="3.87711">
        <ele>882</ele>
        <time>2024-12-08T05:00:57.619Z</time>
      </trkpt>
      <trkpt lat="45.94125" lon="3.87711">
        <ele>883</ele>
        <time>2024-12-08T05:00:58.620Z</time>
      </trkpt>
      <trkpt lat="45.94126" lon="3.87712">
        <ele>883</ele>
        <time>2024-12-08T05:00:59.620Z</time>
      </trkpt>
      <trkpt lat="45.94128" lon="3.87713">
        <ele>884</ele>
        <time>2024-12-08T05:01:00.620Z</time>
      </trkpt>
      <trkpt lat="45.9413" lon="3.87713">
        <ele>884</ele>
        <time>2024-12-08T05:01:01.619Z</time>
      </trkpt>
      <trkpt lat="45.94131" lon="3.87714">
        <ele>884</ele>
        <time>2024-12-08T05:01:02.619Z</time>
      </trkpt>
      <trkpt lat="45.94132" lon="3.87714">
        <ele>884</ele>
        <time>2024-12-08T05:01:03.620Z</time>
      </trkpt>
      <trkpt lat="45.94134" lon="3.87714">
        <ele>884</ele>
        <time>2024-12-08T05:01:04.619Z</time>
      </trkpt>
      <trkpt lat="45.94136" lon="3.87715">
        <ele>884</ele>
        <time>2024-12-08T05:01:05.619Z</time>
      </trkpt>
      <trkpt lat="45.94137" lon="3.87715">
        <ele>884</ele>
        <time>2024-12-08T05:01:06.620Z</time>
      </trkpt>
      <trkpt lat="45.94139" lon="3.87715">
        <ele>884</ele>
        <time>2024-12-08T05:01:07.619Z</time>
      </trkpt>
      <trkpt lat="45.9414" lon="3.87715">
        <ele>884</ele>
        <time>2024-12-08T05:01:08.620Z</time>
      </trkpt>
      <trkpt lat="45.94142" lon="3.87715">
        <ele>884</ele>
        <time>2024-12-08T05:01:09.619Z</time>
      </trkpt>
      <trkpt lat="45.94144" lon="3.87715">
        <ele>884</ele>
        <time>2024-12-08T05:01:10.620Z</time>
      </trkpt>
      <trkpt lat="45.94146" lon="3.87715">
        <ele>884</ele>
        <time>2024-12-08T05:01:11.620Z</time>
      </trkpt>
      <trkpt lat="45.94147" lon="3.87714">
        <ele>884</ele>
        <time>2024-12-08T05:01:12.619Z</time>
      </trkpt>
      <trkpt lat="45.94149" lon="3.87714">
        <ele>884</ele>
        <time>2024-12-08T05:01:13.619Z</time>
      </trkpt>
      <trkpt lat="45.94151" lon="3.87714">
        <ele>884</ele>
        <time>2024-12-08T05:01:14.619Z</time>
      </trkpt>
      <trkpt lat="45.94153" lon="3.87714">
        <ele>884</ele>
        <time>2024-12-08T05:01:15.619Z</time>
      </trkpt>
      <trkpt lat="45.94154" lon="3.87714">
        <ele>884</ele>
        <time>2024-12-08T05:01:16.619Z</time>
      </trkpt>
      <trkpt lat="45.94156" lon="3.87714">
        <ele>884</ele>
        <time>2024-12-08T05:01:17.619Z</time>
      </trkpt>
      <trkpt lat="45.94157" lon="3.87713">
        <ele>884</ele>
        <time>2024-12-08T05:01:18.620Z</time>
      </trkpt>
      <trkpt lat="45.94159" lon="3.87712">
        <ele>884</ele>
        <time>2024-12-08T05:01:19.619Z</time>
      </trkpt>
      <trkpt lat="45.9416" lon="3.87711">
        <ele>885</ele>
        <time>2024-12-08T05:01:20.620Z</time>
      </trkpt>
      <trkpt lat="45.94161" lon="3.87711">
        <ele>885</ele>
        <time>2024-12-08T05:01:21.619Z</time>
      </trkpt>
      <trkpt lat="45.94163" lon="3.87711">
        <ele>885</ele>
        <time>2024-12-08T05:01:22.619Z</time>
      </trkpt>
      <trkpt lat="45.94164" lon="3.8771">
        <ele>885</ele>
        <time>2024-12-08T05:01:23.619Z</time>
      </trkpt>
      <trkpt lat="45.94165" lon="3.87709">
        <ele>886</ele>
        <time>2024-12-08T05:01:24.619Z</time>
      </trkpt>
      <trkpt lat="45.94166" lon="3.87709">
        <ele>886</ele>
        <time>2024-12-08T05:01:25.620Z</time>
      </trkpt>
      <trkpt lat="45.94166" lon="3.87708">
        <ele>886</ele>
        <time>2024-12-08T05:01:26.619Z</time>
      </trkpt>
      <trkpt lat="45.94167" lon="3.87707">
        <ele>887</ele>
        <time>2024-12-08T05:01:27.620Z</time>
      </trkpt>
      <trkpt lat="45.94168" lon="3.87706">
        <ele>887</ele>
        <time>2024-12-08T05:01:28.619Z</time>
      </trkpt>
      <trkpt lat="45.94169" lon="3.87704">
        <ele>887</ele>
        <time>2024-12-08T05:01:29.620Z</time>
      </trkpt>
      <trkpt lat="45.9417" lon="3.87703">
        <ele>888</ele>
        <time>2024-12-08T05:01:30.620Z</time>
      </trkpt>
      <trkpt lat="45.94171" lon="3.87702">
        <ele>888</ele>
        <time>2024-12-08T05:01:31.620Z</time>
      </trkpt>
      <trkpt lat="45.94172" lon="3.87701">
        <ele>888</ele>
        <time>2024-12-08T05:01:32.619Z</time>
      </trkpt>
      <trkpt lat="45.94174" lon="3.87701">
        <ele>889</ele>
        <time>2024-12-08T05:01:33.619Z</time>
      </trkpt>
      <trkpt lat="45.94175" lon="3.877">
        <ele>889</ele>
        <time>2024-12-08T05:01:34.620Z</time>
      </trkpt>
      <trkpt lat="45.94176" lon="3.87699">
        <ele>889</ele>
        <time>2024-12-08T05:01:35.619Z</time>
      </trkpt>
      <trkpt lat="45.94178" lon="3.87699">
        <ele>889</ele>
        <time>2024-12-08T05:01:36.620Z</time>
      </trkpt>
      <trkpt lat="45.9418" lon="3.87698">
        <ele>889</ele>
        <time>2024-12-08T05:01:37.619Z</time>
      </trkpt>
      <trkpt lat="45.9418" lon="3.87698">
        <ele>889</ele>
        <time>2024-12-08T05:01:38.620Z</time>
      </trkpt>
      <trkpt lat="45.94183" lon="3.87697">
        <ele>889</ele>
        <time>2024-12-08T05:01:39.619Z</time>
      </trkpt>
      <trkpt lat="45.94185" lon="3.87696">
        <ele>889</ele>
        <time>2024-12-08T05:01:40.619Z</time>
      </trkpt>
      <trkpt lat="45.94186" lon="3.87696">
        <ele>889</ele>
        <time>2024-12-08T05:01:41.620Z</time>
      </trkpt>
      <trkpt lat="45.94188" lon="3.87696">
        <ele>889</ele>
        <time>2024-12-08T05:01:42.620Z</time>
      </trkpt>
      <trkpt lat="45.94189" lon="3.87695">
        <ele>890</ele>
        <time>2024-12-08T05:01:43.619Z</time>
      </trkpt>
      <trkpt lat="45.94191" lon="3.87694">
        <ele>890</ele>
        <time>2024-12-08T05:01:44.620Z</time>
      </trkpt>
      <trkpt lat="45.94193" lon="3.87693">
        <ele>890</ele>
        <time>2024-12-08T05:01:45.619Z</time>
      </trkpt>
      <trkpt lat="45.94194" lon="3.87692">
        <ele>890</ele>
        <time>2024-12-08T05:01:46.619Z</time>
      </trkpt>
      <trkpt lat="45.94195" lon="3.87691">
        <ele>890</ele>
        <time>2024-12-08T05:01:47.620Z</time>
      </trkpt>
      <trkpt lat="45.94197" lon="3.87691">
        <ele>890</ele>
        <time>2024-12-08T05:01:48.619Z</time>
      </trkpt>
      <trkpt lat="45.94198" lon="3.87691">
        <ele>890</ele>
        <time>2024-12-08T05:01:49.619Z</time>
      </trkpt>
      <trkpt lat="45.942" lon="3.8769">
        <ele>890</ele>
        <time>2024-12-08T05:01:50.619Z</time>
      </trkpt>
      <trkpt lat="45.94201" lon="3.8769">
        <ele>890</ele>
        <time>2024-12-08T05:01:51.620Z</time>
      </trkpt>
      <trkpt lat="45.94202" lon="3.87689">
        <ele>890</ele>
        <time>2024-12-08T05:01:52.619Z</time>
      </trkpt>
      <trkpt lat="45.94204" lon="3.87687">
        <ele>890</ele>
        <time>2024-12-08T05:01:53.620Z</time>
      </trkpt>
      <trkpt lat="45.94205" lon="3.87685">
        <ele>890</ele>
        <time>2024-12-08T05:01:54.620Z</time>
      </trkpt>
      <trkpt lat="45.94206" lon="3.87685">
        <ele>890</ele>
        <time>2024-12-08T05:01:55.619Z</time>
      </trkpt>
      <trkpt lat="45.94208" lon="3.87685">
        <ele>890</ele>
        <time>2024-12-08T05:01:56.620Z</time>
      </trkpt>
      <trkpt lat="45.94209" lon="3.87684">
        <ele>890</ele>
        <time>2024-12-08T05:01:57.620Z</time>
      </trkpt>
      <trkpt lat="45.94211" lon="3.87684">
        <ele>889</ele>
        <time>2024-12-08T05:01:58.620Z</time>
      </trkpt>
      <trkpt lat="45.94212" lon="3.87683">
        <ele>889</ele>
        <time>2024-12-08T05:01:59.619Z</time>
      </trkpt>
      <trkpt lat="45.94213" lon="3.87682">
        <ele>889</ele>
        <time>2024-12-08T05:02:00.620Z</time>
      </trkpt>
      <trkpt lat="45.94214" lon="3.8768">
        <ele>889</ele>
        <time>2024-12-08T05:02:01.619Z</time>
      </trkpt>
      <trkpt lat="45.94216" lon="3.8768">
        <ele>889</ele>
        <time>2024-12-08T05:02:02.619Z</time>
      </trkpt>
      <trkpt lat="45.94217" lon="3.87679">
        <ele>889</ele>
        <time>2024-12-08T05:02:03.620Z</time>
      </trkpt>
      <trkpt lat="45.94219" lon="3.87679">
        <ele>888</ele>
        <time>2024-12-08T05:02:04.619Z</time>
      </trkpt>
      <trkpt lat="45.9422" lon="3.87678">
        <ele>888</ele>
        <time>2024-12-08T05:02:05.620Z</time>
      </trkpt>
      <trkpt lat="45.94222" lon="3.87677">
        <ele>888</ele>
        <time>2024-12-08T05:02:06.619Z</time>
      </trkpt>
      <trkpt lat="45.94223" lon="3.87676">
        <ele>888</ele>
        <time>2024-12-08T05:02:07.620Z</time>
      </trkpt>
      <trkpt lat="45.94225" lon="3.87675">
        <ele>888</ele>
        <time>2024-12-08T05:02:08.619Z</time>
      </trkpt>
      <trkpt lat="45.94226" lon="3.87674">
        <ele>888</ele>
        <time>2024-12-08T05:02:09.620Z</time>
      </trkpt>
      <trkpt lat="45.94228" lon="3.87673">
        <ele>888</ele>
        <time>2024-12-08T05:02:10.620Z</time>
      </trkpt>
      <trkpt lat="45.94229" lon="3.87672">
        <ele>887</ele>
        <time>2024-12-08T05:02:11.619Z</time>
      </trkpt>
      <trkpt lat="45.94231" lon="3.87671">
        <ele>888</ele>
        <time>2024-12-08T05:02:12.620Z</time>
      </trkpt>
      <trkpt lat="45.94233" lon="3.8767">
        <ele>888</ele>
        <time>2024-12-08T05:02:13.619Z</time>
      </trkpt>
      <trkpt lat="45.94235" lon="3.8767">
        <ele>887</ele>
        <time>2024-12-08T05:02:14.620Z</time>
      </trkpt>
      <trkpt lat="45.94236" lon="3.87669">
        <ele>887</ele>
        <time>2024-12-08T05:02:15.619Z</time>
      </trkpt>
      <trkpt lat="45.94238" lon="3.87668">
        <ele>887</ele>
        <time>2024-12-08T05:02:16.619Z</time>
      </trkpt>
      <trkpt lat="45.9424" lon="3.87667">
        <ele>888</ele>
        <time>2024-12-08T05:02:17.619Z</time>
      </trkpt>
      <trkpt lat="45.94242" lon="3.87666">
        <ele>888</ele>
        <time>2024-12-08T05:02:18.620Z</time>
      </trkpt>
      <trkpt lat="45.94244" lon="3.87665">
        <ele>888</ele>
        <time>2024-12-08T05:02:19.620Z</time>
      </trkpt>
      <trkpt lat="45.94246" lon="3.87665">
        <ele>889</ele>
        <time>2024-12-08T05:02:20.620Z</time>
      </trkpt>
      <trkpt lat="45.94248" lon="3.87663">
        <ele>889</ele>
        <time>2024-12-08T05:02:21.620Z</time>
      </trkpt>
      <trkpt lat="45.9425" lon="3.87662">
        <ele>889</ele>
        <time>2024-12-08T05:02:22.620Z</time>
      </trkpt>
      <trkpt lat="45.94251" lon="3.8766">
        <ele>890</ele>
        <time>2024-12-08T05:02:23.620Z</time>
      </trkpt>
      <trkpt lat="45.94252" lon="3.87659">
        <ele>890</ele>
        <time>2024-12-08T05:02:24.620Z</time>
      </trkpt>
      <trkpt lat="45.94254" lon="3.87658">
        <ele>890</ele>
        <time>2024-12-08T05:02:25.620Z</time>
      </trkpt>
      <trkpt lat="45.94256" lon="3.87657">
        <ele>890</ele>
        <time>2024-12-08T05:02:26.619Z</time>
      </trkpt>
      <trkpt lat="45.94258" lon="3.87656">
        <ele>890</ele>
        <time>2024-12-08T05:02:27.620Z</time>
      </trkpt>
      <trkpt lat="45.9426" lon="3.87656">
        <ele>891</ele>
        <time>2024-12-08T05:02:28.620Z</time>
      </trkpt>
      <trkpt lat="45.94262" lon="3.87654">
        <ele>891</ele>
        <time>2024-12-08T05:02:29.619Z</time>
      </trkpt>
      <trkpt lat="45.94264" lon="3.87654">
        <ele>891</ele>
        <time>2024-12-08T05:02:30.620Z</time>
      </trkpt>
      <trkpt lat="45.94265" lon="3.87654">
        <ele>891</ele>
        <time>2024-12-08T05:02:31.619Z</time>
      </trkpt>
      <trkpt lat="45.94267" lon="3.87653">
        <ele>891</ele>
        <time>2024-12-08T05:02:32.619Z</time>
      </trkpt>
      <trkpt lat="45.94268" lon="3.87653">
        <ele>891</ele>
        <time>2024-12-08T05:02:33.619Z</time>
      </trkpt>
      <trkpt lat="45.9427" lon="3.87652">
        <ele>891</ele>
        <time>2024-12-08T05:02:34.620Z</time>
      </trkpt>
      <trkpt lat="45.94271" lon="3.87652">
        <ele>891</ele>
        <time>2024-12-08T05:02:35.619Z</time>
      </trkpt>
      <trkpt lat="45.94271" lon="3.87652">
        <ele>891</ele>
        <time>2024-12-08T05:02:36.620Z</time>
      </trkpt>
      <trkpt lat="45.94273" lon="3.87651">
        <ele>891</ele>
        <time>2024-12-08T05:02:37.620Z</time>
      </trkpt>
      <trkpt lat="45.94274" lon="3.87651">
        <ele>891</ele>
        <time>2024-12-08T05:02:38.620Z</time>
      </trkpt>
      <trkpt lat="45.94276" lon="3.87651">
        <ele>891</ele>
        <time>2024-12-08T05:02:39.619Z</time>
      </trkpt>
      <trkpt lat="45.94277" lon="3.87651">
        <ele>891</ele>
        <time>2024-12-08T05:02:40.620Z</time>
      </trkpt>
      <trkpt lat="45.94279" lon="3.8765">
        <ele>892</ele>
        <time>2024-12-08T05:02:41.619Z</time>
      </trkpt>
      <trkpt lat="45.9428" lon="3.87649">
        <ele>892</ele>
        <time>2024-12-08T05:02:42.620Z</time>
      </trkpt>
      <trkpt lat="45.94281" lon="3.87649">
        <ele>892</ele>
        <time>2024-12-08T05:02:43.619Z</time>
      </trkpt>
      <trkpt lat="45.94282" lon="3.87648">
        <ele>892</ele>
        <time>2024-12-08T05:02:44.620Z</time>
      </trkpt>
      <trkpt lat="45.94282" lon="3.87647">
        <ele>892</ele>
        <time>2024-12-08T05:02:45.620Z</time>
      </trkpt>
      <trkpt lat="45.94284" lon="3.87646">
        <ele>892</ele>
        <time>2024-12-08T05:02:46.620Z</time>
      </trkpt>
      <trkpt lat="45.94286" lon="3.87646">
        <ele>892</ele>
        <time>2024-12-08T05:02:47.620Z</time>
      </trkpt>
      <trkpt lat="45.94287" lon="3.87646">
        <ele>892</ele>
        <time>2024-12-08T05:02:48.619Z</time>
      </trkpt>
      <trkpt lat="45.94288" lon="3.87646">
        <ele>892</ele>
        <time>2024-12-08T05:02:49.620Z</time>
      </trkpt>
      <trkpt lat="45.9429" lon="3.87645">
        <ele>891</ele>
        <time>2024-12-08T05:02:50.619Z</time>
      </trkpt>
      <trkpt lat="45.94291" lon="3.87645">
        <ele>891</ele>
        <time>2024-12-08T05:02:51.619Z</time>
      </trkpt>
      <trkpt lat="45.94292" lon="3.87644">
        <ele>891</ele>
        <time>2024-12-08T05:02:52.620Z</time>
      </trkpt>
      <trkpt lat="45.94294" lon="3.87644">
        <ele>890</ele>
        <time>2024-12-08T05:02:53.619Z</time>
      </trkpt>
      <trkpt lat="45.94295" lon="3.87643">
        <ele>890</ele>
        <time>2024-12-08T05:02:54.619Z</time>
      </trkpt>
      <trkpt lat="45.94296" lon="3.87643">
        <ele>890</ele>
        <time>2024-12-08T05:02:55.620Z</time>
      </trkpt>
      <trkpt lat="45.94298" lon="3.87642">
        <ele>890</ele>
        <time>2024-12-08T05:02:56.620Z</time>
      </trkpt>
      <trkpt lat="45.94299" lon="3.87641">
        <ele>890</ele>
        <time>2024-12-08T05:02:57.619Z</time>
      </trkpt>
      <trkpt lat="45.943" lon="3.8764">
        <ele>890</ele>
        <time>2024-12-08T05:02:58.619Z</time>
      </trkpt>
      <trkpt lat="45.94301" lon="3.87639">
        <ele>890</ele>
        <time>2024-12-08T05:02:59.620Z</time>
      </trkpt>
      <trkpt lat="45.94302" lon="3.87638">
        <ele>891</ele>
        <time>2024-12-08T05:03:00.620Z</time>
      </trkpt>
      <trkpt lat="45.94303" lon="3.87637">
        <ele>891</ele>
        <time>2024-12-08T05:03:01.620Z</time>
      </trkpt>
      <trkpt lat="45.94304" lon="3.87636">
        <ele>891</ele>
        <time>2024-12-08T05:03:02.620Z</time>
      </trkpt>
      <trkpt lat="45.94306" lon="3.87635">
        <ele>891</ele>
        <time>2024-12-08T05:03:03.619Z</time>
      </trkpt>
      <trkpt lat="45.94307" lon="3.87633">
        <ele>891</ele>
        <time>2024-12-08T05:03:04.619Z</time>
      </trkpt>
      <trkpt lat="45.94308" lon="3.87632">
        <ele>891</ele>
        <time>2024-12-08T05:03:05.620Z</time>
      </trkpt>
      <trkpt lat="45.9431" lon="3.87631">
        <ele>892</ele>
        <time>2024-12-08T05:03:06.619Z</time>
      </trkpt>
      <trkpt lat="45.94311" lon="3.87629">
        <ele>891</ele>
        <time>2024-12-08T05:03:07.620Z</time>
      </trkpt>
      <trkpt lat="45.94313" lon="3.87628">
        <ele>891</ele>
        <time>2024-12-08T05:03:08.620Z</time>
      </trkpt>
      <trkpt lat="45.94314" lon="3.87628">
        <ele>892</ele>
        <time>2024-12-08T05:03:09.620Z</time>
      </trkpt>
      <trkpt lat="45.94316" lon="3.87627">
        <ele>892</ele>
        <time>2024-12-08T05:03:10.619Z</time>
      </trkpt>
      <trkpt lat="45.94318" lon="3.87627">
        <ele>892</ele>
        <time>2024-12-08T05:03:11.619Z</time>
      </trkpt>
      <trkpt lat="45.9432" lon="3.87626">
        <ele>892</ele>
        <time>2024-12-08T05:03:12.620Z</time>
      </trkpt>
      <trkpt lat="45.94322" lon="3.87625">
        <ele>892</ele>
        <time>2024-12-08T05:03:13.620Z</time>
      </trkpt>
      <trkpt lat="45.94323" lon="3.87624">
        <ele>892</ele>
        <time>2024-12-08T05:03:14.620Z</time>
      </trkpt>
      <trkpt lat="45.94324" lon="3.87623">
        <ele>892</ele>
        <time>2024-12-08T05:03:15.620Z</time>
      </trkpt>
      <trkpt lat="45.94326" lon="3.87622">
        <ele>892</ele>
        <time>2024-12-08T05:03:16.619Z</time>
      </trkpt>
      <trkpt lat="45.94327" lon="3.87622">
        <ele>893</ele>
        <time>2024-12-08T05:03:17.620Z</time>
      </trkpt>
      <trkpt lat="45.94329" lon="3.8762">
        <ele>893</ele>
        <time>2024-12-08T05:03:18.619Z</time>
      </trkpt>
      <trkpt lat="45.9433" lon="3.87619">
        <ele>893</ele>
        <time>2024-12-08T05:03:19.620Z</time>
      </trkpt>
      <trkpt lat="45.94331" lon="3.87619">
        <ele>893</ele>
        <time>2024-12-08T05:03:20.620Z</time>
      </trkpt>
      <trkpt lat="45.94332" lon="3.87617">
        <ele>894</ele>
        <time>2024-12-08T05:03:21.619Z</time>
      </trkpt>
      <trkpt lat="45.94333" lon="3.87617">
        <ele>894</ele>
        <time>2024-12-08T05:03:22.620Z</time>
      </trkpt>
      <trkpt lat="45.94335" lon="3.87616">
        <ele>894</ele>
        <time>2024-12-08T05:03:23.619Z</time>
      </trkpt>
      <trkpt lat="45.94337" lon="3.87616">
        <ele>894</ele>
        <time>2024-12-08T05:03:24.620Z</time>
      </trkpt>
      <trkpt lat="45.94338" lon="3.87616">
        <ele>895</ele>
        <time>2024-12-08T05:03:25.620Z</time>
      </trkpt>
      <trkpt lat="45.9434" lon="3.87615">
        <ele>895</ele>
        <time>2024-12-08T05:03:26.619Z</time>
      </trkpt>
      <trkpt lat="45.94341" lon="3.87614">
        <ele>895</ele>
        <time>2024-12-08T05:03:27.620Z</time>
      </trkpt>
      <trkpt lat="45.94342" lon="3.87614">
        <ele>894</ele>
        <time>2024-12-08T05:03:28.619Z</time>
      </trkpt>
      <trkpt lat="45.94343" lon="3.87613">
        <ele>894</ele>
        <time>2024-12-08T05:03:29.619Z</time>
      </trkpt>
      <trkpt lat="45.94345" lon="3.87613">
        <ele>894</ele>
        <time>2024-12-08T05:03:30.619Z</time>
      </trkpt>
      <trkpt lat="45.94346" lon="3.87613">
        <ele>894</ele>
        <time>2024-12-08T05:03:31.620Z</time>
      </trkpt>
      <trkpt lat="45.94348" lon="3.87612">
        <ele>894</ele>
        <time>2024-12-08T05:03:32.620Z</time>
      </trkpt>
      <trkpt lat="45.9435" lon="3.87612">
        <ele>894</ele>
        <time>2024-12-08T05:03:33.620Z</time>
      </trkpt>
      <trkpt lat="45.94352" lon="3.87612">
        <ele>894</ele>
        <time>2024-12-08T05:03:34.620Z</time>
      </trkpt>
      <trkpt lat="45.94353" lon="3.87611">
        <ele>893</ele>
        <time>2024-12-08T05:03:35.619Z</time>
      </trkpt>
      <trkpt lat="45.94355" lon="3.8761">
        <ele>893</ele>
        <time>2024-12-08T05:03:36.620Z</time>
      </trkpt>
      <trkpt lat="45.94356" lon="3.87609">
        <ele>893</ele>
        <time>2024-12-08T05:03:37.620Z</time>
      </trkpt>
      <trkpt lat="45.94358" lon="3.87608">
        <ele>893</ele>
        <time>2024-12-08T05:03:38.619Z</time>
      </trkpt>
      <trkpt lat="45.94359" lon="3.87607">
        <ele>893</ele>
        <time>2024-12-08T05:03:39.620Z</time>
      </trkpt>
      <trkpt lat="45.94361" lon="3.87605">
        <ele>893</ele>
        <time>2024-12-08T05:03:40.619Z</time>
      </trkpt>
      <trkpt lat="45.94363" lon="3.87604">
        <ele>893</ele>
        <time>2024-12-08T05:03:41.620Z</time>
      </trkpt>
      <trkpt lat="45.94364" lon="3.87603">
        <ele>893</ele>
        <time>2024-12-08T05:03:42.620Z</time>
      </trkpt>
      <trkpt lat="45.94365" lon="3.87602">
        <ele>893</ele>
        <time>2024-12-08T05:03:43.620Z</time>
      </trkpt>
      <trkpt lat="45.94366" lon="3.876">
        <ele>893</ele>
        <time>2024-12-08T05:03:44.620Z</time>
      </trkpt>
      <trkpt lat="45.94368" lon="3.876">
        <ele>893</ele>
        <time>2024-12-08T05:03:45.619Z</time>
      </trkpt>
      <trkpt lat="45.94369" lon="3.87599">
        <ele>893</ele>
        <time>2024-12-08T05:03:46.620Z</time>
      </trkpt>
      <trkpt lat="45.9437" lon="3.87598">
        <ele>893</ele>
        <time>2024-12-08T05:03:47.620Z</time>
      </trkpt>
      <trkpt lat="45.94371" lon="3.87597">
        <ele>894</ele>
        <time>2024-12-08T05:03:48.619Z</time>
      </trkpt>
      <trkpt lat="45.94374" lon="3.87596">
        <ele>894</ele>
        <time>2024-12-08T05:03:49.620Z</time>
      </trkpt>
      <trkpt lat="45.94374" lon="3.87595">
        <ele>894</ele>
        <time>2024-12-08T05:03:50.619Z</time>
      </trkpt>
      <trkpt lat="45.94376" lon="3.87595">
        <ele>894</ele>
        <time>2024-12-08T05:03:51.619Z</time>
      </trkpt>
      <trkpt lat="45.94377" lon="3.87594">
        <ele>894</ele>
        <time>2024-12-08T05:03:52.619Z</time>
      </trkpt>
      <trkpt lat="45.94378" lon="3.87592">
        <ele>894</ele>
        <time>2024-12-08T05:03:53.620Z</time>
      </trkpt>
      <trkpt lat="45.9438" lon="3.8759">
        <ele>895</ele>
        <time>2024-12-08T05:03:54.620Z</time>
      </trkpt>
      <trkpt lat="45.94382" lon="3.87589">
        <ele>895</ele>
        <time>2024-12-08T05:03:55.620Z</time>
      </trkpt>
      <trkpt lat="45.94383" lon="3.87589">
        <ele>895</ele>
        <time>2024-12-08T05:03:56.620Z</time>
      </trkpt>
      <trkpt lat="45.94385" lon="3.87588">
        <ele>895</ele>
        <time>2024-12-08T05:03:57.619Z</time>
      </trkpt>
      <trkpt lat="45.94387" lon="3.87587">
        <ele>896</ele>
        <time>2024-12-08T05:03:58.619Z</time>
      </trkpt>
      <trkpt lat="45.94389" lon="3.87586">
        <ele>896</ele>
        <time>2024-12-08T05:03:59.620Z</time>
      </trkpt>
      <trkpt lat="45.94391" lon="3.87584">
        <ele>896</ele>
        <time>2024-12-08T05:04:00.619Z</time>
      </trkpt>
      <trkpt lat="45.94393" lon="3.87583">
        <ele>896</ele>
        <time>2024-12-08T05:04:01.620Z</time>
      </trkpt>
      <trkpt lat="45.94396" lon="3.87584">
        <ele>896</ele>
        <time>2024-12-08T05:04:02.619Z</time>
      </trkpt>
      <trkpt lat="45.94398" lon="3.87584">
        <ele>896</ele>
        <time>2024-12-08T05:04:03.620Z</time>
      </trkpt>
      <trkpt lat="45.944" lon="3.87584">
        <ele>895</ele>
        <time>2024-12-08T05:04:04.619Z</time>
      </trkpt>
      <trkpt lat="45.94401" lon="3.87584">
        <ele>895</ele>
        <time>2024-12-08T05:04:05.620Z</time>
      </trkpt>
      <trkpt lat="45.94402" lon="3.87583">
        <ele>895</ele>
        <time>2024-12-08T05:04:06.619Z</time>
      </trkpt>
      <trkpt lat="45.94403" lon="3.87583">
        <ele>895</ele>
        <time>2024-12-08T05:04:07.619Z</time>
      </trkpt>
      <trkpt lat="45.94404" lon="3.87581">
        <ele>895</ele>
        <time>2024-12-08T05:04:08.620Z</time>
      </trkpt>
      <trkpt lat="45.94405" lon="3.8758">
        <ele>895</ele>
        <time>2024-12-08T05:04:09.620Z</time>
      </trkpt>
      <trkpt lat="45.94406" lon="3.8758">
        <ele>894</ele>
        <time>2024-12-08T05:04:10.620Z</time>
      </trkpt>
      <trkpt lat="45.94407" lon="3.87579">
        <ele>894</ele>
        <time>2024-12-08T05:04:11.619Z</time>
      </trkpt>
      <trkpt lat="45.94408" lon="3.87579">
        <ele>894</ele>
        <time>2024-12-08T05:04:12.620Z</time>
      </trkpt>
      <trkpt lat="45.94409" lon="3.87579">
        <ele>894</ele>
        <time>2024-12-08T05:04:13.619Z</time>
      </trkpt>
      <trkpt lat="45.9441" lon="3.87579">
        <ele>893</ele>
        <time>2024-12-08T05:04:14.620Z</time>
      </trkpt>
      <trkpt lat="45.9441" lon="3.87578">
        <ele>893</ele>
        <time>2024-12-08T05:04:15.619Z</time>
      </trkpt>
      <trkpt lat="45.94411" lon="3.87579">
        <ele>893</ele>
        <time>2024-12-08T05:04:16.619Z</time>
      </trkpt>
      <trkpt lat="45.94413" lon="3.87579">
        <ele>893</ele>
        <time>2024-12-08T05:04:17.619Z</time>
      </trkpt>
      <trkpt lat="45.94414" lon="3.87578">
        <ele>892</ele>
        <time>2024-12-08T05:04:18.620Z</time>
      </trkpt>
      <trkpt lat="45.94415" lon="3.87577">
        <ele>892</ele>
        <time>2024-12-08T05:04:19.620Z</time>
      </trkpt>
      <trkpt lat="45.94417" lon="3.87574">
        <ele>892</ele>
        <time>2024-12-08T05:04:20.620Z</time>
      </trkpt>
      <trkpt lat="45.94418" lon="3.87572">
        <ele>892</ele>
        <time>2024-12-08T05:04:21.619Z</time>
      </trkpt>
      <trkpt lat="45.9442" lon="3.8757">
        <ele>892</ele>
        <time>2024-12-08T05:04:22.619Z</time>
      </trkpt>
      <trkpt lat="45.94421" lon="3.8757">
        <ele>892</ele>
        <time>2024-12-08T05:04:23.620Z</time>
      </trkpt>
      <trkpt lat="45.94424" lon="3.87569">
        <ele>891</ele>
        <time>2024-12-08T05:04:24.620Z</time>
      </trkpt>
      <trkpt lat="45.94426" lon="3.87569">
        <ele>891</ele>
        <time>2024-12-08T05:04:25.619Z</time>
      </trkpt>
      <trkpt lat="45.94428" lon="3.87569">
        <ele>891</ele>
        <time>2024-12-08T05:04:26.619Z</time>
      </trkpt>
      <trkpt lat="45.94429" lon="3.87569">
        <ele>891</ele>
        <time>2024-12-08T05:04:27.620Z</time>
      </trkpt>
      <trkpt lat="45.9443" lon="3.87569">
        <ele>892</ele>
        <time>2024-12-08T05:04:28.619Z</time>
      </trkpt>
      <trkpt lat="45.94432" lon="3.87569">
        <ele>892</ele>
        <time>2024-12-08T05:04:29.620Z</time>
      </trkpt>
      <trkpt lat="45.94434" lon="3.87569">
        <ele>893</ele>
        <time>2024-12-08T05:04:30.619Z</time>
      </trkpt>
      <trkpt lat="45.94435" lon="3.87568">
        <ele>893</ele>
        <time>2024-12-08T05:04:31.620Z</time>
      </trkpt>
      <trkpt lat="45.94437" lon="3.87568">
        <ele>894</ele>
        <time>2024-12-08T05:04:32.620Z</time>
      </trkpt>
      <trkpt lat="45.94438" lon="3.87568">
        <ele>894</ele>
        <time>2024-12-08T05:04:33.619Z</time>
      </trkpt>
      <trkpt lat="45.94439" lon="3.87568">
        <ele>895</ele>
        <time>2024-12-08T05:04:34.619Z</time>
      </trkpt>
      <trkpt lat="45.9444" lon="3.87568">
        <ele>895</ele>
        <time>2024-12-08T05:04:35.619Z</time>
      </trkpt>
      <trkpt lat="45.94442" lon="3.87568">
        <ele>895</ele>
        <time>2024-12-08T05:04:36.620Z</time>
      </trkpt>
      <trkpt lat="45.94443" lon="3.87568">
        <ele>896</ele>
        <time>2024-12-08T05:04:37.620Z</time>
      </trkpt>
      <trkpt lat="45.94444" lon="3.87568">
        <ele>896</ele>
        <time>2024-12-08T05:04:38.619Z</time>
      </trkpt>
      <trkpt lat="45.94446" lon="3.87568">
        <ele>897</ele>
        <time>2024-12-08T05:04:39.620Z</time>
      </trkpt>
      <trkpt lat="45.94447" lon="3.87568">
        <ele>897</ele>
        <time>2024-12-08T05:04:40.620Z</time>
      </trkpt>
      <trkpt lat="45.94449" lon="3.87568">
        <ele>897</ele>
        <time>2024-12-08T05:04:41.620Z</time>
      </trkpt>
      <trkpt lat="45.9445" lon="3.87567">
        <ele>898</ele>
        <time>2024-12-08T05:04:42.620Z</time>
      </trkpt>
      <trkpt lat="45.94452" lon="3.87566">
        <ele>898</ele>
        <time>2024-12-08T05:04:43.620Z</time>
      </trkpt>
      <trkpt lat="45.94454" lon="3.87565">
        <ele>898</ele>
        <time>2024-12-08T05:04:44.619Z</time>
      </trkpt>
      <trkpt lat="45.94455" lon="3.87564">
        <ele>898</ele>
        <time>2024-12-08T05:04:45.620Z</time>
      </trkpt>
      <trkpt lat="45.94457" lon="3.87564">
        <ele>898</ele>
        <time>2024-12-08T05:04:46.619Z</time>
      </trkpt>
      <trkpt lat="45.94459" lon="3.87564">
        <ele>899</ele>
        <time>2024-12-08T05:04:47.619Z</time>
      </trkpt>
      <trkpt lat="45.9446" lon="3.87564">
        <ele>899</ele>
        <time>2024-12-08T05:04:48.619Z</time>
      </trkpt>
      <trkpt lat="45.94462" lon="3.87565">
        <ele>899</ele>
        <time>2024-12-08T05:04:49.619Z</time>
      </trkpt>
      <trkpt lat="45.94463" lon="3.87564">
        <ele>899</ele>
        <time>2024-12-08T05:04:50.619Z</time>
      </trkpt>
      <trkpt lat="45.94466" lon="3.87564">
        <ele>899</ele>
        <time>2024-12-08T05:04:51.620Z</time>
      </trkpt>
      <trkpt lat="45.94469" lon="3.87564">
        <ele>899</ele>
        <time>2024-12-08T05:04:52.620Z</time>
      </trkpt>
      <trkpt lat="45.94471" lon="3.87564">
        <ele>899</ele>
        <time>2024-12-08T05:04:53.620Z</time>
      </trkpt>
      <trkpt lat="45.94472" lon="3.87565">
        <ele>899</ele>
        <time>2024-12-08T05:04:54.619Z</time>
      </trkpt>
      <trkpt lat="45.94474" lon="3.87566">
        <ele>899</ele>
        <time>2024-12-08T05:04:55.619Z</time>
      </trkpt>
      <trkpt lat="45.94476" lon="3.87566">
        <ele>899</ele>
        <time>2024-12-08T05:04:56.620Z</time>
      </trkpt>
      <trkpt lat="45.94478" lon="3.87566">
        <ele>899</ele>
        <time>2024-12-08T05:04:57.620Z</time>
      </trkpt>
      <trkpt lat="45.9448" lon="3.87566">
        <ele>899</ele>
        <time>2024-12-08T05:04:58.620Z</time>
      </trkpt>
      <trkpt lat="45.9448" lon="3.87566">
        <ele>899</ele>
        <time>2024-12-08T05:04:59.619Z</time>
      </trkpt>
      <trkpt lat="45.94482" lon="3.87565">
        <ele>899</ele>
        <time>2024-12-08T05:05:00.620Z</time>
      </trkpt>
      <trkpt lat="45.94483" lon="3.87565">
        <ele>899</ele>
        <time>2024-12-08T05:05:01.619Z</time>
      </trkpt>
      <trkpt lat="45.94484" lon="3.87565">
        <ele>899</ele>
        <time>2024-12-08T05:05:02.620Z</time>
      </trkpt>
      <trkpt lat="45.94486" lon="3.87567">
        <ele>899</ele>
        <time>2024-12-08T05:05:03.619Z</time>
      </trkpt>
      <trkpt lat="45.94486" lon="3.87569">
        <ele>899</ele>
        <time>2024-12-08T05:05:04.619Z</time>
      </trkpt>
      <trkpt lat="45.94488" lon="3.87571">
        <ele>899</ele>
        <time>2024-12-08T05:05:05.620Z</time>
      </trkpt>
      <trkpt lat="45.9449" lon="3.87572">
        <ele>899</ele>
        <time>2024-12-08T05:05:06.619Z</time>
      </trkpt>
      <trkpt lat="45.94492" lon="3.87573">
        <ele>899</ele>
        <time>2024-12-08T05:05:07.619Z</time>
      </trkpt>
      <trkpt lat="45.94494" lon="3.87574">
        <ele>899</ele>
        <time>2024-12-08T05:05:08.619Z</time>
      </trkpt>
      <trkpt lat="45.94496" lon="3.87574">
        <ele>899</ele>
        <time>2024-12-08T05:05:09.620Z</time>
      </trkpt>
      <trkpt lat="45.94499" lon="3.87575">
        <ele>899</ele>
        <time>2024-12-08T05:05:10.619Z</time>
      </trkpt>
      <trkpt lat="45.945" lon="3.87575">
        <ele>899</ele>
        <time>2024-12-08T05:05:11.619Z</time>
      </trkpt>
      <trkpt lat="45.94501" lon="3.87576">
        <ele>899</ele>
        <time>2024-12-08T05:05:12.619Z</time>
      </trkpt>
      <trkpt lat="45.94502" lon="3.87578">
        <ele>898</ele>
        <time>2024-12-08T05:05:13.619Z</time>
      </trkpt>
      <trkpt lat="45.94504" lon="3.87579">
        <ele>898</ele>
        <time>2024-12-08T05:05:14.620Z</time>
      </trkpt>
      <trkpt lat="45.94506" lon="3.87579">
        <ele>897</ele>
        <time>2024-12-08T05:05:15.619Z</time>
      </trkpt>
      <trkpt lat="45.94508" lon="3.8758">
        <ele>897</ele>
        <time>2024-12-08T05:05:16.619Z</time>
      </trkpt>
      <trkpt lat="45.94509" lon="3.87581">
        <ele>896</ele>
        <time>2024-12-08T05:05:17.619Z</time>
      </trkpt>
      <trkpt lat="45.94511" lon="3.87583">
        <ele>896</ele>
        <time>2024-12-08T05:05:18.619Z</time>
      </trkpt>
      <trkpt lat="45.94513" lon="3.87584">
        <ele>896</ele>
        <time>2024-12-08T05:05:19.619Z</time>
      </trkpt>
      <trkpt lat="45.94515" lon="3.87585">
        <ele>895</ele>
        <time>2024-12-08T05:05:20.619Z</time>
      </trkpt>
      <trkpt lat="45.94515" lon="3.87587">
        <ele>895</ele>
        <time>2024-12-08T05:05:21.620Z</time>
      </trkpt>
      <trkpt lat="45.94516" lon="3.87588">
        <ele>895</ele>
        <time>2024-12-08T05:05:22.619Z</time>
      </trkpt>
      <trkpt lat="45.94517" lon="3.87589">
        <ele>895</ele>
        <time>2024-12-08T05:05:23.619Z</time>
      </trkpt>
      <trkpt lat="45.94517" lon="3.87591">
        <ele>895</ele>
        <time>2024-12-08T05:05:24.620Z</time>
      </trkpt>
      <trkpt lat="45.94518" lon="3.87592">
        <ele>894</ele>
        <time>2024-12-08T05:05:25.620Z</time>
      </trkpt>
      <trkpt lat="45.94519" lon="3.87593">
        <ele>894</ele>
        <time>2024-12-08T05:05:26.619Z</time>
      </trkpt>
      <trkpt lat="45.9452" lon="3.87593">
        <ele>894</ele>
        <time>2024-12-08T05:05:27.620Z</time>
      </trkpt>
      <trkpt lat="45.9452" lon="3.87595">
        <ele>894</ele>
        <time>2024-12-08T05:05:28.619Z</time>
      </trkpt>
      <trkpt lat="45.94521" lon="3.87596">
        <ele>894</ele>
        <time>2024-12-08T05:05:29.619Z</time>
      </trkpt>
      <trkpt lat="45.94523" lon="3.87598">
        <ele>895</ele>
        <time>2024-12-08T05:05:30.620Z</time>
      </trkpt>
      <trkpt lat="45.94524" lon="3.87599">
        <ele>895</ele>
        <time>2024-12-08T05:05:31.620Z</time>
      </trkpt>
      <trkpt lat="45.94525" lon="3.87601">
        <ele>895</ele>
        <time>2024-12-08T05:05:32.620Z</time>
      </trkpt>
      <trkpt lat="45.94526" lon="3.87603">
        <ele>894</ele>
        <time>2024-12-08T05:05:33.619Z</time>
      </trkpt>
      <trkpt lat="45.94527" lon="3.87605">
        <ele>894</ele>
        <time>2024-12-08T05:05:34.620Z</time>
      </trkpt>
      <trkpt lat="45.94528" lon="3.87608">
        <ele>893</ele>
        <time>2024-12-08T05:05:35.620Z</time>
      </trkpt>
      <trkpt lat="45.94529" lon="3.8761">
        <ele>893</ele>
        <time>2024-12-08T05:05:36.619Z</time>
      </trkpt>
      <trkpt lat="45.9453" lon="3.87612">
        <ele>892</ele>
        <time>2024-12-08T05:05:37.619Z</time>
      </trkpt>
      <trkpt lat="45.94531" lon="3.87614">
        <ele>892</ele>
        <time>2024-12-08T05:05:38.619Z</time>
      </trkpt>
      <trkpt lat="45.94532" lon="3.87616">
        <ele>892</ele>
        <time>2024-12-08T05:05:39.619Z</time>
      </trkpt>
      <trkpt lat="45.94533" lon="3.87619">
        <ele>892</ele>
        <time>2024-12-08T05:05:40.620Z</time>
      </trkpt>
      <trkpt lat="45.94534" lon="3.87621">
        <ele>891</ele>
        <time>2024-12-08T05:05:41.619Z</time>
      </trkpt>
      <trkpt lat="45.94534" lon="3.87623">
        <ele>891</ele>
        <time>2024-12-08T05:05:42.620Z</time>
      </trkpt>
      <trkpt lat="45.94534" lon="3.87625">
        <ele>892</ele>
        <time>2024-12-08T05:05:43.620Z</time>
      </trkpt>
      <trkpt lat="45.94535" lon="3.87627">
        <ele>892</ele>
        <time>2024-12-08T05:05:44.620Z</time>
      </trkpt>
      <trkpt lat="45.94536" lon="3.87628">
        <ele>892</ele>
        <time>2024-12-08T05:05:45.620Z</time>
      </trkpt>
      <trkpt lat="45.94537" lon="3.8763">
        <ele>892</ele>
        <time>2024-12-08T05:05:46.620Z</time>
      </trkpt>
      <trkpt lat="45.94538" lon="3.87632">
        <ele>892</ele>
        <time>2024-12-08T05:05:47.620Z</time>
      </trkpt>
      <trkpt lat="45.94539" lon="3.87633">
        <ele>891</ele>
        <time>2024-12-08T05:05:48.619Z</time>
      </trkpt>
      <trkpt lat="45.94539" lon="3.87635">
        <ele>891</ele>
        <time>2024-12-08T05:05:49.620Z</time>
      </trkpt>
      <trkpt lat="45.94539" lon="3.87637">
        <ele>891</ele>
        <time>2024-12-08T05:05:50.619Z</time>
      </trkpt>
      <trkpt lat="45.9454" lon="3.87639">
        <ele>891</ele>
        <time>2024-12-08T05:05:51.619Z</time>
      </trkpt>
      <trkpt lat="45.94541" lon="3.87641">
        <ele>891</ele>
        <time>2024-12-08T05:05:52.619Z</time>
      </trkpt>
      <trkpt lat="45.94542" lon="3.87644">
        <ele>891</ele>
        <time>2024-12-08T05:05:53.620Z</time>
      </trkpt>
      <trkpt lat="45.94542" lon="3.87646">
        <ele>890</ele>
        <time>2024-12-08T05:05:54.619Z</time>
      </trkpt>
      <trkpt lat="45.94543" lon="3.87648">
        <ele>890</ele>
        <time>2024-12-08T05:05:55.620Z</time>
      </trkpt>
      <trkpt lat="45.94544" lon="3.87651">
        <ele>891</ele>
        <time>2024-12-08T05:05:56.620Z</time>
      </trkpt>
      <trkpt lat="45.94544" lon="3.87653">
        <ele>890</ele>
        <time>2024-12-08T05:05:57.620Z</time>
      </trkpt>
      <trkpt lat="45.94544" lon="3.87656">
        <ele>890</ele>
        <time>2024-12-08T05:05:58.620Z</time>
      </trkpt>
      <trkpt lat="45.94545" lon="3.87658">
        <ele>890</ele>
        <time>2024-12-08T05:05:59.619Z</time>
      </trkpt>
      <trkpt lat="45.94546" lon="3.87659">
        <ele>890</ele>
        <time>2024-12-08T05:06:00.619Z</time>
      </trkpt>
      <trkpt lat="45.94547" lon="3.87661">
        <ele>890</ele>
        <time>2024-12-08T05:06:01.619Z</time>
      </trkpt>
      <trkpt lat="45.94547" lon="3.87664">
        <ele>890</ele>
        <time>2024-12-08T05:06:02.620Z</time>
      </trkpt>
      <trkpt lat="45.94547" lon="3.87666">
        <ele>890</ele>
        <time>2024-12-08T05:06:03.619Z</time>
      </trkpt>
      <trkpt lat="45.94548" lon="3.87669">
        <ele>890</ele>
        <time>2024-12-08T05:06:04.620Z</time>
      </trkpt>
      <trkpt lat="45.94548" lon="3.87671">
        <ele>890</ele>
        <time>2024-12-08T05:06:05.620Z</time>
      </trkpt>
      <trkpt lat="45.94548" lon="3.87672">
        <ele>889</ele>
        <time>2024-12-08T05:06:06.619Z</time>
      </trkpt>
      <trkpt lat="45.94548" lon="3.87674">
        <ele>889</ele>
        <time>2024-12-08T05:06:07.620Z</time>
      </trkpt>
      <trkpt lat="45.94549" lon="3.87676">
        <ele>888</ele>
        <time>2024-12-08T05:06:08.620Z</time>
      </trkpt>
      <trkpt lat="45.94549" lon="3.87678">
        <ele>888</ele>
        <time>2024-12-08T05:06:09.620Z</time>
      </trkpt>
      <trkpt lat="45.9455" lon="3.8768">
        <ele>888</ele>
        <time>2024-12-08T05:06:10.620Z</time>
      </trkpt>
      <trkpt lat="45.9455" lon="3.87682">
        <ele>888</ele>
        <time>2024-12-08T05:06:11.620Z</time>
      </trkpt>
      <trkpt lat="45.94551" lon="3.87685">
        <ele>888</ele>
        <time>2024-12-08T05:06:12.619Z</time>
      </trkpt>
      <trkpt lat="45.94552" lon="3.87687">
        <ele>888</ele>
        <time>2024-12-08T05:06:13.619Z</time>
      </trkpt>
      <trkpt lat="45.94552" lon="3.87689">
        <ele>888</ele>
        <time>2024-12-08T05:06:14.620Z</time>
      </trkpt>
      <trkpt lat="45.94553" lon="3.87691">
        <ele>888</ele>
        <time>2024-12-08T05:06:15.619Z</time>
      </trkpt>
      <trkpt lat="45.94553" lon="3.87693">
        <ele>888</ele>
        <time>2024-12-08T05:06:16.619Z</time>
      </trkpt>
      <trkpt lat="45.94554" lon="3.87695">
        <ele>888</ele>
        <time>2024-12-08T05:06:17.619Z</time>
      </trkpt>
      <trkpt lat="45.94554" lon="3.87697">
        <ele>889</ele>
        <time>2024-12-08T05:06:18.620Z</time>
      </trkpt>
      <trkpt lat="45.94555" lon="3.87699">
        <ele>889</ele>
        <time>2024-12-08T05:06:19.619Z</time>
      </trkpt>
      <trkpt lat="45.94555" lon="3.87701">
        <ele>889</ele>
        <time>2024-12-08T05:06:20.620Z</time>
      </trkpt>
      <trkpt lat="45.94555" lon="3.87704">
        <ele>890</ele>
        <time>2024-12-08T05:06:21.620Z</time>
      </trkpt>
      <trkpt lat="45.94556" lon="3.87706">
        <ele>890</ele>
        <time>2024-12-08T05:06:22.619Z</time>
      </trkpt>
      <trkpt lat="45.94557" lon="3.87708">
        <ele>890</ele>
        <time>2024-12-08T05:06:23.620Z</time>
      </trkpt>
      <trkpt lat="45.94557" lon="3.87711">
        <ele>890</ele>
        <time>2024-12-08T05:06:24.620Z</time>
      </trkpt>
      <trkpt lat="45.94557" lon="3.87713">
        <ele>890</ele>
        <time>2024-12-08T05:06:25.620Z</time>
      </trkpt>
      <trkpt lat="45.94558" lon="3.87715">
        <ele>890</ele>
        <time>2024-12-08T05:06:26.619Z</time>
      </trkpt>
      <trkpt lat="45.94558" lon="3.87717">
        <ele>890</ele>
        <time>2024-12-08T05:06:27.619Z</time>
      </trkpt>
      <trkpt lat="45.94558" lon="3.8772">
        <ele>890</ele>
        <time>2024-12-08T05:06:28.619Z</time>
      </trkpt>
      <trkpt lat="45.94559" lon="3.87722">
        <ele>890</ele>
        <time>2024-12-08T05:06:29.620Z</time>
      </trkpt>
      <trkpt lat="45.94559" lon="3.87724">
        <ele>890</ele>
        <time>2024-12-08T05:06:30.619Z</time>
      </trkpt>
      <trkpt lat="45.9456" lon="3.87726">
        <ele>890</ele>
        <time>2024-12-08T05:06:31.619Z</time>
      </trkpt>
      <trkpt lat="45.9456" lon="3.87728">
        <ele>891</ele>
        <time>2024-12-08T05:06:32.619Z</time>
      </trkpt>
      <trkpt lat="45.9456" lon="3.8773">
        <ele>891</ele>
        <time>2024-12-08T05:06:33.620Z</time>
      </trkpt>
      <trkpt lat="45.94561" lon="3.87733">
        <ele>891</ele>
        <time>2024-12-08T05:06:34.620Z</time>
      </trkpt>
      <trkpt lat="45.94562" lon="3.87735">
        <ele>891</ele>
        <time>2024-12-08T05:06:35.620Z</time>
      </trkpt>
      <trkpt lat="45.94562" lon="3.87737">
        <ele>892</ele>
        <time>2024-12-08T05:06:36.620Z</time>
      </trkpt>
      <trkpt lat="45.94563" lon="3.87739">
        <ele>892</ele>
        <time>2024-12-08T05:06:37.619Z</time>
      </trkpt>
      <trkpt lat="45.94563" lon="3.87741">
        <ele>893</ele>
        <time>2024-12-08T05:06:38.620Z</time>
      </trkpt>
      <trkpt lat="45.94563" lon="3.87744">
        <ele>893</ele>
        <time>2024-12-08T05:06:39.619Z</time>
      </trkpt>
      <trkpt lat="45.94564" lon="3.87746">
        <ele>893</ele>
        <time>2024-12-08T05:06:40.620Z</time>
      </trkpt>
      <trkpt lat="45.94565" lon="3.87748">
        <ele>894</ele>
        <time>2024-12-08T05:06:41.619Z</time>
      </trkpt>
      <trkpt lat="45.94566" lon="3.8775">
        <ele>894</ele>
        <time>2024-12-08T05:06:42.619Z</time>
      </trkpt>
      <trkpt lat="45.94566" lon="3.87753">
        <ele>894</ele>
        <time>2024-12-08T05:06:43.619Z</time>
      </trkpt>
      <trkpt lat="45.94567" lon="3.87755">
        <ele>894</ele>
        <time>2024-12-08T05:06:44.619Z</time>
      </trkpt>
      <trkpt lat="45.94567" lon="3.87757">
        <ele>894</ele>
        <time>2024-12-08T05:06:45.619Z</time>
      </trkpt>
      <trkpt lat="45.94568" lon="3.87759">
        <ele>894</ele>
        <time>2024-12-08T05:06:46.620Z</time>
      </trkpt>
      <trkpt lat="45.94569" lon="3.8776">
        <ele>894</ele>
        <time>2024-12-08T05:06:47.620Z</time>
      </trkpt>
      <trkpt lat="45.9457" lon="3.87762">
        <ele>894</ele>
        <time>2024-12-08T05:06:48.619Z</time>
      </trkpt>
      <trkpt lat="45.94571" lon="3.87764">
        <ele>894</ele>
        <time>2024-12-08T05:06:49.620Z</time>
      </trkpt>
      <trkpt lat="45.94572" lon="3.87766">
        <ele>894</ele>
        <time>2024-12-08T05:06:50.619Z</time>
      </trkpt>
      <trkpt lat="45.94573" lon="3.87768">
        <ele>894</ele>
        <time>2024-12-08T05:06:51.619Z</time>
      </trkpt>
      <trkpt lat="45.94574" lon="3.8777">
        <ele>894</ele>
        <time>2024-12-08T05:06:52.619Z</time>
      </trkpt>
      <trkpt lat="45.94575" lon="3.87772">
        <ele>894</ele>
        <time>2024-12-08T05:06:53.619Z</time>
      </trkpt>
      <trkpt lat="45.94576" lon="3.87774">
        <ele>894</ele>
        <time>2024-12-08T05:06:54.619Z</time>
      </trkpt>
      <trkpt lat="45.94577" lon="3.87776">
        <ele>894</ele>
        <time>2024-12-08T05:06:55.619Z</time>
      </trkpt>
      <trkpt lat="45.94578" lon="3.87778">
        <ele>894</ele>
        <time>2024-12-08T05:06:56.619Z</time>
      </trkpt>
      <trkpt lat="45.94579" lon="3.8778">
        <ele>894</ele>
        <time>2024-12-08T05:06:57.619Z</time>
      </trkpt>
      <trkpt lat="45.9458" lon="3.87782">
        <ele>894</ele>
        <time>2024-12-08T05:06:58.620Z</time>
      </trkpt>
      <trkpt lat="45.94581" lon="3.87783">
        <ele>894</ele>
        <time>2024-12-08T05:06:59.619Z</time>
      </trkpt>
      <trkpt lat="45.94582" lon="3.87785">
        <ele>894</ele>
        <time>2024-12-08T05:07:00.619Z</time>
      </trkpt>
      <trkpt lat="45.94583" lon="3.87786">
        <ele>894</ele>
        <time>2024-12-08T05:07:01.619Z</time>
      </trkpt>
      <trkpt lat="45.94584" lon="3.87788">
        <ele>894</ele>
        <time>2024-12-08T05:07:02.619Z</time>
      </trkpt>
      <trkpt lat="45.94586" lon="3.87789">
        <ele>894</ele>
        <time>2024-12-08T05:07:03.620Z</time>
      </trkpt>
      <trkpt lat="45.94587" lon="3.8779">
        <ele>894</ele>
        <time>2024-12-08T05:07:04.619Z</time>
      </trkpt>
      <trkpt lat="45.94588" lon="3.87792">
        <ele>893</ele>
        <time>2024-12-08T05:07:05.619Z</time>
      </trkpt>
      <trkpt lat="45.9459" lon="3.87793">
        <ele>893</ele>
        <time>2024-12-08T05:07:06.619Z</time>
      </trkpt>
      <trkpt lat="45.94591" lon="3.87795">
        <ele>893</ele>
        <time>2024-12-08T05:07:07.619Z</time>
      </trkpt>
      <trkpt lat="45.94592" lon="3.87797">
        <ele>893</ele>
        <time>2024-12-08T05:07:08.620Z</time>
      </trkpt>
      <trkpt lat="45.94593" lon="3.87798">
        <ele>893</ele>
        <time>2024-12-08T05:07:09.619Z</time>
      </trkpt>
      <trkpt lat="45.94595" lon="3.878">
        <ele>893</ele>
        <time>2024-12-08T05:07:10.619Z</time>
      </trkpt>
      <trkpt lat="45.94596" lon="3.87802">
        <ele>893</ele>
        <time>2024-12-08T05:07:11.619Z</time>
      </trkpt>
      <trkpt lat="45.94597" lon="3.87803">
        <ele>893</ele>
        <time>2024-12-08T05:07:12.619Z</time>
      </trkpt>
      <trkpt lat="45.94599" lon="3.87804">
        <ele>894</ele>
        <time>2024-12-08T05:07:13.620Z</time>
      </trkpt>
      <trkpt lat="45.946" lon="3.87805">
        <ele>894</ele>
        <time>2024-12-08T05:07:14.619Z</time>
      </trkpt>
      <trkpt lat="45.94601" lon="3.87807">
        <ele>894</ele>
        <time>2024-12-08T05:07:15.619Z</time>
      </trkpt>
      <trkpt lat="45.94602" lon="3.87809">
        <ele>894</ele>
        <time>2024-12-08T05:07:16.620Z</time>
      </trkpt>
      <trkpt lat="45.94604" lon="3.8781">
        <ele>894</ele>
        <time>2024-12-08T05:07:17.619Z</time>
      </trkpt>
      <trkpt lat="45.94606" lon="3.87811">
        <ele>894</ele>
        <time>2024-12-08T05:07:18.620Z</time>
      </trkpt>
      <trkpt lat="45.94607" lon="3.87811">
        <ele>894</ele>
        <time>2024-12-08T05:07:19.619Z</time>
      </trkpt>
      <trkpt lat="45.94608" lon="3.87812">
        <ele>895</ele>
        <time>2024-12-08T05:07:20.619Z</time>
      </trkpt>
      <trkpt lat="45.9461" lon="3.87812">
        <ele>895</ele>
        <time>2024-12-08T05:07:21.619Z</time>
      </trkpt>
      <trkpt lat="45.94611" lon="3.87814">
        <ele>895</ele>
        <time>2024-12-08T05:07:22.619Z</time>
      </trkpt>
      <trkpt lat="45.94612" lon="3.87814">
        <ele>895</ele>
        <time>2024-12-08T05:07:23.619Z</time>
      </trkpt>
      <trkpt lat="45.94613" lon="3.87815">
        <ele>896</ele>
        <time>2024-12-08T05:07:24.619Z</time>
      </trkpt>
      <trkpt lat="45.94614" lon="3.87816">
        <ele>896</ele>
        <time>2024-12-08T05:07:25.619Z</time>
      </trkpt>
      <trkpt lat="45.94615" lon="3.87817">
        <ele>897</ele>
        <time>2024-12-08T05:07:26.619Z</time>
      </trkpt>
      <trkpt lat="45.94616" lon="3.87817">
        <ele>897</ele>
        <time>2024-12-08T05:07:27.619Z</time>
      </trkpt>
      <trkpt lat="45.94617" lon="3.87818">
        <ele>898</ele>
        <time>2024-12-08T05:07:28.619Z</time>
      </trkpt>
      <trkpt lat="45.94618" lon="3.87819">
        <ele>898</ele>
        <time>2024-12-08T05:07:29.620Z</time>
      </trkpt>
      <trkpt lat="45.94619" lon="3.8782">
        <ele>898</ele>
        <time>2024-12-08T05:07:30.619Z</time>
      </trkpt>
      <trkpt lat="45.94621" lon="3.8782">
        <ele>899</ele>
        <time>2024-12-08T05:07:31.619Z</time>
      </trkpt>
      <trkpt lat="45.94622" lon="3.87821">
        <ele>899</ele>
        <time>2024-12-08T05:07:32.620Z</time>
      </trkpt>
      <trkpt lat="45.94624" lon="3.87821">
        <ele>899</ele>
        <time>2024-12-08T05:07:33.619Z</time>
      </trkpt>
      <trkpt lat="45.94625" lon="3.87821">
        <ele>900</ele>
        <time>2024-12-08T05:07:34.620Z</time>
      </trkpt>
      <trkpt lat="45.94627" lon="3.87821">
        <ele>900</ele>
        <time>2024-12-08T05:07:35.619Z</time>
      </trkpt>
      <trkpt lat="45.9463" lon="3.87821">
        <ele>900</ele>
        <time>2024-12-08T05:07:36.619Z</time>
      </trkpt>
      <trkpt lat="45.94631" lon="3.87821">
        <ele>900</ele>
        <time>2024-12-08T05:07:37.620Z</time>
      </trkpt>
      <trkpt lat="45.94633" lon="3.87822">
        <ele>901</ele>
        <time>2024-12-08T05:07:38.620Z</time>
      </trkpt>
      <trkpt lat="45.94634" lon="3.87822">
        <ele>901</ele>
        <time>2024-12-08T05:07:39.620Z</time>
      </trkpt>
      <trkpt lat="45.94636" lon="3.87823">
        <ele>901</ele>
        <time>2024-12-08T05:07:40.619Z</time>
      </trkpt>
      <trkpt lat="45.94638" lon="3.87823">
        <ele>901</ele>
        <time>2024-12-08T05:07:41.619Z</time>
      </trkpt>
      <trkpt lat="45.9464" lon="3.87823">
        <ele>901</ele>
        <time>2024-12-08T05:07:42.619Z</time>
      </trkpt>
      <trkpt lat="45.94642" lon="3.87823">
        <ele>901</ele>
        <time>2024-12-08T05:07:43.620Z</time>
      </trkpt>
      <trkpt lat="45.94643" lon="3.87823">
        <ele>901</ele>
        <time>2024-12-08T05:07:44.619Z</time>
      </trkpt>
      <trkpt lat="45.94645" lon="3.87823">
        <ele>901</ele>
        <time>2024-12-08T05:07:45.620Z</time>
      </trkpt>
      <trkpt lat="45.94646" lon="3.87823">
        <ele>901</ele>
        <time>2024-12-08T05:07:46.619Z</time>
      </trkpt>
      <trkpt lat="45.94648" lon="3.87822">
        <ele>901</ele>
        <time>2024-12-08T05:07:47.619Z</time>
      </trkpt>
      <trkpt lat="45.9465" lon="3.87822">
        <ele>902</ele>
        <time>2024-12-08T05:07:48.619Z</time>
      </trkpt>
      <trkpt lat="45.94652" lon="3.87821">
        <ele>902</ele>
        <time>2024-12-08T05:07:49.620Z</time>
      </trkpt>
      <trkpt lat="45.94654" lon="3.8782">
        <ele>902</ele>
        <time>2024-12-08T05:07:50.619Z</time>
      </trkpt>
      <trkpt lat="45.94656" lon="3.8782">
        <ele>902</ele>
        <time>2024-12-08T05:07:51.620Z</time>
      </trkpt>
      <trkpt lat="45.94658" lon="3.87819">
        <ele>903</ele>
        <time>2024-12-08T05:07:52.620Z</time>
      </trkpt>
      <trkpt lat="45.9466" lon="3.87818">
        <ele>903</ele>
        <time>2024-12-08T05:07:53.619Z</time>
      </trkpt>
      <trkpt lat="45.94662" lon="3.87817">
        <ele>903</ele>
        <time>2024-12-08T05:07:54.619Z</time>
      </trkpt>
      <trkpt lat="45.94663" lon="3.87816">
        <ele>903</ele>
        <time>2024-12-08T05:07:55.619Z</time>
      </trkpt>
      <trkpt lat="45.94665" lon="3.87816">
        <ele>903</ele>
        <time>2024-12-08T05:07:56.620Z</time>
      </trkpt>
      <trkpt lat="45.94667" lon="3.87816">
        <ele>903</ele>
        <time>2024-12-08T05:07:57.619Z</time>
      </trkpt>
      <trkpt lat="45.94668" lon="3.87815">
        <ele>903</ele>
        <time>2024-12-08T05:07:58.620Z</time>
      </trkpt>
      <trkpt lat="45.9467" lon="3.87814">
        <ele>903</ele>
        <time>2024-12-08T05:07:59.620Z</time>
      </trkpt>
      <trkpt lat="45.94671" lon="3.87813">
        <ele>903</ele>
        <time>2024-12-08T05:08:00.620Z</time>
      </trkpt>
      <trkpt lat="45.94673" lon="3.87812">
        <ele>902</ele>
        <time>2024-12-08T05:08:01.620Z</time>
      </trkpt>
      <trkpt lat="45.94675" lon="3.87811">
        <ele>902</ele>
        <time>2024-12-08T05:08:02.619Z</time>
      </trkpt>
      <trkpt lat="45.94676" lon="3.8781">
        <ele>902</ele>
        <time>2024-12-08T05:08:03.619Z</time>
      </trkpt>
      <trkpt lat="45.94678" lon="3.87809">
        <ele>901</ele>
        <time>2024-12-08T05:08:04.619Z</time>
      </trkpt>
      <trkpt lat="45.94679" lon="3.87808">
        <ele>901</ele>
        <time>2024-12-08T05:08:05.619Z</time>
      </trkpt>
      <trkpt lat="45.9468" lon="3.87808">
        <ele>901</ele>
        <time>2024-12-08T05:08:06.619Z</time>
      </trkpt>
      <trkpt lat="45.94681" lon="3.87806">
        <ele>901</ele>
        <time>2024-12-08T05:08:07.619Z</time>
      </trkpt>
      <trkpt lat="45.94682" lon="3.87805">
        <ele>901</ele>
        <time>2024-12-08T05:08:08.620Z</time>
      </trkpt>
      <trkpt lat="45.94683" lon="3.87804">
        <ele>900</ele>
        <time>2024-12-08T05:08:09.620Z</time>
      </trkpt>
      <trkpt lat="45.94685" lon="3.87803">
        <ele>900</ele>
        <time>2024-12-08T05:08:10.619Z</time>
      </trkpt>
      <trkpt lat="45.94686" lon="3.87802">
        <ele>900</ele>
        <time>2024-12-08T05:08:11.620Z</time>
      </trkpt>
      <trkpt lat="45.94687" lon="3.87801">
        <ele>900</ele>
        <time>2024-12-08T05:08:12.620Z</time>
      </trkpt>
      <trkpt lat="45.94688" lon="3.878">
        <ele>900</ele>
        <time>2024-12-08T05:08:13.619Z</time>
      </trkpt>
      <trkpt lat="45.94689" lon="3.87799">
        <ele>900</ele>
        <time>2024-12-08T05:08:14.620Z</time>
      </trkpt>
      <trkpt lat="45.9469" lon="3.87798">
        <ele>899</ele>
        <time>2024-12-08T05:08:15.619Z</time>
      </trkpt>
      <trkpt lat="45.94692" lon="3.87797">
        <ele>899</ele>
        <time>2024-12-08T05:08:16.620Z</time>
      </trkpt>
      <trkpt lat="45.94693" lon="3.87796">
        <ele>899</ele>
        <time>2024-12-08T05:08:17.620Z</time>
      </trkpt>
      <trkpt lat="45.94695" lon="3.87795">
        <ele>899</ele>
        <time>2024-12-08T05:08:18.620Z</time>
      </trkpt>
      <trkpt lat="45.94696" lon="3.87794">
        <ele>899</ele>
        <time>2024-12-08T05:08:19.619Z</time>
      </trkpt>
      <trkpt lat="45.94698" lon="3.87792">
        <ele>899</ele>
        <time>2024-12-08T05:08:20.619Z</time>
      </trkpt>
      <trkpt lat="45.94699" lon="3.87791">
        <ele>899</ele>
        <time>2024-12-08T05:08:21.620Z</time>
      </trkpt>
      <trkpt lat="45.94701" lon="3.8779">
        <ele>898</ele>
        <time>2024-12-08T05:08:22.619Z</time>
      </trkpt>
      <trkpt lat="45.94702" lon="3.87789">
        <ele>898</ele>
        <time>2024-12-08T05:08:23.619Z</time>
      </trkpt>
      <trkpt lat="45.94703" lon="3.87789">
        <ele>898</ele>
        <time>2024-12-08T05:08:24.619Z</time>
      </trkpt>
      <trkpt lat="45.94704" lon="3.87787">
        <ele>898</ele>
        <time>2024-12-08T05:08:25.619Z</time>
      </trkpt>
      <trkpt lat="45.94706" lon="3.87787">
        <ele>898</ele>
        <time>2024-12-08T05:08:26.619Z</time>
      </trkpt>
      <trkpt lat="45.94707" lon="3.87787">
        <ele>898</ele>
        <time>2024-12-08T05:08:27.620Z</time>
      </trkpt>
      <trkpt lat="45.94709" lon="3.87787">
        <ele>898</ele>
        <time>2024-12-08T05:08:28.620Z</time>
      </trkpt>
      <trkpt lat="45.9471" lon="3.87787">
        <ele>898</ele>
        <time>2024-12-08T05:08:29.620Z</time>
      </trkpt>
      <trkpt lat="45.94712" lon="3.87786">
        <ele>898</ele>
        <time>2024-12-08T05:08:30.619Z</time>
      </trkpt>
      <trkpt lat="45.94713" lon="3.87786">
        <ele>897</ele>
        <time>2024-12-08T05:08:31.619Z</time>
      </trkpt>
      <trkpt lat="45.94715" lon="3.87785">
        <ele>897</ele>
        <time>2024-12-08T05:08:32.620Z</time>
      </trkpt>
      <trkpt lat="45.94716" lon="3.87785">
        <ele>897</ele>
        <time>2024-12-08T05:08:33.619Z</time>
      </trkpt>
      <trkpt lat="45.94718" lon="3.87785">
        <ele>896</ele>
        <time>2024-12-08T05:08:34.620Z</time>
      </trkpt>
      <trkpt lat="45.9472" lon="3.87785">
        <ele>896</ele>
        <time>2024-12-08T05:08:35.620Z</time>
      </trkpt>
      <trkpt lat="45.94722" lon="3.87785">
        <ele>896</ele>
        <time>2024-12-08T05:08:36.620Z</time>
      </trkpt>
      <trkpt lat="45.94724" lon="3.87785">
        <ele>896</ele>
        <time>2024-12-08T05:08:37.620Z</time>
      </trkpt>
      <trkpt lat="45.94725" lon="3.87785">
        <ele>895</ele>
        <time>2024-12-08T05:08:38.620Z</time>
      </trkpt>
      <trkpt lat="45.94727" lon="3.87785">
        <ele>895</ele>
        <time>2024-12-08T05:08:39.619Z</time>
      </trkpt>
      <trkpt lat="45.94728" lon="3.87785">
        <ele>895</ele>
        <time>2024-12-08T05:08:40.620Z</time>
      </trkpt>
      <trkpt lat="45.9473" lon="3.87786">
        <ele>896</ele>
        <time>2024-12-08T05:08:41.619Z</time>
      </trkpt>
      <trkpt lat="45.94731" lon="3.87786">
        <ele>896</ele>
        <time>2024-12-08T05:08:42.619Z</time>
      </trkpt>
      <trkpt lat="45.94732" lon="3.87786">
        <ele>896</ele>
        <time>2024-12-08T05:08:43.619Z</time>
      </trkpt>
      <trkpt lat="45.94732" lon="3.87787">
        <ele>896</ele>
        <time>2024-12-08T05:08:44.620Z</time>
      </trkpt>
      <trkpt lat="45.94733" lon="3.87788">
        <ele>897</ele>
        <time>2024-12-08T05:08:45.619Z</time>
      </trkpt>
      <trkpt lat="45.94734" lon="3.87789">
        <ele>897</ele>
        <time>2024-12-08T05:08:46.619Z</time>
      </trkpt>
      <trkpt lat="45.94735" lon="3.8779">
        <ele>898</ele>
        <time>2024-12-08T05:08:47.620Z</time>
      </trkpt>
      <trkpt lat="45.94736" lon="3.8779">
        <ele>898</ele>
        <time>2024-12-08T05:08:48.619Z</time>
      </trkpt>
      <trkpt lat="45.94737" lon="3.87791">
        <ele>899</ele>
        <time>2024-12-08T05:08:49.619Z</time>
      </trkpt>
      <trkpt lat="45.94738" lon="3.87791">
        <ele>900</ele>
        <time>2024-12-08T05:08:50.619Z</time>
      </trkpt>
      <trkpt lat="45.94739" lon="3.87792">
        <ele>900</ele>
        <time>2024-12-08T05:08:51.620Z</time>
      </trkpt>
      <trkpt lat="45.9474" lon="3.87792">
        <ele>901</ele>
        <time>2024-12-08T05:08:52.620Z</time>
      </trkpt>
      <trkpt lat="45.94741" lon="3.87794">
        <ele>901</ele>
        <time>2024-12-08T05:08:53.620Z</time>
      </trkpt>
      <trkpt lat="45.94742" lon="3.87796">
        <ele>902</ele>
        <time>2024-12-08T05:08:54.620Z</time>
      </trkpt>
      <trkpt lat="45.94743" lon="3.87797">
        <ele>902</ele>
        <time>2024-12-08T05:08:55.619Z</time>
      </trkpt>
      <trkpt lat="45.94745" lon="3.87798">
        <ele>903</ele>
        <time>2024-12-08T05:08:56.619Z</time>
      </trkpt>
      <trkpt lat="45.94747" lon="3.87799">
        <ele>903</ele>
        <time>2024-12-08T05:08:57.620Z</time>
      </trkpt>
      <trkpt lat="45.94749" lon="3.878">
        <ele>903</ele>
        <time>2024-12-08T05:08:58.619Z</time>
      </trkpt>
      <trkpt lat="45.94751" lon="3.87801">
        <ele>903</ele>
        <time>2024-12-08T05:08:59.619Z</time>
      </trkpt>
      <trkpt lat="45.94753" lon="3.87802">
        <ele>903</ele>
        <time>2024-12-08T05:09:00.620Z</time>
      </trkpt>
      <trkpt lat="45.94754" lon="3.87803">
        <ele>903</ele>
        <time>2024-12-08T05:09:01.619Z</time>
      </trkpt>
      <trkpt lat="45.94756" lon="3.87804">
        <ele>903</ele>
        <time>2024-12-08T05:09:02.619Z</time>
      </trkpt>
      <trkpt lat="45.94757" lon="3.87805">
        <ele>903</ele>
        <time>2024-12-08T05:09:03.620Z</time>
      </trkpt>
      <trkpt lat="45.94759" lon="3.87806">
        <ele>903</ele>
        <time>2024-12-08T05:09:04.620Z</time>
      </trkpt>
      <trkpt lat="45.9476" lon="3.87807">
        <ele>903</ele>
        <time>2024-12-08T05:09:05.619Z</time>
      </trkpt>
      <trkpt lat="45.9476" lon="3.87808">
        <ele>903</ele>
        <time>2024-12-08T05:09:06.620Z</time>
      </trkpt>
      <trkpt lat="45.94762" lon="3.87809">
        <ele>903</ele>
        <time>2024-12-08T05:09:07.620Z</time>
      </trkpt>
      <trkpt lat="45.94764" lon="3.87809">
        <ele>903</ele>
        <time>2024-12-08T05:09:08.619Z</time>
      </trkpt>
      <trkpt lat="45.94766" lon="3.8781">
        <ele>903</ele>
        <time>2024-12-08T05:09:09.619Z</time>
      </trkpt>
      <trkpt lat="45.94768" lon="3.8781">
        <ele>903</ele>
        <time>2024-12-08T05:09:10.620Z</time>
      </trkpt>
      <trkpt lat="45.9477" lon="3.87811">
        <ele>903</ele>
        <time>2024-12-08T05:09:11.619Z</time>
      </trkpt>
      <trkpt lat="45.94772" lon="3.87811">
        <ele>903</ele>
        <time>2024-12-08T05:09:12.619Z</time>
      </trkpt>
      <trkpt lat="45.94773" lon="3.87813">
        <ele>903</ele>
        <time>2024-12-08T05:09:13.620Z</time>
      </trkpt>
      <trkpt lat="45.94774" lon="3.87814">
        <ele>903</ele>
        <time>2024-12-08T05:09:14.620Z</time>
      </trkpt>
      <trkpt lat="45.94775" lon="3.87816">
        <ele>903</ele>
        <time>2024-12-08T05:09:15.620Z</time>
      </trkpt>
      <trkpt lat="45.94776" lon="3.87817">
        <ele>904</ele>
        <time>2024-12-08T05:09:16.619Z</time>
      </trkpt>
      <trkpt lat="45.94777" lon="3.87818">
        <ele>904</ele>
        <time>2024-12-08T05:09:17.620Z</time>
      </trkpt>
      <trkpt lat="45.94778" lon="3.87819">
        <ele>904</ele>
        <time>2024-12-08T05:09:18.619Z</time>
      </trkpt>
      <trkpt lat="45.9478" lon="3.8782">
        <ele>904</ele>
        <time>2024-12-08T05:09:19.619Z</time>
      </trkpt>
      <trkpt lat="45.94782" lon="3.87822">
        <ele>904</ele>
        <time>2024-12-08T05:09:20.619Z</time>
      </trkpt>
      <trkpt lat="45.94784" lon="3.87823">
        <ele>904</ele>
        <time>2024-12-08T05:09:21.620Z</time>
      </trkpt>
      <trkpt lat="45.94786" lon="3.87825">
        <ele>904</ele>
        <time>2024-12-08T05:09:22.620Z</time>
      </trkpt>
      <trkpt lat="45.94786" lon="3.87825">
        <ele>904</ele>
        <time>2024-12-08T05:09:23.620Z</time>
      </trkpt>
      <trkpt lat="45.94788" lon="3.87826">
        <ele>904</ele>
        <time>2024-12-08T05:09:24.619Z</time>
      </trkpt>
      <trkpt lat="45.94789" lon="3.87827">
        <ele>904</ele>
        <time>2024-12-08T05:09:25.619Z</time>
      </trkpt>
      <trkpt lat="45.94791" lon="3.87828">
        <ele>903</ele>
        <time>2024-12-08T05:09:26.619Z</time>
      </trkpt>
      <trkpt lat="45.94791" lon="3.87829">
        <ele>904</ele>
        <time>2024-12-08T05:09:27.619Z</time>
      </trkpt>
      <trkpt lat="45.94793" lon="3.8783">
        <ele>904</ele>
        <time>2024-12-08T05:09:28.620Z</time>
      </trkpt>
      <trkpt lat="45.94794" lon="3.87832">
        <ele>904</ele>
        <time>2024-12-08T05:09:29.619Z</time>
      </trkpt>
      <trkpt lat="45.94794" lon="3.87834">
        <ele>904</ele>
        <time>2024-12-08T05:09:30.619Z</time>
      </trkpt>
      <trkpt lat="45.94795" lon="3.87835">
        <ele>903</ele>
        <time>2024-12-08T05:09:31.619Z</time>
      </trkpt>
      <trkpt lat="45.94796" lon="3.87836">
        <ele>903</ele>
        <time>2024-12-08T05:09:32.620Z</time>
      </trkpt>
      <trkpt lat="45.94797" lon="3.87837">
        <ele>903</ele>
        <time>2024-12-08T05:09:33.619Z</time>
      </trkpt>
      <trkpt lat="45.94799" lon="3.87838">
        <ele>903</ele>
        <time>2024-12-08T05:09:34.620Z</time>
      </trkpt>
      <trkpt lat="45.948" lon="3.87839">
        <ele>902</ele>
        <time>2024-12-08T05:09:35.620Z</time>
      </trkpt>
      <trkpt lat="45.94801" lon="3.8784">
        <ele>902</ele>
        <time>2024-12-08T05:09:36.619Z</time>
      </trkpt>
      <trkpt lat="45.94801" lon="3.87841">
        <ele>902</ele>
        <time>2024-12-08T05:09:37.619Z</time>
      </trkpt>
      <trkpt lat="45.94802" lon="3.87843">
        <ele>902</ele>
        <time>2024-12-08T05:09:38.619Z</time>
      </trkpt>
      <trkpt lat="45.94803" lon="3.87844">
        <ele>901</ele>
        <time>2024-12-08T05:09:39.619Z</time>
      </trkpt>
      <trkpt lat="45.94805" lon="3.87845">
        <ele>901</ele>
        <time>2024-12-08T05:09:40.619Z</time>
      </trkpt>
      <trkpt lat="45.94806" lon="3.87846">
        <ele>900</ele>
        <time>2024-12-08T05:09:41.619Z</time>
      </trkpt>
      <trkpt lat="45.94807" lon="3.87847">
        <ele>900</ele>
        <time>2024-12-08T05:09:42.620Z</time>
      </trkpt>
      <trkpt lat="45.94809" lon="3.87848">
        <ele>900</ele>
        <time>2024-12-08T05:09:43.619Z</time>
      </trkpt>
      <trkpt lat="45.94811" lon="3.87849">
        <ele>900</ele>
        <time>2024-12-08T05:09:44.619Z</time>
      </trkpt>
      <trkpt lat="45.94811" lon="3.8785">
        <ele>900</ele>
        <time>2024-12-08T05:09:45.620Z</time>
      </trkpt>
      <trkpt lat="45.94813" lon="3.87852">
        <ele>900</ele>
        <time>2024-12-08T05:09:46.619Z</time>
      </trkpt>
      <trkpt lat="45.94814" lon="3.87853">
        <ele>900</ele>
        <time>2024-12-08T05:09:47.620Z</time>
      </trkpt>
      <trkpt lat="45.94815" lon="3.87854">
        <ele>901</ele>
        <time>2024-12-08T05:09:48.619Z</time>
      </trkpt>
      <trkpt lat="45.94816" lon="3.87856">
        <ele>901</ele>
        <time>2024-12-08T05:09:49.620Z</time>
      </trkpt>
      <trkpt lat="45.94817" lon="3.87857">
        <ele>901</ele>
        <time>2024-12-08T05:09:50.620Z</time>
      </trkpt>
      <trkpt lat="45.94818" lon="3.87858">
        <ele>901</ele>
        <time>2024-12-08T05:09:51.619Z</time>
      </trkpt>
      <trkpt lat="45.9482" lon="3.87859">
        <ele>901</ele>
        <time>2024-12-08T05:09:52.619Z</time>
      </trkpt>
      <trkpt lat="45.9482" lon="3.8786">
        <ele>901</ele>
        <time>2024-12-08T05:09:53.619Z</time>
      </trkpt>
      <trkpt lat="45.94822" lon="3.87862">
        <ele>901</ele>
        <time>2024-12-08T05:09:54.619Z</time>
      </trkpt>
      <trkpt lat="45.94823" lon="3.87863">
        <ele>902</ele>
        <time>2024-12-08T05:09:55.620Z</time>
      </trkpt>
      <trkpt lat="45.94824" lon="3.87863">
        <ele>902</ele>
        <time>2024-12-08T05:09:56.619Z</time>
      </trkpt>
      <trkpt lat="45.94825" lon="3.87865">
        <ele>902</ele>
        <time>2024-12-08T05:09:57.620Z</time>
      </trkpt>
      <trkpt lat="45.94826" lon="3.87866">
        <ele>902</ele>
        <time>2024-12-08T05:09:58.620Z</time>
      </trkpt>
      <trkpt lat="45.94827" lon="3.87868">
        <ele>902</ele>
        <time>2024-12-08T05:09:59.620Z</time>
      </trkpt>
      <trkpt lat="45.94828" lon="3.87869">
        <ele>902</ele>
        <time>2024-12-08T05:10:00.620Z</time>
      </trkpt>
      <trkpt lat="45.9483" lon="3.8787">
        <ele>901</ele>
        <time>2024-12-08T05:10:01.619Z</time>
      </trkpt>
      <trkpt lat="45.94831" lon="3.87872">
        <ele>901</ele>
        <time>2024-12-08T05:10:02.619Z</time>
      </trkpt>
      <trkpt lat="45.94832" lon="3.87873">
        <ele>901</ele>
        <time>2024-12-08T05:10:03.619Z</time>
      </trkpt>
      <trkpt lat="45.94833" lon="3.87874">
        <ele>901</ele>
        <time>2024-12-08T05:10:04.620Z</time>
      </trkpt>
      <trkpt lat="45.94834" lon="3.87875">
        <ele>901</ele>
        <time>2024-12-08T05:10:05.620Z</time>
      </trkpt>
      <trkpt lat="45.94835" lon="3.87877">
        <ele>901</ele>
        <time>2024-12-08T05:10:06.620Z</time>
      </trkpt>
      <trkpt lat="45.94836" lon="3.87879">
        <ele>900</ele>
        <time>2024-12-08T05:10:07.619Z</time>
      </trkpt>
      <trkpt lat="45.94837" lon="3.87881">
        <ele>900</ele>
        <time>2024-12-08T05:10:08.620Z</time>
      </trkpt>
      <trkpt lat="45.94838" lon="3.87882">
        <ele>900</ele>
        <time>2024-12-08T05:10:09.620Z</time>
      </trkpt>
      <trkpt lat="45.94839" lon="3.87883">
        <ele>900</ele>
        <time>2024-12-08T05:10:10.619Z</time>
      </trkpt>
      <trkpt lat="45.9484" lon="3.87885">
        <ele>900</ele>
        <time>2024-12-08T05:10:11.619Z</time>
      </trkpt>
      <trkpt lat="45.94841" lon="3.87886">
        <ele>900</ele>
        <time>2024-12-08T05:10:12.620Z</time>
      </trkpt>
      <trkpt lat="45.94842" lon="3.87888">
        <ele>900</ele>
        <time>2024-12-08T05:10:13.619Z</time>
      </trkpt>
      <trkpt lat="45.94843" lon="3.8789">
        <ele>900</ele>
        <time>2024-12-08T05:10:14.620Z</time>
      </trkpt>
      <trkpt lat="45.94844" lon="3.87891">
        <ele>900</ele>
        <time>2024-12-08T05:10:15.620Z</time>
      </trkpt>
      <trkpt lat="45.94845" lon="3.87893">
        <ele>900</ele>
        <time>2024-12-08T05:10:16.620Z</time>
      </trkpt>
      <trkpt lat="45.94846" lon="3.87894">
        <ele>900</ele>
        <time>2024-12-08T05:10:17.620Z</time>
      </trkpt>
      <trkpt lat="45.94847" lon="3.87895">
        <ele>900</ele>
        <time>2024-12-08T05:10:18.619Z</time>
      </trkpt>
      <trkpt lat="45.94848" lon="3.87897">
        <ele>900</ele>
        <time>2024-12-08T05:10:19.620Z</time>
      </trkpt>
      <trkpt lat="45.9485" lon="3.87898">
        <ele>900</ele>
        <time>2024-12-08T05:10:20.620Z</time>
      </trkpt>
      <trkpt lat="45.94851" lon="3.87899">
        <ele>899</ele>
        <time>2024-12-08T05:10:21.620Z</time>
      </trkpt>
      <trkpt lat="45.94853" lon="3.87901">
        <ele>899</ele>
        <time>2024-12-08T05:10:22.620Z</time>
      </trkpt>
      <trkpt lat="45.94854" lon="3.87902">
        <ele>899</ele>
        <time>2024-12-08T05:10:23.619Z</time>
      </trkpt>
      <trkpt lat="45.94855" lon="3.87903">
        <ele>898</ele>
        <time>2024-12-08T05:10:24.619Z</time>
      </trkpt>
      <trkpt lat="45.94856" lon="3.87905">
        <ele>898</ele>
        <time>2024-12-08T05:10:25.620Z</time>
      </trkpt>
      <trkpt lat="45.94857" lon="3.87906">
        <ele>898</ele>
        <time>2024-12-08T05:10:26.620Z</time>
      </trkpt>
      <trkpt lat="45.94858" lon="3.87907">
        <ele>898</ele>
        <time>2024-12-08T05:10:27.619Z</time>
      </trkpt>
      <trkpt lat="45.9486" lon="3.87909">
        <ele>897</ele>
        <time>2024-12-08T05:10:28.620Z</time>
      </trkpt>
      <trkpt lat="45.94861" lon="3.8791">
        <ele>897</ele>
        <time>2024-12-08T05:10:29.619Z</time>
      </trkpt>
      <trkpt lat="45.94862" lon="3.87912">
        <ele>897</ele>
        <time>2024-12-08T05:10:30.620Z</time>
      </trkpt>
      <trkpt lat="45.94864" lon="3.87914">
        <ele>896</ele>
        <time>2024-12-08T05:10:31.620Z</time>
      </trkpt>
      <trkpt lat="45.94865" lon="3.87915">
        <ele>896</ele>
        <time>2024-12-08T05:10:32.620Z</time>
      </trkpt>
      <trkpt lat="45.94866" lon="3.87916">
        <ele>896</ele>
        <time>2024-12-08T05:10:33.619Z</time>
      </trkpt>
      <trkpt lat="45.94868" lon="3.87917">
        <ele>896</ele>
        <time>2024-12-08T05:10:34.619Z</time>
      </trkpt>
      <trkpt lat="45.94868" lon="3.87919">
        <ele>895</ele>
        <time>2024-12-08T05:10:35.619Z</time>
      </trkpt>
      <trkpt lat="45.94869" lon="3.8792">
        <ele>895</ele>
        <time>2024-12-08T05:10:36.619Z</time>
      </trkpt>
      <trkpt lat="45.9487" lon="3.87922">
        <ele>895</ele>
        <time>2024-12-08T05:10:37.620Z</time>
      </trkpt>
      <trkpt lat="45.9487" lon="3.87923">
        <ele>894</ele>
        <time>2024-12-08T05:10:38.620Z</time>
      </trkpt>
      <trkpt lat="45.94872" lon="3.87924">
        <ele>894</ele>
        <time>2024-12-08T05:10:39.619Z</time>
      </trkpt>
      <trkpt lat="45.94873" lon="3.87926">
        <ele>894</ele>
        <time>2024-12-08T05:10:40.619Z</time>
      </trkpt>
      <trkpt lat="45.94874" lon="3.87927">
        <ele>894</ele>
        <time>2024-12-08T05:10:41.620Z</time>
      </trkpt>
      <trkpt lat="45.94875" lon="3.87927">
        <ele>894</ele>
        <time>2024-12-08T05:10:42.620Z</time>
      </trkpt>
      <trkpt lat="45.94877" lon="3.87929">
        <ele>893</ele>
        <time>2024-12-08T05:10:43.620Z</time>
      </trkpt>
      <trkpt lat="45.94878" lon="3.87931">
        <ele>893</ele>
        <time>2024-12-08T05:10:44.620Z</time>
      </trkpt>
      <trkpt lat="45.94879" lon="3.87932">
        <ele>893</ele>
        <time>2024-12-08T05:10:45.619Z</time>
      </trkpt>
      <trkpt lat="45.9488" lon="3.87934">
        <ele>893</ele>
        <time>2024-12-08T05:10:46.620Z</time>
      </trkpt>
      <trkpt lat="45.94881" lon="3.87935">
        <ele>893</ele>
        <time>2024-12-08T05:10:47.619Z</time>
      </trkpt>
      <trkpt lat="45.94882" lon="3.87936">
        <ele>893</ele>
        <time>2024-12-08T05:10:48.620Z</time>
      </trkpt>
      <trkpt lat="45.94883" lon="3.87938">
        <ele>893</ele>
        <time>2024-12-08T05:10:49.619Z</time>
      </trkpt>
      <trkpt lat="45.94884" lon="3.87939">
        <ele>893</ele>
        <time>2024-12-08T05:10:50.619Z</time>
      </trkpt>
      <trkpt lat="45.94885" lon="3.8794">
        <ele>892</ele>
        <time>2024-12-08T05:10:51.619Z</time>
      </trkpt>
      <trkpt lat="45.94886" lon="3.87941">
        <ele>892</ele>
        <time>2024-12-08T05:10:52.620Z</time>
      </trkpt>
      <trkpt lat="45.94887" lon="3.87943">
        <ele>891</ele>
        <time>2024-12-08T05:10:53.619Z</time>
      </trkpt>
      <trkpt lat="45.94889" lon="3.87944">
        <ele>891</ele>
        <time>2024-12-08T05:10:54.620Z</time>
      </trkpt>
      <trkpt lat="45.9489" lon="3.87945">
        <ele>891</ele>
        <time>2024-12-08T05:10:55.620Z</time>
      </trkpt>
      <trkpt lat="45.94891" lon="3.87946">
        <ele>890</ele>
        <time>2024-12-08T05:10:56.620Z</time>
      </trkpt>
      <trkpt lat="45.94892" lon="3.87947">
        <ele>890</ele>
        <time>2024-12-08T05:10:57.619Z</time>
      </trkpt>
      <trkpt lat="45.94893" lon="3.87948">
        <ele>890</ele>
        <time>2024-12-08T05:10:58.619Z</time>
      </trkpt>
      <trkpt lat="45.94894" lon="3.87949">
        <ele>890</ele>
        <time>2024-12-08T05:10:59.619Z</time>
      </trkpt>
      <trkpt lat="45.94895" lon="3.8795">
        <ele>890</ele>
        <time>2024-12-08T05:11:00.619Z</time>
      </trkpt>
      <trkpt lat="45.94896" lon="3.87951">
        <ele>890</ele>
        <time>2024-12-08T05:11:01.619Z</time>
      </trkpt>
      <trkpt lat="45.94897" lon="3.87952">
        <ele>891</ele>
        <time>2024-12-08T05:11:02.619Z</time>
      </trkpt>
      <trkpt lat="45.94898" lon="3.87952">
        <ele>891</ele>
        <time>2024-12-08T05:11:03.619Z</time>
      </trkpt>
      <trkpt lat="45.94898" lon="3.87953">
        <ele>891</ele>
        <time>2024-12-08T05:11:04.620Z</time>
      </trkpt>
      <trkpt lat="45.94899" lon="3.87954">
        <ele>892</ele>
        <time>2024-12-08T05:11:05.619Z</time>
      </trkpt>
      <trkpt lat="45.94901" lon="3.87956">
        <ele>892</ele>
        <time>2024-12-08T05:11:06.620Z</time>
      </trkpt>
      <trkpt lat="45.94902" lon="3.87957">
        <ele>892</ele>
        <time>2024-12-08T05:11:07.620Z</time>
      </trkpt>
      <trkpt lat="45.94903" lon="3.87958">
        <ele>893</ele>
        <time>2024-12-08T05:11:08.620Z</time>
      </trkpt>
      <trkpt lat="45.94904" lon="3.87958">
        <ele>893</ele>
        <time>2024-12-08T05:11:09.620Z</time>
      </trkpt>
      <trkpt lat="45.94906" lon="3.8796">
        <ele>893</ele>
        <time>2024-12-08T05:11:10.619Z</time>
      </trkpt>
      <trkpt lat="45.94907" lon="3.8796">
        <ele>893</ele>
        <time>2024-12-08T05:11:11.619Z</time>
      </trkpt>
      <trkpt lat="45.94908" lon="3.87961">
        <ele>893</ele>
        <time>2024-12-08T05:11:12.619Z</time>
      </trkpt>
      <trkpt lat="45.94909" lon="3.87961">
        <ele>893</ele>
        <time>2024-12-08T05:11:13.619Z</time>
      </trkpt>
      <trkpt lat="45.94911" lon="3.87961">
        <ele>894</ele>
        <time>2024-12-08T05:11:14.620Z</time>
      </trkpt>
      <trkpt lat="45.94913" lon="3.87961">
        <ele>894</ele>
        <time>2024-12-08T05:11:15.619Z</time>
      </trkpt>
      <trkpt lat="45.94914" lon="3.87962">
        <ele>895</ele>
        <time>2024-12-08T05:11:16.619Z</time>
      </trkpt>
      <trkpt lat="45.94916" lon="3.87963">
        <ele>895</ele>
        <time>2024-12-08T05:11:17.620Z</time>
      </trkpt>
      <trkpt lat="45.94918" lon="3.87963">
        <ele>896</ele>
        <time>2024-12-08T05:11:18.620Z</time>
      </trkpt>
      <trkpt lat="45.94919" lon="3.87964">
        <ele>896</ele>
        <time>2024-12-08T05:11:19.620Z</time>
      </trkpt>
      <trkpt lat="45.9492" lon="3.87965">
        <ele>897</ele>
        <time>2024-12-08T05:11:20.620Z</time>
      </trkpt>
      <trkpt lat="45.94921" lon="3.87966">
        <ele>897</ele>
        <time>2024-12-08T05:11:21.620Z</time>
      </trkpt>
      <trkpt lat="45.94921" lon="3.87965">
        <ele>897</ele>
        <time>2024-12-08T05:11:22.619Z</time>
      </trkpt>
      <trkpt lat="45.94923" lon="3.87966">
        <ele>898</ele>
        <time>2024-12-08T05:11:23.619Z</time>
      </trkpt>
      <trkpt lat="45.94925" lon="3.87967">
        <ele>898</ele>
        <time>2024-12-08T05:11:24.620Z</time>
      </trkpt>
      <trkpt lat="45.94928" lon="3.87967">
        <ele>898</ele>
        <time>2024-12-08T05:11:25.620Z</time>
      </trkpt>
      <trkpt lat="45.94929" lon="3.87968">
        <ele>898</ele>
        <time>2024-12-08T05:11:26.619Z</time>
      </trkpt>
      <trkpt lat="45.94931" lon="3.87967">
        <ele>898</ele>
        <time>2024-12-08T05:11:27.619Z</time>
      </trkpt>
      <trkpt lat="45.94933" lon="3.87968">
        <ele>899</ele>
        <time>2024-12-08T05:11:28.619Z</time>
      </trkpt>
      <trkpt lat="45.94935" lon="3.87968">
        <ele>899</ele>
        <time>2024-12-08T05:11:29.620Z</time>
      </trkpt>
      <trkpt lat="45.94936" lon="3.87968">
        <ele>899</ele>
        <time>2024-12-08T05:11:30.620Z</time>
      </trkpt>
      <trkpt lat="45.94938" lon="3.87969">
        <ele>899</ele>
        <time>2024-12-08T05:11:31.619Z</time>
      </trkpt>
      <trkpt lat="45.9494" lon="3.87969">
        <ele>900</ele>
        <time>2024-12-08T05:11:32.620Z</time>
      </trkpt>
      <trkpt lat="45.94941" lon="3.87969">
        <ele>899</ele>
        <time>2024-12-08T05:11:33.619Z</time>
      </trkpt>
      <trkpt lat="45.94943" lon="3.87969">
        <ele>899</ele>
        <time>2024-12-08T05:11:34.620Z</time>
      </trkpt>
      <trkpt lat="45.94945" lon="3.87969">
        <ele>899</ele>
        <time>2024-12-08T05:11:35.620Z</time>
      </trkpt>
      <trkpt lat="45.94946" lon="3.87969">
        <ele>898</ele>
        <time>2024-12-08T05:11:36.620Z</time>
      </trkpt>
      <trkpt lat="45.94947" lon="3.87969">
        <ele>898</ele>
        <time>2024-12-08T05:11:37.620Z</time>
      </trkpt>
      <trkpt lat="45.94949" lon="3.87968">
        <ele>898</ele>
        <time>2024-12-08T05:11:38.620Z</time>
      </trkpt>
      <trkpt lat="45.9495" lon="3.87967">
        <ele>898</ele>
        <time>2024-12-08T05:11:39.619Z</time>
      </trkpt>
      <trkpt lat="45.94951" lon="3.87966">
        <ele>898</ele>
        <time>2024-12-08T05:11:40.619Z</time>
      </trkpt>
      <trkpt lat="45.94953" lon="3.87966">
        <ele>898</ele>
        <time>2024-12-08T05:11:41.620Z</time>
      </trkpt>
      <trkpt lat="45.94955" lon="3.87965">
        <ele>898</ele>
        <time>2024-12-08T05:11:42.619Z</time>
      </trkpt>
      <trkpt lat="45.94956" lon="3.87964">
        <ele>898</ele>
        <time>2024-12-08T05:11:43.620Z</time>
      </trkpt>
      <trkpt lat="45.94957" lon="3.87963">
        <ele>897</ele>
        <time>2024-12-08T05:11:44.619Z</time>
      </trkpt>
      <trkpt lat="45.94958" lon="3.87962">
        <ele>897</ele>
        <time>2024-12-08T05:11:45.619Z</time>
      </trkpt>
      <trkpt lat="45.94959" lon="3.87961">
        <ele>897</ele>
        <time>2024-12-08T05:11:46.619Z</time>
      </trkpt>
      <trkpt lat="45.9496" lon="3.8796">
        <ele>896</ele>
        <time>2024-12-08T05:11:47.619Z</time>
      </trkpt>
      <trkpt lat="45.94961" lon="3.87959">
        <ele>896</ele>
        <time>2024-12-08T05:11:48.620Z</time>
      </trkpt>
      <trkpt lat="45.94963" lon="3.87958">
        <ele>896</ele>
        <time>2024-12-08T05:11:49.619Z</time>
      </trkpt>
      <trkpt lat="45.94964" lon="3.87957">
        <ele>896</ele>
        <time>2024-12-08T05:11:50.620Z</time>
      </trkpt>
      <trkpt lat="45.94965" lon="3.87955">
        <ele>895</ele>
        <time>2024-12-08T05:11:51.619Z</time>
      </trkpt>
      <trkpt lat="45.94966" lon="3.87954">
        <ele>895</ele>
        <time>2024-12-08T05:11:52.619Z</time>
      </trkpt>
      <trkpt lat="45.94967" lon="3.87952">
        <ele>895</ele>
        <time>2024-12-08T05:11:53.620Z</time>
      </trkpt>
      <trkpt lat="45.94969" lon="3.8795">
        <ele>895</ele>
        <time>2024-12-08T05:11:54.619Z</time>
      </trkpt>
      <trkpt lat="45.9497" lon="3.87949">
        <ele>895</ele>
        <time>2024-12-08T05:11:55.619Z</time>
      </trkpt>
      <trkpt lat="45.94972" lon="3.87948">
        <ele>895</ele>
        <time>2024-12-08T05:11:56.619Z</time>
      </trkpt>
      <trkpt lat="45.94973" lon="3.87947">
        <ele>895</ele>
        <time>2024-12-08T05:11:57.619Z</time>
      </trkpt>
      <trkpt lat="45.94974" lon="3.87946">
        <ele>895</ele>
        <time>2024-12-08T05:11:58.619Z</time>
      </trkpt>
      <trkpt lat="45.94975" lon="3.87944">
        <ele>895</ele>
        <time>2024-12-08T05:11:59.620Z</time>
      </trkpt>
      <trkpt lat="45.94976" lon="3.87943">
        <ele>894</ele>
        <time>2024-12-08T05:12:00.619Z</time>
      </trkpt>
      <trkpt lat="45.94977" lon="3.87942">
        <ele>894</ele>
        <time>2024-12-08T05:12:01.620Z</time>
      </trkpt>
      <trkpt lat="45.94978" lon="3.8794">
        <ele>894</ele>
        <time>2024-12-08T05:12:02.620Z</time>
      </trkpt>
      <trkpt lat="45.94979" lon="3.87939">
        <ele>894</ele>
        <time>2024-12-08T05:12:03.619Z</time>
      </trkpt>
      <trkpt lat="45.9498" lon="3.87937">
        <ele>894</ele>
        <time>2024-12-08T05:12:04.620Z</time>
      </trkpt>
      <trkpt lat="45.94981" lon="3.87935">
        <ele>894</ele>
        <time>2024-12-08T05:12:05.620Z</time>
      </trkpt>
      <trkpt lat="45.94982" lon="3.87933">
        <ele>894</ele>
        <time>2024-12-08T05:12:06.620Z</time>
      </trkpt>
      <trkpt lat="45.94984" lon="3.87932">
        <ele>894</ele>
        <time>2024-12-08T05:12:07.619Z</time>
      </trkpt>
      <trkpt lat="45.94985" lon="3.87931">
        <ele>894</ele>
        <time>2024-12-08T05:12:08.619Z</time>
      </trkpt>
      <trkpt lat="45.94986" lon="3.8793">
        <ele>894</ele>
        <time>2024-12-08T05:12:09.619Z</time>
      </trkpt>
      <trkpt lat="45.94988" lon="3.87929">
        <ele>894</ele>
        <time>2024-12-08T05:12:10.619Z</time>
      </trkpt>
      <trkpt lat="45.94989" lon="3.87927">
        <ele>894</ele>
        <time>2024-12-08T05:12:11.620Z</time>
      </trkpt>
      <trkpt lat="45.94991" lon="3.87926">
        <ele>894</ele>
        <time>2024-12-08T05:12:12.620Z</time>
      </trkpt>
      <trkpt lat="45.94992" lon="3.87925">
        <ele>894</ele>
        <time>2024-12-08T05:12:13.619Z</time>
      </trkpt>
      <trkpt lat="45.94993" lon="3.87924">
        <ele>894</ele>
        <time>2024-12-08T05:12:14.619Z</time>
      </trkpt>
      <trkpt lat="45.94994" lon="3.87922">
        <ele>894</ele>
        <time>2024-12-08T05:12:15.620Z</time>
      </trkpt>
      <trkpt lat="45.94995" lon="3.87921">
        <ele>894</ele>
        <time>2024-12-08T05:12:16.620Z</time>
      </trkpt>
      <trkpt lat="45.94996" lon="3.87919">
        <ele>894</ele>
        <time>2024-12-08T05:12:17.619Z</time>
      </trkpt>
      <trkpt lat="45.94997" lon="3.87917">
        <ele>894</ele>
        <time>2024-12-08T05:12:18.620Z</time>
      </trkpt>
      <trkpt lat="45.94999" lon="3.87917">
        <ele>894</ele>
        <time>2024-12-08T05:12:19.619Z</time>
      </trkpt>
      <trkpt lat="45.95" lon="3.87915">
        <ele>894</ele>
        <time>2024-12-08T05:12:20.619Z</time>
      </trkpt>
      <trkpt lat="45.95001" lon="3.87914">
        <ele>894</ele>
        <time>2024-12-08T05:12:21.619Z</time>
      </trkpt>
      <trkpt lat="45.95002" lon="3.87912">
        <ele>894</ele>
        <time>2024-12-08T05:12:22.619Z</time>
      </trkpt>
      <trkpt lat="45.95003" lon="3.8791">
        <ele>894</ele>
        <time>2024-12-08T05:12:23.620Z</time>
      </trkpt>
      <trkpt lat="45.95004" lon="3.87908">
        <ele>894</ele>
        <time>2024-12-08T05:12:24.619Z</time>
      </trkpt>
      <trkpt lat="45.95005" lon="3.87907">
        <ele>894</ele>
        <time>2024-12-08T05:12:25.619Z</time>
      </trkpt>
      <trkpt lat="45.95006" lon="3.87905">
        <ele>894</ele>
        <time>2024-12-08T05:12:26.619Z</time>
      </trkpt>
      <trkpt lat="45.95008" lon="3.87904">
        <ele>894</ele>
        <time>2024-12-08T05:12:27.620Z</time>
      </trkpt>
      <trkpt lat="45.95008" lon="3.87901">
        <ele>894</ele>
        <time>2024-12-08T05:12:28.619Z</time>
      </trkpt>
      <trkpt lat="45.95009" lon="3.87899">
        <ele>894</ele>
        <time>2024-12-08T05:12:29.620Z</time>
      </trkpt>
      <trkpt lat="45.9501" lon="3.87896">
        <ele>894</ele>
        <time>2024-12-08T05:12:30.619Z</time>
      </trkpt>
      <trkpt lat="45.95011" lon="3.87894">
        <ele>894</ele>
        <time>2024-12-08T05:12:31.620Z</time>
      </trkpt>
      <trkpt lat="45.95012" lon="3.87892">
        <ele>894</ele>
        <time>2024-12-08T05:12:32.619Z</time>
      </trkpt>
      <trkpt lat="45.95013" lon="3.87891">
        <ele>894</ele>
        <time>2024-12-08T05:12:33.619Z</time>
      </trkpt>
      <trkpt lat="45.95014" lon="3.8789">
        <ele>894</ele>
        <time>2024-12-08T05:12:34.619Z</time>
      </trkpt>
      <trkpt lat="45.95015" lon="3.87888">
        <ele>894</ele>
        <time>2024-12-08T05:12:35.619Z</time>
      </trkpt>
      <trkpt lat="45.95017" lon="3.87887">
        <ele>895</ele>
        <time>2024-12-08T05:12:36.619Z</time>
      </trkpt>
      <trkpt lat="45.95018" lon="3.87885">
        <ele>895</ele>
        <time>2024-12-08T05:12:37.620Z</time>
      </trkpt>
      <trkpt lat="45.95019" lon="3.87884">
        <ele>895</ele>
        <time>2024-12-08T05:12:38.619Z</time>
      </trkpt>
      <trkpt lat="45.95019" lon="3.87882">
        <ele>895</ele>
        <time>2024-12-08T05:12:39.619Z</time>
      </trkpt>
      <trkpt lat="45.9502" lon="3.87881">
        <ele>895</ele>
        <time>2024-12-08T05:12:40.620Z</time>
      </trkpt>
      <trkpt lat="45.95021" lon="3.87879">
        <ele>895</ele>
        <time>2024-12-08T05:12:41.620Z</time>
      </trkpt>
      <trkpt lat="45.95022" lon="3.87878">
        <ele>895</ele>
        <time>2024-12-08T05:12:42.620Z</time>
      </trkpt>
      <trkpt lat="45.95024" lon="3.87877">
        <ele>895</ele>
        <time>2024-12-08T05:12:43.619Z</time>
      </trkpt>
      <trkpt lat="45.95025" lon="3.87875">
        <ele>895</ele>
        <time>2024-12-08T05:12:44.620Z</time>
      </trkpt>
      <trkpt lat="45.95025" lon="3.87873">
        <ele>895</ele>
        <time>2024-12-08T05:12:45.619Z</time>
      </trkpt>
      <trkpt lat="45.95026" lon="3.87871">
        <ele>895</ele>
        <time>2024-12-08T05:12:46.620Z</time>
      </trkpt>
      <trkpt lat="45.95027" lon="3.8787">
        <ele>895</ele>
        <time>2024-12-08T05:12:47.619Z</time>
      </trkpt>
      <trkpt lat="45.95028" lon="3.87868">
        <ele>895</ele>
        <time>2024-12-08T05:12:48.620Z</time>
      </trkpt>
      <trkpt lat="45.95029" lon="3.87867">
        <ele>895</ele>
        <time>2024-12-08T05:12:49.620Z</time>
      </trkpt>
      <trkpt lat="45.9503" lon="3.87865">
        <ele>895</ele>
        <time>2024-12-08T05:12:50.619Z</time>
      </trkpt>
      <trkpt lat="45.95031" lon="3.87864">
        <ele>894</ele>
        <time>2024-12-08T05:12:51.619Z</time>
      </trkpt>
      <trkpt lat="45.95032" lon="3.87861">
        <ele>894</ele>
        <time>2024-12-08T05:12:52.619Z</time>
      </trkpt>
      <trkpt lat="45.95032" lon="3.87859">
        <ele>894</ele>
        <time>2024-12-08T05:12:53.620Z</time>
      </trkpt>
      <trkpt lat="45.95033" lon="3.87857">
        <ele>894</ele>
        <time>2024-12-08T05:12:54.619Z</time>
      </trkpt>
      <trkpt lat="45.95034" lon="3.87856">
        <ele>894</ele>
        <time>2024-12-08T05:12:55.619Z</time>
      </trkpt>
      <trkpt lat="45.95035" lon="3.87854">
        <ele>894</ele>
        <time>2024-12-08T05:12:56.619Z</time>
      </trkpt>
      <trkpt lat="45.95036" lon="3.87852">
        <ele>893</ele>
        <time>2024-12-08T05:12:57.619Z</time>
      </trkpt>
      <trkpt lat="45.95037" lon="3.8785">
        <ele>893</ele>
        <time>2024-12-08T05:12:58.619Z</time>
      </trkpt>
      <trkpt lat="45.95037" lon="3.87849">
        <ele>893</ele>
        <time>2024-12-08T05:12:59.620Z</time>
      </trkpt>
      <trkpt lat="45.95038" lon="3.87847">
        <ele>893</ele>
        <time>2024-12-08T05:13:00.620Z</time>
      </trkpt>
      <trkpt lat="45.95039" lon="3.87845">
        <ele>893</ele>
        <time>2024-12-08T05:13:01.619Z</time>
      </trkpt>
      <trkpt lat="45.9504" lon="3.87843">
        <ele>892</ele>
        <time>2024-12-08T05:13:02.619Z</time>
      </trkpt>
      <trkpt lat="45.95041" lon="3.8784">
        <ele>892</ele>
        <time>2024-12-08T05:13:03.619Z</time>
      </trkpt>
      <trkpt lat="45.95041" lon="3.87837">
        <ele>892</ele>
        <time>2024-12-08T05:13:04.620Z</time>
      </trkpt>
      <trkpt lat="45.95042" lon="3.87835">
        <ele>892</ele>
        <time>2024-12-08T05:13:05.619Z</time>
      </trkpt>
      <trkpt lat="45.95044" lon="3.87833">
        <ele>892</ele>
        <time>2024-12-08T05:13:06.619Z</time>
      </trkpt>
      <trkpt lat="45.95045" lon="3.87832">
        <ele>891</ele>
        <time>2024-12-08T05:13:07.619Z</time>
      </trkpt>
      <trkpt lat="45.95045" lon="3.87831">
        <ele>891</ele>
        <time>2024-12-08T05:13:08.619Z</time>
      </trkpt>
      <trkpt lat="45.95046" lon="3.87829">
        <ele>891</ele>
        <time>2024-12-08T05:13:09.619Z</time>
      </trkpt>
      <trkpt lat="45.95047" lon="3.87828">
        <ele>891</ele>
        <time>2024-12-08T05:13:10.620Z</time>
      </trkpt>
      <trkpt lat="45.95047" lon="3.87825">
        <ele>891</ele>
        <time>2024-12-08T05:13:11.620Z</time>
      </trkpt>
      <trkpt lat="45.95049" lon="3.87823">
        <ele>891</ele>
        <time>2024-12-08T05:13:12.620Z</time>
      </trkpt>
      <trkpt lat="45.9505" lon="3.8782">
        <ele>891</ele>
        <time>2024-12-08T05:13:13.620Z</time>
      </trkpt>
      <trkpt lat="45.95051" lon="3.87818">
        <ele>891</ele>
        <time>2024-12-08T05:13:14.619Z</time>
      </trkpt>
      <trkpt lat="45.95051" lon="3.87816">
        <ele>891</ele>
        <time>2024-12-08T05:13:15.620Z</time>
      </trkpt>
      <trkpt lat="45.95052" lon="3.87814">
        <ele>891</ele>
        <time>2024-12-08T05:13:16.619Z</time>
      </trkpt>
      <trkpt lat="45.95053" lon="3.87811">
        <ele>891</ele>
        <time>2024-12-08T05:13:17.620Z</time>
      </trkpt>
      <trkpt lat="45.95054" lon="3.87809">
        <ele>891</ele>
        <time>2024-12-08T05:13:18.619Z</time>
      </trkpt>
      <trkpt lat="45.95055" lon="3.87807">
        <ele>891</ele>
        <time>2024-12-08T05:13:19.620Z</time>
      </trkpt>
      <trkpt lat="45.95056" lon="3.87805">
        <ele>891</ele>
        <time>2024-12-08T05:13:20.620Z</time>
      </trkpt>
      <trkpt lat="45.95057" lon="3.87804">
        <ele>892</ele>
        <time>2024-12-08T05:13:21.619Z</time>
      </trkpt>
      <trkpt lat="45.95058" lon="3.87801">
        <ele>892</ele>
        <time>2024-12-08T05:13:22.619Z</time>
      </trkpt>
      <trkpt lat="45.95059" lon="3.87799">
        <ele>892</ele>
        <time>2024-12-08T05:13:23.619Z</time>
      </trkpt>
      <trkpt lat="45.95059" lon="3.87796">
        <ele>892</ele>
        <time>2024-12-08T05:13:24.619Z</time>
      </trkpt>
      <trkpt lat="45.95059" lon="3.87793">
        <ele>893</ele>
        <time>2024-12-08T05:13:25.620Z</time>
      </trkpt>
      <trkpt lat="45.9506" lon="3.8779">
        <ele>893</ele>
        <time>2024-12-08T05:13:26.619Z</time>
      </trkpt>
      <trkpt lat="45.95061" lon="3.87788">
        <ele>893</ele>
        <time>2024-12-08T05:13:27.619Z</time>
      </trkpt>
      <trkpt lat="45.95062" lon="3.87785">
        <ele>893</ele>
        <time>2024-12-08T05:13:28.620Z</time>
      </trkpt>
      <trkpt lat="45.95063" lon="3.87783">
        <ele>893</ele>
        <time>2024-12-08T05:13:29.620Z</time>
      </trkpt>
      <trkpt lat="45.95064" lon="3.87782">
        <ele>893</ele>
        <time>2024-12-08T05:13:30.619Z</time>
      </trkpt>
      <trkpt lat="45.95065" lon="3.87779">
        <ele>893</ele>
        <time>2024-12-08T05:13:31.619Z</time>
      </trkpt>
      <trkpt lat="45.95067" lon="3.87777">
        <ele>893</ele>
        <time>2024-12-08T05:13:32.619Z</time>
      </trkpt>
      <trkpt lat="45.95069" lon="3.87775">
        <ele>893</ele>
        <time>2024-12-08T05:13:33.619Z</time>
      </trkpt>
      <trkpt lat="45.9507" lon="3.87773">
        <ele>893</ele>
        <time>2024-12-08T05:13:34.620Z</time>
      </trkpt>
      <trkpt lat="45.95071" lon="3.87771">
        <ele>893</ele>
        <time>2024-12-08T05:13:35.619Z</time>
      </trkpt>
      <trkpt lat="45.95072" lon="3.87768">
        <ele>893</ele>
        <time>2024-12-08T05:13:36.619Z</time>
      </trkpt>
      <trkpt lat="45.95073" lon="3.87766">
        <ele>893</ele>
        <time>2024-12-08T05:13:37.619Z</time>
      </trkpt>
      <trkpt lat="45.95074" lon="3.87764">
        <ele>893</ele>
        <time>2024-12-08T05:13:38.619Z</time>
      </trkpt>
      <trkpt lat="45.95075" lon="3.87761">
        <ele>893</ele>
        <time>2024-12-08T05:13:39.619Z</time>
      </trkpt>
      <trkpt lat="45.95076" lon="3.87759">
        <ele>893</ele>
        <time>2024-12-08T05:13:40.619Z</time>
      </trkpt>
      <trkpt lat="45.95079" lon="3.87757">
        <ele>893</ele>
        <time>2024-12-08T05:13:41.619Z</time>
      </trkpt>
      <trkpt lat="45.9508" lon="3.87754">
        <ele>894</ele>
        <time>2024-12-08T05:13:42.619Z</time>
      </trkpt>
      <trkpt lat="45.95082" lon="3.87751">
        <ele>894</ele>
        <time>2024-12-08T05:13:43.620Z</time>
      </trkpt>
      <trkpt lat="45.95083" lon="3.87749">
        <ele>895</ele>
        <time>2024-12-08T05:13:44.620Z</time>
      </trkpt>
      <trkpt lat="45.95085" lon="3.87747">
        <ele>895</ele>
        <time>2024-12-08T05:13:45.620Z</time>
      </trkpt>
      <trkpt lat="45.95086" lon="3.87746">
        <ele>895</ele>
        <time>2024-12-08T05:13:46.620Z</time>
      </trkpt>
      <trkpt lat="45.95086" lon="3.87744">
        <ele>896</ele>
        <time>2024-12-08T05:13:47.619Z</time>
      </trkpt>
      <trkpt lat="45.95087" lon="3.87742">
        <ele>896</ele>
        <time>2024-12-08T05:13:48.620Z</time>
      </trkpt>
      <trkpt lat="45.95088" lon="3.87739">
        <ele>896</ele>
        <time>2024-12-08T05:13:49.620Z</time>
      </trkpt>
      <trkpt lat="45.9509" lon="3.87737">
        <ele>896</ele>
        <time>2024-12-08T05:13:50.619Z</time>
      </trkpt>
      <trkpt lat="45.95091" lon="3.87735">
        <ele>897</ele>
        <time>2024-12-08T05:13:51.619Z</time>
      </trkpt>
      <trkpt lat="45.95092" lon="3.87733">
        <ele>897</ele>
        <time>2024-12-08T05:13:52.619Z</time>
      </trkpt>
      <trkpt lat="45.95094" lon="3.87732">
        <ele>896</ele>
        <time>2024-12-08T05:13:53.620Z</time>
      </trkpt>
      <trkpt lat="45.95095" lon="3.8773">
        <ele>896</ele>
        <time>2024-12-08T05:13:54.620Z</time>
      </trkpt>
      <trkpt lat="45.95096" lon="3.87729">
        <ele>896</ele>
        <time>2024-12-08T05:13:55.620Z</time>
      </trkpt>
      <trkpt lat="45.95097" lon="3.87728">
        <ele>896</ele>
        <time>2024-12-08T05:13:56.619Z</time>
      </trkpt>
      <trkpt lat="45.95098" lon="3.87727">
        <ele>895</ele>
        <time>2024-12-08T05:13:57.620Z</time>
      </trkpt>
      <trkpt lat="45.95099" lon="3.87726">
        <ele>895</ele>
        <time>2024-12-08T05:13:58.620Z</time>
      </trkpt>
      <trkpt lat="45.95101" lon="3.87725">
        <ele>894</ele>
        <time>2024-12-08T05:13:59.619Z</time>
      </trkpt>
      <trkpt lat="45.95102" lon="3.87724">
        <ele>894</ele>
        <time>2024-12-08T05:14:00.619Z</time>
      </trkpt>
      <trkpt lat="45.95103" lon="3.87722">
        <ele>893</ele>
        <time>2024-12-08T05:14:01.620Z</time>
      </trkpt>
      <trkpt lat="45.95105" lon="3.87721">
        <ele>893</ele>
        <time>2024-12-08T05:14:02.619Z</time>
      </trkpt>
      <trkpt lat="45.95106" lon="3.87721">
        <ele>892</ele>
        <time>2024-12-08T05:14:03.619Z</time>
      </trkpt>
      <trkpt lat="45.95108" lon="3.8772">
        <ele>892</ele>
        <time>2024-12-08T05:14:04.620Z</time>
      </trkpt>
      <trkpt lat="45.95109" lon="3.87719">
        <ele>891</ele>
        <time>2024-12-08T05:14:05.619Z</time>
      </trkpt>
      <trkpt lat="45.9511" lon="3.87719">
        <ele>891</ele>
        <time>2024-12-08T05:14:06.620Z</time>
      </trkpt>
      <trkpt lat="45.95112" lon="3.87719">
        <ele>890</ele>
        <time>2024-12-08T05:14:07.619Z</time>
      </trkpt>
      <trkpt lat="45.95114" lon="3.87719">
        <ele>890</ele>
        <time>2024-12-08T05:14:08.619Z</time>
      </trkpt>
      <trkpt lat="45.95115" lon="3.87718">
        <ele>890</ele>
        <time>2024-12-08T05:14:09.620Z</time>
      </trkpt>
      <trkpt lat="45.95117" lon="3.87717">
        <ele>890</ele>
        <time>2024-12-08T05:14:10.619Z</time>
      </trkpt>
      <trkpt lat="45.95118" lon="3.87717">
        <ele>890</ele>
        <time>2024-12-08T05:14:11.620Z</time>
      </trkpt>
      <trkpt lat="45.95119" lon="3.87717">
        <ele>890</ele>
        <time>2024-12-08T05:14:12.620Z</time>
      </trkpt>
      <trkpt lat="45.95121" lon="3.87717">
        <ele>890</ele>
        <time>2024-12-08T05:14:13.620Z</time>
      </trkpt>
      <trkpt lat="45.95122" lon="3.87717">
        <ele>890</ele>
        <time>2024-12-08T05:14:14.619Z</time>
      </trkpt>
      <trkpt lat="45.95124" lon="3.87718">
        <ele>890</ele>
        <time>2024-12-08T05:14:15.620Z</time>
      </trkpt>
      <trkpt lat="45.95125" lon="3.87718">
        <ele>890</ele>
        <time>2024-12-08T05:14:16.620Z</time>
      </trkpt>
      <trkpt lat="45.95127" lon="3.87719">
        <ele>889</ele>
        <time>2024-12-08T05:14:17.620Z</time>
      </trkpt>
      <trkpt lat="45.95129" lon="3.87719">
        <ele>889</ele>
        <time>2024-12-08T05:14:18.619Z</time>
      </trkpt>
      <trkpt lat="45.9513" lon="3.8772">
        <ele>889</ele>
        <time>2024-12-08T05:14:19.620Z</time>
      </trkpt>
      <trkpt lat="45.95132" lon="3.87721">
        <ele>889</ele>
        <time>2024-12-08T05:14:20.620Z</time>
      </trkpt>
      <trkpt lat="45.95133" lon="3.87722">
        <ele>889</ele>
        <time>2024-12-08T05:14:21.619Z</time>
      </trkpt>
      <trkpt lat="45.95135" lon="3.87723">
        <ele>889</ele>
        <time>2024-12-08T05:14:22.620Z</time>
      </trkpt>
      <trkpt lat="45.95136" lon="3.87724">
        <ele>888</ele>
        <time>2024-12-08T05:14:23.619Z</time>
      </trkpt>
      <trkpt lat="45.95138" lon="3.87726">
        <ele>888</ele>
        <time>2024-12-08T05:14:24.620Z</time>
      </trkpt>
      <trkpt lat="45.95139" lon="3.87727">
        <ele>887</ele>
        <time>2024-12-08T05:14:25.620Z</time>
      </trkpt>
      <trkpt lat="45.95141" lon="3.87728">
        <ele>887</ele>
        <time>2024-12-08T05:14:26.619Z</time>
      </trkpt>
      <trkpt lat="45.95142" lon="3.87729">
        <ele>887</ele>
        <time>2024-12-08T05:14:27.619Z</time>
      </trkpt>
      <trkpt lat="45.95144" lon="3.87731">
        <ele>886</ele>
        <time>2024-12-08T05:14:28.619Z</time>
      </trkpt>
      <trkpt lat="45.95145" lon="3.87732">
        <ele>886</ele>
        <time>2024-12-08T05:14:29.620Z</time>
      </trkpt>
      <trkpt lat="45.95147" lon="3.87734">
        <ele>885</ele>
        <time>2024-12-08T05:14:30.619Z</time>
      </trkpt>
      <trkpt lat="45.95148" lon="3.87735">
        <ele>885</ele>
        <time>2024-12-08T05:14:31.619Z</time>
      </trkpt>
      <trkpt lat="45.9515" lon="3.87737">
        <ele>885</ele>
        <time>2024-12-08T05:14:32.620Z</time>
      </trkpt>
      <trkpt lat="45.95151" lon="3.87739">
        <ele>885</ele>
        <time>2024-12-08T05:14:33.619Z</time>
      </trkpt>
      <trkpt lat="45.95152" lon="3.8774">
        <ele>885</ele>
        <time>2024-12-08T05:14:34.620Z</time>
      </trkpt>
      <trkpt lat="45.95153" lon="3.87741">
        <ele>885</ele>
        <time>2024-12-08T05:14:35.620Z</time>
      </trkpt>
      <trkpt lat="45.95155" lon="3.87743">
        <ele>884</ele>
        <time>2024-12-08T05:14:36.620Z</time>
      </trkpt>
      <trkpt lat="45.95156" lon="3.87744">
        <ele>884</ele>
        <time>2024-12-08T05:14:37.619Z</time>
      </trkpt>
      <trkpt lat="45.95157" lon="3.87745">
        <ele>884</ele>
        <time>2024-12-08T05:14:38.619Z</time>
      </trkpt>
      <trkpt lat="45.95159" lon="3.87747">
        <ele>884</ele>
        <time>2024-12-08T05:14:39.619Z</time>
      </trkpt>
      <trkpt lat="45.9516" lon="3.87748">
        <ele>884</ele>
        <time>2024-12-08T05:14:40.620Z</time>
      </trkpt>
      <trkpt lat="45.95161" lon="3.87749">
        <ele>883</ele>
        <time>2024-12-08T05:14:41.620Z</time>
      </trkpt>
      <trkpt lat="45.95162" lon="3.8775">
        <ele>883</ele>
        <time>2024-12-08T05:14:42.619Z</time>
      </trkpt>
      <trkpt lat="45.95164" lon="3.87752">
        <ele>883</ele>
        <time>2024-12-08T05:14:43.620Z</time>
      </trkpt>
      <trkpt lat="45.95165" lon="3.87753">
        <ele>882</ele>
        <time>2024-12-08T05:14:44.619Z</time>
      </trkpt>
      <trkpt lat="45.95166" lon="3.87755">
        <ele>882</ele>
        <time>2024-12-08T05:14:45.619Z</time>
      </trkpt>
      <trkpt lat="45.95168" lon="3.87756">
        <ele>882</ele>
        <time>2024-12-08T05:14:46.620Z</time>
      </trkpt>
      <trkpt lat="45.95169" lon="3.87758">
        <ele>882</ele>
        <time>2024-12-08T05:14:47.620Z</time>
      </trkpt>
      <trkpt lat="45.9517" lon="3.87759">
        <ele>882</ele>
        <time>2024-12-08T05:14:48.619Z</time>
      </trkpt>
      <trkpt lat="45.95171" lon="3.8776">
        <ele>882</ele>
        <time>2024-12-08T05:14:49.619Z</time>
      </trkpt>
      <trkpt lat="45.95172" lon="3.87761">
        <ele>883</ele>
        <time>2024-12-08T05:14:50.620Z</time>
      </trkpt>
      <trkpt lat="45.95173" lon="3.87763">
        <ele>882</ele>
        <time>2024-12-08T05:14:51.620Z</time>
      </trkpt>
      <trkpt lat="45.95174" lon="3.87764">
        <ele>883</ele>
        <time>2024-12-08T05:14:52.620Z</time>
      </trkpt>
      <trkpt lat="45.95176" lon="3.87765">
        <ele>882</ele>
        <time>2024-12-08T05:14:53.620Z</time>
      </trkpt>
      <trkpt lat="45.95177" lon="3.87767">
        <ele>883</ele>
        <time>2024-12-08T05:14:54.619Z</time>
      </trkpt>
      <trkpt lat="45.95178" lon="3.87768">
        <ele>883</ele>
        <time>2024-12-08T05:14:55.619Z</time>
      </trkpt>
      <trkpt lat="45.9518" lon="3.87769">
        <ele>883</ele>
        <time>2024-12-08T05:14:56.620Z</time>
      </trkpt>
      <trkpt lat="45.95181" lon="3.8777">
        <ele>883</ele>
        <time>2024-12-08T05:14:57.619Z</time>
      </trkpt>
      <trkpt lat="45.95182" lon="3.87771">
        <ele>882</ele>
        <time>2024-12-08T05:14:58.620Z</time>
      </trkpt>
      <trkpt lat="45.95183" lon="3.87773">
        <ele>882</ele>
        <time>2024-12-08T05:14:59.620Z</time>
      </trkpt>
      <trkpt lat="45.95184" lon="3.87774">
        <ele>882</ele>
        <time>2024-12-08T05:15:00.620Z</time>
      </trkpt>
      <trkpt lat="45.95185" lon="3.87775">
        <ele>882</ele>
        <time>2024-12-08T05:15:01.620Z</time>
      </trkpt>
      <trkpt lat="45.95186" lon="3.87776">
        <ele>881</ele>
        <time>2024-12-08T05:15:02.620Z</time>
      </trkpt>
      <trkpt lat="45.95188" lon="3.87778">
        <ele>881</ele>
        <time>2024-12-08T05:15:03.620Z</time>
      </trkpt>
      <trkpt lat="45.9519" lon="3.8778">
        <ele>881</ele>
        <time>2024-12-08T05:15:04.620Z</time>
      </trkpt>
      <trkpt lat="45.95191" lon="3.87781">
        <ele>881</ele>
        <time>2024-12-08T05:15:05.619Z</time>
      </trkpt>
      <trkpt lat="45.95192" lon="3.87783">
        <ele>881</ele>
        <time>2024-12-08T05:15:06.620Z</time>
      </trkpt>
      <trkpt lat="45.95194" lon="3.87784">
        <ele>881</ele>
        <time>2024-12-08T05:15:07.619Z</time>
      </trkpt>
      <trkpt lat="45.95195" lon="3.87785">
        <ele>881</ele>
        <time>2024-12-08T05:15:08.620Z</time>
      </trkpt>
      <trkpt lat="45.95196" lon="3.87786">
        <ele>881</ele>
        <time>2024-12-08T05:15:09.620Z</time>
      </trkpt>
      <trkpt lat="45.95197" lon="3.87787">
        <ele>881</ele>
        <time>2024-12-08T05:15:10.620Z</time>
      </trkpt>
      <trkpt lat="45.95198" lon="3.87789">
        <ele>881</ele>
        <time>2024-12-08T05:15:11.619Z</time>
      </trkpt>
      <trkpt lat="45.952" lon="3.8779">
        <ele>881</ele>
        <time>2024-12-08T05:15:12.620Z</time>
      </trkpt>
      <trkpt lat="45.95201" lon="3.87792">
        <ele>881</ele>
        <time>2024-12-08T05:15:13.619Z</time>
      </trkpt>
      <trkpt lat="45.95203" lon="3.87793">
        <ele>881</ele>
        <time>2024-12-08T05:15:14.620Z</time>
      </trkpt>
      <trkpt lat="45.95204" lon="3.87794">
        <ele>881</ele>
        <time>2024-12-08T05:15:15.620Z</time>
      </trkpt>
      <trkpt lat="45.95205" lon="3.87796">
        <ele>881</ele>
        <time>2024-12-08T05:15:16.620Z</time>
      </trkpt>
      <trkpt lat="45.95207" lon="3.87797">
        <ele>881</ele>
        <time>2024-12-08T05:15:17.620Z</time>
      </trkpt>
      <trkpt lat="45.95208" lon="3.87798">
        <ele>881</ele>
        <time>2024-12-08T05:15:18.619Z</time>
      </trkpt>
      <trkpt lat="45.95209" lon="3.87799">
        <ele>881</ele>
        <time>2024-12-08T05:15:19.620Z</time>
      </trkpt>
      <trkpt lat="45.95211" lon="3.87801">
        <ele>881</ele>
        <time>2024-12-08T05:15:20.619Z</time>
      </trkpt>
      <trkpt lat="45.95212" lon="3.87802">
        <ele>881</ele>
        <time>2024-12-08T05:15:21.619Z</time>
      </trkpt>
      <trkpt lat="45.95214" lon="3.87804">
        <ele>881</ele>
        <time>2024-12-08T05:15:22.619Z</time>
      </trkpt>
      <trkpt lat="45.95215" lon="3.87805">
        <ele>882</ele>
        <time>2024-12-08T05:15:23.620Z</time>
      </trkpt>
      <trkpt lat="45.95216" lon="3.87807">
        <ele>882</ele>
        <time>2024-12-08T05:15:24.619Z</time>
      </trkpt>
      <trkpt lat="45.95218" lon="3.87808">
        <ele>882</ele>
        <time>2024-12-08T05:15:25.619Z</time>
      </trkpt>
      <trkpt lat="45.9522" lon="3.87809">
        <ele>882</ele>
        <time>2024-12-08T05:15:26.619Z</time>
      </trkpt>
      <trkpt lat="45.95221" lon="3.8781">
        <ele>881</ele>
        <time>2024-12-08T05:15:27.620Z</time>
      </trkpt>
      <trkpt lat="45.95222" lon="3.87812">
        <ele>881</ele>
        <time>2024-12-08T05:15:28.620Z</time>
      </trkpt>
      <trkpt lat="45.95224" lon="3.87813">
        <ele>881</ele>
        <time>2024-12-08T05:15:29.620Z</time>
      </trkpt>
      <trkpt lat="45.95225" lon="3.87814">
        <ele>880</ele>
        <time>2024-12-08T05:15:30.619Z</time>
      </trkpt>
      <trkpt lat="45.95226" lon="3.87815">
        <ele>880</ele>
        <time>2024-12-08T05:15:31.619Z</time>
      </trkpt>
      <trkpt lat="45.95227" lon="3.87817">
        <ele>880</ele>
        <time>2024-12-08T05:15:32.620Z</time>
      </trkpt>
      <trkpt lat="45.95228" lon="3.87818">
        <ele>880</ele>
        <time>2024-12-08T05:15:33.620Z</time>
      </trkpt>
      <trkpt lat="45.95229" lon="3.8782">
        <ele>881</ele>
        <time>2024-12-08T05:15:34.619Z</time>
      </trkpt>
      <trkpt lat="45.95231" lon="3.87821">
        <ele>881</ele>
        <time>2024-12-08T05:15:35.620Z</time>
      </trkpt>
      <trkpt lat="45.95233" lon="3.87823">
        <ele>881</ele>
        <time>2024-12-08T05:15:36.619Z</time>
      </trkpt>
      <trkpt lat="45.95234" lon="3.87824">
        <ele>881</ele>
        <time>2024-12-08T05:15:37.619Z</time>
      </trkpt>
      <trkpt lat="45.95236" lon="3.87825">
        <ele>881</ele>
        <time>2024-12-08T05:15:38.620Z</time>
      </trkpt>
      <trkpt lat="45.95237" lon="3.87827">
        <ele>881</ele>
        <time>2024-12-08T05:15:39.619Z</time>
      </trkpt>
      <trkpt lat="45.95238" lon="3.87828">
        <ele>881</ele>
        <time>2024-12-08T05:15:40.620Z</time>
      </trkpt>
      <trkpt lat="45.9524" lon="3.87829">
        <ele>881</ele>
        <time>2024-12-08T05:15:41.620Z</time>
      </trkpt>
      <trkpt lat="45.95241" lon="3.8783">
        <ele>881</ele>
        <time>2024-12-08T05:15:42.619Z</time>
      </trkpt>
      <trkpt lat="45.95243" lon="3.87831">
        <ele>881</ele>
        <time>2024-12-08T05:15:43.619Z</time>
      </trkpt>
      <trkpt lat="45.95244" lon="3.87833">
        <ele>881</ele>
        <time>2024-12-08T05:15:44.620Z</time>
      </trkpt>
      <trkpt lat="45.95246" lon="3.87834">
        <ele>881</ele>
        <time>2024-12-08T05:15:45.619Z</time>
      </trkpt>
      <trkpt lat="45.95247" lon="3.87835">
        <ele>881</ele>
        <time>2024-12-08T05:15:46.620Z</time>
      </trkpt>
      <trkpt lat="45.95248" lon="3.87837">
        <ele>881</ele>
        <time>2024-12-08T05:15:47.620Z</time>
      </trkpt>
      <trkpt lat="45.9525" lon="3.87838">
        <ele>881</ele>
        <time>2024-12-08T05:15:48.619Z</time>
      </trkpt>
      <trkpt lat="45.95251" lon="3.87839">
        <ele>881</ele>
        <time>2024-12-08T05:15:49.620Z</time>
      </trkpt>
      <trkpt lat="45.95252" lon="3.87841">
        <ele>881</ele>
        <time>2024-12-08T05:15:50.620Z</time>
      </trkpt>
      <trkpt lat="45.95254" lon="3.87842">
        <ele>881</ele>
        <time>2024-12-08T05:15:51.619Z</time>
      </trkpt>
      <trkpt lat="45.95256" lon="3.87844">
        <ele>881</ele>
        <time>2024-12-08T05:15:52.619Z</time>
      </trkpt>
      <trkpt lat="45.95257" lon="3.87846">
        <ele>881</ele>
        <time>2024-12-08T05:15:53.620Z</time>
      </trkpt>
      <trkpt lat="45.95259" lon="3.87847">
        <ele>880</ele>
        <time>2024-12-08T05:15:54.619Z</time>
      </trkpt>
      <trkpt lat="45.9526" lon="3.87849">
        <ele>880</ele>
        <time>2024-12-08T05:15:55.620Z</time>
      </trkpt>
      <trkpt lat="45.95261" lon="3.87851">
        <ele>880</ele>
        <time>2024-12-08T05:15:56.620Z</time>
      </trkpt>
      <trkpt lat="45.95262" lon="3.87852">
        <ele>879</ele>
        <time>2024-12-08T05:15:57.619Z</time>
      </trkpt>
      <trkpt lat="45.95263" lon="3.87854">
        <ele>879</ele>
        <time>2024-12-08T05:15:58.620Z</time>
      </trkpt>
      <trkpt lat="45.95264" lon="3.87856">
        <ele>879</ele>
        <time>2024-12-08T05:15:59.620Z</time>
      </trkpt>
      <trkpt lat="45.95265" lon="3.87858">
        <ele>879</ele>
        <time>2024-12-08T05:16:00.619Z</time>
      </trkpt>
      <trkpt lat="45.95266" lon="3.87859">
        <ele>879</ele>
        <time>2024-12-08T05:16:01.620Z</time>
      </trkpt>
      <trkpt lat="45.95267" lon="3.87861">
        <ele>879</ele>
        <time>2024-12-08T05:16:02.619Z</time>
      </trkpt>
      <trkpt lat="45.95268" lon="3.87862">
        <ele>878</ele>
        <time>2024-12-08T05:16:03.620Z</time>
      </trkpt>
      <trkpt lat="45.95269" lon="3.87864">
        <ele>877</ele>
        <time>2024-12-08T05:16:04.620Z</time>
      </trkpt>
      <trkpt lat="45.9527" lon="3.87865">
        <ele>877</ele>
        <time>2024-12-08T05:16:05.620Z</time>
      </trkpt>
      <trkpt lat="45.95271" lon="3.87867">
        <ele>877</ele>
        <time>2024-12-08T05:16:06.620Z</time>
      </trkpt>
      <trkpt lat="45.95272" lon="3.87869">
        <ele>876</ele>
        <time>2024-12-08T05:16:07.620Z</time>
      </trkpt>
      <trkpt lat="45.95273" lon="3.87871">
        <ele>876</ele>
        <time>2024-12-08T05:16:08.620Z</time>
      </trkpt>
      <trkpt lat="45.95274" lon="3.87873">
        <ele>876</ele>
        <time>2024-12-08T05:16:09.620Z</time>
      </trkpt>
      <trkpt lat="45.95276" lon="3.87875">
        <ele>876</ele>
        <time>2024-12-08T05:16:10.620Z</time>
      </trkpt>
      <trkpt lat="45.95277" lon="3.87877">
        <ele>876</ele>
        <time>2024-12-08T05:16:11.619Z</time>
      </trkpt>
      <trkpt lat="45.95277" lon="3.87878">
        <ele>876</ele>
        <time>2024-12-08T05:16:12.619Z</time>
      </trkpt>
      <trkpt lat="45.95279" lon="3.8788">
        <ele>876</ele>
        <time>2024-12-08T05:16:13.620Z</time>
      </trkpt>
      <trkpt lat="45.9528" lon="3.87881">
        <ele>875</ele>
        <time>2024-12-08T05:16:14.619Z</time>
      </trkpt>
      <trkpt lat="45.95281" lon="3.87883">
        <ele>875</ele>
        <time>2024-12-08T05:16:15.620Z</time>
      </trkpt>
      <trkpt lat="45.95282" lon="3.87885">
        <ele>874</ele>
        <time>2024-12-08T05:16:16.620Z</time>
      </trkpt>
      <trkpt lat="45.95283" lon="3.87887">
        <ele>874</ele>
        <time>2024-12-08T05:16:17.620Z</time>
      </trkpt>
      <trkpt lat="45.95284" lon="3.87888">
        <ele>874</ele>
        <time>2024-12-08T05:16:18.619Z</time>
      </trkpt>
      <trkpt lat="45.95285" lon="3.8789">
        <ele>873</ele>
        <time>2024-12-08T05:16:19.619Z</time>
      </trkpt>
      <trkpt lat="45.95286" lon="3.87893">
        <ele>873</ele>
        <time>2024-12-08T05:16:20.619Z</time>
      </trkpt>
      <trkpt lat="45.95286" lon="3.87894">
        <ele>873</ele>
        <time>2024-12-08T05:16:21.620Z</time>
      </trkpt>
      <trkpt lat="45.95287" lon="3.87896">
        <ele>873</ele>
        <time>2024-12-08T05:16:22.619Z</time>
      </trkpt>
      <trkpt lat="45.95288" lon="3.87899">
        <ele>872</ele>
        <time>2024-12-08T05:16:23.619Z</time>
      </trkpt>
      <trkpt lat="45.95289" lon="3.87901">
        <ele>872</ele>
        <time>2024-12-08T05:16:24.620Z</time>
      </trkpt>
      <trkpt lat="45.9529" lon="3.87903">
        <ele>872</ele>
        <time>2024-12-08T05:16:25.620Z</time>
      </trkpt>
      <trkpt lat="45.9529" lon="3.87905">
        <ele>872</ele>
        <time>2024-12-08T05:16:26.620Z</time>
      </trkpt>
      <trkpt lat="45.95291" lon="3.87907">
        <ele>872</ele>
        <time>2024-12-08T05:16:27.620Z</time>
      </trkpt>
      <trkpt lat="45.95292" lon="3.87909">
        <ele>872</ele>
        <time>2024-12-08T05:16:28.620Z</time>
      </trkpt>
      <trkpt lat="45.95293" lon="3.87911">
        <ele>873</ele>
        <time>2024-12-08T05:16:29.620Z</time>
      </trkpt>
      <trkpt lat="45.95293" lon="3.87914">
        <ele>873</ele>
        <time>2024-12-08T05:16:30.620Z</time>
      </trkpt>
      <trkpt lat="45.95294" lon="3.87916">
        <ele>873</ele>
        <time>2024-12-08T05:16:31.620Z</time>
      </trkpt>
      <trkpt lat="45.95294" lon="3.87918">
        <ele>873</ele>
        <time>2024-12-08T05:16:32.619Z</time>
      </trkpt>
      <trkpt lat="45.95295" lon="3.87919">
        <ele>874</ele>
        <time>2024-12-08T05:16:33.620Z</time>
      </trkpt>
      <trkpt lat="45.95296" lon="3.87922">
        <ele>874</ele>
        <time>2024-12-08T05:16:34.620Z</time>
      </trkpt>
      <trkpt lat="45.95297" lon="3.87924">
        <ele>874</ele>
        <time>2024-12-08T05:16:35.620Z</time>
      </trkpt>
      <trkpt lat="45.95298" lon="3.87927">
        <ele>875</ele>
        <time>2024-12-08T05:16:36.619Z</time>
      </trkpt>
      <trkpt lat="45.95299" lon="3.87929">
        <ele>875</ele>
        <time>2024-12-08T05:16:37.620Z</time>
      </trkpt>
      <trkpt lat="45.953" lon="3.87931">
        <ele>875</ele>
        <time>2024-12-08T05:16:38.620Z</time>
      </trkpt>
      <trkpt lat="45.953" lon="3.87933">
        <ele>875</ele>
        <time>2024-12-08T05:16:39.620Z</time>
      </trkpt>
      <trkpt lat="45.95301" lon="3.87935">
        <ele>875</ele>
        <time>2024-12-08T05:16:40.619Z</time>
      </trkpt>
      <trkpt lat="45.95302" lon="3.87937">
        <ele>875</ele>
        <time>2024-12-08T05:16:41.619Z</time>
      </trkpt>
      <trkpt lat="45.95303" lon="3.8794">
        <ele>875</ele>
        <time>2024-12-08T05:16:42.619Z</time>
      </trkpt>
      <trkpt lat="45.95304" lon="3.87942">
        <ele>875</ele>
        <time>2024-12-08T05:16:43.619Z</time>
      </trkpt>
      <trkpt lat="45.95304" lon="3.87944">
        <ele>875</ele>
        <time>2024-12-08T05:16:44.619Z</time>
      </trkpt>
      <trkpt lat="45.95305" lon="3.87946">
        <ele>875</ele>
        <time>2024-12-08T05:16:45.620Z</time>
      </trkpt>
      <trkpt lat="45.95306" lon="3.87948">
        <ele>875</ele>
        <time>2024-12-08T05:16:46.620Z</time>
      </trkpt>
      <trkpt lat="45.95306" lon="3.8795">
        <ele>875</ele>
        <time>2024-12-08T05:16:47.620Z</time>
      </trkpt>
      <trkpt lat="45.95307" lon="3.87952">
        <ele>875</ele>
        <time>2024-12-08T05:16:48.620Z</time>
      </trkpt>
      <trkpt lat="45.95308" lon="3.87954">
        <ele>875</ele>
        <time>2024-12-08T05:16:49.620Z</time>
      </trkpt>
      <trkpt lat="45.95309" lon="3.87957">
        <ele>875</ele>
        <time>2024-12-08T05:16:50.619Z</time>
      </trkpt>
      <trkpt lat="45.95309" lon="3.87959">
        <ele>875</ele>
        <time>2024-12-08T05:16:51.619Z</time>
      </trkpt>
      <trkpt lat="45.9531" lon="3.87961">
        <ele>875</ele>
        <time>2024-12-08T05:16:52.620Z</time>
      </trkpt>
      <trkpt lat="45.95311" lon="3.87963">
        <ele>875</ele>
        <time>2024-12-08T05:16:53.619Z</time>
      </trkpt>
      <trkpt lat="45.95312" lon="3.87965">
        <ele>875</ele>
        <time>2024-12-08T05:16:54.619Z</time>
      </trkpt>
      <trkpt lat="45.95313" lon="3.87967">
        <ele>875</ele>
        <time>2024-12-08T05:16:55.619Z</time>
      </trkpt>
      <trkpt lat="45.95314" lon="3.87968">
        <ele>875</ele>
        <time>2024-12-08T05:16:56.620Z</time>
      </trkpt>
      <trkpt lat="45.95315" lon="3.8797">
        <ele>875</ele>
        <time>2024-12-08T05:16:57.620Z</time>
      </trkpt>
      <trkpt lat="45.95316" lon="3.87971">
        <ele>874</ele>
        <time>2024-12-08T05:16:58.620Z</time>
      </trkpt>
      <trkpt lat="45.95317" lon="3.87973">
        <ele>874</ele>
        <time>2024-12-08T05:16:59.620Z</time>
      </trkpt>
      <trkpt lat="45.95318" lon="3.87975">
        <ele>874</ele>
        <time>2024-12-08T05:17:00.619Z</time>
      </trkpt>
      <trkpt lat="45.95318" lon="3.87977">
        <ele>874</ele>
        <time>2024-12-08T05:17:01.619Z</time>
      </trkpt>
      <trkpt lat="45.95319" lon="3.87979">
        <ele>874</ele>
        <time>2024-12-08T05:17:02.620Z</time>
      </trkpt>
      <trkpt lat="45.9532" lon="3.87981">
        <ele>874</ele>
        <time>2024-12-08T05:17:03.619Z</time>
      </trkpt>
      <trkpt lat="45.95321" lon="3.87983">
        <ele>874</ele>
        <time>2024-12-08T05:17:04.620Z</time>
      </trkpt>
      <trkpt lat="45.95322" lon="3.87985">
        <ele>874</ele>
        <time>2024-12-08T05:17:05.620Z</time>
      </trkpt>
      <trkpt lat="45.95323" lon="3.87987">
        <ele>874</ele>
        <time>2024-12-08T05:17:06.620Z</time>
      </trkpt>
      <trkpt lat="45.95324" lon="3.87989">
        <ele>874</ele>
        <time>2024-12-08T05:17:07.619Z</time>
      </trkpt>
      <trkpt lat="45.95325" lon="3.8799">
        <ele>873</ele>
        <time>2024-12-08T05:17:08.619Z</time>
      </trkpt>
      <trkpt lat="45.95326" lon="3.87992">
        <ele>873</ele>
        <time>2024-12-08T05:17:09.619Z</time>
      </trkpt>
      <trkpt lat="45.95326" lon="3.87994">
        <ele>872</ele>
        <time>2024-12-08T05:17:10.620Z</time>
      </trkpt>
      <trkpt lat="45.95328" lon="3.87996">
        <ele>872</ele>
        <time>2024-12-08T05:17:11.620Z</time>
      </trkpt>
      <trkpt lat="45.95328" lon="3.87998">
        <ele>871</ele>
        <time>2024-12-08T05:17:12.620Z</time>
      </trkpt>
      <trkpt lat="45.95329" lon="3.88">
        <ele>871</ele>
        <time>2024-12-08T05:17:13.619Z</time>
      </trkpt>
      <trkpt lat="45.9533" lon="3.88002">
        <ele>871</ele>
        <time>2024-12-08T05:17:14.619Z</time>
      </trkpt>
      <trkpt lat="45.9533" lon="3.88004">
        <ele>871</ele>
        <time>2024-12-08T05:17:15.619Z</time>
      </trkpt>
      <trkpt lat="45.95331" lon="3.88006">
        <ele>871</ele>
        <time>2024-12-08T05:17:16.619Z</time>
      </trkpt>
      <trkpt lat="45.95331" lon="3.88008">
        <ele>870</ele>
        <time>2024-12-08T05:17:17.619Z</time>
      </trkpt>
      <trkpt lat="45.95332" lon="3.8801">
        <ele>870</ele>
        <time>2024-12-08T05:17:18.620Z</time>
      </trkpt>
      <trkpt lat="45.95332" lon="3.88013">
        <ele>870</ele>
        <time>2024-12-08T05:17:19.619Z</time>
      </trkpt>
      <trkpt lat="45.95333" lon="3.88016">
        <ele>870</ele>
        <time>2024-12-08T05:17:20.619Z</time>
      </trkpt>
      <trkpt lat="45.95333" lon="3.88017">
        <ele>870</ele>
        <time>2024-12-08T05:17:21.619Z</time>
      </trkpt>
      <trkpt lat="45.95334" lon="3.8802">
        <ele>871</ele>
        <time>2024-12-08T05:17:22.620Z</time>
      </trkpt>
      <trkpt lat="45.95335" lon="3.88022">
        <ele>871</ele>
        <time>2024-12-08T05:17:23.619Z</time>
      </trkpt>
      <trkpt lat="45.95335" lon="3.88024">
        <ele>871</ele>
        <time>2024-12-08T05:17:24.620Z</time>
      </trkpt>
      <trkpt lat="45.95336" lon="3.88026">
        <ele>871</ele>
        <time>2024-12-08T05:17:25.619Z</time>
      </trkpt>
      <trkpt lat="45.95337" lon="3.88028">
        <ele>871</ele>
        <time>2024-12-08T05:17:26.620Z</time>
      </trkpt>
      <trkpt lat="45.95338" lon="3.8803">
        <ele>870</ele>
        <time>2024-12-08T05:17:27.620Z</time>
      </trkpt>
      <trkpt lat="45.95339" lon="3.88033">
        <ele>870</ele>
        <time>2024-12-08T05:17:28.619Z</time>
      </trkpt>
      <trkpt lat="45.9534" lon="3.88035">
        <ele>870</ele>
        <time>2024-12-08T05:17:29.620Z</time>
      </trkpt>
      <trkpt lat="45.95341" lon="3.88036">
        <ele>870</ele>
        <time>2024-12-08T05:17:30.620Z</time>
      </trkpt>
      <trkpt lat="45.95342" lon="3.88038">
        <ele>870</ele>
        <time>2024-12-08T05:17:31.619Z</time>
      </trkpt>
      <trkpt lat="45.95343" lon="3.88041">
        <ele>870</ele>
        <time>2024-12-08T05:17:32.620Z</time>
      </trkpt>
      <trkpt lat="45.95343" lon="3.88043">
        <ele>871</ele>
        <time>2024-12-08T05:17:33.620Z</time>
      </trkpt>
      <trkpt lat="45.95344" lon="3.88045">
        <ele>871</ele>
        <time>2024-12-08T05:17:34.619Z</time>
      </trkpt>
      <trkpt lat="45.95345" lon="3.88047">
        <ele>871</ele>
        <time>2024-12-08T05:17:35.620Z</time>
      </trkpt>
      <trkpt lat="45.95346" lon="3.88049">
        <ele>871</ele>
        <time>2024-12-08T05:17:36.619Z</time>
      </trkpt>
      <trkpt lat="45.95347" lon="3.88052">
        <ele>871</ele>
        <time>2024-12-08T05:17:37.619Z</time>
      </trkpt>
      <trkpt lat="45.95348" lon="3.88054">
        <ele>871</ele>
        <time>2024-12-08T05:17:38.620Z</time>
      </trkpt>
      <trkpt lat="45.95349" lon="3.88056">
        <ele>871</ele>
        <time>2024-12-08T05:17:39.619Z</time>
      </trkpt>
      <trkpt lat="45.9535" lon="3.88058">
        <ele>871</ele>
        <time>2024-12-08T05:17:40.619Z</time>
      </trkpt>
      <trkpt lat="45.95351" lon="3.8806">
        <ele>871</ele>
        <time>2024-12-08T05:17:41.619Z</time>
      </trkpt>
      <trkpt lat="45.95351" lon="3.88061">
        <ele>871</ele>
        <time>2024-12-08T05:17:42.620Z</time>
      </trkpt>
      <trkpt lat="45.95353" lon="3.88064">
        <ele>871</ele>
        <time>2024-12-08T05:17:43.619Z</time>
      </trkpt>
      <trkpt lat="45.95353" lon="3.88066">
        <ele>871</ele>
        <time>2024-12-08T05:17:44.619Z</time>
      </trkpt>
      <trkpt lat="45.95354" lon="3.88068">
        <ele>871</ele>
        <time>2024-12-08T05:17:45.620Z</time>
      </trkpt>
      <trkpt lat="45.95355" lon="3.8807">
        <ele>870</ele>
        <time>2024-12-08T05:17:46.619Z</time>
      </trkpt>
      <trkpt lat="45.95356" lon="3.88072">
        <ele>870</ele>
        <time>2024-12-08T05:17:47.620Z</time>
      </trkpt>
      <trkpt lat="45.95357" lon="3.88074">
        <ele>870</ele>
        <time>2024-12-08T05:17:48.620Z</time>
      </trkpt>
      <trkpt lat="45.95358" lon="3.88077">
        <ele>870</ele>
        <time>2024-12-08T05:17:49.619Z</time>
      </trkpt>
      <trkpt lat="45.95359" lon="3.88079">
        <ele>870</ele>
        <time>2024-12-08T05:17:50.619Z</time>
      </trkpt>
      <trkpt lat="45.95359" lon="3.88081">
        <ele>870</ele>
        <time>2024-12-08T05:17:51.619Z</time>
      </trkpt>
      <trkpt lat="45.9536" lon="3.88082">
        <ele>870</ele>
        <time>2024-12-08T05:17:52.619Z</time>
      </trkpt>
      <trkpt lat="45.95361" lon="3.88084">
        <ele>870</ele>
        <time>2024-12-08T05:17:53.620Z</time>
      </trkpt>
      <trkpt lat="45.95361" lon="3.88087">
        <ele>870</ele>
        <time>2024-12-08T05:17:54.619Z</time>
      </trkpt>
      <trkpt lat="45.95362" lon="3.88089">
        <ele>870</ele>
        <time>2024-12-08T05:17:55.619Z</time>
      </trkpt>
      <trkpt lat="45.95363" lon="3.88091">
        <ele>870</ele>
        <time>2024-12-08T05:17:56.619Z</time>
      </trkpt>
      <trkpt lat="45.95365" lon="3.88093">
        <ele>870</ele>
        <time>2024-12-08T05:17:57.619Z</time>
      </trkpt>
      <trkpt lat="45.95366" lon="3.88094">
        <ele>870</ele>
        <time>2024-12-08T05:17:58.619Z</time>
      </trkpt>
      <trkpt lat="45.95366" lon="3.88096">
        <ele>870</ele>
        <time>2024-12-08T05:17:59.619Z</time>
      </trkpt>
      <trkpt lat="45.95367" lon="3.88098">
        <ele>869</ele>
        <time>2024-12-08T05:18:00.620Z</time>
      </trkpt>
      <trkpt lat="45.95368" lon="3.881">
        <ele>869</ele>
        <time>2024-12-08T05:18:01.619Z</time>
      </trkpt>
      <trkpt lat="45.95369" lon="3.88102">
        <ele>868</ele>
        <time>2024-12-08T05:18:02.619Z</time>
      </trkpt>
      <trkpt lat="45.9537" lon="3.88105">
        <ele>868</ele>
        <time>2024-12-08T05:18:03.619Z</time>
      </trkpt>
      <trkpt lat="45.95371" lon="3.88106">
        <ele>868</ele>
        <time>2024-12-08T05:18:04.619Z</time>
      </trkpt>
      <trkpt lat="45.95371" lon="3.88109">
        <ele>867</ele>
        <time>2024-12-08T05:18:05.619Z</time>
      </trkpt>
      <trkpt lat="45.95372" lon="3.88111">
        <ele>867</ele>
        <time>2024-12-08T05:18:06.620Z</time>
      </trkpt>
      <trkpt lat="45.95373" lon="3.88113">
        <ele>867</ele>
        <time>2024-12-08T05:18:07.619Z</time>
      </trkpt>
      <trkpt lat="45.95373" lon="3.88115">
        <ele>867</ele>
        <time>2024-12-08T05:18:08.620Z</time>
      </trkpt>
      <trkpt lat="45.95374" lon="3.88117">
        <ele>867</ele>
        <time>2024-12-08T05:18:09.619Z</time>
      </trkpt>
      <trkpt lat="45.95374" lon="3.8812">
        <ele>867</ele>
        <time>2024-12-08T05:18:10.620Z</time>
      </trkpt>
      <trkpt lat="45.95375" lon="3.88122">
        <ele>867</ele>
        <time>2024-12-08T05:18:11.619Z</time>
      </trkpt>
      <trkpt lat="45.95375" lon="3.88125">
        <ele>867</ele>
        <time>2024-12-08T05:18:12.619Z</time>
      </trkpt>
      <trkpt lat="45.95376" lon="3.88127">
        <ele>867</ele>
        <time>2024-12-08T05:18:13.619Z</time>
      </trkpt>
      <trkpt lat="45.95376" lon="3.88129">
        <ele>867</ele>
        <time>2024-12-08T05:18:14.620Z</time>
      </trkpt>
      <trkpt lat="45.95377" lon="3.88131">
        <ele>867</ele>
        <time>2024-12-08T05:18:15.619Z</time>
      </trkpt>
      <trkpt lat="45.95378" lon="3.88133">
        <ele>867</ele>
        <time>2024-12-08T05:18:16.619Z</time>
      </trkpt>
      <trkpt lat="45.95379" lon="3.88136">
        <ele>867</ele>
        <time>2024-12-08T05:18:17.619Z</time>
      </trkpt>
      <trkpt lat="45.9538" lon="3.88138">
        <ele>867</ele>
        <time>2024-12-08T05:18:18.620Z</time>
      </trkpt>
      <trkpt lat="45.9538" lon="3.88141">
        <ele>867</ele>
        <time>2024-12-08T05:18:19.620Z</time>
      </trkpt>
      <trkpt lat="45.95381" lon="3.88143">
        <ele>866</ele>
        <time>2024-12-08T05:18:20.619Z</time>
      </trkpt>
      <trkpt lat="45.95381" lon="3.88145">
        <ele>866</ele>
        <time>2024-12-08T05:18:21.620Z</time>
      </trkpt>
      <trkpt lat="45.95381" lon="3.88147">
        <ele>866</ele>
        <time>2024-12-08T05:18:22.619Z</time>
      </trkpt>
      <trkpt lat="45.95382" lon="3.8815">
        <ele>866</ele>
        <time>2024-12-08T05:18:23.620Z</time>
      </trkpt>
      <trkpt lat="45.95382" lon="3.88152">
        <ele>866</ele>
        <time>2024-12-08T05:18:24.620Z</time>
      </trkpt>
      <trkpt lat="45.95383" lon="3.88155">
        <ele>866</ele>
        <time>2024-12-08T05:18:25.620Z</time>
      </trkpt>
      <trkpt lat="45.95384" lon="3.88157">
        <ele>866</ele>
        <time>2024-12-08T05:18:26.620Z</time>
      </trkpt>
      <trkpt lat="45.95384" lon="3.8816">
        <ele>866</ele>
        <time>2024-12-08T05:18:27.619Z</time>
      </trkpt>
      <trkpt lat="45.95385" lon="3.88161">
        <ele>866</ele>
        <time>2024-12-08T05:18:28.619Z</time>
      </trkpt>
      <trkpt lat="45.95385" lon="3.88163">
        <ele>865</ele>
        <time>2024-12-08T05:18:29.619Z</time>
      </trkpt>
      <trkpt lat="45.95386" lon="3.88166">
        <ele>865</ele>
        <time>2024-12-08T05:18:30.620Z</time>
      </trkpt>
      <trkpt lat="45.95387" lon="3.88168">
        <ele>865</ele>
        <time>2024-12-08T05:18:31.619Z</time>
      </trkpt>
      <trkpt lat="45.95387" lon="3.88171">
        <ele>864</ele>
        <time>2024-12-08T05:18:32.619Z</time>
      </trkpt>
      <trkpt lat="45.95387" lon="3.88173">
        <ele>864</ele>
        <time>2024-12-08T05:18:33.619Z</time>
      </trkpt>
      <trkpt lat="45.95388" lon="3.88175">
        <ele>864</ele>
        <time>2024-12-08T05:18:34.619Z</time>
      </trkpt>
      <trkpt lat="45.95388" lon="3.88177">
        <ele>863</ele>
        <time>2024-12-08T05:18:35.619Z</time>
      </trkpt>
      <trkpt lat="45.95388" lon="3.8818">
        <ele>863</ele>
        <time>2024-12-08T05:18:36.619Z</time>
      </trkpt>
      <trkpt lat="45.95388" lon="3.88182">
        <ele>863</ele>
        <time>2024-12-08T05:18:37.619Z</time>
      </trkpt>
      <trkpt lat="45.95389" lon="3.88184">
        <ele>863</ele>
        <time>2024-12-08T05:18:38.619Z</time>
      </trkpt>
      <trkpt lat="45.9539" lon="3.88187">
        <ele>862</ele>
        <time>2024-12-08T05:18:39.620Z</time>
      </trkpt>
      <trkpt lat="45.95391" lon="3.8819">
        <ele>862</ele>
        <time>2024-12-08T05:18:40.619Z</time>
      </trkpt>
      <trkpt lat="45.95391" lon="3.88192">
        <ele>863</ele>
        <time>2024-12-08T05:18:41.620Z</time>
      </trkpt>
      <trkpt lat="45.95391" lon="3.88194">
        <ele>863</ele>
        <time>2024-12-08T05:18:42.620Z</time>
      </trkpt>
      <trkpt lat="45.95392" lon="3.88197">
        <ele>863</ele>
        <time>2024-12-08T05:18:43.620Z</time>
      </trkpt>
      <trkpt lat="45.95392" lon="3.88199">
        <ele>862</ele>
        <time>2024-12-08T05:18:44.620Z</time>
      </trkpt>
      <trkpt lat="45.95393" lon="3.88202">
        <ele>862</ele>
        <time>2024-12-08T05:18:45.620Z</time>
      </trkpt>
      <trkpt lat="45.95393" lon="3.88205">
        <ele>862</ele>
        <time>2024-12-08T05:18:46.620Z</time>
      </trkpt>
      <trkpt lat="45.95393" lon="3.88207">
        <ele>862</ele>
        <time>2024-12-08T05:18:47.619Z</time>
      </trkpt>
      <trkpt lat="45.95394" lon="3.8821">
        <ele>862</ele>
        <time>2024-12-08T05:18:48.620Z</time>
      </trkpt>
      <trkpt lat="45.95395" lon="3.88212">
        <ele>862</ele>
        <time>2024-12-08T05:18:49.619Z</time>
      </trkpt>
      <trkpt lat="45.95396" lon="3.88214">
        <ele>862</ele>
        <time>2024-12-08T05:18:50.620Z</time>
      </trkpt>
      <trkpt lat="45.95397" lon="3.88217">
        <ele>862</ele>
        <time>2024-12-08T05:18:51.619Z</time>
      </trkpt>
      <trkpt lat="45.95397" lon="3.88219">
        <ele>862</ele>
        <time>2024-12-08T05:18:52.620Z</time>
      </trkpt>
      <trkpt lat="45.95398" lon="3.88221">
        <ele>862</ele>
        <time>2024-12-08T05:18:53.619Z</time>
      </trkpt>
      <trkpt lat="45.95398" lon="3.88223">
        <ele>862</ele>
        <time>2024-12-08T05:18:54.620Z</time>
      </trkpt>
      <trkpt lat="45.95399" lon="3.88225">
        <ele>862</ele>
        <time>2024-12-08T05:18:55.619Z</time>
      </trkpt>
      <trkpt lat="45.95399" lon="3.88227">
        <ele>862</ele>
        <time>2024-12-08T05:18:56.620Z</time>
      </trkpt>
      <trkpt lat="45.95399" lon="3.88229">
        <ele>862</ele>
        <time>2024-12-08T05:18:57.619Z</time>
      </trkpt>
      <trkpt lat="45.954" lon="3.88231">
        <ele>862</ele>
        <time>2024-12-08T05:18:58.620Z</time>
      </trkpt>
      <trkpt lat="45.954" lon="3.88234">
        <ele>862</ele>
        <time>2024-12-08T05:18:59.620Z</time>
      </trkpt>
      <trkpt lat="45.954" lon="3.88236">
        <ele>862</ele>
        <time>2024-12-08T05:19:00.619Z</time>
      </trkpt>
      <trkpt lat="45.954" lon="3.88238">
        <ele>862</ele>
        <time>2024-12-08T05:19:01.620Z</time>
      </trkpt>
      <trkpt lat="45.95401" lon="3.8824">
        <ele>862</ele>
        <time>2024-12-08T05:19:02.619Z</time>
      </trkpt>
      <trkpt lat="45.95401" lon="3.88242">
        <ele>862</ele>
        <time>2024-12-08T05:19:03.620Z</time>
      </trkpt>
      <trkpt lat="45.95401" lon="3.88245">
        <ele>862</ele>
        <time>2024-12-08T05:19:04.619Z</time>
      </trkpt>
      <trkpt lat="45.95402" lon="3.88247">
        <ele>861</ele>
        <time>2024-12-08T05:19:05.620Z</time>
      </trkpt>
      <trkpt lat="45.95402" lon="3.88249">
        <ele>861</ele>
        <time>2024-12-08T05:19:06.619Z</time>
      </trkpt>
      <trkpt lat="45.95403" lon="3.88252">
        <ele>861</ele>
        <time>2024-12-08T05:19:07.619Z</time>
      </trkpt>
      <trkpt lat="45.95403" lon="3.88254">
        <ele>860</ele>
        <time>2024-12-08T05:19:08.619Z</time>
      </trkpt>
      <trkpt lat="45.95404" lon="3.88257">
        <ele>859</ele>
        <time>2024-12-08T05:19:09.620Z</time>
      </trkpt>
      <trkpt lat="45.95404" lon="3.88258">
        <ele>859</ele>
        <time>2024-12-08T05:19:10.619Z</time>
      </trkpt>
      <trkpt lat="45.95404" lon="3.88261">
        <ele>859</ele>
        <time>2024-12-08T05:19:11.620Z</time>
      </trkpt>
      <trkpt lat="45.95404" lon="3.88263">
        <ele>859</ele>
        <time>2024-12-08T05:19:12.619Z</time>
      </trkpt>
      <trkpt lat="45.95405" lon="3.88265">
        <ele>859</ele>
        <time>2024-12-08T05:19:13.620Z</time>
      </trkpt>
      <trkpt lat="45.95405" lon="3.88267">
        <ele>858</ele>
        <time>2024-12-08T05:19:14.620Z</time>
      </trkpt>
      <trkpt lat="45.95406" lon="3.8827">
        <ele>858</ele>
        <time>2024-12-08T05:19:15.619Z</time>
      </trkpt>
      <trkpt lat="45.95406" lon="3.88272">
        <ele>858</ele>
        <time>2024-12-08T05:19:16.620Z</time>
      </trkpt>
      <trkpt lat="45.95406" lon="3.88275">
        <ele>858</ele>
        <time>2024-12-08T05:19:17.619Z</time>
      </trkpt>
      <trkpt lat="45.95407" lon="3.88277">
        <ele>858</ele>
        <time>2024-12-08T05:19:18.620Z</time>
      </trkpt>
      <trkpt lat="45.95407" lon="3.88279">
        <ele>858</ele>
        <time>2024-12-08T05:19:19.620Z</time>
      </trkpt>
      <trkpt lat="45.95407" lon="3.88281">
        <ele>858</ele>
        <time>2024-12-08T05:19:20.620Z</time>
      </trkpt>
      <trkpt lat="45.95408" lon="3.88284">
        <ele>858</ele>
        <time>2024-12-08T05:19:21.619Z</time>
      </trkpt>
      <trkpt lat="45.95408" lon="3.88286">
        <ele>858</ele>
        <time>2024-12-08T05:19:22.619Z</time>
      </trkpt>
      <trkpt lat="45.95408" lon="3.88288">
        <ele>859</ele>
        <time>2024-12-08T05:19:23.620Z</time>
      </trkpt>
      <trkpt lat="45.95408" lon="3.8829">
        <ele>859</ele>
        <time>2024-12-08T05:19:24.620Z</time>
      </trkpt>
      <trkpt lat="45.95409" lon="3.88292">
        <ele>858</ele>
        <time>2024-12-08T05:19:25.620Z</time>
      </trkpt>
      <trkpt lat="45.95409" lon="3.88294">
        <ele>858</ele>
        <time>2024-12-08T05:19:26.619Z</time>
      </trkpt>
      <trkpt lat="45.95409" lon="3.88296">
        <ele>858</ele>
        <time>2024-12-08T05:19:27.619Z</time>
      </trkpt>
      <trkpt lat="45.95409" lon="3.88299">
        <ele>859</ele>
        <time>2024-12-08T05:19:28.619Z</time>
      </trkpt>
      <trkpt lat="45.95409" lon="3.88301">
        <ele>859</ele>
        <time>2024-12-08T05:19:29.620Z</time>
      </trkpt>
      <trkpt lat="45.9541" lon="3.88304">
        <ele>859</ele>
        <time>2024-12-08T05:19:30.619Z</time>
      </trkpt>
      <trkpt lat="45.9541" lon="3.88306">
        <ele>859</ele>
        <time>2024-12-08T05:19:31.619Z</time>
      </trkpt>
      <trkpt lat="45.9541" lon="3.88308">
        <ele>859</ele>
        <time>2024-12-08T05:19:32.619Z</time>
      </trkpt>
      <trkpt lat="45.9541" lon="3.8831">
        <ele>859</ele>
        <time>2024-12-08T05:19:33.620Z</time>
      </trkpt>
      <trkpt lat="45.95411" lon="3.88312">
        <ele>859</ele>
        <time>2024-12-08T05:19:34.619Z</time>
      </trkpt>
      <trkpt lat="45.95411" lon="3.88315">
        <ele>860</ele>
        <time>2024-12-08T05:19:35.620Z</time>
      </trkpt>
      <trkpt lat="45.95411" lon="3.88317">
        <ele>860</ele>
        <time>2024-12-08T05:19:36.620Z</time>
      </trkpt>
      <trkpt lat="45.95411" lon="3.88319">
        <ele>860</ele>
        <time>2024-12-08T05:19:37.619Z</time>
      </trkpt>
      <trkpt lat="45.95411" lon="3.88321">
        <ele>859</ele>
        <time>2024-12-08T05:19:38.620Z</time>
      </trkpt>
      <trkpt lat="45.95411" lon="3.88323">
        <ele>860</ele>
        <time>2024-12-08T05:19:39.619Z</time>
      </trkpt>
      <trkpt lat="45.95412" lon="3.88325">
        <ele>859</ele>
        <time>2024-12-08T05:19:40.619Z</time>
      </trkpt>
      <trkpt lat="45.95412" lon="3.88327">
        <ele>860</ele>
        <time>2024-12-08T05:19:41.619Z</time>
      </trkpt>
      <trkpt lat="45.95412" lon="3.88329">
        <ele>860</ele>
        <time>2024-12-08T05:19:42.619Z</time>
      </trkpt>
      <trkpt lat="45.95413" lon="3.88331">
        <ele>860</ele>
        <time>2024-12-08T05:19:43.620Z</time>
      </trkpt>
      <trkpt lat="45.95413" lon="3.88334">
        <ele>860</ele>
        <time>2024-12-08T05:19:44.620Z</time>
      </trkpt>
      <trkpt lat="45.95413" lon="3.88336">
        <ele>860</ele>
        <time>2024-12-08T05:19:45.620Z</time>
      </trkpt>
      <trkpt lat="45.95413" lon="3.88339">
        <ele>861</ele>
        <time>2024-12-08T05:19:46.620Z</time>
      </trkpt>
      <trkpt lat="45.95413" lon="3.8834">
        <ele>860</ele>
        <time>2024-12-08T05:19:47.619Z</time>
      </trkpt>
      <trkpt lat="45.95413" lon="3.88341">
        <ele>860</ele>
        <time>2024-12-08T05:19:48.620Z</time>
      </trkpt>
      <trkpt lat="45.95413" lon="3.88343">
        <ele>860</ele>
        <time>2024-12-08T05:19:49.619Z</time>
      </trkpt>
      <trkpt lat="45.95414" lon="3.88344">
        <ele>860</ele>
        <time>2024-12-08T05:19:50.619Z</time>
      </trkpt>
      <trkpt lat="45.95414" lon="3.88346">
        <ele>860</ele>
        <time>2024-12-08T05:19:51.619Z</time>
      </trkpt>
      <trkpt lat="45.95414" lon="3.88348">
        <ele>861</ele>
        <time>2024-12-08T05:19:52.619Z</time>
      </trkpt>
      <trkpt lat="45.95415" lon="3.88349">
        <ele>861</ele>
        <time>2024-12-08T05:19:53.620Z</time>
      </trkpt>
      <trkpt lat="45.95415" lon="3.88351">
        <ele>861</ele>
        <time>2024-12-08T05:19:54.620Z</time>
      </trkpt>
      <trkpt lat="45.95415" lon="3.88354">
        <ele>861</ele>
        <time>2024-12-08T05:19:55.620Z</time>
      </trkpt>
      <trkpt lat="45.95415" lon="3.88356">
        <ele>861</ele>
        <time>2024-12-08T05:19:56.619Z</time>
      </trkpt>
      <trkpt lat="45.95414" lon="3.88358">
        <ele>861</ele>
        <time>2024-12-08T05:19:57.620Z</time>
      </trkpt>
      <trkpt lat="45.95414" lon="3.8836">
        <ele>861</ele>
        <time>2024-12-08T05:19:58.619Z</time>
      </trkpt>
      <trkpt lat="45.95414" lon="3.88363">
        <ele>861</ele>
        <time>2024-12-08T05:19:59.619Z</time>
      </trkpt>
      <trkpt lat="45.95414" lon="3.88365">
        <ele>861</ele>
        <time>2024-12-08T05:20:00.619Z</time>
      </trkpt>
      <trkpt lat="45.95414" lon="3.88367">
        <ele>861</ele>
        <time>2024-12-08T05:20:01.620Z</time>
      </trkpt>
      <trkpt lat="45.95414" lon="3.88369">
        <ele>862</ele>
        <time>2024-12-08T05:20:02.620Z</time>
      </trkpt>
      <trkpt lat="45.95414" lon="3.88371">
        <ele>862</ele>
        <time>2024-12-08T05:20:03.620Z</time>
      </trkpt>
      <trkpt lat="45.95413" lon="3.88374">
        <ele>861</ele>
        <time>2024-12-08T05:20:04.620Z</time>
      </trkpt>
      <trkpt lat="45.95413" lon="3.88376">
        <ele>862</ele>
        <time>2024-12-08T05:20:05.619Z</time>
      </trkpt>
      <trkpt lat="45.95413" lon="3.88379">
        <ele>862</ele>
        <time>2024-12-08T05:20:06.620Z</time>
      </trkpt>
      <trkpt lat="45.95412" lon="3.88381">
        <ele>862</ele>
        <time>2024-12-08T05:20:07.619Z</time>
      </trkpt>
      <trkpt lat="45.95412" lon="3.88383">
        <ele>862</ele>
        <time>2024-12-08T05:20:08.620Z</time>
      </trkpt>
      <trkpt lat="45.95412" lon="3.88385">
        <ele>862</ele>
        <time>2024-12-08T05:20:09.619Z</time>
      </trkpt>
      <trkpt lat="45.95412" lon="3.88388">
        <ele>862</ele>
        <time>2024-12-08T05:20:10.620Z</time>
      </trkpt>
      <trkpt lat="45.95411" lon="3.8839">
        <ele>862</ele>
        <time>2024-12-08T05:20:11.620Z</time>
      </trkpt>
      <trkpt lat="45.95411" lon="3.88391">
        <ele>862</ele>
        <time>2024-12-08T05:20:12.619Z</time>
      </trkpt>
      <trkpt lat="45.9541" lon="3.88394">
        <ele>862</ele>
        <time>2024-12-08T05:20:13.620Z</time>
      </trkpt>
      <trkpt lat="45.95409" lon="3.88396">
        <ele>861</ele>
        <time>2024-12-08T05:20:14.619Z</time>
      </trkpt>
      <trkpt lat="45.95409" lon="3.88399">
        <ele>861</ele>
        <time>2024-12-08T05:20:15.619Z</time>
      </trkpt>
      <trkpt lat="45.95408" lon="3.884">
        <ele>862</ele>
        <time>2024-12-08T05:20:16.619Z</time>
      </trkpt>
      <trkpt lat="45.95408" lon="3.88403">
        <ele>862</ele>
        <time>2024-12-08T05:20:17.619Z</time>
      </trkpt>
      <trkpt lat="45.95407" lon="3.88404">
        <ele>862</ele>
        <time>2024-12-08T05:20:18.619Z</time>
      </trkpt>
      <trkpt lat="45.95407" lon="3.88406">
        <ele>862</ele>
        <time>2024-12-08T05:20:19.620Z</time>
      </trkpt>
      <trkpt lat="45.95406" lon="3.88408">
        <ele>862</ele>
        <time>2024-12-08T05:20:20.619Z</time>
      </trkpt>
      <trkpt lat="45.95405" lon="3.88411">
        <ele>863</ele>
        <time>2024-12-08T05:20:21.620Z</time>
      </trkpt>
      <trkpt lat="45.95405" lon="3.88413">
        <ele>863</ele>
        <time>2024-12-08T05:20:22.619Z</time>
      </trkpt>
      <trkpt lat="45.95404" lon="3.88414">
        <ele>863</ele>
        <time>2024-12-08T05:20:23.620Z</time>
      </trkpt>
      <trkpt lat="45.95404" lon="3.88416">
        <ele>863</ele>
        <time>2024-12-08T05:20:24.620Z</time>
      </trkpt>
      <trkpt lat="45.95403" lon="3.88418">
        <ele>863</ele>
        <time>2024-12-08T05:20:25.619Z</time>
      </trkpt>
      <trkpt lat="45.95402" lon="3.8842">
        <ele>863</ele>
        <time>2024-12-08T05:20:26.619Z</time>
      </trkpt>
      <trkpt lat="45.95401" lon="3.88422">
        <ele>863</ele>
        <time>2024-12-08T05:20:27.619Z</time>
      </trkpt>
      <trkpt lat="45.954" lon="3.88423">
        <ele>863</ele>
        <time>2024-12-08T05:20:28.620Z</time>
      </trkpt>
      <trkpt lat="45.95399" lon="3.88425">
        <ele>863</ele>
        <time>2024-12-08T05:20:29.619Z</time>
      </trkpt>
      <trkpt lat="45.95398" lon="3.88427">
        <ele>863</ele>
        <time>2024-12-08T05:20:30.619Z</time>
      </trkpt>
      <trkpt lat="45.95398" lon="3.88429">
        <ele>863</ele>
        <time>2024-12-08T05:20:31.619Z</time>
      </trkpt>
      <trkpt lat="45.95397" lon="3.8843">
        <ele>863</ele>
        <time>2024-12-08T05:20:32.620Z</time>
      </trkpt>
      <trkpt lat="45.95396" lon="3.88432">
        <ele>863</ele>
        <time>2024-12-08T05:20:33.620Z</time>
      </trkpt>
      <trkpt lat="45.95395" lon="3.88434">
        <ele>863</ele>
        <time>2024-12-08T05:20:34.620Z</time>
      </trkpt>
      <trkpt lat="45.95394" lon="3.88435">
        <ele>863</ele>
        <time>2024-12-08T05:20:35.620Z</time>
      </trkpt>
      <trkpt lat="45.95393" lon="3.88437">
        <ele>864</ele>
        <time>2024-12-08T05:20:36.619Z</time>
      </trkpt>
      <trkpt lat="45.95392" lon="3.88438">
        <ele>864</ele>
        <time>2024-12-08T05:20:37.620Z</time>
      </trkpt>
      <trkpt lat="45.95391" lon="3.88439">
        <ele>864</ele>
        <time>2024-12-08T05:20:38.619Z</time>
      </trkpt>
      <trkpt lat="45.9539" lon="3.88441">
        <ele>864</ele>
        <time>2024-12-08T05:20:39.619Z</time>
      </trkpt>
      <trkpt lat="45.95389" lon="3.88442">
        <ele>864</ele>
        <time>2024-12-08T05:20:40.619Z</time>
      </trkpt>
      <trkpt lat="45.95388" lon="3.88444">
        <ele>864</ele>
        <time>2024-12-08T05:20:41.620Z</time>
      </trkpt>
      <trkpt lat="45.95387" lon="3.88446">
        <ele>864</ele>
        <time>2024-12-08T05:20:42.619Z</time>
      </trkpt>
      <trkpt lat="45.95386" lon="3.88447">
        <ele>864</ele>
        <time>2024-12-08T05:20:43.620Z</time>
      </trkpt>
      <trkpt lat="45.95386" lon="3.88449">
        <ele>864</ele>
        <time>2024-12-08T05:20:44.619Z</time>
      </trkpt>
      <trkpt lat="45.95385" lon="3.8845">
        <ele>864</ele>
        <time>2024-12-08T05:20:45.620Z</time>
      </trkpt>
      <trkpt lat="45.95384" lon="3.88452">
        <ele>864</ele>
        <time>2024-12-08T05:20:46.620Z</time>
      </trkpt>
      <trkpt lat="45.95384" lon="3.88453">
        <ele>864</ele>
        <time>2024-12-08T05:20:47.620Z</time>
      </trkpt>
      <trkpt lat="45.95383" lon="3.88454">
        <ele>863</ele>
        <time>2024-12-08T05:20:48.619Z</time>
      </trkpt>
      <trkpt lat="45.95382" lon="3.88456">
        <ele>863</ele>
        <time>2024-12-08T05:20:49.619Z</time>
      </trkpt>
      <trkpt lat="45.95381" lon="3.88458">
        <ele>863</ele>
        <time>2024-12-08T05:20:50.620Z</time>
      </trkpt>
      <trkpt lat="45.9538" lon="3.88459">
        <ele>863</ele>
        <time>2024-12-08T05:20:51.619Z</time>
      </trkpt>
      <trkpt lat="45.9538" lon="3.88461">
        <ele>863</ele>
        <time>2024-12-08T05:20:52.619Z</time>
      </trkpt>
      <trkpt lat="45.95379" lon="3.88462">
        <ele>863</ele>
        <time>2024-12-08T05:20:53.620Z</time>
      </trkpt>
      <trkpt lat="45.95378" lon="3.88463">
        <ele>863</ele>
        <time>2024-12-08T05:20:54.619Z</time>
      </trkpt>
      <trkpt lat="45.95377" lon="3.88464">
        <ele>863</ele>
        <time>2024-12-08T05:20:55.619Z</time>
      </trkpt>
      <trkpt lat="45.95376" lon="3.88466">
        <ele>863</ele>
        <time>2024-12-08T05:20:56.619Z</time>
      </trkpt>
      <trkpt lat="45.95375" lon="3.88467">
        <ele>863</ele>
        <time>2024-12-08T05:20:57.619Z</time>
      </trkpt>
      <trkpt lat="45.95374" lon="3.88468">
        <ele>863</ele>
        <time>2024-12-08T05:20:58.620Z</time>
      </trkpt>
      <trkpt lat="45.95373" lon="3.8847">
        <ele>864</ele>
        <time>2024-12-08T05:20:59.620Z</time>
      </trkpt>
      <trkpt lat="45.95372" lon="3.88471">
        <ele>864</ele>
        <time>2024-12-08T05:21:00.619Z</time>
      </trkpt>
      <trkpt lat="45.95372" lon="3.88472">
        <ele>864</ele>
        <time>2024-12-08T05:21:01.619Z</time>
      </trkpt>
      <trkpt lat="45.95371" lon="3.88473">
        <ele>864</ele>
        <time>2024-12-08T05:21:02.620Z</time>
      </trkpt>
      <trkpt lat="45.95371" lon="3.88475">
        <ele>864</ele>
        <time>2024-12-08T05:21:03.620Z</time>
      </trkpt>
      <trkpt lat="45.9537" lon="3.88476">
        <ele>864</ele>
        <time>2024-12-08T05:21:04.620Z</time>
      </trkpt>
      <trkpt lat="45.95369" lon="3.88478">
        <ele>864</ele>
        <time>2024-12-08T05:21:05.620Z</time>
      </trkpt>
      <trkpt lat="45.95369" lon="3.88479">
        <ele>864</ele>
        <time>2024-12-08T05:21:06.620Z</time>
      </trkpt>
      <trkpt lat="45.95368" lon="3.88481">
        <ele>864</ele>
        <time>2024-12-08T05:21:07.620Z</time>
      </trkpt>
      <trkpt lat="45.95367" lon="3.88483">
        <ele>864</ele>
        <time>2024-12-08T05:21:08.619Z</time>
      </trkpt>
      <trkpt lat="45.95366" lon="3.88484">
        <ele>864</ele>
        <time>2024-12-08T05:21:09.619Z</time>
      </trkpt>
      <trkpt lat="45.95366" lon="3.88486">
        <ele>864</ele>
        <time>2024-12-08T05:21:10.620Z</time>
      </trkpt>
      <trkpt lat="45.95365" lon="3.88487">
        <ele>864</ele>
        <time>2024-12-08T05:21:11.619Z</time>
      </trkpt>
      <trkpt lat="45.95364" lon="3.88489">
        <ele>864</ele>
        <time>2024-12-08T05:21:12.619Z</time>
      </trkpt>
      <trkpt lat="45.95364" lon="3.8849">
        <ele>864</ele>
        <time>2024-12-08T05:21:13.620Z</time>
      </trkpt>
      <trkpt lat="45.95363" lon="3.88492">
        <ele>864</ele>
        <time>2024-12-08T05:21:14.619Z</time>
      </trkpt>
      <trkpt lat="45.95363" lon="3.88493">
        <ele>864</ele>
        <time>2024-12-08T05:21:15.619Z</time>
      </trkpt>
      <trkpt lat="45.95362" lon="3.88494">
        <ele>863</ele>
        <time>2024-12-08T05:21:16.620Z</time>
      </trkpt>
      <trkpt lat="45.95362" lon="3.88496">
        <ele>863</ele>
        <time>2024-12-08T05:21:17.620Z</time>
      </trkpt>
      <trkpt lat="45.95362" lon="3.88497">
        <ele>863</ele>
        <time>2024-12-08T05:21:18.619Z</time>
      </trkpt>
      <trkpt lat="45.95361" lon="3.88499">
        <ele>863</ele>
        <time>2024-12-08T05:21:19.620Z</time>
      </trkpt>
      <trkpt lat="45.95361" lon="3.88501">
        <ele>863</ele>
        <time>2024-12-08T05:21:20.619Z</time>
      </trkpt>
      <trkpt lat="45.95361" lon="3.88503">
        <ele>863</ele>
        <time>2024-12-08T05:21:21.620Z</time>
      </trkpt>
      <trkpt lat="45.9536" lon="3.88504">
        <ele>863</ele>
        <time>2024-12-08T05:21:22.620Z</time>
      </trkpt>
      <trkpt lat="45.9536" lon="3.88507">
        <ele>863</ele>
        <time>2024-12-08T05:21:23.620Z</time>
      </trkpt>
      <trkpt lat="45.95359" lon="3.88508">
        <ele>863</ele>
        <time>2024-12-08T05:21:24.619Z</time>
      </trkpt>
      <trkpt lat="45.95359" lon="3.8851">
        <ele>864</ele>
        <time>2024-12-08T05:21:25.620Z</time>
      </trkpt>
      <trkpt lat="45.95359" lon="3.88511">
        <ele>864</ele>
        <time>2024-12-08T05:21:26.620Z</time>
      </trkpt>
      <trkpt lat="45.95358" lon="3.88513">
        <ele>864</ele>
        <time>2024-12-08T05:21:27.620Z</time>
      </trkpt>
      <trkpt lat="45.95358" lon="3.88515">
        <ele>865</ele>
        <time>2024-12-08T05:21:28.619Z</time>
      </trkpt>
      <trkpt lat="45.95357" lon="3.88517">
        <ele>865</ele>
        <time>2024-12-08T05:21:29.619Z</time>
      </trkpt>
      <trkpt lat="45.95356" lon="3.88519">
        <ele>865</ele>
        <time>2024-12-08T05:21:30.619Z</time>
      </trkpt>
      <trkpt lat="45.95356" lon="3.8852">
        <ele>865</ele>
        <time>2024-12-08T05:21:31.619Z</time>
      </trkpt>
      <trkpt lat="45.95356" lon="3.88523">
        <ele>865</ele>
        <time>2024-12-08T05:21:32.619Z</time>
      </trkpt>
      <trkpt lat="45.95355" lon="3.88524">
        <ele>865</ele>
        <time>2024-12-08T05:21:33.619Z</time>
      </trkpt>
      <trkpt lat="45.95355" lon="3.88526">
        <ele>866</ele>
        <time>2024-12-08T05:21:34.619Z</time>
      </trkpt>
      <trkpt lat="45.95354" lon="3.88528">
        <ele>866</ele>
        <time>2024-12-08T05:21:35.620Z</time>
      </trkpt>
      <trkpt lat="45.95354" lon="3.8853">
        <ele>866</ele>
        <time>2024-12-08T05:21:36.619Z</time>
      </trkpt>
      <trkpt lat="45.95354" lon="3.88532">
        <ele>866</ele>
        <time>2024-12-08T05:21:37.620Z</time>
      </trkpt>
      <trkpt lat="45.95354" lon="3.88534">
        <ele>866</ele>
        <time>2024-12-08T05:21:38.619Z</time>
      </trkpt>
      <trkpt lat="45.95353" lon="3.88536">
        <ele>866</ele>
        <time>2024-12-08T05:21:39.620Z</time>
      </trkpt>
      <trkpt lat="45.95353" lon="3.88538">
        <ele>867</ele>
        <time>2024-12-08T05:21:40.620Z</time>
      </trkpt>
      <trkpt lat="45.95352" lon="3.8854">
        <ele>867</ele>
        <time>2024-12-08T05:21:41.619Z</time>
      </trkpt>
      <trkpt lat="45.95352" lon="3.88542">
        <ele>867</ele>
        <time>2024-12-08T05:21:42.620Z</time>
      </trkpt>
      <trkpt lat="45.95352" lon="3.88544">
        <ele>867</ele>
        <time>2024-12-08T05:21:43.619Z</time>
      </trkpt>
      <trkpt lat="45.95351" lon="3.88546">
        <ele>866</ele>
        <time>2024-12-08T05:21:44.620Z</time>
      </trkpt>
      <trkpt lat="45.95351" lon="3.88548">
        <ele>866</ele>
        <time>2024-12-08T05:21:45.620Z</time>
      </trkpt>
      <trkpt lat="45.95351" lon="3.8855">
        <ele>866</ele>
        <time>2024-12-08T05:21:46.620Z</time>
      </trkpt>
      <trkpt lat="45.95351" lon="3.88552">
        <ele>865</ele>
        <time>2024-12-08T05:21:47.620Z</time>
      </trkpt>
      <trkpt lat="45.95351" lon="3.88554">
        <ele>865</ele>
        <time>2024-12-08T05:21:48.620Z</time>
      </trkpt>
      <trkpt lat="45.95351" lon="3.88557">
        <ele>865</ele>
        <time>2024-12-08T05:21:49.620Z</time>
      </trkpt>
      <trkpt lat="45.9535" lon="3.88559">
        <ele>865</ele>
        <time>2024-12-08T05:21:50.619Z</time>
      </trkpt>
      <trkpt lat="45.9535" lon="3.8856">
        <ele>865</ele>
        <time>2024-12-08T05:21:51.619Z</time>
      </trkpt>
      <trkpt lat="45.9535" lon="3.88563">
        <ele>865</ele>
        <time>2024-12-08T05:21:52.620Z</time>
      </trkpt>
      <trkpt lat="45.9535" lon="3.88565">
        <ele>866</ele>
        <time>2024-12-08T05:21:53.620Z</time>
      </trkpt>
      <trkpt lat="45.95349" lon="3.88568">
        <ele>866</ele>
        <time>2024-12-08T05:21:54.620Z</time>
      </trkpt>
      <trkpt lat="45.95349" lon="3.8857">
        <ele>866</ele>
        <time>2024-12-08T05:21:55.619Z</time>
      </trkpt>
      <trkpt lat="45.95349" lon="3.88572">
        <ele>866</ele>
        <time>2024-12-08T05:21:56.620Z</time>
      </trkpt>
      <trkpt lat="45.95349" lon="3.88574">
        <ele>866</ele>
        <time>2024-12-08T05:21:57.619Z</time>
      </trkpt>
      <trkpt lat="45.95348" lon="3.88576">
        <ele>866</ele>
        <time>2024-12-08T05:21:58.620Z</time>
      </trkpt>
      <trkpt lat="45.95348" lon="3.88578">
        <ele>866</ele>
        <time>2024-12-08T05:21:59.619Z</time>
      </trkpt>
      <trkpt lat="45.95348" lon="3.8858">
        <ele>866</ele>
        <time>2024-12-08T05:22:00.619Z</time>
      </trkpt>
      <trkpt lat="45.95348" lon="3.88583">
        <ele>866</ele>
        <time>2024-12-08T05:22:01.619Z</time>
      </trkpt>
      <trkpt lat="45.95348" lon="3.88585">
        <ele>867</ele>
        <time>2024-12-08T05:22:02.620Z</time>
      </trkpt>
      <trkpt lat="45.95347" lon="3.88587">
        <ele>867</ele>
        <time>2024-12-08T05:22:03.619Z</time>
      </trkpt>
      <trkpt lat="45.95347" lon="3.88589">
        <ele>868</ele>
        <time>2024-12-08T05:22:04.620Z</time>
      </trkpt>
      <trkpt lat="45.95347" lon="3.88591">
        <ele>868</ele>
        <time>2024-12-08T05:22:05.620Z</time>
      </trkpt>
      <trkpt lat="45.95347" lon="3.88593">
        <ele>868</ele>
        <time>2024-12-08T05:22:06.619Z</time>
      </trkpt>
      <trkpt lat="45.95347" lon="3.88595">
        <ele>869</ele>
        <time>2024-12-08T05:22:07.620Z</time>
      </trkpt>
      <trkpt lat="45.95347" lon="3.88597">
        <ele>869</ele>
        <time>2024-12-08T05:22:08.620Z</time>
      </trkpt>
      <trkpt lat="45.95347" lon="3.88599">
        <ele>869</ele>
        <time>2024-12-08T05:22:09.620Z</time>
      </trkpt>
      <trkpt lat="45.95347" lon="3.88602">
        <ele>869</ele>
        <time>2024-12-08T05:22:10.620Z</time>
      </trkpt>
      <trkpt lat="45.95347" lon="3.88604">
        <ele>869</ele>
        <time>2024-12-08T05:22:11.619Z</time>
      </trkpt>
      <trkpt lat="45.95347" lon="3.88606">
        <ele>869</ele>
        <time>2024-12-08T05:22:12.620Z</time>
      </trkpt>
      <trkpt lat="45.95347" lon="3.88609">
        <ele>869</ele>
        <time>2024-12-08T05:22:13.619Z</time>
      </trkpt>
      <trkpt lat="45.95346" lon="3.88611">
        <ele>869</ele>
        <time>2024-12-08T05:22:14.620Z</time>
      </trkpt>
      <trkpt lat="45.95346" lon="3.88613">
        <ele>870</ele>
        <time>2024-12-08T05:22:15.620Z</time>
      </trkpt>
      <trkpt lat="45.95346" lon="3.88615">
        <ele>870</ele>
        <time>2024-12-08T05:22:16.620Z</time>
      </trkpt>
      <trkpt lat="45.95346" lon="3.88617">
        <ele>870</ele>
        <time>2024-12-08T05:22:17.620Z</time>
      </trkpt>
      <trkpt lat="45.95346" lon="3.88619">
        <ele>870</ele>
        <time>2024-12-08T05:22:18.619Z</time>
      </trkpt>
      <trkpt lat="45.95346" lon="3.88621">
        <ele>870</ele>
        <time>2024-12-08T05:22:19.619Z</time>
      </trkpt>
      <trkpt lat="45.95345" lon="3.88624">
        <ele>870</ele>
        <time>2024-12-08T05:22:20.620Z</time>
      </trkpt>
      <trkpt lat="45.95345" lon="3.88626">
        <ele>870</ele>
        <time>2024-12-08T05:22:21.620Z</time>
      </trkpt>
      <trkpt lat="45.95345" lon="3.88628">
        <ele>870</ele>
        <time>2024-12-08T05:22:22.619Z</time>
      </trkpt>
      <trkpt lat="45.95345" lon="3.8863">
        <ele>870</ele>
        <time>2024-12-08T05:22:23.620Z</time>
      </trkpt>
      <trkpt lat="45.95345" lon="3.88632">
        <ele>870</ele>
        <time>2024-12-08T05:22:24.620Z</time>
      </trkpt>
      <trkpt lat="45.95344" lon="3.88634">
        <ele>869</ele>
        <time>2024-12-08T05:22:25.619Z</time>
      </trkpt>
      <trkpt lat="45.95344" lon="3.88636">
        <ele>869</ele>
        <time>2024-12-08T05:22:26.620Z</time>
      </trkpt>
      <trkpt lat="45.95344" lon="3.88638">
        <ele>869</ele>
        <time>2024-12-08T05:22:27.619Z</time>
      </trkpt>
      <trkpt lat="45.95344" lon="3.88641">
        <ele>869</ele>
        <time>2024-12-08T05:22:28.619Z</time>
      </trkpt>
      <trkpt lat="45.95344" lon="3.88643">
        <ele>869</ele>
        <time>2024-12-08T05:22:29.619Z</time>
      </trkpt>
      <trkpt lat="45.95344" lon="3.88645">
        <ele>869</ele>
        <time>2024-12-08T05:22:30.619Z</time>
      </trkpt>
      <trkpt lat="45.95344" lon="3.88647">
        <ele>869</ele>
        <time>2024-12-08T05:22:31.619Z</time>
      </trkpt>
      <trkpt lat="45.95343" lon="3.88649">
        <ele>868</ele>
        <time>2024-12-08T05:22:32.620Z</time>
      </trkpt>
      <trkpt lat="45.95343" lon="3.88651">
        <ele>868</ele>
        <time>2024-12-08T05:22:33.619Z</time>
      </trkpt>
      <trkpt lat="45.95343" lon="3.88653">
        <ele>868</ele>
        <time>2024-12-08T05:22:34.619Z</time>
      </trkpt>
      <trkpt lat="45.95343" lon="3.88655">
        <ele>868</ele>
        <time>2024-12-08T05:22:35.619Z</time>
      </trkpt>
      <trkpt lat="45.95343" lon="3.88657">
        <ele>867</ele>
        <time>2024-12-08T05:22:36.620Z</time>
      </trkpt>
      <trkpt lat="45.95342" lon="3.88659">
        <ele>867</ele>
        <time>2024-12-08T05:22:37.620Z</time>
      </trkpt>
      <trkpt lat="45.95342" lon="3.88661">
        <ele>867</ele>
        <time>2024-12-08T05:22:38.619Z</time>
      </trkpt>
      <trkpt lat="45.95342" lon="3.88663">
        <ele>867</ele>
        <time>2024-12-08T05:22:39.619Z</time>
      </trkpt>
      <trkpt lat="45.95342" lon="3.88665">
        <ele>867</ele>
        <time>2024-12-08T05:22:40.620Z</time>
      </trkpt>
      <trkpt lat="45.95342" lon="3.88668">
        <ele>867</ele>
        <time>2024-12-08T05:22:41.620Z</time>
      </trkpt>
      <trkpt lat="45.95342" lon="3.8867">
        <ele>866</ele>
        <time>2024-12-08T05:22:42.619Z</time>
      </trkpt>
      <trkpt lat="45.95341" lon="3.88672">
        <ele>866</ele>
        <time>2024-12-08T05:22:43.619Z</time>
      </trkpt>
      <trkpt lat="45.95341" lon="3.88673">
        <ele>866</ele>
        <time>2024-12-08T05:22:44.620Z</time>
      </trkpt>
      <trkpt lat="45.95341" lon="3.88676">
        <ele>866</ele>
        <time>2024-12-08T05:22:45.619Z</time>
      </trkpt>
      <trkpt lat="45.9534" lon="3.88678">
        <ele>867</ele>
        <time>2024-12-08T05:22:46.620Z</time>
      </trkpt>
      <trkpt lat="45.9534" lon="3.88681">
        <ele>867</ele>
        <time>2024-12-08T05:22:47.619Z</time>
      </trkpt>
      <trkpt lat="45.9534" lon="3.88683">
        <ele>867</ele>
        <time>2024-12-08T05:22:48.619Z</time>
      </trkpt>
      <trkpt lat="45.9534" lon="3.88685">
        <ele>867</ele>
        <time>2024-12-08T05:22:49.619Z</time>
      </trkpt>
      <trkpt lat="45.9534" lon="3.88687">
        <ele>867</ele>
        <time>2024-12-08T05:22:50.619Z</time>
      </trkpt>
      <trkpt lat="45.95339" lon="3.88689">
        <ele>867</ele>
        <time>2024-12-08T05:22:51.619Z</time>
      </trkpt>
      <trkpt lat="45.95339" lon="3.88692">
        <ele>867</ele>
        <time>2024-12-08T05:22:52.620Z</time>
      </trkpt>
      <trkpt lat="45.95339" lon="3.88694">
        <ele>867</ele>
        <time>2024-12-08T05:22:53.619Z</time>
      </trkpt>
      <trkpt lat="45.95338" lon="3.88696">
        <ele>867</ele>
        <time>2024-12-08T05:22:54.619Z</time>
      </trkpt>
      <trkpt lat="45.95338" lon="3.88698">
        <ele>867</ele>
        <time>2024-12-08T05:22:55.619Z</time>
      </trkpt>
      <trkpt lat="45.95338" lon="3.887">
        <ele>867</ele>
        <time>2024-12-08T05:22:56.620Z</time>
      </trkpt>
      <trkpt lat="45.95338" lon="3.88702">
        <ele>868</ele>
        <time>2024-12-08T05:22:57.619Z</time>
      </trkpt>
      <trkpt lat="45.95338" lon="3.88705">
        <ele>868</ele>
        <time>2024-12-08T05:22:58.620Z</time>
      </trkpt>
      <trkpt lat="45.95338" lon="3.88707">
        <ele>868</ele>
        <time>2024-12-08T05:22:59.619Z</time>
      </trkpt>
      <trkpt lat="45.95338" lon="3.88709">
        <ele>868</ele>
        <time>2024-12-08T05:23:00.620Z</time>
      </trkpt>
      <trkpt lat="45.95338" lon="3.88711">
        <ele>868</ele>
        <time>2024-12-08T05:23:01.619Z</time>
      </trkpt>
      <trkpt lat="45.95337" lon="3.88713">
        <ele>868</ele>
        <time>2024-12-08T05:23:02.619Z</time>
      </trkpt>
      <trkpt lat="45.95337" lon="3.88715">
        <ele>868</ele>
        <time>2024-12-08T05:23:03.620Z</time>
      </trkpt>
      <trkpt lat="45.95337" lon="3.88718">
        <ele>868</ele>
        <time>2024-12-08T05:23:04.619Z</time>
      </trkpt>
      <trkpt lat="45.95337" lon="3.8872">
        <ele>868</ele>
        <time>2024-12-08T05:23:05.619Z</time>
      </trkpt>
      <trkpt lat="45.95337" lon="3.88722">
        <ele>869</ele>
        <time>2024-12-08T05:23:06.620Z</time>
      </trkpt>
      <trkpt lat="45.95337" lon="3.88725">
        <ele>868</ele>
        <time>2024-12-08T05:23:07.620Z</time>
      </trkpt>
      <trkpt lat="45.95336" lon="3.88727">
        <ele>868</ele>
        <time>2024-12-08T05:23:08.619Z</time>
      </trkpt>
      <trkpt lat="45.95336" lon="3.88729">
        <ele>868</ele>
        <time>2024-12-08T05:23:09.620Z</time>
      </trkpt>
      <trkpt lat="45.95336" lon="3.88731">
        <ele>868</ele>
        <time>2024-12-08T05:23:10.619Z</time>
      </trkpt>
      <trkpt lat="45.95336" lon="3.88733">
        <ele>868</ele>
        <time>2024-12-08T05:23:11.620Z</time>
      </trkpt>
      <trkpt lat="45.95336" lon="3.88735">
        <ele>868</ele>
        <time>2024-12-08T05:23:12.619Z</time>
      </trkpt>
      <trkpt lat="45.95336" lon="3.88737">
        <ele>869</ele>
        <time>2024-12-08T05:23:13.619Z</time>
      </trkpt>
      <trkpt lat="45.95336" lon="3.8874">
        <ele>869</ele>
        <time>2024-12-08T05:23:14.620Z</time>
      </trkpt>
      <trkpt lat="45.95336" lon="3.88742">
        <ele>869</ele>
        <time>2024-12-08T05:23:15.620Z</time>
      </trkpt>
      <trkpt lat="45.95337" lon="3.88744">
        <ele>869</ele>
        <time>2024-12-08T05:23:16.619Z</time>
      </trkpt>
      <trkpt lat="45.95336" lon="3.88746">
        <ele>869</ele>
        <time>2024-12-08T05:23:17.620Z</time>
      </trkpt>
      <trkpt lat="45.95336" lon="3.88748">
        <ele>869</ele>
        <time>2024-12-08T05:23:18.619Z</time>
      </trkpt>
      <trkpt lat="45.95336" lon="3.8875">
        <ele>869</ele>
        <time>2024-12-08T05:23:19.620Z</time>
      </trkpt>
      <trkpt lat="45.95336" lon="3.88753">
        <ele>868</ele>
        <time>2024-12-08T05:23:20.619Z</time>
      </trkpt>
      <trkpt lat="45.95336" lon="3.88755">
        <ele>868</ele>
        <time>2024-12-08T05:23:21.619Z</time>
      </trkpt>
      <trkpt lat="45.95336" lon="3.88757">
        <ele>868</ele>
        <time>2024-12-08T05:23:22.620Z</time>
      </trkpt>
      <trkpt lat="45.95335" lon="3.8876">
        <ele>868</ele>
        <time>2024-12-08T05:23:23.619Z</time>
      </trkpt>
      <trkpt lat="45.95335" lon="3.88762">
        <ele>869</ele>
        <time>2024-12-08T05:23:24.619Z</time>
      </trkpt>
      <trkpt lat="45.95335" lon="3.88764">
        <ele>869</ele>
        <time>2024-12-08T05:23:25.619Z</time>
      </trkpt>
      <trkpt lat="45.95335" lon="3.88767">
        <ele>869</ele>
        <time>2024-12-08T05:23:26.620Z</time>
      </trkpt>
      <trkpt lat="45.95335" lon="3.88768">
        <ele>869</ele>
        <time>2024-12-08T05:23:27.619Z</time>
      </trkpt>
      <trkpt lat="45.95334" lon="3.8877">
        <ele>869</ele>
        <time>2024-12-08T05:23:28.619Z</time>
      </trkpt>
      <trkpt lat="45.95334" lon="3.88773">
        <ele>869</ele>
        <time>2024-12-08T05:23:29.620Z</time>
      </trkpt>
      <trkpt lat="45.95334" lon="3.88775">
        <ele>869</ele>
        <time>2024-12-08T05:23:30.619Z</time>
      </trkpt>
      <trkpt lat="45.95334" lon="3.88777">
        <ele>869</ele>
        <time>2024-12-08T05:23:31.619Z</time>
      </trkpt>
      <trkpt lat="45.95334" lon="3.88779">
        <ele>870</ele>
        <time>2024-12-08T05:23:32.620Z</time>
      </trkpt>
      <trkpt lat="45.95334" lon="3.88781">
        <ele>870</ele>
        <time>2024-12-08T05:23:33.619Z</time>
      </trkpt>
      <trkpt lat="45.95334" lon="3.88784">
        <ele>870</ele>
        <time>2024-12-08T05:23:34.619Z</time>
      </trkpt>
      <trkpt lat="45.95335" lon="3.88786">
        <ele>870</ele>
        <time>2024-12-08T05:23:35.619Z</time>
      </trkpt>
      <trkpt lat="45.95336" lon="3.88789">
        <ele>870</ele>
        <time>2024-12-08T05:23:36.619Z</time>
      </trkpt>
      <trkpt lat="45.95336" lon="3.88791">
        <ele>870</ele>
        <time>2024-12-08T05:23:37.619Z</time>
      </trkpt>
      <trkpt lat="45.95337" lon="3.88793">
        <ele>870</ele>
        <time>2024-12-08T05:23:38.619Z</time>
      </trkpt>
      <trkpt lat="45.95337" lon="3.88795">
        <ele>870</ele>
        <time>2024-12-08T05:23:39.619Z</time>
      </trkpt>
      <trkpt lat="45.95337" lon="3.88797">
        <ele>870</ele>
        <time>2024-12-08T05:23:40.619Z</time>
      </trkpt>
      <trkpt lat="45.95338" lon="3.88799">
        <ele>869</ele>
        <time>2024-12-08T05:23:41.619Z</time>
      </trkpt>
      <trkpt lat="45.95338" lon="3.88801">
        <ele>869</ele>
        <time>2024-12-08T05:23:42.620Z</time>
      </trkpt>
      <trkpt lat="45.95339" lon="3.88803">
        <ele>869</ele>
        <time>2024-12-08T05:23:43.619Z</time>
      </trkpt>
      <trkpt lat="45.95339" lon="3.88805">
        <ele>868</ele>
        <time>2024-12-08T05:23:44.619Z</time>
      </trkpt>
      <trkpt lat="45.9534" lon="3.88807">
        <ele>868</ele>
        <time>2024-12-08T05:23:45.619Z</time>
      </trkpt>
      <trkpt lat="45.95341" lon="3.88809">
        <ele>868</ele>
        <time>2024-12-08T05:23:46.619Z</time>
      </trkpt>
      <trkpt lat="45.95342" lon="3.88811">
        <ele>868</ele>
        <time>2024-12-08T05:23:47.619Z</time>
      </trkpt>
      <trkpt lat="45.95342" lon="3.88813">
        <ele>868</ele>
        <time>2024-12-08T05:23:48.619Z</time>
      </trkpt>
      <trkpt lat="45.95343" lon="3.88815">
        <ele>868</ele>
        <time>2024-12-08T05:23:49.620Z</time>
      </trkpt>
      <trkpt lat="45.95343" lon="3.88817">
        <ele>868</ele>
        <time>2024-12-08T05:23:50.620Z</time>
      </trkpt>
      <trkpt lat="45.95344" lon="3.88819">
        <ele>868</ele>
        <time>2024-12-08T05:23:51.619Z</time>
      </trkpt>
      <trkpt lat="45.95346" lon="3.88821">
        <ele>868</ele>
        <time>2024-12-08T05:23:52.619Z</time>
      </trkpt>
      <trkpt lat="45.95347" lon="3.88823">
        <ele>867</ele>
        <time>2024-12-08T05:23:53.619Z</time>
      </trkpt>
      <trkpt lat="45.95348" lon="3.88824">
        <ele>868</ele>
        <time>2024-12-08T05:23:54.619Z</time>
      </trkpt>
      <trkpt lat="45.9535" lon="3.88825">
        <ele>868</ele>
        <time>2024-12-08T05:23:55.620Z</time>
      </trkpt>
      <trkpt lat="45.95351" lon="3.88826">
        <ele>868</ele>
        <time>2024-12-08T05:23:56.620Z</time>
      </trkpt>
      <trkpt lat="45.95352" lon="3.88827">
        <ele>868</ele>
        <time>2024-12-08T05:23:57.620Z</time>
      </trkpt>
      <trkpt lat="45.95354" lon="3.88828">
        <ele>868</ele>
        <time>2024-12-08T05:23:58.620Z</time>
      </trkpt>
      <trkpt lat="45.95356" lon="3.88829">
        <ele>868</ele>
        <time>2024-12-08T05:23:59.619Z</time>
      </trkpt>
      <trkpt lat="45.95357" lon="3.8883">
        <ele>868</ele>
        <time>2024-12-08T05:24:00.619Z</time>
      </trkpt>
      <trkpt lat="45.95359" lon="3.8883">
        <ele>868</ele>
        <time>2024-12-08T05:24:01.619Z</time>
      </trkpt>
      <trkpt lat="45.9536" lon="3.8883">
        <ele>868</ele>
        <time>2024-12-08T05:24:02.619Z</time>
      </trkpt>
      <trkpt lat="45.95362" lon="3.88831">
        <ele>869</ele>
        <time>2024-12-08T05:24:03.619Z</time>
      </trkpt>
      <trkpt lat="45.95364" lon="3.88831">
        <ele>869</ele>
        <time>2024-12-08T05:24:04.619Z</time>
      </trkpt>
      <trkpt lat="45.95366" lon="3.88831">
        <ele>869</ele>
        <time>2024-12-08T05:24:05.620Z</time>
      </trkpt>
      <trkpt lat="45.95367" lon="3.88831">
        <ele>870</ele>
        <time>2024-12-08T05:24:06.619Z</time>
      </trkpt>
      <trkpt lat="45.95369" lon="3.88831">
        <ele>870</ele>
        <time>2024-12-08T05:24:07.620Z</time>
      </trkpt>
      <trkpt lat="45.9537" lon="3.88831">
        <ele>870</ele>
        <time>2024-12-08T05:24:08.620Z</time>
      </trkpt>
      <trkpt lat="45.95372" lon="3.88832">
        <ele>871</ele>
        <time>2024-12-08T05:24:09.619Z</time>
      </trkpt>
      <trkpt lat="45.95374" lon="3.88832">
        <ele>871</ele>
        <time>2024-12-08T05:24:10.619Z</time>
      </trkpt>
      <trkpt lat="45.95375" lon="3.88832">
        <ele>871</ele>
        <time>2024-12-08T05:24:11.620Z</time>
      </trkpt>
      <trkpt lat="45.95377" lon="3.88832">
        <ele>871</ele>
        <time>2024-12-08T05:24:12.620Z</time>
      </trkpt>
      <trkpt lat="45.95378" lon="3.88832">
        <ele>871</ele>
        <time>2024-12-08T05:24:13.619Z</time>
      </trkpt>
      <trkpt lat="45.9538" lon="3.88833">
        <ele>871</ele>
        <time>2024-12-08T05:24:14.619Z</time>
      </trkpt>
      <trkpt lat="45.95381" lon="3.88834">
        <ele>870</ele>
        <time>2024-12-08T05:24:15.619Z</time>
      </trkpt>
      <trkpt lat="45.95383" lon="3.88834">
        <ele>870</ele>
        <time>2024-12-08T05:24:16.620Z</time>
      </trkpt>
      <trkpt lat="45.95385" lon="3.88835">
        <ele>870</ele>
        <time>2024-12-08T05:24:17.619Z</time>
      </trkpt>
      <trkpt lat="45.95386" lon="3.88835">
        <ele>870</ele>
        <time>2024-12-08T05:24:18.619Z</time>
      </trkpt>
      <trkpt lat="45.95388" lon="3.88836">
        <ele>869</ele>
        <time>2024-12-08T05:24:19.619Z</time>
      </trkpt>
      <trkpt lat="45.95389" lon="3.88836">
        <ele>869</ele>
        <time>2024-12-08T05:24:20.619Z</time>
      </trkpt>
      <trkpt lat="45.95391" lon="3.88837">
        <ele>869</ele>
        <time>2024-12-08T05:24:21.620Z</time>
      </trkpt>
      <trkpt lat="45.95393" lon="3.88837">
        <ele>869</ele>
        <time>2024-12-08T05:24:22.619Z</time>
      </trkpt>
      <trkpt lat="45.95394" lon="3.88837">
        <ele>868</ele>
        <time>2024-12-08T05:24:23.620Z</time>
      </trkpt>
      <trkpt lat="45.95396" lon="3.88838">
        <ele>868</ele>
        <time>2024-12-08T05:24:24.619Z</time>
      </trkpt>
      <trkpt lat="45.95397" lon="3.88838">
        <ele>868</ele>
        <time>2024-12-08T05:24:25.619Z</time>
      </trkpt>
      <trkpt lat="45.954" lon="3.88838">
        <ele>868</ele>
        <time>2024-12-08T05:24:26.619Z</time>
      </trkpt>
      <trkpt lat="45.95401" lon="3.88838">
        <ele>868</ele>
        <time>2024-12-08T05:24:27.619Z</time>
      </trkpt>
      <trkpt lat="45.95403" lon="3.88838">
        <ele>868</ele>
        <time>2024-12-08T05:24:28.620Z</time>
      </trkpt>
      <trkpt lat="45.95405" lon="3.88839">
        <ele>868</ele>
        <time>2024-12-08T05:24:29.620Z</time>
      </trkpt>
      <trkpt lat="45.95407" lon="3.88839">
        <ele>868</ele>
        <time>2024-12-08T05:24:30.619Z</time>
      </trkpt>
      <trkpt lat="45.95408" lon="3.88839">
        <ele>868</ele>
        <time>2024-12-08T05:24:31.620Z</time>
      </trkpt>
      <trkpt lat="45.9541" lon="3.88839">
        <ele>868</ele>
        <time>2024-12-08T05:24:32.619Z</time>
      </trkpt>
      <trkpt lat="45.95412" lon="3.88839">
        <ele>868</ele>
        <time>2024-12-08T05:24:33.619Z</time>
      </trkpt>
      <trkpt lat="45.95414" lon="3.8884">
        <ele>868</ele>
        <time>2024-12-08T05:24:34.620Z</time>
      </trkpt>
      <trkpt lat="45.95416" lon="3.8884">
        <ele>867</ele>
        <time>2024-12-08T05:24:35.619Z</time>
      </trkpt>
      <trkpt lat="45.95417" lon="3.8884">
        <ele>867</ele>
        <time>2024-12-08T05:24:36.620Z</time>
      </trkpt>
      <trkpt lat="45.95419" lon="3.88841">
        <ele>867</ele>
        <time>2024-12-08T05:24:37.620Z</time>
      </trkpt>
      <trkpt lat="45.95421" lon="3.88841">
        <ele>866</ele>
        <time>2024-12-08T05:24:38.619Z</time>
      </trkpt>
      <trkpt lat="45.95422" lon="3.88841">
        <ele>865</ele>
        <time>2024-12-08T05:24:39.620Z</time>
      </trkpt>
      <trkpt lat="45.95423" lon="3.88842">
        <ele>865</ele>
        <time>2024-12-08T05:24:40.620Z</time>
      </trkpt>
      <trkpt lat="45.95425" lon="3.88842">
        <ele>864</ele>
        <time>2024-12-08T05:24:41.620Z</time>
      </trkpt>
      <trkpt lat="45.95426" lon="3.88842">
        <ele>864</ele>
        <time>2024-12-08T05:24:42.620Z</time>
      </trkpt>
      <trkpt lat="45.95428" lon="3.88843">
        <ele>864</ele>
        <time>2024-12-08T05:24:43.619Z</time>
      </trkpt>
      <trkpt lat="45.95429" lon="3.88843">
        <ele>864</ele>
        <time>2024-12-08T05:24:44.620Z</time>
      </trkpt>
      <trkpt lat="45.95431" lon="3.88843">
        <ele>864</ele>
        <time>2024-12-08T05:24:45.619Z</time>
      </trkpt>
      <trkpt lat="45.95432" lon="3.88843">
        <ele>863</ele>
        <time>2024-12-08T05:24:46.619Z</time>
      </trkpt>
      <trkpt lat="45.95434" lon="3.88844">
        <ele>863</ele>
        <time>2024-12-08T05:24:47.620Z</time>
      </trkpt>
      <trkpt lat="45.95435" lon="3.88845">
        <ele>863</ele>
        <time>2024-12-08T05:24:48.619Z</time>
      </trkpt>
      <trkpt lat="45.95437" lon="3.88846">
        <ele>863</ele>
        <time>2024-12-08T05:24:49.620Z</time>
      </trkpt>
      <trkpt lat="45.95439" lon="3.88846">
        <ele>863</ele>
        <time>2024-12-08T05:24:50.620Z</time>
      </trkpt>
      <trkpt lat="45.9544" lon="3.88847">
        <ele>862</ele>
        <time>2024-12-08T05:24:51.619Z</time>
      </trkpt>
      <trkpt lat="45.95442" lon="3.88847">
        <ele>862</ele>
        <time>2024-12-08T05:24:52.619Z</time>
      </trkpt>
      <trkpt lat="45.95444" lon="3.88848">
        <ele>862</ele>
        <time>2024-12-08T05:24:53.620Z</time>
      </trkpt>
      <trkpt lat="45.95445" lon="3.88848">
        <ele>861</ele>
        <time>2024-12-08T05:24:54.619Z</time>
      </trkpt>
      <trkpt lat="45.95447" lon="3.88849">
        <ele>861</ele>
        <time>2024-12-08T05:24:55.620Z</time>
      </trkpt>
      <trkpt lat="45.95449" lon="3.8885">
        <ele>861</ele>
        <time>2024-12-08T05:24:56.620Z</time>
      </trkpt>
      <trkpt lat="45.95451" lon="3.8885">
        <ele>861</ele>
        <time>2024-12-08T05:24:57.619Z</time>
      </trkpt>
      <trkpt lat="45.95452" lon="3.8885">
        <ele>861</ele>
        <time>2024-12-08T05:24:58.619Z</time>
      </trkpt>
      <trkpt lat="45.95454" lon="3.88851">
        <ele>861</ele>
        <time>2024-12-08T05:24:59.620Z</time>
      </trkpt>
      <trkpt lat="45.95455" lon="3.88852">
        <ele>861</ele>
        <time>2024-12-08T05:25:00.620Z</time>
      </trkpt>
      <trkpt lat="45.95457" lon="3.88853">
        <ele>861</ele>
        <time>2024-12-08T05:25:01.620Z</time>
      </trkpt>
      <trkpt lat="45.95459" lon="3.88854">
        <ele>860</ele>
        <time>2024-12-08T05:25:02.620Z</time>
      </trkpt>
      <trkpt lat="45.9546" lon="3.88854">
        <ele>860</ele>
        <time>2024-12-08T05:25:03.619Z</time>
      </trkpt>
      <trkpt lat="45.95462" lon="3.88855">
        <ele>860</ele>
        <time>2024-12-08T05:25:04.620Z</time>
      </trkpt>
      <trkpt lat="45.95463" lon="3.88855">
        <ele>860</ele>
        <time>2024-12-08T05:25:05.619Z</time>
      </trkpt>
      <trkpt lat="45.95464" lon="3.88856">
        <ele>859</ele>
        <time>2024-12-08T05:25:06.619Z</time>
      </trkpt>
      <trkpt lat="45.95466" lon="3.88856">
        <ele>859</ele>
        <time>2024-12-08T05:25:07.619Z</time>
      </trkpt>
      <trkpt lat="45.95468" lon="3.88857">
        <ele>859</ele>
        <time>2024-12-08T05:25:08.620Z</time>
      </trkpt>
      <trkpt lat="45.95469" lon="3.88857">
        <ele>859</ele>
        <time>2024-12-08T05:25:09.619Z</time>
      </trkpt>
      <trkpt lat="45.95471" lon="3.88858">
        <ele>859</ele>
        <time>2024-12-08T05:25:10.619Z</time>
      </trkpt>
      <trkpt lat="45.95472" lon="3.88858">
        <ele>858</ele>
        <time>2024-12-08T05:25:11.619Z</time>
      </trkpt>
      <trkpt lat="45.95473" lon="3.88859">
        <ele>858</ele>
        <time>2024-12-08T05:25:12.620Z</time>
      </trkpt>
      <trkpt lat="45.95475" lon="3.88859">
        <ele>858</ele>
        <time>2024-12-08T05:25:13.619Z</time>
      </trkpt>
      <trkpt lat="45.95476" lon="3.8886">
        <ele>858</ele>
        <time>2024-12-08T05:25:14.620Z</time>
      </trkpt>
      <trkpt lat="45.95477" lon="3.8886">
        <ele>858</ele>
        <time>2024-12-08T05:25:15.619Z</time>
      </trkpt>
      <trkpt lat="45.95479" lon="3.88861">
        <ele>857</ele>
        <time>2024-12-08T05:25:16.619Z</time>
      </trkpt>
      <trkpt lat="45.95481" lon="3.88861">
        <ele>857</ele>
        <time>2024-12-08T05:25:17.619Z</time>
      </trkpt>
      <trkpt lat="45.95482" lon="3.88862">
        <ele>857</ele>
        <time>2024-12-08T05:25:18.620Z</time>
      </trkpt>
      <trkpt lat="45.95484" lon="3.88862">
        <ele>857</ele>
        <time>2024-12-08T05:25:19.620Z</time>
      </trkpt>
      <trkpt lat="45.95485" lon="3.88862">
        <ele>857</ele>
        <time>2024-12-08T05:25:20.620Z</time>
      </trkpt>
      <trkpt lat="45.95486" lon="3.88862">
        <ele>857</ele>
        <time>2024-12-08T05:25:21.620Z</time>
      </trkpt>
      <trkpt lat="45.95488" lon="3.88862">
        <ele>857</ele>
        <time>2024-12-08T05:25:22.620Z</time>
      </trkpt>
      <trkpt lat="45.9549" lon="3.88863">
        <ele>857</ele>
        <time>2024-12-08T05:25:23.619Z</time>
      </trkpt>
      <trkpt lat="45.95491" lon="3.88863">
        <ele>857</ele>
        <time>2024-12-08T05:25:24.619Z</time>
      </trkpt>
      <trkpt lat="45.95493" lon="3.88863">
        <ele>857</ele>
        <time>2024-12-08T05:25:25.620Z</time>
      </trkpt>
      <trkpt lat="45.95494" lon="3.88863">
        <ele>857</ele>
        <time>2024-12-08T05:25:26.620Z</time>
      </trkpt>
      <trkpt lat="45.95496" lon="3.88864">
        <ele>857</ele>
        <time>2024-12-08T05:25:27.620Z</time>
      </trkpt>
      <trkpt lat="45.95498" lon="3.88864">
        <ele>857</ele>
        <time>2024-12-08T05:25:28.619Z</time>
      </trkpt>
      <trkpt lat="45.95499" lon="3.88864">
        <ele>857</ele>
        <time>2024-12-08T05:25:29.619Z</time>
      </trkpt>
      <trkpt lat="45.95501" lon="3.88864">
        <ele>856</ele>
        <time>2024-12-08T05:25:30.619Z</time>
      </trkpt>
      <trkpt lat="45.95503" lon="3.88865">
        <ele>856</ele>
        <time>2024-12-08T05:25:31.619Z</time>
      </trkpt>
      <trkpt lat="45.95505" lon="3.88865">
        <ele>856</ele>
        <time>2024-12-08T05:25:32.620Z</time>
      </trkpt>
      <trkpt lat="45.95506" lon="3.88866">
        <ele>856</ele>
        <time>2024-12-08T05:25:33.619Z</time>
      </trkpt>
      <trkpt lat="45.95508" lon="3.88866">
        <ele>856</ele>
        <time>2024-12-08T05:25:34.620Z</time>
      </trkpt>
      <trkpt lat="45.95509" lon="3.88867">
        <ele>855</ele>
        <time>2024-12-08T05:25:35.619Z</time>
      </trkpt>
      <trkpt lat="45.95511" lon="3.88868">
        <ele>855</ele>
        <time>2024-12-08T05:25:36.620Z</time>
      </trkpt>
      <trkpt lat="45.95512" lon="3.88868">
        <ele>855</ele>
        <time>2024-12-08T05:25:37.620Z</time>
      </trkpt>
      <trkpt lat="45.95514" lon="3.88869">
        <ele>855</ele>
        <time>2024-12-08T05:25:38.619Z</time>
      </trkpt>
      <trkpt lat="45.95515" lon="3.8887">
        <ele>854</ele>
        <time>2024-12-08T05:25:39.620Z</time>
      </trkpt>
      <trkpt lat="45.95517" lon="3.8887">
        <ele>854</ele>
        <time>2024-12-08T05:25:40.620Z</time>
      </trkpt>
      <trkpt lat="45.95518" lon="3.8887">
        <ele>854</ele>
        <time>2024-12-08T05:25:41.620Z</time>
      </trkpt>
      <trkpt lat="45.9552" lon="3.8887">
        <ele>854</ele>
        <time>2024-12-08T05:25:42.619Z</time>
      </trkpt>
      <trkpt lat="45.95522" lon="3.88871">
        <ele>854</ele>
        <time>2024-12-08T05:25:43.620Z</time>
      </trkpt>
      <trkpt lat="45.95524" lon="3.88871">
        <ele>854</ele>
        <time>2024-12-08T05:25:44.620Z</time>
      </trkpt>
      <trkpt lat="45.95525" lon="3.88871">
        <ele>854</ele>
        <time>2024-12-08T05:25:45.619Z</time>
      </trkpt>
      <trkpt lat="45.95527" lon="3.88871">
        <ele>854</ele>
        <time>2024-12-08T05:25:46.619Z</time>
      </trkpt>
      <trkpt lat="45.95528" lon="3.88872">
        <ele>853</ele>
        <time>2024-12-08T05:25:47.620Z</time>
      </trkpt>
      <trkpt lat="45.9553" lon="3.88872">
        <ele>853</ele>
        <time>2024-12-08T05:25:48.620Z</time>
      </trkpt>
      <trkpt lat="45.95532" lon="3.88872">
        <ele>853</ele>
        <time>2024-12-08T05:25:49.620Z</time>
      </trkpt>
      <trkpt lat="45.95533" lon="3.88873">
        <ele>853</ele>
        <time>2024-12-08T05:25:50.620Z</time>
      </trkpt>
      <trkpt lat="45.95535" lon="3.88873">
        <ele>852</ele>
        <time>2024-12-08T05:25:51.619Z</time>
      </trkpt>
      <trkpt lat="45.95537" lon="3.88873">
        <ele>852</ele>
        <time>2024-12-08T05:25:52.620Z</time>
      </trkpt>
      <trkpt lat="45.95539" lon="3.88874">
        <ele>852</ele>
        <time>2024-12-08T05:25:53.619Z</time>
      </trkpt>
      <trkpt lat="45.95541" lon="3.88874">
        <ele>852</ele>
        <time>2024-12-08T05:25:54.619Z</time>
      </trkpt>
      <trkpt lat="45.95542" lon="3.88874">
        <ele>851</ele>
        <time>2024-12-08T05:25:55.620Z</time>
      </trkpt>
      <trkpt lat="45.95544" lon="3.88874">
        <ele>851</ele>
        <time>2024-12-08T05:25:56.619Z</time>
      </trkpt>
      <trkpt lat="45.95545" lon="3.88875">
        <ele>851</ele>
        <time>2024-12-08T05:25:57.619Z</time>
      </trkpt>
      <trkpt lat="45.95547" lon="3.88875">
        <ele>851</ele>
        <time>2024-12-08T05:25:58.619Z</time>
      </trkpt>
      <trkpt lat="45.95549" lon="3.88875">
        <ele>851</ele>
        <time>2024-12-08T05:25:59.620Z</time>
      </trkpt>
      <trkpt lat="45.95551" lon="3.88875">
        <ele>851</ele>
        <time>2024-12-08T05:26:00.620Z</time>
      </trkpt>
      <trkpt lat="45.95552" lon="3.88876">
        <ele>851</ele>
        <time>2024-12-08T05:26:01.620Z</time>
      </trkpt>
      <trkpt lat="45.95554" lon="3.88876">
        <ele>851</ele>
        <time>2024-12-08T05:26:02.620Z</time>
      </trkpt>
      <trkpt lat="45.95555" lon="3.88877">
        <ele>851</ele>
        <time>2024-12-08T05:26:03.619Z</time>
      </trkpt>
      <trkpt lat="45.95557" lon="3.88878">
        <ele>851</ele>
        <time>2024-12-08T05:26:04.619Z</time>
      </trkpt>
      <trkpt lat="45.95558" lon="3.88878">
        <ele>851</ele>
        <time>2024-12-08T05:26:05.620Z</time>
      </trkpt>
      <trkpt lat="45.9556" lon="3.88879">
        <ele>851</ele>
        <time>2024-12-08T05:26:06.620Z</time>
      </trkpt>
      <trkpt lat="45.95561" lon="3.88879">
        <ele>851</ele>
        <time>2024-12-08T05:26:07.619Z</time>
      </trkpt>
      <trkpt lat="45.95563" lon="3.88879">
        <ele>850</ele>
        <time>2024-12-08T05:26:08.620Z</time>
      </trkpt>
      <trkpt lat="45.95565" lon="3.88879">
        <ele>850</ele>
        <time>2024-12-08T05:26:09.620Z</time>
      </trkpt>
      <trkpt lat="45.95566" lon="3.88879">
        <ele>849</ele>
        <time>2024-12-08T05:26:10.620Z</time>
      </trkpt>
      <trkpt lat="45.95568" lon="3.88879">
        <ele>849</ele>
        <time>2024-12-08T05:26:11.619Z</time>
      </trkpt>
      <trkpt lat="45.95569" lon="3.88879">
        <ele>849</ele>
        <time>2024-12-08T05:26:12.619Z</time>
      </trkpt>
      <trkpt lat="45.9557" lon="3.8888">
        <ele>849</ele>
        <time>2024-12-08T05:26:13.619Z</time>
      </trkpt>
      <trkpt lat="45.95572" lon="3.8888">
        <ele>848</ele>
        <time>2024-12-08T05:26:14.619Z</time>
      </trkpt>
      <trkpt lat="45.95573" lon="3.88881">
        <ele>848</ele>
        <time>2024-12-08T05:26:15.620Z</time>
      </trkpt>
      <trkpt lat="45.95575" lon="3.88882">
        <ele>848</ele>
        <time>2024-12-08T05:26:16.620Z</time>
      </trkpt>
      <trkpt lat="45.95577" lon="3.88883">
        <ele>847</ele>
        <time>2024-12-08T05:26:17.620Z</time>
      </trkpt>
      <trkpt lat="45.95578" lon="3.88884">
        <ele>847</ele>
        <time>2024-12-08T05:26:18.620Z</time>
      </trkpt>
      <trkpt lat="45.9558" lon="3.88884">
        <ele>846</ele>
        <time>2024-12-08T05:26:19.619Z</time>
      </trkpt>
      <trkpt lat="45.95582" lon="3.88885">
        <ele>846</ele>
        <time>2024-12-08T05:26:20.619Z</time>
      </trkpt>
      <trkpt lat="45.95584" lon="3.88885">
        <ele>846</ele>
        <time>2024-12-08T05:26:21.619Z</time>
      </trkpt>
      <trkpt lat="45.95585" lon="3.88885">
        <ele>846</ele>
        <time>2024-12-08T05:26:22.620Z</time>
      </trkpt>
      <trkpt lat="45.95586" lon="3.88885">
        <ele>845</ele>
        <time>2024-12-08T05:26:23.619Z</time>
      </trkpt>
      <trkpt lat="45.95588" lon="3.88885">
        <ele>845</ele>
        <time>2024-12-08T05:26:24.620Z</time>
      </trkpt>
      <trkpt lat="45.9559" lon="3.88885">
        <ele>844</ele>
        <time>2024-12-08T05:26:25.620Z</time>
      </trkpt>
      <trkpt lat="45.95592" lon="3.88886">
        <ele>844</ele>
        <time>2024-12-08T05:26:26.619Z</time>
      </trkpt>
      <trkpt lat="45.95593" lon="3.88886">
        <ele>843</ele>
        <time>2024-12-08T05:26:27.620Z</time>
      </trkpt>
      <trkpt lat="45.95595" lon="3.88886">
        <ele>843</ele>
        <time>2024-12-08T05:26:28.620Z</time>
      </trkpt>
      <trkpt lat="45.95596" lon="3.88886">
        <ele>843</ele>
        <time>2024-12-08T05:26:29.619Z</time>
      </trkpt>
      <trkpt lat="45.95598" lon="3.88887">
        <ele>843</ele>
        <time>2024-12-08T05:26:30.619Z</time>
      </trkpt>
      <trkpt lat="45.95599" lon="3.88887">
        <ele>842</ele>
        <time>2024-12-08T05:26:31.619Z</time>
      </trkpt>
      <trkpt lat="45.95601" lon="3.88888">
        <ele>842</ele>
        <time>2024-12-08T05:26:32.620Z</time>
      </trkpt>
      <trkpt lat="45.95602" lon="3.88888">
        <ele>842</ele>
        <time>2024-12-08T05:26:33.620Z</time>
      </trkpt>
      <trkpt lat="45.95604" lon="3.88888">
        <ele>842</ele>
        <time>2024-12-08T05:26:34.619Z</time>
      </trkpt>
      <trkpt lat="45.95606" lon="3.88889">
        <ele>842</ele>
        <time>2024-12-08T05:26:35.619Z</time>
      </trkpt>
      <trkpt lat="45.95607" lon="3.88889">
        <ele>841</ele>
        <time>2024-12-08T05:26:36.620Z</time>
      </trkpt>
      <trkpt lat="45.95609" lon="3.88889">
        <ele>841</ele>
        <time>2024-12-08T05:26:37.620Z</time>
      </trkpt>
      <trkpt lat="45.95611" lon="3.88889">
        <ele>841</ele>
        <time>2024-12-08T05:26:38.620Z</time>
      </trkpt>
      <trkpt lat="45.95613" lon="3.88889">
        <ele>841</ele>
        <time>2024-12-08T05:26:39.620Z</time>
      </trkpt>
      <trkpt lat="45.95614" lon="3.88888">
        <ele>841</ele>
        <time>2024-12-08T05:26:40.619Z</time>
      </trkpt>
      <trkpt lat="45.95616" lon="3.88889">
        <ele>841</ele>
        <time>2024-12-08T05:26:41.619Z</time>
      </trkpt>
      <trkpt lat="45.95618" lon="3.88889">
        <ele>840</ele>
        <time>2024-12-08T05:26:42.620Z</time>
      </trkpt>
      <trkpt lat="45.9562" lon="3.88888">
        <ele>840</ele>
        <time>2024-12-08T05:26:43.619Z</time>
      </trkpt>
      <trkpt lat="45.95621" lon="3.88888">
        <ele>840</ele>
        <time>2024-12-08T05:26:44.620Z</time>
      </trkpt>
      <trkpt lat="45.95623" lon="3.88889">
        <ele>840</ele>
        <time>2024-12-08T05:26:45.620Z</time>
      </trkpt>
      <trkpt lat="45.95624" lon="3.88889">
        <ele>840</ele>
        <time>2024-12-08T05:26:46.619Z</time>
      </trkpt>
      <trkpt lat="45.95625" lon="3.88889">
        <ele>840</ele>
        <time>2024-12-08T05:26:47.620Z</time>
      </trkpt>
      <trkpt lat="45.95627" lon="3.88889">
        <ele>839</ele>
        <time>2024-12-08T05:26:48.620Z</time>
      </trkpt>
      <trkpt lat="45.95629" lon="3.88889">
        <ele>839</ele>
        <time>2024-12-08T05:26:49.619Z</time>
      </trkpt>
      <trkpt lat="45.9563" lon="3.88889">
        <ele>839</ele>
        <time>2024-12-08T05:26:50.620Z</time>
      </trkpt>
      <trkpt lat="45.95632" lon="3.8889">
        <ele>838</ele>
        <time>2024-12-08T05:26:51.619Z</time>
      </trkpt>
      <trkpt lat="45.95634" lon="3.8889">
        <ele>838</ele>
        <time>2024-12-08T05:26:52.619Z</time>
      </trkpt>
      <trkpt lat="45.95635" lon="3.8889">
        <ele>838</ele>
        <time>2024-12-08T05:26:53.620Z</time>
      </trkpt>
      <trkpt lat="45.95637" lon="3.8889">
        <ele>837</ele>
        <time>2024-12-08T05:26:54.619Z</time>
      </trkpt>
      <trkpt lat="45.95639" lon="3.8889">
        <ele>837</ele>
        <time>2024-12-08T05:26:55.619Z</time>
      </trkpt>
      <trkpt lat="45.9564" lon="3.88891">
        <ele>837</ele>
        <time>2024-12-08T05:26:56.619Z</time>
      </trkpt>
      <trkpt lat="45.95642" lon="3.88891">
        <ele>837</ele>
        <time>2024-12-08T05:26:57.619Z</time>
      </trkpt>
      <trkpt lat="45.95644" lon="3.88891">
        <ele>837</ele>
        <time>2024-12-08T05:26:58.620Z</time>
      </trkpt>
      <trkpt lat="45.95646" lon="3.88892">
        <ele>837</ele>
        <time>2024-12-08T05:26:59.620Z</time>
      </trkpt>
      <trkpt lat="45.95647" lon="3.88892">
        <ele>837</ele>
        <time>2024-12-08T05:27:00.620Z</time>
      </trkpt>
      <trkpt lat="45.95649" lon="3.88892">
        <ele>837</ele>
        <time>2024-12-08T05:27:01.619Z</time>
      </trkpt>
      <trkpt lat="45.95651" lon="3.88893">
        <ele>837</ele>
        <time>2024-12-08T05:27:02.620Z</time>
      </trkpt>
      <trkpt lat="45.95652" lon="3.88893">
        <ele>837</ele>
        <time>2024-12-08T05:27:03.620Z</time>
      </trkpt>
      <trkpt lat="45.95654" lon="3.88894">
        <ele>836</ele>
        <time>2024-12-08T05:27:04.619Z</time>
      </trkpt>
      <trkpt lat="45.95656" lon="3.88895">
        <ele>836</ele>
        <time>2024-12-08T05:27:05.620Z</time>
      </trkpt>
      <trkpt lat="45.95657" lon="3.88895">
        <ele>836</ele>
        <time>2024-12-08T05:27:06.620Z</time>
      </trkpt>
      <trkpt lat="45.95659" lon="3.88895">
        <ele>835</ele>
        <time>2024-12-08T05:27:07.619Z</time>
      </trkpt>
      <trkpt lat="45.95661" lon="3.88896">
        <ele>835</ele>
        <time>2024-12-08T05:27:08.619Z</time>
      </trkpt>
      <trkpt lat="45.95662" lon="3.88896">
        <ele>835</ele>
        <time>2024-12-08T05:27:09.619Z</time>
      </trkpt>
      <trkpt lat="45.95664" lon="3.88896">
        <ele>835</ele>
        <time>2024-12-08T05:27:10.619Z</time>
      </trkpt>
      <trkpt lat="45.95665" lon="3.88897">
        <ele>835</ele>
        <time>2024-12-08T05:27:11.620Z</time>
      </trkpt>
      <trkpt lat="45.95667" lon="3.88897">
        <ele>835</ele>
        <time>2024-12-08T05:27:12.619Z</time>
      </trkpt>
      <trkpt lat="45.95668" lon="3.88898">
        <ele>835</ele>
        <time>2024-12-08T05:27:13.620Z</time>
      </trkpt>
      <trkpt lat="45.9567" lon="3.88899">
        <ele>834</ele>
        <time>2024-12-08T05:27:14.619Z</time>
      </trkpt>
      <trkpt lat="45.95672" lon="3.889">
        <ele>834</ele>
        <time>2024-12-08T05:27:15.619Z</time>
      </trkpt>
      <trkpt lat="45.95673" lon="3.88901">
        <ele>833</ele>
        <time>2024-12-08T05:27:16.619Z</time>
      </trkpt>
      <trkpt lat="45.95675" lon="3.88901">
        <ele>833</ele>
        <time>2024-12-08T05:27:17.619Z</time>
      </trkpt>
      <trkpt lat="45.95676" lon="3.88901">
        <ele>833</ele>
        <time>2024-12-08T05:27:18.619Z</time>
      </trkpt>
      <trkpt lat="45.95678" lon="3.88902">
        <ele>833</ele>
        <time>2024-12-08T05:27:19.619Z</time>
      </trkpt>
      <trkpt lat="45.9568" lon="3.88902">
        <ele>833</ele>
        <time>2024-12-08T05:27:20.619Z</time>
      </trkpt>
      <trkpt lat="45.95681" lon="3.88902">
        <ele>833</ele>
        <time>2024-12-08T05:27:21.619Z</time>
      </trkpt>
      <trkpt lat="45.95683" lon="3.88903">
        <ele>833</ele>
        <time>2024-12-08T05:27:22.619Z</time>
      </trkpt>
      <trkpt lat="45.95685" lon="3.88903">
        <ele>833</ele>
        <time>2024-12-08T05:27:23.619Z</time>
      </trkpt>
      <trkpt lat="45.95686" lon="3.88904">
        <ele>832</ele>
        <time>2024-12-08T05:27:24.620Z</time>
      </trkpt>
      <trkpt lat="45.95688" lon="3.88904">
        <ele>832</ele>
        <time>2024-12-08T05:27:25.619Z</time>
      </trkpt>
      <trkpt lat="45.95689" lon="3.88905">
        <ele>832</ele>
        <time>2024-12-08T05:27:26.620Z</time>
      </trkpt>
      <trkpt lat="45.9569" lon="3.88905">
        <ele>831</ele>
        <time>2024-12-08T05:27:27.620Z</time>
      </trkpt>
      <trkpt lat="45.95692" lon="3.88906">
        <ele>831</ele>
        <time>2024-12-08T05:27:28.619Z</time>
      </trkpt>
      <trkpt lat="45.95693" lon="3.88907">
        <ele>831</ele>
        <time>2024-12-08T05:27:29.620Z</time>
      </trkpt>
      <trkpt lat="45.95694" lon="3.88907">
        <ele>831</ele>
        <time>2024-12-08T05:27:30.619Z</time>
      </trkpt>
      <trkpt lat="45.95696" lon="3.88908">
        <ele>831</ele>
        <time>2024-12-08T05:27:31.620Z</time>
      </trkpt>
      <trkpt lat="45.95697" lon="3.88909">
        <ele>831</ele>
        <time>2024-12-08T05:27:32.619Z</time>
      </trkpt>
      <trkpt lat="45.95699" lon="3.8891">
        <ele>830</ele>
        <time>2024-12-08T05:27:33.619Z</time>
      </trkpt>
      <trkpt lat="45.957" lon="3.88911">
        <ele>830</ele>
        <time>2024-12-08T05:27:34.619Z</time>
      </trkpt>
      <trkpt lat="45.95702" lon="3.88912">
        <ele>830</ele>
        <time>2024-12-08T05:27:35.620Z</time>
      </trkpt>
      <trkpt lat="45.95704" lon="3.88913">
        <ele>830</ele>
        <time>2024-12-08T05:27:36.620Z</time>
      </trkpt>
      <trkpt lat="45.95705" lon="3.88913">
        <ele>830</ele>
        <time>2024-12-08T05:27:37.620Z</time>
      </trkpt>
      <trkpt lat="45.95706" lon="3.88914">
        <ele>830</ele>
        <time>2024-12-08T05:27:38.620Z</time>
      </trkpt>
      <trkpt lat="45.95708" lon="3.88914">
        <ele>829</ele>
        <time>2024-12-08T05:27:39.620Z</time>
      </trkpt>
      <trkpt lat="45.95709" lon="3.88915">
        <ele>829</ele>
        <time>2024-12-08T05:27:40.620Z</time>
      </trkpt>
      <trkpt lat="45.95711" lon="3.88915">
        <ele>829</ele>
        <time>2024-12-08T05:27:41.619Z</time>
      </trkpt>
      <trkpt lat="45.95713" lon="3.88916">
        <ele>830</ele>
        <time>2024-12-08T05:27:42.619Z</time>
      </trkpt>
      <trkpt lat="45.95714" lon="3.88916">
        <ele>830</ele>
        <time>2024-12-08T05:27:43.620Z</time>
      </trkpt>
      <trkpt lat="45.95716" lon="3.88916">
        <ele>830</ele>
        <time>2024-12-08T05:27:44.620Z</time>
      </trkpt>
      <trkpt lat="45.95717" lon="3.88916">
        <ele>830</ele>
        <time>2024-12-08T05:27:45.620Z</time>
      </trkpt>
      <trkpt lat="45.95719" lon="3.88917">
        <ele>830</ele>
        <time>2024-12-08T05:27:46.619Z</time>
      </trkpt>
      <trkpt lat="45.95721" lon="3.88917">
        <ele>830</ele>
        <time>2024-12-08T05:27:47.619Z</time>
      </trkpt>
      <trkpt lat="45.95723" lon="3.88918">
        <ele>831</ele>
        <time>2024-12-08T05:27:48.620Z</time>
      </trkpt>
      <trkpt lat="45.95724" lon="3.88919">
        <ele>830</ele>
        <time>2024-12-08T05:27:49.620Z</time>
      </trkpt>
      <trkpt lat="45.95725" lon="3.88919">
        <ele>830</ele>
        <time>2024-12-08T05:27:50.620Z</time>
      </trkpt>
      <trkpt lat="45.95727" lon="3.8892">
        <ele>830</ele>
        <time>2024-12-08T05:27:51.620Z</time>
      </trkpt>
      <trkpt lat="45.95729" lon="3.88921">
        <ele>830</ele>
        <time>2024-12-08T05:27:52.619Z</time>
      </trkpt>
      <trkpt lat="45.9573" lon="3.88921">
        <ele>829</ele>
        <time>2024-12-08T05:27:53.619Z</time>
      </trkpt>
      <trkpt lat="45.95732" lon="3.88922">
        <ele>829</ele>
        <time>2024-12-08T05:27:54.619Z</time>
      </trkpt>
      <trkpt lat="45.95733" lon="3.88922">
        <ele>829</ele>
        <time>2024-12-08T05:27:55.619Z</time>
      </trkpt>
      <trkpt lat="45.95735" lon="3.88923">
        <ele>829</ele>
        <time>2024-12-08T05:27:56.620Z</time>
      </trkpt>
      <trkpt lat="45.95737" lon="3.88924">
        <ele>829</ele>
        <time>2024-12-08T05:27:57.619Z</time>
      </trkpt>
      <trkpt lat="45.95738" lon="3.88925">
        <ele>828</ele>
        <time>2024-12-08T05:27:58.619Z</time>
      </trkpt>
      <trkpt lat="45.9574" lon="3.88926">
        <ele>828</ele>
        <time>2024-12-08T05:27:59.619Z</time>
      </trkpt>
      <trkpt lat="45.95741" lon="3.88926">
        <ele>828</ele>
        <time>2024-12-08T05:28:00.619Z</time>
      </trkpt>
      <trkpt lat="45.95743" lon="3.88927">
        <ele>827</ele>
        <time>2024-12-08T05:28:01.619Z</time>
      </trkpt>
      <trkpt lat="45.95744" lon="3.88928">
        <ele>827</ele>
        <time>2024-12-08T05:28:02.619Z</time>
      </trkpt>
      <trkpt lat="45.95745" lon="3.88928">
        <ele>826</ele>
        <time>2024-12-08T05:28:03.620Z</time>
      </trkpt>
      <trkpt lat="45.95747" lon="3.88929">
        <ele>826</ele>
        <time>2024-12-08T05:28:04.619Z</time>
      </trkpt>
      <trkpt lat="45.95749" lon="3.88929">
        <ele>826</ele>
        <time>2024-12-08T05:28:05.619Z</time>
      </trkpt>
      <trkpt lat="45.95751" lon="3.8893">
        <ele>825</ele>
        <time>2024-12-08T05:28:06.619Z</time>
      </trkpt>
      <trkpt lat="45.95752" lon="3.8893">
        <ele>825</ele>
        <time>2024-12-08T05:28:07.619Z</time>
      </trkpt>
      <trkpt lat="45.95754" lon="3.88931">
        <ele>825</ele>
        <time>2024-12-08T05:28:08.620Z</time>
      </trkpt>
      <trkpt lat="45.95755" lon="3.88932">
        <ele>825</ele>
        <time>2024-12-08T05:28:09.619Z</time>
      </trkpt>
      <trkpt lat="45.95757" lon="3.88932">
        <ele>825</ele>
        <time>2024-12-08T05:28:10.620Z</time>
      </trkpt>
      <trkpt lat="45.95759" lon="3.88933">
        <ele>825</ele>
        <time>2024-12-08T05:28:11.620Z</time>
      </trkpt>
      <trkpt lat="45.9576" lon="3.88933">
        <ele>824</ele>
        <time>2024-12-08T05:28:12.620Z</time>
      </trkpt>
      <trkpt lat="45.95761" lon="3.88934">
        <ele>824</ele>
        <time>2024-12-08T05:28:13.619Z</time>
      </trkpt>
      <trkpt lat="45.95763" lon="3.88935">
        <ele>824</ele>
        <time>2024-12-08T05:28:14.619Z</time>
      </trkpt>
      <trkpt lat="45.95765" lon="3.88935">
        <ele>823</ele>
        <time>2024-12-08T05:28:15.620Z</time>
      </trkpt>
      <trkpt lat="45.95766" lon="3.88936">
        <ele>823</ele>
        <time>2024-12-08T05:28:16.620Z</time>
      </trkpt>
      <trkpt lat="45.95768" lon="3.88936">
        <ele>822</ele>
        <time>2024-12-08T05:28:17.620Z</time>
      </trkpt>
      <trkpt lat="45.95769" lon="3.88937">
        <ele>822</ele>
        <time>2024-12-08T05:28:18.619Z</time>
      </trkpt>
      <trkpt lat="45.95771" lon="3.88937">
        <ele>822</ele>
        <time>2024-12-08T05:28:19.619Z</time>
      </trkpt>
      <trkpt lat="45.95773" lon="3.88938">
        <ele>822</ele>
        <time>2024-12-08T05:28:20.620Z</time>
      </trkpt>
      <trkpt lat="45.95773" lon="3.88938">
        <ele>821</ele>
        <time>2024-12-08T05:28:21.620Z</time>
      </trkpt>
      <trkpt lat="45.95775" lon="3.88939">
        <ele>821</ele>
        <time>2024-12-08T05:28:22.620Z</time>
      </trkpt>
      <trkpt lat="45.95777" lon="3.88939">
        <ele>821</ele>
        <time>2024-12-08T05:28:23.620Z</time>
      </trkpt>
      <trkpt lat="45.95778" lon="3.8894">
        <ele>821</ele>
        <time>2024-12-08T05:28:24.620Z</time>
      </trkpt>
      <trkpt lat="45.9578" lon="3.8894">
        <ele>821</ele>
        <time>2024-12-08T05:28:25.619Z</time>
      </trkpt>
      <trkpt lat="45.95782" lon="3.88941">
        <ele>821</ele>
        <time>2024-12-08T05:28:26.620Z</time>
      </trkpt>
      <trkpt lat="45.95782" lon="3.88941">
        <ele>820</ele>
        <time>2024-12-08T05:28:27.619Z</time>
      </trkpt>
      <trkpt lat="45.95784" lon="3.88942">
        <ele>820</ele>
        <time>2024-12-08T05:28:28.620Z</time>
      </trkpt>
      <trkpt lat="45.95785" lon="3.88942">
        <ele>820</ele>
        <time>2024-12-08T05:28:29.620Z</time>
      </trkpt>
      <trkpt lat="45.95787" lon="3.88943">
        <ele>820</ele>
        <time>2024-12-08T05:28:30.619Z</time>
      </trkpt>
      <trkpt lat="45.95788" lon="3.88943">
        <ele>820</ele>
        <time>2024-12-08T05:28:31.620Z</time>
      </trkpt>
      <trkpt lat="45.95789" lon="3.88943">
        <ele>820</ele>
        <time>2024-12-08T05:28:32.619Z</time>
      </trkpt>
      <trkpt lat="45.95791" lon="3.88944">
        <ele>820</ele>
        <time>2024-12-08T05:28:33.619Z</time>
      </trkpt>
      <trkpt lat="45.95793" lon="3.88944">
        <ele>820</ele>
        <time>2024-12-08T05:28:34.620Z</time>
      </trkpt>
      <trkpt lat="45.95794" lon="3.88944">
        <ele>820</ele>
        <time>2024-12-08T05:28:35.620Z</time>
      </trkpt>
      <trkpt lat="45.95796" lon="3.88945">
        <ele>820</ele>
        <time>2024-12-08T05:28:36.619Z</time>
      </trkpt>
      <trkpt lat="45.95797" lon="3.88946">
        <ele>820</ele>
        <time>2024-12-08T05:28:37.619Z</time>
      </trkpt>
      <trkpt lat="45.95798" lon="3.88947">
        <ele>820</ele>
        <time>2024-12-08T05:28:38.619Z</time>
      </trkpt>
      <trkpt lat="45.958" lon="3.88948">
        <ele>820</ele>
        <time>2024-12-08T05:28:39.619Z</time>
      </trkpt>
      <trkpt lat="45.95801" lon="3.88948">
        <ele>820</ele>
        <time>2024-12-08T05:28:40.619Z</time>
      </trkpt>
      <trkpt lat="45.95803" lon="3.88949">
        <ele>820</ele>
        <time>2024-12-08T05:28:41.620Z</time>
      </trkpt>
      <trkpt lat="45.95804" lon="3.88949">
        <ele>820</ele>
        <time>2024-12-08T05:28:42.620Z</time>
      </trkpt>
      <trkpt lat="45.95805" lon="3.88949">
        <ele>819</ele>
        <time>2024-12-08T05:28:43.620Z</time>
      </trkpt>
      <trkpt lat="45.95806" lon="3.88949">
        <ele>819</ele>
        <time>2024-12-08T05:28:44.619Z</time>
      </trkpt>
      <trkpt lat="45.95808" lon="3.8895">
        <ele>819</ele>
        <time>2024-12-08T05:28:45.619Z</time>
      </trkpt>
      <trkpt lat="45.95809" lon="3.8895">
        <ele>819</ele>
        <time>2024-12-08T05:28:46.619Z</time>
      </trkpt>
      <trkpt lat="45.95811" lon="3.88951">
        <ele>819</ele>
        <time>2024-12-08T05:28:47.619Z</time>
      </trkpt>
      <trkpt lat="45.95812" lon="3.88951">
        <ele>819</ele>
        <time>2024-12-08T05:28:48.619Z</time>
      </trkpt>
      <trkpt lat="45.95814" lon="3.88951">
        <ele>819</ele>
        <time>2024-12-08T05:28:49.620Z</time>
      </trkpt>
      <trkpt lat="45.95815" lon="3.88951">
        <ele>819</ele>
        <time>2024-12-08T05:28:50.619Z</time>
      </trkpt>
      <trkpt lat="45.95816" lon="3.88952">
        <ele>818</ele>
        <time>2024-12-08T05:28:51.620Z</time>
      </trkpt>
      <trkpt lat="45.95817" lon="3.88952">
        <ele>818</ele>
        <time>2024-12-08T05:28:52.620Z</time>
      </trkpt>
      <trkpt lat="45.95819" lon="3.88952">
        <ele>818</ele>
        <time>2024-12-08T05:28:53.620Z</time>
      </trkpt>
      <trkpt lat="45.9582" lon="3.88952">
        <ele>818</ele>
        <time>2024-12-08T05:28:54.620Z</time>
      </trkpt>
      <trkpt lat="45.95822" lon="3.88953">
        <ele>818</ele>
        <time>2024-12-08T05:28:55.619Z</time>
      </trkpt>
      <trkpt lat="45.95824" lon="3.88953">
        <ele>818</ele>
        <time>2024-12-08T05:28:56.619Z</time>
      </trkpt>
      <trkpt lat="45.95825" lon="3.88954">
        <ele>818</ele>
        <time>2024-12-08T05:28:57.620Z</time>
      </trkpt>
      <trkpt lat="45.95827" lon="3.88954">
        <ele>818</ele>
        <time>2024-12-08T05:28:58.620Z</time>
      </trkpt>
      <trkpt lat="45.95829" lon="3.88954">
        <ele>818</ele>
        <time>2024-12-08T05:28:59.619Z</time>
      </trkpt>
      <trkpt lat="45.95831" lon="3.88954">
        <ele>818</ele>
        <time>2024-12-08T05:29:00.619Z</time>
      </trkpt>
      <trkpt lat="45.95833" lon="3.88956">
        <ele>818</ele>
        <time>2024-12-08T05:29:01.619Z</time>
      </trkpt>
      <trkpt lat="45.95834" lon="3.88956">
        <ele>818</ele>
        <time>2024-12-08T05:29:02.620Z</time>
      </trkpt>
      <trkpt lat="45.95836" lon="3.88956">
        <ele>818</ele>
        <time>2024-12-08T05:29:03.620Z</time>
      </trkpt>
      <trkpt lat="45.95838" lon="3.88957">
        <ele>818</ele>
        <time>2024-12-08T05:29:04.619Z</time>
      </trkpt>
      <trkpt lat="45.95839" lon="3.88957">
        <ele>818</ele>
        <time>2024-12-08T05:29:05.619Z</time>
      </trkpt>
      <trkpt lat="45.95841" lon="3.88957">
        <ele>818</ele>
        <time>2024-12-08T05:29:06.619Z</time>
      </trkpt>
      <trkpt lat="45.95842" lon="3.88958">
        <ele>817</ele>
        <time>2024-12-08T05:29:07.620Z</time>
      </trkpt>
      <trkpt lat="45.95843" lon="3.88958">
        <ele>817</ele>
        <time>2024-12-08T05:29:08.620Z</time>
      </trkpt>
      <trkpt lat="45.95845" lon="3.88959">
        <ele>817</ele>
        <time>2024-12-08T05:29:09.620Z</time>
      </trkpt>
      <trkpt lat="45.95847" lon="3.88959">
        <ele>816</ele>
        <time>2024-12-08T05:29:10.619Z</time>
      </trkpt>
      <trkpt lat="45.95848" lon="3.88959">
        <ele>816</ele>
        <time>2024-12-08T05:29:11.620Z</time>
      </trkpt>
      <trkpt lat="45.9585" lon="3.88959">
        <ele>816</ele>
        <time>2024-12-08T05:29:12.620Z</time>
      </trkpt>
      <trkpt lat="45.95852" lon="3.8896">
        <ele>816</ele>
        <time>2024-12-08T05:29:13.619Z</time>
      </trkpt>
      <trkpt lat="45.95854" lon="3.8896">
        <ele>816</ele>
        <time>2024-12-08T05:29:14.619Z</time>
      </trkpt>
      <trkpt lat="45.95855" lon="3.88961">
        <ele>816</ele>
        <time>2024-12-08T05:29:15.619Z</time>
      </trkpt>
      <trkpt lat="45.95857" lon="3.88961">
        <ele>816</ele>
        <time>2024-12-08T05:29:16.620Z</time>
      </trkpt>
      <trkpt lat="45.95858" lon="3.88962">
        <ele>816</ele>
        <time>2024-12-08T05:29:17.619Z</time>
      </trkpt>
      <trkpt lat="45.9586" lon="3.88963">
        <ele>816</ele>
        <time>2024-12-08T05:29:18.620Z</time>
      </trkpt>
      <trkpt lat="45.95861" lon="3.88964">
        <ele>816</ele>
        <time>2024-12-08T05:29:19.619Z</time>
      </trkpt>
      <trkpt lat="45.95862" lon="3.88964">
        <ele>815</ele>
        <time>2024-12-08T05:29:20.620Z</time>
      </trkpt>
      <trkpt lat="45.95864" lon="3.88965">
        <ele>815</ele>
        <time>2024-12-08T05:29:21.620Z</time>
      </trkpt>
      <trkpt lat="45.95866" lon="3.88965">
        <ele>815</ele>
        <time>2024-12-08T05:29:22.619Z</time>
      </trkpt>
      <trkpt lat="45.95867" lon="3.88965">
        <ele>815</ele>
        <time>2024-12-08T05:29:23.619Z</time>
      </trkpt>
      <trkpt lat="45.95868" lon="3.88965">
        <ele>815</ele>
        <time>2024-12-08T05:29:24.620Z</time>
      </trkpt>
      <trkpt lat="45.9587" lon="3.88966">
        <ele>815</ele>
        <time>2024-12-08T05:29:25.620Z</time>
      </trkpt>
      <trkpt lat="45.95871" lon="3.88966">
        <ele>815</ele>
        <time>2024-12-08T05:29:26.620Z</time>
      </trkpt>
      <trkpt lat="45.95873" lon="3.88966">
        <ele>815</ele>
        <time>2024-12-08T05:29:27.619Z</time>
      </trkpt>
      <trkpt lat="45.95875" lon="3.88966">
        <ele>815</ele>
        <time>2024-12-08T05:29:28.619Z</time>
      </trkpt>
      <trkpt lat="45.95876" lon="3.88967">
        <ele>815</ele>
        <time>2024-12-08T05:29:29.619Z</time>
      </trkpt>
      <trkpt lat="45.95877" lon="3.88967">
        <ele>815</ele>
        <time>2024-12-08T05:29:30.620Z</time>
      </trkpt>
      <trkpt lat="45.95879" lon="3.88967">
        <ele>816</ele>
        <time>2024-12-08T05:29:31.620Z</time>
      </trkpt>
      <trkpt lat="45.9588" lon="3.88967">
        <ele>816</ele>
        <time>2024-12-08T05:29:32.620Z</time>
      </trkpt>
      <trkpt lat="45.95882" lon="3.88967">
        <ele>816</ele>
        <time>2024-12-08T05:29:33.619Z</time>
      </trkpt>
      <trkpt lat="45.95884" lon="3.88967">
        <ele>816</ele>
        <time>2024-12-08T05:29:34.620Z</time>
      </trkpt>
      <trkpt lat="45.95885" lon="3.88967">
        <ele>816</ele>
        <time>2024-12-08T05:29:35.619Z</time>
      </trkpt>
      <trkpt lat="45.95887" lon="3.88968">
        <ele>816</ele>
        <time>2024-12-08T05:29:36.620Z</time>
      </trkpt>
      <trkpt lat="45.95889" lon="3.88968">
        <ele>816</ele>
        <time>2024-12-08T05:29:37.620Z</time>
      </trkpt>
      <trkpt lat="45.9589" lon="3.88967">
        <ele>816</ele>
        <time>2024-12-08T05:29:38.619Z</time>
      </trkpt>
      <trkpt lat="45.95891" lon="3.88968">
        <ele>816</ele>
        <time>2024-12-08T05:29:39.619Z</time>
      </trkpt>
      <trkpt lat="45.95893" lon="3.88968">
        <ele>816</ele>
        <time>2024-12-08T05:29:40.620Z</time>
      </trkpt>
      <trkpt lat="45.95895" lon="3.88968">
        <ele>816</ele>
        <time>2024-12-08T05:29:41.619Z</time>
      </trkpt>
      <trkpt lat="45.95896" lon="3.88968">
        <ele>816</ele>
        <time>2024-12-08T05:29:42.619Z</time>
      </trkpt>
      <trkpt lat="45.95898" lon="3.88968">
        <ele>816</ele>
        <time>2024-12-08T05:29:43.619Z</time>
      </trkpt>
      <trkpt lat="45.95899" lon="3.88968">
        <ele>816</ele>
        <time>2024-12-08T05:29:44.619Z</time>
      </trkpt>
      <trkpt lat="45.959" lon="3.88968">
        <ele>815</ele>
        <time>2024-12-08T05:29:45.620Z</time>
      </trkpt>
      <trkpt lat="45.95901" lon="3.88968">
        <ele>815</ele>
        <time>2024-12-08T05:29:46.620Z</time>
      </trkpt>
      <trkpt lat="45.95903" lon="3.88969">
        <ele>814</ele>
        <time>2024-12-08T05:29:47.619Z</time>
      </trkpt>
      <trkpt lat="45.95904" lon="3.88969">
        <ele>814</ele>
        <time>2024-12-08T05:29:48.619Z</time>
      </trkpt>
      <trkpt lat="45.95906" lon="3.88969">
        <ele>813</ele>
        <time>2024-12-08T05:29:49.619Z</time>
      </trkpt>
      <trkpt lat="45.95907" lon="3.88969">
        <ele>813</ele>
        <time>2024-12-08T05:29:50.619Z</time>
      </trkpt>
      <trkpt lat="45.95908" lon="3.8897">
        <ele>813</ele>
        <time>2024-12-08T05:29:51.620Z</time>
      </trkpt>
      <trkpt lat="45.9591" lon="3.8897">
        <ele>813</ele>
        <time>2024-12-08T05:29:52.619Z</time>
      </trkpt>
      <trkpt lat="45.95912" lon="3.8897">
        <ele>812</ele>
        <time>2024-12-08T05:29:53.620Z</time>
      </trkpt>
      <trkpt lat="45.95913" lon="3.88971">
        <ele>812</ele>
        <time>2024-12-08T05:29:54.619Z</time>
      </trkpt>
      <trkpt lat="45.95915" lon="3.88971">
        <ele>812</ele>
        <time>2024-12-08T05:29:55.620Z</time>
      </trkpt>
      <trkpt lat="45.95916" lon="3.88972">
        <ele>812</ele>
        <time>2024-12-08T05:29:56.620Z</time>
      </trkpt>
      <trkpt lat="45.95918" lon="3.88972">
        <ele>812</ele>
        <time>2024-12-08T05:29:57.620Z</time>
      </trkpt>
      <trkpt lat="45.9592" lon="3.88972">
        <ele>812</ele>
        <time>2024-12-08T05:29:58.619Z</time>
      </trkpt>
      <trkpt lat="45.95921" lon="3.88973">
        <ele>812</ele>
        <time>2024-12-08T05:29:59.620Z</time>
      </trkpt>
      <trkpt lat="45.95922" lon="3.88973">
        <ele>812</ele>
        <time>2024-12-08T05:30:00.619Z</time>
      </trkpt>
      <trkpt lat="45.95924" lon="3.88974">
        <ele>812</ele>
        <time>2024-12-08T05:30:01.620Z</time>
      </trkpt>
      <trkpt lat="45.95926" lon="3.88974">
        <ele>812</ele>
        <time>2024-12-08T05:30:02.619Z</time>
      </trkpt>
      <trkpt lat="45.95928" lon="3.88974">
        <ele>812</ele>
        <time>2024-12-08T05:30:03.619Z</time>
      </trkpt>
      <trkpt lat="45.95929" lon="3.88975">
        <ele>811</ele>
        <time>2024-12-08T05:30:04.619Z</time>
      </trkpt>
      <trkpt lat="45.9593" lon="3.88976">
        <ele>811</ele>
        <time>2024-12-08T05:30:05.620Z</time>
      </trkpt>
      <trkpt lat="45.95932" lon="3.88976">
        <ele>810</ele>
        <time>2024-12-08T05:30:06.619Z</time>
      </trkpt>
      <trkpt lat="45.95934" lon="3.88977">
        <ele>810</ele>
        <time>2024-12-08T05:30:07.620Z</time>
      </trkpt>
      <trkpt lat="45.95935" lon="3.88977">
        <ele>810</ele>
        <time>2024-12-08T05:30:08.620Z</time>
      </trkpt>
      <trkpt lat="45.95937" lon="3.88977">
        <ele>810</ele>
        <time>2024-12-08T05:30:09.619Z</time>
      </trkpt>
      <trkpt lat="45.95938" lon="3.88978">
        <ele>809</ele>
        <time>2024-12-08T05:30:10.620Z</time>
      </trkpt>
      <trkpt lat="45.9594" lon="3.88978">
        <ele>809</ele>
        <time>2024-12-08T05:30:11.619Z</time>
      </trkpt>
      <trkpt lat="45.95941" lon="3.88978">
        <ele>809</ele>
        <time>2024-12-08T05:30:12.620Z</time>
      </trkpt>
      <trkpt lat="45.95943" lon="3.88978">
        <ele>809</ele>
        <time>2024-12-08T05:30:13.620Z</time>
      </trkpt>
      <trkpt lat="45.95945" lon="3.88979">
        <ele>809</ele>
        <time>2024-12-08T05:30:14.620Z</time>
      </trkpt>
      <trkpt lat="45.95946" lon="3.88979">
        <ele>809</ele>
        <time>2024-12-08T05:30:15.620Z</time>
      </trkpt>
      <trkpt lat="45.95948" lon="3.88979">
        <ele>809</ele>
        <time>2024-12-08T05:30:16.620Z</time>
      </trkpt>
      <trkpt lat="45.95949" lon="3.88979">
        <ele>809</ele>
        <time>2024-12-08T05:30:17.619Z</time>
      </trkpt>
      <trkpt lat="45.95951" lon="3.88979">
        <ele>809</ele>
        <time>2024-12-08T05:30:18.619Z</time>
      </trkpt>
      <trkpt lat="45.95952" lon="3.8898">
        <ele>808</ele>
        <time>2024-12-08T05:30:19.619Z</time>
      </trkpt>
      <trkpt lat="45.95954" lon="3.8898">
        <ele>808</ele>
        <time>2024-12-08T05:30:20.619Z</time>
      </trkpt>
      <trkpt lat="45.95955" lon="3.88981">
        <ele>808</ele>
        <time>2024-12-08T05:30:21.620Z</time>
      </trkpt>
      <trkpt lat="45.95957" lon="3.88981">
        <ele>807</ele>
        <time>2024-12-08T05:30:22.619Z</time>
      </trkpt>
      <trkpt lat="45.95958" lon="3.88981">
        <ele>807</ele>
        <time>2024-12-08T05:30:23.619Z</time>
      </trkpt>
      <trkpt lat="45.95959" lon="3.88981">
        <ele>807</ele>
        <time>2024-12-08T05:30:24.619Z</time>
      </trkpt>
      <trkpt lat="45.95961" lon="3.88981">
        <ele>807</ele>
        <time>2024-12-08T05:30:25.620Z</time>
      </trkpt>
      <trkpt lat="45.95963" lon="3.88981">
        <ele>806</ele>
        <time>2024-12-08T05:30:26.620Z</time>
      </trkpt>
      <trkpt lat="45.95964" lon="3.88981">
        <ele>806</ele>
        <time>2024-12-08T05:30:27.619Z</time>
      </trkpt>
      <trkpt lat="45.95966" lon="3.88981">
        <ele>806</ele>
        <time>2024-12-08T05:30:28.619Z</time>
      </trkpt>
      <trkpt lat="45.95967" lon="3.88981">
        <ele>806</ele>
        <time>2024-12-08T05:30:29.619Z</time>
      </trkpt>
      <trkpt lat="45.95969" lon="3.88981">
        <ele>806</ele>
        <time>2024-12-08T05:30:30.620Z</time>
      </trkpt>
      <trkpt lat="45.9597" lon="3.88982">
        <ele>806</ele>
        <time>2024-12-08T05:30:31.620Z</time>
      </trkpt>
      <trkpt lat="45.95971" lon="3.88982">
        <ele>805</ele>
        <time>2024-12-08T05:30:32.619Z</time>
      </trkpt>
      <trkpt lat="45.95972" lon="3.88983">
        <ele>805</ele>
        <time>2024-12-08T05:30:33.620Z</time>
      </trkpt>
      <trkpt lat="45.95974" lon="3.88984">
        <ele>805</ele>
        <time>2024-12-08T05:30:34.620Z</time>
      </trkpt>
      <trkpt lat="45.95975" lon="3.88984">
        <ele>805</ele>
        <time>2024-12-08T05:30:35.620Z</time>
      </trkpt>
      <trkpt lat="45.95977" lon="3.88985">
        <ele>805</ele>
        <time>2024-12-08T05:30:36.619Z</time>
      </trkpt>
      <trkpt lat="45.95978" lon="3.88986">
        <ele>804</ele>
        <time>2024-12-08T05:30:37.619Z</time>
      </trkpt>
      <trkpt lat="45.9598" lon="3.88987">
        <ele>804</ele>
        <time>2024-12-08T05:30:38.619Z</time>
      </trkpt>
      <trkpt lat="45.95981" lon="3.88987">
        <ele>805</ele>
        <time>2024-12-08T05:30:39.620Z</time>
      </trkpt>
      <trkpt lat="45.95982" lon="3.88988">
        <ele>805</ele>
        <time>2024-12-08T05:30:40.620Z</time>
      </trkpt>
      <trkpt lat="45.95983" lon="3.88988">
        <ele>805</ele>
        <time>2024-12-08T05:30:41.619Z</time>
      </trkpt>
      <trkpt lat="45.95984" lon="3.88989">
        <ele>805</ele>
        <time>2024-12-08T05:30:42.620Z</time>
      </trkpt>
      <trkpt lat="45.95985" lon="3.8899">
        <ele>805</ele>
        <time>2024-12-08T05:30:43.620Z</time>
      </trkpt>
      <trkpt lat="45.95987" lon="3.8899">
        <ele>805</ele>
        <time>2024-12-08T05:30:44.620Z</time>
      </trkpt>
      <trkpt lat="45.95988" lon="3.88991">
        <ele>805</ele>
        <time>2024-12-08T05:30:45.619Z</time>
      </trkpt>
      <trkpt lat="45.95989" lon="3.88991">
        <ele>805</ele>
        <time>2024-12-08T05:30:46.620Z</time>
      </trkpt>
      <trkpt lat="45.95991" lon="3.88991">
        <ele>805</ele>
        <time>2024-12-08T05:30:47.619Z</time>
      </trkpt>
      <trkpt lat="45.95993" lon="3.88991">
        <ele>805</ele>
        <time>2024-12-08T05:30:48.620Z</time>
      </trkpt>
      <trkpt lat="45.95994" lon="3.88991">
        <ele>805</ele>
        <time>2024-12-08T05:30:49.619Z</time>
      </trkpt>
      <trkpt lat="45.95996" lon="3.88991">
        <ele>805</ele>
        <time>2024-12-08T05:30:50.620Z</time>
      </trkpt>
      <trkpt lat="45.95998" lon="3.88991">
        <ele>805</ele>
        <time>2024-12-08T05:30:51.620Z</time>
      </trkpt>
      <trkpt lat="45.95999" lon="3.88991">
        <ele>805</ele>
        <time>2024-12-08T05:30:52.620Z</time>
      </trkpt>
      <trkpt lat="45.96001" lon="3.88991">
        <ele>805</ele>
        <time>2024-12-08T05:30:53.620Z</time>
      </trkpt>
      <trkpt lat="45.96003" lon="3.88991">
        <ele>806</ele>
        <time>2024-12-08T05:30:54.619Z</time>
      </trkpt>
      <trkpt lat="45.96004" lon="3.88991">
        <ele>806</ele>
        <time>2024-12-08T05:30:55.620Z</time>
      </trkpt>
      <trkpt lat="45.96006" lon="3.88992">
        <ele>806</ele>
        <time>2024-12-08T05:30:56.619Z</time>
      </trkpt>
      <trkpt lat="45.96008" lon="3.88992">
        <ele>806</ele>
        <time>2024-12-08T05:30:57.619Z</time>
      </trkpt>
      <trkpt lat="45.96009" lon="3.88993">
        <ele>806</ele>
        <time>2024-12-08T05:30:58.619Z</time>
      </trkpt>
      <trkpt lat="45.9601" lon="3.88994">
        <ele>805</ele>
        <time>2024-12-08T05:30:59.619Z</time>
      </trkpt>
      <trkpt lat="45.96011" lon="3.88994">
        <ele>805</ele>
        <time>2024-12-08T05:31:00.619Z</time>
      </trkpt>
      <trkpt lat="45.96012" lon="3.88995">
        <ele>805</ele>
        <time>2024-12-08T05:31:01.620Z</time>
      </trkpt>
      <trkpt lat="45.96014" lon="3.88996">
        <ele>805</ele>
        <time>2024-12-08T05:31:02.620Z</time>
      </trkpt>
      <trkpt lat="45.96016" lon="3.88997">
        <ele>805</ele>
        <time>2024-12-08T05:31:03.619Z</time>
      </trkpt>
      <trkpt lat="45.96017" lon="3.88998">
        <ele>805</ele>
        <time>2024-12-08T05:31:04.620Z</time>
      </trkpt>
      <trkpt lat="45.96019" lon="3.88999">
        <ele>806</ele>
        <time>2024-12-08T05:31:05.620Z</time>
      </trkpt>
      <trkpt lat="45.9602" lon="3.88999">
        <ele>806</ele>
        <time>2024-12-08T05:31:06.620Z</time>
      </trkpt>
      <trkpt lat="45.96022" lon="3.89">
        <ele>806</ele>
        <time>2024-12-08T05:31:07.619Z</time>
      </trkpt>
      <trkpt lat="45.96023" lon="3.89">
        <ele>806</ele>
        <time>2024-12-08T05:31:08.620Z</time>
      </trkpt>
      <trkpt lat="45.96024" lon="3.89001">
        <ele>806</ele>
        <time>2024-12-08T05:31:09.619Z</time>
      </trkpt>
      <trkpt lat="45.96026" lon="3.89002">
        <ele>805</ele>
        <time>2024-12-08T05:31:10.620Z</time>
      </trkpt>
      <trkpt lat="45.96027" lon="3.89003">
        <ele>805</ele>
        <time>2024-12-08T05:31:11.619Z</time>
      </trkpt>
      <trkpt lat="45.96029" lon="3.89003">
        <ele>805</ele>
        <time>2024-12-08T05:31:12.620Z</time>
      </trkpt>
      <trkpt lat="45.9603" lon="3.89004">
        <ele>805</ele>
        <time>2024-12-08T05:31:13.619Z</time>
      </trkpt>
      <trkpt lat="45.96032" lon="3.89005">
        <ele>805</ele>
        <time>2024-12-08T05:31:14.619Z</time>
      </trkpt>
      <trkpt lat="45.96033" lon="3.89005">
        <ele>805</ele>
        <time>2024-12-08T05:31:15.620Z</time>
      </trkpt>
      <trkpt lat="45.96035" lon="3.89006">
        <ele>805</ele>
        <time>2024-12-08T05:31:16.619Z</time>
      </trkpt>
      <trkpt lat="45.96036" lon="3.89007">
        <ele>804</ele>
        <time>2024-12-08T05:31:17.620Z</time>
      </trkpt>
      <trkpt lat="45.96037" lon="3.89008">
        <ele>804</ele>
        <time>2024-12-08T05:31:18.619Z</time>
      </trkpt>
      <trkpt lat="45.96038" lon="3.89008">
        <ele>804</ele>
        <time>2024-12-08T05:31:19.620Z</time>
      </trkpt>
      <trkpt lat="45.9604" lon="3.89009">
        <ele>803</ele>
        <time>2024-12-08T05:31:20.619Z</time>
      </trkpt>
      <trkpt lat="45.96041" lon="3.8901">
        <ele>803</ele>
        <time>2024-12-08T05:31:21.620Z</time>
      </trkpt>
      <trkpt lat="45.96042" lon="3.8901">
        <ele>802</ele>
        <time>2024-12-08T05:31:22.619Z</time>
      </trkpt>
      <trkpt lat="45.96044" lon="3.89011">
        <ele>802</ele>
        <time>2024-12-08T05:31:23.619Z</time>
      </trkpt>
      <trkpt lat="45.96046" lon="3.89012">
        <ele>801</ele>
        <time>2024-12-08T05:31:24.619Z</time>
      </trkpt>
      <trkpt lat="45.96047" lon="3.89012">
        <ele>801</ele>
        <time>2024-12-08T05:31:25.619Z</time>
      </trkpt>
      <trkpt lat="45.96048" lon="3.89013">
        <ele>801</ele>
        <time>2024-12-08T05:31:26.619Z</time>
      </trkpt>
      <trkpt lat="45.9605" lon="3.89014">
        <ele>801</ele>
        <time>2024-12-08T05:31:27.619Z</time>
      </trkpt>
      <trkpt lat="45.96051" lon="3.89015">
        <ele>801</ele>
        <time>2024-12-08T05:31:28.619Z</time>
      </trkpt>
      <trkpt lat="45.96053" lon="3.89015">
        <ele>801</ele>
        <time>2024-12-08T05:31:29.619Z</time>
      </trkpt>
      <trkpt lat="45.96055" lon="3.89016">
        <ele>801</ele>
        <time>2024-12-08T05:31:30.620Z</time>
      </trkpt>
      <trkpt lat="45.96057" lon="3.89017">
        <ele>801</ele>
        <time>2024-12-08T05:31:31.619Z</time>
      </trkpt>
      <trkpt lat="45.96058" lon="3.89018">
        <ele>801</ele>
        <time>2024-12-08T05:31:32.619Z</time>
      </trkpt>
      <trkpt lat="45.9606" lon="3.89018">
        <ele>801</ele>
        <time>2024-12-08T05:31:33.620Z</time>
      </trkpt>
      <trkpt lat="45.96062" lon="3.89019">
        <ele>801</ele>
        <time>2024-12-08T05:31:34.619Z</time>
      </trkpt>
      <trkpt lat="45.96063" lon="3.8902">
        <ele>801</ele>
        <time>2024-12-08T05:31:35.620Z</time>
      </trkpt>
      <trkpt lat="45.96064" lon="3.89021">
        <ele>801</ele>
        <time>2024-12-08T05:31:36.619Z</time>
      </trkpt>
      <trkpt lat="45.96065" lon="3.89022">
        <ele>800</ele>
        <time>2024-12-08T05:31:37.620Z</time>
      </trkpt>
      <trkpt lat="45.96066" lon="3.89023">
        <ele>800</ele>
        <time>2024-12-08T05:31:38.619Z</time>
      </trkpt>
      <trkpt lat="45.96067" lon="3.89024">
        <ele>800</ele>
        <time>2024-12-08T05:31:39.620Z</time>
      </trkpt>
      <trkpt lat="45.96069" lon="3.89025">
        <ele>799</ele>
        <time>2024-12-08T05:31:40.619Z</time>
      </trkpt>
      <trkpt lat="45.9607" lon="3.89026">
        <ele>799</ele>
        <time>2024-12-08T05:31:41.620Z</time>
      </trkpt>
      <trkpt lat="45.9607" lon="3.89026">
        <ele>798</ele>
        <time>2024-12-08T05:31:42.619Z</time>
      </trkpt>
      <trkpt lat="45.96072" lon="3.89027">
        <ele>798</ele>
        <time>2024-12-08T05:31:43.619Z</time>
      </trkpt>
      <trkpt lat="45.96073" lon="3.89028">
        <ele>797</ele>
        <time>2024-12-08T05:31:44.620Z</time>
      </trkpt>
      <trkpt lat="45.96075" lon="3.89029">
        <ele>797</ele>
        <time>2024-12-08T05:31:45.620Z</time>
      </trkpt>
      <trkpt lat="45.96076" lon="3.8903">
        <ele>796</ele>
        <time>2024-12-08T05:31:46.620Z</time>
      </trkpt>
      <trkpt lat="45.96078" lon="3.89032">
        <ele>795</ele>
        <time>2024-12-08T05:31:47.619Z</time>
      </trkpt>
      <trkpt lat="45.9608" lon="3.89033">
        <ele>795</ele>
        <time>2024-12-08T05:31:48.620Z</time>
      </trkpt>
      <trkpt lat="45.96081" lon="3.89034">
        <ele>795</ele>
        <time>2024-12-08T05:31:49.619Z</time>
      </trkpt>
      <trkpt lat="45.96083" lon="3.89035">
        <ele>794</ele>
        <time>2024-12-08T05:31:50.619Z</time>
      </trkpt>
      <trkpt lat="45.96084" lon="3.89035">
        <ele>794</ele>
        <time>2024-12-08T05:31:51.619Z</time>
      </trkpt>
      <trkpt lat="45.96085" lon="3.89036">
        <ele>794</ele>
        <time>2024-12-08T05:31:52.620Z</time>
      </trkpt>
      <trkpt lat="45.96087" lon="3.89037">
        <ele>793</ele>
        <time>2024-12-08T05:31:53.620Z</time>
      </trkpt>
      <trkpt lat="45.96088" lon="3.89038">
        <ele>793</ele>
        <time>2024-12-08T05:31:54.620Z</time>
      </trkpt>
      <trkpt lat="45.9609" lon="3.89039">
        <ele>793</ele>
        <time>2024-12-08T05:31:55.620Z</time>
      </trkpt>
      <trkpt lat="45.96091" lon="3.89039">
        <ele>793</ele>
        <time>2024-12-08T05:31:56.619Z</time>
      </trkpt>
      <trkpt lat="45.96092" lon="3.8904">
        <ele>792</ele>
        <time>2024-12-08T05:31:57.620Z</time>
      </trkpt>
      <trkpt lat="45.96094" lon="3.89041">
        <ele>792</ele>
        <time>2024-12-08T05:31:58.619Z</time>
      </trkpt>
      <trkpt lat="45.96095" lon="3.89042">
        <ele>792</ele>
        <time>2024-12-08T05:31:59.620Z</time>
      </trkpt>
      <trkpt lat="45.96096" lon="3.89042">
        <ele>792</ele>
        <time>2024-12-08T05:32:00.619Z</time>
      </trkpt>
      <trkpt lat="45.96097" lon="3.89043">
        <ele>792</ele>
        <time>2024-12-08T05:32:01.620Z</time>
      </trkpt>
      <trkpt lat="45.96099" lon="3.89044">
        <ele>792</ele>
        <time>2024-12-08T05:32:02.619Z</time>
      </trkpt>
      <trkpt lat="45.961" lon="3.89045">
        <ele>792</ele>
        <time>2024-12-08T05:32:03.619Z</time>
      </trkpt>
      <trkpt lat="45.96102" lon="3.89046">
        <ele>792</ele>
        <time>2024-12-08T05:32:04.619Z</time>
      </trkpt>
      <trkpt lat="45.96103" lon="3.89047">
        <ele>792</ele>
        <time>2024-12-08T05:32:05.620Z</time>
      </trkpt>
      <trkpt lat="45.96104" lon="3.89047">
        <ele>792</ele>
        <time>2024-12-08T05:32:06.619Z</time>
      </trkpt>
      <trkpt lat="45.96106" lon="3.89048">
        <ele>793</ele>
        <time>2024-12-08T05:32:07.619Z</time>
      </trkpt>
      <trkpt lat="45.96107" lon="3.89049">
        <ele>793</ele>
        <time>2024-12-08T05:32:08.619Z</time>
      </trkpt>
      <trkpt lat="45.96108" lon="3.89049">
        <ele>793</ele>
        <time>2024-12-08T05:32:09.620Z</time>
      </trkpt>
      <trkpt lat="45.9611" lon="3.8905">
        <ele>794</ele>
        <time>2024-12-08T05:32:10.620Z</time>
      </trkpt>
      <trkpt lat="45.96111" lon="3.8905">
        <ele>794</ele>
        <time>2024-12-08T05:32:11.619Z</time>
      </trkpt>
      <trkpt lat="45.96112" lon="3.89051">
        <ele>794</ele>
        <time>2024-12-08T05:32:12.620Z</time>
      </trkpt>
      <trkpt lat="45.96114" lon="3.89052">
        <ele>793</ele>
        <time>2024-12-08T05:32:13.619Z</time>
      </trkpt>
      <trkpt lat="45.96115" lon="3.89053">
        <ele>793</ele>
        <time>2024-12-08T05:32:14.619Z</time>
      </trkpt>
      <trkpt lat="45.96116" lon="3.89054">
        <ele>793</ele>
        <time>2024-12-08T05:32:15.620Z</time>
      </trkpt>
      <trkpt lat="45.96117" lon="3.89055">
        <ele>793</ele>
        <time>2024-12-08T05:32:16.619Z</time>
      </trkpt>
      <trkpt lat="45.96119" lon="3.89055">
        <ele>792</ele>
        <time>2024-12-08T05:32:17.619Z</time>
      </trkpt>
      <trkpt lat="45.96121" lon="3.89056">
        <ele>792</ele>
        <time>2024-12-08T05:32:18.619Z</time>
      </trkpt>
      <trkpt lat="45.96122" lon="3.89058">
        <ele>792</ele>
        <time>2024-12-08T05:32:19.619Z</time>
      </trkpt>
      <trkpt lat="45.96123" lon="3.89058">
        <ele>791</ele>
        <time>2024-12-08T05:32:20.619Z</time>
      </trkpt>
      <trkpt lat="45.96124" lon="3.89059">
        <ele>791</ele>
        <time>2024-12-08T05:32:21.620Z</time>
      </trkpt>
      <trkpt lat="45.96125" lon="3.89059">
        <ele>791</ele>
        <time>2024-12-08T05:32:22.620Z</time>
      </trkpt>
      <trkpt lat="45.96126" lon="3.89059">
        <ele>791</ele>
        <time>2024-12-08T05:32:23.620Z</time>
      </trkpt>
      <trkpt lat="45.96128" lon="3.8906">
        <ele>790</ele>
        <time>2024-12-08T05:32:24.619Z</time>
      </trkpt>
      <trkpt lat="45.96128" lon="3.8906">
        <ele>790</ele>
        <time>2024-12-08T05:32:25.620Z</time>
      </trkpt>
      <trkpt lat="45.9613" lon="3.89061">
        <ele>790</ele>
        <time>2024-12-08T05:32:26.619Z</time>
      </trkpt>
      <trkpt lat="45.96132" lon="3.89061">
        <ele>790</ele>
        <time>2024-12-08T05:32:27.620Z</time>
      </trkpt>
      <trkpt lat="45.96134" lon="3.89061">
        <ele>790</ele>
        <time>2024-12-08T05:32:28.619Z</time>
      </trkpt>
      <trkpt lat="45.96136" lon="3.89062">
        <ele>790</ele>
        <time>2024-12-08T05:32:29.620Z</time>
      </trkpt>
      <trkpt lat="45.96137" lon="3.89063">
        <ele>790</ele>
        <time>2024-12-08T05:32:30.619Z</time>
      </trkpt>
      <trkpt lat="45.96138" lon="3.89063">
        <ele>790</ele>
        <time>2024-12-08T05:32:31.620Z</time>
      </trkpt>
      <trkpt lat="45.9614" lon="3.89064">
        <ele>790</ele>
        <time>2024-12-08T05:32:32.619Z</time>
      </trkpt>
      <trkpt lat="45.96141" lon="3.89065">
        <ele>790</ele>
        <time>2024-12-08T05:32:33.620Z</time>
      </trkpt>
      <trkpt lat="45.96142" lon="3.89066">
        <ele>790</ele>
        <time>2024-12-08T05:32:34.620Z</time>
      </trkpt>
      <trkpt lat="45.96143" lon="3.89067">
        <ele>790</ele>
        <time>2024-12-08T05:32:35.620Z</time>
      </trkpt>
      <trkpt lat="45.96144" lon="3.89067">
        <ele>790</ele>
        <time>2024-12-08T05:32:36.620Z</time>
      </trkpt>
      <trkpt lat="45.96146" lon="3.89068">
        <ele>790</ele>
        <time>2024-12-08T05:32:37.619Z</time>
      </trkpt>
      <trkpt lat="45.96147" lon="3.89068">
        <ele>789</ele>
        <time>2024-12-08T05:32:38.620Z</time>
      </trkpt>
      <trkpt lat="45.96148" lon="3.89069">
        <ele>789</ele>
        <time>2024-12-08T05:32:39.619Z</time>
      </trkpt>
      <trkpt lat="45.9615" lon="3.89071">
        <ele>789</ele>
        <time>2024-12-08T05:32:40.620Z</time>
      </trkpt>
      <trkpt lat="45.96151" lon="3.89071">
        <ele>789</ele>
        <time>2024-12-08T05:32:41.619Z</time>
      </trkpt>
      <trkpt lat="45.96152" lon="3.89072">
        <ele>789</ele>
        <time>2024-12-08T05:32:42.619Z</time>
      </trkpt>
      <trkpt lat="45.96153" lon="3.89073">
        <ele>788</ele>
        <time>2024-12-08T05:32:43.619Z</time>
      </trkpt>
      <trkpt lat="45.96154" lon="3.89074">
        <ele>788</ele>
        <time>2024-12-08T05:32:44.619Z</time>
      </trkpt>
      <trkpt lat="45.96155" lon="3.89074">
        <ele>788</ele>
        <time>2024-12-08T05:32:45.619Z</time>
      </trkpt>
      <trkpt lat="45.96156" lon="3.89075">
        <ele>788</ele>
        <time>2024-12-08T05:32:46.619Z</time>
      </trkpt>
      <trkpt lat="45.96157" lon="3.89075">
        <ele>788</ele>
        <time>2024-12-08T05:32:47.619Z</time>
      </trkpt>
      <trkpt lat="45.96158" lon="3.89076">
        <ele>788</ele>
        <time>2024-12-08T05:32:48.620Z</time>
      </trkpt>
      <trkpt lat="45.96159" lon="3.89077">
        <ele>788</ele>
        <time>2024-12-08T05:32:49.620Z</time>
      </trkpt>
      <trkpt lat="45.96161" lon="3.89077">
        <ele>788</ele>
        <time>2024-12-08T05:32:50.619Z</time>
      </trkpt>
      <trkpt lat="45.96162" lon="3.89078">
        <ele>788</ele>
        <time>2024-12-08T05:32:51.620Z</time>
      </trkpt>
      <trkpt lat="45.96163" lon="3.89079">
        <ele>788</ele>
        <time>2024-12-08T05:32:52.620Z</time>
      </trkpt>
      <trkpt lat="45.96165" lon="3.8908">
        <ele>788</ele>
        <time>2024-12-08T05:32:53.620Z</time>
      </trkpt>
      <trkpt lat="45.96166" lon="3.89081">
        <ele>788</ele>
        <time>2024-12-08T05:32:54.619Z</time>
      </trkpt>
      <trkpt lat="45.96167" lon="3.89082">
        <ele>788</ele>
        <time>2024-12-08T05:32:55.619Z</time>
      </trkpt>
      <trkpt lat="45.96168" lon="3.89084">
        <ele>788</ele>
        <time>2024-12-08T05:32:56.619Z</time>
      </trkpt>
      <trkpt lat="45.96169" lon="3.89084">
        <ele>788</ele>
        <time>2024-12-08T05:32:57.620Z</time>
      </trkpt>
      <trkpt lat="45.9617" lon="3.89085">
        <ele>787</ele>
        <time>2024-12-08T05:32:58.620Z</time>
      </trkpt>
      <trkpt lat="45.96171" lon="3.89085">
        <ele>787</ele>
        <time>2024-12-08T05:32:59.620Z</time>
      </trkpt>
      <trkpt lat="45.96172" lon="3.89085">
        <ele>787</ele>
        <time>2024-12-08T05:33:00.620Z</time>
      </trkpt>
      <trkpt lat="45.96174" lon="3.89085">
        <ele>786</ele>
        <time>2024-12-08T05:33:01.620Z</time>
      </trkpt>
      <trkpt lat="45.96175" lon="3.89086">
        <ele>786</ele>
        <time>2024-12-08T05:33:02.620Z</time>
      </trkpt>
      <trkpt lat="45.96176" lon="3.89086">
        <ele>785</ele>
        <time>2024-12-08T05:33:03.619Z</time>
      </trkpt>
      <trkpt lat="45.96177" lon="3.89087">
        <ele>785</ele>
        <time>2024-12-08T05:33:04.620Z</time>
      </trkpt>
      <trkpt lat="45.96178" lon="3.89088">
        <ele>785</ele>
        <time>2024-12-08T05:33:05.619Z</time>
      </trkpt>
      <trkpt lat="45.96179" lon="3.89088">
        <ele>784</ele>
        <time>2024-12-08T05:33:06.619Z</time>
      </trkpt>
      <trkpt lat="45.9618" lon="3.89088">
        <ele>784</ele>
        <time>2024-12-08T05:33:07.620Z</time>
      </trkpt>
      <trkpt lat="45.96182" lon="3.89089">
        <ele>784</ele>
        <time>2024-12-08T05:33:08.620Z</time>
      </trkpt>
      <trkpt lat="45.96183" lon="3.8909">
        <ele>784</ele>
        <time>2024-12-08T05:33:09.620Z</time>
      </trkpt>
      <trkpt lat="45.96184" lon="3.89091">
        <ele>783</ele>
        <time>2024-12-08T05:33:10.619Z</time>
      </trkpt>
      <trkpt lat="45.96185" lon="3.89091">
        <ele>783</ele>
        <time>2024-12-08T05:33:11.620Z</time>
      </trkpt>
      <trkpt lat="45.96187" lon="3.89091">
        <ele>783</ele>
        <time>2024-12-08T05:33:12.619Z</time>
      </trkpt>
      <trkpt lat="45.96188" lon="3.89092">
        <ele>783</ele>
        <time>2024-12-08T05:33:13.620Z</time>
      </trkpt>
      <trkpt lat="45.9619" lon="3.89092">
        <ele>782</ele>
        <time>2024-12-08T05:33:14.619Z</time>
      </trkpt>
      <trkpt lat="45.96191" lon="3.89092">
        <ele>782</ele>
        <time>2024-12-08T05:33:15.620Z</time>
      </trkpt>
      <trkpt lat="45.96193" lon="3.89093">
        <ele>782</ele>
        <time>2024-12-08T05:33:16.619Z</time>
      </trkpt>
      <trkpt lat="45.96195" lon="3.89094">
        <ele>782</ele>
        <time>2024-12-08T05:33:17.619Z</time>
      </trkpt>
      <trkpt lat="45.96196" lon="3.89095">
        <ele>782</ele>
        <time>2024-12-08T05:33:18.619Z</time>
      </trkpt>
      <trkpt lat="45.96198" lon="3.89095">
        <ele>781</ele>
        <time>2024-12-08T05:33:19.620Z</time>
      </trkpt>
      <trkpt lat="45.96199" lon="3.89096">
        <ele>781</ele>
        <time>2024-12-08T05:33:20.619Z</time>
      </trkpt>
      <trkpt lat="45.962" lon="3.89097">
        <ele>782</ele>
        <time>2024-12-08T05:33:21.619Z</time>
      </trkpt>
      <trkpt lat="45.96202" lon="3.89099">
        <ele>782</ele>
        <time>2024-12-08T05:33:22.620Z</time>
      </trkpt>
      <trkpt lat="45.96203" lon="3.891">
        <ele>781</ele>
        <time>2024-12-08T05:33:23.620Z</time>
      </trkpt>
      <trkpt lat="45.96204" lon="3.89101">
        <ele>781</ele>
        <time>2024-12-08T05:33:24.620Z</time>
      </trkpt>
      <trkpt lat="45.96206" lon="3.89102">
        <ele>781</ele>
        <time>2024-12-08T05:33:25.619Z</time>
      </trkpt>
      <trkpt lat="45.96207" lon="3.89103">
        <ele>780</ele>
        <time>2024-12-08T05:33:26.619Z</time>
      </trkpt>
      <trkpt lat="45.96209" lon="3.89104">
        <ele>780</ele>
        <time>2024-12-08T05:33:27.619Z</time>
      </trkpt>
      <trkpt lat="45.9621" lon="3.89104">
        <ele>780</ele>
        <time>2024-12-08T05:33:28.619Z</time>
      </trkpt>
      <trkpt lat="45.96211" lon="3.89105">
        <ele>780</ele>
        <time>2024-12-08T05:33:29.620Z</time>
      </trkpt>
      <trkpt lat="45.96212" lon="3.89106">
        <ele>780</ele>
        <time>2024-12-08T05:33:30.620Z</time>
      </trkpt>
      <trkpt lat="45.96214" lon="3.89107">
        <ele>780</ele>
        <time>2024-12-08T05:33:31.619Z</time>
      </trkpt>
      <trkpt lat="45.96215" lon="3.89108">
        <ele>780</ele>
        <time>2024-12-08T05:33:32.620Z</time>
      </trkpt>
      <trkpt lat="45.96216" lon="3.89109">
        <ele>780</ele>
        <time>2024-12-08T05:33:33.619Z</time>
      </trkpt>
      <trkpt lat="45.96217" lon="3.8911">
        <ele>780</ele>
        <time>2024-12-08T05:33:34.619Z</time>
      </trkpt>
      <trkpt lat="45.96218" lon="3.89111">
        <ele>780</ele>
        <time>2024-12-08T05:33:35.619Z</time>
      </trkpt>
      <trkpt lat="45.9622" lon="3.89111">
        <ele>780</ele>
        <time>2024-12-08T05:33:36.620Z</time>
      </trkpt>
      <trkpt lat="45.96221" lon="3.89112">
        <ele>780</ele>
        <time>2024-12-08T05:33:37.620Z</time>
      </trkpt>
      <trkpt lat="45.96221" lon="3.89111">
        <ele>781</ele>
        <time>2024-12-08T05:33:38.620Z</time>
      </trkpt>
      <trkpt lat="45.96223" lon="3.89111">
        <ele>781</ele>
        <time>2024-12-08T05:33:39.619Z</time>
      </trkpt>
      <trkpt lat="45.96223" lon="3.89111">
        <ele>781</ele>
        <time>2024-12-08T05:33:40.620Z</time>
      </trkpt>
      <trkpt lat="45.96224" lon="3.89111">
        <ele>780</ele>
        <time>2024-12-08T05:33:41.620Z</time>
      </trkpt>
      <trkpt lat="45.96225" lon="3.89112">
        <ele>780</ele>
        <time>2024-12-08T05:33:42.619Z</time>
      </trkpt>
      <trkpt lat="45.96226" lon="3.89112">
        <ele>780</ele>
        <time>2024-12-08T05:33:43.619Z</time>
      </trkpt>
      <trkpt lat="45.96227" lon="3.89112">
        <ele>780</ele>
        <time>2024-12-08T05:33:44.620Z</time>
      </trkpt>
      <trkpt lat="45.96228" lon="3.89112">
        <ele>780</ele>
        <time>2024-12-08T05:33:45.619Z</time>
      </trkpt>
      <trkpt lat="45.96229" lon="3.89112">
        <ele>780</ele>
        <time>2024-12-08T05:33:46.619Z</time>
      </trkpt>
      <trkpt lat="45.9623" lon="3.89112">
        <ele>779</ele>
        <time>2024-12-08T05:33:47.620Z</time>
      </trkpt>
      <trkpt lat="45.9623" lon="3.89112">
        <ele>779</ele>
        <time>2024-12-08T05:33:48.619Z</time>
      </trkpt>
      <trkpt lat="45.9623" lon="3.89112">
        <ele>780</ele>
        <time>2024-12-08T05:33:49.620Z</time>
      </trkpt>
      <trkpt lat="45.9623" lon="3.89113">
        <ele>780</ele>
        <time>2024-12-08T05:33:50.620Z</time>
      </trkpt>
      <trkpt lat="45.96231" lon="3.89113">
        <ele>779</ele>
        <time>2024-12-08T05:33:51.620Z</time>
      </trkpt>
      <trkpt lat="45.96232" lon="3.89114">
        <ele>779</ele>
        <time>2024-12-08T05:33:52.619Z</time>
      </trkpt>
      <trkpt lat="45.96233" lon="3.89115">
        <ele>779</ele>
        <time>2024-12-08T05:33:53.620Z</time>
      </trkpt>
      <trkpt lat="45.96234" lon="3.89116">
        <ele>779</ele>
        <time>2024-12-08T05:33:54.619Z</time>
      </trkpt>
      <trkpt lat="45.96235" lon="3.89117">
        <ele>779</ele>
        <time>2024-12-08T05:33:55.620Z</time>
      </trkpt>
      <trkpt lat="45.96236" lon="3.89118">
        <ele>778</ele>
        <time>2024-12-08T05:33:56.619Z</time>
      </trkpt>
      <trkpt lat="45.96237" lon="3.89119">
        <ele>778</ele>
        <time>2024-12-08T05:33:57.620Z</time>
      </trkpt>
      <trkpt lat="45.96238" lon="3.89121">
        <ele>778</ele>
        <time>2024-12-08T05:33:58.619Z</time>
      </trkpt>
      <trkpt lat="45.9624" lon="3.89122">
        <ele>778</ele>
        <time>2024-12-08T05:33:59.620Z</time>
      </trkpt>
      <trkpt lat="45.96241" lon="3.89123">
        <ele>778</ele>
        <time>2024-12-08T05:34:00.620Z</time>
      </trkpt>
      <trkpt lat="45.96242" lon="3.89124">
        <ele>778</ele>
        <time>2024-12-08T05:34:01.619Z</time>
      </trkpt>
      <trkpt lat="45.96243" lon="3.89125">
        <ele>778</ele>
        <time>2024-12-08T05:34:02.619Z</time>
      </trkpt>
      <trkpt lat="45.96245" lon="3.89126">
        <ele>778</ele>
        <time>2024-12-08T05:34:03.619Z</time>
      </trkpt>
      <trkpt lat="45.96246" lon="3.89128">
        <ele>778</ele>
        <time>2024-12-08T05:34:04.620Z</time>
      </trkpt>
      <trkpt lat="45.96247" lon="3.89129">
        <ele>777</ele>
        <time>2024-12-08T05:34:05.620Z</time>
      </trkpt>
      <trkpt lat="45.96248" lon="3.8913">
        <ele>776</ele>
        <time>2024-12-08T05:34:06.619Z</time>
      </trkpt>
      <trkpt lat="45.96249" lon="3.89131">
        <ele>776</ele>
        <time>2024-12-08T05:34:07.619Z</time>
      </trkpt>
      <trkpt lat="45.96249" lon="3.89133">
        <ele>775</ele>
        <time>2024-12-08T05:34:08.620Z</time>
      </trkpt>
      <trkpt lat="45.9625" lon="3.89134">
        <ele>775</ele>
        <time>2024-12-08T05:34:09.620Z</time>
      </trkpt>
      <trkpt lat="45.96251" lon="3.89136">
        <ele>775</ele>
        <time>2024-12-08T05:34:10.619Z</time>
      </trkpt>
      <trkpt lat="45.96252" lon="3.89137">
        <ele>775</ele>
        <time>2024-12-08T05:34:11.620Z</time>
      </trkpt>
      <trkpt lat="45.96253" lon="3.89139">
        <ele>774</ele>
        <time>2024-12-08T05:34:12.619Z</time>
      </trkpt>
      <trkpt lat="45.96253" lon="3.8914">
        <ele>774</ele>
        <time>2024-12-08T05:34:13.619Z</time>
      </trkpt>
      <trkpt lat="45.96254" lon="3.89142">
        <ele>774</ele>
        <time>2024-12-08T05:34:14.620Z</time>
      </trkpt>
      <trkpt lat="45.96255" lon="3.89143">
        <ele>774</ele>
        <time>2024-12-08T05:34:15.619Z</time>
      </trkpt>
      <trkpt lat="45.96256" lon="3.89145">
        <ele>774</ele>
        <time>2024-12-08T05:34:16.620Z</time>
      </trkpt>
      <trkpt lat="45.96256" lon="3.89147">
        <ele>774</ele>
        <time>2024-12-08T05:34:17.620Z</time>
      </trkpt>
      <trkpt lat="45.96256" lon="3.89148">
        <ele>773</ele>
        <time>2024-12-08T05:34:18.619Z</time>
      </trkpt>
      <trkpt lat="45.96257" lon="3.8915">
        <ele>773</ele>
        <time>2024-12-08T05:34:19.620Z</time>
      </trkpt>
      <trkpt lat="45.96257" lon="3.89152">
        <ele>773</ele>
        <time>2024-12-08T05:34:20.619Z</time>
      </trkpt>
      <trkpt lat="45.96258" lon="3.89154">
        <ele>772</ele>
        <time>2024-12-08T05:34:21.620Z</time>
      </trkpt>
      <trkpt lat="45.96258" lon="3.89156">
        <ele>772</ele>
        <time>2024-12-08T05:34:22.619Z</time>
      </trkpt>
      <trkpt lat="45.96259" lon="3.89157">
        <ele>772</ele>
        <time>2024-12-08T05:34:23.620Z</time>
      </trkpt>
      <trkpt lat="45.96259" lon="3.89159">
        <ele>772</ele>
        <time>2024-12-08T05:34:24.620Z</time>
      </trkpt>
      <trkpt lat="45.96259" lon="3.89161">
        <ele>772</ele>
        <time>2024-12-08T05:34:25.619Z</time>
      </trkpt>
      <trkpt lat="45.9626" lon="3.89162">
        <ele>771</ele>
        <time>2024-12-08T05:34:26.620Z</time>
      </trkpt>
      <trkpt lat="45.9626" lon="3.89163">
        <ele>771</ele>
        <time>2024-12-08T05:34:27.619Z</time>
      </trkpt>
      <trkpt lat="45.96261" lon="3.89165">
        <ele>771</ele>
        <time>2024-12-08T05:34:28.620Z</time>
      </trkpt>
      <trkpt lat="45.96261" lon="3.89167">
        <ele>771</ele>
        <time>2024-12-08T05:34:29.619Z</time>
      </trkpt>
      <trkpt lat="45.96262" lon="3.89169">
        <ele>771</ele>
        <time>2024-12-08T05:34:30.620Z</time>
      </trkpt>
      <trkpt lat="45.96262" lon="3.89171">
        <ele>770</ele>
        <time>2024-12-08T05:34:31.619Z</time>
      </trkpt>
      <trkpt lat="45.96263" lon="3.89172">
        <ele>770</ele>
        <time>2024-12-08T05:34:32.620Z</time>
      </trkpt>
      <trkpt lat="45.96263" lon="3.89174">
        <ele>769</ele>
        <time>2024-12-08T05:34:33.620Z</time>
      </trkpt>
      <trkpt lat="45.96263" lon="3.89176">
        <ele>769</ele>
        <time>2024-12-08T05:34:34.619Z</time>
      </trkpt>
      <trkpt lat="45.96264" lon="3.89178">
        <ele>769</ele>
        <time>2024-12-08T05:34:35.620Z</time>
      </trkpt>
      <trkpt lat="45.96265" lon="3.8918">
        <ele>769</ele>
        <time>2024-12-08T05:34:36.620Z</time>
      </trkpt>
      <trkpt lat="45.96265" lon="3.89182">
        <ele>769</ele>
        <time>2024-12-08T05:34:37.619Z</time>
      </trkpt>
      <trkpt lat="45.96266" lon="3.89184">
        <ele>769</ele>
        <time>2024-12-08T05:34:38.620Z</time>
      </trkpt>
      <trkpt lat="45.96266" lon="3.89185">
        <ele>769</ele>
        <time>2024-12-08T05:34:39.619Z</time>
      </trkpt>
      <trkpt lat="45.96267" lon="3.89187">
        <ele>769</ele>
        <time>2024-12-08T05:34:40.619Z</time>
      </trkpt>
      <trkpt lat="45.96267" lon="3.89188">
        <ele>769</ele>
        <time>2024-12-08T05:34:41.619Z</time>
      </trkpt>
      <trkpt lat="45.96268" lon="3.8919">
        <ele>769</ele>
        <time>2024-12-08T05:34:42.619Z</time>
      </trkpt>
      <trkpt lat="45.96269" lon="3.89192">
        <ele>769</ele>
        <time>2024-12-08T05:34:43.620Z</time>
      </trkpt>
      <trkpt lat="45.96269" lon="3.89194">
        <ele>769</ele>
        <time>2024-12-08T05:34:44.619Z</time>
      </trkpt>
      <trkpt lat="45.9627" lon="3.89195">
        <ele>769</ele>
        <time>2024-12-08T05:34:45.619Z</time>
      </trkpt>
      <trkpt lat="45.96271" lon="3.89196">
        <ele>769</ele>
        <time>2024-12-08T05:34:46.619Z</time>
      </trkpt>
      <trkpt lat="45.96272" lon="3.89198">
        <ele>770</ele>
        <time>2024-12-08T05:34:47.620Z</time>
      </trkpt>
      <trkpt lat="45.96273" lon="3.89201">
        <ele>770</ele>
        <time>2024-12-08T05:34:48.619Z</time>
      </trkpt>
      <trkpt lat="45.96273" lon="3.89203">
        <ele>770</ele>
        <time>2024-12-08T05:34:49.619Z</time>
      </trkpt>
      <trkpt lat="45.96273" lon="3.89205">
        <ele>770</ele>
        <time>2024-12-08T05:34:50.620Z</time>
      </trkpt>
      <trkpt lat="45.96273" lon="3.89207">
        <ele>770</ele>
        <time>2024-12-08T05:34:51.620Z</time>
      </trkpt>
      <trkpt lat="45.96273" lon="3.89209">
        <ele>770</ele>
        <time>2024-12-08T05:34:52.619Z</time>
      </trkpt>
      <trkpt lat="45.96274" lon="3.89211">
        <ele>770</ele>
        <time>2024-12-08T05:34:53.619Z</time>
      </trkpt>
      <trkpt lat="45.96274" lon="3.89212">
        <ele>770</ele>
        <time>2024-12-08T05:34:54.619Z</time>
      </trkpt>
      <trkpt lat="45.96275" lon="3.89214">
        <ele>770</ele>
        <time>2024-12-08T05:34:55.620Z</time>
      </trkpt>
      <trkpt lat="45.96275" lon="3.89217">
        <ele>770</ele>
        <time>2024-12-08T05:34:56.620Z</time>
      </trkpt>
      <trkpt lat="45.96275" lon="3.89219">
        <ele>770</ele>
        <time>2024-12-08T05:34:57.619Z</time>
      </trkpt>
      <trkpt lat="45.96276" lon="3.89221">
        <ele>770</ele>
        <time>2024-12-08T05:34:58.619Z</time>
      </trkpt>
      <trkpt lat="45.96277" lon="3.89223">
        <ele>771</ele>
        <time>2024-12-08T05:34:59.620Z</time>
      </trkpt>
      <trkpt lat="45.96278" lon="3.89225">
        <ele>771</ele>
        <time>2024-12-08T05:35:00.620Z</time>
      </trkpt>
      <trkpt lat="45.96278" lon="3.89227">
        <ele>771</ele>
        <time>2024-12-08T05:35:01.620Z</time>
      </trkpt>
      <trkpt lat="45.96277" lon="3.89229">
        <ele>771</ele>
        <time>2024-12-08T05:35:02.619Z</time>
      </trkpt>
      <trkpt lat="45.96278" lon="3.89231">
        <ele>771</ele>
        <time>2024-12-08T05:35:03.620Z</time>
      </trkpt>
      <trkpt lat="45.96278" lon="3.89232">
        <ele>771</ele>
        <time>2024-12-08T05:35:04.620Z</time>
      </trkpt>
      <trkpt lat="45.96278" lon="3.89233">
        <ele>772</ele>
        <time>2024-12-08T05:35:05.619Z</time>
      </trkpt>
      <trkpt lat="45.96279" lon="3.89235">
        <ele>772</ele>
        <time>2024-12-08T05:35:06.620Z</time>
      </trkpt>
      <trkpt lat="45.9628" lon="3.89237">
        <ele>772</ele>
        <time>2024-12-08T05:35:07.620Z</time>
      </trkpt>
      <trkpt lat="45.96281" lon="3.89239">
        <ele>773</ele>
        <time>2024-12-08T05:35:08.620Z</time>
      </trkpt>
      <trkpt lat="45.96282" lon="3.89241">
        <ele>774</ele>
        <time>2024-12-08T05:35:09.620Z</time>
      </trkpt>
      <trkpt lat="45.96284" lon="3.89244">
        <ele>774</ele>
        <time>2024-12-08T05:35:10.619Z</time>
      </trkpt>
      <trkpt lat="45.96284" lon="3.89246">
        <ele>774</ele>
        <time>2024-12-08T05:35:11.620Z</time>
      </trkpt>
      <trkpt lat="45.96284" lon="3.89248">
        <ele>774</ele>
        <time>2024-12-08T05:35:12.620Z</time>
      </trkpt>
      <trkpt lat="45.96285" lon="3.8925">
        <ele>774</ele>
        <time>2024-12-08T05:35:13.620Z</time>
      </trkpt>
      <trkpt lat="45.96285" lon="3.89253">
        <ele>774</ele>
        <time>2024-12-08T05:35:14.620Z</time>
      </trkpt>
      <trkpt lat="45.96285" lon="3.89255">
        <ele>774</ele>
        <time>2024-12-08T05:35:15.619Z</time>
      </trkpt>
      <trkpt lat="45.96286" lon="3.89257">
        <ele>773</ele>
        <time>2024-12-08T05:35:16.620Z</time>
      </trkpt>
      <trkpt lat="45.96287" lon="3.89259">
        <ele>773</ele>
        <time>2024-12-08T05:35:17.619Z</time>
      </trkpt>
      <trkpt lat="45.96288" lon="3.89262">
        <ele>773</ele>
        <time>2024-12-08T05:35:18.620Z</time>
      </trkpt>
      <trkpt lat="45.96289" lon="3.89264">
        <ele>772</ele>
        <time>2024-12-08T05:35:19.619Z</time>
      </trkpt>
      <trkpt lat="45.96291" lon="3.89267">
        <ele>772</ele>
        <time>2024-12-08T05:35:20.619Z</time>
      </trkpt>
      <trkpt lat="45.96291" lon="3.89269">
        <ele>772</ele>
        <time>2024-12-08T05:35:21.619Z</time>
      </trkpt>
      <trkpt lat="45.96291" lon="3.89272">
        <ele>771</ele>
        <time>2024-12-08T05:35:22.620Z</time>
      </trkpt>
      <trkpt lat="45.96292" lon="3.89274">
        <ele>771</ele>
        <time>2024-12-08T05:35:23.619Z</time>
      </trkpt>
      <trkpt lat="45.96292" lon="3.89276">
        <ele>770</ele>
        <time>2024-12-08T05:35:24.620Z</time>
      </trkpt>
      <trkpt lat="45.96293" lon="3.89279">
        <ele>770</ele>
        <time>2024-12-08T05:35:25.620Z</time>
      </trkpt>
      <trkpt lat="45.96294" lon="3.89281">
        <ele>770</ele>
        <time>2024-12-08T05:35:26.619Z</time>
      </trkpt>
      <trkpt lat="45.96295" lon="3.89283">
        <ele>770</ele>
        <time>2024-12-08T05:35:27.619Z</time>
      </trkpt>
      <trkpt lat="45.96295" lon="3.89286">
        <ele>769</ele>
        <time>2024-12-08T05:35:28.619Z</time>
      </trkpt>
      <trkpt lat="45.96296" lon="3.89288">
        <ele>769</ele>
        <time>2024-12-08T05:35:29.619Z</time>
      </trkpt>
      <trkpt lat="45.96296" lon="3.8929">
        <ele>769</ele>
        <time>2024-12-08T05:35:30.619Z</time>
      </trkpt>
      <trkpt lat="45.96297" lon="3.89292">
        <ele>769</ele>
        <time>2024-12-08T05:35:31.619Z</time>
      </trkpt>
      <trkpt lat="45.96297" lon="3.89294">
        <ele>769</ele>
        <time>2024-12-08T05:35:32.620Z</time>
      </trkpt>
      <trkpt lat="45.96298" lon="3.89297">
        <ele>768</ele>
        <time>2024-12-08T05:35:33.620Z</time>
      </trkpt>
      <trkpt lat="45.96298" lon="3.89299">
        <ele>768</ele>
        <time>2024-12-08T05:35:34.619Z</time>
      </trkpt>
      <trkpt lat="45.96298" lon="3.89302">
        <ele>767</ele>
        <time>2024-12-08T05:35:35.619Z</time>
      </trkpt>
      <trkpt lat="45.96298" lon="3.89304">
        <ele>766</ele>
        <time>2024-12-08T05:35:36.619Z</time>
      </trkpt>
      <trkpt lat="45.96299" lon="3.89307">
        <ele>765</ele>
        <time>2024-12-08T05:35:37.620Z</time>
      </trkpt>
      <trkpt lat="45.96298" lon="3.8931">
        <ele>765</ele>
        <time>2024-12-08T05:35:38.619Z</time>
      </trkpt>
      <trkpt lat="45.96298" lon="3.89313">
        <ele>764</ele>
        <time>2024-12-08T05:35:39.620Z</time>
      </trkpt>
      <trkpt lat="45.963" lon="3.89315">
        <ele>763</ele>
        <time>2024-12-08T05:35:40.619Z</time>
      </trkpt>
      <trkpt lat="45.963" lon="3.89317">
        <ele>762</ele>
        <time>2024-12-08T05:35:41.619Z</time>
      </trkpt>
      <trkpt lat="45.963" lon="3.8932">
        <ele>762</ele>
        <time>2024-12-08T05:35:42.619Z</time>
      </trkpt>
      <trkpt lat="45.96301" lon="3.89321">
        <ele>761</ele>
        <time>2024-12-08T05:35:43.620Z</time>
      </trkpt>
      <trkpt lat="45.96302" lon="3.89323">
        <ele>761</ele>
        <time>2024-12-08T05:35:44.619Z</time>
      </trkpt>
      <trkpt lat="45.96303" lon="3.89325">
        <ele>760</ele>
        <time>2024-12-08T05:35:45.619Z</time>
      </trkpt>
      <trkpt lat="45.96304" lon="3.89327">
        <ele>760</ele>
        <time>2024-12-08T05:35:46.620Z</time>
      </trkpt>
      <trkpt lat="45.96305" lon="3.89329">
        <ele>760</ele>
        <time>2024-12-08T05:35:47.619Z</time>
      </trkpt>
      <trkpt lat="45.96306" lon="3.89331">
        <ele>760</ele>
        <time>2024-12-08T05:35:48.620Z</time>
      </trkpt>
      <trkpt lat="45.96306" lon="3.89333">
        <ele>760</ele>
        <time>2024-12-08T05:35:49.619Z</time>
      </trkpt>
      <trkpt lat="45.96307" lon="3.89335">
        <ele>759</ele>
        <time>2024-12-08T05:35:50.620Z</time>
      </trkpt>
      <trkpt lat="45.96307" lon="3.89337">
        <ele>759</ele>
        <time>2024-12-08T05:35:51.620Z</time>
      </trkpt>
      <trkpt lat="45.96308" lon="3.89339">
        <ele>759</ele>
        <time>2024-12-08T05:35:52.619Z</time>
      </trkpt>
      <trkpt lat="45.96308" lon="3.89341">
        <ele>759</ele>
        <time>2024-12-08T05:35:53.620Z</time>
      </trkpt>
      <trkpt lat="45.96309" lon="3.89343">
        <ele>759</ele>
        <time>2024-12-08T05:35:54.620Z</time>
      </trkpt>
      <trkpt lat="45.9631" lon="3.89346">
        <ele>759</ele>
        <time>2024-12-08T05:35:55.619Z</time>
      </trkpt>
      <trkpt lat="45.9631" lon="3.89349">
        <ele>758</ele>
        <time>2024-12-08T05:35:56.619Z</time>
      </trkpt>
      <trkpt lat="45.9631" lon="3.89351">
        <ele>758</ele>
        <time>2024-12-08T05:35:57.620Z</time>
      </trkpt>
      <trkpt lat="45.9631" lon="3.89353">
        <ele>758</ele>
        <time>2024-12-08T05:35:58.620Z</time>
      </trkpt>
      <trkpt lat="45.9631" lon="3.89355">
        <ele>757</ele>
        <time>2024-12-08T05:35:59.619Z</time>
      </trkpt>
      <trkpt lat="45.96311" lon="3.89357">
        <ele>757</ele>
        <time>2024-12-08T05:36:00.620Z</time>
      </trkpt>
      <trkpt lat="45.96311" lon="3.89359">
        <ele>756</ele>
        <time>2024-12-08T05:36:01.619Z</time>
      </trkpt>
      <trkpt lat="45.96311" lon="3.89361">
        <ele>756</ele>
        <time>2024-12-08T05:36:02.619Z</time>
      </trkpt>
      <trkpt lat="45.96311" lon="3.89363">
        <ele>755</ele>
        <time>2024-12-08T05:36:03.619Z</time>
      </trkpt>
      <trkpt lat="45.96311" lon="3.89365">
        <ele>755</ele>
        <time>2024-12-08T05:36:04.620Z</time>
      </trkpt>
      <trkpt lat="45.96312" lon="3.89367">
        <ele>755</ele>
        <time>2024-12-08T05:36:05.619Z</time>
      </trkpt>
      <trkpt lat="45.96312" lon="3.89369">
        <ele>755</ele>
        <time>2024-12-08T05:36:06.620Z</time>
      </trkpt>
      <trkpt lat="45.96312" lon="3.89371">
        <ele>755</ele>
        <time>2024-12-08T05:36:07.619Z</time>
      </trkpt>
      <trkpt lat="45.96313" lon="3.89373">
        <ele>755</ele>
        <time>2024-12-08T05:36:08.620Z</time>
      </trkpt>
      <trkpt lat="45.96313" lon="3.89376">
        <ele>755</ele>
        <time>2024-12-08T05:36:09.619Z</time>
      </trkpt>
      <trkpt lat="45.96313" lon="3.89378">
        <ele>755</ele>
        <time>2024-12-08T05:36:10.620Z</time>
      </trkpt>
      <trkpt lat="45.96313" lon="3.8938">
        <ele>755</ele>
        <time>2024-12-08T05:36:11.619Z</time>
      </trkpt>
      <trkpt lat="45.96313" lon="3.89381">
        <ele>754</ele>
        <time>2024-12-08T05:36:12.620Z</time>
      </trkpt>
      <trkpt lat="45.96313" lon="3.89384">
        <ele>754</ele>
        <time>2024-12-08T05:36:13.620Z</time>
      </trkpt>
      <trkpt lat="45.96314" lon="3.89386">
        <ele>753</ele>
        <time>2024-12-08T05:36:14.620Z</time>
      </trkpt>
      <trkpt lat="45.96314" lon="3.89388">
        <ele>753</ele>
        <time>2024-12-08T05:36:15.619Z</time>
      </trkpt>
      <trkpt lat="45.96315" lon="3.8939">
        <ele>753</ele>
        <time>2024-12-08T05:36:16.619Z</time>
      </trkpt>
      <trkpt lat="45.96315" lon="3.89392">
        <ele>753</ele>
        <time>2024-12-08T05:36:17.619Z</time>
      </trkpt>
      <trkpt lat="45.96316" lon="3.89394">
        <ele>753</ele>
        <time>2024-12-08T05:36:18.620Z</time>
      </trkpt>
      <trkpt lat="45.96316" lon="3.89397">
        <ele>753</ele>
        <time>2024-12-08T05:36:19.620Z</time>
      </trkpt>
      <trkpt lat="45.96317" lon="3.89399">
        <ele>753</ele>
        <time>2024-12-08T05:36:20.620Z</time>
      </trkpt>
      <trkpt lat="45.96317" lon="3.89401">
        <ele>753</ele>
        <time>2024-12-08T05:36:21.619Z</time>
      </trkpt>
      <trkpt lat="45.96318" lon="3.89402">
        <ele>752</ele>
        <time>2024-12-08T05:36:22.620Z</time>
      </trkpt>
      <trkpt lat="45.96318" lon="3.89404">
        <ele>752</ele>
        <time>2024-12-08T05:36:23.620Z</time>
      </trkpt>
      <trkpt lat="45.96318" lon="3.89406">
        <ele>752</ele>
        <time>2024-12-08T05:36:24.620Z</time>
      </trkpt>
      <trkpt lat="45.96318" lon="3.89408">
        <ele>752</ele>
        <time>2024-12-08T05:36:25.619Z</time>
      </trkpt>
      <trkpt lat="45.96319" lon="3.8941">
        <ele>751</ele>
        <time>2024-12-08T05:36:26.619Z</time>
      </trkpt>
      <trkpt lat="45.96319" lon="3.89413">
        <ele>751</ele>
        <time>2024-12-08T05:36:27.620Z</time>
      </trkpt>
      <trkpt lat="45.96319" lon="3.89415">
        <ele>751</ele>
        <time>2024-12-08T05:36:28.619Z</time>
      </trkpt>
      <trkpt lat="45.96319" lon="3.89417">
        <ele>751</ele>
        <time>2024-12-08T05:36:29.619Z</time>
      </trkpt>
      <trkpt lat="45.9632" lon="3.89419">
        <ele>751</ele>
        <time>2024-12-08T05:36:30.620Z</time>
      </trkpt>
      <trkpt lat="45.9632" lon="3.89422">
        <ele>751</ele>
        <time>2024-12-08T05:36:31.619Z</time>
      </trkpt>
      <trkpt lat="45.9632" lon="3.89424">
        <ele>751</ele>
        <time>2024-12-08T05:36:32.619Z</time>
      </trkpt>
      <trkpt lat="45.9632" lon="3.89427">
        <ele>751</ele>
        <time>2024-12-08T05:36:33.619Z</time>
      </trkpt>
      <trkpt lat="45.9632" lon="3.8943">
        <ele>750</ele>
        <time>2024-12-08T05:36:34.619Z</time>
      </trkpt>
      <trkpt lat="45.9632" lon="3.89432">
        <ele>750</ele>
        <time>2024-12-08T05:36:35.619Z</time>
      </trkpt>
      <trkpt lat="45.9632" lon="3.89434">
        <ele>750</ele>
        <time>2024-12-08T05:36:36.620Z</time>
      </trkpt>
      <trkpt lat="45.9632" lon="3.89435">
        <ele>750</ele>
        <time>2024-12-08T05:36:37.620Z</time>
      </trkpt>
      <trkpt lat="45.96319" lon="3.89436">
        <ele>750</ele>
        <time>2024-12-08T05:36:38.620Z</time>
      </trkpt>
      <trkpt lat="45.96319" lon="3.89436">
        <ele>750</ele>
        <time>2024-12-08T05:36:39.619Z</time>
      </trkpt>
      <trkpt lat="45.96319" lon="3.89437">
        <ele>750</ele>
        <time>2024-12-08T05:36:40.619Z</time>
      </trkpt>
      <trkpt lat="45.9632" lon="3.89439">
        <ele>749</ele>
        <time>2024-12-08T05:36:41.620Z</time>
      </trkpt>
      <trkpt lat="45.9632" lon="3.89441">
        <ele>749</ele>
        <time>2024-12-08T05:36:42.619Z</time>
      </trkpt>
      <trkpt lat="45.96321" lon="3.89443">
        <ele>748</ele>
        <time>2024-12-08T05:36:43.620Z</time>
      </trkpt>
      <trkpt lat="45.96321" lon="3.89445">
        <ele>748</ele>
        <time>2024-12-08T05:36:44.620Z</time>
      </trkpt>
      <trkpt lat="45.96322" lon="3.89448">
        <ele>748</ele>
        <time>2024-12-08T05:36:45.620Z</time>
      </trkpt>
      <trkpt lat="45.96322" lon="3.89451">
        <ele>747</ele>
        <time>2024-12-08T05:36:46.619Z</time>
      </trkpt>
      <trkpt lat="45.96323" lon="3.89453">
        <ele>747</ele>
        <time>2024-12-08T05:36:47.619Z</time>
      </trkpt>
      <trkpt lat="45.96323" lon="3.89456">
        <ele>747</ele>
        <time>2024-12-08T05:36:48.619Z</time>
      </trkpt>
      <trkpt lat="45.96323" lon="3.89459">
        <ele>746</ele>
        <time>2024-12-08T05:36:49.620Z</time>
      </trkpt>
      <trkpt lat="45.96324" lon="3.89461">
        <ele>746</ele>
        <time>2024-12-08T05:36:50.620Z</time>
      </trkpt>
      <trkpt lat="45.96324" lon="3.89463">
        <ele>746</ele>
        <time>2024-12-08T05:36:51.619Z</time>
      </trkpt>
      <trkpt lat="45.96324" lon="3.89465">
        <ele>746</ele>
        <time>2024-12-08T05:36:52.620Z</time>
      </trkpt>
      <trkpt lat="45.96324" lon="3.89467">
        <ele>746</ele>
        <time>2024-12-08T05:36:53.619Z</time>
      </trkpt>
      <trkpt lat="45.96325" lon="3.89469">
        <ele>746</ele>
        <time>2024-12-08T05:36:54.619Z</time>
      </trkpt>
      <trkpt lat="45.96325" lon="3.89471">
        <ele>746</ele>
        <time>2024-12-08T05:36:55.620Z</time>
      </trkpt>
      <trkpt lat="45.96325" lon="3.89473">
        <ele>746</ele>
        <time>2024-12-08T05:36:56.620Z</time>
      </trkpt>
      <trkpt lat="45.96326" lon="3.89475">
        <ele>746</ele>
        <time>2024-12-08T05:36:57.619Z</time>
      </trkpt>
      <trkpt lat="45.96326" lon="3.89478">
        <ele>746</ele>
        <time>2024-12-08T05:36:58.619Z</time>
      </trkpt>
      <trkpt lat="45.96326" lon="3.8948">
        <ele>745</ele>
        <time>2024-12-08T05:36:59.620Z</time>
      </trkpt>
      <trkpt lat="45.96326" lon="3.89482">
        <ele>745</ele>
        <time>2024-12-08T05:37:00.619Z</time>
      </trkpt>
      <trkpt lat="45.96327" lon="3.89484">
        <ele>745</ele>
        <time>2024-12-08T05:37:01.619Z</time>
      </trkpt>
      <trkpt lat="45.96327" lon="3.89486">
        <ele>745</ele>
        <time>2024-12-08T05:37:02.620Z</time>
      </trkpt>
      <trkpt lat="45.96327" lon="3.89488">
        <ele>744</ele>
        <time>2024-12-08T05:37:03.620Z</time>
      </trkpt>
      <trkpt lat="45.96326" lon="3.8949">
        <ele>744</ele>
        <time>2024-12-08T05:37:04.619Z</time>
      </trkpt>
      <trkpt lat="45.96326" lon="3.89492">
        <ele>744</ele>
        <time>2024-12-08T05:37:05.620Z</time>
      </trkpt>
      <trkpt lat="45.96327" lon="3.89495">
        <ele>744</ele>
        <time>2024-12-08T05:37:06.620Z</time>
      </trkpt>
      <trkpt lat="45.96327" lon="3.89497">
        <ele>744</ele>
        <time>2024-12-08T05:37:07.619Z</time>
      </trkpt>
      <trkpt lat="45.96327" lon="3.89499">
        <ele>744</ele>
        <time>2024-12-08T05:37:08.620Z</time>
      </trkpt>
      <trkpt lat="45.96327" lon="3.89501">
        <ele>744</ele>
        <time>2024-12-08T05:37:09.619Z</time>
      </trkpt>
      <trkpt lat="45.96327" lon="3.89504">
        <ele>743</ele>
        <time>2024-12-08T05:37:10.619Z</time>
      </trkpt>
      <trkpt lat="45.96327" lon="3.89506">
        <ele>743</ele>
        <time>2024-12-08T05:37:11.619Z</time>
      </trkpt>
      <trkpt lat="45.96327" lon="3.89509">
        <ele>742</ele>
        <time>2024-12-08T05:37:12.619Z</time>
      </trkpt>
      <trkpt lat="45.96326" lon="3.89511">
        <ele>742</ele>
        <time>2024-12-08T05:37:13.620Z</time>
      </trkpt>
      <trkpt lat="45.96326" lon="3.89513">
        <ele>741</ele>
        <time>2024-12-08T05:37:14.619Z</time>
      </trkpt>
      <trkpt lat="45.96325" lon="3.89516">
        <ele>741</ele>
        <time>2024-12-08T05:37:15.619Z</time>
      </trkpt>
      <trkpt lat="45.96325" lon="3.89519">
        <ele>741</ele>
        <time>2024-12-08T05:37:16.619Z</time>
      </trkpt>
      <trkpt lat="45.96326" lon="3.89522">
        <ele>740</ele>
        <time>2024-12-08T05:37:17.620Z</time>
      </trkpt>
      <trkpt lat="45.96326" lon="3.89523">
        <ele>740</ele>
        <time>2024-12-08T05:37:18.619Z</time>
      </trkpt>
      <trkpt lat="45.96326" lon="3.89526">
        <ele>740</ele>
        <time>2024-12-08T05:37:19.619Z</time>
      </trkpt>
      <trkpt lat="45.96325" lon="3.89529">
        <ele>740</ele>
        <time>2024-12-08T05:37:20.619Z</time>
      </trkpt>
      <trkpt lat="45.96325" lon="3.89531">
        <ele>741</ele>
        <time>2024-12-08T05:37:21.619Z</time>
      </trkpt>
      <trkpt lat="45.96325" lon="3.89533">
        <ele>741</ele>
        <time>2024-12-08T05:37:22.619Z</time>
      </trkpt>
      <trkpt lat="45.96324" lon="3.89534">
        <ele>741</ele>
        <time>2024-12-08T05:37:23.619Z</time>
      </trkpt>
      <trkpt lat="45.96325" lon="3.89537">
        <ele>741</ele>
        <time>2024-12-08T05:37:24.619Z</time>
      </trkpt>
      <trkpt lat="45.96325" lon="3.89539">
        <ele>740</ele>
        <time>2024-12-08T05:37:25.619Z</time>
      </trkpt>
      <trkpt lat="45.96325" lon="3.89541">
        <ele>740</ele>
        <time>2024-12-08T05:37:26.620Z</time>
      </trkpt>
      <trkpt lat="45.96325" lon="3.89544">
        <ele>740</ele>
        <time>2024-12-08T05:37:27.619Z</time>
      </trkpt>
      <trkpt lat="45.96325" lon="3.89546">
        <ele>740</ele>
        <time>2024-12-08T05:37:28.620Z</time>
      </trkpt>
      <trkpt lat="45.96325" lon="3.89548">
        <ele>740</ele>
        <time>2024-12-08T05:37:29.619Z</time>
      </trkpt>
      <trkpt lat="45.96325" lon="3.8955">
        <ele>740</ele>
        <time>2024-12-08T05:37:30.620Z</time>
      </trkpt>
      <trkpt lat="45.96324" lon="3.89552">
        <ele>740</ele>
        <time>2024-12-08T05:37:31.620Z</time>
      </trkpt>
      <trkpt lat="45.96324" lon="3.89554">
        <ele>739</ele>
        <time>2024-12-08T05:37:32.620Z</time>
      </trkpt>
      <trkpt lat="45.96325" lon="3.89557">
        <ele>739</ele>
        <time>2024-12-08T05:37:33.619Z</time>
      </trkpt>
      <trkpt lat="45.96325" lon="3.89559">
        <ele>739</ele>
        <time>2024-12-08T05:37:34.619Z</time>
      </trkpt>
      <trkpt lat="45.96325" lon="3.89561">
        <ele>739</ele>
        <time>2024-12-08T05:37:35.620Z</time>
      </trkpt>
      <trkpt lat="45.96325" lon="3.89564">
        <ele>739</ele>
        <time>2024-12-08T05:37:36.620Z</time>
      </trkpt>
      <trkpt lat="45.96326" lon="3.89566">
        <ele>738</ele>
        <time>2024-12-08T05:37:37.619Z</time>
      </trkpt>
      <trkpt lat="45.96326" lon="3.89567">
        <ele>738</ele>
        <time>2024-12-08T05:37:38.619Z</time>
      </trkpt>
      <trkpt lat="45.96326" lon="3.89569">
        <ele>738</ele>
        <time>2024-12-08T05:37:39.619Z</time>
      </trkpt>
      <trkpt lat="45.96326" lon="3.89572">
        <ele>738</ele>
        <time>2024-12-08T05:37:40.620Z</time>
      </trkpt>
      <trkpt lat="45.96326" lon="3.89574">
        <ele>739</ele>
        <time>2024-12-08T05:37:41.619Z</time>
      </trkpt>
      <trkpt lat="45.96326" lon="3.89576">
        <ele>738</ele>
        <time>2024-12-08T05:37:42.620Z</time>
      </trkpt>
      <trkpt lat="45.96326" lon="3.89578">
        <ele>738</ele>
        <time>2024-12-08T05:37:43.620Z</time>
      </trkpt>
      <trkpt lat="45.96326" lon="3.8958">
        <ele>738</ele>
        <time>2024-12-08T05:37:44.620Z</time>
      </trkpt>
      <trkpt lat="45.96326" lon="3.89581">
        <ele>738</ele>
        <time>2024-12-08T05:37:45.619Z</time>
      </trkpt>
      <trkpt lat="45.96326" lon="3.89582">
        <ele>738</ele>
        <time>2024-12-08T05:37:46.620Z</time>
      </trkpt>
      <trkpt lat="45.96327" lon="3.89584">
        <ele>737</ele>
        <time>2024-12-08T05:37:47.619Z</time>
      </trkpt>
      <trkpt lat="45.96327" lon="3.89586">
        <ele>737</ele>
        <time>2024-12-08T05:37:48.619Z</time>
      </trkpt>
      <trkpt lat="45.96327" lon="3.89587">
        <ele>737</ele>
        <time>2024-12-08T05:37:49.620Z</time>
      </trkpt>
      <trkpt lat="45.96327" lon="3.89589">
        <ele>736</ele>
        <time>2024-12-08T05:37:50.620Z</time>
      </trkpt>
      <trkpt lat="45.96327" lon="3.89592">
        <ele>736</ele>
        <time>2024-12-08T05:37:51.619Z</time>
      </trkpt>
      <trkpt lat="45.96327" lon="3.89594">
        <ele>736</ele>
        <time>2024-12-08T05:37:52.619Z</time>
      </trkpt>
      <trkpt lat="45.96327" lon="3.89596">
        <ele>736</ele>
        <time>2024-12-08T05:37:53.620Z</time>
      </trkpt>
      <trkpt lat="45.96327" lon="3.89599">
        <ele>736</ele>
        <time>2024-12-08T05:37:54.619Z</time>
      </trkpt>
      <trkpt lat="45.96327" lon="3.89601">
        <ele>736</ele>
        <time>2024-12-08T05:37:55.620Z</time>
      </trkpt>
      <trkpt lat="45.96327" lon="3.89604">
        <ele>736</ele>
        <time>2024-12-08T05:37:56.619Z</time>
      </trkpt>
      <trkpt lat="45.96327" lon="3.89607">
        <ele>736</ele>
        <time>2024-12-08T05:37:57.620Z</time>
      </trkpt>
      <trkpt lat="45.96327" lon="3.8961">
        <ele>736</ele>
        <time>2024-12-08T05:37:58.620Z</time>
      </trkpt>
      <trkpt lat="45.96327" lon="3.89612">
        <ele>736</ele>
        <time>2024-12-08T05:37:59.620Z</time>
      </trkpt>
      <trkpt lat="45.96327" lon="3.89614">
        <ele>736</ele>
        <time>2024-12-08T05:38:00.620Z</time>
      </trkpt>
      <trkpt lat="45.96327" lon="3.89616">
        <ele>736</ele>
        <time>2024-12-08T05:38:01.619Z</time>
      </trkpt>
      <trkpt lat="45.96327" lon="3.89618">
        <ele>736</ele>
        <time>2024-12-08T05:38:02.619Z</time>
      </trkpt>
      <trkpt lat="45.96327" lon="3.89621">
        <ele>737</ele>
        <time>2024-12-08T05:38:03.620Z</time>
      </trkpt>
      <trkpt lat="45.96327" lon="3.89624">
        <ele>737</ele>
        <time>2024-12-08T05:38:04.620Z</time>
      </trkpt>
      <trkpt lat="45.96327" lon="3.89626">
        <ele>737</ele>
        <time>2024-12-08T05:38:05.619Z</time>
      </trkpt>
      <trkpt lat="45.96327" lon="3.89628">
        <ele>737</ele>
        <time>2024-12-08T05:38:06.619Z</time>
      </trkpt>
      <trkpt lat="45.96327" lon="3.8963">
        <ele>737</ele>
        <time>2024-12-08T05:38:07.620Z</time>
      </trkpt>
      <trkpt lat="45.96326" lon="3.89633">
        <ele>737</ele>
        <time>2024-12-08T05:38:08.619Z</time>
      </trkpt>
      <trkpt lat="45.96326" lon="3.89635">
        <ele>737</ele>
        <time>2024-12-08T05:38:09.619Z</time>
      </trkpt>
      <trkpt lat="45.96326" lon="3.89637">
        <ele>737</ele>
        <time>2024-12-08T05:38:10.620Z</time>
      </trkpt>
      <trkpt lat="45.96326" lon="3.89639">
        <ele>737</ele>
        <time>2024-12-08T05:38:11.619Z</time>
      </trkpt>
      <trkpt lat="45.96326" lon="3.89641">
        <ele>737</ele>
        <time>2024-12-08T05:38:12.619Z</time>
      </trkpt>
      <trkpt lat="45.96325" lon="3.89643">
        <ele>737</ele>
        <time>2024-12-08T05:38:13.619Z</time>
      </trkpt>
      <trkpt lat="45.96325" lon="3.89645">
        <ele>736</ele>
        <time>2024-12-08T05:38:14.620Z</time>
      </trkpt>
      <trkpt lat="45.96325" lon="3.89647">
        <ele>736</ele>
        <time>2024-12-08T05:38:15.620Z</time>
      </trkpt>
      <trkpt lat="45.96324" lon="3.89649">
        <ele>735</ele>
        <time>2024-12-08T05:38:16.619Z</time>
      </trkpt>
      <trkpt lat="45.96324" lon="3.89651">
        <ele>735</ele>
        <time>2024-12-08T05:38:17.619Z</time>
      </trkpt>
      <trkpt lat="45.96323" lon="3.89654">
        <ele>734</ele>
        <time>2024-12-08T05:38:18.619Z</time>
      </trkpt>
      <trkpt lat="45.96323" lon="3.89656">
        <ele>734</ele>
        <time>2024-12-08T05:38:19.619Z</time>
      </trkpt>
      <trkpt lat="45.96322" lon="3.89658">
        <ele>733</ele>
        <time>2024-12-08T05:38:20.619Z</time>
      </trkpt>
      <trkpt lat="45.96322" lon="3.89661">
        <ele>733</ele>
        <time>2024-12-08T05:38:21.619Z</time>
      </trkpt>
      <trkpt lat="45.96322" lon="3.89663">
        <ele>732</ele>
        <time>2024-12-08T05:38:22.619Z</time>
      </trkpt>
      <trkpt lat="45.96322" lon="3.89665">
        <ele>732</ele>
        <time>2024-12-08T05:38:23.620Z</time>
      </trkpt>
      <trkpt lat="45.96322" lon="3.89667">
        <ele>732</ele>
        <time>2024-12-08T05:38:24.619Z</time>
      </trkpt>
      <trkpt lat="45.96322" lon="3.89669">
        <ele>731</ele>
        <time>2024-12-08T05:38:25.620Z</time>
      </trkpt>
      <trkpt lat="45.96321" lon="3.89671">
        <ele>731</ele>
        <time>2024-12-08T05:38:26.619Z</time>
      </trkpt>
      <trkpt lat="45.96321" lon="3.89673">
        <ele>731</ele>
        <time>2024-12-08T05:38:27.619Z</time>
      </trkpt>
      <trkpt lat="45.96321" lon="3.89675">
        <ele>731</ele>
        <time>2024-12-08T05:38:28.620Z</time>
      </trkpt>
      <trkpt lat="45.96321" lon="3.89678">
        <ele>731</ele>
        <time>2024-12-08T05:38:29.619Z</time>
      </trkpt>
      <trkpt lat="45.96321" lon="3.8968">
        <ele>731</ele>
        <time>2024-12-08T05:38:30.620Z</time>
      </trkpt>
      <trkpt lat="45.96321" lon="3.89683">
        <ele>731</ele>
        <time>2024-12-08T05:38:31.619Z</time>
      </trkpt>
      <trkpt lat="45.9632" lon="3.89686">
        <ele>731</ele>
        <time>2024-12-08T05:38:32.620Z</time>
      </trkpt>
      <trkpt lat="45.9632" lon="3.89689">
        <ele>731</ele>
        <time>2024-12-08T05:38:33.620Z</time>
      </trkpt>
      <trkpt lat="45.9632" lon="3.89692">
        <ele>731</ele>
        <time>2024-12-08T05:38:34.620Z</time>
      </trkpt>
      <trkpt lat="45.96321" lon="3.89694">
        <ele>731</ele>
        <time>2024-12-08T05:38:35.619Z</time>
      </trkpt>
      <trkpt lat="45.96321" lon="3.89697">
        <ele>730</ele>
        <time>2024-12-08T05:38:36.619Z</time>
      </trkpt>
      <trkpt lat="45.96321" lon="3.89699">
        <ele>730</ele>
        <time>2024-12-08T05:38:37.619Z</time>
      </trkpt>
      <trkpt lat="45.96321" lon="3.89701">
        <ele>730</ele>
        <time>2024-12-08T05:38:38.619Z</time>
      </trkpt>
      <trkpt lat="45.9632" lon="3.89704">
        <ele>730</ele>
        <time>2024-12-08T05:38:39.620Z</time>
      </trkpt>
      <trkpt lat="45.9632" lon="3.89707">
        <ele>729</ele>
        <time>2024-12-08T05:38:40.620Z</time>
      </trkpt>
      <trkpt lat="45.9632" lon="3.89709">
        <ele>729</ele>
        <time>2024-12-08T05:38:41.619Z</time>
      </trkpt>
      <trkpt lat="45.9632" lon="3.89711">
        <ele>729</ele>
        <time>2024-12-08T05:38:42.619Z</time>
      </trkpt>
      <trkpt lat="45.9632" lon="3.89713">
        <ele>729</ele>
        <time>2024-12-08T05:38:43.619Z</time>
      </trkpt>
      <trkpt lat="45.9632" lon="3.89715">
        <ele>729</ele>
        <time>2024-12-08T05:38:44.619Z</time>
      </trkpt>
      <trkpt lat="45.9632" lon="3.89717">
        <ele>729</ele>
        <time>2024-12-08T05:38:45.619Z</time>
      </trkpt>
      <trkpt lat="45.96321" lon="3.89719">
        <ele>728</ele>
        <time>2024-12-08T05:38:46.619Z</time>
      </trkpt>
      <trkpt lat="45.96321" lon="3.89721">
        <ele>728</ele>
        <time>2024-12-08T05:38:47.620Z</time>
      </trkpt>
      <trkpt lat="45.96321" lon="3.89723">
        <ele>727</ele>
        <time>2024-12-08T05:38:48.619Z</time>
      </trkpt>
      <trkpt lat="45.9632" lon="3.89725">
        <ele>727</ele>
        <time>2024-12-08T05:38:49.619Z</time>
      </trkpt>
      <trkpt lat="45.9632" lon="3.89728">
        <ele>726</ele>
        <time>2024-12-08T05:38:50.619Z</time>
      </trkpt>
      <trkpt lat="45.9632" lon="3.8973">
        <ele>726</ele>
        <time>2024-12-08T05:38:51.619Z</time>
      </trkpt>
      <trkpt lat="45.9632" lon="3.89733">
        <ele>725</ele>
        <time>2024-12-08T05:38:52.619Z</time>
      </trkpt>
      <trkpt lat="45.9632" lon="3.89735">
        <ele>725</ele>
        <time>2024-12-08T05:38:53.620Z</time>
      </trkpt>
      <trkpt lat="45.9632" lon="3.89737">
        <ele>724</ele>
        <time>2024-12-08T05:38:54.620Z</time>
      </trkpt>
      <trkpt lat="45.9632" lon="3.89739">
        <ele>724</ele>
        <time>2024-12-08T05:38:55.620Z</time>
      </trkpt>
      <trkpt lat="45.9632" lon="3.89741">
        <ele>724</ele>
        <time>2024-12-08T05:38:56.620Z</time>
      </trkpt>
      <trkpt lat="45.9632" lon="3.89743">
        <ele>723</ele>
        <time>2024-12-08T05:38:57.619Z</time>
      </trkpt>
      <trkpt lat="45.9632" lon="3.89745">
        <ele>723</ele>
        <time>2024-12-08T05:38:58.619Z</time>
      </trkpt>
      <trkpt lat="45.9632" lon="3.89747">
        <ele>723</ele>
        <time>2024-12-08T05:38:59.619Z</time>
      </trkpt>
      <trkpt lat="45.96319" lon="3.8975">
        <ele>722</ele>
        <time>2024-12-08T05:39:00.620Z</time>
      </trkpt>
      <trkpt lat="45.96319" lon="3.89752">
        <ele>722</ele>
        <time>2024-12-08T05:39:01.620Z</time>
      </trkpt>
      <trkpt lat="45.96319" lon="3.89754">
        <ele>721</ele>
        <time>2024-12-08T05:39:02.620Z</time>
      </trkpt>
      <trkpt lat="45.96319" lon="3.89756">
        <ele>721</ele>
        <time>2024-12-08T05:39:03.619Z</time>
      </trkpt>
      <trkpt lat="45.96319" lon="3.89759">
        <ele>720</ele>
        <time>2024-12-08T05:39:04.620Z</time>
      </trkpt>
      <trkpt lat="45.96319" lon="3.89761">
        <ele>720</ele>
        <time>2024-12-08T05:39:05.620Z</time>
      </trkpt>
      <trkpt lat="45.96319" lon="3.89763">
        <ele>720</ele>
        <time>2024-12-08T05:39:06.620Z</time>
      </trkpt>
      <trkpt lat="45.96319" lon="3.89765">
        <ele>719</ele>
        <time>2024-12-08T05:39:07.620Z</time>
      </trkpt>
      <trkpt lat="45.96319" lon="3.89768">
        <ele>719</ele>
        <time>2024-12-08T05:39:08.620Z</time>
      </trkpt>
      <trkpt lat="45.96319" lon="3.89769">
        <ele>718</ele>
        <time>2024-12-08T05:39:09.619Z</time>
      </trkpt>
      <trkpt lat="45.96319" lon="3.89772">
        <ele>718</ele>
        <time>2024-12-08T05:39:10.620Z</time>
      </trkpt>
      <trkpt lat="45.96319" lon="3.89774">
        <ele>717</ele>
        <time>2024-12-08T05:39:11.619Z</time>
      </trkpt>
      <trkpt lat="45.96318" lon="3.89777">
        <ele>717</ele>
        <time>2024-12-08T05:39:12.619Z</time>
      </trkpt>
      <trkpt lat="45.96318" lon="3.89779">
        <ele>717</ele>
        <time>2024-12-08T05:39:13.620Z</time>
      </trkpt>
      <trkpt lat="45.96318" lon="3.89782">
        <ele>717</ele>
        <time>2024-12-08T05:39:14.620Z</time>
      </trkpt>
      <trkpt lat="45.96318" lon="3.89783">
        <ele>717</ele>
        <time>2024-12-08T05:39:15.619Z</time>
      </trkpt>
      <trkpt lat="45.96318" lon="3.89785">
        <ele>717</ele>
        <time>2024-12-08T05:39:16.620Z</time>
      </trkpt>
      <trkpt lat="45.96318" lon="3.89788">
        <ele>717</ele>
        <time>2024-12-08T05:39:17.620Z</time>
      </trkpt>
      <trkpt lat="45.96319" lon="3.89791">
        <ele>717</ele>
        <time>2024-12-08T05:39:18.620Z</time>
      </trkpt>
      <trkpt lat="45.96319" lon="3.89793">
        <ele>717</ele>
        <time>2024-12-08T05:39:19.619Z</time>
      </trkpt>
      <trkpt lat="45.96319" lon="3.89795">
        <ele>716</ele>
        <time>2024-12-08T05:39:20.619Z</time>
      </trkpt>
      <trkpt lat="45.96319" lon="3.89798">
        <ele>716</ele>
        <time>2024-12-08T05:39:21.620Z</time>
      </trkpt>
      <trkpt lat="45.96319" lon="3.898">
        <ele>715</ele>
        <time>2024-12-08T05:39:22.620Z</time>
      </trkpt>
      <trkpt lat="45.96319" lon="3.89802">
        <ele>715</ele>
        <time>2024-12-08T05:39:23.619Z</time>
      </trkpt>
      <trkpt lat="45.96319" lon="3.89805">
        <ele>715</ele>
        <time>2024-12-08T05:39:24.619Z</time>
      </trkpt>
      <trkpt lat="45.96318" lon="3.89807">
        <ele>715</ele>
        <time>2024-12-08T05:39:25.619Z</time>
      </trkpt>
      <trkpt lat="45.96318" lon="3.89809">
        <ele>714</ele>
        <time>2024-12-08T05:39:26.619Z</time>
      </trkpt>
      <trkpt lat="45.96318" lon="3.89811">
        <ele>714</ele>
        <time>2024-12-08T05:39:27.620Z</time>
      </trkpt>
      <trkpt lat="45.96318" lon="3.89813">
        <ele>714</ele>
        <time>2024-12-08T05:39:28.620Z</time>
      </trkpt>
      <trkpt lat="45.96318" lon="3.89816">
        <ele>714</ele>
        <time>2024-12-08T05:39:29.620Z</time>
      </trkpt>
      <trkpt lat="45.96318" lon="3.89818">
        <ele>714</ele>
        <time>2024-12-08T05:39:30.620Z</time>
      </trkpt>
      <trkpt lat="45.96318" lon="3.8982">
        <ele>714</ele>
        <time>2024-12-08T05:39:31.619Z</time>
      </trkpt>
      <trkpt lat="45.96317" lon="3.89822">
        <ele>714</ele>
        <time>2024-12-08T05:39:32.619Z</time>
      </trkpt>
      <trkpt lat="45.96317" lon="3.89824">
        <ele>714</ele>
        <time>2024-12-08T05:39:33.619Z</time>
      </trkpt>
      <trkpt lat="45.96318" lon="3.89826">
        <ele>714</ele>
        <time>2024-12-08T05:39:34.619Z</time>
      </trkpt>
      <trkpt lat="45.96318" lon="3.89828">
        <ele>713</ele>
        <time>2024-12-08T05:39:35.620Z</time>
      </trkpt>
      <trkpt lat="45.96318" lon="3.8983">
        <ele>713</ele>
        <time>2024-12-08T05:39:36.620Z</time>
      </trkpt>
      <trkpt lat="45.96318" lon="3.89833">
        <ele>713</ele>
        <time>2024-12-08T05:39:37.619Z</time>
      </trkpt>
      <trkpt lat="45.96317" lon="3.89836">
        <ele>713</ele>
        <time>2024-12-08T05:39:38.619Z</time>
      </trkpt>
      <trkpt lat="45.96317" lon="3.89837">
        <ele>713</ele>
        <time>2024-12-08T05:39:39.619Z</time>
      </trkpt>
      <trkpt lat="45.96317" lon="3.8984">
        <ele>713</ele>
        <time>2024-12-08T05:39:40.620Z</time>
      </trkpt>
      <trkpt lat="45.96317" lon="3.89843">
        <ele>713</ele>
        <time>2024-12-08T05:39:41.620Z</time>
      </trkpt>
      <trkpt lat="45.96317" lon="3.89844">
        <ele>713</ele>
        <time>2024-12-08T05:39:42.619Z</time>
      </trkpt>
      <trkpt lat="45.96317" lon="3.89847">
        <ele>713</ele>
        <time>2024-12-08T05:39:43.620Z</time>
      </trkpt>
      <trkpt lat="45.96316" lon="3.89848">
        <ele>713</ele>
        <time>2024-12-08T05:39:44.620Z</time>
      </trkpt>
      <trkpt lat="45.96316" lon="3.89851">
        <ele>712</ele>
        <time>2024-12-08T05:39:45.619Z</time>
      </trkpt>
      <trkpt lat="45.96316" lon="3.89853">
        <ele>712</ele>
        <time>2024-12-08T05:39:46.619Z</time>
      </trkpt>
      <trkpt lat="45.96316" lon="3.89855">
        <ele>712</ele>
        <time>2024-12-08T05:39:47.620Z</time>
      </trkpt>
      <trkpt lat="45.96316" lon="3.89857">
        <ele>711</ele>
        <time>2024-12-08T05:39:48.619Z</time>
      </trkpt>
      <trkpt lat="45.96316" lon="3.8986">
        <ele>711</ele>
        <time>2024-12-08T05:39:49.619Z</time>
      </trkpt>
      <trkpt lat="45.96316" lon="3.89862">
        <ele>711</ele>
        <time>2024-12-08T05:39:50.619Z</time>
      </trkpt>
      <trkpt lat="45.96316" lon="3.89865">
        <ele>711</ele>
        <time>2024-12-08T05:39:51.620Z</time>
      </trkpt>
      <trkpt lat="45.96316" lon="3.89867">
        <ele>711</ele>
        <time>2024-12-08T05:39:52.620Z</time>
      </trkpt>
      <trkpt lat="45.96316" lon="3.8987">
        <ele>711</ele>
        <time>2024-12-08T05:39:53.619Z</time>
      </trkpt>
      <trkpt lat="45.96316" lon="3.89872">
        <ele>710</ele>
        <time>2024-12-08T05:39:54.619Z</time>
      </trkpt>
      <trkpt lat="45.96316" lon="3.89874">
        <ele>710</ele>
        <time>2024-12-08T05:39:55.620Z</time>
      </trkpt>
      <trkpt lat="45.96316" lon="3.89877">
        <ele>710</ele>
        <time>2024-12-08T05:39:56.619Z</time>
      </trkpt>
      <trkpt lat="45.96316" lon="3.89878">
        <ele>710</ele>
        <time>2024-12-08T05:39:57.620Z</time>
      </trkpt>
      <trkpt lat="45.96316" lon="3.8988">
        <ele>710</ele>
        <time>2024-12-08T05:39:58.620Z</time>
      </trkpt>
      <trkpt lat="45.96316" lon="3.89883">
        <ele>710</ele>
        <time>2024-12-08T05:39:59.619Z</time>
      </trkpt>
      <trkpt lat="45.96316" lon="3.89885">
        <ele>709</ele>
        <time>2024-12-08T05:40:00.620Z</time>
      </trkpt>
      <trkpt lat="45.96317" lon="3.89888">
        <ele>709</ele>
        <time>2024-12-08T05:40:01.619Z</time>
      </trkpt>
      <trkpt lat="45.96317" lon="3.89891">
        <ele>709</ele>
        <time>2024-12-08T05:40:02.619Z</time>
      </trkpt>
      <trkpt lat="45.96317" lon="3.89892">
        <ele>709</ele>
        <time>2024-12-08T05:40:03.620Z</time>
      </trkpt>
      <trkpt lat="45.96317" lon="3.89895">
        <ele>708</ele>
        <time>2024-12-08T05:40:04.620Z</time>
      </trkpt>
      <trkpt lat="45.96316" lon="3.89897">
        <ele>708</ele>
        <time>2024-12-08T05:40:05.620Z</time>
      </trkpt>
      <trkpt lat="45.96316" lon="3.899">
        <ele>708</ele>
        <time>2024-12-08T05:40:06.619Z</time>
      </trkpt>
      <trkpt lat="45.96316" lon="3.89901">
        <ele>708</ele>
        <time>2024-12-08T05:40:07.620Z</time>
      </trkpt>
      <trkpt lat="45.96316" lon="3.89904">
        <ele>708</ele>
        <time>2024-12-08T05:40:08.619Z</time>
      </trkpt>
      <trkpt lat="45.96315" lon="3.89906">
        <ele>708</ele>
        <time>2024-12-08T05:40:09.619Z</time>
      </trkpt>
      <trkpt lat="45.96315" lon="3.89908">
        <ele>707</ele>
        <time>2024-12-08T05:40:10.619Z</time>
      </trkpt>
      <trkpt lat="45.96316" lon="3.8991">
        <ele>707</ele>
        <time>2024-12-08T05:40:11.619Z</time>
      </trkpt>
      <trkpt lat="45.96316" lon="3.89912">
        <ele>706</ele>
        <time>2024-12-08T05:40:12.620Z</time>
      </trkpt>
      <trkpt lat="45.96316" lon="3.89915">
        <ele>706</ele>
        <time>2024-12-08T05:40:13.619Z</time>
      </trkpt>
      <trkpt lat="45.96317" lon="3.89917">
        <ele>705</ele>
        <time>2024-12-08T05:40:14.619Z</time>
      </trkpt>
      <trkpt lat="45.96316" lon="3.89919">
        <ele>705</ele>
        <time>2024-12-08T05:40:15.619Z</time>
      </trkpt>
      <trkpt lat="45.96316" lon="3.89921">
        <ele>705</ele>
        <time>2024-12-08T05:40:16.619Z</time>
      </trkpt>
      <trkpt lat="45.96316" lon="3.89923">
        <ele>704</ele>
        <time>2024-12-08T05:40:17.619Z</time>
      </trkpt>
      <trkpt lat="45.96316" lon="3.89926">
        <ele>704</ele>
        <time>2024-12-08T05:40:18.619Z</time>
      </trkpt>
      <trkpt lat="45.96316" lon="3.89928">
        <ele>704</ele>
        <time>2024-12-08T05:40:19.619Z</time>
      </trkpt>
      <trkpt lat="45.96316" lon="3.8993">
        <ele>705</ele>
        <time>2024-12-08T05:40:20.619Z</time>
      </trkpt>
      <trkpt lat="45.96316" lon="3.89933">
        <ele>704</ele>
        <time>2024-12-08T05:40:21.619Z</time>
      </trkpt>
      <trkpt lat="45.96316" lon="3.89935">
        <ele>705</ele>
        <time>2024-12-08T05:40:22.619Z</time>
      </trkpt>
      <trkpt lat="45.96316" lon="3.89937">
        <ele>705</ele>
        <time>2024-12-08T05:40:23.619Z</time>
      </trkpt>
      <trkpt lat="45.96316" lon="3.8994">
        <ele>705</ele>
        <time>2024-12-08T05:40:24.619Z</time>
      </trkpt>
      <trkpt lat="45.96316" lon="3.89942">
        <ele>705</ele>
        <time>2024-12-08T05:40:25.619Z</time>
      </trkpt>
      <trkpt lat="45.96316" lon="3.89945">
        <ele>706</ele>
        <time>2024-12-08T05:40:26.619Z</time>
      </trkpt>
      <trkpt lat="45.96316" lon="3.89947">
        <ele>706</ele>
        <time>2024-12-08T05:40:27.619Z</time>
      </trkpt>
      <trkpt lat="45.96316" lon="3.89949">
        <ele>707</ele>
        <time>2024-12-08T05:40:28.619Z</time>
      </trkpt>
      <trkpt lat="45.96316" lon="3.89951">
        <ele>707</ele>
        <time>2024-12-08T05:40:29.619Z</time>
      </trkpt>
      <trkpt lat="45.96316" lon="3.89953">
        <ele>708</ele>
        <time>2024-12-08T05:40:30.620Z</time>
      </trkpt>
      <trkpt lat="45.96316" lon="3.89956">
        <ele>708</ele>
        <time>2024-12-08T05:40:31.619Z</time>
      </trkpt>
      <trkpt lat="45.96316" lon="3.89959">
        <ele>708</ele>
        <time>2024-12-08T05:40:32.620Z</time>
      </trkpt>
      <trkpt lat="45.96317" lon="3.89963">
        <ele>707</ele>
        <time>2024-12-08T05:40:33.619Z</time>
      </trkpt>
      <trkpt lat="45.96317" lon="3.89965">
        <ele>708</ele>
        <time>2024-12-08T05:40:34.619Z</time>
      </trkpt>
      <trkpt lat="45.96317" lon="3.89968">
        <ele>707</ele>
        <time>2024-12-08T05:40:35.619Z</time>
      </trkpt>
      <trkpt lat="45.96317" lon="3.89969">
        <ele>707</ele>
        <time>2024-12-08T05:40:36.619Z</time>
      </trkpt>
      <trkpt lat="45.96317" lon="3.8997">
        <ele>707</ele>
        <time>2024-12-08T05:40:37.620Z</time>
      </trkpt>
      <trkpt lat="45.96317" lon="3.8997">
        <ele>707</ele>
        <time>2024-12-08T05:40:38.620Z</time>
      </trkpt>
      <trkpt lat="45.96316" lon="3.8997">
        <ele>706</ele>
        <time>2024-12-08T05:40:39.619Z</time>
      </trkpt>
      <trkpt lat="45.96315" lon="3.89969">
        <ele>706</ele>
        <time>2024-12-08T05:40:40.619Z</time>
      </trkpt>
      <trkpt lat="45.96315" lon="3.89968">
        <ele>706</ele>
        <time>2024-12-08T05:40:41.619Z</time>
      </trkpt>
      <trkpt lat="45.96315" lon="3.89968">
        <ele>706</ele>
        <time>2024-12-08T05:40:42.620Z</time>
      </trkpt>
      <trkpt lat="45.96314" lon="3.89968">
        <ele>706</ele>
        <time>2024-12-08T05:40:43.619Z</time>
      </trkpt>
      <trkpt lat="45.96314" lon="3.89969">
        <ele>706</ele>
        <time>2024-12-08T05:40:44.620Z</time>
      </trkpt>
      <trkpt lat="45.96314" lon="3.89971">
        <ele>706</ele>
        <time>2024-12-08T05:40:45.620Z</time>
      </trkpt>
      <trkpt lat="45.96314" lon="3.89972">
        <ele>706</ele>
        <time>2024-12-08T05:40:46.620Z</time>
      </trkpt>
      <trkpt lat="45.96315" lon="3.89975">
        <ele>706</ele>
        <time>2024-12-08T05:40:47.619Z</time>
      </trkpt>
      <trkpt lat="45.96315" lon="3.89977">
        <ele>706</ele>
        <time>2024-12-08T05:40:48.619Z</time>
      </trkpt>
      <trkpt lat="45.96314" lon="3.89979">
        <ele>706</ele>
        <time>2024-12-08T05:40:49.619Z</time>
      </trkpt>
      <trkpt lat="45.96314" lon="3.89981">
        <ele>706</ele>
        <time>2024-12-08T05:40:50.619Z</time>
      </trkpt>
      <trkpt lat="45.96314" lon="3.89983">
        <ele>706</ele>
        <time>2024-12-08T05:40:51.620Z</time>
      </trkpt>
      <trkpt lat="45.96314" lon="3.89986">
        <ele>706</ele>
        <time>2024-12-08T05:40:52.619Z</time>
      </trkpt>
      <trkpt lat="45.96314" lon="3.89988">
        <ele>706</ele>
        <time>2024-12-08T05:40:53.619Z</time>
      </trkpt>
      <trkpt lat="45.96314" lon="3.8999">
        <ele>706</ele>
        <time>2024-12-08T05:40:54.620Z</time>
      </trkpt>
      <trkpt lat="45.96314" lon="3.89992">
        <ele>706</ele>
        <time>2024-12-08T05:40:55.619Z</time>
      </trkpt>
      <trkpt lat="45.96314" lon="3.89995">
        <ele>706</ele>
        <time>2024-12-08T05:40:56.619Z</time>
      </trkpt>
      <trkpt lat="45.96315" lon="3.89997">
        <ele>706</ele>
        <time>2024-12-08T05:40:57.619Z</time>
      </trkpt>
      <trkpt lat="45.96315" lon="3.89999">
        <ele>706</ele>
        <time>2024-12-08T05:40:58.620Z</time>
      </trkpt>
      <trkpt lat="45.96315" lon="3.90001">
        <ele>705</ele>
        <time>2024-12-08T05:40:59.619Z</time>
      </trkpt>
      <trkpt lat="45.96314" lon="3.90004">
        <ele>705</ele>
        <time>2024-12-08T05:41:00.619Z</time>
      </trkpt>
      <trkpt lat="45.96314" lon="3.90006">
        <ele>704</ele>
        <time>2024-12-08T05:41:01.620Z</time>
      </trkpt>
      <trkpt lat="45.96315" lon="3.90009">
        <ele>704</ele>
        <time>2024-12-08T05:41:02.620Z</time>
      </trkpt>
      <trkpt lat="45.96315" lon="3.90011">
        <ele>704</ele>
        <time>2024-12-08T05:41:03.619Z</time>
      </trkpt>
      <trkpt lat="45.96315" lon="3.90014">
        <ele>703</ele>
        <time>2024-12-08T05:41:04.619Z</time>
      </trkpt>
      <trkpt lat="45.96316" lon="3.90017">
        <ele>702</ele>
        <time>2024-12-08T05:41:05.619Z</time>
      </trkpt>
      <trkpt lat="45.96315" lon="3.90019">
        <ele>701</ele>
        <time>2024-12-08T05:41:06.620Z</time>
      </trkpt>
      <trkpt lat="45.96316" lon="3.90022">
        <ele>701</ele>
        <time>2024-12-08T05:41:07.619Z</time>
      </trkpt>
      <trkpt lat="45.96315" lon="3.90025">
        <ele>701</ele>
        <time>2024-12-08T05:41:08.620Z</time>
      </trkpt>
      <trkpt lat="45.96315" lon="3.90027">
        <ele>700</ele>
        <time>2024-12-08T05:41:09.620Z</time>
      </trkpt>
      <trkpt lat="45.96315" lon="3.90029">
        <ele>700</ele>
        <time>2024-12-08T05:41:10.620Z</time>
      </trkpt>
      <trkpt lat="45.96315" lon="3.90032">
        <ele>700</ele>
        <time>2024-12-08T05:41:11.619Z</time>
      </trkpt>
      <trkpt lat="45.96315" lon="3.90034">
        <ele>700</ele>
        <time>2024-12-08T05:41:12.620Z</time>
      </trkpt>
      <trkpt lat="45.96314" lon="3.90036">
        <ele>700</ele>
        <time>2024-12-08T05:41:13.619Z</time>
      </trkpt>
      <trkpt lat="45.96314" lon="3.90039">
        <ele>700</ele>
        <time>2024-12-08T05:41:14.620Z</time>
      </trkpt>
      <trkpt lat="45.96314" lon="3.90041">
        <ele>700</ele>
        <time>2024-12-08T05:41:15.619Z</time>
      </trkpt>
      <trkpt lat="45.96314" lon="3.90044">
        <ele>699</ele>
        <time>2024-12-08T05:41:16.619Z</time>
      </trkpt>
      <trkpt lat="45.96313" lon="3.90046">
        <ele>699</ele>
        <time>2024-12-08T05:41:17.620Z</time>
      </trkpt>
      <trkpt lat="45.96313" lon="3.90049">
        <ele>699</ele>
        <time>2024-12-08T05:41:18.620Z</time>
      </trkpt>
      <trkpt lat="45.96313" lon="3.90051">
        <ele>699</ele>
        <time>2024-12-08T05:41:19.619Z</time>
      </trkpt>
      <trkpt lat="45.96314" lon="3.90054">
        <ele>698</ele>
        <time>2024-12-08T05:41:20.620Z</time>
      </trkpt>
      <trkpt lat="45.96314" lon="3.90056">
        <ele>698</ele>
        <time>2024-12-08T05:41:21.620Z</time>
      </trkpt>
      <trkpt lat="45.96314" lon="3.90059">
        <ele>698</ele>
        <time>2024-12-08T05:41:22.620Z</time>
      </trkpt>
      <trkpt lat="45.96314" lon="3.90062">
        <ele>699</ele>
        <time>2024-12-08T05:41:23.620Z</time>
      </trkpt>
      <trkpt lat="45.96314" lon="3.90064">
        <ele>699</ele>
        <time>2024-12-08T05:41:24.619Z</time>
      </trkpt>
      <trkpt lat="45.96314" lon="3.90067">
        <ele>699</ele>
        <time>2024-12-08T05:41:25.619Z</time>
      </trkpt>
      <trkpt lat="45.96314" lon="3.90069">
        <ele>698</ele>
        <time>2024-12-08T05:41:26.620Z</time>
      </trkpt>
      <trkpt lat="45.96314" lon="3.90071">
        <ele>698</ele>
        <time>2024-12-08T05:41:27.619Z</time>
      </trkpt>
      <trkpt lat="45.96313" lon="3.90073">
        <ele>698</ele>
        <time>2024-12-08T05:41:28.620Z</time>
      </trkpt>
      <trkpt lat="45.96313" lon="3.90075">
        <ele>697</ele>
        <time>2024-12-08T05:41:29.619Z</time>
      </trkpt>
      <trkpt lat="45.96312" lon="3.90077">
        <ele>697</ele>
        <time>2024-12-08T05:41:30.619Z</time>
      </trkpt>
      <trkpt lat="45.96312" lon="3.90079">
        <ele>697</ele>
        <time>2024-12-08T05:41:31.620Z</time>
      </trkpt>
      <trkpt lat="45.96312" lon="3.90081">
        <ele>697</ele>
        <time>2024-12-08T05:41:32.620Z</time>
      </trkpt>
      <trkpt lat="45.96311" lon="3.90083">
        <ele>697</ele>
        <time>2024-12-08T05:41:33.619Z</time>
      </trkpt>
      <trkpt lat="45.96311" lon="3.90084">
        <ele>696</ele>
        <time>2024-12-08T05:41:34.619Z</time>
      </trkpt>
      <trkpt lat="45.96311" lon="3.90086">
        <ele>696</ele>
        <time>2024-12-08T05:41:35.619Z</time>
      </trkpt>
      <trkpt lat="45.9631" lon="3.90088">
        <ele>696</ele>
        <time>2024-12-08T05:41:36.620Z</time>
      </trkpt>
      <trkpt lat="45.9631" lon="3.90089">
        <ele>696</ele>
        <time>2024-12-08T05:41:37.620Z</time>
      </trkpt>
      <trkpt lat="45.9631" lon="3.9009">
        <ele>695</ele>
        <time>2024-12-08T05:41:38.620Z</time>
      </trkpt>
      <trkpt lat="45.96309" lon="3.90092">
        <ele>695</ele>
        <time>2024-12-08T05:41:39.620Z</time>
      </trkpt>
      <trkpt lat="45.96309" lon="3.90093">
        <ele>694</ele>
        <time>2024-12-08T05:41:40.619Z</time>
      </trkpt>
      <trkpt lat="45.96309" lon="3.90095">
        <ele>694</ele>
        <time>2024-12-08T05:41:41.620Z</time>
      </trkpt>
      <trkpt lat="45.96309" lon="3.90096">
        <ele>694</ele>
        <time>2024-12-08T05:41:42.620Z</time>
      </trkpt>
      <trkpt lat="45.96309" lon="3.90098">
        <ele>694</ele>
        <time>2024-12-08T05:41:43.619Z</time>
      </trkpt>
      <trkpt lat="45.96309" lon="3.901">
        <ele>694</ele>
        <time>2024-12-08T05:41:44.620Z</time>
      </trkpt>
      <trkpt lat="45.96309" lon="3.90102">
        <ele>694</ele>
        <time>2024-12-08T05:41:45.619Z</time>
      </trkpt>
      <trkpt lat="45.96309" lon="3.90103">
        <ele>694</ele>
        <time>2024-12-08T05:41:46.620Z</time>
      </trkpt>
      <trkpt lat="45.96309" lon="3.90105">
        <ele>694</ele>
        <time>2024-12-08T05:41:47.620Z</time>
      </trkpt>
      <trkpt lat="45.96308" lon="3.90107">
        <ele>694</ele>
        <time>2024-12-08T05:41:48.620Z</time>
      </trkpt>
      <trkpt lat="45.96308" lon="3.90109">
        <ele>694</ele>
        <time>2024-12-08T05:41:49.619Z</time>
      </trkpt>
      <trkpt lat="45.96308" lon="3.90111">
        <ele>694</ele>
        <time>2024-12-08T05:41:50.620Z</time>
      </trkpt>
      <trkpt lat="45.96308" lon="3.90113">
        <ele>693</ele>
        <time>2024-12-08T05:41:51.620Z</time>
      </trkpt>
      <trkpt lat="45.96308" lon="3.90115">
        <ele>693</ele>
        <time>2024-12-08T05:41:52.620Z</time>
      </trkpt>
      <trkpt lat="45.96308" lon="3.90117">
        <ele>693</ele>
        <time>2024-12-08T05:41:53.619Z</time>
      </trkpt>
      <trkpt lat="45.96308" lon="3.90119">
        <ele>693</ele>
        <time>2024-12-08T05:41:54.619Z</time>
      </trkpt>
      <trkpt lat="45.96308" lon="3.90121">
        <ele>693</ele>
        <time>2024-12-08T05:41:55.620Z</time>
      </trkpt>
      <trkpt lat="45.96307" lon="3.90123">
        <ele>693</ele>
        <time>2024-12-08T05:41:56.619Z</time>
      </trkpt>
      <trkpt lat="45.96307" lon="3.90125">
        <ele>693</ele>
        <time>2024-12-08T05:41:57.619Z</time>
      </trkpt>
      <trkpt lat="45.96307" lon="3.90127">
        <ele>694</ele>
        <time>2024-12-08T05:41:58.620Z</time>
      </trkpt>
      <trkpt lat="45.96306" lon="3.90128">
        <ele>694</ele>
        <time>2024-12-08T05:41:59.620Z</time>
      </trkpt>
      <trkpt lat="45.96306" lon="3.9013">
        <ele>694</ele>
        <time>2024-12-08T05:42:00.619Z</time>
      </trkpt>
      <trkpt lat="45.96306" lon="3.90132">
        <ele>694</ele>
        <time>2024-12-08T05:42:01.619Z</time>
      </trkpt>
      <trkpt lat="45.96306" lon="3.90134">
        <ele>695</ele>
        <time>2024-12-08T05:42:02.620Z</time>
      </trkpt>
      <trkpt lat="45.96306" lon="3.90137">
        <ele>695</ele>
        <time>2024-12-08T05:42:03.619Z</time>
      </trkpt>
      <trkpt lat="45.96306" lon="3.90139">
        <ele>695</ele>
        <time>2024-12-08T05:42:04.619Z</time>
      </trkpt>
      <trkpt lat="45.96305" lon="3.9014">
        <ele>695</ele>
        <time>2024-12-08T05:42:05.619Z</time>
      </trkpt>
      <trkpt lat="45.96305" lon="3.90142">
        <ele>695</ele>
        <time>2024-12-08T05:42:06.619Z</time>
      </trkpt>
      <trkpt lat="45.96305" lon="3.90144">
        <ele>695</ele>
        <time>2024-12-08T05:42:07.620Z</time>
      </trkpt>
      <trkpt lat="45.96305" lon="3.90146">
        <ele>695</ele>
        <time>2024-12-08T05:42:08.619Z</time>
      </trkpt>
      <trkpt lat="45.96305" lon="3.90149">
        <ele>695</ele>
        <time>2024-12-08T05:42:09.620Z</time>
      </trkpt>
      <trkpt lat="45.96305" lon="3.9015">
        <ele>694</ele>
        <time>2024-12-08T05:42:10.619Z</time>
      </trkpt>
      <trkpt lat="45.96305" lon="3.90153">
        <ele>694</ele>
        <time>2024-12-08T05:42:11.619Z</time>
      </trkpt>
      <trkpt lat="45.96305" lon="3.90155">
        <ele>693</ele>
        <time>2024-12-08T05:42:12.619Z</time>
      </trkpt>
      <trkpt lat="45.96305" lon="3.90157">
        <ele>693</ele>
        <time>2024-12-08T05:42:13.619Z</time>
      </trkpt>
      <trkpt lat="45.96305" lon="3.90159">
        <ele>693</ele>
        <time>2024-12-08T05:42:14.619Z</time>
      </trkpt>
      <trkpt lat="45.96305" lon="3.90161">
        <ele>693</ele>
        <time>2024-12-08T05:42:15.619Z</time>
      </trkpt>
      <trkpt lat="45.96305" lon="3.90164">
        <ele>692</ele>
        <time>2024-12-08T05:42:16.620Z</time>
      </trkpt>
      <trkpt lat="45.96306" lon="3.90166">
        <ele>692</ele>
        <time>2024-12-08T05:42:17.619Z</time>
      </trkpt>
      <trkpt lat="45.96306" lon="3.90168">
        <ele>692</ele>
        <time>2024-12-08T05:42:18.619Z</time>
      </trkpt>
      <trkpt lat="45.96306" lon="3.9017">
        <ele>692</ele>
        <time>2024-12-08T05:42:19.620Z</time>
      </trkpt>
      <trkpt lat="45.96307" lon="3.90172">
        <ele>692</ele>
        <time>2024-12-08T05:42:20.619Z</time>
      </trkpt>
      <trkpt lat="45.96307" lon="3.90174">
        <ele>693</ele>
        <time>2024-12-08T05:42:21.619Z</time>
      </trkpt>
      <trkpt lat="45.96308" lon="3.90176">
        <ele>693</ele>
        <time>2024-12-08T05:42:22.619Z</time>
      </trkpt>
      <trkpt lat="45.96308" lon="3.90178">
        <ele>694</ele>
        <time>2024-12-08T05:42:23.619Z</time>
      </trkpt>
      <trkpt lat="45.96308" lon="3.9018">
        <ele>694</ele>
        <time>2024-12-08T05:42:24.620Z</time>
      </trkpt>
      <trkpt lat="45.96309" lon="3.90182">
        <ele>694</ele>
        <time>2024-12-08T05:42:25.619Z</time>
      </trkpt>
      <trkpt lat="45.96309" lon="3.90185">
        <ele>694</ele>
        <time>2024-12-08T05:42:26.620Z</time>
      </trkpt>
      <trkpt lat="45.9631" lon="3.90187">
        <ele>695</ele>
        <time>2024-12-08T05:42:27.620Z</time>
      </trkpt>
      <trkpt lat="45.9631" lon="3.90189">
        <ele>695</ele>
        <time>2024-12-08T05:42:28.620Z</time>
      </trkpt>
      <trkpt lat="45.96311" lon="3.90192">
        <ele>695</ele>
        <time>2024-12-08T05:42:29.620Z</time>
      </trkpt>
      <trkpt lat="45.96311" lon="3.90194">
        <ele>695</ele>
        <time>2024-12-08T05:42:30.619Z</time>
      </trkpt>
      <trkpt lat="45.96311" lon="3.90195">
        <ele>695</ele>
        <time>2024-12-08T05:42:31.620Z</time>
      </trkpt>
      <trkpt lat="45.96312" lon="3.90198">
        <ele>695</ele>
        <time>2024-12-08T05:42:32.620Z</time>
      </trkpt>
      <trkpt lat="45.96312" lon="3.902">
        <ele>694</ele>
        <time>2024-12-08T05:42:33.619Z</time>
      </trkpt>
      <trkpt lat="45.96312" lon="3.90202">
        <ele>694</ele>
        <time>2024-12-08T05:42:34.620Z</time>
      </trkpt>
      <trkpt lat="45.96313" lon="3.90204">
        <ele>694</ele>
        <time>2024-12-08T05:42:35.620Z</time>
      </trkpt>
      <trkpt lat="45.96313" lon="3.90206">
        <ele>693</ele>
        <time>2024-12-08T05:42:36.620Z</time>
      </trkpt>
      <trkpt lat="45.96314" lon="3.90209">
        <ele>693</ele>
        <time>2024-12-08T05:42:37.619Z</time>
      </trkpt>
      <trkpt lat="45.96314" lon="3.90211">
        <ele>693</ele>
        <time>2024-12-08T05:42:38.620Z</time>
      </trkpt>
      <trkpt lat="45.96315" lon="3.90212">
        <ele>693</ele>
        <time>2024-12-08T05:42:39.620Z</time>
      </trkpt>
      <trkpt lat="45.96316" lon="3.90214">
        <ele>692</ele>
        <time>2024-12-08T05:42:40.619Z</time>
      </trkpt>
      <trkpt lat="45.96316" lon="3.90216">
        <ele>692</ele>
        <time>2024-12-08T05:42:41.620Z</time>
      </trkpt>
      <trkpt lat="45.96317" lon="3.90218">
        <ele>692</ele>
        <time>2024-12-08T05:42:42.619Z</time>
      </trkpt>
      <trkpt lat="45.96317" lon="3.9022">
        <ele>691</ele>
        <time>2024-12-08T05:42:43.619Z</time>
      </trkpt>
      <trkpt lat="45.96318" lon="3.90222">
        <ele>691</ele>
        <time>2024-12-08T05:42:44.619Z</time>
      </trkpt>
      <trkpt lat="45.96319" lon="3.90224">
        <ele>691</ele>
        <time>2024-12-08T05:42:45.619Z</time>
      </trkpt>
      <trkpt lat="45.96319" lon="3.90227">
        <ele>691</ele>
        <time>2024-12-08T05:42:46.620Z</time>
      </trkpt>
      <trkpt lat="45.96319" lon="3.90229">
        <ele>691</ele>
        <time>2024-12-08T05:42:47.619Z</time>
      </trkpt>
      <trkpt lat="45.96319" lon="3.90232">
        <ele>691</ele>
        <time>2024-12-08T05:42:48.620Z</time>
      </trkpt>
      <trkpt lat="45.9632" lon="3.90234">
        <ele>690</ele>
        <time>2024-12-08T05:42:49.620Z</time>
      </trkpt>
      <trkpt lat="45.9632" lon="3.90236">
        <ele>690</ele>
        <time>2024-12-08T05:42:50.619Z</time>
      </trkpt>
      <trkpt lat="45.96321" lon="3.90238">
        <ele>690</ele>
        <time>2024-12-08T05:42:51.619Z</time>
      </trkpt>
      <trkpt lat="45.96322" lon="3.9024">
        <ele>690</ele>
        <time>2024-12-08T05:42:52.619Z</time>
      </trkpt>
      <trkpt lat="45.96323" lon="3.90242">
        <ele>689</ele>
        <time>2024-12-08T05:42:53.619Z</time>
      </trkpt>
      <trkpt lat="45.96324" lon="3.90244">
        <ele>689</ele>
        <time>2024-12-08T05:42:54.620Z</time>
      </trkpt>
      <trkpt lat="45.96324" lon="3.90246">
        <ele>689</ele>
        <time>2024-12-08T05:42:55.620Z</time>
      </trkpt>
      <trkpt lat="45.96324" lon="3.90247">
        <ele>689</ele>
        <time>2024-12-08T05:42:56.620Z</time>
      </trkpt>
      <trkpt lat="45.96325" lon="3.90249">
        <ele>689</ele>
        <time>2024-12-08T05:42:57.619Z</time>
      </trkpt>
      <trkpt lat="45.96325" lon="3.9025">
        <ele>689</ele>
        <time>2024-12-08T05:42:58.619Z</time>
      </trkpt>
      <trkpt lat="45.96326" lon="3.90252">
        <ele>689</ele>
        <time>2024-12-08T05:42:59.620Z</time>
      </trkpt>
      <trkpt lat="45.96326" lon="3.90255">
        <ele>688</ele>
        <time>2024-12-08T05:43:00.619Z</time>
      </trkpt>
      <trkpt lat="45.96326" lon="3.90257">
        <ele>688</ele>
        <time>2024-12-08T05:43:01.620Z</time>
      </trkpt>
      <trkpt lat="45.96326" lon="3.90259">
        <ele>688</ele>
        <time>2024-12-08T05:43:02.620Z</time>
      </trkpt>
      <trkpt lat="45.96327" lon="3.90262">
        <ele>688</ele>
        <time>2024-12-08T05:43:03.619Z</time>
      </trkpt>
      <trkpt lat="45.96327" lon="3.90265">
        <ele>688</ele>
        <time>2024-12-08T05:43:04.620Z</time>
      </trkpt>
      <trkpt lat="45.96328" lon="3.90267">
        <ele>688</ele>
        <time>2024-12-08T05:43:05.620Z</time>
      </trkpt>
      <trkpt lat="45.96329" lon="3.9027">
        <ele>688</ele>
        <time>2024-12-08T05:43:06.619Z</time>
      </trkpt>
      <trkpt lat="45.9633" lon="3.90273">
        <ele>688</ele>
        <time>2024-12-08T05:43:07.619Z</time>
      </trkpt>
      <trkpt lat="45.9633" lon="3.90275">
        <ele>688</ele>
        <time>2024-12-08T05:43:08.619Z</time>
      </trkpt>
      <trkpt lat="45.96331" lon="3.90277">
        <ele>688</ele>
        <time>2024-12-08T05:43:09.619Z</time>
      </trkpt>
      <trkpt lat="45.96331" lon="3.90279">
        <ele>688</ele>
        <time>2024-12-08T05:43:10.619Z</time>
      </trkpt>
      <trkpt lat="45.96332" lon="3.90281">
        <ele>688</ele>
        <time>2024-12-08T05:43:11.620Z</time>
      </trkpt>
      <trkpt lat="45.96333" lon="3.90283">
        <ele>689</ele>
        <time>2024-12-08T05:43:12.620Z</time>
      </trkpt>
      <trkpt lat="45.96333" lon="3.90285">
        <ele>689</ele>
        <time>2024-12-08T05:43:13.619Z</time>
      </trkpt>
      <trkpt lat="45.96334" lon="3.90287">
        <ele>689</ele>
        <time>2024-12-08T05:43:14.620Z</time>
      </trkpt>
      <trkpt lat="45.96335" lon="3.90289">
        <ele>689</ele>
        <time>2024-12-08T05:43:15.620Z</time>
      </trkpt>
      <trkpt lat="45.96335" lon="3.90291">
        <ele>689</ele>
        <time>2024-12-08T05:43:16.620Z</time>
      </trkpt>
      <trkpt lat="45.96336" lon="3.90293">
        <ele>690</ele>
        <time>2024-12-08T05:43:17.620Z</time>
      </trkpt>
      <trkpt lat="45.96336" lon="3.90295">
        <ele>690</ele>
        <time>2024-12-08T05:43:18.620Z</time>
      </trkpt>
      <trkpt lat="45.96337" lon="3.90296">
        <ele>690</ele>
        <time>2024-12-08T05:43:19.620Z</time>
      </trkpt>
      <trkpt lat="45.96338" lon="3.90298">
        <ele>690</ele>
        <time>2024-12-08T05:43:20.620Z</time>
      </trkpt>
      <trkpt lat="45.96338" lon="3.903">
        <ele>690</ele>
        <time>2024-12-08T05:43:21.620Z</time>
      </trkpt>
      <trkpt lat="45.96339" lon="3.90301">
        <ele>690</ele>
        <time>2024-12-08T05:43:22.619Z</time>
      </trkpt>
      <trkpt lat="45.96339" lon="3.90303">
        <ele>691</ele>
        <time>2024-12-08T05:43:23.620Z</time>
      </trkpt>
      <trkpt lat="45.96339" lon="3.90305">
        <ele>691</ele>
        <time>2024-12-08T05:43:24.619Z</time>
      </trkpt>
      <trkpt lat="45.96339" lon="3.90306">
        <ele>691</ele>
        <time>2024-12-08T05:43:25.619Z</time>
      </trkpt>
      <trkpt lat="45.9634" lon="3.90308">
        <ele>691</ele>
        <time>2024-12-08T05:43:26.619Z</time>
      </trkpt>
      <trkpt lat="45.96341" lon="3.9031">
        <ele>691</ele>
        <time>2024-12-08T05:43:27.620Z</time>
      </trkpt>
      <trkpt lat="45.96341" lon="3.90312">
        <ele>691</ele>
        <time>2024-12-08T05:43:28.619Z</time>
      </trkpt>
      <trkpt lat="45.96342" lon="3.90314">
        <ele>691</ele>
        <time>2024-12-08T05:43:29.620Z</time>
      </trkpt>
      <trkpt lat="45.96342" lon="3.90316">
        <ele>690</ele>
        <time>2024-12-08T05:43:30.620Z</time>
      </trkpt>
      <trkpt lat="45.96343" lon="3.90318">
        <ele>690</ele>
        <time>2024-12-08T05:43:31.619Z</time>
      </trkpt>
      <trkpt lat="45.96344" lon="3.9032">
        <ele>690</ele>
        <time>2024-12-08T05:43:32.619Z</time>
      </trkpt>
      <trkpt lat="45.96344" lon="3.90322">
        <ele>689</ele>
        <time>2024-12-08T05:43:33.620Z</time>
      </trkpt>
      <trkpt lat="45.96345" lon="3.90325">
        <ele>689</ele>
        <time>2024-12-08T05:43:34.620Z</time>
      </trkpt>
      <trkpt lat="45.96346" lon="3.90326">
        <ele>689</ele>
        <time>2024-12-08T05:43:35.619Z</time>
      </trkpt>
      <trkpt lat="45.96346" lon="3.90328">
        <ele>689</ele>
        <time>2024-12-08T05:43:36.619Z</time>
      </trkpt>
      <trkpt lat="45.96347" lon="3.90331">
        <ele>688</ele>
        <time>2024-12-08T05:43:37.619Z</time>
      </trkpt>
      <trkpt lat="45.96347" lon="3.90333">
        <ele>688</ele>
        <time>2024-12-08T05:43:38.620Z</time>
      </trkpt>
      <trkpt lat="45.96348" lon="3.90335">
        <ele>688</ele>
        <time>2024-12-08T05:43:39.619Z</time>
      </trkpt>
      <trkpt lat="45.96348" lon="3.90337">
        <ele>688</ele>
        <time>2024-12-08T05:43:40.619Z</time>
      </trkpt>
      <trkpt lat="45.96348" lon="3.9034">
        <ele>688</ele>
        <time>2024-12-08T05:43:41.620Z</time>
      </trkpt>
      <trkpt lat="45.96348" lon="3.90342">
        <ele>688</ele>
        <time>2024-12-08T05:43:42.620Z</time>
      </trkpt>
      <trkpt lat="45.96349" lon="3.90343">
        <ele>688</ele>
        <time>2024-12-08T05:43:43.619Z</time>
      </trkpt>
      <trkpt lat="45.96349" lon="3.90345">
        <ele>688</ele>
        <time>2024-12-08T05:43:44.620Z</time>
      </trkpt>
      <trkpt lat="45.9635" lon="3.90347">
        <ele>688</ele>
        <time>2024-12-08T05:43:45.619Z</time>
      </trkpt>
      <trkpt lat="45.96351" lon="3.9035">
        <ele>689</ele>
        <time>2024-12-08T05:43:46.619Z</time>
      </trkpt>
      <trkpt lat="45.96352" lon="3.90351">
        <ele>689</ele>
        <time>2024-12-08T05:43:47.619Z</time>
      </trkpt>
      <trkpt lat="45.96352" lon="3.90353">
        <ele>689</ele>
        <time>2024-12-08T05:43:48.619Z</time>
      </trkpt>
      <trkpt lat="45.96353" lon="3.90356">
        <ele>688</ele>
        <time>2024-12-08T05:43:49.619Z</time>
      </trkpt>
      <trkpt lat="45.96353" lon="3.90357">
        <ele>688</ele>
        <time>2024-12-08T05:43:50.619Z</time>
      </trkpt>
      <trkpt lat="45.96354" lon="3.9036">
        <ele>687</ele>
        <time>2024-12-08T05:43:51.620Z</time>
      </trkpt>
      <trkpt lat="45.96354" lon="3.90362">
        <ele>687</ele>
        <time>2024-12-08T05:43:52.620Z</time>
      </trkpt>
      <trkpt lat="45.96355" lon="3.90364">
        <ele>687</ele>
        <time>2024-12-08T05:43:53.620Z</time>
      </trkpt>
      <trkpt lat="45.96356" lon="3.90366">
        <ele>686</ele>
        <time>2024-12-08T05:43:54.620Z</time>
      </trkpt>
      <trkpt lat="45.96356" lon="3.90369">
        <ele>686</ele>
        <time>2024-12-08T05:43:55.619Z</time>
      </trkpt>
      <trkpt lat="45.96356" lon="3.90371">
        <ele>686</ele>
        <time>2024-12-08T05:43:56.620Z</time>
      </trkpt>
      <trkpt lat="45.96357" lon="3.90373">
        <ele>686</ele>
        <time>2024-12-08T05:43:57.619Z</time>
      </trkpt>
      <trkpt lat="45.96358" lon="3.90376">
        <ele>686</ele>
        <time>2024-12-08T05:43:58.620Z</time>
      </trkpt>
      <trkpt lat="45.96358" lon="3.90377">
        <ele>686</ele>
        <time>2024-12-08T05:43:59.620Z</time>
      </trkpt>
      <trkpt lat="45.96359" lon="3.90379">
        <ele>686</ele>
        <time>2024-12-08T05:44:00.619Z</time>
      </trkpt>
      <trkpt lat="45.96359" lon="3.90381">
        <ele>686</ele>
        <time>2024-12-08T05:44:01.619Z</time>
      </trkpt>
      <trkpt lat="45.9636" lon="3.90383">
        <ele>686</ele>
        <time>2024-12-08T05:44:02.619Z</time>
      </trkpt>
      <trkpt lat="45.96361" lon="3.90385">
        <ele>685</ele>
        <time>2024-12-08T05:44:03.619Z</time>
      </trkpt>
      <trkpt lat="45.96361" lon="3.90388">
        <ele>685</ele>
        <time>2024-12-08T05:44:04.620Z</time>
      </trkpt>
      <trkpt lat="45.96362" lon="3.9039">
        <ele>685</ele>
        <time>2024-12-08T05:44:05.620Z</time>
      </trkpt>
      <trkpt lat="45.96363" lon="3.90393">
        <ele>684</ele>
        <time>2024-12-08T05:44:06.620Z</time>
      </trkpt>
      <trkpt lat="45.96363" lon="3.90395">
        <ele>684</ele>
        <time>2024-12-08T05:44:07.620Z</time>
      </trkpt>
      <trkpt lat="45.96364" lon="3.90397">
        <ele>684</ele>
        <time>2024-12-08T05:44:08.620Z</time>
      </trkpt>
      <trkpt lat="45.96364" lon="3.90398">
        <ele>683</ele>
        <time>2024-12-08T05:44:09.619Z</time>
      </trkpt>
      <trkpt lat="45.96365" lon="3.904">
        <ele>683</ele>
        <time>2024-12-08T05:44:10.619Z</time>
      </trkpt>
      <trkpt lat="45.96365" lon="3.90402">
        <ele>682</ele>
        <time>2024-12-08T05:44:11.619Z</time>
      </trkpt>
      <trkpt lat="45.96366" lon="3.90404">
        <ele>682</ele>
        <time>2024-12-08T05:44:12.620Z</time>
      </trkpt>
      <trkpt lat="45.96367" lon="3.90405">
        <ele>682</ele>
        <time>2024-12-08T05:44:13.619Z</time>
      </trkpt>
      <trkpt lat="45.96368" lon="3.90407">
        <ele>682</ele>
        <time>2024-12-08T05:44:14.619Z</time>
      </trkpt>
      <trkpt lat="45.96368" lon="3.90409">
        <ele>682</ele>
        <time>2024-12-08T05:44:15.620Z</time>
      </trkpt>
      <trkpt lat="45.96368" lon="3.90411">
        <ele>682</ele>
        <time>2024-12-08T05:44:16.620Z</time>
      </trkpt>
      <trkpt lat="45.96369" lon="3.90413">
        <ele>682</ele>
        <time>2024-12-08T05:44:17.619Z</time>
      </trkpt>
      <trkpt lat="45.96369" lon="3.90415">
        <ele>682</ele>
        <time>2024-12-08T05:44:18.620Z</time>
      </trkpt>
      <trkpt lat="45.9637" lon="3.90417">
        <ele>683</ele>
        <time>2024-12-08T05:44:19.620Z</time>
      </trkpt>
      <trkpt lat="45.96371" lon="3.9042">
        <ele>683</ele>
        <time>2024-12-08T05:44:20.620Z</time>
      </trkpt>
      <trkpt lat="45.96372" lon="3.90421">
        <ele>683</ele>
        <time>2024-12-08T05:44:21.619Z</time>
      </trkpt>
      <trkpt lat="45.96373" lon="3.90423">
        <ele>683</ele>
        <time>2024-12-08T05:44:22.619Z</time>
      </trkpt>
      <trkpt lat="45.96373" lon="3.90425">
        <ele>683</ele>
        <time>2024-12-08T05:44:23.620Z</time>
      </trkpt>
      <trkpt lat="45.96374" lon="3.90428">
        <ele>683</ele>
        <time>2024-12-08T05:44:24.620Z</time>
      </trkpt>
      <trkpt lat="45.96374" lon="3.90431">
        <ele>683</ele>
        <time>2024-12-08T05:44:25.619Z</time>
      </trkpt>
      <trkpt lat="45.96375" lon="3.90433">
        <ele>683</ele>
        <time>2024-12-08T05:44:26.620Z</time>
      </trkpt>
      <trkpt lat="45.96376" lon="3.90435">
        <ele>682</ele>
        <time>2024-12-08T05:44:27.619Z</time>
      </trkpt>
      <trkpt lat="45.96377" lon="3.90438">
        <ele>682</ele>
        <time>2024-12-08T05:44:28.620Z</time>
      </trkpt>
      <trkpt lat="45.96378" lon="3.9044">
        <ele>683</ele>
        <time>2024-12-08T05:44:29.619Z</time>
      </trkpt>
      <trkpt lat="45.96379" lon="3.90442">
        <ele>683</ele>
        <time>2024-12-08T05:44:30.620Z</time>
      </trkpt>
      <trkpt lat="45.9638" lon="3.90444">
        <ele>683</ele>
        <time>2024-12-08T05:44:31.620Z</time>
      </trkpt>
      <trkpt lat="45.96381" lon="3.90446">
        <ele>683</ele>
        <time>2024-12-08T05:44:32.620Z</time>
      </trkpt>
      <trkpt lat="45.96382" lon="3.90448">
        <ele>683</ele>
        <time>2024-12-08T05:44:33.619Z</time>
      </trkpt>
      <trkpt lat="45.96383" lon="3.9045">
        <ele>684</ele>
        <time>2024-12-08T05:44:34.620Z</time>
      </trkpt>
      <trkpt lat="45.96384" lon="3.90451">
        <ele>684</ele>
        <time>2024-12-08T05:44:35.619Z</time>
      </trkpt>
      <trkpt lat="45.96385" lon="3.90453">
        <ele>684</ele>
        <time>2024-12-08T05:44:36.619Z</time>
      </trkpt>
      <trkpt lat="45.96386" lon="3.90455">
        <ele>684</ele>
        <time>2024-12-08T05:44:37.620Z</time>
      </trkpt>
      <trkpt lat="45.96387" lon="3.90456">
        <ele>685</ele>
        <time>2024-12-08T05:44:38.620Z</time>
      </trkpt>
      <trkpt lat="45.96388" lon="3.90458">
        <ele>685</ele>
        <time>2024-12-08T05:44:39.619Z</time>
      </trkpt>
      <trkpt lat="45.96389" lon="3.9046">
        <ele>685</ele>
        <time>2024-12-08T05:44:40.620Z</time>
      </trkpt>
      <trkpt lat="45.9639" lon="3.90461">
        <ele>685</ele>
        <time>2024-12-08T05:44:41.619Z</time>
      </trkpt>
      <trkpt lat="45.96391" lon="3.90464">
        <ele>685</ele>
        <time>2024-12-08T05:44:42.619Z</time>
      </trkpt>
      <trkpt lat="45.96392" lon="3.90466">
        <ele>685</ele>
        <time>2024-12-08T05:44:43.619Z</time>
      </trkpt>
      <trkpt lat="45.96393" lon="3.90467">
        <ele>685</ele>
        <time>2024-12-08T05:44:44.620Z</time>
      </trkpt>
      <trkpt lat="45.96394" lon="3.90469">
        <ele>685</ele>
        <time>2024-12-08T05:44:45.620Z</time>
      </trkpt>
      <trkpt lat="45.96395" lon="3.90471">
        <ele>685</ele>
        <time>2024-12-08T05:44:46.620Z</time>
      </trkpt>
      <trkpt lat="45.96396" lon="3.90472">
        <ele>685</ele>
        <time>2024-12-08T05:44:47.620Z</time>
      </trkpt>
      <trkpt lat="45.96397" lon="3.90474">
        <ele>685</ele>
        <time>2024-12-08T05:44:48.619Z</time>
      </trkpt>
      <trkpt lat="45.96398" lon="3.90476">
        <ele>685</ele>
        <time>2024-12-08T05:44:49.619Z</time>
      </trkpt>
      <trkpt lat="45.96399" lon="3.90478">
        <ele>685</ele>
        <time>2024-12-08T05:44:50.619Z</time>
      </trkpt>
      <trkpt lat="45.96399" lon="3.9048">
        <ele>684</ele>
        <time>2024-12-08T05:44:51.620Z</time>
      </trkpt>
      <trkpt lat="45.964" lon="3.90482">
        <ele>684</ele>
        <time>2024-12-08T05:44:52.620Z</time>
      </trkpt>
      <trkpt lat="45.96401" lon="3.90484">
        <ele>684</ele>
        <time>2024-12-08T05:44:53.619Z</time>
      </trkpt>
      <trkpt lat="45.96402" lon="3.90487">
        <ele>683</ele>
        <time>2024-12-08T05:44:54.619Z</time>
      </trkpt>
      <trkpt lat="45.96403" lon="3.90489">
        <ele>683</ele>
        <time>2024-12-08T05:44:55.620Z</time>
      </trkpt>
      <trkpt lat="45.96405" lon="3.90491">
        <ele>683</ele>
        <time>2024-12-08T05:44:56.620Z</time>
      </trkpt>
      <trkpt lat="45.96406" lon="3.90493">
        <ele>682</ele>
        <time>2024-12-08T05:44:57.619Z</time>
      </trkpt>
      <trkpt lat="45.96406" lon="3.90495">
        <ele>682</ele>
        <time>2024-12-08T05:44:58.619Z</time>
      </trkpt>
      <trkpt lat="45.96407" lon="3.90497">
        <ele>682</ele>
        <time>2024-12-08T05:44:59.620Z</time>
      </trkpt>
      <trkpt lat="45.96409" lon="3.90499">
        <ele>681</ele>
        <time>2024-12-08T05:45:00.620Z</time>
      </trkpt>
      <trkpt lat="45.96409" lon="3.90501">
        <ele>680</ele>
        <time>2024-12-08T05:45:01.620Z</time>
      </trkpt>
      <trkpt lat="45.9641" lon="3.90503">
        <ele>679</ele>
        <time>2024-12-08T05:45:02.620Z</time>
      </trkpt>
      <trkpt lat="45.96411" lon="3.90505">
        <ele>679</ele>
        <time>2024-12-08T05:45:03.620Z</time>
      </trkpt>
      <trkpt lat="45.96411" lon="3.90507">
        <ele>679</ele>
        <time>2024-12-08T05:45:04.620Z</time>
      </trkpt>
      <trkpt lat="45.96412" lon="3.90509">
        <ele>678</ele>
        <time>2024-12-08T05:45:05.619Z</time>
      </trkpt>
      <trkpt lat="45.96413" lon="3.90511">
        <ele>678</ele>
        <time>2024-12-08T05:45:06.619Z</time>
      </trkpt>
      <trkpt lat="45.96414" lon="3.90513">
        <ele>678</ele>
        <time>2024-12-08T05:45:07.619Z</time>
      </trkpt>
      <trkpt lat="45.96415" lon="3.90515">
        <ele>678</ele>
        <time>2024-12-08T05:45:08.619Z</time>
      </trkpt>
      <trkpt lat="45.96416" lon="3.90517">
        <ele>677</ele>
        <time>2024-12-08T05:45:09.620Z</time>
      </trkpt>
      <trkpt lat="45.96416" lon="3.90519">
        <ele>677</ele>
        <time>2024-12-08T05:45:10.620Z</time>
      </trkpt>
      <trkpt lat="45.96417" lon="3.90521">
        <ele>677</ele>
        <time>2024-12-08T05:45:11.620Z</time>
      </trkpt>
      <trkpt lat="45.96418" lon="3.90523">
        <ele>677</ele>
        <time>2024-12-08T05:45:12.619Z</time>
      </trkpt>
      <trkpt lat="45.9642" lon="3.90525">
        <ele>676</ele>
        <time>2024-12-08T05:45:13.619Z</time>
      </trkpt>
      <trkpt lat="45.96421" lon="3.90528">
        <ele>676</ele>
        <time>2024-12-08T05:45:14.619Z</time>
      </trkpt>
      <trkpt lat="45.96421" lon="3.90529">
        <ele>676</ele>
        <time>2024-12-08T05:45:15.620Z</time>
      </trkpt>
      <trkpt lat="45.96422" lon="3.90531">
        <ele>676</ele>
        <time>2024-12-08T05:45:16.619Z</time>
      </trkpt>
      <trkpt lat="45.96423" lon="3.90533">
        <ele>676</ele>
        <time>2024-12-08T05:45:17.620Z</time>
      </trkpt>
      <trkpt lat="45.96424" lon="3.90535">
        <ele>676</ele>
        <time>2024-12-08T05:45:18.619Z</time>
      </trkpt>
      <trkpt lat="45.96425" lon="3.90537">
        <ele>676</ele>
        <time>2024-12-08T05:45:19.620Z</time>
      </trkpt>
      <trkpt lat="45.96426" lon="3.90539">
        <ele>676</ele>
        <time>2024-12-08T05:45:20.619Z</time>
      </trkpt>
      <trkpt lat="45.96427" lon="3.90541">
        <ele>676</ele>
        <time>2024-12-08T05:45:21.619Z</time>
      </trkpt>
      <trkpt lat="45.96429" lon="3.90543">
        <ele>676</ele>
        <time>2024-12-08T05:45:22.619Z</time>
      </trkpt>
      <trkpt lat="45.9643" lon="3.90545">
        <ele>675</ele>
        <time>2024-12-08T05:45:23.619Z</time>
      </trkpt>
      <trkpt lat="45.9643" lon="3.90547">
        <ele>675</ele>
        <time>2024-12-08T05:45:24.619Z</time>
      </trkpt>
      <trkpt lat="45.96431" lon="3.9055">
        <ele>675</ele>
        <time>2024-12-08T05:45:25.619Z</time>
      </trkpt>
      <trkpt lat="45.96431" lon="3.90552">
        <ele>675</ele>
        <time>2024-12-08T05:45:26.620Z</time>
      </trkpt>
      <trkpt lat="45.96432" lon="3.90554">
        <ele>675</ele>
        <time>2024-12-08T05:45:27.619Z</time>
      </trkpt>
      <trkpt lat="45.96433" lon="3.90556">
        <ele>675</ele>
        <time>2024-12-08T05:45:28.619Z</time>
      </trkpt>
      <trkpt lat="45.96434" lon="3.90558">
        <ele>674</ele>
        <time>2024-12-08T05:45:29.620Z</time>
      </trkpt>
      <trkpt lat="45.96435" lon="3.9056">
        <ele>674</ele>
        <time>2024-12-08T05:45:30.620Z</time>
      </trkpt>
      <trkpt lat="45.96437" lon="3.90563">
        <ele>674</ele>
        <time>2024-12-08T05:45:31.619Z</time>
      </trkpt>
      <trkpt lat="45.96438" lon="3.90565">
        <ele>674</ele>
        <time>2024-12-08T05:45:32.620Z</time>
      </trkpt>
      <trkpt lat="45.96438" lon="3.90567">
        <ele>673</ele>
        <time>2024-12-08T05:45:33.620Z</time>
      </trkpt>
      <trkpt lat="45.96439" lon="3.90569">
        <ele>673</ele>
        <time>2024-12-08T05:45:34.619Z</time>
      </trkpt>
      <trkpt lat="45.9644" lon="3.90571">
        <ele>673</ele>
        <time>2024-12-08T05:45:35.620Z</time>
      </trkpt>
      <trkpt lat="45.9644" lon="3.90573">
        <ele>673</ele>
        <time>2024-12-08T05:45:36.620Z</time>
      </trkpt>
      <trkpt lat="45.96441" lon="3.90575">
        <ele>673</ele>
        <time>2024-12-08T05:45:37.619Z</time>
      </trkpt>
      <trkpt lat="45.96442" lon="3.90577">
        <ele>673</ele>
        <time>2024-12-08T05:45:38.620Z</time>
      </trkpt>
      <trkpt lat="45.96443" lon="3.90579">
        <ele>673</ele>
        <time>2024-12-08T05:45:39.619Z</time>
      </trkpt>
      <trkpt lat="45.96444" lon="3.90581">
        <ele>673</ele>
        <time>2024-12-08T05:45:40.619Z</time>
      </trkpt>
      <trkpt lat="45.96445" lon="3.90584">
        <ele>673</ele>
        <time>2024-12-08T05:45:41.620Z</time>
      </trkpt>
      <trkpt lat="45.96446" lon="3.90586">
        <ele>673</ele>
        <time>2024-12-08T05:45:42.619Z</time>
      </trkpt>
      <trkpt lat="45.96447" lon="3.90589">
        <ele>673</ele>
        <time>2024-12-08T05:45:43.619Z</time>
      </trkpt>
      <trkpt lat="45.96447" lon="3.90591">
        <ele>673</ele>
        <time>2024-12-08T05:45:44.620Z</time>
      </trkpt>
      <trkpt lat="45.96448" lon="3.90593">
        <ele>673</ele>
        <time>2024-12-08T05:45:45.620Z</time>
      </trkpt>
      <trkpt lat="45.96448" lon="3.90595">
        <ele>673</ele>
        <time>2024-12-08T05:45:46.620Z</time>
      </trkpt>
      <trkpt lat="45.96449" lon="3.90597">
        <ele>673</ele>
        <time>2024-12-08T05:45:47.619Z</time>
      </trkpt>
      <trkpt lat="45.9645" lon="3.90599">
        <ele>673</ele>
        <time>2024-12-08T05:45:48.619Z</time>
      </trkpt>
      <trkpt lat="45.96451" lon="3.90602">
        <ele>673</ele>
        <time>2024-12-08T05:45:49.619Z</time>
      </trkpt>
      <trkpt lat="45.96452" lon="3.90604">
        <ele>673</ele>
        <time>2024-12-08T05:45:50.619Z</time>
      </trkpt>
      <trkpt lat="45.96452" lon="3.90606">
        <ele>673</ele>
        <time>2024-12-08T05:45:51.619Z</time>
      </trkpt>
      <trkpt lat="45.96453" lon="3.90608">
        <ele>673</ele>
        <time>2024-12-08T05:45:52.620Z</time>
      </trkpt>
      <trkpt lat="45.96454" lon="3.9061">
        <ele>672</ele>
        <time>2024-12-08T05:45:53.619Z</time>
      </trkpt>
      <trkpt lat="45.96454" lon="3.90612">
        <ele>672</ele>
        <time>2024-12-08T05:45:54.619Z</time>
      </trkpt>
      <trkpt lat="45.96455" lon="3.90614">
        <ele>672</ele>
        <time>2024-12-08T05:45:55.619Z</time>
      </trkpt>
      <trkpt lat="45.96456" lon="3.90617">
        <ele>672</ele>
        <time>2024-12-08T05:45:56.620Z</time>
      </trkpt>
      <trkpt lat="45.96456" lon="3.90618">
        <ele>671</ele>
        <time>2024-12-08T05:45:57.620Z</time>
      </trkpt>
      <trkpt lat="45.96457" lon="3.90621">
        <ele>671</ele>
        <time>2024-12-08T05:45:58.620Z</time>
      </trkpt>
      <trkpt lat="45.96458" lon="3.90622">
        <ele>671</ele>
        <time>2024-12-08T05:45:59.620Z</time>
      </trkpt>
      <trkpt lat="45.96458" lon="3.90624">
        <ele>671</ele>
        <time>2024-12-08T05:46:00.620Z</time>
      </trkpt>
      <trkpt lat="45.96459" lon="3.90626">
        <ele>671</ele>
        <time>2024-12-08T05:46:01.619Z</time>
      </trkpt>
      <trkpt lat="45.9646" lon="3.90628">
        <ele>671</ele>
        <time>2024-12-08T05:46:02.620Z</time>
      </trkpt>
      <trkpt lat="45.96461" lon="3.9063">
        <ele>671</ele>
        <time>2024-12-08T05:46:03.619Z</time>
      </trkpt>
      <trkpt lat="45.96462" lon="3.90632">
        <ele>671</ele>
        <time>2024-12-08T05:46:04.619Z</time>
      </trkpt>
      <trkpt lat="45.96463" lon="3.90634">
        <ele>671</ele>
        <time>2024-12-08T05:46:05.619Z</time>
      </trkpt>
      <trkpt lat="45.96463" lon="3.90636">
        <ele>671</ele>
        <time>2024-12-08T05:46:06.619Z</time>
      </trkpt>
      <trkpt lat="45.96464" lon="3.90639">
        <ele>671</ele>
        <time>2024-12-08T05:46:07.620Z</time>
      </trkpt>
      <trkpt lat="45.96465" lon="3.90641">
        <ele>671</ele>
        <time>2024-12-08T05:46:08.619Z</time>
      </trkpt>
      <trkpt lat="45.96465" lon="3.90643">
        <ele>671</ele>
        <time>2024-12-08T05:46:09.619Z</time>
      </trkpt>
      <trkpt lat="45.96466" lon="3.90645">
        <ele>671</ele>
        <time>2024-12-08T05:46:10.620Z</time>
      </trkpt>
      <trkpt lat="45.96467" lon="3.90647">
        <ele>671</ele>
        <time>2024-12-08T05:46:11.619Z</time>
      </trkpt>
      <trkpt lat="45.96468" lon="3.90649">
        <ele>671</ele>
        <time>2024-12-08T05:46:12.620Z</time>
      </trkpt>
      <trkpt lat="45.96469" lon="3.9065">
        <ele>671</ele>
        <time>2024-12-08T05:46:13.619Z</time>
      </trkpt>
      <trkpt lat="45.96469" lon="3.90653">
        <ele>671</ele>
        <time>2024-12-08T05:46:14.619Z</time>
      </trkpt>
      <trkpt lat="45.9647" lon="3.90655">
        <ele>671</ele>
        <time>2024-12-08T05:46:15.620Z</time>
      </trkpt>
      <trkpt lat="45.96471" lon="3.90657">
        <ele>671</ele>
        <time>2024-12-08T05:46:16.620Z</time>
      </trkpt>
      <trkpt lat="45.96471" lon="3.90659">
        <ele>671</ele>
        <time>2024-12-08T05:46:17.619Z</time>
      </trkpt>
      <trkpt lat="45.96472" lon="3.90662">
        <ele>671</ele>
        <time>2024-12-08T05:46:18.619Z</time>
      </trkpt>
      <trkpt lat="45.96473" lon="3.90663">
        <ele>671</ele>
        <time>2024-12-08T05:46:19.619Z</time>
      </trkpt>
      <trkpt lat="45.96474" lon="3.90665">
        <ele>671</ele>
        <time>2024-12-08T05:46:20.619Z</time>
      </trkpt>
      <trkpt lat="45.96475" lon="3.90667">
        <ele>671</ele>
        <time>2024-12-08T05:46:21.620Z</time>
      </trkpt>
      <trkpt lat="45.96476" lon="3.90668">
        <ele>671</ele>
        <time>2024-12-08T05:46:22.620Z</time>
      </trkpt>
      <trkpt lat="45.96477" lon="3.9067">
        <ele>672</ele>
        <time>2024-12-08T05:46:23.620Z</time>
      </trkpt>
      <trkpt lat="45.96478" lon="3.90671">
        <ele>672</ele>
        <time>2024-12-08T05:46:24.619Z</time>
      </trkpt>
      <trkpt lat="45.96479" lon="3.90672">
        <ele>672</ele>
        <time>2024-12-08T05:46:25.619Z</time>
      </trkpt>
      <trkpt lat="45.96479" lon="3.90673">
        <ele>672</ele>
        <time>2024-12-08T05:46:26.620Z</time>
      </trkpt>
      <trkpt lat="45.9648" lon="3.90674">
        <ele>673</ele>
        <time>2024-12-08T05:46:27.619Z</time>
      </trkpt>
      <trkpt lat="45.96481" lon="3.90675">
        <ele>673</ele>
        <time>2024-12-08T05:46:28.619Z</time>
      </trkpt>
      <trkpt lat="45.96481" lon="3.90676">
        <ele>673</ele>
        <time>2024-12-08T05:46:29.619Z</time>
      </trkpt>
      <trkpt lat="45.96482" lon="3.90677">
        <ele>673</ele>
        <time>2024-12-08T05:46:30.620Z</time>
      </trkpt>
      <trkpt lat="45.96482" lon="3.90678">
        <ele>673</ele>
        <time>2024-12-08T05:46:31.619Z</time>
      </trkpt>
      <trkpt lat="45.96483" lon="3.9068">
        <ele>673</ele>
        <time>2024-12-08T05:46:32.619Z</time>
      </trkpt>
      <trkpt lat="45.96483" lon="3.90681">
        <ele>674</ele>
        <time>2024-12-08T05:46:33.620Z</time>
      </trkpt>
      <trkpt lat="45.96484" lon="3.90682">
        <ele>674</ele>
        <time>2024-12-08T05:46:34.620Z</time>
      </trkpt>
      <trkpt lat="45.96484" lon="3.90684">
        <ele>674</ele>
        <time>2024-12-08T05:46:35.619Z</time>
      </trkpt>
      <trkpt lat="45.96484" lon="3.90686">
        <ele>674</ele>
        <time>2024-12-08T05:46:36.619Z</time>
      </trkpt>
      <trkpt lat="45.96485" lon="3.90687">
        <ele>674</ele>
        <time>2024-12-08T05:46:37.620Z</time>
      </trkpt>
      <trkpt lat="45.96485" lon="3.90689">
        <ele>674</ele>
        <time>2024-12-08T05:46:38.620Z</time>
      </trkpt>
      <trkpt lat="45.96486" lon="3.90691">
        <ele>674</ele>
        <time>2024-12-08T05:46:39.619Z</time>
      </trkpt>
      <trkpt lat="45.96487" lon="3.90693">
        <ele>675</ele>
        <time>2024-12-08T05:46:40.619Z</time>
      </trkpt>
      <trkpt lat="45.96487" lon="3.90695">
        <ele>675</ele>
        <time>2024-12-08T05:46:41.620Z</time>
      </trkpt>
      <trkpt lat="45.96487" lon="3.90697">
        <ele>675</ele>
        <time>2024-12-08T05:46:42.620Z</time>
      </trkpt>
      <trkpt lat="45.96487" lon="3.90699">
        <ele>675</ele>
        <time>2024-12-08T05:46:43.620Z</time>
      </trkpt>
      <trkpt lat="45.96487" lon="3.90701">
        <ele>675</ele>
        <time>2024-12-08T05:46:44.619Z</time>
      </trkpt>
      <trkpt lat="45.96487" lon="3.90704">
        <ele>675</ele>
        <time>2024-12-08T05:46:45.620Z</time>
      </trkpt>
      <trkpt lat="45.96487" lon="3.90706">
        <ele>675</ele>
        <time>2024-12-08T05:46:46.620Z</time>
      </trkpt>
      <trkpt lat="45.96488" lon="3.90707">
        <ele>675</ele>
        <time>2024-12-08T05:46:47.620Z</time>
      </trkpt>
      <trkpt lat="45.96488" lon="3.90709">
        <ele>676</ele>
        <time>2024-12-08T05:46:48.620Z</time>
      </trkpt>
      <trkpt lat="45.96489" lon="3.90711">
        <ele>676</ele>
        <time>2024-12-08T05:46:49.619Z</time>
      </trkpt>
      <trkpt lat="45.96489" lon="3.90712">
        <ele>676</ele>
        <time>2024-12-08T05:46:50.620Z</time>
      </trkpt>
      <trkpt lat="45.96489" lon="3.90714">
        <ele>676</ele>
        <time>2024-12-08T05:46:51.619Z</time>
      </trkpt>
      <trkpt lat="45.9649" lon="3.90716">
        <ele>676</ele>
        <time>2024-12-08T05:46:52.619Z</time>
      </trkpt>
      <trkpt lat="45.96491" lon="3.90718">
        <ele>675</ele>
        <time>2024-12-08T05:46:53.620Z</time>
      </trkpt>
      <trkpt lat="45.96491" lon="3.9072">
        <ele>675</ele>
        <time>2024-12-08T05:46:54.619Z</time>
      </trkpt>
      <trkpt lat="45.96492" lon="3.90721">
        <ele>675</ele>
        <time>2024-12-08T05:46:55.620Z</time>
      </trkpt>
      <trkpt lat="45.96493" lon="3.90723">
        <ele>675</ele>
        <time>2024-12-08T05:46:56.619Z</time>
      </trkpt>
      <trkpt lat="45.96493" lon="3.90725">
        <ele>675</ele>
        <time>2024-12-08T05:46:57.620Z</time>
      </trkpt>
      <trkpt lat="45.96494" lon="3.90727">
        <ele>675</ele>
        <time>2024-12-08T05:46:58.620Z</time>
      </trkpt>
      <trkpt lat="45.96495" lon="3.90728">
        <ele>676</ele>
        <time>2024-12-08T05:46:59.620Z</time>
      </trkpt>
      <trkpt lat="45.96496" lon="3.9073">
        <ele>676</ele>
        <time>2024-12-08T05:47:00.620Z</time>
      </trkpt>
      <trkpt lat="45.96497" lon="3.90731">
        <ele>677</ele>
        <time>2024-12-08T05:47:01.619Z</time>
      </trkpt>
      <trkpt lat="45.96498" lon="3.90732">
        <ele>677</ele>
        <time>2024-12-08T05:47:02.619Z</time>
      </trkpt>
      <trkpt lat="45.965" lon="3.90733">
        <ele>677</ele>
        <time>2024-12-08T05:47:03.620Z</time>
      </trkpt>
      <trkpt lat="45.96501" lon="3.90734">
        <ele>677</ele>
        <time>2024-12-08T05:47:04.620Z</time>
      </trkpt>
      <trkpt lat="45.96502" lon="3.90735">
        <ele>677</ele>
        <time>2024-12-08T05:47:05.620Z</time>
      </trkpt>
      <trkpt lat="45.96503" lon="3.90735">
        <ele>677</ele>
        <time>2024-12-08T05:47:06.619Z</time>
      </trkpt>
      <trkpt lat="45.96504" lon="3.90736">
        <ele>677</ele>
        <time>2024-12-08T05:47:07.620Z</time>
      </trkpt>
      <trkpt lat="45.96505" lon="3.90737">
        <ele>677</ele>
        <time>2024-12-08T05:47:08.619Z</time>
      </trkpt>
      <trkpt lat="45.96506" lon="3.90737">
        <ele>677</ele>
        <time>2024-12-08T05:47:09.619Z</time>
      </trkpt>
      <trkpt lat="45.96507" lon="3.90737">
        <ele>678</ele>
        <time>2024-12-08T05:47:10.619Z</time>
      </trkpt>
      <trkpt lat="45.96508" lon="3.90737">
        <ele>678</ele>
        <time>2024-12-08T05:47:11.620Z</time>
      </trkpt>
      <trkpt lat="45.96509" lon="3.90738">
        <ele>678</ele>
        <time>2024-12-08T05:47:12.620Z</time>
      </trkpt>
      <trkpt lat="45.9651" lon="3.90738">
        <ele>678</ele>
        <time>2024-12-08T05:47:13.620Z</time>
      </trkpt>
      <trkpt lat="45.96511" lon="3.90739">
        <ele>678</ele>
        <time>2024-12-08T05:47:14.619Z</time>
      </trkpt>
      <trkpt lat="45.96512" lon="3.90741">
        <ele>679</ele>
        <time>2024-12-08T05:47:15.620Z</time>
      </trkpt>
      <trkpt lat="45.96512" lon="3.90742">
        <ele>679</ele>
        <time>2024-12-08T05:47:16.619Z</time>
      </trkpt>
      <trkpt lat="45.96513" lon="3.90744">
        <ele>679</ele>
        <time>2024-12-08T05:47:17.620Z</time>
      </trkpt>
      <trkpt lat="45.96514" lon="3.90747">
        <ele>679</ele>
        <time>2024-12-08T05:47:18.619Z</time>
      </trkpt>
      <trkpt lat="45.96514" lon="3.90749">
        <ele>679</ele>
        <time>2024-12-08T05:47:19.620Z</time>
      </trkpt>
      <trkpt lat="45.96515" lon="3.90751">
        <ele>680</ele>
        <time>2024-12-08T05:47:20.619Z</time>
      </trkpt>
      <trkpt lat="45.96515" lon="3.90754">
        <ele>680</ele>
        <time>2024-12-08T05:47:21.620Z</time>
      </trkpt>
      <trkpt lat="45.96516" lon="3.90755">
        <ele>680</ele>
        <time>2024-12-08T05:47:22.620Z</time>
      </trkpt>
      <trkpt lat="45.96517" lon="3.90758">
        <ele>680</ele>
        <time>2024-12-08T05:47:23.619Z</time>
      </trkpt>
      <trkpt lat="45.96518" lon="3.90759">
        <ele>680</ele>
        <time>2024-12-08T05:47:24.619Z</time>
      </trkpt>
      <trkpt lat="45.96519" lon="3.90761">
        <ele>680</ele>
        <time>2024-12-08T05:47:25.620Z</time>
      </trkpt>
      <trkpt lat="45.9652" lon="3.90762">
        <ele>680</ele>
        <time>2024-12-08T05:47:26.619Z</time>
      </trkpt>
      <trkpt lat="45.96521" lon="3.90763">
        <ele>680</ele>
        <time>2024-12-08T05:47:27.620Z</time>
      </trkpt>
      <trkpt lat="45.96522" lon="3.90764">
        <ele>680</ele>
        <time>2024-12-08T05:47:28.619Z</time>
      </trkpt>
      <trkpt lat="45.96524" lon="3.90765">
        <ele>680</ele>
        <time>2024-12-08T05:47:29.620Z</time>
      </trkpt>
      <trkpt lat="45.96525" lon="3.90765">
        <ele>680</ele>
        <time>2024-12-08T05:47:30.619Z</time>
      </trkpt>
      <trkpt lat="45.96527" lon="3.90766">
        <ele>680</ele>
        <time>2024-12-08T05:47:31.620Z</time>
      </trkpt>
      <trkpt lat="45.96528" lon="3.90767">
        <ele>679</ele>
        <time>2024-12-08T05:47:32.620Z</time>
      </trkpt>
      <trkpt lat="45.9653" lon="3.90768">
        <ele>679</ele>
        <time>2024-12-08T05:47:33.620Z</time>
      </trkpt>
      <trkpt lat="45.96531" lon="3.90769">
        <ele>679</ele>
        <time>2024-12-08T05:47:34.620Z</time>
      </trkpt>
      <trkpt lat="45.96533" lon="3.90769">
        <ele>679</ele>
        <time>2024-12-08T05:47:35.620Z</time>
      </trkpt>
      <trkpt lat="45.96535" lon="3.9077">
        <ele>679</ele>
        <time>2024-12-08T05:47:36.619Z</time>
      </trkpt>
      <trkpt lat="45.96536" lon="3.90771">
        <ele>679</ele>
        <time>2024-12-08T05:47:37.620Z</time>
      </trkpt>
      <trkpt lat="45.96538" lon="3.90772">
        <ele>679</ele>
        <time>2024-12-08T05:47:38.620Z</time>
      </trkpt>
      <trkpt lat="45.96539" lon="3.90773">
        <ele>678</ele>
        <time>2024-12-08T05:47:39.619Z</time>
      </trkpt>
      <trkpt lat="45.96541" lon="3.90774">
        <ele>678</ele>
        <time>2024-12-08T05:47:40.620Z</time>
      </trkpt>
      <trkpt lat="45.96543" lon="3.90775">
        <ele>678</ele>
        <time>2024-12-08T05:47:41.619Z</time>
      </trkpt>
      <trkpt lat="45.96544" lon="3.90776">
        <ele>678</ele>
        <time>2024-12-08T05:47:42.620Z</time>
      </trkpt>
      <trkpt lat="45.96545" lon="3.90776">
        <ele>678</ele>
        <time>2024-12-08T05:47:43.620Z</time>
      </trkpt>
      <trkpt lat="45.96547" lon="3.90777">
        <ele>678</ele>
        <time>2024-12-08T05:47:44.620Z</time>
      </trkpt>
      <trkpt lat="45.96549" lon="3.90778">
        <ele>678</ele>
        <time>2024-12-08T05:47:45.619Z</time>
      </trkpt>
      <trkpt lat="45.9655" lon="3.90779">
        <ele>678</ele>
        <time>2024-12-08T05:47:46.619Z</time>
      </trkpt>
      <trkpt lat="45.96552" lon="3.9078">
        <ele>678</ele>
        <time>2024-12-08T05:47:47.620Z</time>
      </trkpt>
      <trkpt lat="45.96553" lon="3.9078">
        <ele>678</ele>
        <time>2024-12-08T05:47:48.619Z</time>
      </trkpt>
      <trkpt lat="45.96555" lon="3.90781">
        <ele>678</ele>
        <time>2024-12-08T05:47:49.620Z</time>
      </trkpt>
      <trkpt lat="45.96556" lon="3.90782">
        <ele>678</ele>
        <time>2024-12-08T05:47:50.619Z</time>
      </trkpt>
      <trkpt lat="45.96558" lon="3.90783">
        <ele>678</ele>
        <time>2024-12-08T05:47:51.619Z</time>
      </trkpt>
      <trkpt lat="45.96559" lon="3.90784">
        <ele>678</ele>
        <time>2024-12-08T05:47:52.619Z</time>
      </trkpt>
      <trkpt lat="45.9656" lon="3.90785">
        <ele>678</ele>
        <time>2024-12-08T05:47:53.619Z</time>
      </trkpt>
      <trkpt lat="45.96561" lon="3.90786">
        <ele>678</ele>
        <time>2024-12-08T05:47:54.620Z</time>
      </trkpt>
      <trkpt lat="45.96563" lon="3.90787">
        <ele>678</ele>
        <time>2024-12-08T05:47:55.619Z</time>
      </trkpt>
      <trkpt lat="45.96564" lon="3.90788">
        <ele>678</ele>
        <time>2024-12-08T05:47:56.620Z</time>
      </trkpt>
      <trkpt lat="45.96565" lon="3.9079">
        <ele>677</ele>
        <time>2024-12-08T05:47:57.619Z</time>
      </trkpt>
      <trkpt lat="45.96566" lon="3.90792">
        <ele>677</ele>
        <time>2024-12-08T05:47:58.619Z</time>
      </trkpt>
      <trkpt lat="45.96567" lon="3.90793">
        <ele>677</ele>
        <time>2024-12-08T05:47:59.619Z</time>
      </trkpt>
      <trkpt lat="45.96568" lon="3.90795">
        <ele>676</ele>
        <time>2024-12-08T05:48:00.619Z</time>
      </trkpt>
      <trkpt lat="45.96568" lon="3.90797">
        <ele>676</ele>
        <time>2024-12-08T05:48:01.620Z</time>
      </trkpt>
      <trkpt lat="45.96569" lon="3.908">
        <ele>676</ele>
        <time>2024-12-08T05:48:02.620Z</time>
      </trkpt>
      <trkpt lat="45.96569" lon="3.90802">
        <ele>676</ele>
        <time>2024-12-08T05:48:03.620Z</time>
      </trkpt>
      <trkpt lat="45.9657" lon="3.90805">
        <ele>676</ele>
        <time>2024-12-08T05:48:04.619Z</time>
      </trkpt>
      <trkpt lat="45.9657" lon="3.90808">
        <ele>676</ele>
        <time>2024-12-08T05:48:05.619Z</time>
      </trkpt>
      <trkpt lat="45.9657" lon="3.9081">
        <ele>676</ele>
        <time>2024-12-08T05:48:06.620Z</time>
      </trkpt>
      <trkpt lat="45.9657" lon="3.90812">
        <ele>676</ele>
        <time>2024-12-08T05:48:07.619Z</time>
      </trkpt>
      <trkpt lat="45.96569" lon="3.90815">
        <ele>676</ele>
        <time>2024-12-08T05:48:08.620Z</time>
      </trkpt>
      <trkpt lat="45.96569" lon="3.90817">
        <ele>676</ele>
        <time>2024-12-08T05:48:09.619Z</time>
      </trkpt>
      <trkpt lat="45.96569" lon="3.9082">
        <ele>676</ele>
        <time>2024-12-08T05:48:10.619Z</time>
      </trkpt>
      <trkpt lat="45.96569" lon="3.90822">
        <ele>676</ele>
        <time>2024-12-08T05:48:11.619Z</time>
      </trkpt>
      <trkpt lat="45.96568" lon="3.90825">
        <ele>676</ele>
        <time>2024-12-08T05:48:12.620Z</time>
      </trkpt>
      <trkpt lat="45.96568" lon="3.90828">
        <ele>676</ele>
        <time>2024-12-08T05:48:13.620Z</time>
      </trkpt>
      <trkpt lat="45.96568" lon="3.9083">
        <ele>676</ele>
        <time>2024-12-08T05:48:14.620Z</time>
      </trkpt>
      <trkpt lat="45.96568" lon="3.90832">
        <ele>676</ele>
        <time>2024-12-08T05:48:15.620Z</time>
      </trkpt>
      <trkpt lat="45.96568" lon="3.90835">
        <ele>676</ele>
        <time>2024-12-08T05:48:16.619Z</time>
      </trkpt>
      <trkpt lat="45.96567" lon="3.90838">
        <ele>675</ele>
        <time>2024-12-08T05:48:17.619Z</time>
      </trkpt>
      <trkpt lat="45.96567" lon="3.9084">
        <ele>675</ele>
        <time>2024-12-08T05:48:18.619Z</time>
      </trkpt>
      <trkpt lat="45.96566" lon="3.90842">
        <ele>675</ele>
        <time>2024-12-08T05:48:19.620Z</time>
      </trkpt>
      <trkpt lat="45.96565" lon="3.90844">
        <ele>675</ele>
        <time>2024-12-08T05:48:20.619Z</time>
      </trkpt>
      <trkpt lat="45.96565" lon="3.90846">
        <ele>675</ele>
        <time>2024-12-08T05:48:21.620Z</time>
      </trkpt>
      <trkpt lat="45.96564" lon="3.90848">
        <ele>675</ele>
        <time>2024-12-08T05:48:22.620Z</time>
      </trkpt>
      <trkpt lat="45.96563" lon="3.90849">
        <ele>675</ele>
        <time>2024-12-08T05:48:23.620Z</time>
      </trkpt>
      <trkpt lat="45.96561" lon="3.9085">
        <ele>675</ele>
        <time>2024-12-08T05:48:24.619Z</time>
      </trkpt>
      <trkpt lat="45.9656" lon="3.9085">
        <ele>675</ele>
        <time>2024-12-08T05:48:25.619Z</time>
      </trkpt>
      <trkpt lat="45.96558" lon="3.9085">
        <ele>675</ele>
        <time>2024-12-08T05:48:26.619Z</time>
      </trkpt>
      <trkpt lat="45.96557" lon="3.90849">
        <ele>675</ele>
        <time>2024-12-08T05:48:27.619Z</time>
      </trkpt>
      <trkpt lat="45.96556" lon="3.90848">
        <ele>675</ele>
        <time>2024-12-08T05:48:28.620Z</time>
      </trkpt>
      <trkpt lat="45.96554" lon="3.90846">
        <ele>674</ele>
        <time>2024-12-08T05:48:29.619Z</time>
      </trkpt>
      <trkpt lat="45.96553" lon="3.90845">
        <ele>674</ele>
        <time>2024-12-08T05:48:30.620Z</time>
      </trkpt>
      <trkpt lat="45.96551" lon="3.90844">
        <ele>674</ele>
        <time>2024-12-08T05:48:31.619Z</time>
      </trkpt>
      <trkpt lat="45.9655" lon="3.90843">
        <ele>673</ele>
        <time>2024-12-08T05:48:32.619Z</time>
      </trkpt>
      <trkpt lat="45.96549" lon="3.90843">
        <ele>673</ele>
        <time>2024-12-08T05:48:33.620Z</time>
      </trkpt>
      <trkpt lat="45.96547" lon="3.90842">
        <ele>673</ele>
        <time>2024-12-08T05:48:34.620Z</time>
      </trkpt>
      <trkpt lat="45.96546" lon="3.90842">
        <ele>673</ele>
        <time>2024-12-08T05:48:35.620Z</time>
      </trkpt>
      <trkpt lat="45.96545" lon="3.90841">
        <ele>673</ele>
        <time>2024-12-08T05:48:36.619Z</time>
      </trkpt>
      <trkpt lat="45.96543" lon="3.90842">
        <ele>673</ele>
        <time>2024-12-08T05:48:37.620Z</time>
      </trkpt>
      <trkpt lat="45.96542" lon="3.90843">
        <ele>673</ele>
        <time>2024-12-08T05:48:38.619Z</time>
      </trkpt>
      <trkpt lat="45.96542" lon="3.90843">
        <ele>673</ele>
        <time>2024-12-08T05:48:39.620Z</time>
      </trkpt>
      <trkpt lat="45.96541" lon="3.90844">
        <ele>673</ele>
        <time>2024-12-08T05:48:40.620Z</time>
      </trkpt>
      <trkpt lat="45.96541" lon="3.90845">
        <ele>673</ele>
        <time>2024-12-08T05:48:41.619Z</time>
      </trkpt>
      <trkpt lat="45.9654" lon="3.90846">
        <ele>673</ele>
        <time>2024-12-08T05:48:42.619Z</time>
      </trkpt>
      <trkpt lat="45.9654" lon="3.90847">
        <ele>673</ele>
        <time>2024-12-08T05:48:43.619Z</time>
      </trkpt>
      <trkpt lat="45.9654" lon="3.90847">
        <ele>673</ele>
        <time>2024-12-08T05:48:44.620Z</time>
      </trkpt>
      <trkpt lat="45.96539" lon="3.90848">
        <ele>673</ele>
        <time>2024-12-08T05:48:45.619Z</time>
      </trkpt>
      <trkpt lat="45.96539" lon="3.90849">
        <ele>672</ele>
        <time>2024-12-08T05:48:46.620Z</time>
      </trkpt>
      <trkpt lat="45.96538" lon="3.9085">
        <ele>672</ele>
        <time>2024-12-08T05:48:47.619Z</time>
      </trkpt>
      <trkpt lat="45.96536" lon="3.90851">
        <ele>672</ele>
        <time>2024-12-08T05:48:48.620Z</time>
      </trkpt>
      <trkpt lat="45.96535" lon="3.90851">
        <ele>672</ele>
        <time>2024-12-08T05:48:49.619Z</time>
      </trkpt>
      <trkpt lat="45.96533" lon="3.90852">
        <ele>672</ele>
        <time>2024-12-08T05:48:50.619Z</time>
      </trkpt>
      <trkpt lat="45.96531" lon="3.90853">
        <ele>672</ele>
        <time>2024-12-08T05:48:51.620Z</time>
      </trkpt>
      <trkpt lat="45.9653" lon="3.90854">
        <ele>672</ele>
        <time>2024-12-08T05:48:52.620Z</time>
      </trkpt>
      <trkpt lat="45.96529" lon="3.90855">
        <ele>671</ele>
        <time>2024-12-08T05:48:53.620Z</time>
      </trkpt>
      <trkpt lat="45.96527" lon="3.90856">
        <ele>671</ele>
        <time>2024-12-08T05:48:54.619Z</time>
      </trkpt>
      <trkpt lat="45.96525" lon="3.90857">
        <ele>671</ele>
        <time>2024-12-08T05:48:55.620Z</time>
      </trkpt>
      <trkpt lat="45.96523" lon="3.90858">
        <ele>671</ele>
        <time>2024-12-08T05:48:56.619Z</time>
      </trkpt>
      <trkpt lat="45.96521" lon="3.90859">
        <ele>671</ele>
        <time>2024-12-08T05:48:57.620Z</time>
      </trkpt>
      <trkpt lat="45.9652" lon="3.9086">
        <ele>671</ele>
        <time>2024-12-08T05:48:58.619Z</time>
      </trkpt>
      <trkpt lat="45.96518" lon="3.90861">
        <ele>671</ele>
        <time>2024-12-08T05:48:59.619Z</time>
      </trkpt>
      <trkpt lat="45.96516" lon="3.90861">
        <ele>671</ele>
        <time>2024-12-08T05:49:00.619Z</time>
      </trkpt>
      <trkpt lat="45.96515" lon="3.90862">
        <ele>671</ele>
        <time>2024-12-08T05:49:01.620Z</time>
      </trkpt>
      <trkpt lat="45.96514" lon="3.90862">
        <ele>671</ele>
        <time>2024-12-08T05:49:02.619Z</time>
      </trkpt>
      <trkpt lat="45.96513" lon="3.90862">
        <ele>671</ele>
        <time>2024-12-08T05:49:03.620Z</time>
      </trkpt>
      <trkpt lat="45.96512" lon="3.90862">
        <ele>671</ele>
        <time>2024-12-08T05:49:04.619Z</time>
      </trkpt>
      <trkpt lat="45.96512" lon="3.90862">
        <ele>672</ele>
        <time>2024-12-08T05:49:05.620Z</time>
      </trkpt>
      <trkpt lat="45.96511" lon="3.90861">
        <ele>672</ele>
        <time>2024-12-08T05:49:06.619Z</time>
      </trkpt>
      <trkpt lat="45.96512" lon="3.90861">
        <ele>672</ele>
        <time>2024-12-08T05:49:07.620Z</time>
      </trkpt>
      <trkpt lat="45.96513" lon="3.90861">
        <ele>672</ele>
        <time>2024-12-08T05:49:08.620Z</time>
      </trkpt>
      <trkpt lat="45.96513" lon="3.90861">
        <ele>672</ele>
        <time>2024-12-08T05:49:09.620Z</time>
      </trkpt>
      <trkpt lat="45.96513" lon="3.9086">
        <ele>672</ele>
        <time>2024-12-08T05:49:10.620Z</time>
      </trkpt>
      <trkpt lat="45.96512" lon="3.90859">
        <ele>672</ele>
        <time>2024-12-08T05:49:11.620Z</time>
      </trkpt>
      <trkpt lat="45.96511" lon="3.90858">
        <ele>672</ele>
        <time>2024-12-08T05:49:12.619Z</time>
      </trkpt>
      <trkpt lat="45.96512" lon="3.90858">
        <ele>672</ele>
        <time>2024-12-08T05:49:13.619Z</time>
      </trkpt>
      <trkpt lat="45.96512" lon="3.90858">
        <ele>672</ele>
        <time>2024-12-08T05:49:14.620Z</time>
      </trkpt>
      <trkpt lat="45.96512" lon="3.90857">
        <ele>672</ele>
        <time>2024-12-08T05:49:15.620Z</time>
      </trkpt>
      <trkpt lat="45.96513" lon="3.90857">
        <ele>672</ele>
        <time>2024-12-08T05:49:16.619Z</time>
      </trkpt>
      <trkpt lat="45.96512" lon="3.90857">
        <ele>671</ele>
        <time>2024-12-08T05:49:17.619Z</time>
      </trkpt>
      <trkpt lat="45.96512" lon="3.90857">
        <ele>671</ele>
        <time>2024-12-08T05:49:18.620Z</time>
      </trkpt>
      <trkpt lat="45.96513" lon="3.90857">
        <ele>671</ele>
        <time>2024-12-08T05:49:19.619Z</time>
      </trkpt>
      <trkpt lat="45.96513" lon="3.90857">
        <ele>671</ele>
        <time>2024-12-08T05:49:20.619Z</time>
      </trkpt>
      <trkpt lat="45.96513" lon="3.90857">
        <ele>670</ele>
        <time>2024-12-08T05:49:21.619Z</time>
      </trkpt>
      <trkpt lat="45.96513" lon="3.90857">
        <ele>670</ele>
        <time>2024-12-08T05:49:22.620Z</time>
      </trkpt>
      <trkpt lat="45.96513" lon="3.90857">
        <ele>670</ele>
        <time>2024-12-08T05:49:23.619Z</time>
      </trkpt>
      <trkpt lat="45.96513" lon="3.90857">
        <ele>670</ele>
        <time>2024-12-08T05:49:24.619Z</time>
      </trkpt>
      <trkpt lat="45.96513" lon="3.90857">
        <ele>670</ele>
        <time>2024-12-08T05:49:25.620Z</time>
      </trkpt>
      <trkpt lat="45.96513" lon="3.90857">
        <ele>670</ele>
        <time>2024-12-08T05:49:26.620Z</time>
      </trkpt>
      <trkpt lat="45.96513" lon="3.90857">
        <ele>670</ele>
        <time>2024-12-08T05:49:27.619Z</time>
      </trkpt>
      <trkpt lat="45.96513" lon="3.90857">
        <ele>669</ele>
        <time>2024-12-08T05:49:28.620Z</time>
      </trkpt>
      <trkpt lat="45.96513" lon="3.90857">
        <ele>669</ele>
        <time>2024-12-08T05:49:29.620Z</time>
      </trkpt>
      <trkpt lat="45.96513" lon="3.90857">
        <ele>669</ele>
        <time>2024-12-08T05:49:30.620Z</time>
      </trkpt>
      <trkpt lat="45.96512" lon="3.90857">
        <ele>669</ele>
        <time>2024-12-08T05:49:31.620Z</time>
      </trkpt>
      <trkpt lat="45.96512" lon="3.90857">
        <ele>669</ele>
        <time>2024-12-08T05:49:32.620Z</time>
      </trkpt>
      <trkpt lat="45.96512" lon="3.90857">
        <ele>669</ele>
        <time>2024-12-08T05:49:33.619Z</time>
      </trkpt>
      <trkpt lat="45.96512" lon="3.90857">
        <ele>669</ele>
        <time>2024-12-08T05:49:34.619Z</time>
      </trkpt>
      <trkpt lat="45.96512" lon="3.90857">
        <ele>670</ele>
        <time>2024-12-08T05:49:35.620Z</time>
      </trkpt>
      <trkpt lat="45.96512" lon="3.90857">
        <ele>670</ele>
        <time>2024-12-08T05:49:36.620Z</time>
      </trkpt>
      <trkpt lat="45.96512" lon="3.90857">
        <ele>670</ele>
        <time>2024-12-08T05:49:37.620Z</time>
      </trkpt>
      <trkpt lat="45.96512" lon="3.90857">
        <ele>670</ele>
        <time>2024-12-08T05:49:38.619Z</time>
      </trkpt>
      <trkpt lat="45.96512" lon="3.90857">
        <ele>670</ele>
        <time>2024-12-08T05:49:39.620Z</time>
      </trkpt>
      <trkpt lat="45.96511" lon="3.90857">
        <ele>670</ele>
        <time>2024-12-08T05:49:40.620Z</time>
      </trkpt>
      <trkpt lat="45.96511" lon="3.90857">
        <ele>670</ele>
        <time>2024-12-08T05:49:41.619Z</time>
      </trkpt>
      <trkpt lat="45.96511" lon="3.90857">
        <ele>670</ele>
        <time>2024-12-08T05:49:42.619Z</time>
      </trkpt>
      <trkpt lat="45.96511" lon="3.90857">
        <ele>670</ele>
        <time>2024-12-08T05:49:43.620Z</time>
      </trkpt>
      <trkpt lat="45.96511" lon="3.90857">
        <ele>670</ele>
        <time>2024-12-08T05:49:44.620Z</time>
      </trkpt>
      <trkpt lat="45.96511" lon="3.90857">
        <ele>670</ele>
        <time>2024-12-08T05:49:45.620Z</time>
      </trkpt>
      <trkpt lat="45.96511" lon="3.90857">
        <ele>670</ele>
        <time>2024-12-08T05:49:46.619Z</time>
      </trkpt>
      <trkpt lat="45.96511" lon="3.90857">
        <ele>670</ele>
        <time>2024-12-08T05:49:47.619Z</time>
      </trkpt>
      <trkpt lat="45.96511" lon="3.90857">
        <ele>670</ele>
        <time>2024-12-08T05:49:48.620Z</time>
      </trkpt>
      <trkpt lat="45.96511" lon="3.90857">
        <ele>670</ele>
        <time>2024-12-08T05:49:49.619Z</time>
      </trkpt>
      <trkpt lat="45.96511" lon="3.90857">
        <ele>670</ele>
        <time>2024-12-08T05:49:50.620Z</time>
      </trkpt>
      <trkpt lat="45.96511" lon="3.90857">
        <ele>670</ele>
        <time>2024-12-08T05:49:51.619Z</time>
      </trkpt>
      <trkpt lat="45.96511" lon="3.90857">
        <ele>670</ele>
        <time>2024-12-08T05:49:52.620Z</time>
      </trkpt>
      <trkpt lat="45.96511" lon="3.90857">
        <ele>670</ele>
        <time>2024-12-08T05:49:53.619Z</time>
      </trkpt>
      <trkpt lat="45.96511" lon="3.90857">
        <ele>670</ele>
        <time>2024-12-08T05:49:54.619Z</time>
      </trkpt>
      <trkpt lat="45.96511" lon="3.90857">
        <ele>670</ele>
        <time>2024-12-08T05:49:55.620Z</time>
      </trkpt>
      <trkpt lat="45.96511" lon="3.90857">
        <ele>670</ele>
        <time>2024-12-08T05:49:56.619Z</time>
      </trkpt>
      <trkpt lat="45.96511" lon="3.90857">
        <ele>670</ele>
        <time>2024-12-08T05:49:57.620Z</time>
      </trkpt>
      <trkpt lat="45.96511" lon="3.90858">
        <ele>670</ele>
        <time>2024-12-08T05:49:58.619Z</time>
      </trkpt>
      <trkpt lat="45.96511" lon="3.90858">
        <ele>670</ele>
        <time>2024-12-08T05:49:59.619Z</time>
      </trkpt>
      <trkpt lat="45.96511" lon="3.90858">
        <ele>670</ele>
        <time>2024-12-08T05:50:00.619Z</time>
      </trkpt>
      <trkpt lat="45.96511" lon="3.90858">
        <ele>670</ele>
        <time>2024-12-08T05:50:01.620Z</time>
      </trkpt>
      <trkpt lat="45.96511" lon="3.90858">
        <ele>670</ele>
        <time>2024-12-08T05:50:02.619Z</time>
      </trkpt>
      <trkpt lat="45.96511" lon="3.90858">
        <ele>670</ele>
        <time>2024-12-08T05:50:03.619Z</time>
      </trkpt>
      <trkpt lat="45.96511" lon="3.90858">
        <ele>670</ele>
        <time>2024-12-08T05:50:04.620Z</time>
      </trkpt>
      <trkpt lat="45.96511" lon="3.90858">
        <ele>670</ele>
        <time>2024-12-08T05:50:05.620Z</time>
      </trkpt>
      <trkpt lat="45.9651" lon="3.90858">
        <ele>670</ele>
        <time>2024-12-08T05:50:06.619Z</time>
      </trkpt>
      <trkpt lat="45.96509" lon="3.90858">
        <ele>670</ele>
        <time>2024-12-08T05:50:07.620Z</time>
      </trkpt>
      <trkpt lat="45.96508" lon="3.90858">
        <ele>670</ele>
        <time>2024-12-08T05:50:08.619Z</time>
      </trkpt>
      <trkpt lat="45.96507" lon="3.90858">
        <ele>670</ele>
        <time>2024-12-08T05:50:09.620Z</time>
      </trkpt>
      <trkpt lat="45.96505" lon="3.90857">
        <ele>670</ele>
        <time>2024-12-08T05:50:10.620Z</time>
      </trkpt>
      <trkpt lat="45.96504" lon="3.90858">
        <ele>670</ele>
        <time>2024-12-08T05:50:11.619Z</time>
      </trkpt>
      <trkpt lat="45.96503" lon="3.90858">
        <ele>670</ele>
        <time>2024-12-08T05:50:12.620Z</time>
      </trkpt>
      <trkpt lat="45.96502" lon="3.90858">
        <ele>670</ele>
        <time>2024-12-08T05:50:13.619Z</time>
      </trkpt>
      <trkpt lat="45.96501" lon="3.90858">
        <ele>669</ele>
        <time>2024-12-08T05:50:14.619Z</time>
      </trkpt>
      <trkpt lat="45.965" lon="3.90858">
        <ele>669</ele>
        <time>2024-12-08T05:50:15.619Z</time>
      </trkpt>
      <trkpt lat="45.96499" lon="3.90859">
        <ele>669</ele>
        <time>2024-12-08T05:50:16.620Z</time>
      </trkpt>
      <trkpt lat="45.96498" lon="3.90859">
        <ele>669</ele>
        <time>2024-12-08T05:50:17.619Z</time>
      </trkpt>
      <trkpt lat="45.96497" lon="3.9086">
        <ele>669</ele>
        <time>2024-12-08T05:50:18.620Z</time>
      </trkpt>
      <trkpt lat="45.96497" lon="3.9086">
        <ele>669</ele>
        <time>2024-12-08T05:50:19.619Z</time>
      </trkpt>
      <trkpt lat="45.96497" lon="3.90861">
        <ele>669</ele>
        <time>2024-12-08T05:50:20.620Z</time>
      </trkpt>
      <trkpt lat="45.96497" lon="3.90861">
        <ele>669</ele>
        <time>2024-12-08T05:50:21.619Z</time>
      </trkpt>
      <trkpt lat="45.96497" lon="3.90861">
        <ele>670</ele>
        <time>2024-12-08T05:50:22.619Z</time>
      </trkpt>
      <trkpt lat="45.96497" lon="3.90861">
        <ele>670</ele>
        <time>2024-12-08T05:50:23.620Z</time>
      </trkpt>
      <trkpt lat="45.96497" lon="3.90861">
        <ele>670</ele>
        <time>2024-12-08T05:50:24.619Z</time>
      </trkpt>
      <trkpt lat="45.96497" lon="3.90862">
        <ele>670</ele>
        <time>2024-12-08T05:50:25.620Z</time>
      </trkpt>
      <trkpt lat="45.96497" lon="3.90862">
        <ele>670</ele>
        <time>2024-12-08T05:50:26.619Z</time>
      </trkpt>
      <trkpt lat="45.96497" lon="3.90863">
        <ele>671</ele>
        <time>2024-12-08T05:50:27.620Z</time>
      </trkpt>
      <trkpt lat="45.96497" lon="3.90863">
        <ele>671</ele>
        <time>2024-12-08T05:50:28.619Z</time>
      </trkpt>
      <trkpt lat="45.96497" lon="3.90863">
        <ele>671</ele>
        <time>2024-12-08T05:50:29.620Z</time>
      </trkpt>
      <trkpt lat="45.96496" lon="3.90862">
        <ele>671</ele>
        <time>2024-12-08T05:50:30.619Z</time>
      </trkpt>
      <trkpt lat="45.96496" lon="3.90862">
        <ele>671</ele>
        <time>2024-12-08T05:50:31.620Z</time>
      </trkpt>
      <trkpt lat="45.96496" lon="3.90862">
        <ele>672</ele>
        <time>2024-12-08T05:50:32.620Z</time>
      </trkpt>
      <trkpt lat="45.96496" lon="3.90862">
        <ele>672</ele>
        <time>2024-12-08T05:50:33.619Z</time>
      </trkpt>
      <trkpt lat="45.96496" lon="3.90862">
        <ele>672</ele>
        <time>2024-12-08T05:50:34.619Z</time>
      </trkpt>
      <trkpt lat="45.96496" lon="3.90862">
        <ele>672</ele>
        <time>2024-12-08T05:50:35.620Z</time>
      </trkpt>
      <trkpt lat="45.96496" lon="3.90862">
        <ele>673</ele>
        <time>2024-12-08T05:50:36.619Z</time>
      </trkpt>
      <trkpt lat="45.96496" lon="3.90862">
        <ele>673</ele>
        <time>2024-12-08T05:50:37.619Z</time>
      </trkpt>
      <trkpt lat="45.96496" lon="3.90862">
        <ele>674</ele>
        <time>2024-12-08T05:50:38.619Z</time>
      </trkpt>
      <trkpt lat="45.96496" lon="3.90862">
        <ele>675</ele>
        <time>2024-12-08T05:50:39.619Z</time>
      </trkpt>
      <trkpt lat="45.96496" lon="3.90862">
        <ele>675</ele>
        <time>2024-12-08T05:50:40.619Z</time>
      </trkpt>
      <trkpt lat="45.96496" lon="3.90862">
        <ele>675</ele>
        <time>2024-12-08T05:50:41.620Z</time>
      </trkpt>
      <trkpt lat="45.96497" lon="3.90862">
        <ele>675</ele>
        <time>2024-12-08T05:50:42.620Z</time>
      </trkpt>
      <trkpt lat="45.96497" lon="3.90862">
        <ele>676</ele>
        <time>2024-12-08T05:50:43.620Z</time>
      </trkpt>
      <trkpt lat="45.96497" lon="3.90862">
        <ele>676</ele>
        <time>2024-12-08T05:50:44.620Z</time>
      </trkpt>
      <trkpt lat="45.96497" lon="3.90861">
        <ele>676</ele>
        <time>2024-12-08T05:50:45.619Z</time>
      </trkpt>
      <trkpt lat="45.96497" lon="3.90861">
        <ele>676</ele>
        <time>2024-12-08T05:50:46.619Z</time>
      </trkpt>
      <trkpt lat="45.96496" lon="3.90861">
        <ele>676</ele>
        <time>2024-12-08T05:50:47.619Z</time>
      </trkpt>
      <trkpt lat="45.96497" lon="3.90861">
        <ele>676</ele>
        <time>2024-12-08T05:50:48.619Z</time>
      </trkpt>
      <trkpt lat="45.96497" lon="3.90861">
        <ele>676</ele>
        <time>2024-12-08T05:50:49.620Z</time>
      </trkpt>
      <trkpt lat="45.96496" lon="3.90861">
        <ele>675</ele>
        <time>2024-12-08T05:50:50.619Z</time>
      </trkpt>
      <trkpt lat="45.96496" lon="3.9086">
        <ele>675</ele>
        <time>2024-12-08T05:50:51.619Z</time>
      </trkpt>
      <trkpt lat="45.96496" lon="3.9086">
        <ele>676</ele>
        <time>2024-12-08T05:50:52.619Z</time>
      </trkpt>
      <trkpt lat="45.96496" lon="3.9086">
        <ele>676</ele>
        <time>2024-12-08T05:50:53.620Z</time>
      </trkpt>
      <trkpt lat="45.96496" lon="3.9086">
        <ele>676</ele>
        <time>2024-12-08T05:50:54.620Z</time>
      </trkpt>
      <trkpt lat="45.96495" lon="3.9086">
        <ele>676</ele>
        <time>2024-12-08T05:50:55.620Z</time>
      </trkpt>
      <trkpt lat="45.96495" lon="3.90859">
        <ele>676</ele>
        <time>2024-12-08T05:50:56.619Z</time>
      </trkpt>
      <trkpt lat="45.96494" lon="3.90859">
        <ele>675</ele>
        <time>2024-12-08T05:50:57.619Z</time>
      </trkpt>
      <trkpt lat="45.96494" lon="3.90858">
        <ele>675</ele>
        <time>2024-12-08T05:50:58.619Z</time>
      </trkpt>
      <trkpt lat="45.96493" lon="3.90858">
        <ele>675</ele>
        <time>2024-12-08T05:50:59.620Z</time>
      </trkpt>
      <trkpt lat="45.96493" lon="3.90857">
        <ele>674</ele>
        <time>2024-12-08T05:51:00.620Z</time>
      </trkpt>
      <trkpt lat="45.96493" lon="3.90857">
        <ele>674</ele>
        <time>2024-12-08T05:51:01.620Z</time>
      </trkpt>
      <trkpt lat="45.96493" lon="3.90857">
        <ele>673</ele>
        <time>2024-12-08T05:51:02.620Z</time>
      </trkpt>
      <trkpt lat="45.96493" lon="3.90857">
        <ele>673</ele>
        <time>2024-12-08T05:51:03.619Z</time>
      </trkpt>
      <trkpt lat="45.96493" lon="3.90857">
        <ele>672</ele>
        <time>2024-12-08T05:51:04.620Z</time>
      </trkpt>
      <trkpt lat="45.96493" lon="3.90857">
        <ele>672</ele>
        <time>2024-12-08T05:51:05.619Z</time>
      </trkpt>
      <trkpt lat="45.96493" lon="3.90857">
        <ele>671</ele>
        <time>2024-12-08T05:51:06.620Z</time>
      </trkpt>
      <trkpt lat="45.96493" lon="3.90857">
        <ele>671</ele>
        <time>2024-12-08T05:51:07.619Z</time>
      </trkpt>
      <trkpt lat="45.96493" lon="3.90857">
        <ele>671</ele>
        <time>2024-12-08T05:51:08.619Z</time>
      </trkpt>
      <trkpt lat="45.96493" lon="3.90857">
        <ele>670</ele>
        <time>2024-12-08T05:51:09.619Z</time>
      </trkpt>
      <trkpt lat="45.96493" lon="3.90857">
        <ele>670</ele>
        <time>2024-12-08T05:51:10.620Z</time>
      </trkpt>
      <trkpt lat="45.96493" lon="3.90857">
        <ele>669</ele>
        <time>2024-12-08T05:51:11.619Z</time>
      </trkpt>
      <trkpt lat="45.96493" lon="3.90857">
        <ele>669</ele>
        <time>2024-12-08T05:51:12.620Z</time>
      </trkpt>
      <trkpt lat="45.96493" lon="3.90857">
        <ele>669</ele>
        <time>2024-12-08T05:51:13.619Z</time>
      </trkpt>
      <trkpt lat="45.96493" lon="3.90858">
        <ele>669</ele>
        <time>2024-12-08T05:51:14.619Z</time>
      </trkpt>
      <trkpt lat="45.96493" lon="3.90858">
        <ele>669</ele>
        <time>2024-12-08T05:51:15.620Z</time>
      </trkpt>
      <trkpt lat="45.96493" lon="3.90858">
        <ele>668</ele>
        <time>2024-12-08T05:51:16.620Z</time>
      </trkpt>
      <trkpt lat="45.96493" lon="3.90858">
        <ele>668</ele>
        <time>2024-12-08T05:51:17.620Z</time>
      </trkpt>
      <trkpt lat="45.96493" lon="3.90858">
        <ele>668</ele>
        <time>2024-12-08T05:51:18.620Z</time>
      </trkpt>
      <trkpt lat="45.96493" lon="3.90858">
        <ele>668</ele>
        <time>2024-12-08T05:51:19.619Z</time>
      </trkpt>
      <trkpt lat="45.96493" lon="3.90859">
        <ele>668</ele>
        <time>2024-12-08T05:51:20.620Z</time>
      </trkpt>
      <trkpt lat="45.96493" lon="3.90859">
        <ele>668</ele>
        <time>2024-12-08T05:51:21.620Z</time>
      </trkpt>
      <trkpt lat="45.96493" lon="3.90859">
        <ele>668</ele>
        <time>2024-12-08T05:51:22.620Z</time>
      </trkpt>
      <trkpt lat="45.96493" lon="3.90859">
        <ele>668</ele>
        <time>2024-12-08T05:51:23.619Z</time>
      </trkpt>
      <trkpt lat="45.96493" lon="3.90859">
        <ele>668</ele>
        <time>2024-12-08T05:51:24.619Z</time>
      </trkpt>
      <trkpt lat="45.96493" lon="3.90859">
        <ele>668</ele>
        <time>2024-12-08T05:51:25.620Z</time>
      </trkpt>
      <trkpt lat="45.96493" lon="3.90859">
        <ele>667</ele>
        <time>2024-12-08T05:51:26.620Z</time>
      </trkpt>
      <trkpt lat="45.96493" lon="3.90859">
        <ele>667</ele>
        <time>2024-12-08T05:51:27.620Z</time>
      </trkpt>
      <trkpt lat="45.96492" lon="3.9086">
        <ele>667</ele>
        <time>2024-12-08T05:51:28.619Z</time>
      </trkpt>
      <trkpt lat="45.96492" lon="3.9086">
        <ele>667</ele>
        <time>2024-12-08T05:51:29.619Z</time>
      </trkpt>
      <trkpt lat="45.96492" lon="3.9086">
        <ele>667</ele>
        <time>2024-12-08T05:51:30.619Z</time>
      </trkpt>
      <trkpt lat="45.96492" lon="3.90861">
        <ele>667</ele>
        <time>2024-12-08T05:51:31.620Z</time>
      </trkpt>
      <trkpt lat="45.96492" lon="3.90861">
        <ele>667</ele>
        <time>2024-12-08T05:51:32.620Z</time>
      </trkpt>
      <trkpt lat="45.96492" lon="3.90861">
        <ele>667</ele>
        <time>2024-12-08T05:51:33.620Z</time>
      </trkpt>
      <trkpt lat="45.96492" lon="3.90861">
        <ele>667</ele>
        <time>2024-12-08T05:51:34.620Z</time>
      </trkpt>
      <trkpt lat="45.96492" lon="3.90861">
        <ele>667</ele>
        <time>2024-12-08T05:51:35.619Z</time>
      </trkpt>
      <trkpt lat="45.96492" lon="3.90861">
        <ele>667</ele>
        <time>2024-12-08T05:51:36.620Z</time>
      </trkpt>
      <trkpt lat="45.96492" lon="3.90861">
        <ele>667</ele>
        <time>2024-12-08T05:51:37.619Z</time>
      </trkpt>
      <trkpt lat="45.96492" lon="3.90861">
        <ele>667</ele>
        <time>2024-12-08T05:51:38.620Z</time>
      </trkpt>
      <trkpt lat="45.96492" lon="3.90861">
        <ele>667</ele>
        <time>2024-12-08T05:51:39.619Z</time>
      </trkpt>
      <trkpt lat="45.96492" lon="3.90861">
        <ele>667</ele>
        <time>2024-12-08T05:51:40.619Z</time>
      </trkpt>
      <trkpt lat="45.96492" lon="3.90861">
        <ele>667</ele>
        <time>2024-12-08T05:51:41.619Z</time>
      </trkpt>
      <trkpt lat="45.96492" lon="3.90861">
        <ele>667</ele>
        <time>2024-12-08T05:51:42.619Z</time>
      </trkpt>
      <trkpt lat="45.96492" lon="3.90861">
        <ele>667</ele>
        <time>2024-12-08T05:51:43.620Z</time>
      </trkpt>
      <trkpt lat="45.96492" lon="3.90861">
        <ele>667</ele>
        <time>2024-12-08T05:51:44.619Z</time>
      </trkpt>
      <trkpt lat="45.96492" lon="3.90861">
        <ele>667</ele>
        <time>2024-12-08T05:51:45.620Z</time>
      </trkpt>
      <trkpt lat="45.96492" lon="3.90861">
        <ele>667</ele>
        <time>2024-12-08T05:51:46.619Z</time>
      </trkpt>
      <trkpt lat="45.96492" lon="3.90861">
        <ele>667</ele>
        <time>2024-12-08T05:51:47.619Z</time>
      </trkpt>
      <trkpt lat="45.96492" lon="3.90861">
        <ele>667</ele>
        <time>2024-12-08T05:51:48.619Z</time>
      </trkpt>
      <trkpt lat="45.96491" lon="3.9086">
        <ele>667</ele>
        <time>2024-12-08T05:51:49.620Z</time>
      </trkpt>
      <trkpt lat="45.96491" lon="3.9086">
        <ele>667</ele>
        <time>2024-12-08T05:51:50.619Z</time>
      </trkpt>
      <trkpt lat="45.96491" lon="3.9086">
        <ele>667</ele>
        <time>2024-12-08T05:51:51.619Z</time>
      </trkpt>
      <trkpt lat="45.96491" lon="3.9086">
        <ele>667</ele>
        <time>2024-12-08T05:51:52.620Z</time>
      </trkpt>
      <trkpt lat="45.96491" lon="3.9086">
        <ele>667</ele>
        <time>2024-12-08T05:51:53.620Z</time>
      </trkpt>
      <trkpt lat="45.96491" lon="3.90859">
        <ele>667</ele>
        <time>2024-12-08T05:51:54.620Z</time>
      </trkpt>
      <trkpt lat="45.96491" lon="3.90859">
        <ele>667</ele>
        <time>2024-12-08T05:51:55.619Z</time>
      </trkpt>
      <trkpt lat="45.96491" lon="3.90858">
        <ele>667</ele>
        <time>2024-12-08T05:51:56.620Z</time>
      </trkpt>
      <trkpt lat="45.9649" lon="3.90858">
        <ele>667</ele>
        <time>2024-12-08T05:51:57.619Z</time>
      </trkpt>
      <trkpt lat="45.9649" lon="3.90858">
        <ele>667</ele>
        <time>2024-12-08T05:51:58.620Z</time>
      </trkpt>
      <trkpt lat="45.9649" lon="3.90858">
        <ele>667</ele>
        <time>2024-12-08T05:51:59.620Z</time>
      </trkpt>
      <trkpt lat="45.9649" lon="3.90858">
        <ele>667</ele>
        <time>2024-12-08T05:52:00.620Z</time>
      </trkpt>
      <trkpt lat="45.96489" lon="3.90858">
        <ele>667</ele>
        <time>2024-12-08T05:52:01.619Z</time>
      </trkpt>
      <trkpt lat="45.96489" lon="3.90857">
        <ele>667</ele>
        <time>2024-12-08T05:52:02.620Z</time>
      </trkpt>
      <trkpt lat="45.96489" lon="3.90857">
        <ele>667</ele>
        <time>2024-12-08T05:52:03.619Z</time>
      </trkpt>
      <trkpt lat="45.96489" lon="3.90857">
        <ele>667</ele>
        <time>2024-12-08T05:52:04.620Z</time>
      </trkpt>
      <trkpt lat="45.96489" lon="3.90858">
        <ele>667</ele>
        <time>2024-12-08T05:52:05.619Z</time>
      </trkpt>
      <trkpt lat="45.96489" lon="3.90858">
        <ele>667</ele>
        <time>2024-12-08T05:52:06.619Z</time>
      </trkpt>
      <trkpt lat="45.96488" lon="3.90858">
        <ele>667</ele>
        <time>2024-12-08T05:52:07.620Z</time>
      </trkpt>
      <trkpt lat="45.96488" lon="3.90858">
        <ele>667</ele>
        <time>2024-12-08T05:52:08.620Z</time>
      </trkpt>
      <trkpt lat="45.96488" lon="3.90858">
        <ele>667</ele>
        <time>2024-12-08T05:52:09.619Z</time>
      </trkpt>
      <trkpt lat="45.96487" lon="3.90858">
        <ele>667</ele>
        <time>2024-12-08T05:52:10.620Z</time>
      </trkpt>
      <trkpt lat="45.96487" lon="3.90858">
        <ele>667</ele>
        <time>2024-12-08T05:52:11.620Z</time>
      </trkpt>
      <trkpt lat="45.96486" lon="3.90857">
        <ele>667</ele>
        <time>2024-12-08T05:52:12.619Z</time>
      </trkpt>
      <trkpt lat="45.96485" lon="3.90857">
        <ele>667</ele>
        <time>2024-12-08T05:52:13.620Z</time>
      </trkpt>
      <trkpt lat="45.96485" lon="3.90857">
        <ele>667</ele>
        <time>2024-12-08T05:52:14.619Z</time>
      </trkpt>
      <trkpt lat="45.96486" lon="3.90857">
        <ele>667</ele>
        <time>2024-12-08T05:52:15.620Z</time>
      </trkpt>
      <trkpt lat="45.96485" lon="3.90857">
        <ele>667</ele>
        <time>2024-12-08T05:52:16.619Z</time>
      </trkpt>
      <trkpt lat="45.96484" lon="3.90857">
        <ele>667</ele>
        <time>2024-12-08T05:52:17.619Z</time>
      </trkpt>
      <trkpt lat="45.96484" lon="3.90857">
        <ele>667</ele>
        <time>2024-12-08T05:52:18.620Z</time>
      </trkpt>
      <trkpt lat="45.96484" lon="3.90857">
        <ele>667</ele>
        <time>2024-12-08T05:52:19.620Z</time>
      </trkpt>
      <trkpt lat="45.96485" lon="3.90856">
        <ele>667</ele>
        <time>2024-12-08T05:52:20.619Z</time>
      </trkpt>
      <trkpt lat="45.96486" lon="3.90857">
        <ele>667</ele>
        <time>2024-12-08T05:52:21.620Z</time>
      </trkpt>
      <trkpt lat="45.96487" lon="3.90858">
        <ele>667</ele>
        <time>2024-12-08T05:52:22.619Z</time>
      </trkpt>
      <trkpt lat="45.96491" lon="3.90859">
        <ele>667</ele>
        <time>2024-12-08T05:52:23.619Z</time>
      </trkpt>
      <trkpt lat="45.96494" lon="3.9086">
        <ele>667</ele>
        <time>2024-12-08T05:52:24.619Z</time>
      </trkpt>
      <trkpt lat="45.96497" lon="3.90859">
        <ele>667</ele>
        <time>2024-12-08T05:52:25.619Z</time>
      </trkpt>
      <trkpt lat="45.965" lon="3.90859">
        <ele>667</ele>
        <time>2024-12-08T05:52:26.620Z</time>
      </trkpt>
      <trkpt lat="45.96503" lon="3.90859">
        <ele>667</ele>
        <time>2024-12-08T05:52:27.619Z</time>
      </trkpt>
      <trkpt lat="45.96504" lon="3.90858">
        <ele>667</ele>
        <time>2024-12-08T05:52:28.619Z</time>
      </trkpt>
      <trkpt lat="45.96507" lon="3.90859">
        <ele>667</ele>
        <time>2024-12-08T05:52:29.619Z</time>
      </trkpt>
      <trkpt lat="45.96508" lon="3.90859">
        <ele>668</ele>
        <time>2024-12-08T05:52:30.619Z</time>
      </trkpt>
      <trkpt lat="45.96511" lon="3.90858">
        <ele>668</ele>
        <time>2024-12-08T05:52:31.620Z</time>
      </trkpt>
      <trkpt lat="45.96512" lon="3.90858">
        <ele>668</ele>
        <time>2024-12-08T05:52:32.620Z</time>
      </trkpt>
      <trkpt lat="45.96512" lon="3.90857">
        <ele>669</ele>
        <time>2024-12-08T05:52:33.619Z</time>
      </trkpt>
      <trkpt lat="45.96512" lon="3.90857">
        <ele>669</ele>
        <time>2024-12-08T05:52:34.619Z</time>
      </trkpt>
      <trkpt lat="45.96512" lon="3.90857">
        <ele>669</ele>
        <time>2024-12-08T05:52:35.619Z</time>
      </trkpt>
      <trkpt lat="45.96512" lon="3.90857">
        <ele>670</ele>
        <time>2024-12-08T05:52:36.620Z</time>
      </trkpt>
      <trkpt lat="45.96511" lon="3.90857">
        <ele>670</ele>
        <time>2024-12-08T05:52:37.619Z</time>
      </trkpt>
      <trkpt lat="45.96511" lon="3.90857">
        <ele>671</ele>
        <time>2024-12-08T05:52:38.620Z</time>
      </trkpt>
      <trkpt lat="45.9651" lon="3.90857">
        <ele>671</ele>
        <time>2024-12-08T05:52:39.619Z</time>
      </trkpt>
      <trkpt lat="45.96509" lon="3.90856">
        <ele>671</ele>
        <time>2024-12-08T05:52:40.619Z</time>
      </trkpt>
      <trkpt lat="45.96507" lon="3.90856">
        <ele>671</ele>
        <time>2024-12-08T05:52:41.619Z</time>
      </trkpt>
      <trkpt lat="45.96503" lon="3.90854">
        <ele>672</ele>
        <time>2024-12-08T05:52:42.620Z</time>
      </trkpt>
      <trkpt lat="45.96503" lon="3.90854">
        <ele>672</ele>
        <time>2024-12-08T05:52:43.619Z</time>
      </trkpt>
      <trkpt lat="45.96501" lon="3.90853">
        <ele>672</ele>
        <time>2024-12-08T05:52:44.620Z</time>
      </trkpt>
      <trkpt lat="45.96499" lon="3.90854">
        <ele>672</ele>
        <time>2024-12-08T05:52:45.620Z</time>
      </trkpt>
      <trkpt lat="45.96497" lon="3.90856">
        <ele>671</ele>
        <time>2024-12-08T05:52:46.619Z</time>
      </trkpt>
      <trkpt lat="45.96496" lon="3.90857">
        <ele>671</ele>
        <time>2024-12-08T05:52:47.620Z</time>
      </trkpt>
      <trkpt lat="45.96494" lon="3.90858">
        <ele>671</ele>
        <time>2024-12-08T05:52:48.619Z</time>
      </trkpt>
      <trkpt lat="45.96493" lon="3.90858">
        <ele>671</ele>
        <time>2024-12-08T05:52:49.620Z</time>
      </trkpt>
      <trkpt lat="45.96493" lon="3.90859">
        <ele>671</ele>
        <time>2024-12-08T05:52:50.619Z</time>
      </trkpt>
      <trkpt lat="45.96493" lon="3.90859">
        <ele>671</ele>
        <time>2024-12-08T05:52:51.619Z</time>
      </trkpt>
      <trkpt lat="45.96494" lon="3.90861">
        <ele>671</ele>
        <time>2024-12-08T05:52:52.619Z</time>
      </trkpt>
      <trkpt lat="45.96495" lon="3.90862">
        <ele>671</ele>
        <time>2024-12-08T05:52:53.620Z</time>
      </trkpt>
      <trkpt lat="45.96495" lon="3.90862">
        <ele>671</ele>
        <time>2024-12-08T05:52:54.620Z</time>
      </trkpt>
      <trkpt lat="45.96496" lon="3.90862">
        <ele>671</ele>
        <time>2024-12-08T05:52:55.619Z</time>
      </trkpt>
      <trkpt lat="45.96496" lon="3.90862">
        <ele>671</ele>
        <time>2024-12-08T05:52:56.620Z</time>
      </trkpt>
      <trkpt lat="45.96496" lon="3.90862">
        <ele>671</ele>
        <time>2024-12-08T05:52:57.619Z</time>
      </trkpt>
      <trkpt lat="45.96496" lon="3.90861">
        <ele>671</ele>
        <time>2024-12-08T05:52:58.620Z</time>
      </trkpt>
      <trkpt lat="45.96496" lon="3.90861">
        <ele>671</ele>
        <time>2024-12-08T05:52:59.620Z</time>
      </trkpt>
      <trkpt lat="45.96496" lon="3.90861">
        <ele>672</ele>
        <time>2024-12-08T05:53:00.620Z</time>
      </trkpt>
      <trkpt lat="45.96496" lon="3.90861">
        <ele>672</ele>
        <time>2024-12-08T05:53:01.619Z</time>
      </trkpt>
      <trkpt lat="45.96496" lon="3.90861">
        <ele>672</ele>
        <time>2024-12-08T05:53:02.620Z</time>
      </trkpt>
      <trkpt lat="45.96495" lon="3.90861">
        <ele>672</ele>
        <time>2024-12-08T05:53:03.619Z</time>
      </trkpt>
      <trkpt lat="45.96495" lon="3.90862">
        <ele>672</ele>
        <time>2024-12-08T05:53:04.619Z</time>
      </trkpt>
      <trkpt lat="45.96495" lon="3.90862">
        <ele>672</ele>
        <time>2024-12-08T05:53:05.619Z</time>
      </trkpt>
      <trkpt lat="45.96495" lon="3.90862">
        <ele>672</ele>
        <time>2024-12-08T05:53:06.620Z</time>
      </trkpt>
      <trkpt lat="45.96496" lon="3.90862">
        <ele>672</ele>
        <time>2024-12-08T05:53:07.620Z</time>
      </trkpt>
      <trkpt lat="45.96496" lon="3.90862">
        <ele>672</ele>
        <time>2024-12-08T05:53:08.619Z</time>
      </trkpt>
      <trkpt lat="45.96496" lon="3.90862">
        <ele>672</ele>
        <time>2024-12-08T05:53:09.619Z</time>
      </trkpt>
      <trkpt lat="45.96496" lon="3.90862">
        <ele>672</ele>
        <time>2024-12-08T05:53:10.620Z</time>
      </trkpt>
      <trkpt lat="45.96496" lon="3.90861">
        <ele>672</ele>
        <time>2024-12-08T05:53:11.619Z</time>
      </trkpt>
      <trkpt lat="45.96496" lon="3.90862">
        <ele>672</ele>
        <time>2024-12-08T05:53:12.619Z</time>
      </trkpt>
      <trkpt lat="45.96496" lon="3.90862">
        <ele>672</ele>
        <time>2024-12-08T05:53:13.620Z</time>
      </trkpt>
      <trkpt lat="45.96496" lon="3.90862">
        <ele>672</ele>
        <time>2024-12-08T05:53:14.619Z</time>
      </trkpt>
      <trkpt lat="45.96496" lon="3.90862">
        <ele>671</ele>
        <time>2024-12-08T05:53:15.619Z</time>
      </trkpt>
      <trkpt lat="45.96496" lon="3.90862">
        <ele>671</ele>
        <time>2024-12-08T05:53:16.619Z</time>
      </trkpt>
      <trkpt lat="45.96497" lon="3.90862">
        <ele>671</ele>
        <time>2024-12-08T05:53:17.619Z</time>
      </trkpt>
      <trkpt lat="45.96497" lon="3.90861">
        <ele>671</ele>
        <time>2024-12-08T05:53:18.619Z</time>
      </trkpt>
      <trkpt lat="45.96497" lon="3.90861">
        <ele>671</ele>
        <time>2024-12-08T05:53:19.620Z</time>
      </trkpt>
      <trkpt lat="45.96496" lon="3.90861">
        <ele>671</ele>
        <time>2024-12-08T05:53:20.619Z</time>
      </trkpt>
      <trkpt lat="45.96496" lon="3.90861">
        <ele>671</ele>
        <time>2024-12-08T05:53:21.620Z</time>
      </trkpt>
      <trkpt lat="45.96496" lon="3.90861">
        <ele>671</ele>
        <time>2024-12-08T05:53:22.619Z</time>
      </trkpt>
      <trkpt lat="45.96496" lon="3.90861">
        <ele>672</ele>
        <time>2024-12-08T05:53:23.620Z</time>
      </trkpt>
      <trkpt lat="45.96496" lon="3.90861">
        <ele>672</ele>
        <time>2024-12-08T05:53:24.619Z</time>
      </trkpt>
      <trkpt lat="45.96496" lon="3.90861">
        <ele>672</ele>
        <time>2024-12-08T05:53:25.619Z</time>
      </trkpt>
      <trkpt lat="45.96496" lon="3.90861">
        <ele>672</ele>
        <time>2024-12-08T05:53:26.620Z</time>
      </trkpt>
      <trkpt lat="45.96496" lon="3.90861">
        <ele>672</ele>
        <time>2024-12-08T05:53:27.619Z</time>
      </trkpt>
      <trkpt lat="45.96496" lon="3.90861">
        <ele>673</ele>
        <time>2024-12-08T05:53:28.619Z</time>
      </trkpt>
      <trkpt lat="45.96496" lon="3.90861">
        <ele>673</ele>
        <time>2024-12-08T05:53:29.619Z</time>
      </trkpt>
      <trkpt lat="45.96496" lon="3.90861">
        <ele>673</ele>
        <time>2024-12-08T05:53:30.620Z</time>
      </trkpt>
      <trkpt lat="45.96496" lon="3.90861">
        <ele>673</ele>
        <time>2024-12-08T05:53:31.619Z</time>
      </trkpt>
      <trkpt lat="45.96496" lon="3.90861">
        <ele>673</ele>
        <time>2024-12-08T05:53:32.619Z</time>
      </trkpt>
      <trkpt lat="45.96496" lon="3.90861">
        <ele>674</ele>
        <time>2024-12-08T05:53:33.619Z</time>
      </trkpt>
      <trkpt lat="45.96496" lon="3.90861">
        <ele>674</ele>
        <time>2024-12-08T05:53:34.619Z</time>
      </trkpt>
      <trkpt lat="45.96496" lon="3.90861">
        <ele>674</ele>
        <time>2024-12-08T05:53:35.619Z</time>
      </trkpt>
      <trkpt lat="45.96496" lon="3.90861">
        <ele>674</ele>
        <time>2024-12-08T05:53:36.620Z</time>
      </trkpt>
      <trkpt lat="45.96496" lon="3.90861">
        <ele>674</ele>
        <time>2024-12-08T05:53:37.620Z</time>
      </trkpt>
      <trkpt lat="45.96497" lon="3.90861">
        <ele>674</ele>
        <time>2024-12-08T05:53:38.620Z</time>
      </trkpt>
      <trkpt lat="45.96497" lon="3.90861">
        <ele>674</ele>
        <time>2024-12-08T05:53:39.619Z</time>
      </trkpt>
      <trkpt lat="45.96497" lon="3.90861">
        <ele>674</ele>
        <time>2024-12-08T05:53:40.619Z</time>
      </trkpt>
      <trkpt lat="45.96497" lon="3.90861">
        <ele>674</ele>
        <time>2024-12-08T05:53:41.620Z</time>
      </trkpt>
      <trkpt lat="45.96497" lon="3.90861">
        <ele>674</ele>
        <time>2024-12-08T05:53:42.620Z</time>
      </trkpt>
      <trkpt lat="45.96497" lon="3.9086">
        <ele>674</ele>
        <time>2024-12-08T05:53:43.619Z</time>
      </trkpt>
      <trkpt lat="45.96497" lon="3.9086">
        <ele>674</ele>
        <time>2024-12-08T05:53:44.619Z</time>
      </trkpt>
      <trkpt lat="45.96497" lon="3.9086">
        <ele>674</ele>
        <time>2024-12-08T05:53:45.619Z</time>
      </trkpt>
      <trkpt lat="45.96497" lon="3.9086">
        <ele>674</ele>
        <time>2024-12-08T05:53:46.619Z</time>
      </trkpt>
      <trkpt lat="45.96497" lon="3.9086">
        <ele>674</ele>
        <time>2024-12-08T05:53:47.619Z</time>
      </trkpt>
      <trkpt lat="45.96497" lon="3.9086">
        <ele>674</ele>
        <time>2024-12-08T05:53:48.620Z</time>
      </trkpt>
      <trkpt lat="45.96497" lon="3.9086">
        <ele>674</ele>
        <time>2024-12-08T05:53:49.620Z</time>
      </trkpt>
      <trkpt lat="45.96497" lon="3.9086">
        <ele>674</ele>
        <time>2024-12-08T05:53:50.620Z</time>
      </trkpt>
      <trkpt lat="45.96497" lon="3.9086">
        <ele>674</ele>
        <time>2024-12-08T05:53:51.620Z</time>
      </trkpt>
      <trkpt lat="45.96497" lon="3.9086">
        <ele>674</ele>
        <time>2024-12-08T05:53:52.619Z</time>
      </trkpt>
      <trkpt lat="45.96497" lon="3.9086">
        <ele>674</ele>
        <time>2024-12-08T05:53:53.619Z</time>
      </trkpt>
      <trkpt lat="45.96497" lon="3.9086">
        <ele>674</ele>
        <time>2024-12-08T05:53:54.620Z</time>
      </trkpt>
      <trkpt lat="45.96497" lon="3.9086">
        <ele>674</ele>
        <time>2024-12-08T05:53:55.620Z</time>
      </trkpt>
      <trkpt lat="45.96497" lon="3.9086">
        <ele>674</ele>
        <time>2024-12-08T05:53:56.620Z</time>
      </trkpt>
      <trkpt lat="45.96497" lon="3.9086">
        <ele>674</ele>
        <time>2024-12-08T05:53:57.620Z</time>
      </trkpt>
      <trkpt lat="45.96497" lon="3.9086">
        <ele>674</ele>
        <time>2024-12-08T05:53:58.619Z</time>
      </trkpt>
      <trkpt lat="45.96497" lon="3.9086">
        <ele>674</ele>
        <time>2024-12-08T05:53:59.619Z</time>
      </trkpt>
      <trkpt lat="45.96497" lon="3.9086">
        <ele>674</ele>
        <time>2024-12-08T05:54:00.619Z</time>
      </trkpt>
      <trkpt lat="45.96497" lon="3.9086">
        <ele>674</ele>
        <time>2024-12-08T05:54:01.619Z</time>
      </trkpt>
      <trkpt lat="45.96497" lon="3.9086">
        <ele>674</ele>
        <time>2024-12-08T05:54:02.620Z</time>
      </trkpt>
      <trkpt lat="45.96497" lon="3.9086">
        <ele>674</ele>
        <time>2024-12-08T05:54:03.620Z</time>
      </trkpt>
      <trkpt lat="45.96497" lon="3.9086">
        <ele>674</ele>
        <time>2024-12-08T05:54:04.620Z</time>
      </trkpt>
      <trkpt lat="45.96497" lon="3.9086">
        <ele>674</ele>
        <time>2024-12-08T05:54:05.619Z</time>
      </trkpt>
      <trkpt lat="45.96497" lon="3.9086">
        <ele>674</ele>
        <time>2024-12-08T05:54:06.620Z</time>
      </trkpt>
      <trkpt lat="45.96497" lon="3.9086">
        <ele>674</ele>
        <time>2024-12-08T05:54:07.619Z</time>
      </trkpt>
      <trkpt lat="45.96497" lon="3.9086">
        <ele>674</ele>
        <time>2024-12-08T05:54:08.619Z</time>
      </trkpt>
      <trkpt lat="45.96497" lon="3.9086">
        <ele>674</ele>
        <time>2024-12-08T05:54:09.620Z</time>
      </trkpt>
      <trkpt lat="45.96497" lon="3.9086">
        <ele>674</ele>
        <time>2024-12-08T05:54:10.620Z</time>
      </trkpt>
      <trkpt lat="45.96497" lon="3.9086">
        <ele>674</ele>
        <time>2024-12-08T05:54:11.620Z</time>
      </trkpt>
      <trkpt lat="45.96497" lon="3.90859">
        <ele>674</ele>
        <time>2024-12-08T05:54:12.620Z</time>
      </trkpt>
      <trkpt lat="45.96497" lon="3.90859">
        <ele>674</ele>
        <time>2024-12-08T05:54:13.619Z</time>
      </trkpt>
      <trkpt lat="45.96497" lon="3.90859">
        <ele>674</ele>
        <time>2024-12-08T05:54:14.620Z</time>
      </trkpt>
      <trkpt lat="45.96497" lon="3.90858">
        <ele>674</ele>
        <time>2024-12-08T05:54:15.620Z</time>
      </trkpt>
      <trkpt lat="45.96497" lon="3.90857">
        <ele>674</ele>
        <time>2024-12-08T05:54:16.619Z</time>
      </trkpt>
      <trkpt lat="45.96496" lon="3.90856">
        <ele>674</ele>
        <time>2024-12-08T05:54:17.619Z</time>
      </trkpt>
      <trkpt lat="45.96496" lon="3.90856">
        <ele>674</ele>
        <time>2024-12-08T05:54:18.619Z</time>
      </trkpt>
      <trkpt lat="45.96496" lon="3.90856">
        <ele>674</ele>
        <time>2024-12-08T05:54:19.620Z</time>
      </trkpt>
      <trkpt lat="45.96495" lon="3.90856">
        <ele>674</ele>
        <time>2024-12-08T05:54:20.619Z</time>
      </trkpt>
      <trkpt lat="45.96495" lon="3.90855">
        <ele>674</ele>
        <time>2024-12-08T05:54:21.620Z</time>
      </trkpt>
      <trkpt lat="45.96495" lon="3.90855">
        <ele>674</ele>
        <time>2024-12-08T05:54:22.619Z</time>
      </trkpt>
      <trkpt lat="45.96495" lon="3.90855">
        <ele>674</ele>
        <time>2024-12-08T05:54:23.619Z</time>
      </trkpt>
      <trkpt lat="45.96495" lon="3.90855">
        <ele>674</ele>
        <time>2024-12-08T05:54:24.619Z</time>
      </trkpt>
      <trkpt lat="45.96495" lon="3.90855">
        <ele>674</ele>
        <time>2024-12-08T05:54:25.619Z</time>
      </trkpt>
      <trkpt lat="45.96495" lon="3.90855">
        <ele>674</ele>
        <time>2024-12-08T05:54:26.620Z</time>
      </trkpt>
      <trkpt lat="45.96495" lon="3.90855">
        <ele>674</ele>
        <time>2024-12-08T05:54:27.620Z</time>
      </trkpt>
      <trkpt lat="45.96495" lon="3.90855">
        <ele>674</ele>
        <time>2024-12-08T05:54:28.620Z</time>
      </trkpt>
      <trkpt lat="45.96495" lon="3.90855">
        <ele>674</ele>
        <time>2024-12-08T05:54:29.620Z</time>
      </trkpt>
      <trkpt lat="45.96495" lon="3.90855">
        <ele>674</ele>
        <time>2024-12-08T05:54:30.620Z</time>
      </trkpt>
      <trkpt lat="45.96495" lon="3.90855">
        <ele>674</ele>
        <time>2024-12-08T05:54:31.620Z</time>
      </trkpt>
      <trkpt lat="45.96495" lon="3.90855">
        <ele>674</ele>
        <time>2024-12-08T05:54:32.620Z</time>
      </trkpt>
      <trkpt lat="45.96495" lon="3.90855">
        <ele>674</ele>
        <time>2024-12-08T05:54:33.620Z</time>
      </trkpt>
      <trkpt lat="45.96495" lon="3.90855">
        <ele>674</ele>
        <time>2024-12-08T05:54:34.620Z</time>
      </trkpt>
      <trkpt lat="45.96495" lon="3.90855">
        <ele>674</ele>
        <time>2024-12-08T05:54:35.619Z</time>
      </trkpt>
      <trkpt lat="45.96495" lon="3.90855">
        <ele>674</ele>
        <time>2024-12-08T05:54:36.620Z</time>
      </trkpt>
      <trkpt lat="45.96495" lon="3.90855">
        <ele>674</ele>
        <time>2024-12-08T05:54:37.619Z</time>
      </trkpt>
      <trkpt lat="45.96495" lon="3.90855">
        <ele>674</ele>
        <time>2024-12-08T05:54:38.620Z</time>
      </trkpt>
      <trkpt lat="45.96496" lon="3.90855">
        <ele>674</ele>
        <time>2024-12-08T05:54:39.620Z</time>
      </trkpt>
      <trkpt lat="45.96496" lon="3.90855">
        <ele>674</ele>
        <time>2024-12-08T05:54:40.620Z</time>
      </trkpt>
      <trkpt lat="45.96496" lon="3.90855">
        <ele>674</ele>
        <time>2024-12-08T05:54:41.619Z</time>
      </trkpt>
      <trkpt lat="45.96496" lon="3.90855">
        <ele>674</ele>
        <time>2024-12-08T05:54:42.620Z</time>
      </trkpt>
      <trkpt lat="45.96496" lon="3.90855">
        <ele>674</ele>
        <time>2024-12-08T05:54:43.620Z</time>
      </trkpt>
      <trkpt lat="45.96496" lon="3.90855">
        <ele>674</ele>
        <time>2024-12-08T05:54:44.620Z</time>
      </trkpt>
      <trkpt lat="45.96496" lon="3.90855">
        <ele>674</ele>
        <time>2024-12-08T05:54:45.619Z</time>
      </trkpt>
      <trkpt lat="45.96496" lon="3.90854">
        <ele>674</ele>
        <time>2024-12-08T05:54:46.619Z</time>
      </trkpt>
      <trkpt lat="45.96495" lon="3.90853">
        <ele>674</ele>
        <time>2024-12-08T05:54:47.620Z</time>
      </trkpt>
      <trkpt lat="45.96495" lon="3.90853">
        <ele>674</ele>
        <time>2024-12-08T05:54:48.619Z</time>
      </trkpt>
      <trkpt lat="45.96495" lon="3.90853">
        <ele>674</ele>
        <time>2024-12-08T05:54:49.619Z</time>
      </trkpt>
      <trkpt lat="45.96495" lon="3.90853">
        <ele>674</ele>
        <time>2024-12-08T05:54:50.619Z</time>
      </trkpt>
      <trkpt lat="45.96495" lon="3.90853">
        <ele>674</ele>
        <time>2024-12-08T05:54:51.620Z</time>
      </trkpt>
      <trkpt lat="45.96495" lon="3.90853">
        <ele>674</ele>
        <time>2024-12-08T05:54:52.619Z</time>
      </trkpt>
      <trkpt lat="45.96495" lon="3.90853">
        <ele>674</ele>
        <time>2024-12-08T05:54:53.619Z</time>
      </trkpt>
      <trkpt lat="45.96495" lon="3.90853">
        <ele>674</ele>
        <time>2024-12-08T05:54:54.620Z</time>
      </trkpt>
      <trkpt lat="45.96495" lon="3.90853">
        <ele>675</ele>
        <time>2024-12-08T05:54:55.619Z</time>
      </trkpt>
      <trkpt lat="45.96495" lon="3.90853">
        <ele>675</ele>
        <time>2024-12-08T05:54:56.620Z</time>
      </trkpt>
      <trkpt lat="45.96495" lon="3.90853">
        <ele>675</ele>
        <time>2024-12-08T05:54:57.619Z</time>
      </trkpt>
      <trkpt lat="45.96495" lon="3.90853">
        <ele>675</ele>
        <time>2024-12-08T05:54:58.620Z</time>
      </trkpt>
      <trkpt lat="45.96495" lon="3.90853">
        <ele>675</ele>
        <time>2024-12-08T05:54:59.619Z</time>
      </trkpt>
      <trkpt lat="45.96495" lon="3.90853">
        <ele>675</ele>
        <time>2024-12-08T05:55:00.620Z</time>
      </trkpt>
      <trkpt lat="45.96496" lon="3.90853">
        <ele>675</ele>
        <time>2024-12-08T05:55:01.620Z</time>
      </trkpt>
      <trkpt lat="45.96497" lon="3.90853">
        <ele>675</ele>
        <time>2024-12-08T05:55:02.619Z</time>
      </trkpt>
      <trkpt lat="45.96498" lon="3.90854">
        <ele>675</ele>
        <time>2024-12-08T05:55:03.620Z</time>
      </trkpt>
      <trkpt lat="45.96498" lon="3.90854">
        <ele>675</ele>
        <time>2024-12-08T05:55:04.619Z</time>
      </trkpt>
      <trkpt lat="45.96499" lon="3.90854">
        <ele>675</ele>
        <time>2024-12-08T05:55:05.619Z</time>
      </trkpt>
      <trkpt lat="45.96499" lon="3.90854">
        <ele>675</ele>
        <time>2024-12-08T05:55:06.619Z</time>
      </trkpt>
      <trkpt lat="45.965" lon="3.90854">
        <ele>675</ele>
        <time>2024-12-08T05:55:07.620Z</time>
      </trkpt>
      <trkpt lat="45.965" lon="3.90854">
        <ele>675</ele>
        <time>2024-12-08T05:55:08.619Z</time>
      </trkpt>
      <trkpt lat="45.96501" lon="3.90855">
        <ele>675</ele>
        <time>2024-12-08T05:55:09.620Z</time>
      </trkpt>
      <trkpt lat="45.96501" lon="3.90855">
        <ele>675</ele>
        <time>2024-12-08T05:55:10.619Z</time>
      </trkpt>
      <trkpt lat="45.96501" lon="3.90856">
        <ele>675</ele>
        <time>2024-12-08T05:55:11.620Z</time>
      </trkpt>
      <trkpt lat="45.96501" lon="3.90856">
        <ele>676</ele>
        <time>2024-12-08T05:55:12.620Z</time>
      </trkpt>
      <trkpt lat="45.96502" lon="3.90857">
        <ele>676</ele>
        <time>2024-12-08T05:55:13.620Z</time>
      </trkpt>
      <trkpt lat="45.96502" lon="3.90859">
        <ele>676</ele>
        <time>2024-12-08T05:55:14.619Z</time>
      </trkpt>
      <trkpt lat="45.96503" lon="3.9086">
        <ele>676</ele>
        <time>2024-12-08T05:55:15.620Z</time>
      </trkpt>
      <trkpt lat="45.96503" lon="3.9086">
        <ele>677</ele>
        <time>2024-12-08T05:55:16.619Z</time>
      </trkpt>
      <trkpt lat="45.96503" lon="3.90861">
        <ele>677</ele>
        <time>2024-12-08T05:55:17.619Z</time>
      </trkpt>
      <trkpt lat="45.96504" lon="3.90862">
        <ele>677</ele>
        <time>2024-12-08T05:55:18.619Z</time>
      </trkpt>
      <trkpt lat="45.96504" lon="3.90863">
        <ele>677</ele>
        <time>2024-12-08T05:55:19.620Z</time>
      </trkpt>
      <trkpt lat="45.96503" lon="3.90863">
        <ele>677</ele>
        <time>2024-12-08T05:55:20.619Z</time>
      </trkpt>
      <trkpt lat="45.96504" lon="3.90863">
        <ele>677</ele>
        <time>2024-12-08T05:55:21.620Z</time>
      </trkpt>
      <trkpt lat="45.96504" lon="3.90863">
        <ele>677</ele>
        <time>2024-12-08T05:55:22.619Z</time>
      </trkpt>
      <trkpt lat="45.96503" lon="3.90863">
        <ele>677</ele>
        <time>2024-12-08T05:55:23.619Z</time>
      </trkpt>
      <trkpt lat="45.96504" lon="3.90863">
        <ele>677</ele>
        <time>2024-12-08T05:55:24.620Z</time>
      </trkpt>
      <trkpt lat="45.96504" lon="3.90863">
        <ele>677</ele>
        <time>2024-12-08T05:55:25.619Z</time>
      </trkpt>
      <trkpt lat="45.96504" lon="3.90863">
        <ele>677</ele>
        <time>2024-12-08T05:55:26.619Z</time>
      </trkpt>
      <trkpt lat="45.96505" lon="3.90864">
        <ele>677</ele>
        <time>2024-12-08T05:55:27.620Z</time>
      </trkpt>
      <trkpt lat="45.96506" lon="3.90864">
        <ele>677</ele>
        <time>2024-12-08T05:55:28.619Z</time>
      </trkpt>
      <trkpt lat="45.96506" lon="3.90862">
        <ele>677</ele>
        <time>2024-12-08T05:55:29.620Z</time>
      </trkpt>
      <trkpt lat="45.96506" lon="3.90862">
        <ele>678</ele>
        <time>2024-12-08T05:55:30.620Z</time>
      </trkpt>
      <trkpt lat="45.96507" lon="3.90861">
        <ele>678</ele>
        <time>2024-12-08T05:55:31.619Z</time>
      </trkpt>
      <trkpt lat="45.96506" lon="3.9086">
        <ele>678</ele>
        <time>2024-12-08T05:55:32.620Z</time>
      </trkpt>
      <trkpt lat="45.96506" lon="3.9086">
        <ele>677</ele>
        <time>2024-12-08T05:55:33.620Z</time>
      </trkpt>
      <trkpt lat="45.96505" lon="3.9086">
        <ele>677</ele>
        <time>2024-12-08T05:55:34.619Z</time>
      </trkpt>
      <trkpt lat="45.96506" lon="3.9086">
        <ele>678</ele>
        <time>2024-12-08T05:55:35.619Z</time>
      </trkpt>
      <trkpt lat="45.96506" lon="3.90859">
        <ele>678</ele>
        <time>2024-12-08T05:55:36.619Z</time>
      </trkpt>
      <trkpt lat="45.96507" lon="3.9086">
        <ele>678</ele>
        <time>2024-12-08T05:55:37.620Z</time>
      </trkpt>
      <trkpt lat="45.96507" lon="3.90859">
        <ele>678</ele>
        <time>2024-12-08T05:55:38.619Z</time>
      </trkpt>
      <trkpt lat="45.96506" lon="3.90859">
        <ele>678</ele>
        <time>2024-12-08T05:55:39.620Z</time>
      </trkpt>
      <trkpt lat="45.96506" lon="3.90858">
        <ele>678</ele>
        <time>2024-12-08T05:55:40.620Z</time>
      </trkpt>
      <trkpt lat="45.96506" lon="3.90858">
        <ele>678</ele>
        <time>2024-12-08T05:55:41.619Z</time>
      </trkpt>
      <trkpt lat="45.96506" lon="3.90858">
        <ele>678</ele>
        <time>2024-12-08T05:55:42.620Z</time>
      </trkpt>
      <trkpt lat="45.96506" lon="3.90858">
        <ele>678</ele>
        <time>2024-12-08T05:55:43.619Z</time>
      </trkpt>
      <trkpt lat="45.96506" lon="3.90858">
        <ele>678</ele>
        <time>2024-12-08T05:55:44.619Z</time>
      </trkpt>
      <trkpt lat="45.96506" lon="3.90858">
        <ele>679</ele>
        <time>2024-12-08T05:55:45.620Z</time>
      </trkpt>
      <trkpt lat="45.96506" lon="3.90858">
        <ele>679</ele>
        <time>2024-12-08T05:55:46.620Z</time>
      </trkpt>
      <trkpt lat="45.96506" lon="3.90858">
        <ele>679</ele>
        <time>2024-12-08T05:55:47.619Z</time>
      </trkpt>
      <trkpt lat="45.96506" lon="3.90858">
        <ele>679</ele>
        <time>2024-12-08T05:55:48.620Z</time>
      </trkpt>
      <trkpt lat="45.96506" lon="3.90858">
        <ele>679</ele>
        <time>2024-12-08T05:55:49.620Z</time>
      </trkpt>
      <trkpt lat="45.96506" lon="3.90858">
        <ele>679</ele>
        <time>2024-12-08T05:55:50.620Z</time>
      </trkpt>
      <trkpt lat="45.96506" lon="3.90858">
        <ele>679</ele>
        <time>2024-12-08T05:55:51.619Z</time>
      </trkpt>
      <trkpt lat="45.96506" lon="3.90858">
        <ele>679</ele>
        <time>2024-12-08T05:55:52.620Z</time>
      </trkpt>
      <trkpt lat="45.96506" lon="3.90858">
        <ele>679</ele>
        <time>2024-12-08T05:55:53.619Z</time>
      </trkpt>
      <trkpt lat="45.96506" lon="3.90858">
        <ele>680</ele>
        <time>2024-12-08T05:55:54.620Z</time>
      </trkpt>
      <trkpt lat="45.96506" lon="3.90858">
        <ele>680</ele>
        <time>2024-12-08T05:55:55.619Z</time>
      </trkpt>
      <trkpt lat="45.96505" lon="3.90857">
        <ele>680</ele>
        <time>2024-12-08T05:55:56.619Z</time>
      </trkpt>
      <trkpt lat="45.96504" lon="3.90856">
        <ele>680</ele>
        <time>2024-12-08T05:55:57.620Z</time>
      </trkpt>
      <trkpt lat="45.96503" lon="3.90855">
        <ele>680</ele>
        <time>2024-12-08T05:55:58.619Z</time>
      </trkpt>
      <trkpt lat="45.96503" lon="3.90854">
        <ele>680</ele>
        <time>2024-12-08T05:55:59.619Z</time>
      </trkpt>
      <trkpt lat="45.96504" lon="3.90853">
        <ele>680</ele>
        <time>2024-12-08T05:56:00.619Z</time>
      </trkpt>
      <trkpt lat="45.96499" lon="3.90851">
        <ele>680</ele>
        <time>2024-12-08T05:56:01.619Z</time>
      </trkpt>
      <trkpt lat="45.96499" lon="3.90851">
        <ele>680</ele>
        <time>2024-12-08T05:56:02.620Z</time>
      </trkpt>
      <trkpt lat="45.96496" lon="3.90854">
        <ele>680</ele>
        <time>2024-12-08T05:56:03.620Z</time>
      </trkpt>
      <trkpt lat="45.96493" lon="3.90856">
        <ele>680</ele>
        <time>2024-12-08T05:56:04.620Z</time>
      </trkpt>
      <trkpt lat="45.96492" lon="3.9086">
        <ele>680</ele>
        <time>2024-12-08T05:56:05.619Z</time>
      </trkpt>
      <trkpt lat="45.96491" lon="3.90865">
        <ele>680</ele>
        <time>2024-12-08T05:56:06.619Z</time>
      </trkpt>
      <trkpt lat="45.9649" lon="3.90864">
        <ele>680</ele>
        <time>2024-12-08T05:56:07.620Z</time>
      </trkpt>
      <trkpt lat="45.96492" lon="3.90866">
        <ele>680</ele>
        <time>2024-12-08T05:56:08.620Z</time>
      </trkpt>
      <trkpt lat="45.96495" lon="3.90867">
        <ele>680</ele>
        <time>2024-12-08T05:56:09.619Z</time>
      </trkpt>
      <trkpt lat="45.96495" lon="3.90866">
        <ele>680</ele>
        <time>2024-12-08T05:56:10.619Z</time>
      </trkpt>
      <trkpt lat="45.96499" lon="3.90866">
        <ele>680</ele>
        <time>2024-12-08T05:56:11.619Z</time>
      </trkpt>
      <trkpt lat="45.96501" lon="3.90865">
        <ele>680</ele>
        <time>2024-12-08T05:56:12.620Z</time>
      </trkpt>
      <trkpt lat="45.96503" lon="3.90863">
        <ele>680</ele>
        <time>2024-12-08T05:56:13.620Z</time>
      </trkpt>
      <trkpt lat="45.96504" lon="3.90862">
        <ele>680</ele>
        <time>2024-12-08T05:56:14.620Z</time>
      </trkpt>
      <trkpt lat="45.96504" lon="3.90861">
        <ele>680</ele>
        <time>2024-12-08T05:56:15.619Z</time>
      </trkpt>
      <trkpt lat="45.96504" lon="3.90864">
        <ele>680</ele>
        <time>2024-12-08T05:56:16.619Z</time>
      </trkpt>
      <trkpt lat="45.96505" lon="3.90866">
        <ele>680</ele>
        <time>2024-12-08T05:56:17.619Z</time>
      </trkpt>
      <trkpt lat="45.96505" lon="3.90864">
        <ele>680</ele>
        <time>2024-12-08T05:56:18.620Z</time>
      </trkpt>
      <trkpt lat="45.96502" lon="3.90862">
        <ele>680</ele>
        <time>2024-12-08T05:56:19.619Z</time>
      </trkpt>
      <trkpt lat="45.96501" lon="3.90861">
        <ele>680</ele>
        <time>2024-12-08T05:56:20.620Z</time>
      </trkpt>
      <trkpt lat="45.96499" lon="3.90861">
        <ele>680</ele>
        <time>2024-12-08T05:56:21.619Z</time>
      </trkpt>
      <trkpt lat="45.96498" lon="3.9086">
        <ele>680</ele>
        <time>2024-12-08T05:56:22.619Z</time>
      </trkpt>
      <trkpt lat="45.96497" lon="3.9086">
        <ele>680</ele>
        <time>2024-12-08T05:56:23.619Z</time>
      </trkpt>
      <trkpt lat="45.96493" lon="3.90859">
        <ele>680</ele>
        <time>2024-12-08T05:56:26.620Z</time>
      </trkpt>
      <trkpt lat="45.96492" lon="3.90857">
        <ele>680</ele>
        <time>2024-12-08T05:56:27.619Z</time>
      </trkpt>
      <trkpt lat="45.96491" lon="3.90856">
        <ele>680</ele>
        <time>2024-12-08T05:56:28.620Z</time>
      </trkpt>
      <trkpt lat="45.9649" lon="3.90854">
        <ele>680</ele>
        <time>2024-12-08T05:56:29.620Z</time>
      </trkpt>
      <trkpt lat="45.96489" lon="3.90852">
        <ele>681</ele>
        <time>2024-12-08T05:56:30.620Z</time>
      </trkpt>
      <trkpt lat="45.96488" lon="3.90851">
        <ele>681</ele>
        <time>2024-12-08T05:56:31.620Z</time>
      </trkpt>
      <trkpt lat="45.96487" lon="3.9085">
        <ele>681</ele>
        <time>2024-12-08T05:56:32.619Z</time>
      </trkpt>
      <trkpt lat="45.96486" lon="3.90847">
        <ele>681</ele>
        <time>2024-12-08T05:56:33.619Z</time>
      </trkpt>
      <trkpt lat="45.96485" lon="3.90846">
        <ele>681</ele>
        <time>2024-12-08T05:56:34.620Z</time>
      </trkpt>
      <trkpt lat="45.96486" lon="3.90844">
        <ele>681</ele>
        <time>2024-12-08T05:56:35.620Z</time>
      </trkpt>
      <trkpt lat="45.96487" lon="3.90844">
        <ele>681</ele>
        <time>2024-12-08T05:56:37.620Z</time>
      </trkpt>
      <trkpt lat="45.96487" lon="3.90844">
        <ele>681</ele>
        <time>2024-12-08T05:56:38.619Z</time>
      </trkpt>
      <trkpt lat="45.96486" lon="3.90843">
        <ele>681</ele>
        <time>2024-12-08T05:56:39.619Z</time>
      </trkpt>
      <trkpt lat="45.96487" lon="3.90842">
        <ele>681</ele>
        <time>2024-12-08T05:56:40.620Z</time>
      </trkpt>
      <trkpt lat="45.96486" lon="3.90842">
        <ele>681</ele>
        <time>2024-12-08T05:56:41.619Z</time>
      </trkpt>
      <trkpt lat="45.96486" lon="3.90843">
        <ele>681</ele>
        <time>2024-12-08T05:56:42.620Z</time>
      </trkpt>
      <trkpt lat="45.96486" lon="3.90842">
        <ele>681</ele>
        <time>2024-12-08T05:56:43.619Z</time>
      </trkpt>
      <trkpt lat="45.96486" lon="3.90842">
        <ele>681</ele>
        <time>2024-12-08T05:56:44.620Z</time>
      </trkpt>
      <trkpt lat="45.96486" lon="3.90843">
        <ele>681</ele>
        <time>2024-12-08T05:56:45.619Z</time>
      </trkpt>
      <trkpt lat="45.96488" lon="3.90843">
        <ele>681</ele>
        <time>2024-12-08T05:56:46.620Z</time>
      </trkpt>
      <trkpt lat="45.9649" lon="3.90839">
        <ele>681</ele>
        <time>2024-12-08T05:56:49.619Z</time>
      </trkpt>
      <trkpt lat="45.96491" lon="3.90839">
        <ele>681</ele>
        <time>2024-12-08T05:56:50.619Z</time>
      </trkpt>
      <trkpt lat="45.96493" lon="3.90839">
        <ele>681</ele>
        <time>2024-12-08T05:56:51.619Z</time>
      </trkpt>
      <trkpt lat="45.96494" lon="3.90838">
        <ele>681</ele>
        <time>2024-12-08T05:56:53.620Z</time>
      </trkpt>
      <trkpt lat="45.96495" lon="3.90838">
        <ele>681</ele>
        <time>2024-12-08T05:56:55.619Z</time>
      </trkpt>
      <trkpt lat="45.96496" lon="3.9084">
        <ele>680</ele>
        <time>2024-12-08T05:56:56.619Z</time>
      </trkpt>
      <trkpt lat="45.96498" lon="3.90845">
        <ele>680</ele>
        <time>2024-12-08T05:56:57.620Z</time>
      </trkpt>
      <trkpt lat="45.96499" lon="3.90846">
        <ele>680</ele>
        <time>2024-12-08T05:56:58.620Z</time>
      </trkpt>
      <trkpt lat="45.96501" lon="3.90851">
        <ele>679</ele>
        <time>2024-12-08T05:56:59.619Z</time>
      </trkpt>
      <trkpt lat="45.96502" lon="3.90855">
        <ele>679</ele>
        <time>2024-12-08T05:57:00.619Z</time>
      </trkpt>
      <trkpt lat="45.965" lon="3.90854">
        <ele>678</ele>
        <time>2024-12-08T05:57:01.619Z</time>
      </trkpt>
      <trkpt lat="45.96499" lon="3.90854">
        <ele>678</ele>
        <time>2024-12-08T05:57:02.619Z</time>
      </trkpt>
      <trkpt lat="45.96498" lon="3.90854">
        <ele>677</ele>
        <time>2024-12-08T05:57:03.619Z</time>
      </trkpt>
      <trkpt lat="45.965" lon="3.90855">
        <ele>676</ele>
        <time>2024-12-08T05:57:04.619Z</time>
      </trkpt>
      <trkpt lat="45.965" lon="3.90854">
        <ele>675</ele>
        <time>2024-12-08T05:57:05.619Z</time>
      </trkpt>
      <trkpt lat="45.96501" lon="3.90854">
        <ele>675</ele>
        <time>2024-12-08T05:57:06.619Z</time>
      </trkpt>
      <trkpt lat="45.96502" lon="3.90856">
        <ele>674</ele>
        <time>2024-12-08T05:57:07.619Z</time>
      </trkpt>
      <trkpt lat="45.96503" lon="3.90858">
        <ele>674</ele>
        <time>2024-12-08T05:57:08.619Z</time>
      </trkpt>
      <trkpt lat="45.96504" lon="3.90859">
        <ele>673</ele>
        <time>2024-12-08T05:57:09.620Z</time>
      </trkpt>
      <trkpt lat="45.96504" lon="3.90858">
        <ele>673</ele>
        <time>2024-12-08T05:57:10.620Z</time>
      </trkpt>
      <trkpt lat="45.96504" lon="3.90855">
        <ele>672</ele>
        <time>2024-12-08T05:57:11.619Z</time>
      </trkpt>
      <trkpt lat="45.96506" lon="3.90854">
        <ele>672</ele>
        <time>2024-12-08T05:57:12.620Z</time>
      </trkpt>
      <trkpt lat="45.96508" lon="3.90854">
        <ele>671</ele>
        <time>2024-12-08T05:57:13.619Z</time>
      </trkpt>
      <trkpt lat="45.96508" lon="3.90854">
        <ele>671</ele>
        <time>2024-12-08T05:57:14.620Z</time>
      </trkpt>
      <trkpt lat="45.96508" lon="3.90855">
        <ele>671</ele>
        <time>2024-12-08T05:57:15.619Z</time>
      </trkpt>
      <trkpt lat="45.96507" lon="3.90857">
        <ele>670</ele>
        <time>2024-12-08T05:57:16.619Z</time>
      </trkpt>
      <trkpt lat="45.96505" lon="3.90855">
        <ele>670</ele>
        <time>2024-12-08T05:57:17.619Z</time>
      </trkpt>
      <trkpt lat="45.96503" lon="3.90853">
        <ele>670</ele>
        <time>2024-12-08T05:57:18.619Z</time>
      </trkpt>
      <trkpt lat="45.96503" lon="3.90855">
        <ele>670</ele>
        <time>2024-12-08T05:57:19.619Z</time>
      </trkpt>
      <trkpt lat="45.96504" lon="3.90855">
        <ele>670</ele>
        <time>2024-12-08T05:57:20.619Z</time>
      </trkpt>
      <trkpt lat="45.96504" lon="3.90854">
        <ele>669</ele>
        <time>2024-12-08T05:57:21.620Z</time>
      </trkpt>
      <trkpt lat="45.96504" lon="3.90855">
        <ele>669</ele>
        <time>2024-12-08T05:57:22.620Z</time>
      </trkpt>
      <trkpt lat="45.96503" lon="3.90858">
        <ele>669</ele>
        <time>2024-12-08T05:57:23.619Z</time>
      </trkpt>
      <trkpt lat="45.96503" lon="3.90858">
        <ele>668</ele>
        <time>2024-12-08T05:57:24.619Z</time>
      </trkpt>
      <trkpt lat="45.96501" lon="3.90855">
        <ele>668</ele>
        <time>2024-12-08T05:57:25.620Z</time>
      </trkpt>
      <trkpt lat="45.96498" lon="3.90856">
        <ele>668</ele>
        <time>2024-12-08T05:57:26.619Z</time>
      </trkpt>
      <trkpt lat="45.96497" lon="3.90856">
        <ele>668</ele>
        <time>2024-12-08T05:57:27.619Z</time>
      </trkpt>
      <trkpt lat="45.96497" lon="3.90857">
        <ele>668</ele>
        <time>2024-12-08T05:57:28.619Z</time>
      </trkpt>
      <trkpt lat="45.96496" lon="3.90857">
        <ele>668</ele>
        <time>2024-12-08T05:57:29.619Z</time>
      </trkpt>
      <trkpt lat="45.96497" lon="3.90857">
        <ele>668</ele>
        <time>2024-12-08T05:57:30.619Z</time>
      </trkpt>
      <trkpt lat="45.96497" lon="3.90856">
        <ele>667</ele>
        <time>2024-12-08T05:57:31.619Z</time>
      </trkpt>
      <trkpt lat="45.96499" lon="3.90856">
        <ele>667</ele>
        <time>2024-12-08T05:57:32.619Z</time>
      </trkpt>
      <trkpt lat="45.965" lon="3.90856">
        <ele>667</ele>
        <time>2024-12-08T05:57:33.620Z</time>
      </trkpt>
      <trkpt lat="45.965" lon="3.90856">
        <ele>667</ele>
        <time>2024-12-08T05:57:34.619Z</time>
      </trkpt>
      <trkpt lat="45.96503" lon="3.90857">
        <ele>667</ele>
        <time>2024-12-08T05:57:35.620Z</time>
      </trkpt>
      <trkpt lat="45.96507" lon="3.90854">
        <ele>667</ele>
        <time>2024-12-08T05:57:36.619Z</time>
      </trkpt>
      <trkpt lat="45.96507" lon="3.90856">
        <ele>667</ele>
        <time>2024-12-08T05:57:37.620Z</time>
      </trkpt>
      <trkpt lat="45.96508" lon="3.90862">
        <ele>667</ele>
        <time>2024-12-08T05:57:38.619Z</time>
      </trkpt>
      <trkpt lat="45.96512" lon="3.90862">
        <ele>667</ele>
        <time>2024-12-08T05:57:39.620Z</time>
      </trkpt>
      <trkpt lat="45.96512" lon="3.90864">
        <ele>668</ele>
        <time>2024-12-08T05:57:40.619Z</time>
      </trkpt>
      <trkpt lat="45.96512" lon="3.90864">
        <ele>668</ele>
        <time>2024-12-08T05:57:41.620Z</time>
      </trkpt>
      <trkpt lat="45.96513" lon="3.90866">
        <ele>668</ele>
        <time>2024-12-08T05:57:42.619Z</time>
      </trkpt>
      <trkpt lat="45.96516" lon="3.90867">
        <ele>668</ele>
        <time>2024-12-08T05:57:43.619Z</time>
      </trkpt>
      <trkpt lat="45.96517" lon="3.90873">
        <ele>668</ele>
        <time>2024-12-08T05:57:44.620Z</time>
      </trkpt>
      <trkpt lat="45.96517" lon="3.90876">
        <ele>669</ele>
        <time>2024-12-08T05:57:45.620Z</time>
      </trkpt>
      <trkpt lat="45.96517" lon="3.90876">
        <ele>669</ele>
        <time>2024-12-08T05:57:46.620Z</time>
      </trkpt>
      <trkpt lat="45.96517" lon="3.90876">
        <ele>669</ele>
        <time>2024-12-08T05:57:47.619Z</time>
      </trkpt>
      <trkpt lat="45.96516" lon="3.90876">
        <ele>669</ele>
        <time>2024-12-08T05:57:48.620Z</time>
      </trkpt>
      <trkpt lat="45.96517" lon="3.90875">
        <ele>670</ele>
        <time>2024-12-08T05:57:49.620Z</time>
      </trkpt>
      <trkpt lat="45.96517" lon="3.90874">
        <ele>670</ele>
        <time>2024-12-08T05:57:50.619Z</time>
      </trkpt>
      <trkpt lat="45.96517" lon="3.90873">
        <ele>670</ele>
        <time>2024-12-08T05:57:51.620Z</time>
      </trkpt>
      <trkpt lat="45.96518" lon="3.90872">
        <ele>670</ele>
        <time>2024-12-08T05:57:52.620Z</time>
      </trkpt>
      <trkpt lat="45.96518" lon="3.90872">
        <ele>670</ele>
        <time>2024-12-08T05:57:53.620Z</time>
      </trkpt>
      <trkpt lat="45.96519" lon="3.9087">
        <ele>670</ele>
        <time>2024-12-08T05:57:56.619Z</time>
      </trkpt>
      <trkpt lat="45.96519" lon="3.90869">
        <ele>670</ele>
        <time>2024-12-08T05:57:57.619Z</time>
      </trkpt>
      <trkpt lat="45.96519" lon="3.90869">
        <ele>670</ele>
        <time>2024-12-08T05:57:58.620Z</time>
      </trkpt>
      <trkpt lat="45.96519" lon="3.90868">
        <ele>671</ele>
        <time>2024-12-08T05:57:59.619Z</time>
      </trkpt>
      <trkpt lat="45.96519" lon="3.90867">
        <ele>671</ele>
        <time>2024-12-08T05:58:00.620Z</time>
      </trkpt>
      <trkpt lat="45.96519" lon="3.90866">
        <ele>671</ele>
        <time>2024-12-08T05:58:01.620Z</time>
      </trkpt>
      <trkpt lat="45.96516" lon="3.90867">
        <ele>671</ele>
        <time>2024-12-08T05:58:02.619Z</time>
      </trkpt>
      <trkpt lat="45.96515" lon="3.90862">
        <ele>670</ele>
        <time>2024-12-08T05:58:03.620Z</time>
      </trkpt>
      <trkpt lat="45.96516" lon="3.90855">
        <ele>670</ele>
        <time>2024-12-08T05:58:04.619Z</time>
      </trkpt>
      <trkpt lat="45.96518" lon="3.9085">
        <ele>670</ele>
        <time>2024-12-08T05:58:05.619Z</time>
      </trkpt>
      <trkpt lat="45.96519" lon="3.90848">
        <ele>670</ele>
        <time>2024-12-08T05:58:06.620Z</time>
      </trkpt>
      <trkpt lat="45.9652" lon="3.90846">
        <ele>670</ele>
        <time>2024-12-08T05:58:07.620Z</time>
      </trkpt>
      <trkpt lat="45.96522" lon="3.90845">
        <ele>670</ele>
        <time>2024-12-08T05:58:08.619Z</time>
      </trkpt>
      <trkpt lat="45.96522" lon="3.90848">
        <ele>670</ele>
        <time>2024-12-08T05:58:09.619Z</time>
      </trkpt>
      <trkpt lat="45.96522" lon="3.90847">
        <ele>670</ele>
        <time>2024-12-08T05:58:10.620Z</time>
      </trkpt>
      <trkpt lat="45.96521" lon="3.90847">
        <ele>669</ele>
        <time>2024-12-08T05:58:11.620Z</time>
      </trkpt>
      <trkpt lat="45.96521" lon="3.90847">
        <ele>669</ele>
        <time>2024-12-08T05:58:12.619Z</time>
      </trkpt>
      <trkpt lat="45.96521" lon="3.90848">
        <ele>669</ele>
        <time>2024-12-08T05:58:13.619Z</time>
      </trkpt>
      <trkpt lat="45.96521" lon="3.90849">
        <ele>669</ele>
        <time>2024-12-08T05:58:14.619Z</time>
      </trkpt>
      <trkpt lat="45.96522" lon="3.90848">
        <ele>669</ele>
        <time>2024-12-08T05:58:15.619Z</time>
      </trkpt>
      <trkpt lat="45.96522" lon="3.90848">
        <ele>669</ele>
        <time>2024-12-08T05:58:16.619Z</time>
      </trkpt>
      <trkpt lat="45.96522" lon="3.90847">
        <ele>669</ele>
        <time>2024-12-08T05:58:17.619Z</time>
      </trkpt>
      <trkpt lat="45.96523" lon="3.90847">
        <ele>669</ele>
        <time>2024-12-08T05:58:18.619Z</time>
      </trkpt>
      <trkpt lat="45.96523" lon="3.90848">
        <ele>669</ele>
        <time>2024-12-08T05:58:19.620Z</time>
      </trkpt>
      <trkpt lat="45.96523" lon="3.90847">
        <ele>669</ele>
        <time>2024-12-08T05:58:20.619Z</time>
      </trkpt>
      <trkpt lat="45.96523" lon="3.90848">
        <ele>669</ele>
        <time>2024-12-08T05:58:21.619Z</time>
      </trkpt>
      <trkpt lat="45.96523" lon="3.90848">
        <ele>668</ele>
        <time>2024-12-08T05:58:22.619Z</time>
      </trkpt>
      <trkpt lat="45.96523" lon="3.90847">
        <ele>668</ele>
        <time>2024-12-08T05:58:24.620Z</time>
      </trkpt>
      <trkpt lat="45.96524" lon="3.90848">
        <ele>668</ele>
        <time>2024-12-08T05:58:25.619Z</time>
      </trkpt>
      <trkpt lat="45.96523" lon="3.90851">
        <ele>668</ele>
        <time>2024-12-08T05:58:26.620Z</time>
      </trkpt>
      <trkpt lat="45.96524" lon="3.90849">
        <ele>668</ele>
        <time>2024-12-08T05:58:27.619Z</time>
      </trkpt>
      <trkpt lat="45.96522" lon="3.90851">
        <ele>668</ele>
        <time>2024-12-08T05:58:28.620Z</time>
      </trkpt>
      <trkpt lat="45.96522" lon="3.90853">
        <ele>668</ele>
        <time>2024-12-08T05:58:29.620Z</time>
      </trkpt>
      <trkpt lat="45.9652" lon="3.90854">
        <ele>668</ele>
        <time>2024-12-08T05:58:30.619Z</time>
      </trkpt>
      <trkpt lat="45.9652" lon="3.90855">
        <ele>668</ele>
        <time>2024-12-08T05:58:31.619Z</time>
      </trkpt>
      <trkpt lat="45.96518" lon="3.90856">
        <ele>668</ele>
        <time>2024-12-08T05:58:32.619Z</time>
      </trkpt>
      <trkpt lat="45.96517" lon="3.90857">
        <ele>668</ele>
        <time>2024-12-08T05:58:33.620Z</time>
      </trkpt>
      <trkpt lat="45.96517" lon="3.90845">
        <ele>668</ele>
        <time>2024-12-08T05:58:35.619Z</time>
      </trkpt>
      <trkpt lat="45.96517" lon="3.90845">
        <ele>669</ele>
        <time>2024-12-08T05:58:36.619Z</time>
      </trkpt>
      <trkpt lat="45.96518" lon="3.90843">
        <ele>669</ele>
        <time>2024-12-08T05:58:37.620Z</time>
      </trkpt>
      <trkpt lat="45.96516" lon="3.90843">
        <ele>669</ele>
        <time>2024-12-08T05:58:38.619Z</time>
      </trkpt>
      <trkpt lat="45.96514" lon="3.90849">
        <ele>669</ele>
        <time>2024-12-08T05:58:39.620Z</time>
      </trkpt>
      <trkpt lat="45.96512" lon="3.90854">
        <ele>670</ele>
        <time>2024-12-08T05:58:40.619Z</time>
      </trkpt>
      <trkpt lat="45.96509" lon="3.90858">
        <ele>671</ele>
        <time>2024-12-08T05:58:41.620Z</time>
      </trkpt>
      <trkpt lat="45.96508" lon="3.90858">
        <ele>671</ele>
        <time>2024-12-08T05:58:42.620Z</time>
      </trkpt>
      <trkpt lat="45.96507" lon="3.9086">
        <ele>672</ele>
        <time>2024-12-08T05:58:43.619Z</time>
      </trkpt>
      <trkpt lat="45.96506" lon="3.90862">
        <ele>674</ele>
        <time>2024-12-08T05:58:44.620Z</time>
      </trkpt>
      <trkpt lat="45.96506" lon="3.90862">
        <ele>675</ele>
        <time>2024-12-08T05:58:45.620Z</time>
      </trkpt>
      <trkpt lat="45.96506" lon="3.90863">
        <ele>676</ele>
        <time>2024-12-08T05:58:46.619Z</time>
      </trkpt>
      <trkpt lat="45.96505" lon="3.90865">
        <ele>677</ele>
        <time>2024-12-08T05:58:47.620Z</time>
      </trkpt>
      <trkpt lat="45.96505" lon="3.90867">
        <ele>678</ele>
        <time>2024-12-08T05:58:48.620Z</time>
      </trkpt>
      <trkpt lat="45.96504" lon="3.90867">
        <ele>678</ele>
        <time>2024-12-08T05:58:49.620Z</time>
      </trkpt>
      <trkpt lat="45.96503" lon="3.90868">
        <ele>679</ele>
        <time>2024-12-08T05:58:50.620Z</time>
      </trkpt>
      <trkpt lat="45.96502" lon="3.90869">
        <ele>680</ele>
        <time>2024-12-08T05:58:51.619Z</time>
      </trkpt>
      <trkpt lat="45.96501" lon="3.90869">
        <ele>681</ele>
        <time>2024-12-08T05:58:52.619Z</time>
      </trkpt>
      <trkpt lat="45.96501" lon="3.9087">
        <ele>681</ele>
        <time>2024-12-08T05:58:53.620Z</time>
      </trkpt>
      <trkpt lat="45.965" lon="3.9087">
        <ele>682</ele>
        <time>2024-12-08T05:58:55.620Z</time>
      </trkpt>
      <trkpt lat="45.96498" lon="3.90874">
        <ele>683</ele>
        <time>2024-12-08T05:58:57.620Z</time>
      </trkpt>
      <trkpt lat="45.96497" lon="3.90879">
        <ele>684</ele>
        <time>2024-12-08T05:58:58.620Z</time>
      </trkpt>
      <trkpt lat="45.96496" lon="3.90883">
        <ele>684</ele>
        <time>2024-12-08T05:58:59.619Z</time>
      </trkpt>
      <trkpt lat="45.96495" lon="3.90884">
        <ele>685</ele>
        <time>2024-12-08T05:59:00.619Z</time>
      </trkpt>
      <trkpt lat="45.96494" lon="3.90884">
        <ele>685</ele>
        <time>2024-12-08T05:59:01.620Z</time>
      </trkpt>
      <trkpt lat="45.96493" lon="3.90885">
        <ele>686</ele>
        <time>2024-12-08T05:59:02.620Z</time>
      </trkpt>
      <trkpt lat="45.96491" lon="3.90884">
        <ele>686</ele>
        <time>2024-12-08T05:59:03.619Z</time>
      </trkpt>
      <trkpt lat="45.96489" lon="3.90884">
        <ele>687</ele>
        <time>2024-12-08T05:59:04.619Z</time>
      </trkpt>
      <trkpt lat="45.96487" lon="3.90884">
        <ele>688</ele>
        <time>2024-12-08T05:59:05.620Z</time>
      </trkpt>
      <trkpt lat="45.96485" lon="3.90884">
        <ele>688</ele>
        <time>2024-12-08T05:59:06.620Z</time>
      </trkpt>
      <trkpt lat="45.96484" lon="3.90885">
        <ele>690</ele>
        <time>2024-12-08T05:59:08.619Z</time>
      </trkpt>
      <trkpt lat="45.96482" lon="3.90885">
        <ele>691</ele>
        <time>2024-12-08T05:59:09.619Z</time>
      </trkpt>
      <trkpt lat="45.96482" lon="3.90883">
        <ele>692</ele>
        <time>2024-12-08T05:59:10.620Z</time>
      </trkpt>
      <trkpt lat="45.96482" lon="3.90881">
        <ele>692</ele>
        <time>2024-12-08T05:59:11.619Z</time>
      </trkpt>
      <trkpt lat="45.9648" lon="3.90882">
        <ele>693</ele>
        <time>2024-12-08T05:59:12.619Z</time>
      </trkpt>
      <trkpt lat="45.9648" lon="3.90884">
        <ele>694</ele>
        <time>2024-12-08T05:59:13.620Z</time>
      </trkpt>
      <trkpt lat="45.9648" lon="3.90886">
        <ele>695</ele>
        <time>2024-12-08T05:59:14.619Z</time>
      </trkpt>
      <trkpt lat="45.96477" lon="3.90889">
        <ele>696</ele>
        <time>2024-12-08T05:59:15.620Z</time>
      </trkpt>
      <trkpt lat="45.96479" lon="3.90889">
        <ele>697</ele>
        <time>2024-12-08T05:59:16.619Z</time>
      </trkpt>
      <trkpt lat="45.96476" lon="3.90891">
        <ele>697</ele>
        <time>2024-12-08T05:59:17.620Z</time>
      </trkpt>
      <trkpt lat="45.96476" lon="3.9089">
        <ele>698</ele>
        <time>2024-12-08T05:59:18.619Z</time>
      </trkpt>
      <trkpt lat="45.96478" lon="3.90884">
        <ele>700</ele>
        <time>2024-12-08T05:59:19.620Z</time>
      </trkpt>
      <trkpt lat="45.96479" lon="3.90881">
        <ele>701</ele>
        <time>2024-12-08T05:59:20.619Z</time>
      </trkpt>
      <trkpt lat="45.9648" lon="3.90878">
        <ele>702</ele>
        <time>2024-12-08T05:59:21.620Z</time>
      </trkpt>
      <trkpt lat="45.96477" lon="3.90876">
        <ele>704</ele>
        <time>2024-12-08T05:59:22.619Z</time>
      </trkpt>
      <trkpt lat="45.96478" lon="3.90878">
        <ele>705</ele>
        <time>2024-12-08T05:59:23.619Z</time>
      </trkpt>
      <trkpt lat="45.9648" lon="3.90879">
        <ele>706</ele>
        <time>2024-12-08T05:59:24.620Z</time>
      </trkpt>
      <trkpt lat="45.96483" lon="3.90878">
        <ele>707</ele>
        <time>2024-12-08T05:59:25.620Z</time>
      </trkpt>
      <trkpt lat="45.96483" lon="3.90878">
        <ele>708</ele>
        <time>2024-12-08T05:59:26.620Z</time>
      </trkpt>
      <trkpt lat="45.96488" lon="3.90875">
        <ele>708</ele>
        <time>2024-12-08T05:59:27.619Z</time>
      </trkpt>
      <trkpt lat="45.96492" lon="3.90872">
        <ele>708</ele>
        <time>2024-12-08T05:59:28.620Z</time>
      </trkpt>
      <trkpt lat="45.96494" lon="3.9087">
        <ele>708</ele>
        <time>2024-12-08T05:59:29.620Z</time>
      </trkpt>
      <trkpt lat="45.96495" lon="3.90871">
        <ele>708</ele>
        <time>2024-12-08T05:59:30.620Z</time>
      </trkpt>
      <trkpt lat="45.96495" lon="3.90871">
        <ele>708</ele>
        <time>2024-12-08T05:59:31.620Z</time>
      </trkpt>
      <trkpt lat="45.96495" lon="3.90871">
        <ele>707</ele>
        <time>2024-12-08T05:59:32.620Z</time>
      </trkpt>
      <trkpt lat="45.96496" lon="3.90871">
        <ele>706</ele>
        <time>2024-12-08T05:59:33.620Z</time>
      </trkpt>
      <trkpt lat="45.96498" lon="3.9087">
        <ele>705</ele>
        <time>2024-12-08T05:59:34.619Z</time>
      </trkpt>
      <trkpt lat="45.96499" lon="3.90869">
        <ele>703</ele>
        <time>2024-12-08T05:59:35.619Z</time>
      </trkpt>
      <trkpt lat="45.96501" lon="3.90869">
        <ele>702</ele>
        <time>2024-12-08T05:59:36.620Z</time>
      </trkpt>
      <trkpt lat="45.96503" lon="3.90869">
        <ele>700</ele>
        <time>2024-12-08T05:59:37.620Z</time>
      </trkpt>
      <trkpt lat="45.96505" lon="3.9087">
        <ele>699</ele>
        <time>2024-12-08T05:59:38.620Z</time>
      </trkpt>
      <trkpt lat="45.96506" lon="3.9087">
        <ele>697</ele>
        <time>2024-12-08T05:59:39.619Z</time>
      </trkpt>
      <trkpt lat="45.96508" lon="3.9087">
        <ele>696</ele>
        <time>2024-12-08T05:59:40.620Z</time>
      </trkpt>
      <trkpt lat="45.9651" lon="3.90871">
        <ele>695</ele>
        <time>2024-12-08T05:59:41.619Z</time>
      </trkpt>
      <trkpt lat="45.96512" lon="3.90872">
        <ele>694</ele>
        <time>2024-12-08T05:59:42.619Z</time>
      </trkpt>
      <trkpt lat="45.96514" lon="3.90873">
        <ele>692</ele>
        <time>2024-12-08T05:59:43.620Z</time>
      </trkpt>
      <trkpt lat="45.96516" lon="3.90874">
        <ele>690</ele>
        <time>2024-12-08T05:59:44.619Z</time>
      </trkpt>
      <trkpt lat="45.96518" lon="3.90875">
        <ele>689</ele>
        <time>2024-12-08T05:59:45.619Z</time>
      </trkpt>
      <trkpt lat="45.9652" lon="3.90876">
        <ele>687</ele>
        <time>2024-12-08T05:59:46.619Z</time>
      </trkpt>
      <trkpt lat="45.96522" lon="3.90877">
        <ele>686</ele>
        <time>2024-12-08T05:59:47.619Z</time>
      </trkpt>
      <trkpt lat="45.96523" lon="3.90877">
        <ele>685</ele>
        <time>2024-12-08T05:59:48.619Z</time>
      </trkpt>
      <trkpt lat="45.96524" lon="3.90878">
        <ele>684</ele>
        <time>2024-12-08T05:59:49.620Z</time>
      </trkpt>
      <trkpt lat="45.96525" lon="3.90879">
        <ele>683</ele>
        <time>2024-12-08T05:59:50.619Z</time>
      </trkpt>
      <trkpt lat="45.96526" lon="3.9088">
        <ele>682</ele>
        <time>2024-12-08T05:59:51.619Z</time>
      </trkpt>
      <trkpt lat="45.96528" lon="3.90881">
        <ele>681</ele>
        <time>2024-12-08T05:59:52.620Z</time>
      </trkpt>
      <trkpt lat="45.96529" lon="3.90882">
        <ele>681</ele>
        <time>2024-12-08T05:59:53.619Z</time>
      </trkpt>
      <trkpt lat="45.9653" lon="3.90883">
        <ele>680</ele>
        <time>2024-12-08T05:59:54.620Z</time>
      </trkpt>
      <trkpt lat="45.96532" lon="3.90884">
        <ele>680</ele>
        <time>2024-12-08T05:59:55.620Z</time>
      </trkpt>
      <trkpt lat="45.96532" lon="3.90884">
        <ele>679</ele>
        <time>2024-12-08T05:59:56.620Z</time>
      </trkpt>
      <trkpt lat="45.96534" lon="3.90886">
        <ele>678</ele>
        <time>2024-12-08T05:59:57.619Z</time>
      </trkpt>
      <trkpt lat="45.96535" lon="3.90887">
        <ele>678</ele>
        <time>2024-12-08T05:59:58.620Z</time>
      </trkpt>
      <trkpt lat="45.96536" lon="3.90888">
        <ele>678</ele>
        <time>2024-12-08T05:59:59.620Z</time>
      </trkpt>
      <trkpt lat="45.96537" lon="3.90889">
        <ele>678</ele>
        <time>2024-12-08T06:00:00.619Z</time>
      </trkpt>
      <trkpt lat="45.96539" lon="3.9089">
        <ele>678</ele>
        <time>2024-12-08T06:00:01.620Z</time>
      </trkpt>
      <trkpt lat="45.9654" lon="3.90891">
        <ele>678</ele>
        <time>2024-12-08T06:00:02.619Z</time>
      </trkpt>
      <trkpt lat="45.96541" lon="3.90892">
        <ele>678</ele>
        <time>2024-12-08T06:00:03.619Z</time>
      </trkpt>
      <trkpt lat="45.96543" lon="3.90893">
        <ele>678</ele>
        <time>2024-12-08T06:00:04.619Z</time>
      </trkpt>
      <trkpt lat="45.96544" lon="3.90895">
        <ele>678</ele>
        <time>2024-12-08T06:00:05.619Z</time>
      </trkpt>
      <trkpt lat="45.96546" lon="3.90896">
        <ele>679</ele>
        <time>2024-12-08T06:00:06.620Z</time>
      </trkpt>
      <trkpt lat="45.96546" lon="3.90898">
        <ele>679</ele>
        <time>2024-12-08T06:00:07.620Z</time>
      </trkpt>
      <trkpt lat="45.96547" lon="3.909">
        <ele>679</ele>
        <time>2024-12-08T06:00:08.619Z</time>
      </trkpt>
      <trkpt lat="45.96548" lon="3.90901">
        <ele>678</ele>
        <time>2024-12-08T06:00:09.619Z</time>
      </trkpt>
      <trkpt lat="45.96549" lon="3.90903">
        <ele>678</ele>
        <time>2024-12-08T06:00:10.620Z</time>
      </trkpt>
      <trkpt lat="45.96548" lon="3.90907">
        <ele>678</ele>
        <time>2024-12-08T06:00:11.620Z</time>
      </trkpt>
      <trkpt lat="45.96547" lon="3.90908">
        <ele>677</ele>
        <time>2024-12-08T06:00:12.619Z</time>
      </trkpt>
      <trkpt lat="45.96547" lon="3.9091">
        <ele>676</ele>
        <time>2024-12-08T06:00:13.619Z</time>
      </trkpt>
      <trkpt lat="45.96547" lon="3.90913">
        <ele>675</ele>
        <time>2024-12-08T06:00:14.619Z</time>
      </trkpt>
      <trkpt lat="45.96546" lon="3.90915">
        <ele>674</ele>
        <time>2024-12-08T06:00:15.619Z</time>
      </trkpt>
      <trkpt lat="45.96546" lon="3.90917">
        <ele>673</ele>
        <time>2024-12-08T06:00:16.620Z</time>
      </trkpt>
      <trkpt lat="45.96546" lon="3.90918">
        <ele>673</ele>
        <time>2024-12-08T06:00:17.619Z</time>
      </trkpt>
      <trkpt lat="45.96545" lon="3.90921">
        <ele>672</ele>
        <time>2024-12-08T06:00:18.619Z</time>
      </trkpt>
      <trkpt lat="45.96544" lon="3.90923">
        <ele>672</ele>
        <time>2024-12-08T06:00:19.620Z</time>
      </trkpt>
      <trkpt lat="45.96544" lon="3.90925">
        <ele>672</ele>
        <time>2024-12-08T06:00:20.619Z</time>
      </trkpt>
      <trkpt lat="45.96543" lon="3.90926">
        <ele>672</ele>
        <time>2024-12-08T06:00:21.620Z</time>
      </trkpt>
      <trkpt lat="45.96542" lon="3.90928">
        <ele>671</ele>
        <time>2024-12-08T06:00:22.620Z</time>
      </trkpt>
      <trkpt lat="45.96541" lon="3.90929">
        <ele>671</ele>
        <time>2024-12-08T06:00:23.619Z</time>
      </trkpt>
      <trkpt lat="45.96541" lon="3.90931">
        <ele>670</ele>
        <time>2024-12-08T06:00:24.619Z</time>
      </trkpt>
      <trkpt lat="45.9654" lon="3.90933">
        <ele>670</ele>
        <time>2024-12-08T06:00:25.619Z</time>
      </trkpt>
      <trkpt lat="45.96539" lon="3.90934">
        <ele>669</ele>
        <time>2024-12-08T06:00:26.620Z</time>
      </trkpt>
      <trkpt lat="45.96538" lon="3.90936">
        <ele>669</ele>
        <time>2024-12-08T06:00:27.620Z</time>
      </trkpt>
      <trkpt lat="45.96537" lon="3.90937">
        <ele>669</ele>
        <time>2024-12-08T06:00:28.619Z</time>
      </trkpt>
      <trkpt lat="45.96537" lon="3.90938">
        <ele>668</ele>
        <time>2024-12-08T06:00:29.619Z</time>
      </trkpt>
      <trkpt lat="45.96536" lon="3.90939">
        <ele>668</ele>
        <time>2024-12-08T06:00:30.619Z</time>
      </trkpt>
      <trkpt lat="45.96534" lon="3.90941">
        <ele>668</ele>
        <time>2024-12-08T06:00:31.619Z</time>
      </trkpt>
      <trkpt lat="45.96533" lon="3.90942">
        <ele>668</ele>
        <time>2024-12-08T06:00:32.619Z</time>
      </trkpt>
      <trkpt lat="45.96532" lon="3.90943">
        <ele>668</ele>
        <time>2024-12-08T06:00:33.619Z</time>
      </trkpt>
      <trkpt lat="45.9653" lon="3.90944">
        <ele>669</ele>
        <time>2024-12-08T06:00:34.619Z</time>
      </trkpt>
      <trkpt lat="45.96529" lon="3.90945">
        <ele>669</ele>
        <time>2024-12-08T06:00:35.620Z</time>
      </trkpt>
      <trkpt lat="45.96527" lon="3.90946">
        <ele>669</ele>
        <time>2024-12-08T06:00:36.619Z</time>
      </trkpt>
      <trkpt lat="45.96526" lon="3.90946">
        <ele>670</ele>
        <time>2024-12-08T06:00:37.620Z</time>
      </trkpt>
      <trkpt lat="45.96525" lon="3.90946">
        <ele>670</ele>
        <time>2024-12-08T06:00:38.620Z</time>
      </trkpt>
      <trkpt lat="45.96523" lon="3.90946">
        <ele>670</ele>
        <time>2024-12-08T06:00:39.620Z</time>
      </trkpt>
      <trkpt lat="45.96522" lon="3.90945">
        <ele>670</ele>
        <time>2024-12-08T06:00:40.620Z</time>
      </trkpt>
      <trkpt lat="45.9652" lon="3.90944">
        <ele>669</ele>
        <time>2024-12-08T06:00:41.620Z</time>
      </trkpt>
      <trkpt lat="45.96519" lon="3.90942">
        <ele>668</ele>
        <time>2024-12-08T06:00:42.619Z</time>
      </trkpt>
      <trkpt lat="45.96518" lon="3.90941">
        <ele>667</ele>
        <time>2024-12-08T06:00:43.619Z</time>
      </trkpt>
      <trkpt lat="45.96516" lon="3.90939">
        <ele>666</ele>
        <time>2024-12-08T06:00:44.619Z</time>
      </trkpt>
      <trkpt lat="45.96514" lon="3.90939">
        <ele>666</ele>
        <time>2024-12-08T06:00:45.620Z</time>
      </trkpt>
      <trkpt lat="45.96513" lon="3.90938">
        <ele>665</ele>
        <time>2024-12-08T06:00:46.620Z</time>
      </trkpt>
      <trkpt lat="45.96511" lon="3.90937">
        <ele>665</ele>
        <time>2024-12-08T06:00:47.619Z</time>
      </trkpt>
      <trkpt lat="45.9651" lon="3.90936">
        <ele>665</ele>
        <time>2024-12-08T06:00:48.619Z</time>
      </trkpt>
      <trkpt lat="45.96509" lon="3.90934">
        <ele>665</ele>
        <time>2024-12-08T06:00:49.619Z</time>
      </trkpt>
      <trkpt lat="45.96507" lon="3.90934">
        <ele>665</ele>
        <time>2024-12-08T06:00:50.619Z</time>
      </trkpt>
      <trkpt lat="45.96506" lon="3.90933">
        <ele>665</ele>
        <time>2024-12-08T06:00:51.619Z</time>
      </trkpt>
      <trkpt lat="45.96504" lon="3.90933">
        <ele>665</ele>
        <time>2024-12-08T06:00:52.619Z</time>
      </trkpt>
      <trkpt lat="45.96502" lon="3.90933">
        <ele>665</ele>
        <time>2024-12-08T06:00:53.619Z</time>
      </trkpt>
      <trkpt lat="45.96501" lon="3.90932">
        <ele>666</ele>
        <time>2024-12-08T06:00:54.619Z</time>
      </trkpt>
      <trkpt lat="45.96499" lon="3.90932">
        <ele>666</ele>
        <time>2024-12-08T06:00:55.619Z</time>
      </trkpt>
      <trkpt lat="45.96497" lon="3.90932">
        <ele>666</ele>
        <time>2024-12-08T06:00:56.619Z</time>
      </trkpt>
      <trkpt lat="45.96496" lon="3.90932">
        <ele>666</ele>
        <time>2024-12-08T06:00:57.619Z</time>
      </trkpt>
      <trkpt lat="45.96494" lon="3.90932">
        <ele>666</ele>
        <time>2024-12-08T06:00:58.619Z</time>
      </trkpt>
      <trkpt lat="45.96493" lon="3.90932">
        <ele>667</ele>
        <time>2024-12-08T06:00:59.620Z</time>
      </trkpt>
      <trkpt lat="45.96491" lon="3.90932">
        <ele>667</ele>
        <time>2024-12-08T06:01:00.620Z</time>
      </trkpt>
      <trkpt lat="45.96489" lon="3.90933">
        <ele>667</ele>
        <time>2024-12-08T06:01:01.620Z</time>
      </trkpt>
      <trkpt lat="45.96488" lon="3.90932">
        <ele>667</ele>
        <time>2024-12-08T06:01:02.620Z</time>
      </trkpt>
      <trkpt lat="45.96487" lon="3.90931">
        <ele>667</ele>
        <time>2024-12-08T06:01:03.619Z</time>
      </trkpt>
      <trkpt lat="45.96485" lon="3.9093">
        <ele>666</ele>
        <time>2024-12-08T06:01:04.619Z</time>
      </trkpt>
      <trkpt lat="45.96484" lon="3.90928">
        <ele>666</ele>
        <time>2024-12-08T06:01:05.619Z</time>
      </trkpt>
      <trkpt lat="45.96483" lon="3.90926">
        <ele>666</ele>
        <time>2024-12-08T06:01:06.620Z</time>
      </trkpt>
      <trkpt lat="45.96482" lon="3.90925">
        <ele>666</ele>
        <time>2024-12-08T06:01:07.620Z</time>
      </trkpt>
      <trkpt lat="45.96482" lon="3.90923">
        <ele>666</ele>
        <time>2024-12-08T06:01:08.619Z</time>
      </trkpt>
      <trkpt lat="45.96481" lon="3.90921">
        <ele>666</ele>
        <time>2024-12-08T06:01:09.619Z</time>
      </trkpt>
      <trkpt lat="45.96481" lon="3.90918">
        <ele>666</ele>
        <time>2024-12-08T06:01:10.620Z</time>
      </trkpt>
      <trkpt lat="45.9648" lon="3.90916">
        <ele>666</ele>
        <time>2024-12-08T06:01:11.620Z</time>
      </trkpt>
      <trkpt lat="45.9648" lon="3.90914">
        <ele>666</ele>
        <time>2024-12-08T06:01:12.620Z</time>
      </trkpt>
      <trkpt lat="45.9648" lon="3.90912">
        <ele>666</ele>
        <time>2024-12-08T06:01:13.620Z</time>
      </trkpt>
      <trkpt lat="45.9648" lon="3.90909">
        <ele>666</ele>
        <time>2024-12-08T06:01:14.619Z</time>
      </trkpt>
      <trkpt lat="45.96479" lon="3.90907">
        <ele>666</ele>
        <time>2024-12-08T06:01:15.619Z</time>
      </trkpt>
      <trkpt lat="45.96479" lon="3.90905">
        <ele>666</ele>
        <time>2024-12-08T06:01:16.620Z</time>
      </trkpt>
      <trkpt lat="45.96478" lon="3.90903">
        <ele>666</ele>
        <time>2024-12-08T06:01:17.620Z</time>
      </trkpt>
      <trkpt lat="45.96478" lon="3.909">
        <ele>666</ele>
        <time>2024-12-08T06:01:18.620Z</time>
      </trkpt>
      <trkpt lat="45.96478" lon="3.90898">
        <ele>666</ele>
        <time>2024-12-08T06:01:19.619Z</time>
      </trkpt>
      <trkpt lat="45.96478" lon="3.90896">
        <ele>666</ele>
        <time>2024-12-08T06:01:20.619Z</time>
      </trkpt>
      <trkpt lat="45.96478" lon="3.90893">
        <ele>665</ele>
        <time>2024-12-08T06:01:21.620Z</time>
      </trkpt>
      <trkpt lat="45.96477" lon="3.90891">
        <ele>664</ele>
        <time>2024-12-08T06:01:22.619Z</time>
      </trkpt>
      <trkpt lat="45.96477" lon="3.90889">
        <ele>664</ele>
        <time>2024-12-08T06:01:23.619Z</time>
      </trkpt>
      <trkpt lat="45.96476" lon="3.90887">
        <ele>663</ele>
        <time>2024-12-08T06:01:24.619Z</time>
      </trkpt>
      <trkpt lat="45.96475" lon="3.90886">
        <ele>662</ele>
        <time>2024-12-08T06:01:25.619Z</time>
      </trkpt>
      <trkpt lat="45.96474" lon="3.90885">
        <ele>661</ele>
        <time>2024-12-08T06:01:26.620Z</time>
      </trkpt>
      <trkpt lat="45.96473" lon="3.90886">
        <ele>661</ele>
        <time>2024-12-08T06:01:27.619Z</time>
      </trkpt>
      <trkpt lat="45.96473" lon="3.90886">
        <ele>660</ele>
        <time>2024-12-08T06:01:28.619Z</time>
      </trkpt>
      <trkpt lat="45.96473" lon="3.90888">
        <ele>660</ele>
        <time>2024-12-08T06:01:29.619Z</time>
      </trkpt>
      <trkpt lat="45.96473" lon="3.90891">
        <ele>660</ele>
        <time>2024-12-08T06:01:30.619Z</time>
      </trkpt>
      <trkpt lat="45.96472" lon="3.90893">
        <ele>660</ele>
        <time>2024-12-08T06:01:31.620Z</time>
      </trkpt>
      <trkpt lat="45.96472" lon="3.90895">
        <ele>659</ele>
        <time>2024-12-08T06:01:32.620Z</time>
      </trkpt>
      <trkpt lat="45.96471" lon="3.90897">
        <ele>659</ele>
        <time>2024-12-08T06:01:33.620Z</time>
      </trkpt>
      <trkpt lat="45.96471" lon="3.90899">
        <ele>659</ele>
        <time>2024-12-08T06:01:34.619Z</time>
      </trkpt>
      <trkpt lat="45.96471" lon="3.90901">
        <ele>659</ele>
        <time>2024-12-08T06:01:35.619Z</time>
      </trkpt>
      <trkpt lat="45.9647" lon="3.90904">
        <ele>659</ele>
        <time>2024-12-08T06:01:36.619Z</time>
      </trkpt>
      <trkpt lat="45.9647" lon="3.90906">
        <ele>659</ele>
        <time>2024-12-08T06:01:37.619Z</time>
      </trkpt>
      <trkpt lat="45.9647" lon="3.90908">
        <ele>659</ele>
        <time>2024-12-08T06:01:38.619Z</time>
      </trkpt>
      <trkpt lat="45.96469" lon="3.9091">
        <ele>659</ele>
        <time>2024-12-08T06:01:39.619Z</time>
      </trkpt>
      <trkpt lat="45.96469" lon="3.90912">
        <ele>659</ele>
        <time>2024-12-08T06:01:40.620Z</time>
      </trkpt>
      <trkpt lat="45.96469" lon="3.90915">
        <ele>660</ele>
        <time>2024-12-08T06:01:41.619Z</time>
      </trkpt>
      <trkpt lat="45.96469" lon="3.90917">
        <ele>660</ele>
        <time>2024-12-08T06:01:42.620Z</time>
      </trkpt>
      <trkpt lat="45.96469" lon="3.90919">
        <ele>660</ele>
        <time>2024-12-08T06:01:43.620Z</time>
      </trkpt>
      <trkpt lat="45.96469" lon="3.90921">
        <ele>660</ele>
        <time>2024-12-08T06:01:44.619Z</time>
      </trkpt>
      <trkpt lat="45.96468" lon="3.90924">
        <ele>660</ele>
        <time>2024-12-08T06:01:45.619Z</time>
      </trkpt>
      <trkpt lat="45.96468" lon="3.90926">
        <ele>660</ele>
        <time>2024-12-08T06:01:46.619Z</time>
      </trkpt>
      <trkpt lat="45.96467" lon="3.90928">
        <ele>660</ele>
        <time>2024-12-08T06:01:47.620Z</time>
      </trkpt>
      <trkpt lat="45.96467" lon="3.9093">
        <ele>660</ele>
        <time>2024-12-08T06:01:48.619Z</time>
      </trkpt>
      <trkpt lat="45.96467" lon="3.90932">
        <ele>660</ele>
        <time>2024-12-08T06:01:49.620Z</time>
      </trkpt>
      <trkpt lat="45.96467" lon="3.90934">
        <ele>660</ele>
        <time>2024-12-08T06:01:50.620Z</time>
      </trkpt>
      <trkpt lat="45.96467" lon="3.90936">
        <ele>660</ele>
        <time>2024-12-08T06:01:51.619Z</time>
      </trkpt>
      <trkpt lat="45.96467" lon="3.9094">
        <ele>660</ele>
        <time>2024-12-08T06:01:52.619Z</time>
      </trkpt>
      <trkpt lat="45.96467" lon="3.90944">
        <ele>659</ele>
        <time>2024-12-08T06:01:53.619Z</time>
      </trkpt>
      <trkpt lat="45.96466" lon="3.90946">
        <ele>659</ele>
        <time>2024-12-08T06:01:54.620Z</time>
      </trkpt>
      <trkpt lat="45.96466" lon="3.90949">
        <ele>659</ele>
        <time>2024-12-08T06:01:55.620Z</time>
      </trkpt>
      <trkpt lat="45.96466" lon="3.90952">
        <ele>659</ele>
        <time>2024-12-08T06:01:56.620Z</time>
      </trkpt>
      <trkpt lat="45.96466" lon="3.90955">
        <ele>659</ele>
        <time>2024-12-08T06:01:57.620Z</time>
      </trkpt>
      <trkpt lat="45.96465" lon="3.90957">
        <ele>659</ele>
        <time>2024-12-08T06:01:58.620Z</time>
      </trkpt>
      <trkpt lat="45.96465" lon="3.9096">
        <ele>659</ele>
        <time>2024-12-08T06:01:59.620Z</time>
      </trkpt>
      <trkpt lat="45.96466" lon="3.90961">
        <ele>659</ele>
        <time>2024-12-08T06:02:00.620Z</time>
      </trkpt>
      <trkpt lat="45.96466" lon="3.90963">
        <ele>659</ele>
        <time>2024-12-08T06:02:01.620Z</time>
      </trkpt>
      <trkpt lat="45.96466" lon="3.90965">
        <ele>659</ele>
        <time>2024-12-08T06:02:02.620Z</time>
      </trkpt>
      <trkpt lat="45.96466" lon="3.90968">
        <ele>659</ele>
        <time>2024-12-08T06:02:03.620Z</time>
      </trkpt>
      <trkpt lat="45.96466" lon="3.9097">
        <ele>659</ele>
        <time>2024-12-08T06:02:04.620Z</time>
      </trkpt>
      <trkpt lat="45.96466" lon="3.90972">
        <ele>659</ele>
        <time>2024-12-08T06:02:05.619Z</time>
      </trkpt>
      <trkpt lat="45.96466" lon="3.90974">
        <ele>659</ele>
        <time>2024-12-08T06:02:06.619Z</time>
      </trkpt>
      <trkpt lat="45.96466" lon="3.90977">
        <ele>659</ele>
        <time>2024-12-08T06:02:07.620Z</time>
      </trkpt>
      <trkpt lat="45.96466" lon="3.90979">
        <ele>658</ele>
        <time>2024-12-08T06:02:08.619Z</time>
      </trkpt>
      <trkpt lat="45.96467" lon="3.90981">
        <ele>658</ele>
        <time>2024-12-08T06:02:09.619Z</time>
      </trkpt>
      <trkpt lat="45.96467" lon="3.90983">
        <ele>658</ele>
        <time>2024-12-08T06:02:10.619Z</time>
      </trkpt>
      <trkpt lat="45.96467" lon="3.90985">
        <ele>657</ele>
        <time>2024-12-08T06:02:11.619Z</time>
      </trkpt>
      <trkpt lat="45.96468" lon="3.90988">
        <ele>657</ele>
        <time>2024-12-08T06:02:12.619Z</time>
      </trkpt>
      <trkpt lat="45.96468" lon="3.9099">
        <ele>657</ele>
        <time>2024-12-08T06:02:13.620Z</time>
      </trkpt>
      <trkpt lat="45.96468" lon="3.90992">
        <ele>656</ele>
        <time>2024-12-08T06:02:14.620Z</time>
      </trkpt>
      <trkpt lat="45.96468" lon="3.90994">
        <ele>656</ele>
        <time>2024-12-08T06:02:15.620Z</time>
      </trkpt>
      <trkpt lat="45.96467" lon="3.90996">
        <ele>655</ele>
        <time>2024-12-08T06:02:16.620Z</time>
      </trkpt>
      <trkpt lat="45.96467" lon="3.90998">
        <ele>655</ele>
        <time>2024-12-08T06:02:17.620Z</time>
      </trkpt>
      <trkpt lat="45.96468" lon="3.91001">
        <ele>655</ele>
        <time>2024-12-08T06:02:18.619Z</time>
      </trkpt>
      <trkpt lat="45.96468" lon="3.91003">
        <ele>655</ele>
        <time>2024-12-08T06:02:19.619Z</time>
      </trkpt>
      <trkpt lat="45.96468" lon="3.91006">
        <ele>654</ele>
        <time>2024-12-08T06:02:20.619Z</time>
      </trkpt>
      <trkpt lat="45.96468" lon="3.91008">
        <ele>654</ele>
        <time>2024-12-08T06:02:21.620Z</time>
      </trkpt>
      <trkpt lat="45.96468" lon="3.9101">
        <ele>653</ele>
        <time>2024-12-08T06:02:22.620Z</time>
      </trkpt>
      <trkpt lat="45.96468" lon="3.91012">
        <ele>653</ele>
        <time>2024-12-08T06:02:23.619Z</time>
      </trkpt>
      <trkpt lat="45.96468" lon="3.91015">
        <ele>653</ele>
        <time>2024-12-08T06:02:24.620Z</time>
      </trkpt>
      <trkpt lat="45.96467" lon="3.91017">
        <ele>652</ele>
        <time>2024-12-08T06:02:25.619Z</time>
      </trkpt>
      <trkpt lat="45.96467" lon="3.91019">
        <ele>652</ele>
        <time>2024-12-08T06:02:26.619Z</time>
      </trkpt>
      <trkpt lat="45.96466" lon="3.91021">
        <ele>652</ele>
        <time>2024-12-08T06:02:27.620Z</time>
      </trkpt>
      <trkpt lat="45.96466" lon="3.91024">
        <ele>651</ele>
        <time>2024-12-08T06:02:28.619Z</time>
      </trkpt>
      <trkpt lat="45.96466" lon="3.91026">
        <ele>651</ele>
        <time>2024-12-08T06:02:29.619Z</time>
      </trkpt>
      <trkpt lat="45.96466" lon="3.91029">
        <ele>651</ele>
        <time>2024-12-08T06:02:30.620Z</time>
      </trkpt>
      <trkpt lat="45.96465" lon="3.91031">
        <ele>651</ele>
        <time>2024-12-08T06:02:31.619Z</time>
      </trkpt>
      <trkpt lat="45.96466" lon="3.91034">
        <ele>651</ele>
        <time>2024-12-08T06:02:32.620Z</time>
      </trkpt>
      <trkpt lat="45.96466" lon="3.91036">
        <ele>651</ele>
        <time>2024-12-08T06:02:33.619Z</time>
      </trkpt>
      <trkpt lat="45.96466" lon="3.91038">
        <ele>651</ele>
        <time>2024-12-08T06:02:34.620Z</time>
      </trkpt>
      <trkpt lat="45.96466" lon="3.91041">
        <ele>652</ele>
        <time>2024-12-08T06:02:35.619Z</time>
      </trkpt>
      <trkpt lat="45.96466" lon="3.91043">
        <ele>652</ele>
        <time>2024-12-08T06:02:36.620Z</time>
      </trkpt>
      <trkpt lat="45.96466" lon="3.91045">
        <ele>652</ele>
        <time>2024-12-08T06:02:37.619Z</time>
      </trkpt>
      <trkpt lat="45.96466" lon="3.91047">
        <ele>651</ele>
        <time>2024-12-08T06:02:38.619Z</time>
      </trkpt>
      <trkpt lat="45.96466" lon="3.91049">
        <ele>651</ele>
        <time>2024-12-08T06:02:39.620Z</time>
      </trkpt>
      <trkpt lat="45.96466" lon="3.91051">
        <ele>651</ele>
        <time>2024-12-08T06:02:40.620Z</time>
      </trkpt>
      <trkpt lat="45.96466" lon="3.91053">
        <ele>651</ele>
        <time>2024-12-08T06:02:41.620Z</time>
      </trkpt>
      <trkpt lat="45.96466" lon="3.91055">
        <ele>651</ele>
        <time>2024-12-08T06:02:42.620Z</time>
      </trkpt>
      <trkpt lat="45.96466" lon="3.91056">
        <ele>652</ele>
        <time>2024-12-08T06:02:43.619Z</time>
      </trkpt>
      <trkpt lat="45.96466" lon="3.91056">
        <ele>652</ele>
        <time>2024-12-08T06:02:44.619Z</time>
      </trkpt>
      <trkpt lat="45.96466" lon="3.91056">
        <ele>652</ele>
        <time>2024-12-08T06:02:45.620Z</time>
      </trkpt>
      <trkpt lat="45.96466" lon="3.91056">
        <ele>652</ele>
        <time>2024-12-08T06:02:46.620Z</time>
      </trkpt>
      <trkpt lat="45.96467" lon="3.91057">
        <ele>651</ele>
        <time>2024-12-08T06:02:47.620Z</time>
      </trkpt>
      <trkpt lat="45.96467" lon="3.91058">
        <ele>651</ele>
        <time>2024-12-08T06:02:48.620Z</time>
      </trkpt>
      <trkpt lat="45.96468" lon="3.9106">
        <ele>651</ele>
        <time>2024-12-08T06:02:49.619Z</time>
      </trkpt>
      <trkpt lat="45.96468" lon="3.91062">
        <ele>651</ele>
        <time>2024-12-08T06:02:50.619Z</time>
      </trkpt>
      <trkpt lat="45.96468" lon="3.91064">
        <ele>651</ele>
        <time>2024-12-08T06:02:51.620Z</time>
      </trkpt>
      <trkpt lat="45.96469" lon="3.91066">
        <ele>651</ele>
        <time>2024-12-08T06:02:52.619Z</time>
      </trkpt>
      <trkpt lat="45.96468" lon="3.91068">
        <ele>651</ele>
        <time>2024-12-08T06:02:53.619Z</time>
      </trkpt>
      <trkpt lat="45.96468" lon="3.91071">
        <ele>651</ele>
        <time>2024-12-08T06:02:54.619Z</time>
      </trkpt>
      <trkpt lat="45.96468" lon="3.91073">
        <ele>651</ele>
        <time>2024-12-08T06:02:55.620Z</time>
      </trkpt>
      <trkpt lat="45.96467" lon="3.91076">
        <ele>651</ele>
        <time>2024-12-08T06:02:56.619Z</time>
      </trkpt>
      <trkpt lat="45.96467" lon="3.91078">
        <ele>651</ele>
        <time>2024-12-08T06:02:57.620Z</time>
      </trkpt>
      <trkpt lat="45.96467" lon="3.9108">
        <ele>651</ele>
        <time>2024-12-08T06:02:58.620Z</time>
      </trkpt>
      <trkpt lat="45.96467" lon="3.91082">
        <ele>651</ele>
        <time>2024-12-08T06:02:59.619Z</time>
      </trkpt>
      <trkpt lat="45.96467" lon="3.91085">
        <ele>651</ele>
        <time>2024-12-08T06:03:00.620Z</time>
      </trkpt>
      <trkpt lat="45.96467" lon="3.91087">
        <ele>650</ele>
        <time>2024-12-08T06:03:01.619Z</time>
      </trkpt>
      <trkpt lat="45.96467" lon="3.91089">
        <ele>650</ele>
        <time>2024-12-08T06:03:02.620Z</time>
      </trkpt>
      <trkpt lat="45.96467" lon="3.91092">
        <ele>650</ele>
        <time>2024-12-08T06:03:03.619Z</time>
      </trkpt>
      <trkpt lat="45.96467" lon="3.91094">
        <ele>651</ele>
        <time>2024-12-08T06:03:04.619Z</time>
      </trkpt>
      <trkpt lat="45.96467" lon="3.91096">
        <ele>650</ele>
        <time>2024-12-08T06:03:05.619Z</time>
      </trkpt>
      <trkpt lat="45.96467" lon="3.91099">
        <ele>650</ele>
        <time>2024-12-08T06:03:06.620Z</time>
      </trkpt>
      <trkpt lat="45.96467" lon="3.91101">
        <ele>650</ele>
        <time>2024-12-08T06:03:07.619Z</time>
      </trkpt>
      <trkpt lat="45.96466" lon="3.91103">
        <ele>650</ele>
        <time>2024-12-08T06:03:08.620Z</time>
      </trkpt>
      <trkpt lat="45.96466" lon="3.91105">
        <ele>650</ele>
        <time>2024-12-08T06:03:09.619Z</time>
      </trkpt>
      <trkpt lat="45.96467" lon="3.91108">
        <ele>650</ele>
        <time>2024-12-08T06:03:10.619Z</time>
      </trkpt>
      <trkpt lat="45.96466" lon="3.9111">
        <ele>651</ele>
        <time>2024-12-08T06:03:11.620Z</time>
      </trkpt>
      <trkpt lat="45.96466" lon="3.91112">
        <ele>650</ele>
        <time>2024-12-08T06:03:12.619Z</time>
      </trkpt>
      <trkpt lat="45.96465" lon="3.91114">
        <ele>650</ele>
        <time>2024-12-08T06:03:13.619Z</time>
      </trkpt>
      <trkpt lat="45.96465" lon="3.91116">
        <ele>650</ele>
        <time>2024-12-08T06:03:14.619Z</time>
      </trkpt>
      <trkpt lat="45.96464" lon="3.91119">
        <ele>650</ele>
        <time>2024-12-08T06:03:15.620Z</time>
      </trkpt>
      <trkpt lat="45.96464" lon="3.91121">
        <ele>650</ele>
        <time>2024-12-08T06:03:16.619Z</time>
      </trkpt>
      <trkpt lat="45.96464" lon="3.91123">
        <ele>650</ele>
        <time>2024-12-08T06:03:17.619Z</time>
      </trkpt>
      <trkpt lat="45.96463" lon="3.91125">
        <ele>650</ele>
        <time>2024-12-08T06:03:18.619Z</time>
      </trkpt>
      <trkpt lat="45.96463" lon="3.91128">
        <ele>649</ele>
        <time>2024-12-08T06:03:19.620Z</time>
      </trkpt>
      <trkpt lat="45.96462" lon="3.9113">
        <ele>649</ele>
        <time>2024-12-08T06:03:20.620Z</time>
      </trkpt>
      <trkpt lat="45.96461" lon="3.91132">
        <ele>649</ele>
        <time>2024-12-08T06:03:21.619Z</time>
      </trkpt>
      <trkpt lat="45.96461" lon="3.91134">
        <ele>649</ele>
        <time>2024-12-08T06:03:22.620Z</time>
      </trkpt>
      <trkpt lat="45.9646" lon="3.91137">
        <ele>648</ele>
        <time>2024-12-08T06:03:23.620Z</time>
      </trkpt>
      <trkpt lat="45.96459" lon="3.91139">
        <ele>648</ele>
        <time>2024-12-08T06:03:24.619Z</time>
      </trkpt>
      <trkpt lat="45.96459" lon="3.91141">
        <ele>648</ele>
        <time>2024-12-08T06:03:25.620Z</time>
      </trkpt>
      <trkpt lat="45.96458" lon="3.91143">
        <ele>648</ele>
        <time>2024-12-08T06:03:26.620Z</time>
      </trkpt>
      <trkpt lat="45.96458" lon="3.91145">
        <ele>648</ele>
        <time>2024-12-08T06:03:27.620Z</time>
      </trkpt>
      <trkpt lat="45.96458" lon="3.91147">
        <ele>648</ele>
        <time>2024-12-08T06:03:28.619Z</time>
      </trkpt>
      <trkpt lat="45.96458" lon="3.91149">
        <ele>648</ele>
        <time>2024-12-08T06:03:29.619Z</time>
      </trkpt>
      <trkpt lat="45.96458" lon="3.91151">
        <ele>648</ele>
        <time>2024-12-08T06:03:30.619Z</time>
      </trkpt>
      <trkpt lat="45.96457" lon="3.91153">
        <ele>648</ele>
        <time>2024-12-08T06:03:31.619Z</time>
      </trkpt>
      <trkpt lat="45.96457" lon="3.91156">
        <ele>648</ele>
        <time>2024-12-08T06:03:32.620Z</time>
      </trkpt>
      <trkpt lat="45.96456" lon="3.91158">
        <ele>648</ele>
        <time>2024-12-08T06:03:33.619Z</time>
      </trkpt>
      <trkpt lat="45.96455" lon="3.9116">
        <ele>648</ele>
        <time>2024-12-08T06:03:34.619Z</time>
      </trkpt>
      <trkpt lat="45.96454" lon="3.91162">
        <ele>647</ele>
        <time>2024-12-08T06:03:35.620Z</time>
      </trkpt>
      <trkpt lat="45.96454" lon="3.91165">
        <ele>647</ele>
        <time>2024-12-08T06:03:36.619Z</time>
      </trkpt>
      <trkpt lat="45.96453" lon="3.91167">
        <ele>647</ele>
        <time>2024-12-08T06:03:37.620Z</time>
      </trkpt>
      <trkpt lat="45.96453" lon="3.91169">
        <ele>647</ele>
        <time>2024-12-08T06:03:38.620Z</time>
      </trkpt>
      <trkpt lat="45.96452" lon="3.91171">
        <ele>647</ele>
        <time>2024-12-08T06:03:39.619Z</time>
      </trkpt>
      <trkpt lat="45.96452" lon="3.91173">
        <ele>647</ele>
        <time>2024-12-08T06:03:40.620Z</time>
      </trkpt>
      <trkpt lat="45.96451" lon="3.91176">
        <ele>646</ele>
        <time>2024-12-08T06:03:41.620Z</time>
      </trkpt>
      <trkpt lat="45.9645" lon="3.91178">
        <ele>646</ele>
        <time>2024-12-08T06:03:42.619Z</time>
      </trkpt>
      <trkpt lat="45.9645" lon="3.91179">
        <ele>646</ele>
        <time>2024-12-08T06:03:43.620Z</time>
      </trkpt>
      <trkpt lat="45.96449" lon="3.91181">
        <ele>646</ele>
        <time>2024-12-08T06:03:44.620Z</time>
      </trkpt>
      <trkpt lat="45.96448" lon="3.91183">
        <ele>645</ele>
        <time>2024-12-08T06:03:45.619Z</time>
      </trkpt>
      <trkpt lat="45.96448" lon="3.91185">
        <ele>645</ele>
        <time>2024-12-08T06:03:46.619Z</time>
      </trkpt>
      <trkpt lat="45.96447" lon="3.91187">
        <ele>645</ele>
        <time>2024-12-08T06:03:47.619Z</time>
      </trkpt>
      <trkpt lat="45.96446" lon="3.91188">
        <ele>645</ele>
        <time>2024-12-08T06:03:48.620Z</time>
      </trkpt>
      <trkpt lat="45.96445" lon="3.9119">
        <ele>646</ele>
        <time>2024-12-08T06:03:49.619Z</time>
      </trkpt>
      <trkpt lat="45.96444" lon="3.91192">
        <ele>646</ele>
        <time>2024-12-08T06:03:50.620Z</time>
      </trkpt>
      <trkpt lat="45.96444" lon="3.91194">
        <ele>646</ele>
        <time>2024-12-08T06:03:51.619Z</time>
      </trkpt>
      <trkpt lat="45.96443" lon="3.91195">
        <ele>646</ele>
        <time>2024-12-08T06:03:52.619Z</time>
      </trkpt>
      <trkpt lat="45.96442" lon="3.91197">
        <ele>646</ele>
        <time>2024-12-08T06:03:53.619Z</time>
      </trkpt>
      <trkpt lat="45.96441" lon="3.91198">
        <ele>646</ele>
        <time>2024-12-08T06:03:54.620Z</time>
      </trkpt>
      <trkpt lat="45.9644" lon="3.912">
        <ele>646</ele>
        <time>2024-12-08T06:03:55.619Z</time>
      </trkpt>
      <trkpt lat="45.9644" lon="3.91202">
        <ele>646</ele>
        <time>2024-12-08T06:03:56.619Z</time>
      </trkpt>
      <trkpt lat="45.96439" lon="3.91204">
        <ele>646</ele>
        <time>2024-12-08T06:03:57.620Z</time>
      </trkpt>
      <trkpt lat="45.96438" lon="3.91206">
        <ele>645</ele>
        <time>2024-12-08T06:03:58.620Z</time>
      </trkpt>
      <trkpt lat="45.96438" lon="3.91209">
        <ele>645</ele>
        <time>2024-12-08T06:03:59.620Z</time>
      </trkpt>
      <trkpt lat="45.96437" lon="3.91211">
        <ele>645</ele>
        <time>2024-12-08T06:04:00.620Z</time>
      </trkpt>
      <trkpt lat="45.96436" lon="3.91213">
        <ele>645</ele>
        <time>2024-12-08T06:04:01.620Z</time>
      </trkpt>
      <trkpt lat="45.96436" lon="3.91216">
        <ele>645</ele>
        <time>2024-12-08T06:04:02.619Z</time>
      </trkpt>
      <trkpt lat="45.96436" lon="3.91218">
        <ele>645</ele>
        <time>2024-12-08T06:04:03.620Z</time>
      </trkpt>
      <trkpt lat="45.96436" lon="3.91221">
        <ele>645</ele>
        <time>2024-12-08T06:04:04.619Z</time>
      </trkpt>
      <trkpt lat="45.96435" lon="3.91223">
        <ele>645</ele>
        <time>2024-12-08T06:04:05.619Z</time>
      </trkpt>
      <trkpt lat="45.96435" lon="3.91225">
        <ele>645</ele>
        <time>2024-12-08T06:04:06.619Z</time>
      </trkpt>
      <trkpt lat="45.96434" lon="3.91227">
        <ele>645</ele>
        <time>2024-12-08T06:04:07.620Z</time>
      </trkpt>
      <trkpt lat="45.96433" lon="3.91229">
        <ele>645</ele>
        <time>2024-12-08T06:04:08.619Z</time>
      </trkpt>
      <trkpt lat="45.96433" lon="3.91231">
        <ele>646</ele>
        <time>2024-12-08T06:04:09.620Z</time>
      </trkpt>
      <trkpt lat="45.96432" lon="3.91234">
        <ele>646</ele>
        <time>2024-12-08T06:04:10.620Z</time>
      </trkpt>
      <trkpt lat="45.96432" lon="3.91236">
        <ele>646</ele>
        <time>2024-12-08T06:04:11.619Z</time>
      </trkpt>
      <trkpt lat="45.96431" lon="3.91237">
        <ele>646</ele>
        <time>2024-12-08T06:04:12.619Z</time>
      </trkpt>
      <trkpt lat="45.9643" lon="3.91239">
        <ele>646</ele>
        <time>2024-12-08T06:04:13.619Z</time>
      </trkpt>
      <trkpt lat="45.9643" lon="3.9124">
        <ele>646</ele>
        <time>2024-12-08T06:04:14.620Z</time>
      </trkpt>
      <trkpt lat="45.9643" lon="3.9124">
        <ele>645</ele>
        <time>2024-12-08T06:04:15.620Z</time>
      </trkpt>
      <trkpt lat="45.9643" lon="3.91241">
        <ele>645</ele>
        <time>2024-12-08T06:04:16.620Z</time>
      </trkpt>
      <trkpt lat="45.9643" lon="3.91242">
        <ele>645</ele>
        <time>2024-12-08T06:04:17.620Z</time>
      </trkpt>
      <trkpt lat="45.96429" lon="3.91243">
        <ele>644</ele>
        <time>2024-12-08T06:04:18.619Z</time>
      </trkpt>
      <trkpt lat="45.96429" lon="3.91244">
        <ele>644</ele>
        <time>2024-12-08T06:04:19.620Z</time>
      </trkpt>
      <trkpt lat="45.96429" lon="3.91246">
        <ele>644</ele>
        <time>2024-12-08T06:04:20.620Z</time>
      </trkpt>
      <trkpt lat="45.96428" lon="3.91247">
        <ele>644</ele>
        <time>2024-12-08T06:04:21.619Z</time>
      </trkpt>
      <trkpt lat="45.96428" lon="3.91248">
        <ele>644</ele>
        <time>2024-12-08T06:04:22.619Z</time>
      </trkpt>
      <trkpt lat="45.96428" lon="3.91249">
        <ele>645</ele>
        <time>2024-12-08T06:04:23.620Z</time>
      </trkpt>
      <trkpt lat="45.96428" lon="3.91249">
        <ele>645</ele>
        <time>2024-12-08T06:04:24.619Z</time>
      </trkpt>
      <trkpt lat="45.96428" lon="3.91249">
        <ele>646</ele>
        <time>2024-12-08T06:04:25.620Z</time>
      </trkpt>
      <trkpt lat="45.96428" lon="3.9125">
        <ele>647</ele>
        <time>2024-12-08T06:04:26.619Z</time>
      </trkpt>
      <trkpt lat="45.96428" lon="3.91251">
        <ele>647</ele>
        <time>2024-12-08T06:04:27.619Z</time>
      </trkpt>
      <trkpt lat="45.96428" lon="3.91252">
        <ele>647</ele>
        <time>2024-12-08T06:04:28.619Z</time>
      </trkpt>
      <trkpt lat="45.96427" lon="3.91253">
        <ele>647</ele>
        <time>2024-12-08T06:04:29.620Z</time>
      </trkpt>
      <trkpt lat="45.96426" lon="3.91254">
        <ele>647</ele>
        <time>2024-12-08T06:04:30.619Z</time>
      </trkpt>
      <trkpt lat="45.96426" lon="3.91256">
        <ele>647</ele>
        <time>2024-12-08T06:04:31.619Z</time>
      </trkpt>
      <trkpt lat="45.96425" lon="3.91257">
        <ele>647</ele>
        <time>2024-12-08T06:04:32.619Z</time>
      </trkpt>
      <trkpt lat="45.96424" lon="3.91258">
        <ele>646</ele>
        <time>2024-12-08T06:04:33.620Z</time>
      </trkpt>
      <trkpt lat="45.96424" lon="3.9126">
        <ele>646</ele>
        <time>2024-12-08T06:04:34.620Z</time>
      </trkpt>
      <trkpt lat="45.96423" lon="3.91261">
        <ele>646</ele>
        <time>2024-12-08T06:04:35.620Z</time>
      </trkpt>
      <trkpt lat="45.96422" lon="3.91263">
        <ele>645</ele>
        <time>2024-12-08T06:04:36.620Z</time>
      </trkpt>
      <trkpt lat="45.96422" lon="3.91265">
        <ele>645</ele>
        <time>2024-12-08T06:04:37.619Z</time>
      </trkpt>
      <trkpt lat="45.96421" lon="3.91267">
        <ele>645</ele>
        <time>2024-12-08T06:04:38.619Z</time>
      </trkpt>
      <trkpt lat="45.96421" lon="3.91269">
        <ele>645</ele>
        <time>2024-12-08T06:04:39.619Z</time>
      </trkpt>
      <trkpt lat="45.9642" lon="3.91271">
        <ele>646</ele>
        <time>2024-12-08T06:04:40.619Z</time>
      </trkpt>
      <trkpt lat="45.96419" lon="3.91274">
        <ele>646</ele>
        <time>2024-12-08T06:04:41.620Z</time>
      </trkpt>
      <trkpt lat="45.96419" lon="3.91276">
        <ele>646</ele>
        <time>2024-12-08T06:04:42.620Z</time>
      </trkpt>
      <trkpt lat="45.96418" lon="3.91277">
        <ele>646</ele>
        <time>2024-12-08T06:04:43.619Z</time>
      </trkpt>
      <trkpt lat="45.96417" lon="3.91279">
        <ele>646</ele>
        <time>2024-12-08T06:04:44.620Z</time>
      </trkpt>
      <trkpt lat="45.96416" lon="3.91281">
        <ele>646</ele>
        <time>2024-12-08T06:04:45.620Z</time>
      </trkpt>
      <trkpt lat="45.96416" lon="3.91283">
        <ele>646</ele>
        <time>2024-12-08T06:04:46.619Z</time>
      </trkpt>
      <trkpt lat="45.96415" lon="3.91285">
        <ele>646</ele>
        <time>2024-12-08T06:04:47.619Z</time>
      </trkpt>
      <trkpt lat="45.96414" lon="3.91287">
        <ele>645</ele>
        <time>2024-12-08T06:04:48.620Z</time>
      </trkpt>
      <trkpt lat="45.96413" lon="3.91289">
        <ele>645</ele>
        <time>2024-12-08T06:04:49.620Z</time>
      </trkpt>
      <trkpt lat="45.96413" lon="3.91292">
        <ele>645</ele>
        <time>2024-12-08T06:04:50.620Z</time>
      </trkpt>
      <trkpt lat="45.96412" lon="3.91294">
        <ele>645</ele>
        <time>2024-12-08T06:04:51.619Z</time>
      </trkpt>
      <trkpt lat="45.96411" lon="3.91296">
        <ele>645</ele>
        <time>2024-12-08T06:04:52.619Z</time>
      </trkpt>
      <trkpt lat="45.96411" lon="3.91299">
        <ele>645</ele>
        <time>2024-12-08T06:04:53.620Z</time>
      </trkpt>
      <trkpt lat="45.9641" lon="3.913">
        <ele>644</ele>
        <time>2024-12-08T06:04:54.619Z</time>
      </trkpt>
      <trkpt lat="45.96409" lon="3.91303">
        <ele>645</ele>
        <time>2024-12-08T06:04:55.620Z</time>
      </trkpt>
      <trkpt lat="45.96409" lon="3.91305">
        <ele>645</ele>
        <time>2024-12-08T06:04:56.619Z</time>
      </trkpt>
      <trkpt lat="45.96409" lon="3.91307">
        <ele>645</ele>
        <time>2024-12-08T06:04:57.620Z</time>
      </trkpt>
      <trkpt lat="45.96408" lon="3.91308">
        <ele>645</ele>
        <time>2024-12-08T06:04:58.620Z</time>
      </trkpt>
      <trkpt lat="45.96407" lon="3.9131">
        <ele>645</ele>
        <time>2024-12-08T06:04:59.620Z</time>
      </trkpt>
      <trkpt lat="45.96407" lon="3.91312">
        <ele>645</ele>
        <time>2024-12-08T06:05:00.620Z</time>
      </trkpt>
      <trkpt lat="45.96406" lon="3.91314">
        <ele>645</ele>
        <time>2024-12-08T06:05:01.619Z</time>
      </trkpt>
      <trkpt lat="45.96405" lon="3.91316">
        <ele>644</ele>
        <time>2024-12-08T06:05:02.619Z</time>
      </trkpt>
      <trkpt lat="45.96404" lon="3.91319">
        <ele>644</ele>
        <time>2024-12-08T06:05:03.619Z</time>
      </trkpt>
      <trkpt lat="45.96403" lon="3.91321">
        <ele>644</ele>
        <time>2024-12-08T06:05:04.620Z</time>
      </trkpt>
      <trkpt lat="45.96402" lon="3.91323">
        <ele>644</ele>
        <time>2024-12-08T06:05:05.619Z</time>
      </trkpt>
      <trkpt lat="45.96401" lon="3.91325">
        <ele>643</ele>
        <time>2024-12-08T06:05:06.620Z</time>
      </trkpt>
      <trkpt lat="45.964" lon="3.91327">
        <ele>643</ele>
        <time>2024-12-08T06:05:07.619Z</time>
      </trkpt>
      <trkpt lat="45.96399" lon="3.91329">
        <ele>643</ele>
        <time>2024-12-08T06:05:08.620Z</time>
      </trkpt>
      <trkpt lat="45.96399" lon="3.91331">
        <ele>643</ele>
        <time>2024-12-08T06:05:09.619Z</time>
      </trkpt>
      <trkpt lat="45.96398" lon="3.91333">
        <ele>643</ele>
        <time>2024-12-08T06:05:10.620Z</time>
      </trkpt>
      <trkpt lat="45.96397" lon="3.91335">
        <ele>643</ele>
        <time>2024-12-08T06:05:11.620Z</time>
      </trkpt>
      <trkpt lat="45.96396" lon="3.91337">
        <ele>643</ele>
        <time>2024-12-08T06:05:12.620Z</time>
      </trkpt>
      <trkpt lat="45.96395" lon="3.91339">
        <ele>644</ele>
        <time>2024-12-08T06:05:13.619Z</time>
      </trkpt>
      <trkpt lat="45.96394" lon="3.91342">
        <ele>643</ele>
        <time>2024-12-08T06:05:14.619Z</time>
      </trkpt>
      <trkpt lat="45.96393" lon="3.91344">
        <ele>644</ele>
        <time>2024-12-08T06:05:15.620Z</time>
      </trkpt>
      <trkpt lat="45.96392" lon="3.91346">
        <ele>644</ele>
        <time>2024-12-08T06:05:16.620Z</time>
      </trkpt>
      <trkpt lat="45.96391" lon="3.91348">
        <ele>643</ele>
        <time>2024-12-08T06:05:17.619Z</time>
      </trkpt>
      <trkpt lat="45.96391" lon="3.9135">
        <ele>643</ele>
        <time>2024-12-08T06:05:18.619Z</time>
      </trkpt>
      <trkpt lat="45.9639" lon="3.91352">
        <ele>643</ele>
        <time>2024-12-08T06:05:19.620Z</time>
      </trkpt>
      <trkpt lat="45.9639" lon="3.91355">
        <ele>643</ele>
        <time>2024-12-08T06:05:20.619Z</time>
      </trkpt>
      <trkpt lat="45.96389" lon="3.91357">
        <ele>643</ele>
        <time>2024-12-08T06:05:21.620Z</time>
      </trkpt>
      <trkpt lat="45.96388" lon="3.91359">
        <ele>643</ele>
        <time>2024-12-08T06:05:22.619Z</time>
      </trkpt>
      <trkpt lat="45.96387" lon="3.91362">
        <ele>644</ele>
        <time>2024-12-08T06:05:23.620Z</time>
      </trkpt>
      <trkpt lat="45.96386" lon="3.91364">
        <ele>644</ele>
        <time>2024-12-08T06:05:24.619Z</time>
      </trkpt>
      <trkpt lat="45.96385" lon="3.91366">
        <ele>644</ele>
        <time>2024-12-08T06:05:25.620Z</time>
      </trkpt>
      <trkpt lat="45.96384" lon="3.91368">
        <ele>644</ele>
        <time>2024-12-08T06:05:26.619Z</time>
      </trkpt>
      <trkpt lat="45.96384" lon="3.9137">
        <ele>644</ele>
        <time>2024-12-08T06:05:27.619Z</time>
      </trkpt>
      <trkpt lat="45.96383" lon="3.91372">
        <ele>644</ele>
        <time>2024-12-08T06:05:28.620Z</time>
      </trkpt>
      <trkpt lat="45.96382" lon="3.91374">
        <ele>644</ele>
        <time>2024-12-08T06:05:29.620Z</time>
      </trkpt>
      <trkpt lat="45.96381" lon="3.91376">
        <ele>643</ele>
        <time>2024-12-08T06:05:30.620Z</time>
      </trkpt>
      <trkpt lat="45.96381" lon="3.91378">
        <ele>643</ele>
        <time>2024-12-08T06:05:31.619Z</time>
      </trkpt>
      <trkpt lat="45.9638" lon="3.9138">
        <ele>643</ele>
        <time>2024-12-08T06:05:32.620Z</time>
      </trkpt>
      <trkpt lat="45.96379" lon="3.91382">
        <ele>643</ele>
        <time>2024-12-08T06:05:33.619Z</time>
      </trkpt>
      <trkpt lat="45.96378" lon="3.91384">
        <ele>643</ele>
        <time>2024-12-08T06:05:34.620Z</time>
      </trkpt>
      <trkpt lat="45.96377" lon="3.91386">
        <ele>643</ele>
        <time>2024-12-08T06:05:35.619Z</time>
      </trkpt>
      <trkpt lat="45.96376" lon="3.91389">
        <ele>643</ele>
        <time>2024-12-08T06:05:36.619Z</time>
      </trkpt>
      <trkpt lat="45.96375" lon="3.91391">
        <ele>643</ele>
        <time>2024-12-08T06:05:37.619Z</time>
      </trkpt>
      <trkpt lat="45.96375" lon="3.91393">
        <ele>643</ele>
        <time>2024-12-08T06:05:38.620Z</time>
      </trkpt>
      <trkpt lat="45.96374" lon="3.91395">
        <ele>643</ele>
        <time>2024-12-08T06:05:39.619Z</time>
      </trkpt>
      <trkpt lat="45.96373" lon="3.91397">
        <ele>642</ele>
        <time>2024-12-08T06:05:40.620Z</time>
      </trkpt>
      <trkpt lat="45.96372" lon="3.91399">
        <ele>642</ele>
        <time>2024-12-08T06:05:41.620Z</time>
      </trkpt>
      <trkpt lat="45.96372" lon="3.91401">
        <ele>642</ele>
        <time>2024-12-08T06:05:42.619Z</time>
      </trkpt>
      <trkpt lat="45.96371" lon="3.91402">
        <ele>642</ele>
        <time>2024-12-08T06:05:43.619Z</time>
      </trkpt>
      <trkpt lat="45.9637" lon="3.91404">
        <ele>642</ele>
        <time>2024-12-08T06:05:44.619Z</time>
      </trkpt>
      <trkpt lat="45.96369" lon="3.91406">
        <ele>642</ele>
        <time>2024-12-08T06:05:45.620Z</time>
      </trkpt>
      <trkpt lat="45.96369" lon="3.91408">
        <ele>643</ele>
        <time>2024-12-08T06:05:46.619Z</time>
      </trkpt>
      <trkpt lat="45.96368" lon="3.9141">
        <ele>643</ele>
        <time>2024-12-08T06:05:47.620Z</time>
      </trkpt>
      <trkpt lat="45.96368" lon="3.91412">
        <ele>644</ele>
        <time>2024-12-08T06:05:48.619Z</time>
      </trkpt>
      <trkpt lat="45.96367" lon="3.91414">
        <ele>644</ele>
        <time>2024-12-08T06:05:49.620Z</time>
      </trkpt>
      <trkpt lat="45.96366" lon="3.91416">
        <ele>643</ele>
        <time>2024-12-08T06:05:50.620Z</time>
      </trkpt>
      <trkpt lat="45.96365" lon="3.91418">
        <ele>643</ele>
        <time>2024-12-08T06:05:51.620Z</time>
      </trkpt>
      <trkpt lat="45.96365" lon="3.9142">
        <ele>642</ele>
        <time>2024-12-08T06:05:52.620Z</time>
      </trkpt>
      <trkpt lat="45.96364" lon="3.91422">
        <ele>642</ele>
        <time>2024-12-08T06:05:53.620Z</time>
      </trkpt>
      <trkpt lat="45.96364" lon="3.91424">
        <ele>642</ele>
        <time>2024-12-08T06:05:54.620Z</time>
      </trkpt>
      <trkpt lat="45.96363" lon="3.91425">
        <ele>642</ele>
        <time>2024-12-08T06:05:55.619Z</time>
      </trkpt>
      <trkpt lat="45.96362" lon="3.91427">
        <ele>641</ele>
        <time>2024-12-08T06:05:56.619Z</time>
      </trkpt>
      <trkpt lat="45.96361" lon="3.91429">
        <ele>641</ele>
        <time>2024-12-08T06:05:57.620Z</time>
      </trkpt>
      <trkpt lat="45.9636" lon="3.91431">
        <ele>641</ele>
        <time>2024-12-08T06:05:58.620Z</time>
      </trkpt>
      <trkpt lat="45.96359" lon="3.91433">
        <ele>641</ele>
        <time>2024-12-08T06:05:59.620Z</time>
      </trkpt>
      <trkpt lat="45.96357" lon="3.91434">
        <ele>640</ele>
        <time>2024-12-08T06:06:00.619Z</time>
      </trkpt>
      <trkpt lat="45.96356" lon="3.91437">
        <ele>640</ele>
        <time>2024-12-08T06:06:01.620Z</time>
      </trkpt>
      <trkpt lat="45.96356" lon="3.91439">
        <ele>639</ele>
        <time>2024-12-08T06:06:02.619Z</time>
      </trkpt>
      <trkpt lat="45.96355" lon="3.9144">
        <ele>639</ele>
        <time>2024-12-08T06:06:03.620Z</time>
      </trkpt>
      <trkpt lat="45.96355" lon="3.91443">
        <ele>639</ele>
        <time>2024-12-08T06:06:04.619Z</time>
      </trkpt>
      <trkpt lat="45.96354" lon="3.91445">
        <ele>639</ele>
        <time>2024-12-08T06:06:05.620Z</time>
      </trkpt>
      <trkpt lat="45.96353" lon="3.91448">
        <ele>639</ele>
        <time>2024-12-08T06:06:06.619Z</time>
      </trkpt>
      <trkpt lat="45.96352" lon="3.9145">
        <ele>639</ele>
        <time>2024-12-08T06:06:07.619Z</time>
      </trkpt>
      <trkpt lat="45.96352" lon="3.91452">
        <ele>639</ele>
        <time>2024-12-08T06:06:08.620Z</time>
      </trkpt>
      <trkpt lat="45.96352" lon="3.91455">
        <ele>639</ele>
        <time>2024-12-08T06:06:09.619Z</time>
      </trkpt>
      <trkpt lat="45.9635" lon="3.91457">
        <ele>638</ele>
        <time>2024-12-08T06:06:10.620Z</time>
      </trkpt>
      <trkpt lat="45.96349" lon="3.91459">
        <ele>638</ele>
        <time>2024-12-08T06:06:11.620Z</time>
      </trkpt>
      <trkpt lat="45.96348" lon="3.91462">
        <ele>638</ele>
        <time>2024-12-08T06:06:12.619Z</time>
      </trkpt>
      <trkpt lat="45.96347" lon="3.91464">
        <ele>639</ele>
        <time>2024-12-08T06:06:13.619Z</time>
      </trkpt>
      <trkpt lat="45.96346" lon="3.91466">
        <ele>639</ele>
        <time>2024-12-08T06:06:14.619Z</time>
      </trkpt>
      <trkpt lat="45.96345" lon="3.91469">
        <ele>640</ele>
        <time>2024-12-08T06:06:15.619Z</time>
      </trkpt>
      <trkpt lat="45.96345" lon="3.91471">
        <ele>640</ele>
        <time>2024-12-08T06:06:16.619Z</time>
      </trkpt>
      <trkpt lat="45.96344" lon="3.91473">
        <ele>640</ele>
        <time>2024-12-08T06:06:17.620Z</time>
      </trkpt>
      <trkpt lat="45.96343" lon="3.91474">
        <ele>640</ele>
        <time>2024-12-08T06:06:18.619Z</time>
      </trkpt>
      <trkpt lat="45.96342" lon="3.91477">
        <ele>641</ele>
        <time>2024-12-08T06:06:19.620Z</time>
      </trkpt>
      <trkpt lat="45.96341" lon="3.91479">
        <ele>641</ele>
        <time>2024-12-08T06:06:20.620Z</time>
      </trkpt>
      <trkpt lat="45.96341" lon="3.91481">
        <ele>641</ele>
        <time>2024-12-08T06:06:21.620Z</time>
      </trkpt>
      <trkpt lat="45.9634" lon="3.91483">
        <ele>641</ele>
        <time>2024-12-08T06:06:22.619Z</time>
      </trkpt>
      <trkpt lat="45.96339" lon="3.91485">
        <ele>641</ele>
        <time>2024-12-08T06:06:23.619Z</time>
      </trkpt>
      <trkpt lat="45.96338" lon="3.91486">
        <ele>641</ele>
        <time>2024-12-08T06:06:24.619Z</time>
      </trkpt>
      <trkpt lat="45.96337" lon="3.91488">
        <ele>641</ele>
        <time>2024-12-08T06:06:25.620Z</time>
      </trkpt>
      <trkpt lat="45.96336" lon="3.9149">
        <ele>641</ele>
        <time>2024-12-08T06:06:26.619Z</time>
      </trkpt>
      <trkpt lat="45.96334" lon="3.91492">
        <ele>641</ele>
        <time>2024-12-08T06:06:27.620Z</time>
      </trkpt>
      <trkpt lat="45.96333" lon="3.91494">
        <ele>641</ele>
        <time>2024-12-08T06:06:28.619Z</time>
      </trkpt>
      <trkpt lat="45.96332" lon="3.91496">
        <ele>641</ele>
        <time>2024-12-08T06:06:29.620Z</time>
      </trkpt>
      <trkpt lat="45.96331" lon="3.91498">
        <ele>641</ele>
        <time>2024-12-08T06:06:30.620Z</time>
      </trkpt>
      <trkpt lat="45.9633" lon="3.915">
        <ele>641</ele>
        <time>2024-12-08T06:06:31.619Z</time>
      </trkpt>
      <trkpt lat="45.96329" lon="3.91502">
        <ele>641</ele>
        <time>2024-12-08T06:06:32.619Z</time>
      </trkpt>
      <trkpt lat="45.96328" lon="3.91503">
        <ele>641</ele>
        <time>2024-12-08T06:06:33.619Z</time>
      </trkpt>
      <trkpt lat="45.96327" lon="3.91505">
        <ele>641</ele>
        <time>2024-12-08T06:06:34.620Z</time>
      </trkpt>
      <trkpt lat="45.96327" lon="3.91507">
        <ele>640</ele>
        <time>2024-12-08T06:06:35.620Z</time>
      </trkpt>
      <trkpt lat="45.96326" lon="3.91509">
        <ele>640</ele>
        <time>2024-12-08T06:06:36.620Z</time>
      </trkpt>
      <trkpt lat="45.96326" lon="3.9151">
        <ele>640</ele>
        <time>2024-12-08T06:06:37.620Z</time>
      </trkpt>
      <trkpt lat="45.96327" lon="3.91512">
        <ele>640</ele>
        <time>2024-12-08T06:06:38.619Z</time>
      </trkpt>
      <trkpt lat="45.96327" lon="3.91515">
        <ele>640</ele>
        <time>2024-12-08T06:06:39.620Z</time>
      </trkpt>
      <trkpt lat="45.96327" lon="3.91517">
        <ele>640</ele>
        <time>2024-12-08T06:06:40.619Z</time>
      </trkpt>
      <trkpt lat="45.96327" lon="3.91519">
        <ele>640</ele>
        <time>2024-12-08T06:06:41.620Z</time>
      </trkpt>
      <trkpt lat="45.96328" lon="3.91521">
        <ele>640</ele>
        <time>2024-12-08T06:06:42.620Z</time>
      </trkpt>
      <trkpt lat="45.96328" lon="3.91524">
        <ele>640</ele>
        <time>2024-12-08T06:06:43.619Z</time>
      </trkpt>
      <trkpt lat="45.96328" lon="3.91526">
        <ele>640</ele>
        <time>2024-12-08T06:06:44.620Z</time>
      </trkpt>
      <trkpt lat="45.96327" lon="3.91528">
        <ele>640</ele>
        <time>2024-12-08T06:06:45.619Z</time>
      </trkpt>
      <trkpt lat="45.96327" lon="3.91529">
        <ele>640</ele>
        <time>2024-12-08T06:06:46.619Z</time>
      </trkpt>
      <trkpt lat="45.96326" lon="3.91531">
        <ele>640</ele>
        <time>2024-12-08T06:06:47.619Z</time>
      </trkpt>
      <trkpt lat="45.96326" lon="3.91532">
        <ele>640</ele>
        <time>2024-12-08T06:06:48.619Z</time>
      </trkpt>
      <trkpt lat="45.96325" lon="3.91534">
        <ele>640</ele>
        <time>2024-12-08T06:06:49.620Z</time>
      </trkpt>
      <trkpt lat="45.96325" lon="3.91535">
        <ele>640</ele>
        <time>2024-12-08T06:06:50.619Z</time>
      </trkpt>
      <trkpt lat="45.96325" lon="3.91537">
        <ele>641</ele>
        <time>2024-12-08T06:06:51.619Z</time>
      </trkpt>
      <trkpt lat="45.96324" lon="3.91539">
        <ele>641</ele>
        <time>2024-12-08T06:06:52.620Z</time>
      </trkpt>
      <trkpt lat="45.96324" lon="3.91541">
        <ele>642</ele>
        <time>2024-12-08T06:06:53.619Z</time>
      </trkpt>
      <trkpt lat="45.96324" lon="3.91542">
        <ele>642</ele>
        <time>2024-12-08T06:06:54.619Z</time>
      </trkpt>
      <trkpt lat="45.96324" lon="3.91544">
        <ele>643</ele>
        <time>2024-12-08T06:06:55.619Z</time>
      </trkpt>
      <trkpt lat="45.96324" lon="3.91545">
        <ele>643</ele>
        <time>2024-12-08T06:06:56.620Z</time>
      </trkpt>
      <trkpt lat="45.96323" lon="3.91547">
        <ele>643</ele>
        <time>2024-12-08T06:06:57.619Z</time>
      </trkpt>
      <trkpt lat="45.96324" lon="3.91548">
        <ele>643</ele>
        <time>2024-12-08T06:06:58.620Z</time>
      </trkpt>
      <trkpt lat="45.96324" lon="3.9155">
        <ele>644</ele>
        <time>2024-12-08T06:06:59.619Z</time>
      </trkpt>
      <trkpt lat="45.96324" lon="3.91551">
        <ele>644</ele>
        <time>2024-12-08T06:07:00.619Z</time>
      </trkpt>
      <trkpt lat="45.96324" lon="3.91553">
        <ele>645</ele>
        <time>2024-12-08T06:07:01.620Z</time>
      </trkpt>
      <trkpt lat="45.96324" lon="3.91555">
        <ele>645</ele>
        <time>2024-12-08T06:07:02.620Z</time>
      </trkpt>
      <trkpt lat="45.96324" lon="3.91557">
        <ele>645</ele>
        <time>2024-12-08T06:07:03.620Z</time>
      </trkpt>
      <trkpt lat="45.96325" lon="3.91559">
        <ele>645</ele>
        <time>2024-12-08T06:07:04.620Z</time>
      </trkpt>
      <trkpt lat="45.96325" lon="3.9156">
        <ele>645</ele>
        <time>2024-12-08T06:07:05.619Z</time>
      </trkpt>
      <trkpt lat="45.96325" lon="3.91561">
        <ele>646</ele>
        <time>2024-12-08T06:07:06.619Z</time>
      </trkpt>
      <trkpt lat="45.96326" lon="3.91563">
        <ele>646</ele>
        <time>2024-12-08T06:07:07.619Z</time>
      </trkpt>
      <trkpt lat="45.96326" lon="3.91564">
        <ele>646</ele>
        <time>2024-12-08T06:07:08.620Z</time>
      </trkpt>
      <trkpt lat="45.96328" lon="3.91566">
        <ele>646</ele>
        <time>2024-12-08T06:07:09.619Z</time>
      </trkpt>
      <trkpt lat="45.96329" lon="3.91567">
        <ele>646</ele>
        <time>2024-12-08T06:07:10.619Z</time>
      </trkpt>
      <trkpt lat="45.96329" lon="3.91568">
        <ele>646</ele>
        <time>2024-12-08T06:07:11.620Z</time>
      </trkpt>
      <trkpt lat="45.9633" lon="3.9157">
        <ele>646</ele>
        <time>2024-12-08T06:07:12.620Z</time>
      </trkpt>
      <trkpt lat="45.96332" lon="3.91571">
        <ele>646</ele>
        <time>2024-12-08T06:07:13.620Z</time>
      </trkpt>
      <trkpt lat="45.96333" lon="3.91572">
        <ele>645</ele>
        <time>2024-12-08T06:07:14.620Z</time>
      </trkpt>
      <trkpt lat="45.96334" lon="3.91573">
        <ele>645</ele>
        <time>2024-12-08T06:07:15.619Z</time>
      </trkpt>
      <trkpt lat="45.96335" lon="3.91575">
        <ele>645</ele>
        <time>2024-12-08T06:07:16.620Z</time>
      </trkpt>
      <trkpt lat="45.96336" lon="3.91576">
        <ele>645</ele>
        <time>2024-12-08T06:07:17.619Z</time>
      </trkpt>
      <trkpt lat="45.96337" lon="3.91578">
        <ele>645</ele>
        <time>2024-12-08T06:07:18.620Z</time>
      </trkpt>
      <trkpt lat="45.96338" lon="3.91579">
        <ele>645</ele>
        <time>2024-12-08T06:07:19.619Z</time>
      </trkpt>
      <trkpt lat="45.9634" lon="3.9158">
        <ele>644</ele>
        <time>2024-12-08T06:07:20.620Z</time>
      </trkpt>
      <trkpt lat="45.96341" lon="3.91581">
        <ele>644</ele>
        <time>2024-12-08T06:07:21.620Z</time>
      </trkpt>
      <trkpt lat="45.96342" lon="3.91582">
        <ele>644</ele>
        <time>2024-12-08T06:07:22.620Z</time>
      </trkpt>
      <trkpt lat="45.96343" lon="3.91583">
        <ele>644</ele>
        <time>2024-12-08T06:07:23.619Z</time>
      </trkpt>
      <trkpt lat="45.96345" lon="3.91584">
        <ele>644</ele>
        <time>2024-12-08T06:07:24.620Z</time>
      </trkpt>
      <trkpt lat="45.96346" lon="3.91584">
        <ele>644</ele>
        <time>2024-12-08T06:07:25.619Z</time>
      </trkpt>
      <trkpt lat="45.96348" lon="3.91585">
        <ele>644</ele>
        <time>2024-12-08T06:07:26.620Z</time>
      </trkpt>
      <trkpt lat="45.96349" lon="3.91586">
        <ele>645</ele>
        <time>2024-12-08T06:07:27.619Z</time>
      </trkpt>
      <trkpt lat="45.9635" lon="3.91586">
        <ele>645</ele>
        <time>2024-12-08T06:07:28.620Z</time>
      </trkpt>
      <trkpt lat="45.96352" lon="3.91587">
        <ele>646</ele>
        <time>2024-12-08T06:07:29.619Z</time>
      </trkpt>
      <trkpt lat="45.96354" lon="3.91588">
        <ele>647</ele>
        <time>2024-12-08T06:07:30.619Z</time>
      </trkpt>
      <trkpt lat="45.96355" lon="3.91589">
        <ele>647</ele>
        <time>2024-12-08T06:07:31.619Z</time>
      </trkpt>
      <trkpt lat="45.96357" lon="3.9159">
        <ele>647</ele>
        <time>2024-12-08T06:07:32.619Z</time>
      </trkpt>
      <trkpt lat="45.96359" lon="3.91591">
        <ele>647</ele>
        <time>2024-12-08T06:07:33.619Z</time>
      </trkpt>
      <trkpt lat="45.9636" lon="3.91592">
        <ele>647</ele>
        <time>2024-12-08T06:07:34.620Z</time>
      </trkpt>
      <trkpt lat="45.96361" lon="3.91593">
        <ele>647</ele>
        <time>2024-12-08T06:07:35.620Z</time>
      </trkpt>
      <trkpt lat="45.96362" lon="3.91593">
        <ele>647</ele>
        <time>2024-12-08T06:07:36.619Z</time>
      </trkpt>
      <trkpt lat="45.96364" lon="3.91594">
        <ele>647</ele>
        <time>2024-12-08T06:07:37.620Z</time>
      </trkpt>
      <trkpt lat="45.96366" lon="3.91594">
        <ele>647</ele>
        <time>2024-12-08T06:07:38.620Z</time>
      </trkpt>
      <trkpt lat="45.96368" lon="3.91595">
        <ele>647</ele>
        <time>2024-12-08T06:07:39.620Z</time>
      </trkpt>
      <trkpt lat="45.9637" lon="3.91596">
        <ele>647</ele>
        <time>2024-12-08T06:07:40.619Z</time>
      </trkpt>
      <trkpt lat="45.96371" lon="3.91597">
        <ele>647</ele>
        <time>2024-12-08T06:07:41.620Z</time>
      </trkpt>
      <trkpt lat="45.96372" lon="3.91598">
        <ele>647</ele>
        <time>2024-12-08T06:07:42.620Z</time>
      </trkpt>
      <trkpt lat="45.96373" lon="3.91599">
        <ele>647</ele>
        <time>2024-12-08T06:07:43.620Z</time>
      </trkpt>
      <trkpt lat="45.96374" lon="3.91599">
        <ele>647</ele>
        <time>2024-12-08T06:07:44.619Z</time>
      </trkpt>
      <trkpt lat="45.96375" lon="3.916">
        <ele>647</ele>
        <time>2024-12-08T06:07:45.620Z</time>
      </trkpt>
      <trkpt lat="45.96377" lon="3.916">
        <ele>648</ele>
        <time>2024-12-08T06:07:46.620Z</time>
      </trkpt>
      <trkpt lat="45.96378" lon="3.91601">
        <ele>648</ele>
        <time>2024-12-08T06:07:47.619Z</time>
      </trkpt>
      <trkpt lat="45.96379" lon="3.91601">
        <ele>648</ele>
        <time>2024-12-08T06:07:48.619Z</time>
      </trkpt>
      <trkpt lat="45.9638" lon="3.91602">
        <ele>647</ele>
        <time>2024-12-08T06:07:49.620Z</time>
      </trkpt>
      <trkpt lat="45.96381" lon="3.91602">
        <ele>647</ele>
        <time>2024-12-08T06:07:50.619Z</time>
      </trkpt>
      <trkpt lat="45.96383" lon="3.91603">
        <ele>647</ele>
        <time>2024-12-08T06:07:51.620Z</time>
      </trkpt>
      <trkpt lat="45.96384" lon="3.91604">
        <ele>647</ele>
        <time>2024-12-08T06:07:52.619Z</time>
      </trkpt>
      <trkpt lat="45.96386" lon="3.91604">
        <ele>647</ele>
        <time>2024-12-08T06:07:53.619Z</time>
      </trkpt>
      <trkpt lat="45.96386" lon="3.91605">
        <ele>647</ele>
        <time>2024-12-08T06:07:54.620Z</time>
      </trkpt>
      <trkpt lat="45.96388" lon="3.91605">
        <ele>647</ele>
        <time>2024-12-08T06:07:55.619Z</time>
      </trkpt>
      <trkpt lat="45.9639" lon="3.91606">
        <ele>647</ele>
        <time>2024-12-08T06:07:56.619Z</time>
      </trkpt>
      <trkpt lat="45.96391" lon="3.91606">
        <ele>647</ele>
        <time>2024-12-08T06:07:57.619Z</time>
      </trkpt>
      <trkpt lat="45.96393" lon="3.91607">
        <ele>648</ele>
        <time>2024-12-08T06:07:58.619Z</time>
      </trkpt>
      <trkpt lat="45.96394" lon="3.91607">
        <ele>647</ele>
        <time>2024-12-08T06:07:59.619Z</time>
      </trkpt>
      <trkpt lat="45.96395" lon="3.91608">
        <ele>648</ele>
        <time>2024-12-08T06:08:00.619Z</time>
      </trkpt>
      <trkpt lat="45.96397" lon="3.91608">
        <ele>647</ele>
        <time>2024-12-08T06:08:01.620Z</time>
      </trkpt>
      <trkpt lat="45.96398" lon="3.91609">
        <ele>647</ele>
        <time>2024-12-08T06:08:02.619Z</time>
      </trkpt>
      <trkpt lat="45.96399" lon="3.9161">
        <ele>647</ele>
        <time>2024-12-08T06:08:03.619Z</time>
      </trkpt>
      <trkpt lat="45.964" lon="3.9161">
        <ele>647</ele>
        <time>2024-12-08T06:08:04.619Z</time>
      </trkpt>
      <trkpt lat="45.96402" lon="3.9161">
        <ele>647</ele>
        <time>2024-12-08T06:08:05.619Z</time>
      </trkpt>
      <trkpt lat="45.96403" lon="3.91611">
        <ele>647</ele>
        <time>2024-12-08T06:08:06.619Z</time>
      </trkpt>
      <trkpt lat="45.96404" lon="3.91611">
        <ele>648</ele>
        <time>2024-12-08T06:08:07.619Z</time>
      </trkpt>
      <trkpt lat="45.96406" lon="3.91612">
        <ele>648</ele>
        <time>2024-12-08T06:08:08.619Z</time>
      </trkpt>
      <trkpt lat="45.96407" lon="3.91613">
        <ele>648</ele>
        <time>2024-12-08T06:08:09.620Z</time>
      </trkpt>
      <trkpt lat="45.96409" lon="3.91613">
        <ele>648</ele>
        <time>2024-12-08T06:08:10.620Z</time>
      </trkpt>
      <trkpt lat="45.9641" lon="3.91614">
        <ele>648</ele>
        <time>2024-12-08T06:08:11.620Z</time>
      </trkpt>
      <trkpt lat="45.96412" lon="3.91615">
        <ele>649</ele>
        <time>2024-12-08T06:08:12.619Z</time>
      </trkpt>
      <trkpt lat="45.96413" lon="3.91616">
        <ele>649</ele>
        <time>2024-12-08T06:08:13.619Z</time>
      </trkpt>
      <trkpt lat="45.96414" lon="3.91616">
        <ele>649</ele>
        <time>2024-12-08T06:08:14.619Z</time>
      </trkpt>
      <trkpt lat="45.96415" lon="3.91617">
        <ele>649</ele>
        <time>2024-12-08T06:08:15.619Z</time>
      </trkpt>
      <trkpt lat="45.96417" lon="3.91618">
        <ele>649</ele>
        <time>2024-12-08T06:08:16.620Z</time>
      </trkpt>
      <trkpt lat="45.96418" lon="3.91618">
        <ele>649</ele>
        <time>2024-12-08T06:08:17.619Z</time>
      </trkpt>
      <trkpt lat="45.96419" lon="3.91619">
        <ele>649</ele>
        <time>2024-12-08T06:08:18.620Z</time>
      </trkpt>
      <trkpt lat="45.9642" lon="3.91619">
        <ele>649</ele>
        <time>2024-12-08T06:08:19.620Z</time>
      </trkpt>
      <trkpt lat="45.96421" lon="3.9162">
        <ele>649</ele>
        <time>2024-12-08T06:08:20.619Z</time>
      </trkpt>
      <trkpt lat="45.96423" lon="3.91621">
        <ele>649</ele>
        <time>2024-12-08T06:08:21.620Z</time>
      </trkpt>
      <trkpt lat="45.96424" lon="3.91622">
        <ele>650</ele>
        <time>2024-12-08T06:08:22.619Z</time>
      </trkpt>
      <trkpt lat="45.96425" lon="3.91622">
        <ele>650</ele>
        <time>2024-12-08T06:08:23.620Z</time>
      </trkpt>
      <trkpt lat="45.96426" lon="3.91623">
        <ele>650</ele>
        <time>2024-12-08T06:08:24.619Z</time>
      </trkpt>
      <trkpt lat="45.96428" lon="3.91624">
        <ele>651</ele>
        <time>2024-12-08T06:08:25.619Z</time>
      </trkpt>
      <trkpt lat="45.96429" lon="3.91624">
        <ele>651</ele>
        <time>2024-12-08T06:08:26.620Z</time>
      </trkpt>
      <trkpt lat="45.96431" lon="3.91625">
        <ele>651</ele>
        <time>2024-12-08T06:08:27.620Z</time>
      </trkpt>
      <trkpt lat="45.96432" lon="3.91626">
        <ele>651</ele>
        <time>2024-12-08T06:08:28.619Z</time>
      </trkpt>
      <trkpt lat="45.96433" lon="3.91626">
        <ele>652</ele>
        <time>2024-12-08T06:08:29.620Z</time>
      </trkpt>
      <trkpt lat="45.96434" lon="3.91627">
        <ele>652</ele>
        <time>2024-12-08T06:08:30.619Z</time>
      </trkpt>
      <trkpt lat="45.96436" lon="3.91627">
        <ele>652</ele>
        <time>2024-12-08T06:08:31.619Z</time>
      </trkpt>
      <trkpt lat="45.96437" lon="3.91628">
        <ele>652</ele>
        <time>2024-12-08T06:08:32.620Z</time>
      </trkpt>
      <trkpt lat="45.96438" lon="3.91628">
        <ele>652</ele>
        <time>2024-12-08T06:08:33.619Z</time>
      </trkpt>
      <trkpt lat="45.96439" lon="3.91629">
        <ele>653</ele>
        <time>2024-12-08T06:08:34.619Z</time>
      </trkpt>
      <trkpt lat="45.9644" lon="3.9163">
        <ele>653</ele>
        <time>2024-12-08T06:08:35.620Z</time>
      </trkpt>
      <trkpt lat="45.96441" lon="3.9163">
        <ele>653</ele>
        <time>2024-12-08T06:08:36.620Z</time>
      </trkpt>
      <trkpt lat="45.96443" lon="3.91631">
        <ele>654</ele>
        <time>2024-12-08T06:08:37.619Z</time>
      </trkpt>
      <trkpt lat="45.96444" lon="3.91631">
        <ele>654</ele>
        <time>2024-12-08T06:08:38.620Z</time>
      </trkpt>
      <trkpt lat="45.96445" lon="3.91632">
        <ele>654</ele>
        <time>2024-12-08T06:08:39.619Z</time>
      </trkpt>
      <trkpt lat="45.96446" lon="3.91632">
        <ele>655</ele>
        <time>2024-12-08T06:08:40.620Z</time>
      </trkpt>
      <trkpt lat="45.96448" lon="3.91633">
        <ele>655</ele>
        <time>2024-12-08T06:08:41.620Z</time>
      </trkpt>
      <trkpt lat="45.96449" lon="3.91634">
        <ele>654</ele>
        <time>2024-12-08T06:08:42.619Z</time>
      </trkpt>
      <trkpt lat="45.9645" lon="3.91635">
        <ele>654</ele>
        <time>2024-12-08T06:08:43.619Z</time>
      </trkpt>
      <trkpt lat="45.96451" lon="3.91636">
        <ele>654</ele>
        <time>2024-12-08T06:08:44.620Z</time>
      </trkpt>
      <trkpt lat="45.96452" lon="3.91637">
        <ele>654</ele>
        <time>2024-12-08T06:08:45.619Z</time>
      </trkpt>
      <trkpt lat="45.96454" lon="3.91637">
        <ele>654</ele>
        <time>2024-12-08T06:08:46.620Z</time>
      </trkpt>
      <trkpt lat="45.96455" lon="3.91638">
        <ele>654</ele>
        <time>2024-12-08T06:08:47.620Z</time>
      </trkpt>
      <trkpt lat="45.96456" lon="3.91639">
        <ele>654</ele>
        <time>2024-12-08T06:08:48.619Z</time>
      </trkpt>
      <trkpt lat="45.96458" lon="3.9164">
        <ele>654</ele>
        <time>2024-12-08T06:08:49.619Z</time>
      </trkpt>
      <trkpt lat="45.96459" lon="3.91641">
        <ele>654</ele>
        <time>2024-12-08T06:08:50.620Z</time>
      </trkpt>
      <trkpt lat="45.9646" lon="3.91642">
        <ele>654</ele>
        <time>2024-12-08T06:08:51.619Z</time>
      </trkpt>
      <trkpt lat="45.96461" lon="3.91643">
        <ele>654</ele>
        <time>2024-12-08T06:08:52.619Z</time>
      </trkpt>
      <trkpt lat="45.96462" lon="3.91644">
        <ele>655</ele>
        <time>2024-12-08T06:08:53.619Z</time>
      </trkpt>
      <trkpt lat="45.96464" lon="3.91645">
        <ele>656</ele>
        <time>2024-12-08T06:08:54.619Z</time>
      </trkpt>
      <trkpt lat="45.96465" lon="3.91646">
        <ele>656</ele>
        <time>2024-12-08T06:08:55.620Z</time>
      </trkpt>
      <trkpt lat="45.96466" lon="3.91647">
        <ele>656</ele>
        <time>2024-12-08T06:08:56.620Z</time>
      </trkpt>
      <trkpt lat="45.96468" lon="3.91648">
        <ele>656</ele>
        <time>2024-12-08T06:08:57.620Z</time>
      </trkpt>
      <trkpt lat="45.96469" lon="3.91649">
        <ele>656</ele>
        <time>2024-12-08T06:08:58.619Z</time>
      </trkpt>
      <trkpt lat="45.9647" lon="3.9165">
        <ele>655</ele>
        <time>2024-12-08T06:08:59.619Z</time>
      </trkpt>
      <trkpt lat="45.96471" lon="3.91651">
        <ele>655</ele>
        <time>2024-12-08T06:09:00.620Z</time>
      </trkpt>
      <trkpt lat="45.96472" lon="3.91652">
        <ele>655</ele>
        <time>2024-12-08T06:09:01.619Z</time>
      </trkpt>
      <trkpt lat="45.96473" lon="3.91653">
        <ele>655</ele>
        <time>2024-12-08T06:09:02.619Z</time>
      </trkpt>
      <trkpt lat="45.96474" lon="3.91653">
        <ele>656</ele>
        <time>2024-12-08T06:09:03.619Z</time>
      </trkpt>
      <trkpt lat="45.96476" lon="3.91654">
        <ele>656</ele>
        <time>2024-12-08T06:09:04.619Z</time>
      </trkpt>
      <trkpt lat="45.96477" lon="3.91656">
        <ele>656</ele>
        <time>2024-12-08T06:09:05.619Z</time>
      </trkpt>
      <trkpt lat="45.96478" lon="3.91657">
        <ele>657</ele>
        <time>2024-12-08T06:09:06.619Z</time>
      </trkpt>
      <trkpt lat="45.96479" lon="3.91658">
        <ele>657</ele>
        <time>2024-12-08T06:09:07.619Z</time>
      </trkpt>
      <trkpt lat="45.9648" lon="3.9166">
        <ele>658</ele>
        <time>2024-12-08T06:09:08.620Z</time>
      </trkpt>
      <trkpt lat="45.96481" lon="3.91661">
        <ele>658</ele>
        <time>2024-12-08T06:09:09.619Z</time>
      </trkpt>
      <trkpt lat="45.96482" lon="3.91662">
        <ele>658</ele>
        <time>2024-12-08T06:09:10.619Z</time>
      </trkpt>
      <trkpt lat="45.96483" lon="3.91663">
        <ele>658</ele>
        <time>2024-12-08T06:09:11.619Z</time>
      </trkpt>
      <trkpt lat="45.96484" lon="3.91664">
        <ele>659</ele>
        <time>2024-12-08T06:09:12.619Z</time>
      </trkpt>
      <trkpt lat="45.96485" lon="3.91666">
        <ele>658</ele>
        <time>2024-12-08T06:09:13.620Z</time>
      </trkpt>
      <trkpt lat="45.96486" lon="3.91667">
        <ele>658</ele>
        <time>2024-12-08T06:09:14.619Z</time>
      </trkpt>
      <trkpt lat="45.96487" lon="3.91668">
        <ele>658</ele>
        <time>2024-12-08T06:09:15.619Z</time>
      </trkpt>
      <trkpt lat="45.96488" lon="3.9167">
        <ele>659</ele>
        <time>2024-12-08T06:09:16.620Z</time>
      </trkpt>
      <trkpt lat="45.96489" lon="3.91671">
        <ele>659</ele>
        <time>2024-12-08T06:09:17.620Z</time>
      </trkpt>
      <trkpt lat="45.9649" lon="3.91672">
        <ele>659</ele>
        <time>2024-12-08T06:09:18.619Z</time>
      </trkpt>
      <trkpt lat="45.96491" lon="3.91672">
        <ele>659</ele>
        <time>2024-12-08T06:09:19.620Z</time>
      </trkpt>
      <trkpt lat="45.96492" lon="3.91673">
        <ele>659</ele>
        <time>2024-12-08T06:09:20.619Z</time>
      </trkpt>
      <trkpt lat="45.96494" lon="3.91674">
        <ele>660</ele>
        <time>2024-12-08T06:09:21.620Z</time>
      </trkpt>
      <trkpt lat="45.96495" lon="3.91675">
        <ele>660</ele>
        <time>2024-12-08T06:09:22.620Z</time>
      </trkpt>
      <trkpt lat="45.96496" lon="3.91676">
        <ele>660</ele>
        <time>2024-12-08T06:09:23.619Z</time>
      </trkpt>
      <trkpt lat="45.96497" lon="3.91677">
        <ele>661</ele>
        <time>2024-12-08T06:09:24.619Z</time>
      </trkpt>
      <trkpt lat="45.96498" lon="3.91678">
        <ele>661</ele>
        <time>2024-12-08T06:09:25.620Z</time>
      </trkpt>
      <trkpt lat="45.96499" lon="3.91679">
        <ele>661</ele>
        <time>2024-12-08T06:09:26.620Z</time>
      </trkpt>
      <trkpt lat="45.965" lon="3.9168">
        <ele>661</ele>
        <time>2024-12-08T06:09:27.619Z</time>
      </trkpt>
      <trkpt lat="45.96502" lon="3.91681">
        <ele>662</ele>
        <time>2024-12-08T06:09:28.619Z</time>
      </trkpt>
      <trkpt lat="45.96503" lon="3.91683">
        <ele>662</ele>
        <time>2024-12-08T06:09:29.620Z</time>
      </trkpt>
      <trkpt lat="45.96504" lon="3.91684">
        <ele>662</ele>
        <time>2024-12-08T06:09:30.619Z</time>
      </trkpt>
      <trkpt lat="45.96505" lon="3.91685">
        <ele>663</ele>
        <time>2024-12-08T06:09:31.620Z</time>
      </trkpt>
      <trkpt lat="45.96506" lon="3.91685">
        <ele>663</ele>
        <time>2024-12-08T06:09:32.619Z</time>
      </trkpt>
      <trkpt lat="45.96507" lon="3.91687">
        <ele>663</ele>
        <time>2024-12-08T06:09:33.619Z</time>
      </trkpt>
      <trkpt lat="45.96508" lon="3.91688">
        <ele>663</ele>
        <time>2024-12-08T06:09:34.620Z</time>
      </trkpt>
      <trkpt lat="45.96509" lon="3.91689">
        <ele>664</ele>
        <time>2024-12-08T06:09:35.619Z</time>
      </trkpt>
      <trkpt lat="45.9651" lon="3.9169">
        <ele>664</ele>
        <time>2024-12-08T06:09:36.619Z</time>
      </trkpt>
      <trkpt lat="45.9651" lon="3.91691">
        <ele>664</ele>
        <time>2024-12-08T06:09:37.619Z</time>
      </trkpt>
      <trkpt lat="45.96511" lon="3.91692">
        <ele>664</ele>
        <time>2024-12-08T06:09:38.619Z</time>
      </trkpt>
      <trkpt lat="45.96512" lon="3.91693">
        <ele>664</ele>
        <time>2024-12-08T06:09:39.619Z</time>
      </trkpt>
      <trkpt lat="45.96513" lon="3.91694">
        <ele>664</ele>
        <time>2024-12-08T06:09:40.619Z</time>
      </trkpt>
      <trkpt lat="45.96514" lon="3.91695">
        <ele>663</ele>
        <time>2024-12-08T06:09:41.620Z</time>
      </trkpt>
      <trkpt lat="45.96515" lon="3.91696">
        <ele>663</ele>
        <time>2024-12-08T06:09:42.620Z</time>
      </trkpt>
      <trkpt lat="45.96515" lon="3.91697">
        <ele>664</ele>
        <time>2024-12-08T06:09:43.619Z</time>
      </trkpt>
      <trkpt lat="45.96516" lon="3.91698">
        <ele>664</ele>
        <time>2024-12-08T06:09:44.619Z</time>
      </trkpt>
      <trkpt lat="45.96517" lon="3.917">
        <ele>664</ele>
        <time>2024-12-08T06:09:45.620Z</time>
      </trkpt>
      <trkpt lat="45.96517" lon="3.91701">
        <ele>663</ele>
        <time>2024-12-08T06:09:46.619Z</time>
      </trkpt>
      <trkpt lat="45.96518" lon="3.91702">
        <ele>663</ele>
        <time>2024-12-08T06:09:47.619Z</time>
      </trkpt>
      <trkpt lat="45.96519" lon="3.91703">
        <ele>663</ele>
        <time>2024-12-08T06:09:48.619Z</time>
      </trkpt>
      <trkpt lat="45.9652" lon="3.91704">
        <ele>663</ele>
        <time>2024-12-08T06:09:49.619Z</time>
      </trkpt>
      <trkpt lat="45.96521" lon="3.91705">
        <ele>663</ele>
        <time>2024-12-08T06:09:50.619Z</time>
      </trkpt>
      <trkpt lat="45.96522" lon="3.91706">
        <ele>662</ele>
        <time>2024-12-08T06:09:51.620Z</time>
      </trkpt>
      <trkpt lat="45.96523" lon="3.91707">
        <ele>662</ele>
        <time>2024-12-08T06:09:52.619Z</time>
      </trkpt>
      <trkpt lat="45.96524" lon="3.91708">
        <ele>662</ele>
        <time>2024-12-08T06:09:53.620Z</time>
      </trkpt>
      <trkpt lat="45.96526" lon="3.91709">
        <ele>663</ele>
        <time>2024-12-08T06:09:54.619Z</time>
      </trkpt>
      <trkpt lat="45.96526" lon="3.9171">
        <ele>663</ele>
        <time>2024-12-08T06:09:55.619Z</time>
      </trkpt>
      <trkpt lat="45.96527" lon="3.91712">
        <ele>663</ele>
        <time>2024-12-08T06:09:56.619Z</time>
      </trkpt>
      <trkpt lat="45.96529" lon="3.91713">
        <ele>663</ele>
        <time>2024-12-08T06:09:57.620Z</time>
      </trkpt>
      <trkpt lat="45.9653" lon="3.91714">
        <ele>664</ele>
        <time>2024-12-08T06:09:58.619Z</time>
      </trkpt>
      <trkpt lat="45.96531" lon="3.91715">
        <ele>664</ele>
        <time>2024-12-08T06:09:59.620Z</time>
      </trkpt>
      <trkpt lat="45.96532" lon="3.91716">
        <ele>665</ele>
        <time>2024-12-08T06:10:00.619Z</time>
      </trkpt>
      <trkpt lat="45.96533" lon="3.91717">
        <ele>665</ele>
        <time>2024-12-08T06:10:01.619Z</time>
      </trkpt>
      <trkpt lat="45.96533" lon="3.91718">
        <ele>665</ele>
        <time>2024-12-08T06:10:02.619Z</time>
      </trkpt>
      <trkpt lat="45.96534" lon="3.91719">
        <ele>664</ele>
        <time>2024-12-08T06:10:03.620Z</time>
      </trkpt>
      <trkpt lat="45.96535" lon="3.9172">
        <ele>664</ele>
        <time>2024-12-08T06:10:04.620Z</time>
      </trkpt>
      <trkpt lat="45.96536" lon="3.91721">
        <ele>664</ele>
        <time>2024-12-08T06:10:05.619Z</time>
      </trkpt>
      <trkpt lat="45.96537" lon="3.91722">
        <ele>664</ele>
        <time>2024-12-08T06:10:06.619Z</time>
      </trkpt>
      <trkpt lat="45.96538" lon="3.91723">
        <ele>664</ele>
        <time>2024-12-08T06:10:07.620Z</time>
      </trkpt>
      <trkpt lat="45.96539" lon="3.91724">
        <ele>664</ele>
        <time>2024-12-08T06:10:08.620Z</time>
      </trkpt>
      <trkpt lat="45.9654" lon="3.91725">
        <ele>664</ele>
        <time>2024-12-08T06:10:09.619Z</time>
      </trkpt>
      <trkpt lat="45.96541" lon="3.91726">
        <ele>664</ele>
        <time>2024-12-08T06:10:10.620Z</time>
      </trkpt>
      <trkpt lat="45.96542" lon="3.91728">
        <ele>664</ele>
        <time>2024-12-08T06:10:11.619Z</time>
      </trkpt>
      <trkpt lat="45.96543" lon="3.91729">
        <ele>665</ele>
        <time>2024-12-08T06:10:12.620Z</time>
      </trkpt>
      <trkpt lat="45.96545" lon="3.9173">
        <ele>665</ele>
        <time>2024-12-08T06:10:13.619Z</time>
      </trkpt>
      <trkpt lat="45.96546" lon="3.91731">
        <ele>666</ele>
        <time>2024-12-08T06:10:14.620Z</time>
      </trkpt>
      <trkpt lat="45.96547" lon="3.91732">
        <ele>666</ele>
        <time>2024-12-08T06:10:15.620Z</time>
      </trkpt>
      <trkpt lat="45.96548" lon="3.91733">
        <ele>667</ele>
        <time>2024-12-08T06:10:16.620Z</time>
      </trkpt>
      <trkpt lat="45.9655" lon="3.91734">
        <ele>668</ele>
        <time>2024-12-08T06:10:17.619Z</time>
      </trkpt>
      <trkpt lat="45.96551" lon="3.91736">
        <ele>669</ele>
        <time>2024-12-08T06:10:18.619Z</time>
      </trkpt>
      <trkpt lat="45.96552" lon="3.91737">
        <ele>669</ele>
        <time>2024-12-08T06:10:19.620Z</time>
      </trkpt>
      <trkpt lat="45.96552" lon="3.91738">
        <ele>669</ele>
        <time>2024-12-08T06:10:20.620Z</time>
      </trkpt>
      <trkpt lat="45.96553" lon="3.91739">
        <ele>669</ele>
        <time>2024-12-08T06:10:21.620Z</time>
      </trkpt>
      <trkpt lat="45.96554" lon="3.9174">
        <ele>669</ele>
        <time>2024-12-08T06:10:22.619Z</time>
      </trkpt>
      <trkpt lat="45.96555" lon="3.91741">
        <ele>669</ele>
        <time>2024-12-08T06:10:23.620Z</time>
      </trkpt>
      <trkpt lat="45.96556" lon="3.91742">
        <ele>669</ele>
        <time>2024-12-08T06:10:24.620Z</time>
      </trkpt>
      <trkpt lat="45.96557" lon="3.91744">
        <ele>669</ele>
        <time>2024-12-08T06:10:25.619Z</time>
      </trkpt>
      <trkpt lat="45.96558" lon="3.91745">
        <ele>670</ele>
        <time>2024-12-08T06:10:26.619Z</time>
      </trkpt>
      <trkpt lat="45.96559" lon="3.91747">
        <ele>670</ele>
        <time>2024-12-08T06:10:27.619Z</time>
      </trkpt>
      <trkpt lat="45.9656" lon="3.91748">
        <ele>671</ele>
        <time>2024-12-08T06:10:28.620Z</time>
      </trkpt>
      <trkpt lat="45.96561" lon="3.91749">
        <ele>671</ele>
        <time>2024-12-08T06:10:29.619Z</time>
      </trkpt>
      <trkpt lat="45.96562" lon="3.9175">
        <ele>671</ele>
        <time>2024-12-08T06:10:30.619Z</time>
      </trkpt>
      <trkpt lat="45.96563" lon="3.91751">
        <ele>671</ele>
        <time>2024-12-08T06:10:31.619Z</time>
      </trkpt>
      <trkpt lat="45.96565" lon="3.91753">
        <ele>671</ele>
        <time>2024-12-08T06:10:32.619Z</time>
      </trkpt>
      <trkpt lat="45.96566" lon="3.91754">
        <ele>671</ele>
        <time>2024-12-08T06:10:33.620Z</time>
      </trkpt>
      <trkpt lat="45.96567" lon="3.91756">
        <ele>671</ele>
        <time>2024-12-08T06:10:34.619Z</time>
      </trkpt>
      <trkpt lat="45.96569" lon="3.91757">
        <ele>671</ele>
        <time>2024-12-08T06:10:35.620Z</time>
      </trkpt>
      <trkpt lat="45.96569" lon="3.91759">
        <ele>671</ele>
        <time>2024-12-08T06:10:36.620Z</time>
      </trkpt>
      <trkpt lat="45.96571" lon="3.9176">
        <ele>671</ele>
        <time>2024-12-08T06:10:37.620Z</time>
      </trkpt>
      <trkpt lat="45.96572" lon="3.91761">
        <ele>671</ele>
        <time>2024-12-08T06:10:38.620Z</time>
      </trkpt>
      <trkpt lat="45.96573" lon="3.91762">
        <ele>672</ele>
        <time>2024-12-08T06:10:39.619Z</time>
      </trkpt>
      <trkpt lat="45.96574" lon="3.91764">
        <ele>672</ele>
        <time>2024-12-08T06:10:40.620Z</time>
      </trkpt>
      <trkpt lat="45.96575" lon="3.91765">
        <ele>672</ele>
        <time>2024-12-08T06:10:41.620Z</time>
      </trkpt>
      <trkpt lat="45.96576" lon="3.91766">
        <ele>672</ele>
        <time>2024-12-08T06:10:42.620Z</time>
      </trkpt>
      <trkpt lat="45.96577" lon="3.91767">
        <ele>672</ele>
        <time>2024-12-08T06:10:43.620Z</time>
      </trkpt>
      <trkpt lat="45.96578" lon="3.91768">
        <ele>672</ele>
        <time>2024-12-08T06:10:44.620Z</time>
      </trkpt>
      <trkpt lat="45.96579" lon="3.9177">
        <ele>672</ele>
        <time>2024-12-08T06:10:45.619Z</time>
      </trkpt>
      <trkpt lat="45.96581" lon="3.91772">
        <ele>673</ele>
        <time>2024-12-08T06:10:46.619Z</time>
      </trkpt>
      <trkpt lat="45.96582" lon="3.91773">
        <ele>673</ele>
        <time>2024-12-08T06:10:47.619Z</time>
      </trkpt>
      <trkpt lat="45.96583" lon="3.91775">
        <ele>673</ele>
        <time>2024-12-08T06:10:48.620Z</time>
      </trkpt>
      <trkpt lat="45.96584" lon="3.91776">
        <ele>673</ele>
        <time>2024-12-08T06:10:49.619Z</time>
      </trkpt>
      <trkpt lat="45.96585" lon="3.91777">
        <ele>673</ele>
        <time>2024-12-08T06:10:50.620Z</time>
      </trkpt>
      <trkpt lat="45.96586" lon="3.91779">
        <ele>673</ele>
        <time>2024-12-08T06:10:51.620Z</time>
      </trkpt>
      <trkpt lat="45.96587" lon="3.9178">
        <ele>674</ele>
        <time>2024-12-08T06:10:52.620Z</time>
      </trkpt>
      <trkpt lat="45.96588" lon="3.91781">
        <ele>674</ele>
        <time>2024-12-08T06:10:53.620Z</time>
      </trkpt>
      <trkpt lat="45.96589" lon="3.91782">
        <ele>674</ele>
        <time>2024-12-08T06:10:54.620Z</time>
      </trkpt>
      <trkpt lat="45.96591" lon="3.91784">
        <ele>674</ele>
        <time>2024-12-08T06:10:55.620Z</time>
      </trkpt>
      <trkpt lat="45.96592" lon="3.91786">
        <ele>675</ele>
        <time>2024-12-08T06:10:56.620Z</time>
      </trkpt>
      <trkpt lat="45.96593" lon="3.91787">
        <ele>675</ele>
        <time>2024-12-08T06:10:57.620Z</time>
      </trkpt>
      <trkpt lat="45.96594" lon="3.91788">
        <ele>674</ele>
        <time>2024-12-08T06:10:58.619Z</time>
      </trkpt>
      <trkpt lat="45.96595" lon="3.9179">
        <ele>674</ele>
        <time>2024-12-08T06:10:59.620Z</time>
      </trkpt>
      <trkpt lat="45.96597" lon="3.91791">
        <ele>674</ele>
        <time>2024-12-08T06:11:00.620Z</time>
      </trkpt>
      <trkpt lat="45.96598" lon="3.91792">
        <ele>674</ele>
        <time>2024-12-08T06:11:01.620Z</time>
      </trkpt>
      <trkpt lat="45.96599" lon="3.91794">
        <ele>674</ele>
        <time>2024-12-08T06:11:02.620Z</time>
      </trkpt>
      <trkpt lat="45.966" lon="3.91795">
        <ele>674</ele>
        <time>2024-12-08T06:11:03.620Z</time>
      </trkpt>
      <trkpt lat="45.96601" lon="3.91796">
        <ele>674</ele>
        <time>2024-12-08T06:11:04.619Z</time>
      </trkpt>
      <trkpt lat="45.96602" lon="3.91797">
        <ele>675</ele>
        <time>2024-12-08T06:11:05.620Z</time>
      </trkpt>
      <trkpt lat="45.96603" lon="3.91798">
        <ele>675</ele>
        <time>2024-12-08T06:11:06.620Z</time>
      </trkpt>
      <trkpt lat="45.96604" lon="3.918">
        <ele>676</ele>
        <time>2024-12-08T06:11:07.620Z</time>
      </trkpt>
      <trkpt lat="45.96605" lon="3.91801">
        <ele>676</ele>
        <time>2024-12-08T06:11:08.619Z</time>
      </trkpt>
      <trkpt lat="45.96606" lon="3.91803">
        <ele>676</ele>
        <time>2024-12-08T06:11:09.619Z</time>
      </trkpt>
      <trkpt lat="45.96607" lon="3.91804">
        <ele>676</ele>
        <time>2024-12-08T06:11:10.620Z</time>
      </trkpt>
      <trkpt lat="45.96608" lon="3.91805">
        <ele>676</ele>
        <time>2024-12-08T06:11:11.620Z</time>
      </trkpt>
      <trkpt lat="45.96609" lon="3.91807">
        <ele>677</ele>
        <time>2024-12-08T06:11:12.619Z</time>
      </trkpt>
      <trkpt lat="45.9661" lon="3.91809">
        <ele>677</ele>
        <time>2024-12-08T06:11:13.620Z</time>
      </trkpt>
      <trkpt lat="45.96611" lon="3.91811">
        <ele>677</ele>
        <time>2024-12-08T06:11:14.620Z</time>
      </trkpt>
      <trkpt lat="45.96613" lon="3.91813">
        <ele>677</ele>
        <time>2024-12-08T06:11:15.619Z</time>
      </trkpt>
      <trkpt lat="45.96614" lon="3.91814">
        <ele>677</ele>
        <time>2024-12-08T06:11:16.619Z</time>
      </trkpt>
      <trkpt lat="45.96615" lon="3.91815">
        <ele>677</ele>
        <time>2024-12-08T06:11:17.619Z</time>
      </trkpt>
      <trkpt lat="45.96615" lon="3.91816">
        <ele>677</ele>
        <time>2024-12-08T06:11:18.620Z</time>
      </trkpt>
      <trkpt lat="45.96617" lon="3.91818">
        <ele>677</ele>
        <time>2024-12-08T06:11:19.620Z</time>
      </trkpt>
      <trkpt lat="45.96618" lon="3.91819">
        <ele>677</ele>
        <time>2024-12-08T06:11:20.620Z</time>
      </trkpt>
      <trkpt lat="45.96619" lon="3.9182">
        <ele>678</ele>
        <time>2024-12-08T06:11:21.619Z</time>
      </trkpt>
      <trkpt lat="45.9662" lon="3.91822">
        <ele>678</ele>
        <time>2024-12-08T06:11:22.619Z</time>
      </trkpt>
      <trkpt lat="45.96621" lon="3.91823">
        <ele>677</ele>
        <time>2024-12-08T06:11:23.620Z</time>
      </trkpt>
      <trkpt lat="45.96623" lon="3.91824">
        <ele>677</ele>
        <time>2024-12-08T06:11:24.619Z</time>
      </trkpt>
      <trkpt lat="45.96624" lon="3.91826">
        <ele>677</ele>
        <time>2024-12-08T06:11:25.619Z</time>
      </trkpt>
      <trkpt lat="45.96625" lon="3.91828">
        <ele>677</ele>
        <time>2024-12-08T06:11:26.620Z</time>
      </trkpt>
      <trkpt lat="45.96627" lon="3.91829">
        <ele>678</ele>
        <time>2024-12-08T06:11:27.620Z</time>
      </trkpt>
      <trkpt lat="45.96628" lon="3.9183">
        <ele>677</ele>
        <time>2024-12-08T06:11:28.619Z</time>
      </trkpt>
      <trkpt lat="45.96629" lon="3.91832">
        <ele>677</ele>
        <time>2024-12-08T06:11:29.620Z</time>
      </trkpt>
      <trkpt lat="45.9663" lon="3.91833">
        <ele>678</ele>
        <time>2024-12-08T06:11:30.620Z</time>
      </trkpt>
      <trkpt lat="45.96631" lon="3.91834">
        <ele>678</ele>
        <time>2024-12-08T06:11:31.619Z</time>
      </trkpt>
      <trkpt lat="45.96632" lon="3.91835">
        <ele>678</ele>
        <time>2024-12-08T06:11:32.620Z</time>
      </trkpt>
      <trkpt lat="45.96634" lon="3.91836">
        <ele>678</ele>
        <time>2024-12-08T06:11:33.620Z</time>
      </trkpt>
      <trkpt lat="45.96635" lon="3.91837">
        <ele>678</ele>
        <time>2024-12-08T06:11:34.620Z</time>
      </trkpt>
      <trkpt lat="45.96636" lon="3.91838">
        <ele>678</ele>
        <time>2024-12-08T06:11:35.619Z</time>
      </trkpt>
      <trkpt lat="45.96637" lon="3.91839">
        <ele>679</ele>
        <time>2024-12-08T06:11:36.620Z</time>
      </trkpt>
      <trkpt lat="45.96638" lon="3.91841">
        <ele>679</ele>
        <time>2024-12-08T06:11:37.619Z</time>
      </trkpt>
      <trkpt lat="45.96639" lon="3.91842">
        <ele>680</ele>
        <time>2024-12-08T06:11:38.620Z</time>
      </trkpt>
      <trkpt lat="45.96641" lon="3.91844">
        <ele>680</ele>
        <time>2024-12-08T06:11:39.619Z</time>
      </trkpt>
      <trkpt lat="45.96642" lon="3.91845">
        <ele>680</ele>
        <time>2024-12-08T06:11:40.619Z</time>
      </trkpt>
      <trkpt lat="45.96643" lon="3.91846">
        <ele>680</ele>
        <time>2024-12-08T06:11:41.620Z</time>
      </trkpt>
      <trkpt lat="45.96643" lon="3.91847">
        <ele>681</ele>
        <time>2024-12-08T06:11:42.620Z</time>
      </trkpt>
      <trkpt lat="45.96645" lon="3.91848">
        <ele>681</ele>
        <time>2024-12-08T06:11:43.619Z</time>
      </trkpt>
      <trkpt lat="45.96646" lon="3.91849">
        <ele>681</ele>
        <time>2024-12-08T06:11:44.620Z</time>
      </trkpt>
      <trkpt lat="45.96647" lon="3.9185">
        <ele>681</ele>
        <time>2024-12-08T06:11:45.620Z</time>
      </trkpt>
      <trkpt lat="45.96648" lon="3.91851">
        <ele>681</ele>
        <time>2024-12-08T06:11:46.620Z</time>
      </trkpt>
      <trkpt lat="45.96649" lon="3.91852">
        <ele>681</ele>
        <time>2024-12-08T06:11:47.620Z</time>
      </trkpt>
      <trkpt lat="45.9665" lon="3.91854">
        <ele>681</ele>
        <time>2024-12-08T06:11:48.619Z</time>
      </trkpt>
      <trkpt lat="45.96651" lon="3.91854">
        <ele>681</ele>
        <time>2024-12-08T06:11:49.619Z</time>
      </trkpt>
      <trkpt lat="45.96652" lon="3.91856">
        <ele>681</ele>
        <time>2024-12-08T06:11:50.620Z</time>
      </trkpt>
      <trkpt lat="45.96653" lon="3.91857">
        <ele>681</ele>
        <time>2024-12-08T06:11:51.619Z</time>
      </trkpt>
      <trkpt lat="45.96655" lon="3.91858">
        <ele>682</ele>
        <time>2024-12-08T06:11:52.619Z</time>
      </trkpt>
      <trkpt lat="45.96656" lon="3.91859">
        <ele>682</ele>
        <time>2024-12-08T06:11:53.620Z</time>
      </trkpt>
      <trkpt lat="45.96657" lon="3.9186">
        <ele>682</ele>
        <time>2024-12-08T06:11:54.620Z</time>
      </trkpt>
      <trkpt lat="45.96659" lon="3.91861">
        <ele>683</ele>
        <time>2024-12-08T06:11:55.620Z</time>
      </trkpt>
      <trkpt lat="45.9666" lon="3.91861">
        <ele>683</ele>
        <time>2024-12-08T06:11:56.620Z</time>
      </trkpt>
      <trkpt lat="45.96661" lon="3.91862">
        <ele>683</ele>
        <time>2024-12-08T06:11:57.619Z</time>
      </trkpt>
      <trkpt lat="45.96663" lon="3.91863">
        <ele>683</ele>
        <time>2024-12-08T06:11:58.620Z</time>
      </trkpt>
      <trkpt lat="45.96664" lon="3.91864">
        <ele>683</ele>
        <time>2024-12-08T06:11:59.619Z</time>
      </trkpt>
      <trkpt lat="45.96665" lon="3.91864">
        <ele>683</ele>
        <time>2024-12-08T06:12:00.620Z</time>
      </trkpt>
      <trkpt lat="45.96666" lon="3.91865">
        <ele>683</ele>
        <time>2024-12-08T06:12:01.620Z</time>
      </trkpt>
      <trkpt lat="45.96668" lon="3.91866">
        <ele>683</ele>
        <time>2024-12-08T06:12:02.619Z</time>
      </trkpt>
      <trkpt lat="45.96669" lon="3.91867">
        <ele>683</ele>
        <time>2024-12-08T06:12:03.620Z</time>
      </trkpt>
      <trkpt lat="45.96671" lon="3.91868">
        <ele>682</ele>
        <time>2024-12-08T06:12:04.620Z</time>
      </trkpt>
      <trkpt lat="45.96672" lon="3.91869">
        <ele>682</ele>
        <time>2024-12-08T06:12:05.619Z</time>
      </trkpt>
      <trkpt lat="45.96673" lon="3.9187">
        <ele>682</ele>
        <time>2024-12-08T06:12:06.619Z</time>
      </trkpt>
      <trkpt lat="45.96675" lon="3.91871">
        <ele>683</ele>
        <time>2024-12-08T06:12:07.619Z</time>
      </trkpt>
      <trkpt lat="45.96676" lon="3.91872">
        <ele>683</ele>
        <time>2024-12-08T06:12:08.620Z</time>
      </trkpt>
      <trkpt lat="45.96677" lon="3.91872">
        <ele>683</ele>
        <time>2024-12-08T06:12:09.619Z</time>
      </trkpt>
      <trkpt lat="45.96678" lon="3.91872">
        <ele>683</ele>
        <time>2024-12-08T06:12:10.620Z</time>
      </trkpt>
      <trkpt lat="45.96679" lon="3.91873">
        <ele>684</ele>
        <time>2024-12-08T06:12:11.620Z</time>
      </trkpt>
      <trkpt lat="45.96681" lon="3.91874">
        <ele>684</ele>
        <time>2024-12-08T06:12:12.619Z</time>
      </trkpt>
      <trkpt lat="45.96682" lon="3.91874">
        <ele>684</ele>
        <time>2024-12-08T06:12:13.620Z</time>
      </trkpt>
      <trkpt lat="45.96683" lon="3.91875">
        <ele>683</ele>
        <time>2024-12-08T06:12:14.619Z</time>
      </trkpt>
      <trkpt lat="45.96684" lon="3.91876">
        <ele>684</ele>
        <time>2024-12-08T06:12:15.619Z</time>
      </trkpt>
      <trkpt lat="45.96686" lon="3.91877">
        <ele>684</ele>
        <time>2024-12-08T06:12:16.620Z</time>
      </trkpt>
      <trkpt lat="45.96687" lon="3.91877">
        <ele>684</ele>
        <time>2024-12-08T06:12:17.619Z</time>
      </trkpt>
      <trkpt lat="45.96688" lon="3.91878">
        <ele>684</ele>
        <time>2024-12-08T06:12:18.619Z</time>
      </trkpt>
      <trkpt lat="45.9669" lon="3.91878">
        <ele>684</ele>
        <time>2024-12-08T06:12:19.620Z</time>
      </trkpt>
      <trkpt lat="45.96692" lon="3.91879">
        <ele>684</ele>
        <time>2024-12-08T06:12:20.619Z</time>
      </trkpt>
      <trkpt lat="45.96693" lon="3.9188">
        <ele>684</ele>
        <time>2024-12-08T06:12:21.619Z</time>
      </trkpt>
      <trkpt lat="45.96695" lon="3.9188">
        <ele>684</ele>
        <time>2024-12-08T06:12:22.619Z</time>
      </trkpt>
      <trkpt lat="45.96696" lon="3.91881">
        <ele>684</ele>
        <time>2024-12-08T06:12:23.619Z</time>
      </trkpt>
      <trkpt lat="45.96697" lon="3.91882">
        <ele>684</ele>
        <time>2024-12-08T06:12:24.620Z</time>
      </trkpt>
      <trkpt lat="45.96698" lon="3.91883">
        <ele>685</ele>
        <time>2024-12-08T06:12:25.620Z</time>
      </trkpt>
      <trkpt lat="45.967" lon="3.91884">
        <ele>685</ele>
        <time>2024-12-08T06:12:26.620Z</time>
      </trkpt>
      <trkpt lat="45.96701" lon="3.91885">
        <ele>686</ele>
        <time>2024-12-08T06:12:27.619Z</time>
      </trkpt>
      <trkpt lat="45.96702" lon="3.91886">
        <ele>686</ele>
        <time>2024-12-08T06:12:28.619Z</time>
      </trkpt>
      <trkpt lat="45.96703" lon="3.91887">
        <ele>686</ele>
        <time>2024-12-08T06:12:29.620Z</time>
      </trkpt>
      <trkpt lat="45.96704" lon="3.91887">
        <ele>686</ele>
        <time>2024-12-08T06:12:30.619Z</time>
      </trkpt>
      <trkpt lat="45.96706" lon="3.91888">
        <ele>686</ele>
        <time>2024-12-08T06:12:31.620Z</time>
      </trkpt>
      <trkpt lat="45.96707" lon="3.91888">
        <ele>687</ele>
        <time>2024-12-08T06:12:32.620Z</time>
      </trkpt>
      <trkpt lat="45.96709" lon="3.91889">
        <ele>687</ele>
        <time>2024-12-08T06:12:33.619Z</time>
      </trkpt>
      <trkpt lat="45.9671" lon="3.9189">
        <ele>687</ele>
        <time>2024-12-08T06:12:34.619Z</time>
      </trkpt>
      <trkpt lat="45.96712" lon="3.91891">
        <ele>687</ele>
        <time>2024-12-08T06:12:35.620Z</time>
      </trkpt>
      <trkpt lat="45.96714" lon="3.91891">
        <ele>687</ele>
        <time>2024-12-08T06:12:36.620Z</time>
      </trkpt>
      <trkpt lat="45.96715" lon="3.91892">
        <ele>687</ele>
        <time>2024-12-08T06:12:37.619Z</time>
      </trkpt>
      <trkpt lat="45.96717" lon="3.91893">
        <ele>687</ele>
        <time>2024-12-08T06:12:38.619Z</time>
      </trkpt>
      <trkpt lat="45.96718" lon="3.91894">
        <ele>687</ele>
        <time>2024-12-08T06:12:39.620Z</time>
      </trkpt>
      <trkpt lat="45.96719" lon="3.91895">
        <ele>687</ele>
        <time>2024-12-08T06:12:40.619Z</time>
      </trkpt>
      <trkpt lat="45.96721" lon="3.91896">
        <ele>687</ele>
        <time>2024-12-08T06:12:41.619Z</time>
      </trkpt>
      <trkpt lat="45.96722" lon="3.91897">
        <ele>687</ele>
        <time>2024-12-08T06:12:42.619Z</time>
      </trkpt>
      <trkpt lat="45.96723" lon="3.91897">
        <ele>688</ele>
        <time>2024-12-08T06:12:43.620Z</time>
      </trkpt>
      <trkpt lat="45.96725" lon="3.91898">
        <ele>688</ele>
        <time>2024-12-08T06:12:44.619Z</time>
      </trkpt>
      <trkpt lat="45.96726" lon="3.91899">
        <ele>688</ele>
        <time>2024-12-08T06:12:45.619Z</time>
      </trkpt>
      <trkpt lat="45.96727" lon="3.919">
        <ele>688</ele>
        <time>2024-12-08T06:12:46.619Z</time>
      </trkpt>
      <trkpt lat="45.96729" lon="3.91901">
        <ele>688</ele>
        <time>2024-12-08T06:12:47.620Z</time>
      </trkpt>
      <trkpt lat="45.9673" lon="3.91901">
        <ele>688</ele>
        <time>2024-12-08T06:12:48.619Z</time>
      </trkpt>
      <trkpt lat="45.96731" lon="3.91902">
        <ele>688</ele>
        <time>2024-12-08T06:12:49.620Z</time>
      </trkpt>
      <trkpt lat="45.96733" lon="3.91903">
        <ele>688</ele>
        <time>2024-12-08T06:12:50.619Z</time>
      </trkpt>
      <trkpt lat="45.96734" lon="3.91904">
        <ele>688</ele>
        <time>2024-12-08T06:12:51.619Z</time>
      </trkpt>
      <trkpt lat="45.96736" lon="3.91905">
        <ele>688</ele>
        <time>2024-12-08T06:12:52.620Z</time>
      </trkpt>
      <trkpt lat="45.96737" lon="3.91906">
        <ele>687</ele>
        <time>2024-12-08T06:12:53.620Z</time>
      </trkpt>
      <trkpt lat="45.96739" lon="3.91907">
        <ele>687</ele>
        <time>2024-12-08T06:12:54.620Z</time>
      </trkpt>
      <trkpt lat="45.9674" lon="3.91907">
        <ele>687</ele>
        <time>2024-12-08T06:12:55.619Z</time>
      </trkpt>
      <trkpt lat="45.96741" lon="3.91908">
        <ele>687</ele>
        <time>2024-12-08T06:12:56.619Z</time>
      </trkpt>
      <trkpt lat="45.96742" lon="3.91909">
        <ele>686</ele>
        <time>2024-12-08T06:12:57.619Z</time>
      </trkpt>
      <trkpt lat="45.96743" lon="3.91909">
        <ele>686</ele>
        <time>2024-12-08T06:12:58.620Z</time>
      </trkpt>
      <trkpt lat="45.96744" lon="3.9191">
        <ele>686</ele>
        <time>2024-12-08T06:12:59.619Z</time>
      </trkpt>
      <trkpt lat="45.96745" lon="3.91911">
        <ele>686</ele>
        <time>2024-12-08T06:13:00.620Z</time>
      </trkpt>
      <trkpt lat="45.96747" lon="3.91912">
        <ele>686</ele>
        <time>2024-12-08T06:13:01.619Z</time>
      </trkpt>
      <trkpt lat="45.96748" lon="3.91913">
        <ele>686</ele>
        <time>2024-12-08T06:13:02.620Z</time>
      </trkpt>
      <trkpt lat="45.9675" lon="3.91914">
        <ele>687</ele>
        <time>2024-12-08T06:13:03.620Z</time>
      </trkpt>
      <trkpt lat="45.96751" lon="3.91915">
        <ele>688</ele>
        <time>2024-12-08T06:13:04.619Z</time>
      </trkpt>
      <trkpt lat="45.96752" lon="3.91916">
        <ele>688</ele>
        <time>2024-12-08T06:13:05.619Z</time>
      </trkpt>
      <trkpt lat="45.96753" lon="3.91917">
        <ele>688</ele>
        <time>2024-12-08T06:13:06.619Z</time>
      </trkpt>
      <trkpt lat="45.96754" lon="3.91917">
        <ele>689</ele>
        <time>2024-12-08T06:13:07.619Z</time>
      </trkpt>
      <trkpt lat="45.96755" lon="3.91918">
        <ele>689</ele>
        <time>2024-12-08T06:13:08.620Z</time>
      </trkpt>
      <trkpt lat="45.96757" lon="3.91919">
        <ele>689</ele>
        <time>2024-12-08T06:13:09.620Z</time>
      </trkpt>
      <trkpt lat="45.96758" lon="3.9192">
        <ele>689</ele>
        <time>2024-12-08T06:13:10.619Z</time>
      </trkpt>
      <trkpt lat="45.96759" lon="3.91921">
        <ele>689</ele>
        <time>2024-12-08T06:13:11.619Z</time>
      </trkpt>
      <trkpt lat="45.9676" lon="3.91922">
        <ele>690</ele>
        <time>2024-12-08T06:13:12.620Z</time>
      </trkpt>
      <trkpt lat="45.96762" lon="3.91923">
        <ele>690</ele>
        <time>2024-12-08T06:13:13.619Z</time>
      </trkpt>
      <trkpt lat="45.96763" lon="3.91924">
        <ele>690</ele>
        <time>2024-12-08T06:13:14.619Z</time>
      </trkpt>
      <trkpt lat="45.96764" lon="3.91924">
        <ele>690</ele>
        <time>2024-12-08T06:13:15.620Z</time>
      </trkpt>
      <trkpt lat="45.96765" lon="3.91925">
        <ele>690</ele>
        <time>2024-12-08T06:13:16.619Z</time>
      </trkpt>
      <trkpt lat="45.96767" lon="3.91926">
        <ele>690</ele>
        <time>2024-12-08T06:13:17.620Z</time>
      </trkpt>
      <trkpt lat="45.96768" lon="3.91927">
        <ele>690</ele>
        <time>2024-12-08T06:13:18.620Z</time>
      </trkpt>
      <trkpt lat="45.96769" lon="3.91927">
        <ele>690</ele>
        <time>2024-12-08T06:13:19.620Z</time>
      </trkpt>
      <trkpt lat="45.96771" lon="3.91928">
        <ele>690</ele>
        <time>2024-12-08T06:13:20.619Z</time>
      </trkpt>
      <trkpt lat="45.96772" lon="3.91928">
        <ele>690</ele>
        <time>2024-12-08T06:13:21.620Z</time>
      </trkpt>
      <trkpt lat="45.96773" lon="3.91929">
        <ele>691</ele>
        <time>2024-12-08T06:13:22.619Z</time>
      </trkpt>
      <trkpt lat="45.96775" lon="3.9193">
        <ele>691</ele>
        <time>2024-12-08T06:13:23.620Z</time>
      </trkpt>
      <trkpt lat="45.96776" lon="3.91931">
        <ele>691</ele>
        <time>2024-12-08T06:13:24.619Z</time>
      </trkpt>
      <trkpt lat="45.96777" lon="3.91931">
        <ele>691</ele>
        <time>2024-12-08T06:13:25.619Z</time>
      </trkpt>
      <trkpt lat="45.96779" lon="3.91932">
        <ele>691</ele>
        <time>2024-12-08T06:13:26.620Z</time>
      </trkpt>
      <trkpt lat="45.9678" lon="3.91933">
        <ele>691</ele>
        <time>2024-12-08T06:13:27.619Z</time>
      </trkpt>
      <trkpt lat="45.96782" lon="3.91934">
        <ele>691</ele>
        <time>2024-12-08T06:13:28.619Z</time>
      </trkpt>
      <trkpt lat="45.96783" lon="3.91935">
        <ele>692</ele>
        <time>2024-12-08T06:13:29.619Z</time>
      </trkpt>
      <trkpt lat="45.96785" lon="3.91936">
        <ele>692</ele>
        <time>2024-12-08T06:13:30.619Z</time>
      </trkpt>
      <trkpt lat="45.96786" lon="3.91937">
        <ele>692</ele>
        <time>2024-12-08T06:13:31.620Z</time>
      </trkpt>
      <trkpt lat="45.96787" lon="3.91938">
        <ele>693</ele>
        <time>2024-12-08T06:13:32.619Z</time>
      </trkpt>
      <trkpt lat="45.96788" lon="3.91938">
        <ele>693</ele>
        <time>2024-12-08T06:13:33.619Z</time>
      </trkpt>
      <trkpt lat="45.9679" lon="3.91939">
        <ele>694</ele>
        <time>2024-12-08T06:13:34.619Z</time>
      </trkpt>
      <trkpt lat="45.96791" lon="3.91939">
        <ele>694</ele>
        <time>2024-12-08T06:13:35.619Z</time>
      </trkpt>
      <trkpt lat="45.96793" lon="3.9194">
        <ele>694</ele>
        <time>2024-12-08T06:13:36.619Z</time>
      </trkpt>
      <trkpt lat="45.96794" lon="3.91941">
        <ele>694</ele>
        <time>2024-12-08T06:13:37.619Z</time>
      </trkpt>
      <trkpt lat="45.96795" lon="3.91942">
        <ele>694</ele>
        <time>2024-12-08T06:13:38.619Z</time>
      </trkpt>
      <trkpt lat="45.96796" lon="3.91942">
        <ele>694</ele>
        <time>2024-12-08T06:13:39.620Z</time>
      </trkpt>
      <trkpt lat="45.96797" lon="3.91943">
        <ele>694</ele>
        <time>2024-12-08T06:13:40.620Z</time>
      </trkpt>
      <trkpt lat="45.96798" lon="3.91943">
        <ele>694</ele>
        <time>2024-12-08T06:13:41.619Z</time>
      </trkpt>
      <trkpt lat="45.968" lon="3.91944">
        <ele>693</ele>
        <time>2024-12-08T06:13:42.620Z</time>
      </trkpt>
      <trkpt lat="45.96801" lon="3.91944">
        <ele>693</ele>
        <time>2024-12-08T06:13:43.619Z</time>
      </trkpt>
      <trkpt lat="45.96802" lon="3.91945">
        <ele>693</ele>
        <time>2024-12-08T06:13:44.619Z</time>
      </trkpt>
      <trkpt lat="45.96803" lon="3.91945">
        <ele>693</ele>
        <time>2024-12-08T06:13:45.619Z</time>
      </trkpt>
      <trkpt lat="45.96804" lon="3.91946">
        <ele>693</ele>
        <time>2024-12-08T06:13:46.620Z</time>
      </trkpt>
      <trkpt lat="45.96805" lon="3.91946">
        <ele>692</ele>
        <time>2024-12-08T06:13:47.619Z</time>
      </trkpt>
      <trkpt lat="45.96807" lon="3.91947">
        <ele>692</ele>
        <time>2024-12-08T06:13:48.619Z</time>
      </trkpt>
      <trkpt lat="45.96809" lon="3.91947">
        <ele>693</ele>
        <time>2024-12-08T06:13:49.619Z</time>
      </trkpt>
      <trkpt lat="45.9681" lon="3.91948">
        <ele>693</ele>
        <time>2024-12-08T06:13:50.620Z</time>
      </trkpt>
      <trkpt lat="45.96811" lon="3.91948">
        <ele>693</ele>
        <time>2024-12-08T06:13:51.619Z</time>
      </trkpt>
      <trkpt lat="45.96812" lon="3.91948">
        <ele>693</ele>
        <time>2024-12-08T06:13:52.620Z</time>
      </trkpt>
      <trkpt lat="45.96814" lon="3.91948">
        <ele>693</ele>
        <time>2024-12-08T06:13:53.620Z</time>
      </trkpt>
      <trkpt lat="45.96815" lon="3.91948">
        <ele>694</ele>
        <time>2024-12-08T06:13:54.619Z</time>
      </trkpt>
      <trkpt lat="45.96816" lon="3.91948">
        <ele>694</ele>
        <time>2024-12-08T06:13:55.619Z</time>
      </trkpt>
      <trkpt lat="45.96817" lon="3.91948">
        <ele>695</ele>
        <time>2024-12-08T06:13:56.620Z</time>
      </trkpt>
      <trkpt lat="45.96819" lon="3.91949">
        <ele>695</ele>
        <time>2024-12-08T06:13:57.620Z</time>
      </trkpt>
      <trkpt lat="45.9682" lon="3.91949">
        <ele>696</ele>
        <time>2024-12-08T06:13:58.619Z</time>
      </trkpt>
      <trkpt lat="45.96822" lon="3.91949">
        <ele>696</ele>
        <time>2024-12-08T06:13:59.619Z</time>
      </trkpt>
      <trkpt lat="45.96823" lon="3.91949">
        <ele>697</ele>
        <time>2024-12-08T06:14:00.619Z</time>
      </trkpt>
      <trkpt lat="45.96824" lon="3.91949">
        <ele>698</ele>
        <time>2024-12-08T06:14:01.620Z</time>
      </trkpt>
      <trkpt lat="45.96825" lon="3.91949">
        <ele>698</ele>
        <time>2024-12-08T06:14:02.619Z</time>
      </trkpt>
      <trkpt lat="45.96827" lon="3.91949">
        <ele>699</ele>
        <time>2024-12-08T06:14:03.620Z</time>
      </trkpt>
      <trkpt lat="45.96829" lon="3.91949">
        <ele>700</ele>
        <time>2024-12-08T06:14:04.619Z</time>
      </trkpt>
      <trkpt lat="45.9683" lon="3.91949">
        <ele>701</ele>
        <time>2024-12-08T06:14:05.619Z</time>
      </trkpt>
      <trkpt lat="45.96832" lon="3.91949">
        <ele>702</ele>
        <time>2024-12-08T06:14:06.620Z</time>
      </trkpt>
      <trkpt lat="45.96833" lon="3.91949">
        <ele>702</ele>
        <time>2024-12-08T06:14:07.620Z</time>
      </trkpt>
      <trkpt lat="45.96834" lon="3.91949">
        <ele>701</ele>
        <time>2024-12-08T06:14:08.619Z</time>
      </trkpt>
      <trkpt lat="45.96836" lon="3.91949">
        <ele>701</ele>
        <time>2024-12-08T06:14:09.620Z</time>
      </trkpt>
      <trkpt lat="45.96837" lon="3.91949">
        <ele>701</ele>
        <time>2024-12-08T06:14:10.620Z</time>
      </trkpt>
      <trkpt lat="45.96838" lon="3.91949">
        <ele>701</ele>
        <time>2024-12-08T06:14:11.619Z</time>
      </trkpt>
      <trkpt lat="45.96839" lon="3.91949">
        <ele>701</ele>
        <time>2024-12-08T06:14:12.620Z</time>
      </trkpt>
      <trkpt lat="45.9684" lon="3.9195">
        <ele>701</ele>
        <time>2024-12-08T06:14:13.619Z</time>
      </trkpt>
      <trkpt lat="45.96841" lon="3.9195">
        <ele>700</ele>
        <time>2024-12-08T06:14:14.619Z</time>
      </trkpt>
      <trkpt lat="45.96842" lon="3.9195">
        <ele>700</ele>
        <time>2024-12-08T06:14:15.619Z</time>
      </trkpt>
      <trkpt lat="45.96844" lon="3.9195">
        <ele>700</ele>
        <time>2024-12-08T06:14:16.619Z</time>
      </trkpt>
      <trkpt lat="45.96845" lon="3.91949">
        <ele>700</ele>
        <time>2024-12-08T06:14:17.620Z</time>
      </trkpt>
      <trkpt lat="45.96846" lon="3.91949">
        <ele>700</ele>
        <time>2024-12-08T06:14:18.619Z</time>
      </trkpt>
      <trkpt lat="45.96848" lon="3.91949">
        <ele>700</ele>
        <time>2024-12-08T06:14:19.620Z</time>
      </trkpt>
      <trkpt lat="45.96849" lon="3.91949">
        <ele>701</ele>
        <time>2024-12-08T06:14:20.620Z</time>
      </trkpt>
      <trkpt lat="45.9685" lon="3.91949">
        <ele>701</ele>
        <time>2024-12-08T06:14:21.620Z</time>
      </trkpt>
      <trkpt lat="45.96851" lon="3.91949">
        <ele>701</ele>
        <time>2024-12-08T06:14:22.619Z</time>
      </trkpt>
      <trkpt lat="45.96852" lon="3.91949">
        <ele>702</ele>
        <time>2024-12-08T06:14:23.620Z</time>
      </trkpt>
      <trkpt lat="45.96853" lon="3.91949">
        <ele>702</ele>
        <time>2024-12-08T06:14:24.620Z</time>
      </trkpt>
      <trkpt lat="45.96854" lon="3.91949">
        <ele>702</ele>
        <time>2024-12-08T06:14:25.620Z</time>
      </trkpt>
      <trkpt lat="45.96855" lon="3.91949">
        <ele>703</ele>
        <time>2024-12-08T06:14:26.620Z</time>
      </trkpt>
      <trkpt lat="45.96856" lon="3.91948">
        <ele>703</ele>
        <time>2024-12-08T06:14:27.619Z</time>
      </trkpt>
      <trkpt lat="45.96858" lon="3.91948">
        <ele>703</ele>
        <time>2024-12-08T06:14:28.619Z</time>
      </trkpt>
      <trkpt lat="45.96859" lon="3.91948">
        <ele>704</ele>
        <time>2024-12-08T06:14:29.620Z</time>
      </trkpt>
      <trkpt lat="45.9686" lon="3.91948">
        <ele>704</ele>
        <time>2024-12-08T06:14:30.619Z</time>
      </trkpt>
      <trkpt lat="45.96862" lon="3.91948">
        <ele>705</ele>
        <time>2024-12-08T06:14:31.620Z</time>
      </trkpt>
      <trkpt lat="45.96863" lon="3.91948">
        <ele>705</ele>
        <time>2024-12-08T06:14:32.619Z</time>
      </trkpt>
      <trkpt lat="45.96864" lon="3.91948">
        <ele>705</ele>
        <time>2024-12-08T06:14:33.620Z</time>
      </trkpt>
      <trkpt lat="45.96865" lon="3.91948">
        <ele>705</ele>
        <time>2024-12-08T06:14:34.620Z</time>
      </trkpt>
      <trkpt lat="45.96866" lon="3.91948">
        <ele>705</ele>
        <time>2024-12-08T06:14:35.620Z</time>
      </trkpt>
      <trkpt lat="45.96868" lon="3.91948">
        <ele>705</ele>
        <time>2024-12-08T06:14:36.619Z</time>
      </trkpt>
      <trkpt lat="45.96869" lon="3.91949">
        <ele>705</ele>
        <time>2024-12-08T06:14:37.620Z</time>
      </trkpt>
      <trkpt lat="45.9687" lon="3.91949">
        <ele>705</ele>
        <time>2024-12-08T06:14:38.620Z</time>
      </trkpt>
      <trkpt lat="45.96871" lon="3.91949">
        <ele>705</ele>
        <time>2024-12-08T06:14:39.620Z</time>
      </trkpt>
      <trkpt lat="45.96872" lon="3.91949">
        <ele>706</ele>
        <time>2024-12-08T06:14:40.620Z</time>
      </trkpt>
      <trkpt lat="45.96874" lon="3.91949">
        <ele>706</ele>
        <time>2024-12-08T06:14:41.620Z</time>
      </trkpt>
      <trkpt lat="45.96875" lon="3.91949">
        <ele>706</ele>
        <time>2024-12-08T06:14:42.620Z</time>
      </trkpt>
      <trkpt lat="45.96877" lon="3.91949">
        <ele>706</ele>
        <time>2024-12-08T06:14:43.619Z</time>
      </trkpt>
      <trkpt lat="45.96878" lon="3.9195">
        <ele>706</ele>
        <time>2024-12-08T06:14:44.619Z</time>
      </trkpt>
      <trkpt lat="45.96879" lon="3.9195">
        <ele>707</ele>
        <time>2024-12-08T06:14:45.620Z</time>
      </trkpt>
      <trkpt lat="45.9688" lon="3.9195">
        <ele>707</ele>
        <time>2024-12-08T06:14:46.620Z</time>
      </trkpt>
      <trkpt lat="45.96881" lon="3.9195">
        <ele>707</ele>
        <time>2024-12-08T06:14:47.619Z</time>
      </trkpt>
      <trkpt lat="45.96882" lon="3.91949">
        <ele>708</ele>
        <time>2024-12-08T06:14:48.620Z</time>
      </trkpt>
      <trkpt lat="45.96883" lon="3.91949">
        <ele>708</ele>
        <time>2024-12-08T06:14:49.619Z</time>
      </trkpt>
      <trkpt lat="45.96884" lon="3.91949">
        <ele>708</ele>
        <time>2024-12-08T06:14:50.620Z</time>
      </trkpt>
      <trkpt lat="45.96886" lon="3.91949">
        <ele>708</ele>
        <time>2024-12-08T06:14:51.620Z</time>
      </trkpt>
      <trkpt lat="45.96887" lon="3.91949">
        <ele>708</ele>
        <time>2024-12-08T06:14:52.619Z</time>
      </trkpt>
      <trkpt lat="45.96888" lon="3.91949">
        <ele>709</ele>
        <time>2024-12-08T06:14:53.620Z</time>
      </trkpt>
      <trkpt lat="45.96889" lon="3.9195">
        <ele>709</ele>
        <time>2024-12-08T06:14:54.619Z</time>
      </trkpt>
      <trkpt lat="45.9689" lon="3.9195">
        <ele>709</ele>
        <time>2024-12-08T06:14:55.619Z</time>
      </trkpt>
      <trkpt lat="45.96892" lon="3.9195">
        <ele>710</ele>
        <time>2024-12-08T06:14:56.620Z</time>
      </trkpt>
      <trkpt lat="45.96893" lon="3.91951">
        <ele>710</ele>
        <time>2024-12-08T06:14:57.619Z</time>
      </trkpt>
      <trkpt lat="45.96894" lon="3.91952">
        <ele>710</ele>
        <time>2024-12-08T06:14:58.620Z</time>
      </trkpt>
      <trkpt lat="45.96895" lon="3.91952">
        <ele>710</ele>
        <time>2024-12-08T06:14:59.619Z</time>
      </trkpt>
      <trkpt lat="45.96896" lon="3.91952">
        <ele>711</ele>
        <time>2024-12-08T06:15:00.620Z</time>
      </trkpt>
      <trkpt lat="45.96898" lon="3.91952">
        <ele>711</ele>
        <time>2024-12-08T06:15:01.620Z</time>
      </trkpt>
      <trkpt lat="45.96899" lon="3.91952">
        <ele>712</ele>
        <time>2024-12-08T06:15:02.619Z</time>
      </trkpt>
      <trkpt lat="45.969" lon="3.91952">
        <ele>712</ele>
        <time>2024-12-08T06:15:03.620Z</time>
      </trkpt>
      <trkpt lat="45.96901" lon="3.91953">
        <ele>713</ele>
        <time>2024-12-08T06:15:04.619Z</time>
      </trkpt>
      <trkpt lat="45.96903" lon="3.91952">
        <ele>713</ele>
        <time>2024-12-08T06:15:05.619Z</time>
      </trkpt>
      <trkpt lat="45.96904" lon="3.91952">
        <ele>713</ele>
        <time>2024-12-08T06:15:06.619Z</time>
      </trkpt>
      <trkpt lat="45.96905" lon="3.91952">
        <ele>713</ele>
        <time>2024-12-08T06:15:07.620Z</time>
      </trkpt>
      <trkpt lat="45.96907" lon="3.91952">
        <ele>713</ele>
        <time>2024-12-08T06:15:08.620Z</time>
      </trkpt>
      <trkpt lat="45.96908" lon="3.91953">
        <ele>714</ele>
        <time>2024-12-08T06:15:09.619Z</time>
      </trkpt>
      <trkpt lat="45.96909" lon="3.91953">
        <ele>714</ele>
        <time>2024-12-08T06:15:10.619Z</time>
      </trkpt>
      <trkpt lat="45.9691" lon="3.91953">
        <ele>714</ele>
        <time>2024-12-08T06:15:11.620Z</time>
      </trkpt>
      <trkpt lat="45.96911" lon="3.91953">
        <ele>714</ele>
        <time>2024-12-08T06:15:12.619Z</time>
      </trkpt>
      <trkpt lat="45.96912" lon="3.91954">
        <ele>714</ele>
        <time>2024-12-08T06:15:13.620Z</time>
      </trkpt>
      <trkpt lat="45.96913" lon="3.91954">
        <ele>714</ele>
        <time>2024-12-08T06:15:14.620Z</time>
      </trkpt>
      <trkpt lat="45.96914" lon="3.91954">
        <ele>714</ele>
        <time>2024-12-08T06:15:15.620Z</time>
      </trkpt>
      <trkpt lat="45.96915" lon="3.91955">
        <ele>714</ele>
        <time>2024-12-08T06:15:16.619Z</time>
      </trkpt>
      <trkpt lat="45.96917" lon="3.91955">
        <ele>714</ele>
        <time>2024-12-08T06:15:17.620Z</time>
      </trkpt>
      <trkpt lat="45.96919" lon="3.91955">
        <ele>714</ele>
        <time>2024-12-08T06:15:18.619Z</time>
      </trkpt>
      <trkpt lat="45.9692" lon="3.91956">
        <ele>714</ele>
        <time>2024-12-08T06:15:19.619Z</time>
      </trkpt>
      <trkpt lat="45.96922" lon="3.91956">
        <ele>714</ele>
        <time>2024-12-08T06:15:20.619Z</time>
      </trkpt>
      <trkpt lat="45.96923" lon="3.91956">
        <ele>715</ele>
        <time>2024-12-08T06:15:21.620Z</time>
      </trkpt>
      <trkpt lat="45.96924" lon="3.91957">
        <ele>715</ele>
        <time>2024-12-08T06:15:22.619Z</time>
      </trkpt>
      <trkpt lat="45.96924" lon="3.91957">
        <ele>715</ele>
        <time>2024-12-08T06:15:23.619Z</time>
      </trkpt>
      <trkpt lat="45.96926" lon="3.91958">
        <ele>715</ele>
        <time>2024-12-08T06:15:24.619Z</time>
      </trkpt>
      <trkpt lat="45.96928" lon="3.91959">
        <ele>716</ele>
        <time>2024-12-08T06:15:25.619Z</time>
      </trkpt>
      <trkpt lat="45.9693" lon="3.91959">
        <ele>716</ele>
        <time>2024-12-08T06:15:26.620Z</time>
      </trkpt>
      <trkpt lat="45.96931" lon="3.9196">
        <ele>716</ele>
        <time>2024-12-08T06:15:27.619Z</time>
      </trkpt>
      <trkpt lat="45.96932" lon="3.9196">
        <ele>717</ele>
        <time>2024-12-08T06:15:28.620Z</time>
      </trkpt>
      <trkpt lat="45.96933" lon="3.9196">
        <ele>717</ele>
        <time>2024-12-08T06:15:29.620Z</time>
      </trkpt>
      <trkpt lat="45.96934" lon="3.9196">
        <ele>717</ele>
        <time>2024-12-08T06:15:30.620Z</time>
      </trkpt>
      <trkpt lat="45.96936" lon="3.91959">
        <ele>717</ele>
        <time>2024-12-08T06:15:31.620Z</time>
      </trkpt>
      <trkpt lat="45.96937" lon="3.91958">
        <ele>717</ele>
        <time>2024-12-08T06:15:32.619Z</time>
      </trkpt>
      <trkpt lat="45.96939" lon="3.9196">
        <ele>718</ele>
        <time>2024-12-08T06:15:33.619Z</time>
      </trkpt>
      <trkpt lat="45.9694" lon="3.91961">
        <ele>718</ele>
        <time>2024-12-08T06:15:34.620Z</time>
      </trkpt>
      <trkpt lat="45.96941" lon="3.91961">
        <ele>718</ele>
        <time>2024-12-08T06:15:35.619Z</time>
      </trkpt>
      <trkpt lat="45.96942" lon="3.91962">
        <ele>718</ele>
        <time>2024-12-08T06:15:36.620Z</time>
      </trkpt>
      <trkpt lat="45.96943" lon="3.91962">
        <ele>718</ele>
        <time>2024-12-08T06:15:37.620Z</time>
      </trkpt>
      <trkpt lat="45.96944" lon="3.91962">
        <ele>718</ele>
        <time>2024-12-08T06:15:38.620Z</time>
      </trkpt>
      <trkpt lat="45.96945" lon="3.91962">
        <ele>718</ele>
        <time>2024-12-08T06:15:39.619Z</time>
      </trkpt>
      <trkpt lat="45.96947" lon="3.91963">
        <ele>718</ele>
        <time>2024-12-08T06:15:40.620Z</time>
      </trkpt>
      <trkpt lat="45.96949" lon="3.91964">
        <ele>718</ele>
        <time>2024-12-08T06:15:41.619Z</time>
      </trkpt>
      <trkpt lat="45.9695" lon="3.91965">
        <ele>718</ele>
        <time>2024-12-08T06:15:42.619Z</time>
      </trkpt>
      <trkpt lat="45.96951" lon="3.91966">
        <ele>718</ele>
        <time>2024-12-08T06:15:43.620Z</time>
      </trkpt>
      <trkpt lat="45.96953" lon="3.91966">
        <ele>718</ele>
        <time>2024-12-08T06:15:44.619Z</time>
      </trkpt>
      <trkpt lat="45.96953" lon="3.91967">
        <ele>718</ele>
        <time>2024-12-08T06:15:45.619Z</time>
      </trkpt>
      <trkpt lat="45.96954" lon="3.91968">
        <ele>717</ele>
        <time>2024-12-08T06:15:46.620Z</time>
      </trkpt>
      <trkpt lat="45.96955" lon="3.91969">
        <ele>717</ele>
        <time>2024-12-08T06:15:47.620Z</time>
      </trkpt>
      <trkpt lat="45.96956" lon="3.91969">
        <ele>717</ele>
        <time>2024-12-08T06:15:48.620Z</time>
      </trkpt>
      <trkpt lat="45.96957" lon="3.9197">
        <ele>717</ele>
        <time>2024-12-08T06:15:49.619Z</time>
      </trkpt>
      <trkpt lat="45.96958" lon="3.9197">
        <ele>717</ele>
        <time>2024-12-08T06:15:50.619Z</time>
      </trkpt>
      <trkpt lat="45.96959" lon="3.91971">
        <ele>717</ele>
        <time>2024-12-08T06:15:51.620Z</time>
      </trkpt>
      <trkpt lat="45.9696" lon="3.91971">
        <ele>717</ele>
        <time>2024-12-08T06:15:52.620Z</time>
      </trkpt>
      <trkpt lat="45.96961" lon="3.91972">
        <ele>717</ele>
        <time>2024-12-08T06:15:53.620Z</time>
      </trkpt>
      <trkpt lat="45.96962" lon="3.91972">
        <ele>717</ele>
        <time>2024-12-08T06:15:54.619Z</time>
      </trkpt>
      <trkpt lat="45.96964" lon="3.91973">
        <ele>718</ele>
        <time>2024-12-08T06:15:55.619Z</time>
      </trkpt>
      <trkpt lat="45.96965" lon="3.91973">
        <ele>718</ele>
        <time>2024-12-08T06:15:56.619Z</time>
      </trkpt>
      <trkpt lat="45.96966" lon="3.91974">
        <ele>718</ele>
        <time>2024-12-08T06:15:57.619Z</time>
      </trkpt>
      <trkpt lat="45.96967" lon="3.91974">
        <ele>718</ele>
        <time>2024-12-08T06:15:58.620Z</time>
      </trkpt>
      <trkpt lat="45.96968" lon="3.91975">
        <ele>718</ele>
        <time>2024-12-08T06:15:59.619Z</time>
      </trkpt>
      <trkpt lat="45.9697" lon="3.91976">
        <ele>719</ele>
        <time>2024-12-08T06:16:00.620Z</time>
      </trkpt>
      <trkpt lat="45.96971" lon="3.91976">
        <ele>719</ele>
        <time>2024-12-08T06:16:01.620Z</time>
      </trkpt>
      <trkpt lat="45.96972" lon="3.91977">
        <ele>719</ele>
        <time>2024-12-08T06:16:02.619Z</time>
      </trkpt>
      <trkpt lat="45.96973" lon="3.91978">
        <ele>719</ele>
        <time>2024-12-08T06:16:03.620Z</time>
      </trkpt>
      <trkpt lat="45.96974" lon="3.91978">
        <ele>720</ele>
        <time>2024-12-08T06:16:04.620Z</time>
      </trkpt>
      <trkpt lat="45.96976" lon="3.91979">
        <ele>720</ele>
        <time>2024-12-08T06:16:05.620Z</time>
      </trkpt>
      <trkpt lat="45.96977" lon="3.9198">
        <ele>721</ele>
        <time>2024-12-08T06:16:06.619Z</time>
      </trkpt>
      <trkpt lat="45.96978" lon="3.9198">
        <ele>720</ele>
        <time>2024-12-08T06:16:07.620Z</time>
      </trkpt>
      <trkpt lat="45.96978" lon="3.91981">
        <ele>720</ele>
        <time>2024-12-08T06:16:08.620Z</time>
      </trkpt>
      <trkpt lat="45.96979" lon="3.91981">
        <ele>720</ele>
        <time>2024-12-08T06:16:09.619Z</time>
      </trkpt>
      <trkpt lat="45.9698" lon="3.91982">
        <ele>720</ele>
        <time>2024-12-08T06:16:10.619Z</time>
      </trkpt>
      <trkpt lat="45.96982" lon="3.91982">
        <ele>720</ele>
        <time>2024-12-08T06:16:11.620Z</time>
      </trkpt>
      <trkpt lat="45.96983" lon="3.91983">
        <ele>720</ele>
        <time>2024-12-08T06:16:12.620Z</time>
      </trkpt>
      <trkpt lat="45.96984" lon="3.91984">
        <ele>721</ele>
        <time>2024-12-08T06:16:13.619Z</time>
      </trkpt>
      <trkpt lat="45.96985" lon="3.91984">
        <ele>721</ele>
        <time>2024-12-08T06:16:14.620Z</time>
      </trkpt>
      <trkpt lat="45.96986" lon="3.91985">
        <ele>721</ele>
        <time>2024-12-08T06:16:15.620Z</time>
      </trkpt>
      <trkpt lat="45.96987" lon="3.91986">
        <ele>721</ele>
        <time>2024-12-08T06:16:16.620Z</time>
      </trkpt>
      <trkpt lat="45.96988" lon="3.91986">
        <ele>721</ele>
        <time>2024-12-08T06:16:17.619Z</time>
      </trkpt>
      <trkpt lat="45.96988" lon="3.91987">
        <ele>721</ele>
        <time>2024-12-08T06:16:18.620Z</time>
      </trkpt>
      <trkpt lat="45.96989" lon="3.91988">
        <ele>722</ele>
        <time>2024-12-08T06:16:19.619Z</time>
      </trkpt>
      <trkpt lat="45.9699" lon="3.91989">
        <ele>722</ele>
        <time>2024-12-08T06:16:20.620Z</time>
      </trkpt>
      <trkpt lat="45.96991" lon="3.9199">
        <ele>722</ele>
        <time>2024-12-08T06:16:21.619Z</time>
      </trkpt>
      <trkpt lat="45.96992" lon="3.91991">
        <ele>722</ele>
        <time>2024-12-08T06:16:22.620Z</time>
      </trkpt>
      <trkpt lat="45.96994" lon="3.91992">
        <ele>723</ele>
        <time>2024-12-08T06:16:23.620Z</time>
      </trkpt>
      <trkpt lat="45.96995" lon="3.91992">
        <ele>723</ele>
        <time>2024-12-08T06:16:24.620Z</time>
      </trkpt>
      <trkpt lat="45.96997" lon="3.91993">
        <ele>724</ele>
        <time>2024-12-08T06:16:25.619Z</time>
      </trkpt>
      <trkpt lat="45.96998" lon="3.91994">
        <ele>724</ele>
        <time>2024-12-08T06:16:26.620Z</time>
      </trkpt>
      <trkpt lat="45.96999" lon="3.91994">
        <ele>724</ele>
        <time>2024-12-08T06:16:27.620Z</time>
      </trkpt>
      <trkpt lat="45.97" lon="3.91995">
        <ele>724</ele>
        <time>2024-12-08T06:16:28.619Z</time>
      </trkpt>
      <trkpt lat="45.97001" lon="3.91997">
        <ele>724</ele>
        <time>2024-12-08T06:16:29.619Z</time>
      </trkpt>
      <trkpt lat="45.97002" lon="3.91997">
        <ele>725</ele>
        <time>2024-12-08T06:16:30.619Z</time>
      </trkpt>
      <trkpt lat="45.97003" lon="3.91998">
        <ele>725</ele>
        <time>2024-12-08T06:16:31.620Z</time>
      </trkpt>
      <trkpt lat="45.97005" lon="3.91999">
        <ele>725</ele>
        <time>2024-12-08T06:16:32.620Z</time>
      </trkpt>
      <trkpt lat="45.97007" lon="3.92001">
        <ele>725</ele>
        <time>2024-12-08T06:16:33.620Z</time>
      </trkpt>
      <trkpt lat="45.97009" lon="3.92002">
        <ele>724</ele>
        <time>2024-12-08T06:16:34.620Z</time>
      </trkpt>
      <trkpt lat="45.9701" lon="3.92003">
        <ele>724</ele>
        <time>2024-12-08T06:16:35.619Z</time>
      </trkpt>
      <trkpt lat="45.97011" lon="3.92003">
        <ele>724</ele>
        <time>2024-12-08T06:16:36.619Z</time>
      </trkpt>
      <trkpt lat="45.97013" lon="3.92004">
        <ele>724</ele>
        <time>2024-12-08T06:16:37.620Z</time>
      </trkpt>
      <trkpt lat="45.97013" lon="3.92005">
        <ele>724</ele>
        <time>2024-12-08T06:16:38.620Z</time>
      </trkpt>
      <trkpt lat="45.97014" lon="3.92006">
        <ele>724</ele>
        <time>2024-12-08T06:16:39.619Z</time>
      </trkpt>
      <trkpt lat="45.97015" lon="3.92007">
        <ele>725</ele>
        <time>2024-12-08T06:16:40.620Z</time>
      </trkpt>
      <trkpt lat="45.97016" lon="3.92007">
        <ele>725</ele>
        <time>2024-12-08T06:16:41.620Z</time>
      </trkpt>
      <trkpt lat="45.97017" lon="3.92008">
        <ele>725</ele>
        <time>2024-12-08T06:16:42.619Z</time>
      </trkpt>
      <trkpt lat="45.97018" lon="3.92009">
        <ele>725</ele>
        <time>2024-12-08T06:16:43.620Z</time>
      </trkpt>
      <trkpt lat="45.97019" lon="3.9201">
        <ele>726</ele>
        <time>2024-12-08T06:16:44.620Z</time>
      </trkpt>
      <trkpt lat="45.97019" lon="3.92011">
        <ele>726</ele>
        <time>2024-12-08T06:16:45.620Z</time>
      </trkpt>
      <trkpt lat="45.9702" lon="3.92011">
        <ele>726</ele>
        <time>2024-12-08T06:16:46.620Z</time>
      </trkpt>
      <trkpt lat="45.97021" lon="3.92013">
        <ele>726</ele>
        <time>2024-12-08T06:16:47.620Z</time>
      </trkpt>
      <trkpt lat="45.97022" lon="3.92013">
        <ele>726</ele>
        <time>2024-12-08T06:16:48.619Z</time>
      </trkpt>
      <trkpt lat="45.97023" lon="3.92014">
        <ele>727</ele>
        <time>2024-12-08T06:16:49.619Z</time>
      </trkpt>
      <trkpt lat="45.97024" lon="3.92015">
        <ele>727</ele>
        <time>2024-12-08T06:16:50.619Z</time>
      </trkpt>
      <trkpt lat="45.97024" lon="3.92016">
        <ele>728</ele>
        <time>2024-12-08T06:16:51.619Z</time>
      </trkpt>
      <trkpt lat="45.97026" lon="3.92016">
        <ele>728</ele>
        <time>2024-12-08T06:16:52.620Z</time>
      </trkpt>
      <trkpt lat="45.97027" lon="3.92017">
        <ele>729</ele>
        <time>2024-12-08T06:16:53.619Z</time>
      </trkpt>
      <trkpt lat="45.97028" lon="3.92018">
        <ele>729</ele>
        <time>2024-12-08T06:16:54.619Z</time>
      </trkpt>
      <trkpt lat="45.97029" lon="3.92019">
        <ele>730</ele>
        <time>2024-12-08T06:16:55.619Z</time>
      </trkpt>
      <trkpt lat="45.97031" lon="3.9202">
        <ele>731</ele>
        <time>2024-12-08T06:16:56.620Z</time>
      </trkpt>
      <trkpt lat="45.97032" lon="3.92021">
        <ele>732</ele>
        <time>2024-12-08T06:16:57.619Z</time>
      </trkpt>
      <trkpt lat="45.97033" lon="3.92022">
        <ele>732</ele>
        <time>2024-12-08T06:16:58.619Z</time>
      </trkpt>
      <trkpt lat="45.97034" lon="3.92023">
        <ele>731</ele>
        <time>2024-12-08T06:16:59.619Z</time>
      </trkpt>
      <trkpt lat="45.97035" lon="3.92024">
        <ele>731</ele>
        <time>2024-12-08T06:17:00.619Z</time>
      </trkpt>
      <trkpt lat="45.97037" lon="3.92025">
        <ele>731</ele>
        <time>2024-12-08T06:17:01.619Z</time>
      </trkpt>
      <trkpt lat="45.97038" lon="3.92026">
        <ele>731</ele>
        <time>2024-12-08T06:17:02.619Z</time>
      </trkpt>
      <trkpt lat="45.97039" lon="3.92027">
        <ele>731</ele>
        <time>2024-12-08T06:17:03.619Z</time>
      </trkpt>
      <trkpt lat="45.97041" lon="3.92028">
        <ele>731</ele>
        <time>2024-12-08T06:17:04.620Z</time>
      </trkpt>
      <trkpt lat="45.97042" lon="3.9203">
        <ele>731</ele>
        <time>2024-12-08T06:17:05.620Z</time>
      </trkpt>
      <trkpt lat="45.97043" lon="3.92031">
        <ele>731</ele>
        <time>2024-12-08T06:17:06.619Z</time>
      </trkpt>
      <trkpt lat="45.97044" lon="3.92032">
        <ele>731</ele>
        <time>2024-12-08T06:17:07.620Z</time>
      </trkpt>
      <trkpt lat="45.97045" lon="3.92033">
        <ele>731</ele>
        <time>2024-12-08T06:17:08.620Z</time>
      </trkpt>
      <trkpt lat="45.97046" lon="3.92034">
        <ele>731</ele>
        <time>2024-12-08T06:17:09.619Z</time>
      </trkpt>
      <trkpt lat="45.97047" lon="3.92035">
        <ele>731</ele>
        <time>2024-12-08T06:17:10.619Z</time>
      </trkpt>
      <trkpt lat="45.97048" lon="3.92037">
        <ele>731</ele>
        <time>2024-12-08T06:17:11.620Z</time>
      </trkpt>
      <trkpt lat="45.9705" lon="3.92038">
        <ele>731</ele>
        <time>2024-12-08T06:17:12.620Z</time>
      </trkpt>
      <trkpt lat="45.97051" lon="3.92039">
        <ele>731</ele>
        <time>2024-12-08T06:17:13.620Z</time>
      </trkpt>
      <trkpt lat="45.97052" lon="3.9204">
        <ele>731</ele>
        <time>2024-12-08T06:17:14.619Z</time>
      </trkpt>
      <trkpt lat="45.97053" lon="3.92041">
        <ele>731</ele>
        <time>2024-12-08T06:17:15.619Z</time>
      </trkpt>
      <trkpt lat="45.97054" lon="3.92041">
        <ele>731</ele>
        <time>2024-12-08T06:17:16.620Z</time>
      </trkpt>
      <trkpt lat="45.97055" lon="3.92042">
        <ele>731</ele>
        <time>2024-12-08T06:17:17.619Z</time>
      </trkpt>
      <trkpt lat="45.97056" lon="3.92043">
        <ele>731</ele>
        <time>2024-12-08T06:17:18.620Z</time>
      </trkpt>
      <trkpt lat="45.97058" lon="3.92044">
        <ele>731</ele>
        <time>2024-12-08T06:17:19.619Z</time>
      </trkpt>
      <trkpt lat="45.97058" lon="3.92045">
        <ele>731</ele>
        <time>2024-12-08T06:17:20.620Z</time>
      </trkpt>
      <trkpt lat="45.97059" lon="3.92046">
        <ele>731</ele>
        <time>2024-12-08T06:17:21.620Z</time>
      </trkpt>
      <trkpt lat="45.9706" lon="3.92047">
        <ele>731</ele>
        <time>2024-12-08T06:17:22.620Z</time>
      </trkpt>
      <trkpt lat="45.97061" lon="3.92048">
        <ele>730</ele>
        <time>2024-12-08T06:17:23.620Z</time>
      </trkpt>
      <trkpt lat="45.97062" lon="3.9205">
        <ele>730</ele>
        <time>2024-12-08T06:17:24.620Z</time>
      </trkpt>
      <trkpt lat="45.97063" lon="3.92051">
        <ele>730</ele>
        <time>2024-12-08T06:17:25.620Z</time>
      </trkpt>
      <trkpt lat="45.97064" lon="3.92052">
        <ele>730</ele>
        <time>2024-12-08T06:17:26.619Z</time>
      </trkpt>
      <trkpt lat="45.97065" lon="3.92053">
        <ele>730</ele>
        <time>2024-12-08T06:17:27.620Z</time>
      </trkpt>
      <trkpt lat="45.97066" lon="3.92054">
        <ele>729</ele>
        <time>2024-12-08T06:17:28.619Z</time>
      </trkpt>
      <trkpt lat="45.97068" lon="3.92055">
        <ele>729</ele>
        <time>2024-12-08T06:17:29.619Z</time>
      </trkpt>
      <trkpt lat="45.97069" lon="3.92055">
        <ele>729</ele>
        <time>2024-12-08T06:17:30.619Z</time>
      </trkpt>
      <trkpt lat="45.97071" lon="3.92056">
        <ele>729</ele>
        <time>2024-12-08T06:17:31.619Z</time>
      </trkpt>
      <trkpt lat="45.97072" lon="3.92057">
        <ele>730</ele>
        <time>2024-12-08T06:17:32.620Z</time>
      </trkpt>
      <trkpt lat="45.97073" lon="3.92058">
        <ele>730</ele>
        <time>2024-12-08T06:17:33.619Z</time>
      </trkpt>
      <trkpt lat="45.97074" lon="3.92059">
        <ele>730</ele>
        <time>2024-12-08T06:17:34.619Z</time>
      </trkpt>
      <trkpt lat="45.97076" lon="3.9206">
        <ele>730</ele>
        <time>2024-12-08T06:17:35.620Z</time>
      </trkpt>
      <trkpt lat="45.97077" lon="3.92061">
        <ele>730</ele>
        <time>2024-12-08T06:17:36.620Z</time>
      </trkpt>
      <trkpt lat="45.97078" lon="3.92062">
        <ele>730</ele>
        <time>2024-12-08T06:17:37.620Z</time>
      </trkpt>
      <trkpt lat="45.97079" lon="3.92063">
        <ele>730</ele>
        <time>2024-12-08T06:17:38.619Z</time>
      </trkpt>
      <trkpt lat="45.97081" lon="3.92064">
        <ele>731</ele>
        <time>2024-12-08T06:17:39.620Z</time>
      </trkpt>
      <trkpt lat="45.97082" lon="3.92065">
        <ele>731</ele>
        <time>2024-12-08T06:17:40.620Z</time>
      </trkpt>
      <trkpt lat="45.97083" lon="3.92066">
        <ele>730</ele>
        <time>2024-12-08T06:17:41.620Z</time>
      </trkpt>
      <trkpt lat="45.97084" lon="3.92067">
        <ele>730</ele>
        <time>2024-12-08T06:17:42.620Z</time>
      </trkpt>
      <trkpt lat="45.97086" lon="3.92068">
        <ele>730</ele>
        <time>2024-12-08T06:17:43.620Z</time>
      </trkpt>
      <trkpt lat="45.97087" lon="3.92069">
        <ele>730</ele>
        <time>2024-12-08T06:17:44.619Z</time>
      </trkpt>
      <trkpt lat="45.97088" lon="3.9207">
        <ele>730</ele>
        <time>2024-12-08T06:17:45.619Z</time>
      </trkpt>
      <trkpt lat="45.97089" lon="3.92071">
        <ele>731</ele>
        <time>2024-12-08T06:17:46.620Z</time>
      </trkpt>
      <trkpt lat="45.9709" lon="3.92072">
        <ele>731</ele>
        <time>2024-12-08T06:17:47.620Z</time>
      </trkpt>
      <trkpt lat="45.97091" lon="3.92073">
        <ele>730</ele>
        <time>2024-12-08T06:17:48.620Z</time>
      </trkpt>
      <trkpt lat="45.97092" lon="3.92074">
        <ele>730</ele>
        <time>2024-12-08T06:17:49.620Z</time>
      </trkpt>
      <trkpt lat="45.97094" lon="3.92075">
        <ele>730</ele>
        <time>2024-12-08T06:17:50.620Z</time>
      </trkpt>
      <trkpt lat="45.97095" lon="3.92076">
        <ele>730</ele>
        <time>2024-12-08T06:17:51.619Z</time>
      </trkpt>
      <trkpt lat="45.97096" lon="3.92077">
        <ele>730</ele>
        <time>2024-12-08T06:17:52.620Z</time>
      </trkpt>
      <trkpt lat="45.97097" lon="3.92078">
        <ele>731</ele>
        <time>2024-12-08T06:17:53.620Z</time>
      </trkpt>
      <trkpt lat="45.97098" lon="3.9208">
        <ele>731</ele>
        <time>2024-12-08T06:17:54.620Z</time>
      </trkpt>
      <trkpt lat="45.97099" lon="3.92081">
        <ele>731</ele>
        <time>2024-12-08T06:17:55.619Z</time>
      </trkpt>
      <trkpt lat="45.97101" lon="3.92082">
        <ele>732</ele>
        <time>2024-12-08T06:17:56.619Z</time>
      </trkpt>
      <trkpt lat="45.97102" lon="3.92084">
        <ele>732</ele>
        <time>2024-12-08T06:17:57.620Z</time>
      </trkpt>
      <trkpt lat="45.97103" lon="3.92085">
        <ele>733</ele>
        <time>2024-12-08T06:17:58.619Z</time>
      </trkpt>
      <trkpt lat="45.97104" lon="3.92086">
        <ele>733</ele>
        <time>2024-12-08T06:17:59.620Z</time>
      </trkpt>
      <trkpt lat="45.97105" lon="3.92087">
        <ele>733</ele>
        <time>2024-12-08T06:18:00.619Z</time>
      </trkpt>
      <trkpt lat="45.97106" lon="3.92089">
        <ele>733</ele>
        <time>2024-12-08T06:18:01.619Z</time>
      </trkpt>
      <trkpt lat="45.97107" lon="3.9209">
        <ele>734</ele>
        <time>2024-12-08T06:18:02.620Z</time>
      </trkpt>
      <trkpt lat="45.97108" lon="3.92091">
        <ele>734</ele>
        <time>2024-12-08T06:18:03.619Z</time>
      </trkpt>
      <trkpt lat="45.97109" lon="3.92092">
        <ele>735</ele>
        <time>2024-12-08T06:18:04.619Z</time>
      </trkpt>
      <trkpt lat="45.97111" lon="3.92093">
        <ele>735</ele>
        <time>2024-12-08T06:18:05.619Z</time>
      </trkpt>
      <trkpt lat="45.97112" lon="3.92094">
        <ele>735</ele>
        <time>2024-12-08T06:18:06.620Z</time>
      </trkpt>
      <trkpt lat="45.97114" lon="3.92095">
        <ele>735</ele>
        <time>2024-12-08T06:18:07.620Z</time>
      </trkpt>
      <trkpt lat="45.97115" lon="3.92097">
        <ele>736</ele>
        <time>2024-12-08T06:18:08.620Z</time>
      </trkpt>
      <trkpt lat="45.97116" lon="3.92098">
        <ele>736</ele>
        <time>2024-12-08T06:18:09.619Z</time>
      </trkpt>
      <trkpt lat="45.97117" lon="3.92099">
        <ele>737</ele>
        <time>2024-12-08T06:18:10.619Z</time>
      </trkpt>
      <trkpt lat="45.97118" lon="3.921">
        <ele>737</ele>
        <time>2024-12-08T06:18:11.619Z</time>
      </trkpt>
      <trkpt lat="45.97119" lon="3.92101">
        <ele>737</ele>
        <time>2024-12-08T06:18:12.620Z</time>
      </trkpt>
      <trkpt lat="45.9712" lon="3.92102">
        <ele>737</ele>
        <time>2024-12-08T06:18:13.619Z</time>
      </trkpt>
      <trkpt lat="45.97121" lon="3.92103">
        <ele>737</ele>
        <time>2024-12-08T06:18:14.619Z</time>
      </trkpt>
      <trkpt lat="45.97122" lon="3.92104">
        <ele>737</ele>
        <time>2024-12-08T06:18:15.619Z</time>
      </trkpt>
      <trkpt lat="45.97123" lon="3.92106">
        <ele>737</ele>
        <time>2024-12-08T06:18:16.619Z</time>
      </trkpt>
      <trkpt lat="45.97125" lon="3.92107">
        <ele>737</ele>
        <time>2024-12-08T06:18:17.619Z</time>
      </trkpt>
      <trkpt lat="45.97126" lon="3.92108">
        <ele>737</ele>
        <time>2024-12-08T06:18:18.620Z</time>
      </trkpt>
      <trkpt lat="45.97127" lon="3.92109">
        <ele>738</ele>
        <time>2024-12-08T06:18:19.620Z</time>
      </trkpt>
      <trkpt lat="45.97128" lon="3.9211">
        <ele>738</ele>
        <time>2024-12-08T06:18:20.619Z</time>
      </trkpt>
      <trkpt lat="45.97129" lon="3.92111">
        <ele>738</ele>
        <time>2024-12-08T06:18:21.619Z</time>
      </trkpt>
      <trkpt lat="45.9713" lon="3.92113">
        <ele>738</ele>
        <time>2024-12-08T06:18:22.619Z</time>
      </trkpt>
      <trkpt lat="45.97131" lon="3.92114">
        <ele>738</ele>
        <time>2024-12-08T06:18:23.619Z</time>
      </trkpt>
      <trkpt lat="45.97132" lon="3.92115">
        <ele>738</ele>
        <time>2024-12-08T06:18:24.619Z</time>
      </trkpt>
      <trkpt lat="45.97133" lon="3.92116">
        <ele>738</ele>
        <time>2024-12-08T06:18:25.619Z</time>
      </trkpt>
      <trkpt lat="45.97135" lon="3.92117">
        <ele>739</ele>
        <time>2024-12-08T06:18:26.620Z</time>
      </trkpt>
      <trkpt lat="45.97136" lon="3.92119">
        <ele>739</ele>
        <time>2024-12-08T06:18:27.620Z</time>
      </trkpt>
      <trkpt lat="45.97137" lon="3.9212">
        <ele>739</ele>
        <time>2024-12-08T06:18:28.619Z</time>
      </trkpt>
      <trkpt lat="45.97138" lon="3.92121">
        <ele>739</ele>
        <time>2024-12-08T06:18:29.619Z</time>
      </trkpt>
      <trkpt lat="45.97139" lon="3.92122">
        <ele>739</ele>
        <time>2024-12-08T06:18:30.619Z</time>
      </trkpt>
      <trkpt lat="45.9714" lon="3.92123">
        <ele>740</ele>
        <time>2024-12-08T06:18:31.620Z</time>
      </trkpt>
      <trkpt lat="45.97141" lon="3.92124">
        <ele>740</ele>
        <time>2024-12-08T06:18:32.620Z</time>
      </trkpt>
      <trkpt lat="45.97142" lon="3.92125">
        <ele>740</ele>
        <time>2024-12-08T06:18:33.620Z</time>
      </trkpt>
      <trkpt lat="45.97144" lon="3.92126">
        <ele>740</ele>
        <time>2024-12-08T06:18:34.619Z</time>
      </trkpt>
      <trkpt lat="45.97145" lon="3.92128">
        <ele>740</ele>
        <time>2024-12-08T06:18:35.619Z</time>
      </trkpt>
      <trkpt lat="45.97146" lon="3.92129">
        <ele>740</ele>
        <time>2024-12-08T06:18:36.619Z</time>
      </trkpt>
      <trkpt lat="45.97147" lon="3.9213">
        <ele>740</ele>
        <time>2024-12-08T06:18:37.619Z</time>
      </trkpt>
      <trkpt lat="45.97148" lon="3.92131">
        <ele>740</ele>
        <time>2024-12-08T06:18:38.620Z</time>
      </trkpt>
      <trkpt lat="45.97149" lon="3.92132">
        <ele>741</ele>
        <time>2024-12-08T06:18:39.620Z</time>
      </trkpt>
      <trkpt lat="45.9715" lon="3.92133">
        <ele>741</ele>
        <time>2024-12-08T06:18:40.619Z</time>
      </trkpt>
      <trkpt lat="45.97151" lon="3.92135">
        <ele>741</ele>
        <time>2024-12-08T06:18:41.619Z</time>
      </trkpt>
      <trkpt lat="45.97152" lon="3.92136">
        <ele>741</ele>
        <time>2024-12-08T06:18:42.619Z</time>
      </trkpt>
      <trkpt lat="45.97153" lon="3.92138">
        <ele>741</ele>
        <time>2024-12-08T06:18:43.619Z</time>
      </trkpt>
      <trkpt lat="45.97154" lon="3.92139">
        <ele>741</ele>
        <time>2024-12-08T06:18:44.620Z</time>
      </trkpt>
      <trkpt lat="45.97155" lon="3.92141">
        <ele>741</ele>
        <time>2024-12-08T06:18:45.620Z</time>
      </trkpt>
      <trkpt lat="45.97156" lon="3.92142">
        <ele>741</ele>
        <time>2024-12-08T06:18:46.620Z</time>
      </trkpt>
      <trkpt lat="45.97157" lon="3.92143">
        <ele>741</ele>
        <time>2024-12-08T06:18:47.619Z</time>
      </trkpt>
      <trkpt lat="45.97158" lon="3.92145">
        <ele>741</ele>
        <time>2024-12-08T06:18:48.619Z</time>
      </trkpt>
      <trkpt lat="45.97159" lon="3.92146">
        <ele>741</ele>
        <time>2024-12-08T06:18:49.620Z</time>
      </trkpt>
      <trkpt lat="45.97159" lon="3.92148">
        <ele>740</ele>
        <time>2024-12-08T06:18:50.619Z</time>
      </trkpt>
      <trkpt lat="45.9716" lon="3.92149">
        <ele>740</ele>
        <time>2024-12-08T06:18:51.619Z</time>
      </trkpt>
      <trkpt lat="45.97162" lon="3.92151">
        <ele>740</ele>
        <time>2024-12-08T06:18:52.619Z</time>
      </trkpt>
      <trkpt lat="45.97163" lon="3.92153">
        <ele>740</ele>
        <time>2024-12-08T06:18:53.620Z</time>
      </trkpt>
      <trkpt lat="45.97164" lon="3.92154">
        <ele>741</ele>
        <time>2024-12-08T06:18:54.620Z</time>
      </trkpt>
      <trkpt lat="45.97165" lon="3.92156">
        <ele>741</ele>
        <time>2024-12-08T06:18:55.619Z</time>
      </trkpt>
      <trkpt lat="45.97165" lon="3.92158">
        <ele>741</ele>
        <time>2024-12-08T06:18:56.619Z</time>
      </trkpt>
      <trkpt lat="45.97166" lon="3.9216">
        <ele>742</ele>
        <time>2024-12-08T06:18:57.619Z</time>
      </trkpt>
      <trkpt lat="45.97167" lon="3.92161">
        <ele>742</ele>
        <time>2024-12-08T06:18:58.620Z</time>
      </trkpt>
      <trkpt lat="45.97169" lon="3.92163">
        <ele>743</ele>
        <time>2024-12-08T06:18:59.619Z</time>
      </trkpt>
      <trkpt lat="45.9717" lon="3.92165">
        <ele>744</ele>
        <time>2024-12-08T06:19:00.620Z</time>
      </trkpt>
      <trkpt lat="45.9717" lon="3.92166">
        <ele>744</ele>
        <time>2024-12-08T06:19:01.619Z</time>
      </trkpt>
      <trkpt lat="45.97171" lon="3.92168">
        <ele>744</ele>
        <time>2024-12-08T06:19:02.620Z</time>
      </trkpt>
      <trkpt lat="45.97171" lon="3.9217">
        <ele>744</ele>
        <time>2024-12-08T06:19:03.620Z</time>
      </trkpt>
      <trkpt lat="45.97172" lon="3.92171">
        <ele>744</ele>
        <time>2024-12-08T06:19:04.619Z</time>
      </trkpt>
      <trkpt lat="45.97173" lon="3.92173">
        <ele>744</ele>
        <time>2024-12-08T06:19:05.619Z</time>
      </trkpt>
      <trkpt lat="45.97174" lon="3.92174">
        <ele>744</ele>
        <time>2024-12-08T06:19:06.619Z</time>
      </trkpt>
      <trkpt lat="45.97175" lon="3.92176">
        <ele>744</ele>
        <time>2024-12-08T06:19:07.620Z</time>
      </trkpt>
      <trkpt lat="45.97176" lon="3.92177">
        <ele>744</ele>
        <time>2024-12-08T06:19:08.619Z</time>
      </trkpt>
      <trkpt lat="45.97177" lon="3.92179">
        <ele>744</ele>
        <time>2024-12-08T06:19:09.620Z</time>
      </trkpt>
      <trkpt lat="45.97177" lon="3.9218">
        <ele>745</ele>
        <time>2024-12-08T06:19:10.619Z</time>
      </trkpt>
      <trkpt lat="45.97178" lon="3.92183">
        <ele>745</ele>
        <time>2024-12-08T06:19:11.619Z</time>
      </trkpt>
      <trkpt lat="45.97179" lon="3.92184">
        <ele>745</ele>
        <time>2024-12-08T06:19:12.619Z</time>
      </trkpt>
      <trkpt lat="45.9718" lon="3.92186">
        <ele>745</ele>
        <time>2024-12-08T06:19:13.619Z</time>
      </trkpt>
      <trkpt lat="45.97181" lon="3.92188">
        <ele>746</ele>
        <time>2024-12-08T06:19:14.619Z</time>
      </trkpt>
      <trkpt lat="45.97182" lon="3.92189">
        <ele>746</ele>
        <time>2024-12-08T06:19:15.619Z</time>
      </trkpt>
      <trkpt lat="45.97183" lon="3.92191">
        <ele>746</ele>
        <time>2024-12-08T06:19:16.619Z</time>
      </trkpt>
      <trkpt lat="45.97183" lon="3.92192">
        <ele>746</ele>
        <time>2024-12-08T06:19:17.620Z</time>
      </trkpt>
      <trkpt lat="45.97184" lon="3.92194">
        <ele>747</ele>
        <time>2024-12-08T06:19:18.619Z</time>
      </trkpt>
      <trkpt lat="45.97185" lon="3.92195">
        <ele>747</ele>
        <time>2024-12-08T06:19:19.620Z</time>
      </trkpt>
      <trkpt lat="45.97185" lon="3.92197">
        <ele>747</ele>
        <time>2024-12-08T06:19:20.620Z</time>
      </trkpt>
      <trkpt lat="45.97186" lon="3.92198">
        <ele>747</ele>
        <time>2024-12-08T06:19:21.619Z</time>
      </trkpt>
      <trkpt lat="45.97186" lon="3.922">
        <ele>747</ele>
        <time>2024-12-08T06:19:22.619Z</time>
      </trkpt>
      <trkpt lat="45.97187" lon="3.92201">
        <ele>747</ele>
        <time>2024-12-08T06:19:23.620Z</time>
      </trkpt>
      <trkpt lat="45.97187" lon="3.92203">
        <ele>747</ele>
        <time>2024-12-08T06:19:24.620Z</time>
      </trkpt>
      <trkpt lat="45.97187" lon="3.92204">
        <ele>747</ele>
        <time>2024-12-08T06:19:25.620Z</time>
      </trkpt>
      <trkpt lat="45.97188" lon="3.92205">
        <ele>747</ele>
        <time>2024-12-08T06:19:26.620Z</time>
      </trkpt>
      <trkpt lat="45.97189" lon="3.92207">
        <ele>746</ele>
        <time>2024-12-08T06:19:27.619Z</time>
      </trkpt>
      <trkpt lat="45.97189" lon="3.92208">
        <ele>747</ele>
        <time>2024-12-08T06:19:28.619Z</time>
      </trkpt>
      <trkpt lat="45.9719" lon="3.9221">
        <ele>747</ele>
        <time>2024-12-08T06:19:29.619Z</time>
      </trkpt>
      <trkpt lat="45.9719" lon="3.92212">
        <ele>747</ele>
        <time>2024-12-08T06:19:30.619Z</time>
      </trkpt>
      <trkpt lat="45.97191" lon="3.92213">
        <ele>747</ele>
        <time>2024-12-08T06:19:31.619Z</time>
      </trkpt>
      <trkpt lat="45.97191" lon="3.92215">
        <ele>747</ele>
        <time>2024-12-08T06:19:32.620Z</time>
      </trkpt>
      <trkpt lat="45.97192" lon="3.92217">
        <ele>747</ele>
        <time>2024-12-08T06:19:33.620Z</time>
      </trkpt>
      <trkpt lat="45.97193" lon="3.92219">
        <ele>747</ele>
        <time>2024-12-08T06:19:34.619Z</time>
      </trkpt>
      <trkpt lat="45.97194" lon="3.92221">
        <ele>746</ele>
        <time>2024-12-08T06:19:35.619Z</time>
      </trkpt>
      <trkpt lat="45.97195" lon="3.92223">
        <ele>746</ele>
        <time>2024-12-08T06:19:36.620Z</time>
      </trkpt>
      <trkpt lat="45.97196" lon="3.92225">
        <ele>746</ele>
        <time>2024-12-08T06:19:37.619Z</time>
      </trkpt>
      <trkpt lat="45.97197" lon="3.92226">
        <ele>746</ele>
        <time>2024-12-08T06:19:38.619Z</time>
      </trkpt>
      <trkpt lat="45.97197" lon="3.92228">
        <ele>746</ele>
        <time>2024-12-08T06:19:39.620Z</time>
      </trkpt>
      <trkpt lat="45.97198" lon="3.92229">
        <ele>746</ele>
        <time>2024-12-08T06:19:40.620Z</time>
      </trkpt>
      <trkpt lat="45.97198" lon="3.92231">
        <ele>746</ele>
        <time>2024-12-08T06:19:41.620Z</time>
      </trkpt>
      <trkpt lat="45.97199" lon="3.92233">
        <ele>746</ele>
        <time>2024-12-08T06:19:42.619Z</time>
      </trkpt>
      <trkpt lat="45.972" lon="3.92235">
        <ele>746</ele>
        <time>2024-12-08T06:19:43.619Z</time>
      </trkpt>
      <trkpt lat="45.972" lon="3.92237">
        <ele>746</ele>
        <time>2024-12-08T06:19:44.619Z</time>
      </trkpt>
      <trkpt lat="45.97201" lon="3.92239">
        <ele>746</ele>
        <time>2024-12-08T06:19:45.619Z</time>
      </trkpt>
      <trkpt lat="45.97201" lon="3.92241">
        <ele>746</ele>
        <time>2024-12-08T06:19:46.620Z</time>
      </trkpt>
      <trkpt lat="45.97202" lon="3.92243">
        <ele>746</ele>
        <time>2024-12-08T06:19:47.619Z</time>
      </trkpt>
      <trkpt lat="45.97202" lon="3.92245">
        <ele>747</ele>
        <time>2024-12-08T06:19:48.620Z</time>
      </trkpt>
      <trkpt lat="45.97202" lon="3.92246">
        <ele>747</ele>
        <time>2024-12-08T06:19:49.619Z</time>
      </trkpt>
      <trkpt lat="45.97202" lon="3.92248">
        <ele>748</ele>
        <time>2024-12-08T06:19:50.620Z</time>
      </trkpt>
      <trkpt lat="45.97203" lon="3.9225">
        <ele>748</ele>
        <time>2024-12-08T06:19:51.620Z</time>
      </trkpt>
      <trkpt lat="45.97203" lon="3.92252">
        <ele>748</ele>
        <time>2024-12-08T06:19:52.619Z</time>
      </trkpt>
      <trkpt lat="45.97204" lon="3.92253">
        <ele>747</ele>
        <time>2024-12-08T06:19:53.619Z</time>
      </trkpt>
      <trkpt lat="45.97205" lon="3.92255">
        <ele>747</ele>
        <time>2024-12-08T06:19:54.619Z</time>
      </trkpt>
      <trkpt lat="45.97205" lon="3.92257">
        <ele>747</ele>
        <time>2024-12-08T06:19:55.620Z</time>
      </trkpt>
      <trkpt lat="45.97207" lon="3.92259">
        <ele>747</ele>
        <time>2024-12-08T06:19:56.619Z</time>
      </trkpt>
      <trkpt lat="45.97207" lon="3.92261">
        <ele>747</ele>
        <time>2024-12-08T06:19:57.620Z</time>
      </trkpt>
      <trkpt lat="45.97208" lon="3.92263">
        <ele>748</ele>
        <time>2024-12-08T06:19:58.620Z</time>
      </trkpt>
      <trkpt lat="45.97209" lon="3.92265">
        <ele>748</ele>
        <time>2024-12-08T06:19:59.619Z</time>
      </trkpt>
      <trkpt lat="45.9721" lon="3.92266">
        <ele>747</ele>
        <time>2024-12-08T06:20:00.620Z</time>
      </trkpt>
      <trkpt lat="45.9721" lon="3.92268">
        <ele>747</ele>
        <time>2024-12-08T06:20:01.619Z</time>
      </trkpt>
      <trkpt lat="45.97211" lon="3.9227">
        <ele>747</ele>
        <time>2024-12-08T06:20:02.620Z</time>
      </trkpt>
      <trkpt lat="45.97212" lon="3.92272">
        <ele>747</ele>
        <time>2024-12-08T06:20:03.620Z</time>
      </trkpt>
      <trkpt lat="45.97213" lon="3.92273">
        <ele>747</ele>
        <time>2024-12-08T06:20:04.619Z</time>
      </trkpt>
      <trkpt lat="45.97214" lon="3.92275">
        <ele>747</ele>
        <time>2024-12-08T06:20:05.620Z</time>
      </trkpt>
      <trkpt lat="45.97214" lon="3.92276">
        <ele>747</ele>
        <time>2024-12-08T06:20:06.620Z</time>
      </trkpt>
      <trkpt lat="45.97215" lon="3.92278">
        <ele>748</ele>
        <time>2024-12-08T06:20:07.619Z</time>
      </trkpt>
      <trkpt lat="45.97215" lon="3.9228">
        <ele>748</ele>
        <time>2024-12-08T06:20:08.620Z</time>
      </trkpt>
      <trkpt lat="45.97216" lon="3.92282">
        <ele>748</ele>
        <time>2024-12-08T06:20:09.619Z</time>
      </trkpt>
      <trkpt lat="45.97217" lon="3.92284">
        <ele>748</ele>
        <time>2024-12-08T06:20:10.619Z</time>
      </trkpt>
      <trkpt lat="45.97217" lon="3.92285">
        <ele>748</ele>
        <time>2024-12-08T06:20:11.619Z</time>
      </trkpt>
      <trkpt lat="45.97218" lon="3.92287">
        <ele>748</ele>
        <time>2024-12-08T06:20:12.619Z</time>
      </trkpt>
      <trkpt lat="45.97219" lon="3.9229">
        <ele>748</ele>
        <time>2024-12-08T06:20:13.619Z</time>
      </trkpt>
      <trkpt lat="45.97219" lon="3.92291">
        <ele>748</ele>
        <time>2024-12-08T06:20:14.619Z</time>
      </trkpt>
      <trkpt lat="45.9722" lon="3.92293">
        <ele>748</ele>
        <time>2024-12-08T06:20:15.619Z</time>
      </trkpt>
      <trkpt lat="45.97221" lon="3.92295">
        <ele>749</ele>
        <time>2024-12-08T06:20:16.620Z</time>
      </trkpt>
      <trkpt lat="45.97223" lon="3.92297">
        <ele>749</ele>
        <time>2024-12-08T06:20:17.620Z</time>
      </trkpt>
      <trkpt lat="45.97223" lon="3.92299">
        <ele>749</ele>
        <time>2024-12-08T06:20:18.619Z</time>
      </trkpt>
      <trkpt lat="45.97224" lon="3.92301">
        <ele>749</ele>
        <time>2024-12-08T06:20:19.620Z</time>
      </trkpt>
      <trkpt lat="45.97224" lon="3.92303">
        <ele>748</ele>
        <time>2024-12-08T06:20:20.619Z</time>
      </trkpt>
      <trkpt lat="45.97225" lon="3.92304">
        <ele>748</ele>
        <time>2024-12-08T06:20:21.620Z</time>
      </trkpt>
      <trkpt lat="45.97226" lon="3.92306">
        <ele>748</ele>
        <time>2024-12-08T06:20:22.620Z</time>
      </trkpt>
      <trkpt lat="45.97227" lon="3.92308">
        <ele>749</ele>
        <time>2024-12-08T06:20:23.620Z</time>
      </trkpt>
      <trkpt lat="45.97228" lon="3.9231">
        <ele>749</ele>
        <time>2024-12-08T06:20:24.619Z</time>
      </trkpt>
      <trkpt lat="45.97228" lon="3.92312">
        <ele>749</ele>
        <time>2024-12-08T06:20:25.619Z</time>
      </trkpt>
      <trkpt lat="45.97229" lon="3.92313">
        <ele>749</ele>
        <time>2024-12-08T06:20:26.619Z</time>
      </trkpt>
      <trkpt lat="45.9723" lon="3.92315">
        <ele>749</ele>
        <time>2024-12-08T06:20:27.619Z</time>
      </trkpt>
      <trkpt lat="45.97231" lon="3.92317">
        <ele>749</ele>
        <time>2024-12-08T06:20:28.620Z</time>
      </trkpt>
      <trkpt lat="45.97232" lon="3.92319">
        <ele>749</ele>
        <time>2024-12-08T06:20:29.619Z</time>
      </trkpt>
      <trkpt lat="45.97232" lon="3.9232">
        <ele>750</ele>
        <time>2024-12-08T06:20:30.619Z</time>
      </trkpt>
      <trkpt lat="45.97233" lon="3.92321">
        <ele>750</ele>
        <time>2024-12-08T06:20:31.620Z</time>
      </trkpt>
      <trkpt lat="45.97235" lon="3.92323">
        <ele>750</ele>
        <time>2024-12-08T06:20:32.619Z</time>
      </trkpt>
      <trkpt lat="45.97236" lon="3.92325">
        <ele>750</ele>
        <time>2024-12-08T06:20:33.620Z</time>
      </trkpt>
      <trkpt lat="45.97236" lon="3.92327">
        <ele>751</ele>
        <time>2024-12-08T06:20:34.620Z</time>
      </trkpt>
      <trkpt lat="45.97237" lon="3.92328">
        <ele>751</ele>
        <time>2024-12-08T06:20:35.619Z</time>
      </trkpt>
      <trkpt lat="45.97237" lon="3.9233">
        <ele>751</ele>
        <time>2024-12-08T06:20:36.619Z</time>
      </trkpt>
      <trkpt lat="45.97238" lon="3.92332">
        <ele>751</ele>
        <time>2024-12-08T06:20:37.619Z</time>
      </trkpt>
      <trkpt lat="45.97239" lon="3.92335">
        <ele>751</ele>
        <time>2024-12-08T06:20:38.619Z</time>
      </trkpt>
      <trkpt lat="45.97239" lon="3.92336">
        <ele>751</ele>
        <time>2024-12-08T06:20:39.620Z</time>
      </trkpt>
      <trkpt lat="45.9724" lon="3.92338">
        <ele>751</ele>
        <time>2024-12-08T06:20:40.619Z</time>
      </trkpt>
      <trkpt lat="45.97241" lon="3.9234">
        <ele>751</ele>
        <time>2024-12-08T06:20:41.619Z</time>
      </trkpt>
      <trkpt lat="45.97242" lon="3.92343">
        <ele>751</ele>
        <time>2024-12-08T06:20:42.619Z</time>
      </trkpt>
      <trkpt lat="45.97242" lon="3.92345">
        <ele>751</ele>
        <time>2024-12-08T06:20:43.620Z</time>
      </trkpt>
      <trkpt lat="45.97243" lon="3.92346">
        <ele>751</ele>
        <time>2024-12-08T06:20:44.619Z</time>
      </trkpt>
      <trkpt lat="45.97244" lon="3.92348">
        <ele>751</ele>
        <time>2024-12-08T06:20:45.619Z</time>
      </trkpt>
      <trkpt lat="45.97245" lon="3.92349">
        <ele>751</ele>
        <time>2024-12-08T06:20:46.619Z</time>
      </trkpt>
      <trkpt lat="45.97246" lon="3.92351">
        <ele>751</ele>
        <time>2024-12-08T06:20:47.619Z</time>
      </trkpt>
      <trkpt lat="45.97246" lon="3.92353">
        <ele>751</ele>
        <time>2024-12-08T06:20:48.620Z</time>
      </trkpt>
      <trkpt lat="45.97247" lon="3.92355">
        <ele>751</ele>
        <time>2024-12-08T06:20:49.620Z</time>
      </trkpt>
      <trkpt lat="45.97248" lon="3.92357">
        <ele>751</ele>
        <time>2024-12-08T06:20:50.620Z</time>
      </trkpt>
      <trkpt lat="45.97249" lon="3.92359">
        <ele>751</ele>
        <time>2024-12-08T06:20:51.620Z</time>
      </trkpt>
      <trkpt lat="45.97249" lon="3.92361">
        <ele>751</ele>
        <time>2024-12-08T06:20:52.619Z</time>
      </trkpt>
      <trkpt lat="45.9725" lon="3.92363">
        <ele>751</ele>
        <time>2024-12-08T06:20:53.619Z</time>
      </trkpt>
      <trkpt lat="45.97251" lon="3.92365">
        <ele>751</ele>
        <time>2024-12-08T06:20:54.619Z</time>
      </trkpt>
      <trkpt lat="45.97251" lon="3.92367">
        <ele>751</ele>
        <time>2024-12-08T06:20:55.619Z</time>
      </trkpt>
      <trkpt lat="45.97252" lon="3.92369">
        <ele>751</ele>
        <time>2024-12-08T06:20:56.619Z</time>
      </trkpt>
      <trkpt lat="45.97252" lon="3.9237">
        <ele>751</ele>
        <time>2024-12-08T06:20:57.619Z</time>
      </trkpt>
      <trkpt lat="45.97253" lon="3.92373">
        <ele>751</ele>
        <time>2024-12-08T06:20:58.619Z</time>
      </trkpt>
      <trkpt lat="45.97254" lon="3.92375">
        <ele>751</ele>
        <time>2024-12-08T06:20:59.619Z</time>
      </trkpt>
      <trkpt lat="45.97254" lon="3.92377">
        <ele>751</ele>
        <time>2024-12-08T06:21:00.620Z</time>
      </trkpt>
      <trkpt lat="45.97255" lon="3.92379">
        <ele>751</ele>
        <time>2024-12-08T06:21:01.619Z</time>
      </trkpt>
      <trkpt lat="45.97255" lon="3.9238">
        <ele>751</ele>
        <time>2024-12-08T06:21:02.619Z</time>
      </trkpt>
      <trkpt lat="45.97256" lon="3.92382">
        <ele>751</ele>
        <time>2024-12-08T06:21:03.619Z</time>
      </trkpt>
      <trkpt lat="45.97256" lon="3.92384">
        <ele>751</ele>
        <time>2024-12-08T06:21:04.619Z</time>
      </trkpt>
      <trkpt lat="45.97257" lon="3.92386">
        <ele>751</ele>
        <time>2024-12-08T06:21:05.619Z</time>
      </trkpt>
      <trkpt lat="45.97258" lon="3.92387">
        <ele>751</ele>
        <time>2024-12-08T06:21:06.620Z</time>
      </trkpt>
      <trkpt lat="45.97258" lon="3.92389">
        <ele>752</ele>
        <time>2024-12-08T06:21:07.619Z</time>
      </trkpt>
      <trkpt lat="45.97259" lon="3.92391">
        <ele>752</ele>
        <time>2024-12-08T06:21:08.620Z</time>
      </trkpt>
      <trkpt lat="45.97259" lon="3.92393">
        <ele>753</ele>
        <time>2024-12-08T06:21:09.619Z</time>
      </trkpt>
      <trkpt lat="45.9726" lon="3.92394">
        <ele>753</ele>
        <time>2024-12-08T06:21:10.619Z</time>
      </trkpt>
      <trkpt lat="45.97261" lon="3.92396">
        <ele>754</ele>
        <time>2024-12-08T06:21:11.620Z</time>
      </trkpt>
      <trkpt lat="45.97262" lon="3.92399">
        <ele>754</ele>
        <time>2024-12-08T06:21:12.619Z</time>
      </trkpt>
      <trkpt lat="45.97262" lon="3.92401">
        <ele>755</ele>
        <time>2024-12-08T06:21:13.620Z</time>
      </trkpt>
      <trkpt lat="45.97263" lon="3.92403">
        <ele>755</ele>
        <time>2024-12-08T06:21:14.619Z</time>
      </trkpt>
      <trkpt lat="45.97263" lon="3.92404">
        <ele>755</ele>
        <time>2024-12-08T06:21:15.620Z</time>
      </trkpt>
      <trkpt lat="45.97264" lon="3.92406">
        <ele>755</ele>
        <time>2024-12-08T06:21:16.620Z</time>
      </trkpt>
      <trkpt lat="45.97264" lon="3.92408">
        <ele>755</ele>
        <time>2024-12-08T06:21:17.619Z</time>
      </trkpt>
      <trkpt lat="45.97265" lon="3.9241">
        <ele>754</ele>
        <time>2024-12-08T06:21:18.620Z</time>
      </trkpt>
      <trkpt lat="45.97265" lon="3.92412">
        <ele>754</ele>
        <time>2024-12-08T06:21:19.620Z</time>
      </trkpt>
      <trkpt lat="45.97265" lon="3.92414">
        <ele>754</ele>
        <time>2024-12-08T06:21:20.620Z</time>
      </trkpt>
      <trkpt lat="45.97265" lon="3.92416">
        <ele>754</ele>
        <time>2024-12-08T06:21:21.620Z</time>
      </trkpt>
      <trkpt lat="45.97266" lon="3.92418">
        <ele>754</ele>
        <time>2024-12-08T06:21:22.619Z</time>
      </trkpt>
      <trkpt lat="45.97267" lon="3.9242">
        <ele>754</ele>
        <time>2024-12-08T06:21:23.619Z</time>
      </trkpt>
      <trkpt lat="45.97267" lon="3.92422">
        <ele>754</ele>
        <time>2024-12-08T06:21:24.619Z</time>
      </trkpt>
      <trkpt lat="45.97267" lon="3.92424">
        <ele>754</ele>
        <time>2024-12-08T06:21:25.619Z</time>
      </trkpt>
      <trkpt lat="45.97266" lon="3.92426">
        <ele>754</ele>
        <time>2024-12-08T06:21:26.619Z</time>
      </trkpt>
      <trkpt lat="45.97266" lon="3.92429">
        <ele>754</ele>
        <time>2024-12-08T06:21:27.620Z</time>
      </trkpt>
      <trkpt lat="45.97267" lon="3.9243">
        <ele>754</ele>
        <time>2024-12-08T06:21:28.619Z</time>
      </trkpt>
      <trkpt lat="45.97267" lon="3.92432">
        <ele>754</ele>
        <time>2024-12-08T06:21:29.619Z</time>
      </trkpt>
      <trkpt lat="45.97267" lon="3.92435">
        <ele>754</ele>
        <time>2024-12-08T06:21:30.619Z</time>
      </trkpt>
      <trkpt lat="45.97267" lon="3.92437">
        <ele>754</ele>
        <time>2024-12-08T06:21:31.619Z</time>
      </trkpt>
      <trkpt lat="45.97268" lon="3.9244">
        <ele>753</ele>
        <time>2024-12-08T06:21:32.620Z</time>
      </trkpt>
      <trkpt lat="45.97268" lon="3.92443">
        <ele>754</ele>
        <time>2024-12-08T06:21:33.620Z</time>
      </trkpt>
      <trkpt lat="45.97267" lon="3.92446">
        <ele>754</ele>
        <time>2024-12-08T06:21:34.619Z</time>
      </trkpt>
      <trkpt lat="45.97268" lon="3.92448">
        <ele>754</ele>
        <time>2024-12-08T06:21:35.619Z</time>
      </trkpt>
      <trkpt lat="45.97268" lon="3.9245">
        <ele>754</ele>
        <time>2024-12-08T06:21:36.620Z</time>
      </trkpt>
      <trkpt lat="45.97268" lon="3.92452">
        <ele>754</ele>
        <time>2024-12-08T06:21:37.620Z</time>
      </trkpt>
      <trkpt lat="45.97267" lon="3.92455">
        <ele>754</ele>
        <time>2024-12-08T06:21:38.620Z</time>
      </trkpt>
      <trkpt lat="45.97267" lon="3.92458">
        <ele>754</ele>
        <time>2024-12-08T06:21:39.619Z</time>
      </trkpt>
      <trkpt lat="45.97267" lon="3.9246">
        <ele>754</ele>
        <time>2024-12-08T06:21:40.619Z</time>
      </trkpt>
      <trkpt lat="45.97267" lon="3.92462">
        <ele>754</ele>
        <time>2024-12-08T06:21:41.619Z</time>
      </trkpt>
      <trkpt lat="45.97267" lon="3.92464">
        <ele>754</ele>
        <time>2024-12-08T06:21:42.620Z</time>
      </trkpt>
      <trkpt lat="45.97267" lon="3.92466">
        <ele>754</ele>
        <time>2024-12-08T06:21:43.619Z</time>
      </trkpt>
      <trkpt lat="45.97266" lon="3.92469">
        <ele>754</ele>
        <time>2024-12-08T06:21:44.619Z</time>
      </trkpt>
      <trkpt lat="45.97266" lon="3.92472">
        <ele>755</ele>
        <time>2024-12-08T06:21:45.620Z</time>
      </trkpt>
      <trkpt lat="45.97266" lon="3.92474">
        <ele>755</ele>
        <time>2024-12-08T06:21:46.619Z</time>
      </trkpt>
      <trkpt lat="45.97265" lon="3.92477">
        <ele>755</ele>
        <time>2024-12-08T06:21:47.620Z</time>
      </trkpt>
      <trkpt lat="45.97265" lon="3.92479">
        <ele>755</ele>
        <time>2024-12-08T06:21:48.620Z</time>
      </trkpt>
      <trkpt lat="45.97265" lon="3.92482">
        <ele>755</ele>
        <time>2024-12-08T06:21:49.620Z</time>
      </trkpt>
      <trkpt lat="45.97265" lon="3.92484">
        <ele>755</ele>
        <time>2024-12-08T06:21:50.619Z</time>
      </trkpt>
      <trkpt lat="45.97265" lon="3.92486">
        <ele>755</ele>
        <time>2024-12-08T06:21:51.620Z</time>
      </trkpt>
      <trkpt lat="45.97264" lon="3.92489">
        <ele>755</ele>
        <time>2024-12-08T06:21:52.620Z</time>
      </trkpt>
      <trkpt lat="45.97264" lon="3.92492">
        <ele>755</ele>
        <time>2024-12-08T06:21:53.620Z</time>
      </trkpt>
      <trkpt lat="45.97264" lon="3.92494">
        <ele>755</ele>
        <time>2024-12-08T06:21:54.620Z</time>
      </trkpt>
      <trkpt lat="45.97264" lon="3.92497">
        <ele>755</ele>
        <time>2024-12-08T06:21:55.619Z</time>
      </trkpt>
      <trkpt lat="45.97263" lon="3.92499">
        <ele>755</ele>
        <time>2024-12-08T06:21:56.620Z</time>
      </trkpt>
      <trkpt lat="45.97263" lon="3.92502">
        <ele>755</ele>
        <time>2024-12-08T06:21:57.620Z</time>
      </trkpt>
      <trkpt lat="45.97263" lon="3.92505">
        <ele>756</ele>
        <time>2024-12-08T06:21:58.619Z</time>
      </trkpt>
      <trkpt lat="45.97263" lon="3.92507">
        <ele>756</ele>
        <time>2024-12-08T06:21:59.620Z</time>
      </trkpt>
      <trkpt lat="45.97262" lon="3.92509">
        <ele>756</ele>
        <time>2024-12-08T06:22:00.619Z</time>
      </trkpt>
      <trkpt lat="45.97261" lon="3.92511">
        <ele>756</ele>
        <time>2024-12-08T06:22:01.619Z</time>
      </trkpt>
      <trkpt lat="45.97261" lon="3.92514">
        <ele>756</ele>
        <time>2024-12-08T06:22:02.620Z</time>
      </trkpt>
      <trkpt lat="45.97261" lon="3.92517">
        <ele>756</ele>
        <time>2024-12-08T06:22:03.619Z</time>
      </trkpt>
      <trkpt lat="45.9726" lon="3.9252">
        <ele>755</ele>
        <time>2024-12-08T06:22:04.619Z</time>
      </trkpt>
      <trkpt lat="45.9726" lon="3.92522">
        <ele>755</ele>
        <time>2024-12-08T06:22:05.620Z</time>
      </trkpt>
      <trkpt lat="45.9726" lon="3.92525">
        <ele>755</ele>
        <time>2024-12-08T06:22:06.619Z</time>
      </trkpt>
      <trkpt lat="45.97259" lon="3.92527">
        <ele>754</ele>
        <time>2024-12-08T06:22:07.619Z</time>
      </trkpt>
      <trkpt lat="45.97259" lon="3.92529">
        <ele>754</ele>
        <time>2024-12-08T06:22:08.619Z</time>
      </trkpt>
      <trkpt lat="45.97259" lon="3.92531">
        <ele>754</ele>
        <time>2024-12-08T06:22:09.619Z</time>
      </trkpt>
      <trkpt lat="45.97258" lon="3.92534">
        <ele>754</ele>
        <time>2024-12-08T06:22:10.619Z</time>
      </trkpt>
      <trkpt lat="45.97258" lon="3.92537">
        <ele>754</ele>
        <time>2024-12-08T06:22:11.620Z</time>
      </trkpt>
      <trkpt lat="45.97258" lon="3.92539">
        <ele>753</ele>
        <time>2024-12-08T06:22:12.620Z</time>
      </trkpt>
      <trkpt lat="45.97257" lon="3.92541">
        <ele>753</ele>
        <time>2024-12-08T06:22:13.619Z</time>
      </trkpt>
      <trkpt lat="45.97257" lon="3.92544">
        <ele>753</ele>
        <time>2024-12-08T06:22:14.620Z</time>
      </trkpt>
      <trkpt lat="45.97256" lon="3.92546">
        <ele>753</ele>
        <time>2024-12-08T06:22:15.619Z</time>
      </trkpt>
      <trkpt lat="45.97256" lon="3.92549">
        <ele>752</ele>
        <time>2024-12-08T06:22:16.620Z</time>
      </trkpt>
      <trkpt lat="45.97255" lon="3.92551">
        <ele>752</ele>
        <time>2024-12-08T06:22:17.619Z</time>
      </trkpt>
      <trkpt lat="45.97255" lon="3.92553">
        <ele>752</ele>
        <time>2024-12-08T06:22:18.620Z</time>
      </trkpt>
      <trkpt lat="45.97254" lon="3.92556">
        <ele>751</ele>
        <time>2024-12-08T06:22:19.619Z</time>
      </trkpt>
      <trkpt lat="45.97254" lon="3.92558">
        <ele>751</ele>
        <time>2024-12-08T06:22:20.620Z</time>
      </trkpt>
      <trkpt lat="45.97253" lon="3.92561">
        <ele>751</ele>
        <time>2024-12-08T06:22:21.620Z</time>
      </trkpt>
      <trkpt lat="45.97253" lon="3.92563">
        <ele>750</ele>
        <time>2024-12-08T06:22:22.619Z</time>
      </trkpt>
      <trkpt lat="45.97252" lon="3.92566">
        <ele>750</ele>
        <time>2024-12-08T06:22:23.620Z</time>
      </trkpt>
      <trkpt lat="45.97252" lon="3.92569">
        <ele>750</ele>
        <time>2024-12-08T06:22:24.620Z</time>
      </trkpt>
      <trkpt lat="45.97252" lon="3.92572">
        <ele>749</ele>
        <time>2024-12-08T06:22:25.620Z</time>
      </trkpt>
      <trkpt lat="45.97251" lon="3.92574">
        <ele>749</ele>
        <time>2024-12-08T06:22:26.619Z</time>
      </trkpt>
      <trkpt lat="45.97251" lon="3.92576">
        <ele>748</ele>
        <time>2024-12-08T06:22:27.620Z</time>
      </trkpt>
      <trkpt lat="45.97251" lon="3.92579">
        <ele>748</ele>
        <time>2024-12-08T06:22:28.619Z</time>
      </trkpt>
      <trkpt lat="45.9725" lon="3.92581">
        <ele>748</ele>
        <time>2024-12-08T06:22:29.620Z</time>
      </trkpt>
      <trkpt lat="45.9725" lon="3.92584">
        <ele>748</ele>
        <time>2024-12-08T06:22:30.619Z</time>
      </trkpt>
      <trkpt lat="45.97249" lon="3.92587">
        <ele>748</ele>
        <time>2024-12-08T06:22:31.619Z</time>
      </trkpt>
      <trkpt lat="45.97249" lon="3.92589">
        <ele>748</ele>
        <time>2024-12-08T06:22:32.620Z</time>
      </trkpt>
      <trkpt lat="45.97248" lon="3.92592">
        <ele>747</ele>
        <time>2024-12-08T06:22:33.620Z</time>
      </trkpt>
      <trkpt lat="45.97248" lon="3.92594">
        <ele>747</ele>
        <time>2024-12-08T06:22:34.619Z</time>
      </trkpt>
      <trkpt lat="45.97247" lon="3.92596">
        <ele>747</ele>
        <time>2024-12-08T06:22:35.620Z</time>
      </trkpt>
      <trkpt lat="45.97247" lon="3.92599">
        <ele>747</ele>
        <time>2024-12-08T06:22:36.619Z</time>
      </trkpt>
      <trkpt lat="45.97246" lon="3.92601">
        <ele>747</ele>
        <time>2024-12-08T06:22:37.620Z</time>
      </trkpt>
      <trkpt lat="45.97246" lon="3.92604">
        <ele>747</ele>
        <time>2024-12-08T06:22:38.619Z</time>
      </trkpt>
      <trkpt lat="45.97245" lon="3.92607">
        <ele>747</ele>
        <time>2024-12-08T06:22:39.619Z</time>
      </trkpt>
      <trkpt lat="45.97245" lon="3.92609">
        <ele>747</ele>
        <time>2024-12-08T06:22:40.619Z</time>
      </trkpt>
      <trkpt lat="45.97244" lon="3.92612">
        <ele>746</ele>
        <time>2024-12-08T06:22:41.620Z</time>
      </trkpt>
      <trkpt lat="45.97244" lon="3.92615">
        <ele>746</ele>
        <time>2024-12-08T06:22:42.619Z</time>
      </trkpt>
      <trkpt lat="45.97244" lon="3.92617">
        <ele>746</ele>
        <time>2024-12-08T06:22:43.620Z</time>
      </trkpt>
      <trkpt lat="45.97243" lon="3.9262">
        <ele>746</ele>
        <time>2024-12-08T06:22:44.620Z</time>
      </trkpt>
      <trkpt lat="45.97243" lon="3.92622">
        <ele>746</ele>
        <time>2024-12-08T06:22:45.619Z</time>
      </trkpt>
      <trkpt lat="45.97242" lon="3.92625">
        <ele>746</ele>
        <time>2024-12-08T06:22:46.619Z</time>
      </trkpt>
      <trkpt lat="45.97242" lon="3.92627">
        <ele>746</ele>
        <time>2024-12-08T06:22:47.619Z</time>
      </trkpt>
      <trkpt lat="45.97241" lon="3.9263">
        <ele>746</ele>
        <time>2024-12-08T06:22:48.620Z</time>
      </trkpt>
      <trkpt lat="45.9724" lon="3.92632">
        <ele>746</ele>
        <time>2024-12-08T06:22:49.619Z</time>
      </trkpt>
      <trkpt lat="45.9724" lon="3.92634">
        <ele>746</ele>
        <time>2024-12-08T06:22:50.620Z</time>
      </trkpt>
      <trkpt lat="45.9724" lon="3.92637">
        <ele>746</ele>
        <time>2024-12-08T06:22:51.619Z</time>
      </trkpt>
      <trkpt lat="45.97239" lon="3.92639">
        <ele>746</ele>
        <time>2024-12-08T06:22:52.620Z</time>
      </trkpt>
      <trkpt lat="45.97239" lon="3.92641">
        <ele>745</ele>
        <time>2024-12-08T06:22:53.620Z</time>
      </trkpt>
      <trkpt lat="45.97238" lon="3.92645">
        <ele>745</ele>
        <time>2024-12-08T06:22:54.619Z</time>
      </trkpt>
      <trkpt lat="45.97238" lon="3.92647">
        <ele>745</ele>
        <time>2024-12-08T06:22:55.620Z</time>
      </trkpt>
      <trkpt lat="45.97237" lon="3.92649">
        <ele>744</ele>
        <time>2024-12-08T06:22:56.619Z</time>
      </trkpt>
      <trkpt lat="45.97237" lon="3.92652">
        <ele>744</ele>
        <time>2024-12-08T06:22:57.619Z</time>
      </trkpt>
      <trkpt lat="45.97236" lon="3.92654">
        <ele>744</ele>
        <time>2024-12-08T06:22:58.619Z</time>
      </trkpt>
      <trkpt lat="45.97236" lon="3.92656">
        <ele>743</ele>
        <time>2024-12-08T06:22:59.619Z</time>
      </trkpt>
      <trkpt lat="45.97235" lon="3.92659">
        <ele>743</ele>
        <time>2024-12-08T06:23:00.619Z</time>
      </trkpt>
      <trkpt lat="45.97235" lon="3.92661">
        <ele>742</ele>
        <time>2024-12-08T06:23:01.620Z</time>
      </trkpt>
      <trkpt lat="45.97234" lon="3.92663">
        <ele>742</ele>
        <time>2024-12-08T06:23:02.619Z</time>
      </trkpt>
      <trkpt lat="45.97234" lon="3.92666">
        <ele>742</ele>
        <time>2024-12-08T06:23:03.620Z</time>
      </trkpt>
      <trkpt lat="45.97233" lon="3.92669">
        <ele>742</ele>
        <time>2024-12-08T06:23:04.619Z</time>
      </trkpt>
      <trkpt lat="45.97233" lon="3.9267">
        <ele>742</ele>
        <time>2024-12-08T06:23:05.620Z</time>
      </trkpt>
      <trkpt lat="45.97232" lon="3.92673">
        <ele>743</ele>
        <time>2024-12-08T06:23:06.620Z</time>
      </trkpt>
      <trkpt lat="45.97232" lon="3.92675">
        <ele>742</ele>
        <time>2024-12-08T06:23:07.619Z</time>
      </trkpt>
      <trkpt lat="45.97231" lon="3.92677">
        <ele>742</ele>
        <time>2024-12-08T06:23:08.619Z</time>
      </trkpt>
      <trkpt lat="45.97231" lon="3.92679">
        <ele>742</ele>
        <time>2024-12-08T06:23:09.619Z</time>
      </trkpt>
      <trkpt lat="45.9723" lon="3.92682">
        <ele>742</ele>
        <time>2024-12-08T06:23:10.620Z</time>
      </trkpt>
      <trkpt lat="45.9723" lon="3.92685">
        <ele>742</ele>
        <time>2024-12-08T06:23:11.619Z</time>
      </trkpt>
      <trkpt lat="45.97229" lon="3.92686">
        <ele>742</ele>
        <time>2024-12-08T06:23:12.620Z</time>
      </trkpt>
      <trkpt lat="45.97229" lon="3.92689">
        <ele>742</ele>
        <time>2024-12-08T06:23:13.619Z</time>
      </trkpt>
      <trkpt lat="45.97228" lon="3.92691">
        <ele>742</ele>
        <time>2024-12-08T06:23:14.620Z</time>
      </trkpt>
      <trkpt lat="45.97227" lon="3.92693">
        <ele>742</ele>
        <time>2024-12-08T06:23:15.620Z</time>
      </trkpt>
      <trkpt lat="45.97226" lon="3.92695">
        <ele>741</ele>
        <time>2024-12-08T06:23:16.619Z</time>
      </trkpt>
      <trkpt lat="45.97225" lon="3.92697">
        <ele>741</ele>
        <time>2024-12-08T06:23:17.620Z</time>
      </trkpt>
      <trkpt lat="45.97224" lon="3.92699">
        <ele>741</ele>
        <time>2024-12-08T06:23:18.619Z</time>
      </trkpt>
      <trkpt lat="45.97223" lon="3.92701">
        <ele>741</ele>
        <time>2024-12-08T06:23:19.620Z</time>
      </trkpt>
      <trkpt lat="45.97222" lon="3.92703">
        <ele>740</ele>
        <time>2024-12-08T06:23:20.619Z</time>
      </trkpt>
      <trkpt lat="45.97221" lon="3.92705">
        <ele>740</ele>
        <time>2024-12-08T06:23:21.619Z</time>
      </trkpt>
      <trkpt lat="45.97219" lon="3.92706">
        <ele>739</ele>
        <time>2024-12-08T06:23:22.619Z</time>
      </trkpt>
      <trkpt lat="45.97218" lon="3.92708">
        <ele>739</ele>
        <time>2024-12-08T06:23:23.619Z</time>
      </trkpt>
      <trkpt lat="45.97217" lon="3.9271">
        <ele>738</ele>
        <time>2024-12-08T06:23:24.620Z</time>
      </trkpt>
      <trkpt lat="45.97216" lon="3.92711">
        <ele>738</ele>
        <time>2024-12-08T06:23:25.619Z</time>
      </trkpt>
      <trkpt lat="45.97214" lon="3.92713">
        <ele>737</ele>
        <time>2024-12-08T06:23:26.619Z</time>
      </trkpt>
      <trkpt lat="45.97213" lon="3.92715">
        <ele>737</ele>
        <time>2024-12-08T06:23:27.620Z</time>
      </trkpt>
      <trkpt lat="45.97212" lon="3.92716">
        <ele>736</ele>
        <time>2024-12-08T06:23:28.620Z</time>
      </trkpt>
      <trkpt lat="45.9721" lon="3.92718">
        <ele>736</ele>
        <time>2024-12-08T06:23:29.619Z</time>
      </trkpt>
      <trkpt lat="45.97209" lon="3.92719">
        <ele>735</ele>
        <time>2024-12-08T06:23:30.619Z</time>
      </trkpt>
      <trkpt lat="45.97208" lon="3.92721">
        <ele>735</ele>
        <time>2024-12-08T06:23:31.619Z</time>
      </trkpt>
      <trkpt lat="45.97206" lon="3.92722">
        <ele>734</ele>
        <time>2024-12-08T06:23:32.620Z</time>
      </trkpt>
      <trkpt lat="45.97205" lon="3.92724">
        <ele>734</ele>
        <time>2024-12-08T06:23:33.620Z</time>
      </trkpt>
      <trkpt lat="45.97204" lon="3.92725">
        <ele>733</ele>
        <time>2024-12-08T06:23:34.620Z</time>
      </trkpt>
      <trkpt lat="45.97202" lon="3.92727">
        <ele>733</ele>
        <time>2024-12-08T06:23:35.620Z</time>
      </trkpt>
      <trkpt lat="45.97201" lon="3.92729">
        <ele>733</ele>
        <time>2024-12-08T06:23:36.619Z</time>
      </trkpt>
      <trkpt lat="45.97199" lon="3.92731">
        <ele>733</ele>
        <time>2024-12-08T06:23:37.619Z</time>
      </trkpt>
      <trkpt lat="45.97198" lon="3.92733">
        <ele>734</ele>
        <time>2024-12-08T06:23:38.619Z</time>
      </trkpt>
      <trkpt lat="45.97196" lon="3.92734">
        <ele>734</ele>
        <time>2024-12-08T06:23:39.620Z</time>
      </trkpt>
      <trkpt lat="45.97195" lon="3.92735">
        <ele>734</ele>
        <time>2024-12-08T06:23:40.619Z</time>
      </trkpt>
      <trkpt lat="45.97194" lon="3.92737">
        <ele>734</ele>
        <time>2024-12-08T06:23:41.620Z</time>
      </trkpt>
      <trkpt lat="45.97192" lon="3.92738">
        <ele>734</ele>
        <time>2024-12-08T06:23:42.619Z</time>
      </trkpt>
      <trkpt lat="45.97191" lon="3.9274">
        <ele>734</ele>
        <time>2024-12-08T06:23:43.620Z</time>
      </trkpt>
      <trkpt lat="45.97189" lon="3.92741">
        <ele>734</ele>
        <time>2024-12-08T06:23:44.619Z</time>
      </trkpt>
      <trkpt lat="45.97187" lon="3.92742">
        <ele>734</ele>
        <time>2024-12-08T06:23:45.620Z</time>
      </trkpt>
      <trkpt lat="45.97186" lon="3.92744">
        <ele>734</ele>
        <time>2024-12-08T06:23:46.619Z</time>
      </trkpt>
      <trkpt lat="45.97184" lon="3.92745">
        <ele>733</ele>
        <time>2024-12-08T06:23:47.620Z</time>
      </trkpt>
      <trkpt lat="45.97182" lon="3.92747">
        <ele>733</ele>
        <time>2024-12-08T06:23:48.619Z</time>
      </trkpt>
      <trkpt lat="45.9718" lon="3.92749">
        <ele>733</ele>
        <time>2024-12-08T06:23:49.620Z</time>
      </trkpt>
      <trkpt lat="45.97179" lon="3.9275">
        <ele>733</ele>
        <time>2024-12-08T06:23:50.619Z</time>
      </trkpt>
      <trkpt lat="45.97178" lon="3.92752">
        <ele>734</ele>
        <time>2024-12-08T06:23:51.619Z</time>
      </trkpt>
      <trkpt lat="45.97177" lon="3.92753">
        <ele>734</ele>
        <time>2024-12-08T06:23:52.620Z</time>
      </trkpt>
      <trkpt lat="45.97175" lon="3.92755">
        <ele>734</ele>
        <time>2024-12-08T06:23:53.619Z</time>
      </trkpt>
      <trkpt lat="45.97173" lon="3.92757">
        <ele>733</ele>
        <time>2024-12-08T06:23:54.620Z</time>
      </trkpt>
      <trkpt lat="45.97171" lon="3.92758">
        <ele>733</ele>
        <time>2024-12-08T06:23:55.619Z</time>
      </trkpt>
      <trkpt lat="45.9717" lon="3.9276">
        <ele>733</ele>
        <time>2024-12-08T06:23:56.619Z</time>
      </trkpt>
      <trkpt lat="45.97168" lon="3.92761">
        <ele>732</ele>
        <time>2024-12-08T06:23:57.619Z</time>
      </trkpt>
      <trkpt lat="45.97166" lon="3.92762">
        <ele>732</ele>
        <time>2024-12-08T06:23:58.620Z</time>
      </trkpt>
      <trkpt lat="45.97165" lon="3.92763">
        <ele>732</ele>
        <time>2024-12-08T06:23:59.619Z</time>
      </trkpt>
      <trkpt lat="45.97164" lon="3.92764">
        <ele>732</ele>
        <time>2024-12-08T06:24:00.619Z</time>
      </trkpt>
      <trkpt lat="45.97163" lon="3.92765">
        <ele>732</ele>
        <time>2024-12-08T06:24:01.619Z</time>
      </trkpt>
      <trkpt lat="45.97162" lon="3.92766">
        <ele>732</ele>
        <time>2024-12-08T06:24:02.620Z</time>
      </trkpt>
      <trkpt lat="45.9716" lon="3.92767">
        <ele>732</ele>
        <time>2024-12-08T06:24:03.619Z</time>
      </trkpt>
      <trkpt lat="45.97158" lon="3.92768">
        <ele>731</ele>
        <time>2024-12-08T06:24:04.620Z</time>
      </trkpt>
      <trkpt lat="45.97157" lon="3.92769">
        <ele>731</ele>
        <time>2024-12-08T06:24:05.620Z</time>
      </trkpt>
      <trkpt lat="45.97155" lon="3.9277">
        <ele>730</ele>
        <time>2024-12-08T06:24:06.619Z</time>
      </trkpt>
      <trkpt lat="45.97154" lon="3.92771">
        <ele>730</ele>
        <time>2024-12-08T06:24:07.619Z</time>
      </trkpt>
      <trkpt lat="45.97151" lon="3.92772">
        <ele>730</ele>
        <time>2024-12-08T06:24:08.620Z</time>
      </trkpt>
      <trkpt lat="45.9715" lon="3.92773">
        <ele>729</ele>
        <time>2024-12-08T06:24:09.620Z</time>
      </trkpt>
      <trkpt lat="45.97149" lon="3.92774">
        <ele>729</ele>
        <time>2024-12-08T06:24:10.620Z</time>
      </trkpt>
      <trkpt lat="45.97147" lon="3.92776">
        <ele>729</ele>
        <time>2024-12-08T06:24:11.619Z</time>
      </trkpt>
      <trkpt lat="45.97146" lon="3.92777">
        <ele>728</ele>
        <time>2024-12-08T06:24:12.620Z</time>
      </trkpt>
      <trkpt lat="45.97144" lon="3.92778">
        <ele>728</ele>
        <time>2024-12-08T06:24:13.620Z</time>
      </trkpt>
      <trkpt lat="45.97142" lon="3.9278">
        <ele>728</ele>
        <time>2024-12-08T06:24:14.619Z</time>
      </trkpt>
      <trkpt lat="45.97141" lon="3.92781">
        <ele>727</ele>
        <time>2024-12-08T06:24:15.620Z</time>
      </trkpt>
      <trkpt lat="45.97139" lon="3.92783">
        <ele>727</ele>
        <time>2024-12-08T06:24:16.620Z</time>
      </trkpt>
      <trkpt lat="45.97137" lon="3.92784">
        <ele>727</ele>
        <time>2024-12-08T06:24:17.619Z</time>
      </trkpt>
      <trkpt lat="45.97136" lon="3.92785">
        <ele>727</ele>
        <time>2024-12-08T06:24:18.619Z</time>
      </trkpt>
      <trkpt lat="45.97134" lon="3.92787">
        <ele>727</ele>
        <time>2024-12-08T06:24:19.619Z</time>
      </trkpt>
      <trkpt lat="45.97134" lon="3.92788">
        <ele>727</ele>
        <time>2024-12-08T06:24:20.619Z</time>
      </trkpt>
      <trkpt lat="45.97132" lon="3.92789">
        <ele>727</ele>
        <time>2024-12-08T06:24:21.619Z</time>
      </trkpt>
      <trkpt lat="45.97131" lon="3.9279">
        <ele>727</ele>
        <time>2024-12-08T06:24:22.620Z</time>
      </trkpt>
      <trkpt lat="45.97129" lon="3.92792">
        <ele>727</ele>
        <time>2024-12-08T06:24:23.619Z</time>
      </trkpt>
      <trkpt lat="45.97128" lon="3.92793">
        <ele>728</ele>
        <time>2024-12-08T06:24:24.619Z</time>
      </trkpt>
      <trkpt lat="45.97127" lon="3.92794">
        <ele>728</ele>
        <time>2024-12-08T06:24:25.619Z</time>
      </trkpt>
      <trkpt lat="45.97126" lon="3.92796">
        <ele>728</ele>
        <time>2024-12-08T06:24:26.620Z</time>
      </trkpt>
      <trkpt lat="45.97124" lon="3.92798">
        <ele>728</ele>
        <time>2024-12-08T06:24:27.619Z</time>
      </trkpt>
      <trkpt lat="45.97123" lon="3.92799">
        <ele>728</ele>
        <time>2024-12-08T06:24:28.619Z</time>
      </trkpt>
      <trkpt lat="45.97121" lon="3.92801">
        <ele>728</ele>
        <time>2024-12-08T06:24:29.619Z</time>
      </trkpt>
      <trkpt lat="45.97121" lon="3.92802">
        <ele>728</ele>
        <time>2024-12-08T06:24:30.619Z</time>
      </trkpt>
      <trkpt lat="45.9712" lon="3.92803">
        <ele>728</ele>
        <time>2024-12-08T06:24:31.619Z</time>
      </trkpt>
      <trkpt lat="45.97119" lon="3.92804">
        <ele>727</ele>
        <time>2024-12-08T06:24:32.619Z</time>
      </trkpt>
      <trkpt lat="45.97118" lon="3.92805">
        <ele>727</ele>
        <time>2024-12-08T06:24:33.620Z</time>
      </trkpt>
      <trkpt lat="45.97117" lon="3.92807">
        <ele>727</ele>
        <time>2024-12-08T06:24:34.619Z</time>
      </trkpt>
      <trkpt lat="45.97116" lon="3.92808">
        <ele>727</ele>
        <time>2024-12-08T06:24:35.620Z</time>
      </trkpt>
      <trkpt lat="45.97115" lon="3.9281">
        <ele>727</ele>
        <time>2024-12-08T06:24:36.620Z</time>
      </trkpt>
      <trkpt lat="45.97114" lon="3.92812">
        <ele>726</ele>
        <time>2024-12-08T06:24:37.620Z</time>
      </trkpt>
      <trkpt lat="45.97113" lon="3.92814">
        <ele>726</ele>
        <time>2024-12-08T06:24:38.620Z</time>
      </trkpt>
      <trkpt lat="45.97111" lon="3.92816">
        <ele>726</ele>
        <time>2024-12-08T06:24:39.619Z</time>
      </trkpt>
      <trkpt lat="45.9711" lon="3.92819">
        <ele>725</ele>
        <time>2024-12-08T06:24:40.620Z</time>
      </trkpt>
      <trkpt lat="45.97109" lon="3.92821">
        <ele>725</ele>
        <time>2024-12-08T06:24:41.619Z</time>
      </trkpt>
      <trkpt lat="45.97108" lon="3.92823">
        <ele>725</ele>
        <time>2024-12-08T06:24:42.620Z</time>
      </trkpt>
      <trkpt lat="45.97106" lon="3.92826">
        <ele>724</ele>
        <time>2024-12-08T06:24:43.619Z</time>
      </trkpt>
      <trkpt lat="45.97105" lon="3.92828">
        <ele>724</ele>
        <time>2024-12-08T06:24:44.619Z</time>
      </trkpt>
      <trkpt lat="45.97103" lon="3.92831">
        <ele>724</ele>
        <time>2024-12-08T06:24:45.619Z</time>
      </trkpt>
      <trkpt lat="45.97102" lon="3.92833">
        <ele>723</ele>
        <time>2024-12-08T06:24:46.619Z</time>
      </trkpt>
      <trkpt lat="45.97101" lon="3.92836">
        <ele>723</ele>
        <time>2024-12-08T06:24:47.619Z</time>
      </trkpt>
      <trkpt lat="45.971" lon="3.92837">
        <ele>722</ele>
        <time>2024-12-08T06:24:48.620Z</time>
      </trkpt>
      <trkpt lat="45.97099" lon="3.92839">
        <ele>722</ele>
        <time>2024-12-08T06:24:49.620Z</time>
      </trkpt>
      <trkpt lat="45.97099" lon="3.92841">
        <ele>722</ele>
        <time>2024-12-08T06:24:50.619Z</time>
      </trkpt>
      <trkpt lat="45.97099" lon="3.92844">
        <ele>722</ele>
        <time>2024-12-08T06:24:51.619Z</time>
      </trkpt>
      <trkpt lat="45.97098" lon="3.92847">
        <ele>721</ele>
        <time>2024-12-08T06:24:52.620Z</time>
      </trkpt>
      <trkpt lat="45.97097" lon="3.9285">
        <ele>721</ele>
        <time>2024-12-08T06:24:53.620Z</time>
      </trkpt>
      <trkpt lat="45.97097" lon="3.92852">
        <ele>721</ele>
        <time>2024-12-08T06:24:54.619Z</time>
      </trkpt>
      <trkpt lat="45.97096" lon="3.92855">
        <ele>720</ele>
        <time>2024-12-08T06:24:55.619Z</time>
      </trkpt>
      <trkpt lat="45.97096" lon="3.92857">
        <ele>720</ele>
        <time>2024-12-08T06:24:56.619Z</time>
      </trkpt>
      <trkpt lat="45.97095" lon="3.92859">
        <ele>720</ele>
        <time>2024-12-08T06:24:57.619Z</time>
      </trkpt>
      <trkpt lat="45.97095" lon="3.92862">
        <ele>720</ele>
        <time>2024-12-08T06:24:58.620Z</time>
      </trkpt>
      <trkpt lat="45.97095" lon="3.92864">
        <ele>719</ele>
        <time>2024-12-08T06:24:59.619Z</time>
      </trkpt>
      <trkpt lat="45.97095" lon="3.92866">
        <ele>719</ele>
        <time>2024-12-08T06:25:00.619Z</time>
      </trkpt>
      <trkpt lat="45.97095" lon="3.92869">
        <ele>719</ele>
        <time>2024-12-08T06:25:01.620Z</time>
      </trkpt>
      <trkpt lat="45.97095" lon="3.92871">
        <ele>719</ele>
        <time>2024-12-08T06:25:02.619Z</time>
      </trkpt>
      <trkpt lat="45.97095" lon="3.92873">
        <ele>718</ele>
        <time>2024-12-08T06:25:03.619Z</time>
      </trkpt>
      <trkpt lat="45.97096" lon="3.92875">
        <ele>718</ele>
        <time>2024-12-08T06:25:04.619Z</time>
      </trkpt>
      <trkpt lat="45.97096" lon="3.92877">
        <ele>718</ele>
        <time>2024-12-08T06:25:05.620Z</time>
      </trkpt>
      <trkpt lat="45.97096" lon="3.9288">
        <ele>718</ele>
        <time>2024-12-08T06:25:06.620Z</time>
      </trkpt>
      <trkpt lat="45.97096" lon="3.92882">
        <ele>718</ele>
        <time>2024-12-08T06:25:07.620Z</time>
      </trkpt>
      <trkpt lat="45.97097" lon="3.92884">
        <ele>718</ele>
        <time>2024-12-08T06:25:08.619Z</time>
      </trkpt>
      <trkpt lat="45.97097" lon="3.92886">
        <ele>718</ele>
        <time>2024-12-08T06:25:09.619Z</time>
      </trkpt>
      <trkpt lat="45.97097" lon="3.92888">
        <ele>718</ele>
        <time>2024-12-08T06:25:10.619Z</time>
      </trkpt>
      <trkpt lat="45.97098" lon="3.9289">
        <ele>718</ele>
        <time>2024-12-08T06:25:11.620Z</time>
      </trkpt>
      <trkpt lat="45.97098" lon="3.92892">
        <ele>718</ele>
        <time>2024-12-08T06:25:12.619Z</time>
      </trkpt>
      <trkpt lat="45.97099" lon="3.92895">
        <ele>718</ele>
        <time>2024-12-08T06:25:13.620Z</time>
      </trkpt>
      <trkpt lat="45.97099" lon="3.92897">
        <ele>718</ele>
        <time>2024-12-08T06:25:14.620Z</time>
      </trkpt>
      <trkpt lat="45.971" lon="3.92899">
        <ele>718</ele>
        <time>2024-12-08T06:25:15.619Z</time>
      </trkpt>
      <trkpt lat="45.97101" lon="3.92901">
        <ele>718</ele>
        <time>2024-12-08T06:25:16.619Z</time>
      </trkpt>
      <trkpt lat="45.97101" lon="3.92903">
        <ele>718</ele>
        <time>2024-12-08T06:25:17.620Z</time>
      </trkpt>
      <trkpt lat="45.97102" lon="3.92905">
        <ele>717</ele>
        <time>2024-12-08T06:25:18.619Z</time>
      </trkpt>
      <trkpt lat="45.97103" lon="3.92908">
        <ele>717</ele>
        <time>2024-12-08T06:25:19.620Z</time>
      </trkpt>
      <trkpt lat="45.97104" lon="3.9291">
        <ele>717</ele>
        <time>2024-12-08T06:25:20.619Z</time>
      </trkpt>
      <trkpt lat="45.97105" lon="3.92913">
        <ele>717</ele>
        <time>2024-12-08T06:25:21.619Z</time>
      </trkpt>
      <trkpt lat="45.97106" lon="3.92915">
        <ele>717</ele>
        <time>2024-12-08T06:25:22.620Z</time>
      </trkpt>
      <trkpt lat="45.97106" lon="3.92917">
        <ele>716</ele>
        <time>2024-12-08T06:25:23.619Z</time>
      </trkpt>
      <trkpt lat="45.97107" lon="3.92919">
        <ele>716</ele>
        <time>2024-12-08T06:25:24.619Z</time>
      </trkpt>
      <trkpt lat="45.97108" lon="3.92921">
        <ele>716</ele>
        <time>2024-12-08T06:25:25.620Z</time>
      </trkpt>
      <trkpt lat="45.97109" lon="3.92923">
        <ele>715</ele>
        <time>2024-12-08T06:25:26.620Z</time>
      </trkpt>
      <trkpt lat="45.9711" lon="3.92924">
        <ele>715</ele>
        <time>2024-12-08T06:25:27.620Z</time>
      </trkpt>
      <trkpt lat="45.97111" lon="3.92926">
        <ele>715</ele>
        <time>2024-12-08T06:25:28.620Z</time>
      </trkpt>
      <trkpt lat="45.97112" lon="3.92928">
        <ele>715</ele>
        <time>2024-12-08T06:25:29.619Z</time>
      </trkpt>
      <trkpt lat="45.97113" lon="3.9293">
        <ele>715</ele>
        <time>2024-12-08T06:25:30.620Z</time>
      </trkpt>
      <trkpt lat="45.97115" lon="3.92932">
        <ele>715</ele>
        <time>2024-12-08T06:25:31.619Z</time>
      </trkpt>
      <trkpt lat="45.97116" lon="3.92934">
        <ele>715</ele>
        <time>2024-12-08T06:25:32.620Z</time>
      </trkpt>
      <trkpt lat="45.97117" lon="3.92936">
        <ele>715</ele>
        <time>2024-12-08T06:25:33.620Z</time>
      </trkpt>
      <trkpt lat="45.97118" lon="3.92938">
        <ele>714</ele>
        <time>2024-12-08T06:25:34.620Z</time>
      </trkpt>
      <trkpt lat="45.97119" lon="3.9294">
        <ele>714</ele>
        <time>2024-12-08T06:25:35.620Z</time>
      </trkpt>
      <trkpt lat="45.9712" lon="3.92941">
        <ele>714</ele>
        <time>2024-12-08T06:25:36.619Z</time>
      </trkpt>
      <trkpt lat="45.97121" lon="3.92943">
        <ele>714</ele>
        <time>2024-12-08T06:25:37.619Z</time>
      </trkpt>
      <trkpt lat="45.97122" lon="3.92945">
        <ele>713</ele>
        <time>2024-12-08T06:25:38.620Z</time>
      </trkpt>
      <trkpt lat="45.97123" lon="3.92947">
        <ele>713</ele>
        <time>2024-12-08T06:25:39.619Z</time>
      </trkpt>
      <trkpt lat="45.97125" lon="3.92949">
        <ele>713</ele>
        <time>2024-12-08T06:25:40.619Z</time>
      </trkpt>
      <trkpt lat="45.97126" lon="3.92951">
        <ele>712</ele>
        <time>2024-12-08T06:25:41.619Z</time>
      </trkpt>
      <trkpt lat="45.97127" lon="3.92953">
        <ele>712</ele>
        <time>2024-12-08T06:25:42.620Z</time>
      </trkpt>
      <trkpt lat="45.97129" lon="3.92955">
        <ele>712</ele>
        <time>2024-12-08T06:25:43.619Z</time>
      </trkpt>
      <trkpt lat="45.9713" lon="3.92957">
        <ele>712</ele>
        <time>2024-12-08T06:25:44.619Z</time>
      </trkpt>
      <trkpt lat="45.97131" lon="3.92959">
        <ele>712</ele>
        <time>2024-12-08T06:25:45.619Z</time>
      </trkpt>
      <trkpt lat="45.97133" lon="3.92961">
        <ele>712</ele>
        <time>2024-12-08T06:25:46.620Z</time>
      </trkpt>
      <trkpt lat="45.97134" lon="3.92963">
        <ele>712</ele>
        <time>2024-12-08T06:25:47.619Z</time>
      </trkpt>
      <trkpt lat="45.97135" lon="3.92964">
        <ele>712</ele>
        <time>2024-12-08T06:25:48.620Z</time>
      </trkpt>
      <trkpt lat="45.97136" lon="3.92966">
        <ele>711</ele>
        <time>2024-12-08T06:25:49.620Z</time>
      </trkpt>
      <trkpt lat="45.97138" lon="3.92968">
        <ele>711</ele>
        <time>2024-12-08T06:25:50.619Z</time>
      </trkpt>
      <trkpt lat="45.97139" lon="3.9297">
        <ele>711</ele>
        <time>2024-12-08T06:25:51.620Z</time>
      </trkpt>
      <trkpt lat="45.97141" lon="3.92971">
        <ele>711</ele>
        <time>2024-12-08T06:25:52.619Z</time>
      </trkpt>
      <trkpt lat="45.97142" lon="3.92973">
        <ele>710</ele>
        <time>2024-12-08T06:25:53.619Z</time>
      </trkpt>
      <trkpt lat="45.97144" lon="3.92975">
        <ele>710</ele>
        <time>2024-12-08T06:25:54.619Z</time>
      </trkpt>
      <trkpt lat="45.97145" lon="3.92976">
        <ele>710</ele>
        <time>2024-12-08T06:25:55.620Z</time>
      </trkpt>
      <trkpt lat="45.97146" lon="3.92978">
        <ele>710</ele>
        <time>2024-12-08T06:25:56.619Z</time>
      </trkpt>
      <trkpt lat="45.97148" lon="3.9298">
        <ele>711</ele>
        <time>2024-12-08T06:25:57.620Z</time>
      </trkpt>
      <trkpt lat="45.97149" lon="3.92981">
        <ele>711</ele>
        <time>2024-12-08T06:25:58.619Z</time>
      </trkpt>
      <trkpt lat="45.9715" lon="3.92982">
        <ele>711</ele>
        <time>2024-12-08T06:25:59.620Z</time>
      </trkpt>
      <trkpt lat="45.97151" lon="3.92984">
        <ele>711</ele>
        <time>2024-12-08T06:26:00.620Z</time>
      </trkpt>
      <trkpt lat="45.97153" lon="3.92986">
        <ele>711</ele>
        <time>2024-12-08T06:26:01.619Z</time>
      </trkpt>
      <trkpt lat="45.97154" lon="3.92988">
        <ele>710</ele>
        <time>2024-12-08T06:26:02.619Z</time>
      </trkpt>
      <trkpt lat="45.97156" lon="3.9299">
        <ele>710</ele>
        <time>2024-12-08T06:26:03.620Z</time>
      </trkpt>
      <trkpt lat="45.97157" lon="3.92992">
        <ele>710</ele>
        <time>2024-12-08T06:26:04.620Z</time>
      </trkpt>
      <trkpt lat="45.97158" lon="3.92994">
        <ele>710</ele>
        <time>2024-12-08T06:26:05.619Z</time>
      </trkpt>
      <trkpt lat="45.97159" lon="3.92995">
        <ele>709</ele>
        <time>2024-12-08T06:26:06.620Z</time>
      </trkpt>
      <trkpt lat="45.97161" lon="3.92997">
        <ele>709</ele>
        <time>2024-12-08T06:26:07.619Z</time>
      </trkpt>
      <trkpt lat="45.97162" lon="3.92998">
        <ele>709</ele>
        <time>2024-12-08T06:26:08.620Z</time>
      </trkpt>
      <trkpt lat="45.97164" lon="3.93">
        <ele>709</ele>
        <time>2024-12-08T06:26:09.619Z</time>
      </trkpt>
      <trkpt lat="45.97164" lon="3.93002">
        <ele>708</ele>
        <time>2024-12-08T06:26:10.620Z</time>
      </trkpt>
      <trkpt lat="45.97166" lon="3.93004">
        <ele>708</ele>
        <time>2024-12-08T06:26:11.620Z</time>
      </trkpt>
      <trkpt lat="45.97167" lon="3.93006">
        <ele>707</ele>
        <time>2024-12-08T06:26:12.620Z</time>
      </trkpt>
      <trkpt lat="45.97169" lon="3.93007">
        <ele>707</ele>
        <time>2024-12-08T06:26:13.619Z</time>
      </trkpt>
      <trkpt lat="45.9717" lon="3.93009">
        <ele>707</ele>
        <time>2024-12-08T06:26:14.619Z</time>
      </trkpt>
      <trkpt lat="45.97172" lon="3.93011">
        <ele>707</ele>
        <time>2024-12-08T06:26:15.620Z</time>
      </trkpt>
      <trkpt lat="45.97174" lon="3.93012">
        <ele>707</ele>
        <time>2024-12-08T06:26:16.620Z</time>
      </trkpt>
      <trkpt lat="45.97175" lon="3.93014">
        <ele>707</ele>
        <time>2024-12-08T06:26:17.620Z</time>
      </trkpt>
      <trkpt lat="45.97177" lon="3.93015">
        <ele>707</ele>
        <time>2024-12-08T06:26:18.620Z</time>
      </trkpt>
      <trkpt lat="45.97178" lon="3.93016">
        <ele>707</ele>
        <time>2024-12-08T06:26:19.620Z</time>
      </trkpt>
      <trkpt lat="45.97179" lon="3.93018">
        <ele>707</ele>
        <time>2024-12-08T06:26:20.620Z</time>
      </trkpt>
      <trkpt lat="45.9718" lon="3.93019">
        <ele>707</ele>
        <time>2024-12-08T06:26:21.620Z</time>
      </trkpt>
      <trkpt lat="45.97182" lon="3.93021">
        <ele>707</ele>
        <time>2024-12-08T06:26:22.620Z</time>
      </trkpt>
      <trkpt lat="45.97183" lon="3.93023">
        <ele>707</ele>
        <time>2024-12-08T06:26:23.619Z</time>
      </trkpt>
      <trkpt lat="45.97185" lon="3.93024">
        <ele>707</ele>
        <time>2024-12-08T06:26:24.619Z</time>
      </trkpt>
      <trkpt lat="45.97186" lon="3.93026">
        <ele>707</ele>
        <time>2024-12-08T06:26:25.620Z</time>
      </trkpt>
      <trkpt lat="45.97187" lon="3.93028">
        <ele>707</ele>
        <time>2024-12-08T06:26:26.620Z</time>
      </trkpt>
      <trkpt lat="45.97189" lon="3.93029">
        <ele>707</ele>
        <time>2024-12-08T06:26:27.619Z</time>
      </trkpt>
      <trkpt lat="45.9719" lon="3.9303">
        <ele>706</ele>
        <time>2024-12-08T06:26:28.619Z</time>
      </trkpt>
      <trkpt lat="45.97192" lon="3.93031">
        <ele>706</ele>
        <time>2024-12-08T06:26:29.620Z</time>
      </trkpt>
      <trkpt lat="45.97193" lon="3.93033">
        <ele>705</ele>
        <time>2024-12-08T06:26:30.620Z</time>
      </trkpt>
      <trkpt lat="45.97194" lon="3.93034">
        <ele>705</ele>
        <time>2024-12-08T06:26:31.619Z</time>
      </trkpt>
      <trkpt lat="45.97195" lon="3.93036">
        <ele>705</ele>
        <time>2024-12-08T06:26:32.619Z</time>
      </trkpt>
      <trkpt lat="45.97197" lon="3.93037">
        <ele>704</ele>
        <time>2024-12-08T06:26:33.620Z</time>
      </trkpt>
      <trkpt lat="45.97198" lon="3.93038">
        <ele>704</ele>
        <time>2024-12-08T06:26:34.620Z</time>
      </trkpt>
      <trkpt lat="45.972" lon="3.9304">
        <ele>703</ele>
        <time>2024-12-08T06:26:35.619Z</time>
      </trkpt>
      <trkpt lat="45.97202" lon="3.93041">
        <ele>703</ele>
        <time>2024-12-08T06:26:36.619Z</time>
      </trkpt>
      <trkpt lat="45.97203" lon="3.93042">
        <ele>702</ele>
        <time>2024-12-08T06:26:37.619Z</time>
      </trkpt>
      <trkpt lat="45.97205" lon="3.93044">
        <ele>702</ele>
        <time>2024-12-08T06:26:38.620Z</time>
      </trkpt>
      <trkpt lat="45.97206" lon="3.93046">
        <ele>702</ele>
        <time>2024-12-08T06:26:39.619Z</time>
      </trkpt>
      <trkpt lat="45.97207" lon="3.93047">
        <ele>701</ele>
        <time>2024-12-08T06:26:40.620Z</time>
      </trkpt>
      <trkpt lat="45.97208" lon="3.93049">
        <ele>701</ele>
        <time>2024-12-08T06:26:41.620Z</time>
      </trkpt>
      <trkpt lat="45.97209" lon="3.9305">
        <ele>700</ele>
        <time>2024-12-08T06:26:42.620Z</time>
      </trkpt>
      <trkpt lat="45.97211" lon="3.93052">
        <ele>700</ele>
        <time>2024-12-08T06:26:43.620Z</time>
      </trkpt>
      <trkpt lat="45.97212" lon="3.93053">
        <ele>700</ele>
        <time>2024-12-08T06:26:44.619Z</time>
      </trkpt>
      <trkpt lat="45.97213" lon="3.93054">
        <ele>700</ele>
        <time>2024-12-08T06:26:45.619Z</time>
      </trkpt>
      <trkpt lat="45.97214" lon="3.93056">
        <ele>700</ele>
        <time>2024-12-08T06:26:46.620Z</time>
      </trkpt>
      <trkpt lat="45.97215" lon="3.93058">
        <ele>699</ele>
        <time>2024-12-08T06:26:47.620Z</time>
      </trkpt>
      <trkpt lat="45.97217" lon="3.93059">
        <ele>699</ele>
        <time>2024-12-08T06:26:48.619Z</time>
      </trkpt>
      <trkpt lat="45.97218" lon="3.93061">
        <ele>699</ele>
        <time>2024-12-08T06:26:49.620Z</time>
      </trkpt>
      <trkpt lat="45.97219" lon="3.93062">
        <ele>698</ele>
        <time>2024-12-08T06:26:50.620Z</time>
      </trkpt>
      <trkpt lat="45.9722" lon="3.93064">
        <ele>697</ele>
        <time>2024-12-08T06:26:51.619Z</time>
      </trkpt>
      <trkpt lat="45.97221" lon="3.93066">
        <ele>697</ele>
        <time>2024-12-08T06:26:52.620Z</time>
      </trkpt>
      <trkpt lat="45.97222" lon="3.93067">
        <ele>696</ele>
        <time>2024-12-08T06:26:53.619Z</time>
      </trkpt>
      <trkpt lat="45.97223" lon="3.93068">
        <ele>696</ele>
        <time>2024-12-08T06:26:54.619Z</time>
      </trkpt>
      <trkpt lat="45.97224" lon="3.93069">
        <ele>696</ele>
        <time>2024-12-08T06:26:55.619Z</time>
      </trkpt>
      <trkpt lat="45.97225" lon="3.9307">
        <ele>695</ele>
        <time>2024-12-08T06:26:56.620Z</time>
      </trkpt>
      <trkpt lat="45.97227" lon="3.93072">
        <ele>695</ele>
        <time>2024-12-08T06:26:57.619Z</time>
      </trkpt>
      <trkpt lat="45.97228" lon="3.93072">
        <ele>694</ele>
        <time>2024-12-08T06:26:58.620Z</time>
      </trkpt>
      <trkpt lat="45.97229" lon="3.93073">
        <ele>694</ele>
        <time>2024-12-08T06:26:59.620Z</time>
      </trkpt>
      <trkpt lat="45.97231" lon="3.93075">
        <ele>693</ele>
        <time>2024-12-08T06:27:00.620Z</time>
      </trkpt>
      <trkpt lat="45.97232" lon="3.93075">
        <ele>693</ele>
        <time>2024-12-08T06:27:01.619Z</time>
      </trkpt>
      <trkpt lat="45.97234" lon="3.93077">
        <ele>693</ele>
        <time>2024-12-08T06:27:02.620Z</time>
      </trkpt>
      <trkpt lat="45.97235" lon="3.93078">
        <ele>692</ele>
        <time>2024-12-08T06:27:03.620Z</time>
      </trkpt>
      <trkpt lat="45.97236" lon="3.93079">
        <ele>692</ele>
        <time>2024-12-08T06:27:04.620Z</time>
      </trkpt>
      <trkpt lat="45.97237" lon="3.9308">
        <ele>691</ele>
        <time>2024-12-08T06:27:05.619Z</time>
      </trkpt>
      <trkpt lat="45.97239" lon="3.93081">
        <ele>690</ele>
        <time>2024-12-08T06:27:06.620Z</time>
      </trkpt>
      <trkpt lat="45.9724" lon="3.93082">
        <ele>690</ele>
        <time>2024-12-08T06:27:07.619Z</time>
      </trkpt>
      <trkpt lat="45.97241" lon="3.93084">
        <ele>689</ele>
        <time>2024-12-08T06:27:08.620Z</time>
      </trkpt>
      <trkpt lat="45.97242" lon="3.93085">
        <ele>689</ele>
        <time>2024-12-08T06:27:09.619Z</time>
      </trkpt>
      <trkpt lat="45.97243" lon="3.93086">
        <ele>688</ele>
        <time>2024-12-08T06:27:10.620Z</time>
      </trkpt>
      <trkpt lat="45.97244" lon="3.93088">
        <ele>688</ele>
        <time>2024-12-08T06:27:11.619Z</time>
      </trkpt>
      <trkpt lat="45.97246" lon="3.93089">
        <ele>688</ele>
        <time>2024-12-08T06:27:12.619Z</time>
      </trkpt>
      <trkpt lat="45.97247" lon="3.93091">
        <ele>687</ele>
        <time>2024-12-08T06:27:13.619Z</time>
      </trkpt>
      <trkpt lat="45.97248" lon="3.93092">
        <ele>687</ele>
        <time>2024-12-08T06:27:14.619Z</time>
      </trkpt>
      <trkpt lat="45.9725" lon="3.93093">
        <ele>687</ele>
        <time>2024-12-08T06:27:15.620Z</time>
      </trkpt>
      <trkpt lat="45.97251" lon="3.93095">
        <ele>687</ele>
        <time>2024-12-08T06:27:16.619Z</time>
      </trkpt>
      <trkpt lat="45.97252" lon="3.93097">
        <ele>687</ele>
        <time>2024-12-08T06:27:17.620Z</time>
      </trkpt>
      <trkpt lat="45.97253" lon="3.93098">
        <ele>687</ele>
        <time>2024-12-08T06:27:18.619Z</time>
      </trkpt>
      <trkpt lat="45.97254" lon="3.931">
        <ele>687</ele>
        <time>2024-12-08T06:27:19.620Z</time>
      </trkpt>
      <trkpt lat="45.97255" lon="3.93102">
        <ele>687</ele>
        <time>2024-12-08T06:27:20.619Z</time>
      </trkpt>
      <trkpt lat="45.97256" lon="3.93103">
        <ele>687</ele>
        <time>2024-12-08T06:27:21.619Z</time>
      </trkpt>
      <trkpt lat="45.97257" lon="3.93105">
        <ele>687</ele>
        <time>2024-12-08T06:27:22.620Z</time>
      </trkpt>
      <trkpt lat="45.97258" lon="3.93106">
        <ele>687</ele>
        <time>2024-12-08T06:27:23.620Z</time>
      </trkpt>
      <trkpt lat="45.97259" lon="3.93108">
        <ele>687</ele>
        <time>2024-12-08T06:27:24.619Z</time>
      </trkpt>
      <trkpt lat="45.9726" lon="3.93109">
        <ele>687</ele>
        <time>2024-12-08T06:27:25.619Z</time>
      </trkpt>
      <trkpt lat="45.97261" lon="3.93111">
        <ele>687</ele>
        <time>2024-12-08T06:27:26.619Z</time>
      </trkpt>
      <trkpt lat="45.97263" lon="3.93113">
        <ele>687</ele>
        <time>2024-12-08T06:27:27.620Z</time>
      </trkpt>
      <trkpt lat="45.97264" lon="3.93115">
        <ele>687</ele>
        <time>2024-12-08T06:27:28.620Z</time>
      </trkpt>
      <trkpt lat="45.97265" lon="3.93117">
        <ele>687</ele>
        <time>2024-12-08T06:27:29.620Z</time>
      </trkpt>
      <trkpt lat="45.97266" lon="3.93119">
        <ele>687</ele>
        <time>2024-12-08T06:27:30.619Z</time>
      </trkpt>
      <trkpt lat="45.97267" lon="3.9312">
        <ele>687</ele>
        <time>2024-12-08T06:27:31.619Z</time>
      </trkpt>
      <trkpt lat="45.97269" lon="3.93122">
        <ele>687</ele>
        <time>2024-12-08T06:27:32.620Z</time>
      </trkpt>
      <trkpt lat="45.9727" lon="3.93123">
        <ele>687</ele>
        <time>2024-12-08T06:27:33.620Z</time>
      </trkpt>
      <trkpt lat="45.97271" lon="3.93125">
        <ele>687</ele>
        <time>2024-12-08T06:27:34.620Z</time>
      </trkpt>
      <trkpt lat="45.97272" lon="3.93127">
        <ele>686</ele>
        <time>2024-12-08T06:27:35.620Z</time>
      </trkpt>
      <trkpt lat="45.97273" lon="3.93128">
        <ele>686</ele>
        <time>2024-12-08T06:27:36.619Z</time>
      </trkpt>
      <trkpt lat="45.97274" lon="3.93129">
        <ele>686</ele>
        <time>2024-12-08T06:27:37.620Z</time>
      </trkpt>
      <trkpt lat="45.97275" lon="3.93131">
        <ele>686</ele>
        <time>2024-12-08T06:27:38.620Z</time>
      </trkpt>
      <trkpt lat="45.97276" lon="3.93133">
        <ele>686</ele>
        <time>2024-12-08T06:27:39.619Z</time>
      </trkpt>
      <trkpt lat="45.97278" lon="3.93134">
        <ele>685</ele>
        <time>2024-12-08T06:27:40.619Z</time>
      </trkpt>
      <trkpt lat="45.97279" lon="3.93136">
        <ele>685</ele>
        <time>2024-12-08T06:27:41.620Z</time>
      </trkpt>
      <trkpt lat="45.97281" lon="3.93137">
        <ele>685</ele>
        <time>2024-12-08T06:27:42.619Z</time>
      </trkpt>
      <trkpt lat="45.97282" lon="3.93139">
        <ele>685</ele>
        <time>2024-12-08T06:27:43.619Z</time>
      </trkpt>
      <trkpt lat="45.97284" lon="3.9314">
        <ele>684</ele>
        <time>2024-12-08T06:27:44.620Z</time>
      </trkpt>
      <trkpt lat="45.97285" lon="3.93141">
        <ele>684</ele>
        <time>2024-12-08T06:27:45.619Z</time>
      </trkpt>
      <trkpt lat="45.97287" lon="3.93143">
        <ele>684</ele>
        <time>2024-12-08T06:27:46.619Z</time>
      </trkpt>
      <trkpt lat="45.97288" lon="3.93144">
        <ele>684</ele>
        <time>2024-12-08T06:27:47.619Z</time>
      </trkpt>
      <trkpt lat="45.97289" lon="3.93145">
        <ele>684</ele>
        <time>2024-12-08T06:27:48.620Z</time>
      </trkpt>
      <trkpt lat="45.9729" lon="3.93146">
        <ele>684</ele>
        <time>2024-12-08T06:27:49.619Z</time>
      </trkpt>
      <trkpt lat="45.97292" lon="3.93147">
        <ele>684</ele>
        <time>2024-12-08T06:27:50.619Z</time>
      </trkpt>
      <trkpt lat="45.97293" lon="3.93149">
        <ele>684</ele>
        <time>2024-12-08T06:27:51.620Z</time>
      </trkpt>
      <trkpt lat="45.97295" lon="3.9315">
        <ele>684</ele>
        <time>2024-12-08T06:27:52.619Z</time>
      </trkpt>
      <trkpt lat="45.97296" lon="3.93152">
        <ele>684</ele>
        <time>2024-12-08T06:27:53.619Z</time>
      </trkpt>
      <trkpt lat="45.97297" lon="3.93153">
        <ele>684</ele>
        <time>2024-12-08T06:27:54.620Z</time>
      </trkpt>
      <trkpt lat="45.97298" lon="3.93154">
        <ele>684</ele>
        <time>2024-12-08T06:27:55.619Z</time>
      </trkpt>
      <trkpt lat="45.97299" lon="3.93155">
        <ele>684</ele>
        <time>2024-12-08T06:27:56.619Z</time>
      </trkpt>
      <trkpt lat="45.973" lon="3.93157">
        <ele>684</ele>
        <time>2024-12-08T06:27:57.620Z</time>
      </trkpt>
      <trkpt lat="45.97302" lon="3.93158">
        <ele>684</ele>
        <time>2024-12-08T06:27:58.620Z</time>
      </trkpt>
      <trkpt lat="45.97303" lon="3.93159">
        <ele>684</ele>
        <time>2024-12-08T06:27:59.619Z</time>
      </trkpt>
      <trkpt lat="45.97304" lon="3.9316">
        <ele>684</ele>
        <time>2024-12-08T06:28:00.619Z</time>
      </trkpt>
      <trkpt lat="45.97305" lon="3.93161">
        <ele>683</ele>
        <time>2024-12-08T06:28:01.619Z</time>
      </trkpt>
      <trkpt lat="45.97307" lon="3.93162">
        <ele>683</ele>
        <time>2024-12-08T06:28:02.620Z</time>
      </trkpt>
      <trkpt lat="45.97308" lon="3.93164">
        <ele>683</ele>
        <time>2024-12-08T06:28:03.619Z</time>
      </trkpt>
      <trkpt lat="45.9731" lon="3.93166">
        <ele>683</ele>
        <time>2024-12-08T06:28:04.619Z</time>
      </trkpt>
      <trkpt lat="45.97311" lon="3.93168">
        <ele>683</ele>
        <time>2024-12-08T06:28:05.620Z</time>
      </trkpt>
      <trkpt lat="45.97312" lon="3.93169">
        <ele>683</ele>
        <time>2024-12-08T06:28:06.619Z</time>
      </trkpt>
      <trkpt lat="45.97313" lon="3.93169">
        <ele>682</ele>
        <time>2024-12-08T06:28:07.619Z</time>
      </trkpt>
      <trkpt lat="45.97315" lon="3.93171">
        <ele>682</ele>
        <time>2024-12-08T06:28:08.619Z</time>
      </trkpt>
      <trkpt lat="45.97316" lon="3.93172">
        <ele>683</ele>
        <time>2024-12-08T06:28:09.620Z</time>
      </trkpt>
      <trkpt lat="45.97318" lon="3.93173">
        <ele>683</ele>
        <time>2024-12-08T06:28:10.619Z</time>
      </trkpt>
      <trkpt lat="45.97319" lon="3.93175">
        <ele>683</ele>
        <time>2024-12-08T06:28:11.619Z</time>
      </trkpt>
      <trkpt lat="45.97321" lon="3.93176">
        <ele>683</ele>
        <time>2024-12-08T06:28:12.619Z</time>
      </trkpt>
      <trkpt lat="45.97322" lon="3.93177">
        <ele>683</ele>
        <time>2024-12-08T06:28:13.619Z</time>
      </trkpt>
      <trkpt lat="45.97324" lon="3.93178">
        <ele>683</ele>
        <time>2024-12-08T06:28:14.619Z</time>
      </trkpt>
      <trkpt lat="45.97325" lon="3.93179">
        <ele>682</ele>
        <time>2024-12-08T06:28:15.619Z</time>
      </trkpt>
      <trkpt lat="45.97327" lon="3.9318">
        <ele>682</ele>
        <time>2024-12-08T06:28:16.619Z</time>
      </trkpt>
      <trkpt lat="45.97328" lon="3.9318">
        <ele>681</ele>
        <time>2024-12-08T06:28:17.620Z</time>
      </trkpt>
      <trkpt lat="45.97329" lon="3.93181">
        <ele>681</ele>
        <time>2024-12-08T06:28:18.619Z</time>
      </trkpt>
      <trkpt lat="45.97331" lon="3.93182">
        <ele>681</ele>
        <time>2024-12-08T06:28:19.619Z</time>
      </trkpt>
      <trkpt lat="45.97332" lon="3.93183">
        <ele>681</ele>
        <time>2024-12-08T06:28:20.619Z</time>
      </trkpt>
      <trkpt lat="45.97334" lon="3.93184">
        <ele>680</ele>
        <time>2024-12-08T06:28:21.620Z</time>
      </trkpt>
      <trkpt lat="45.97335" lon="3.93185">
        <ele>680</ele>
        <time>2024-12-08T06:28:22.619Z</time>
      </trkpt>
      <trkpt lat="45.97336" lon="3.93187">
        <ele>680</ele>
        <time>2024-12-08T06:28:23.620Z</time>
      </trkpt>
      <trkpt lat="45.97338" lon="3.93188">
        <ele>680</ele>
        <time>2024-12-08T06:28:24.620Z</time>
      </trkpt>
      <trkpt lat="45.97339" lon="3.93189">
        <ele>679</ele>
        <time>2024-12-08T06:28:25.619Z</time>
      </trkpt>
      <trkpt lat="45.9734" lon="3.9319">
        <ele>679</ele>
        <time>2024-12-08T06:28:26.620Z</time>
      </trkpt>
      <trkpt lat="45.97342" lon="3.93191">
        <ele>679</ele>
        <time>2024-12-08T06:28:27.619Z</time>
      </trkpt>
      <trkpt lat="45.97343" lon="3.93192">
        <ele>678</ele>
        <time>2024-12-08T06:28:28.619Z</time>
      </trkpt>
      <trkpt lat="45.97345" lon="3.93192">
        <ele>678</ele>
        <time>2024-12-08T06:28:29.619Z</time>
      </trkpt>
      <trkpt lat="45.97346" lon="3.93193">
        <ele>677</ele>
        <time>2024-12-08T06:28:30.619Z</time>
      </trkpt>
      <trkpt lat="45.97347" lon="3.93194">
        <ele>677</ele>
        <time>2024-12-08T06:28:31.620Z</time>
      </trkpt>
      <trkpt lat="45.97349" lon="3.93195">
        <ele>677</ele>
        <time>2024-12-08T06:28:32.619Z</time>
      </trkpt>
      <trkpt lat="45.9735" lon="3.93196">
        <ele>677</ele>
        <time>2024-12-08T06:28:33.620Z</time>
      </trkpt>
      <trkpt lat="45.97352" lon="3.93197">
        <ele>677</ele>
        <time>2024-12-08T06:28:34.619Z</time>
      </trkpt>
      <trkpt lat="45.97353" lon="3.93198">
        <ele>678</ele>
        <time>2024-12-08T06:28:35.620Z</time>
      </trkpt>
      <trkpt lat="45.97355" lon="3.93199">
        <ele>678</ele>
        <time>2024-12-08T06:28:36.619Z</time>
      </trkpt>
      <trkpt lat="45.97356" lon="3.932">
        <ele>678</ele>
        <time>2024-12-08T06:28:37.620Z</time>
      </trkpt>
      <trkpt lat="45.97358" lon="3.93201">
        <ele>677</ele>
        <time>2024-12-08T06:28:38.619Z</time>
      </trkpt>
      <trkpt lat="45.9736" lon="3.93202">
        <ele>677</ele>
        <time>2024-12-08T06:28:39.619Z</time>
      </trkpt>
      <trkpt lat="45.97361" lon="3.93203">
        <ele>677</ele>
        <time>2024-12-08T06:28:40.620Z</time>
      </trkpt>
      <trkpt lat="45.97363" lon="3.93204">
        <ele>677</ele>
        <time>2024-12-08T06:28:41.620Z</time>
      </trkpt>
      <trkpt lat="45.97364" lon="3.93205">
        <ele>677</ele>
        <time>2024-12-08T06:28:42.619Z</time>
      </trkpt>
      <trkpt lat="45.97366" lon="3.93205">
        <ele>676</ele>
        <time>2024-12-08T06:28:43.619Z</time>
      </trkpt>
      <trkpt lat="45.97368" lon="3.93206">
        <ele>676</ele>
        <time>2024-12-08T06:28:44.620Z</time>
      </trkpt>
      <trkpt lat="45.97369" lon="3.93207">
        <ele>676</ele>
        <time>2024-12-08T06:28:45.620Z</time>
      </trkpt>
      <trkpt lat="45.97371" lon="3.93208">
        <ele>676</ele>
        <time>2024-12-08T06:28:46.619Z</time>
      </trkpt>
      <trkpt lat="45.97373" lon="3.93209">
        <ele>676</ele>
        <time>2024-12-08T06:28:47.619Z</time>
      </trkpt>
      <trkpt lat="45.97374" lon="3.93211">
        <ele>676</ele>
        <time>2024-12-08T06:28:48.619Z</time>
      </trkpt>
      <trkpt lat="45.97375" lon="3.93213">
        <ele>676</ele>
        <time>2024-12-08T06:28:49.620Z</time>
      </trkpt>
      <trkpt lat="45.97376" lon="3.93214">
        <ele>676</ele>
        <time>2024-12-08T06:28:50.620Z</time>
      </trkpt>
      <trkpt lat="45.97377" lon="3.93215">
        <ele>676</ele>
        <time>2024-12-08T06:28:51.619Z</time>
      </trkpt>
      <trkpt lat="45.97379" lon="3.93216">
        <ele>676</ele>
        <time>2024-12-08T06:28:52.619Z</time>
      </trkpt>
      <trkpt lat="45.9738" lon="3.93217">
        <ele>676</ele>
        <time>2024-12-08T06:28:53.619Z</time>
      </trkpt>
      <trkpt lat="45.97382" lon="3.93218">
        <ele>676</ele>
        <time>2024-12-08T06:28:54.620Z</time>
      </trkpt>
      <trkpt lat="45.97383" lon="3.93219">
        <ele>676</ele>
        <time>2024-12-08T06:28:55.620Z</time>
      </trkpt>
      <trkpt lat="45.97385" lon="3.9322">
        <ele>676</ele>
        <time>2024-12-08T06:28:56.620Z</time>
      </trkpt>
      <trkpt lat="45.97386" lon="3.93221">
        <ele>676</ele>
        <time>2024-12-08T06:28:57.619Z</time>
      </trkpt>
      <trkpt lat="45.97388" lon="3.93222">
        <ele>676</ele>
        <time>2024-12-08T06:28:58.619Z</time>
      </trkpt>
      <trkpt lat="45.97389" lon="3.93223">
        <ele>676</ele>
        <time>2024-12-08T06:28:59.619Z</time>
      </trkpt>
      <trkpt lat="45.9739" lon="3.93224">
        <ele>676</ele>
        <time>2024-12-08T06:29:00.620Z</time>
      </trkpt>
      <trkpt lat="45.97392" lon="3.93225">
        <ele>676</ele>
        <time>2024-12-08T06:29:01.619Z</time>
      </trkpt>
      <trkpt lat="45.97393" lon="3.93226">
        <ele>676</ele>
        <time>2024-12-08T06:29:02.620Z</time>
      </trkpt>
      <trkpt lat="45.97394" lon="3.93227">
        <ele>676</ele>
        <time>2024-12-08T06:29:03.620Z</time>
      </trkpt>
      <trkpt lat="45.97395" lon="3.93228">
        <ele>675</ele>
        <time>2024-12-08T06:29:04.619Z</time>
      </trkpt>
      <trkpt lat="45.97396" lon="3.93229">
        <ele>675</ele>
        <time>2024-12-08T06:29:05.620Z</time>
      </trkpt>
      <trkpt lat="45.97398" lon="3.9323">
        <ele>675</ele>
        <time>2024-12-08T06:29:06.620Z</time>
      </trkpt>
      <trkpt lat="45.97399" lon="3.93232">
        <ele>674</ele>
        <time>2024-12-08T06:29:07.620Z</time>
      </trkpt>
      <trkpt lat="45.97401" lon="3.93233">
        <ele>674</ele>
        <time>2024-12-08T06:29:08.619Z</time>
      </trkpt>
      <trkpt lat="45.97402" lon="3.93234">
        <ele>674</ele>
        <time>2024-12-08T06:29:09.619Z</time>
      </trkpt>
      <trkpt lat="45.97404" lon="3.93235">
        <ele>674</ele>
        <time>2024-12-08T06:29:10.619Z</time>
      </trkpt>
      <trkpt lat="45.97406" lon="3.93237">
        <ele>674</ele>
        <time>2024-12-08T06:29:11.619Z</time>
      </trkpt>
      <trkpt lat="45.97407" lon="3.93237">
        <ele>674</ele>
        <time>2024-12-08T06:29:12.619Z</time>
      </trkpt>
      <trkpt lat="45.97409" lon="3.93239">
        <ele>674</ele>
        <time>2024-12-08T06:29:13.620Z</time>
      </trkpt>
      <trkpt lat="45.9741" lon="3.9324">
        <ele>675</ele>
        <time>2024-12-08T06:29:14.620Z</time>
      </trkpt>
      <trkpt lat="45.97411" lon="3.93241">
        <ele>675</ele>
        <time>2024-12-08T06:29:15.620Z</time>
      </trkpt>
      <trkpt lat="45.97412" lon="3.93242">
        <ele>675</ele>
        <time>2024-12-08T06:29:16.620Z</time>
      </trkpt>
      <trkpt lat="45.97414" lon="3.93244">
        <ele>675</ele>
        <time>2024-12-08T06:29:17.620Z</time>
      </trkpt>
      <trkpt lat="45.97415" lon="3.93245">
        <ele>675</ele>
        <time>2024-12-08T06:29:18.619Z</time>
      </trkpt>
      <trkpt lat="45.97416" lon="3.93246">
        <ele>675</ele>
        <time>2024-12-08T06:29:19.619Z</time>
      </trkpt>
      <trkpt lat="45.97417" lon="3.93247">
        <ele>675</ele>
        <time>2024-12-08T06:29:20.620Z</time>
      </trkpt>
      <trkpt lat="45.97419" lon="3.93247">
        <ele>675</ele>
        <time>2024-12-08T06:29:21.619Z</time>
      </trkpt>
      <trkpt lat="45.9742" lon="3.93249">
        <ele>675</ele>
        <time>2024-12-08T06:29:22.619Z</time>
      </trkpt>
      <trkpt lat="45.97422" lon="3.93249">
        <ele>674</ele>
        <time>2024-12-08T06:29:23.619Z</time>
      </trkpt>
      <trkpt lat="45.97423" lon="3.9325">
        <ele>674</ele>
        <time>2024-12-08T06:29:24.619Z</time>
      </trkpt>
      <trkpt lat="45.97425" lon="3.93251">
        <ele>673</ele>
        <time>2024-12-08T06:29:25.619Z</time>
      </trkpt>
      <trkpt lat="45.97426" lon="3.93252">
        <ele>673</ele>
        <time>2024-12-08T06:29:26.619Z</time>
      </trkpt>
      <trkpt lat="45.97428" lon="3.93253">
        <ele>672</ele>
        <time>2024-12-08T06:29:27.619Z</time>
      </trkpt>
      <trkpt lat="45.97429" lon="3.93254">
        <ele>671</ele>
        <time>2024-12-08T06:29:28.619Z</time>
      </trkpt>
      <trkpt lat="45.9743" lon="3.93255">
        <ele>670</ele>
        <time>2024-12-08T06:29:29.620Z</time>
      </trkpt>
      <trkpt lat="45.97432" lon="3.93256">
        <ele>669</ele>
        <time>2024-12-08T06:29:30.620Z</time>
      </trkpt>
      <trkpt lat="45.97433" lon="3.93258">
        <ele>668</ele>
        <time>2024-12-08T06:29:31.620Z</time>
      </trkpt>
      <trkpt lat="45.97435" lon="3.9326">
        <ele>667</ele>
        <time>2024-12-08T06:29:32.619Z</time>
      </trkpt>
      <trkpt lat="45.97436" lon="3.93261">
        <ele>666</ele>
        <time>2024-12-08T06:29:33.619Z</time>
      </trkpt>
      <trkpt lat="45.97437" lon="3.93263">
        <ele>665</ele>
        <time>2024-12-08T06:29:34.620Z</time>
      </trkpt>
      <trkpt lat="45.97439" lon="3.93264">
        <ele>665</ele>
        <time>2024-12-08T06:29:35.620Z</time>
      </trkpt>
      <trkpt lat="45.97441" lon="3.93264">
        <ele>664</ele>
        <time>2024-12-08T06:29:36.620Z</time>
      </trkpt>
      <trkpt lat="45.97443" lon="3.93265">
        <ele>663</ele>
        <time>2024-12-08T06:29:37.620Z</time>
      </trkpt>
      <trkpt lat="45.97444" lon="3.93267">
        <ele>662</ele>
        <time>2024-12-08T06:29:38.619Z</time>
      </trkpt>
      <trkpt lat="45.97445" lon="3.9327">
        <ele>661</ele>
        <time>2024-12-08T06:29:39.619Z</time>
      </trkpt>
      <trkpt lat="45.97447" lon="3.93271">
        <ele>660</ele>
        <time>2024-12-08T06:29:40.619Z</time>
      </trkpt>
      <trkpt lat="45.97448" lon="3.93273">
        <ele>659</ele>
        <time>2024-12-08T06:29:41.620Z</time>
      </trkpt>
      <trkpt lat="45.9745" lon="3.93275">
        <ele>659</ele>
        <time>2024-12-08T06:29:42.619Z</time>
      </trkpt>
      <trkpt lat="45.97451" lon="3.93275">
        <ele>658</ele>
        <time>2024-12-08T06:29:43.620Z</time>
      </trkpt>
      <trkpt lat="45.97453" lon="3.93277">
        <ele>658</ele>
        <time>2024-12-08T06:29:44.619Z</time>
      </trkpt>
      <trkpt lat="45.97454" lon="3.93278">
        <ele>657</ele>
        <time>2024-12-08T06:29:45.619Z</time>
      </trkpt>
      <trkpt lat="45.97456" lon="3.93279">
        <ele>656</ele>
        <time>2024-12-08T06:29:46.619Z</time>
      </trkpt>
      <trkpt lat="45.97457" lon="3.9328">
        <ele>656</ele>
        <time>2024-12-08T06:29:47.619Z</time>
      </trkpt>
      <trkpt lat="45.97458" lon="3.93282">
        <ele>655</ele>
        <time>2024-12-08T06:29:48.620Z</time>
      </trkpt>
      <trkpt lat="45.9746" lon="3.93283">
        <ele>654</ele>
        <time>2024-12-08T06:29:49.620Z</time>
      </trkpt>
      <trkpt lat="45.97461" lon="3.93284">
        <ele>654</ele>
        <time>2024-12-08T06:29:50.619Z</time>
      </trkpt>
      <trkpt lat="45.97462" lon="3.93285">
        <ele>653</ele>
        <time>2024-12-08T06:29:51.619Z</time>
      </trkpt>
      <trkpt lat="45.97464" lon="3.93287">
        <ele>652</ele>
        <time>2024-12-08T06:29:52.620Z</time>
      </trkpt>
      <trkpt lat="45.97465" lon="3.93288">
        <ele>652</ele>
        <time>2024-12-08T06:29:53.620Z</time>
      </trkpt>
      <trkpt lat="45.97466" lon="3.9329">
        <ele>651</ele>
        <time>2024-12-08T06:29:54.619Z</time>
      </trkpt>
      <trkpt lat="45.97467" lon="3.93291">
        <ele>651</ele>
        <time>2024-12-08T06:29:55.619Z</time>
      </trkpt>
      <trkpt lat="45.97468" lon="3.93293">
        <ele>651</ele>
        <time>2024-12-08T06:29:56.620Z</time>
      </trkpt>
      <trkpt lat="45.9747" lon="3.93294">
        <ele>650</ele>
        <time>2024-12-08T06:29:57.620Z</time>
      </trkpt>
      <trkpt lat="45.97471" lon="3.93296">
        <ele>650</ele>
        <time>2024-12-08T06:29:58.619Z</time>
      </trkpt>
      <trkpt lat="45.97472" lon="3.93297">
        <ele>650</ele>
        <time>2024-12-08T06:29:59.620Z</time>
      </trkpt>
      <trkpt lat="45.97473" lon="3.93299">
        <ele>650</ele>
        <time>2024-12-08T06:30:00.619Z</time>
      </trkpt>
      <trkpt lat="45.97475" lon="3.93301">
        <ele>649</ele>
        <time>2024-12-08T06:30:01.619Z</time>
      </trkpt>
      <trkpt lat="45.97476" lon="3.93302">
        <ele>649</ele>
        <time>2024-12-08T06:30:02.619Z</time>
      </trkpt>
      <trkpt lat="45.97477" lon="3.93304">
        <ele>648</ele>
        <time>2024-12-08T06:30:03.619Z</time>
      </trkpt>
      <trkpt lat="45.97478" lon="3.93306">
        <ele>648</ele>
        <time>2024-12-08T06:30:04.620Z</time>
      </trkpt>
      <trkpt lat="45.97479" lon="3.93308">
        <ele>648</ele>
        <time>2024-12-08T06:30:05.619Z</time>
      </trkpt>
      <trkpt lat="45.9748" lon="3.9331">
        <ele>647</ele>
        <time>2024-12-08T06:30:06.619Z</time>
      </trkpt>
      <trkpt lat="45.97481" lon="3.93311">
        <ele>647</ele>
        <time>2024-12-08T06:30:07.619Z</time>
      </trkpt>
      <trkpt lat="45.97483" lon="3.93312">
        <ele>647</ele>
        <time>2024-12-08T06:30:08.620Z</time>
      </trkpt>
      <trkpt lat="45.97484" lon="3.93314">
        <ele>647</ele>
        <time>2024-12-08T06:30:09.619Z</time>
      </trkpt>
      <trkpt lat="45.97486" lon="3.93315">
        <ele>646</ele>
        <time>2024-12-08T06:30:10.619Z</time>
      </trkpt>
      <trkpt lat="45.97487" lon="3.93316">
        <ele>646</ele>
        <time>2024-12-08T06:30:11.619Z</time>
      </trkpt>
      <trkpt lat="45.97489" lon="3.93317">
        <ele>646</ele>
        <time>2024-12-08T06:30:12.619Z</time>
      </trkpt>
      <trkpt lat="45.9749" lon="3.93318">
        <ele>646</ele>
        <time>2024-12-08T06:30:13.620Z</time>
      </trkpt>
      <trkpt lat="45.97492" lon="3.9332">
        <ele>646</ele>
        <time>2024-12-08T06:30:14.619Z</time>
      </trkpt>
      <trkpt lat="45.97493" lon="3.93321">
        <ele>646</ele>
        <time>2024-12-08T06:30:15.619Z</time>
      </trkpt>
      <trkpt lat="45.97495" lon="3.93323">
        <ele>646</ele>
        <time>2024-12-08T06:30:16.619Z</time>
      </trkpt>
      <trkpt lat="45.97496" lon="3.93324">
        <ele>646</ele>
        <time>2024-12-08T06:30:17.619Z</time>
      </trkpt>
      <trkpt lat="45.97497" lon="3.93326">
        <ele>646</ele>
        <time>2024-12-08T06:30:18.619Z</time>
      </trkpt>
      <trkpt lat="45.97498" lon="3.93327">
        <ele>646</ele>
        <time>2024-12-08T06:30:19.620Z</time>
      </trkpt>
      <trkpt lat="45.975" lon="3.93328">
        <ele>645</ele>
        <time>2024-12-08T06:30:20.619Z</time>
      </trkpt>
      <trkpt lat="45.97501" lon="3.93329">
        <ele>645</ele>
        <time>2024-12-08T06:30:21.619Z</time>
      </trkpt>
      <trkpt lat="45.97502" lon="3.9333">
        <ele>645</ele>
        <time>2024-12-08T06:30:22.619Z</time>
      </trkpt>
      <trkpt lat="45.97504" lon="3.93331">
        <ele>644</ele>
        <time>2024-12-08T06:30:23.619Z</time>
      </trkpt>
      <trkpt lat="45.97506" lon="3.93332">
        <ele>644</ele>
        <time>2024-12-08T06:30:24.620Z</time>
      </trkpt>
      <trkpt lat="45.97507" lon="3.93334">
        <ele>644</ele>
        <time>2024-12-08T06:30:25.620Z</time>
      </trkpt>
      <trkpt lat="45.97509" lon="3.93335">
        <ele>644</ele>
        <time>2024-12-08T06:30:26.619Z</time>
      </trkpt>
      <trkpt lat="45.9751" lon="3.93336">
        <ele>644</ele>
        <time>2024-12-08T06:30:27.619Z</time>
      </trkpt>
      <trkpt lat="45.97511" lon="3.93337">
        <ele>643</ele>
        <time>2024-12-08T06:30:28.619Z</time>
      </trkpt>
      <trkpt lat="45.97513" lon="3.93338">
        <ele>643</ele>
        <time>2024-12-08T06:30:29.620Z</time>
      </trkpt>
      <trkpt lat="45.97514" lon="3.9334">
        <ele>643</ele>
        <time>2024-12-08T06:30:30.619Z</time>
      </trkpt>
      <trkpt lat="45.97515" lon="3.93341">
        <ele>643</ele>
        <time>2024-12-08T06:30:31.619Z</time>
      </trkpt>
      <trkpt lat="45.97517" lon="3.93343">
        <ele>643</ele>
        <time>2024-12-08T06:30:32.619Z</time>
      </trkpt>
      <trkpt lat="45.97518" lon="3.93344">
        <ele>642</ele>
        <time>2024-12-08T06:30:33.619Z</time>
      </trkpt>
      <trkpt lat="45.97519" lon="3.93346">
        <ele>642</ele>
        <time>2024-12-08T06:30:34.619Z</time>
      </trkpt>
      <trkpt lat="45.9752" lon="3.93348">
        <ele>642</ele>
        <time>2024-12-08T06:30:35.620Z</time>
      </trkpt>
      <trkpt lat="45.97521" lon="3.93349">
        <ele>642</ele>
        <time>2024-12-08T06:30:36.619Z</time>
      </trkpt>
      <trkpt lat="45.97523" lon="3.93351">
        <ele>642</ele>
        <time>2024-12-08T06:30:37.619Z</time>
      </trkpt>
      <trkpt lat="45.97524" lon="3.93352">
        <ele>642</ele>
        <time>2024-12-08T06:30:38.619Z</time>
      </trkpt>
      <trkpt lat="45.97526" lon="3.93354">
        <ele>642</ele>
        <time>2024-12-08T06:30:39.619Z</time>
      </trkpt>
      <trkpt lat="45.97527" lon="3.93356">
        <ele>642</ele>
        <time>2024-12-08T06:30:40.619Z</time>
      </trkpt>
      <trkpt lat="45.97527" lon="3.93358">
        <ele>642</ele>
        <time>2024-12-08T06:30:41.619Z</time>
      </trkpt>
      <trkpt lat="45.97528" lon="3.9336">
        <ele>642</ele>
        <time>2024-12-08T06:30:42.620Z</time>
      </trkpt>
      <trkpt lat="45.97529" lon="3.93361">
        <ele>642</ele>
        <time>2024-12-08T06:30:43.620Z</time>
      </trkpt>
      <trkpt lat="45.9753" lon="3.93363">
        <ele>642</ele>
        <time>2024-12-08T06:30:44.619Z</time>
      </trkpt>
      <trkpt lat="45.97531" lon="3.93364">
        <ele>643</ele>
        <time>2024-12-08T06:30:45.620Z</time>
      </trkpt>
      <trkpt lat="45.97532" lon="3.93365">
        <ele>643</ele>
        <time>2024-12-08T06:30:46.619Z</time>
      </trkpt>
      <trkpt lat="45.97533" lon="3.93366">
        <ele>643</ele>
        <time>2024-12-08T06:30:47.619Z</time>
      </trkpt>
      <trkpt lat="45.97534" lon="3.93368">
        <ele>643</ele>
        <time>2024-12-08T06:30:48.619Z</time>
      </trkpt>
      <trkpt lat="45.97535" lon="3.93369">
        <ele>643</ele>
        <time>2024-12-08T06:30:49.620Z</time>
      </trkpt>
      <trkpt lat="45.97536" lon="3.93371">
        <ele>643</ele>
        <time>2024-12-08T06:30:50.620Z</time>
      </trkpt>
      <trkpt lat="45.97537" lon="3.93373">
        <ele>643</ele>
        <time>2024-12-08T06:30:51.619Z</time>
      </trkpt>
      <trkpt lat="45.97538" lon="3.93375">
        <ele>643</ele>
        <time>2024-12-08T06:30:52.620Z</time>
      </trkpt>
      <trkpt lat="45.97539" lon="3.93376">
        <ele>643</ele>
        <time>2024-12-08T06:30:53.620Z</time>
      </trkpt>
      <trkpt lat="45.9754" lon="3.93378">
        <ele>642</ele>
        <time>2024-12-08T06:30:54.619Z</time>
      </trkpt>
      <trkpt lat="45.97541" lon="3.9338">
        <ele>642</ele>
        <time>2024-12-08T06:30:55.619Z</time>
      </trkpt>
      <trkpt lat="45.97543" lon="3.93381">
        <ele>642</ele>
        <time>2024-12-08T06:30:56.620Z</time>
      </trkpt>
      <trkpt lat="45.97544" lon="3.93383">
        <ele>642</ele>
        <time>2024-12-08T06:30:57.619Z</time>
      </trkpt>
      <trkpt lat="45.97546" lon="3.93385">
        <ele>641</ele>
        <time>2024-12-08T06:30:58.620Z</time>
      </trkpt>
      <trkpt lat="45.97547" lon="3.93386">
        <ele>641</ele>
        <time>2024-12-08T06:30:59.619Z</time>
      </trkpt>
      <trkpt lat="45.97548" lon="3.93387">
        <ele>641</ele>
        <time>2024-12-08T06:31:00.620Z</time>
      </trkpt>
      <trkpt lat="45.97549" lon="3.93388">
        <ele>641</ele>
        <time>2024-12-08T06:31:01.620Z</time>
      </trkpt>
      <trkpt lat="45.9755" lon="3.9339">
        <ele>641</ele>
        <time>2024-12-08T06:31:02.619Z</time>
      </trkpt>
      <trkpt lat="45.9755" lon="3.93392">
        <ele>640</ele>
        <time>2024-12-08T06:31:03.619Z</time>
      </trkpt>
      <trkpt lat="45.97551" lon="3.93393">
        <ele>640</ele>
        <time>2024-12-08T06:31:04.620Z</time>
      </trkpt>
      <trkpt lat="45.97553" lon="3.93395">
        <ele>639</ele>
        <time>2024-12-08T06:31:05.620Z</time>
      </trkpt>
      <trkpt lat="45.97554" lon="3.93397">
        <ele>639</ele>
        <time>2024-12-08T06:31:06.620Z</time>
      </trkpt>
      <trkpt lat="45.97555" lon="3.93398">
        <ele>639</ele>
        <time>2024-12-08T06:31:07.619Z</time>
      </trkpt>
      <trkpt lat="45.97556" lon="3.93399">
        <ele>638</ele>
        <time>2024-12-08T06:31:08.620Z</time>
      </trkpt>
      <trkpt lat="45.97557" lon="3.934">
        <ele>638</ele>
        <time>2024-12-08T06:31:09.619Z</time>
      </trkpt>
      <trkpt lat="45.97558" lon="3.93401">
        <ele>637</ele>
        <time>2024-12-08T06:31:10.620Z</time>
      </trkpt>
      <trkpt lat="45.97559" lon="3.93403">
        <ele>637</ele>
        <time>2024-12-08T06:31:11.619Z</time>
      </trkpt>
      <trkpt lat="45.97561" lon="3.93404">
        <ele>637</ele>
        <time>2024-12-08T06:31:12.619Z</time>
      </trkpt>
      <trkpt lat="45.97562" lon="3.93405">
        <ele>638</ele>
        <time>2024-12-08T06:31:13.619Z</time>
      </trkpt>
      <trkpt lat="45.97564" lon="3.93407">
        <ele>638</ele>
        <time>2024-12-08T06:31:14.620Z</time>
      </trkpt>
      <trkpt lat="45.97565" lon="3.93408">
        <ele>638</ele>
        <time>2024-12-08T06:31:15.620Z</time>
      </trkpt>
      <trkpt lat="45.97566" lon="3.9341">
        <ele>638</ele>
        <time>2024-12-08T06:31:16.619Z</time>
      </trkpt>
      <trkpt lat="45.97567" lon="3.93412">
        <ele>638</ele>
        <time>2024-12-08T06:31:17.619Z</time>
      </trkpt>
      <trkpt lat="45.97569" lon="3.93414">
        <ele>638</ele>
        <time>2024-12-08T06:31:18.620Z</time>
      </trkpt>
      <trkpt lat="45.97571" lon="3.93416">
        <ele>638</ele>
        <time>2024-12-08T06:31:19.619Z</time>
      </trkpt>
      <trkpt lat="45.97572" lon="3.93417">
        <ele>638</ele>
        <time>2024-12-08T06:31:20.620Z</time>
      </trkpt>
      <trkpt lat="45.97574" lon="3.93419">
        <ele>638</ele>
        <time>2024-12-08T06:31:21.619Z</time>
      </trkpt>
      <trkpt lat="45.97574" lon="3.9342">
        <ele>637</ele>
        <time>2024-12-08T06:31:22.619Z</time>
      </trkpt>
      <trkpt lat="45.97575" lon="3.93422">
        <ele>637</ele>
        <time>2024-12-08T06:31:23.620Z</time>
      </trkpt>
      <trkpt lat="45.97577" lon="3.93423">
        <ele>637</ele>
        <time>2024-12-08T06:31:24.620Z</time>
      </trkpt>
      <trkpt lat="45.97577" lon="3.93425">
        <ele>637</ele>
        <time>2024-12-08T06:31:25.620Z</time>
      </trkpt>
      <trkpt lat="45.97579" lon="3.93427">
        <ele>637</ele>
        <time>2024-12-08T06:31:26.620Z</time>
      </trkpt>
      <trkpt lat="45.9758" lon="3.93428">
        <ele>637</ele>
        <time>2024-12-08T06:31:27.619Z</time>
      </trkpt>
      <trkpt lat="45.97581" lon="3.9343">
        <ele>637</ele>
        <time>2024-12-08T06:31:28.619Z</time>
      </trkpt>
      <trkpt lat="45.97582" lon="3.93431">
        <ele>637</ele>
        <time>2024-12-08T06:31:29.619Z</time>
      </trkpt>
      <trkpt lat="45.97582" lon="3.93434">
        <ele>637</ele>
        <time>2024-12-08T06:31:30.619Z</time>
      </trkpt>
      <trkpt lat="45.97584" lon="3.93437">
        <ele>637</ele>
        <time>2024-12-08T06:31:31.619Z</time>
      </trkpt>
      <trkpt lat="45.97585" lon="3.9344">
        <ele>637</ele>
        <time>2024-12-08T06:31:32.620Z</time>
      </trkpt>
      <trkpt lat="45.97585" lon="3.93442">
        <ele>637</ele>
        <time>2024-12-08T06:31:33.620Z</time>
      </trkpt>
      <trkpt lat="45.97586" lon="3.93444">
        <ele>637</ele>
        <time>2024-12-08T06:31:34.620Z</time>
      </trkpt>
      <trkpt lat="45.97587" lon="3.93446">
        <ele>637</ele>
        <time>2024-12-08T06:31:35.620Z</time>
      </trkpt>
      <trkpt lat="45.97587" lon="3.93447">
        <ele>637</ele>
        <time>2024-12-08T06:31:36.620Z</time>
      </trkpt>
      <trkpt lat="45.97588" lon="3.93449">
        <ele>637</ele>
        <time>2024-12-08T06:31:37.619Z</time>
      </trkpt>
      <trkpt lat="45.97589" lon="3.93451">
        <ele>636</ele>
        <time>2024-12-08T06:31:38.620Z</time>
      </trkpt>
      <trkpt lat="45.9759" lon="3.93453">
        <ele>636</ele>
        <time>2024-12-08T06:31:39.620Z</time>
      </trkpt>
      <trkpt lat="45.97591" lon="3.93455">
        <ele>636</ele>
        <time>2024-12-08T06:31:40.619Z</time>
      </trkpt>
      <trkpt lat="45.97593" lon="3.93457">
        <ele>635</ele>
        <time>2024-12-08T06:31:41.620Z</time>
      </trkpt>
      <trkpt lat="45.97594" lon="3.93458">
        <ele>635</ele>
        <time>2024-12-08T06:31:42.619Z</time>
      </trkpt>
      <trkpt lat="45.97596" lon="3.9346">
        <ele>634</ele>
        <time>2024-12-08T06:31:43.619Z</time>
      </trkpt>
      <trkpt lat="45.97597" lon="3.93462">
        <ele>634</ele>
        <time>2024-12-08T06:31:44.620Z</time>
      </trkpt>
      <trkpt lat="45.97597" lon="3.93464">
        <ele>633</ele>
        <time>2024-12-08T06:31:45.619Z</time>
      </trkpt>
      <trkpt lat="45.97598" lon="3.93465">
        <ele>633</ele>
        <time>2024-12-08T06:31:46.619Z</time>
      </trkpt>
      <trkpt lat="45.97599" lon="3.93467">
        <ele>632</ele>
        <time>2024-12-08T06:31:47.619Z</time>
      </trkpt>
      <trkpt lat="45.976" lon="3.93471">
        <ele>632</ele>
        <time>2024-12-08T06:31:48.620Z</time>
      </trkpt>
      <trkpt lat="45.97601" lon="3.93474">
        <ele>631</ele>
        <time>2024-12-08T06:31:49.619Z</time>
      </trkpt>
      <trkpt lat="45.97602" lon="3.93476">
        <ele>631</ele>
        <time>2024-12-08T06:31:50.619Z</time>
      </trkpt>
      <trkpt lat="45.97603" lon="3.93478">
        <ele>631</ele>
        <time>2024-12-08T06:31:51.620Z</time>
      </trkpt>
      <trkpt lat="45.97603" lon="3.9348">
        <ele>630</ele>
        <time>2024-12-08T06:31:52.619Z</time>
      </trkpt>
      <trkpt lat="45.97604" lon="3.93482">
        <ele>630</ele>
        <time>2024-12-08T06:31:53.619Z</time>
      </trkpt>
      <trkpt lat="45.97605" lon="3.93484">
        <ele>629</ele>
        <time>2024-12-08T06:31:54.619Z</time>
      </trkpt>
      <trkpt lat="45.97606" lon="3.93485">
        <ele>629</ele>
        <time>2024-12-08T06:31:55.619Z</time>
      </trkpt>
      <trkpt lat="45.97606" lon="3.93487">
        <ele>628</ele>
        <time>2024-12-08T06:31:56.620Z</time>
      </trkpt>
      <trkpt lat="45.97607" lon="3.93489">
        <ele>628</ele>
        <time>2024-12-08T06:31:57.620Z</time>
      </trkpt>
      <trkpt lat="45.97608" lon="3.93491">
        <ele>627</ele>
        <time>2024-12-08T06:31:58.620Z</time>
      </trkpt>
      <trkpt lat="45.97609" lon="3.93493">
        <ele>627</ele>
        <time>2024-12-08T06:31:59.619Z</time>
      </trkpt>
      <trkpt lat="45.9761" lon="3.93495">
        <ele>626</ele>
        <time>2024-12-08T06:32:00.619Z</time>
      </trkpt>
      <trkpt lat="45.97611" lon="3.93496">
        <ele>626</ele>
        <time>2024-12-08T06:32:01.619Z</time>
      </trkpt>
      <trkpt lat="45.97612" lon="3.93498">
        <ele>626</ele>
        <time>2024-12-08T06:32:02.619Z</time>
      </trkpt>
      <trkpt lat="45.97613" lon="3.935">
        <ele>625</ele>
        <time>2024-12-08T06:32:03.620Z</time>
      </trkpt>
      <trkpt lat="45.97614" lon="3.93501">
        <ele>625</ele>
        <time>2024-12-08T06:32:04.620Z</time>
      </trkpt>
      <trkpt lat="45.97615" lon="3.93503">
        <ele>624</ele>
        <time>2024-12-08T06:32:05.620Z</time>
      </trkpt>
      <trkpt lat="45.97615" lon="3.93505">
        <ele>624</ele>
        <time>2024-12-08T06:32:06.620Z</time>
      </trkpt>
      <trkpt lat="45.97616" lon="3.93506">
        <ele>623</ele>
        <time>2024-12-08T06:32:07.619Z</time>
      </trkpt>
      <trkpt lat="45.97616" lon="3.93508">
        <ele>623</ele>
        <time>2024-12-08T06:32:08.619Z</time>
      </trkpt>
      <trkpt lat="45.97617" lon="3.9351">
        <ele>623</ele>
        <time>2024-12-08T06:32:09.619Z</time>
      </trkpt>
      <trkpt lat="45.97618" lon="3.93512">
        <ele>622</ele>
        <time>2024-12-08T06:32:10.620Z</time>
      </trkpt>
      <trkpt lat="45.97619" lon="3.93514">
        <ele>622</ele>
        <time>2024-12-08T06:32:11.619Z</time>
      </trkpt>
      <trkpt lat="45.97621" lon="3.93517">
        <ele>622</ele>
        <time>2024-12-08T06:32:12.619Z</time>
      </trkpt>
      <trkpt lat="45.97622" lon="3.9352">
        <ele>622</ele>
        <time>2024-12-08T06:32:13.620Z</time>
      </trkpt>
      <trkpt lat="45.97623" lon="3.93522">
        <ele>622</ele>
        <time>2024-12-08T06:32:14.619Z</time>
      </trkpt>
      <trkpt lat="45.97624" lon="3.93524">
        <ele>622</ele>
        <time>2024-12-08T06:32:15.619Z</time>
      </trkpt>
      <trkpt lat="45.97625" lon="3.93527">
        <ele>623</ele>
        <time>2024-12-08T06:32:16.619Z</time>
      </trkpt>
      <trkpt lat="45.97626" lon="3.93529">
        <ele>623</ele>
        <time>2024-12-08T06:32:17.619Z</time>
      </trkpt>
      <trkpt lat="45.97626" lon="3.93532">
        <ele>623</ele>
        <time>2024-12-08T06:32:18.619Z</time>
      </trkpt>
      <trkpt lat="45.97627" lon="3.93534">
        <ele>623</ele>
        <time>2024-12-08T06:32:19.619Z</time>
      </trkpt>
      <trkpt lat="45.97629" lon="3.93535">
        <ele>623</ele>
        <time>2024-12-08T06:32:20.619Z</time>
      </trkpt>
      <trkpt lat="45.9763" lon="3.93537">
        <ele>623</ele>
        <time>2024-12-08T06:32:21.620Z</time>
      </trkpt>
      <trkpt lat="45.97631" lon="3.93539">
        <ele>623</ele>
        <time>2024-12-08T06:32:22.620Z</time>
      </trkpt>
      <trkpt lat="45.97632" lon="3.9354">
        <ele>623</ele>
        <time>2024-12-08T06:32:23.619Z</time>
      </trkpt>
      <trkpt lat="45.97632" lon="3.93542">
        <ele>623</ele>
        <time>2024-12-08T06:32:24.619Z</time>
      </trkpt>
      <trkpt lat="45.97634" lon="3.93544">
        <ele>623</ele>
        <time>2024-12-08T06:32:25.619Z</time>
      </trkpt>
      <trkpt lat="45.97635" lon="3.93546">
        <ele>623</ele>
        <time>2024-12-08T06:32:26.619Z</time>
      </trkpt>
      <trkpt lat="45.97635" lon="3.93548">
        <ele>623</ele>
        <time>2024-12-08T06:32:27.620Z</time>
      </trkpt>
      <trkpt lat="45.97636" lon="3.9355">
        <ele>623</ele>
        <time>2024-12-08T06:32:28.619Z</time>
      </trkpt>
      <trkpt lat="45.97634" lon="3.93552">
        <ele>623</ele>
        <time>2024-12-08T06:32:29.619Z</time>
      </trkpt>
      <trkpt lat="45.97634" lon="3.93555">
        <ele>623</ele>
        <time>2024-12-08T06:32:30.619Z</time>
      </trkpt>
      <trkpt lat="45.97636" lon="3.93557">
        <ele>623</ele>
        <time>2024-12-08T06:32:31.619Z</time>
      </trkpt>
      <trkpt lat="45.97638" lon="3.93559">
        <ele>622</ele>
        <time>2024-12-08T06:32:32.619Z</time>
      </trkpt>
      <trkpt lat="45.9764" lon="3.93562">
        <ele>622</ele>
        <time>2024-12-08T06:32:33.619Z</time>
      </trkpt>
      <trkpt lat="45.97642" lon="3.93564">
        <ele>622</ele>
        <time>2024-12-08T06:32:34.619Z</time>
      </trkpt>
      <trkpt lat="45.97644" lon="3.93567">
        <ele>622</ele>
        <time>2024-12-08T06:32:35.620Z</time>
      </trkpt>
      <trkpt lat="45.97645" lon="3.93568">
        <ele>621</ele>
        <time>2024-12-08T06:32:36.620Z</time>
      </trkpt>
      <trkpt lat="45.97646" lon="3.9357">
        <ele>621</ele>
        <time>2024-12-08T06:32:37.619Z</time>
      </trkpt>
      <trkpt lat="45.97648" lon="3.93572">
        <ele>621</ele>
        <time>2024-12-08T06:32:38.620Z</time>
      </trkpt>
      <trkpt lat="45.97649" lon="3.93573">
        <ele>621</ele>
        <time>2024-12-08T06:32:39.619Z</time>
      </trkpt>
      <trkpt lat="45.97652" lon="3.93575">
        <ele>620</ele>
        <time>2024-12-08T06:32:40.620Z</time>
      </trkpt>
      <trkpt lat="45.97653" lon="3.93577">
        <ele>620</ele>
        <time>2024-12-08T06:32:41.619Z</time>
      </trkpt>
      <trkpt lat="45.97655" lon="3.93579">
        <ele>620</ele>
        <time>2024-12-08T06:32:42.620Z</time>
      </trkpt>
      <trkpt lat="45.97656" lon="3.93581">
        <ele>619</ele>
        <time>2024-12-08T06:32:43.620Z</time>
      </trkpt>
      <trkpt lat="45.97657" lon="3.93583">
        <ele>619</ele>
        <time>2024-12-08T06:32:44.620Z</time>
      </trkpt>
      <trkpt lat="45.97658" lon="3.93585">
        <ele>619</ele>
        <time>2024-12-08T06:32:45.619Z</time>
      </trkpt>
      <trkpt lat="45.97658" lon="3.93586">
        <ele>618</ele>
        <time>2024-12-08T06:32:46.620Z</time>
      </trkpt>
      <trkpt lat="45.97658" lon="3.93587">
        <ele>618</ele>
        <time>2024-12-08T06:32:47.620Z</time>
      </trkpt>
      <trkpt lat="45.97658" lon="3.93589">
        <ele>618</ele>
        <time>2024-12-08T06:32:48.620Z</time>
      </trkpt>
      <trkpt lat="45.97659" lon="3.9359">
        <ele>617</ele>
        <time>2024-12-08T06:32:49.620Z</time>
      </trkpt>
      <trkpt lat="45.97659" lon="3.93592">
        <ele>617</ele>
        <time>2024-12-08T06:32:50.619Z</time>
      </trkpt>
      <trkpt lat="45.9766" lon="3.93594">
        <ele>617</ele>
        <time>2024-12-08T06:32:51.620Z</time>
      </trkpt>
      <trkpt lat="45.9766" lon="3.93596">
        <ele>616</ele>
        <time>2024-12-08T06:32:52.619Z</time>
      </trkpt>
      <trkpt lat="45.97661" lon="3.93598">
        <ele>616</ele>
        <time>2024-12-08T06:32:53.620Z</time>
      </trkpt>
      <trkpt lat="45.97662" lon="3.936">
        <ele>616</ele>
        <time>2024-12-08T06:32:54.619Z</time>
      </trkpt>
      <trkpt lat="45.97663" lon="3.93602">
        <ele>615</ele>
        <time>2024-12-08T06:32:55.619Z</time>
      </trkpt>
      <trkpt lat="45.97663" lon="3.93604">
        <ele>615</ele>
        <time>2024-12-08T06:32:56.620Z</time>
      </trkpt>
      <trkpt lat="45.97664" lon="3.93606">
        <ele>615</ele>
        <time>2024-12-08T06:32:57.620Z</time>
      </trkpt>
      <trkpt lat="45.97664" lon="3.93608">
        <ele>614</ele>
        <time>2024-12-08T06:32:58.620Z</time>
      </trkpt>
      <trkpt lat="45.97664" lon="3.93609">
        <ele>614</ele>
        <time>2024-12-08T06:32:59.619Z</time>
      </trkpt>
      <trkpt lat="45.97664" lon="3.93611">
        <ele>613</ele>
        <time>2024-12-08T06:33:00.619Z</time>
      </trkpt>
      <trkpt lat="45.97665" lon="3.93614">
        <ele>613</ele>
        <time>2024-12-08T06:33:01.619Z</time>
      </trkpt>
      <trkpt lat="45.97664" lon="3.93616">
        <ele>612</ele>
        <time>2024-12-08T06:33:02.619Z</time>
      </trkpt>
      <trkpt lat="45.97664" lon="3.93618">
        <ele>611</ele>
        <time>2024-12-08T06:33:03.620Z</time>
      </trkpt>
      <trkpt lat="45.97664" lon="3.9362">
        <ele>611</ele>
        <time>2024-12-08T06:33:04.620Z</time>
      </trkpt>
      <trkpt lat="45.97664" lon="3.93622">
        <ele>610</ele>
        <time>2024-12-08T06:33:05.620Z</time>
      </trkpt>
      <trkpt lat="45.97664" lon="3.93623">
        <ele>610</ele>
        <time>2024-12-08T06:33:06.619Z</time>
      </trkpt>
      <trkpt lat="45.97665" lon="3.93625">
        <ele>610</ele>
        <time>2024-12-08T06:33:07.620Z</time>
      </trkpt>
      <trkpt lat="45.97666" lon="3.93627">
        <ele>609</ele>
        <time>2024-12-08T06:33:08.620Z</time>
      </trkpt>
      <trkpt lat="45.97667" lon="3.93629">
        <ele>609</ele>
        <time>2024-12-08T06:33:09.619Z</time>
      </trkpt>
      <trkpt lat="45.97667" lon="3.9363">
        <ele>608</ele>
        <time>2024-12-08T06:33:10.620Z</time>
      </trkpt>
      <trkpt lat="45.97668" lon="3.93632">
        <ele>608</ele>
        <time>2024-12-08T06:33:11.620Z</time>
      </trkpt>
      <trkpt lat="45.97669" lon="3.93634">
        <ele>607</ele>
        <time>2024-12-08T06:33:12.619Z</time>
      </trkpt>
      <trkpt lat="45.9767" lon="3.93635">
        <ele>607</ele>
        <time>2024-12-08T06:33:13.620Z</time>
      </trkpt>
      <trkpt lat="45.9767" lon="3.93637">
        <ele>606</ele>
        <time>2024-12-08T06:33:14.619Z</time>
      </trkpt>
      <trkpt lat="45.9767" lon="3.93639">
        <ele>606</ele>
        <time>2024-12-08T06:33:15.619Z</time>
      </trkpt>
      <trkpt lat="45.97671" lon="3.93641">
        <ele>605</ele>
        <time>2024-12-08T06:33:16.619Z</time>
      </trkpt>
      <trkpt lat="45.97672" lon="3.93643">
        <ele>605</ele>
        <time>2024-12-08T06:33:17.619Z</time>
      </trkpt>
      <trkpt lat="45.97673" lon="3.93645">
        <ele>605</ele>
        <time>2024-12-08T06:33:18.620Z</time>
      </trkpt>
      <trkpt lat="45.97673" lon="3.93647">
        <ele>604</ele>
        <time>2024-12-08T06:33:19.619Z</time>
      </trkpt>
      <trkpt lat="45.97674" lon="3.93649">
        <ele>604</ele>
        <time>2024-12-08T06:33:20.619Z</time>
      </trkpt>
      <trkpt lat="45.97675" lon="3.93651">
        <ele>604</ele>
        <time>2024-12-08T06:33:21.620Z</time>
      </trkpt>
      <trkpt lat="45.97675" lon="3.93653">
        <ele>604</ele>
        <time>2024-12-08T06:33:22.620Z</time>
      </trkpt>
      <trkpt lat="45.97676" lon="3.93655">
        <ele>604</ele>
        <time>2024-12-08T06:33:23.620Z</time>
      </trkpt>
      <trkpt lat="45.97676" lon="3.93657">
        <ele>604</ele>
        <time>2024-12-08T06:33:24.619Z</time>
      </trkpt>
      <trkpt lat="45.97677" lon="3.93659">
        <ele>603</ele>
        <time>2024-12-08T06:33:25.619Z</time>
      </trkpt>
      <trkpt lat="45.97678" lon="3.93661">
        <ele>603</ele>
        <time>2024-12-08T06:33:26.619Z</time>
      </trkpt>
      <trkpt lat="45.97678" lon="3.93663">
        <ele>603</ele>
        <time>2024-12-08T06:33:27.620Z</time>
      </trkpt>
      <trkpt lat="45.97679" lon="3.93665">
        <ele>603</ele>
        <time>2024-12-08T06:33:28.619Z</time>
      </trkpt>
      <trkpt lat="45.9768" lon="3.93667">
        <ele>603</ele>
        <time>2024-12-08T06:33:29.620Z</time>
      </trkpt>
      <trkpt lat="45.9768" lon="3.93669">
        <ele>602</ele>
        <time>2024-12-08T06:33:30.620Z</time>
      </trkpt>
      <trkpt lat="45.97682" lon="3.93671">
        <ele>602</ele>
        <time>2024-12-08T06:33:31.620Z</time>
      </trkpt>
      <trkpt lat="45.97682" lon="3.93673">
        <ele>602</ele>
        <time>2024-12-08T06:33:32.619Z</time>
      </trkpt>
      <trkpt lat="45.97683" lon="3.93674">
        <ele>602</ele>
        <time>2024-12-08T06:33:33.619Z</time>
      </trkpt>
      <trkpt lat="45.97683" lon="3.93676">
        <ele>603</ele>
        <time>2024-12-08T06:33:34.619Z</time>
      </trkpt>
      <trkpt lat="45.97684" lon="3.93677">
        <ele>603</ele>
        <time>2024-12-08T06:33:35.620Z</time>
      </trkpt>
      <trkpt lat="45.97685" lon="3.93679">
        <ele>603</ele>
        <time>2024-12-08T06:33:36.619Z</time>
      </trkpt>
      <trkpt lat="45.97686" lon="3.9368">
        <ele>604</ele>
        <time>2024-12-08T06:33:37.620Z</time>
      </trkpt>
      <trkpt lat="45.97687" lon="3.93682">
        <ele>604</ele>
        <time>2024-12-08T06:33:38.620Z</time>
      </trkpt>
      <trkpt lat="45.97687" lon="3.93684">
        <ele>604</ele>
        <time>2024-12-08T06:33:39.619Z</time>
      </trkpt>
      <trkpt lat="45.97686" lon="3.93688">
        <ele>604</ele>
        <time>2024-12-08T06:33:40.619Z</time>
      </trkpt>
      <trkpt lat="45.97687" lon="3.9369">
        <ele>604</ele>
        <time>2024-12-08T06:33:41.619Z</time>
      </trkpt>
      <trkpt lat="45.97688" lon="3.93693">
        <ele>603</ele>
        <time>2024-12-08T06:33:42.619Z</time>
      </trkpt>
      <trkpt lat="45.97689" lon="3.93695">
        <ele>603</ele>
        <time>2024-12-08T06:33:43.620Z</time>
      </trkpt>
      <trkpt lat="45.97691" lon="3.93697">
        <ele>602</ele>
        <time>2024-12-08T06:33:44.620Z</time>
      </trkpt>
      <trkpt lat="45.97692" lon="3.93699">
        <ele>602</ele>
        <time>2024-12-08T06:33:45.619Z</time>
      </trkpt>
      <trkpt lat="45.97693" lon="3.93701">
        <ele>602</ele>
        <time>2024-12-08T06:33:46.619Z</time>
      </trkpt>
      <trkpt lat="45.97694" lon="3.93704">
        <ele>602</ele>
        <time>2024-12-08T06:33:47.619Z</time>
      </trkpt>
      <trkpt lat="45.97694" lon="3.93706">
        <ele>601</ele>
        <time>2024-12-08T06:33:48.619Z</time>
      </trkpt>
      <trkpt lat="45.97695" lon="3.93707">
        <ele>601</ele>
        <time>2024-12-08T06:33:49.619Z</time>
      </trkpt>
      <trkpt lat="45.97696" lon="3.93709">
        <ele>601</ele>
        <time>2024-12-08T06:33:50.620Z</time>
      </trkpt>
      <trkpt lat="45.97697" lon="3.93711">
        <ele>601</ele>
        <time>2024-12-08T06:33:51.620Z</time>
      </trkpt>
      <trkpt lat="45.97698" lon="3.93713">
        <ele>601</ele>
        <time>2024-12-08T06:33:52.619Z</time>
      </trkpt>
      <trkpt lat="45.97699" lon="3.93715">
        <ele>600</ele>
        <time>2024-12-08T06:33:53.619Z</time>
      </trkpt>
      <trkpt lat="45.97699" lon="3.93717">
        <ele>600</ele>
        <time>2024-12-08T06:33:54.619Z</time>
      </trkpt>
      <trkpt lat="45.977" lon="3.93718">
        <ele>599</ele>
        <time>2024-12-08T06:33:55.619Z</time>
      </trkpt>
      <trkpt lat="45.977" lon="3.9372">
        <ele>599</ele>
        <time>2024-12-08T06:33:56.620Z</time>
      </trkpt>
      <trkpt lat="45.97701" lon="3.93722">
        <ele>598</ele>
        <time>2024-12-08T06:33:57.619Z</time>
      </trkpt>
      <trkpt lat="45.97703" lon="3.93724">
        <ele>598</ele>
        <time>2024-12-08T06:33:58.620Z</time>
      </trkpt>
      <trkpt lat="45.97704" lon="3.93727">
        <ele>598</ele>
        <time>2024-12-08T06:33:59.620Z</time>
      </trkpt>
      <trkpt lat="45.97705" lon="3.93728">
        <ele>598</ele>
        <time>2024-12-08T06:34:00.620Z</time>
      </trkpt>
      <trkpt lat="45.97707" lon="3.9373">
        <ele>598</ele>
        <time>2024-12-08T06:34:01.620Z</time>
      </trkpt>
      <trkpt lat="45.97708" lon="3.93732">
        <ele>598</ele>
        <time>2024-12-08T06:34:02.620Z</time>
      </trkpt>
      <trkpt lat="45.97709" lon="3.93734">
        <ele>598</ele>
        <time>2024-12-08T06:34:03.619Z</time>
      </trkpt>
      <trkpt lat="45.9771" lon="3.93736">
        <ele>598</ele>
        <time>2024-12-08T06:34:04.620Z</time>
      </trkpt>
      <trkpt lat="45.97711" lon="3.93739">
        <ele>598</ele>
        <time>2024-12-08T06:34:05.619Z</time>
      </trkpt>
      <trkpt lat="45.97712" lon="3.93741">
        <ele>598</ele>
        <time>2024-12-08T06:34:06.620Z</time>
      </trkpt>
      <trkpt lat="45.97713" lon="3.93743">
        <ele>598</ele>
        <time>2024-12-08T06:34:07.620Z</time>
      </trkpt>
      <trkpt lat="45.97714" lon="3.93745">
        <ele>597</ele>
        <time>2024-12-08T06:34:08.619Z</time>
      </trkpt>
      <trkpt lat="45.97716" lon="3.93747">
        <ele>597</ele>
        <time>2024-12-08T06:34:09.619Z</time>
      </trkpt>
      <trkpt lat="45.97717" lon="3.93749">
        <ele>597</ele>
        <time>2024-12-08T06:34:10.619Z</time>
      </trkpt>
      <trkpt lat="45.97718" lon="3.93752">
        <ele>597</ele>
        <time>2024-12-08T06:34:11.620Z</time>
      </trkpt>
      <trkpt lat="45.97719" lon="3.93754">
        <ele>597</ele>
        <time>2024-12-08T06:34:12.620Z</time>
      </trkpt>
      <trkpt lat="45.97721" lon="3.93756">
        <ele>596</ele>
        <time>2024-12-08T06:34:13.619Z</time>
      </trkpt>
      <trkpt lat="45.97721" lon="3.93758">
        <ele>596</ele>
        <time>2024-12-08T06:34:14.620Z</time>
      </trkpt>
      <trkpt lat="45.97721" lon="3.9376">
        <ele>595</ele>
        <time>2024-12-08T06:34:15.619Z</time>
      </trkpt>
      <trkpt lat="45.97721" lon="3.93762">
        <ele>595</ele>
        <time>2024-12-08T06:34:16.619Z</time>
      </trkpt>
      <trkpt lat="45.97722" lon="3.93763">
        <ele>595</ele>
        <time>2024-12-08T06:34:17.620Z</time>
      </trkpt>
      <trkpt lat="45.97723" lon="3.93765">
        <ele>594</ele>
        <time>2024-12-08T06:34:18.620Z</time>
      </trkpt>
      <trkpt lat="45.97724" lon="3.93767">
        <ele>594</ele>
        <time>2024-12-08T06:34:19.620Z</time>
      </trkpt>
      <trkpt lat="45.97725" lon="3.93769">
        <ele>594</ele>
        <time>2024-12-08T06:34:20.619Z</time>
      </trkpt>
      <trkpt lat="45.97726" lon="3.93772">
        <ele>594</ele>
        <time>2024-12-08T06:34:21.620Z</time>
      </trkpt>
      <trkpt lat="45.97727" lon="3.93774">
        <ele>594</ele>
        <time>2024-12-08T06:34:22.619Z</time>
      </trkpt>
      <trkpt lat="45.97728" lon="3.93777">
        <ele>594</ele>
        <time>2024-12-08T06:34:23.619Z</time>
      </trkpt>
      <trkpt lat="45.97729" lon="3.93779">
        <ele>594</ele>
        <time>2024-12-08T06:34:24.620Z</time>
      </trkpt>
      <trkpt lat="45.97729" lon="3.93782">
        <ele>594</ele>
        <time>2024-12-08T06:34:25.619Z</time>
      </trkpt>
      <trkpt lat="45.9773" lon="3.93784">
        <ele>593</ele>
        <time>2024-12-08T06:34:26.619Z</time>
      </trkpt>
      <trkpt lat="45.97732" lon="3.93786">
        <ele>593</ele>
        <time>2024-12-08T06:34:27.620Z</time>
      </trkpt>
      <trkpt lat="45.97733" lon="3.93787">
        <ele>593</ele>
        <time>2024-12-08T06:34:28.620Z</time>
      </trkpt>
      <trkpt lat="45.97733" lon="3.93789">
        <ele>593</ele>
        <time>2024-12-08T06:34:29.620Z</time>
      </trkpt>
      <trkpt lat="45.97734" lon="3.93791">
        <ele>592</ele>
        <time>2024-12-08T06:34:30.620Z</time>
      </trkpt>
      <trkpt lat="45.97735" lon="3.93793">
        <ele>592</ele>
        <time>2024-12-08T06:34:31.620Z</time>
      </trkpt>
      <trkpt lat="45.97736" lon="3.93795">
        <ele>592</ele>
        <time>2024-12-08T06:34:32.620Z</time>
      </trkpt>
      <trkpt lat="45.97737" lon="3.93797">
        <ele>592</ele>
        <time>2024-12-08T06:34:33.619Z</time>
      </trkpt>
      <trkpt lat="45.97737" lon="3.93799">
        <ele>592</ele>
        <time>2024-12-08T06:34:34.619Z</time>
      </trkpt>
      <trkpt lat="45.97738" lon="3.93801">
        <ele>592</ele>
        <time>2024-12-08T06:34:35.619Z</time>
      </trkpt>
      <trkpt lat="45.97739" lon="3.93803">
        <ele>592</ele>
        <time>2024-12-08T06:34:36.619Z</time>
      </trkpt>
      <trkpt lat="45.97739" lon="3.93805">
        <ele>592</ele>
        <time>2024-12-08T06:34:37.620Z</time>
      </trkpt>
      <trkpt lat="45.9774" lon="3.93808">
        <ele>592</ele>
        <time>2024-12-08T06:34:38.619Z</time>
      </trkpt>
      <trkpt lat="45.97741" lon="3.9381">
        <ele>592</ele>
        <time>2024-12-08T06:34:39.620Z</time>
      </trkpt>
      <trkpt lat="45.97741" lon="3.93812">
        <ele>591</ele>
        <time>2024-12-08T06:34:40.620Z</time>
      </trkpt>
      <trkpt lat="45.97742" lon="3.93814">
        <ele>591</ele>
        <time>2024-12-08T06:34:41.619Z</time>
      </trkpt>
      <trkpt lat="45.97744" lon="3.93816">
        <ele>591</ele>
        <time>2024-12-08T06:34:42.619Z</time>
      </trkpt>
      <trkpt lat="45.97745" lon="3.93818">
        <ele>591</ele>
        <time>2024-12-08T06:34:43.619Z</time>
      </trkpt>
      <trkpt lat="45.97745" lon="3.9382">
        <ele>590</ele>
        <time>2024-12-08T06:34:44.619Z</time>
      </trkpt>
      <trkpt lat="45.97746" lon="3.93822">
        <ele>590</ele>
        <time>2024-12-08T06:34:45.619Z</time>
      </trkpt>
      <trkpt lat="45.97746" lon="3.93823">
        <ele>589</ele>
        <time>2024-12-08T06:34:46.620Z</time>
      </trkpt>
      <trkpt lat="45.97747" lon="3.93825">
        <ele>589</ele>
        <time>2024-12-08T06:34:47.620Z</time>
      </trkpt>
      <trkpt lat="45.97747" lon="3.93827">
        <ele>588</ele>
        <time>2024-12-08T06:34:48.619Z</time>
      </trkpt>
      <trkpt lat="45.97748" lon="3.93829">
        <ele>588</ele>
        <time>2024-12-08T06:34:49.620Z</time>
      </trkpt>
      <trkpt lat="45.9775" lon="3.93832">
        <ele>588</ele>
        <time>2024-12-08T06:34:50.620Z</time>
      </trkpt>
      <trkpt lat="45.97751" lon="3.93834">
        <ele>588</ele>
        <time>2024-12-08T06:34:51.620Z</time>
      </trkpt>
      <trkpt lat="45.97752" lon="3.93836">
        <ele>587</ele>
        <time>2024-12-08T06:34:52.620Z</time>
      </trkpt>
      <trkpt lat="45.97753" lon="3.93837">
        <ele>587</ele>
        <time>2024-12-08T06:34:53.620Z</time>
      </trkpt>
      <trkpt lat="45.97754" lon="3.93839">
        <ele>587</ele>
        <time>2024-12-08T06:34:54.620Z</time>
      </trkpt>
      <trkpt lat="45.97755" lon="3.93841">
        <ele>587</ele>
        <time>2024-12-08T06:34:55.620Z</time>
      </trkpt>
      <trkpt lat="45.97756" lon="3.93844">
        <ele>587</ele>
        <time>2024-12-08T06:34:56.619Z</time>
      </trkpt>
      <trkpt lat="45.97757" lon="3.93846">
        <ele>587</ele>
        <time>2024-12-08T06:34:57.620Z</time>
      </trkpt>
      <trkpt lat="45.97758" lon="3.93848">
        <ele>587</ele>
        <time>2024-12-08T06:34:58.619Z</time>
      </trkpt>
      <trkpt lat="45.97757" lon="3.9385">
        <ele>587</ele>
        <time>2024-12-08T06:34:59.619Z</time>
      </trkpt>
      <trkpt lat="45.97757" lon="3.93852">
        <ele>587</ele>
        <time>2024-12-08T06:35:00.620Z</time>
      </trkpt>
      <trkpt lat="45.97758" lon="3.93854">
        <ele>587</ele>
        <time>2024-12-08T06:35:01.620Z</time>
      </trkpt>
      <trkpt lat="45.97758" lon="3.93855">
        <ele>587</ele>
        <time>2024-12-08T06:35:02.620Z</time>
      </trkpt>
      <trkpt lat="45.97759" lon="3.93857">
        <ele>587</ele>
        <time>2024-12-08T06:35:03.619Z</time>
      </trkpt>
      <trkpt lat="45.9776" lon="3.93859">
        <ele>587</ele>
        <time>2024-12-08T06:35:04.620Z</time>
      </trkpt>
      <trkpt lat="45.9776" lon="3.9386">
        <ele>587</ele>
        <time>2024-12-08T06:35:05.619Z</time>
      </trkpt>
      <trkpt lat="45.97761" lon="3.93862">
        <ele>587</ele>
        <time>2024-12-08T06:35:06.619Z</time>
      </trkpt>
      <trkpt lat="45.97762" lon="3.93864">
        <ele>587</ele>
        <time>2024-12-08T06:35:07.619Z</time>
      </trkpt>
      <trkpt lat="45.97763" lon="3.93866">
        <ele>586</ele>
        <time>2024-12-08T06:35:08.619Z</time>
      </trkpt>
      <trkpt lat="45.97763" lon="3.93868">
        <ele>586</ele>
        <time>2024-12-08T06:35:09.620Z</time>
      </trkpt>
      <trkpt lat="45.97763" lon="3.9387">
        <ele>586</ele>
        <time>2024-12-08T06:35:10.619Z</time>
      </trkpt>
      <trkpt lat="45.97764" lon="3.93872">
        <ele>586</ele>
        <time>2024-12-08T06:35:11.619Z</time>
      </trkpt>
      <trkpt lat="45.97765" lon="3.93874">
        <ele>586</ele>
        <time>2024-12-08T06:35:12.619Z</time>
      </trkpt>
      <trkpt lat="45.97766" lon="3.93876">
        <ele>586</ele>
        <time>2024-12-08T06:35:13.620Z</time>
      </trkpt>
      <trkpt lat="45.97767" lon="3.93878">
        <ele>586</ele>
        <time>2024-12-08T06:35:14.620Z</time>
      </trkpt>
      <trkpt lat="45.97768" lon="3.9388">
        <ele>585</ele>
        <time>2024-12-08T06:35:15.619Z</time>
      </trkpt>
      <trkpt lat="45.97768" lon="3.93881">
        <ele>585</ele>
        <time>2024-12-08T06:35:16.619Z</time>
      </trkpt>
      <trkpt lat="45.97769" lon="3.93883">
        <ele>585</ele>
        <time>2024-12-08T06:35:17.619Z</time>
      </trkpt>
      <trkpt lat="45.9777" lon="3.93885">
        <ele>585</ele>
        <time>2024-12-08T06:35:18.619Z</time>
      </trkpt>
      <trkpt lat="45.97771" lon="3.93887">
        <ele>585</ele>
        <time>2024-12-08T06:35:19.620Z</time>
      </trkpt>
      <trkpt lat="45.97771" lon="3.93889">
        <ele>585</ele>
        <time>2024-12-08T06:35:20.619Z</time>
      </trkpt>
      <trkpt lat="45.97772" lon="3.93891">
        <ele>585</ele>
        <time>2024-12-08T06:35:21.619Z</time>
      </trkpt>
      <trkpt lat="45.97772" lon="3.93894">
        <ele>585</ele>
        <time>2024-12-08T06:35:22.620Z</time>
      </trkpt>
      <trkpt lat="45.97773" lon="3.93896">
        <ele>584</ele>
        <time>2024-12-08T06:35:23.619Z</time>
      </trkpt>
      <trkpt lat="45.97774" lon="3.93898">
        <ele>584</ele>
        <time>2024-12-08T06:35:24.620Z</time>
      </trkpt>
      <trkpt lat="45.97775" lon="3.939">
        <ele>584</ele>
        <time>2024-12-08T06:35:25.619Z</time>
      </trkpt>
      <trkpt lat="45.97776" lon="3.93902">
        <ele>583</ele>
        <time>2024-12-08T06:35:26.620Z</time>
      </trkpt>
      <trkpt lat="45.97777" lon="3.93903">
        <ele>583</ele>
        <time>2024-12-08T06:35:27.619Z</time>
      </trkpt>
      <trkpt lat="45.97778" lon="3.93906">
        <ele>583</ele>
        <time>2024-12-08T06:35:28.620Z</time>
      </trkpt>
      <trkpt lat="45.97778" lon="3.93908">
        <ele>583</ele>
        <time>2024-12-08T06:35:29.619Z</time>
      </trkpt>
      <trkpt lat="45.97779" lon="3.9391">
        <ele>583</ele>
        <time>2024-12-08T06:35:30.620Z</time>
      </trkpt>
      <trkpt lat="45.9778" lon="3.93913">
        <ele>583</ele>
        <time>2024-12-08T06:35:31.619Z</time>
      </trkpt>
      <trkpt lat="45.97781" lon="3.93915">
        <ele>583</ele>
        <time>2024-12-08T06:35:32.619Z</time>
      </trkpt>
      <trkpt lat="45.97781" lon="3.93917">
        <ele>582</ele>
        <time>2024-12-08T06:35:33.620Z</time>
      </trkpt>
      <trkpt lat="45.97782" lon="3.93919">
        <ele>582</ele>
        <time>2024-12-08T06:35:34.620Z</time>
      </trkpt>
      <trkpt lat="45.97783" lon="3.93921">
        <ele>582</ele>
        <time>2024-12-08T06:35:35.619Z</time>
      </trkpt>
      <trkpt lat="45.97783" lon="3.93923">
        <ele>581</ele>
        <time>2024-12-08T06:35:36.620Z</time>
      </trkpt>
      <trkpt lat="45.97784" lon="3.93924">
        <ele>581</ele>
        <time>2024-12-08T06:35:37.619Z</time>
      </trkpt>
      <trkpt lat="45.97785" lon="3.93926">
        <ele>580</ele>
        <time>2024-12-08T06:35:38.620Z</time>
      </trkpt>
      <trkpt lat="45.97786" lon="3.93928">
        <ele>580</ele>
        <time>2024-12-08T06:35:39.620Z</time>
      </trkpt>
      <trkpt lat="45.97787" lon="3.93931">
        <ele>580</ele>
        <time>2024-12-08T06:35:40.620Z</time>
      </trkpt>
      <trkpt lat="45.97788" lon="3.93933">
        <ele>579</ele>
        <time>2024-12-08T06:35:41.619Z</time>
      </trkpt>
      <trkpt lat="45.97788" lon="3.93935">
        <ele>579</ele>
        <time>2024-12-08T06:35:42.619Z</time>
      </trkpt>
      <trkpt lat="45.97789" lon="3.93938">
        <ele>579</ele>
        <time>2024-12-08T06:35:43.619Z</time>
      </trkpt>
      <trkpt lat="45.9779" lon="3.9394">
        <ele>579</ele>
        <time>2024-12-08T06:35:44.619Z</time>
      </trkpt>
      <trkpt lat="45.9779" lon="3.93942">
        <ele>579</ele>
        <time>2024-12-08T06:35:45.620Z</time>
      </trkpt>
      <trkpt lat="45.97791" lon="3.93944">
        <ele>578</ele>
        <time>2024-12-08T06:35:46.619Z</time>
      </trkpt>
      <trkpt lat="45.97791" lon="3.93946">
        <ele>578</ele>
        <time>2024-12-08T06:35:47.619Z</time>
      </trkpt>
      <trkpt lat="45.97792" lon="3.93948">
        <ele>578</ele>
        <time>2024-12-08T06:35:48.619Z</time>
      </trkpt>
      <trkpt lat="45.97792" lon="3.9395">
        <ele>578</ele>
        <time>2024-12-08T06:35:49.620Z</time>
      </trkpt>
      <trkpt lat="45.97793" lon="3.93952">
        <ele>577</ele>
        <time>2024-12-08T06:35:50.619Z</time>
      </trkpt>
      <trkpt lat="45.97794" lon="3.93955">
        <ele>577</ele>
        <time>2024-12-08T06:35:51.620Z</time>
      </trkpt>
      <trkpt lat="45.97794" lon="3.93957">
        <ele>577</ele>
        <time>2024-12-08T06:35:52.619Z</time>
      </trkpt>
      <trkpt lat="45.97795" lon="3.93959">
        <ele>577</ele>
        <time>2024-12-08T06:35:53.619Z</time>
      </trkpt>
      <trkpt lat="45.97795" lon="3.93962">
        <ele>576</ele>
        <time>2024-12-08T06:35:54.619Z</time>
      </trkpt>
      <trkpt lat="45.97795" lon="3.93964">
        <ele>576</ele>
        <time>2024-12-08T06:35:55.620Z</time>
      </trkpt>
      <trkpt lat="45.97795" lon="3.93966">
        <ele>576</ele>
        <time>2024-12-08T06:35:56.619Z</time>
      </trkpt>
      <trkpt lat="45.97796" lon="3.93968">
        <ele>576</ele>
        <time>2024-12-08T06:35:57.620Z</time>
      </trkpt>
      <trkpt lat="45.97797" lon="3.9397">
        <ele>575</ele>
        <time>2024-12-08T06:35:58.620Z</time>
      </trkpt>
      <trkpt lat="45.97797" lon="3.93972">
        <ele>575</ele>
        <time>2024-12-08T06:35:59.619Z</time>
      </trkpt>
      <trkpt lat="45.97798" lon="3.93975">
        <ele>575</ele>
        <time>2024-12-08T06:36:00.620Z</time>
      </trkpt>
      <trkpt lat="45.97799" lon="3.93977">
        <ele>575</ele>
        <time>2024-12-08T06:36:01.619Z</time>
      </trkpt>
      <trkpt lat="45.978" lon="3.93979">
        <ele>575</ele>
        <time>2024-12-08T06:36:02.620Z</time>
      </trkpt>
      <trkpt lat="45.978" lon="3.93981">
        <ele>574</ele>
        <time>2024-12-08T06:36:03.619Z</time>
      </trkpt>
      <trkpt lat="45.97801" lon="3.93983">
        <ele>574</ele>
        <time>2024-12-08T06:36:04.619Z</time>
      </trkpt>
      <trkpt lat="45.97802" lon="3.93985">
        <ele>574</ele>
        <time>2024-12-08T06:36:05.619Z</time>
      </trkpt>
      <trkpt lat="45.97802" lon="3.93987">
        <ele>574</ele>
        <time>2024-12-08T06:36:06.619Z</time>
      </trkpt>
      <trkpt lat="45.97803" lon="3.9399">
        <ele>574</ele>
        <time>2024-12-08T06:36:07.619Z</time>
      </trkpt>
      <trkpt lat="45.97804" lon="3.93992">
        <ele>574</ele>
        <time>2024-12-08T06:36:08.619Z</time>
      </trkpt>
      <trkpt lat="45.97804" lon="3.93994">
        <ele>575</ele>
        <time>2024-12-08T06:36:09.619Z</time>
      </trkpt>
      <trkpt lat="45.97805" lon="3.93996">
        <ele>575</ele>
        <time>2024-12-08T06:36:10.620Z</time>
      </trkpt>
      <trkpt lat="45.97805" lon="3.93999">
        <ele>575</ele>
        <time>2024-12-08T06:36:11.619Z</time>
      </trkpt>
      <trkpt lat="45.97806" lon="3.94001">
        <ele>575</ele>
        <time>2024-12-08T06:36:12.620Z</time>
      </trkpt>
      <trkpt lat="45.97806" lon="3.94004">
        <ele>575</ele>
        <time>2024-12-08T06:36:13.620Z</time>
      </trkpt>
      <trkpt lat="45.97807" lon="3.94006">
        <ele>575</ele>
        <time>2024-12-08T06:36:14.619Z</time>
      </trkpt>
      <trkpt lat="45.97808" lon="3.94009">
        <ele>575</ele>
        <time>2024-12-08T06:36:15.619Z</time>
      </trkpt>
      <trkpt lat="45.97809" lon="3.94011">
        <ele>575</ele>
        <time>2024-12-08T06:36:16.619Z</time>
      </trkpt>
      <trkpt lat="45.97809" lon="3.94014">
        <ele>575</ele>
        <time>2024-12-08T06:36:17.620Z</time>
      </trkpt>
      <trkpt lat="45.97809" lon="3.94016">
        <ele>575</ele>
        <time>2024-12-08T06:36:18.620Z</time>
      </trkpt>
      <trkpt lat="45.97809" lon="3.94019">
        <ele>575</ele>
        <time>2024-12-08T06:36:19.619Z</time>
      </trkpt>
      <trkpt lat="45.9781" lon="3.94021">
        <ele>575</ele>
        <time>2024-12-08T06:36:20.619Z</time>
      </trkpt>
      <trkpt lat="45.9781" lon="3.94023">
        <ele>574</ele>
        <time>2024-12-08T06:36:21.620Z</time>
      </trkpt>
      <trkpt lat="45.9781" lon="3.94026">
        <ele>574</ele>
        <time>2024-12-08T06:36:22.619Z</time>
      </trkpt>
      <trkpt lat="45.9781" lon="3.94028">
        <ele>574</ele>
        <time>2024-12-08T06:36:23.620Z</time>
      </trkpt>
      <trkpt lat="45.97811" lon="3.9403">
        <ele>574</ele>
        <time>2024-12-08T06:36:24.619Z</time>
      </trkpt>
      <trkpt lat="45.97811" lon="3.94033">
        <ele>574</ele>
        <time>2024-12-08T06:36:25.620Z</time>
      </trkpt>
      <trkpt lat="45.97811" lon="3.94035">
        <ele>573</ele>
        <time>2024-12-08T06:36:26.619Z</time>
      </trkpt>
      <trkpt lat="45.97812" lon="3.94037">
        <ele>573</ele>
        <time>2024-12-08T06:36:27.619Z</time>
      </trkpt>
      <trkpt lat="45.97812" lon="3.94039">
        <ele>572</ele>
        <time>2024-12-08T06:36:28.620Z</time>
      </trkpt>
      <trkpt lat="45.97812" lon="3.94041">
        <ele>572</ele>
        <time>2024-12-08T06:36:29.619Z</time>
      </trkpt>
      <trkpt lat="45.97813" lon="3.94043">
        <ele>572</ele>
        <time>2024-12-08T06:36:30.620Z</time>
      </trkpt>
      <trkpt lat="45.97813" lon="3.94046">
        <ele>571</ele>
        <time>2024-12-08T06:36:31.619Z</time>
      </trkpt>
      <trkpt lat="45.97814" lon="3.94048">
        <ele>571</ele>
        <time>2024-12-08T06:36:32.620Z</time>
      </trkpt>
      <trkpt lat="45.97814" lon="3.94051">
        <ele>571</ele>
        <time>2024-12-08T06:36:33.619Z</time>
      </trkpt>
      <trkpt lat="45.97815" lon="3.94053">
        <ele>571</ele>
        <time>2024-12-08T06:36:34.620Z</time>
      </trkpt>
      <trkpt lat="45.97815" lon="3.94056">
        <ele>571</ele>
        <time>2024-12-08T06:36:35.619Z</time>
      </trkpt>
      <trkpt lat="45.97815" lon="3.94058">
        <ele>570</ele>
        <time>2024-12-08T06:36:36.620Z</time>
      </trkpt>
      <trkpt lat="45.97816" lon="3.94061">
        <ele>570</ele>
        <time>2024-12-08T06:36:37.620Z</time>
      </trkpt>
      <trkpt lat="45.97816" lon="3.94063">
        <ele>570</ele>
        <time>2024-12-08T06:36:38.619Z</time>
      </trkpt>
      <trkpt lat="45.97817" lon="3.94065">
        <ele>569</ele>
        <time>2024-12-08T06:36:39.620Z</time>
      </trkpt>
      <trkpt lat="45.97817" lon="3.94067">
        <ele>569</ele>
        <time>2024-12-08T06:36:40.619Z</time>
      </trkpt>
      <trkpt lat="45.97818" lon="3.9407">
        <ele>570</ele>
        <time>2024-12-08T06:36:41.619Z</time>
      </trkpt>
      <trkpt lat="45.97818" lon="3.94072">
        <ele>570</ele>
        <time>2024-12-08T06:36:42.619Z</time>
      </trkpt>
      <trkpt lat="45.97819" lon="3.94074">
        <ele>570</ele>
        <time>2024-12-08T06:36:43.620Z</time>
      </trkpt>
      <trkpt lat="45.97819" lon="3.94076">
        <ele>570</ele>
        <time>2024-12-08T06:36:44.620Z</time>
      </trkpt>
      <trkpt lat="45.9782" lon="3.94078">
        <ele>570</ele>
        <time>2024-12-08T06:36:45.620Z</time>
      </trkpt>
      <trkpt lat="45.9782" lon="3.94081">
        <ele>570</ele>
        <time>2024-12-08T06:36:46.619Z</time>
      </trkpt>
      <trkpt lat="45.9782" lon="3.94083">
        <ele>570</ele>
        <time>2024-12-08T06:36:47.619Z</time>
      </trkpt>
      <trkpt lat="45.9782" lon="3.94086">
        <ele>570</ele>
        <time>2024-12-08T06:36:48.619Z</time>
      </trkpt>
      <trkpt lat="45.9782" lon="3.94088">
        <ele>569</ele>
        <time>2024-12-08T06:36:49.620Z</time>
      </trkpt>
      <trkpt lat="45.9782" lon="3.94091">
        <ele>569</ele>
        <time>2024-12-08T06:36:50.619Z</time>
      </trkpt>
      <trkpt lat="45.97821" lon="3.94094">
        <ele>569</ele>
        <time>2024-12-08T06:36:51.619Z</time>
      </trkpt>
      <trkpt lat="45.97821" lon="3.94096">
        <ele>568</ele>
        <time>2024-12-08T06:36:52.620Z</time>
      </trkpt>
      <trkpt lat="45.97821" lon="3.94098">
        <ele>568</ele>
        <time>2024-12-08T06:36:53.620Z</time>
      </trkpt>
      <trkpt lat="45.97821" lon="3.94101">
        <ele>568</ele>
        <time>2024-12-08T06:36:54.619Z</time>
      </trkpt>
      <trkpt lat="45.97821" lon="3.94103">
        <ele>567</ele>
        <time>2024-12-08T06:36:55.619Z</time>
      </trkpt>
      <trkpt lat="45.97821" lon="3.94106">
        <ele>567</ele>
        <time>2024-12-08T06:36:56.620Z</time>
      </trkpt>
      <trkpt lat="45.97822" lon="3.94109">
        <ele>567</ele>
        <time>2024-12-08T06:36:57.619Z</time>
      </trkpt>
      <trkpt lat="45.97822" lon="3.94112">
        <ele>566</ele>
        <time>2024-12-08T06:36:58.619Z</time>
      </trkpt>
      <trkpt lat="45.97822" lon="3.94115">
        <ele>566</ele>
        <time>2024-12-08T06:36:59.619Z</time>
      </trkpt>
      <trkpt lat="45.97822" lon="3.94117">
        <ele>566</ele>
        <time>2024-12-08T06:37:00.619Z</time>
      </trkpt>
      <trkpt lat="45.97822" lon="3.9412">
        <ele>566</ele>
        <time>2024-12-08T06:37:01.619Z</time>
      </trkpt>
      <trkpt lat="45.97823" lon="3.94123">
        <ele>566</ele>
        <time>2024-12-08T06:37:02.620Z</time>
      </trkpt>
      <trkpt lat="45.97823" lon="3.94125">
        <ele>566</ele>
        <time>2024-12-08T06:37:03.619Z</time>
      </trkpt>
      <trkpt lat="45.97823" lon="3.94128">
        <ele>566</ele>
        <time>2024-12-08T06:37:04.620Z</time>
      </trkpt>
      <trkpt lat="45.97823" lon="3.9413">
        <ele>566</ele>
        <time>2024-12-08T06:37:05.619Z</time>
      </trkpt>
      <trkpt lat="45.97824" lon="3.94133">
        <ele>566</ele>
        <time>2024-12-08T06:37:06.619Z</time>
      </trkpt>
      <trkpt lat="45.97824" lon="3.94135">
        <ele>566</ele>
        <time>2024-12-08T06:37:07.620Z</time>
      </trkpt>
      <trkpt lat="45.97824" lon="3.94137">
        <ele>565</ele>
        <time>2024-12-08T06:37:08.619Z</time>
      </trkpt>
      <trkpt lat="45.97824" lon="3.9414">
        <ele>565</ele>
        <time>2024-12-08T06:37:09.620Z</time>
      </trkpt>
      <trkpt lat="45.97824" lon="3.94142">
        <ele>565</ele>
        <time>2024-12-08T06:37:10.619Z</time>
      </trkpt>
      <trkpt lat="45.97823" lon="3.94145">
        <ele>565</ele>
        <time>2024-12-08T06:37:11.620Z</time>
      </trkpt>
      <trkpt lat="45.97823" lon="3.94147">
        <ele>565</ele>
        <time>2024-12-08T06:37:12.619Z</time>
      </trkpt>
      <trkpt lat="45.97824" lon="3.9415">
        <ele>565</ele>
        <time>2024-12-08T06:37:13.620Z</time>
      </trkpt>
      <trkpt lat="45.97824" lon="3.94152">
        <ele>565</ele>
        <time>2024-12-08T06:37:14.619Z</time>
      </trkpt>
      <trkpt lat="45.97824" lon="3.94154">
        <ele>565</ele>
        <time>2024-12-08T06:37:15.619Z</time>
      </trkpt>
      <trkpt lat="45.97824" lon="3.94157">
        <ele>564</ele>
        <time>2024-12-08T06:37:16.620Z</time>
      </trkpt>
      <trkpt lat="45.97825" lon="3.9416">
        <ele>564</ele>
        <time>2024-12-08T06:37:17.619Z</time>
      </trkpt>
      <trkpt lat="45.97825" lon="3.94162">
        <ele>564</ele>
        <time>2024-12-08T06:37:18.620Z</time>
      </trkpt>
      <trkpt lat="45.97824" lon="3.94164">
        <ele>564</ele>
        <time>2024-12-08T06:37:19.619Z</time>
      </trkpt>
      <trkpt lat="45.97825" lon="3.94167">
        <ele>563</ele>
        <time>2024-12-08T06:37:20.620Z</time>
      </trkpt>
      <trkpt lat="45.97825" lon="3.94169">
        <ele>563</ele>
        <time>2024-12-08T06:37:21.620Z</time>
      </trkpt>
      <trkpt lat="45.97825" lon="3.94171">
        <ele>563</ele>
        <time>2024-12-08T06:37:22.620Z</time>
      </trkpt>
      <trkpt lat="45.97825" lon="3.94174">
        <ele>563</ele>
        <time>2024-12-08T06:37:23.620Z</time>
      </trkpt>
      <trkpt lat="45.97824" lon="3.94176">
        <ele>563</ele>
        <time>2024-12-08T06:37:24.620Z</time>
      </trkpt>
      <trkpt lat="45.97824" lon="3.94179">
        <ele>563</ele>
        <time>2024-12-08T06:37:25.619Z</time>
      </trkpt>
      <trkpt lat="45.97824" lon="3.94182">
        <ele>563</ele>
        <time>2024-12-08T06:37:26.620Z</time>
      </trkpt>
      <trkpt lat="45.97824" lon="3.94185">
        <ele>563</ele>
        <time>2024-12-08T06:37:27.619Z</time>
      </trkpt>
      <trkpt lat="45.97824" lon="3.94187">
        <ele>563</ele>
        <time>2024-12-08T06:37:28.620Z</time>
      </trkpt>
      <trkpt lat="45.97824" lon="3.9419">
        <ele>563</ele>
        <time>2024-12-08T06:37:29.619Z</time>
      </trkpt>
      <trkpt lat="45.97824" lon="3.94192">
        <ele>563</ele>
        <time>2024-12-08T06:37:30.619Z</time>
      </trkpt>
      <trkpt lat="45.97825" lon="3.94194">
        <ele>563</ele>
        <time>2024-12-08T06:37:31.620Z</time>
      </trkpt>
      <trkpt lat="45.97824" lon="3.94197">
        <ele>563</ele>
        <time>2024-12-08T06:37:32.620Z</time>
      </trkpt>
      <trkpt lat="45.97824" lon="3.94199">
        <ele>563</ele>
        <time>2024-12-08T06:37:33.620Z</time>
      </trkpt>
      <trkpt lat="45.97824" lon="3.94202">
        <ele>563</ele>
        <time>2024-12-08T06:37:34.620Z</time>
      </trkpt>
      <trkpt lat="45.97824" lon="3.94204">
        <ele>563</ele>
        <time>2024-12-08T06:37:35.620Z</time>
      </trkpt>
      <trkpt lat="45.97824" lon="3.94207">
        <ele>563</ele>
        <time>2024-12-08T06:37:36.619Z</time>
      </trkpt>
      <trkpt lat="45.97824" lon="3.94209">
        <ele>563</ele>
        <time>2024-12-08T06:37:37.619Z</time>
      </trkpt>
      <trkpt lat="45.97824" lon="3.94211">
        <ele>563</ele>
        <time>2024-12-08T06:37:38.619Z</time>
      </trkpt>
      <trkpt lat="45.97823" lon="3.94214">
        <ele>563</ele>
        <time>2024-12-08T06:37:39.620Z</time>
      </trkpt>
      <trkpt lat="45.97823" lon="3.94216">
        <ele>563</ele>
        <time>2024-12-08T06:37:40.619Z</time>
      </trkpt>
      <trkpt lat="45.97823" lon="3.94219">
        <ele>562</ele>
        <time>2024-12-08T06:37:41.620Z</time>
      </trkpt>
      <trkpt lat="45.97822" lon="3.94221">
        <ele>562</ele>
        <time>2024-12-08T06:37:42.619Z</time>
      </trkpt>
      <trkpt lat="45.97822" lon="3.94224">
        <ele>562</ele>
        <time>2024-12-08T06:37:43.619Z</time>
      </trkpt>
      <trkpt lat="45.97821" lon="3.94226">
        <ele>561</ele>
        <time>2024-12-08T06:37:44.620Z</time>
      </trkpt>
      <trkpt lat="45.97821" lon="3.94229">
        <ele>561</ele>
        <time>2024-12-08T06:37:45.620Z</time>
      </trkpt>
      <trkpt lat="45.97821" lon="3.94231">
        <ele>560</ele>
        <time>2024-12-08T06:37:46.620Z</time>
      </trkpt>
      <trkpt lat="45.97821" lon="3.94233">
        <ele>560</ele>
        <time>2024-12-08T06:37:47.619Z</time>
      </trkpt>
      <trkpt lat="45.97821" lon="3.94236">
        <ele>559</ele>
        <time>2024-12-08T06:37:48.619Z</time>
      </trkpt>
      <trkpt lat="45.97821" lon="3.94238">
        <ele>559</ele>
        <time>2024-12-08T06:37:49.619Z</time>
      </trkpt>
      <trkpt lat="45.97821" lon="3.94241">
        <ele>558</ele>
        <time>2024-12-08T06:37:50.619Z</time>
      </trkpt>
      <trkpt lat="45.97821" lon="3.94243">
        <ele>557</ele>
        <time>2024-12-08T06:37:51.619Z</time>
      </trkpt>
      <trkpt lat="45.9782" lon="3.94246">
        <ele>557</ele>
        <time>2024-12-08T06:37:52.619Z</time>
      </trkpt>
      <trkpt lat="45.97821" lon="3.94248">
        <ele>556</ele>
        <time>2024-12-08T06:37:53.619Z</time>
      </trkpt>
      <trkpt lat="45.97821" lon="3.94251">
        <ele>556</ele>
        <time>2024-12-08T06:37:54.619Z</time>
      </trkpt>
      <trkpt lat="45.97821" lon="3.94253">
        <ele>556</ele>
        <time>2024-12-08T06:37:55.620Z</time>
      </trkpt>
      <trkpt lat="45.97821" lon="3.94256">
        <ele>556</ele>
        <time>2024-12-08T06:37:56.619Z</time>
      </trkpt>
      <trkpt lat="45.9782" lon="3.94258">
        <ele>556</ele>
        <time>2024-12-08T06:37:57.620Z</time>
      </trkpt>
      <trkpt lat="45.97821" lon="3.9426">
        <ele>556</ele>
        <time>2024-12-08T06:37:58.620Z</time>
      </trkpt>
      <trkpt lat="45.97821" lon="3.94262">
        <ele>556</ele>
        <time>2024-12-08T06:37:59.619Z</time>
      </trkpt>
      <trkpt lat="45.97821" lon="3.94265">
        <ele>556</ele>
        <time>2024-12-08T06:38:00.619Z</time>
      </trkpt>
      <trkpt lat="45.97821" lon="3.94267">
        <ele>556</ele>
        <time>2024-12-08T06:38:01.619Z</time>
      </trkpt>
      <trkpt lat="45.97821" lon="3.9427">
        <ele>556</ele>
        <time>2024-12-08T06:38:02.619Z</time>
      </trkpt>
      <trkpt lat="45.97822" lon="3.94272">
        <ele>556</ele>
        <time>2024-12-08T06:38:03.620Z</time>
      </trkpt>
      <trkpt lat="45.97822" lon="3.94275">
        <ele>556</ele>
        <time>2024-12-08T06:38:04.619Z</time>
      </trkpt>
      <trkpt lat="45.97822" lon="3.94277">
        <ele>556</ele>
        <time>2024-12-08T06:38:05.620Z</time>
      </trkpt>
      <trkpt lat="45.97823" lon="3.9428">
        <ele>556</ele>
        <time>2024-12-08T06:38:06.619Z</time>
      </trkpt>
      <trkpt lat="45.97823" lon="3.94283">
        <ele>555</ele>
        <time>2024-12-08T06:38:07.619Z</time>
      </trkpt>
      <trkpt lat="45.97823" lon="3.94285">
        <ele>555</ele>
        <time>2024-12-08T06:38:08.619Z</time>
      </trkpt>
      <trkpt lat="45.97823" lon="3.94287">
        <ele>555</ele>
        <time>2024-12-08T06:38:09.620Z</time>
      </trkpt>
      <trkpt lat="45.97823" lon="3.9429">
        <ele>554</ele>
        <time>2024-12-08T06:38:10.619Z</time>
      </trkpt>
      <trkpt lat="45.97824" lon="3.94292">
        <ele>554</ele>
        <time>2024-12-08T06:38:11.620Z</time>
      </trkpt>
      <trkpt lat="45.97824" lon="3.94295">
        <ele>554</ele>
        <time>2024-12-08T06:38:12.619Z</time>
      </trkpt>
      <trkpt lat="45.97824" lon="3.94297">
        <ele>553</ele>
        <time>2024-12-08T06:38:13.619Z</time>
      </trkpt>
      <trkpt lat="45.97824" lon="3.943">
        <ele>553</ele>
        <time>2024-12-08T06:38:14.620Z</time>
      </trkpt>
      <trkpt lat="45.97824" lon="3.94303">
        <ele>553</ele>
        <time>2024-12-08T06:38:15.619Z</time>
      </trkpt>
      <trkpt lat="45.97825" lon="3.94306">
        <ele>553</ele>
        <time>2024-12-08T06:38:16.620Z</time>
      </trkpt>
      <trkpt lat="45.97826" lon="3.94307">
        <ele>553</ele>
        <time>2024-12-08T06:38:17.620Z</time>
      </trkpt>
      <trkpt lat="45.97826" lon="3.94309">
        <ele>553</ele>
        <time>2024-12-08T06:38:18.620Z</time>
      </trkpt>
      <trkpt lat="45.97827" lon="3.94312">
        <ele>553</ele>
        <time>2024-12-08T06:38:19.619Z</time>
      </trkpt>
      <trkpt lat="45.97827" lon="3.94315">
        <ele>553</ele>
        <time>2024-12-08T06:38:20.620Z</time>
      </trkpt>
      <trkpt lat="45.97828" lon="3.94318">
        <ele>553</ele>
        <time>2024-12-08T06:38:21.619Z</time>
      </trkpt>
      <trkpt lat="45.97829" lon="3.94321">
        <ele>553</ele>
        <time>2024-12-08T06:38:22.619Z</time>
      </trkpt>
      <trkpt lat="45.97829" lon="3.94323">
        <ele>553</ele>
        <time>2024-12-08T06:38:23.620Z</time>
      </trkpt>
      <trkpt lat="45.97829" lon="3.94326">
        <ele>553</ele>
        <time>2024-12-08T06:38:24.619Z</time>
      </trkpt>
      <trkpt lat="45.97829" lon="3.94328">
        <ele>553</ele>
        <time>2024-12-08T06:38:25.620Z</time>
      </trkpt>
      <trkpt lat="45.9783" lon="3.9433">
        <ele>553</ele>
        <time>2024-12-08T06:38:26.619Z</time>
      </trkpt>
      <trkpt lat="45.9783" lon="3.94332">
        <ele>553</ele>
        <time>2024-12-08T06:38:27.619Z</time>
      </trkpt>
      <trkpt lat="45.97831" lon="3.94335">
        <ele>553</ele>
        <time>2024-12-08T06:38:28.619Z</time>
      </trkpt>
      <trkpt lat="45.97832" lon="3.94337">
        <ele>552</ele>
        <time>2024-12-08T06:38:29.620Z</time>
      </trkpt>
      <trkpt lat="45.97832" lon="3.9434">
        <ele>552</ele>
        <time>2024-12-08T06:38:30.620Z</time>
      </trkpt>
      <trkpt lat="45.97833" lon="3.94342">
        <ele>552</ele>
        <time>2024-12-08T06:38:31.620Z</time>
      </trkpt>
      <trkpt lat="45.97833" lon="3.94345">
        <ele>552</ele>
        <time>2024-12-08T06:38:32.619Z</time>
      </trkpt>
      <trkpt lat="45.97834" lon="3.94347">
        <ele>551</ele>
        <time>2024-12-08T06:38:33.619Z</time>
      </trkpt>
      <trkpt lat="45.97835" lon="3.9435">
        <ele>551</ele>
        <time>2024-12-08T06:38:34.620Z</time>
      </trkpt>
      <trkpt lat="45.97835" lon="3.94352">
        <ele>550</ele>
        <time>2024-12-08T06:38:35.619Z</time>
      </trkpt>
      <trkpt lat="45.97836" lon="3.94354">
        <ele>550</ele>
        <time>2024-12-08T06:38:36.620Z</time>
      </trkpt>
      <trkpt lat="45.97836" lon="3.94357">
        <ele>549</ele>
        <time>2024-12-08T06:38:37.619Z</time>
      </trkpt>
      <trkpt lat="45.97837" lon="3.94359">
        <ele>549</ele>
        <time>2024-12-08T06:38:38.620Z</time>
      </trkpt>
      <trkpt lat="45.97837" lon="3.94361">
        <ele>548</ele>
        <time>2024-12-08T06:38:39.620Z</time>
      </trkpt>
      <trkpt lat="45.97838" lon="3.94363">
        <ele>548</ele>
        <time>2024-12-08T06:38:40.619Z</time>
      </trkpt>
      <trkpt lat="45.97838" lon="3.94366">
        <ele>548</ele>
        <time>2024-12-08T06:38:41.619Z</time>
      </trkpt>
      <trkpt lat="45.97838" lon="3.94368">
        <ele>548</ele>
        <time>2024-12-08T06:38:42.619Z</time>
      </trkpt>
      <trkpt lat="45.97839" lon="3.94371">
        <ele>547</ele>
        <time>2024-12-08T06:38:43.620Z</time>
      </trkpt>
      <trkpt lat="45.97839" lon="3.94373">
        <ele>547</ele>
        <time>2024-12-08T06:38:44.620Z</time>
      </trkpt>
      <trkpt lat="45.97839" lon="3.94376">
        <ele>547</ele>
        <time>2024-12-08T06:38:45.620Z</time>
      </trkpt>
      <trkpt lat="45.9784" lon="3.94379">
        <ele>547</ele>
        <time>2024-12-08T06:38:46.619Z</time>
      </trkpt>
      <trkpt lat="45.9784" lon="3.94381">
        <ele>547</ele>
        <time>2024-12-08T06:38:47.620Z</time>
      </trkpt>
      <trkpt lat="45.97841" lon="3.94383">
        <ele>547</ele>
        <time>2024-12-08T06:38:48.619Z</time>
      </trkpt>
      <trkpt lat="45.97841" lon="3.94386">
        <ele>547</ele>
        <time>2024-12-08T06:38:49.620Z</time>
      </trkpt>
      <trkpt lat="45.97842" lon="3.94388">
        <ele>547</ele>
        <time>2024-12-08T06:38:50.619Z</time>
      </trkpt>
      <trkpt lat="45.97842" lon="3.9439">
        <ele>547</ele>
        <time>2024-12-08T06:38:51.620Z</time>
      </trkpt>
      <trkpt lat="45.97843" lon="3.94393">
        <ele>547</ele>
        <time>2024-12-08T06:38:52.620Z</time>
      </trkpt>
      <trkpt lat="45.97843" lon="3.94395">
        <ele>547</ele>
        <time>2024-12-08T06:38:53.619Z</time>
      </trkpt>
      <trkpt lat="45.97844" lon="3.94398">
        <ele>547</ele>
        <time>2024-12-08T06:38:54.620Z</time>
      </trkpt>
      <trkpt lat="45.97844" lon="3.944">
        <ele>547</ele>
        <time>2024-12-08T06:38:55.619Z</time>
      </trkpt>
      <trkpt lat="45.97845" lon="3.94403">
        <ele>547</ele>
        <time>2024-12-08T06:38:56.620Z</time>
      </trkpt>
      <trkpt lat="45.97845" lon="3.94406">
        <ele>547</ele>
        <time>2024-12-08T06:38:57.619Z</time>
      </trkpt>
      <trkpt lat="45.97846" lon="3.94408">
        <ele>547</ele>
        <time>2024-12-08T06:38:58.619Z</time>
      </trkpt>
      <trkpt lat="45.97846" lon="3.94411">
        <ele>547</ele>
        <time>2024-12-08T06:38:59.619Z</time>
      </trkpt>
      <trkpt lat="45.97846" lon="3.94413">
        <ele>547</ele>
        <time>2024-12-08T06:39:00.619Z</time>
      </trkpt>
      <trkpt lat="45.97847" lon="3.94415">
        <ele>546</ele>
        <time>2024-12-08T06:39:01.619Z</time>
      </trkpt>
      <trkpt lat="45.97847" lon="3.94418">
        <ele>546</ele>
        <time>2024-12-08T06:39:02.620Z</time>
      </trkpt>
      <trkpt lat="45.97848" lon="3.9442">
        <ele>546</ele>
        <time>2024-12-08T06:39:03.620Z</time>
      </trkpt>
      <trkpt lat="45.97848" lon="3.94423">
        <ele>546</ele>
        <time>2024-12-08T06:39:04.619Z</time>
      </trkpt>
      <trkpt lat="45.97848" lon="3.94425">
        <ele>545</ele>
        <time>2024-12-08T06:39:05.620Z</time>
      </trkpt>
      <trkpt lat="45.97849" lon="3.94427">
        <ele>545</ele>
        <time>2024-12-08T06:39:06.619Z</time>
      </trkpt>
      <trkpt lat="45.97849" lon="3.9443">
        <ele>545</ele>
        <time>2024-12-08T06:39:07.619Z</time>
      </trkpt>
      <trkpt lat="45.97849" lon="3.94432">
        <ele>545</ele>
        <time>2024-12-08T06:39:08.620Z</time>
      </trkpt>
      <trkpt lat="45.97849" lon="3.94435">
        <ele>545</ele>
        <time>2024-12-08T06:39:09.620Z</time>
      </trkpt>
      <trkpt lat="45.9785" lon="3.94437">
        <ele>546</ele>
        <time>2024-12-08T06:39:10.620Z</time>
      </trkpt>
      <trkpt lat="45.9785" lon="3.9444">
        <ele>546</ele>
        <time>2024-12-08T06:39:11.619Z</time>
      </trkpt>
      <trkpt lat="45.9785" lon="3.94442">
        <ele>546</ele>
        <time>2024-12-08T06:39:12.620Z</time>
      </trkpt>
      <trkpt lat="45.9785" lon="3.94444">
        <ele>546</ele>
        <time>2024-12-08T06:39:13.619Z</time>
      </trkpt>
      <trkpt lat="45.9785" lon="3.94447">
        <ele>546</ele>
        <time>2024-12-08T06:39:14.619Z</time>
      </trkpt>
      <trkpt lat="45.97851" lon="3.94449">
        <ele>546</ele>
        <time>2024-12-08T06:39:15.620Z</time>
      </trkpt>
      <trkpt lat="45.97851" lon="3.94452">
        <ele>546</ele>
        <time>2024-12-08T06:39:16.619Z</time>
      </trkpt>
      <trkpt lat="45.97851" lon="3.94455">
        <ele>546</ele>
        <time>2024-12-08T06:39:17.619Z</time>
      </trkpt>
      <trkpt lat="45.97851" lon="3.94457">
        <ele>546</ele>
        <time>2024-12-08T06:39:18.620Z</time>
      </trkpt>
      <trkpt lat="45.97851" lon="3.9446">
        <ele>546</ele>
        <time>2024-12-08T06:39:19.619Z</time>
      </trkpt>
      <trkpt lat="45.97851" lon="3.94462">
        <ele>546</ele>
        <time>2024-12-08T06:39:20.619Z</time>
      </trkpt>
      <trkpt lat="45.97851" lon="3.94465">
        <ele>546</ele>
        <time>2024-12-08T06:39:21.619Z</time>
      </trkpt>
      <trkpt lat="45.9785" lon="3.94468">
        <ele>545</ele>
        <time>2024-12-08T06:39:22.620Z</time>
      </trkpt>
      <trkpt lat="45.9785" lon="3.9447">
        <ele>545</ele>
        <time>2024-12-08T06:39:23.620Z</time>
      </trkpt>
      <trkpt lat="45.9785" lon="3.94472">
        <ele>545</ele>
        <time>2024-12-08T06:39:24.620Z</time>
      </trkpt>
      <trkpt lat="45.9785" lon="3.94475">
        <ele>545</ele>
        <time>2024-12-08T06:39:25.619Z</time>
      </trkpt>
      <trkpt lat="45.97849" lon="3.94477">
        <ele>545</ele>
        <time>2024-12-08T06:39:26.619Z</time>
      </trkpt>
      <trkpt lat="45.97849" lon="3.94479">
        <ele>545</ele>
        <time>2024-12-08T06:39:27.620Z</time>
      </trkpt>
      <trkpt lat="45.97848" lon="3.94482">
        <ele>544</ele>
        <time>2024-12-08T06:39:28.620Z</time>
      </trkpt>
      <trkpt lat="45.97848" lon="3.94484">
        <ele>544</ele>
        <time>2024-12-08T06:39:29.619Z</time>
      </trkpt>
      <trkpt lat="45.97847" lon="3.94487">
        <ele>544</ele>
        <time>2024-12-08T06:39:30.619Z</time>
      </trkpt>
      <trkpt lat="45.97847" lon="3.94489">
        <ele>544</ele>
        <time>2024-12-08T06:39:31.620Z</time>
      </trkpt>
      <trkpt lat="45.97846" lon="3.94491">
        <ele>544</ele>
        <time>2024-12-08T06:39:32.620Z</time>
      </trkpt>
      <trkpt lat="45.97846" lon="3.94494">
        <ele>544</ele>
        <time>2024-12-08T06:39:33.619Z</time>
      </trkpt>
      <trkpt lat="45.97846" lon="3.94496">
        <ele>544</ele>
        <time>2024-12-08T06:39:34.619Z</time>
      </trkpt>
      <trkpt lat="45.97845" lon="3.94498">
        <ele>544</ele>
        <time>2024-12-08T06:39:35.620Z</time>
      </trkpt>
      <trkpt lat="45.97845" lon="3.94501">
        <ele>544</ele>
        <time>2024-12-08T06:39:36.619Z</time>
      </trkpt>
      <trkpt lat="45.97844" lon="3.94503">
        <ele>544</ele>
        <time>2024-12-08T06:39:37.619Z</time>
      </trkpt>
      <trkpt lat="45.97844" lon="3.94506">
        <ele>544</ele>
        <time>2024-12-08T06:39:38.620Z</time>
      </trkpt>
      <trkpt lat="45.97843" lon="3.94508">
        <ele>544</ele>
        <time>2024-12-08T06:39:39.620Z</time>
      </trkpt>
      <trkpt lat="45.97842" lon="3.94511">
        <ele>544</ele>
        <time>2024-12-08T06:39:40.619Z</time>
      </trkpt>
      <trkpt lat="45.97842" lon="3.94513">
        <ele>544</ele>
        <time>2024-12-08T06:39:41.619Z</time>
      </trkpt>
      <trkpt lat="45.97841" lon="3.94515">
        <ele>544</ele>
        <time>2024-12-08T06:39:42.619Z</time>
      </trkpt>
      <trkpt lat="45.97841" lon="3.94517">
        <ele>543</ele>
        <time>2024-12-08T06:39:43.620Z</time>
      </trkpt>
      <trkpt lat="45.97841" lon="3.9452">
        <ele>543</ele>
        <time>2024-12-08T06:39:44.619Z</time>
      </trkpt>
      <trkpt lat="45.9784" lon="3.94522">
        <ele>543</ele>
        <time>2024-12-08T06:39:45.619Z</time>
      </trkpt>
      <trkpt lat="45.9784" lon="3.94525">
        <ele>543</ele>
        <time>2024-12-08T06:39:46.619Z</time>
      </trkpt>
      <trkpt lat="45.97839" lon="3.94527">
        <ele>542</ele>
        <time>2024-12-08T06:39:47.619Z</time>
      </trkpt>
      <trkpt lat="45.97839" lon="3.9453">
        <ele>542</ele>
        <time>2024-12-08T06:39:48.620Z</time>
      </trkpt>
      <trkpt lat="45.97838" lon="3.94532">
        <ele>542</ele>
        <time>2024-12-08T06:39:49.619Z</time>
      </trkpt>
      <trkpt lat="45.97837" lon="3.94535">
        <ele>541</ele>
        <time>2024-12-08T06:39:50.619Z</time>
      </trkpt>
      <trkpt lat="45.97837" lon="3.94537">
        <ele>541</ele>
        <time>2024-12-08T06:39:51.620Z</time>
      </trkpt>
      <trkpt lat="45.97836" lon="3.94539">
        <ele>540</ele>
        <time>2024-12-08T06:39:52.619Z</time>
      </trkpt>
      <trkpt lat="45.97835" lon="3.94541">
        <ele>540</ele>
        <time>2024-12-08T06:39:53.620Z</time>
      </trkpt>
      <trkpt lat="45.97835" lon="3.94543">
        <ele>540</ele>
        <time>2024-12-08T06:39:54.619Z</time>
      </trkpt>
      <trkpt lat="45.97834" lon="3.94546">
        <ele>539</ele>
        <time>2024-12-08T06:39:55.620Z</time>
      </trkpt>
      <trkpt lat="45.97833" lon="3.94548">
        <ele>539</ele>
        <time>2024-12-08T06:39:56.620Z</time>
      </trkpt>
      <trkpt lat="45.97832" lon="3.9455">
        <ele>539</ele>
        <time>2024-12-08T06:39:57.620Z</time>
      </trkpt>
      <trkpt lat="45.97831" lon="3.94552">
        <ele>539</ele>
        <time>2024-12-08T06:39:58.620Z</time>
      </trkpt>
      <trkpt lat="45.9783" lon="3.94555">
        <ele>538</ele>
        <time>2024-12-08T06:39:59.620Z</time>
      </trkpt>
      <trkpt lat="45.97829" lon="3.94557">
        <ele>538</ele>
        <time>2024-12-08T06:40:00.620Z</time>
      </trkpt>
      <trkpt lat="45.97828" lon="3.94559">
        <ele>538</ele>
        <time>2024-12-08T06:40:01.619Z</time>
      </trkpt>
      <trkpt lat="45.97827" lon="3.9456">
        <ele>538</ele>
        <time>2024-12-08T06:40:02.619Z</time>
      </trkpt>
      <trkpt lat="45.97825" lon="3.94562">
        <ele>537</ele>
        <time>2024-12-08T06:40:03.619Z</time>
      </trkpt>
      <trkpt lat="45.97824" lon="3.94564">
        <ele>537</ele>
        <time>2024-12-08T06:40:04.619Z</time>
      </trkpt>
      <trkpt lat="45.97823" lon="3.94566">
        <ele>537</ele>
        <time>2024-12-08T06:40:05.619Z</time>
      </trkpt>
      <trkpt lat="45.97821" lon="3.94568">
        <ele>537</ele>
        <time>2024-12-08T06:40:06.619Z</time>
      </trkpt>
      <trkpt lat="45.9782" lon="3.94569">
        <ele>537</ele>
        <time>2024-12-08T06:40:07.620Z</time>
      </trkpt>
      <trkpt lat="45.97818" lon="3.94571">
        <ele>537</ele>
        <time>2024-12-08T06:40:08.619Z</time>
      </trkpt>
      <trkpt lat="45.97817" lon="3.94572">
        <ele>537</ele>
        <time>2024-12-08T06:40:09.620Z</time>
      </trkpt>
      <trkpt lat="45.97815" lon="3.94574">
        <ele>537</ele>
        <time>2024-12-08T06:40:10.619Z</time>
      </trkpt>
      <trkpt lat="45.97814" lon="3.94575">
        <ele>537</ele>
        <time>2024-12-08T06:40:11.619Z</time>
      </trkpt>
      <trkpt lat="45.97812" lon="3.94576">
        <ele>537</ele>
        <time>2024-12-08T06:40:12.620Z</time>
      </trkpt>
      <trkpt lat="45.97811" lon="3.94577">
        <ele>537</ele>
        <time>2024-12-08T06:40:13.619Z</time>
      </trkpt>
      <trkpt lat="45.97809" lon="3.94578">
        <ele>537</ele>
        <time>2024-12-08T06:40:14.619Z</time>
      </trkpt>
      <trkpt lat="45.97807" lon="3.94579">
        <ele>536</ele>
        <time>2024-12-08T06:40:15.619Z</time>
      </trkpt>
      <trkpt lat="45.97806" lon="3.9458">
        <ele>536</ele>
        <time>2024-12-08T06:40:16.619Z</time>
      </trkpt>
      <trkpt lat="45.97804" lon="3.94581">
        <ele>536</ele>
        <time>2024-12-08T06:40:17.619Z</time>
      </trkpt>
      <trkpt lat="45.97802" lon="3.94581">
        <ele>536</ele>
        <time>2024-12-08T06:40:18.619Z</time>
      </trkpt>
      <trkpt lat="45.97801" lon="3.94582">
        <ele>536</ele>
        <time>2024-12-08T06:40:19.620Z</time>
      </trkpt>
      <trkpt lat="45.978" lon="3.94582">
        <ele>536</ele>
        <time>2024-12-08T06:40:20.620Z</time>
      </trkpt>
      <trkpt lat="45.97798" lon="3.94583">
        <ele>535</ele>
        <time>2024-12-08T06:40:21.620Z</time>
      </trkpt>
      <trkpt lat="45.97796" lon="3.94584">
        <ele>535</ele>
        <time>2024-12-08T06:40:22.620Z</time>
      </trkpt>
      <trkpt lat="45.97794" lon="3.94585">
        <ele>535</ele>
        <time>2024-12-08T06:40:23.619Z</time>
      </trkpt>
      <trkpt lat="45.97792" lon="3.94585">
        <ele>535</ele>
        <time>2024-12-08T06:40:24.619Z</time>
      </trkpt>
      <trkpt lat="45.97791" lon="3.94585">
        <ele>535</ele>
        <time>2024-12-08T06:40:25.620Z</time>
      </trkpt>
      <trkpt lat="45.97789" lon="3.94586">
        <ele>535</ele>
        <time>2024-12-08T06:40:26.619Z</time>
      </trkpt>
      <trkpt lat="45.97787" lon="3.94587">
        <ele>535</ele>
        <time>2024-12-08T06:40:27.619Z</time>
      </trkpt>
      <trkpt lat="45.97785" lon="3.94587">
        <ele>535</ele>
        <time>2024-12-08T06:40:28.620Z</time>
      </trkpt>
      <trkpt lat="45.97784" lon="3.94588">
        <ele>535</ele>
        <time>2024-12-08T06:40:29.620Z</time>
      </trkpt>
      <trkpt lat="45.97782" lon="3.94589">
        <ele>535</ele>
        <time>2024-12-08T06:40:30.620Z</time>
      </trkpt>
      <trkpt lat="45.9778" lon="3.9459">
        <ele>534</ele>
        <time>2024-12-08T06:40:31.620Z</time>
      </trkpt>
      <trkpt lat="45.97779" lon="3.9459">
        <ele>534</ele>
        <time>2024-12-08T06:40:32.620Z</time>
      </trkpt>
      <trkpt lat="45.97777" lon="3.94591">
        <ele>534</ele>
        <time>2024-12-08T06:40:33.620Z</time>
      </trkpt>
      <trkpt lat="45.97776" lon="3.94592">
        <ele>534</ele>
        <time>2024-12-08T06:40:34.620Z</time>
      </trkpt>
      <trkpt lat="45.97775" lon="3.94593">
        <ele>534</ele>
        <time>2024-12-08T06:40:35.620Z</time>
      </trkpt>
      <trkpt lat="45.97772" lon="3.94594">
        <ele>534</ele>
        <time>2024-12-08T06:40:36.619Z</time>
      </trkpt>
      <trkpt lat="45.97771" lon="3.94595">
        <ele>533</ele>
        <time>2024-12-08T06:40:37.620Z</time>
      </trkpt>
      <trkpt lat="45.97769" lon="3.94596">
        <ele>533</ele>
        <time>2024-12-08T06:40:38.620Z</time>
      </trkpt>
      <trkpt lat="45.97767" lon="3.94597">
        <ele>533</ele>
        <time>2024-12-08T06:40:39.620Z</time>
      </trkpt>
      <trkpt lat="45.97765" lon="3.94598">
        <ele>532</ele>
        <time>2024-12-08T06:40:40.619Z</time>
      </trkpt>
      <trkpt lat="45.97763" lon="3.94599">
        <ele>532</ele>
        <time>2024-12-08T06:40:41.620Z</time>
      </trkpt>
      <trkpt lat="45.97762" lon="3.946">
        <ele>532</ele>
        <time>2024-12-08T06:40:42.619Z</time>
      </trkpt>
      <trkpt lat="45.9776" lon="3.94601">
        <ele>531</ele>
        <time>2024-12-08T06:40:43.619Z</time>
      </trkpt>
      <trkpt lat="45.97758" lon="3.94603">
        <ele>531</ele>
        <time>2024-12-08T06:40:44.620Z</time>
      </trkpt>
      <trkpt lat="45.97756" lon="3.94604">
        <ele>531</ele>
        <time>2024-12-08T06:40:45.619Z</time>
      </trkpt>
      <trkpt lat="45.97754" lon="3.94606">
        <ele>531</ele>
        <time>2024-12-08T06:40:46.619Z</time>
      </trkpt>
      <trkpt lat="45.97752" lon="3.94609">
        <ele>531</ele>
        <time>2024-12-08T06:40:47.620Z</time>
      </trkpt>
      <trkpt lat="45.9775" lon="3.94611">
        <ele>531</ele>
        <time>2024-12-08T06:40:48.619Z</time>
      </trkpt>
      <trkpt lat="45.97749" lon="3.94612">
        <ele>530</ele>
        <time>2024-12-08T06:40:49.619Z</time>
      </trkpt>
      <trkpt lat="45.97748" lon="3.94614">
        <ele>530</ele>
        <time>2024-12-08T06:40:50.619Z</time>
      </trkpt>
      <trkpt lat="45.97747" lon="3.94615">
        <ele>530</ele>
        <time>2024-12-08T06:40:51.619Z</time>
      </trkpt>
      <trkpt lat="45.97746" lon="3.94617">
        <ele>529</ele>
        <time>2024-12-08T06:40:52.620Z</time>
      </trkpt>
      <trkpt lat="45.97745" lon="3.9462">
        <ele>529</ele>
        <time>2024-12-08T06:40:53.619Z</time>
      </trkpt>
      <trkpt lat="45.97745" lon="3.94623">
        <ele>529</ele>
        <time>2024-12-08T06:40:54.619Z</time>
      </trkpt>
      <trkpt lat="45.97745" lon="3.94626">
        <ele>529</ele>
        <time>2024-12-08T06:40:55.619Z</time>
      </trkpt>
      <trkpt lat="45.97745" lon="3.94628">
        <ele>529</ele>
        <time>2024-12-08T06:40:56.619Z</time>
      </trkpt>
      <trkpt lat="45.97745" lon="3.94631">
        <ele>529</ele>
        <time>2024-12-08T06:40:57.619Z</time>
      </trkpt>
      <trkpt lat="45.97746" lon="3.94633">
        <ele>528</ele>
        <time>2024-12-08T06:40:58.620Z</time>
      </trkpt>
      <trkpt lat="45.97746" lon="3.94636">
        <ele>528</ele>
        <time>2024-12-08T06:40:59.620Z</time>
      </trkpt>
      <trkpt lat="45.97746" lon="3.94638">
        <ele>528</ele>
        <time>2024-12-08T06:41:00.619Z</time>
      </trkpt>
      <trkpt lat="45.97747" lon="3.94641">
        <ele>528</ele>
        <time>2024-12-08T06:41:01.620Z</time>
      </trkpt>
      <trkpt lat="45.97748" lon="3.94643">
        <ele>527</ele>
        <time>2024-12-08T06:41:02.620Z</time>
      </trkpt>
      <trkpt lat="45.97749" lon="3.94645">
        <ele>527</ele>
        <time>2024-12-08T06:41:03.619Z</time>
      </trkpt>
      <trkpt lat="45.9775" lon="3.94647">
        <ele>527</ele>
        <time>2024-12-08T06:41:04.620Z</time>
      </trkpt>
      <trkpt lat="45.97751" lon="3.94649">
        <ele>527</ele>
        <time>2024-12-08T06:41:05.619Z</time>
      </trkpt>
      <trkpt lat="45.97752" lon="3.94651">
        <ele>527</ele>
        <time>2024-12-08T06:41:06.620Z</time>
      </trkpt>
      <trkpt lat="45.97753" lon="3.94653">
        <ele>526</ele>
        <time>2024-12-08T06:41:07.619Z</time>
      </trkpt>
      <trkpt lat="45.97754" lon="3.94655">
        <ele>526</ele>
        <time>2024-12-08T06:41:08.620Z</time>
      </trkpt>
      <trkpt lat="45.97755" lon="3.94657">
        <ele>526</ele>
        <time>2024-12-08T06:41:09.620Z</time>
      </trkpt>
      <trkpt lat="45.97756" lon="3.94659">
        <ele>526</ele>
        <time>2024-12-08T06:41:10.620Z</time>
      </trkpt>
      <trkpt lat="45.97757" lon="3.94661">
        <ele>526</ele>
        <time>2024-12-08T06:41:11.620Z</time>
      </trkpt>
      <trkpt lat="45.97758" lon="3.94663">
        <ele>526</ele>
        <time>2024-12-08T06:41:12.620Z</time>
      </trkpt>
      <trkpt lat="45.97759" lon="3.94665">
        <ele>526</ele>
        <time>2024-12-08T06:41:13.620Z</time>
      </trkpt>
      <trkpt lat="45.9776" lon="3.94667">
        <ele>526</ele>
        <time>2024-12-08T06:41:14.619Z</time>
      </trkpt>
      <trkpt lat="45.97762" lon="3.94669">
        <ele>526</ele>
        <time>2024-12-08T06:41:15.619Z</time>
      </trkpt>
      <trkpt lat="45.97763" lon="3.9467">
        <ele>525</ele>
        <time>2024-12-08T06:41:16.619Z</time>
      </trkpt>
      <trkpt lat="45.97764" lon="3.94673">
        <ele>525</ele>
        <time>2024-12-08T06:41:17.620Z</time>
      </trkpt>
      <trkpt lat="45.97765" lon="3.94675">
        <ele>526</ele>
        <time>2024-12-08T06:41:18.619Z</time>
      </trkpt>
      <trkpt lat="45.97766" lon="3.94677">
        <ele>525</ele>
        <time>2024-12-08T06:41:19.619Z</time>
      </trkpt>
      <trkpt lat="45.97767" lon="3.94679">
        <ele>525</ele>
        <time>2024-12-08T06:41:20.620Z</time>
      </trkpt>
      <trkpt lat="45.97769" lon="3.94681">
        <ele>525</ele>
        <time>2024-12-08T06:41:21.619Z</time>
      </trkpt>
      <trkpt lat="45.9777" lon="3.94683">
        <ele>525</ele>
        <time>2024-12-08T06:41:22.619Z</time>
      </trkpt>
      <trkpt lat="45.97771" lon="3.94685">
        <ele>525</ele>
        <time>2024-12-08T06:41:23.619Z</time>
      </trkpt>
      <trkpt lat="45.97772" lon="3.94687">
        <ele>525</ele>
        <time>2024-12-08T06:41:24.619Z</time>
      </trkpt>
      <trkpt lat="45.97774" lon="3.94689">
        <ele>525</ele>
        <time>2024-12-08T06:41:25.620Z</time>
      </trkpt>
      <trkpt lat="45.97775" lon="3.94691">
        <ele>525</ele>
        <time>2024-12-08T06:41:26.619Z</time>
      </trkpt>
      <trkpt lat="45.97776" lon="3.94693">
        <ele>525</ele>
        <time>2024-12-08T06:41:27.619Z</time>
      </trkpt>
      <trkpt lat="45.97776" lon="3.94696">
        <ele>525</ele>
        <time>2024-12-08T06:41:28.620Z</time>
      </trkpt>
      <trkpt lat="45.97777" lon="3.94698">
        <ele>525</ele>
        <time>2024-12-08T06:41:29.619Z</time>
      </trkpt>
      <trkpt lat="45.97779" lon="3.947">
        <ele>525</ele>
        <time>2024-12-08T06:41:30.620Z</time>
      </trkpt>
      <trkpt lat="45.97779" lon="3.94702">
        <ele>525</ele>
        <time>2024-12-08T06:41:31.619Z</time>
      </trkpt>
      <trkpt lat="45.9778" lon="3.94704">
        <ele>525</ele>
        <time>2024-12-08T06:41:32.620Z</time>
      </trkpt>
      <trkpt lat="45.97781" lon="3.94706">
        <ele>524</ele>
        <time>2024-12-08T06:41:33.620Z</time>
      </trkpt>
      <trkpt lat="45.97783" lon="3.94708">
        <ele>524</ele>
        <time>2024-12-08T06:41:34.619Z</time>
      </trkpt>
      <trkpt lat="45.97784" lon="3.9471">
        <ele>525</ele>
        <time>2024-12-08T06:41:35.619Z</time>
      </trkpt>
      <trkpt lat="45.97785" lon="3.94712">
        <ele>525</ele>
        <time>2024-12-08T06:41:36.620Z</time>
      </trkpt>
      <trkpt lat="45.97786" lon="3.94714">
        <ele>524</ele>
        <time>2024-12-08T06:41:37.620Z</time>
      </trkpt>
      <trkpt lat="45.97786" lon="3.94716">
        <ele>524</ele>
        <time>2024-12-08T06:41:38.619Z</time>
      </trkpt>
      <trkpt lat="45.97788" lon="3.94718">
        <ele>524</ele>
        <time>2024-12-08T06:41:39.620Z</time>
      </trkpt>
      <trkpt lat="45.97789" lon="3.9472">
        <ele>524</ele>
        <time>2024-12-08T06:41:40.620Z</time>
      </trkpt>
      <trkpt lat="45.9779" lon="3.94722">
        <ele>524</ele>
        <time>2024-12-08T06:41:41.619Z</time>
      </trkpt>
      <trkpt lat="45.97791" lon="3.94724">
        <ele>524</ele>
        <time>2024-12-08T06:41:42.619Z</time>
      </trkpt>
      <trkpt lat="45.97792" lon="3.94727">
        <ele>524</ele>
        <time>2024-12-08T06:41:43.619Z</time>
      </trkpt>
      <trkpt lat="45.97793" lon="3.94728">
        <ele>524</ele>
        <time>2024-12-08T06:41:44.620Z</time>
      </trkpt>
      <trkpt lat="45.97794" lon="3.9473">
        <ele>524</ele>
        <time>2024-12-08T06:41:45.619Z</time>
      </trkpt>
      <trkpt lat="45.97795" lon="3.94733">
        <ele>523</ele>
        <time>2024-12-08T06:41:46.619Z</time>
      </trkpt>
      <trkpt lat="45.97796" lon="3.94735">
        <ele>523</ele>
        <time>2024-12-08T06:41:47.619Z</time>
      </trkpt>
      <trkpt lat="45.97797" lon="3.94737">
        <ele>523</ele>
        <time>2024-12-08T06:41:48.619Z</time>
      </trkpt>
      <trkpt lat="45.97799" lon="3.9474">
        <ele>523</ele>
        <time>2024-12-08T06:41:49.619Z</time>
      </trkpt>
      <trkpt lat="45.978" lon="3.94741">
        <ele>523</ele>
        <time>2024-12-08T06:41:50.619Z</time>
      </trkpt>
      <trkpt lat="45.97801" lon="3.94743">
        <ele>523</ele>
        <time>2024-12-08T06:41:51.619Z</time>
      </trkpt>
      <trkpt lat="45.97802" lon="3.94745">
        <ele>524</ele>
        <time>2024-12-08T06:41:52.619Z</time>
      </trkpt>
      <trkpt lat="45.97803" lon="3.94747">
        <ele>523</ele>
        <time>2024-12-08T06:41:53.620Z</time>
      </trkpt>
      <trkpt lat="45.97804" lon="3.9475">
        <ele>523</ele>
        <time>2024-12-08T06:41:54.619Z</time>
      </trkpt>
      <trkpt lat="45.97805" lon="3.94752">
        <ele>523</ele>
        <time>2024-12-08T06:41:55.619Z</time>
      </trkpt>
      <trkpt lat="45.97806" lon="3.94755">
        <ele>523</ele>
        <time>2024-12-08T06:41:56.620Z</time>
      </trkpt>
      <trkpt lat="45.97806" lon="3.94757">
        <ele>523</ele>
        <time>2024-12-08T06:41:57.620Z</time>
      </trkpt>
      <trkpt lat="45.97808" lon="3.94759">
        <ele>523</ele>
        <time>2024-12-08T06:41:58.619Z</time>
      </trkpt>
      <trkpt lat="45.97809" lon="3.94761">
        <ele>523</ele>
        <time>2024-12-08T06:41:59.620Z</time>
      </trkpt>
      <trkpt lat="45.9781" lon="3.94763">
        <ele>523</ele>
        <time>2024-12-08T06:42:00.619Z</time>
      </trkpt>
      <trkpt lat="45.97811" lon="3.94766">
        <ele>523</ele>
        <time>2024-12-08T06:42:01.620Z</time>
      </trkpt>
      <trkpt lat="45.97812" lon="3.94767">
        <ele>523</ele>
        <time>2024-12-08T06:42:02.619Z</time>
      </trkpt>
      <trkpt lat="45.97813" lon="3.94769">
        <ele>523</ele>
        <time>2024-12-08T06:42:03.619Z</time>
      </trkpt>
      <trkpt lat="45.97814" lon="3.94772">
        <ele>523</ele>
        <time>2024-12-08T06:42:04.619Z</time>
      </trkpt>
      <trkpt lat="45.97815" lon="3.94774">
        <ele>523</ele>
        <time>2024-12-08T06:42:05.619Z</time>
      </trkpt>
      <trkpt lat="45.97816" lon="3.94776">
        <ele>523</ele>
        <time>2024-12-08T06:42:06.620Z</time>
      </trkpt>
      <trkpt lat="45.97817" lon="3.94778">
        <ele>523</ele>
        <time>2024-12-08T06:42:07.620Z</time>
      </trkpt>
      <trkpt lat="45.97818" lon="3.9478">
        <ele>523</ele>
        <time>2024-12-08T06:42:08.620Z</time>
      </trkpt>
      <trkpt lat="45.9782" lon="3.94782">
        <ele>522</ele>
        <time>2024-12-08T06:42:09.620Z</time>
      </trkpt>
      <trkpt lat="45.97821" lon="3.94784">
        <ele>522</ele>
        <time>2024-12-08T06:42:10.619Z</time>
      </trkpt>
      <trkpt lat="45.97822" lon="3.94787">
        <ele>522</ele>
        <time>2024-12-08T06:42:11.620Z</time>
      </trkpt>
      <trkpt lat="45.97822" lon="3.94789">
        <ele>521</ele>
        <time>2024-12-08T06:42:12.619Z</time>
      </trkpt>
      <trkpt lat="45.97823" lon="3.94791">
        <ele>521</ele>
        <time>2024-12-08T06:42:13.619Z</time>
      </trkpt>
      <trkpt lat="45.97825" lon="3.94793">
        <ele>521</ele>
        <time>2024-12-08T06:42:14.620Z</time>
      </trkpt>
      <trkpt lat="45.97826" lon="3.94796">
        <ele>521</ele>
        <time>2024-12-08T06:42:15.620Z</time>
      </trkpt>
      <trkpt lat="45.97827" lon="3.94797">
        <ele>522</ele>
        <time>2024-12-08T06:42:16.620Z</time>
      </trkpt>
      <trkpt lat="45.97828" lon="3.94799">
        <ele>522</ele>
        <time>2024-12-08T06:42:17.620Z</time>
      </trkpt>
      <trkpt lat="45.97829" lon="3.94801">
        <ele>522</ele>
        <time>2024-12-08T06:42:18.620Z</time>
      </trkpt>
      <trkpt lat="45.9783" lon="3.94803">
        <ele>522</ele>
        <time>2024-12-08T06:42:19.620Z</time>
      </trkpt>
      <trkpt lat="45.97831" lon="3.94805">
        <ele>521</ele>
        <time>2024-12-08T06:42:20.620Z</time>
      </trkpt>
      <trkpt lat="45.97832" lon="3.94808">
        <ele>522</ele>
        <time>2024-12-08T06:42:21.620Z</time>
      </trkpt>
      <trkpt lat="45.97833" lon="3.94809">
        <ele>522</ele>
        <time>2024-12-08T06:42:22.620Z</time>
      </trkpt>
      <trkpt lat="45.97834" lon="3.94812">
        <ele>522</ele>
        <time>2024-12-08T06:42:23.620Z</time>
      </trkpt>
      <trkpt lat="45.97835" lon="3.94814">
        <ele>522</ele>
        <time>2024-12-08T06:42:24.619Z</time>
      </trkpt>
      <trkpt lat="45.97836" lon="3.94816">
        <ele>523</ele>
        <time>2024-12-08T06:42:25.619Z</time>
      </trkpt>
      <trkpt lat="45.97837" lon="3.94818">
        <ele>523</ele>
        <time>2024-12-08T06:42:26.620Z</time>
      </trkpt>
      <trkpt lat="45.97838" lon="3.9482">
        <ele>523</ele>
        <time>2024-12-08T06:42:27.620Z</time>
      </trkpt>
      <trkpt lat="45.97839" lon="3.94822">
        <ele>523</ele>
        <time>2024-12-08T06:42:28.619Z</time>
      </trkpt>
      <trkpt lat="45.9784" lon="3.94824">
        <ele>524</ele>
        <time>2024-12-08T06:42:29.619Z</time>
      </trkpt>
      <trkpt lat="45.9784" lon="3.94826">
        <ele>524</ele>
        <time>2024-12-08T06:42:30.619Z</time>
      </trkpt>
      <trkpt lat="45.97841" lon="3.94828">
        <ele>524</ele>
        <time>2024-12-08T06:42:31.619Z</time>
      </trkpt>
      <trkpt lat="45.97842" lon="3.9483">
        <ele>524</ele>
        <time>2024-12-08T06:42:32.619Z</time>
      </trkpt>
      <trkpt lat="45.97844" lon="3.94832">
        <ele>524</ele>
        <time>2024-12-08T06:42:33.620Z</time>
      </trkpt>
      <trkpt lat="45.97845" lon="3.94835">
        <ele>524</ele>
        <time>2024-12-08T06:42:34.620Z</time>
      </trkpt>
      <trkpt lat="45.97846" lon="3.94837">
        <ele>524</ele>
        <time>2024-12-08T06:42:35.619Z</time>
      </trkpt>
      <trkpt lat="45.97847" lon="3.94838">
        <ele>524</ele>
        <time>2024-12-08T06:42:36.620Z</time>
      </trkpt>
      <trkpt lat="45.97848" lon="3.9484">
        <ele>524</ele>
        <time>2024-12-08T06:42:37.619Z</time>
      </trkpt>
      <trkpt lat="45.97849" lon="3.94842">
        <ele>524</ele>
        <time>2024-12-08T06:42:38.619Z</time>
      </trkpt>
      <trkpt lat="45.9785" lon="3.94845">
        <ele>524</ele>
        <time>2024-12-08T06:42:39.619Z</time>
      </trkpt>
      <trkpt lat="45.97851" lon="3.94847">
        <ele>524</ele>
        <time>2024-12-08T06:42:40.619Z</time>
      </trkpt>
      <trkpt lat="45.97852" lon="3.94849">
        <ele>524</ele>
        <time>2024-12-08T06:42:41.619Z</time>
      </trkpt>
      <trkpt lat="45.97853" lon="3.94852">
        <ele>523</ele>
        <time>2024-12-08T06:42:42.620Z</time>
      </trkpt>
      <trkpt lat="45.97854" lon="3.94854">
        <ele>523</ele>
        <time>2024-12-08T06:42:43.620Z</time>
      </trkpt>
      <trkpt lat="45.97855" lon="3.94856">
        <ele>523</ele>
        <time>2024-12-08T06:42:44.619Z</time>
      </trkpt>
      <trkpt lat="45.97856" lon="3.94858">
        <ele>522</ele>
        <time>2024-12-08T06:42:45.619Z</time>
      </trkpt>
      <trkpt lat="45.97857" lon="3.94861">
        <ele>523</ele>
        <time>2024-12-08T06:42:46.620Z</time>
      </trkpt>
      <trkpt lat="45.97858" lon="3.94863">
        <ele>523</ele>
        <time>2024-12-08T06:42:47.619Z</time>
      </trkpt>
      <trkpt lat="45.97859" lon="3.94865">
        <ele>522</ele>
        <time>2024-12-08T06:42:48.619Z</time>
      </trkpt>
      <trkpt lat="45.9786" lon="3.94867">
        <ele>522</ele>
        <time>2024-12-08T06:42:49.620Z</time>
      </trkpt>
      <trkpt lat="45.9786" lon="3.9487">
        <ele>522</ele>
        <time>2024-12-08T06:42:50.619Z</time>
      </trkpt>
      <trkpt lat="45.97861" lon="3.94872">
        <ele>522</ele>
        <time>2024-12-08T06:42:51.619Z</time>
      </trkpt>
      <trkpt lat="45.97862" lon="3.94875">
        <ele>522</ele>
        <time>2024-12-08T06:42:52.620Z</time>
      </trkpt>
      <trkpt lat="45.97862" lon="3.94877">
        <ele>522</ele>
        <time>2024-12-08T06:42:53.619Z</time>
      </trkpt>
      <trkpt lat="45.97863" lon="3.94879">
        <ele>522</ele>
        <time>2024-12-08T06:42:54.619Z</time>
      </trkpt>
      <trkpt lat="45.97864" lon="3.94882">
        <ele>522</ele>
        <time>2024-12-08T06:42:55.619Z</time>
      </trkpt>
      <trkpt lat="45.97865" lon="3.94885">
        <ele>522</ele>
        <time>2024-12-08T06:42:56.619Z</time>
      </trkpt>
      <trkpt lat="45.97865" lon="3.94888">
        <ele>523</ele>
        <time>2024-12-08T06:42:57.619Z</time>
      </trkpt>
      <trkpt lat="45.97866" lon="3.9489">
        <ele>523</ele>
        <time>2024-12-08T06:42:58.620Z</time>
      </trkpt>
      <trkpt lat="45.97866" lon="3.94893">
        <ele>523</ele>
        <time>2024-12-08T06:42:59.619Z</time>
      </trkpt>
      <trkpt lat="45.97867" lon="3.94895">
        <ele>523</ele>
        <time>2024-12-08T06:43:00.620Z</time>
      </trkpt>
      <trkpt lat="45.97868" lon="3.94897">
        <ele>523</ele>
        <time>2024-12-08T06:43:01.619Z</time>
      </trkpt>
      <trkpt lat="45.97869" lon="3.94899">
        <ele>523</ele>
        <time>2024-12-08T06:43:02.619Z</time>
      </trkpt>
      <trkpt lat="45.9787" lon="3.94901">
        <ele>523</ele>
        <time>2024-12-08T06:43:03.619Z</time>
      </trkpt>
      <trkpt lat="45.97871" lon="3.94903">
        <ele>523</ele>
        <time>2024-12-08T06:43:04.620Z</time>
      </trkpt>
      <trkpt lat="45.97873" lon="3.94905">
        <ele>522</ele>
        <time>2024-12-08T06:43:05.620Z</time>
      </trkpt>
      <trkpt lat="45.97874" lon="3.94907">
        <ele>522</ele>
        <time>2024-12-08T06:43:06.620Z</time>
      </trkpt>
      <trkpt lat="45.97875" lon="3.94909">
        <ele>522</ele>
        <time>2024-12-08T06:43:07.619Z</time>
      </trkpt>
      <trkpt lat="45.97876" lon="3.94911">
        <ele>522</ele>
        <time>2024-12-08T06:43:08.619Z</time>
      </trkpt>
      <trkpt lat="45.97877" lon="3.94913">
        <ele>522</ele>
        <time>2024-12-08T06:43:09.620Z</time>
      </trkpt>
      <trkpt lat="45.97878" lon="3.94915">
        <ele>522</ele>
        <time>2024-12-08T06:43:10.619Z</time>
      </trkpt>
      <trkpt lat="45.97879" lon="3.94917">
        <ele>522</ele>
        <time>2024-12-08T06:43:11.620Z</time>
      </trkpt>
      <trkpt lat="45.97881" lon="3.94919">
        <ele>521</ele>
        <time>2024-12-08T06:43:12.620Z</time>
      </trkpt>
      <trkpt lat="45.97882" lon="3.94921">
        <ele>521</ele>
        <time>2024-12-08T06:43:13.619Z</time>
      </trkpt>
      <trkpt lat="45.97883" lon="3.94924">
        <ele>520</ele>
        <time>2024-12-08T06:43:14.620Z</time>
      </trkpt>
      <trkpt lat="45.97884" lon="3.94926">
        <ele>520</ele>
        <time>2024-12-08T06:43:15.620Z</time>
      </trkpt>
      <trkpt lat="45.97886" lon="3.94928">
        <ele>519</ele>
        <time>2024-12-08T06:43:16.619Z</time>
      </trkpt>
      <trkpt lat="45.97887" lon="3.9493">
        <ele>519</ele>
        <time>2024-12-08T06:43:17.619Z</time>
      </trkpt>
      <trkpt lat="45.97888" lon="3.94932">
        <ele>519</ele>
        <time>2024-12-08T06:43:18.619Z</time>
      </trkpt>
      <trkpt lat="45.97889" lon="3.94934">
        <ele>519</ele>
        <time>2024-12-08T06:43:19.619Z</time>
      </trkpt>
      <trkpt lat="45.9789" lon="3.94936">
        <ele>519</ele>
        <time>2024-12-08T06:43:20.620Z</time>
      </trkpt>
      <trkpt lat="45.97892" lon="3.94938">
        <ele>519</ele>
        <time>2024-12-08T06:43:21.619Z</time>
      </trkpt>
      <trkpt lat="45.97892" lon="3.94941">
        <ele>519</ele>
        <time>2024-12-08T06:43:22.619Z</time>
      </trkpt>
      <trkpt lat="45.97893" lon="3.94943">
        <ele>519</ele>
        <time>2024-12-08T06:43:23.620Z</time>
      </trkpt>
      <trkpt lat="45.97894" lon="3.94945">
        <ele>519</ele>
        <time>2024-12-08T06:43:24.619Z</time>
      </trkpt>
      <trkpt lat="45.97896" lon="3.94947">
        <ele>519</ele>
        <time>2024-12-08T06:43:25.619Z</time>
      </trkpt>
      <trkpt lat="45.97897" lon="3.94949">
        <ele>519</ele>
        <time>2024-12-08T06:43:26.620Z</time>
      </trkpt>
      <trkpt lat="45.97898" lon="3.94952">
        <ele>519</ele>
        <time>2024-12-08T06:43:27.620Z</time>
      </trkpt>
      <trkpt lat="45.97899" lon="3.94954">
        <ele>519</ele>
        <time>2024-12-08T06:43:28.619Z</time>
      </trkpt>
      <trkpt lat="45.979" lon="3.94956">
        <ele>519</ele>
        <time>2024-12-08T06:43:29.620Z</time>
      </trkpt>
      <trkpt lat="45.97901" lon="3.94959">
        <ele>519</ele>
        <time>2024-12-08T06:43:30.619Z</time>
      </trkpt>
      <trkpt lat="45.97903" lon="3.94961">
        <ele>519</ele>
        <time>2024-12-08T06:43:31.620Z</time>
      </trkpt>
      <trkpt lat="45.97904" lon="3.94963">
        <ele>519</ele>
        <time>2024-12-08T06:43:32.619Z</time>
      </trkpt>
      <trkpt lat="45.97905" lon="3.94965">
        <ele>519</ele>
        <time>2024-12-08T06:43:33.620Z</time>
      </trkpt>
      <trkpt lat="45.97906" lon="3.94967">
        <ele>519</ele>
        <time>2024-12-08T06:43:34.619Z</time>
      </trkpt>
      <trkpt lat="45.97907" lon="3.9497">
        <ele>519</ele>
        <time>2024-12-08T06:43:35.620Z</time>
      </trkpt>
      <trkpt lat="45.97907" lon="3.94973">
        <ele>519</ele>
        <time>2024-12-08T06:43:36.619Z</time>
      </trkpt>
      <trkpt lat="45.97908" lon="3.94975">
        <ele>519</ele>
        <time>2024-12-08T06:43:37.619Z</time>
      </trkpt>
      <trkpt lat="45.97909" lon="3.94978">
        <ele>519</ele>
        <time>2024-12-08T06:43:38.620Z</time>
      </trkpt>
      <trkpt lat="45.9791" lon="3.94981">
        <ele>519</ele>
        <time>2024-12-08T06:43:39.620Z</time>
      </trkpt>
      <trkpt lat="45.97911" lon="3.94983">
        <ele>519</ele>
        <time>2024-12-08T06:43:40.619Z</time>
      </trkpt>
      <trkpt lat="45.97911" lon="3.94986">
        <ele>518</ele>
        <time>2024-12-08T06:43:41.620Z</time>
      </trkpt>
      <trkpt lat="45.97912" lon="3.94989">
        <ele>519</ele>
        <time>2024-12-08T06:43:42.620Z</time>
      </trkpt>
      <trkpt lat="45.97913" lon="3.94991">
        <ele>518</ele>
        <time>2024-12-08T06:43:43.619Z</time>
      </trkpt>
      <trkpt lat="45.97913" lon="3.94994">
        <ele>518</ele>
        <time>2024-12-08T06:43:44.619Z</time>
      </trkpt>
      <trkpt lat="45.97914" lon="3.94997">
        <ele>518</ele>
        <time>2024-12-08T06:43:45.620Z</time>
      </trkpt>
      <trkpt lat="45.97915" lon="3.94999">
        <ele>517</ele>
        <time>2024-12-08T06:43:46.620Z</time>
      </trkpt>
      <trkpt lat="45.97915" lon="3.95002">
        <ele>517</ele>
        <time>2024-12-08T06:43:47.619Z</time>
      </trkpt>
      <trkpt lat="45.97916" lon="3.95005">
        <ele>517</ele>
        <time>2024-12-08T06:43:48.619Z</time>
      </trkpt>
      <trkpt lat="45.97916" lon="3.95008">
        <ele>516</ele>
        <time>2024-12-08T06:43:49.619Z</time>
      </trkpt>
      <trkpt lat="45.97916" lon="3.95011">
        <ele>516</ele>
        <time>2024-12-08T06:43:50.619Z</time>
      </trkpt>
      <trkpt lat="45.97916" lon="3.95014">
        <ele>515</ele>
        <time>2024-12-08T06:43:51.619Z</time>
      </trkpt>
      <trkpt lat="45.97917" lon="3.95016">
        <ele>515</ele>
        <time>2024-12-08T06:43:52.620Z</time>
      </trkpt>
      <trkpt lat="45.97917" lon="3.95019">
        <ele>515</ele>
        <time>2024-12-08T06:43:53.620Z</time>
      </trkpt>
      <trkpt lat="45.97917" lon="3.95022">
        <ele>514</ele>
        <time>2024-12-08T06:43:54.620Z</time>
      </trkpt>
      <trkpt lat="45.97917" lon="3.95024">
        <ele>514</ele>
        <time>2024-12-08T06:43:55.619Z</time>
      </trkpt>
      <trkpt lat="45.97918" lon="3.95027">
        <ele>513</ele>
        <time>2024-12-08T06:43:56.620Z</time>
      </trkpt>
      <trkpt lat="45.97918" lon="3.9503">
        <ele>513</ele>
        <time>2024-12-08T06:43:57.620Z</time>
      </trkpt>
      <trkpt lat="45.97918" lon="3.95033">
        <ele>514</ele>
        <time>2024-12-08T06:43:58.619Z</time>
      </trkpt>
      <trkpt lat="45.97919" lon="3.95036">
        <ele>514</ele>
        <time>2024-12-08T06:43:59.620Z</time>
      </trkpt>
      <trkpt lat="45.97919" lon="3.95038">
        <ele>514</ele>
        <time>2024-12-08T06:44:00.619Z</time>
      </trkpt>
      <trkpt lat="45.9792" lon="3.9504">
        <ele>513</ele>
        <time>2024-12-08T06:44:01.619Z</time>
      </trkpt>
      <trkpt lat="45.9792" lon="3.95043">
        <ele>513</ele>
        <time>2024-12-08T06:44:02.620Z</time>
      </trkpt>
      <trkpt lat="45.97921" lon="3.95046">
        <ele>513</ele>
        <time>2024-12-08T06:44:03.619Z</time>
      </trkpt>
      <trkpt lat="45.97921" lon="3.95048">
        <ele>514</ele>
        <time>2024-12-08T06:44:04.619Z</time>
      </trkpt>
      <trkpt lat="45.97921" lon="3.95051">
        <ele>514</ele>
        <time>2024-12-08T06:44:05.619Z</time>
      </trkpt>
      <trkpt lat="45.97921" lon="3.95054">
        <ele>514</ele>
        <time>2024-12-08T06:44:06.620Z</time>
      </trkpt>
      <trkpt lat="45.97921" lon="3.95056">
        <ele>514</ele>
        <time>2024-12-08T06:44:07.620Z</time>
      </trkpt>
      <trkpt lat="45.97921" lon="3.95059">
        <ele>513</ele>
        <time>2024-12-08T06:44:08.619Z</time>
      </trkpt>
      <trkpt lat="45.97921" lon="3.95062">
        <ele>513</ele>
        <time>2024-12-08T06:44:09.620Z</time>
      </trkpt>
      <trkpt lat="45.97921" lon="3.95065">
        <ele>513</ele>
        <time>2024-12-08T06:44:10.620Z</time>
      </trkpt>
      <trkpt lat="45.97921" lon="3.95067">
        <ele>513</ele>
        <time>2024-12-08T06:44:11.619Z</time>
      </trkpt>
      <trkpt lat="45.97921" lon="3.9507">
        <ele>513</ele>
        <time>2024-12-08T06:44:12.619Z</time>
      </trkpt>
      <trkpt lat="45.9792" lon="3.95073">
        <ele>513</ele>
        <time>2024-12-08T06:44:13.619Z</time>
      </trkpt>
      <trkpt lat="45.9792" lon="3.95075">
        <ele>513</ele>
        <time>2024-12-08T06:44:14.620Z</time>
      </trkpt>
      <trkpt lat="45.9792" lon="3.95078">
        <ele>513</ele>
        <time>2024-12-08T06:44:15.619Z</time>
      </trkpt>
      <trkpt lat="45.97921" lon="3.95081">
        <ele>513</ele>
        <time>2024-12-08T06:44:16.620Z</time>
      </trkpt>
      <trkpt lat="45.9792" lon="3.95084">
        <ele>513</ele>
        <time>2024-12-08T06:44:17.619Z</time>
      </trkpt>
      <trkpt lat="45.9792" lon="3.95087">
        <ele>513</ele>
        <time>2024-12-08T06:44:18.620Z</time>
      </trkpt>
      <trkpt lat="45.97921" lon="3.95089">
        <ele>512</ele>
        <time>2024-12-08T06:44:19.619Z</time>
      </trkpt>
      <trkpt lat="45.97921" lon="3.95092">
        <ele>512</ele>
        <time>2024-12-08T06:44:20.620Z</time>
      </trkpt>
      <trkpt lat="45.97921" lon="3.95095">
        <ele>512</ele>
        <time>2024-12-08T06:44:21.619Z</time>
      </trkpt>
      <trkpt lat="45.97921" lon="3.95098">
        <ele>511</ele>
        <time>2024-12-08T06:44:22.619Z</time>
      </trkpt>
      <trkpt lat="45.97921" lon="3.95101">
        <ele>511</ele>
        <time>2024-12-08T06:44:23.620Z</time>
      </trkpt>
      <trkpt lat="45.97921" lon="3.95104">
        <ele>511</ele>
        <time>2024-12-08T06:44:24.619Z</time>
      </trkpt>
      <trkpt lat="45.97921" lon="3.95107">
        <ele>510</ele>
        <time>2024-12-08T06:44:25.620Z</time>
      </trkpt>
      <trkpt lat="45.97921" lon="3.9511">
        <ele>510</ele>
        <time>2024-12-08T06:44:26.620Z</time>
      </trkpt>
      <trkpt lat="45.97921" lon="3.95113">
        <ele>509</ele>
        <time>2024-12-08T06:44:27.620Z</time>
      </trkpt>
      <trkpt lat="45.9792" lon="3.95116">
        <ele>509</ele>
        <time>2024-12-08T06:44:28.620Z</time>
      </trkpt>
      <trkpt lat="45.9792" lon="3.95119">
        <ele>509</ele>
        <time>2024-12-08T06:44:29.619Z</time>
      </trkpt>
      <trkpt lat="45.97919" lon="3.95122">
        <ele>508</ele>
        <time>2024-12-08T06:44:30.620Z</time>
      </trkpt>
      <trkpt lat="45.97919" lon="3.95125">
        <ele>508</ele>
        <time>2024-12-08T06:44:31.619Z</time>
      </trkpt>
      <trkpt lat="45.97918" lon="3.95128">
        <ele>507</ele>
        <time>2024-12-08T06:44:32.620Z</time>
      </trkpt>
      <trkpt lat="45.97918" lon="3.95131">
        <ele>507</ele>
        <time>2024-12-08T06:44:33.619Z</time>
      </trkpt>
      <trkpt lat="45.97917" lon="3.95133">
        <ele>506</ele>
        <time>2024-12-08T06:44:34.619Z</time>
      </trkpt>
      <trkpt lat="45.97916" lon="3.95136">
        <ele>506</ele>
        <time>2024-12-08T06:44:35.620Z</time>
      </trkpt>
      <trkpt lat="45.97915" lon="3.95139">
        <ele>505</ele>
        <time>2024-12-08T06:44:36.619Z</time>
      </trkpt>
      <trkpt lat="45.97915" lon="3.95141">
        <ele>505</ele>
        <time>2024-12-08T06:44:37.619Z</time>
      </trkpt>
      <trkpt lat="45.97914" lon="3.95144">
        <ele>505</ele>
        <time>2024-12-08T06:44:38.619Z</time>
      </trkpt>
      <trkpt lat="45.97914" lon="3.95147">
        <ele>505</ele>
        <time>2024-12-08T06:44:39.619Z</time>
      </trkpt>
      <trkpt lat="45.97913" lon="3.95149">
        <ele>504</ele>
        <time>2024-12-08T06:44:40.619Z</time>
      </trkpt>
      <trkpt lat="45.97912" lon="3.95152">
        <ele>504</ele>
        <time>2024-12-08T06:44:41.619Z</time>
      </trkpt>
      <trkpt lat="45.97912" lon="3.95154">
        <ele>504</ele>
        <time>2024-12-08T06:44:42.620Z</time>
      </trkpt>
      <trkpt lat="45.97911" lon="3.95156">
        <ele>504</ele>
        <time>2024-12-08T06:44:43.620Z</time>
      </trkpt>
      <trkpt lat="45.9791" lon="3.95159">
        <ele>504</ele>
        <time>2024-12-08T06:44:44.620Z</time>
      </trkpt>
      <trkpt lat="45.97909" lon="3.95161">
        <ele>504</ele>
        <time>2024-12-08T06:44:45.619Z</time>
      </trkpt>
      <trkpt lat="45.97909" lon="3.95164">
        <ele>505</ele>
        <time>2024-12-08T06:44:46.619Z</time>
      </trkpt>
      <trkpt lat="45.97908" lon="3.95166">
        <ele>504</ele>
        <time>2024-12-08T06:44:47.619Z</time>
      </trkpt>
      <trkpt lat="45.97907" lon="3.95169">
        <ele>504</ele>
        <time>2024-12-08T06:44:48.620Z</time>
      </trkpt>
      <trkpt lat="45.97907" lon="3.95171">
        <ele>504</ele>
        <time>2024-12-08T06:44:49.619Z</time>
      </trkpt>
      <trkpt lat="45.97906" lon="3.95174">
        <ele>505</ele>
        <time>2024-12-08T06:44:50.619Z</time>
      </trkpt>
      <trkpt lat="45.97906" lon="3.95176">
        <ele>505</ele>
        <time>2024-12-08T06:44:51.619Z</time>
      </trkpt>
      <trkpt lat="45.97905" lon="3.95178">
        <ele>505</ele>
        <time>2024-12-08T06:44:52.620Z</time>
      </trkpt>
      <trkpt lat="45.97904" lon="3.9518">
        <ele>505</ele>
        <time>2024-12-08T06:44:53.620Z</time>
      </trkpt>
      <trkpt lat="45.97904" lon="3.95183">
        <ele>506</ele>
        <time>2024-12-08T06:44:54.620Z</time>
      </trkpt>
      <trkpt lat="45.97903" lon="3.95185">
        <ele>506</ele>
        <time>2024-12-08T06:44:55.619Z</time>
      </trkpt>
      <trkpt lat="45.97902" lon="3.95187">
        <ele>507</ele>
        <time>2024-12-08T06:44:56.619Z</time>
      </trkpt>
      <trkpt lat="45.97902" lon="3.9519">
        <ele>507</ele>
        <time>2024-12-08T06:44:57.619Z</time>
      </trkpt>
      <trkpt lat="45.97901" lon="3.95192">
        <ele>507</ele>
        <time>2024-12-08T06:44:58.619Z</time>
      </trkpt>
      <trkpt lat="45.979" lon="3.95195">
        <ele>507</ele>
        <time>2024-12-08T06:44:59.619Z</time>
      </trkpt>
      <trkpt lat="45.97899" lon="3.95198">
        <ele>506</ele>
        <time>2024-12-08T06:45:00.619Z</time>
      </trkpt>
      <trkpt lat="45.97899" lon="3.952">
        <ele>506</ele>
        <time>2024-12-08T06:45:01.620Z</time>
      </trkpt>
      <trkpt lat="45.97898" lon="3.95203">
        <ele>505</ele>
        <time>2024-12-08T06:45:02.619Z</time>
      </trkpt>
      <trkpt lat="45.97898" lon="3.95205">
        <ele>504</ele>
        <time>2024-12-08T06:45:03.620Z</time>
      </trkpt>
      <trkpt lat="45.97897" lon="3.95208">
        <ele>504</ele>
        <time>2024-12-08T06:45:04.620Z</time>
      </trkpt>
      <trkpt lat="45.97897" lon="3.95211">
        <ele>503</ele>
        <time>2024-12-08T06:45:05.620Z</time>
      </trkpt>
      <trkpt lat="45.97896" lon="3.95214">
        <ele>503</ele>
        <time>2024-12-08T06:45:06.619Z</time>
      </trkpt>
      <trkpt lat="45.97896" lon="3.95217">
        <ele>502</ele>
        <time>2024-12-08T06:45:07.620Z</time>
      </trkpt>
      <trkpt lat="45.97896" lon="3.9522">
        <ele>502</ele>
        <time>2024-12-08T06:45:08.620Z</time>
      </trkpt>
      <trkpt lat="45.97896" lon="3.95222">
        <ele>501</ele>
        <time>2024-12-08T06:45:09.619Z</time>
      </trkpt>
      <trkpt lat="45.97897" lon="3.95224">
        <ele>501</ele>
        <time>2024-12-08T06:45:10.619Z</time>
      </trkpt>
      <trkpt lat="45.97897" lon="3.95227">
        <ele>500</ele>
        <time>2024-12-08T06:45:11.619Z</time>
      </trkpt>
      <trkpt lat="45.97898" lon="3.9523">
        <ele>500</ele>
        <time>2024-12-08T06:45:12.620Z</time>
      </trkpt>
      <trkpt lat="45.97898" lon="3.95232">
        <ele>499</ele>
        <time>2024-12-08T06:45:13.619Z</time>
      </trkpt>
      <trkpt lat="45.97899" lon="3.95235">
        <ele>499</ele>
        <time>2024-12-08T06:45:14.619Z</time>
      </trkpt>
      <trkpt lat="45.979" lon="3.95237">
        <ele>499</ele>
        <time>2024-12-08T06:45:15.619Z</time>
      </trkpt>
      <trkpt lat="45.979" lon="3.95239">
        <ele>498</ele>
        <time>2024-12-08T06:45:16.620Z</time>
      </trkpt>
      <trkpt lat="45.97901" lon="3.95242">
        <ele>498</ele>
        <time>2024-12-08T06:45:17.619Z</time>
      </trkpt>
      <trkpt lat="45.97902" lon="3.95244">
        <ele>498</ele>
        <time>2024-12-08T06:45:18.619Z</time>
      </trkpt>
      <trkpt lat="45.97902" lon="3.95246">
        <ele>498</ele>
        <time>2024-12-08T06:45:19.619Z</time>
      </trkpt>
      <trkpt lat="45.97903" lon="3.95249">
        <ele>497</ele>
        <time>2024-12-08T06:45:20.620Z</time>
      </trkpt>
      <trkpt lat="45.97904" lon="3.95251">
        <ele>497</ele>
        <time>2024-12-08T06:45:21.620Z</time>
      </trkpt>
      <trkpt lat="45.97905" lon="3.95253">
        <ele>496</ele>
        <time>2024-12-08T06:45:22.619Z</time>
      </trkpt>
      <trkpt lat="45.97905" lon="3.95255">
        <ele>496</ele>
        <time>2024-12-08T06:45:23.619Z</time>
      </trkpt>
      <trkpt lat="45.97906" lon="3.95257">
        <ele>495</ele>
        <time>2024-12-08T06:45:24.619Z</time>
      </trkpt>
      <trkpt lat="45.97907" lon="3.9526">
        <ele>495</ele>
        <time>2024-12-08T06:45:25.619Z</time>
      </trkpt>
      <trkpt lat="45.97908" lon="3.95262">
        <ele>494</ele>
        <time>2024-12-08T06:45:26.620Z</time>
      </trkpt>
      <trkpt lat="45.97909" lon="3.95264">
        <ele>494</ele>
        <time>2024-12-08T06:45:27.619Z</time>
      </trkpt>
      <trkpt lat="45.9791" lon="3.95266">
        <ele>493</ele>
        <time>2024-12-08T06:45:28.619Z</time>
      </trkpt>
      <trkpt lat="45.97911" lon="3.95269">
        <ele>493</ele>
        <time>2024-12-08T06:45:29.620Z</time>
      </trkpt>
      <trkpt lat="45.97912" lon="3.95272">
        <ele>493</ele>
        <time>2024-12-08T06:45:30.619Z</time>
      </trkpt>
      <trkpt lat="45.97913" lon="3.95275">
        <ele>493</ele>
        <time>2024-12-08T06:45:31.619Z</time>
      </trkpt>
      <trkpt lat="45.97914" lon="3.95276">
        <ele>492</ele>
        <time>2024-12-08T06:45:32.619Z</time>
      </trkpt>
      <trkpt lat="45.97915" lon="3.95278">
        <ele>492</ele>
        <time>2024-12-08T06:45:33.619Z</time>
      </trkpt>
      <trkpt lat="45.97917" lon="3.9528">
        <ele>492</ele>
        <time>2024-12-08T06:45:34.620Z</time>
      </trkpt>
      <trkpt lat="45.97918" lon="3.95283">
        <ele>491</ele>
        <time>2024-12-08T06:45:35.620Z</time>
      </trkpt>
      <trkpt lat="45.97919" lon="3.95285">
        <ele>491</ele>
        <time>2024-12-08T06:45:36.619Z</time>
      </trkpt>
      <trkpt lat="45.9792" lon="3.95288">
        <ele>491</ele>
        <time>2024-12-08T06:45:37.619Z</time>
      </trkpt>
      <trkpt lat="45.9792" lon="3.95291">
        <ele>491</ele>
        <time>2024-12-08T06:45:38.620Z</time>
      </trkpt>
      <trkpt lat="45.97921" lon="3.95293">
        <ele>490</ele>
        <time>2024-12-08T06:45:39.620Z</time>
      </trkpt>
      <trkpt lat="45.97922" lon="3.95296">
        <ele>490</ele>
        <time>2024-12-08T06:45:40.619Z</time>
      </trkpt>
      <trkpt lat="45.97924" lon="3.95299">
        <ele>490</ele>
        <time>2024-12-08T06:45:41.619Z</time>
      </trkpt>
      <trkpt lat="45.97925" lon="3.95301">
        <ele>490</ele>
        <time>2024-12-08T06:45:42.620Z</time>
      </trkpt>
      <trkpt lat="45.97926" lon="3.95304">
        <ele>490</ele>
        <time>2024-12-08T06:45:43.620Z</time>
      </trkpt>
      <trkpt lat="45.97927" lon="3.95306">
        <ele>490</ele>
        <time>2024-12-08T06:45:44.620Z</time>
      </trkpt>
      <trkpt lat="45.97928" lon="3.95308">
        <ele>490</ele>
        <time>2024-12-08T06:45:45.620Z</time>
      </trkpt>
      <trkpt lat="45.97929" lon="3.95311">
        <ele>490</ele>
        <time>2024-12-08T06:45:46.619Z</time>
      </trkpt>
      <trkpt lat="45.9793" lon="3.95313">
        <ele>490</ele>
        <time>2024-12-08T06:45:47.619Z</time>
      </trkpt>
      <trkpt lat="45.9793" lon="3.95316">
        <ele>489</ele>
        <time>2024-12-08T06:45:48.619Z</time>
      </trkpt>
      <trkpt lat="45.97931" lon="3.95318">
        <ele>489</ele>
        <time>2024-12-08T06:45:49.620Z</time>
      </trkpt>
      <trkpt lat="45.97932" lon="3.95321">
        <ele>489</ele>
        <time>2024-12-08T06:45:50.619Z</time>
      </trkpt>
      <trkpt lat="45.97933" lon="3.95323">
        <ele>489</ele>
        <time>2024-12-08T06:45:51.619Z</time>
      </trkpt>
      <trkpt lat="45.97934" lon="3.95325">
        <ele>489</ele>
        <time>2024-12-08T06:45:52.620Z</time>
      </trkpt>
      <trkpt lat="45.97935" lon="3.95327">
        <ele>488</ele>
        <time>2024-12-08T06:45:53.619Z</time>
      </trkpt>
      <trkpt lat="45.97936" lon="3.9533">
        <ele>488</ele>
        <time>2024-12-08T06:45:54.620Z</time>
      </trkpt>
      <trkpt lat="45.97938" lon="3.95332">
        <ele>487</ele>
        <time>2024-12-08T06:45:55.620Z</time>
      </trkpt>
      <trkpt lat="45.97939" lon="3.95335">
        <ele>487</ele>
        <time>2024-12-08T06:45:56.620Z</time>
      </trkpt>
      <trkpt lat="45.9794" lon="3.95337">
        <ele>487</ele>
        <time>2024-12-08T06:45:57.619Z</time>
      </trkpt>
      <trkpt lat="45.97941" lon="3.95339">
        <ele>487</ele>
        <time>2024-12-08T06:45:58.620Z</time>
      </trkpt>
      <trkpt lat="45.97942" lon="3.95341">
        <ele>486</ele>
        <time>2024-12-08T06:45:59.620Z</time>
      </trkpt>
      <trkpt lat="45.97943" lon="3.95344">
        <ele>486</ele>
        <time>2024-12-08T06:46:00.619Z</time>
      </trkpt>
      <trkpt lat="45.97944" lon="3.95346">
        <ele>486</ele>
        <time>2024-12-08T06:46:01.620Z</time>
      </trkpt>
      <trkpt lat="45.97945" lon="3.95349">
        <ele>486</ele>
        <time>2024-12-08T06:46:02.619Z</time>
      </trkpt>
      <trkpt lat="45.97946" lon="3.95352">
        <ele>486</ele>
        <time>2024-12-08T06:46:03.620Z</time>
      </trkpt>
      <trkpt lat="45.97947" lon="3.95354">
        <ele>486</ele>
        <time>2024-12-08T06:46:04.620Z</time>
      </trkpt>
      <trkpt lat="45.97948" lon="3.95356">
        <ele>486</ele>
        <time>2024-12-08T06:46:05.619Z</time>
      </trkpt>
      <trkpt lat="45.97949" lon="3.95359">
        <ele>485</ele>
        <time>2024-12-08T06:46:06.620Z</time>
      </trkpt>
      <trkpt lat="45.9795" lon="3.95361">
        <ele>485</ele>
        <time>2024-12-08T06:46:07.620Z</time>
      </trkpt>
      <trkpt lat="45.97951" lon="3.95364">
        <ele>485</ele>
        <time>2024-12-08T06:46:08.620Z</time>
      </trkpt>
      <trkpt lat="45.97952" lon="3.95367">
        <ele>484</ele>
        <time>2024-12-08T06:46:09.619Z</time>
      </trkpt>
      <trkpt lat="45.97953" lon="3.9537">
        <ele>484</ele>
        <time>2024-12-08T06:46:10.619Z</time>
      </trkpt>
      <trkpt lat="45.97954" lon="3.95372">
        <ele>484</ele>
        <time>2024-12-08T06:46:11.619Z</time>
      </trkpt>
      <trkpt lat="45.97955" lon="3.95374">
        <ele>484</ele>
        <time>2024-12-08T06:46:12.620Z</time>
      </trkpt>
      <trkpt lat="45.97956" lon="3.95376">
        <ele>484</ele>
        <time>2024-12-08T06:46:13.620Z</time>
      </trkpt>
      <trkpt lat="45.97957" lon="3.95378">
        <ele>483</ele>
        <time>2024-12-08T06:46:14.619Z</time>
      </trkpt>
      <trkpt lat="45.97958" lon="3.95381">
        <ele>483</ele>
        <time>2024-12-08T06:46:15.620Z</time>
      </trkpt>
      <trkpt lat="45.9796" lon="3.95383">
        <ele>483</ele>
        <time>2024-12-08T06:46:16.620Z</time>
      </trkpt>
      <trkpt lat="45.97961" lon="3.95385">
        <ele>483</ele>
        <time>2024-12-08T06:46:17.620Z</time>
      </trkpt>
      <trkpt lat="45.97961" lon="3.95388">
        <ele>482</ele>
        <time>2024-12-08T06:46:18.619Z</time>
      </trkpt>
      <trkpt lat="45.97962" lon="3.9539">
        <ele>482</ele>
        <time>2024-12-08T06:46:19.619Z</time>
      </trkpt>
      <trkpt lat="45.97963" lon="3.95393">
        <ele>482</ele>
        <time>2024-12-08T06:46:20.619Z</time>
      </trkpt>
      <trkpt lat="45.97964" lon="3.95395">
        <ele>481</ele>
        <time>2024-12-08T06:46:21.619Z</time>
      </trkpt>
      <trkpt lat="45.97966" lon="3.95398">
        <ele>481</ele>
        <time>2024-12-08T06:46:22.620Z</time>
      </trkpt>
      <trkpt lat="45.97966" lon="3.954">
        <ele>481</ele>
        <time>2024-12-08T06:46:23.619Z</time>
      </trkpt>
      <trkpt lat="45.97967" lon="3.95403">
        <ele>480</ele>
        <time>2024-12-08T06:46:24.619Z</time>
      </trkpt>
      <trkpt lat="45.97968" lon="3.95405">
        <ele>480</ele>
        <time>2024-12-08T06:46:25.620Z</time>
      </trkpt>
      <trkpt lat="45.97969" lon="3.95407">
        <ele>480</ele>
        <time>2024-12-08T06:46:26.619Z</time>
      </trkpt>
      <trkpt lat="45.9797" lon="3.9541">
        <ele>480</ele>
        <time>2024-12-08T06:46:27.619Z</time>
      </trkpt>
      <trkpt lat="45.9797" lon="3.95412">
        <ele>480</ele>
        <time>2024-12-08T06:46:28.619Z</time>
      </trkpt>
      <trkpt lat="45.97971" lon="3.95414">
        <ele>479</ele>
        <time>2024-12-08T06:46:29.620Z</time>
      </trkpt>
      <trkpt lat="45.97972" lon="3.95417">
        <ele>479</ele>
        <time>2024-12-08T06:46:30.620Z</time>
      </trkpt>
      <trkpt lat="45.97973" lon="3.95419">
        <ele>479</ele>
        <time>2024-12-08T06:46:31.619Z</time>
      </trkpt>
      <trkpt lat="45.97974" lon="3.95421">
        <ele>478</ele>
        <time>2024-12-08T06:46:32.619Z</time>
      </trkpt>
      <trkpt lat="45.97975" lon="3.95424">
        <ele>478</ele>
        <time>2024-12-08T06:46:33.619Z</time>
      </trkpt>
      <trkpt lat="45.97976" lon="3.95427">
        <ele>478</ele>
        <time>2024-12-08T06:46:34.620Z</time>
      </trkpt>
      <trkpt lat="45.97977" lon="3.95429">
        <ele>478</ele>
        <time>2024-12-08T06:46:35.619Z</time>
      </trkpt>
      <trkpt lat="45.97978" lon="3.95431">
        <ele>478</ele>
        <time>2024-12-08T06:46:36.620Z</time>
      </trkpt>
      <trkpt lat="45.97979" lon="3.95434">
        <ele>478</ele>
        <time>2024-12-08T06:46:37.619Z</time>
      </trkpt>
      <trkpt lat="45.9798" lon="3.95437">
        <ele>478</ele>
        <time>2024-12-08T06:46:38.620Z</time>
      </trkpt>
      <trkpt lat="45.97981" lon="3.95439">
        <ele>478</ele>
        <time>2024-12-08T06:46:39.620Z</time>
      </trkpt>
      <trkpt lat="45.97982" lon="3.95442">
        <ele>478</ele>
        <time>2024-12-08T06:46:40.619Z</time>
      </trkpt>
      <trkpt lat="45.97983" lon="3.95444">
        <ele>477</ele>
        <time>2024-12-08T06:46:41.619Z</time>
      </trkpt>
      <trkpt lat="45.97984" lon="3.95446">
        <ele>477</ele>
        <time>2024-12-08T06:46:42.619Z</time>
      </trkpt>
      <trkpt lat="45.97985" lon="3.95449">
        <ele>477</ele>
        <time>2024-12-08T06:46:43.619Z</time>
      </trkpt>
      <trkpt lat="45.97986" lon="3.95451">
        <ele>476</ele>
        <time>2024-12-08T06:46:44.619Z</time>
      </trkpt>
      <trkpt lat="45.97987" lon="3.95454">
        <ele>476</ele>
        <time>2024-12-08T06:46:45.620Z</time>
      </trkpt>
      <trkpt lat="45.97988" lon="3.95456">
        <ele>475</ele>
        <time>2024-12-08T06:46:46.619Z</time>
      </trkpt>
      <trkpt lat="45.9799" lon="3.95458">
        <ele>475</ele>
        <time>2024-12-08T06:46:47.620Z</time>
      </trkpt>
      <trkpt lat="45.97991" lon="3.9546">
        <ele>474</ele>
        <time>2024-12-08T06:46:48.619Z</time>
      </trkpt>
      <trkpt lat="45.97992" lon="3.95463">
        <ele>474</ele>
        <time>2024-12-08T06:46:49.619Z</time>
      </trkpt>
      <trkpt lat="45.97993" lon="3.95465">
        <ele>474</ele>
        <time>2024-12-08T06:46:50.619Z</time>
      </trkpt>
      <trkpt lat="45.97994" lon="3.95468">
        <ele>474</ele>
        <time>2024-12-08T06:46:51.620Z</time>
      </trkpt>
      <trkpt lat="45.97995" lon="3.95471">
        <ele>473</ele>
        <time>2024-12-08T06:46:52.620Z</time>
      </trkpt>
      <trkpt lat="45.97997" lon="3.95474">
        <ele>473</ele>
        <time>2024-12-08T06:46:53.620Z</time>
      </trkpt>
      <trkpt lat="45.97998" lon="3.95476">
        <ele>472</ele>
        <time>2024-12-08T06:46:54.619Z</time>
      </trkpt>
      <trkpt lat="45.97999" lon="3.95478">
        <ele>472</ele>
        <time>2024-12-08T06:46:55.619Z</time>
      </trkpt>
      <trkpt lat="45.98" lon="3.95481">
        <ele>472</ele>
        <time>2024-12-08T06:46:56.619Z</time>
      </trkpt>
      <trkpt lat="45.98002" lon="3.95483">
        <ele>472</ele>
        <time>2024-12-08T06:46:57.619Z</time>
      </trkpt>
      <trkpt lat="45.98003" lon="3.95486">
        <ele>472</ele>
        <time>2024-12-08T06:46:58.619Z</time>
      </trkpt>
      <trkpt lat="45.98004" lon="3.95488">
        <ele>472</ele>
        <time>2024-12-08T06:46:59.619Z</time>
      </trkpt>
      <trkpt lat="45.98005" lon="3.95491">
        <ele>472</ele>
        <time>2024-12-08T06:47:00.619Z</time>
      </trkpt>
      <trkpt lat="45.98006" lon="3.95493">
        <ele>471</ele>
        <time>2024-12-08T06:47:01.619Z</time>
      </trkpt>
      <trkpt lat="45.98007" lon="3.95495">
        <ele>471</ele>
        <time>2024-12-08T06:47:02.619Z</time>
      </trkpt>
      <trkpt lat="45.98007" lon="3.95497">
        <ele>471</ele>
        <time>2024-12-08T06:47:03.619Z</time>
      </trkpt>
      <trkpt lat="45.98008" lon="3.955">
        <ele>470</ele>
        <time>2024-12-08T06:47:04.619Z</time>
      </trkpt>
      <trkpt lat="45.98009" lon="3.95502">
        <ele>470</ele>
        <time>2024-12-08T06:47:05.620Z</time>
      </trkpt>
      <trkpt lat="45.98011" lon="3.95505">
        <ele>470</ele>
        <time>2024-12-08T06:47:06.619Z</time>
      </trkpt>
      <trkpt lat="45.98012" lon="3.95507">
        <ele>470</ele>
        <time>2024-12-08T06:47:07.620Z</time>
      </trkpt>
      <trkpt lat="45.98013" lon="3.95509">
        <ele>470</ele>
        <time>2024-12-08T06:47:08.619Z</time>
      </trkpt>
      <trkpt lat="45.98013" lon="3.95512">
        <ele>470</ele>
        <time>2024-12-08T06:47:09.619Z</time>
      </trkpt>
      <trkpt lat="45.98014" lon="3.95514">
        <ele>470</ele>
        <time>2024-12-08T06:47:10.619Z</time>
      </trkpt>
      <trkpt lat="45.98015" lon="3.95517">
        <ele>470</ele>
        <time>2024-12-08T06:47:11.620Z</time>
      </trkpt>
      <trkpt lat="45.98017" lon="3.95519">
        <ele>470</ele>
        <time>2024-12-08T06:47:12.619Z</time>
      </trkpt>
      <trkpt lat="45.98018" lon="3.95522">
        <ele>470</ele>
        <time>2024-12-08T06:47:13.620Z</time>
      </trkpt>
      <trkpt lat="45.98019" lon="3.95524">
        <ele>470</ele>
        <time>2024-12-08T06:47:14.620Z</time>
      </trkpt>
      <trkpt lat="45.9802" lon="3.95526">
        <ele>469</ele>
        <time>2024-12-08T06:47:15.619Z</time>
      </trkpt>
      <trkpt lat="45.98021" lon="3.95528">
        <ele>469</ele>
        <time>2024-12-08T06:47:16.620Z</time>
      </trkpt>
      <trkpt lat="45.98023" lon="3.95531">
        <ele>469</ele>
        <time>2024-12-08T06:47:17.620Z</time>
      </trkpt>
      <trkpt lat="45.98023" lon="3.95534">
        <ele>469</ele>
        <time>2024-12-08T06:47:18.619Z</time>
      </trkpt>
      <trkpt lat="45.98025" lon="3.95536">
        <ele>468</ele>
        <time>2024-12-08T06:47:19.619Z</time>
      </trkpt>
      <trkpt lat="45.98026" lon="3.95539">
        <ele>468</ele>
        <time>2024-12-08T06:47:20.620Z</time>
      </trkpt>
      <trkpt lat="45.98027" lon="3.95541">
        <ele>468</ele>
        <time>2024-12-08T06:47:21.619Z</time>
      </trkpt>
      <trkpt lat="45.98028" lon="3.95544">
        <ele>468</ele>
        <time>2024-12-08T06:47:22.619Z</time>
      </trkpt>
      <trkpt lat="45.98029" lon="3.95546">
        <ele>468</ele>
        <time>2024-12-08T06:47:23.620Z</time>
      </trkpt>
      <trkpt lat="45.98031" lon="3.95549">
        <ele>468</ele>
        <time>2024-12-08T06:47:24.620Z</time>
      </trkpt>
      <trkpt lat="45.98031" lon="3.95552">
        <ele>468</ele>
        <time>2024-12-08T06:47:25.620Z</time>
      </trkpt>
      <trkpt lat="45.98032" lon="3.95554">
        <ele>467</ele>
        <time>2024-12-08T06:47:26.620Z</time>
      </trkpt>
      <trkpt lat="45.98033" lon="3.95556">
        <ele>467</ele>
        <time>2024-12-08T06:47:27.619Z</time>
      </trkpt>
      <trkpt lat="45.98034" lon="3.95558">
        <ele>467</ele>
        <time>2024-12-08T06:47:28.620Z</time>
      </trkpt>
      <trkpt lat="45.98035" lon="3.95561">
        <ele>466</ele>
        <time>2024-12-08T06:47:29.620Z</time>
      </trkpt>
      <trkpt lat="45.98036" lon="3.95563">
        <ele>466</ele>
        <time>2024-12-08T06:47:30.620Z</time>
      </trkpt>
      <trkpt lat="45.98037" lon="3.95566">
        <ele>466</ele>
        <time>2024-12-08T06:47:31.619Z</time>
      </trkpt>
      <trkpt lat="45.98039" lon="3.95568">
        <ele>466</ele>
        <time>2024-12-08T06:47:32.619Z</time>
      </trkpt>
      <trkpt lat="45.9804" lon="3.9557">
        <ele>465</ele>
        <time>2024-12-08T06:47:33.619Z</time>
      </trkpt>
      <trkpt lat="45.98041" lon="3.95572">
        <ele>465</ele>
        <time>2024-12-08T06:47:34.619Z</time>
      </trkpt>
      <trkpt lat="45.98042" lon="3.95574">
        <ele>465</ele>
        <time>2024-12-08T06:47:35.619Z</time>
      </trkpt>
      <trkpt lat="45.98043" lon="3.95577">
        <ele>465</ele>
        <time>2024-12-08T06:47:36.619Z</time>
      </trkpt>
      <trkpt lat="45.98044" lon="3.95579">
        <ele>465</ele>
        <time>2024-12-08T06:47:37.620Z</time>
      </trkpt>
      <trkpt lat="45.98045" lon="3.95582">
        <ele>465</ele>
        <time>2024-12-08T06:47:38.620Z</time>
      </trkpt>
      <trkpt lat="45.98046" lon="3.95584">
        <ele>465</ele>
        <time>2024-12-08T06:47:39.619Z</time>
      </trkpt>
      <trkpt lat="45.98047" lon="3.95586">
        <ele>464</ele>
        <time>2024-12-08T06:47:40.619Z</time>
      </trkpt>
      <trkpt lat="45.98048" lon="3.95589">
        <ele>464</ele>
        <time>2024-12-08T06:47:41.619Z</time>
      </trkpt>
      <trkpt lat="45.98049" lon="3.95591">
        <ele>464</ele>
        <time>2024-12-08T06:47:42.619Z</time>
      </trkpt>
      <trkpt lat="45.9805" lon="3.95594">
        <ele>464</ele>
        <time>2024-12-08T06:47:43.620Z</time>
      </trkpt>
      <trkpt lat="45.98051" lon="3.95596">
        <ele>463</ele>
        <time>2024-12-08T06:47:44.619Z</time>
      </trkpt>
      <trkpt lat="45.98052" lon="3.95598">
        <ele>463</ele>
        <time>2024-12-08T06:47:45.619Z</time>
      </trkpt>
      <trkpt lat="45.98054" lon="3.956">
        <ele>463</ele>
        <time>2024-12-08T06:47:46.620Z</time>
      </trkpt>
      <trkpt lat="45.98055" lon="3.95603">
        <ele>463</ele>
        <time>2024-12-08T06:47:47.619Z</time>
      </trkpt>
      <trkpt lat="45.98056" lon="3.95605">
        <ele>463</ele>
        <time>2024-12-08T06:47:48.620Z</time>
      </trkpt>
      <trkpt lat="45.98057" lon="3.95607">
        <ele>463</ele>
        <time>2024-12-08T06:47:49.619Z</time>
      </trkpt>
      <trkpt lat="45.98058" lon="3.9561">
        <ele>463</ele>
        <time>2024-12-08T06:47:50.620Z</time>
      </trkpt>
      <trkpt lat="45.98059" lon="3.95612">
        <ele>463</ele>
        <time>2024-12-08T06:47:51.619Z</time>
      </trkpt>
      <trkpt lat="45.98061" lon="3.95615">
        <ele>463</ele>
        <time>2024-12-08T06:47:52.620Z</time>
      </trkpt>
      <trkpt lat="45.98062" lon="3.95617">
        <ele>463</ele>
        <time>2024-12-08T06:47:53.619Z</time>
      </trkpt>
      <trkpt lat="45.98063" lon="3.9562">
        <ele>463</ele>
        <time>2024-12-08T06:47:54.619Z</time>
      </trkpt>
      <trkpt lat="45.98063" lon="3.95622">
        <ele>463</ele>
        <time>2024-12-08T06:47:55.619Z</time>
      </trkpt>
      <trkpt lat="45.98065" lon="3.95624">
        <ele>463</ele>
        <time>2024-12-08T06:47:56.619Z</time>
      </trkpt>
      <trkpt lat="45.98066" lon="3.95626">
        <ele>462</ele>
        <time>2024-12-08T06:47:57.620Z</time>
      </trkpt>
      <trkpt lat="45.98067" lon="3.95628">
        <ele>462</ele>
        <time>2024-12-08T06:47:58.619Z</time>
      </trkpt>
      <trkpt lat="45.98068" lon="3.95631">
        <ele>462</ele>
        <time>2024-12-08T06:47:59.619Z</time>
      </trkpt>
      <trkpt lat="45.98069" lon="3.95633">
        <ele>461</ele>
        <time>2024-12-08T06:48:00.619Z</time>
      </trkpt>
      <trkpt lat="45.9807" lon="3.95636">
        <ele>461</ele>
        <time>2024-12-08T06:48:01.620Z</time>
      </trkpt>
      <trkpt lat="45.98071" lon="3.95639">
        <ele>460</ele>
        <time>2024-12-08T06:48:02.619Z</time>
      </trkpt>
      <trkpt lat="45.98072" lon="3.95641">
        <ele>459</ele>
        <time>2024-12-08T06:48:03.619Z</time>
      </trkpt>
      <trkpt lat="45.98073" lon="3.95644">
        <ele>459</ele>
        <time>2024-12-08T06:48:04.620Z</time>
      </trkpt>
      <trkpt lat="45.98074" lon="3.95646">
        <ele>459</ele>
        <time>2024-12-08T06:48:05.620Z</time>
      </trkpt>
      <trkpt lat="45.98075" lon="3.95648">
        <ele>459</ele>
        <time>2024-12-08T06:48:06.619Z</time>
      </trkpt>
      <trkpt lat="45.98076" lon="3.9565">
        <ele>459</ele>
        <time>2024-12-08T06:48:07.620Z</time>
      </trkpt>
      <trkpt lat="45.98077" lon="3.95652">
        <ele>459</ele>
        <time>2024-12-08T06:48:08.620Z</time>
      </trkpt>
      <trkpt lat="45.98078" lon="3.95655">
        <ele>459</ele>
        <time>2024-12-08T06:48:09.620Z</time>
      </trkpt>
      <trkpt lat="45.98079" lon="3.95657">
        <ele>459</ele>
        <time>2024-12-08T06:48:10.620Z</time>
      </trkpt>
      <trkpt lat="45.9808" lon="3.95659">
        <ele>458</ele>
        <time>2024-12-08T06:48:11.619Z</time>
      </trkpt>
      <trkpt lat="45.9808" lon="3.95662">
        <ele>458</ele>
        <time>2024-12-08T06:48:12.620Z</time>
      </trkpt>
      <trkpt lat="45.98081" lon="3.95664">
        <ele>458</ele>
        <time>2024-12-08T06:48:13.619Z</time>
      </trkpt>
      <trkpt lat="45.98082" lon="3.95667">
        <ele>457</ele>
        <time>2024-12-08T06:48:14.620Z</time>
      </trkpt>
      <trkpt lat="45.98083" lon="3.95669">
        <ele>457</ele>
        <time>2024-12-08T06:48:15.619Z</time>
      </trkpt>
      <trkpt lat="45.98084" lon="3.95671">
        <ele>457</ele>
        <time>2024-12-08T06:48:16.620Z</time>
      </trkpt>
      <trkpt lat="45.98085" lon="3.95673">
        <ele>457</ele>
        <time>2024-12-08T06:48:17.620Z</time>
      </trkpt>
      <trkpt lat="45.98086" lon="3.95676">
        <ele>457</ele>
        <time>2024-12-08T06:48:18.619Z</time>
      </trkpt>
      <trkpt lat="45.98087" lon="3.95678">
        <ele>457</ele>
        <time>2024-12-08T06:48:19.620Z</time>
      </trkpt>
      <trkpt lat="45.98088" lon="3.9568">
        <ele>457</ele>
        <time>2024-12-08T06:48:20.620Z</time>
      </trkpt>
      <trkpt lat="45.98089" lon="3.95682">
        <ele>457</ele>
        <time>2024-12-08T06:48:21.620Z</time>
      </trkpt>
      <trkpt lat="45.9809" lon="3.95685">
        <ele>457</ele>
        <time>2024-12-08T06:48:22.619Z</time>
      </trkpt>
      <trkpt lat="45.98091" lon="3.95687">
        <ele>456</ele>
        <time>2024-12-08T06:48:23.619Z</time>
      </trkpt>
      <trkpt lat="45.98092" lon="3.9569">
        <ele>456</ele>
        <time>2024-12-08T06:48:24.620Z</time>
      </trkpt>
      <trkpt lat="45.98093" lon="3.95692">
        <ele>456</ele>
        <time>2024-12-08T06:48:25.620Z</time>
      </trkpt>
      <trkpt lat="45.98094" lon="3.95694">
        <ele>455</ele>
        <time>2024-12-08T06:48:26.619Z</time>
      </trkpt>
      <trkpt lat="45.98095" lon="3.95697">
        <ele>455</ele>
        <time>2024-12-08T06:48:27.620Z</time>
      </trkpt>
      <trkpt lat="45.98096" lon="3.957">
        <ele>455</ele>
        <time>2024-12-08T06:48:28.620Z</time>
      </trkpt>
      <trkpt lat="45.98097" lon="3.95702">
        <ele>455</ele>
        <time>2024-12-08T06:48:29.620Z</time>
      </trkpt>
      <trkpt lat="45.98098" lon="3.95704">
        <ele>455</ele>
        <time>2024-12-08T06:48:30.619Z</time>
      </trkpt>
      <trkpt lat="45.98099" lon="3.95707">
        <ele>455</ele>
        <time>2024-12-08T06:48:31.619Z</time>
      </trkpt>
      <trkpt lat="45.981" lon="3.95709">
        <ele>455</ele>
        <time>2024-12-08T06:48:32.620Z</time>
      </trkpt>
      <trkpt lat="45.98101" lon="3.95711">
        <ele>455</ele>
        <time>2024-12-08T06:48:33.619Z</time>
      </trkpt>
      <trkpt lat="45.98102" lon="3.95713">
        <ele>454</ele>
        <time>2024-12-08T06:48:34.619Z</time>
      </trkpt>
      <trkpt lat="45.98103" lon="3.95715">
        <ele>454</ele>
        <time>2024-12-08T06:48:35.619Z</time>
      </trkpt>
      <trkpt lat="45.98104" lon="3.95718">
        <ele>454</ele>
        <time>2024-12-08T06:48:36.619Z</time>
      </trkpt>
      <trkpt lat="45.98105" lon="3.95721">
        <ele>454</ele>
        <time>2024-12-08T06:48:37.620Z</time>
      </trkpt>
      <trkpt lat="45.98106" lon="3.95723">
        <ele>454</ele>
        <time>2024-12-08T06:48:38.620Z</time>
      </trkpt>
      <trkpt lat="45.98108" lon="3.95725">
        <ele>454</ele>
        <time>2024-12-08T06:48:39.619Z</time>
      </trkpt>
      <trkpt lat="45.98109" lon="3.95727">
        <ele>454</ele>
        <time>2024-12-08T06:48:40.619Z</time>
      </trkpt>
      <trkpt lat="45.9811" lon="3.9573">
        <ele>454</ele>
        <time>2024-12-08T06:48:41.620Z</time>
      </trkpt>
      <trkpt lat="45.98111" lon="3.95732">
        <ele>453</ele>
        <time>2024-12-08T06:48:42.619Z</time>
      </trkpt>
      <trkpt lat="45.98112" lon="3.95735">
        <ele>453</ele>
        <time>2024-12-08T06:48:43.619Z</time>
      </trkpt>
      <trkpt lat="45.98113" lon="3.95737">
        <ele>453</ele>
        <time>2024-12-08T06:48:44.620Z</time>
      </trkpt>
      <trkpt lat="45.98113" lon="3.9574">
        <ele>453</ele>
        <time>2024-12-08T06:48:45.619Z</time>
      </trkpt>
      <trkpt lat="45.98114" lon="3.95743">
        <ele>453</ele>
        <time>2024-12-08T06:48:46.619Z</time>
      </trkpt>
      <trkpt lat="45.98116" lon="3.95745">
        <ele>452</ele>
        <time>2024-12-08T06:48:47.619Z</time>
      </trkpt>
      <trkpt lat="45.98117" lon="3.95746">
        <ele>452</ele>
        <time>2024-12-08T06:48:48.620Z</time>
      </trkpt>
      <trkpt lat="45.98118" lon="3.95748">
        <ele>452</ele>
        <time>2024-12-08T06:48:49.619Z</time>
      </trkpt>
      <trkpt lat="45.98119" lon="3.95751">
        <ele>451</ele>
        <time>2024-12-08T06:48:50.620Z</time>
      </trkpt>
      <trkpt lat="45.9812" lon="3.95753">
        <ele>451</ele>
        <time>2024-12-08T06:48:51.620Z</time>
      </trkpt>
      <trkpt lat="45.98121" lon="3.95755">
        <ele>451</ele>
        <time>2024-12-08T06:48:52.619Z</time>
      </trkpt>
      <trkpt lat="45.98122" lon="3.95758">
        <ele>451</ele>
        <time>2024-12-08T06:48:53.619Z</time>
      </trkpt>
      <trkpt lat="45.98123" lon="3.9576">
        <ele>450</ele>
        <time>2024-12-08T06:48:54.619Z</time>
      </trkpt>
      <trkpt lat="45.98124" lon="3.95762">
        <ele>450</ele>
        <time>2024-12-08T06:48:55.619Z</time>
      </trkpt>
      <trkpt lat="45.98125" lon="3.95764">
        <ele>450</ele>
        <time>2024-12-08T06:48:56.620Z</time>
      </trkpt>
      <trkpt lat="45.98127" lon="3.95767">
        <ele>450</ele>
        <time>2024-12-08T06:48:57.619Z</time>
      </trkpt>
      <trkpt lat="45.98128" lon="3.95769">
        <ele>450</ele>
        <time>2024-12-08T06:48:58.620Z</time>
      </trkpt>
      <trkpt lat="45.98128" lon="3.95772">
        <ele>450</ele>
        <time>2024-12-08T06:48:59.619Z</time>
      </trkpt>
      <trkpt lat="45.98129" lon="3.95775">
        <ele>450</ele>
        <time>2024-12-08T06:49:00.619Z</time>
      </trkpt>
      <trkpt lat="45.9813" lon="3.95777">
        <ele>450</ele>
        <time>2024-12-08T06:49:01.619Z</time>
      </trkpt>
      <trkpt lat="45.98131" lon="3.95779">
        <ele>450</ele>
        <time>2024-12-08T06:49:02.620Z</time>
      </trkpt>
      <trkpt lat="45.98132" lon="3.95782">
        <ele>450</ele>
        <time>2024-12-08T06:49:03.619Z</time>
      </trkpt>
      <trkpt lat="45.98133" lon="3.95784">
        <ele>449</ele>
        <time>2024-12-08T06:49:04.619Z</time>
      </trkpt>
      <trkpt lat="45.98134" lon="3.95785">
        <ele>449</ele>
        <time>2024-12-08T06:49:05.620Z</time>
      </trkpt>
      <trkpt lat="45.98135" lon="3.95788">
        <ele>448</ele>
        <time>2024-12-08T06:49:06.619Z</time>
      </trkpt>
      <trkpt lat="45.98137" lon="3.9579">
        <ele>448</ele>
        <time>2024-12-08T06:49:07.619Z</time>
      </trkpt>
      <trkpt lat="45.98137" lon="3.95793">
        <ele>448</ele>
        <time>2024-12-08T06:49:08.620Z</time>
      </trkpt>
      <trkpt lat="45.98139" lon="3.95795">
        <ele>448</ele>
        <time>2024-12-08T06:49:09.619Z</time>
      </trkpt>
      <trkpt lat="45.9814" lon="3.95798">
        <ele>448</ele>
        <time>2024-12-08T06:49:10.619Z</time>
      </trkpt>
      <trkpt lat="45.9814" lon="3.958">
        <ele>447</ele>
        <time>2024-12-08T06:49:11.619Z</time>
      </trkpt>
      <trkpt lat="45.98141" lon="3.95802">
        <ele>447</ele>
        <time>2024-12-08T06:49:12.619Z</time>
      </trkpt>
      <trkpt lat="45.98142" lon="3.95804">
        <ele>447</ele>
        <time>2024-12-08T06:49:13.620Z</time>
      </trkpt>
      <trkpt lat="45.98143" lon="3.95805">
        <ele>447</ele>
        <time>2024-12-08T06:49:14.619Z</time>
      </trkpt>
      <trkpt lat="45.98144" lon="3.95808">
        <ele>447</ele>
        <time>2024-12-08T06:49:15.620Z</time>
      </trkpt>
      <trkpt lat="45.98145" lon="3.9581">
        <ele>447</ele>
        <time>2024-12-08T06:49:16.620Z</time>
      </trkpt>
      <trkpt lat="45.98146" lon="3.95812">
        <ele>447</ele>
        <time>2024-12-08T06:49:17.619Z</time>
      </trkpt>
      <trkpt lat="45.98147" lon="3.95815">
        <ele>446</ele>
        <time>2024-12-08T06:49:18.619Z</time>
      </trkpt>
      <trkpt lat="45.98148" lon="3.95817">
        <ele>446</ele>
        <time>2024-12-08T06:49:19.620Z</time>
      </trkpt>
      <trkpt lat="45.98149" lon="3.95819">
        <ele>446</ele>
        <time>2024-12-08T06:49:20.619Z</time>
      </trkpt>
      <trkpt lat="45.9815" lon="3.95821">
        <ele>446</ele>
        <time>2024-12-08T06:49:21.619Z</time>
      </trkpt>
      <trkpt lat="45.98151" lon="3.95824">
        <ele>445</ele>
        <time>2024-12-08T06:49:22.620Z</time>
      </trkpt>
      <trkpt lat="45.98152" lon="3.95826">
        <ele>445</ele>
        <time>2024-12-08T06:49:23.620Z</time>
      </trkpt>
      <trkpt lat="45.98153" lon="3.95827">
        <ele>445</ele>
        <time>2024-12-08T06:49:24.620Z</time>
      </trkpt>
      <trkpt lat="45.98154" lon="3.9583">
        <ele>445</ele>
        <time>2024-12-08T06:49:25.619Z</time>
      </trkpt>
      <trkpt lat="45.98155" lon="3.95833">
        <ele>445</ele>
        <time>2024-12-08T06:49:26.619Z</time>
      </trkpt>
      <trkpt lat="45.98156" lon="3.95835">
        <ele>445</ele>
        <time>2024-12-08T06:49:27.620Z</time>
      </trkpt>
      <trkpt lat="45.98157" lon="3.95838">
        <ele>444</ele>
        <time>2024-12-08T06:49:28.620Z</time>
      </trkpt>
      <trkpt lat="45.98158" lon="3.9584">
        <ele>444</ele>
        <time>2024-12-08T06:49:29.620Z</time>
      </trkpt>
      <trkpt lat="45.98159" lon="3.95842">
        <ele>444</ele>
        <time>2024-12-08T06:49:30.620Z</time>
      </trkpt>
      <trkpt lat="45.98159" lon="3.95845">
        <ele>443</ele>
        <time>2024-12-08T06:49:31.620Z</time>
      </trkpt>
      <trkpt lat="45.9816" lon="3.95847">
        <ele>443</ele>
        <time>2024-12-08T06:49:32.619Z</time>
      </trkpt>
      <trkpt lat="45.98161" lon="3.95849">
        <ele>443</ele>
        <time>2024-12-08T06:49:33.620Z</time>
      </trkpt>
      <trkpt lat="45.98162" lon="3.95851">
        <ele>442</ele>
        <time>2024-12-08T06:49:34.620Z</time>
      </trkpt>
      <trkpt lat="45.98163" lon="3.95853">
        <ele>442</ele>
        <time>2024-12-08T06:49:35.619Z</time>
      </trkpt>
      <trkpt lat="45.98164" lon="3.95855">
        <ele>441</ele>
        <time>2024-12-08T06:49:36.619Z</time>
      </trkpt>
      <trkpt lat="45.98165" lon="3.95858">
        <ele>441</ele>
        <time>2024-12-08T06:49:37.620Z</time>
      </trkpt>
      <trkpt lat="45.98166" lon="3.9586">
        <ele>441</ele>
        <time>2024-12-08T06:49:38.620Z</time>
      </trkpt>
      <trkpt lat="45.98167" lon="3.95863">
        <ele>441</ele>
        <time>2024-12-08T06:49:39.620Z</time>
      </trkpt>
      <trkpt lat="45.98168" lon="3.95865">
        <ele>441</ele>
        <time>2024-12-08T06:49:40.620Z</time>
      </trkpt>
      <trkpt lat="45.98169" lon="3.95868">
        <ele>440</ele>
        <time>2024-12-08T06:49:41.620Z</time>
      </trkpt>
      <trkpt lat="45.9817" lon="3.9587">
        <ele>440</ele>
        <time>2024-12-08T06:49:42.619Z</time>
      </trkpt>
      <trkpt lat="45.98171" lon="3.95872">
        <ele>440</ele>
        <time>2024-12-08T06:49:43.620Z</time>
      </trkpt>
      <trkpt lat="45.98172" lon="3.95874">
        <ele>439</ele>
        <time>2024-12-08T06:49:44.620Z</time>
      </trkpt>
      <trkpt lat="45.98174" lon="3.95876">
        <ele>439</ele>
        <time>2024-12-08T06:49:45.619Z</time>
      </trkpt>
      <trkpt lat="45.98175" lon="3.95879">
        <ele>439</ele>
        <time>2024-12-08T06:49:46.619Z</time>
      </trkpt>
      <trkpt lat="45.98176" lon="3.95882">
        <ele>439</ele>
        <time>2024-12-08T06:49:47.619Z</time>
      </trkpt>
      <trkpt lat="45.98177" lon="3.95884">
        <ele>439</ele>
        <time>2024-12-08T06:49:48.620Z</time>
      </trkpt>
      <trkpt lat="45.98178" lon="3.95886">
        <ele>438</ele>
        <time>2024-12-08T06:49:49.619Z</time>
      </trkpt>
      <trkpt lat="45.98179" lon="3.95888">
        <ele>438</ele>
        <time>2024-12-08T06:49:50.619Z</time>
      </trkpt>
      <trkpt lat="45.9818" lon="3.95891">
        <ele>438</ele>
        <time>2024-12-08T06:49:51.619Z</time>
      </trkpt>
      <trkpt lat="45.98181" lon="3.95893">
        <ele>438</ele>
        <time>2024-12-08T06:49:52.619Z</time>
      </trkpt>
      <trkpt lat="45.98182" lon="3.95895">
        <ele>438</ele>
        <time>2024-12-08T06:49:53.620Z</time>
      </trkpt>
      <trkpt lat="45.98183" lon="3.95897">
        <ele>438</ele>
        <time>2024-12-08T06:49:54.619Z</time>
      </trkpt>
      <trkpt lat="45.98184" lon="3.959">
        <ele>438</ele>
        <time>2024-12-08T06:49:55.620Z</time>
      </trkpt>
      <trkpt lat="45.98185" lon="3.95902">
        <ele>438</ele>
        <time>2024-12-08T06:49:56.619Z</time>
      </trkpt>
      <trkpt lat="45.98186" lon="3.95904">
        <ele>437</ele>
        <time>2024-12-08T06:49:57.620Z</time>
      </trkpt>
      <trkpt lat="45.98187" lon="3.95907">
        <ele>437</ele>
        <time>2024-12-08T06:49:58.620Z</time>
      </trkpt>
      <trkpt lat="45.98188" lon="3.95909">
        <ele>438</ele>
        <time>2024-12-08T06:49:59.620Z</time>
      </trkpt>
      <trkpt lat="45.98189" lon="3.95912">
        <ele>438</ele>
        <time>2024-12-08T06:50:00.620Z</time>
      </trkpt>
      <trkpt lat="45.9819" lon="3.95915">
        <ele>438</ele>
        <time>2024-12-08T06:50:01.620Z</time>
      </trkpt>
      <trkpt lat="45.9819" lon="3.95917">
        <ele>437</ele>
        <time>2024-12-08T06:50:02.619Z</time>
      </trkpt>
      <trkpt lat="45.98191" lon="3.95919">
        <ele>437</ele>
        <time>2024-12-08T06:50:03.620Z</time>
      </trkpt>
      <trkpt lat="45.98192" lon="3.95921">
        <ele>437</ele>
        <time>2024-12-08T06:50:04.619Z</time>
      </trkpt>
      <trkpt lat="45.98193" lon="3.95923">
        <ele>437</ele>
        <time>2024-12-08T06:50:05.620Z</time>
      </trkpt>
      <trkpt lat="45.98194" lon="3.95926">
        <ele>436</ele>
        <time>2024-12-08T06:50:06.620Z</time>
      </trkpt>
      <trkpt lat="45.98196" lon="3.95928">
        <ele>435</ele>
        <time>2024-12-08T06:50:07.620Z</time>
      </trkpt>
      <trkpt lat="45.98197" lon="3.95931">
        <ele>435</ele>
        <time>2024-12-08T06:50:08.620Z</time>
      </trkpt>
      <trkpt lat="45.98197" lon="3.95933">
        <ele>435</ele>
        <time>2024-12-08T06:50:09.619Z</time>
      </trkpt>
      <trkpt lat="45.98199" lon="3.95936">
        <ele>434</ele>
        <time>2024-12-08T06:50:10.620Z</time>
      </trkpt>
      <trkpt lat="45.982" lon="3.95938">
        <ele>434</ele>
        <time>2024-12-08T06:50:11.619Z</time>
      </trkpt>
      <trkpt lat="45.98201" lon="3.9594">
        <ele>434</ele>
        <time>2024-12-08T06:50:12.620Z</time>
      </trkpt>
      <trkpt lat="45.98202" lon="3.95942">
        <ele>433</ele>
        <time>2024-12-08T06:50:13.619Z</time>
      </trkpt>
      <trkpt lat="45.98203" lon="3.95944">
        <ele>433</ele>
        <time>2024-12-08T06:50:14.619Z</time>
      </trkpt>
      <trkpt lat="45.98204" lon="3.95947">
        <ele>433</ele>
        <time>2024-12-08T06:50:15.620Z</time>
      </trkpt>
      <trkpt lat="45.98205" lon="3.95949">
        <ele>433</ele>
        <time>2024-12-08T06:50:16.620Z</time>
      </trkpt>
      <trkpt lat="45.98206" lon="3.95951">
        <ele>433</ele>
        <time>2024-12-08T06:50:17.619Z</time>
      </trkpt>
      <trkpt lat="45.98207" lon="3.95954">
        <ele>432</ele>
        <time>2024-12-08T06:50:18.619Z</time>
      </trkpt>
      <trkpt lat="45.98208" lon="3.95957">
        <ele>432</ele>
        <time>2024-12-08T06:50:19.619Z</time>
      </trkpt>
      <trkpt lat="45.98209" lon="3.95959">
        <ele>432</ele>
        <time>2024-12-08T06:50:20.619Z</time>
      </trkpt>
      <trkpt lat="45.9821" lon="3.95962">
        <ele>432</ele>
        <time>2024-12-08T06:50:21.620Z</time>
      </trkpt>
      <trkpt lat="45.98211" lon="3.95964">
        <ele>432</ele>
        <time>2024-12-08T06:50:22.619Z</time>
      </trkpt>
      <trkpt lat="45.98212" lon="3.95966">
        <ele>432</ele>
        <time>2024-12-08T06:50:23.619Z</time>
      </trkpt>
      <trkpt lat="45.98213" lon="3.95969">
        <ele>432</ele>
        <time>2024-12-08T06:50:24.619Z</time>
      </trkpt>
      <trkpt lat="45.98214" lon="3.95971">
        <ele>431</ele>
        <time>2024-12-08T06:50:25.620Z</time>
      </trkpt>
      <trkpt lat="45.98215" lon="3.95974">
        <ele>431</ele>
        <time>2024-12-08T06:50:26.620Z</time>
      </trkpt>
      <trkpt lat="45.98216" lon="3.95976">
        <ele>431</ele>
        <time>2024-12-08T06:50:27.620Z</time>
      </trkpt>
      <trkpt lat="45.98217" lon="3.95978">
        <ele>430</ele>
        <time>2024-12-08T06:50:28.619Z</time>
      </trkpt>
      <trkpt lat="45.98218" lon="3.9598">
        <ele>430</ele>
        <time>2024-12-08T06:50:29.620Z</time>
      </trkpt>
      <trkpt lat="45.98219" lon="3.95983">
        <ele>430</ele>
        <time>2024-12-08T06:50:30.619Z</time>
      </trkpt>
      <trkpt lat="45.9822" lon="3.95985">
        <ele>430</ele>
        <time>2024-12-08T06:50:31.620Z</time>
      </trkpt>
      <trkpt lat="45.98221" lon="3.95988">
        <ele>430</ele>
        <time>2024-12-08T06:50:32.619Z</time>
      </trkpt>
      <trkpt lat="45.98223" lon="3.9599">
        <ele>430</ele>
        <time>2024-12-08T06:50:33.620Z</time>
      </trkpt>
      <trkpt lat="45.98224" lon="3.95992">
        <ele>429</ele>
        <time>2024-12-08T06:50:34.619Z</time>
      </trkpt>
      <trkpt lat="45.98225" lon="3.95995">
        <ele>429</ele>
        <time>2024-12-08T06:50:35.619Z</time>
      </trkpt>
      <trkpt lat="45.98225" lon="3.95997">
        <ele>428</ele>
        <time>2024-12-08T06:50:36.619Z</time>
      </trkpt>
      <trkpt lat="45.98227" lon="3.96">
        <ele>428</ele>
        <time>2024-12-08T06:50:37.619Z</time>
      </trkpt>
      <trkpt lat="45.98228" lon="3.96002">
        <ele>427</ele>
        <time>2024-12-08T06:50:38.619Z</time>
      </trkpt>
      <trkpt lat="45.98229" lon="3.96004">
        <ele>427</ele>
        <time>2024-12-08T06:50:39.620Z</time>
      </trkpt>
      <trkpt lat="45.98229" lon="3.96006">
        <ele>427</ele>
        <time>2024-12-08T06:50:40.619Z</time>
      </trkpt>
      <trkpt lat="45.98231" lon="3.96008">
        <ele>427</ele>
        <time>2024-12-08T06:50:41.620Z</time>
      </trkpt>
      <trkpt lat="45.98232" lon="3.96011">
        <ele>427</ele>
        <time>2024-12-08T06:50:42.619Z</time>
      </trkpt>
      <trkpt lat="45.98233" lon="3.96014">
        <ele>426</ele>
        <time>2024-12-08T06:50:43.619Z</time>
      </trkpt>
      <trkpt lat="45.98234" lon="3.96016">
        <ele>426</ele>
        <time>2024-12-08T06:50:44.620Z</time>
      </trkpt>
      <trkpt lat="45.98235" lon="3.96018">
        <ele>426</ele>
        <time>2024-12-08T06:50:45.619Z</time>
      </trkpt>
      <trkpt lat="45.98236" lon="3.96021">
        <ele>426</ele>
        <time>2024-12-08T06:50:46.620Z</time>
      </trkpt>
      <trkpt lat="45.98237" lon="3.96024">
        <ele>426</ele>
        <time>2024-12-08T06:50:47.620Z</time>
      </trkpt>
      <trkpt lat="45.98238" lon="3.96027">
        <ele>426</ele>
        <time>2024-12-08T06:50:48.620Z</time>
      </trkpt>
      <trkpt lat="45.98239" lon="3.96029">
        <ele>426</ele>
        <time>2024-12-08T06:50:49.619Z</time>
      </trkpt>
      <trkpt lat="45.9824" lon="3.96031">
        <ele>425</ele>
        <time>2024-12-08T06:50:50.619Z</time>
      </trkpt>
      <trkpt lat="45.98241" lon="3.96034">
        <ele>425</ele>
        <time>2024-12-08T06:50:51.619Z</time>
      </trkpt>
      <trkpt lat="45.98242" lon="3.96036">
        <ele>425</ele>
        <time>2024-12-08T06:50:52.619Z</time>
      </trkpt>
      <trkpt lat="45.98243" lon="3.96039">
        <ele>424</ele>
        <time>2024-12-08T06:50:53.619Z</time>
      </trkpt>
      <trkpt lat="45.98244" lon="3.96041">
        <ele>424</ele>
        <time>2024-12-08T06:50:54.619Z</time>
      </trkpt>
      <trkpt lat="45.98245" lon="3.96043">
        <ele>424</ele>
        <time>2024-12-08T06:50:55.619Z</time>
      </trkpt>
      <trkpt lat="45.98246" lon="3.96046">
        <ele>424</ele>
        <time>2024-12-08T06:50:56.619Z</time>
      </trkpt>
      <trkpt lat="45.98247" lon="3.96048">
        <ele>424</ele>
        <time>2024-12-08T06:50:57.620Z</time>
      </trkpt>
      <trkpt lat="45.98248" lon="3.9605">
        <ele>424</ele>
        <time>2024-12-08T06:50:58.620Z</time>
      </trkpt>
      <trkpt lat="45.9825" lon="3.96053">
        <ele>424</ele>
        <time>2024-12-08T06:50:59.619Z</time>
      </trkpt>
      <trkpt lat="45.9825" lon="3.96055">
        <ele>424</ele>
        <time>2024-12-08T06:51:00.619Z</time>
      </trkpt>
      <trkpt lat="45.98251" lon="3.96058">
        <ele>424</ele>
        <time>2024-12-08T06:51:01.619Z</time>
      </trkpt>
      <trkpt lat="45.98252" lon="3.9606">
        <ele>424</ele>
        <time>2024-12-08T06:51:02.619Z</time>
      </trkpt>
      <trkpt lat="45.98254" lon="3.96063">
        <ele>424</ele>
        <time>2024-12-08T06:51:03.619Z</time>
      </trkpt>
      <trkpt lat="45.98255" lon="3.96065">
        <ele>423</ele>
        <time>2024-12-08T06:51:04.620Z</time>
      </trkpt>
      <trkpt lat="45.98256" lon="3.96067">
        <ele>423</ele>
        <time>2024-12-08T06:51:05.619Z</time>
      </trkpt>
      <trkpt lat="45.98257" lon="3.96069">
        <ele>423</ele>
        <time>2024-12-08T06:51:06.620Z</time>
      </trkpt>
      <trkpt lat="45.98258" lon="3.96071">
        <ele>422</ele>
        <time>2024-12-08T06:51:07.620Z</time>
      </trkpt>
      <trkpt lat="45.98259" lon="3.96073">
        <ele>422</ele>
        <time>2024-12-08T06:51:08.620Z</time>
      </trkpt>
      <trkpt lat="45.9826" lon="3.96076">
        <ele>422</ele>
        <time>2024-12-08T06:51:09.620Z</time>
      </trkpt>
      <trkpt lat="45.98261" lon="3.96078">
        <ele>421</ele>
        <time>2024-12-08T06:51:10.619Z</time>
      </trkpt>
      <trkpt lat="45.98262" lon="3.96081">
        <ele>421</ele>
        <time>2024-12-08T06:51:11.620Z</time>
      </trkpt>
      <trkpt lat="45.98263" lon="3.96083">
        <ele>421</ele>
        <time>2024-12-08T06:51:12.619Z</time>
      </trkpt>
      <trkpt lat="45.98264" lon="3.96086">
        <ele>421</ele>
        <time>2024-12-08T06:51:13.620Z</time>
      </trkpt>
      <trkpt lat="45.98265" lon="3.96088">
        <ele>421</ele>
        <time>2024-12-08T06:51:14.620Z</time>
      </trkpt>
      <trkpt lat="45.98266" lon="3.9609">
        <ele>421</ele>
        <time>2024-12-08T06:51:15.619Z</time>
      </trkpt>
      <trkpt lat="45.98267" lon="3.96092">
        <ele>421</ele>
        <time>2024-12-08T06:51:16.619Z</time>
      </trkpt>
      <trkpt lat="45.98269" lon="3.96095">
        <ele>421</ele>
        <time>2024-12-08T06:51:17.619Z</time>
      </trkpt>
      <trkpt lat="45.9827" lon="3.96097">
        <ele>420</ele>
        <time>2024-12-08T06:51:18.620Z</time>
      </trkpt>
      <trkpt lat="45.98271" lon="3.96099">
        <ele>420</ele>
        <time>2024-12-08T06:51:19.620Z</time>
      </trkpt>
      <trkpt lat="45.98272" lon="3.96102">
        <ele>420</ele>
        <time>2024-12-08T06:51:20.620Z</time>
      </trkpt>
      <trkpt lat="45.98273" lon="3.96104">
        <ele>419</ele>
        <time>2024-12-08T06:51:21.619Z</time>
      </trkpt>
      <trkpt lat="45.98274" lon="3.96107">
        <ele>419</ele>
        <time>2024-12-08T06:51:22.619Z</time>
      </trkpt>
      <trkpt lat="45.98275" lon="3.96109">
        <ele>419</ele>
        <time>2024-12-08T06:51:23.620Z</time>
      </trkpt>
      <trkpt lat="45.98276" lon="3.96111">
        <ele>418</ele>
        <time>2024-12-08T06:51:24.619Z</time>
      </trkpt>
      <trkpt lat="45.98277" lon="3.96113">
        <ele>418</ele>
        <time>2024-12-08T06:51:25.620Z</time>
      </trkpt>
      <trkpt lat="45.98278" lon="3.96115">
        <ele>418</ele>
        <time>2024-12-08T06:51:26.620Z</time>
      </trkpt>
      <trkpt lat="45.9828" lon="3.96118">
        <ele>418</ele>
        <time>2024-12-08T06:51:27.619Z</time>
      </trkpt>
      <trkpt lat="45.98281" lon="3.9612">
        <ele>418</ele>
        <time>2024-12-08T06:51:28.619Z</time>
      </trkpt>
      <trkpt lat="45.98282" lon="3.96123">
        <ele>418</ele>
        <time>2024-12-08T06:51:29.619Z</time>
      </trkpt>
      <trkpt lat="45.98282" lon="3.96125">
        <ele>418</ele>
        <time>2024-12-08T06:51:30.619Z</time>
      </trkpt>
      <trkpt lat="45.98283" lon="3.96128">
        <ele>418</ele>
        <time>2024-12-08T06:51:31.620Z</time>
      </trkpt>
      <trkpt lat="45.98284" lon="3.9613">
        <ele>419</ele>
        <time>2024-12-08T06:51:32.619Z</time>
      </trkpt>
      <trkpt lat="45.98285" lon="3.96132">
        <ele>419</ele>
        <time>2024-12-08T06:51:33.619Z</time>
      </trkpt>
      <trkpt lat="45.98285" lon="3.96134">
        <ele>419</ele>
        <time>2024-12-08T06:51:34.620Z</time>
      </trkpt>
      <trkpt lat="45.98286" lon="3.96137">
        <ele>419</ele>
        <time>2024-12-08T06:51:35.620Z</time>
      </trkpt>
      <trkpt lat="45.98287" lon="3.9614">
        <ele>419</ele>
        <time>2024-12-08T06:51:36.619Z</time>
      </trkpt>
      <trkpt lat="45.98289" lon="3.96142">
        <ele>419</ele>
        <time>2024-12-08T06:51:37.620Z</time>
      </trkpt>
      <trkpt lat="45.98289" lon="3.96145">
        <ele>419</ele>
        <time>2024-12-08T06:51:38.620Z</time>
      </trkpt>
      <trkpt lat="45.9829" lon="3.96147">
        <ele>419</ele>
        <time>2024-12-08T06:51:39.620Z</time>
      </trkpt>
      <trkpt lat="45.98291" lon="3.96149">
        <ele>419</ele>
        <time>2024-12-08T06:51:40.619Z</time>
      </trkpt>
      <trkpt lat="45.98293" lon="3.96152">
        <ele>419</ele>
        <time>2024-12-08T06:51:41.619Z</time>
      </trkpt>
      <trkpt lat="45.98294" lon="3.96154">
        <ele>419</ele>
        <time>2024-12-08T06:51:42.620Z</time>
      </trkpt>
      <trkpt lat="45.98294" lon="3.96155">
        <ele>419</ele>
        <time>2024-12-08T06:51:43.620Z</time>
      </trkpt>
      <trkpt lat="45.98296" lon="3.96158">
        <ele>419</ele>
        <time>2024-12-08T06:51:44.619Z</time>
      </trkpt>
      <trkpt lat="45.98297" lon="3.9616">
        <ele>420</ele>
        <time>2024-12-08T06:51:45.620Z</time>
      </trkpt>
      <trkpt lat="45.98298" lon="3.96162">
        <ele>421</ele>
        <time>2024-12-08T06:51:46.619Z</time>
      </trkpt>
      <trkpt lat="45.98299" lon="3.96164">
        <ele>421</ele>
        <time>2024-12-08T06:51:47.620Z</time>
      </trkpt>
      <trkpt lat="45.983" lon="3.96166">
        <ele>421</ele>
        <time>2024-12-08T06:51:48.619Z</time>
      </trkpt>
      <trkpt lat="45.98301" lon="3.96168">
        <ele>421</ele>
        <time>2024-12-08T06:51:49.619Z</time>
      </trkpt>
      <trkpt lat="45.98302" lon="3.9617">
        <ele>421</ele>
        <time>2024-12-08T06:51:50.619Z</time>
      </trkpt>
      <trkpt lat="45.98303" lon="3.96172">
        <ele>421</ele>
        <time>2024-12-08T06:51:51.619Z</time>
      </trkpt>
      <trkpt lat="45.98304" lon="3.96174">
        <ele>421</ele>
        <time>2024-12-08T06:51:52.619Z</time>
      </trkpt>
      <trkpt lat="45.98305" lon="3.96177">
        <ele>421</ele>
        <time>2024-12-08T06:51:53.619Z</time>
      </trkpt>
      <trkpt lat="45.98306" lon="3.96178">
        <ele>420</ele>
        <time>2024-12-08T06:51:54.620Z</time>
      </trkpt>
      <trkpt lat="45.98307" lon="3.9618">
        <ele>420</ele>
        <time>2024-12-08T06:51:55.620Z</time>
      </trkpt>
      <trkpt lat="45.98308" lon="3.96182">
        <ele>420</ele>
        <time>2024-12-08T06:51:56.620Z</time>
      </trkpt>
      <trkpt lat="45.98309" lon="3.96183">
        <ele>419</ele>
        <time>2024-12-08T06:51:57.620Z</time>
      </trkpt>
      <trkpt lat="45.9831" lon="3.96185">
        <ele>419</ele>
        <time>2024-12-08T06:51:58.620Z</time>
      </trkpt>
      <trkpt lat="45.98311" lon="3.96187">
        <ele>418</ele>
        <time>2024-12-08T06:51:59.619Z</time>
      </trkpt>
      <trkpt lat="45.98312" lon="3.96189">
        <ele>418</ele>
        <time>2024-12-08T06:52:00.620Z</time>
      </trkpt>
      <trkpt lat="45.98313" lon="3.9619">
        <ele>417</ele>
        <time>2024-12-08T06:52:01.619Z</time>
      </trkpt>
      <trkpt lat="45.98315" lon="3.96192">
        <ele>417</ele>
        <time>2024-12-08T06:52:02.619Z</time>
      </trkpt>
      <trkpt lat="45.98315" lon="3.96194">
        <ele>417</ele>
        <time>2024-12-08T06:52:03.620Z</time>
      </trkpt>
      <trkpt lat="45.98316" lon="3.96197">
        <ele>417</ele>
        <time>2024-12-08T06:52:04.619Z</time>
      </trkpt>
      <trkpt lat="45.98316" lon="3.96199">
        <ele>417</ele>
        <time>2024-12-08T06:52:05.619Z</time>
      </trkpt>
      <trkpt lat="45.98317" lon="3.96201">
        <ele>417</ele>
        <time>2024-12-08T06:52:06.619Z</time>
      </trkpt>
      <trkpt lat="45.98318" lon="3.96203">
        <ele>417</ele>
        <time>2024-12-08T06:52:07.619Z</time>
      </trkpt>
      <trkpt lat="45.98319" lon="3.96205">
        <ele>417</ele>
        <time>2024-12-08T06:52:08.619Z</time>
      </trkpt>
      <trkpt lat="45.9832" lon="3.96207">
        <ele>417</ele>
        <time>2024-12-08T06:52:09.619Z</time>
      </trkpt>
      <trkpt lat="45.98321" lon="3.96208">
        <ele>417</ele>
        <time>2024-12-08T06:52:10.619Z</time>
      </trkpt>
      <trkpt lat="45.98322" lon="3.9621">
        <ele>417</ele>
        <time>2024-12-08T06:52:11.619Z</time>
      </trkpt>
      <trkpt lat="45.98323" lon="3.96211">
        <ele>417</ele>
        <time>2024-12-08T06:52:12.619Z</time>
      </trkpt>
      <trkpt lat="45.98325" lon="3.96211">
        <ele>417</ele>
        <time>2024-12-08T06:52:13.620Z</time>
      </trkpt>
      <trkpt lat="45.98326" lon="3.96212">
        <ele>417</ele>
        <time>2024-12-08T06:52:14.620Z</time>
      </trkpt>
      <trkpt lat="45.98327" lon="3.96212">
        <ele>417</ele>
        <time>2024-12-08T06:52:15.620Z</time>
      </trkpt>
      <trkpt lat="45.98329" lon="3.96213">
        <ele>417</ele>
        <time>2024-12-08T06:52:16.620Z</time>
      </trkpt>
      <trkpt lat="45.9833" lon="3.96213">
        <ele>417</ele>
        <time>2024-12-08T06:52:17.619Z</time>
      </trkpt>
      <trkpt lat="45.98332" lon="3.96213">
        <ele>417</ele>
        <time>2024-12-08T06:52:18.619Z</time>
      </trkpt>
      <trkpt lat="45.98333" lon="3.96213">
        <ele>417</ele>
        <time>2024-12-08T06:52:19.620Z</time>
      </trkpt>
      <trkpt lat="45.98335" lon="3.96214">
        <ele>417</ele>
        <time>2024-12-08T06:52:20.620Z</time>
      </trkpt>
      <trkpt lat="45.98336" lon="3.96215">
        <ele>417</ele>
        <time>2024-12-08T06:52:21.619Z</time>
      </trkpt>
      <trkpt lat="45.98338" lon="3.96215">
        <ele>416</ele>
        <time>2024-12-08T06:52:22.620Z</time>
      </trkpt>
      <trkpt lat="45.9834" lon="3.96215">
        <ele>416</ele>
        <time>2024-12-08T06:52:23.619Z</time>
      </trkpt>
      <trkpt lat="45.98341" lon="3.96216">
        <ele>416</ele>
        <time>2024-12-08T06:52:24.619Z</time>
      </trkpt>
      <trkpt lat="45.98343" lon="3.96217">
        <ele>416</ele>
        <time>2024-12-08T06:52:25.619Z</time>
      </trkpt>
      <trkpt lat="45.98344" lon="3.96218">
        <ele>416</ele>
        <time>2024-12-08T06:52:26.619Z</time>
      </trkpt>
      <trkpt lat="45.98345" lon="3.9622">
        <ele>416</ele>
        <time>2024-12-08T06:52:27.619Z</time>
      </trkpt>
      <trkpt lat="45.98346" lon="3.96222">
        <ele>416</ele>
        <time>2024-12-08T06:52:28.620Z</time>
      </trkpt>
      <trkpt lat="45.98347" lon="3.96224">
        <ele>416</ele>
        <time>2024-12-08T06:52:29.620Z</time>
      </trkpt>
      <trkpt lat="45.98348" lon="3.96227">
        <ele>416</ele>
        <time>2024-12-08T06:52:30.619Z</time>
      </trkpt>
      <trkpt lat="45.98348" lon="3.96229">
        <ele>416</ele>
        <time>2024-12-08T06:52:31.619Z</time>
      </trkpt>
      <trkpt lat="45.98349" lon="3.96231">
        <ele>416</ele>
        <time>2024-12-08T06:52:32.619Z</time>
      </trkpt>
      <trkpt lat="45.9835" lon="3.96233">
        <ele>416</ele>
        <time>2024-12-08T06:52:33.619Z</time>
      </trkpt>
      <trkpt lat="45.9835" lon="3.96235">
        <ele>416</ele>
        <time>2024-12-08T06:52:34.619Z</time>
      </trkpt>
      <trkpt lat="45.98351" lon="3.96238">
        <ele>416</ele>
        <time>2024-12-08T06:52:35.619Z</time>
      </trkpt>
      <trkpt lat="45.98351" lon="3.9624">
        <ele>416</ele>
        <time>2024-12-08T06:52:36.620Z</time>
      </trkpt>
      <trkpt lat="45.98352" lon="3.96242">
        <ele>416</ele>
        <time>2024-12-08T06:52:37.620Z</time>
      </trkpt>
      <trkpt lat="45.98352" lon="3.96244">
        <ele>416</ele>
        <time>2024-12-08T06:52:38.619Z</time>
      </trkpt>
      <trkpt lat="45.98352" lon="3.96247">
        <ele>416</ele>
        <time>2024-12-08T06:52:39.620Z</time>
      </trkpt>
      <trkpt lat="45.98352" lon="3.96249">
        <ele>416</ele>
        <time>2024-12-08T06:52:40.619Z</time>
      </trkpt>
      <trkpt lat="45.98351" lon="3.96251">
        <ele>416</ele>
        <time>2024-12-08T06:52:41.620Z</time>
      </trkpt>
      <trkpt lat="45.98351" lon="3.96253">
        <ele>416</ele>
        <time>2024-12-08T06:52:42.620Z</time>
      </trkpt>
      <trkpt lat="45.9835" lon="3.96256">
        <ele>416</ele>
        <time>2024-12-08T06:52:43.620Z</time>
      </trkpt>
      <trkpt lat="45.98349" lon="3.96258">
        <ele>416</ele>
        <time>2024-12-08T06:52:44.619Z</time>
      </trkpt>
      <trkpt lat="45.98348" lon="3.9626">
        <ele>415</ele>
        <time>2024-12-08T06:52:45.619Z</time>
      </trkpt>
      <trkpt lat="45.98348" lon="3.96262">
        <ele>415</ele>
        <time>2024-12-08T06:52:46.620Z</time>
      </trkpt>
      <trkpt lat="45.98347" lon="3.96265">
        <ele>415</ele>
        <time>2024-12-08T06:52:47.619Z</time>
      </trkpt>
      <trkpt lat="45.98346" lon="3.96267">
        <ele>415</ele>
        <time>2024-12-08T06:52:48.619Z</time>
      </trkpt>
      <trkpt lat="45.98346" lon="3.96269">
        <ele>415</ele>
        <time>2024-12-08T06:52:49.620Z</time>
      </trkpt>
      <trkpt lat="45.98345" lon="3.96271">
        <ele>415</ele>
        <time>2024-12-08T06:52:50.619Z</time>
      </trkpt>
      <trkpt lat="45.98345" lon="3.96273">
        <ele>414</ele>
        <time>2024-12-08T06:52:51.620Z</time>
      </trkpt>
      <trkpt lat="45.98345" lon="3.96276">
        <ele>414</ele>
        <time>2024-12-08T06:52:52.620Z</time>
      </trkpt>
      <trkpt lat="45.98345" lon="3.96278">
        <ele>414</ele>
        <time>2024-12-08T06:52:53.619Z</time>
      </trkpt>
      <trkpt lat="45.98345" lon="3.96281">
        <ele>413</ele>
        <time>2024-12-08T06:52:54.620Z</time>
      </trkpt>
      <trkpt lat="45.98345" lon="3.96283">
        <ele>413</ele>
        <time>2024-12-08T06:52:55.619Z</time>
      </trkpt>
      <trkpt lat="45.98346" lon="3.96285">
        <ele>413</ele>
        <time>2024-12-08T06:52:56.619Z</time>
      </trkpt>
      <trkpt lat="45.98347" lon="3.96288">
        <ele>413</ele>
        <time>2024-12-08T06:52:57.619Z</time>
      </trkpt>
      <trkpt lat="45.98348" lon="3.9629">
        <ele>413</ele>
        <time>2024-12-08T06:52:58.619Z</time>
      </trkpt>
      <trkpt lat="45.98348" lon="3.96292">
        <ele>413</ele>
        <time>2024-12-08T06:52:59.620Z</time>
      </trkpt>
      <trkpt lat="45.98349" lon="3.96294">
        <ele>413</ele>
        <time>2024-12-08T06:53:00.619Z</time>
      </trkpt>
      <trkpt lat="45.9835" lon="3.96295">
        <ele>413</ele>
        <time>2024-12-08T06:53:01.619Z</time>
      </trkpt>
      <trkpt lat="45.98352" lon="3.96297">
        <ele>413</ele>
        <time>2024-12-08T06:53:02.619Z</time>
      </trkpt>
      <trkpt lat="45.98353" lon="3.96299">
        <ele>413</ele>
        <time>2024-12-08T06:53:03.619Z</time>
      </trkpt>
      <trkpt lat="45.98354" lon="3.963">
        <ele>413</ele>
        <time>2024-12-08T06:53:04.620Z</time>
      </trkpt>
      <trkpt lat="45.98355" lon="3.96302">
        <ele>413</ele>
        <time>2024-12-08T06:53:05.620Z</time>
      </trkpt>
      <trkpt lat="45.98356" lon="3.96304">
        <ele>413</ele>
        <time>2024-12-08T06:53:06.619Z</time>
      </trkpt>
      <trkpt lat="45.98357" lon="3.96305">
        <ele>413</ele>
        <time>2024-12-08T06:53:07.620Z</time>
      </trkpt>
      <trkpt lat="45.98359" lon="3.96306">
        <ele>412</ele>
        <time>2024-12-08T06:53:08.620Z</time>
      </trkpt>
      <trkpt lat="45.98359" lon="3.96308">
        <ele>412</ele>
        <time>2024-12-08T06:53:09.619Z</time>
      </trkpt>
      <trkpt lat="45.98361" lon="3.9631">
        <ele>412</ele>
        <time>2024-12-08T06:53:10.619Z</time>
      </trkpt>
      <trkpt lat="45.98362" lon="3.96312">
        <ele>412</ele>
        <time>2024-12-08T06:53:11.620Z</time>
      </trkpt>
      <trkpt lat="45.98363" lon="3.96313">
        <ele>413</ele>
        <time>2024-12-08T06:53:12.620Z</time>
      </trkpt>
      <trkpt lat="45.98364" lon="3.96315">
        <ele>412</ele>
        <time>2024-12-08T06:53:13.619Z</time>
      </trkpt>
      <trkpt lat="45.98365" lon="3.96316">
        <ele>412</ele>
        <time>2024-12-08T06:53:14.619Z</time>
      </trkpt>
      <trkpt lat="45.98367" lon="3.96319">
        <ele>412</ele>
        <time>2024-12-08T06:53:15.619Z</time>
      </trkpt>
      <trkpt lat="45.98368" lon="3.96321">
        <ele>412</ele>
        <time>2024-12-08T06:53:16.620Z</time>
      </trkpt>
      <trkpt lat="45.98369" lon="3.96323">
        <ele>412</ele>
        <time>2024-12-08T06:53:17.620Z</time>
      </trkpt>
      <trkpt lat="45.9837" lon="3.96324">
        <ele>412</ele>
        <time>2024-12-08T06:53:18.620Z</time>
      </trkpt>
      <trkpt lat="45.98371" lon="3.96327">
        <ele>412</ele>
        <time>2024-12-08T06:53:19.619Z</time>
      </trkpt>
      <trkpt lat="45.98372" lon="3.96329">
        <ele>412</ele>
        <time>2024-12-08T06:53:20.619Z</time>
      </trkpt>
      <trkpt lat="45.98373" lon="3.96331">
        <ele>412</ele>
        <time>2024-12-08T06:53:21.620Z</time>
      </trkpt>
      <trkpt lat="45.98374" lon="3.96332">
        <ele>411</ele>
        <time>2024-12-08T06:53:22.620Z</time>
      </trkpt>
      <trkpt lat="45.98375" lon="3.96335">
        <ele>411</ele>
        <time>2024-12-08T06:53:23.619Z</time>
      </trkpt>
      <trkpt lat="45.98376" lon="3.96337">
        <ele>411</ele>
        <time>2024-12-08T06:53:24.620Z</time>
      </trkpt>
      <trkpt lat="45.98377" lon="3.96339">
        <ele>411</ele>
        <time>2024-12-08T06:53:25.619Z</time>
      </trkpt>
      <trkpt lat="45.98378" lon="3.96341">
        <ele>411</ele>
        <time>2024-12-08T06:53:26.620Z</time>
      </trkpt>
      <trkpt lat="45.98378" lon="3.96343">
        <ele>411</ele>
        <time>2024-12-08T06:53:27.619Z</time>
      </trkpt>
      <trkpt lat="45.98379" lon="3.96345">
        <ele>411</ele>
        <time>2024-12-08T06:53:28.620Z</time>
      </trkpt>
      <trkpt lat="45.9838" lon="3.96347">
        <ele>411</ele>
        <time>2024-12-08T06:53:29.620Z</time>
      </trkpt>
      <trkpt lat="45.9838" lon="3.96349">
        <ele>411</ele>
        <time>2024-12-08T06:53:30.620Z</time>
      </trkpt>
      <trkpt lat="45.98381" lon="3.96351">
        <ele>411</ele>
        <time>2024-12-08T06:53:31.619Z</time>
      </trkpt>
      <trkpt lat="45.98382" lon="3.96353">
        <ele>410</ele>
        <time>2024-12-08T06:53:32.619Z</time>
      </trkpt>
      <trkpt lat="45.98383" lon="3.96355">
        <ele>410</ele>
        <time>2024-12-08T06:53:33.620Z</time>
      </trkpt>
      <trkpt lat="45.98384" lon="3.96357">
        <ele>410</ele>
        <time>2024-12-08T06:53:34.620Z</time>
      </trkpt>
      <trkpt lat="45.98385" lon="3.96359">
        <ele>410</ele>
        <time>2024-12-08T06:53:35.619Z</time>
      </trkpt>
      <trkpt lat="45.98385" lon="3.9636">
        <ele>409</ele>
        <time>2024-12-08T06:53:36.619Z</time>
      </trkpt>
      <trkpt lat="45.98386" lon="3.96363">
        <ele>409</ele>
        <time>2024-12-08T06:53:37.619Z</time>
      </trkpt>
      <trkpt lat="45.98387" lon="3.96364">
        <ele>408</ele>
        <time>2024-12-08T06:53:38.619Z</time>
      </trkpt>
      <trkpt lat="45.98388" lon="3.96367">
        <ele>408</ele>
        <time>2024-12-08T06:53:39.619Z</time>
      </trkpt>
      <trkpt lat="45.98388" lon="3.96369">
        <ele>408</ele>
        <time>2024-12-08T06:53:40.619Z</time>
      </trkpt>
      <trkpt lat="45.98389" lon="3.96371">
        <ele>408</ele>
        <time>2024-12-08T06:53:41.620Z</time>
      </trkpt>
      <trkpt lat="45.9839" lon="3.96373">
        <ele>408</ele>
        <time>2024-12-08T06:53:42.619Z</time>
      </trkpt>
      <trkpt lat="45.98391" lon="3.96375">
        <ele>408</ele>
        <time>2024-12-08T06:53:43.619Z</time>
      </trkpt>
      <trkpt lat="45.98392" lon="3.96377">
        <ele>408</ele>
        <time>2024-12-08T06:53:44.619Z</time>
      </trkpt>
      <trkpt lat="45.98393" lon="3.96379">
        <ele>408</ele>
        <time>2024-12-08T06:53:45.619Z</time>
      </trkpt>
      <trkpt lat="45.98394" lon="3.96381">
        <ele>408</ele>
        <time>2024-12-08T06:53:46.619Z</time>
      </trkpt>
      <trkpt lat="45.98395" lon="3.96383">
        <ele>408</ele>
        <time>2024-12-08T06:53:47.620Z</time>
      </trkpt>
      <trkpt lat="45.98396" lon="3.96386">
        <ele>408</ele>
        <time>2024-12-08T06:53:48.620Z</time>
      </trkpt>
      <trkpt lat="45.98397" lon="3.96388">
        <ele>408</ele>
        <time>2024-12-08T06:53:49.620Z</time>
      </trkpt>
      <trkpt lat="45.98398" lon="3.96389">
        <ele>408</ele>
        <time>2024-12-08T06:53:50.619Z</time>
      </trkpt>
      <trkpt lat="45.98399" lon="3.96392">
        <ele>408</ele>
        <time>2024-12-08T06:53:51.619Z</time>
      </trkpt>
      <trkpt lat="45.98399" lon="3.96394">
        <ele>407</ele>
        <time>2024-12-08T06:53:52.619Z</time>
      </trkpt>
      <trkpt lat="45.984" lon="3.96396">
        <ele>407</ele>
        <time>2024-12-08T06:53:53.620Z</time>
      </trkpt>
      <trkpt lat="45.98401" lon="3.96398">
        <ele>407</ele>
        <time>2024-12-08T06:53:54.619Z</time>
      </trkpt>
      <trkpt lat="45.98402" lon="3.964">
        <ele>406</ele>
        <time>2024-12-08T06:53:55.620Z</time>
      </trkpt>
      <trkpt lat="45.98403" lon="3.96403">
        <ele>406</ele>
        <time>2024-12-08T06:53:56.620Z</time>
      </trkpt>
      <trkpt lat="45.98404" lon="3.96405">
        <ele>405</ele>
        <time>2024-12-08T06:53:57.619Z</time>
      </trkpt>
      <trkpt lat="45.98405" lon="3.96407">
        <ele>405</ele>
        <time>2024-12-08T06:53:58.620Z</time>
      </trkpt>
      <trkpt lat="45.98406" lon="3.96409">
        <ele>405</ele>
        <time>2024-12-08T06:53:59.619Z</time>
      </trkpt>
      <trkpt lat="45.98406" lon="3.96411">
        <ele>405</ele>
        <time>2024-12-08T06:54:00.619Z</time>
      </trkpt>
      <trkpt lat="45.98407" lon="3.96413">
        <ele>405</ele>
        <time>2024-12-08T06:54:01.619Z</time>
      </trkpt>
      <trkpt lat="45.98408" lon="3.96415">
        <ele>404</ele>
        <time>2024-12-08T06:54:02.619Z</time>
      </trkpt>
      <trkpt lat="45.98409" lon="3.96417">
        <ele>404</ele>
        <time>2024-12-08T06:54:03.620Z</time>
      </trkpt>
      <trkpt lat="45.9841" lon="3.96419">
        <ele>404</ele>
        <time>2024-12-08T06:54:04.619Z</time>
      </trkpt>
      <trkpt lat="45.98411" lon="3.96421">
        <ele>404</ele>
        <time>2024-12-08T06:54:05.620Z</time>
      </trkpt>
      <trkpt lat="45.98412" lon="3.96423">
        <ele>405</ele>
        <time>2024-12-08T06:54:06.619Z</time>
      </trkpt>
      <trkpt lat="45.98414" lon="3.96426">
        <ele>405</ele>
        <time>2024-12-08T06:54:07.619Z</time>
      </trkpt>
      <trkpt lat="45.98415" lon="3.96428">
        <ele>405</ele>
        <time>2024-12-08T06:54:08.620Z</time>
      </trkpt>
      <trkpt lat="45.98416" lon="3.9643">
        <ele>405</ele>
        <time>2024-12-08T06:54:09.620Z</time>
      </trkpt>
      <trkpt lat="45.98417" lon="3.96432">
        <ele>405</ele>
        <time>2024-12-08T06:54:10.619Z</time>
      </trkpt>
      <trkpt lat="45.98418" lon="3.96434">
        <ele>404</ele>
        <time>2024-12-08T06:54:11.619Z</time>
      </trkpt>
      <trkpt lat="45.98418" lon="3.96437">
        <ele>404</ele>
        <time>2024-12-08T06:54:12.620Z</time>
      </trkpt>
      <trkpt lat="45.98419" lon="3.96439">
        <ele>404</ele>
        <time>2024-12-08T06:54:13.619Z</time>
      </trkpt>
      <trkpt lat="45.9842" lon="3.96441">
        <ele>404</ele>
        <time>2024-12-08T06:54:14.619Z</time>
      </trkpt>
      <trkpt lat="45.98421" lon="3.96443">
        <ele>404</ele>
        <time>2024-12-08T06:54:15.620Z</time>
      </trkpt>
      <trkpt lat="45.98422" lon="3.96446">
        <ele>404</ele>
        <time>2024-12-08T06:54:16.619Z</time>
      </trkpt>
      <trkpt lat="45.98423" lon="3.96448">
        <ele>404</ele>
        <time>2024-12-08T06:54:17.619Z</time>
      </trkpt>
      <trkpt lat="45.98424" lon="3.9645">
        <ele>404</ele>
        <time>2024-12-08T06:54:18.619Z</time>
      </trkpt>
      <trkpt lat="45.98425" lon="3.96453">
        <ele>405</ele>
        <time>2024-12-08T06:54:19.620Z</time>
      </trkpt>
      <trkpt lat="45.98425" lon="3.96455">
        <ele>405</ele>
        <time>2024-12-08T06:54:20.619Z</time>
      </trkpt>
      <trkpt lat="45.98426" lon="3.96458">
        <ele>405</ele>
        <time>2024-12-08T06:54:21.620Z</time>
      </trkpt>
      <trkpt lat="45.98427" lon="3.9646">
        <ele>405</ele>
        <time>2024-12-08T06:54:22.620Z</time>
      </trkpt>
      <trkpt lat="45.98428" lon="3.96464">
        <ele>405</ele>
        <time>2024-12-08T06:54:23.620Z</time>
      </trkpt>
      <trkpt lat="45.98428" lon="3.96465">
        <ele>405</ele>
        <time>2024-12-08T06:54:24.619Z</time>
      </trkpt>
      <trkpt lat="45.98429" lon="3.96467">
        <ele>405</ele>
        <time>2024-12-08T06:54:25.620Z</time>
      </trkpt>
      <trkpt lat="45.98431" lon="3.96469">
        <ele>405</ele>
        <time>2024-12-08T06:54:26.619Z</time>
      </trkpt>
      <trkpt lat="45.98432" lon="3.96471">
        <ele>405</ele>
        <time>2024-12-08T06:54:27.619Z</time>
      </trkpt>
      <trkpt lat="45.98432" lon="3.96474">
        <ele>405</ele>
        <time>2024-12-08T06:54:28.619Z</time>
      </trkpt>
      <trkpt lat="45.98433" lon="3.96476">
        <ele>405</ele>
        <time>2024-12-08T06:54:29.619Z</time>
      </trkpt>
      <trkpt lat="45.98435" lon="3.96478">
        <ele>405</ele>
        <time>2024-12-08T06:54:30.619Z</time>
      </trkpt>
      <trkpt lat="45.98437" lon="3.9648">
        <ele>405</ele>
        <time>2024-12-08T06:54:31.620Z</time>
      </trkpt>
      <trkpt lat="45.98438" lon="3.96482">
        <ele>405</ele>
        <time>2024-12-08T06:54:32.620Z</time>
      </trkpt>
      <trkpt lat="45.98439" lon="3.96484">
        <ele>405</ele>
        <time>2024-12-08T06:54:33.620Z</time>
      </trkpt>
      <trkpt lat="45.9844" lon="3.96486">
        <ele>405</ele>
        <time>2024-12-08T06:54:34.620Z</time>
      </trkpt>
      <trkpt lat="45.98441" lon="3.96488">
        <ele>404</ele>
        <time>2024-12-08T06:54:35.620Z</time>
      </trkpt>
      <trkpt lat="45.98442" lon="3.96489">
        <ele>404</ele>
        <time>2024-12-08T06:54:36.619Z</time>
      </trkpt>
      <trkpt lat="45.98443" lon="3.96491">
        <ele>404</ele>
        <time>2024-12-08T06:54:37.620Z</time>
      </trkpt>
      <trkpt lat="45.98443" lon="3.96494">
        <ele>404</ele>
        <time>2024-12-08T06:54:38.619Z</time>
      </trkpt>
      <trkpt lat="45.98444" lon="3.96496">
        <ele>404</ele>
        <time>2024-12-08T06:54:39.620Z</time>
      </trkpt>
      <trkpt lat="45.98445" lon="3.96498">
        <ele>404</ele>
        <time>2024-12-08T06:54:40.619Z</time>
      </trkpt>
      <trkpt lat="45.98446" lon="3.965">
        <ele>403</ele>
        <time>2024-12-08T06:54:41.619Z</time>
      </trkpt>
      <trkpt lat="45.98448" lon="3.96503">
        <ele>403</ele>
        <time>2024-12-08T06:54:42.619Z</time>
      </trkpt>
      <trkpt lat="45.98449" lon="3.96505">
        <ele>403</ele>
        <time>2024-12-08T06:54:43.620Z</time>
      </trkpt>
      <trkpt lat="45.98449" lon="3.96507">
        <ele>403</ele>
        <time>2024-12-08T06:54:44.619Z</time>
      </trkpt>
      <trkpt lat="45.9845" lon="3.96509">
        <ele>403</ele>
        <time>2024-12-08T06:54:45.620Z</time>
      </trkpt>
      <trkpt lat="45.98451" lon="3.96512">
        <ele>403</ele>
        <time>2024-12-08T06:54:46.619Z</time>
      </trkpt>
      <trkpt lat="45.98452" lon="3.96514">
        <ele>403</ele>
        <time>2024-12-08T06:54:47.620Z</time>
      </trkpt>
      <trkpt lat="45.98453" lon="3.96516">
        <ele>404</ele>
        <time>2024-12-08T06:54:48.620Z</time>
      </trkpt>
      <trkpt lat="45.98453" lon="3.96518">
        <ele>404</ele>
        <time>2024-12-08T06:54:49.619Z</time>
      </trkpt>
      <trkpt lat="45.98454" lon="3.96521">
        <ele>404</ele>
        <time>2024-12-08T06:54:50.619Z</time>
      </trkpt>
      <trkpt lat="45.98455" lon="3.96524">
        <ele>404</ele>
        <time>2024-12-08T06:54:51.620Z</time>
      </trkpt>
      <trkpt lat="45.98455" lon="3.96526">
        <ele>403</ele>
        <time>2024-12-08T06:54:52.619Z</time>
      </trkpt>
      <trkpt lat="45.98456" lon="3.96529">
        <ele>404</ele>
        <time>2024-12-08T06:54:53.620Z</time>
      </trkpt>
      <trkpt lat="45.98456" lon="3.96532">
        <ele>404</ele>
        <time>2024-12-08T06:54:54.619Z</time>
      </trkpt>
      <trkpt lat="45.98457" lon="3.96535">
        <ele>404</ele>
        <time>2024-12-08T06:54:55.620Z</time>
      </trkpt>
      <trkpt lat="45.98457" lon="3.96537">
        <ele>404</ele>
        <time>2024-12-08T06:54:56.619Z</time>
      </trkpt>
      <trkpt lat="45.98458" lon="3.96539">
        <ele>404</ele>
        <time>2024-12-08T06:54:57.620Z</time>
      </trkpt>
      <trkpt lat="45.98459" lon="3.96541">
        <ele>403</ele>
        <time>2024-12-08T06:54:58.620Z</time>
      </trkpt>
      <trkpt lat="45.9846" lon="3.96543">
        <ele>403</ele>
        <time>2024-12-08T06:54:59.620Z</time>
      </trkpt>
      <trkpt lat="45.98461" lon="3.96545">
        <ele>403</ele>
        <time>2024-12-08T06:55:00.620Z</time>
      </trkpt>
      <trkpt lat="45.98462" lon="3.96547">
        <ele>403</ele>
        <time>2024-12-08T06:55:01.619Z</time>
      </trkpt>
      <trkpt lat="45.98463" lon="3.96549">
        <ele>403</ele>
        <time>2024-12-08T06:55:02.619Z</time>
      </trkpt>
      <trkpt lat="45.98464" lon="3.9655">
        <ele>402</ele>
        <time>2024-12-08T06:55:03.619Z</time>
      </trkpt>
      <trkpt lat="45.98464" lon="3.96551">
        <ele>402</ele>
        <time>2024-12-08T06:55:04.619Z</time>
      </trkpt>
      <trkpt lat="45.98465" lon="3.96554">
        <ele>402</ele>
        <time>2024-12-08T06:55:05.620Z</time>
      </trkpt>
      <trkpt lat="45.98466" lon="3.96556">
        <ele>402</ele>
        <time>2024-12-08T06:55:06.620Z</time>
      </trkpt>
      <trkpt lat="45.98468" lon="3.96558">
        <ele>402</ele>
        <time>2024-12-08T06:55:07.620Z</time>
      </trkpt>
      <trkpt lat="45.98469" lon="3.9656">
        <ele>402</ele>
        <time>2024-12-08T06:55:08.620Z</time>
      </trkpt>
      <trkpt lat="45.9847" lon="3.96562">
        <ele>403</ele>
        <time>2024-12-08T06:55:09.619Z</time>
      </trkpt>
      <trkpt lat="45.98472" lon="3.96565">
        <ele>403</ele>
        <time>2024-12-08T06:55:10.620Z</time>
      </trkpt>
      <trkpt lat="45.98473" lon="3.96568">
        <ele>403</ele>
        <time>2024-12-08T06:55:11.619Z</time>
      </trkpt>
      <trkpt lat="45.98474" lon="3.96569">
        <ele>403</ele>
        <time>2024-12-08T06:55:12.620Z</time>
      </trkpt>
      <trkpt lat="45.98475" lon="3.96572">
        <ele>403</ele>
        <time>2024-12-08T06:55:13.620Z</time>
      </trkpt>
      <trkpt lat="45.98476" lon="3.96574">
        <ele>402</ele>
        <time>2024-12-08T06:55:14.619Z</time>
      </trkpt>
      <trkpt lat="45.98477" lon="3.96576">
        <ele>402</ele>
        <time>2024-12-08T06:55:15.619Z</time>
      </trkpt>
      <trkpt lat="45.98478" lon="3.96578">
        <ele>401</ele>
        <time>2024-12-08T06:55:16.619Z</time>
      </trkpt>
      <trkpt lat="45.98479" lon="3.9658">
        <ele>401</ele>
        <time>2024-12-08T06:55:17.619Z</time>
      </trkpt>
      <trkpt lat="45.9848" lon="3.96583">
        <ele>401</ele>
        <time>2024-12-08T06:55:18.619Z</time>
      </trkpt>
      <trkpt lat="45.98481" lon="3.96585">
        <ele>400</ele>
        <time>2024-12-08T06:55:19.619Z</time>
      </trkpt>
      <trkpt lat="45.98482" lon="3.96587">
        <ele>400</ele>
        <time>2024-12-08T06:55:20.620Z</time>
      </trkpt>
      <trkpt lat="45.98483" lon="3.96588">
        <ele>399</ele>
        <time>2024-12-08T06:55:21.619Z</time>
      </trkpt>
      <trkpt lat="45.98484" lon="3.96591">
        <ele>399</ele>
        <time>2024-12-08T06:55:22.619Z</time>
      </trkpt>
      <trkpt lat="45.98485" lon="3.96593">
        <ele>399</ele>
        <time>2024-12-08T06:55:23.619Z</time>
      </trkpt>
      <trkpt lat="45.98486" lon="3.96595">
        <ele>399</ele>
        <time>2024-12-08T06:55:24.620Z</time>
      </trkpt>
      <trkpt lat="45.98487" lon="3.96598">
        <ele>399</ele>
        <time>2024-12-08T06:55:25.619Z</time>
      </trkpt>
      <trkpt lat="45.98488" lon="3.966">
        <ele>399</ele>
        <time>2024-12-08T06:55:26.619Z</time>
      </trkpt>
      <trkpt lat="45.98489" lon="3.96602">
        <ele>399</ele>
        <time>2024-12-08T06:55:27.619Z</time>
      </trkpt>
      <trkpt lat="45.9849" lon="3.96605">
        <ele>398</ele>
        <time>2024-12-08T06:55:28.620Z</time>
      </trkpt>
      <trkpt lat="45.98491" lon="3.96607">
        <ele>398</ele>
        <time>2024-12-08T06:55:29.620Z</time>
      </trkpt>
      <trkpt lat="45.98492" lon="3.96609">
        <ele>398</ele>
        <time>2024-12-08T06:55:30.619Z</time>
      </trkpt>
      <trkpt lat="45.98493" lon="3.96611">
        <ele>398</ele>
        <time>2024-12-08T06:55:31.620Z</time>
      </trkpt>
      <trkpt lat="45.98494" lon="3.96613">
        <ele>398</ele>
        <time>2024-12-08T06:55:32.619Z</time>
      </trkpt>
      <trkpt lat="45.98495" lon="3.96616">
        <ele>398</ele>
        <time>2024-12-08T06:55:33.620Z</time>
      </trkpt>
      <trkpt lat="45.98496" lon="3.96618">
        <ele>398</ele>
        <time>2024-12-08T06:55:34.620Z</time>
      </trkpt>
      <trkpt lat="45.98497" lon="3.9662">
        <ele>398</ele>
        <time>2024-12-08T06:55:35.620Z</time>
      </trkpt>
      <trkpt lat="45.98499" lon="3.96623">
        <ele>398</ele>
        <time>2024-12-08T06:55:36.619Z</time>
      </trkpt>
      <trkpt lat="45.985" lon="3.96625">
        <ele>399</ele>
        <time>2024-12-08T06:55:37.619Z</time>
      </trkpt>
      <trkpt lat="45.98501" lon="3.96627">
        <ele>399</ele>
        <time>2024-12-08T06:55:38.619Z</time>
      </trkpt>
      <trkpt lat="45.98502" lon="3.9663">
        <ele>399</ele>
        <time>2024-12-08T06:55:39.619Z</time>
      </trkpt>
      <trkpt lat="45.98503" lon="3.96632">
        <ele>399</ele>
        <time>2024-12-08T06:55:40.619Z</time>
      </trkpt>
      <trkpt lat="45.98504" lon="3.96634">
        <ele>399</ele>
        <time>2024-12-08T06:55:41.620Z</time>
      </trkpt>
      <trkpt lat="45.98506" lon="3.96636">
        <ele>399</ele>
        <time>2024-12-08T06:55:42.620Z</time>
      </trkpt>
      <trkpt lat="45.98507" lon="3.96638">
        <ele>399</ele>
        <time>2024-12-08T06:55:43.619Z</time>
      </trkpt>
      <trkpt lat="45.98508" lon="3.96641">
        <ele>399</ele>
        <time>2024-12-08T06:55:44.619Z</time>
      </trkpt>
      <trkpt lat="45.98509" lon="3.96643">
        <ele>399</ele>
        <time>2024-12-08T06:55:45.619Z</time>
      </trkpt>
      <trkpt lat="45.98509" lon="3.96645">
        <ele>400</ele>
        <time>2024-12-08T06:55:46.620Z</time>
      </trkpt>
      <trkpt lat="45.98511" lon="3.96648">
        <ele>400</ele>
        <time>2024-12-08T06:55:47.620Z</time>
      </trkpt>
      <trkpt lat="45.98512" lon="3.9665">
        <ele>400</ele>
        <time>2024-12-08T06:55:48.619Z</time>
      </trkpt>
      <trkpt lat="45.98513" lon="3.96652">
        <ele>400</ele>
        <time>2024-12-08T06:55:49.619Z</time>
      </trkpt>
      <trkpt lat="45.98514" lon="3.96654">
        <ele>399</ele>
        <time>2024-12-08T06:55:50.619Z</time>
      </trkpt>
      <trkpt lat="45.98514" lon="3.96656">
        <ele>399</ele>
        <time>2024-12-08T06:55:51.619Z</time>
      </trkpt>
      <trkpt lat="45.98515" lon="3.96659">
        <ele>399</ele>
        <time>2024-12-08T06:55:52.619Z</time>
      </trkpt>
      <trkpt lat="45.98516" lon="3.96661">
        <ele>399</ele>
        <time>2024-12-08T06:55:53.620Z</time>
      </trkpt>
      <trkpt lat="45.98517" lon="3.96663">
        <ele>399</ele>
        <time>2024-12-08T06:55:54.620Z</time>
      </trkpt>
      <trkpt lat="45.98518" lon="3.96666">
        <ele>399</ele>
        <time>2024-12-08T06:55:55.620Z</time>
      </trkpt>
      <trkpt lat="45.98519" lon="3.96668">
        <ele>399</ele>
        <time>2024-12-08T06:55:56.619Z</time>
      </trkpt>
      <trkpt lat="45.98519" lon="3.9667">
        <ele>399</ele>
        <time>2024-12-08T06:55:57.619Z</time>
      </trkpt>
      <trkpt lat="45.9852" lon="3.96673">
        <ele>399</ele>
        <time>2024-12-08T06:55:58.620Z</time>
      </trkpt>
      <trkpt lat="45.98522" lon="3.96675">
        <ele>399</ele>
        <time>2024-12-08T06:55:59.620Z</time>
      </trkpt>
      <trkpt lat="45.98524" lon="3.96677">
        <ele>399</ele>
        <time>2024-12-08T06:56:00.620Z</time>
      </trkpt>
      <trkpt lat="45.98526" lon="3.9668">
        <ele>398</ele>
        <time>2024-12-08T06:56:01.620Z</time>
      </trkpt>
      <trkpt lat="45.98527" lon="3.96682">
        <ele>399</ele>
        <time>2024-12-08T06:56:02.619Z</time>
      </trkpt>
      <trkpt lat="45.98527" lon="3.96685">
        <ele>399</ele>
        <time>2024-12-08T06:56:03.620Z</time>
      </trkpt>
      <trkpt lat="45.98529" lon="3.96688">
        <ele>399</ele>
        <time>2024-12-08T06:56:04.619Z</time>
      </trkpt>
      <trkpt lat="45.9853" lon="3.9669">
        <ele>399</ele>
        <time>2024-12-08T06:56:05.619Z</time>
      </trkpt>
      <trkpt lat="45.98531" lon="3.96693">
        <ele>399</ele>
        <time>2024-12-08T06:56:06.619Z</time>
      </trkpt>
      <trkpt lat="45.98532" lon="3.96695">
        <ele>399</ele>
        <time>2024-12-08T06:56:07.619Z</time>
      </trkpt>
      <trkpt lat="45.98533" lon="3.96697">
        <ele>399</ele>
        <time>2024-12-08T06:56:08.620Z</time>
      </trkpt>
      <trkpt lat="45.98534" lon="3.96699">
        <ele>399</ele>
        <time>2024-12-08T06:56:09.619Z</time>
      </trkpt>
      <trkpt lat="45.98535" lon="3.96701">
        <ele>398</ele>
        <time>2024-12-08T06:56:10.620Z</time>
      </trkpt>
      <trkpt lat="45.98536" lon="3.96703">
        <ele>398</ele>
        <time>2024-12-08T06:56:11.619Z</time>
      </trkpt>
      <trkpt lat="45.98537" lon="3.96706">
        <ele>398</ele>
        <time>2024-12-08T06:56:12.619Z</time>
      </trkpt>
      <trkpt lat="45.98538" lon="3.96709">
        <ele>398</ele>
        <time>2024-12-08T06:56:13.619Z</time>
      </trkpt>
      <trkpt lat="45.98539" lon="3.96711">
        <ele>398</ele>
        <time>2024-12-08T06:56:14.620Z</time>
      </trkpt>
      <trkpt lat="45.98539" lon="3.96713">
        <ele>397</ele>
        <time>2024-12-08T06:56:15.619Z</time>
      </trkpt>
      <trkpt lat="45.9854" lon="3.96716">
        <ele>397</ele>
        <time>2024-12-08T06:56:16.620Z</time>
      </trkpt>
      <trkpt lat="45.98542" lon="3.96719">
        <ele>397</ele>
        <time>2024-12-08T06:56:17.619Z</time>
      </trkpt>
      <trkpt lat="45.98543" lon="3.96721">
        <ele>398</ele>
        <time>2024-12-08T06:56:18.619Z</time>
      </trkpt>
      <trkpt lat="45.98544" lon="3.96723">
        <ele>398</ele>
        <time>2024-12-08T06:56:19.620Z</time>
      </trkpt>
      <trkpt lat="45.98545" lon="3.96725">
        <ele>397</ele>
        <time>2024-12-08T06:56:20.619Z</time>
      </trkpt>
      <trkpt lat="45.98545" lon="3.96728">
        <ele>397</ele>
        <time>2024-12-08T06:56:21.619Z</time>
      </trkpt>
      <trkpt lat="45.98546" lon="3.9673">
        <ele>397</ele>
        <time>2024-12-08T06:56:22.619Z</time>
      </trkpt>
      <trkpt lat="45.98547" lon="3.96732">
        <ele>396</ele>
        <time>2024-12-08T06:56:23.619Z</time>
      </trkpt>
      <trkpt lat="45.98548" lon="3.96735">
        <ele>397</ele>
        <time>2024-12-08T06:56:24.620Z</time>
      </trkpt>
      <trkpt lat="45.98549" lon="3.96737">
        <ele>397</ele>
        <time>2024-12-08T06:56:25.620Z</time>
      </trkpt>
      <trkpt lat="45.9855" lon="3.9674">
        <ele>397</ele>
        <time>2024-12-08T06:56:26.619Z</time>
      </trkpt>
      <trkpt lat="45.98551" lon="3.96742">
        <ele>397</ele>
        <time>2024-12-08T06:56:27.619Z</time>
      </trkpt>
      <trkpt lat="45.98552" lon="3.96744">
        <ele>397</ele>
        <time>2024-12-08T06:56:28.619Z</time>
      </trkpt>
      <trkpt lat="45.98553" lon="3.96747">
        <ele>397</ele>
        <time>2024-12-08T06:56:29.620Z</time>
      </trkpt>
      <trkpt lat="45.98554" lon="3.96749">
        <ele>396</ele>
        <time>2024-12-08T06:56:30.619Z</time>
      </trkpt>
      <trkpt lat="45.98556" lon="3.96752">
        <ele>396</ele>
        <time>2024-12-08T06:56:31.619Z</time>
      </trkpt>
      <trkpt lat="45.98557" lon="3.96755">
        <ele>396</ele>
        <time>2024-12-08T06:56:32.619Z</time>
      </trkpt>
      <trkpt lat="45.98558" lon="3.96757">
        <ele>395</ele>
        <time>2024-12-08T06:56:33.620Z</time>
      </trkpt>
      <trkpt lat="45.98559" lon="3.96759">
        <ele>395</ele>
        <time>2024-12-08T06:56:34.619Z</time>
      </trkpt>
      <trkpt lat="45.9856" lon="3.96761">
        <ele>396</ele>
        <time>2024-12-08T06:56:35.619Z</time>
      </trkpt>
      <trkpt lat="45.98561" lon="3.96763">
        <ele>396</ele>
        <time>2024-12-08T06:56:36.620Z</time>
      </trkpt>
      <trkpt lat="45.98562" lon="3.96766">
        <ele>395</ele>
        <time>2024-12-08T06:56:37.619Z</time>
      </trkpt>
      <trkpt lat="45.98563" lon="3.96768">
        <ele>395</ele>
        <time>2024-12-08T06:56:38.620Z</time>
      </trkpt>
      <trkpt lat="45.98564" lon="3.96771">
        <ele>395</ele>
        <time>2024-12-08T06:56:39.619Z</time>
      </trkpt>
      <trkpt lat="45.98565" lon="3.96773">
        <ele>395</ele>
        <time>2024-12-08T06:56:40.620Z</time>
      </trkpt>
      <trkpt lat="45.98566" lon="3.96775">
        <ele>395</ele>
        <time>2024-12-08T06:56:41.619Z</time>
      </trkpt>
      <trkpt lat="45.98567" lon="3.96777">
        <ele>395</ele>
        <time>2024-12-08T06:56:42.619Z</time>
      </trkpt>
      <trkpt lat="45.98568" lon="3.9678">
        <ele>395</ele>
        <time>2024-12-08T06:56:43.619Z</time>
      </trkpt>
      <trkpt lat="45.98569" lon="3.96782">
        <ele>394</ele>
        <time>2024-12-08T06:56:44.620Z</time>
      </trkpt>
      <trkpt lat="45.9857" lon="3.96785">
        <ele>394</ele>
        <time>2024-12-08T06:56:45.619Z</time>
      </trkpt>
      <trkpt lat="45.98572" lon="3.96788">
        <ele>394</ele>
        <time>2024-12-08T06:56:46.619Z</time>
      </trkpt>
      <trkpt lat="45.98573" lon="3.9679">
        <ele>393</ele>
        <time>2024-12-08T06:56:47.619Z</time>
      </trkpt>
      <trkpt lat="45.98574" lon="3.96792">
        <ele>393</ele>
        <time>2024-12-08T06:56:48.619Z</time>
      </trkpt>
      <trkpt lat="45.98574" lon="3.96795">
        <ele>393</ele>
        <time>2024-12-08T06:56:49.619Z</time>
      </trkpt>
      <trkpt lat="45.98575" lon="3.96798">
        <ele>393</ele>
        <time>2024-12-08T06:56:50.619Z</time>
      </trkpt>
      <trkpt lat="45.98576" lon="3.968">
        <ele>392</ele>
        <time>2024-12-08T06:56:51.620Z</time>
      </trkpt>
      <trkpt lat="45.98577" lon="3.96802">
        <ele>392</ele>
        <time>2024-12-08T06:56:52.619Z</time>
      </trkpt>
      <trkpt lat="45.98578" lon="3.96804">
        <ele>392</ele>
        <time>2024-12-08T06:56:53.619Z</time>
      </trkpt>
      <trkpt lat="45.98579" lon="3.96807">
        <ele>392</ele>
        <time>2024-12-08T06:56:54.619Z</time>
      </trkpt>
      <trkpt lat="45.9858" lon="3.96809">
        <ele>393</ele>
        <time>2024-12-08T06:56:55.620Z</time>
      </trkpt>
      <trkpt lat="45.98582" lon="3.96811">
        <ele>393</ele>
        <time>2024-12-08T06:56:56.619Z</time>
      </trkpt>
      <trkpt lat="45.98583" lon="3.96813">
        <ele>393</ele>
        <time>2024-12-08T06:56:57.619Z</time>
      </trkpt>
      <trkpt lat="45.98584" lon="3.96815">
        <ele>393</ele>
        <time>2024-12-08T06:56:58.619Z</time>
      </trkpt>
      <trkpt lat="45.98585" lon="3.96818">
        <ele>393</ele>
        <time>2024-12-08T06:56:59.619Z</time>
      </trkpt>
      <trkpt lat="45.98586" lon="3.9682">
        <ele>393</ele>
        <time>2024-12-08T06:57:00.619Z</time>
      </trkpt>
      <trkpt lat="45.98587" lon="3.96822">
        <ele>394</ele>
        <time>2024-12-08T06:57:01.620Z</time>
      </trkpt>
      <trkpt lat="45.98588" lon="3.96824">
        <ele>394</ele>
        <time>2024-12-08T06:57:02.619Z</time>
      </trkpt>
      <trkpt lat="45.98589" lon="3.96826">
        <ele>394</ele>
        <time>2024-12-08T06:57:03.620Z</time>
      </trkpt>
      <trkpt lat="45.9859" lon="3.96829">
        <ele>395</ele>
        <time>2024-12-08T06:57:04.620Z</time>
      </trkpt>
      <trkpt lat="45.98591" lon="3.96832">
        <ele>395</ele>
        <time>2024-12-08T06:57:05.620Z</time>
      </trkpt>
      <trkpt lat="45.98592" lon="3.96834">
        <ele>395</ele>
        <time>2024-12-08T06:57:06.620Z</time>
      </trkpt>
      <trkpt lat="45.98593" lon="3.96836">
        <ele>395</ele>
        <time>2024-12-08T06:57:07.619Z</time>
      </trkpt>
      <trkpt lat="45.98594" lon="3.96839">
        <ele>395</ele>
        <time>2024-12-08T06:57:08.620Z</time>
      </trkpt>
      <trkpt lat="45.98595" lon="3.96841">
        <ele>395</ele>
        <time>2024-12-08T06:57:09.619Z</time>
      </trkpt>
      <trkpt lat="45.98596" lon="3.96843">
        <ele>396</ele>
        <time>2024-12-08T06:57:10.620Z</time>
      </trkpt>
      <trkpt lat="45.98597" lon="3.96846">
        <ele>396</ele>
        <time>2024-12-08T06:57:11.619Z</time>
      </trkpt>
      <trkpt lat="45.98598" lon="3.96849">
        <ele>396</ele>
        <time>2024-12-08T06:57:12.620Z</time>
      </trkpt>
      <trkpt lat="45.986" lon="3.96851">
        <ele>396</ele>
        <time>2024-12-08T06:57:13.619Z</time>
      </trkpt>
      <trkpt lat="45.98601" lon="3.96852">
        <ele>396</ele>
        <time>2024-12-08T06:57:14.620Z</time>
      </trkpt>
      <trkpt lat="45.98602" lon="3.96854">
        <ele>396</ele>
        <time>2024-12-08T06:57:15.620Z</time>
      </trkpt>
      <trkpt lat="45.98603" lon="3.96856">
        <ele>396</ele>
        <time>2024-12-08T06:57:16.620Z</time>
      </trkpt>
      <trkpt lat="45.98604" lon="3.96859">
        <ele>396</ele>
        <time>2024-12-08T06:57:17.619Z</time>
      </trkpt>
      <trkpt lat="45.98605" lon="3.96861">
        <ele>396</ele>
        <time>2024-12-08T06:57:18.620Z</time>
      </trkpt>
      <trkpt lat="45.98606" lon="3.96863">
        <ele>395</ele>
        <time>2024-12-08T06:57:19.619Z</time>
      </trkpt>
      <trkpt lat="45.98607" lon="3.96865">
        <ele>395</ele>
        <time>2024-12-08T06:57:20.619Z</time>
      </trkpt>
      <trkpt lat="45.98609" lon="3.96867">
        <ele>395</ele>
        <time>2024-12-08T06:57:21.619Z</time>
      </trkpt>
      <trkpt lat="45.9861" lon="3.96869">
        <ele>394</ele>
        <time>2024-12-08T06:57:22.619Z</time>
      </trkpt>
      <trkpt lat="45.98611" lon="3.96871">
        <ele>394</ele>
        <time>2024-12-08T06:57:23.619Z</time>
      </trkpt>
      <trkpt lat="45.98612" lon="3.96873">
        <ele>394</ele>
        <time>2024-12-08T06:57:24.619Z</time>
      </trkpt>
      <trkpt lat="45.98613" lon="3.96875">
        <ele>394</ele>
        <time>2024-12-08T06:57:25.620Z</time>
      </trkpt>
      <trkpt lat="45.98614" lon="3.96878">
        <ele>393</ele>
        <time>2024-12-08T06:57:26.620Z</time>
      </trkpt>
      <trkpt lat="45.98615" lon="3.96881">
        <ele>393</ele>
        <time>2024-12-08T06:57:27.620Z</time>
      </trkpt>
      <trkpt lat="45.98616" lon="3.96883">
        <ele>393</ele>
        <time>2024-12-08T06:57:28.619Z</time>
      </trkpt>
      <trkpt lat="45.98617" lon="3.96885">
        <ele>393</ele>
        <time>2024-12-08T06:57:29.620Z</time>
      </trkpt>
      <trkpt lat="45.98618" lon="3.96888">
        <ele>393</ele>
        <time>2024-12-08T06:57:30.620Z</time>
      </trkpt>
      <trkpt lat="45.98618" lon="3.9689">
        <ele>393</ele>
        <time>2024-12-08T06:57:31.620Z</time>
      </trkpt>
      <trkpt lat="45.98619" lon="3.96892">
        <ele>393</ele>
        <time>2024-12-08T06:57:32.619Z</time>
      </trkpt>
      <trkpt lat="45.9862" lon="3.96894">
        <ele>393</ele>
        <time>2024-12-08T06:57:33.619Z</time>
      </trkpt>
      <trkpt lat="45.98621" lon="3.96897">
        <ele>393</ele>
        <time>2024-12-08T06:57:34.619Z</time>
      </trkpt>
      <trkpt lat="45.98622" lon="3.96899">
        <ele>393</ele>
        <time>2024-12-08T06:57:35.620Z</time>
      </trkpt>
      <trkpt lat="45.98623" lon="3.96902">
        <ele>393</ele>
        <time>2024-12-08T06:57:36.619Z</time>
      </trkpt>
      <trkpt lat="45.98624" lon="3.96904">
        <ele>393</ele>
        <time>2024-12-08T06:57:37.620Z</time>
      </trkpt>
      <trkpt lat="45.98625" lon="3.96906">
        <ele>393</ele>
        <time>2024-12-08T06:57:38.619Z</time>
      </trkpt>
      <trkpt lat="45.98626" lon="3.96908">
        <ele>393</ele>
        <time>2024-12-08T06:57:39.619Z</time>
      </trkpt>
      <trkpt lat="45.98627" lon="3.9691">
        <ele>393</ele>
        <time>2024-12-08T06:57:40.619Z</time>
      </trkpt>
      <trkpt lat="45.98628" lon="3.96912">
        <ele>393</ele>
        <time>2024-12-08T06:57:41.619Z</time>
      </trkpt>
      <trkpt lat="45.9863" lon="3.96914">
        <ele>393</ele>
        <time>2024-12-08T06:57:42.619Z</time>
      </trkpt>
      <trkpt lat="45.98631" lon="3.96916">
        <ele>393</ele>
        <time>2024-12-08T06:57:43.619Z</time>
      </trkpt>
      <trkpt lat="45.98632" lon="3.96919">
        <ele>392</ele>
        <time>2024-12-08T06:57:44.620Z</time>
      </trkpt>
      <trkpt lat="45.98633" lon="3.96922">
        <ele>392</ele>
        <time>2024-12-08T06:57:45.619Z</time>
      </trkpt>
      <trkpt lat="45.98634" lon="3.96924">
        <ele>392</ele>
        <time>2024-12-08T06:57:46.620Z</time>
      </trkpt>
      <trkpt lat="45.98634" lon="3.96926">
        <ele>392</ele>
        <time>2024-12-08T06:57:47.619Z</time>
      </trkpt>
      <trkpt lat="45.98635" lon="3.96929">
        <ele>392</ele>
        <time>2024-12-08T06:57:48.619Z</time>
      </trkpt>
      <trkpt lat="45.98636" lon="3.96932">
        <ele>391</ele>
        <time>2024-12-08T06:57:49.619Z</time>
      </trkpt>
      <trkpt lat="45.98637" lon="3.96934">
        <ele>391</ele>
        <time>2024-12-08T06:57:50.620Z</time>
      </trkpt>
      <trkpt lat="45.98638" lon="3.96936">
        <ele>391</ele>
        <time>2024-12-08T06:57:51.620Z</time>
      </trkpt>
      <trkpt lat="45.98639" lon="3.96938">
        <ele>391</ele>
        <time>2024-12-08T06:57:52.619Z</time>
      </trkpt>
      <trkpt lat="45.9864" lon="3.96941">
        <ele>391</ele>
        <time>2024-12-08T06:57:53.620Z</time>
      </trkpt>
      <trkpt lat="45.98642" lon="3.96944">
        <ele>391</ele>
        <time>2024-12-08T06:57:54.619Z</time>
      </trkpt>
      <trkpt lat="45.98643" lon="3.96946">
        <ele>391</ele>
        <time>2024-12-08T06:57:55.619Z</time>
      </trkpt>
      <trkpt lat="45.98644" lon="3.96948">
        <ele>391</ele>
        <time>2024-12-08T06:57:56.620Z</time>
      </trkpt>
      <trkpt lat="45.98645" lon="3.96951">
        <ele>391</ele>
        <time>2024-12-08T06:57:57.620Z</time>
      </trkpt>
      <trkpt lat="45.98646" lon="3.96954">
        <ele>391</ele>
        <time>2024-12-08T06:57:58.619Z</time>
      </trkpt>
      <trkpt lat="45.98647" lon="3.96956">
        <ele>391</ele>
        <time>2024-12-08T06:57:59.620Z</time>
      </trkpt>
      <trkpt lat="45.98648" lon="3.96958">
        <ele>392</ele>
        <time>2024-12-08T06:58:00.619Z</time>
      </trkpt>
      <trkpt lat="45.98649" lon="3.9696">
        <ele>391</ele>
        <time>2024-12-08T06:58:01.620Z</time>
      </trkpt>
      <trkpt lat="45.9865" lon="3.96963">
        <ele>391</ele>
        <time>2024-12-08T06:58:02.620Z</time>
      </trkpt>
      <trkpt lat="45.98651" lon="3.96965">
        <ele>391</ele>
        <time>2024-12-08T06:58:03.620Z</time>
      </trkpt>
      <trkpt lat="45.98653" lon="3.96967">
        <ele>391</ele>
        <time>2024-12-08T06:58:04.620Z</time>
      </trkpt>
      <trkpt lat="45.98653" lon="3.9697">
        <ele>391</ele>
        <time>2024-12-08T06:58:05.619Z</time>
      </trkpt>
      <trkpt lat="45.98655" lon="3.96972">
        <ele>391</ele>
        <time>2024-12-08T06:58:06.620Z</time>
      </trkpt>
      <trkpt lat="45.98656" lon="3.96975">
        <ele>391</ele>
        <time>2024-12-08T06:58:07.619Z</time>
      </trkpt>
      <trkpt lat="45.98656" lon="3.96977">
        <ele>390</ele>
        <time>2024-12-08T06:58:08.620Z</time>
      </trkpt>
      <trkpt lat="45.98657" lon="3.96979">
        <ele>390</ele>
        <time>2024-12-08T06:58:09.620Z</time>
      </trkpt>
      <trkpt lat="45.98658" lon="3.96982">
        <ele>390</ele>
        <time>2024-12-08T06:58:10.619Z</time>
      </trkpt>
      <trkpt lat="45.9866" lon="3.96985">
        <ele>390</ele>
        <time>2024-12-08T06:58:11.619Z</time>
      </trkpt>
      <trkpt lat="45.98661" lon="3.96987">
        <ele>391</ele>
        <time>2024-12-08T06:58:12.619Z</time>
      </trkpt>
      <trkpt lat="45.98662" lon="3.9699">
        <ele>391</ele>
        <time>2024-12-08T06:58:13.619Z</time>
      </trkpt>
      <trkpt lat="45.98662" lon="3.96992">
        <ele>391</ele>
        <time>2024-12-08T06:58:14.619Z</time>
      </trkpt>
      <trkpt lat="45.98663" lon="3.96995">
        <ele>391</ele>
        <time>2024-12-08T06:58:15.620Z</time>
      </trkpt>
      <trkpt lat="45.98665" lon="3.96997">
        <ele>391</ele>
        <time>2024-12-08T06:58:16.620Z</time>
      </trkpt>
      <trkpt lat="45.98666" lon="3.97">
        <ele>391</ele>
        <time>2024-12-08T06:58:17.620Z</time>
      </trkpt>
      <trkpt lat="45.98667" lon="3.97002">
        <ele>391</ele>
        <time>2024-12-08T06:58:18.620Z</time>
      </trkpt>
      <trkpt lat="45.98668" lon="3.97004">
        <ele>391</ele>
        <time>2024-12-08T06:58:19.619Z</time>
      </trkpt>
      <trkpt lat="45.98669" lon="3.97007">
        <ele>391</ele>
        <time>2024-12-08T06:58:20.620Z</time>
      </trkpt>
      <trkpt lat="45.9867" lon="3.9701">
        <ele>390</ele>
        <time>2024-12-08T06:58:21.619Z</time>
      </trkpt>
      <trkpt lat="45.9867" lon="3.97012">
        <ele>390</ele>
        <time>2024-12-08T06:58:22.620Z</time>
      </trkpt>
      <trkpt lat="45.98671" lon="3.97014">
        <ele>390</ele>
        <time>2024-12-08T06:58:23.619Z</time>
      </trkpt>
      <trkpt lat="45.98673" lon="3.97017">
        <ele>390</ele>
        <time>2024-12-08T06:58:24.620Z</time>
      </trkpt>
      <trkpt lat="45.98674" lon="3.9702">
        <ele>390</ele>
        <time>2024-12-08T06:58:25.619Z</time>
      </trkpt>
      <trkpt lat="45.98675" lon="3.97022">
        <ele>390</ele>
        <time>2024-12-08T06:58:26.619Z</time>
      </trkpt>
      <trkpt lat="45.98676" lon="3.97024">
        <ele>390</ele>
        <time>2024-12-08T06:58:27.620Z</time>
      </trkpt>
      <trkpt lat="45.98677" lon="3.97026">
        <ele>389</ele>
        <time>2024-12-08T06:58:28.620Z</time>
      </trkpt>
      <trkpt lat="45.98678" lon="3.97028">
        <ele>389</ele>
        <time>2024-12-08T06:58:29.619Z</time>
      </trkpt>
      <trkpt lat="45.98679" lon="3.97031">
        <ele>389</ele>
        <time>2024-12-08T06:58:30.620Z</time>
      </trkpt>
      <trkpt lat="45.9868" lon="3.97033">
        <ele>389</ele>
        <time>2024-12-08T06:58:31.619Z</time>
      </trkpt>
      <trkpt lat="45.98681" lon="3.97036">
        <ele>389</ele>
        <time>2024-12-08T06:58:32.620Z</time>
      </trkpt>
      <trkpt lat="45.98682" lon="3.97038">
        <ele>388</ele>
        <time>2024-12-08T06:58:33.619Z</time>
      </trkpt>
      <trkpt lat="45.98683" lon="3.9704">
        <ele>388</ele>
        <time>2024-12-08T06:58:34.619Z</time>
      </trkpt>
      <trkpt lat="45.98684" lon="3.97042">
        <ele>389</ele>
        <time>2024-12-08T06:58:35.619Z</time>
      </trkpt>
      <trkpt lat="45.98685" lon="3.97045">
        <ele>389</ele>
        <time>2024-12-08T06:58:36.619Z</time>
      </trkpt>
      <trkpt lat="45.98686" lon="3.97047">
        <ele>389</ele>
        <time>2024-12-08T06:58:37.619Z</time>
      </trkpt>
      <trkpt lat="45.98687" lon="3.97049">
        <ele>389</ele>
        <time>2024-12-08T06:58:38.620Z</time>
      </trkpt>
      <trkpt lat="45.98689" lon="3.97051">
        <ele>389</ele>
        <time>2024-12-08T06:58:39.620Z</time>
      </trkpt>
      <trkpt lat="45.9869" lon="3.97053">
        <ele>388</ele>
        <time>2024-12-08T06:58:40.619Z</time>
      </trkpt>
      <trkpt lat="45.98692" lon="3.97055">
        <ele>388</ele>
        <time>2024-12-08T06:58:41.620Z</time>
      </trkpt>
      <trkpt lat="45.98693" lon="3.97057">
        <ele>388</ele>
        <time>2024-12-08T06:58:42.619Z</time>
      </trkpt>
      <trkpt lat="45.98695" lon="3.97058">
        <ele>388</ele>
        <time>2024-12-08T06:58:43.620Z</time>
      </trkpt>
      <trkpt lat="45.98696" lon="3.9706">
        <ele>388</ele>
        <time>2024-12-08T06:58:44.619Z</time>
      </trkpt>
      <trkpt lat="45.98698" lon="3.97061">
        <ele>388</ele>
        <time>2024-12-08T06:58:45.619Z</time>
      </trkpt>
      <trkpt lat="45.98699" lon="3.97062">
        <ele>388</ele>
        <time>2024-12-08T06:58:46.619Z</time>
      </trkpt>
      <trkpt lat="45.98701" lon="3.97064">
        <ele>388</ele>
        <time>2024-12-08T06:58:47.619Z</time>
      </trkpt>
      <trkpt lat="45.98703" lon="3.97065">
        <ele>388</ele>
        <time>2024-12-08T06:58:48.619Z</time>
      </trkpt>
      <trkpt lat="45.98704" lon="3.97066">
        <ele>388</ele>
        <time>2024-12-08T06:58:49.619Z</time>
      </trkpt>
      <trkpt lat="45.98706" lon="3.97067">
        <ele>388</ele>
        <time>2024-12-08T06:58:50.620Z</time>
      </trkpt>
      <trkpt lat="45.98708" lon="3.97068">
        <ele>388</ele>
        <time>2024-12-08T06:58:51.619Z</time>
      </trkpt>
      <trkpt lat="45.98709" lon="3.9707">
        <ele>388</ele>
        <time>2024-12-08T06:58:52.620Z</time>
      </trkpt>
      <trkpt lat="45.98711" lon="3.97071">
        <ele>389</ele>
        <time>2024-12-08T06:58:53.619Z</time>
      </trkpt>
      <trkpt lat="45.98712" lon="3.97073">
        <ele>389</ele>
        <time>2024-12-08T06:58:54.619Z</time>
      </trkpt>
      <trkpt lat="45.98714" lon="3.97074">
        <ele>389</ele>
        <time>2024-12-08T06:58:55.619Z</time>
      </trkpt>
      <trkpt lat="45.98715" lon="3.97075">
        <ele>389</ele>
        <time>2024-12-08T06:58:56.620Z</time>
      </trkpt>
      <trkpt lat="45.98717" lon="3.97077">
        <ele>389</ele>
        <time>2024-12-08T06:58:57.620Z</time>
      </trkpt>
      <trkpt lat="45.98719" lon="3.97078">
        <ele>389</ele>
        <time>2024-12-08T06:58:58.620Z</time>
      </trkpt>
      <trkpt lat="45.9872" lon="3.97079">
        <ele>388</ele>
        <time>2024-12-08T06:58:59.620Z</time>
      </trkpt>
      <trkpt lat="45.98722" lon="3.9708">
        <ele>388</ele>
        <time>2024-12-08T06:59:00.619Z</time>
      </trkpt>
      <trkpt lat="45.98724" lon="3.97081">
        <ele>388</ele>
        <time>2024-12-08T06:59:01.620Z</time>
      </trkpt>
      <trkpt lat="45.98725" lon="3.97083">
        <ele>388</ele>
        <time>2024-12-08T06:59:02.619Z</time>
      </trkpt>
      <trkpt lat="45.98727" lon="3.97084">
        <ele>388</ele>
        <time>2024-12-08T06:59:03.619Z</time>
      </trkpt>
      <trkpt lat="45.98729" lon="3.97084">
        <ele>388</ele>
        <time>2024-12-08T06:59:04.620Z</time>
      </trkpt>
      <trkpt lat="45.9873" lon="3.97086">
        <ele>388</ele>
        <time>2024-12-08T06:59:05.620Z</time>
      </trkpt>
      <trkpt lat="45.98732" lon="3.97087">
        <ele>388</ele>
        <time>2024-12-08T06:59:06.619Z</time>
      </trkpt>
      <trkpt lat="45.98734" lon="3.97088">
        <ele>389</ele>
        <time>2024-12-08T06:59:07.619Z</time>
      </trkpt>
      <trkpt lat="45.98736" lon="3.97089">
        <ele>389</ele>
        <time>2024-12-08T06:59:08.619Z</time>
      </trkpt>
      <trkpt lat="45.98738" lon="3.9709">
        <ele>389</ele>
        <time>2024-12-08T06:59:09.619Z</time>
      </trkpt>
      <trkpt lat="45.98739" lon="3.97091">
        <ele>389</ele>
        <time>2024-12-08T06:59:10.619Z</time>
      </trkpt>
      <trkpt lat="45.98741" lon="3.97093">
        <ele>389</ele>
        <time>2024-12-08T06:59:11.620Z</time>
      </trkpt>
      <trkpt lat="45.98742" lon="3.97094">
        <ele>389</ele>
        <time>2024-12-08T06:59:12.619Z</time>
      </trkpt>
      <trkpt lat="45.98744" lon="3.97095">
        <ele>388</ele>
        <time>2024-12-08T06:59:13.619Z</time>
      </trkpt>
      <trkpt lat="45.98745" lon="3.97096">
        <ele>388</ele>
        <time>2024-12-08T06:59:14.620Z</time>
      </trkpt>
      <trkpt lat="45.98747" lon="3.97098">
        <ele>388</ele>
        <time>2024-12-08T06:59:15.619Z</time>
      </trkpt>
      <trkpt lat="45.98749" lon="3.97099">
        <ele>388</ele>
        <time>2024-12-08T06:59:16.620Z</time>
      </trkpt>
      <trkpt lat="45.98751" lon="3.971">
        <ele>389</ele>
        <time>2024-12-08T06:59:17.619Z</time>
      </trkpt>
      <trkpt lat="45.98752" lon="3.97102">
        <ele>389</ele>
        <time>2024-12-08T06:59:18.619Z</time>
      </trkpt>
      <trkpt lat="45.98754" lon="3.97103">
        <ele>389</ele>
        <time>2024-12-08T06:59:19.620Z</time>
      </trkpt>
      <trkpt lat="45.98756" lon="3.97104">
        <ele>389</ele>
        <time>2024-12-08T06:59:20.619Z</time>
      </trkpt>
      <trkpt lat="45.98758" lon="3.97106">
        <ele>390</ele>
        <time>2024-12-08T06:59:21.619Z</time>
      </trkpt>
      <trkpt lat="45.98759" lon="3.97107">
        <ele>390</ele>
        <time>2024-12-08T06:59:22.619Z</time>
      </trkpt>
      <trkpt lat="45.98761" lon="3.97108">
        <ele>390</ele>
        <time>2024-12-08T06:59:23.619Z</time>
      </trkpt>
      <trkpt lat="45.98763" lon="3.9711">
        <ele>390</ele>
        <time>2024-12-08T06:59:24.620Z</time>
      </trkpt>
      <trkpt lat="45.98765" lon="3.97112">
        <ele>390</ele>
        <time>2024-12-08T06:59:25.619Z</time>
      </trkpt>
      <trkpt lat="45.98767" lon="3.97113">
        <ele>390</ele>
        <time>2024-12-08T06:59:26.619Z</time>
      </trkpt>
      <trkpt lat="45.98768" lon="3.97114">
        <ele>390</ele>
        <time>2024-12-08T06:59:27.620Z</time>
      </trkpt>
      <trkpt lat="45.9877" lon="3.97116">
        <ele>390</ele>
        <time>2024-12-08T06:59:28.619Z</time>
      </trkpt>
      <trkpt lat="45.98772" lon="3.97117">
        <ele>390</ele>
        <time>2024-12-08T06:59:29.620Z</time>
      </trkpt>
      <trkpt lat="45.98774" lon="3.97119">
        <ele>390</ele>
        <time>2024-12-08T06:59:30.620Z</time>
      </trkpt>
      <trkpt lat="45.98775" lon="3.9712">
        <ele>390</ele>
        <time>2024-12-08T06:59:31.620Z</time>
      </trkpt>
      <trkpt lat="45.98777" lon="3.97122">
        <ele>389</ele>
        <time>2024-12-08T06:59:32.620Z</time>
      </trkpt>
      <trkpt lat="45.98778" lon="3.97124">
        <ele>389</ele>
        <time>2024-12-08T06:59:33.620Z</time>
      </trkpt>
      <trkpt lat="45.98779" lon="3.97125">
        <ele>389</ele>
        <time>2024-12-08T06:59:34.619Z</time>
      </trkpt>
      <trkpt lat="45.9878" lon="3.97126">
        <ele>389</ele>
        <time>2024-12-08T06:59:35.620Z</time>
      </trkpt>
      <trkpt lat="45.98782" lon="3.97128">
        <ele>389</ele>
        <time>2024-12-08T06:59:36.619Z</time>
      </trkpt>
      <trkpt lat="45.98783" lon="3.9713">
        <ele>389</ele>
        <time>2024-12-08T06:59:37.620Z</time>
      </trkpt>
      <trkpt lat="45.98785" lon="3.97132">
        <ele>389</ele>
        <time>2024-12-08T06:59:38.619Z</time>
      </trkpt>
      <trkpt lat="45.98786" lon="3.97133">
        <ele>389</ele>
        <time>2024-12-08T06:59:39.619Z</time>
      </trkpt>
      <trkpt lat="45.98788" lon="3.97134">
        <ele>388</ele>
        <time>2024-12-08T06:59:40.620Z</time>
      </trkpt>
      <trkpt lat="45.9879" lon="3.97136">
        <ele>388</ele>
        <time>2024-12-08T06:59:41.619Z</time>
      </trkpt>
      <trkpt lat="45.98791" lon="3.97138">
        <ele>388</ele>
        <time>2024-12-08T06:59:42.619Z</time>
      </trkpt>
      <trkpt lat="45.98792" lon="3.9714">
        <ele>388</ele>
        <time>2024-12-08T06:59:43.620Z</time>
      </trkpt>
      <trkpt lat="45.98794" lon="3.97142">
        <ele>388</ele>
        <time>2024-12-08T06:59:44.620Z</time>
      </trkpt>
      <trkpt lat="45.98796" lon="3.97144">
        <ele>388</ele>
        <time>2024-12-08T06:59:45.620Z</time>
      </trkpt>
      <trkpt lat="45.98797" lon="3.97145">
        <ele>388</ele>
        <time>2024-12-08T06:59:46.620Z</time>
      </trkpt>
      <trkpt lat="45.98799" lon="3.97147">
        <ele>389</ele>
        <time>2024-12-08T06:59:47.619Z</time>
      </trkpt>
      <trkpt lat="45.988" lon="3.97149">
        <ele>389</ele>
        <time>2024-12-08T06:59:48.620Z</time>
      </trkpt>
      <trkpt lat="45.98801" lon="3.9715">
        <ele>389</ele>
        <time>2024-12-08T06:59:49.619Z</time>
      </trkpt>
      <trkpt lat="45.98803" lon="3.97152">
        <ele>389</ele>
        <time>2024-12-08T06:59:50.620Z</time>
      </trkpt>
      <trkpt lat="45.98805" lon="3.97154">
        <ele>389</ele>
        <time>2024-12-08T06:59:51.619Z</time>
      </trkpt>
      <trkpt lat="45.98806" lon="3.97156">
        <ele>390</ele>
        <time>2024-12-08T06:59:52.620Z</time>
      </trkpt>
      <trkpt lat="45.98808" lon="3.97158">
        <ele>390</ele>
        <time>2024-12-08T06:59:53.620Z</time>
      </trkpt>
      <trkpt lat="45.98809" lon="3.97159">
        <ele>391</ele>
        <time>2024-12-08T06:59:54.620Z</time>
      </trkpt>
      <trkpt lat="45.98811" lon="3.9716">
        <ele>391</ele>
        <time>2024-12-08T06:59:55.619Z</time>
      </trkpt>
      <trkpt lat="45.98812" lon="3.97162">
        <ele>391</ele>
        <time>2024-12-08T06:59:56.619Z</time>
      </trkpt>
      <trkpt lat="45.98814" lon="3.97164">
        <ele>391</ele>
        <time>2024-12-08T06:59:57.619Z</time>
      </trkpt>
      <trkpt lat="45.98815" lon="3.97166">
        <ele>390</ele>
        <time>2024-12-08T06:59:58.619Z</time>
      </trkpt>
      <trkpt lat="45.98817" lon="3.97168">
        <ele>390</ele>
        <time>2024-12-08T06:59:59.620Z</time>
      </trkpt>
      <trkpt lat="45.98818" lon="3.9717">
        <ele>390</ele>
        <time>2024-12-08T07:00:00.619Z</time>
      </trkpt>
      <trkpt lat="45.98819" lon="3.97171">
        <ele>390</ele>
        <time>2024-12-08T07:00:01.620Z</time>
      </trkpt>
      <trkpt lat="45.98821" lon="3.97173">
        <ele>390</ele>
        <time>2024-12-08T07:00:02.620Z</time>
      </trkpt>
      <trkpt lat="45.98822" lon="3.97174">
        <ele>390</ele>
        <time>2024-12-08T07:00:03.619Z</time>
      </trkpt>
      <trkpt lat="45.98824" lon="3.97176">
        <ele>390</ele>
        <time>2024-12-08T07:00:04.620Z</time>
      </trkpt>
      <trkpt lat="45.98826" lon="3.97178">
        <ele>389</ele>
        <time>2024-12-08T07:00:05.619Z</time>
      </trkpt>
      <trkpt lat="45.98827" lon="3.97179">
        <ele>390</ele>
        <time>2024-12-08T07:00:06.620Z</time>
      </trkpt>
      <trkpt lat="45.98828" lon="3.97181">
        <ele>390</ele>
        <time>2024-12-08T07:00:07.619Z</time>
      </trkpt>
      <trkpt lat="45.9883" lon="3.97183">
        <ele>390</ele>
        <time>2024-12-08T07:00:08.620Z</time>
      </trkpt>
      <trkpt lat="45.98831" lon="3.97185">
        <ele>390</ele>
        <time>2024-12-08T07:00:09.619Z</time>
      </trkpt>
      <trkpt lat="45.98833" lon="3.97186">
        <ele>390</ele>
        <time>2024-12-08T07:00:10.620Z</time>
      </trkpt>
      <trkpt lat="45.98834" lon="3.97188">
        <ele>390</ele>
        <time>2024-12-08T07:00:11.620Z</time>
      </trkpt>
      <trkpt lat="45.98835" lon="3.9719">
        <ele>389</ele>
        <time>2024-12-08T07:00:12.619Z</time>
      </trkpt>
      <trkpt lat="45.98837" lon="3.97192">
        <ele>389</ele>
        <time>2024-12-08T07:00:13.619Z</time>
      </trkpt>
      <trkpt lat="45.98838" lon="3.97193">
        <ele>389</ele>
        <time>2024-12-08T07:00:14.620Z</time>
      </trkpt>
      <trkpt lat="45.9884" lon="3.97194">
        <ele>389</ele>
        <time>2024-12-08T07:00:15.620Z</time>
      </trkpt>
      <trkpt lat="45.98841" lon="3.97196">
        <ele>389</ele>
        <time>2024-12-08T07:00:16.619Z</time>
      </trkpt>
      <trkpt lat="45.98843" lon="3.97197">
        <ele>389</ele>
        <time>2024-12-08T07:00:17.619Z</time>
      </trkpt>
      <trkpt lat="45.98845" lon="3.97199">
        <ele>389</ele>
        <time>2024-12-08T07:00:18.619Z</time>
      </trkpt>
      <trkpt lat="45.98847" lon="3.972">
        <ele>389</ele>
        <time>2024-12-08T07:00:19.620Z</time>
      </trkpt>
      <trkpt lat="45.98849" lon="3.97201">
        <ele>389</ele>
        <time>2024-12-08T07:00:20.619Z</time>
      </trkpt>
      <trkpt lat="45.98851" lon="3.97203">
        <ele>389</ele>
        <time>2024-12-08T07:00:21.619Z</time>
      </trkpt>
      <trkpt lat="45.98852" lon="3.97204">
        <ele>389</ele>
        <time>2024-12-08T07:00:22.620Z</time>
      </trkpt>
      <trkpt lat="45.98854" lon="3.97205">
        <ele>389</ele>
        <time>2024-12-08T07:00:23.620Z</time>
      </trkpt>
      <trkpt lat="45.98856" lon="3.97207">
        <ele>389</ele>
        <time>2024-12-08T07:00:24.619Z</time>
      </trkpt>
      <trkpt lat="45.98857" lon="3.97207">
        <ele>389</ele>
        <time>2024-12-08T07:00:25.619Z</time>
      </trkpt>
      <trkpt lat="45.98859" lon="3.97209">
        <ele>389</ele>
        <time>2024-12-08T07:00:26.620Z</time>
      </trkpt>
      <trkpt lat="45.98861" lon="3.9721">
        <ele>389</ele>
        <time>2024-12-08T07:00:27.619Z</time>
      </trkpt>
      <trkpt lat="45.98863" lon="3.97211">
        <ele>389</ele>
        <time>2024-12-08T07:00:28.620Z</time>
      </trkpt>
      <trkpt lat="45.98865" lon="3.97212">
        <ele>389</ele>
        <time>2024-12-08T07:00:29.619Z</time>
      </trkpt>
      <trkpt lat="45.98866" lon="3.97214">
        <ele>389</ele>
        <time>2024-12-08T07:00:30.620Z</time>
      </trkpt>
      <trkpt lat="45.98868" lon="3.97214">
        <ele>389</ele>
        <time>2024-12-08T07:00:31.619Z</time>
      </trkpt>
      <trkpt lat="45.9887" lon="3.97215">
        <ele>389</ele>
        <time>2024-12-08T07:00:32.620Z</time>
      </trkpt>
      <trkpt lat="45.98871" lon="3.97216">
        <ele>389</ele>
        <time>2024-12-08T07:00:33.619Z</time>
      </trkpt>
      <trkpt lat="45.98873" lon="3.97217">
        <ele>388</ele>
        <time>2024-12-08T07:00:34.619Z</time>
      </trkpt>
      <trkpt lat="45.98875" lon="3.97218">
        <ele>388</ele>
        <time>2024-12-08T07:00:35.619Z</time>
      </trkpt>
      <trkpt lat="45.98877" lon="3.97219">
        <ele>388</ele>
        <time>2024-12-08T07:00:36.620Z</time>
      </trkpt>
      <trkpt lat="45.98879" lon="3.9722">
        <ele>389</ele>
        <time>2024-12-08T07:00:37.619Z</time>
      </trkpt>
      <trkpt lat="45.9888" lon="3.9722">
        <ele>389</ele>
        <time>2024-12-08T07:00:38.620Z</time>
      </trkpt>
      <trkpt lat="45.98882" lon="3.97221">
        <ele>389</ele>
        <time>2024-12-08T07:00:39.619Z</time>
      </trkpt>
      <trkpt lat="45.98884" lon="3.97222">
        <ele>389</ele>
        <time>2024-12-08T07:00:40.620Z</time>
      </trkpt>
      <trkpt lat="45.98886" lon="3.97223">
        <ele>389</ele>
        <time>2024-12-08T07:00:41.620Z</time>
      </trkpt>
      <trkpt lat="45.98888" lon="3.97224">
        <ele>389</ele>
        <time>2024-12-08T07:00:42.619Z</time>
      </trkpt>
      <trkpt lat="45.9889" lon="3.97224">
        <ele>390</ele>
        <time>2024-12-08T07:00:43.619Z</time>
      </trkpt>
      <trkpt lat="45.98892" lon="3.97225">
        <ele>390</ele>
        <time>2024-12-08T07:00:44.619Z</time>
      </trkpt>
      <trkpt lat="45.98894" lon="3.97226">
        <ele>390</ele>
        <time>2024-12-08T07:00:45.619Z</time>
      </trkpt>
      <trkpt lat="45.98895" lon="3.97227">
        <ele>390</ele>
        <time>2024-12-08T07:00:46.620Z</time>
      </trkpt>
      <trkpt lat="45.98897" lon="3.97227">
        <ele>390</ele>
        <time>2024-12-08T07:00:47.619Z</time>
      </trkpt>
      <trkpt lat="45.98899" lon="3.97228">
        <ele>390</ele>
        <time>2024-12-08T07:00:48.619Z</time>
      </trkpt>
      <trkpt lat="45.98901" lon="3.97229">
        <ele>390</ele>
        <time>2024-12-08T07:00:49.620Z</time>
      </trkpt>
      <trkpt lat="45.98903" lon="3.9723">
        <ele>390</ele>
        <time>2024-12-08T07:00:50.619Z</time>
      </trkpt>
      <trkpt lat="45.98904" lon="3.97231">
        <ele>390</ele>
        <time>2024-12-08T07:00:51.620Z</time>
      </trkpt>
      <trkpt lat="45.98906" lon="3.97231">
        <ele>390</ele>
        <time>2024-12-08T07:00:52.619Z</time>
      </trkpt>
      <trkpt lat="45.98908" lon="3.97232">
        <ele>390</ele>
        <time>2024-12-08T07:00:53.620Z</time>
      </trkpt>
      <trkpt lat="45.9891" lon="3.97233">
        <ele>390</ele>
        <time>2024-12-08T07:00:54.620Z</time>
      </trkpt>
      <trkpt lat="45.98912" lon="3.97234">
        <ele>390</ele>
        <time>2024-12-08T07:00:55.620Z</time>
      </trkpt>
      <trkpt lat="45.98913" lon="3.97235">
        <ele>390</ele>
        <time>2024-12-08T07:00:56.619Z</time>
      </trkpt>
      <trkpt lat="45.98916" lon="3.97236">
        <ele>390</ele>
        <time>2024-12-08T07:00:57.619Z</time>
      </trkpt>
      <trkpt lat="45.98917" lon="3.97237">
        <ele>390</ele>
        <time>2024-12-08T07:00:58.620Z</time>
      </trkpt>
      <trkpt lat="45.98919" lon="3.97238">
        <ele>390</ele>
        <time>2024-12-08T07:00:59.619Z</time>
      </trkpt>
      <trkpt lat="45.9892" lon="3.97239">
        <ele>390</ele>
        <time>2024-12-08T07:01:00.620Z</time>
      </trkpt>
      <trkpt lat="45.98922" lon="3.9724">
        <ele>389</ele>
        <time>2024-12-08T07:01:01.619Z</time>
      </trkpt>
      <trkpt lat="45.98924" lon="3.97241">
        <ele>389</ele>
        <time>2024-12-08T07:01:02.620Z</time>
      </trkpt>
      <trkpt lat="45.98926" lon="3.97242">
        <ele>390</ele>
        <time>2024-12-08T07:01:03.619Z</time>
      </trkpt>
      <trkpt lat="45.98927" lon="3.97243">
        <ele>390</ele>
        <time>2024-12-08T07:01:04.620Z</time>
      </trkpt>
      <trkpt lat="45.98929" lon="3.97244">
        <ele>390</ele>
        <time>2024-12-08T07:01:05.619Z</time>
      </trkpt>
      <trkpt lat="45.98931" lon="3.97245">
        <ele>390</ele>
        <time>2024-12-08T07:01:06.620Z</time>
      </trkpt>
      <trkpt lat="45.98932" lon="3.97246">
        <ele>390</ele>
        <time>2024-12-08T07:01:07.619Z</time>
      </trkpt>
      <trkpt lat="45.98934" lon="3.97248">
        <ele>390</ele>
        <time>2024-12-08T07:01:08.620Z</time>
      </trkpt>
      <trkpt lat="45.98936" lon="3.97249">
        <ele>391</ele>
        <time>2024-12-08T07:01:09.620Z</time>
      </trkpt>
      <trkpt lat="45.98938" lon="3.9725">
        <ele>391</ele>
        <time>2024-12-08T07:01:10.619Z</time>
      </trkpt>
      <trkpt lat="45.9894" lon="3.97251">
        <ele>391</ele>
        <time>2024-12-08T07:01:11.619Z</time>
      </trkpt>
      <trkpt lat="45.98942" lon="3.97252">
        <ele>391</ele>
        <time>2024-12-08T07:01:12.619Z</time>
      </trkpt>
      <trkpt lat="45.98943" lon="3.97253">
        <ele>391</ele>
        <time>2024-12-08T07:01:13.620Z</time>
      </trkpt>
      <trkpt lat="45.98945" lon="3.97254">
        <ele>390</ele>
        <time>2024-12-08T07:01:14.619Z</time>
      </trkpt>
      <trkpt lat="45.98947" lon="3.97255">
        <ele>390</ele>
        <time>2024-12-08T07:01:15.619Z</time>
      </trkpt>
      <trkpt lat="45.98949" lon="3.97257">
        <ele>390</ele>
        <time>2024-12-08T07:01:16.619Z</time>
      </trkpt>
      <trkpt lat="45.98951" lon="3.97258">
        <ele>390</ele>
        <time>2024-12-08T07:01:17.619Z</time>
      </trkpt>
      <trkpt lat="45.98952" lon="3.97259">
        <ele>390</ele>
        <time>2024-12-08T07:01:18.619Z</time>
      </trkpt>
      <trkpt lat="45.98954" lon="3.97261">
        <ele>390</ele>
        <time>2024-12-08T07:01:19.619Z</time>
      </trkpt>
      <trkpt lat="45.98955" lon="3.97262">
        <ele>390</ele>
        <time>2024-12-08T07:01:20.620Z</time>
      </trkpt>
      <trkpt lat="45.98957" lon="3.97263">
        <ele>390</ele>
        <time>2024-12-08T07:01:21.620Z</time>
      </trkpt>
      <trkpt lat="45.98959" lon="3.97265">
        <ele>390</ele>
        <time>2024-12-08T07:01:22.619Z</time>
      </trkpt>
      <trkpt lat="45.9896" lon="3.97266">
        <ele>390</ele>
        <time>2024-12-08T07:01:23.619Z</time>
      </trkpt>
      <trkpt lat="45.98963" lon="3.97267">
        <ele>390</ele>
        <time>2024-12-08T07:01:24.620Z</time>
      </trkpt>
      <trkpt lat="45.98964" lon="3.97269">
        <ele>390</ele>
        <time>2024-12-08T07:01:25.619Z</time>
      </trkpt>
      <trkpt lat="45.98966" lon="3.9727">
        <ele>390</ele>
        <time>2024-12-08T07:01:26.619Z</time>
      </trkpt>
      <trkpt lat="45.98967" lon="3.97271">
        <ele>390</ele>
        <time>2024-12-08T07:01:27.619Z</time>
      </trkpt>
      <trkpt lat="45.98969" lon="3.97273">
        <ele>391</ele>
        <time>2024-12-08T07:01:28.619Z</time>
      </trkpt>
      <trkpt lat="45.98971" lon="3.97274">
        <ele>390</ele>
        <time>2024-12-08T07:01:29.620Z</time>
      </trkpt>
      <trkpt lat="45.98973" lon="3.97275">
        <ele>390</ele>
        <time>2024-12-08T07:01:30.619Z</time>
      </trkpt>
      <trkpt lat="45.98974" lon="3.97276">
        <ele>390</ele>
        <time>2024-12-08T07:01:31.619Z</time>
      </trkpt>
      <trkpt lat="45.98976" lon="3.97277">
        <ele>390</ele>
        <time>2024-12-08T07:01:32.620Z</time>
      </trkpt>
      <trkpt lat="45.98978" lon="3.97279">
        <ele>391</ele>
        <time>2024-12-08T07:01:33.619Z</time>
      </trkpt>
      <trkpt lat="45.9898" lon="3.9728">
        <ele>391</ele>
        <time>2024-12-08T07:01:34.620Z</time>
      </trkpt>
      <trkpt lat="45.98981" lon="3.97281">
        <ele>391</ele>
        <time>2024-12-08T07:01:35.620Z</time>
      </trkpt>
      <trkpt lat="45.98983" lon="3.97282">
        <ele>392</ele>
        <time>2024-12-08T07:01:36.620Z</time>
      </trkpt>
      <trkpt lat="45.98985" lon="3.97283">
        <ele>392</ele>
        <time>2024-12-08T07:01:37.619Z</time>
      </trkpt>
      <trkpt lat="45.98987" lon="3.97285">
        <ele>392</ele>
        <time>2024-12-08T07:01:38.620Z</time>
      </trkpt>
      <trkpt lat="45.98988" lon="3.97286">
        <ele>391</ele>
        <time>2024-12-08T07:01:39.619Z</time>
      </trkpt>
      <trkpt lat="45.98989" lon="3.97287">
        <ele>391</ele>
        <time>2024-12-08T07:01:40.620Z</time>
      </trkpt>
      <trkpt lat="45.98992" lon="3.97289">
        <ele>391</ele>
        <time>2024-12-08T07:01:41.620Z</time>
      </trkpt>
      <trkpt lat="45.98993" lon="3.9729">
        <ele>390</ele>
        <time>2024-12-08T07:01:42.619Z</time>
      </trkpt>
      <trkpt lat="45.98995" lon="3.97292">
        <ele>390</ele>
        <time>2024-12-08T07:01:43.620Z</time>
      </trkpt>
      <trkpt lat="45.98997" lon="3.97293">
        <ele>390</ele>
        <time>2024-12-08T07:01:44.619Z</time>
      </trkpt>
      <trkpt lat="45.98998" lon="3.97294">
        <ele>390</ele>
        <time>2024-12-08T07:01:45.619Z</time>
      </trkpt>
      <trkpt lat="45.99" lon="3.97296">
        <ele>390</ele>
        <time>2024-12-08T07:01:46.619Z</time>
      </trkpt>
      <trkpt lat="45.99002" lon="3.97297">
        <ele>390</ele>
        <time>2024-12-08T07:01:47.620Z</time>
      </trkpt>
      <trkpt lat="45.99004" lon="3.97299">
        <ele>390</ele>
        <time>2024-12-08T07:01:48.619Z</time>
      </trkpt>
      <trkpt lat="45.99005" lon="3.973">
        <ele>390</ele>
        <time>2024-12-08T07:01:49.620Z</time>
      </trkpt>
      <trkpt lat="45.99007" lon="3.97301">
        <ele>389</ele>
        <time>2024-12-08T07:01:50.619Z</time>
      </trkpt>
      <trkpt lat="45.99009" lon="3.97303">
        <ele>389</ele>
        <time>2024-12-08T07:01:51.620Z</time>
      </trkpt>
      <trkpt lat="45.99011" lon="3.97304">
        <ele>389</ele>
        <time>2024-12-08T07:01:52.620Z</time>
      </trkpt>
      <trkpt lat="45.99013" lon="3.97305">
        <ele>389</ele>
        <time>2024-12-08T07:01:53.619Z</time>
      </trkpt>
      <trkpt lat="45.99015" lon="3.97306">
        <ele>389</ele>
        <time>2024-12-08T07:01:54.619Z</time>
      </trkpt>
      <trkpt lat="45.99017" lon="3.97307">
        <ele>389</ele>
        <time>2024-12-08T07:01:55.619Z</time>
      </trkpt>
      <trkpt lat="45.99019" lon="3.97308">
        <ele>389</ele>
        <time>2024-12-08T07:01:56.620Z</time>
      </trkpt>
      <trkpt lat="45.9902" lon="3.97309">
        <ele>389</ele>
        <time>2024-12-08T07:01:57.619Z</time>
      </trkpt>
      <trkpt lat="45.99022" lon="3.9731">
        <ele>389</ele>
        <time>2024-12-08T07:01:58.620Z</time>
      </trkpt>
      <trkpt lat="45.99024" lon="3.97311">
        <ele>389</ele>
        <time>2024-12-08T07:01:59.620Z</time>
      </trkpt>
      <trkpt lat="45.99026" lon="3.97312">
        <ele>389</ele>
        <time>2024-12-08T07:02:00.619Z</time>
      </trkpt>
      <trkpt lat="45.99028" lon="3.97314">
        <ele>389</ele>
        <time>2024-12-08T07:02:01.620Z</time>
      </trkpt>
      <trkpt lat="45.9903" lon="3.97314">
        <ele>390</ele>
        <time>2024-12-08T07:02:02.619Z</time>
      </trkpt>
      <trkpt lat="45.99031" lon="3.97315">
        <ele>390</ele>
        <time>2024-12-08T07:02:03.619Z</time>
      </trkpt>
      <trkpt lat="45.99033" lon="3.97317">
        <ele>390</ele>
        <time>2024-12-08T07:02:04.619Z</time>
      </trkpt>
      <trkpt lat="45.99035" lon="3.97318">
        <ele>390</ele>
        <time>2024-12-08T07:02:05.619Z</time>
      </trkpt>
      <trkpt lat="45.99037" lon="3.97319">
        <ele>390</ele>
        <time>2024-12-08T07:02:06.619Z</time>
      </trkpt>
      <trkpt lat="45.99038" lon="3.9732">
        <ele>390</ele>
        <time>2024-12-08T07:02:07.620Z</time>
      </trkpt>
      <trkpt lat="45.99041" lon="3.97321">
        <ele>390</ele>
        <time>2024-12-08T07:02:08.620Z</time>
      </trkpt>
      <trkpt lat="45.99042" lon="3.97322">
        <ele>390</ele>
        <time>2024-12-08T07:02:09.620Z</time>
      </trkpt>
      <trkpt lat="45.99045" lon="3.97323">
        <ele>390</ele>
        <time>2024-12-08T07:02:10.619Z</time>
      </trkpt>
      <trkpt lat="45.99046" lon="3.97324">
        <ele>390</ele>
        <time>2024-12-08T07:02:11.619Z</time>
      </trkpt>
      <trkpt lat="45.99048" lon="3.97325">
        <ele>390</ele>
        <time>2024-12-08T07:02:12.620Z</time>
      </trkpt>
      <trkpt lat="45.99051" lon="3.97326">
        <ele>390</ele>
        <time>2024-12-08T07:02:13.620Z</time>
      </trkpt>
      <trkpt lat="45.99053" lon="3.97327">
        <ele>391</ele>
        <time>2024-12-08T07:02:14.619Z</time>
      </trkpt>
      <trkpt lat="45.99055" lon="3.97328">
        <ele>391</ele>
        <time>2024-12-08T07:02:15.619Z</time>
      </trkpt>
      <trkpt lat="45.99056" lon="3.97329">
        <ele>391</ele>
        <time>2024-12-08T07:02:16.619Z</time>
      </trkpt>
      <trkpt lat="45.99059" lon="3.9733">
        <ele>391</ele>
        <time>2024-12-08T07:02:17.619Z</time>
      </trkpt>
      <trkpt lat="45.99061" lon="3.97331">
        <ele>391</ele>
        <time>2024-12-08T07:02:18.620Z</time>
      </trkpt>
      <trkpt lat="45.99062" lon="3.97332">
        <ele>391</ele>
        <time>2024-12-08T07:02:19.620Z</time>
      </trkpt>
      <trkpt lat="45.99064" lon="3.97333">
        <ele>391</ele>
        <time>2024-12-08T07:02:20.620Z</time>
      </trkpt>
      <trkpt lat="45.99066" lon="3.97334">
        <ele>391</ele>
        <time>2024-12-08T07:02:21.620Z</time>
      </trkpt>
      <trkpt lat="45.99068" lon="3.97335">
        <ele>391</ele>
        <time>2024-12-08T07:02:22.619Z</time>
      </trkpt>
      <trkpt lat="45.99069" lon="3.97336">
        <ele>391</ele>
        <time>2024-12-08T07:02:23.620Z</time>
      </trkpt>
      <trkpt lat="45.99071" lon="3.97337">
        <ele>391</ele>
        <time>2024-12-08T07:02:24.620Z</time>
      </trkpt>
      <trkpt lat="45.99073" lon="3.97338">
        <ele>391</ele>
        <time>2024-12-08T07:02:25.620Z</time>
      </trkpt>
      <trkpt lat="45.99075" lon="3.97339">
        <ele>391</ele>
        <time>2024-12-08T07:02:26.620Z</time>
      </trkpt>
      <trkpt lat="45.99077" lon="3.9734">
        <ele>391</ele>
        <time>2024-12-08T07:02:27.619Z</time>
      </trkpt>
      <trkpt lat="45.99079" lon="3.97341">
        <ele>391</ele>
        <time>2024-12-08T07:02:28.620Z</time>
      </trkpt>
      <trkpt lat="45.9908" lon="3.97342">
        <ele>391</ele>
        <time>2024-12-08T07:02:29.619Z</time>
      </trkpt>
      <trkpt lat="45.99082" lon="3.97343">
        <ele>391</ele>
        <time>2024-12-08T07:02:30.619Z</time>
      </trkpt>
      <trkpt lat="45.99084" lon="3.97344">
        <ele>391</ele>
        <time>2024-12-08T07:02:31.619Z</time>
      </trkpt>
      <trkpt lat="45.99086" lon="3.97346">
        <ele>390</ele>
        <time>2024-12-08T07:02:32.620Z</time>
      </trkpt>
      <trkpt lat="45.99088" lon="3.97347">
        <ele>390</ele>
        <time>2024-12-08T07:02:33.619Z</time>
      </trkpt>
      <trkpt lat="45.9909" lon="3.97348">
        <ele>390</ele>
        <time>2024-12-08T07:02:34.619Z</time>
      </trkpt>
      <trkpt lat="45.99092" lon="3.97349">
        <ele>390</ele>
        <time>2024-12-08T07:02:35.619Z</time>
      </trkpt>
      <trkpt lat="45.99094" lon="3.9735">
        <ele>390</ele>
        <time>2024-12-08T07:02:36.619Z</time>
      </trkpt>
      <trkpt lat="45.99096" lon="3.97351">
        <ele>390</ele>
        <time>2024-12-08T07:02:37.620Z</time>
      </trkpt>
      <trkpt lat="45.99097" lon="3.97352">
        <ele>390</ele>
        <time>2024-12-08T07:02:38.620Z</time>
      </trkpt>
      <trkpt lat="45.99099" lon="3.97353">
        <ele>390</ele>
        <time>2024-12-08T07:02:39.619Z</time>
      </trkpt>
      <trkpt lat="45.99101" lon="3.97354">
        <ele>390</ele>
        <time>2024-12-08T07:02:40.620Z</time>
      </trkpt>
      <trkpt lat="45.99103" lon="3.97356">
        <ele>390</ele>
        <time>2024-12-08T07:02:41.619Z</time>
      </trkpt>
      <trkpt lat="45.99104" lon="3.97357">
        <ele>390</ele>
        <time>2024-12-08T07:02:42.620Z</time>
      </trkpt>
      <trkpt lat="45.99106" lon="3.97357">
        <ele>390</ele>
        <time>2024-12-08T07:02:43.619Z</time>
      </trkpt>
      <trkpt lat="45.99108" lon="3.97359">
        <ele>390</ele>
        <time>2024-12-08T07:02:44.620Z</time>
      </trkpt>
      <trkpt lat="45.9911" lon="3.9736">
        <ele>390</ele>
        <time>2024-12-08T07:02:45.619Z</time>
      </trkpt>
      <trkpt lat="45.99112" lon="3.97361">
        <ele>390</ele>
        <time>2024-12-08T07:02:46.620Z</time>
      </trkpt>
      <trkpt lat="45.99114" lon="3.97362">
        <ele>391</ele>
        <time>2024-12-08T07:02:47.619Z</time>
      </trkpt>
      <trkpt lat="45.99116" lon="3.97363">
        <ele>391</ele>
        <time>2024-12-08T07:02:48.620Z</time>
      </trkpt>
      <trkpt lat="45.99117" lon="3.97364">
        <ele>391</ele>
        <time>2024-12-08T07:02:49.620Z</time>
      </trkpt>
      <trkpt lat="45.99119" lon="3.97365">
        <ele>391</ele>
        <time>2024-12-08T07:02:50.619Z</time>
      </trkpt>
      <trkpt lat="45.99121" lon="3.97366">
        <ele>391</ele>
        <time>2024-12-08T07:02:51.619Z</time>
      </trkpt>
      <trkpt lat="45.99123" lon="3.97367">
        <ele>391</ele>
        <time>2024-12-08T07:02:52.620Z</time>
      </trkpt>
      <trkpt lat="45.99125" lon="3.97368">
        <ele>391</ele>
        <time>2024-12-08T07:02:53.619Z</time>
      </trkpt>
      <trkpt lat="45.99127" lon="3.97369">
        <ele>391</ele>
        <time>2024-12-08T07:02:54.619Z</time>
      </trkpt>
      <trkpt lat="45.99128" lon="3.9737">
        <ele>391</ele>
        <time>2024-12-08T07:02:55.619Z</time>
      </trkpt>
      <trkpt lat="45.9913" lon="3.97371">
        <ele>391</ele>
        <time>2024-12-08T07:02:56.619Z</time>
      </trkpt>
      <trkpt lat="45.99132" lon="3.97372">
        <ele>390</ele>
        <time>2024-12-08T07:02:57.619Z</time>
      </trkpt>
      <trkpt lat="45.99134" lon="3.97373">
        <ele>390</ele>
        <time>2024-12-08T07:02:58.619Z</time>
      </trkpt>
      <trkpt lat="45.99136" lon="3.97374">
        <ele>390</ele>
        <time>2024-12-08T07:02:59.619Z</time>
      </trkpt>
      <trkpt lat="45.99137" lon="3.97375">
        <ele>390</ele>
        <time>2024-12-08T07:03:00.619Z</time>
      </trkpt>
      <trkpt lat="45.99139" lon="3.97376">
        <ele>390</ele>
        <time>2024-12-08T07:03:01.619Z</time>
      </trkpt>
      <trkpt lat="45.99141" lon="3.97377">
        <ele>390</ele>
        <time>2024-12-08T07:03:02.619Z</time>
      </trkpt>
      <trkpt lat="45.99142" lon="3.97379">
        <ele>390</ele>
        <time>2024-12-08T07:03:03.619Z</time>
      </trkpt>
      <trkpt lat="45.99144" lon="3.9738">
        <ele>391</ele>
        <time>2024-12-08T07:03:04.619Z</time>
      </trkpt>
      <trkpt lat="45.99146" lon="3.97381">
        <ele>391</ele>
        <time>2024-12-08T07:03:05.619Z</time>
      </trkpt>
      <trkpt lat="45.99148" lon="3.97382">
        <ele>390</ele>
        <time>2024-12-08T07:03:06.620Z</time>
      </trkpt>
      <trkpt lat="45.9915" lon="3.97383">
        <ele>390</ele>
        <time>2024-12-08T07:03:07.619Z</time>
      </trkpt>
      <trkpt lat="45.99151" lon="3.97384">
        <ele>390</ele>
        <time>2024-12-08T07:03:08.619Z</time>
      </trkpt>
      <trkpt lat="45.99153" lon="3.97385">
        <ele>390</ele>
        <time>2024-12-08T07:03:09.619Z</time>
      </trkpt>
      <trkpt lat="45.99155" lon="3.97386">
        <ele>390</ele>
        <time>2024-12-08T07:03:10.619Z</time>
      </trkpt>
      <trkpt lat="45.99157" lon="3.97388">
        <ele>390</ele>
        <time>2024-12-08T07:03:11.619Z</time>
      </trkpt>
      <trkpt lat="45.99159" lon="3.97389">
        <ele>390</ele>
        <time>2024-12-08T07:03:12.619Z</time>
      </trkpt>
      <trkpt lat="45.99161" lon="3.9739">
        <ele>390</ele>
        <time>2024-12-08T07:03:13.619Z</time>
      </trkpt>
      <trkpt lat="45.99162" lon="3.97391">
        <ele>390</ele>
        <time>2024-12-08T07:03:14.619Z</time>
      </trkpt>
      <trkpt lat="45.99164" lon="3.97392">
        <ele>390</ele>
        <time>2024-12-08T07:03:15.619Z</time>
      </trkpt>
      <trkpt lat="45.99166" lon="3.97393">
        <ele>389</ele>
        <time>2024-12-08T07:03:16.620Z</time>
      </trkpt>
      <trkpt lat="45.99168" lon="3.97394">
        <ele>389</ele>
        <time>2024-12-08T07:03:17.620Z</time>
      </trkpt>
      <trkpt lat="45.9917" lon="3.97394">
        <ele>389</ele>
        <time>2024-12-08T07:03:18.619Z</time>
      </trkpt>
      <trkpt lat="45.99172" lon="3.97396">
        <ele>390</ele>
        <time>2024-12-08T07:03:19.619Z</time>
      </trkpt>
      <trkpt lat="45.99174" lon="3.97397">
        <ele>389</ele>
        <time>2024-12-08T07:03:20.620Z</time>
      </trkpt>
      <trkpt lat="45.99175" lon="3.97398">
        <ele>389</ele>
        <time>2024-12-08T07:03:21.619Z</time>
      </trkpt>
      <trkpt lat="45.99177" lon="3.97399">
        <ele>390</ele>
        <time>2024-12-08T07:03:22.620Z</time>
      </trkpt>
      <trkpt lat="45.99179" lon="3.974">
        <ele>390</ele>
        <time>2024-12-08T07:03:23.619Z</time>
      </trkpt>
      <trkpt lat="45.9918" lon="3.97401">
        <ele>390</ele>
        <time>2024-12-08T07:03:24.619Z</time>
      </trkpt>
      <trkpt lat="45.99183" lon="3.97402">
        <ele>391</ele>
        <time>2024-12-08T07:03:25.620Z</time>
      </trkpt>
      <trkpt lat="45.99185" lon="3.97403">
        <ele>391</ele>
        <time>2024-12-08T07:03:26.619Z</time>
      </trkpt>
      <trkpt lat="45.99187" lon="3.97404">
        <ele>391</ele>
        <time>2024-12-08T07:03:27.620Z</time>
      </trkpt>
      <trkpt lat="45.99188" lon="3.97405">
        <ele>391</ele>
        <time>2024-12-08T07:03:28.620Z</time>
      </trkpt>
      <trkpt lat="45.9919" lon="3.97406">
        <ele>391</ele>
        <time>2024-12-08T07:03:29.619Z</time>
      </trkpt>
      <trkpt lat="45.99192" lon="3.97407">
        <ele>391</ele>
        <time>2024-12-08T07:03:30.619Z</time>
      </trkpt>
      <trkpt lat="45.99194" lon="3.97408">
        <ele>391</ele>
        <time>2024-12-08T07:03:31.619Z</time>
      </trkpt>
      <trkpt lat="45.99196" lon="3.97408">
        <ele>391</ele>
        <time>2024-12-08T07:03:32.619Z</time>
      </trkpt>
      <trkpt lat="45.99198" lon="3.97409">
        <ele>390</ele>
        <time>2024-12-08T07:03:33.619Z</time>
      </trkpt>
      <trkpt lat="45.992" lon="3.9741">
        <ele>390</ele>
        <time>2024-12-08T07:03:34.619Z</time>
      </trkpt>
      <trkpt lat="45.99201" lon="3.97411">
        <ele>390</ele>
        <time>2024-12-08T07:03:35.619Z</time>
      </trkpt>
      <trkpt lat="45.99203" lon="3.97411">
        <ele>390</ele>
        <time>2024-12-08T07:03:36.619Z</time>
      </trkpt>
      <trkpt lat="45.99205" lon="3.97412">
        <ele>390</ele>
        <time>2024-12-08T07:03:37.619Z</time>
      </trkpt>
      <trkpt lat="45.99207" lon="3.97413">
        <ele>389</ele>
        <time>2024-12-08T07:03:38.619Z</time>
      </trkpt>
      <trkpt lat="45.99209" lon="3.97414">
        <ele>389</ele>
        <time>2024-12-08T07:03:39.619Z</time>
      </trkpt>
      <trkpt lat="45.99211" lon="3.97415">
        <ele>389</ele>
        <time>2024-12-08T07:03:40.620Z</time>
      </trkpt>
      <trkpt lat="45.99212" lon="3.97415">
        <ele>389</ele>
        <time>2024-12-08T07:03:41.619Z</time>
      </trkpt>
      <trkpt lat="45.99214" lon="3.97416">
        <ele>389</ele>
        <time>2024-12-08T07:03:42.619Z</time>
      </trkpt>
      <trkpt lat="45.99216" lon="3.97417">
        <ele>389</ele>
        <time>2024-12-08T07:03:43.620Z</time>
      </trkpt>
      <trkpt lat="45.99218" lon="3.97417">
        <ele>389</ele>
        <time>2024-12-08T07:03:44.620Z</time>
      </trkpt>
      <trkpt lat="45.99219" lon="3.97418">
        <ele>389</ele>
        <time>2024-12-08T07:03:45.619Z</time>
      </trkpt>
      <trkpt lat="45.99222" lon="3.97419">
        <ele>388</ele>
        <time>2024-12-08T07:03:46.620Z</time>
      </trkpt>
      <trkpt lat="45.99223" lon="3.97419">
        <ele>388</ele>
        <time>2024-12-08T07:03:47.619Z</time>
      </trkpt>
      <trkpt lat="45.99225" lon="3.9742">
        <ele>388</ele>
        <time>2024-12-08T07:03:48.619Z</time>
      </trkpt>
      <trkpt lat="45.99227" lon="3.9742">
        <ele>388</ele>
        <time>2024-12-08T07:03:49.619Z</time>
      </trkpt>
      <trkpt lat="45.99228" lon="3.9742">
        <ele>388</ele>
        <time>2024-12-08T07:03:50.619Z</time>
      </trkpt>
      <trkpt lat="45.9923" lon="3.97421">
        <ele>388</ele>
        <time>2024-12-08T07:03:51.619Z</time>
      </trkpt>
      <trkpt lat="45.99232" lon="3.97421">
        <ele>388</ele>
        <time>2024-12-08T07:03:52.619Z</time>
      </trkpt>
      <trkpt lat="45.99235" lon="3.97422">
        <ele>388</ele>
        <time>2024-12-08T07:03:53.620Z</time>
      </trkpt>
      <trkpt lat="45.99237" lon="3.97423">
        <ele>387</ele>
        <time>2024-12-08T07:03:54.619Z</time>
      </trkpt>
      <trkpt lat="45.99238" lon="3.97423">
        <ele>388</ele>
        <time>2024-12-08T07:03:55.619Z</time>
      </trkpt>
      <trkpt lat="45.9924" lon="3.97424">
        <ele>388</ele>
        <time>2024-12-08T07:03:56.619Z</time>
      </trkpt>
      <trkpt lat="45.99242" lon="3.97425">
        <ele>388</ele>
        <time>2024-12-08T07:03:57.619Z</time>
      </trkpt>
      <trkpt lat="45.99244" lon="3.97426">
        <ele>388</ele>
        <time>2024-12-08T07:03:58.619Z</time>
      </trkpt>
      <trkpt lat="45.99246" lon="3.97427">
        <ele>388</ele>
        <time>2024-12-08T07:03:59.620Z</time>
      </trkpt>
      <trkpt lat="45.99248" lon="3.97428">
        <ele>389</ele>
        <time>2024-12-08T07:04:00.619Z</time>
      </trkpt>
      <trkpt lat="45.9925" lon="3.97428">
        <ele>389</ele>
        <time>2024-12-08T07:04:01.620Z</time>
      </trkpt>
      <trkpt lat="45.99252" lon="3.97429">
        <ele>389</ele>
        <time>2024-12-08T07:04:02.619Z</time>
      </trkpt>
      <trkpt lat="45.99254" lon="3.9743">
        <ele>388</ele>
        <time>2024-12-08T07:04:03.619Z</time>
      </trkpt>
      <trkpt lat="45.99255" lon="3.97431">
        <ele>388</ele>
        <time>2024-12-08T07:04:04.620Z</time>
      </trkpt>
      <trkpt lat="45.99257" lon="3.97432">
        <ele>388</ele>
        <time>2024-12-08T07:04:05.619Z</time>
      </trkpt>
      <trkpt lat="45.99259" lon="3.97433">
        <ele>388</ele>
        <time>2024-12-08T07:04:06.619Z</time>
      </trkpt>
      <trkpt lat="45.99261" lon="3.97435">
        <ele>388</ele>
        <time>2024-12-08T07:04:07.620Z</time>
      </trkpt>
      <trkpt lat="45.99262" lon="3.97436">
        <ele>388</ele>
        <time>2024-12-08T07:04:08.620Z</time>
      </trkpt>
      <trkpt lat="45.99264" lon="3.97437">
        <ele>388</ele>
        <time>2024-12-08T07:04:09.619Z</time>
      </trkpt>
      <trkpt lat="45.99266" lon="3.97439">
        <ele>388</ele>
        <time>2024-12-08T07:04:10.619Z</time>
      </trkpt>
      <trkpt lat="45.99268" lon="3.9744">
        <ele>388</ele>
        <time>2024-12-08T07:04:11.619Z</time>
      </trkpt>
      <trkpt lat="45.99269" lon="3.97442">
        <ele>388</ele>
        <time>2024-12-08T07:04:12.619Z</time>
      </trkpt>
      <trkpt lat="45.99271" lon="3.97443">
        <ele>388</ele>
        <time>2024-12-08T07:04:13.619Z</time>
      </trkpt>
      <trkpt lat="45.99273" lon="3.97445">
        <ele>388</ele>
        <time>2024-12-08T07:04:14.620Z</time>
      </trkpt>
      <trkpt lat="45.99274" lon="3.97447">
        <ele>388</ele>
        <time>2024-12-08T07:04:15.619Z</time>
      </trkpt>
      <trkpt lat="45.99276" lon="3.97449">
        <ele>388</ele>
        <time>2024-12-08T07:04:16.620Z</time>
      </trkpt>
      <trkpt lat="45.99277" lon="3.9745">
        <ele>388</ele>
        <time>2024-12-08T07:04:17.619Z</time>
      </trkpt>
      <trkpt lat="45.99279" lon="3.97452">
        <ele>388</ele>
        <time>2024-12-08T07:04:18.619Z</time>
      </trkpt>
      <trkpt lat="45.9928" lon="3.97454">
        <ele>388</ele>
        <time>2024-12-08T07:04:19.620Z</time>
      </trkpt>
      <trkpt lat="45.99282" lon="3.97456">
        <ele>388</ele>
        <time>2024-12-08T07:04:20.619Z</time>
      </trkpt>
      <trkpt lat="45.99283" lon="3.97457">
        <ele>388</ele>
        <time>2024-12-08T07:04:21.619Z</time>
      </trkpt>
      <trkpt lat="45.99284" lon="3.97459">
        <ele>388</ele>
        <time>2024-12-08T07:04:22.620Z</time>
      </trkpt>
      <trkpt lat="45.99286" lon="3.97461">
        <ele>388</ele>
        <time>2024-12-08T07:04:23.620Z</time>
      </trkpt>
      <trkpt lat="45.99287" lon="3.97463">
        <ele>387</ele>
        <time>2024-12-08T07:04:24.619Z</time>
      </trkpt>
      <trkpt lat="45.99289" lon="3.97464">
        <ele>387</ele>
        <time>2024-12-08T07:04:25.619Z</time>
      </trkpt>
      <trkpt lat="45.9929" lon="3.97466">
        <ele>387</ele>
        <time>2024-12-08T07:04:26.619Z</time>
      </trkpt>
      <trkpt lat="45.99292" lon="3.97468">
        <ele>387</ele>
        <time>2024-12-08T07:04:27.619Z</time>
      </trkpt>
      <trkpt lat="45.99293" lon="3.9747">
        <ele>387</ele>
        <time>2024-12-08T07:04:28.620Z</time>
      </trkpt>
      <trkpt lat="45.99294" lon="3.97472">
        <ele>387</ele>
        <time>2024-12-08T07:04:29.619Z</time>
      </trkpt>
      <trkpt lat="45.99296" lon="3.97474">
        <ele>387</ele>
        <time>2024-12-08T07:04:30.620Z</time>
      </trkpt>
      <trkpt lat="45.99297" lon="3.97475">
        <ele>387</ele>
        <time>2024-12-08T07:04:31.620Z</time>
      </trkpt>
      <trkpt lat="45.99298" lon="3.97477">
        <ele>387</ele>
        <time>2024-12-08T07:04:32.619Z</time>
      </trkpt>
      <trkpt lat="45.993" lon="3.97479">
        <ele>387</ele>
        <time>2024-12-08T07:04:33.620Z</time>
      </trkpt>
      <trkpt lat="45.99301" lon="3.9748">
        <ele>387</ele>
        <time>2024-12-08T07:04:34.619Z</time>
      </trkpt>
      <trkpt lat="45.99303" lon="3.97482">
        <ele>387</ele>
        <time>2024-12-08T07:04:35.620Z</time>
      </trkpt>
      <trkpt lat="45.99304" lon="3.97484">
        <ele>387</ele>
        <time>2024-12-08T07:04:36.619Z</time>
      </trkpt>
      <trkpt lat="45.99306" lon="3.97486">
        <ele>387</ele>
        <time>2024-12-08T07:04:37.620Z</time>
      </trkpt>
      <trkpt lat="45.99307" lon="3.97488">
        <ele>387</ele>
        <time>2024-12-08T07:04:38.620Z</time>
      </trkpt>
      <trkpt lat="45.99309" lon="3.9749">
        <ele>387</ele>
        <time>2024-12-08T07:04:39.620Z</time>
      </trkpt>
      <trkpt lat="45.9931" lon="3.97491">
        <ele>387</ele>
        <time>2024-12-08T07:04:40.619Z</time>
      </trkpt>
      <trkpt lat="45.99311" lon="3.97493">
        <ele>387</ele>
        <time>2024-12-08T07:04:41.620Z</time>
      </trkpt>
      <trkpt lat="45.99313" lon="3.97495">
        <ele>387</ele>
        <time>2024-12-08T07:04:42.620Z</time>
      </trkpt>
      <trkpt lat="45.99314" lon="3.97497">
        <ele>387</ele>
        <time>2024-12-08T07:04:43.619Z</time>
      </trkpt>
      <trkpt lat="45.99315" lon="3.97499">
        <ele>387</ele>
        <time>2024-12-08T07:04:44.620Z</time>
      </trkpt>
      <trkpt lat="45.99317" lon="3.97501">
        <ele>387</ele>
        <time>2024-12-08T07:04:45.619Z</time>
      </trkpt>
      <trkpt lat="45.99319" lon="3.97503">
        <ele>388</ele>
        <time>2024-12-08T07:04:46.619Z</time>
      </trkpt>
      <trkpt lat="45.9932" lon="3.97505">
        <ele>387</ele>
        <time>2024-12-08T07:04:47.619Z</time>
      </trkpt>
      <trkpt lat="45.99321" lon="3.97506">
        <ele>387</ele>
        <time>2024-12-08T07:04:48.620Z</time>
      </trkpt>
      <trkpt lat="45.99323" lon="3.97509">
        <ele>387</ele>
        <time>2024-12-08T07:04:49.619Z</time>
      </trkpt>
      <trkpt lat="45.99324" lon="3.97511">
        <ele>387</ele>
        <time>2024-12-08T07:04:50.619Z</time>
      </trkpt>
      <trkpt lat="45.99326" lon="3.97512">
        <ele>387</ele>
        <time>2024-12-08T07:04:51.620Z</time>
      </trkpt>
      <trkpt lat="45.99327" lon="3.97514">
        <ele>387</ele>
        <time>2024-12-08T07:04:52.620Z</time>
      </trkpt>
      <trkpt lat="45.99328" lon="3.97516">
        <ele>386</ele>
        <time>2024-12-08T07:04:53.620Z</time>
      </trkpt>
      <trkpt lat="45.9933" lon="3.97518">
        <ele>386</ele>
        <time>2024-12-08T07:04:54.619Z</time>
      </trkpt>
      <trkpt lat="45.99332" lon="3.9752">
        <ele>386</ele>
        <time>2024-12-08T07:04:55.619Z</time>
      </trkpt>
      <trkpt lat="45.99333" lon="3.97522">
        <ele>385</ele>
        <time>2024-12-08T07:04:56.620Z</time>
      </trkpt>
      <trkpt lat="45.99335" lon="3.97524">
        <ele>385</ele>
        <time>2024-12-08T07:04:57.619Z</time>
      </trkpt>
      <trkpt lat="45.99336" lon="3.97526">
        <ele>385</ele>
        <time>2024-12-08T07:04:58.620Z</time>
      </trkpt>
      <trkpt lat="45.99338" lon="3.97528">
        <ele>385</ele>
        <time>2024-12-08T07:04:59.620Z</time>
      </trkpt>
      <trkpt lat="45.99339" lon="3.9753">
        <ele>385</ele>
        <time>2024-12-08T07:05:00.619Z</time>
      </trkpt>
      <trkpt lat="45.99341" lon="3.97532">
        <ele>385</ele>
        <time>2024-12-08T07:05:01.619Z</time>
      </trkpt>
      <trkpt lat="45.99342" lon="3.97534">
        <ele>385</ele>
        <time>2024-12-08T07:05:02.620Z</time>
      </trkpt>
      <trkpt lat="45.99344" lon="3.97536">
        <ele>385</ele>
        <time>2024-12-08T07:05:03.620Z</time>
      </trkpt>
      <trkpt lat="45.99345" lon="3.97538">
        <ele>385</ele>
        <time>2024-12-08T07:05:04.619Z</time>
      </trkpt>
      <trkpt lat="45.99346" lon="3.9754">
        <ele>385</ele>
        <time>2024-12-08T07:05:05.619Z</time>
      </trkpt>
      <trkpt lat="45.99347" lon="3.97542">
        <ele>385</ele>
        <time>2024-12-08T07:05:06.619Z</time>
      </trkpt>
      <trkpt lat="45.99349" lon="3.97544">
        <ele>385</ele>
        <time>2024-12-08T07:05:07.620Z</time>
      </trkpt>
      <trkpt lat="45.9935" lon="3.97546">
        <ele>385</ele>
        <time>2024-12-08T07:05:08.620Z</time>
      </trkpt>
      <trkpt lat="45.99352" lon="3.97548">
        <ele>384</ele>
        <time>2024-12-08T07:05:09.620Z</time>
      </trkpt>
      <trkpt lat="45.99354" lon="3.9755">
        <ele>384</ele>
        <time>2024-12-08T07:05:10.620Z</time>
      </trkpt>
      <trkpt lat="45.99355" lon="3.97552">
        <ele>384</ele>
        <time>2024-12-08T07:05:11.619Z</time>
      </trkpt>
      <trkpt lat="45.99357" lon="3.97554">
        <ele>385</ele>
        <time>2024-12-08T07:05:12.620Z</time>
      </trkpt>
      <trkpt lat="45.99358" lon="3.97557">
        <ele>385</ele>
        <time>2024-12-08T07:05:13.620Z</time>
      </trkpt>
      <trkpt lat="45.9936" lon="3.97558">
        <ele>385</ele>
        <time>2024-12-08T07:05:14.619Z</time>
      </trkpt>
      <trkpt lat="45.99361" lon="3.97561">
        <ele>385</ele>
        <time>2024-12-08T07:05:15.619Z</time>
      </trkpt>
      <trkpt lat="45.99362" lon="3.97562">
        <ele>386</ele>
        <time>2024-12-08T07:05:16.619Z</time>
      </trkpt>
      <trkpt lat="45.99364" lon="3.97565">
        <ele>386</ele>
        <time>2024-12-08T07:05:17.619Z</time>
      </trkpt>
      <trkpt lat="45.99365" lon="3.97567">
        <ele>386</ele>
        <time>2024-12-08T07:05:18.620Z</time>
      </trkpt>
      <trkpt lat="45.99367" lon="3.97569">
        <ele>387</ele>
        <time>2024-12-08T07:05:19.620Z</time>
      </trkpt>
      <trkpt lat="45.99368" lon="3.97571">
        <ele>387</ele>
        <time>2024-12-08T07:05:20.620Z</time>
      </trkpt>
      <trkpt lat="45.9937" lon="3.97573">
        <ele>387</ele>
        <time>2024-12-08T07:05:21.620Z</time>
      </trkpt>
      <trkpt lat="45.99371" lon="3.97575">
        <ele>387</ele>
        <time>2024-12-08T07:05:22.619Z</time>
      </trkpt>
      <trkpt lat="45.99372" lon="3.97576">
        <ele>387</ele>
        <time>2024-12-08T07:05:23.620Z</time>
      </trkpt>
      <trkpt lat="45.99374" lon="3.97578">
        <ele>388</ele>
        <time>2024-12-08T07:05:24.619Z</time>
      </trkpt>
      <trkpt lat="45.99376" lon="3.9758">
        <ele>387</ele>
        <time>2024-12-08T07:05:25.619Z</time>
      </trkpt>
      <trkpt lat="45.99377" lon="3.97582">
        <ele>387</ele>
        <time>2024-12-08T07:05:26.619Z</time>
      </trkpt>
      <trkpt lat="45.99379" lon="3.97584">
        <ele>387</ele>
        <time>2024-12-08T07:05:27.620Z</time>
      </trkpt>
      <trkpt lat="45.9938" lon="3.97585">
        <ele>387</ele>
        <time>2024-12-08T07:05:28.619Z</time>
      </trkpt>
      <trkpt lat="45.99382" lon="3.97588">
        <ele>386</ele>
        <time>2024-12-08T07:05:29.620Z</time>
      </trkpt>
      <trkpt lat="45.99384" lon="3.97589">
        <ele>386</ele>
        <time>2024-12-08T07:05:30.619Z</time>
      </trkpt>
      <trkpt lat="45.99386" lon="3.97591">
        <ele>386</ele>
        <time>2024-12-08T07:05:31.619Z</time>
      </trkpt>
      <trkpt lat="45.99387" lon="3.97593">
        <ele>386</ele>
        <time>2024-12-08T07:05:32.620Z</time>
      </trkpt>
      <trkpt lat="45.99389" lon="3.97595">
        <ele>386</ele>
        <time>2024-12-08T07:05:33.619Z</time>
      </trkpt>
      <trkpt lat="45.9939" lon="3.97597">
        <ele>385</ele>
        <time>2024-12-08T07:05:34.620Z</time>
      </trkpt>
      <trkpt lat="45.99392" lon="3.97598">
        <ele>385</ele>
        <time>2024-12-08T07:05:35.620Z</time>
      </trkpt>
      <trkpt lat="45.99393" lon="3.976">
        <ele>385</ele>
        <time>2024-12-08T07:05:36.620Z</time>
      </trkpt>
      <trkpt lat="45.99395" lon="3.97602">
        <ele>384</ele>
        <time>2024-12-08T07:05:37.619Z</time>
      </trkpt>
      <trkpt lat="45.99396" lon="3.97604">
        <ele>384</ele>
        <time>2024-12-08T07:05:38.619Z</time>
      </trkpt>
      <trkpt lat="45.99398" lon="3.97606">
        <ele>385</ele>
        <time>2024-12-08T07:05:39.619Z</time>
      </trkpt>
      <trkpt lat="45.994" lon="3.97608">
        <ele>385</ele>
        <time>2024-12-08T07:05:40.620Z</time>
      </trkpt>
      <trkpt lat="45.99401" lon="3.97609">
        <ele>385</ele>
        <time>2024-12-08T07:05:41.620Z</time>
      </trkpt>
      <trkpt lat="45.99402" lon="3.97611">
        <ele>386</ele>
        <time>2024-12-08T07:05:42.620Z</time>
      </trkpt>
      <trkpt lat="45.99404" lon="3.97613">
        <ele>386</ele>
        <time>2024-12-08T07:05:43.619Z</time>
      </trkpt>
      <trkpt lat="45.99406" lon="3.97615">
        <ele>386</ele>
        <time>2024-12-08T07:05:44.619Z</time>
      </trkpt>
      <trkpt lat="45.99407" lon="3.97617">
        <ele>385</ele>
        <time>2024-12-08T07:05:45.619Z</time>
      </trkpt>
      <trkpt lat="45.99408" lon="3.97618">
        <ele>385</ele>
        <time>2024-12-08T07:05:46.620Z</time>
      </trkpt>
      <trkpt lat="45.9941" lon="3.9762">
        <ele>385</ele>
        <time>2024-12-08T07:05:47.619Z</time>
      </trkpt>
      <trkpt lat="45.99411" lon="3.97622">
        <ele>385</ele>
        <time>2024-12-08T07:05:48.620Z</time>
      </trkpt>
      <trkpt lat="45.99412" lon="3.97624">
        <ele>385</ele>
        <time>2024-12-08T07:05:49.620Z</time>
      </trkpt>
      <trkpt lat="45.99414" lon="3.97625">
        <ele>385</ele>
        <time>2024-12-08T07:05:50.619Z</time>
      </trkpt>
      <trkpt lat="45.99415" lon="3.97627">
        <ele>384</ele>
        <time>2024-12-08T07:05:51.619Z</time>
      </trkpt>
      <trkpt lat="45.99417" lon="3.97629">
        <ele>384</ele>
        <time>2024-12-08T07:05:52.620Z</time>
      </trkpt>
      <trkpt lat="45.99418" lon="3.97631">
        <ele>384</ele>
        <time>2024-12-08T07:05:53.619Z</time>
      </trkpt>
      <trkpt lat="45.9942" lon="3.97632">
        <ele>384</ele>
        <time>2024-12-08T07:05:54.619Z</time>
      </trkpt>
      <trkpt lat="45.99421" lon="3.97634">
        <ele>384</ele>
        <time>2024-12-08T07:05:55.620Z</time>
      </trkpt>
      <trkpt lat="45.99423" lon="3.97636">
        <ele>384</ele>
        <time>2024-12-08T07:05:56.620Z</time>
      </trkpt>
      <trkpt lat="45.99425" lon="3.97638">
        <ele>384</ele>
        <time>2024-12-08T07:05:57.619Z</time>
      </trkpt>
      <trkpt lat="45.99426" lon="3.9764">
        <ele>384</ele>
        <time>2024-12-08T07:05:58.620Z</time>
      </trkpt>
      <trkpt lat="45.99427" lon="3.97641">
        <ele>384</ele>
        <time>2024-12-08T07:05:59.619Z</time>
      </trkpt>
      <trkpt lat="45.99429" lon="3.97643">
        <ele>384</ele>
        <time>2024-12-08T07:06:00.619Z</time>
      </trkpt>
      <trkpt lat="45.9943" lon="3.97645">
        <ele>384</ele>
        <time>2024-12-08T07:06:01.619Z</time>
      </trkpt>
      <trkpt lat="45.99432" lon="3.97647">
        <ele>384</ele>
        <time>2024-12-08T07:06:02.619Z</time>
      </trkpt>
      <trkpt lat="45.99434" lon="3.97649">
        <ele>384</ele>
        <time>2024-12-08T07:06:03.619Z</time>
      </trkpt>
      <trkpt lat="45.99435" lon="3.9765">
        <ele>384</ele>
        <time>2024-12-08T07:06:04.619Z</time>
      </trkpt>
      <trkpt lat="45.99437" lon="3.97652">
        <ele>384</ele>
        <time>2024-12-08T07:06:05.620Z</time>
      </trkpt>
      <trkpt lat="45.99438" lon="3.97654">
        <ele>383</ele>
        <time>2024-12-08T07:06:06.619Z</time>
      </trkpt>
      <trkpt lat="45.9944" lon="3.97656">
        <ele>383</ele>
        <time>2024-12-08T07:06:07.620Z</time>
      </trkpt>
      <trkpt lat="45.99441" lon="3.97658">
        <ele>383</ele>
        <time>2024-12-08T07:06:08.620Z</time>
      </trkpt>
      <trkpt lat="45.99442" lon="3.97659">
        <ele>383</ele>
        <time>2024-12-08T07:06:09.620Z</time>
      </trkpt>
      <trkpt lat="45.99444" lon="3.97661">
        <ele>382</ele>
        <time>2024-12-08T07:06:10.619Z</time>
      </trkpt>
      <trkpt lat="45.99446" lon="3.97663">
        <ele>382</ele>
        <time>2024-12-08T07:06:11.619Z</time>
      </trkpt>
      <trkpt lat="45.99447" lon="3.97665">
        <ele>382</ele>
        <time>2024-12-08T07:06:12.619Z</time>
      </trkpt>
      <trkpt lat="45.99448" lon="3.97666">
        <ele>382</ele>
        <time>2024-12-08T07:06:13.620Z</time>
      </trkpt>
      <trkpt lat="45.9945" lon="3.97669">
        <ele>382</ele>
        <time>2024-12-08T07:06:14.620Z</time>
      </trkpt>
      <trkpt lat="45.99451" lon="3.9767">
        <ele>381</ele>
        <time>2024-12-08T07:06:15.619Z</time>
      </trkpt>
      <trkpt lat="45.99452" lon="3.97672">
        <ele>381</ele>
        <time>2024-12-08T07:06:16.620Z</time>
      </trkpt>
      <trkpt lat="45.99453" lon="3.97673">
        <ele>381</ele>
        <time>2024-12-08T07:06:17.620Z</time>
      </trkpt>
      <trkpt lat="45.99455" lon="3.97675">
        <ele>381</ele>
        <time>2024-12-08T07:06:18.620Z</time>
      </trkpt>
      <trkpt lat="45.99456" lon="3.97678">
        <ele>381</ele>
        <time>2024-12-08T07:06:19.619Z</time>
      </trkpt>
      <trkpt lat="45.99457" lon="3.9768">
        <ele>381</ele>
        <time>2024-12-08T07:06:20.620Z</time>
      </trkpt>
      <trkpt lat="45.99459" lon="3.97681">
        <ele>381</ele>
        <time>2024-12-08T07:06:21.619Z</time>
      </trkpt>
      <trkpt lat="45.9946" lon="3.97683">
        <ele>382</ele>
        <time>2024-12-08T07:06:22.620Z</time>
      </trkpt>
      <trkpt lat="45.99462" lon="3.97685">
        <ele>382</ele>
        <time>2024-12-08T07:06:23.619Z</time>
      </trkpt>
      <trkpt lat="45.99464" lon="3.97687">
        <ele>382</ele>
        <time>2024-12-08T07:06:24.619Z</time>
      </trkpt>
      <trkpt lat="45.99466" lon="3.97689">
        <ele>382</ele>
        <time>2024-12-08T07:06:25.619Z</time>
      </trkpt>
      <trkpt lat="45.99467" lon="3.97691">
        <ele>381</ele>
        <time>2024-12-08T07:06:26.619Z</time>
      </trkpt>
      <trkpt lat="45.99469" lon="3.97692">
        <ele>381</ele>
        <time>2024-12-08T07:06:27.620Z</time>
      </trkpt>
      <trkpt lat="45.9947" lon="3.97694">
        <ele>381</ele>
        <time>2024-12-08T07:06:28.620Z</time>
      </trkpt>
      <trkpt lat="45.99472" lon="3.97696">
        <ele>381</ele>
        <time>2024-12-08T07:06:29.620Z</time>
      </trkpt>
      <trkpt lat="45.99473" lon="3.97697">
        <ele>381</ele>
        <time>2024-12-08T07:06:30.619Z</time>
      </trkpt>
      <trkpt lat="45.99475" lon="3.97699">
        <ele>382</ele>
        <time>2024-12-08T07:06:31.620Z</time>
      </trkpt>
      <trkpt lat="45.99477" lon="3.97702">
        <ele>382</ele>
        <time>2024-12-08T07:06:32.619Z</time>
      </trkpt>
      <trkpt lat="45.99479" lon="3.97703">
        <ele>382</ele>
        <time>2024-12-08T07:06:33.620Z</time>
      </trkpt>
      <trkpt lat="45.9948" lon="3.97705">
        <ele>382</ele>
        <time>2024-12-08T07:06:34.620Z</time>
      </trkpt>
      <trkpt lat="45.99482" lon="3.97707">
        <ele>382</ele>
        <time>2024-12-08T07:06:35.620Z</time>
      </trkpt>
      <trkpt lat="45.99483" lon="3.97709">
        <ele>382</ele>
        <time>2024-12-08T07:06:36.619Z</time>
      </trkpt>
      <trkpt lat="45.99485" lon="3.97711">
        <ele>382</ele>
        <time>2024-12-08T07:06:37.619Z</time>
      </trkpt>
      <trkpt lat="45.99487" lon="3.97713">
        <ele>382</ele>
        <time>2024-12-08T07:06:38.619Z</time>
      </trkpt>
      <trkpt lat="45.99488" lon="3.97715">
        <ele>382</ele>
        <time>2024-12-08T07:06:39.619Z</time>
      </trkpt>
      <trkpt lat="45.9949" lon="3.97716">
        <ele>381</ele>
        <time>2024-12-08T07:06:40.619Z</time>
      </trkpt>
      <trkpt lat="45.99492" lon="3.97719">
        <ele>382</ele>
        <time>2024-12-08T07:06:41.619Z</time>
      </trkpt>
      <trkpt lat="45.99494" lon="3.97721">
        <ele>382</ele>
        <time>2024-12-08T07:06:42.620Z</time>
      </trkpt>
      <trkpt lat="45.99495" lon="3.97722">
        <ele>382</ele>
        <time>2024-12-08T07:06:43.619Z</time>
      </trkpt>
      <trkpt lat="45.99497" lon="3.97724">
        <ele>382</ele>
        <time>2024-12-08T07:06:44.619Z</time>
      </trkpt>
      <trkpt lat="45.99499" lon="3.97726">
        <ele>382</ele>
        <time>2024-12-08T07:06:45.619Z</time>
      </trkpt>
      <trkpt lat="45.995" lon="3.97727">
        <ele>382</ele>
        <time>2024-12-08T07:06:46.619Z</time>
      </trkpt>
      <trkpt lat="45.99502" lon="3.97729">
        <ele>382</ele>
        <time>2024-12-08T07:06:47.620Z</time>
      </trkpt>
      <trkpt lat="45.99504" lon="3.97731">
        <ele>382</ele>
        <time>2024-12-08T07:06:48.619Z</time>
      </trkpt>
      <trkpt lat="45.99505" lon="3.97732">
        <ele>382</ele>
        <time>2024-12-08T07:06:49.620Z</time>
      </trkpt>
      <trkpt lat="45.99507" lon="3.97734">
        <ele>382</ele>
        <time>2024-12-08T07:06:50.620Z</time>
      </trkpt>
      <trkpt lat="45.99509" lon="3.97735">
        <ele>381</ele>
        <time>2024-12-08T07:06:51.620Z</time>
      </trkpt>
      <trkpt lat="45.99511" lon="3.97737">
        <ele>381</ele>
        <time>2024-12-08T07:06:52.619Z</time>
      </trkpt>
      <trkpt lat="45.99513" lon="3.97738">
        <ele>381</ele>
        <time>2024-12-08T07:06:53.619Z</time>
      </trkpt>
      <trkpt lat="45.99514" lon="3.97739">
        <ele>381</ele>
        <time>2024-12-08T07:06:54.619Z</time>
      </trkpt>
      <trkpt lat="45.99516" lon="3.9774">
        <ele>380</ele>
        <time>2024-12-08T07:06:55.619Z</time>
      </trkpt>
      <trkpt lat="45.99518" lon="3.97741">
        <ele>380</ele>
        <time>2024-12-08T07:06:56.620Z</time>
      </trkpt>
      <trkpt lat="45.99519" lon="3.97742">
        <ele>380</ele>
        <time>2024-12-08T07:06:57.620Z</time>
      </trkpt>
      <trkpt lat="45.99522" lon="3.97743">
        <ele>380</ele>
        <time>2024-12-08T07:06:58.620Z</time>
      </trkpt>
      <trkpt lat="45.99524" lon="3.97744">
        <ele>380</ele>
        <time>2024-12-08T07:06:59.619Z</time>
      </trkpt>
      <trkpt lat="45.99525" lon="3.97745">
        <ele>380</ele>
        <time>2024-12-08T07:07:00.620Z</time>
      </trkpt>
      <trkpt lat="45.99527" lon="3.97746">
        <ele>380</ele>
        <time>2024-12-08T07:07:01.620Z</time>
      </trkpt>
      <trkpt lat="45.99529" lon="3.97747">
        <ele>380</ele>
        <time>2024-12-08T07:07:02.619Z</time>
      </trkpt>
      <trkpt lat="45.99531" lon="3.97748">
        <ele>380</ele>
        <time>2024-12-08T07:07:03.620Z</time>
      </trkpt>
      <trkpt lat="45.99532" lon="3.97749">
        <ele>380</ele>
        <time>2024-12-08T07:07:04.620Z</time>
      </trkpt>
      <trkpt lat="45.99535" lon="3.97749">
        <ele>379</ele>
        <time>2024-12-08T07:07:05.620Z</time>
      </trkpt>
      <trkpt lat="45.99536" lon="3.9775">
        <ele>379</ele>
        <time>2024-12-08T07:07:06.619Z</time>
      </trkpt>
      <trkpt lat="45.99538" lon="3.97751">
        <ele>379</ele>
        <time>2024-12-08T07:07:07.619Z</time>
      </trkpt>
      <trkpt lat="45.9954" lon="3.97752">
        <ele>379</ele>
        <time>2024-12-08T07:07:08.620Z</time>
      </trkpt>
      <trkpt lat="45.99542" lon="3.97753">
        <ele>378</ele>
        <time>2024-12-08T07:07:09.620Z</time>
      </trkpt>
      <trkpt lat="45.99545" lon="3.97754">
        <ele>378</ele>
        <time>2024-12-08T07:07:10.620Z</time>
      </trkpt>
      <trkpt lat="45.99546" lon="3.97755">
        <ele>378</ele>
        <time>2024-12-08T07:07:11.619Z</time>
      </trkpt>
      <trkpt lat="45.99548" lon="3.97755">
        <ele>378</ele>
        <time>2024-12-08T07:07:12.620Z</time>
      </trkpt>
      <trkpt lat="45.9955" lon="3.97756">
        <ele>378</ele>
        <time>2024-12-08T07:07:13.619Z</time>
      </trkpt>
      <trkpt lat="45.99552" lon="3.97757">
        <ele>378</ele>
        <time>2024-12-08T07:07:14.620Z</time>
      </trkpt>
      <trkpt lat="45.99554" lon="3.97758">
        <ele>378</ele>
        <time>2024-12-08T07:07:15.619Z</time>
      </trkpt>
      <trkpt lat="45.99556" lon="3.97759">
        <ele>378</ele>
        <time>2024-12-08T07:07:16.619Z</time>
      </trkpt>
      <trkpt lat="45.99558" lon="3.9776">
        <ele>378</ele>
        <time>2024-12-08T07:07:17.619Z</time>
      </trkpt>
      <trkpt lat="45.9956" lon="3.9776">
        <ele>378</ele>
        <time>2024-12-08T07:07:18.619Z</time>
      </trkpt>
      <trkpt lat="45.99562" lon="3.97761">
        <ele>378</ele>
        <time>2024-12-08T07:07:19.619Z</time>
      </trkpt>
      <trkpt lat="45.99563" lon="3.97762">
        <ele>378</ele>
        <time>2024-12-08T07:07:20.620Z</time>
      </trkpt>
      <trkpt lat="45.99566" lon="3.97763">
        <ele>378</ele>
        <time>2024-12-08T07:07:21.620Z</time>
      </trkpt>
      <trkpt lat="45.99568" lon="3.97764">
        <ele>378</ele>
        <time>2024-12-08T07:07:22.619Z</time>
      </trkpt>
      <trkpt lat="45.9957" lon="3.97766">
        <ele>379</ele>
        <time>2024-12-08T07:07:23.620Z</time>
      </trkpt>
      <trkpt lat="45.99571" lon="3.97767">
        <ele>379</ele>
        <time>2024-12-08T07:07:24.619Z</time>
      </trkpt>
      <trkpt lat="45.99573" lon="3.97768">
        <ele>379</ele>
        <time>2024-12-08T07:07:25.620Z</time>
      </trkpt>
      <trkpt lat="45.99575" lon="3.97769">
        <ele>379</ele>
        <time>2024-12-08T07:07:26.619Z</time>
      </trkpt>
      <trkpt lat="45.99577" lon="3.9777">
        <ele>379</ele>
        <time>2024-12-08T07:07:27.619Z</time>
      </trkpt>
      <trkpt lat="45.99579" lon="3.97772">
        <ele>379</ele>
        <time>2024-12-08T07:07:28.619Z</time>
      </trkpt>
      <trkpt lat="45.99581" lon="3.97773">
        <ele>378</ele>
        <time>2024-12-08T07:07:29.619Z</time>
      </trkpt>
      <trkpt lat="45.99583" lon="3.97774">
        <ele>378</ele>
        <time>2024-12-08T07:07:30.619Z</time>
      </trkpt>
      <trkpt lat="45.99584" lon="3.97775">
        <ele>378</ele>
        <time>2024-12-08T07:07:31.620Z</time>
      </trkpt>
      <trkpt lat="45.99586" lon="3.97775">
        <ele>377</ele>
        <time>2024-12-08T07:07:32.620Z</time>
      </trkpt>
      <trkpt lat="45.99588" lon="3.97777">
        <ele>377</ele>
        <time>2024-12-08T07:07:33.619Z</time>
      </trkpt>
      <trkpt lat="45.99589" lon="3.97779">
        <ele>376</ele>
        <time>2024-12-08T07:07:34.620Z</time>
      </trkpt>
      <trkpt lat="45.99591" lon="3.97781">
        <ele>376</ele>
        <time>2024-12-08T07:07:35.620Z</time>
      </trkpt>
      <trkpt lat="45.99592" lon="3.97783">
        <ele>376</ele>
        <time>2024-12-08T07:07:36.620Z</time>
      </trkpt>
      <trkpt lat="45.99594" lon="3.97785">
        <ele>375</ele>
        <time>2024-12-08T07:07:37.619Z</time>
      </trkpt>
      <trkpt lat="45.99595" lon="3.97788">
        <ele>375</ele>
        <time>2024-12-08T07:07:38.620Z</time>
      </trkpt>
      <trkpt lat="45.99597" lon="3.9779">
        <ele>375</ele>
        <time>2024-12-08T07:07:39.620Z</time>
      </trkpt>
      <trkpt lat="45.99598" lon="3.97792">
        <ele>375</ele>
        <time>2024-12-08T07:07:40.620Z</time>
      </trkpt>
      <trkpt lat="45.996" lon="3.97793">
        <ele>375</ele>
        <time>2024-12-08T07:07:41.620Z</time>
      </trkpt>
      <trkpt lat="45.99602" lon="3.97795">
        <ele>375</ele>
        <time>2024-12-08T07:07:42.620Z</time>
      </trkpt>
      <trkpt lat="45.99604" lon="3.97796">
        <ele>375</ele>
        <time>2024-12-08T07:07:43.620Z</time>
      </trkpt>
      <trkpt lat="45.99606" lon="3.97798">
        <ele>375</ele>
        <time>2024-12-08T07:07:44.619Z</time>
      </trkpt>
      <trkpt lat="45.99608" lon="3.97799">
        <ele>375</ele>
        <time>2024-12-08T07:07:45.620Z</time>
      </trkpt>
      <trkpt lat="45.9961" lon="3.978">
        <ele>374</ele>
        <time>2024-12-08T07:07:46.619Z</time>
      </trkpt>
      <trkpt lat="45.99611" lon="3.97801">
        <ele>375</ele>
        <time>2024-12-08T07:07:47.620Z</time>
      </trkpt>
      <trkpt lat="45.99613" lon="3.97802">
        <ele>375</ele>
        <time>2024-12-08T07:07:48.619Z</time>
      </trkpt>
      <trkpt lat="45.99614" lon="3.97804">
        <ele>375</ele>
        <time>2024-12-08T07:07:49.619Z</time>
      </trkpt>
      <trkpt lat="45.99616" lon="3.97806">
        <ele>375</ele>
        <time>2024-12-08T07:07:50.619Z</time>
      </trkpt>
      <trkpt lat="45.99618" lon="3.97807">
        <ele>375</ele>
        <time>2024-12-08T07:07:51.619Z</time>
      </trkpt>
      <trkpt lat="45.9962" lon="3.97809">
        <ele>375</ele>
        <time>2024-12-08T07:07:52.619Z</time>
      </trkpt>
      <trkpt lat="45.99621" lon="3.97811">
        <ele>374</ele>
        <time>2024-12-08T07:07:53.620Z</time>
      </trkpt>
      <trkpt lat="45.99623" lon="3.97813">
        <ele>374</ele>
        <time>2024-12-08T07:07:54.620Z</time>
      </trkpt>
      <trkpt lat="45.99625" lon="3.97815">
        <ele>374</ele>
        <time>2024-12-08T07:07:55.620Z</time>
      </trkpt>
      <trkpt lat="45.99627" lon="3.97816">
        <ele>373</ele>
        <time>2024-12-08T07:07:56.620Z</time>
      </trkpt>
      <trkpt lat="45.99629" lon="3.97818">
        <ele>373</ele>
        <time>2024-12-08T07:07:57.620Z</time>
      </trkpt>
      <trkpt lat="45.9963" lon="3.97819">
        <ele>373</ele>
        <time>2024-12-08T07:07:58.620Z</time>
      </trkpt>
      <trkpt lat="45.99632" lon="3.97821">
        <ele>373</ele>
        <time>2024-12-08T07:07:59.619Z</time>
      </trkpt>
      <trkpt lat="45.99633" lon="3.97822">
        <ele>373</ele>
        <time>2024-12-08T07:08:00.619Z</time>
      </trkpt>
      <trkpt lat="45.99635" lon="3.97825">
        <ele>373</ele>
        <time>2024-12-08T07:08:01.619Z</time>
      </trkpt>
      <trkpt lat="45.99637" lon="3.97827">
        <ele>373</ele>
        <time>2024-12-08T07:08:02.620Z</time>
      </trkpt>
      <trkpt lat="45.99639" lon="3.97828">
        <ele>374</ele>
        <time>2024-12-08T07:08:03.619Z</time>
      </trkpt>
      <trkpt lat="45.9964" lon="3.9783">
        <ele>374</ele>
        <time>2024-12-08T07:08:04.620Z</time>
      </trkpt>
      <trkpt lat="45.99642" lon="3.97831">
        <ele>374</ele>
        <time>2024-12-08T07:08:05.620Z</time>
      </trkpt>
      <trkpt lat="45.99644" lon="3.97833">
        <ele>374</ele>
        <time>2024-12-08T07:08:06.620Z</time>
      </trkpt>
      <trkpt lat="45.99646" lon="3.97834">
        <ele>374</ele>
        <time>2024-12-08T07:08:07.619Z</time>
      </trkpt>
      <trkpt lat="45.99647" lon="3.97835">
        <ele>374</ele>
        <time>2024-12-08T07:08:08.619Z</time>
      </trkpt>
      <trkpt lat="45.99649" lon="3.97837">
        <ele>373</ele>
        <time>2024-12-08T07:08:09.619Z</time>
      </trkpt>
      <trkpt lat="45.99651" lon="3.97838">
        <ele>373</ele>
        <time>2024-12-08T07:08:10.620Z</time>
      </trkpt>
      <trkpt lat="45.99653" lon="3.97839">
        <ele>373</ele>
        <time>2024-12-08T07:08:11.619Z</time>
      </trkpt>
      <trkpt lat="45.99654" lon="3.97841">
        <ele>373</ele>
        <time>2024-12-08T07:08:12.619Z</time>
      </trkpt>
      <trkpt lat="45.99656" lon="3.97842">
        <ele>373</ele>
        <time>2024-12-08T07:08:13.620Z</time>
      </trkpt>
      <trkpt lat="45.99658" lon="3.97844">
        <ele>373</ele>
        <time>2024-12-08T07:08:14.620Z</time>
      </trkpt>
      <trkpt lat="45.99659" lon="3.97846">
        <ele>373</ele>
        <time>2024-12-08T07:08:15.620Z</time>
      </trkpt>
      <trkpt lat="45.99661" lon="3.97848">
        <ele>373</ele>
        <time>2024-12-08T07:08:16.619Z</time>
      </trkpt>
      <trkpt lat="45.99662" lon="3.97849">
        <ele>373</ele>
        <time>2024-12-08T07:08:17.620Z</time>
      </trkpt>
      <trkpt lat="45.99664" lon="3.97851">
        <ele>373</ele>
        <time>2024-12-08T07:08:18.619Z</time>
      </trkpt>
      <trkpt lat="45.99665" lon="3.97852">
        <ele>373</ele>
        <time>2024-12-08T07:08:19.619Z</time>
      </trkpt>
      <trkpt lat="45.99667" lon="3.97854">
        <ele>373</ele>
        <time>2024-12-08T07:08:20.619Z</time>
      </trkpt>
      <trkpt lat="45.99669" lon="3.97856">
        <ele>373</ele>
        <time>2024-12-08T07:08:21.620Z</time>
      </trkpt>
      <trkpt lat="45.9967" lon="3.97857">
        <ele>373</ele>
        <time>2024-12-08T07:08:22.619Z</time>
      </trkpt>
      <trkpt lat="45.99672" lon="3.97859">
        <ele>373</ele>
        <time>2024-12-08T07:08:23.620Z</time>
      </trkpt>
      <trkpt lat="45.99673" lon="3.97861">
        <ele>373</ele>
        <time>2024-12-08T07:08:24.619Z</time>
      </trkpt>
      <trkpt lat="45.99675" lon="3.97863">
        <ele>373</ele>
        <time>2024-12-08T07:08:25.619Z</time>
      </trkpt>
      <trkpt lat="45.99676" lon="3.97865">
        <ele>373</ele>
        <time>2024-12-08T07:08:26.620Z</time>
      </trkpt>
      <trkpt lat="45.99678" lon="3.97867">
        <ele>373</ele>
        <time>2024-12-08T07:08:27.619Z</time>
      </trkpt>
      <trkpt lat="45.99679" lon="3.97869">
        <ele>372</ele>
        <time>2024-12-08T07:08:28.620Z</time>
      </trkpt>
      <trkpt lat="45.99681" lon="3.97871">
        <ele>372</ele>
        <time>2024-12-08T07:08:29.619Z</time>
      </trkpt>
      <trkpt lat="45.99682" lon="3.97872">
        <ele>372</ele>
        <time>2024-12-08T07:08:30.620Z</time>
      </trkpt>
      <trkpt lat="45.99683" lon="3.97875">
        <ele>372</ele>
        <time>2024-12-08T07:08:31.619Z</time>
      </trkpt>
      <trkpt lat="45.99685" lon="3.97877">
        <ele>372</ele>
        <time>2024-12-08T07:08:32.620Z</time>
      </trkpt>
      <trkpt lat="45.99686" lon="3.9788">
        <ele>373</ele>
        <time>2024-12-08T07:08:33.619Z</time>
      </trkpt>
      <trkpt lat="45.99686" lon="3.97881">
        <ele>373</ele>
        <time>2024-12-08T07:08:34.619Z</time>
      </trkpt>
      <trkpt lat="45.99688" lon="3.97884">
        <ele>373</ele>
        <time>2024-12-08T07:08:35.619Z</time>
      </trkpt>
      <trkpt lat="45.99689" lon="3.97886">
        <ele>373</ele>
        <time>2024-12-08T07:08:36.620Z</time>
      </trkpt>
      <trkpt lat="45.9969" lon="3.97889">
        <ele>373</ele>
        <time>2024-12-08T07:08:37.620Z</time>
      </trkpt>
      <trkpt lat="45.99692" lon="3.97891">
        <ele>372</ele>
        <time>2024-12-08T07:08:38.620Z</time>
      </trkpt>
      <trkpt lat="45.99693" lon="3.97893">
        <ele>372</ele>
        <time>2024-12-08T07:08:39.620Z</time>
      </trkpt>
      <trkpt lat="45.99694" lon="3.97895">
        <ele>372</ele>
        <time>2024-12-08T07:08:40.619Z</time>
      </trkpt>
      <trkpt lat="45.99695" lon="3.97898">
        <ele>372</ele>
        <time>2024-12-08T07:08:41.620Z</time>
      </trkpt>
      <trkpt lat="45.99696" lon="3.979">
        <ele>372</ele>
        <time>2024-12-08T07:08:42.619Z</time>
      </trkpt>
      <trkpt lat="45.99697" lon="3.97902">
        <ele>372</ele>
        <time>2024-12-08T07:08:43.619Z</time>
      </trkpt>
      <trkpt lat="45.99699" lon="3.97905">
        <ele>372</ele>
        <time>2024-12-08T07:08:44.619Z</time>
      </trkpt>
      <trkpt lat="45.997" lon="3.97907">
        <ele>372</ele>
        <time>2024-12-08T07:08:45.620Z</time>
      </trkpt>
      <trkpt lat="45.99701" lon="3.97909">
        <ele>372</ele>
        <time>2024-12-08T07:08:46.619Z</time>
      </trkpt>
      <trkpt lat="45.99702" lon="3.97911">
        <ele>372</ele>
        <time>2024-12-08T07:08:47.620Z</time>
      </trkpt>
      <trkpt lat="45.99703" lon="3.97913">
        <ele>373</ele>
        <time>2024-12-08T07:08:48.620Z</time>
      </trkpt>
      <trkpt lat="45.99705" lon="3.97916">
        <ele>373</ele>
        <time>2024-12-08T07:08:49.620Z</time>
      </trkpt>
      <trkpt lat="45.99706" lon="3.97919">
        <ele>373</ele>
        <time>2024-12-08T07:08:50.619Z</time>
      </trkpt>
      <trkpt lat="45.99707" lon="3.97921">
        <ele>373</ele>
        <time>2024-12-08T07:08:51.620Z</time>
      </trkpt>
      <trkpt lat="45.99708" lon="3.97923">
        <ele>373</ele>
        <time>2024-12-08T07:08:52.620Z</time>
      </trkpt>
      <trkpt lat="45.99709" lon="3.97925">
        <ele>373</ele>
        <time>2024-12-08T07:08:53.619Z</time>
      </trkpt>
      <trkpt lat="45.9971" lon="3.97928">
        <ele>373</ele>
        <time>2024-12-08T07:08:54.620Z</time>
      </trkpt>
      <trkpt lat="45.99711" lon="3.9793">
        <ele>373</ele>
        <time>2024-12-08T07:08:55.619Z</time>
      </trkpt>
      <trkpt lat="45.99712" lon="3.97933">
        <ele>372</ele>
        <time>2024-12-08T07:08:56.620Z</time>
      </trkpt>
      <trkpt lat="45.99713" lon="3.97935">
        <ele>372</ele>
        <time>2024-12-08T07:08:57.619Z</time>
      </trkpt>
      <trkpt lat="45.99714" lon="3.97937">
        <ele>372</ele>
        <time>2024-12-08T07:08:58.619Z</time>
      </trkpt>
      <trkpt lat="45.99715" lon="3.97939">
        <ele>372</ele>
        <time>2024-12-08T07:08:59.619Z</time>
      </trkpt>
      <trkpt lat="45.99716" lon="3.97942">
        <ele>372</ele>
        <time>2024-12-08T07:09:00.619Z</time>
      </trkpt>
      <trkpt lat="45.99718" lon="3.97944">
        <ele>372</ele>
        <time>2024-12-08T07:09:01.619Z</time>
      </trkpt>
      <trkpt lat="45.99719" lon="3.97946">
        <ele>372</ele>
        <time>2024-12-08T07:09:02.619Z</time>
      </trkpt>
      <trkpt lat="45.9972" lon="3.97949">
        <ele>372</ele>
        <time>2024-12-08T07:09:03.619Z</time>
      </trkpt>
      <trkpt lat="45.99721" lon="3.97951">
        <ele>372</ele>
        <time>2024-12-08T07:09:04.619Z</time>
      </trkpt>
      <trkpt lat="45.99722" lon="3.97953">
        <ele>372</ele>
        <time>2024-12-08T07:09:05.620Z</time>
      </trkpt>
      <trkpt lat="45.99724" lon="3.97955">
        <ele>372</ele>
        <time>2024-12-08T07:09:06.619Z</time>
      </trkpt>
      <trkpt lat="45.99725" lon="3.97958">
        <ele>372</ele>
        <time>2024-12-08T07:09:07.620Z</time>
      </trkpt>
      <trkpt lat="45.99726" lon="3.9796">
        <ele>372</ele>
        <time>2024-12-08T07:09:08.619Z</time>
      </trkpt>
      <trkpt lat="45.99727" lon="3.97962">
        <ele>372</ele>
        <time>2024-12-08T07:09:09.620Z</time>
      </trkpt>
      <trkpt lat="45.99729" lon="3.97964">
        <ele>372</ele>
        <time>2024-12-08T07:09:10.619Z</time>
      </trkpt>
      <trkpt lat="45.9973" lon="3.97966">
        <ele>372</ele>
        <time>2024-12-08T07:09:11.620Z</time>
      </trkpt>
      <trkpt lat="45.99731" lon="3.97968">
        <ele>371</ele>
        <time>2024-12-08T07:09:12.619Z</time>
      </trkpt>
      <trkpt lat="45.99733" lon="3.9797">
        <ele>371</ele>
        <time>2024-12-08T07:09:13.620Z</time>
      </trkpt>
      <trkpt lat="45.99734" lon="3.97972">
        <ele>371</ele>
        <time>2024-12-08T07:09:14.619Z</time>
      </trkpt>
      <trkpt lat="45.99735" lon="3.97974">
        <ele>370</ele>
        <time>2024-12-08T07:09:15.619Z</time>
      </trkpt>
      <trkpt lat="45.99737" lon="3.97976">
        <ele>370</ele>
        <time>2024-12-08T07:09:16.620Z</time>
      </trkpt>
      <trkpt lat="45.99738" lon="3.97978">
        <ele>370</ele>
        <time>2024-12-08T07:09:17.619Z</time>
      </trkpt>
      <trkpt lat="45.99739" lon="3.97979">
        <ele>369</ele>
        <time>2024-12-08T07:09:18.619Z</time>
      </trkpt>
      <trkpt lat="45.9974" lon="3.97982">
        <ele>369</ele>
        <time>2024-12-08T07:09:19.619Z</time>
      </trkpt>
      <trkpt lat="45.99741" lon="3.97984">
        <ele>369</ele>
        <time>2024-12-08T07:09:20.620Z</time>
      </trkpt>
      <trkpt lat="45.99742" lon="3.97986">
        <ele>369</ele>
        <time>2024-12-08T07:09:21.619Z</time>
      </trkpt>
      <trkpt lat="45.99743" lon="3.97987">
        <ele>369</ele>
        <time>2024-12-08T07:09:22.619Z</time>
      </trkpt>
      <trkpt lat="45.99744" lon="3.97989">
        <ele>369</ele>
        <time>2024-12-08T07:09:23.619Z</time>
      </trkpt>
      <trkpt lat="45.99745" lon="3.97991">
        <ele>369</ele>
        <time>2024-12-08T07:09:24.620Z</time>
      </trkpt>
      <trkpt lat="45.99747" lon="3.97992">
        <ele>369</ele>
        <time>2024-12-08T07:09:25.619Z</time>
      </trkpt>
      <trkpt lat="45.99748" lon="3.97993">
        <ele>370</ele>
        <time>2024-12-08T07:09:26.620Z</time>
      </trkpt>
      <trkpt lat="45.9975" lon="3.97994">
        <ele>370</ele>
        <time>2024-12-08T07:09:27.619Z</time>
      </trkpt>
      <trkpt lat="45.99752" lon="3.97995">
        <ele>369</ele>
        <time>2024-12-08T07:09:28.620Z</time>
      </trkpt>
      <trkpt lat="45.99753" lon="3.97997">
        <ele>369</ele>
        <time>2024-12-08T07:09:29.619Z</time>
      </trkpt>
      <trkpt lat="45.99754" lon="3.97999">
        <ele>369</ele>
        <time>2024-12-08T07:09:30.619Z</time>
      </trkpt>
      <trkpt lat="45.99755" lon="3.98001">
        <ele>369</ele>
        <time>2024-12-08T07:09:31.620Z</time>
      </trkpt>
      <trkpt lat="45.99756" lon="3.98004">
        <ele>369</ele>
        <time>2024-12-08T07:09:32.620Z</time>
      </trkpt>
      <trkpt lat="45.99757" lon="3.98007">
        <ele>369</ele>
        <time>2024-12-08T07:09:33.620Z</time>
      </trkpt>
      <trkpt lat="45.99758" lon="3.9801">
        <ele>369</ele>
        <time>2024-12-08T07:09:34.619Z</time>
      </trkpt>
      <trkpt lat="45.99758" lon="3.98012">
        <ele>369</ele>
        <time>2024-12-08T07:09:35.619Z</time>
      </trkpt>
      <trkpt lat="45.9976" lon="3.98016">
        <ele>369</ele>
        <time>2024-12-08T07:09:36.619Z</time>
      </trkpt>
      <trkpt lat="45.99761" lon="3.98019">
        <ele>370</ele>
        <time>2024-12-08T07:09:37.620Z</time>
      </trkpt>
      <trkpt lat="45.99762" lon="3.98021">
        <ele>369</ele>
        <time>2024-12-08T07:09:38.619Z</time>
      </trkpt>
      <trkpt lat="45.99763" lon="3.98024">
        <ele>369</ele>
        <time>2024-12-08T07:09:39.620Z</time>
      </trkpt>
      <trkpt lat="45.99764" lon="3.98026">
        <ele>369</ele>
        <time>2024-12-08T07:09:40.619Z</time>
      </trkpt>
      <trkpt lat="45.99765" lon="3.98029">
        <ele>370</ele>
        <time>2024-12-08T07:09:41.620Z</time>
      </trkpt>
      <trkpt lat="45.99766" lon="3.98032">
        <ele>370</ele>
        <time>2024-12-08T07:09:42.619Z</time>
      </trkpt>
      <trkpt lat="45.99767" lon="3.98035">
        <ele>370</ele>
        <time>2024-12-08T07:09:43.619Z</time>
      </trkpt>
      <trkpt lat="45.99768" lon="3.98037">
        <ele>370</ele>
        <time>2024-12-08T07:09:44.620Z</time>
      </trkpt>
      <trkpt lat="45.99769" lon="3.9804">
        <ele>370</ele>
        <time>2024-12-08T07:09:45.619Z</time>
      </trkpt>
      <trkpt lat="45.9977" lon="3.98042">
        <ele>370</ele>
        <time>2024-12-08T07:09:46.619Z</time>
      </trkpt>
      <trkpt lat="45.99771" lon="3.98044">
        <ele>370</ele>
        <time>2024-12-08T07:09:47.620Z</time>
      </trkpt>
      <trkpt lat="45.99772" lon="3.98047">
        <ele>370</ele>
        <time>2024-12-08T07:09:48.620Z</time>
      </trkpt>
      <trkpt lat="45.99773" lon="3.98049">
        <ele>370</ele>
        <time>2024-12-08T07:09:49.619Z</time>
      </trkpt>
      <trkpt lat="45.99774" lon="3.98052">
        <ele>369</ele>
        <time>2024-12-08T07:09:50.620Z</time>
      </trkpt>
      <trkpt lat="45.99775" lon="3.98054">
        <ele>369</ele>
        <time>2024-12-08T07:09:51.619Z</time>
      </trkpt>
      <trkpt lat="45.99776" lon="3.98057">
        <ele>369</ele>
        <time>2024-12-08T07:09:52.620Z</time>
      </trkpt>
      <trkpt lat="45.99777" lon="3.98059">
        <ele>369</ele>
        <time>2024-12-08T07:09:53.620Z</time>
      </trkpt>
      <trkpt lat="45.99778" lon="3.98062">
        <ele>368</ele>
        <time>2024-12-08T07:09:54.619Z</time>
      </trkpt>
      <trkpt lat="45.99779" lon="3.98064">
        <ele>368</ele>
        <time>2024-12-08T07:09:55.619Z</time>
      </trkpt>
      <trkpt lat="45.9978" lon="3.98067">
        <ele>368</ele>
        <time>2024-12-08T07:09:56.619Z</time>
      </trkpt>
      <trkpt lat="45.9978" lon="3.98069">
        <ele>368</ele>
        <time>2024-12-08T07:09:57.619Z</time>
      </trkpt>
      <trkpt lat="45.99781" lon="3.98072">
        <ele>369</ele>
        <time>2024-12-08T07:09:58.620Z</time>
      </trkpt>
      <trkpt lat="45.99782" lon="3.98074">
        <ele>369</ele>
        <time>2024-12-08T07:09:59.619Z</time>
      </trkpt>
      <trkpt lat="45.99783" lon="3.98077">
        <ele>369</ele>
        <time>2024-12-08T07:10:00.620Z</time>
      </trkpt>
      <trkpt lat="45.99784" lon="3.98079">
        <ele>369</ele>
        <time>2024-12-08T07:10:01.620Z</time>
      </trkpt>
      <trkpt lat="45.99785" lon="3.98081">
        <ele>369</ele>
        <time>2024-12-08T07:10:02.620Z</time>
      </trkpt>
      <trkpt lat="45.99786" lon="3.98084">
        <ele>369</ele>
        <time>2024-12-08T07:10:03.620Z</time>
      </trkpt>
      <trkpt lat="45.99786" lon="3.98087">
        <ele>369</ele>
        <time>2024-12-08T07:10:04.619Z</time>
      </trkpt>
      <trkpt lat="45.99787" lon="3.9809">
        <ele>369</ele>
        <time>2024-12-08T07:10:05.619Z</time>
      </trkpt>
      <trkpt lat="45.99788" lon="3.98092">
        <ele>370</ele>
        <time>2024-12-08T07:10:06.619Z</time>
      </trkpt>
      <trkpt lat="45.99788" lon="3.98094">
        <ele>369</ele>
        <time>2024-12-08T07:10:07.620Z</time>
      </trkpt>
      <trkpt lat="45.99789" lon="3.98097">
        <ele>369</ele>
        <time>2024-12-08T07:10:08.619Z</time>
      </trkpt>
      <trkpt lat="45.9979" lon="3.98099">
        <ele>369</ele>
        <time>2024-12-08T07:10:09.619Z</time>
      </trkpt>
      <trkpt lat="45.99791" lon="3.98102">
        <ele>369</ele>
        <time>2024-12-08T07:10:10.619Z</time>
      </trkpt>
      <trkpt lat="45.99792" lon="3.98105">
        <ele>369</ele>
        <time>2024-12-08T07:10:11.619Z</time>
      </trkpt>
      <trkpt lat="45.99792" lon="3.98108">
        <ele>369</ele>
        <time>2024-12-08T07:10:12.620Z</time>
      </trkpt>
      <trkpt lat="45.99793" lon="3.9811">
        <ele>369</ele>
        <time>2024-12-08T07:10:13.619Z</time>
      </trkpt>
      <trkpt lat="45.99794" lon="3.98113">
        <ele>369</ele>
        <time>2024-12-08T07:10:14.620Z</time>
      </trkpt>
      <trkpt lat="45.99795" lon="3.98115">
        <ele>368</ele>
        <time>2024-12-08T07:10:15.619Z</time>
      </trkpt>
      <trkpt lat="45.99795" lon="3.98118">
        <ele>368</ele>
        <time>2024-12-08T07:10:16.619Z</time>
      </trkpt>
      <trkpt lat="45.99796" lon="3.98121">
        <ele>368</ele>
        <time>2024-12-08T07:10:17.619Z</time>
      </trkpt>
      <trkpt lat="45.99797" lon="3.98123">
        <ele>368</ele>
        <time>2024-12-08T07:10:18.620Z</time>
      </trkpt>
      <trkpt lat="45.99798" lon="3.98126">
        <ele>368</ele>
        <time>2024-12-08T07:10:19.620Z</time>
      </trkpt>
      <trkpt lat="45.99799" lon="3.98128">
        <ele>368</ele>
        <time>2024-12-08T07:10:20.620Z</time>
      </trkpt>
      <trkpt lat="45.99799" lon="3.98131">
        <ele>368</ele>
        <time>2024-12-08T07:10:21.619Z</time>
      </trkpt>
      <trkpt lat="45.998" lon="3.98133">
        <ele>367</ele>
        <time>2024-12-08T07:10:22.620Z</time>
      </trkpt>
      <trkpt lat="45.99801" lon="3.98136">
        <ele>368</ele>
        <time>2024-12-08T07:10:23.619Z</time>
      </trkpt>
      <trkpt lat="45.99802" lon="3.98139">
        <ele>368</ele>
        <time>2024-12-08T07:10:24.620Z</time>
      </trkpt>
      <trkpt lat="45.99803" lon="3.98141">
        <ele>368</ele>
        <time>2024-12-08T07:10:25.619Z</time>
      </trkpt>
      <trkpt lat="45.99804" lon="3.98144">
        <ele>367</ele>
        <time>2024-12-08T07:10:26.620Z</time>
      </trkpt>
      <trkpt lat="45.99805" lon="3.98146">
        <ele>367</ele>
        <time>2024-12-08T07:10:27.619Z</time>
      </trkpt>
      <trkpt lat="45.99805" lon="3.98149">
        <ele>367</ele>
        <time>2024-12-08T07:10:28.619Z</time>
      </trkpt>
      <trkpt lat="45.99806" lon="3.98151">
        <ele>367</ele>
        <time>2024-12-08T07:10:29.620Z</time>
      </trkpt>
      <trkpt lat="45.99807" lon="3.98154">
        <ele>367</ele>
        <time>2024-12-08T07:10:30.619Z</time>
      </trkpt>
      <trkpt lat="45.99808" lon="3.98157">
        <ele>367</ele>
        <time>2024-12-08T07:10:31.619Z</time>
      </trkpt>
      <trkpt lat="45.99808" lon="3.9816">
        <ele>367</ele>
        <time>2024-12-08T07:10:32.619Z</time>
      </trkpt>
      <trkpt lat="45.99809" lon="3.98162">
        <ele>366</ele>
        <time>2024-12-08T07:10:33.619Z</time>
      </trkpt>
      <trkpt lat="45.9981" lon="3.98165">
        <ele>366</ele>
        <time>2024-12-08T07:10:34.619Z</time>
      </trkpt>
      <trkpt lat="45.99811" lon="3.98168">
        <ele>366</ele>
        <time>2024-12-08T07:10:35.620Z</time>
      </trkpt>
      <trkpt lat="45.99811" lon="3.9817">
        <ele>366</ele>
        <time>2024-12-08T07:10:36.619Z</time>
      </trkpt>
      <trkpt lat="45.99812" lon="3.98173">
        <ele>365</ele>
        <time>2024-12-08T07:10:37.620Z</time>
      </trkpt>
      <trkpt lat="45.99812" lon="3.98176">
        <ele>365</ele>
        <time>2024-12-08T07:10:38.620Z</time>
      </trkpt>
      <trkpt lat="45.99813" lon="3.98178">
        <ele>364</ele>
        <time>2024-12-08T07:10:39.619Z</time>
      </trkpt>
      <trkpt lat="45.99813" lon="3.98181">
        <ele>364</ele>
        <time>2024-12-08T07:10:40.619Z</time>
      </trkpt>
      <trkpt lat="45.99814" lon="3.98183">
        <ele>363</ele>
        <time>2024-12-08T07:10:41.620Z</time>
      </trkpt>
      <trkpt lat="45.99815" lon="3.98186">
        <ele>364</ele>
        <time>2024-12-08T07:10:42.619Z</time>
      </trkpt>
      <trkpt lat="45.99816" lon="3.98188">
        <ele>364</ele>
        <time>2024-12-08T07:10:43.619Z</time>
      </trkpt>
      <trkpt lat="45.99817" lon="3.98191">
        <ele>364</ele>
        <time>2024-12-08T07:10:44.619Z</time>
      </trkpt>
      <trkpt lat="45.99817" lon="3.98194">
        <ele>364</ele>
        <time>2024-12-08T07:10:45.620Z</time>
      </trkpt>
      <trkpt lat="45.99818" lon="3.98196">
        <ele>364</ele>
        <time>2024-12-08T07:10:46.619Z</time>
      </trkpt>
      <trkpt lat="45.99819" lon="3.98199">
        <ele>364</ele>
        <time>2024-12-08T07:10:47.619Z</time>
      </trkpt>
      <trkpt lat="45.99819" lon="3.98202">
        <ele>364</ele>
        <time>2024-12-08T07:10:48.619Z</time>
      </trkpt>
      <trkpt lat="45.9982" lon="3.98205">
        <ele>365</ele>
        <time>2024-12-08T07:10:49.619Z</time>
      </trkpt>
      <trkpt lat="45.9982" lon="3.98208">
        <ele>365</ele>
        <time>2024-12-08T07:10:50.619Z</time>
      </trkpt>
      <trkpt lat="45.99821" lon="3.98211">
        <ele>365</ele>
        <time>2024-12-08T07:10:51.620Z</time>
      </trkpt>
      <trkpt lat="45.99822" lon="3.98213">
        <ele>365</ele>
        <time>2024-12-08T07:10:52.620Z</time>
      </trkpt>
      <trkpt lat="45.99822" lon="3.98216">
        <ele>365</ele>
        <time>2024-12-08T07:10:53.619Z</time>
      </trkpt>
      <trkpt lat="45.99823" lon="3.98219">
        <ele>365</ele>
        <time>2024-12-08T07:10:54.619Z</time>
      </trkpt>
      <trkpt lat="45.99823" lon="3.98222">
        <ele>365</ele>
        <time>2024-12-08T07:10:55.619Z</time>
      </trkpt>
      <trkpt lat="45.99824" lon="3.98225">
        <ele>365</ele>
        <time>2024-12-08T07:10:56.619Z</time>
      </trkpt>
      <trkpt lat="45.99824" lon="3.98227">
        <ele>365</ele>
        <time>2024-12-08T07:10:57.620Z</time>
      </trkpt>
      <trkpt lat="45.99824" lon="3.9823">
        <ele>365</ele>
        <time>2024-12-08T07:10:58.619Z</time>
      </trkpt>
      <trkpt lat="45.99824" lon="3.98232">
        <ele>365</ele>
        <time>2024-12-08T07:10:59.619Z</time>
      </trkpt>
      <trkpt lat="45.99825" lon="3.98235">
        <ele>365</ele>
        <time>2024-12-08T07:11:00.619Z</time>
      </trkpt>
      <trkpt lat="45.99825" lon="3.98238">
        <ele>365</ele>
        <time>2024-12-08T07:11:01.619Z</time>
      </trkpt>
      <trkpt lat="45.99826" lon="3.98241">
        <ele>365</ele>
        <time>2024-12-08T07:11:02.620Z</time>
      </trkpt>
      <trkpt lat="45.99826" lon="3.98243">
        <ele>365</ele>
        <time>2024-12-08T07:11:03.619Z</time>
      </trkpt>
      <trkpt lat="45.99827" lon="3.98246">
        <ele>365</ele>
        <time>2024-12-08T07:11:04.620Z</time>
      </trkpt>
      <trkpt lat="45.99827" lon="3.98248">
        <ele>366</ele>
        <time>2024-12-08T07:11:05.620Z</time>
      </trkpt>
      <trkpt lat="45.99828" lon="3.98251">
        <ele>365</ele>
        <time>2024-12-08T07:11:06.620Z</time>
      </trkpt>
      <trkpt lat="45.99828" lon="3.98254">
        <ele>365</ele>
        <time>2024-12-08T07:11:07.620Z</time>
      </trkpt>
      <trkpt lat="45.99828" lon="3.98257">
        <ele>365</ele>
        <time>2024-12-08T07:11:08.620Z</time>
      </trkpt>
      <trkpt lat="45.99829" lon="3.9826">
        <ele>364</ele>
        <time>2024-12-08T07:11:09.619Z</time>
      </trkpt>
      <trkpt lat="45.99829" lon="3.98262">
        <ele>364</ele>
        <time>2024-12-08T07:11:10.619Z</time>
      </trkpt>
      <trkpt lat="45.99829" lon="3.98265">
        <ele>364</ele>
        <time>2024-12-08T07:11:11.619Z</time>
      </trkpt>
      <trkpt lat="45.9983" lon="3.98268">
        <ele>364</ele>
        <time>2024-12-08T07:11:12.619Z</time>
      </trkpt>
      <trkpt lat="45.9983" lon="3.98271">
        <ele>364</ele>
        <time>2024-12-08T07:11:13.620Z</time>
      </trkpt>
      <trkpt lat="45.99831" lon="3.98273">
        <ele>364</ele>
        <time>2024-12-08T07:11:14.619Z</time>
      </trkpt>
      <trkpt lat="45.99831" lon="3.98276">
        <ele>364</ele>
        <time>2024-12-08T07:11:15.619Z</time>
      </trkpt>
      <trkpt lat="45.99831" lon="3.98279">
        <ele>363</ele>
        <time>2024-12-08T07:11:16.620Z</time>
      </trkpt>
      <trkpt lat="45.99831" lon="3.98281">
        <ele>363</ele>
        <time>2024-12-08T07:11:17.619Z</time>
      </trkpt>
      <trkpt lat="45.99832" lon="3.98284">
        <ele>362</ele>
        <time>2024-12-08T07:11:18.620Z</time>
      </trkpt>
      <trkpt lat="45.99832" lon="3.98287">
        <ele>362</ele>
        <time>2024-12-08T07:11:19.619Z</time>
      </trkpt>
      <trkpt lat="45.99832" lon="3.9829">
        <ele>362</ele>
        <time>2024-12-08T07:11:20.620Z</time>
      </trkpt>
      <trkpt lat="45.99833" lon="3.98293">
        <ele>361</ele>
        <time>2024-12-08T07:11:21.620Z</time>
      </trkpt>
      <trkpt lat="45.99833" lon="3.98296">
        <ele>361</ele>
        <time>2024-12-08T07:11:22.619Z</time>
      </trkpt>
      <trkpt lat="45.99833" lon="3.98298">
        <ele>361</ele>
        <time>2024-12-08T07:11:23.620Z</time>
      </trkpt>
      <trkpt lat="45.99834" lon="3.983">
        <ele>361</ele>
        <time>2024-12-08T07:11:24.620Z</time>
      </trkpt>
      <trkpt lat="45.99834" lon="3.98303">
        <ele>361</ele>
        <time>2024-12-08T07:11:25.619Z</time>
      </trkpt>
      <trkpt lat="45.99835" lon="3.98306">
        <ele>361</ele>
        <time>2024-12-08T07:11:26.620Z</time>
      </trkpt>
      <trkpt lat="45.99835" lon="3.98309">
        <ele>360</ele>
        <time>2024-12-08T07:11:27.619Z</time>
      </trkpt>
      <trkpt lat="45.99835" lon="3.98312">
        <ele>360</ele>
        <time>2024-12-08T07:11:28.619Z</time>
      </trkpt>
      <trkpt lat="45.99836" lon="3.98315">
        <ele>360</ele>
        <time>2024-12-08T07:11:29.619Z</time>
      </trkpt>
      <trkpt lat="45.99836" lon="3.98318">
        <ele>360</ele>
        <time>2024-12-08T07:11:30.619Z</time>
      </trkpt>
      <trkpt lat="45.99836" lon="3.98321">
        <ele>360</ele>
        <time>2024-12-08T07:11:31.619Z</time>
      </trkpt>
      <trkpt lat="45.99837" lon="3.98323">
        <ele>360</ele>
        <time>2024-12-08T07:11:32.619Z</time>
      </trkpt>
      <trkpt lat="45.99838" lon="3.98326">
        <ele>360</ele>
        <time>2024-12-08T07:11:33.620Z</time>
      </trkpt>
      <trkpt lat="45.99838" lon="3.98329">
        <ele>360</ele>
        <time>2024-12-08T07:11:34.620Z</time>
      </trkpt>
      <trkpt lat="45.99838" lon="3.98332">
        <ele>360</ele>
        <time>2024-12-08T07:11:35.620Z</time>
      </trkpt>
      <trkpt lat="45.99838" lon="3.98334">
        <ele>360</ele>
        <time>2024-12-08T07:11:36.620Z</time>
      </trkpt>
      <trkpt lat="45.99839" lon="3.98337">
        <ele>360</ele>
        <time>2024-12-08T07:11:37.619Z</time>
      </trkpt>
      <trkpt lat="45.9984" lon="3.9834">
        <ele>360</ele>
        <time>2024-12-08T07:11:38.620Z</time>
      </trkpt>
      <trkpt lat="45.9984" lon="3.98342">
        <ele>360</ele>
        <time>2024-12-08T07:11:39.619Z</time>
      </trkpt>
      <trkpt lat="45.99841" lon="3.98345">
        <ele>360</ele>
        <time>2024-12-08T07:11:40.619Z</time>
      </trkpt>
      <trkpt lat="45.99841" lon="3.98348">
        <ele>360</ele>
        <time>2024-12-08T07:11:41.619Z</time>
      </trkpt>
      <trkpt lat="45.99842" lon="3.98351">
        <ele>360</ele>
        <time>2024-12-08T07:11:42.620Z</time>
      </trkpt>
      <trkpt lat="45.99842" lon="3.98354">
        <ele>360</ele>
        <time>2024-12-08T07:11:43.619Z</time>
      </trkpt>
      <trkpt lat="45.99842" lon="3.98356">
        <ele>360</ele>
        <time>2024-12-08T07:11:44.619Z</time>
      </trkpt>
      <trkpt lat="45.99843" lon="3.98359">
        <ele>360</ele>
        <time>2024-12-08T07:11:45.620Z</time>
      </trkpt>
      <trkpt lat="45.99843" lon="3.98361">
        <ele>360</ele>
        <time>2024-12-08T07:11:46.619Z</time>
      </trkpt>
      <trkpt lat="45.99843" lon="3.98364">
        <ele>359</ele>
        <time>2024-12-08T07:11:47.619Z</time>
      </trkpt>
      <trkpt lat="45.99844" lon="3.98367">
        <ele>359</ele>
        <time>2024-12-08T07:11:48.619Z</time>
      </trkpt>
      <trkpt lat="45.99844" lon="3.9837">
        <ele>359</ele>
        <time>2024-12-08T07:11:49.619Z</time>
      </trkpt>
      <trkpt lat="45.99844" lon="3.98373">
        <ele>359</ele>
        <time>2024-12-08T07:11:50.620Z</time>
      </trkpt>
      <trkpt lat="45.99844" lon="3.98375">
        <ele>359</ele>
        <time>2024-12-08T07:11:51.620Z</time>
      </trkpt>
      <trkpt lat="45.99845" lon="3.98378">
        <ele>359</ele>
        <time>2024-12-08T07:11:52.620Z</time>
      </trkpt>
      <trkpt lat="45.99845" lon="3.98381">
        <ele>359</ele>
        <time>2024-12-08T07:11:53.619Z</time>
      </trkpt>
      <trkpt lat="45.99845" lon="3.98384">
        <ele>358</ele>
        <time>2024-12-08T07:11:54.619Z</time>
      </trkpt>
      <trkpt lat="45.99845" lon="3.98386">
        <ele>358</ele>
        <time>2024-12-08T07:11:55.619Z</time>
      </trkpt>
      <trkpt lat="45.99846" lon="3.9839">
        <ele>358</ele>
        <time>2024-12-08T07:11:56.620Z</time>
      </trkpt>
      <trkpt lat="45.99846" lon="3.98393">
        <ele>357</ele>
        <time>2024-12-08T07:11:57.619Z</time>
      </trkpt>
      <trkpt lat="45.99847" lon="3.98395">
        <ele>357</ele>
        <time>2024-12-08T07:11:58.620Z</time>
      </trkpt>
      <trkpt lat="45.99847" lon="3.98398">
        <ele>357</ele>
        <time>2024-12-08T07:11:59.619Z</time>
      </trkpt>
      <trkpt lat="45.99847" lon="3.98401">
        <ele>357</ele>
        <time>2024-12-08T07:12:00.620Z</time>
      </trkpt>
      <trkpt lat="45.99848" lon="3.98404">
        <ele>357</ele>
        <time>2024-12-08T07:12:01.619Z</time>
      </trkpt>
      <trkpt lat="45.99848" lon="3.98407">
        <ele>357</ele>
        <time>2024-12-08T07:12:02.620Z</time>
      </trkpt>
      <trkpt lat="45.99849" lon="3.98409">
        <ele>357</ele>
        <time>2024-12-08T07:12:03.619Z</time>
      </trkpt>
      <trkpt lat="45.99849" lon="3.98412">
        <ele>357</ele>
        <time>2024-12-08T07:12:04.620Z</time>
      </trkpt>
      <trkpt lat="45.99849" lon="3.98415">
        <ele>357</ele>
        <time>2024-12-08T07:12:05.619Z</time>
      </trkpt>
      <trkpt lat="45.99849" lon="3.98418">
        <ele>357</ele>
        <time>2024-12-08T07:12:06.620Z</time>
      </trkpt>
      <trkpt lat="45.9985" lon="3.98421">
        <ele>357</ele>
        <time>2024-12-08T07:12:07.619Z</time>
      </trkpt>
      <trkpt lat="45.9985" lon="3.98423">
        <ele>356</ele>
        <time>2024-12-08T07:12:08.619Z</time>
      </trkpt>
      <trkpt lat="45.9985" lon="3.98426">
        <ele>356</ele>
        <time>2024-12-08T07:12:09.619Z</time>
      </trkpt>
      <trkpt lat="45.9985" lon="3.98428">
        <ele>356</ele>
        <time>2024-12-08T07:12:10.619Z</time>
      </trkpt>
      <trkpt lat="45.99851" lon="3.98432">
        <ele>356</ele>
        <time>2024-12-08T07:12:11.620Z</time>
      </trkpt>
      <trkpt lat="45.99851" lon="3.98435">
        <ele>356</ele>
        <time>2024-12-08T07:12:12.620Z</time>
      </trkpt>
      <trkpt lat="45.99852" lon="3.98437">
        <ele>356</ele>
        <time>2024-12-08T07:12:13.620Z</time>
      </trkpt>
      <trkpt lat="45.99852" lon="3.9844">
        <ele>356</ele>
        <time>2024-12-08T07:12:14.620Z</time>
      </trkpt>
      <trkpt lat="45.99852" lon="3.98443">
        <ele>356</ele>
        <time>2024-12-08T07:12:15.619Z</time>
      </trkpt>
      <trkpt lat="45.99853" lon="3.98445">
        <ele>356</ele>
        <time>2024-12-08T07:12:16.620Z</time>
      </trkpt>
      <trkpt lat="45.99853" lon="3.98446">
        <ele>356</ele>
        <time>2024-12-08T07:12:17.619Z</time>
      </trkpt>
      <trkpt lat="45.99853" lon="3.98447">
        <ele>356</ele>
        <time>2024-12-08T07:12:18.620Z</time>
      </trkpt>
      <trkpt lat="45.99853" lon="3.98448">
        <ele>356</ele>
        <time>2024-12-08T07:12:19.620Z</time>
      </trkpt>
      <trkpt lat="45.99853" lon="3.9845">
        <ele>356</ele>
        <time>2024-12-08T07:12:20.619Z</time>
      </trkpt>
      <trkpt lat="45.99853" lon="3.98452">
        <ele>356</ele>
        <time>2024-12-08T07:12:21.620Z</time>
      </trkpt>
      <trkpt lat="45.99853" lon="3.98455">
        <ele>356</ele>
        <time>2024-12-08T07:12:22.619Z</time>
      </trkpt>
      <trkpt lat="45.99853" lon="3.98458">
        <ele>356</ele>
        <time>2024-12-08T07:12:23.620Z</time>
      </trkpt>
      <trkpt lat="45.99854" lon="3.98461">
        <ele>356</ele>
        <time>2024-12-08T07:12:24.620Z</time>
      </trkpt>
      <trkpt lat="45.99854" lon="3.98464">
        <ele>356</ele>
        <time>2024-12-08T07:12:25.619Z</time>
      </trkpt>
      <trkpt lat="45.99854" lon="3.98466">
        <ele>357</ele>
        <time>2024-12-08T07:12:26.620Z</time>
      </trkpt>
      <trkpt lat="45.99854" lon="3.98469">
        <ele>357</ele>
        <time>2024-12-08T07:12:27.619Z</time>
      </trkpt>
      <trkpt lat="45.99854" lon="3.98472">
        <ele>357</ele>
        <time>2024-12-08T07:12:28.619Z</time>
      </trkpt>
      <trkpt lat="45.99854" lon="3.98475">
        <ele>357</ele>
        <time>2024-12-08T07:12:29.620Z</time>
      </trkpt>
      <trkpt lat="45.99854" lon="3.98478">
        <ele>357</ele>
        <time>2024-12-08T07:12:30.619Z</time>
      </trkpt>
      <trkpt lat="45.99854" lon="3.98481">
        <ele>358</ele>
        <time>2024-12-08T07:12:31.619Z</time>
      </trkpt>
      <trkpt lat="45.99854" lon="3.98484">
        <ele>358</ele>
        <time>2024-12-08T07:12:32.620Z</time>
      </trkpt>
      <trkpt lat="45.99854" lon="3.98487">
        <ele>358</ele>
        <time>2024-12-08T07:12:33.619Z</time>
      </trkpt>
      <trkpt lat="45.99854" lon="3.9849">
        <ele>358</ele>
        <time>2024-12-08T07:12:34.619Z</time>
      </trkpt>
      <trkpt lat="45.99854" lon="3.98492">
        <ele>358</ele>
        <time>2024-12-08T07:12:35.619Z</time>
      </trkpt>
      <trkpt lat="45.99854" lon="3.98495">
        <ele>357</ele>
        <time>2024-12-08T07:12:36.620Z</time>
      </trkpt>
      <trkpt lat="45.99854" lon="3.98498">
        <ele>357</ele>
        <time>2024-12-08T07:12:37.619Z</time>
      </trkpt>
      <trkpt lat="45.99854" lon="3.985">
        <ele>357</ele>
        <time>2024-12-08T07:12:38.619Z</time>
      </trkpt>
      <trkpt lat="45.99854" lon="3.98503">
        <ele>357</ele>
        <time>2024-12-08T07:12:39.620Z</time>
      </trkpt>
      <trkpt lat="45.99854" lon="3.98506">
        <ele>358</ele>
        <time>2024-12-08T07:12:40.619Z</time>
      </trkpt>
      <trkpt lat="45.99854" lon="3.98509">
        <ele>358</ele>
        <time>2024-12-08T07:12:41.619Z</time>
      </trkpt>
      <trkpt lat="45.99854" lon="3.98512">
        <ele>358</ele>
        <time>2024-12-08T07:12:42.619Z</time>
      </trkpt>
      <trkpt lat="45.99854" lon="3.98515">
        <ele>358</ele>
        <time>2024-12-08T07:12:43.619Z</time>
      </trkpt>
      <trkpt lat="45.99854" lon="3.98517">
        <ele>358</ele>
        <time>2024-12-08T07:12:44.620Z</time>
      </trkpt>
      <trkpt lat="45.99854" lon="3.9852">
        <ele>359</ele>
        <time>2024-12-08T07:12:45.620Z</time>
      </trkpt>
      <trkpt lat="45.99854" lon="3.98523">
        <ele>359</ele>
        <time>2024-12-08T07:12:46.620Z</time>
      </trkpt>
      <trkpt lat="45.99854" lon="3.98526">
        <ele>358</ele>
        <time>2024-12-08T07:12:47.620Z</time>
      </trkpt>
      <trkpt lat="45.99854" lon="3.98529">
        <ele>358</ele>
        <time>2024-12-08T07:12:48.620Z</time>
      </trkpt>
      <trkpt lat="45.99855" lon="3.98531">
        <ele>358</ele>
        <time>2024-12-08T07:12:49.619Z</time>
      </trkpt>
      <trkpt lat="45.99855" lon="3.98534">
        <ele>357</ele>
        <time>2024-12-08T07:12:50.619Z</time>
      </trkpt>
      <trkpt lat="45.99855" lon="3.98537">
        <ele>357</ele>
        <time>2024-12-08T07:12:51.619Z</time>
      </trkpt>
      <trkpt lat="45.99855" lon="3.9854">
        <ele>357</ele>
        <time>2024-12-08T07:12:52.619Z</time>
      </trkpt>
      <trkpt lat="45.99855" lon="3.98542">
        <ele>356</ele>
        <time>2024-12-08T07:12:53.619Z</time>
      </trkpt>
      <trkpt lat="45.99855" lon="3.98545">
        <ele>356</ele>
        <time>2024-12-08T07:12:54.619Z</time>
      </trkpt>
      <trkpt lat="45.99856" lon="3.98548">
        <ele>355</ele>
        <time>2024-12-08T07:12:55.620Z</time>
      </trkpt>
      <trkpt lat="45.99856" lon="3.9855">
        <ele>355</ele>
        <time>2024-12-08T07:12:56.619Z</time>
      </trkpt>
      <trkpt lat="45.99857" lon="3.98553">
        <ele>355</ele>
        <time>2024-12-08T07:12:57.619Z</time>
      </trkpt>
      <trkpt lat="45.99857" lon="3.98556">
        <ele>355</ele>
        <time>2024-12-08T07:12:58.620Z</time>
      </trkpt>
      <trkpt lat="45.99858" lon="3.98559">
        <ele>355</ele>
        <time>2024-12-08T07:12:59.620Z</time>
      </trkpt>
      <trkpt lat="45.99859" lon="3.98562">
        <ele>355</ele>
        <time>2024-12-08T07:13:00.619Z</time>
      </trkpt>
      <trkpt lat="45.9986" lon="3.98565">
        <ele>355</ele>
        <time>2024-12-08T07:13:01.619Z</time>
      </trkpt>
      <trkpt lat="45.9986" lon="3.98567">
        <ele>355</ele>
        <time>2024-12-08T07:13:02.620Z</time>
      </trkpt>
      <trkpt lat="45.99861" lon="3.9857">
        <ele>355</ele>
        <time>2024-12-08T07:13:03.620Z</time>
      </trkpt>
      <trkpt lat="45.99862" lon="3.98572">
        <ele>355</ele>
        <time>2024-12-08T07:13:04.620Z</time>
      </trkpt>
      <trkpt lat="45.99863" lon="3.98574">
        <ele>355</ele>
        <time>2024-12-08T07:13:05.619Z</time>
      </trkpt>
      <trkpt lat="45.99863" lon="3.98577">
        <ele>355</ele>
        <time>2024-12-08T07:13:06.620Z</time>
      </trkpt>
      <trkpt lat="45.99864" lon="3.9858">
        <ele>354</ele>
        <time>2024-12-08T07:13:07.619Z</time>
      </trkpt>
      <trkpt lat="45.99865" lon="3.98582">
        <ele>354</ele>
        <time>2024-12-08T07:13:08.619Z</time>
      </trkpt>
      <trkpt lat="45.99865" lon="3.98584">
        <ele>354</ele>
        <time>2024-12-08T07:13:09.620Z</time>
      </trkpt>
      <trkpt lat="45.99866" lon="3.98587">
        <ele>353</ele>
        <time>2024-12-08T07:13:10.620Z</time>
      </trkpt>
      <trkpt lat="45.99866" lon="3.98589">
        <ele>353</ele>
        <time>2024-12-08T07:13:11.619Z</time>
      </trkpt>
      <trkpt lat="45.99867" lon="3.98592">
        <ele>353</ele>
        <time>2024-12-08T07:13:12.620Z</time>
      </trkpt>
      <trkpt lat="45.99868" lon="3.98595">
        <ele>354</ele>
        <time>2024-12-08T07:13:13.620Z</time>
      </trkpt>
      <trkpt lat="45.99869" lon="3.98598">
        <ele>354</ele>
        <time>2024-12-08T07:13:14.619Z</time>
      </trkpt>
      <trkpt lat="45.99869" lon="3.986">
        <ele>354</ele>
        <time>2024-12-08T07:13:15.619Z</time>
      </trkpt>
      <trkpt lat="45.9987" lon="3.98603">
        <ele>354</ele>
        <time>2024-12-08T07:13:16.620Z</time>
      </trkpt>
      <trkpt lat="45.99871" lon="3.98605">
        <ele>354</ele>
        <time>2024-12-08T07:13:17.620Z</time>
      </trkpt>
      <trkpt lat="45.99871" lon="3.98607">
        <ele>354</ele>
        <time>2024-12-08T07:13:18.619Z</time>
      </trkpt>
      <trkpt lat="45.99872" lon="3.98611">
        <ele>354</ele>
        <time>2024-12-08T07:13:19.620Z</time>
      </trkpt>
      <trkpt lat="45.99873" lon="3.98613">
        <ele>354</ele>
        <time>2024-12-08T07:13:20.619Z</time>
      </trkpt>
      <trkpt lat="45.99874" lon="3.98616">
        <ele>354</ele>
        <time>2024-12-08T07:13:21.620Z</time>
      </trkpt>
      <trkpt lat="45.99874" lon="3.98618">
        <ele>353</ele>
        <time>2024-12-08T07:13:22.619Z</time>
      </trkpt>
      <trkpt lat="45.99875" lon="3.98621">
        <ele>353</ele>
        <time>2024-12-08T07:13:23.619Z</time>
      </trkpt>
      <trkpt lat="45.99876" lon="3.98624">
        <ele>353</ele>
        <time>2024-12-08T07:13:24.619Z</time>
      </trkpt>
      <trkpt lat="45.99876" lon="3.98627">
        <ele>353</ele>
        <time>2024-12-08T07:13:25.620Z</time>
      </trkpt>
      <trkpt lat="45.99877" lon="3.9863">
        <ele>353</ele>
        <time>2024-12-08T07:13:26.619Z</time>
      </trkpt>
      <trkpt lat="45.99878" lon="3.98632">
        <ele>353</ele>
        <time>2024-12-08T07:13:27.620Z</time>
      </trkpt>
      <trkpt lat="45.99878" lon="3.98635">
        <ele>353</ele>
        <time>2024-12-08T07:13:28.619Z</time>
      </trkpt>
      <trkpt lat="45.99879" lon="3.98638">
        <ele>353</ele>
        <time>2024-12-08T07:13:29.619Z</time>
      </trkpt>
      <trkpt lat="45.9988" lon="3.9864">
        <ele>353</ele>
        <time>2024-12-08T07:13:30.620Z</time>
      </trkpt>
      <trkpt lat="45.9988" lon="3.98643">
        <ele>353</ele>
        <time>2024-12-08T07:13:31.619Z</time>
      </trkpt>
      <trkpt lat="45.99881" lon="3.98646">
        <ele>353</ele>
        <time>2024-12-08T07:13:32.619Z</time>
      </trkpt>
      <trkpt lat="45.99881" lon="3.98649">
        <ele>353</ele>
        <time>2024-12-08T07:13:33.620Z</time>
      </trkpt>
      <trkpt lat="45.99882" lon="3.98652">
        <ele>353</ele>
        <time>2024-12-08T07:13:34.619Z</time>
      </trkpt>
      <trkpt lat="45.99882" lon="3.98654">
        <ele>352</ele>
        <time>2024-12-08T07:13:35.619Z</time>
      </trkpt>
      <trkpt lat="45.99882" lon="3.98656">
        <ele>352</ele>
        <time>2024-12-08T07:13:36.619Z</time>
      </trkpt>
      <trkpt lat="45.99882" lon="3.98659">
        <ele>352</ele>
        <time>2024-12-08T07:13:37.620Z</time>
      </trkpt>
      <trkpt lat="45.99883" lon="3.98662">
        <ele>352</ele>
        <time>2024-12-08T07:13:38.620Z</time>
      </trkpt>
      <trkpt lat="45.99883" lon="3.98665">
        <ele>352</ele>
        <time>2024-12-08T07:13:39.619Z</time>
      </trkpt>
      <trkpt lat="45.99884" lon="3.98668">
        <ele>352</ele>
        <time>2024-12-08T07:13:40.619Z</time>
      </trkpt>
      <trkpt lat="45.99884" lon="3.9867">
        <ele>352</ele>
        <time>2024-12-08T07:13:41.619Z</time>
      </trkpt>
      <trkpt lat="45.99885" lon="3.98673">
        <ele>351</ele>
        <time>2024-12-08T07:13:42.620Z</time>
      </trkpt>
      <trkpt lat="45.99885" lon="3.98675">
        <ele>352</ele>
        <time>2024-12-08T07:13:43.620Z</time>
      </trkpt>
      <trkpt lat="45.99886" lon="3.98678">
        <ele>352</ele>
        <time>2024-12-08T07:13:44.620Z</time>
      </trkpt>
      <trkpt lat="45.99886" lon="3.98681">
        <ele>352</ele>
        <time>2024-12-08T07:13:45.620Z</time>
      </trkpt>
      <trkpt lat="45.99887" lon="3.98684">
        <ele>352</ele>
        <time>2024-12-08T07:13:46.619Z</time>
      </trkpt>
      <trkpt lat="45.99887" lon="3.98686">
        <ele>352</ele>
        <time>2024-12-08T07:13:47.620Z</time>
      </trkpt>
      <trkpt lat="45.99887" lon="3.98689">
        <ele>353</ele>
        <time>2024-12-08T07:13:48.620Z</time>
      </trkpt>
      <trkpt lat="45.99888" lon="3.98692">
        <ele>352</ele>
        <time>2024-12-08T07:13:49.620Z</time>
      </trkpt>
      <trkpt lat="45.99888" lon="3.98694">
        <ele>352</ele>
        <time>2024-12-08T07:13:50.620Z</time>
      </trkpt>
      <trkpt lat="45.99888" lon="3.98697">
        <ele>352</ele>
        <time>2024-12-08T07:13:51.619Z</time>
      </trkpt>
      <trkpt lat="45.99889" lon="3.987">
        <ele>352</ele>
        <time>2024-12-08T07:13:52.620Z</time>
      </trkpt>
      <trkpt lat="45.99889" lon="3.98702">
        <ele>352</ele>
        <time>2024-12-08T07:13:53.620Z</time>
      </trkpt>
      <trkpt lat="45.99889" lon="3.98705">
        <ele>352</ele>
        <time>2024-12-08T07:13:54.619Z</time>
      </trkpt>
      <trkpt lat="45.9989" lon="3.98707">
        <ele>352</ele>
        <time>2024-12-08T07:13:55.620Z</time>
      </trkpt>
      <trkpt lat="45.9989" lon="3.9871">
        <ele>352</ele>
        <time>2024-12-08T07:13:56.619Z</time>
      </trkpt>
      <trkpt lat="45.99891" lon="3.98713">
        <ele>352</ele>
        <time>2024-12-08T07:13:57.620Z</time>
      </trkpt>
      <trkpt lat="45.99892" lon="3.98715">
        <ele>352</ele>
        <time>2024-12-08T07:13:58.619Z</time>
      </trkpt>
      <trkpt lat="45.99892" lon="3.98718">
        <ele>352</ele>
        <time>2024-12-08T07:13:59.620Z</time>
      </trkpt>
      <trkpt lat="45.99893" lon="3.98721">
        <ele>352</ele>
        <time>2024-12-08T07:14:00.619Z</time>
      </trkpt>
      <trkpt lat="45.99894" lon="3.98723">
        <ele>353</ele>
        <time>2024-12-08T07:14:01.620Z</time>
      </trkpt>
      <trkpt lat="45.99895" lon="3.98726">
        <ele>353</ele>
        <time>2024-12-08T07:14:02.619Z</time>
      </trkpt>
      <trkpt lat="45.99895" lon="3.98729">
        <ele>353</ele>
        <time>2024-12-08T07:14:03.620Z</time>
      </trkpt>
      <trkpt lat="45.99896" lon="3.98731">
        <ele>353</ele>
        <time>2024-12-08T07:14:04.620Z</time>
      </trkpt>
      <trkpt lat="45.99896" lon="3.98734">
        <ele>353</ele>
        <time>2024-12-08T07:14:05.619Z</time>
      </trkpt>
      <trkpt lat="45.99897" lon="3.98736">
        <ele>352</ele>
        <time>2024-12-08T07:14:06.620Z</time>
      </trkpt>
      <trkpt lat="45.99898" lon="3.98739">
        <ele>352</ele>
        <time>2024-12-08T07:14:07.620Z</time>
      </trkpt>
      <trkpt lat="45.99899" lon="3.98741">
        <ele>352</ele>
        <time>2024-12-08T07:14:08.619Z</time>
      </trkpt>
      <trkpt lat="45.99899" lon="3.98744">
        <ele>352</ele>
        <time>2024-12-08T07:14:09.619Z</time>
      </trkpt>
      <trkpt lat="45.999" lon="3.98746">
        <ele>352</ele>
        <time>2024-12-08T07:14:10.619Z</time>
      </trkpt>
      <trkpt lat="45.99901" lon="3.98749">
        <ele>352</ele>
        <time>2024-12-08T07:14:11.620Z</time>
      </trkpt>
      <trkpt lat="45.99902" lon="3.98751">
        <ele>352</ele>
        <time>2024-12-08T07:14:12.620Z</time>
      </trkpt>
      <trkpt lat="45.99903" lon="3.98754">
        <ele>352</ele>
        <time>2024-12-08T07:14:13.620Z</time>
      </trkpt>
      <trkpt lat="45.99904" lon="3.98756">
        <ele>352</ele>
        <time>2024-12-08T07:14:14.620Z</time>
      </trkpt>
      <trkpt lat="45.99905" lon="3.98758">
        <ele>352</ele>
        <time>2024-12-08T07:14:15.619Z</time>
      </trkpt>
      <trkpt lat="45.99906" lon="3.9876">
        <ele>352</ele>
        <time>2024-12-08T07:14:16.619Z</time>
      </trkpt>
      <trkpt lat="45.99906" lon="3.98763">
        <ele>351</ele>
        <time>2024-12-08T07:14:17.620Z</time>
      </trkpt>
      <trkpt lat="45.99907" lon="3.98766">
        <ele>351</ele>
        <time>2024-12-08T07:14:18.619Z</time>
      </trkpt>
      <trkpt lat="45.99908" lon="3.98768">
        <ele>351</ele>
        <time>2024-12-08T07:14:19.619Z</time>
      </trkpt>
      <trkpt lat="45.99909" lon="3.98771">
        <ele>351</ele>
        <time>2024-12-08T07:14:20.620Z</time>
      </trkpt>
      <trkpt lat="45.9991" lon="3.98773">
        <ele>351</ele>
        <time>2024-12-08T07:14:21.620Z</time>
      </trkpt>
      <trkpt lat="45.99911" lon="3.98775">
        <ele>351</ele>
        <time>2024-12-08T07:14:22.619Z</time>
      </trkpt>
      <trkpt lat="45.99911" lon="3.98778">
        <ele>351</ele>
        <time>2024-12-08T07:14:23.620Z</time>
      </trkpt>
      <trkpt lat="45.99912" lon="3.9878">
        <ele>351</ele>
        <time>2024-12-08T07:14:24.619Z</time>
      </trkpt>
      <trkpt lat="45.99913" lon="3.98783">
        <ele>351</ele>
        <time>2024-12-08T07:14:25.619Z</time>
      </trkpt>
      <trkpt lat="45.99914" lon="3.98785">
        <ele>351</ele>
        <time>2024-12-08T07:14:26.619Z</time>
      </trkpt>
      <trkpt lat="45.99915" lon="3.98788">
        <ele>352</ele>
        <time>2024-12-08T07:14:27.619Z</time>
      </trkpt>
      <trkpt lat="45.99916" lon="3.9879">
        <ele>352</ele>
        <time>2024-12-08T07:14:28.619Z</time>
      </trkpt>
      <trkpt lat="45.99917" lon="3.98792">
        <ele>352</ele>
        <time>2024-12-08T07:14:29.620Z</time>
      </trkpt>
      <trkpt lat="45.99918" lon="3.98794">
        <ele>352</ele>
        <time>2024-12-08T07:14:30.619Z</time>
      </trkpt>
      <trkpt lat="45.99918" lon="3.98797">
        <ele>352</ele>
        <time>2024-12-08T07:14:31.619Z</time>
      </trkpt>
      <trkpt lat="45.99919" lon="3.98799">
        <ele>352</ele>
        <time>2024-12-08T07:14:32.619Z</time>
      </trkpt>
      <trkpt lat="45.9992" lon="3.98802">
        <ele>352</ele>
        <time>2024-12-08T07:14:33.619Z</time>
      </trkpt>
      <trkpt lat="45.99921" lon="3.98804">
        <ele>352</ele>
        <time>2024-12-08T07:14:34.619Z</time>
      </trkpt>
      <trkpt lat="45.99922" lon="3.98806">
        <ele>352</ele>
        <time>2024-12-08T07:14:35.620Z</time>
      </trkpt>
      <trkpt lat="45.99923" lon="3.98808">
        <ele>352</ele>
        <time>2024-12-08T07:14:36.619Z</time>
      </trkpt>
      <trkpt lat="45.99924" lon="3.98811">
        <ele>352</ele>
        <time>2024-12-08T07:14:37.619Z</time>
      </trkpt>
      <trkpt lat="45.99926" lon="3.98813">
        <ele>351</ele>
        <time>2024-12-08T07:14:38.619Z</time>
      </trkpt>
      <trkpt lat="45.99927" lon="3.98816">
        <ele>351</ele>
        <time>2024-12-08T07:14:39.619Z</time>
      </trkpt>
      <trkpt lat="45.99928" lon="3.98818">
        <ele>350</ele>
        <time>2024-12-08T07:14:40.619Z</time>
      </trkpt>
      <trkpt lat="45.99929" lon="3.98821">
        <ele>350</ele>
        <time>2024-12-08T07:14:41.619Z</time>
      </trkpt>
      <trkpt lat="45.9993" lon="3.98823">
        <ele>350</ele>
        <time>2024-12-08T07:14:42.619Z</time>
      </trkpt>
      <trkpt lat="45.99931" lon="3.98825">
        <ele>350</ele>
        <time>2024-12-08T07:14:43.619Z</time>
      </trkpt>
      <trkpt lat="45.99932" lon="3.98827">
        <ele>350</ele>
        <time>2024-12-08T07:14:44.620Z</time>
      </trkpt>
      <trkpt lat="45.99933" lon="3.9883">
        <ele>349</ele>
        <time>2024-12-08T07:14:45.620Z</time>
      </trkpt>
      <trkpt lat="45.99934" lon="3.98832">
        <ele>349</ele>
        <time>2024-12-08T07:14:46.620Z</time>
      </trkpt>
      <trkpt lat="45.99935" lon="3.98834">
        <ele>349</ele>
        <time>2024-12-08T07:14:47.620Z</time>
      </trkpt>
      <trkpt lat="45.99936" lon="3.98836">
        <ele>349</ele>
        <time>2024-12-08T07:14:48.619Z</time>
      </trkpt>
      <trkpt lat="45.99937" lon="3.98838">
        <ele>349</ele>
        <time>2024-12-08T07:14:49.619Z</time>
      </trkpt>
      <trkpt lat="45.99938" lon="3.9884">
        <ele>349</ele>
        <time>2024-12-08T07:14:50.620Z</time>
      </trkpt>
      <trkpt lat="45.9994" lon="3.98842">
        <ele>349</ele>
        <time>2024-12-08T07:14:51.620Z</time>
      </trkpt>
      <trkpt lat="45.99941" lon="3.98844">
        <ele>349</ele>
        <time>2024-12-08T07:14:52.619Z</time>
      </trkpt>
      <trkpt lat="45.99942" lon="3.98846">
        <ele>349</ele>
        <time>2024-12-08T07:14:53.619Z</time>
      </trkpt>
      <trkpt lat="45.99944" lon="3.98848">
        <ele>349</ele>
        <time>2024-12-08T07:14:54.620Z</time>
      </trkpt>
      <trkpt lat="45.99945" lon="3.9885">
        <ele>349</ele>
        <time>2024-12-08T07:14:55.619Z</time>
      </trkpt>
      <trkpt lat="45.99946" lon="3.98852">
        <ele>349</ele>
        <time>2024-12-08T07:14:56.620Z</time>
      </trkpt>
      <trkpt lat="45.99948" lon="3.98854">
        <ele>349</ele>
        <time>2024-12-08T07:14:57.620Z</time>
      </trkpt>
      <trkpt lat="45.99949" lon="3.98856">
        <ele>349</ele>
        <time>2024-12-08T07:14:58.619Z</time>
      </trkpt>
      <trkpt lat="45.9995" lon="3.98858">
        <ele>349</ele>
        <time>2024-12-08T07:14:59.620Z</time>
      </trkpt>
      <trkpt lat="45.99951" lon="3.9886">
        <ele>348</ele>
        <time>2024-12-08T07:15:00.619Z</time>
      </trkpt>
      <trkpt lat="45.99953" lon="3.98862">
        <ele>348</ele>
        <time>2024-12-08T07:15:01.620Z</time>
      </trkpt>
      <trkpt lat="45.99954" lon="3.98864">
        <ele>348</ele>
        <time>2024-12-08T07:15:02.620Z</time>
      </trkpt>
      <trkpt lat="45.99955" lon="3.98866">
        <ele>348</ele>
        <time>2024-12-08T07:15:03.619Z</time>
      </trkpt>
      <trkpt lat="45.99956" lon="3.98869">
        <ele>348</ele>
        <time>2024-12-08T07:15:04.620Z</time>
      </trkpt>
      <trkpt lat="45.99958" lon="3.98871">
        <ele>347</ele>
        <time>2024-12-08T07:15:05.620Z</time>
      </trkpt>
      <trkpt lat="45.99959" lon="3.98873">
        <ele>347</ele>
        <time>2024-12-08T07:15:06.620Z</time>
      </trkpt>
      <trkpt lat="45.99959" lon="3.98876">
        <ele>347</ele>
        <time>2024-12-08T07:15:07.619Z</time>
      </trkpt>
      <trkpt lat="45.9996" lon="3.98878">
        <ele>347</ele>
        <time>2024-12-08T07:15:08.619Z</time>
      </trkpt>
      <trkpt lat="45.99961" lon="3.9888">
        <ele>347</ele>
        <time>2024-12-08T07:15:09.619Z</time>
      </trkpt>
      <trkpt lat="45.99962" lon="3.98882">
        <ele>347</ele>
        <time>2024-12-08T07:15:10.620Z</time>
      </trkpt>
      <trkpt lat="45.99963" lon="3.98884">
        <ele>347</ele>
        <time>2024-12-08T07:15:11.620Z</time>
      </trkpt>
      <trkpt lat="45.99964" lon="3.98886">
        <ele>347</ele>
        <time>2024-12-08T07:15:12.619Z</time>
      </trkpt>
      <trkpt lat="45.99965" lon="3.98889">
        <ele>347</ele>
        <time>2024-12-08T07:15:13.619Z</time>
      </trkpt>
      <trkpt lat="45.99966" lon="3.98891">
        <ele>347</ele>
        <time>2024-12-08T07:15:14.620Z</time>
      </trkpt>
      <trkpt lat="45.99967" lon="3.98894">
        <ele>346</ele>
        <time>2024-12-08T07:15:15.619Z</time>
      </trkpt>
      <trkpt lat="45.99968" lon="3.98896">
        <ele>346</ele>
        <time>2024-12-08T07:15:16.619Z</time>
      </trkpt>
      <trkpt lat="45.9997" lon="3.98898">
        <ele>346</ele>
        <time>2024-12-08T07:15:17.619Z</time>
      </trkpt>
      <trkpt lat="45.99971" lon="3.989">
        <ele>346</ele>
        <time>2024-12-08T07:15:18.619Z</time>
      </trkpt>
      <trkpt lat="45.99972" lon="3.98902">
        <ele>346</ele>
        <time>2024-12-08T07:15:19.620Z</time>
      </trkpt>
      <trkpt lat="45.99973" lon="3.98905">
        <ele>346</ele>
        <time>2024-12-08T07:15:20.619Z</time>
      </trkpt>
      <trkpt lat="45.99974" lon="3.98907">
        <ele>347</ele>
        <time>2024-12-08T07:15:21.619Z</time>
      </trkpt>
      <trkpt lat="45.99975" lon="3.9891">
        <ele>347</ele>
        <time>2024-12-08T07:15:22.620Z</time>
      </trkpt>
      <trkpt lat="45.99977" lon="3.98912">
        <ele>347</ele>
        <time>2024-12-08T07:15:23.620Z</time>
      </trkpt>
      <trkpt lat="45.99978" lon="3.98914">
        <ele>346</ele>
        <time>2024-12-08T07:15:24.619Z</time>
      </trkpt>
      <trkpt lat="45.99979" lon="3.98916">
        <ele>346</ele>
        <time>2024-12-08T07:15:25.620Z</time>
      </trkpt>
      <trkpt lat="45.9998" lon="3.98918">
        <ele>346</ele>
        <time>2024-12-08T07:15:26.619Z</time>
      </trkpt>
      <trkpt lat="45.99981" lon="3.9892">
        <ele>346</ele>
        <time>2024-12-08T07:15:27.620Z</time>
      </trkpt>
      <trkpt lat="45.99982" lon="3.98923">
        <ele>346</ele>
        <time>2024-12-08T07:15:28.620Z</time>
      </trkpt>
      <trkpt lat="45.99984" lon="3.98925">
        <ele>346</ele>
        <time>2024-12-08T07:15:29.619Z</time>
      </trkpt>
      <trkpt lat="45.99985" lon="3.98928">
        <ele>347</ele>
        <time>2024-12-08T07:15:30.620Z</time>
      </trkpt>
      <trkpt lat="45.99986" lon="3.9893">
        <ele>347</ele>
        <time>2024-12-08T07:15:31.620Z</time>
      </trkpt>
      <trkpt lat="45.99987" lon="3.98932">
        <ele>346</ele>
        <time>2024-12-08T07:15:32.619Z</time>
      </trkpt>
      <trkpt lat="45.99988" lon="3.98935">
        <ele>346</ele>
        <time>2024-12-08T07:15:33.619Z</time>
      </trkpt>
      <trkpt lat="45.99989" lon="3.98937">
        <ele>346</ele>
        <time>2024-12-08T07:15:34.619Z</time>
      </trkpt>
      <trkpt lat="45.9999" lon="3.98939">
        <ele>346</ele>
        <time>2024-12-08T07:15:35.620Z</time>
      </trkpt>
      <trkpt lat="45.99991" lon="3.98942">
        <ele>346</ele>
        <time>2024-12-08T07:15:36.619Z</time>
      </trkpt>
      <trkpt lat="45.99992" lon="3.98944">
        <ele>346</ele>
        <time>2024-12-08T07:15:37.620Z</time>
      </trkpt>
      <trkpt lat="45.99993" lon="3.98946">
        <ele>346</ele>
        <time>2024-12-08T07:15:38.620Z</time>
      </trkpt>
      <trkpt lat="45.99994" lon="3.98949">
        <ele>347</ele>
        <time>2024-12-08T07:15:39.619Z</time>
      </trkpt>
      <trkpt lat="45.99995" lon="3.98951">
        <ele>347</ele>
        <time>2024-12-08T07:15:40.619Z</time>
      </trkpt>
      <trkpt lat="45.99996" lon="3.98952">
        <ele>347</ele>
        <time>2024-12-08T07:15:41.619Z</time>
      </trkpt>
      <trkpt lat="45.99997" lon="3.98955">
        <ele>346</ele>
        <time>2024-12-08T07:15:42.619Z</time>
      </trkpt>
      <trkpt lat="45.99998" lon="3.98956">
        <ele>346</ele>
        <time>2024-12-08T07:15:43.619Z</time>
      </trkpt>
      <trkpt lat="45.99999" lon="3.98959">
        <ele>346</ele>
        <time>2024-12-08T07:15:44.620Z</time>
      </trkpt>
      <trkpt lat="45.99999" lon="3.98961">
        <ele>347</ele>
        <time>2024-12-08T07:15:45.620Z</time>
      </trkpt>
      <trkpt lat="46" lon="3.98964">
        <ele>346</ele>
        <time>2024-12-08T07:15:46.619Z</time>
      </trkpt>
      <trkpt lat="46.00001" lon="3.98966">
        <ele>346</ele>
        <time>2024-12-08T07:15:47.620Z</time>
      </trkpt>
      <trkpt lat="46.00002" lon="3.98968">
        <ele>346</ele>
        <time>2024-12-08T07:15:48.620Z</time>
      </trkpt>
      <trkpt lat="46.00004" lon="3.9897">
        <ele>345</ele>
        <time>2024-12-08T07:15:49.619Z</time>
      </trkpt>
      <trkpt lat="46.00005" lon="3.98972">
        <ele>345</ele>
        <time>2024-12-08T07:15:50.619Z</time>
      </trkpt>
      <trkpt lat="46.00006" lon="3.98974">
        <ele>345</ele>
        <time>2024-12-08T07:15:51.619Z</time>
      </trkpt>
      <trkpt lat="46.00007" lon="3.98976">
        <ele>345</ele>
        <time>2024-12-08T07:15:52.620Z</time>
      </trkpt>
      <trkpt lat="46.00008" lon="3.98979">
        <ele>345</ele>
        <time>2024-12-08T07:15:53.619Z</time>
      </trkpt>
      <trkpt lat="46.00009" lon="3.98981">
        <ele>344</ele>
        <time>2024-12-08T07:15:54.619Z</time>
      </trkpt>
      <trkpt lat="46.0001" lon="3.98983">
        <ele>344</ele>
        <time>2024-12-08T07:15:55.620Z</time>
      </trkpt>
      <trkpt lat="46.00011" lon="3.98985">
        <ele>344</ele>
        <time>2024-12-08T07:15:56.619Z</time>
      </trkpt>
      <trkpt lat="46.00012" lon="3.98987">
        <ele>343</ele>
        <time>2024-12-08T07:15:57.620Z</time>
      </trkpt>
      <trkpt lat="46.00013" lon="3.98989">
        <ele>343</ele>
        <time>2024-12-08T07:15:58.620Z</time>
      </trkpt>
      <trkpt lat="46.00014" lon="3.98991">
        <ele>342</ele>
        <time>2024-12-08T07:15:59.619Z</time>
      </trkpt>
      <trkpt lat="46.00015" lon="3.98993">
        <ele>342</ele>
        <time>2024-12-08T07:16:00.619Z</time>
      </trkpt>
      <trkpt lat="46.00016" lon="3.98995">
        <ele>342</ele>
        <time>2024-12-08T07:16:01.619Z</time>
      </trkpt>
      <trkpt lat="46.00018" lon="3.98997">
        <ele>342</ele>
        <time>2024-12-08T07:16:02.620Z</time>
      </trkpt>
      <trkpt lat="46.00019" lon="3.98999">
        <ele>342</ele>
        <time>2024-12-08T07:16:03.619Z</time>
      </trkpt>
      <trkpt lat="46.00019" lon="3.99002">
        <ele>343</ele>
        <time>2024-12-08T07:16:04.619Z</time>
      </trkpt>
      <trkpt lat="46.00021" lon="3.99004">
        <ele>343</ele>
        <time>2024-12-08T07:16:05.619Z</time>
      </trkpt>
      <trkpt lat="46.00022" lon="3.99006">
        <ele>343</ele>
        <time>2024-12-08T07:16:06.620Z</time>
      </trkpt>
      <trkpt lat="46.00023" lon="3.99008">
        <ele>344</ele>
        <time>2024-12-08T07:16:07.619Z</time>
      </trkpt>
      <trkpt lat="46.00024" lon="3.9901">
        <ele>344</ele>
        <time>2024-12-08T07:16:08.619Z</time>
      </trkpt>
      <trkpt lat="46.00026" lon="3.99013">
        <ele>344</ele>
        <time>2024-12-08T07:16:09.620Z</time>
      </trkpt>
      <trkpt lat="46.00027" lon="3.99015">
        <ele>344</ele>
        <time>2024-12-08T07:16:10.619Z</time>
      </trkpt>
      <trkpt lat="46.00027" lon="3.99018">
        <ele>345</ele>
        <time>2024-12-08T07:16:11.620Z</time>
      </trkpt>
      <trkpt lat="46.00028" lon="3.9902">
        <ele>345</ele>
        <time>2024-12-08T07:16:12.619Z</time>
      </trkpt>
      <trkpt lat="46.00029" lon="3.99022">
        <ele>346</ele>
        <time>2024-12-08T07:16:13.619Z</time>
      </trkpt>
      <trkpt lat="46.0003" lon="3.99025">
        <ele>346</ele>
        <time>2024-12-08T07:16:14.619Z</time>
      </trkpt>
      <trkpt lat="46.00031" lon="3.99027">
        <ele>347</ele>
        <time>2024-12-08T07:16:15.620Z</time>
      </trkpt>
      <trkpt lat="46.00032" lon="3.99029">
        <ele>347</ele>
        <time>2024-12-08T07:16:16.620Z</time>
      </trkpt>
      <trkpt lat="46.00033" lon="3.99032">
        <ele>347</ele>
        <time>2024-12-08T07:16:17.619Z</time>
      </trkpt>
      <trkpt lat="46.00034" lon="3.99035">
        <ele>347</ele>
        <time>2024-12-08T07:16:18.620Z</time>
      </trkpt>
      <trkpt lat="46.00035" lon="3.99037">
        <ele>347</ele>
        <time>2024-12-08T07:16:19.619Z</time>
      </trkpt>
      <trkpt lat="46.00036" lon="3.9904">
        <ele>346</ele>
        <time>2024-12-08T07:16:20.620Z</time>
      </trkpt>
      <trkpt lat="46.00036" lon="3.99042">
        <ele>346</ele>
        <time>2024-12-08T07:16:21.619Z</time>
      </trkpt>
      <trkpt lat="46.00037" lon="3.99044">
        <ele>346</ele>
        <time>2024-12-08T07:16:22.619Z</time>
      </trkpt>
      <trkpt lat="46.00038" lon="3.99046">
        <ele>345</ele>
        <time>2024-12-08T07:16:23.620Z</time>
      </trkpt>
      <trkpt lat="46.00039" lon="3.99049">
        <ele>345</ele>
        <time>2024-12-08T07:16:24.620Z</time>
      </trkpt>
      <trkpt lat="46.0004" lon="3.99051">
        <ele>345</ele>
        <time>2024-12-08T07:16:25.619Z</time>
      </trkpt>
      <trkpt lat="46.00041" lon="3.99053">
        <ele>345</ele>
        <time>2024-12-08T07:16:26.620Z</time>
      </trkpt>
      <trkpt lat="46.00042" lon="3.99056">
        <ele>345</ele>
        <time>2024-12-08T07:16:27.620Z</time>
      </trkpt>
      <trkpt lat="46.00043" lon="3.99059">
        <ele>345</ele>
        <time>2024-12-08T07:16:28.620Z</time>
      </trkpt>
      <trkpt lat="46.00044" lon="3.99061">
        <ele>344</ele>
        <time>2024-12-08T07:16:29.619Z</time>
      </trkpt>
      <trkpt lat="46.00044" lon="3.99064">
        <ele>344</ele>
        <time>2024-12-08T07:16:30.620Z</time>
      </trkpt>
      <trkpt lat="46.00045" lon="3.99066">
        <ele>343</ele>
        <time>2024-12-08T07:16:31.620Z</time>
      </trkpt>
      <trkpt lat="46.00046" lon="3.99068">
        <ele>343</ele>
        <time>2024-12-08T07:16:32.620Z</time>
      </trkpt>
      <trkpt lat="46.00047" lon="3.99071">
        <ele>343</ele>
        <time>2024-12-08T07:16:33.619Z</time>
      </trkpt>
      <trkpt lat="46.00048" lon="3.99074">
        <ele>343</ele>
        <time>2024-12-08T07:16:34.619Z</time>
      </trkpt>
      <trkpt lat="46.00049" lon="3.99076">
        <ele>343</ele>
        <time>2024-12-08T07:16:35.619Z</time>
      </trkpt>
      <trkpt lat="46.00049" lon="3.99079">
        <ele>343</ele>
        <time>2024-12-08T07:16:36.620Z</time>
      </trkpt>
      <trkpt lat="46.0005" lon="3.99081">
        <ele>343</ele>
        <time>2024-12-08T07:16:37.619Z</time>
      </trkpt>
      <trkpt lat="46.00051" lon="3.99084">
        <ele>343</ele>
        <time>2024-12-08T07:16:38.620Z</time>
      </trkpt>
      <trkpt lat="46.00051" lon="3.99086">
        <ele>343</ele>
        <time>2024-12-08T07:16:39.620Z</time>
      </trkpt>
      <trkpt lat="46.00052" lon="3.99088">
        <ele>343</ele>
        <time>2024-12-08T07:16:40.620Z</time>
      </trkpt>
      <trkpt lat="46.00053" lon="3.99091">
        <ele>343</ele>
        <time>2024-12-08T07:16:41.619Z</time>
      </trkpt>
      <trkpt lat="46.00054" lon="3.99093">
        <ele>343</ele>
        <time>2024-12-08T07:16:42.619Z</time>
      </trkpt>
      <trkpt lat="46.00055" lon="3.99096">
        <ele>343</ele>
        <time>2024-12-08T07:16:43.620Z</time>
      </trkpt>
      <trkpt lat="46.00055" lon="3.99098">
        <ele>343</ele>
        <time>2024-12-08T07:16:44.620Z</time>
      </trkpt>
      <trkpt lat="46.00056" lon="3.99101">
        <ele>343</ele>
        <time>2024-12-08T07:16:45.620Z</time>
      </trkpt>
      <trkpt lat="46.00056" lon="3.99103">
        <ele>343</ele>
        <time>2024-12-08T07:16:46.620Z</time>
      </trkpt>
      <trkpt lat="46.00057" lon="3.99105">
        <ele>343</ele>
        <time>2024-12-08T07:16:47.619Z</time>
      </trkpt>
      <trkpt lat="46.00058" lon="3.99108">
        <ele>343</ele>
        <time>2024-12-08T07:16:48.620Z</time>
      </trkpt>
      <trkpt lat="46.00058" lon="3.9911">
        <ele>343</ele>
        <time>2024-12-08T07:16:49.620Z</time>
      </trkpt>
      <trkpt lat="46.00059" lon="3.99113">
        <ele>343</ele>
        <time>2024-12-08T07:16:50.619Z</time>
      </trkpt>
      <trkpt lat="46.0006" lon="3.99115">
        <ele>343</ele>
        <time>2024-12-08T07:16:51.619Z</time>
      </trkpt>
      <trkpt lat="46.0006" lon="3.99118">
        <ele>343</ele>
        <time>2024-12-08T07:16:52.619Z</time>
      </trkpt>
      <trkpt lat="46.00061" lon="3.9912">
        <ele>343</ele>
        <time>2024-12-08T07:16:53.620Z</time>
      </trkpt>
      <trkpt lat="46.00061" lon="3.99123">
        <ele>342</ele>
        <time>2024-12-08T07:16:54.619Z</time>
      </trkpt>
      <trkpt lat="46.00062" lon="3.99125">
        <ele>342</ele>
        <time>2024-12-08T07:16:55.619Z</time>
      </trkpt>
      <trkpt lat="46.00063" lon="3.99128">
        <ele>342</ele>
        <time>2024-12-08T07:16:56.620Z</time>
      </trkpt>
      <trkpt lat="46.00064" lon="3.9913">
        <ele>342</ele>
        <time>2024-12-08T07:16:57.619Z</time>
      </trkpt>
      <trkpt lat="46.00064" lon="3.99132">
        <ele>342</ele>
        <time>2024-12-08T07:16:58.619Z</time>
      </trkpt>
      <trkpt lat="46.00064" lon="3.99134">
        <ele>341</ele>
        <time>2024-12-08T07:16:59.620Z</time>
      </trkpt>
      <trkpt lat="46.00065" lon="3.99136">
        <ele>341</ele>
        <time>2024-12-08T07:17:00.619Z</time>
      </trkpt>
      <trkpt lat="46.00065" lon="3.99138">
        <ele>341</ele>
        <time>2024-12-08T07:17:01.619Z</time>
      </trkpt>
      <trkpt lat="46.00066" lon="3.99141">
        <ele>341</ele>
        <time>2024-12-08T07:17:02.620Z</time>
      </trkpt>
      <trkpt lat="46.00066" lon="3.99143">
        <ele>340</ele>
        <time>2024-12-08T07:17:03.619Z</time>
      </trkpt>
      <trkpt lat="46.00067" lon="3.99146">
        <ele>340</ele>
        <time>2024-12-08T07:17:04.619Z</time>
      </trkpt>
      <trkpt lat="46.00068" lon="3.99148">
        <ele>340</ele>
        <time>2024-12-08T07:17:05.619Z</time>
      </trkpt>
      <trkpt lat="46.00068" lon="3.99151">
        <ele>340</ele>
        <time>2024-12-08T07:17:06.619Z</time>
      </trkpt>
      <trkpt lat="46.00069" lon="3.99153">
        <ele>341</ele>
        <time>2024-12-08T07:17:07.619Z</time>
      </trkpt>
      <trkpt lat="46.00069" lon="3.99156">
        <ele>341</ele>
        <time>2024-12-08T07:17:08.619Z</time>
      </trkpt>
      <trkpt lat="46.0007" lon="3.99158">
        <ele>341</ele>
        <time>2024-12-08T07:17:09.619Z</time>
      </trkpt>
      <trkpt lat="46.0007" lon="3.9916">
        <ele>341</ele>
        <time>2024-12-08T07:17:10.619Z</time>
      </trkpt>
      <trkpt lat="46.00071" lon="3.99162">
        <ele>341</ele>
        <time>2024-12-08T07:17:11.619Z</time>
      </trkpt>
      <trkpt lat="46.00072" lon="3.99165">
        <ele>341</ele>
        <time>2024-12-08T07:17:12.620Z</time>
      </trkpt>
      <trkpt lat="46.00073" lon="3.99167">
        <ele>341</ele>
        <time>2024-12-08T07:17:13.619Z</time>
      </trkpt>
      <trkpt lat="46.00073" lon="3.99169">
        <ele>341</ele>
        <time>2024-12-08T07:17:14.620Z</time>
      </trkpt>
      <trkpt lat="46.00074" lon="3.99172">
        <ele>341</ele>
        <time>2024-12-08T07:17:15.619Z</time>
      </trkpt>
      <trkpt lat="46.00075" lon="3.99174">
        <ele>342</ele>
        <time>2024-12-08T07:17:16.619Z</time>
      </trkpt>
      <trkpt lat="46.00075" lon="3.99177">
        <ele>342</ele>
        <time>2024-12-08T07:17:17.620Z</time>
      </trkpt>
      <trkpt lat="46.00076" lon="3.99179">
        <ele>342</ele>
        <time>2024-12-08T07:17:18.620Z</time>
      </trkpt>
      <trkpt lat="46.00076" lon="3.99181">
        <ele>342</ele>
        <time>2024-12-08T07:17:19.620Z</time>
      </trkpt>
      <trkpt lat="46.00077" lon="3.99184">
        <ele>342</ele>
        <time>2024-12-08T07:17:20.620Z</time>
      </trkpt>
      <trkpt lat="46.00078" lon="3.99186">
        <ele>342</ele>
        <time>2024-12-08T07:17:21.620Z</time>
      </trkpt>
      <trkpt lat="46.00078" lon="3.99188">
        <ele>342</ele>
        <time>2024-12-08T07:17:22.619Z</time>
      </trkpt>
      <trkpt lat="46.00079" lon="3.9919">
        <ele>342</ele>
        <time>2024-12-08T07:17:23.620Z</time>
      </trkpt>
      <trkpt lat="46.00079" lon="3.99192">
        <ele>342</ele>
        <time>2024-12-08T07:17:24.620Z</time>
      </trkpt>
      <trkpt lat="46.00079" lon="3.99195">
        <ele>342</ele>
        <time>2024-12-08T07:17:25.619Z</time>
      </trkpt>
      <trkpt lat="46.0008" lon="3.99197">
        <ele>342</ele>
        <time>2024-12-08T07:17:26.620Z</time>
      </trkpt>
      <trkpt lat="46.00081" lon="3.99199">
        <ele>342</ele>
        <time>2024-12-08T07:17:27.620Z</time>
      </trkpt>
      <trkpt lat="46.00082" lon="3.99201">
        <ele>342</ele>
        <time>2024-12-08T07:17:28.619Z</time>
      </trkpt>
      <trkpt lat="46.00082" lon="3.99204">
        <ele>341</ele>
        <time>2024-12-08T07:17:29.619Z</time>
      </trkpt>
      <trkpt lat="46.00083" lon="3.99206">
        <ele>341</ele>
        <time>2024-12-08T07:17:30.619Z</time>
      </trkpt>
      <trkpt lat="46.00083" lon="3.99208">
        <ele>341</ele>
        <time>2024-12-08T07:17:31.620Z</time>
      </trkpt>
      <trkpt lat="46.00084" lon="3.99211">
        <ele>341</ele>
        <time>2024-12-08T07:17:32.619Z</time>
      </trkpt>
      <trkpt lat="46.00084" lon="3.99213">
        <ele>341</ele>
        <time>2024-12-08T07:17:33.619Z</time>
      </trkpt>
      <trkpt lat="46.00085" lon="3.99215">
        <ele>341</ele>
        <time>2024-12-08T07:17:34.620Z</time>
      </trkpt>
      <trkpt lat="46.00086" lon="3.99217">
        <ele>342</ele>
        <time>2024-12-08T07:17:35.619Z</time>
      </trkpt>
      <trkpt lat="46.00086" lon="3.99219">
        <ele>342</ele>
        <time>2024-12-08T07:17:36.619Z</time>
      </trkpt>
      <trkpt lat="46.00087" lon="3.99221">
        <ele>342</ele>
        <time>2024-12-08T07:17:37.619Z</time>
      </trkpt>
      <trkpt lat="46.00087" lon="3.99224">
        <ele>342</ele>
        <time>2024-12-08T07:17:38.619Z</time>
      </trkpt>
      <trkpt lat="46.00088" lon="3.99226">
        <ele>342</ele>
        <time>2024-12-08T07:17:39.619Z</time>
      </trkpt>
      <trkpt lat="46.00089" lon="3.99228">
        <ele>341</ele>
        <time>2024-12-08T07:17:40.620Z</time>
      </trkpt>
      <trkpt lat="46.00089" lon="3.99231">
        <ele>341</ele>
        <time>2024-12-08T07:17:41.620Z</time>
      </trkpt>
      <trkpt lat="46.0009" lon="3.99233">
        <ele>341</ele>
        <time>2024-12-08T07:17:42.620Z</time>
      </trkpt>
      <trkpt lat="46.0009" lon="3.99236">
        <ele>341</ele>
        <time>2024-12-08T07:17:43.620Z</time>
      </trkpt>
      <trkpt lat="46.00091" lon="3.99238">
        <ele>341</ele>
        <time>2024-12-08T07:17:44.620Z</time>
      </trkpt>
      <trkpt lat="46.00092" lon="3.9924">
        <ele>341</ele>
        <time>2024-12-08T07:17:45.620Z</time>
      </trkpt>
      <trkpt lat="46.00093" lon="3.99242">
        <ele>341</ele>
        <time>2024-12-08T07:17:46.619Z</time>
      </trkpt>
      <trkpt lat="46.00094" lon="3.99244">
        <ele>342</ele>
        <time>2024-12-08T07:17:47.619Z</time>
      </trkpt>
      <trkpt lat="46.00094" lon="3.99247">
        <ele>342</ele>
        <time>2024-12-08T07:17:48.619Z</time>
      </trkpt>
      <trkpt lat="46.00095" lon="3.99249">
        <ele>342</ele>
        <time>2024-12-08T07:17:49.619Z</time>
      </trkpt>
      <trkpt lat="46.00095" lon="3.9925">
        <ele>342</ele>
        <time>2024-12-08T07:17:50.620Z</time>
      </trkpt>
      <trkpt lat="46.00096" lon="3.99253">
        <ele>342</ele>
        <time>2024-12-08T07:17:51.619Z</time>
      </trkpt>
      <trkpt lat="46.00096" lon="3.99255">
        <ele>342</ele>
        <time>2024-12-08T07:17:52.620Z</time>
      </trkpt>
      <trkpt lat="46.00097" lon="3.99257">
        <ele>342</ele>
        <time>2024-12-08T07:17:53.619Z</time>
      </trkpt>
      <trkpt lat="46.00098" lon="3.9926">
        <ele>342</ele>
        <time>2024-12-08T07:17:54.619Z</time>
      </trkpt>
      <trkpt lat="46.00098" lon="3.99263">
        <ele>342</ele>
        <time>2024-12-08T07:17:55.619Z</time>
      </trkpt>
      <trkpt lat="46.00099" lon="3.99265">
        <ele>342</ele>
        <time>2024-12-08T07:17:56.620Z</time>
      </trkpt>
      <trkpt lat="46.00099" lon="3.99268">
        <ele>341</ele>
        <time>2024-12-08T07:17:57.620Z</time>
      </trkpt>
      <trkpt lat="46.001" lon="3.9927">
        <ele>341</ele>
        <time>2024-12-08T07:17:58.619Z</time>
      </trkpt>
      <trkpt lat="46.00101" lon="3.99272">
        <ele>341</ele>
        <time>2024-12-08T07:17:59.620Z</time>
      </trkpt>
      <trkpt lat="46.00102" lon="3.99275">
        <ele>341</ele>
        <time>2024-12-08T07:18:00.619Z</time>
      </trkpt>
      <trkpt lat="46.00102" lon="3.99277">
        <ele>341</ele>
        <time>2024-12-08T07:18:01.620Z</time>
      </trkpt>
      <trkpt lat="46.00103" lon="3.99279">
        <ele>340</ele>
        <time>2024-12-08T07:18:02.619Z</time>
      </trkpt>
      <trkpt lat="46.00103" lon="3.99282">
        <ele>340</ele>
        <time>2024-12-08T07:18:03.620Z</time>
      </trkpt>
      <trkpt lat="46.00104" lon="3.99284">
        <ele>340</ele>
        <time>2024-12-08T07:18:04.620Z</time>
      </trkpt>
      <trkpt lat="46.00105" lon="3.99286">
        <ele>341</ele>
        <time>2024-12-08T07:18:05.620Z</time>
      </trkpt>
      <trkpt lat="46.00105" lon="3.99289">
        <ele>341</ele>
        <time>2024-12-08T07:18:06.620Z</time>
      </trkpt>
      <trkpt lat="46.00106" lon="3.99291">
        <ele>341</ele>
        <time>2024-12-08T07:18:07.620Z</time>
      </trkpt>
      <trkpt lat="46.00107" lon="3.99294">
        <ele>341</ele>
        <time>2024-12-08T07:18:08.619Z</time>
      </trkpt>
      <trkpt lat="46.00107" lon="3.99296">
        <ele>341</ele>
        <time>2024-12-08T07:18:09.620Z</time>
      </trkpt>
      <trkpt lat="46.00108" lon="3.99298">
        <ele>340</ele>
        <time>2024-12-08T07:18:10.619Z</time>
      </trkpt>
      <trkpt lat="46.00109" lon="3.993">
        <ele>340</ele>
        <time>2024-12-08T07:18:11.619Z</time>
      </trkpt>
      <trkpt lat="46.00109" lon="3.99302">
        <ele>340</ele>
        <time>2024-12-08T07:18:12.619Z</time>
      </trkpt>
      <trkpt lat="46.0011" lon="3.99304">
        <ele>340</ele>
        <time>2024-12-08T07:18:13.619Z</time>
      </trkpt>
      <trkpt lat="46.00111" lon="3.99306">
        <ele>340</ele>
        <time>2024-12-08T07:18:14.619Z</time>
      </trkpt>
      <trkpt lat="46.00111" lon="3.99308">
        <ele>340</ele>
        <time>2024-12-08T07:18:15.619Z</time>
      </trkpt>
      <trkpt lat="46.00112" lon="3.99309">
        <ele>339</ele>
        <time>2024-12-08T07:18:16.620Z</time>
      </trkpt>
      <trkpt lat="46.00113" lon="3.99311">
        <ele>339</ele>
        <time>2024-12-08T07:18:17.619Z</time>
      </trkpt>
      <trkpt lat="46.00113" lon="3.99311">
        <ele>339</ele>
        <time>2024-12-08T07:18:18.619Z</time>
      </trkpt>
      <trkpt lat="46.00113" lon="3.99314">
        <ele>339</ele>
        <time>2024-12-08T07:18:19.619Z</time>
      </trkpt>
      <trkpt lat="46.00114" lon="3.99316">
        <ele>339</ele>
        <time>2024-12-08T07:18:20.620Z</time>
      </trkpt>
      <trkpt lat="46.00115" lon="3.99318">
        <ele>339</ele>
        <time>2024-12-08T07:18:21.619Z</time>
      </trkpt>
      <trkpt lat="46.00116" lon="3.9932">
        <ele>339</ele>
        <time>2024-12-08T07:18:22.619Z</time>
      </trkpt>
      <trkpt lat="46.00117" lon="3.99322">
        <ele>339</ele>
        <time>2024-12-08T07:18:23.620Z</time>
      </trkpt>
      <trkpt lat="46.00118" lon="3.99324">
        <ele>339</ele>
        <time>2024-12-08T07:18:24.619Z</time>
      </trkpt>
      <trkpt lat="46.00119" lon="3.99326">
        <ele>339</ele>
        <time>2024-12-08T07:18:25.620Z</time>
      </trkpt>
      <trkpt lat="46.00119" lon="3.99329">
        <ele>340</ele>
        <time>2024-12-08T07:18:26.619Z</time>
      </trkpt>
      <trkpt lat="46.0012" lon="3.99331">
        <ele>340</ele>
        <time>2024-12-08T07:18:27.620Z</time>
      </trkpt>
      <trkpt lat="46.00121" lon="3.99333">
        <ele>339</ele>
        <time>2024-12-08T07:18:28.619Z</time>
      </trkpt>
      <trkpt lat="46.00122" lon="3.99335">
        <ele>339</ele>
        <time>2024-12-08T07:18:29.619Z</time>
      </trkpt>
      <trkpt lat="46.00123" lon="3.99337">
        <ele>339</ele>
        <time>2024-12-08T07:18:30.619Z</time>
      </trkpt>
      <trkpt lat="46.00124" lon="3.99339">
        <ele>339</ele>
        <time>2024-12-08T07:18:31.620Z</time>
      </trkpt>
      <trkpt lat="46.00125" lon="3.99341">
        <ele>339</ele>
        <time>2024-12-08T07:18:32.619Z</time>
      </trkpt>
      <trkpt lat="46.00126" lon="3.99343">
        <ele>339</ele>
        <time>2024-12-08T07:18:33.619Z</time>
      </trkpt>
      <trkpt lat="46.00127" lon="3.99345">
        <ele>339</ele>
        <time>2024-12-08T07:18:34.619Z</time>
      </trkpt>
      <trkpt lat="46.00128" lon="3.99346">
        <ele>339</ele>
        <time>2024-12-08T07:18:35.619Z</time>
      </trkpt>
      <trkpt lat="46.00129" lon="3.99348">
        <ele>339</ele>
        <time>2024-12-08T07:18:36.620Z</time>
      </trkpt>
      <trkpt lat="46.0013" lon="3.9935">
        <ele>339</ele>
        <time>2024-12-08T07:18:37.620Z</time>
      </trkpt>
      <trkpt lat="46.00131" lon="3.99351">
        <ele>339</ele>
        <time>2024-12-08T07:18:38.619Z</time>
      </trkpt>
      <trkpt lat="46.00132" lon="3.99353">
        <ele>339</ele>
        <time>2024-12-08T07:18:39.620Z</time>
      </trkpt>
      <trkpt lat="46.00133" lon="3.99355">
        <ele>339</ele>
        <time>2024-12-08T07:18:40.620Z</time>
      </trkpt>
      <trkpt lat="46.00133" lon="3.99357">
        <ele>339</ele>
        <time>2024-12-08T07:18:41.619Z</time>
      </trkpt>
      <trkpt lat="46.00134" lon="3.99359">
        <ele>339</ele>
        <time>2024-12-08T07:18:42.619Z</time>
      </trkpt>
      <trkpt lat="46.00135" lon="3.99361">
        <ele>338</ele>
        <time>2024-12-08T07:18:43.620Z</time>
      </trkpt>
      <trkpt lat="46.00135" lon="3.99363">
        <ele>338</ele>
        <time>2024-12-08T07:18:44.619Z</time>
      </trkpt>
      <trkpt lat="46.00136" lon="3.99365">
        <ele>338</ele>
        <time>2024-12-08T07:18:45.620Z</time>
      </trkpt>
      <trkpt lat="46.00137" lon="3.99367">
        <ele>339</ele>
        <time>2024-12-08T07:18:46.619Z</time>
      </trkpt>
      <trkpt lat="46.00138" lon="3.99369">
        <ele>338</ele>
        <time>2024-12-08T07:18:47.619Z</time>
      </trkpt>
      <trkpt lat="46.0014" lon="3.99371">
        <ele>339</ele>
        <time>2024-12-08T07:18:48.620Z</time>
      </trkpt>
      <trkpt lat="46.00141" lon="3.99374">
        <ele>339</ele>
        <time>2024-12-08T07:18:49.620Z</time>
      </trkpt>
      <trkpt lat="46.00142" lon="3.99376">
        <ele>339</ele>
        <time>2024-12-08T07:18:50.619Z</time>
      </trkpt>
      <trkpt lat="46.00143" lon="3.99378">
        <ele>340</ele>
        <time>2024-12-08T07:18:51.619Z</time>
      </trkpt>
      <trkpt lat="46.00144" lon="3.9938">
        <ele>340</ele>
        <time>2024-12-08T07:18:52.619Z</time>
      </trkpt>
      <trkpt lat="46.00145" lon="3.99382">
        <ele>340</ele>
        <time>2024-12-08T07:18:53.620Z</time>
      </trkpt>
      <trkpt lat="46.00146" lon="3.99384">
        <ele>340</ele>
        <time>2024-12-08T07:18:54.619Z</time>
      </trkpt>
      <trkpt lat="46.00147" lon="3.99385">
        <ele>340</ele>
        <time>2024-12-08T07:18:55.619Z</time>
      </trkpt>
      <trkpt lat="46.00148" lon="3.99388">
        <ele>340</ele>
        <time>2024-12-08T07:18:56.619Z</time>
      </trkpt>
      <trkpt lat="46.00149" lon="3.9939">
        <ele>340</ele>
        <time>2024-12-08T07:18:57.620Z</time>
      </trkpt>
      <trkpt lat="46.0015" lon="3.99391">
        <ele>340</ele>
        <time>2024-12-08T07:18:58.620Z</time>
      </trkpt>
      <trkpt lat="46.0015" lon="3.99393">
        <ele>340</ele>
        <time>2024-12-08T07:18:59.619Z</time>
      </trkpt>
      <trkpt lat="46.00151" lon="3.99395">
        <ele>340</ele>
        <time>2024-12-08T07:19:00.620Z</time>
      </trkpt>
      <trkpt lat="46.00152" lon="3.99397">
        <ele>340</ele>
        <time>2024-12-08T07:19:01.619Z</time>
      </trkpt>
      <trkpt lat="46.00153" lon="3.99399">
        <ele>339</ele>
        <time>2024-12-08T07:19:02.619Z</time>
      </trkpt>
      <trkpt lat="46.00154" lon="3.99401">
        <ele>339</ele>
        <time>2024-12-08T07:19:03.619Z</time>
      </trkpt>
      <trkpt lat="46.00154" lon="3.99402">
        <ele>339</ele>
        <time>2024-12-08T07:19:04.620Z</time>
      </trkpt>
      <trkpt lat="46.00155" lon="3.99405">
        <ele>339</ele>
        <time>2024-12-08T07:19:05.619Z</time>
      </trkpt>
      <trkpt lat="46.00156" lon="3.99407">
        <ele>339</ele>
        <time>2024-12-08T07:19:06.620Z</time>
      </trkpt>
      <trkpt lat="46.00157" lon="3.9941">
        <ele>340</ele>
        <time>2024-12-08T07:19:07.620Z</time>
      </trkpt>
      <trkpt lat="46.00158" lon="3.99412">
        <ele>340</ele>
        <time>2024-12-08T07:19:08.620Z</time>
      </trkpt>
      <trkpt lat="46.00159" lon="3.99414">
        <ele>340</ele>
        <time>2024-12-08T07:19:09.619Z</time>
      </trkpt>
      <trkpt lat="46.0016" lon="3.99416">
        <ele>340</ele>
        <time>2024-12-08T07:19:10.619Z</time>
      </trkpt>
      <trkpt lat="46.0016" lon="3.99418">
        <ele>340</ele>
        <time>2024-12-08T07:19:11.619Z</time>
      </trkpt>
      <trkpt lat="46.00161" lon="3.99419">
        <ele>340</ele>
        <time>2024-12-08T07:19:12.620Z</time>
      </trkpt>
      <trkpt lat="46.00162" lon="3.99421">
        <ele>340</ele>
        <time>2024-12-08T07:19:13.619Z</time>
      </trkpt>
      <trkpt lat="46.00163" lon="3.99423">
        <ele>340</ele>
        <time>2024-12-08T07:19:14.619Z</time>
      </trkpt>
      <trkpt lat="46.00164" lon="3.99425">
        <ele>340</ele>
        <time>2024-12-08T07:19:15.619Z</time>
      </trkpt>
      <trkpt lat="46.00165" lon="3.99426">
        <ele>340</ele>
        <time>2024-12-08T07:19:16.619Z</time>
      </trkpt>
      <trkpt lat="46.00165" lon="3.99428">
        <ele>340</ele>
        <time>2024-12-08T07:19:17.620Z</time>
      </trkpt>
      <trkpt lat="46.00165" lon="3.99428">
        <ele>340</ele>
        <time>2024-12-08T07:19:18.619Z</time>
      </trkpt>
      <trkpt lat="46.00167" lon="3.99432">
        <ele>339</ele>
        <time>2024-12-08T07:19:19.620Z</time>
      </trkpt>
      <trkpt lat="46.00168" lon="3.99434">
        <ele>339</ele>
        <time>2024-12-08T07:19:20.620Z</time>
      </trkpt>
      <trkpt lat="46.00169" lon="3.99436">
        <ele>339</ele>
        <time>2024-12-08T07:19:21.620Z</time>
      </trkpt>
      <trkpt lat="46.0017" lon="3.99438">
        <ele>339</ele>
        <time>2024-12-08T07:19:22.620Z</time>
      </trkpt>
      <trkpt lat="46.00171" lon="3.9944">
        <ele>339</ele>
        <time>2024-12-08T07:19:23.620Z</time>
      </trkpt>
      <trkpt lat="46.00172" lon="3.99443">
        <ele>339</ele>
        <time>2024-12-08T07:19:24.619Z</time>
      </trkpt>
      <trkpt lat="46.00173" lon="3.99445">
        <ele>339</ele>
        <time>2024-12-08T07:19:25.620Z</time>
      </trkpt>
      <trkpt lat="46.00174" lon="3.99447">
        <ele>339</ele>
        <time>2024-12-08T07:19:26.620Z</time>
      </trkpt>
      <trkpt lat="46.00174" lon="3.99449">
        <ele>339</ele>
        <time>2024-12-08T07:19:27.619Z</time>
      </trkpt>
      <trkpt lat="46.00176" lon="3.99451">
        <ele>339</ele>
        <time>2024-12-08T07:19:28.620Z</time>
      </trkpt>
      <trkpt lat="46.00176" lon="3.99453">
        <ele>338</ele>
        <time>2024-12-08T07:19:29.620Z</time>
      </trkpt>
      <trkpt lat="46.00177" lon="3.99455">
        <ele>338</ele>
        <time>2024-12-08T07:19:30.619Z</time>
      </trkpt>
      <trkpt lat="46.00178" lon="3.99456">
        <ele>338</ele>
        <time>2024-12-08T07:19:31.619Z</time>
      </trkpt>
      <trkpt lat="46.00179" lon="3.99458">
        <ele>338</ele>
        <time>2024-12-08T07:19:32.619Z</time>
      </trkpt>
      <trkpt lat="46.0018" lon="3.9946">
        <ele>338</ele>
        <time>2024-12-08T07:19:33.620Z</time>
      </trkpt>
      <trkpt lat="46.00181" lon="3.99462">
        <ele>339</ele>
        <time>2024-12-08T07:19:34.620Z</time>
      </trkpt>
      <trkpt lat="46.00183" lon="3.99464">
        <ele>339</ele>
        <time>2024-12-08T07:19:35.619Z</time>
      </trkpt>
      <trkpt lat="46.00184" lon="3.99466">
        <ele>339</ele>
        <time>2024-12-08T07:19:36.620Z</time>
      </trkpt>
      <trkpt lat="46.00185" lon="3.99468">
        <ele>339</ele>
        <time>2024-12-08T07:19:37.620Z</time>
      </trkpt>
      <trkpt lat="46.00186" lon="3.9947">
        <ele>339</ele>
        <time>2024-12-08T07:19:38.619Z</time>
      </trkpt>
      <trkpt lat="46.00187" lon="3.99472">
        <ele>339</ele>
        <time>2024-12-08T07:19:39.620Z</time>
      </trkpt>
      <trkpt lat="46.00187" lon="3.99475">
        <ele>339</ele>
        <time>2024-12-08T07:19:40.619Z</time>
      </trkpt>
      <trkpt lat="46.00189" lon="3.99477">
        <ele>339</ele>
        <time>2024-12-08T07:19:41.620Z</time>
      </trkpt>
      <trkpt lat="46.0019" lon="3.99479">
        <ele>339</ele>
        <time>2024-12-08T07:19:42.620Z</time>
      </trkpt>
      <trkpt lat="46.00191" lon="3.99481">
        <ele>339</ele>
        <time>2024-12-08T07:19:43.619Z</time>
      </trkpt>
      <trkpt lat="46.00192" lon="3.99483">
        <ele>339</ele>
        <time>2024-12-08T07:19:44.620Z</time>
      </trkpt>
      <trkpt lat="46.00193" lon="3.99485">
        <ele>339</ele>
        <time>2024-12-08T07:19:45.620Z</time>
      </trkpt>
      <trkpt lat="46.00194" lon="3.99486">
        <ele>339</ele>
        <time>2024-12-08T07:19:46.620Z</time>
      </trkpt>
      <trkpt lat="46.00195" lon="3.99488">
        <ele>339</ele>
        <time>2024-12-08T07:19:47.620Z</time>
      </trkpt>
      <trkpt lat="46.00196" lon="3.9949">
        <ele>339</ele>
        <time>2024-12-08T07:19:48.620Z</time>
      </trkpt>
      <trkpt lat="46.00196" lon="3.99492">
        <ele>339</ele>
        <time>2024-12-08T07:19:49.619Z</time>
      </trkpt>
      <trkpt lat="46.00197" lon="3.99494">
        <ele>339</ele>
        <time>2024-12-08T07:19:50.620Z</time>
      </trkpt>
      <trkpt lat="46.00199" lon="3.99497">
        <ele>338</ele>
        <time>2024-12-08T07:19:51.620Z</time>
      </trkpt>
      <trkpt lat="46.002" lon="3.99499">
        <ele>338</ele>
        <time>2024-12-08T07:19:52.619Z</time>
      </trkpt>
      <trkpt lat="46.00201" lon="3.99501">
        <ele>338</ele>
        <time>2024-12-08T07:19:53.619Z</time>
      </trkpt>
      <trkpt lat="46.00202" lon="3.99503">
        <ele>339</ele>
        <time>2024-12-08T07:19:54.620Z</time>
      </trkpt>
      <trkpt lat="46.00204" lon="3.99505">
        <ele>339</ele>
        <time>2024-12-08T07:19:55.619Z</time>
      </trkpt>
      <trkpt lat="46.00205" lon="3.99506">
        <ele>338</ele>
        <time>2024-12-08T07:19:56.619Z</time>
      </trkpt>
      <trkpt lat="46.00206" lon="3.99508">
        <ele>338</ele>
        <time>2024-12-08T07:19:57.620Z</time>
      </trkpt>
      <trkpt lat="46.00206" lon="3.9951">
        <ele>338</ele>
        <time>2024-12-08T07:19:58.619Z</time>
      </trkpt>
      <trkpt lat="46.00207" lon="3.99511">
        <ele>338</ele>
        <time>2024-12-08T07:19:59.620Z</time>
      </trkpt>
      <trkpt lat="46.00208" lon="3.99513">
        <ele>339</ele>
        <time>2024-12-08T07:20:00.619Z</time>
      </trkpt>
      <trkpt lat="46.00209" lon="3.99515">
        <ele>338</ele>
        <time>2024-12-08T07:20:01.620Z</time>
      </trkpt>
      <trkpt lat="46.0021" lon="3.99517">
        <ele>338</ele>
        <time>2024-12-08T07:20:02.619Z</time>
      </trkpt>
      <trkpt lat="46.00211" lon="3.99519">
        <ele>338</ele>
        <time>2024-12-08T07:20:03.619Z</time>
      </trkpt>
      <trkpt lat="46.00212" lon="3.99522">
        <ele>338</ele>
        <time>2024-12-08T07:20:04.619Z</time>
      </trkpt>
      <trkpt lat="46.00213" lon="3.99524">
        <ele>337</ele>
        <time>2024-12-08T07:20:05.619Z</time>
      </trkpt>
      <trkpt lat="46.00214" lon="3.99526">
        <ele>337</ele>
        <time>2024-12-08T07:20:06.619Z</time>
      </trkpt>
      <trkpt lat="46.00215" lon="3.99528">
        <ele>337</ele>
        <time>2024-12-08T07:20:07.619Z</time>
      </trkpt>
      <trkpt lat="46.00216" lon="3.9953">
        <ele>337</ele>
        <time>2024-12-08T07:20:08.619Z</time>
      </trkpt>
      <trkpt lat="46.00217" lon="3.99532">
        <ele>337</ele>
        <time>2024-12-08T07:20:09.619Z</time>
      </trkpt>
      <trkpt lat="46.00218" lon="3.99534">
        <ele>337</ele>
        <time>2024-12-08T07:20:10.619Z</time>
      </trkpt>
      <trkpt lat="46.00219" lon="3.99536">
        <ele>337</ele>
        <time>2024-12-08T07:20:11.619Z</time>
      </trkpt>
      <trkpt lat="46.0022" lon="3.99538">
        <ele>337</ele>
        <time>2024-12-08T07:20:12.619Z</time>
      </trkpt>
      <trkpt lat="46.00222" lon="3.9954">
        <ele>337</ele>
        <time>2024-12-08T07:20:13.619Z</time>
      </trkpt>
      <trkpt lat="46.00222" lon="3.99543">
        <ele>337</ele>
        <time>2024-12-08T07:20:14.619Z</time>
      </trkpt>
      <trkpt lat="46.00224" lon="3.99545">
        <ele>337</ele>
        <time>2024-12-08T07:20:15.619Z</time>
      </trkpt>
      <trkpt lat="46.00225" lon="3.99547">
        <ele>337</ele>
        <time>2024-12-08T07:20:16.619Z</time>
      </trkpt>
      <trkpt lat="46.00226" lon="3.99549">
        <ele>337</ele>
        <time>2024-12-08T07:20:17.619Z</time>
      </trkpt>
      <trkpt lat="46.00227" lon="3.99551">
        <ele>337</ele>
        <time>2024-12-08T07:20:18.620Z</time>
      </trkpt>
      <trkpt lat="46.00228" lon="3.99553">
        <ele>337</ele>
        <time>2024-12-08T07:20:19.619Z</time>
      </trkpt>
      <trkpt lat="46.00229" lon="3.99555">
        <ele>336</ele>
        <time>2024-12-08T07:20:20.619Z</time>
      </trkpt>
      <trkpt lat="46.0023" lon="3.99557">
        <ele>336</ele>
        <time>2024-12-08T07:20:21.619Z</time>
      </trkpt>
      <trkpt lat="46.00231" lon="3.99559">
        <ele>336</ele>
        <time>2024-12-08T07:20:22.620Z</time>
      </trkpt>
      <trkpt lat="46.00232" lon="3.99561">
        <ele>336</ele>
        <time>2024-12-08T07:20:23.619Z</time>
      </trkpt>
      <trkpt lat="46.00233" lon="3.99563">
        <ele>336</ele>
        <time>2024-12-08T07:20:24.619Z</time>
      </trkpt>
      <trkpt lat="46.00234" lon="3.99565">
        <ele>336</ele>
        <time>2024-12-08T07:20:25.619Z</time>
      </trkpt>
      <trkpt lat="46.00236" lon="3.99568">
        <ele>336</ele>
        <time>2024-12-08T07:20:26.620Z</time>
      </trkpt>
      <trkpt lat="46.00237" lon="3.9957">
        <ele>336</ele>
        <time>2024-12-08T07:20:27.620Z</time>
      </trkpt>
      <trkpt lat="46.00238" lon="3.99572">
        <ele>336</ele>
        <time>2024-12-08T07:20:28.619Z</time>
      </trkpt>
      <trkpt lat="46.00239" lon="3.99575">
        <ele>336</ele>
        <time>2024-12-08T07:20:29.619Z</time>
      </trkpt>
      <trkpt lat="46.0024" lon="3.99577">
        <ele>336</ele>
        <time>2024-12-08T07:20:30.619Z</time>
      </trkpt>
      <trkpt lat="46.00241" lon="3.99578">
        <ele>336</ele>
        <time>2024-12-08T07:20:31.619Z</time>
      </trkpt>
      <trkpt lat="46.00242" lon="3.9958">
        <ele>336</ele>
        <time>2024-12-08T07:20:32.619Z</time>
      </trkpt>
      <trkpt lat="46.00243" lon="3.99582">
        <ele>336</ele>
        <time>2024-12-08T07:20:33.620Z</time>
      </trkpt>
      <trkpt lat="46.00244" lon="3.99584">
        <ele>336</ele>
        <time>2024-12-08T07:20:34.619Z</time>
      </trkpt>
      <trkpt lat="46.00245" lon="3.99586">
        <ele>336</ele>
        <time>2024-12-08T07:20:35.619Z</time>
      </trkpt>
      <trkpt lat="46.00245" lon="3.99589">
        <ele>336</ele>
        <time>2024-12-08T07:20:36.619Z</time>
      </trkpt>
      <trkpt lat="46.00247" lon="3.99591">
        <ele>336</ele>
        <time>2024-12-08T07:20:37.619Z</time>
      </trkpt>
      <trkpt lat="46.00248" lon="3.99594">
        <ele>336</ele>
        <time>2024-12-08T07:20:38.620Z</time>
      </trkpt>
      <trkpt lat="46.00249" lon="3.99596">
        <ele>336</ele>
        <time>2024-12-08T07:20:39.620Z</time>
      </trkpt>
      <trkpt lat="46.0025" lon="3.99599">
        <ele>336</ele>
        <time>2024-12-08T07:20:40.619Z</time>
      </trkpt>
      <trkpt lat="46.00251" lon="3.99601">
        <ele>336</ele>
        <time>2024-12-08T07:20:41.619Z</time>
      </trkpt>
      <trkpt lat="46.00252" lon="3.99603">
        <ele>336</ele>
        <time>2024-12-08T07:20:42.619Z</time>
      </trkpt>
      <trkpt lat="46.00253" lon="3.99605">
        <ele>336</ele>
        <time>2024-12-08T07:20:43.619Z</time>
      </trkpt>
      <trkpt lat="46.00254" lon="3.99608">
        <ele>336</ele>
        <time>2024-12-08T07:20:44.619Z</time>
      </trkpt>
      <trkpt lat="46.00255" lon="3.9961">
        <ele>336</ele>
        <time>2024-12-08T07:20:45.619Z</time>
      </trkpt>
      <trkpt lat="46.00256" lon="3.99612">
        <ele>336</ele>
        <time>2024-12-08T07:20:46.619Z</time>
      </trkpt>
      <trkpt lat="46.00257" lon="3.99614">
        <ele>336</ele>
        <time>2024-12-08T07:20:47.619Z</time>
      </trkpt>
      <trkpt lat="46.00258" lon="3.99616">
        <ele>336</ele>
        <time>2024-12-08T07:20:48.619Z</time>
      </trkpt>
      <trkpt lat="46.00259" lon="3.99619">
        <ele>337</ele>
        <time>2024-12-08T07:20:49.619Z</time>
      </trkpt>
      <trkpt lat="46.0026" lon="3.99622">
        <ele>337</ele>
        <time>2024-12-08T07:20:50.619Z</time>
      </trkpt>
      <trkpt lat="46.00261" lon="3.99624">
        <ele>337</ele>
        <time>2024-12-08T07:20:51.619Z</time>
      </trkpt>
      <trkpt lat="46.00262" lon="3.99626">
        <ele>337</ele>
        <time>2024-12-08T07:20:52.620Z</time>
      </trkpt>
      <trkpt lat="46.00263" lon="3.99628">
        <ele>337</ele>
        <time>2024-12-08T07:20:53.620Z</time>
      </trkpt>
      <trkpt lat="46.00263" lon="3.99631">
        <ele>337</ele>
        <time>2024-12-08T07:20:54.619Z</time>
      </trkpt>
      <trkpt lat="46.00264" lon="3.99633">
        <ele>337</ele>
        <time>2024-12-08T07:20:55.620Z</time>
      </trkpt>
      <trkpt lat="46.00265" lon="3.99635">
        <ele>337</ele>
        <time>2024-12-08T07:20:56.619Z</time>
      </trkpt>
      <trkpt lat="46.00266" lon="3.99637">
        <ele>337</ele>
        <time>2024-12-08T07:20:57.619Z</time>
      </trkpt>
      <trkpt lat="46.00267" lon="3.99639">
        <ele>337</ele>
        <time>2024-12-08T07:20:58.619Z</time>
      </trkpt>
      <trkpt lat="46.00267" lon="3.99642">
        <ele>337</ele>
        <time>2024-12-08T07:20:59.619Z</time>
      </trkpt>
      <trkpt lat="46.00268" lon="3.99645">
        <ele>337</ele>
        <time>2024-12-08T07:21:00.619Z</time>
      </trkpt>
      <trkpt lat="46.00269" lon="3.99647">
        <ele>337</ele>
        <time>2024-12-08T07:21:01.620Z</time>
      </trkpt>
      <trkpt lat="46.00269" lon="3.9965">
        <ele>337</ele>
        <time>2024-12-08T07:21:02.619Z</time>
      </trkpt>
      <trkpt lat="46.0027" lon="3.99652">
        <ele>337</ele>
        <time>2024-12-08T07:21:03.620Z</time>
      </trkpt>
      <trkpt lat="46.0027" lon="3.99654">
        <ele>337</ele>
        <time>2024-12-08T07:21:04.620Z</time>
      </trkpt>
      <trkpt lat="46.00271" lon="3.99656">
        <ele>337</ele>
        <time>2024-12-08T07:21:05.619Z</time>
      </trkpt>
      <trkpt lat="46.00272" lon="3.99658">
        <ele>337</ele>
        <time>2024-12-08T07:21:06.620Z</time>
      </trkpt>
      <trkpt lat="46.00273" lon="3.9966">
        <ele>338</ele>
        <time>2024-12-08T07:21:07.619Z</time>
      </trkpt>
      <trkpt lat="46.00273" lon="3.99662">
        <ele>338</ele>
        <time>2024-12-08T07:21:08.619Z</time>
      </trkpt>
      <trkpt lat="46.00274" lon="3.99664">
        <ele>338</ele>
        <time>2024-12-08T07:21:09.619Z</time>
      </trkpt>
      <trkpt lat="46.00275" lon="3.99666">
        <ele>338</ele>
        <time>2024-12-08T07:21:10.620Z</time>
      </trkpt>
      <trkpt lat="46.00276" lon="3.99669">
        <ele>338</ele>
        <time>2024-12-08T07:21:11.619Z</time>
      </trkpt>
      <trkpt lat="46.00277" lon="3.99671">
        <ele>338</ele>
        <time>2024-12-08T07:21:12.619Z</time>
      </trkpt>
      <trkpt lat="46.00278" lon="3.99673">
        <ele>338</ele>
        <time>2024-12-08T07:21:13.620Z</time>
      </trkpt>
      <trkpt lat="46.00279" lon="3.99675">
        <ele>339</ele>
        <time>2024-12-08T07:21:14.620Z</time>
      </trkpt>
      <trkpt lat="46.00281" lon="3.99677">
        <ele>339</ele>
        <time>2024-12-08T07:21:15.619Z</time>
      </trkpt>
      <trkpt lat="46.00282" lon="3.99678">
        <ele>339</ele>
        <time>2024-12-08T07:21:16.619Z</time>
      </trkpt>
      <trkpt lat="46.00283" lon="3.9968">
        <ele>339</ele>
        <time>2024-12-08T07:21:17.619Z</time>
      </trkpt>
      <trkpt lat="46.00284" lon="3.99682">
        <ele>339</ele>
        <time>2024-12-08T07:21:18.619Z</time>
      </trkpt>
      <trkpt lat="46.00285" lon="3.99684">
        <ele>339</ele>
        <time>2024-12-08T07:21:19.620Z</time>
      </trkpt>
      <trkpt lat="46.00286" lon="3.99686">
        <ele>339</ele>
        <time>2024-12-08T07:21:20.619Z</time>
      </trkpt>
      <trkpt lat="46.00286" lon="3.99689">
        <ele>338</ele>
        <time>2024-12-08T07:21:21.620Z</time>
      </trkpt>
      <trkpt lat="46.00287" lon="3.99691">
        <ele>338</ele>
        <time>2024-12-08T07:21:22.620Z</time>
      </trkpt>
      <trkpt lat="46.00289" lon="3.99693">
        <ele>338</ele>
        <time>2024-12-08T07:21:23.620Z</time>
      </trkpt>
      <trkpt lat="46.0029" lon="3.99695">
        <ele>339</ele>
        <time>2024-12-08T07:21:24.619Z</time>
      </trkpt>
      <trkpt lat="46.0029" lon="3.99697">
        <ele>338</ele>
        <time>2024-12-08T07:21:25.620Z</time>
      </trkpt>
      <trkpt lat="46.00291" lon="3.99699">
        <ele>338</ele>
        <time>2024-12-08T07:21:26.620Z</time>
      </trkpt>
      <trkpt lat="46.00292" lon="3.99701">
        <ele>338</ele>
        <time>2024-12-08T07:21:27.619Z</time>
      </trkpt>
      <trkpt lat="46.00293" lon="3.99703">
        <ele>338</ele>
        <time>2024-12-08T07:21:28.619Z</time>
      </trkpt>
      <trkpt lat="46.00294" lon="3.99706">
        <ele>338</ele>
        <time>2024-12-08T07:21:29.620Z</time>
      </trkpt>
      <trkpt lat="46.00295" lon="3.99708">
        <ele>338</ele>
        <time>2024-12-08T07:21:30.619Z</time>
      </trkpt>
      <trkpt lat="46.00295" lon="3.99711">
        <ele>337</ele>
        <time>2024-12-08T07:21:31.619Z</time>
      </trkpt>
      <trkpt lat="46.00296" lon="3.99713">
        <ele>338</ele>
        <time>2024-12-08T07:21:32.620Z</time>
      </trkpt>
      <trkpt lat="46.00297" lon="3.99715">
        <ele>338</ele>
        <time>2024-12-08T07:21:33.620Z</time>
      </trkpt>
      <trkpt lat="46.00298" lon="3.99718">
        <ele>338</ele>
        <time>2024-12-08T07:21:34.620Z</time>
      </trkpt>
      <trkpt lat="46.00298" lon="3.9972">
        <ele>339</ele>
        <time>2024-12-08T07:21:35.620Z</time>
      </trkpt>
      <trkpt lat="46.00299" lon="3.99723">
        <ele>339</ele>
        <time>2024-12-08T07:21:36.620Z</time>
      </trkpt>
      <trkpt lat="46.00299" lon="3.99725">
        <ele>339</ele>
        <time>2024-12-08T07:21:37.619Z</time>
      </trkpt>
      <trkpt lat="46.003" lon="3.99728">
        <ele>339</ele>
        <time>2024-12-08T07:21:38.620Z</time>
      </trkpt>
      <trkpt lat="46.003" lon="3.9973">
        <ele>339</ele>
        <time>2024-12-08T07:21:39.619Z</time>
      </trkpt>
      <trkpt lat="46.00301" lon="3.99733">
        <ele>339</ele>
        <time>2024-12-08T07:21:40.620Z</time>
      </trkpt>
      <trkpt lat="46.00301" lon="3.99735">
        <ele>339</ele>
        <time>2024-12-08T07:21:41.619Z</time>
      </trkpt>
      <trkpt lat="46.00301" lon="3.99737">
        <ele>339</ele>
        <time>2024-12-08T07:21:42.619Z</time>
      </trkpt>
      <trkpt lat="46.003" lon="3.99739">
        <ele>339</ele>
        <time>2024-12-08T07:21:43.619Z</time>
      </trkpt>
      <trkpt lat="46.00301" lon="3.99741">
        <ele>339</ele>
        <time>2024-12-08T07:21:44.619Z</time>
      </trkpt>
      <trkpt lat="46.00301" lon="3.99744">
        <ele>339</ele>
        <time>2024-12-08T07:21:45.619Z</time>
      </trkpt>
      <trkpt lat="46.00302" lon="3.99746">
        <ele>340</ele>
        <time>2024-12-08T07:21:46.619Z</time>
      </trkpt>
      <trkpt lat="46.00302" lon="3.99748">
        <ele>340</ele>
        <time>2024-12-08T07:21:47.620Z</time>
      </trkpt>
      <trkpt lat="46.00303" lon="3.99751">
        <ele>340</ele>
        <time>2024-12-08T07:21:48.619Z</time>
      </trkpt>
      <trkpt lat="46.00303" lon="3.99754">
        <ele>340</ele>
        <time>2024-12-08T07:21:49.620Z</time>
      </trkpt>
      <trkpt lat="46.00303" lon="3.99756">
        <ele>340</ele>
        <time>2024-12-08T07:21:50.619Z</time>
      </trkpt>
      <trkpt lat="46.00303" lon="3.99758">
        <ele>340</ele>
        <time>2024-12-08T07:21:51.620Z</time>
      </trkpt>
      <trkpt lat="46.00304" lon="3.9976">
        <ele>340</ele>
        <time>2024-12-08T07:21:52.619Z</time>
      </trkpt>
      <trkpt lat="46.00304" lon="3.99763">
        <ele>339</ele>
        <time>2024-12-08T07:21:53.619Z</time>
      </trkpt>
      <trkpt lat="46.00304" lon="3.99765">
        <ele>339</ele>
        <time>2024-12-08T07:21:54.620Z</time>
      </trkpt>
      <trkpt lat="46.00305" lon="3.99767">
        <ele>339</ele>
        <time>2024-12-08T07:21:55.620Z</time>
      </trkpt>
      <trkpt lat="46.00305" lon="3.9977">
        <ele>339</ele>
        <time>2024-12-08T07:21:56.620Z</time>
      </trkpt>
      <trkpt lat="46.00306" lon="3.99772">
        <ele>338</ele>
        <time>2024-12-08T07:21:57.619Z</time>
      </trkpt>
      <trkpt lat="46.00307" lon="3.99775">
        <ele>338</ele>
        <time>2024-12-08T07:21:58.619Z</time>
      </trkpt>
      <trkpt lat="46.00307" lon="3.99777">
        <ele>338</ele>
        <time>2024-12-08T07:21:59.620Z</time>
      </trkpt>
      <trkpt lat="46.00308" lon="3.9978">
        <ele>338</ele>
        <time>2024-12-08T07:22:00.620Z</time>
      </trkpt>
      <trkpt lat="46.00309" lon="3.99782">
        <ele>337</ele>
        <time>2024-12-08T07:22:01.620Z</time>
      </trkpt>
      <trkpt lat="46.0031" lon="3.99785">
        <ele>337</ele>
        <time>2024-12-08T07:22:02.619Z</time>
      </trkpt>
      <trkpt lat="46.0031" lon="3.99787">
        <ele>337</ele>
        <time>2024-12-08T07:22:03.619Z</time>
      </trkpt>
      <trkpt lat="46.00311" lon="3.99789">
        <ele>337</ele>
        <time>2024-12-08T07:22:04.620Z</time>
      </trkpt>
      <trkpt lat="46.00312" lon="3.99792">
        <ele>336</ele>
        <time>2024-12-08T07:22:05.620Z</time>
      </trkpt>
      <trkpt lat="46.00312" lon="3.99794">
        <ele>336</ele>
        <time>2024-12-08T07:22:06.620Z</time>
      </trkpt>
      <trkpt lat="46.00313" lon="3.99797">
        <ele>336</ele>
        <time>2024-12-08T07:22:07.620Z</time>
      </trkpt>
      <trkpt lat="46.00314" lon="3.99799">
        <ele>336</ele>
        <time>2024-12-08T07:22:08.619Z</time>
      </trkpt>
      <trkpt lat="46.00315" lon="3.99802">
        <ele>336</ele>
        <time>2024-12-08T07:22:09.620Z</time>
      </trkpt>
      <trkpt lat="46.00315" lon="3.99805">
        <ele>336</ele>
        <time>2024-12-08T07:22:10.619Z</time>
      </trkpt>
      <trkpt lat="46.00316" lon="3.99807">
        <ele>336</ele>
        <time>2024-12-08T07:22:11.620Z</time>
      </trkpt>
      <trkpt lat="46.00317" lon="3.99809">
        <ele>336</ele>
        <time>2024-12-08T07:22:12.619Z</time>
      </trkpt>
      <trkpt lat="46.00318" lon="3.99812">
        <ele>336</ele>
        <time>2024-12-08T07:22:13.620Z</time>
      </trkpt>
      <trkpt lat="46.00319" lon="3.99814">
        <ele>336</ele>
        <time>2024-12-08T07:22:14.620Z</time>
      </trkpt>
      <trkpt lat="46.00319" lon="3.99816">
        <ele>336</ele>
        <time>2024-12-08T07:22:15.619Z</time>
      </trkpt>
      <trkpt lat="46.0032" lon="3.99819">
        <ele>336</ele>
        <time>2024-12-08T07:22:16.620Z</time>
      </trkpt>
      <trkpt lat="46.0032" lon="3.99821">
        <ele>336</ele>
        <time>2024-12-08T07:22:17.619Z</time>
      </trkpt>
      <trkpt lat="46.00321" lon="3.99823">
        <ele>336</ele>
        <time>2024-12-08T07:22:18.619Z</time>
      </trkpt>
      <trkpt lat="46.00322" lon="3.99825">
        <ele>336</ele>
        <time>2024-12-08T07:22:19.619Z</time>
      </trkpt>
      <trkpt lat="46.00323" lon="3.99827">
        <ele>336</ele>
        <time>2024-12-08T07:22:20.619Z</time>
      </trkpt>
      <trkpt lat="46.00323" lon="3.99829">
        <ele>336</ele>
        <time>2024-12-08T07:22:21.620Z</time>
      </trkpt>
      <trkpt lat="46.00324" lon="3.99831">
        <ele>336</ele>
        <time>2024-12-08T07:22:22.619Z</time>
      </trkpt>
      <trkpt lat="46.00324" lon="3.99834">
        <ele>336</ele>
        <time>2024-12-08T07:22:23.619Z</time>
      </trkpt>
      <trkpt lat="46.00325" lon="3.99836">
        <ele>336</ele>
        <time>2024-12-08T07:22:24.620Z</time>
      </trkpt>
      <trkpt lat="46.00325" lon="3.99839">
        <ele>336</ele>
        <time>2024-12-08T07:22:25.619Z</time>
      </trkpt>
      <trkpt lat="46.00326" lon="3.99841">
        <ele>336</ele>
        <time>2024-12-08T07:22:26.620Z</time>
      </trkpt>
      <trkpt lat="46.00327" lon="3.99843">
        <ele>336</ele>
        <time>2024-12-08T07:22:27.620Z</time>
      </trkpt>
      <trkpt lat="46.00327" lon="3.99846">
        <ele>336</ele>
        <time>2024-12-08T07:22:28.620Z</time>
      </trkpt>
      <trkpt lat="46.00328" lon="3.99848">
        <ele>336</ele>
        <time>2024-12-08T07:22:29.620Z</time>
      </trkpt>
      <trkpt lat="46.00329" lon="3.9985">
        <ele>336</ele>
        <time>2024-12-08T07:22:30.619Z</time>
      </trkpt>
      <trkpt lat="46.00329" lon="3.99852">
        <ele>336</ele>
        <time>2024-12-08T07:22:31.619Z</time>
      </trkpt>
      <trkpt lat="46.0033" lon="3.99854">
        <ele>336</ele>
        <time>2024-12-08T07:22:32.620Z</time>
      </trkpt>
      <trkpt lat="46.0033" lon="3.99857">
        <ele>336</ele>
        <time>2024-12-08T07:22:33.620Z</time>
      </trkpt>
      <trkpt lat="46.00331" lon="3.99859">
        <ele>336</ele>
        <time>2024-12-08T07:22:34.619Z</time>
      </trkpt>
      <trkpt lat="46.00332" lon="3.99861">
        <ele>336</ele>
        <time>2024-12-08T07:22:35.619Z</time>
      </trkpt>
      <trkpt lat="46.00332" lon="3.99863">
        <ele>336</ele>
        <time>2024-12-08T07:22:36.620Z</time>
      </trkpt>
      <trkpt lat="46.00333" lon="3.99865">
        <ele>336</ele>
        <time>2024-12-08T07:22:37.619Z</time>
      </trkpt>
      <trkpt lat="46.00333" lon="3.99868">
        <ele>336</ele>
        <time>2024-12-08T07:22:38.620Z</time>
      </trkpt>
      <trkpt lat="46.00334" lon="3.9987">
        <ele>336</ele>
        <time>2024-12-08T07:22:39.619Z</time>
      </trkpt>
      <trkpt lat="46.00334" lon="3.99872">
        <ele>336</ele>
        <time>2024-12-08T07:22:40.620Z</time>
      </trkpt>
      <trkpt lat="46.00335" lon="3.99875">
        <ele>336</ele>
        <time>2024-12-08T07:22:41.619Z</time>
      </trkpt>
      <trkpt lat="46.00335" lon="3.99877">
        <ele>336</ele>
        <time>2024-12-08T07:22:42.619Z</time>
      </trkpt>
      <trkpt lat="46.00336" lon="3.99879">
        <ele>336</ele>
        <time>2024-12-08T07:22:43.620Z</time>
      </trkpt>
      <trkpt lat="46.00336" lon="3.99882">
        <ele>337</ele>
        <time>2024-12-08T07:22:44.620Z</time>
      </trkpt>
      <trkpt lat="46.00337" lon="3.99884">
        <ele>337</ele>
        <time>2024-12-08T07:22:45.619Z</time>
      </trkpt>
      <trkpt lat="46.00337" lon="3.99886">
        <ele>336</ele>
        <time>2024-12-08T07:22:46.619Z</time>
      </trkpt>
      <trkpt lat="46.00338" lon="3.99889">
        <ele>336</ele>
        <time>2024-12-08T07:22:47.620Z</time>
      </trkpt>
      <trkpt lat="46.00338" lon="3.99891">
        <ele>336</ele>
        <time>2024-12-08T07:22:48.620Z</time>
      </trkpt>
      <trkpt lat="46.00338" lon="3.99893">
        <ele>336</ele>
        <time>2024-12-08T07:22:49.620Z</time>
      </trkpt>
      <trkpt lat="46.00339" lon="3.99895">
        <ele>336</ele>
        <time>2024-12-08T07:22:50.619Z</time>
      </trkpt>
      <trkpt lat="46.0034" lon="3.99898">
        <ele>336</ele>
        <time>2024-12-08T07:22:51.620Z</time>
      </trkpt>
      <trkpt lat="46.00341" lon="3.999">
        <ele>336</ele>
        <time>2024-12-08T07:22:52.619Z</time>
      </trkpt>
      <trkpt lat="46.00341" lon="3.99902">
        <ele>336</ele>
        <time>2024-12-08T07:22:53.619Z</time>
      </trkpt>
      <trkpt lat="46.00342" lon="3.99904">
        <ele>336</ele>
        <time>2024-12-08T07:22:54.619Z</time>
      </trkpt>
      <trkpt lat="46.00342" lon="3.99906">
        <ele>337</ele>
        <time>2024-12-08T07:22:55.620Z</time>
      </trkpt>
      <trkpt lat="46.00343" lon="3.99909">
        <ele>337</ele>
        <time>2024-12-08T07:22:56.620Z</time>
      </trkpt>
      <trkpt lat="46.00343" lon="3.99911">
        <ele>337</ele>
        <time>2024-12-08T07:22:57.619Z</time>
      </trkpt>
      <trkpt lat="46.00343" lon="3.99913">
        <ele>337</ele>
        <time>2024-12-08T07:22:58.620Z</time>
      </trkpt>
      <trkpt lat="46.00344" lon="3.99915">
        <ele>337</ele>
        <time>2024-12-08T07:22:59.619Z</time>
      </trkpt>
      <trkpt lat="46.00344" lon="3.99917">
        <ele>337</ele>
        <time>2024-12-08T07:23:00.620Z</time>
      </trkpt>
      <trkpt lat="46.00345" lon="3.99919">
        <ele>337</ele>
        <time>2024-12-08T07:23:01.619Z</time>
      </trkpt>
      <trkpt lat="46.00346" lon="3.99922">
        <ele>337</ele>
        <time>2024-12-08T07:23:02.620Z</time>
      </trkpt>
      <trkpt lat="46.00346" lon="3.99924">
        <ele>337</ele>
        <time>2024-12-08T07:23:03.620Z</time>
      </trkpt>
      <trkpt lat="46.00347" lon="3.99926">
        <ele>337</ele>
        <time>2024-12-08T07:23:04.619Z</time>
      </trkpt>
      <trkpt lat="46.00347" lon="3.99928">
        <ele>337</ele>
        <time>2024-12-08T07:23:05.619Z</time>
      </trkpt>
      <trkpt lat="46.00348" lon="3.99931">
        <ele>337</ele>
        <time>2024-12-08T07:23:06.620Z</time>
      </trkpt>
      <trkpt lat="46.00349" lon="3.99933">
        <ele>337</ele>
        <time>2024-12-08T07:23:07.620Z</time>
      </trkpt>
      <trkpt lat="46.00349" lon="3.99935">
        <ele>337</ele>
        <time>2024-12-08T07:23:08.619Z</time>
      </trkpt>
      <trkpt lat="46.0035" lon="3.99937">
        <ele>337</ele>
        <time>2024-12-08T07:23:09.619Z</time>
      </trkpt>
      <trkpt lat="46.0035" lon="3.9994">
        <ele>337</ele>
        <time>2024-12-08T07:23:10.620Z</time>
      </trkpt>
      <trkpt lat="46.00351" lon="3.99942">
        <ele>336</ele>
        <time>2024-12-08T07:23:11.619Z</time>
      </trkpt>
      <trkpt lat="46.00352" lon="3.99944">
        <ele>336</ele>
        <time>2024-12-08T07:23:12.619Z</time>
      </trkpt>
      <trkpt lat="46.00352" lon="3.99947">
        <ele>336</ele>
        <time>2024-12-08T07:23:13.619Z</time>
      </trkpt>
      <trkpt lat="46.00353" lon="3.99949">
        <ele>337</ele>
        <time>2024-12-08T07:23:14.620Z</time>
      </trkpt>
      <trkpt lat="46.00353" lon="3.99951">
        <ele>337</ele>
        <time>2024-12-08T07:23:15.619Z</time>
      </trkpt>
      <trkpt lat="46.00354" lon="3.99953">
        <ele>337</ele>
        <time>2024-12-08T07:23:16.620Z</time>
      </trkpt>
      <trkpt lat="46.00355" lon="3.99955">
        <ele>337</ele>
        <time>2024-12-08T07:23:17.620Z</time>
      </trkpt>
      <trkpt lat="46.00356" lon="3.99957">
        <ele>337</ele>
        <time>2024-12-08T07:23:18.620Z</time>
      </trkpt>
      <trkpt lat="46.00356" lon="3.99959">
        <ele>338</ele>
        <time>2024-12-08T07:23:19.619Z</time>
      </trkpt>
      <trkpt lat="46.00357" lon="3.99962">
        <ele>338</ele>
        <time>2024-12-08T07:23:20.620Z</time>
      </trkpt>
      <trkpt lat="46.00357" lon="3.99964">
        <ele>338</ele>
        <time>2024-12-08T07:23:21.619Z</time>
      </trkpt>
      <trkpt lat="46.00358" lon="3.99966">
        <ele>338</ele>
        <time>2024-12-08T07:23:22.619Z</time>
      </trkpt>
      <trkpt lat="46.00358" lon="3.99968">
        <ele>338</ele>
        <time>2024-12-08T07:23:23.620Z</time>
      </trkpt>
      <trkpt lat="46.00359" lon="3.99971">
        <ele>338</ele>
        <time>2024-12-08T07:23:24.619Z</time>
      </trkpt>
      <trkpt lat="46.00359" lon="3.99973">
        <ele>338</ele>
        <time>2024-12-08T07:23:25.619Z</time>
      </trkpt>
      <trkpt lat="46.0036" lon="3.99975">
        <ele>337</ele>
        <time>2024-12-08T07:23:26.619Z</time>
      </trkpt>
      <trkpt lat="46.0036" lon="3.99977">
        <ele>337</ele>
        <time>2024-12-08T07:23:27.620Z</time>
      </trkpt>
      <trkpt lat="46.0036" lon="3.9998">
        <ele>337</ele>
        <time>2024-12-08T07:23:28.620Z</time>
      </trkpt>
      <trkpt lat="46.00361" lon="3.99982">
        <ele>337</ele>
        <time>2024-12-08T07:23:29.619Z</time>
      </trkpt>
      <trkpt lat="46.00361" lon="3.99984">
        <ele>337</ele>
        <time>2024-12-08T07:23:30.619Z</time>
      </trkpt>
      <trkpt lat="46.00362" lon="3.99987">
        <ele>337</ele>
        <time>2024-12-08T07:23:31.619Z</time>
      </trkpt>
      <trkpt lat="46.00362" lon="3.99989">
        <ele>338</ele>
        <time>2024-12-08T07:23:32.620Z</time>
      </trkpt>
      <trkpt lat="46.00363" lon="3.99992">
        <ele>337</ele>
        <time>2024-12-08T07:23:33.620Z</time>
      </trkpt>
      <trkpt lat="46.00363" lon="3.99994">
        <ele>337</ele>
        <time>2024-12-08T07:23:34.620Z</time>
      </trkpt>
      <trkpt lat="46.00364" lon="3.99997">
        <ele>336</ele>
        <time>2024-12-08T07:23:35.619Z</time>
      </trkpt>
      <trkpt lat="46.00364" lon="3.99999">
        <ele>336</ele>
        <time>2024-12-08T07:23:36.619Z</time>
      </trkpt>
      <trkpt lat="46.00364" lon="4.00001">
        <ele>336</ele>
        <time>2024-12-08T07:23:37.619Z</time>
      </trkpt>
      <trkpt lat="46.00365" lon="4.00003">
        <ele>336</ele>
        <time>2024-12-08T07:23:38.620Z</time>
      </trkpt>
      <trkpt lat="46.00365" lon="4.00005">
        <ele>336</ele>
        <time>2024-12-08T07:23:39.620Z</time>
      </trkpt>
      <trkpt lat="46.00366" lon="4.00007">
        <ele>336</ele>
        <time>2024-12-08T07:23:40.620Z</time>
      </trkpt>
      <trkpt lat="46.00366" lon="4.0001">
        <ele>336</ele>
        <time>2024-12-08T07:23:41.620Z</time>
      </trkpt>
      <trkpt lat="46.00367" lon="4.00012">
        <ele>336</ele>
        <time>2024-12-08T07:23:42.620Z</time>
      </trkpt>
      <trkpt lat="46.00367" lon="4.00015">
        <ele>336</ele>
        <time>2024-12-08T07:23:43.619Z</time>
      </trkpt>
      <trkpt lat="46.00368" lon="4.00017">
        <ele>336</ele>
        <time>2024-12-08T07:23:44.619Z</time>
      </trkpt>
      <trkpt lat="46.00368" lon="4.0002">
        <ele>336</ele>
        <time>2024-12-08T07:23:45.620Z</time>
      </trkpt>
      <trkpt lat="46.00369" lon="4.00022">
        <ele>336</ele>
        <time>2024-12-08T07:23:46.619Z</time>
      </trkpt>
      <trkpt lat="46.00369" lon="4.00025">
        <ele>336</ele>
        <time>2024-12-08T07:23:47.620Z</time>
      </trkpt>
      <trkpt lat="46.0037" lon="4.00027">
        <ele>336</ele>
        <time>2024-12-08T07:23:48.620Z</time>
      </trkpt>
      <trkpt lat="46.0037" lon="4.00029">
        <ele>336</ele>
        <time>2024-12-08T07:23:49.619Z</time>
      </trkpt>
      <trkpt lat="46.00371" lon="4.00032">
        <ele>336</ele>
        <time>2024-12-08T07:23:50.619Z</time>
      </trkpt>
      <trkpt lat="46.00372" lon="4.00034">
        <ele>336</ele>
        <time>2024-12-08T07:23:51.619Z</time>
      </trkpt>
      <trkpt lat="46.00372" lon="4.00037">
        <ele>336</ele>
        <time>2024-12-08T07:23:52.620Z</time>
      </trkpt>
      <trkpt lat="46.00373" lon="4.00039">
        <ele>336</ele>
        <time>2024-12-08T07:23:53.620Z</time>
      </trkpt>
      <trkpt lat="46.00373" lon="4.00042">
        <ele>336</ele>
        <time>2024-12-08T07:23:54.619Z</time>
      </trkpt>
      <trkpt lat="46.00374" lon="4.00044">
        <ele>336</ele>
        <time>2024-12-08T07:23:55.619Z</time>
      </trkpt>
      <trkpt lat="46.00374" lon="4.00047">
        <ele>336</ele>
        <time>2024-12-08T07:23:56.619Z</time>
      </trkpt>
      <trkpt lat="46.00374" lon="4.00049">
        <ele>336</ele>
        <time>2024-12-08T07:23:57.620Z</time>
      </trkpt>
      <trkpt lat="46.00374" lon="4.00051">
        <ele>336</ele>
        <time>2024-12-08T07:23:58.619Z</time>
      </trkpt>
      <trkpt lat="46.00375" lon="4.00054">
        <ele>336</ele>
        <time>2024-12-08T07:23:59.619Z</time>
      </trkpt>
      <trkpt lat="46.00375" lon="4.00056">
        <ele>335</ele>
        <time>2024-12-08T07:24:00.620Z</time>
      </trkpt>
      <trkpt lat="46.00376" lon="4.00058">
        <ele>335</ele>
        <time>2024-12-08T07:24:01.619Z</time>
      </trkpt>
      <trkpt lat="46.00377" lon="4.0006">
        <ele>334</ele>
        <time>2024-12-08T07:24:02.619Z</time>
      </trkpt>
      <trkpt lat="46.00377" lon="4.00063">
        <ele>334</ele>
        <time>2024-12-08T07:24:03.619Z</time>
      </trkpt>
      <trkpt lat="46.00378" lon="4.00065">
        <ele>334</ele>
        <time>2024-12-08T07:24:04.619Z</time>
      </trkpt>
      <trkpt lat="46.00378" lon="4.00068">
        <ele>334</ele>
        <time>2024-12-08T07:24:05.620Z</time>
      </trkpt>
      <trkpt lat="46.00379" lon="4.00069">
        <ele>334</ele>
        <time>2024-12-08T07:24:06.619Z</time>
      </trkpt>
      <trkpt lat="46.00379" lon="4.00072">
        <ele>333</ele>
        <time>2024-12-08T07:24:07.620Z</time>
      </trkpt>
      <trkpt lat="46.0038" lon="4.00075">
        <ele>333</ele>
        <time>2024-12-08T07:24:08.620Z</time>
      </trkpt>
      <trkpt lat="46.0038" lon="4.00077">
        <ele>333</ele>
        <time>2024-12-08T07:24:09.620Z</time>
      </trkpt>
      <trkpt lat="46.00381" lon="4.00079">
        <ele>332</ele>
        <time>2024-12-08T07:24:10.619Z</time>
      </trkpt>
      <trkpt lat="46.00381" lon="4.00082">
        <ele>333</ele>
        <time>2024-12-08T07:24:11.620Z</time>
      </trkpt>
      <trkpt lat="46.00382" lon="4.00084">
        <ele>333</ele>
        <time>2024-12-08T07:24:12.620Z</time>
      </trkpt>
      <trkpt lat="46.00383" lon="4.00086">
        <ele>333</ele>
        <time>2024-12-08T07:24:13.620Z</time>
      </trkpt>
      <trkpt lat="46.00384" lon="4.00088">
        <ele>334</ele>
        <time>2024-12-08T07:24:14.620Z</time>
      </trkpt>
      <trkpt lat="46.00384" lon="4.0009">
        <ele>334</ele>
        <time>2024-12-08T07:24:15.619Z</time>
      </trkpt>
      <trkpt lat="46.00385" lon="4.00093">
        <ele>334</ele>
        <time>2024-12-08T07:24:16.620Z</time>
      </trkpt>
      <trkpt lat="46.00386" lon="4.00095">
        <ele>334</ele>
        <time>2024-12-08T07:24:17.619Z</time>
      </trkpt>
      <trkpt lat="46.00387" lon="4.00098">
        <ele>334</ele>
        <time>2024-12-08T07:24:18.620Z</time>
      </trkpt>
      <trkpt lat="46.00387" lon="4.001">
        <ele>334</ele>
        <time>2024-12-08T07:24:19.619Z</time>
      </trkpt>
      <trkpt lat="46.00388" lon="4.00102">
        <ele>334</ele>
        <time>2024-12-08T07:24:20.619Z</time>
      </trkpt>
      <trkpt lat="46.00388" lon="4.00104">
        <ele>334</ele>
        <time>2024-12-08T07:24:21.619Z</time>
      </trkpt>
      <trkpt lat="46.00389" lon="4.00107">
        <ele>334</ele>
        <time>2024-12-08T07:24:22.620Z</time>
      </trkpt>
      <trkpt lat="46.0039" lon="4.00109">
        <ele>334</ele>
        <time>2024-12-08T07:24:23.619Z</time>
      </trkpt>
      <trkpt lat="46.00391" lon="4.00111">
        <ele>334</ele>
        <time>2024-12-08T07:24:24.619Z</time>
      </trkpt>
      <trkpt lat="46.00391" lon="4.00114">
        <ele>334</ele>
        <time>2024-12-08T07:24:25.619Z</time>
      </trkpt>
      <trkpt lat="46.00392" lon="4.00116">
        <ele>335</ele>
        <time>2024-12-08T07:24:26.620Z</time>
      </trkpt>
      <trkpt lat="46.00393" lon="4.00118">
        <ele>335</ele>
        <time>2024-12-08T07:24:27.620Z</time>
      </trkpt>
      <trkpt lat="46.00393" lon="4.0012">
        <ele>335</ele>
        <time>2024-12-08T07:24:28.619Z</time>
      </trkpt>
      <trkpt lat="46.00394" lon="4.00122">
        <ele>335</ele>
        <time>2024-12-08T07:24:29.619Z</time>
      </trkpt>
      <trkpt lat="46.00395" lon="4.00124">
        <ele>335</ele>
        <time>2024-12-08T07:24:30.619Z</time>
      </trkpt>
      <trkpt lat="46.00396" lon="4.00127">
        <ele>335</ele>
        <time>2024-12-08T07:24:31.619Z</time>
      </trkpt>
      <trkpt lat="46.00397" lon="4.00129">
        <ele>335</ele>
        <time>2024-12-08T07:24:32.620Z</time>
      </trkpt>
      <trkpt lat="46.00398" lon="4.00131">
        <ele>335</ele>
        <time>2024-12-08T07:24:33.620Z</time>
      </trkpt>
      <trkpt lat="46.00399" lon="4.00134">
        <ele>335</ele>
        <time>2024-12-08T07:24:34.619Z</time>
      </trkpt>
      <trkpt lat="46.00399" lon="4.00136">
        <ele>335</ele>
        <time>2024-12-08T07:24:35.619Z</time>
      </trkpt>
      <trkpt lat="46.004" lon="4.00138">
        <ele>335</ele>
        <time>2024-12-08T07:24:36.620Z</time>
      </trkpt>
      <trkpt lat="46.00401" lon="4.0014">
        <ele>335</ele>
        <time>2024-12-08T07:24:37.620Z</time>
      </trkpt>
      <trkpt lat="46.00402" lon="4.00143">
        <ele>335</ele>
        <time>2024-12-08T07:24:38.619Z</time>
      </trkpt>
      <trkpt lat="46.00403" lon="4.00144">
        <ele>335</ele>
        <time>2024-12-08T07:24:39.619Z</time>
      </trkpt>
      <trkpt lat="46.00404" lon="4.00147">
        <ele>336</ele>
        <time>2024-12-08T07:24:40.619Z</time>
      </trkpt>
      <trkpt lat="46.00404" lon="4.00148">
        <ele>336</ele>
        <time>2024-12-08T07:24:41.619Z</time>
      </trkpt>
      <trkpt lat="46.00405" lon="4.0015">
        <ele>335</ele>
        <time>2024-12-08T07:24:42.619Z</time>
      </trkpt>
      <trkpt lat="46.00406" lon="4.00153">
        <ele>335</ele>
        <time>2024-12-08T07:24:43.619Z</time>
      </trkpt>
      <trkpt lat="46.00407" lon="4.00155">
        <ele>335</ele>
        <time>2024-12-08T07:24:44.619Z</time>
      </trkpt>
      <trkpt lat="46.00407" lon="4.00156">
        <ele>335</ele>
        <time>2024-12-08T07:24:45.620Z</time>
      </trkpt>
      <trkpt lat="46.00408" lon="4.00158">
        <ele>334</ele>
        <time>2024-12-08T07:24:46.619Z</time>
      </trkpt>
      <trkpt lat="46.00409" lon="4.00161">
        <ele>334</ele>
        <time>2024-12-08T07:24:47.619Z</time>
      </trkpt>
      <trkpt lat="46.00409" lon="4.00163">
        <ele>334</ele>
        <time>2024-12-08T07:24:48.620Z</time>
      </trkpt>
      <trkpt lat="46.0041" lon="4.00165">
        <ele>334</ele>
        <time>2024-12-08T07:24:49.619Z</time>
      </trkpt>
      <trkpt lat="46.00411" lon="4.00167">
        <ele>334</ele>
        <time>2024-12-08T07:24:50.619Z</time>
      </trkpt>
      <trkpt lat="46.00412" lon="4.00169">
        <ele>335</ele>
        <time>2024-12-08T07:24:51.619Z</time>
      </trkpt>
      <trkpt lat="46.00413" lon="4.00171">
        <ele>335</ele>
        <time>2024-12-08T07:24:52.620Z</time>
      </trkpt>
      <trkpt lat="46.00413" lon="4.00173">
        <ele>335</ele>
        <time>2024-12-08T07:24:53.619Z</time>
      </trkpt>
      <trkpt lat="46.00414" lon="4.00175">
        <ele>335</ele>
        <time>2024-12-08T07:24:54.619Z</time>
      </trkpt>
      <trkpt lat="46.00415" lon="4.00177">
        <ele>335</ele>
        <time>2024-12-08T07:24:55.619Z</time>
      </trkpt>
      <trkpt lat="46.00416" lon="4.00179">
        <ele>336</ele>
        <time>2024-12-08T07:24:56.620Z</time>
      </trkpt>
      <trkpt lat="46.00416" lon="4.00181">
        <ele>336</ele>
        <time>2024-12-08T07:24:57.620Z</time>
      </trkpt>
      <trkpt lat="46.00417" lon="4.00183">
        <ele>336</ele>
        <time>2024-12-08T07:24:58.620Z</time>
      </trkpt>
      <trkpt lat="46.00418" lon="4.00185">
        <ele>336</ele>
        <time>2024-12-08T07:24:59.619Z</time>
      </trkpt>
      <trkpt lat="46.00418" lon="4.00188">
        <ele>336</ele>
        <time>2024-12-08T07:25:00.620Z</time>
      </trkpt>
      <trkpt lat="46.00419" lon="4.00189">
        <ele>336</ele>
        <time>2024-12-08T07:25:01.619Z</time>
      </trkpt>
      <trkpt lat="46.0042" lon="4.00192">
        <ele>336</ele>
        <time>2024-12-08T07:25:02.619Z</time>
      </trkpt>
      <trkpt lat="46.00421" lon="4.00193">
        <ele>336</ele>
        <time>2024-12-08T07:25:03.620Z</time>
      </trkpt>
      <trkpt lat="46.00421" lon="4.00195">
        <ele>335</ele>
        <time>2024-12-08T07:25:04.620Z</time>
      </trkpt>
      <trkpt lat="46.00422" lon="4.00197">
        <ele>335</ele>
        <time>2024-12-08T07:25:05.620Z</time>
      </trkpt>
      <trkpt lat="46.00423" lon="4.002">
        <ele>335</ele>
        <time>2024-12-08T07:25:06.619Z</time>
      </trkpt>
      <trkpt lat="46.00424" lon="4.00202">
        <ele>335</ele>
        <time>2024-12-08T07:25:07.619Z</time>
      </trkpt>
      <trkpt lat="46.00425" lon="4.00204">
        <ele>336</ele>
        <time>2024-12-08T07:25:08.620Z</time>
      </trkpt>
      <trkpt lat="46.00426" lon="4.00207">
        <ele>336</ele>
        <time>2024-12-08T07:25:09.619Z</time>
      </trkpt>
      <trkpt lat="46.00426" lon="4.00208">
        <ele>335</ele>
        <time>2024-12-08T07:25:10.620Z</time>
      </trkpt>
      <trkpt lat="46.00427" lon="4.00211">
        <ele>335</ele>
        <time>2024-12-08T07:25:11.620Z</time>
      </trkpt>
      <trkpt lat="46.00428" lon="4.00213">
        <ele>335</ele>
        <time>2024-12-08T07:25:12.619Z</time>
      </trkpt>
      <trkpt lat="46.00429" lon="4.00215">
        <ele>334</ele>
        <time>2024-12-08T07:25:13.620Z</time>
      </trkpt>
      <trkpt lat="46.0043" lon="4.00217">
        <ele>334</ele>
        <time>2024-12-08T07:25:14.620Z</time>
      </trkpt>
      <trkpt lat="46.00431" lon="4.00219">
        <ele>334</ele>
        <time>2024-12-08T07:25:15.619Z</time>
      </trkpt>
      <trkpt lat="46.00432" lon="4.00221">
        <ele>334</ele>
        <time>2024-12-08T07:25:16.619Z</time>
      </trkpt>
      <trkpt lat="46.00432" lon="4.00223">
        <ele>334</ele>
        <time>2024-12-08T07:25:17.619Z</time>
      </trkpt>
      <trkpt lat="46.00433" lon="4.00226">
        <ele>333</ele>
        <time>2024-12-08T07:25:18.620Z</time>
      </trkpt>
      <trkpt lat="46.00434" lon="4.00228">
        <ele>333</ele>
        <time>2024-12-08T07:25:19.620Z</time>
      </trkpt>
      <trkpt lat="46.00435" lon="4.00229">
        <ele>333</ele>
        <time>2024-12-08T07:25:20.620Z</time>
      </trkpt>
      <trkpt lat="46.00435" lon="4.00231">
        <ele>333</ele>
        <time>2024-12-08T07:25:21.619Z</time>
      </trkpt>
      <trkpt lat="46.00436" lon="4.00233">
        <ele>333</ele>
        <time>2024-12-08T07:25:22.619Z</time>
      </trkpt>
      <trkpt lat="46.00437" lon="4.00236">
        <ele>333</ele>
        <time>2024-12-08T07:25:23.619Z</time>
      </trkpt>
      <trkpt lat="46.00438" lon="4.00238">
        <ele>333</ele>
        <time>2024-12-08T07:25:24.619Z</time>
      </trkpt>
      <trkpt lat="46.00438" lon="4.0024">
        <ele>333</ele>
        <time>2024-12-08T07:25:25.619Z</time>
      </trkpt>
      <trkpt lat="46.0044" lon="4.00242">
        <ele>333</ele>
        <time>2024-12-08T07:25:26.620Z</time>
      </trkpt>
      <trkpt lat="46.00441" lon="4.00243">
        <ele>332</ele>
        <time>2024-12-08T07:25:27.619Z</time>
      </trkpt>
      <trkpt lat="46.00442" lon="4.00245">
        <ele>332</ele>
        <time>2024-12-08T07:25:28.619Z</time>
      </trkpt>
      <trkpt lat="46.00444" lon="4.00247">
        <ele>332</ele>
        <time>2024-12-08T07:25:29.619Z</time>
      </trkpt>
      <trkpt lat="46.00445" lon="4.00248">
        <ele>332</ele>
        <time>2024-12-08T07:25:30.619Z</time>
      </trkpt>
      <trkpt lat="46.00446" lon="4.0025">
        <ele>333</ele>
        <time>2024-12-08T07:25:31.620Z</time>
      </trkpt>
      <trkpt lat="46.00448" lon="4.00251">
        <ele>333</ele>
        <time>2024-12-08T07:25:32.620Z</time>
      </trkpt>
      <trkpt lat="46.00449" lon="4.00252">
        <ele>333</ele>
        <time>2024-12-08T07:25:33.619Z</time>
      </trkpt>
      <trkpt lat="46.0045" lon="4.00253">
        <ele>333</ele>
        <time>2024-12-08T07:25:34.619Z</time>
      </trkpt>
      <trkpt lat="46.00451" lon="4.00254">
        <ele>333</ele>
        <time>2024-12-08T07:25:35.619Z</time>
      </trkpt>
      <trkpt lat="46.00453" lon="4.00254">
        <ele>333</ele>
        <time>2024-12-08T07:25:36.619Z</time>
      </trkpt>
      <trkpt lat="46.00454" lon="4.00255">
        <ele>333</ele>
        <time>2024-12-08T07:25:37.619Z</time>
      </trkpt>
      <trkpt lat="46.00455" lon="4.00256">
        <ele>333</ele>
        <time>2024-12-08T07:25:38.620Z</time>
      </trkpt>
      <trkpt lat="46.00456" lon="4.00257">
        <ele>333</ele>
        <time>2024-12-08T07:25:39.620Z</time>
      </trkpt>
      <trkpt lat="46.00458" lon="4.00258">
        <ele>332</ele>
        <time>2024-12-08T07:25:40.619Z</time>
      </trkpt>
      <trkpt lat="46.0046" lon="4.0026">
        <ele>332</ele>
        <time>2024-12-08T07:25:41.619Z</time>
      </trkpt>
      <trkpt lat="46.00461" lon="4.0026">
        <ele>333</ele>
        <time>2024-12-08T07:25:42.619Z</time>
      </trkpt>
      <trkpt lat="46.00462" lon="4.00262">
        <ele>333</ele>
        <time>2024-12-08T07:25:43.620Z</time>
      </trkpt>
      <trkpt lat="46.00464" lon="4.00263">
        <ele>334</ele>
        <time>2024-12-08T07:25:44.619Z</time>
      </trkpt>
      <trkpt lat="46.00465" lon="4.00264">
        <ele>334</ele>
        <time>2024-12-08T07:25:45.619Z</time>
      </trkpt>
      <trkpt lat="46.00467" lon="4.00265">
        <ele>334</ele>
        <time>2024-12-08T07:25:46.619Z</time>
      </trkpt>
      <trkpt lat="46.00468" lon="4.00266">
        <ele>335</ele>
        <time>2024-12-08T07:25:47.620Z</time>
      </trkpt>
      <trkpt lat="46.0047" lon="4.00267">
        <ele>335</ele>
        <time>2024-12-08T07:25:48.619Z</time>
      </trkpt>
      <trkpt lat="46.00471" lon="4.00268">
        <ele>335</ele>
        <time>2024-12-08T07:25:49.620Z</time>
      </trkpt>
      <trkpt lat="46.00473" lon="4.00269">
        <ele>335</ele>
        <time>2024-12-08T07:25:50.620Z</time>
      </trkpt>
      <trkpt lat="46.00475" lon="4.00269">
        <ele>335</ele>
        <time>2024-12-08T07:25:51.619Z</time>
      </trkpt>
      <trkpt lat="46.00476" lon="4.0027">
        <ele>335</ele>
        <time>2024-12-08T07:25:52.619Z</time>
      </trkpt>
      <trkpt lat="46.00477" lon="4.00271">
        <ele>335</ele>
        <time>2024-12-08T07:25:53.620Z</time>
      </trkpt>
      <trkpt lat="46.00479" lon="4.00272">
        <ele>335</ele>
        <time>2024-12-08T07:25:54.619Z</time>
      </trkpt>
      <trkpt lat="46.0048" lon="4.00272">
        <ele>335</ele>
        <time>2024-12-08T07:25:55.620Z</time>
      </trkpt>
      <trkpt lat="46.00481" lon="4.00272">
        <ele>335</ele>
        <time>2024-12-08T07:25:56.620Z</time>
      </trkpt>
      <trkpt lat="46.00482" lon="4.00272">
        <ele>335</ele>
        <time>2024-12-08T07:25:57.620Z</time>
      </trkpt>
      <trkpt lat="46.00483" lon="4.00271">
        <ele>335</ele>
        <time>2024-12-08T07:25:58.619Z</time>
      </trkpt>
      <trkpt lat="46.00483" lon="4.00271">
        <ele>335</ele>
        <time>2024-12-08T07:25:59.620Z</time>
      </trkpt>
      <trkpt lat="46.00484" lon="4.00271">
        <ele>335</ele>
        <time>2024-12-08T07:26:00.619Z</time>
      </trkpt>
      <trkpt lat="46.00484" lon="4.00271">
        <ele>334</ele>
        <time>2024-12-08T07:26:01.619Z</time>
      </trkpt>
      <trkpt lat="46.00485" lon="4.00271">
        <ele>334</ele>
        <time>2024-12-08T07:26:02.619Z</time>
      </trkpt>
      <trkpt lat="46.00485" lon="4.00271">
        <ele>334</ele>
        <time>2024-12-08T07:26:03.619Z</time>
      </trkpt>
      <trkpt lat="46.00485" lon="4.00271">
        <ele>335</ele>
        <time>2024-12-08T07:26:04.619Z</time>
      </trkpt>
      <trkpt lat="46.00485" lon="4.00271">
        <ele>335</ele>
        <time>2024-12-08T07:26:05.619Z</time>
      </trkpt>
      <trkpt lat="46.00485" lon="4.00271">
        <ele>335</ele>
        <time>2024-12-08T07:26:06.620Z</time>
      </trkpt>
      <trkpt lat="46.00485" lon="4.0027">
        <ele>335</ele>
        <time>2024-12-08T07:26:07.619Z</time>
      </trkpt>
      <trkpt lat="46.00485" lon="4.0027">
        <ele>335</ele>
        <time>2024-12-08T07:26:08.619Z</time>
      </trkpt>
      <trkpt lat="46.00485" lon="4.0027">
        <ele>334</ele>
        <time>2024-12-08T07:26:09.620Z</time>
      </trkpt>
      <trkpt lat="46.00485" lon="4.0027">
        <ele>334</ele>
        <time>2024-12-08T07:26:10.619Z</time>
      </trkpt>
      <trkpt lat="46.00485" lon="4.0027">
        <ele>334</ele>
        <time>2024-12-08T07:26:11.620Z</time>
      </trkpt>
      <trkpt lat="46.00485" lon="4.0027">
        <ele>333</ele>
        <time>2024-12-08T07:26:12.620Z</time>
      </trkpt>
      <trkpt lat="46.00485" lon="4.0027">
        <ele>332</ele>
        <time>2024-12-08T07:26:13.620Z</time>
      </trkpt>
      <trkpt lat="46.00485" lon="4.0027">
        <ele>332</ele>
        <time>2024-12-08T07:26:14.620Z</time>
      </trkpt>
      <trkpt lat="46.00485" lon="4.0027">
        <ele>331</ele>
        <time>2024-12-08T07:26:15.619Z</time>
      </trkpt>
      <trkpt lat="46.00485" lon="4.0027">
        <ele>331</ele>
        <time>2024-12-08T07:26:16.620Z</time>
      </trkpt>
      <trkpt lat="46.00485" lon="4.0027">
        <ele>331</ele>
        <time>2024-12-08T07:26:17.619Z</time>
      </trkpt>
      <trkpt lat="46.00485" lon="4.0027">
        <ele>330</ele>
        <time>2024-12-08T07:26:18.620Z</time>
      </trkpt>
      <trkpt lat="46.00485" lon="4.0027">
        <ele>330</ele>
        <time>2024-12-08T07:26:19.619Z</time>
      </trkpt>
      <trkpt lat="46.00485" lon="4.0027">
        <ele>330</ele>
        <time>2024-12-08T07:26:20.620Z</time>
      </trkpt>
      <trkpt lat="46.00485" lon="4.0027">
        <ele>329</ele>
        <time>2024-12-08T07:26:21.620Z</time>
      </trkpt>
      <trkpt lat="46.00485" lon="4.0027">
        <ele>329</ele>
        <time>2024-12-08T07:26:22.620Z</time>
      </trkpt>
      <trkpt lat="46.00485" lon="4.0027">
        <ele>329</ele>
        <time>2024-12-08T07:26:23.620Z</time>
      </trkpt>
      <trkpt lat="46.00485" lon="4.0027">
        <ele>329</ele>
        <time>2024-12-08T07:26:24.619Z</time>
      </trkpt>
      <trkpt lat="46.00485" lon="4.0027">
        <ele>328</ele>
        <time>2024-12-08T07:26:25.620Z</time>
      </trkpt>
      <trkpt lat="46.00485" lon="4.0027">
        <ele>328</ele>
        <time>2024-12-08T07:26:26.619Z</time>
      </trkpt>
      <trkpt lat="46.00485" lon="4.0027">
        <ele>328</ele>
        <time>2024-12-08T07:26:27.620Z</time>
      </trkpt>
      <trkpt lat="46.00485" lon="4.0027">
        <ele>328</ele>
        <time>2024-12-08T07:26:28.619Z</time>
      </trkpt>
      <trkpt lat="46.00485" lon="4.0027">
        <ele>328</ele>
        <time>2024-12-08T07:26:29.620Z</time>
      </trkpt>
      <trkpt lat="46.00485" lon="4.0027">
        <ele>328</ele>
        <time>2024-12-08T07:26:30.619Z</time>
      </trkpt>
      <trkpt lat="46.00485" lon="4.0027">
        <ele>328</ele>
        <time>2024-12-08T07:26:31.620Z</time>
      </trkpt>
      <trkpt lat="46.00485" lon="4.0027">
        <ele>328</ele>
        <time>2024-12-08T07:26:32.620Z</time>
      </trkpt>
      <trkpt lat="46.00485" lon="4.0027">
        <ele>328</ele>
        <time>2024-12-08T07:26:33.619Z</time>
      </trkpt>
      <trkpt lat="46.00485" lon="4.0027">
        <ele>328</ele>
        <time>2024-12-08T07:26:34.620Z</time>
      </trkpt>
      <trkpt lat="46.00485" lon="4.0027">
        <ele>328</ele>
        <time>2024-12-08T07:26:35.619Z</time>
      </trkpt>
      <trkpt lat="46.00485" lon="4.0027">
        <ele>328</ele>
        <time>2024-12-08T07:26:36.620Z</time>
      </trkpt>
      <trkpt lat="46.00485" lon="4.0027">
        <ele>328</ele>
        <time>2024-12-08T07:26:37.619Z</time>
      </trkpt>
      <trkpt lat="46.00485" lon="4.0027">
        <ele>328</ele>
        <time>2024-12-08T07:26:38.619Z</time>
      </trkpt>
      <trkpt lat="46.00485" lon="4.0027">
        <ele>328</ele>
        <time>2024-12-08T07:26:39.619Z</time>
      </trkpt>
      <trkpt lat="46.00485" lon="4.0027">
        <ele>328</ele>
        <time>2024-12-08T07:26:40.619Z</time>
      </trkpt>
      <trkpt lat="46.00484" lon="4.0027">
        <ele>328</ele>
        <time>2024-12-08T07:26:41.619Z</time>
      </trkpt>
      <trkpt lat="46.00484" lon="4.0027">
        <ele>328</ele>
        <time>2024-12-08T07:26:42.619Z</time>
      </trkpt>
      <trkpt lat="46.00484" lon="4.0027">
        <ele>328</ele>
        <time>2024-12-08T07:26:43.620Z</time>
      </trkpt>
      <trkpt lat="46.00484" lon="4.0027">
        <ele>328</ele>
        <time>2024-12-08T07:26:44.620Z</time>
      </trkpt>
      <trkpt lat="46.00484" lon="4.0027">
        <ele>328</ele>
        <time>2024-12-08T07:26:45.620Z</time>
      </trkpt>
      <trkpt lat="46.00484" lon="4.0027">
        <ele>328</ele>
        <time>2024-12-08T07:26:46.619Z</time>
      </trkpt>
      <trkpt lat="46.00484" lon="4.0027">
        <ele>329</ele>
        <time>2024-12-08T07:26:47.620Z</time>
      </trkpt>
      <trkpt lat="46.00484" lon="4.0027">
        <ele>329</ele>
        <time>2024-12-08T07:26:48.619Z</time>
      </trkpt>
      <trkpt lat="46.00484" lon="4.0027">
        <ele>329</ele>
        <time>2024-12-08T07:26:49.620Z</time>
      </trkpt>
      <trkpt lat="46.00484" lon="4.00271">
        <ele>329</ele>
        <time>2024-12-08T07:26:50.619Z</time>
      </trkpt>
      <trkpt lat="46.00485" lon="4.00272">
        <ele>329</ele>
        <time>2024-12-08T07:26:51.619Z</time>
      </trkpt>
      <trkpt lat="46.00485" lon="4.00274">
        <ele>329</ele>
        <time>2024-12-08T07:26:52.619Z</time>
      </trkpt>
      <trkpt lat="46.00485" lon="4.00275">
        <ele>329</ele>
        <time>2024-12-08T07:26:53.619Z</time>
      </trkpt>
      <trkpt lat="46.00486" lon="4.00276">
        <ele>329</ele>
        <time>2024-12-08T07:26:54.620Z</time>
      </trkpt>
      <trkpt lat="46.00486" lon="4.00277">
        <ele>329</ele>
        <time>2024-12-08T07:26:55.619Z</time>
      </trkpt>
      <trkpt lat="46.00486" lon="4.00278">
        <ele>330</ele>
        <time>2024-12-08T07:26:56.620Z</time>
      </trkpt>
      <trkpt lat="46.00486" lon="4.00278">
        <ele>330</ele>
        <time>2024-12-08T07:26:57.620Z</time>
      </trkpt>
      <trkpt lat="46.00486" lon="4.00279">
        <ele>330</ele>
        <time>2024-12-08T07:26:58.620Z</time>
      </trkpt>
      <trkpt lat="46.00486" lon="4.0028">
        <ele>330</ele>
        <time>2024-12-08T07:26:59.619Z</time>
      </trkpt>
      <trkpt lat="46.00486" lon="4.0028">
        <ele>331</ele>
        <time>2024-12-08T07:27:00.620Z</time>
      </trkpt>
      <trkpt lat="46.00486" lon="4.0028">
        <ele>331</ele>
        <time>2024-12-08T07:27:01.619Z</time>
      </trkpt>
      <trkpt lat="46.00486" lon="4.0028">
        <ele>331</ele>
        <time>2024-12-08T07:27:02.619Z</time>
      </trkpt>
      <trkpt lat="46.00486" lon="4.0028">
        <ele>331</ele>
        <time>2024-12-08T07:27:03.619Z</time>
      </trkpt>
      <trkpt lat="46.00486" lon="4.0028">
        <ele>331</ele>
        <time>2024-12-08T07:27:04.620Z</time>
      </trkpt>
      <trkpt lat="46.00486" lon="4.0028">
        <ele>331</ele>
        <time>2024-12-08T07:27:05.619Z</time>
      </trkpt>
      <trkpt lat="46.00486" lon="4.0028">
        <ele>331</ele>
        <time>2024-12-08T07:27:06.619Z</time>
      </trkpt>
      <trkpt lat="46.00486" lon="4.0028">
        <ele>331</ele>
        <time>2024-12-08T07:27:07.620Z</time>
      </trkpt>
      <trkpt lat="46.00486" lon="4.0028">
        <ele>331</ele>
        <time>2024-12-08T07:27:08.620Z</time>
      </trkpt>
      <trkpt lat="46.00486" lon="4.0028">
        <ele>331</ele>
        <time>2024-12-08T07:27:09.620Z</time>
      </trkpt>
      <trkpt lat="46.00486" lon="4.0028">
        <ele>331</ele>
        <time>2024-12-08T07:27:10.620Z</time>
      </trkpt>
      <trkpt lat="46.00486" lon="4.0028">
        <ele>331</ele>
        <time>2024-12-08T07:27:11.620Z</time>
      </trkpt>
      <trkpt lat="46.00486" lon="4.0028">
        <ele>331</ele>
        <time>2024-12-08T07:27:12.619Z</time>
      </trkpt>
      <trkpt lat="46.00486" lon="4.0028">
        <ele>331</ele>
        <time>2024-12-08T07:27:13.620Z</time>
      </trkpt>
      <trkpt lat="46.00486" lon="4.0028">
        <ele>331</ele>
        <time>2024-12-08T07:27:14.619Z</time>
      </trkpt>
      <trkpt lat="46.00486" lon="4.0028">
        <ele>331</ele>
        <time>2024-12-08T07:27:15.619Z</time>
      </trkpt>
      <trkpt lat="46.00486" lon="4.0028">
        <ele>331</ele>
        <time>2024-12-08T07:27:16.619Z</time>
      </trkpt>
      <trkpt lat="46.00486" lon="4.0028">
        <ele>331</ele>
        <time>2024-12-08T07:27:17.620Z</time>
      </trkpt>
      <trkpt lat="46.00486" lon="4.0028">
        <ele>331</ele>
        <time>2024-12-08T07:27:18.619Z</time>
      </trkpt>
      <trkpt lat="46.00486" lon="4.0028">
        <ele>331</ele>
        <time>2024-12-08T07:27:19.620Z</time>
      </trkpt>
      <trkpt lat="46.00486" lon="4.0028">
        <ele>331</ele>
        <time>2024-12-08T07:27:20.620Z</time>
      </trkpt>
      <trkpt lat="46.00486" lon="4.0028">
        <ele>331</ele>
        <time>2024-12-08T07:27:21.619Z</time>
      </trkpt>
      <trkpt lat="46.00486" lon="4.0028">
        <ele>331</ele>
        <time>2024-12-08T07:27:22.620Z</time>
      </trkpt>
      <trkpt lat="46.00486" lon="4.0028">
        <ele>331</ele>
        <time>2024-12-08T07:27:23.620Z</time>
      </trkpt>
      <trkpt lat="46.00487" lon="4.0028">
        <ele>331</ele>
        <time>2024-12-08T07:27:24.620Z</time>
      </trkpt>
      <trkpt lat="46.00487" lon="4.0028">
        <ele>331</ele>
        <time>2024-12-08T07:27:25.619Z</time>
      </trkpt>
      <trkpt lat="46.00487" lon="4.0028">
        <ele>331</ele>
        <time>2024-12-08T07:27:26.620Z</time>
      </trkpt>
      <trkpt lat="46.00487" lon="4.0028">
        <ele>331</ele>
        <time>2024-12-08T07:27:27.619Z</time>
      </trkpt>
      <trkpt lat="46.00487" lon="4.0028">
        <ele>331</ele>
        <time>2024-12-08T07:27:28.620Z</time>
      </trkpt>
      <trkpt lat="46.00487" lon="4.0028">
        <ele>331</ele>
        <time>2024-12-08T07:27:29.619Z</time>
      </trkpt>
      <trkpt lat="46.00487" lon="4.0028">
        <ele>331</ele>
        <time>2024-12-08T07:27:30.620Z</time>
      </trkpt>
      <trkpt lat="46.00487" lon="4.0028">
        <ele>331</ele>
        <time>2024-12-08T07:27:31.619Z</time>
      </trkpt>
      <trkpt lat="46.00487" lon="4.0028">
        <ele>331</ele>
        <time>2024-12-08T07:27:32.620Z</time>
      </trkpt>
      <trkpt lat="46.00487" lon="4.0028">
        <ele>331</ele>
        <time>2024-12-08T07:27:33.620Z</time>
      </trkpt>
      <trkpt lat="46.00487" lon="4.0028">
        <ele>331</ele>
        <time>2024-12-08T07:27:34.619Z</time>
      </trkpt>
      <trkpt lat="46.00487" lon="4.0028">
        <ele>331</ele>
        <time>2024-12-08T07:27:35.620Z</time>
      </trkpt>
      <trkpt lat="46.00487" lon="4.0028">
        <ele>331</ele>
        <time>2024-12-08T07:27:36.619Z</time>
      </trkpt>
      <trkpt lat="46.00487" lon="4.00281">
        <ele>331</ele>
        <time>2024-12-08T07:27:37.620Z</time>
      </trkpt>
      <trkpt lat="46.00487" lon="4.00281">
        <ele>331</ele>
        <time>2024-12-08T07:27:38.619Z</time>
      </trkpt>
      <trkpt lat="46.00487" lon="4.00281">
        <ele>331</ele>
        <time>2024-12-08T07:27:39.620Z</time>
      </trkpt>
      <trkpt lat="46.00487" lon="4.00281">
        <ele>331</ele>
        <time>2024-12-08T07:27:40.620Z</time>
      </trkpt>
      <trkpt lat="46.00487" lon="4.00281">
        <ele>331</ele>
        <time>2024-12-08T07:27:41.620Z</time>
      </trkpt>
      <trkpt lat="46.00487" lon="4.00281">
        <ele>331</ele>
        <time>2024-12-08T07:27:42.619Z</time>
      </trkpt>
      <trkpt lat="46.00487" lon="4.00281">
        <ele>331</ele>
        <time>2024-12-08T07:27:43.620Z</time>
      </trkpt>
      <trkpt lat="46.00487" lon="4.00281">
        <ele>331</ele>
        <time>2024-12-08T07:27:44.620Z</time>
      </trkpt>
      <trkpt lat="46.00487" lon="4.00281">
        <ele>331</ele>
        <time>2024-12-08T07:27:45.619Z</time>
      </trkpt>
      <trkpt lat="46.00487" lon="4.00281">
        <ele>331</ele>
        <time>2024-12-08T07:27:46.620Z</time>
      </trkpt>
      <trkpt lat="46.00488" lon="4.00281">
        <ele>331</ele>
        <time>2024-12-08T07:27:47.619Z</time>
      </trkpt>
      <trkpt lat="46.0049" lon="4.00282">
        <ele>331</ele>
        <time>2024-12-08T07:27:48.620Z</time>
      </trkpt>
      <trkpt lat="46.00491" lon="4.00282">
        <ele>331</ele>
        <time>2024-12-08T07:27:49.620Z</time>
      </trkpt>
      <trkpt lat="46.00493" lon="4.00282">
        <ele>331</ele>
        <time>2024-12-08T07:27:50.619Z</time>
      </trkpt>
      <trkpt lat="46.00495" lon="4.00283">
        <ele>331</ele>
        <time>2024-12-08T07:27:51.619Z</time>
      </trkpt>
      <trkpt lat="46.00497" lon="4.00284">
        <ele>331</ele>
        <time>2024-12-08T07:27:52.619Z</time>
      </trkpt>
      <trkpt lat="46.00499" lon="4.00284">
        <ele>331</ele>
        <time>2024-12-08T07:27:53.619Z</time>
      </trkpt>
      <trkpt lat="46.00501" lon="4.00285">
        <ele>330</ele>
        <time>2024-12-08T07:27:54.619Z</time>
      </trkpt>
      <trkpt lat="46.00502" lon="4.00286">
        <ele>330</ele>
        <time>2024-12-08T07:27:55.619Z</time>
      </trkpt>
      <trkpt lat="46.00504" lon="4.00288">
        <ele>330</ele>
        <time>2024-12-08T07:27:56.619Z</time>
      </trkpt>
      <trkpt lat="46.00506" lon="4.00289">
        <ele>329</ele>
        <time>2024-12-08T07:27:57.619Z</time>
      </trkpt>
      <trkpt lat="46.00507" lon="4.0029">
        <ele>329</ele>
        <time>2024-12-08T07:27:58.619Z</time>
      </trkpt>
      <trkpt lat="46.00509" lon="4.00291">
        <ele>329</ele>
        <time>2024-12-08T07:27:59.620Z</time>
      </trkpt>
      <trkpt lat="46.0051" lon="4.00291">
        <ele>329</ele>
        <time>2024-12-08T07:28:00.619Z</time>
      </trkpt>
      <trkpt lat="46.00512" lon="4.00292">
        <ele>329</ele>
        <time>2024-12-08T07:28:01.620Z</time>
      </trkpt>
      <trkpt lat="46.00513" lon="4.00292">
        <ele>329</ele>
        <time>2024-12-08T07:28:02.619Z</time>
      </trkpt>
      <trkpt lat="46.00515" lon="4.00293">
        <ele>329</ele>
        <time>2024-12-08T07:28:03.620Z</time>
      </trkpt>
      <trkpt lat="46.00516" lon="4.00293">
        <ele>329</ele>
        <time>2024-12-08T07:28:04.619Z</time>
      </trkpt>
      <trkpt lat="46.00517" lon="4.00294">
        <ele>330</ele>
        <time>2024-12-08T07:28:05.619Z</time>
      </trkpt>
      <trkpt lat="46.00518" lon="4.00294">
        <ele>330</ele>
        <time>2024-12-08T07:28:06.619Z</time>
      </trkpt>
      <trkpt lat="46.0052" lon="4.00295">
        <ele>330</ele>
        <time>2024-12-08T07:28:07.619Z</time>
      </trkpt>
      <trkpt lat="46.00521" lon="4.00296">
        <ele>330</ele>
        <time>2024-12-08T07:28:08.619Z</time>
      </trkpt>
      <trkpt lat="46.00523" lon="4.00296">
        <ele>330</ele>
        <time>2024-12-08T07:28:09.619Z</time>
      </trkpt>
      <trkpt lat="46.00524" lon="4.00297">
        <ele>330</ele>
        <time>2024-12-08T07:28:10.619Z</time>
      </trkpt>
      <trkpt lat="46.00526" lon="4.00298">
        <ele>330</ele>
        <time>2024-12-08T07:28:11.619Z</time>
      </trkpt>
      <trkpt lat="46.00527" lon="4.00299">
        <ele>330</ele>
        <time>2024-12-08T07:28:12.620Z</time>
      </trkpt>
      <trkpt lat="46.00529" lon="4.003">
        <ele>331</ele>
        <time>2024-12-08T07:28:13.619Z</time>
      </trkpt>
      <trkpt lat="46.0053" lon="4.00301">
        <ele>331</ele>
        <time>2024-12-08T07:28:14.619Z</time>
      </trkpt>
      <trkpt lat="46.00531" lon="4.00302">
        <ele>332</ele>
        <time>2024-12-08T07:28:15.619Z</time>
      </trkpt>
      <trkpt lat="46.00533" lon="4.00303">
        <ele>332</ele>
        <time>2024-12-08T07:28:16.620Z</time>
      </trkpt>
      <trkpt lat="46.00534" lon="4.00303">
        <ele>332</ele>
        <time>2024-12-08T07:28:17.619Z</time>
      </trkpt>
      <trkpt lat="46.00536" lon="4.00305">
        <ele>332</ele>
        <time>2024-12-08T07:28:18.619Z</time>
      </trkpt>
      <trkpt lat="46.00537" lon="4.00305">
        <ele>332</ele>
        <time>2024-12-08T07:28:19.620Z</time>
      </trkpt>
      <trkpt lat="46.00539" lon="4.00306">
        <ele>332</ele>
        <time>2024-12-08T07:28:20.620Z</time>
      </trkpt>
      <trkpt lat="46.0054" lon="4.00307">
        <ele>332</ele>
        <time>2024-12-08T07:28:21.620Z</time>
      </trkpt>
      <trkpt lat="46.00542" lon="4.00307">
        <ele>332</ele>
        <time>2024-12-08T07:28:22.619Z</time>
      </trkpt>
      <trkpt lat="46.00544" lon="4.00308">
        <ele>332</ele>
        <time>2024-12-08T07:28:23.620Z</time>
      </trkpt>
      <trkpt lat="46.00545" lon="4.00308">
        <ele>332</ele>
        <time>2024-12-08T07:28:24.620Z</time>
      </trkpt>
      <trkpt lat="46.00547" lon="4.00309">
        <ele>332</ele>
        <time>2024-12-08T07:28:25.619Z</time>
      </trkpt>
      <trkpt lat="46.00549" lon="4.0031">
        <ele>332</ele>
        <time>2024-12-08T07:28:26.620Z</time>
      </trkpt>
      <trkpt lat="46.00551" lon="4.00311">
        <ele>332</ele>
        <time>2024-12-08T07:28:27.619Z</time>
      </trkpt>
      <trkpt lat="46.00552" lon="4.00312">
        <ele>332</ele>
        <time>2024-12-08T07:28:28.619Z</time>
      </trkpt>
      <trkpt lat="46.00554" lon="4.00313">
        <ele>332</ele>
        <time>2024-12-08T07:28:29.619Z</time>
      </trkpt>
      <trkpt lat="46.00555" lon="4.00313">
        <ele>332</ele>
        <time>2024-12-08T07:28:30.620Z</time>
      </trkpt>
      <trkpt lat="46.00557" lon="4.00314">
        <ele>332</ele>
        <time>2024-12-08T07:28:31.619Z</time>
      </trkpt>
      <trkpt lat="46.00559" lon="4.00314">
        <ele>331</ele>
        <time>2024-12-08T07:28:32.619Z</time>
      </trkpt>
      <trkpt lat="46.0056" lon="4.00315">
        <ele>331</ele>
        <time>2024-12-08T07:28:33.620Z</time>
      </trkpt>
      <trkpt lat="46.00562" lon="4.00315">
        <ele>331</ele>
        <time>2024-12-08T07:28:34.619Z</time>
      </trkpt>
      <trkpt lat="46.00563" lon="4.00316">
        <ele>331</ele>
        <time>2024-12-08T07:28:35.619Z</time>
      </trkpt>
      <trkpt lat="46.00565" lon="4.00316">
        <ele>332</ele>
        <time>2024-12-08T07:28:36.620Z</time>
      </trkpt>
      <trkpt lat="46.00566" lon="4.00316">
        <ele>332</ele>
        <time>2024-12-08T07:28:37.619Z</time>
      </trkpt>
      <trkpt lat="46.00567" lon="4.00317">
        <ele>331</ele>
        <time>2024-12-08T07:28:38.619Z</time>
      </trkpt>
      <trkpt lat="46.00569" lon="4.00317">
        <ele>331</ele>
        <time>2024-12-08T07:28:39.619Z</time>
      </trkpt>
      <trkpt lat="46.0057" lon="4.00317">
        <ele>331</ele>
        <time>2024-12-08T07:28:40.619Z</time>
      </trkpt>
      <trkpt lat="46.00572" lon="4.00318">
        <ele>330</ele>
        <time>2024-12-08T07:28:41.620Z</time>
      </trkpt>
      <trkpt lat="46.00574" lon="4.00318">
        <ele>330</ele>
        <time>2024-12-08T07:28:42.619Z</time>
      </trkpt>
      <trkpt lat="46.00576" lon="4.00318">
        <ele>330</ele>
        <time>2024-12-08T07:28:43.620Z</time>
      </trkpt>
      <trkpt lat="46.00578" lon="4.00318">
        <ele>330</ele>
        <time>2024-12-08T07:28:44.619Z</time>
      </trkpt>
      <trkpt lat="46.0058" lon="4.00318">
        <ele>331</ele>
        <time>2024-12-08T07:28:45.620Z</time>
      </trkpt>
      <trkpt lat="46.00582" lon="4.00319">
        <ele>331</ele>
        <time>2024-12-08T07:28:46.620Z</time>
      </trkpt>
      <trkpt lat="46.00583" lon="4.00319">
        <ele>331</ele>
        <time>2024-12-08T07:28:47.620Z</time>
      </trkpt>
      <trkpt lat="46.00585" lon="4.0032">
        <ele>330</ele>
        <time>2024-12-08T07:28:48.620Z</time>
      </trkpt>
      <trkpt lat="46.00587" lon="4.0032">
        <ele>330</ele>
        <time>2024-12-08T07:28:49.619Z</time>
      </trkpt>
      <trkpt lat="46.00589" lon="4.00321">
        <ele>331</ele>
        <time>2024-12-08T07:28:50.619Z</time>
      </trkpt>
      <trkpt lat="46.00591" lon="4.0032">
        <ele>331</ele>
        <time>2024-12-08T07:28:51.619Z</time>
      </trkpt>
      <trkpt lat="46.00592" lon="4.0032">
        <ele>331</ele>
        <time>2024-12-08T07:28:52.620Z</time>
      </trkpt>
      <trkpt lat="46.00594" lon="4.00321">
        <ele>331</ele>
        <time>2024-12-08T07:28:53.620Z</time>
      </trkpt>
      <trkpt lat="46.00595" lon="4.00321">
        <ele>331</ele>
        <time>2024-12-08T07:28:54.620Z</time>
      </trkpt>
      <trkpt lat="46.00596" lon="4.00322">
        <ele>331</ele>
        <time>2024-12-08T07:28:55.619Z</time>
      </trkpt>
      <trkpt lat="46.00598" lon="4.00322">
        <ele>332</ele>
        <time>2024-12-08T07:28:56.619Z</time>
      </trkpt>
      <trkpt lat="46.006" lon="4.00323">
        <ele>332</ele>
        <time>2024-12-08T07:28:57.619Z</time>
      </trkpt>
      <trkpt lat="46.00601" lon="4.00323">
        <ele>332</ele>
        <time>2024-12-08T07:28:58.619Z</time>
      </trkpt>
      <trkpt lat="46.00603" lon="4.00324">
        <ele>332</ele>
        <time>2024-12-08T07:28:59.620Z</time>
      </trkpt>
      <trkpt lat="46.00605" lon="4.00324">
        <ele>333</ele>
        <time>2024-12-08T07:29:00.619Z</time>
      </trkpt>
      <trkpt lat="46.00606" lon="4.00325">
        <ele>333</ele>
        <time>2024-12-08T07:29:01.620Z</time>
      </trkpt>
      <trkpt lat="46.00608" lon="4.00325">
        <ele>332</ele>
        <time>2024-12-08T07:29:02.620Z</time>
      </trkpt>
      <trkpt lat="46.0061" lon="4.00326">
        <ele>332</ele>
        <time>2024-12-08T07:29:03.619Z</time>
      </trkpt>
      <trkpt lat="46.00611" lon="4.00326">
        <ele>332</ele>
        <time>2024-12-08T07:29:04.619Z</time>
      </trkpt>
      <trkpt lat="46.00613" lon="4.00326">
        <ele>332</ele>
        <time>2024-12-08T07:29:05.619Z</time>
      </trkpt>
      <trkpt lat="46.00615" lon="4.00327">
        <ele>331</ele>
        <time>2024-12-08T07:29:06.619Z</time>
      </trkpt>
      <trkpt lat="46.00616" lon="4.00328">
        <ele>332</ele>
        <time>2024-12-08T07:29:07.620Z</time>
      </trkpt>
      <trkpt lat="46.00618" lon="4.00328">
        <ele>332</ele>
        <time>2024-12-08T07:29:08.620Z</time>
      </trkpt>
      <trkpt lat="46.0062" lon="4.00329">
        <ele>332</ele>
        <time>2024-12-08T07:29:09.620Z</time>
      </trkpt>
      <trkpt lat="46.00621" lon="4.0033">
        <ele>332</ele>
        <time>2024-12-08T07:29:10.619Z</time>
      </trkpt>
      <trkpt lat="46.00623" lon="4.0033">
        <ele>332</ele>
        <time>2024-12-08T07:29:11.619Z</time>
      </trkpt>
      <trkpt lat="46.00624" lon="4.00331">
        <ele>332</ele>
        <time>2024-12-08T07:29:12.619Z</time>
      </trkpt>
      <trkpt lat="46.00626" lon="4.00331">
        <ele>331</ele>
        <time>2024-12-08T07:29:13.620Z</time>
      </trkpt>
      <trkpt lat="46.00628" lon="4.00332">
        <ele>332</ele>
        <time>2024-12-08T07:29:14.619Z</time>
      </trkpt>
      <trkpt lat="46.0063" lon="4.00333">
        <ele>332</ele>
        <time>2024-12-08T07:29:15.620Z</time>
      </trkpt>
      <trkpt lat="46.00631" lon="4.00333">
        <ele>331</ele>
        <time>2024-12-08T07:29:16.619Z</time>
      </trkpt>
      <trkpt lat="46.00633" lon="4.00334">
        <ele>331</ele>
        <time>2024-12-08T07:29:17.620Z</time>
      </trkpt>
      <trkpt lat="46.00635" lon="4.00334">
        <ele>331</ele>
        <time>2024-12-08T07:29:18.620Z</time>
      </trkpt>
      <trkpt lat="46.00636" lon="4.00335">
        <ele>331</ele>
        <time>2024-12-08T07:29:19.619Z</time>
      </trkpt>
      <trkpt lat="46.00638" lon="4.00336">
        <ele>331</ele>
        <time>2024-12-08T07:29:20.619Z</time>
      </trkpt>
      <trkpt lat="46.0064" lon="4.00336">
        <ele>331</ele>
        <time>2024-12-08T07:29:21.620Z</time>
      </trkpt>
      <trkpt lat="46.00642" lon="4.00337">
        <ele>331</ele>
        <time>2024-12-08T07:29:22.619Z</time>
      </trkpt>
      <trkpt lat="46.00644" lon="4.00337">
        <ele>331</ele>
        <time>2024-12-08T07:29:23.619Z</time>
      </trkpt>
      <trkpt lat="46.00645" lon="4.00338">
        <ele>330</ele>
        <time>2024-12-08T07:29:24.619Z</time>
      </trkpt>
      <trkpt lat="46.00647" lon="4.00339">
        <ele>330</ele>
        <time>2024-12-08T07:29:25.620Z</time>
      </trkpt>
      <trkpt lat="46.00649" lon="4.00339">
        <ele>330</ele>
        <time>2024-12-08T07:29:26.620Z</time>
      </trkpt>
      <trkpt lat="46.0065" lon="4.0034">
        <ele>330</ele>
        <time>2024-12-08T07:29:27.620Z</time>
      </trkpt>
      <trkpt lat="46.00652" lon="4.0034">
        <ele>330</ele>
        <time>2024-12-08T07:29:28.620Z</time>
      </trkpt>
      <trkpt lat="46.00654" lon="4.0034">
        <ele>330</ele>
        <time>2024-12-08T07:29:29.619Z</time>
      </trkpt>
      <trkpt lat="46.00655" lon="4.00341">
        <ele>330</ele>
        <time>2024-12-08T07:29:30.620Z</time>
      </trkpt>
      <trkpt lat="46.00657" lon="4.00342">
        <ele>330</ele>
        <time>2024-12-08T07:29:31.619Z</time>
      </trkpt>
      <trkpt lat="46.00658" lon="4.00342">
        <ele>330</ele>
        <time>2024-12-08T07:29:32.619Z</time>
      </trkpt>
      <trkpt lat="46.0066" lon="4.00342">
        <ele>329</ele>
        <time>2024-12-08T07:29:33.619Z</time>
      </trkpt>
      <trkpt lat="46.00662" lon="4.00343">
        <ele>329</ele>
        <time>2024-12-08T07:29:34.620Z</time>
      </trkpt>
      <trkpt lat="46.00663" lon="4.00343">
        <ele>329</ele>
        <time>2024-12-08T07:29:35.620Z</time>
      </trkpt>
      <trkpt lat="46.00665" lon="4.00344">
        <ele>329</ele>
        <time>2024-12-08T07:29:36.619Z</time>
      </trkpt>
      <trkpt lat="46.00666" lon="4.00344">
        <ele>328</ele>
        <time>2024-12-08T07:29:37.619Z</time>
      </trkpt>
      <trkpt lat="46.00668" lon="4.00345">
        <ele>328</ele>
        <time>2024-12-08T07:29:38.619Z</time>
      </trkpt>
      <trkpt lat="46.0067" lon="4.00346">
        <ele>328</ele>
        <time>2024-12-08T07:29:39.619Z</time>
      </trkpt>
      <trkpt lat="46.00671" lon="4.00347">
        <ele>328</ele>
        <time>2024-12-08T07:29:40.620Z</time>
      </trkpt>
      <trkpt lat="46.00673" lon="4.00347">
        <ele>328</ele>
        <time>2024-12-08T07:29:41.620Z</time>
      </trkpt>
      <trkpt lat="46.00675" lon="4.00348">
        <ele>329</ele>
        <time>2024-12-08T07:29:42.620Z</time>
      </trkpt>
      <trkpt lat="46.00677" lon="4.00349">
        <ele>329</ele>
        <time>2024-12-08T07:29:43.620Z</time>
      </trkpt>
      <trkpt lat="46.00678" lon="4.0035">
        <ele>329</ele>
        <time>2024-12-08T07:29:44.620Z</time>
      </trkpt>
      <trkpt lat="46.0068" lon="4.0035">
        <ele>329</ele>
        <time>2024-12-08T07:29:45.620Z</time>
      </trkpt>
      <trkpt lat="46.00682" lon="4.00351">
        <ele>329</ele>
        <time>2024-12-08T07:29:46.619Z</time>
      </trkpt>
      <trkpt lat="46.00684" lon="4.00351">
        <ele>329</ele>
        <time>2024-12-08T07:29:47.619Z</time>
      </trkpt>
      <trkpt lat="46.00685" lon="4.00352">
        <ele>328</ele>
        <time>2024-12-08T07:29:48.619Z</time>
      </trkpt>
      <trkpt lat="46.00687" lon="4.00353">
        <ele>328</ele>
        <time>2024-12-08T07:29:49.620Z</time>
      </trkpt>
      <trkpt lat="46.00688" lon="4.00353">
        <ele>328</ele>
        <time>2024-12-08T07:29:50.619Z</time>
      </trkpt>
      <trkpt lat="46.0069" lon="4.00354">
        <ele>327</ele>
        <time>2024-12-08T07:29:51.619Z</time>
      </trkpt>
      <trkpt lat="46.00691" lon="4.00355">
        <ele>327</ele>
        <time>2024-12-08T07:29:52.620Z</time>
      </trkpt>
      <trkpt lat="46.00693" lon="4.00355">
        <ele>327</ele>
        <time>2024-12-08T07:29:53.620Z</time>
      </trkpt>
      <trkpt lat="46.00694" lon="4.00356">
        <ele>327</ele>
        <time>2024-12-08T07:29:54.620Z</time>
      </trkpt>
      <trkpt lat="46.00696" lon="4.00356">
        <ele>326</ele>
        <time>2024-12-08T07:29:55.620Z</time>
      </trkpt>
      <trkpt lat="46.00698" lon="4.00357">
        <ele>326</ele>
        <time>2024-12-08T07:29:56.619Z</time>
      </trkpt>
      <trkpt lat="46.00699" lon="4.00357">
        <ele>326</ele>
        <time>2024-12-08T07:29:57.620Z</time>
      </trkpt>
      <trkpt lat="46.00701" lon="4.00358">
        <ele>326</ele>
        <time>2024-12-08T07:29:58.619Z</time>
      </trkpt>
      <trkpt lat="46.00702" lon="4.00358">
        <ele>326</ele>
        <time>2024-12-08T07:29:59.619Z</time>
      </trkpt>
      <trkpt lat="46.00704" lon="4.00359">
        <ele>326</ele>
        <time>2024-12-08T07:30:00.619Z</time>
      </trkpt>
      <trkpt lat="46.00706" lon="4.00359">
        <ele>326</ele>
        <time>2024-12-08T07:30:01.620Z</time>
      </trkpt>
      <trkpt lat="46.00707" lon="4.0036">
        <ele>327</ele>
        <time>2024-12-08T07:30:02.619Z</time>
      </trkpt>
      <trkpt lat="46.00709" lon="4.0036">
        <ele>327</ele>
        <time>2024-12-08T07:30:03.620Z</time>
      </trkpt>
      <trkpt lat="46.00711" lon="4.0036">
        <ele>327</ele>
        <time>2024-12-08T07:30:04.619Z</time>
      </trkpt>
      <trkpt lat="46.00712" lon="4.00361">
        <ele>328</ele>
        <time>2024-12-08T07:30:05.620Z</time>
      </trkpt>
      <trkpt lat="46.00714" lon="4.00361">
        <ele>328</ele>
        <time>2024-12-08T07:30:06.619Z</time>
      </trkpt>
      <trkpt lat="46.00715" lon="4.00361">
        <ele>328</ele>
        <time>2024-12-08T07:30:07.620Z</time>
      </trkpt>
      <trkpt lat="46.00717" lon="4.00362">
        <ele>328</ele>
        <time>2024-12-08T07:30:08.619Z</time>
      </trkpt>
      <trkpt lat="46.00719" lon="4.00362">
        <ele>328</ele>
        <time>2024-12-08T07:30:09.619Z</time>
      </trkpt>
      <trkpt lat="46.0072" lon="4.00362">
        <ele>328</ele>
        <time>2024-12-08T07:30:10.619Z</time>
      </trkpt>
      <trkpt lat="46.00721" lon="4.00362">
        <ele>328</ele>
        <time>2024-12-08T07:30:11.620Z</time>
      </trkpt>
      <trkpt lat="46.00723" lon="4.00362">
        <ele>328</ele>
        <time>2024-12-08T07:30:12.619Z</time>
      </trkpt>
      <trkpt lat="46.00725" lon="4.00363">
        <ele>328</ele>
        <time>2024-12-08T07:30:13.620Z</time>
      </trkpt>
      <trkpt lat="46.00726" lon="4.00363">
        <ele>328</ele>
        <time>2024-12-08T07:30:14.619Z</time>
      </trkpt>
      <trkpt lat="46.00727" lon="4.00363">
        <ele>328</ele>
        <time>2024-12-08T07:30:15.619Z</time>
      </trkpt>
      <trkpt lat="46.00729" lon="4.00363">
        <ele>328</ele>
        <time>2024-12-08T07:30:16.619Z</time>
      </trkpt>
      <trkpt lat="46.00731" lon="4.00363">
        <ele>327</ele>
        <time>2024-12-08T07:30:17.619Z</time>
      </trkpt>
      <trkpt lat="46.00732" lon="4.00363">
        <ele>327</ele>
        <time>2024-12-08T07:30:18.619Z</time>
      </trkpt>
      <trkpt lat="46.00734" lon="4.00363">
        <ele>327</ele>
        <time>2024-12-08T07:30:19.619Z</time>
      </trkpt>
      <trkpt lat="46.00735" lon="4.00363">
        <ele>327</ele>
        <time>2024-12-08T07:30:20.620Z</time>
      </trkpt>
      <trkpt lat="46.00737" lon="4.00363">
        <ele>327</ele>
        <time>2024-12-08T07:30:21.619Z</time>
      </trkpt>
      <trkpt lat="46.00738" lon="4.00363">
        <ele>327</ele>
        <time>2024-12-08T07:30:22.619Z</time>
      </trkpt>
      <trkpt lat="46.0074" lon="4.00364">
        <ele>327</ele>
        <time>2024-12-08T07:30:23.620Z</time>
      </trkpt>
      <trkpt lat="46.00742" lon="4.00364">
        <ele>327</ele>
        <time>2024-12-08T07:30:24.619Z</time>
      </trkpt>
      <trkpt lat="46.00744" lon="4.00365">
        <ele>327</ele>
        <time>2024-12-08T07:30:25.620Z</time>
      </trkpt>
      <trkpt lat="46.00746" lon="4.00366">
        <ele>327</ele>
        <time>2024-12-08T07:30:26.620Z</time>
      </trkpt>
      <trkpt lat="46.00748" lon="4.00367">
        <ele>326</ele>
        <time>2024-12-08T07:30:27.619Z</time>
      </trkpt>
      <trkpt lat="46.00749" lon="4.00367">
        <ele>326</ele>
        <time>2024-12-08T07:30:28.619Z</time>
      </trkpt>
      <trkpt lat="46.00751" lon="4.00368">
        <ele>326</ele>
        <time>2024-12-08T07:30:29.619Z</time>
      </trkpt>
      <trkpt lat="46.00753" lon="4.00369">
        <ele>326</ele>
        <time>2024-12-08T07:30:30.620Z</time>
      </trkpt>
      <trkpt lat="46.00755" lon="4.0037">
        <ele>326</ele>
        <time>2024-12-08T07:30:31.620Z</time>
      </trkpt>
      <trkpt lat="46.00757" lon="4.00371">
        <ele>326</ele>
        <time>2024-12-08T07:30:32.619Z</time>
      </trkpt>
      <trkpt lat="46.00758" lon="4.00372">
        <ele>327</ele>
        <time>2024-12-08T07:30:33.619Z</time>
      </trkpt>
      <trkpt lat="46.0076" lon="4.00373">
        <ele>327</ele>
        <time>2024-12-08T07:30:34.620Z</time>
      </trkpt>
      <trkpt lat="46.00761" lon="4.00374">
        <ele>327</ele>
        <time>2024-12-08T07:30:35.619Z</time>
      </trkpt>
      <trkpt lat="46.00763" lon="4.00375">
        <ele>327</ele>
        <time>2024-12-08T07:30:36.620Z</time>
      </trkpt>
      <trkpt lat="46.00764" lon="4.00376">
        <ele>327</ele>
        <time>2024-12-08T07:30:37.619Z</time>
      </trkpt>
      <trkpt lat="46.00766" lon="4.00378">
        <ele>327</ele>
        <time>2024-12-08T07:30:38.620Z</time>
      </trkpt>
      <trkpt lat="46.00768" lon="4.0038">
        <ele>327</ele>
        <time>2024-12-08T07:30:39.619Z</time>
      </trkpt>
      <trkpt lat="46.00769" lon="4.00381">
        <ele>327</ele>
        <time>2024-12-08T07:30:40.619Z</time>
      </trkpt>
      <trkpt lat="46.0077" lon="4.00382">
        <ele>326</ele>
        <time>2024-12-08T07:30:41.620Z</time>
      </trkpt>
      <trkpt lat="46.00772" lon="4.00384">
        <ele>326</ele>
        <time>2024-12-08T07:30:42.620Z</time>
      </trkpt>
      <trkpt lat="46.00774" lon="4.00386">
        <ele>326</ele>
        <time>2024-12-08T07:30:43.620Z</time>
      </trkpt>
      <trkpt lat="46.00775" lon="4.00387">
        <ele>326</ele>
        <time>2024-12-08T07:30:44.620Z</time>
      </trkpt>
      <trkpt lat="46.00777" lon="4.00389">
        <ele>326</ele>
        <time>2024-12-08T07:30:45.619Z</time>
      </trkpt>
      <trkpt lat="46.00778" lon="4.0039">
        <ele>326</ele>
        <time>2024-12-08T07:30:46.620Z</time>
      </trkpt>
      <trkpt lat="46.0078" lon="4.00392">
        <ele>326</ele>
        <time>2024-12-08T07:30:47.619Z</time>
      </trkpt>
      <trkpt lat="46.00782" lon="4.00393">
        <ele>326</ele>
        <time>2024-12-08T07:30:48.619Z</time>
      </trkpt>
      <trkpt lat="46.00783" lon="4.00395">
        <ele>326</ele>
        <time>2024-12-08T07:30:49.619Z</time>
      </trkpt>
      <trkpt lat="46.00784" lon="4.00397">
        <ele>326</ele>
        <time>2024-12-08T07:30:50.619Z</time>
      </trkpt>
      <trkpt lat="46.00785" lon="4.004">
        <ele>326</ele>
        <time>2024-12-08T07:30:51.620Z</time>
      </trkpt>
      <trkpt lat="46.00786" lon="4.00402">
        <ele>326</ele>
        <time>2024-12-08T07:30:52.620Z</time>
      </trkpt>
      <trkpt lat="46.00787" lon="4.00404">
        <ele>326</ele>
        <time>2024-12-08T07:30:53.620Z</time>
      </trkpt>
      <trkpt lat="46.00788" lon="4.00405">
        <ele>326</ele>
        <time>2024-12-08T07:30:54.620Z</time>
      </trkpt>
      <trkpt lat="46.00789" lon="4.00406">
        <ele>326</ele>
        <time>2024-12-08T07:30:55.619Z</time>
      </trkpt>
      <trkpt lat="46.0079" lon="4.00408">
        <ele>326</ele>
        <time>2024-12-08T07:30:56.620Z</time>
      </trkpt>
      <trkpt lat="46.00791" lon="4.0041">
        <ele>325</ele>
        <time>2024-12-08T07:30:57.619Z</time>
      </trkpt>
      <trkpt lat="46.00793" lon="4.00412">
        <ele>326</ele>
        <time>2024-12-08T07:30:58.620Z</time>
      </trkpt>
      <trkpt lat="46.00794" lon="4.00413">
        <ele>326</ele>
        <time>2024-12-08T07:30:59.619Z</time>
      </trkpt>
      <trkpt lat="46.00795" lon="4.00414">
        <ele>326</ele>
        <time>2024-12-08T07:31:00.619Z</time>
      </trkpt>
      <trkpt lat="46.00797" lon="4.00415">
        <ele>326</ele>
        <time>2024-12-08T07:31:01.619Z</time>
      </trkpt>
      <trkpt lat="46.00799" lon="4.00417">
        <ele>326</ele>
        <time>2024-12-08T07:31:02.620Z</time>
      </trkpt>
      <trkpt lat="46.00801" lon="4.00418">
        <ele>326</ele>
        <time>2024-12-08T07:31:03.619Z</time>
      </trkpt>
      <trkpt lat="46.00802" lon="4.00419">
        <ele>326</ele>
        <time>2024-12-08T07:31:04.620Z</time>
      </trkpt>
      <trkpt lat="46.00803" lon="4.0042">
        <ele>327</ele>
        <time>2024-12-08T07:31:05.620Z</time>
      </trkpt>
      <trkpt lat="46.00805" lon="4.00421">
        <ele>326</ele>
        <time>2024-12-08T07:31:06.620Z</time>
      </trkpt>
      <trkpt lat="46.00807" lon="4.00422">
        <ele>326</ele>
        <time>2024-12-08T07:31:07.619Z</time>
      </trkpt>
      <trkpt lat="46.00808" lon="4.00422">
        <ele>326</ele>
        <time>2024-12-08T07:31:08.620Z</time>
      </trkpt>
      <trkpt lat="46.00809" lon="4.00422">
        <ele>326</ele>
        <time>2024-12-08T07:31:09.619Z</time>
      </trkpt>
      <trkpt lat="46.00811" lon="4.00422">
        <ele>326</ele>
        <time>2024-12-08T07:31:10.619Z</time>
      </trkpt>
      <trkpt lat="46.00812" lon="4.00421">
        <ele>326</ele>
        <time>2024-12-08T07:31:11.619Z</time>
      </trkpt>
      <trkpt lat="46.00814" lon="4.0042">
        <ele>326</ele>
        <time>2024-12-08T07:31:12.619Z</time>
      </trkpt>
      <trkpt lat="46.00815" lon="4.00418">
        <ele>326</ele>
        <time>2024-12-08T07:31:13.619Z</time>
      </trkpt>
      <trkpt lat="46.00816" lon="4.00417">
        <ele>326</ele>
        <time>2024-12-08T07:31:14.619Z</time>
      </trkpt>
      <trkpt lat="46.00817" lon="4.00416">
        <ele>326</ele>
        <time>2024-12-08T07:31:15.619Z</time>
      </trkpt>
      <trkpt lat="46.00818" lon="4.00414">
        <ele>325</ele>
        <time>2024-12-08T07:31:16.620Z</time>
      </trkpt>
      <trkpt lat="46.00819" lon="4.00413">
        <ele>325</ele>
        <time>2024-12-08T07:31:17.619Z</time>
      </trkpt>
      <trkpt lat="46.00821" lon="4.00411">
        <ele>325</ele>
        <time>2024-12-08T07:31:18.619Z</time>
      </trkpt>
      <trkpt lat="46.00822" lon="4.00409">
        <ele>325</ele>
        <time>2024-12-08T07:31:19.620Z</time>
      </trkpt>
      <trkpt lat="46.00823" lon="4.00408">
        <ele>325</ele>
        <time>2024-12-08T07:31:20.619Z</time>
      </trkpt>
      <trkpt lat="46.00824" lon="4.00405">
        <ele>325</ele>
        <time>2024-12-08T07:31:21.619Z</time>
      </trkpt>
      <trkpt lat="46.00825" lon="4.00404">
        <ele>325</ele>
        <time>2024-12-08T07:31:22.619Z</time>
      </trkpt>
      <trkpt lat="46.00826" lon="4.00402">
        <ele>325</ele>
        <time>2024-12-08T07:31:23.619Z</time>
      </trkpt>
      <trkpt lat="46.00827" lon="4.00399">
        <ele>325</ele>
        <time>2024-12-08T07:31:24.619Z</time>
      </trkpt>
      <trkpt lat="46.00828" lon="4.00397">
        <ele>325</ele>
        <time>2024-12-08T07:31:25.619Z</time>
      </trkpt>
      <trkpt lat="46.00829" lon="4.00395">
        <ele>325</ele>
        <time>2024-12-08T07:31:26.620Z</time>
      </trkpt>
      <trkpt lat="46.0083" lon="4.00393">
        <ele>325</ele>
        <time>2024-12-08T07:31:27.619Z</time>
      </trkpt>
      <trkpt lat="46.00831" lon="4.00391">
        <ele>325</ele>
        <time>2024-12-08T07:31:28.620Z</time>
      </trkpt>
      <trkpt lat="46.00832" lon="4.00389">
        <ele>325</ele>
        <time>2024-12-08T07:31:29.620Z</time>
      </trkpt>
      <trkpt lat="46.00833" lon="4.00388">
        <ele>325</ele>
        <time>2024-12-08T07:31:30.619Z</time>
      </trkpt>
      <trkpt lat="46.00833" lon="4.00388">
        <ele>326</ele>
        <time>2024-12-08T07:31:31.620Z</time>
      </trkpt>
      <trkpt lat="46.00834" lon="4.00388">
        <ele>326</ele>
        <time>2024-12-08T07:31:32.620Z</time>
      </trkpt>
      <trkpt lat="46.00834" lon="4.00388">
        <ele>325</ele>
        <time>2024-12-08T07:31:33.620Z</time>
      </trkpt>
      <trkpt lat="46.00834" lon="4.00388">
        <ele>325</ele>
        <time>2024-12-08T07:31:34.619Z</time>
      </trkpt>
      <trkpt lat="46.00834" lon="4.00388">
        <ele>325</ele>
        <time>2024-12-08T07:31:35.620Z</time>
      </trkpt>
      <trkpt lat="46.00834" lon="4.00388">
        <ele>325</ele>
        <time>2024-12-08T07:31:36.619Z</time>
      </trkpt>
      <trkpt lat="46.00834" lon="4.00388">
        <ele>325</ele>
        <time>2024-12-08T07:31:37.620Z</time>
      </trkpt>
      <trkpt lat="46.00834" lon="4.00388">
        <ele>324</ele>
        <time>2024-12-08T07:31:38.619Z</time>
      </trkpt>
      <trkpt lat="46.00834" lon="4.00388">
        <ele>324</ele>
        <time>2024-12-08T07:31:39.620Z</time>
      </trkpt>
      <trkpt lat="46.00834" lon="4.00388">
        <ele>324</ele>
        <time>2024-12-08T07:31:40.620Z</time>
      </trkpt>
      <trkpt lat="46.00834" lon="4.00388">
        <ele>324</ele>
        <time>2024-12-08T07:31:41.620Z</time>
      </trkpt>
      <trkpt lat="46.00834" lon="4.00388">
        <ele>324</ele>
        <time>2024-12-08T07:31:42.619Z</time>
      </trkpt>
      <trkpt lat="46.00834" lon="4.00388">
        <ele>324</ele>
        <time>2024-12-08T07:31:43.619Z</time>
      </trkpt>
      <trkpt lat="46.00834" lon="4.00388">
        <ele>324</ele>
        <time>2024-12-08T07:31:44.619Z</time>
      </trkpt>
      <trkpt lat="46.00834" lon="4.00388">
        <ele>324</ele>
        <time>2024-12-08T07:31:45.620Z</time>
      </trkpt>
      <trkpt lat="46.00834" lon="4.00388">
        <ele>324</ele>
        <time>2024-12-08T07:31:46.620Z</time>
      </trkpt>
      <trkpt lat="46.00834" lon="4.00388">
        <ele>324</ele>
        <time>2024-12-08T07:31:47.620Z</time>
      </trkpt>
      <trkpt lat="46.00834" lon="4.00387">
        <ele>324</ele>
        <time>2024-12-08T07:31:48.619Z</time>
      </trkpt>
      <trkpt lat="46.00835" lon="4.00387">
        <ele>324</ele>
        <time>2024-12-08T07:31:49.620Z</time>
      </trkpt>
      <trkpt lat="46.00837" lon="4.00386">
        <ele>324</ele>
        <time>2024-12-08T07:31:50.620Z</time>
      </trkpt>
      <trkpt lat="46.00839" lon="4.00385">
        <ele>324</ele>
        <time>2024-12-08T07:31:51.619Z</time>
      </trkpt>
      <trkpt lat="46.00841" lon="4.00384">
        <ele>324</ele>
        <time>2024-12-08T07:31:52.619Z</time>
      </trkpt>
      <trkpt lat="46.00843" lon="4.00384">
        <ele>324</ele>
        <time>2024-12-08T07:31:53.619Z</time>
      </trkpt>
      <trkpt lat="46.00845" lon="4.00383">
        <ele>325</ele>
        <time>2024-12-08T07:31:54.620Z</time>
      </trkpt>
      <trkpt lat="46.00847" lon="4.00383">
        <ele>325</ele>
        <time>2024-12-08T07:31:55.620Z</time>
      </trkpt>
      <trkpt lat="46.00849" lon="4.00383">
        <ele>324</ele>
        <time>2024-12-08T07:31:56.619Z</time>
      </trkpt>
      <trkpt lat="46.00851" lon="4.00382">
        <ele>324</ele>
        <time>2024-12-08T07:31:57.619Z</time>
      </trkpt>
      <trkpt lat="46.00853" lon="4.00382">
        <ele>323</ele>
        <time>2024-12-08T07:31:58.620Z</time>
      </trkpt>
      <trkpt lat="46.00855" lon="4.00382">
        <ele>323</ele>
        <time>2024-12-08T07:31:59.620Z</time>
      </trkpt>
      <trkpt lat="46.00857" lon="4.00382">
        <ele>323</ele>
        <time>2024-12-08T07:32:00.619Z</time>
      </trkpt>
      <trkpt lat="46.00859" lon="4.00382">
        <ele>322</ele>
        <time>2024-12-08T07:32:01.620Z</time>
      </trkpt>
      <trkpt lat="46.0086" lon="4.00382">
        <ele>322</ele>
        <time>2024-12-08T07:32:02.619Z</time>
      </trkpt>
      <trkpt lat="46.00862" lon="4.00383">
        <ele>322</ele>
        <time>2024-12-08T07:32:03.619Z</time>
      </trkpt>
      <trkpt lat="46.00864" lon="4.00383">
        <ele>322</ele>
        <time>2024-12-08T07:32:04.619Z</time>
      </trkpt>
      <trkpt lat="46.00865" lon="4.00383">
        <ele>323</ele>
        <time>2024-12-08T07:32:05.620Z</time>
      </trkpt>
      <trkpt lat="46.00867" lon="4.00383">
        <ele>323</ele>
        <time>2024-12-08T07:32:06.619Z</time>
      </trkpt>
      <trkpt lat="46.00868" lon="4.00383">
        <ele>324</ele>
        <time>2024-12-08T07:32:07.620Z</time>
      </trkpt>
      <trkpt lat="46.0087" lon="4.00382">
        <ele>324</ele>
        <time>2024-12-08T07:32:08.620Z</time>
      </trkpt>
      <trkpt lat="46.00872" lon="4.00382">
        <ele>324</ele>
        <time>2024-12-08T07:32:09.619Z</time>
      </trkpt>
      <trkpt lat="46.00873" lon="4.00382">
        <ele>324</ele>
        <time>2024-12-08T07:32:10.620Z</time>
      </trkpt>
      <trkpt lat="46.00875" lon="4.00382">
        <ele>324</ele>
        <time>2024-12-08T07:32:11.619Z</time>
      </trkpt>
      <trkpt lat="46.00876" lon="4.00382">
        <ele>324</ele>
        <time>2024-12-08T07:32:12.619Z</time>
      </trkpt>
      <trkpt lat="46.00878" lon="4.00381">
        <ele>324</ele>
        <time>2024-12-08T07:32:13.619Z</time>
      </trkpt>
      <trkpt lat="46.0088" lon="4.00381">
        <ele>324</ele>
        <time>2024-12-08T07:32:14.619Z</time>
      </trkpt>
      <trkpt lat="46.00881" lon="4.00381">
        <ele>325</ele>
        <time>2024-12-08T07:32:15.619Z</time>
      </trkpt>
      <trkpt lat="46.00883" lon="4.00381">
        <ele>325</ele>
        <time>2024-12-08T07:32:16.619Z</time>
      </trkpt>
      <trkpt lat="46.00884" lon="4.00381">
        <ele>325</ele>
        <time>2024-12-08T07:32:17.620Z</time>
      </trkpt>
      <trkpt lat="46.00886" lon="4.0038">
        <ele>325</ele>
        <time>2024-12-08T07:32:18.620Z</time>
      </trkpt>
      <trkpt lat="46.00887" lon="4.0038">
        <ele>325</ele>
        <time>2024-12-08T07:32:19.620Z</time>
      </trkpt>
      <trkpt lat="46.00889" lon="4.0038">
        <ele>325</ele>
        <time>2024-12-08T07:32:20.620Z</time>
      </trkpt>
      <trkpt lat="46.0089" lon="4.0038">
        <ele>324</ele>
        <time>2024-12-08T07:32:21.619Z</time>
      </trkpt>
      <trkpt lat="46.00892" lon="4.0038">
        <ele>324</ele>
        <time>2024-12-08T07:32:22.619Z</time>
      </trkpt>
      <trkpt lat="46.00893" lon="4.0038">
        <ele>324</ele>
        <time>2024-12-08T07:32:23.620Z</time>
      </trkpt>
      <trkpt lat="46.00894" lon="4.0038">
        <ele>323</ele>
        <time>2024-12-08T07:32:24.619Z</time>
      </trkpt>
      <trkpt lat="46.00896" lon="4.00381">
        <ele>323</ele>
        <time>2024-12-08T07:32:25.620Z</time>
      </trkpt>
      <trkpt lat="46.00897" lon="4.00381">
        <ele>323</ele>
        <time>2024-12-08T07:32:26.619Z</time>
      </trkpt>
      <trkpt lat="46.00898" lon="4.00381">
        <ele>323</ele>
        <time>2024-12-08T07:32:27.619Z</time>
      </trkpt>
      <trkpt lat="46.009" lon="4.00381">
        <ele>323</ele>
        <time>2024-12-08T07:32:28.619Z</time>
      </trkpt>
      <trkpt lat="46.00901" lon="4.00381">
        <ele>323</ele>
        <time>2024-12-08T07:32:29.620Z</time>
      </trkpt>
      <trkpt lat="46.00903" lon="4.00381">
        <ele>324</ele>
        <time>2024-12-08T07:32:30.619Z</time>
      </trkpt>
      <trkpt lat="46.00905" lon="4.00381">
        <ele>324</ele>
        <time>2024-12-08T07:32:31.619Z</time>
      </trkpt>
      <trkpt lat="46.00906" lon="4.00381">
        <ele>324</ele>
        <time>2024-12-08T07:32:32.620Z</time>
      </trkpt>
      <trkpt lat="46.00908" lon="4.00381">
        <ele>324</ele>
        <time>2024-12-08T07:32:33.620Z</time>
      </trkpt>
      <trkpt lat="46.00909" lon="4.0038">
        <ele>324</ele>
        <time>2024-12-08T07:32:34.619Z</time>
      </trkpt>
      <trkpt lat="46.00911" lon="4.0038">
        <ele>325</ele>
        <time>2024-12-08T07:32:35.619Z</time>
      </trkpt>
      <trkpt lat="46.00912" lon="4.00379">
        <ele>325</ele>
        <time>2024-12-08T07:32:36.620Z</time>
      </trkpt>
      <trkpt lat="46.00914" lon="4.00379">
        <ele>326</ele>
        <time>2024-12-08T07:32:37.619Z</time>
      </trkpt>
      <trkpt lat="46.00915" lon="4.00379">
        <ele>326</ele>
        <time>2024-12-08T07:32:38.619Z</time>
      </trkpt>
      <trkpt lat="46.00917" lon="4.00379">
        <ele>326</ele>
        <time>2024-12-08T07:32:39.619Z</time>
      </trkpt>
      <trkpt lat="46.00919" lon="4.00379">
        <ele>326</ele>
        <time>2024-12-08T07:32:40.619Z</time>
      </trkpt>
      <trkpt lat="46.0092" lon="4.00379">
        <ele>326</ele>
        <time>2024-12-08T07:32:41.619Z</time>
      </trkpt>
      <trkpt lat="46.00922" lon="4.00379">
        <ele>326</ele>
        <time>2024-12-08T07:32:42.620Z</time>
      </trkpt>
      <trkpt lat="46.00923" lon="4.00379">
        <ele>326</ele>
        <time>2024-12-08T07:32:43.619Z</time>
      </trkpt>
      <trkpt lat="46.00925" lon="4.00379">
        <ele>327</ele>
        <time>2024-12-08T07:32:44.619Z</time>
      </trkpt>
      <trkpt lat="46.00926" lon="4.00379">
        <ele>327</ele>
        <time>2024-12-08T07:32:45.620Z</time>
      </trkpt>
      <trkpt lat="46.00928" lon="4.00379">
        <ele>327</ele>
        <time>2024-12-08T07:32:46.619Z</time>
      </trkpt>
      <trkpt lat="46.00929" lon="4.00378">
        <ele>328</ele>
        <time>2024-12-08T07:32:47.619Z</time>
      </trkpt>
      <trkpt lat="46.00931" lon="4.00378">
        <ele>328</ele>
        <time>2024-12-08T07:32:48.619Z</time>
      </trkpt>
      <trkpt lat="46.00933" lon="4.00378">
        <ele>328</ele>
        <time>2024-12-08T07:32:49.619Z</time>
      </trkpt>
      <trkpt lat="46.00934" lon="4.00378">
        <ele>328</ele>
        <time>2024-12-08T07:32:50.620Z</time>
      </trkpt>
      <trkpt lat="46.00936" lon="4.00378">
        <ele>328</ele>
        <time>2024-12-08T07:32:51.619Z</time>
      </trkpt>
      <trkpt lat="46.00938" lon="4.00378">
        <ele>328</ele>
        <time>2024-12-08T07:32:52.619Z</time>
      </trkpt>
      <trkpt lat="46.00939" lon="4.00377">
        <ele>328</ele>
        <time>2024-12-08T07:32:53.619Z</time>
      </trkpt>
      <trkpt lat="46.00941" lon="4.00377">
        <ele>328</ele>
        <time>2024-12-08T07:32:54.619Z</time>
      </trkpt>
      <trkpt lat="46.00943" lon="4.00377">
        <ele>328</ele>
        <time>2024-12-08T07:32:55.619Z</time>
      </trkpt>
      <trkpt lat="46.00944" lon="4.00377">
        <ele>328</ele>
        <time>2024-12-08T07:32:56.619Z</time>
      </trkpt>
      <trkpt lat="46.00946" lon="4.00377">
        <ele>328</ele>
        <time>2024-12-08T07:32:57.619Z</time>
      </trkpt>
      <trkpt lat="46.00948" lon="4.00376">
        <ele>328</ele>
        <time>2024-12-08T07:32:58.620Z</time>
      </trkpt>
      <trkpt lat="46.00949" lon="4.00376">
        <ele>328</ele>
        <time>2024-12-08T07:32:59.620Z</time>
      </trkpt>
      <trkpt lat="46.00951" lon="4.00376">
        <ele>328</ele>
        <time>2024-12-08T07:33:00.620Z</time>
      </trkpt>
      <trkpt lat="46.00952" lon="4.00376">
        <ele>329</ele>
        <time>2024-12-08T07:33:01.619Z</time>
      </trkpt>
      <trkpt lat="46.00954" lon="4.00376">
        <ele>329</ele>
        <time>2024-12-08T07:33:02.619Z</time>
      </trkpt>
      <trkpt lat="46.00955" lon="4.00376">
        <ele>329</ele>
        <time>2024-12-08T07:33:03.620Z</time>
      </trkpt>
      <trkpt lat="46.00957" lon="4.00375">
        <ele>329</ele>
        <time>2024-12-08T07:33:04.620Z</time>
      </trkpt>
      <trkpt lat="46.00958" lon="4.00375">
        <ele>330</ele>
        <time>2024-12-08T07:33:05.620Z</time>
      </trkpt>
      <trkpt lat="46.0096" lon="4.00374">
        <ele>330</ele>
        <time>2024-12-08T07:33:06.619Z</time>
      </trkpt>
      <trkpt lat="46.00962" lon="4.00374">
        <ele>330</ele>
        <time>2024-12-08T07:33:07.620Z</time>
      </trkpt>
      <trkpt lat="46.00963" lon="4.00373">
        <ele>330</ele>
        <time>2024-12-08T07:33:08.620Z</time>
      </trkpt>
      <trkpt lat="46.00965" lon="4.00373">
        <ele>330</ele>
        <time>2024-12-08T07:33:09.620Z</time>
      </trkpt>
      <trkpt lat="46.00966" lon="4.00373">
        <ele>331</ele>
        <time>2024-12-08T07:33:10.619Z</time>
      </trkpt>
      <trkpt lat="46.00968" lon="4.00372">
        <ele>331</ele>
        <time>2024-12-08T07:33:11.620Z</time>
      </trkpt>
      <trkpt lat="46.00969" lon="4.00372">
        <ele>331</ele>
        <time>2024-12-08T07:33:12.619Z</time>
      </trkpt>
      <trkpt lat="46.00971" lon="4.00372">
        <ele>331</ele>
        <time>2024-12-08T07:33:13.620Z</time>
      </trkpt>
      <trkpt lat="46.00972" lon="4.00372">
        <ele>331</ele>
        <time>2024-12-08T07:33:14.619Z</time>
      </trkpt>
      <trkpt lat="46.00974" lon="4.00372">
        <ele>331</ele>
        <time>2024-12-08T07:33:15.620Z</time>
      </trkpt>
      <trkpt lat="46.00976" lon="4.00373">
        <ele>331</ele>
        <time>2024-12-08T07:33:16.619Z</time>
      </trkpt>
      <trkpt lat="46.00978" lon="4.00373">
        <ele>331</ele>
        <time>2024-12-08T07:33:17.619Z</time>
      </trkpt>
      <trkpt lat="46.00979" lon="4.00373">
        <ele>331</ele>
        <time>2024-12-08T07:33:18.619Z</time>
      </trkpt>
      <trkpt lat="46.00981" lon="4.00373">
        <ele>331</ele>
        <time>2024-12-08T07:33:19.620Z</time>
      </trkpt>
      <trkpt lat="46.00982" lon="4.00373">
        <ele>331</ele>
        <time>2024-12-08T07:33:20.619Z</time>
      </trkpt>
      <trkpt lat="46.00984" lon="4.00373">
        <ele>330</ele>
        <time>2024-12-08T07:33:21.619Z</time>
      </trkpt>
      <trkpt lat="46.00986" lon="4.00372">
        <ele>330</ele>
        <time>2024-12-08T07:33:22.620Z</time>
      </trkpt>
      <trkpt lat="46.00987" lon="4.00372">
        <ele>331</ele>
        <time>2024-12-08T07:33:23.620Z</time>
      </trkpt>
      <trkpt lat="46.00989" lon="4.00372">
        <ele>331</ele>
        <time>2024-12-08T07:33:24.620Z</time>
      </trkpt>
      <trkpt lat="46.0099" lon="4.00373">
        <ele>331</ele>
        <time>2024-12-08T07:33:25.619Z</time>
      </trkpt>
      <trkpt lat="46.00992" lon="4.00374">
        <ele>331</ele>
        <time>2024-12-08T07:33:26.619Z</time>
      </trkpt>
      <trkpt lat="46.00993" lon="4.00375">
        <ele>331</ele>
        <time>2024-12-08T07:33:27.620Z</time>
      </trkpt>
      <trkpt lat="46.00994" lon="4.00377">
        <ele>331</ele>
        <time>2024-12-08T07:33:28.620Z</time>
      </trkpt>
      <trkpt lat="46.00995" lon="4.00378">
        <ele>331</ele>
        <time>2024-12-08T07:33:29.619Z</time>
      </trkpt>
      <trkpt lat="46.00995" lon="4.0038">
        <ele>332</ele>
        <time>2024-12-08T07:33:30.619Z</time>
      </trkpt>
      <trkpt lat="46.00996" lon="4.00383">
        <ele>332</ele>
        <time>2024-12-08T07:33:31.619Z</time>
      </trkpt>
      <trkpt lat="46.00996" lon="4.00385">
        <ele>332</ele>
        <time>2024-12-08T07:33:32.620Z</time>
      </trkpt>
      <trkpt lat="46.00997" lon="4.00387">
        <ele>332</ele>
        <time>2024-12-08T07:33:33.620Z</time>
      </trkpt>
      <trkpt lat="46.00997" lon="4.0039">
        <ele>333</ele>
        <time>2024-12-08T07:33:34.620Z</time>
      </trkpt>
      <trkpt lat="46.00997" lon="4.00392">
        <ele>333</ele>
        <time>2024-12-08T07:33:35.619Z</time>
      </trkpt>
      <trkpt lat="46.00998" lon="4.00394">
        <ele>333</ele>
        <time>2024-12-08T07:33:36.620Z</time>
      </trkpt>
      <trkpt lat="46.00997" lon="4.00397">
        <ele>333</ele>
        <time>2024-12-08T07:33:37.620Z</time>
      </trkpt>
      <trkpt lat="46.00997" lon="4.00399">
        <ele>333</ele>
        <time>2024-12-08T07:33:38.619Z</time>
      </trkpt>
      <trkpt lat="46.00997" lon="4.00402">
        <ele>333</ele>
        <time>2024-12-08T07:33:39.620Z</time>
      </trkpt>
      <trkpt lat="46.00997" lon="4.00404">
        <ele>333</ele>
        <time>2024-12-08T07:33:40.620Z</time>
      </trkpt>
      <trkpt lat="46.00997" lon="4.00406">
        <ele>333</ele>
        <time>2024-12-08T07:33:41.619Z</time>
      </trkpt>
      <trkpt lat="46.00997" lon="4.00409">
        <ele>333</ele>
        <time>2024-12-08T07:33:42.620Z</time>
      </trkpt>
      <trkpt lat="46.00997" lon="4.00411">
        <ele>333</ele>
        <time>2024-12-08T07:33:43.620Z</time>
      </trkpt>
      <trkpt lat="46.00996" lon="4.00414">
        <ele>334</ele>
        <time>2024-12-08T07:33:44.619Z</time>
      </trkpt>
      <trkpt lat="46.00996" lon="4.00416">
        <ele>334</ele>
        <time>2024-12-08T07:33:45.620Z</time>
      </trkpt>
      <trkpt lat="46.00996" lon="4.00418">
        <ele>334</ele>
        <time>2024-12-08T07:33:46.620Z</time>
      </trkpt>
      <trkpt lat="46.00996" lon="4.0042">
        <ele>334</ele>
        <time>2024-12-08T07:33:47.620Z</time>
      </trkpt>
      <trkpt lat="46.00996" lon="4.00423">
        <ele>334</ele>
        <time>2024-12-08T07:33:48.619Z</time>
      </trkpt>
      <trkpt lat="46.00995" lon="4.00425">
        <ele>334</ele>
        <time>2024-12-08T07:33:49.619Z</time>
      </trkpt>
      <trkpt lat="46.00995" lon="4.00427">
        <ele>335</ele>
        <time>2024-12-08T07:33:50.620Z</time>
      </trkpt>
      <trkpt lat="46.00995" lon="4.0043">
        <ele>335</ele>
        <time>2024-12-08T07:33:51.619Z</time>
      </trkpt>
      <trkpt lat="46.00994" lon="4.00433">
        <ele>334</ele>
        <time>2024-12-08T07:33:52.620Z</time>
      </trkpt>
      <trkpt lat="46.00994" lon="4.00435">
        <ele>334</ele>
        <time>2024-12-08T07:33:53.619Z</time>
      </trkpt>
      <trkpt lat="46.00993" lon="4.00438">
        <ele>334</ele>
        <time>2024-12-08T07:33:54.620Z</time>
      </trkpt>
      <trkpt lat="46.00993" lon="4.0044">
        <ele>334</ele>
        <time>2024-12-08T07:33:55.620Z</time>
      </trkpt>
      <trkpt lat="46.00993" lon="4.00443">
        <ele>334</ele>
        <time>2024-12-08T07:33:56.619Z</time>
      </trkpt>
      <trkpt lat="46.00993" lon="4.00446">
        <ele>334</ele>
        <time>2024-12-08T07:33:57.620Z</time>
      </trkpt>
      <trkpt lat="46.00992" lon="4.00448">
        <ele>334</ele>
        <time>2024-12-08T07:33:58.620Z</time>
      </trkpt>
      <trkpt lat="46.00992" lon="4.0045">
        <ele>334</ele>
        <time>2024-12-08T07:33:59.619Z</time>
      </trkpt>
      <trkpt lat="46.00992" lon="4.00453">
        <ele>334</ele>
        <time>2024-12-08T07:34:00.619Z</time>
      </trkpt>
      <trkpt lat="46.00992" lon="4.00455">
        <ele>334</ele>
        <time>2024-12-08T07:34:01.620Z</time>
      </trkpt>
      <trkpt lat="46.00992" lon="4.00457">
        <ele>335</ele>
        <time>2024-12-08T07:34:02.620Z</time>
      </trkpt>
      <trkpt lat="46.00991" lon="4.00459">
        <ele>335</ele>
        <time>2024-12-08T07:34:03.619Z</time>
      </trkpt>
      <trkpt lat="46.00991" lon="4.00462">
        <ele>335</ele>
        <time>2024-12-08T07:34:04.619Z</time>
      </trkpt>
      <trkpt lat="46.00991" lon="4.00464">
        <ele>335</ele>
        <time>2024-12-08T07:34:05.619Z</time>
      </trkpt>
      <trkpt lat="46.00991" lon="4.00467">
        <ele>335</ele>
        <time>2024-12-08T07:34:06.619Z</time>
      </trkpt>
      <trkpt lat="46.0099" lon="4.00469">
        <ele>335</ele>
        <time>2024-12-08T07:34:07.619Z</time>
      </trkpt>
      <trkpt lat="46.0099" lon="4.00471">
        <ele>335</ele>
        <time>2024-12-08T07:34:08.620Z</time>
      </trkpt>
      <trkpt lat="46.0099" lon="4.00475">
        <ele>335</ele>
        <time>2024-12-08T07:34:09.619Z</time>
      </trkpt>
      <trkpt lat="46.0099" lon="4.00478">
        <ele>336</ele>
        <time>2024-12-08T07:34:10.620Z</time>
      </trkpt>
      <trkpt lat="46.00989" lon="4.00481">
        <ele>336</ele>
        <time>2024-12-08T07:34:11.620Z</time>
      </trkpt>
      <trkpt lat="46.00989" lon="4.00483">
        <ele>336</ele>
        <time>2024-12-08T07:34:12.619Z</time>
      </trkpt>
      <trkpt lat="46.00989" lon="4.00486">
        <ele>336</ele>
        <time>2024-12-08T07:34:13.620Z</time>
      </trkpt>
      <trkpt lat="46.00988" lon="4.00488">
        <ele>336</ele>
        <time>2024-12-08T07:34:14.619Z</time>
      </trkpt>
      <trkpt lat="46.00988" lon="4.00491">
        <ele>336</ele>
        <time>2024-12-08T07:34:15.619Z</time>
      </trkpt>
      <trkpt lat="46.00988" lon="4.00493">
        <ele>335</ele>
        <time>2024-12-08T07:34:16.620Z</time>
      </trkpt>
      <trkpt lat="46.00988" lon="4.00495">
        <ele>335</ele>
        <time>2024-12-08T07:34:17.619Z</time>
      </trkpt>
      <trkpt lat="46.00987" lon="4.00498">
        <ele>335</ele>
        <time>2024-12-08T07:34:18.619Z</time>
      </trkpt>
      <trkpt lat="46.00987" lon="4.00501">
        <ele>335</ele>
        <time>2024-12-08T07:34:19.619Z</time>
      </trkpt>
      <trkpt lat="46.00987" lon="4.00504">
        <ele>335</ele>
        <time>2024-12-08T07:34:20.619Z</time>
      </trkpt>
      <trkpt lat="46.00987" lon="4.00506">
        <ele>335</ele>
        <time>2024-12-08T07:34:21.619Z</time>
      </trkpt>
      <trkpt lat="46.00987" lon="4.00509">
        <ele>335</ele>
        <time>2024-12-08T07:34:22.619Z</time>
      </trkpt>
      <trkpt lat="46.00986" lon="4.00512">
        <ele>335</ele>
        <time>2024-12-08T07:34:23.619Z</time>
      </trkpt>
      <trkpt lat="46.00986" lon="4.00515">
        <ele>335</ele>
        <time>2024-12-08T07:34:24.619Z</time>
      </trkpt>
      <trkpt lat="46.00986" lon="4.00517">
        <ele>335</ele>
        <time>2024-12-08T07:34:25.619Z</time>
      </trkpt>
      <trkpt lat="46.00986" lon="4.00519">
        <ele>335</ele>
        <time>2024-12-08T07:34:26.620Z</time>
      </trkpt>
      <trkpt lat="46.00986" lon="4.00521">
        <ele>335</ele>
        <time>2024-12-08T07:34:27.619Z</time>
      </trkpt>
      <trkpt lat="46.00986" lon="4.00524">
        <ele>335</ele>
        <time>2024-12-08T07:34:28.620Z</time>
      </trkpt>
      <trkpt lat="46.00986" lon="4.00526">
        <ele>335</ele>
        <time>2024-12-08T07:34:29.619Z</time>
      </trkpt>
      <trkpt lat="46.00986" lon="4.00529">
        <ele>335</ele>
        <time>2024-12-08T07:34:30.619Z</time>
      </trkpt>
      <trkpt lat="46.00986" lon="4.00531">
        <ele>335</ele>
        <time>2024-12-08T07:34:31.619Z</time>
      </trkpt>
      <trkpt lat="46.00987" lon="4.00534">
        <ele>336</ele>
        <time>2024-12-08T07:34:32.620Z</time>
      </trkpt>
      <trkpt lat="46.00987" lon="4.00537">
        <ele>336</ele>
        <time>2024-12-08T07:34:33.619Z</time>
      </trkpt>
      <trkpt lat="46.00988" lon="4.0054">
        <ele>336</ele>
        <time>2024-12-08T07:34:34.619Z</time>
      </trkpt>
      <trkpt lat="46.00988" lon="4.00542">
        <ele>335</ele>
        <time>2024-12-08T07:34:35.620Z</time>
      </trkpt>
      <trkpt lat="46.00989" lon="4.00545">
        <ele>335</ele>
        <time>2024-12-08T07:34:36.619Z</time>
      </trkpt>
      <trkpt lat="46.00989" lon="4.00547">
        <ele>335</ele>
        <time>2024-12-08T07:34:37.620Z</time>
      </trkpt>
      <trkpt lat="46.0099" lon="4.00549">
        <ele>335</ele>
        <time>2024-12-08T07:34:38.619Z</time>
      </trkpt>
      <trkpt lat="46.00991" lon="4.00552">
        <ele>335</ele>
        <time>2024-12-08T07:34:39.619Z</time>
      </trkpt>
      <trkpt lat="46.00992" lon="4.00553">
        <ele>335</ele>
        <time>2024-12-08T07:34:40.619Z</time>
      </trkpt>
      <trkpt lat="46.00992" lon="4.00555">
        <ele>335</ele>
        <time>2024-12-08T07:34:41.620Z</time>
      </trkpt>
      <trkpt lat="46.00994" lon="4.00558">
        <ele>335</ele>
        <time>2024-12-08T07:34:42.619Z</time>
      </trkpt>
      <trkpt lat="46.00995" lon="4.0056">
        <ele>335</ele>
        <time>2024-12-08T07:34:43.620Z</time>
      </trkpt>
      <trkpt lat="46.00996" lon="4.00562">
        <ele>335</ele>
        <time>2024-12-08T07:34:44.620Z</time>
      </trkpt>
      <trkpt lat="46.00997" lon="4.00564">
        <ele>335</ele>
        <time>2024-12-08T07:34:45.620Z</time>
      </trkpt>
      <trkpt lat="46.00998" lon="4.00566">
        <ele>334</ele>
        <time>2024-12-08T07:34:46.619Z</time>
      </trkpt>
      <trkpt lat="46.00999" lon="4.00568">
        <ele>334</ele>
        <time>2024-12-08T07:34:47.620Z</time>
      </trkpt>
      <trkpt lat="46.01" lon="4.0057">
        <ele>334</ele>
        <time>2024-12-08T07:34:48.619Z</time>
      </trkpt>
      <trkpt lat="46.01001" lon="4.00573">
        <ele>334</ele>
        <time>2024-12-08T07:34:49.619Z</time>
      </trkpt>
      <trkpt lat="46.01002" lon="4.00574">
        <ele>334</ele>
        <time>2024-12-08T07:34:50.619Z</time>
      </trkpt>
      <trkpt lat="46.01003" lon="4.00576">
        <ele>334</ele>
        <time>2024-12-08T07:34:51.619Z</time>
      </trkpt>
      <trkpt lat="46.01004" lon="4.00578">
        <ele>334</ele>
        <time>2024-12-08T07:34:52.619Z</time>
      </trkpt>
      <trkpt lat="46.01005" lon="4.0058">
        <ele>334</ele>
        <time>2024-12-08T07:34:53.619Z</time>
      </trkpt>
      <trkpt lat="46.01007" lon="4.00582">
        <ele>334</ele>
        <time>2024-12-08T07:34:54.620Z</time>
      </trkpt>
      <trkpt lat="46.01008" lon="4.00584">
        <ele>334</ele>
        <time>2024-12-08T07:34:55.620Z</time>
      </trkpt>
      <trkpt lat="46.01008" lon="4.00586">
        <ele>335</ele>
        <time>2024-12-08T07:34:56.620Z</time>
      </trkpt>
      <trkpt lat="46.0101" lon="4.00588">
        <ele>335</ele>
        <time>2024-12-08T07:34:57.619Z</time>
      </trkpt>
      <trkpt lat="46.01011" lon="4.00591">
        <ele>335</ele>
        <time>2024-12-08T07:34:58.620Z</time>
      </trkpt>
      <trkpt lat="46.01012" lon="4.00592">
        <ele>334</ele>
        <time>2024-12-08T07:34:59.619Z</time>
      </trkpt>
      <trkpt lat="46.01013" lon="4.00595">
        <ele>334</ele>
        <time>2024-12-08T07:35:00.620Z</time>
      </trkpt>
      <trkpt lat="46.01014" lon="4.00596">
        <ele>335</ele>
        <time>2024-12-08T07:35:01.619Z</time>
      </trkpt>
      <trkpt lat="46.01016" lon="4.00598">
        <ele>335</ele>
        <time>2024-12-08T07:35:02.619Z</time>
      </trkpt>
      <trkpt lat="46.01017" lon="4.00601">
        <ele>335</ele>
        <time>2024-12-08T07:35:03.619Z</time>
      </trkpt>
      <trkpt lat="46.01018" lon="4.00603">
        <ele>335</ele>
        <time>2024-12-08T07:35:04.620Z</time>
      </trkpt>
      <trkpt lat="46.01019" lon="4.00604">
        <ele>335</ele>
        <time>2024-12-08T07:35:05.620Z</time>
      </trkpt>
      <trkpt lat="46.0102" lon="4.00606">
        <ele>335</ele>
        <time>2024-12-08T07:35:06.619Z</time>
      </trkpt>
      <trkpt lat="46.01021" lon="4.00608">
        <ele>335</ele>
        <time>2024-12-08T07:35:07.620Z</time>
      </trkpt>
      <trkpt lat="46.01022" lon="4.0061">
        <ele>335</ele>
        <time>2024-12-08T07:35:08.620Z</time>
      </trkpt>
      <trkpt lat="46.01023" lon="4.00612">
        <ele>335</ele>
        <time>2024-12-08T07:35:09.620Z</time>
      </trkpt>
      <trkpt lat="46.01024" lon="4.00614">
        <ele>335</ele>
        <time>2024-12-08T07:35:10.620Z</time>
      </trkpt>
      <trkpt lat="46.01025" lon="4.00616">
        <ele>334</ele>
        <time>2024-12-08T07:35:11.620Z</time>
      </trkpt>
      <trkpt lat="46.01026" lon="4.00618">
        <ele>334</ele>
        <time>2024-12-08T07:35:12.619Z</time>
      </trkpt>
      <trkpt lat="46.01028" lon="4.0062">
        <ele>334</ele>
        <time>2024-12-08T07:35:13.619Z</time>
      </trkpt>
      <trkpt lat="46.01029" lon="4.00623">
        <ele>334</ele>
        <time>2024-12-08T07:35:14.619Z</time>
      </trkpt>
      <trkpt lat="46.0103" lon="4.00624">
        <ele>334</ele>
        <time>2024-12-08T07:35:15.620Z</time>
      </trkpt>
      <trkpt lat="46.01032" lon="4.00626">
        <ele>334</ele>
        <time>2024-12-08T07:35:16.620Z</time>
      </trkpt>
      <trkpt lat="46.01033" lon="4.00628">
        <ele>334</ele>
        <time>2024-12-08T07:35:17.620Z</time>
      </trkpt>
      <trkpt lat="46.01034" lon="4.00629">
        <ele>334</ele>
        <time>2024-12-08T07:35:18.619Z</time>
      </trkpt>
      <trkpt lat="46.01035" lon="4.00631">
        <ele>334</ele>
        <time>2024-12-08T07:35:19.620Z</time>
      </trkpt>
      <trkpt lat="46.01036" lon="4.00633">
        <ele>334</ele>
        <time>2024-12-08T07:35:20.619Z</time>
      </trkpt>
      <trkpt lat="46.01037" lon="4.00635">
        <ele>334</ele>
        <time>2024-12-08T07:35:21.620Z</time>
      </trkpt>
      <trkpt lat="46.01039" lon="4.00636">
        <ele>334</ele>
        <time>2024-12-08T07:35:22.620Z</time>
      </trkpt>
      <trkpt lat="46.0104" lon="4.00638">
        <ele>334</ele>
        <time>2024-12-08T07:35:23.620Z</time>
      </trkpt>
      <trkpt lat="46.01041" lon="4.00639">
        <ele>334</ele>
        <time>2024-12-08T07:35:24.620Z</time>
      </trkpt>
      <trkpt lat="46.01042" lon="4.00641">
        <ele>334</ele>
        <time>2024-12-08T07:35:25.620Z</time>
      </trkpt>
      <trkpt lat="46.01044" lon="4.00644">
        <ele>334</ele>
        <time>2024-12-08T07:35:26.619Z</time>
      </trkpt>
      <trkpt lat="46.01045" lon="4.00645">
        <ele>334</ele>
        <time>2024-12-08T07:35:27.619Z</time>
      </trkpt>
      <trkpt lat="46.01047" lon="4.00647">
        <ele>334</ele>
        <time>2024-12-08T07:35:28.619Z</time>
      </trkpt>
      <trkpt lat="46.01048" lon="4.00649">
        <ele>334</ele>
        <time>2024-12-08T07:35:29.619Z</time>
      </trkpt>
      <trkpt lat="46.0105" lon="4.00651">
        <ele>334</ele>
        <time>2024-12-08T07:35:30.620Z</time>
      </trkpt>
      <trkpt lat="46.01051" lon="4.00653">
        <ele>334</ele>
        <time>2024-12-08T07:35:31.619Z</time>
      </trkpt>
      <trkpt lat="46.01053" lon="4.00654">
        <ele>334</ele>
        <time>2024-12-08T07:35:32.619Z</time>
      </trkpt>
      <trkpt lat="46.01054" lon="4.00656">
        <ele>334</ele>
        <time>2024-12-08T07:35:33.620Z</time>
      </trkpt>
      <trkpt lat="46.01055" lon="4.00658">
        <ele>334</ele>
        <time>2024-12-08T07:35:34.619Z</time>
      </trkpt>
      <trkpt lat="46.01056" lon="4.0066">
        <ele>334</ele>
        <time>2024-12-08T07:35:35.620Z</time>
      </trkpt>
      <trkpt lat="46.01058" lon="4.00662">
        <ele>333</ele>
        <time>2024-12-08T07:35:36.619Z</time>
      </trkpt>
      <trkpt lat="46.01059" lon="4.00663">
        <ele>333</ele>
        <time>2024-12-08T07:35:37.620Z</time>
      </trkpt>
      <trkpt lat="46.0106" lon="4.00664">
        <ele>333</ele>
        <time>2024-12-08T07:35:38.620Z</time>
      </trkpt>
      <trkpt lat="46.01062" lon="4.00666">
        <ele>333</ele>
        <time>2024-12-08T07:35:39.619Z</time>
      </trkpt>
      <trkpt lat="46.01064" lon="4.00668">
        <ele>333</ele>
        <time>2024-12-08T07:35:40.620Z</time>
      </trkpt>
      <trkpt lat="46.01065" lon="4.00669">
        <ele>333</ele>
        <time>2024-12-08T07:35:41.619Z</time>
      </trkpt>
      <trkpt lat="46.01066" lon="4.00671">
        <ele>333</ele>
        <time>2024-12-08T07:35:42.619Z</time>
      </trkpt>
      <trkpt lat="46.01068" lon="4.00672">
        <ele>333</ele>
        <time>2024-12-08T07:35:43.620Z</time>
      </trkpt>
      <trkpt lat="46.01069" lon="4.00674">
        <ele>333</ele>
        <time>2024-12-08T07:35:44.620Z</time>
      </trkpt>
      <trkpt lat="46.0107" lon="4.00676">
        <ele>333</ele>
        <time>2024-12-08T07:35:45.619Z</time>
      </trkpt>
      <trkpt lat="46.01072" lon="4.00678">
        <ele>332</ele>
        <time>2024-12-08T07:35:46.619Z</time>
      </trkpt>
      <trkpt lat="46.01073" lon="4.00679">
        <ele>332</ele>
        <time>2024-12-08T07:35:47.619Z</time>
      </trkpt>
      <trkpt lat="46.01074" lon="4.0068">
        <ele>332</ele>
        <time>2024-12-08T07:35:48.619Z</time>
      </trkpt>
      <trkpt lat="46.01076" lon="4.00682">
        <ele>332</ele>
        <time>2024-12-08T07:35:49.620Z</time>
      </trkpt>
      <trkpt lat="46.01077" lon="4.00683">
        <ele>332</ele>
        <time>2024-12-08T07:35:50.620Z</time>
      </trkpt>
      <trkpt lat="46.01078" lon="4.00685">
        <ele>332</ele>
        <time>2024-12-08T07:35:51.619Z</time>
      </trkpt>
      <trkpt lat="46.01079" lon="4.00686">
        <ele>332</ele>
        <time>2024-12-08T07:35:52.619Z</time>
      </trkpt>
      <trkpt lat="46.01081" lon="4.00688">
        <ele>332</ele>
        <time>2024-12-08T07:35:53.619Z</time>
      </trkpt>
      <trkpt lat="46.01082" lon="4.0069">
        <ele>331</ele>
        <time>2024-12-08T07:35:54.619Z</time>
      </trkpt>
      <trkpt lat="46.01084" lon="4.00691">
        <ele>331</ele>
        <time>2024-12-08T07:35:55.619Z</time>
      </trkpt>
      <trkpt lat="46.01085" lon="4.00693">
        <ele>331</ele>
        <time>2024-12-08T07:35:56.619Z</time>
      </trkpt>
      <trkpt lat="46.01086" lon="4.00694">
        <ele>331</ele>
        <time>2024-12-08T07:35:57.620Z</time>
      </trkpt>
      <trkpt lat="46.01088" lon="4.00696">
        <ele>331</ele>
        <time>2024-12-08T07:35:58.619Z</time>
      </trkpt>
      <trkpt lat="46.01089" lon="4.00697">
        <ele>332</ele>
        <time>2024-12-08T07:35:59.619Z</time>
      </trkpt>
      <trkpt lat="46.01091" lon="4.00699">
        <ele>332</ele>
        <time>2024-12-08T07:36:00.619Z</time>
      </trkpt>
      <trkpt lat="46.01092" lon="4.00701">
        <ele>332</ele>
        <time>2024-12-08T07:36:01.620Z</time>
      </trkpt>
      <trkpt lat="46.01094" lon="4.00702">
        <ele>332</ele>
        <time>2024-12-08T07:36:02.619Z</time>
      </trkpt>
      <trkpt lat="46.01095" lon="4.00704">
        <ele>332</ele>
        <time>2024-12-08T07:36:03.620Z</time>
      </trkpt>
      <trkpt lat="46.01096" lon="4.00705">
        <ele>332</ele>
        <time>2024-12-08T07:36:04.619Z</time>
      </trkpt>
      <trkpt lat="46.01098" lon="4.00708">
        <ele>332</ele>
        <time>2024-12-08T07:36:05.620Z</time>
      </trkpt>
      <trkpt lat="46.011" lon="4.00709">
        <ele>332</ele>
        <time>2024-12-08T07:36:06.620Z</time>
      </trkpt>
      <trkpt lat="46.01101" lon="4.00711">
        <ele>332</ele>
        <time>2024-12-08T07:36:07.619Z</time>
      </trkpt>
      <trkpt lat="46.01102" lon="4.00712">
        <ele>332</ele>
        <time>2024-12-08T07:36:08.619Z</time>
      </trkpt>
      <trkpt lat="46.01103" lon="4.00714">
        <ele>332</ele>
        <time>2024-12-08T07:36:09.619Z</time>
      </trkpt>
      <trkpt lat="46.01105" lon="4.00716">
        <ele>332</ele>
        <time>2024-12-08T07:36:10.619Z</time>
      </trkpt>
      <trkpt lat="46.01106" lon="4.00717">
        <ele>332</ele>
        <time>2024-12-08T07:36:11.619Z</time>
      </trkpt>
      <trkpt lat="46.01107" lon="4.00719">
        <ele>332</ele>
        <time>2024-12-08T07:36:12.620Z</time>
      </trkpt>
      <trkpt lat="46.01109" lon="4.0072">
        <ele>332</ele>
        <time>2024-12-08T07:36:13.619Z</time>
      </trkpt>
      <trkpt lat="46.0111" lon="4.00722">
        <ele>333</ele>
        <time>2024-12-08T07:36:14.619Z</time>
      </trkpt>
      <trkpt lat="46.01112" lon="4.00724">
        <ele>333</ele>
        <time>2024-12-08T07:36:15.620Z</time>
      </trkpt>
      <trkpt lat="46.01113" lon="4.00726">
        <ele>333</ele>
        <time>2024-12-08T07:36:16.619Z</time>
      </trkpt>
      <trkpt lat="46.01114" lon="4.00727">
        <ele>333</ele>
        <time>2024-12-08T07:36:17.620Z</time>
      </trkpt>
      <trkpt lat="46.01116" lon="4.00729">
        <ele>332</ele>
        <time>2024-12-08T07:36:18.620Z</time>
      </trkpt>
      <trkpt lat="46.01117" lon="4.00731">
        <ele>332</ele>
        <time>2024-12-08T07:36:19.620Z</time>
      </trkpt>
      <trkpt lat="46.01118" lon="4.00732">
        <ele>332</ele>
        <time>2024-12-08T07:36:20.619Z</time>
      </trkpt>
      <trkpt lat="46.0112" lon="4.00734">
        <ele>332</ele>
        <time>2024-12-08T07:36:21.619Z</time>
      </trkpt>
      <trkpt lat="46.01121" lon="4.00736">
        <ele>332</ele>
        <time>2024-12-08T07:36:22.619Z</time>
      </trkpt>
      <trkpt lat="46.01123" lon="4.00738">
        <ele>332</ele>
        <time>2024-12-08T07:36:23.620Z</time>
      </trkpt>
      <trkpt lat="46.01124" lon="4.0074">
        <ele>332</ele>
        <time>2024-12-08T07:36:24.620Z</time>
      </trkpt>
      <trkpt lat="46.01126" lon="4.00742">
        <ele>331</ele>
        <time>2024-12-08T07:36:25.619Z</time>
      </trkpt>
      <trkpt lat="46.01127" lon="4.00743">
        <ele>331</ele>
        <time>2024-12-08T07:36:26.619Z</time>
      </trkpt>
      <trkpt lat="46.01129" lon="4.00745">
        <ele>331</ele>
        <time>2024-12-08T07:36:27.620Z</time>
      </trkpt>
      <trkpt lat="46.0113" lon="4.00747">
        <ele>331</ele>
        <time>2024-12-08T07:36:28.620Z</time>
      </trkpt>
      <trkpt lat="46.01131" lon="4.00748">
        <ele>331</ele>
        <time>2024-12-08T07:36:29.619Z</time>
      </trkpt>
      <trkpt lat="46.01132" lon="4.0075">
        <ele>331</ele>
        <time>2024-12-08T07:36:30.620Z</time>
      </trkpt>
      <trkpt lat="46.01134" lon="4.00752">
        <ele>331</ele>
        <time>2024-12-08T07:36:31.619Z</time>
      </trkpt>
      <trkpt lat="46.01135" lon="4.00754">
        <ele>330</ele>
        <time>2024-12-08T07:36:32.619Z</time>
      </trkpt>
      <trkpt lat="46.01137" lon="4.00756">
        <ele>330</ele>
        <time>2024-12-08T07:36:33.620Z</time>
      </trkpt>
      <trkpt lat="46.01138" lon="4.00757">
        <ele>330</ele>
        <time>2024-12-08T07:36:34.619Z</time>
      </trkpt>
      <trkpt lat="46.01139" lon="4.00759">
        <ele>330</ele>
        <time>2024-12-08T07:36:35.620Z</time>
      </trkpt>
      <trkpt lat="46.01141" lon="4.00761">
        <ele>330</ele>
        <time>2024-12-08T07:36:36.620Z</time>
      </trkpt>
      <trkpt lat="46.01142" lon="4.00763">
        <ele>330</ele>
        <time>2024-12-08T07:36:37.620Z</time>
      </trkpt>
      <trkpt lat="46.01144" lon="4.00765">
        <ele>330</ele>
        <time>2024-12-08T07:36:38.619Z</time>
      </trkpt>
      <trkpt lat="46.01145" lon="4.00766">
        <ele>330</ele>
        <time>2024-12-08T07:36:39.619Z</time>
      </trkpt>
      <trkpt lat="46.01147" lon="4.00768">
        <ele>330</ele>
        <time>2024-12-08T07:36:40.619Z</time>
      </trkpt>
      <trkpt lat="46.01148" lon="4.0077">
        <ele>329</ele>
        <time>2024-12-08T07:36:41.619Z</time>
      </trkpt>
      <trkpt lat="46.01149" lon="4.00772">
        <ele>329</ele>
        <time>2024-12-08T07:36:42.619Z</time>
      </trkpt>
      <trkpt lat="46.01151" lon="4.00774">
        <ele>329</ele>
        <time>2024-12-08T07:36:43.619Z</time>
      </trkpt>
      <trkpt lat="46.01152" lon="4.00775">
        <ele>329</ele>
        <time>2024-12-08T07:36:44.620Z</time>
      </trkpt>
      <trkpt lat="46.01154" lon="4.00777">
        <ele>329</ele>
        <time>2024-12-08T07:36:45.619Z</time>
      </trkpt>
      <trkpt lat="46.01155" lon="4.00779">
        <ele>329</ele>
        <time>2024-12-08T07:36:46.619Z</time>
      </trkpt>
      <trkpt lat="46.01157" lon="4.0078">
        <ele>329</ele>
        <time>2024-12-08T07:36:47.619Z</time>
      </trkpt>
      <trkpt lat="46.01158" lon="4.00782">
        <ele>330</ele>
        <time>2024-12-08T07:36:48.619Z</time>
      </trkpt>
      <trkpt lat="46.01159" lon="4.00783">
        <ele>330</ele>
        <time>2024-12-08T07:36:49.619Z</time>
      </trkpt>
      <trkpt lat="46.01161" lon="4.00785">
        <ele>330</ele>
        <time>2024-12-08T07:36:50.620Z</time>
      </trkpt>
      <trkpt lat="46.01162" lon="4.00787">
        <ele>330</ele>
        <time>2024-12-08T07:36:51.619Z</time>
      </trkpt>
      <trkpt lat="46.01164" lon="4.00789">
        <ele>330</ele>
        <time>2024-12-08T07:36:52.619Z</time>
      </trkpt>
      <trkpt lat="46.01165" lon="4.0079">
        <ele>330</ele>
        <time>2024-12-08T07:36:53.619Z</time>
      </trkpt>
      <trkpt lat="46.01167" lon="4.00793">
        <ele>330</ele>
        <time>2024-12-08T07:36:54.620Z</time>
      </trkpt>
      <trkpt lat="46.01168" lon="4.00794">
        <ele>330</ele>
        <time>2024-12-08T07:36:55.619Z</time>
      </trkpt>
      <trkpt lat="46.01169" lon="4.00796">
        <ele>330</ele>
        <time>2024-12-08T07:36:56.619Z</time>
      </trkpt>
      <trkpt lat="46.0117" lon="4.00797">
        <ele>330</ele>
        <time>2024-12-08T07:36:57.619Z</time>
      </trkpt>
      <trkpt lat="46.01172" lon="4.00799">
        <ele>330</ele>
        <time>2024-12-08T07:36:58.619Z</time>
      </trkpt>
      <trkpt lat="46.01173" lon="4.008">
        <ele>330</ele>
        <time>2024-12-08T07:36:59.619Z</time>
      </trkpt>
      <trkpt lat="46.01174" lon="4.00802">
        <ele>330</ele>
        <time>2024-12-08T07:37:00.619Z</time>
      </trkpt>
      <trkpt lat="46.01175" lon="4.00804">
        <ele>330</ele>
        <time>2024-12-08T07:37:01.620Z</time>
      </trkpt>
      <trkpt lat="46.01176" lon="4.00806">
        <ele>329</ele>
        <time>2024-12-08T07:37:02.619Z</time>
      </trkpt>
      <trkpt lat="46.01177" lon="4.00807">
        <ele>329</ele>
        <time>2024-12-08T07:37:03.619Z</time>
      </trkpt>
      <trkpt lat="46.01179" lon="4.00809">
        <ele>329</ele>
        <time>2024-12-08T07:37:04.620Z</time>
      </trkpt>
      <trkpt lat="46.0118" lon="4.0081">
        <ele>329</ele>
        <time>2024-12-08T07:37:05.619Z</time>
      </trkpt>
      <trkpt lat="46.01181" lon="4.00812">
        <ele>329</ele>
        <time>2024-12-08T07:37:06.619Z</time>
      </trkpt>
      <trkpt lat="46.01182" lon="4.00813">
        <ele>329</ele>
        <time>2024-12-08T07:37:07.619Z</time>
      </trkpt>
      <trkpt lat="46.01184" lon="4.00815">
        <ele>329</ele>
        <time>2024-12-08T07:37:08.619Z</time>
      </trkpt>
      <trkpt lat="46.01185" lon="4.00817">
        <ele>329</ele>
        <time>2024-12-08T07:37:09.619Z</time>
      </trkpt>
      <trkpt lat="46.01186" lon="4.00819">
        <ele>329</ele>
        <time>2024-12-08T07:37:10.619Z</time>
      </trkpt>
      <trkpt lat="46.01187" lon="4.0082">
        <ele>329</ele>
        <time>2024-12-08T07:37:11.619Z</time>
      </trkpt>
      <trkpt lat="46.01189" lon="4.00822">
        <ele>328</ele>
        <time>2024-12-08T07:37:12.619Z</time>
      </trkpt>
      <trkpt lat="46.0119" lon="4.00824">
        <ele>328</ele>
        <time>2024-12-08T07:37:13.619Z</time>
      </trkpt>
      <trkpt lat="46.01192" lon="4.00825">
        <ele>328</ele>
        <time>2024-12-08T07:37:14.619Z</time>
      </trkpt>
      <trkpt lat="46.01193" lon="4.00826">
        <ele>329</ele>
        <time>2024-12-08T07:37:15.619Z</time>
      </trkpt>
      <trkpt lat="46.01195" lon="4.00828">
        <ele>328</ele>
        <time>2024-12-08T07:37:16.619Z</time>
      </trkpt>
      <trkpt lat="46.01196" lon="4.00829">
        <ele>328</ele>
        <time>2024-12-08T07:37:17.619Z</time>
      </trkpt>
      <trkpt lat="46.01197" lon="4.00831">
        <ele>328</ele>
        <time>2024-12-08T07:37:18.620Z</time>
      </trkpt>
      <trkpt lat="46.01198" lon="4.00832">
        <ele>328</ele>
        <time>2024-12-08T07:37:19.619Z</time>
      </trkpt>
      <trkpt lat="46.012" lon="4.00834">
        <ele>328</ele>
        <time>2024-12-08T07:37:20.619Z</time>
      </trkpt>
      <trkpt lat="46.01201" lon="4.00836">
        <ele>328</ele>
        <time>2024-12-08T07:37:21.619Z</time>
      </trkpt>
      <trkpt lat="46.01202" lon="4.00838">
        <ele>328</ele>
        <time>2024-12-08T07:37:22.619Z</time>
      </trkpt>
      <trkpt lat="46.01204" lon="4.00839">
        <ele>328</ele>
        <time>2024-12-08T07:37:23.619Z</time>
      </trkpt>
      <trkpt lat="46.01205" lon="4.00841">
        <ele>328</ele>
        <time>2024-12-08T07:37:24.619Z</time>
      </trkpt>
      <trkpt lat="46.01206" lon="4.00843">
        <ele>328</ele>
        <time>2024-12-08T07:37:25.619Z</time>
      </trkpt>
      <trkpt lat="46.01208" lon="4.00845">
        <ele>327</ele>
        <time>2024-12-08T07:37:26.619Z</time>
      </trkpt>
      <trkpt lat="46.01209" lon="4.00846">
        <ele>327</ele>
        <time>2024-12-08T07:37:27.620Z</time>
      </trkpt>
      <trkpt lat="46.0121" lon="4.00848">
        <ele>327</ele>
        <time>2024-12-08T07:37:28.619Z</time>
      </trkpt>
      <trkpt lat="46.01211" lon="4.00849">
        <ele>327</ele>
        <time>2024-12-08T07:37:29.619Z</time>
      </trkpt>
      <trkpt lat="46.01212" lon="4.00851">
        <ele>327</ele>
        <time>2024-12-08T07:37:30.619Z</time>
      </trkpt>
      <trkpt lat="46.01214" lon="4.00853">
        <ele>328</ele>
        <time>2024-12-08T07:37:31.619Z</time>
      </trkpt>
      <trkpt lat="46.01215" lon="4.00854">
        <ele>328</ele>
        <time>2024-12-08T07:37:32.619Z</time>
      </trkpt>
      <trkpt lat="46.01216" lon="4.00856">
        <ele>328</ele>
        <time>2024-12-08T07:37:33.619Z</time>
      </trkpt>
      <trkpt lat="46.01218" lon="4.00858">
        <ele>328</ele>
        <time>2024-12-08T07:37:34.619Z</time>
      </trkpt>
      <trkpt lat="46.01219" lon="4.00859">
        <ele>327</ele>
        <time>2024-12-08T07:37:35.619Z</time>
      </trkpt>
      <trkpt lat="46.01221" lon="4.00861">
        <ele>327</ele>
        <time>2024-12-08T07:37:36.619Z</time>
      </trkpt>
      <trkpt lat="46.01222" lon="4.00863">
        <ele>327</ele>
        <time>2024-12-08T07:37:37.619Z</time>
      </trkpt>
      <trkpt lat="46.01223" lon="4.00864">
        <ele>327</ele>
        <time>2024-12-08T07:37:38.620Z</time>
      </trkpt>
      <trkpt lat="46.01224" lon="4.00866">
        <ele>328</ele>
        <time>2024-12-08T07:37:39.619Z</time>
      </trkpt>
      <trkpt lat="46.01226" lon="4.00867">
        <ele>328</ele>
        <time>2024-12-08T07:37:40.619Z</time>
      </trkpt>
      <trkpt lat="46.01227" lon="4.00869">
        <ele>327</ele>
        <time>2024-12-08T07:37:41.620Z</time>
      </trkpt>
      <trkpt lat="46.01228" lon="4.00871">
        <ele>327</ele>
        <time>2024-12-08T07:37:42.619Z</time>
      </trkpt>
      <trkpt lat="46.01229" lon="4.00872">
        <ele>327</ele>
        <time>2024-12-08T07:37:43.619Z</time>
      </trkpt>
      <trkpt lat="46.0123" lon="4.00874">
        <ele>327</ele>
        <time>2024-12-08T07:37:44.619Z</time>
      </trkpt>
      <trkpt lat="46.01232" lon="4.00876">
        <ele>327</ele>
        <time>2024-12-08T07:37:45.619Z</time>
      </trkpt>
      <trkpt lat="46.01233" lon="4.00878">
        <ele>327</ele>
        <time>2024-12-08T07:37:46.620Z</time>
      </trkpt>
      <trkpt lat="46.01234" lon="4.00879">
        <ele>327</ele>
        <time>2024-12-08T07:37:47.619Z</time>
      </trkpt>
      <trkpt lat="46.01235" lon="4.00881">
        <ele>327</ele>
        <time>2024-12-08T07:37:48.619Z</time>
      </trkpt>
      <trkpt lat="46.01236" lon="4.00883">
        <ele>327</ele>
        <time>2024-12-08T07:37:49.620Z</time>
      </trkpt>
      <trkpt lat="46.01238" lon="4.00884">
        <ele>327</ele>
        <time>2024-12-08T07:37:50.620Z</time>
      </trkpt>
      <trkpt lat="46.01239" lon="4.00886">
        <ele>327</ele>
        <time>2024-12-08T07:37:51.620Z</time>
      </trkpt>
      <trkpt lat="46.0124" lon="4.00887">
        <ele>327</ele>
        <time>2024-12-08T07:37:52.619Z</time>
      </trkpt>
      <trkpt lat="46.01241" lon="4.00889">
        <ele>327</ele>
        <time>2024-12-08T07:37:53.620Z</time>
      </trkpt>
      <trkpt lat="46.01242" lon="4.0089">
        <ele>327</ele>
        <time>2024-12-08T07:37:54.620Z</time>
      </trkpt>
      <trkpt lat="46.01243" lon="4.00892">
        <ele>327</ele>
        <time>2024-12-08T07:37:55.620Z</time>
      </trkpt>
      <trkpt lat="46.01244" lon="4.00894">
        <ele>327</ele>
        <time>2024-12-08T07:37:56.620Z</time>
      </trkpt>
      <trkpt lat="46.01245" lon="4.00895">
        <ele>328</ele>
        <time>2024-12-08T07:37:57.620Z</time>
      </trkpt>
      <trkpt lat="46.01247" lon="4.00897">
        <ele>328</ele>
        <time>2024-12-08T07:37:58.619Z</time>
      </trkpt>
      <trkpt lat="46.01248" lon="4.00899">
        <ele>327</ele>
        <time>2024-12-08T07:37:59.619Z</time>
      </trkpt>
      <trkpt lat="46.01249" lon="4.00901">
        <ele>327</ele>
        <time>2024-12-08T07:38:00.620Z</time>
      </trkpt>
      <trkpt lat="46.0125" lon="4.00903">
        <ele>327</ele>
        <time>2024-12-08T07:38:01.620Z</time>
      </trkpt>
      <trkpt lat="46.01252" lon="4.00904">
        <ele>327</ele>
        <time>2024-12-08T07:38:02.619Z</time>
      </trkpt>
      <trkpt lat="46.01253" lon="4.00906">
        <ele>327</ele>
        <time>2024-12-08T07:38:03.619Z</time>
      </trkpt>
      <trkpt lat="46.01254" lon="4.00907">
        <ele>327</ele>
        <time>2024-12-08T07:38:04.619Z</time>
      </trkpt>
      <trkpt lat="46.01255" lon="4.00909">
        <ele>327</ele>
        <time>2024-12-08T07:38:05.620Z</time>
      </trkpt>
      <trkpt lat="46.01256" lon="4.00911">
        <ele>327</ele>
        <time>2024-12-08T07:38:06.619Z</time>
      </trkpt>
      <trkpt lat="46.01257" lon="4.00912">
        <ele>327</ele>
        <time>2024-12-08T07:38:07.619Z</time>
      </trkpt>
      <trkpt lat="46.01257" lon="4.00914">
        <ele>327</ele>
        <time>2024-12-08T07:38:08.620Z</time>
      </trkpt>
      <trkpt lat="46.01259" lon="4.00916">
        <ele>327</ele>
        <time>2024-12-08T07:38:09.620Z</time>
      </trkpt>
      <trkpt lat="46.0126" lon="4.00918">
        <ele>327</ele>
        <time>2024-12-08T07:38:10.619Z</time>
      </trkpt>
      <trkpt lat="46.01261" lon="4.0092">
        <ele>327</ele>
        <time>2024-12-08T07:38:11.620Z</time>
      </trkpt>
      <trkpt lat="46.01262" lon="4.00922">
        <ele>327</ele>
        <time>2024-12-08T07:38:12.619Z</time>
      </trkpt>
      <trkpt lat="46.01263" lon="4.00923">
        <ele>327</ele>
        <time>2024-12-08T07:38:13.619Z</time>
      </trkpt>
      <trkpt lat="46.01264" lon="4.00926">
        <ele>327</ele>
        <time>2024-12-08T07:38:14.620Z</time>
      </trkpt>
      <trkpt lat="46.01265" lon="4.00928">
        <ele>327</ele>
        <time>2024-12-08T07:38:15.620Z</time>
      </trkpt>
      <trkpt lat="46.01266" lon="4.0093">
        <ele>327</ele>
        <time>2024-12-08T07:38:16.620Z</time>
      </trkpt>
      <trkpt lat="46.01267" lon="4.00931">
        <ele>327</ele>
        <time>2024-12-08T07:38:17.619Z</time>
      </trkpt>
      <trkpt lat="46.01268" lon="4.00933">
        <ele>327</ele>
        <time>2024-12-08T07:38:18.620Z</time>
      </trkpt>
      <trkpt lat="46.01269" lon="4.00935">
        <ele>327</ele>
        <time>2024-12-08T07:38:19.620Z</time>
      </trkpt>
      <trkpt lat="46.0127" lon="4.00937">
        <ele>327</ele>
        <time>2024-12-08T07:38:20.619Z</time>
      </trkpt>
      <trkpt lat="46.01271" lon="4.00938">
        <ele>327</ele>
        <time>2024-12-08T07:38:21.620Z</time>
      </trkpt>
      <trkpt lat="46.01272" lon="4.0094">
        <ele>327</ele>
        <time>2024-12-08T07:38:22.619Z</time>
      </trkpt>
      <trkpt lat="46.01273" lon="4.00942">
        <ele>327</ele>
        <time>2024-12-08T07:38:23.619Z</time>
      </trkpt>
      <trkpt lat="46.01274" lon="4.00945">
        <ele>327</ele>
        <time>2024-12-08T07:38:24.620Z</time>
      </trkpt>
      <trkpt lat="46.01275" lon="4.00947">
        <ele>327</ele>
        <time>2024-12-08T07:38:25.620Z</time>
      </trkpt>
      <trkpt lat="46.01276" lon="4.00948">
        <ele>327</ele>
        <time>2024-12-08T07:38:26.620Z</time>
      </trkpt>
      <trkpt lat="46.01277" lon="4.00951">
        <ele>327</ele>
        <time>2024-12-08T07:38:27.619Z</time>
      </trkpt>
      <trkpt lat="46.01278" lon="4.00953">
        <ele>327</ele>
        <time>2024-12-08T07:38:28.619Z</time>
      </trkpt>
      <trkpt lat="46.01279" lon="4.00955">
        <ele>327</ele>
        <time>2024-12-08T07:38:29.619Z</time>
      </trkpt>
      <trkpt lat="46.01279" lon="4.00957">
        <ele>327</ele>
        <time>2024-12-08T07:38:30.620Z</time>
      </trkpt>
      <trkpt lat="46.0128" lon="4.00959">
        <ele>327</ele>
        <time>2024-12-08T07:38:31.620Z</time>
      </trkpt>
      <trkpt lat="46.01281" lon="4.00961">
        <ele>327</ele>
        <time>2024-12-08T07:38:32.619Z</time>
      </trkpt>
      <trkpt lat="46.01282" lon="4.00962">
        <ele>327</ele>
        <time>2024-12-08T07:38:33.619Z</time>
      </trkpt>
      <trkpt lat="46.01283" lon="4.00964">
        <ele>327</ele>
        <time>2024-12-08T07:38:34.619Z</time>
      </trkpt>
      <trkpt lat="46.01284" lon="4.00966">
        <ele>326</ele>
        <time>2024-12-08T07:38:35.620Z</time>
      </trkpt>
      <trkpt lat="46.01285" lon="4.00968">
        <ele>326</ele>
        <time>2024-12-08T07:38:36.619Z</time>
      </trkpt>
      <trkpt lat="46.01285" lon="4.0097">
        <ele>326</ele>
        <time>2024-12-08T07:38:37.620Z</time>
      </trkpt>
      <trkpt lat="46.01286" lon="4.00972">
        <ele>326</ele>
        <time>2024-12-08T07:38:38.619Z</time>
      </trkpt>
      <trkpt lat="46.01287" lon="4.00974">
        <ele>326</ele>
        <time>2024-12-08T07:38:39.619Z</time>
      </trkpt>
      <trkpt lat="46.01288" lon="4.00976">
        <ele>326</ele>
        <time>2024-12-08T07:38:40.620Z</time>
      </trkpt>
      <trkpt lat="46.01288" lon="4.00978">
        <ele>326</ele>
        <time>2024-12-08T07:38:41.620Z</time>
      </trkpt>
      <trkpt lat="46.01289" lon="4.00981">
        <ele>326</ele>
        <time>2024-12-08T07:38:42.620Z</time>
      </trkpt>
      <trkpt lat="46.0129" lon="4.00982">
        <ele>326</ele>
        <time>2024-12-08T07:38:43.619Z</time>
      </trkpt>
      <trkpt lat="46.01291" lon="4.00985">
        <ele>326</ele>
        <time>2024-12-08T07:38:44.619Z</time>
      </trkpt>
      <trkpt lat="46.01291" lon="4.00987">
        <ele>327</ele>
        <time>2024-12-08T07:38:45.619Z</time>
      </trkpt>
      <trkpt lat="46.01292" lon="4.00989">
        <ele>327</ele>
        <time>2024-12-08T07:38:46.619Z</time>
      </trkpt>
      <trkpt lat="46.01293" lon="4.00991">
        <ele>326</ele>
        <time>2024-12-08T07:38:47.620Z</time>
      </trkpt>
      <trkpt lat="46.01293" lon="4.00993">
        <ele>326</ele>
        <time>2024-12-08T07:38:48.619Z</time>
      </trkpt>
      <trkpt lat="46.01294" lon="4.00996">
        <ele>326</ele>
        <time>2024-12-08T07:38:49.620Z</time>
      </trkpt>
      <trkpt lat="46.01295" lon="4.00998">
        <ele>327</ele>
        <time>2024-12-08T07:38:50.619Z</time>
      </trkpt>
      <trkpt lat="46.01296" lon="4.00999">
        <ele>327</ele>
        <time>2024-12-08T07:38:51.619Z</time>
      </trkpt>
      <trkpt lat="46.01296" lon="4.01001">
        <ele>327</ele>
        <time>2024-12-08T07:38:52.620Z</time>
      </trkpt>
      <trkpt lat="46.01297" lon="4.01003">
        <ele>327</ele>
        <time>2024-12-08T07:38:53.620Z</time>
      </trkpt>
      <trkpt lat="46.01298" lon="4.01005">
        <ele>327</ele>
        <time>2024-12-08T07:38:54.620Z</time>
      </trkpt>
      <trkpt lat="46.01299" lon="4.01007">
        <ele>328</ele>
        <time>2024-12-08T07:38:55.619Z</time>
      </trkpt>
      <trkpt lat="46.01299" lon="4.01009">
        <ele>328</ele>
        <time>2024-12-08T07:38:56.619Z</time>
      </trkpt>
      <trkpt lat="46.013" lon="4.01012">
        <ele>328</ele>
        <time>2024-12-08T07:38:57.620Z</time>
      </trkpt>
      <trkpt lat="46.013" lon="4.01014">
        <ele>328</ele>
        <time>2024-12-08T07:38:58.620Z</time>
      </trkpt>
      <trkpt lat="46.01301" lon="4.01016">
        <ele>328</ele>
        <time>2024-12-08T07:38:59.619Z</time>
      </trkpt>
      <trkpt lat="46.01302" lon="4.01018">
        <ele>328</ele>
        <time>2024-12-08T07:39:00.619Z</time>
      </trkpt>
      <trkpt lat="46.01302" lon="4.0102">
        <ele>328</ele>
        <time>2024-12-08T07:39:01.620Z</time>
      </trkpt>
      <trkpt lat="46.01303" lon="4.01022">
        <ele>328</ele>
        <time>2024-12-08T07:39:02.619Z</time>
      </trkpt>
      <trkpt lat="46.01303" lon="4.01024">
        <ele>328</ele>
        <time>2024-12-08T07:39:03.619Z</time>
      </trkpt>
      <trkpt lat="46.01304" lon="4.01027">
        <ele>328</ele>
        <time>2024-12-08T07:39:04.619Z</time>
      </trkpt>
      <trkpt lat="46.01305" lon="4.01029">
        <ele>328</ele>
        <time>2024-12-08T07:39:05.619Z</time>
      </trkpt>
      <trkpt lat="46.01305" lon="4.01031">
        <ele>328</ele>
        <time>2024-12-08T07:39:06.619Z</time>
      </trkpt>
      <trkpt lat="46.01306" lon="4.01033">
        <ele>329</ele>
        <time>2024-12-08T07:39:07.620Z</time>
      </trkpt>
      <trkpt lat="46.01307" lon="4.01035">
        <ele>329</ele>
        <time>2024-12-08T07:39:08.620Z</time>
      </trkpt>
      <trkpt lat="46.01308" lon="4.01037">
        <ele>330</ele>
        <time>2024-12-08T07:39:09.619Z</time>
      </trkpt>
      <trkpt lat="46.01308" lon="4.01039">
        <ele>330</ele>
        <time>2024-12-08T07:39:10.619Z</time>
      </trkpt>
      <trkpt lat="46.01309" lon="4.01042">
        <ele>330</ele>
        <time>2024-12-08T07:39:11.620Z</time>
      </trkpt>
      <trkpt lat="46.01309" lon="4.01044">
        <ele>330</ele>
        <time>2024-12-08T07:39:12.619Z</time>
      </trkpt>
      <trkpt lat="46.0131" lon="4.01046">
        <ele>330</ele>
        <time>2024-12-08T07:39:13.620Z</time>
      </trkpt>
      <trkpt lat="46.0131" lon="4.01048">
        <ele>330</ele>
        <time>2024-12-08T07:39:14.619Z</time>
      </trkpt>
      <trkpt lat="46.01311" lon="4.01051">
        <ele>330</ele>
        <time>2024-12-08T07:39:15.619Z</time>
      </trkpt>
      <trkpt lat="46.01311" lon="4.01053">
        <ele>330</ele>
        <time>2024-12-08T07:39:16.619Z</time>
      </trkpt>
      <trkpt lat="46.01312" lon="4.01055">
        <ele>330</ele>
        <time>2024-12-08T07:39:17.620Z</time>
      </trkpt>
      <trkpt lat="46.01312" lon="4.01057">
        <ele>330</ele>
        <time>2024-12-08T07:39:18.620Z</time>
      </trkpt>
      <trkpt lat="46.01313" lon="4.01059">
        <ele>330</ele>
        <time>2024-12-08T07:39:19.619Z</time>
      </trkpt>
      <trkpt lat="46.01314" lon="4.01062">
        <ele>330</ele>
        <time>2024-12-08T07:39:20.619Z</time>
      </trkpt>
      <trkpt lat="46.01315" lon="4.01064">
        <ele>330</ele>
        <time>2024-12-08T07:39:21.620Z</time>
      </trkpt>
      <trkpt lat="46.01315" lon="4.01066">
        <ele>330</ele>
        <time>2024-12-08T07:39:22.620Z</time>
      </trkpt>
      <trkpt lat="46.01316" lon="4.01069">
        <ele>329</ele>
        <time>2024-12-08T07:39:23.619Z</time>
      </trkpt>
      <trkpt lat="46.01316" lon="4.01071">
        <ele>329</ele>
        <time>2024-12-08T07:39:24.619Z</time>
      </trkpt>
      <trkpt lat="46.01316" lon="4.01073">
        <ele>329</ele>
        <time>2024-12-08T07:39:25.620Z</time>
      </trkpt>
      <trkpt lat="46.01317" lon="4.01075">
        <ele>330</ele>
        <time>2024-12-08T07:39:26.620Z</time>
      </trkpt>
      <trkpt lat="46.01317" lon="4.01077">
        <ele>330</ele>
        <time>2024-12-08T07:39:27.620Z</time>
      </trkpt>
      <trkpt lat="46.01318" lon="4.01079">
        <ele>330</ele>
        <time>2024-12-08T07:39:28.619Z</time>
      </trkpt>
      <trkpt lat="46.01318" lon="4.01082">
        <ele>330</ele>
        <time>2024-12-08T07:39:29.619Z</time>
      </trkpt>
      <trkpt lat="46.01319" lon="4.01084">
        <ele>330</ele>
        <time>2024-12-08T07:39:30.619Z</time>
      </trkpt>
      <trkpt lat="46.01319" lon="4.01086">
        <ele>330</ele>
        <time>2024-12-08T07:39:31.620Z</time>
      </trkpt>
      <trkpt lat="46.0132" lon="4.01088">
        <ele>330</ele>
        <time>2024-12-08T07:39:32.619Z</time>
      </trkpt>
      <trkpt lat="46.0132" lon="4.01091">
        <ele>330</ele>
        <time>2024-12-08T07:39:33.620Z</time>
      </trkpt>
      <trkpt lat="46.0132" lon="4.01093">
        <ele>330</ele>
        <time>2024-12-08T07:39:34.619Z</time>
      </trkpt>
      <trkpt lat="46.01321" lon="4.01095">
        <ele>330</ele>
        <time>2024-12-08T07:39:35.620Z</time>
      </trkpt>
      <trkpt lat="46.01321" lon="4.01098">
        <ele>330</ele>
        <time>2024-12-08T07:39:36.619Z</time>
      </trkpt>
      <trkpt lat="46.01322" lon="4.01099">
        <ele>331</ele>
        <time>2024-12-08T07:39:37.619Z</time>
      </trkpt>
      <trkpt lat="46.01322" lon="4.01102">
        <ele>331</ele>
        <time>2024-12-08T07:39:38.619Z</time>
      </trkpt>
      <trkpt lat="46.01323" lon="4.01104">
        <ele>331</ele>
        <time>2024-12-08T07:39:39.620Z</time>
      </trkpt>
      <trkpt lat="46.01323" lon="4.01107">
        <ele>331</ele>
        <time>2024-12-08T07:39:40.619Z</time>
      </trkpt>
      <trkpt lat="46.01323" lon="4.01109">
        <ele>331</ele>
        <time>2024-12-08T07:39:41.620Z</time>
      </trkpt>
      <trkpt lat="46.01324" lon="4.01111">
        <ele>331</ele>
        <time>2024-12-08T07:39:42.620Z</time>
      </trkpt>
      <trkpt lat="46.01324" lon="4.01113">
        <ele>332</ele>
        <time>2024-12-08T07:39:43.620Z</time>
      </trkpt>
      <trkpt lat="46.01325" lon="4.01116">
        <ele>332</ele>
        <time>2024-12-08T07:39:44.620Z</time>
      </trkpt>
      <trkpt lat="46.01325" lon="4.01118">
        <ele>332</ele>
        <time>2024-12-08T07:39:45.619Z</time>
      </trkpt>
      <trkpt lat="46.01326" lon="4.0112">
        <ele>332</ele>
        <time>2024-12-08T07:39:46.620Z</time>
      </trkpt>
      <trkpt lat="46.01326" lon="4.01123">
        <ele>332</ele>
        <time>2024-12-08T07:39:47.619Z</time>
      </trkpt>
      <trkpt lat="46.01326" lon="4.01125">
        <ele>332</ele>
        <time>2024-12-08T07:39:48.620Z</time>
      </trkpt>
      <trkpt lat="46.01327" lon="4.01127">
        <ele>332</ele>
        <time>2024-12-08T07:39:49.619Z</time>
      </trkpt>
      <trkpt lat="46.01328" lon="4.01129">
        <ele>332</ele>
        <time>2024-12-08T07:39:50.620Z</time>
      </trkpt>
      <trkpt lat="46.01328" lon="4.01133">
        <ele>332</ele>
        <time>2024-12-08T07:39:51.619Z</time>
      </trkpt>
      <trkpt lat="46.01328" lon="4.01135">
        <ele>332</ele>
        <time>2024-12-08T07:39:52.620Z</time>
      </trkpt>
      <trkpt lat="46.01328" lon="4.01138">
        <ele>331</ele>
        <time>2024-12-08T07:39:53.620Z</time>
      </trkpt>
      <trkpt lat="46.01329" lon="4.0114">
        <ele>331</ele>
        <time>2024-12-08T07:39:54.620Z</time>
      </trkpt>
      <trkpt lat="46.01329" lon="4.01143">
        <ele>331</ele>
        <time>2024-12-08T07:39:55.619Z</time>
      </trkpt>
      <trkpt lat="46.01329" lon="4.01145">
        <ele>331</ele>
        <time>2024-12-08T07:39:56.619Z</time>
      </trkpt>
      <trkpt lat="46.0133" lon="4.01147">
        <ele>331</ele>
        <time>2024-12-08T07:39:57.620Z</time>
      </trkpt>
      <trkpt lat="46.0133" lon="4.0115">
        <ele>332</ele>
        <time>2024-12-08T07:39:58.620Z</time>
      </trkpt>
      <trkpt lat="46.01331" lon="4.01152">
        <ele>332</ele>
        <time>2024-12-08T07:39:59.620Z</time>
      </trkpt>
      <trkpt lat="46.01331" lon="4.01154">
        <ele>332</ele>
        <time>2024-12-08T07:40:00.619Z</time>
      </trkpt>
      <trkpt lat="46.01331" lon="4.01157">
        <ele>332</ele>
        <time>2024-12-08T07:40:01.619Z</time>
      </trkpt>
      <trkpt lat="46.01332" lon="4.01159">
        <ele>332</ele>
        <time>2024-12-08T07:40:02.619Z</time>
      </trkpt>
      <trkpt lat="46.01332" lon="4.01161">
        <ele>332</ele>
        <time>2024-12-08T07:40:03.620Z</time>
      </trkpt>
      <trkpt lat="46.01333" lon="4.01165">
        <ele>332</ele>
        <time>2024-12-08T07:40:04.619Z</time>
      </trkpt>
      <trkpt lat="46.01333" lon="4.01167">
        <ele>332</ele>
        <time>2024-12-08T07:40:05.619Z</time>
      </trkpt>
      <trkpt lat="46.01333" lon="4.0117">
        <ele>332</ele>
        <time>2024-12-08T07:40:06.620Z</time>
      </trkpt>
      <trkpt lat="46.01334" lon="4.01172">
        <ele>332</ele>
        <time>2024-12-08T07:40:07.620Z</time>
      </trkpt>
      <trkpt lat="46.01334" lon="4.01174">
        <ele>332</ele>
        <time>2024-12-08T07:40:08.619Z</time>
      </trkpt>
      <trkpt lat="46.01335" lon="4.01176">
        <ele>333</ele>
        <time>2024-12-08T07:40:09.620Z</time>
      </trkpt>
      <trkpt lat="46.01335" lon="4.01179">
        <ele>333</ele>
        <time>2024-12-08T07:40:10.619Z</time>
      </trkpt>
      <trkpt lat="46.01335" lon="4.01181">
        <ele>333</ele>
        <time>2024-12-08T07:40:11.619Z</time>
      </trkpt>
      <trkpt lat="46.01336" lon="4.01184">
        <ele>332</ele>
        <time>2024-12-08T07:40:12.620Z</time>
      </trkpt>
      <trkpt lat="46.01336" lon="4.01187">
        <ele>332</ele>
        <time>2024-12-08T07:40:13.620Z</time>
      </trkpt>
      <trkpt lat="46.01336" lon="4.01189">
        <ele>332</ele>
        <time>2024-12-08T07:40:14.620Z</time>
      </trkpt>
      <trkpt lat="46.01337" lon="4.01192">
        <ele>332</ele>
        <time>2024-12-08T07:40:15.619Z</time>
      </trkpt>
      <trkpt lat="46.01337" lon="4.01194">
        <ele>332</ele>
        <time>2024-12-08T07:40:16.619Z</time>
      </trkpt>
      <trkpt lat="46.01338" lon="4.01197">
        <ele>332</ele>
        <time>2024-12-08T07:40:17.619Z</time>
      </trkpt>
      <trkpt lat="46.01338" lon="4.01199">
        <ele>332</ele>
        <time>2024-12-08T07:40:18.620Z</time>
      </trkpt>
      <trkpt lat="46.01339" lon="4.01201">
        <ele>332</ele>
        <time>2024-12-08T07:40:19.620Z</time>
      </trkpt>
      <trkpt lat="46.0134" lon="4.01204">
        <ele>332</ele>
        <time>2024-12-08T07:40:20.620Z</time>
      </trkpt>
      <trkpt lat="46.0134" lon="4.01206">
        <ele>332</ele>
        <time>2024-12-08T07:40:21.620Z</time>
      </trkpt>
      <trkpt lat="46.01341" lon="4.01208">
        <ele>332</ele>
        <time>2024-12-08T07:40:22.620Z</time>
      </trkpt>
      <trkpt lat="46.01341" lon="4.01211">
        <ele>332</ele>
        <time>2024-12-08T07:40:23.620Z</time>
      </trkpt>
      <trkpt lat="46.01342" lon="4.01213">
        <ele>332</ele>
        <time>2024-12-08T07:40:24.620Z</time>
      </trkpt>
      <trkpt lat="46.01342" lon="4.01215">
        <ele>332</ele>
        <time>2024-12-08T07:40:25.619Z</time>
      </trkpt>
      <trkpt lat="46.01342" lon="4.01218">
        <ele>332</ele>
        <time>2024-12-08T07:40:26.620Z</time>
      </trkpt>
      <trkpt lat="46.01343" lon="4.01221">
        <ele>332</ele>
        <time>2024-12-08T07:40:27.619Z</time>
      </trkpt>
      <trkpt lat="46.01343" lon="4.01224">
        <ele>332</ele>
        <time>2024-12-08T07:40:28.619Z</time>
      </trkpt>
      <trkpt lat="46.01343" lon="4.01226">
        <ele>332</ele>
        <time>2024-12-08T07:40:29.619Z</time>
      </trkpt>
      <trkpt lat="46.01344" lon="4.01228">
        <ele>333</ele>
        <time>2024-12-08T07:40:30.619Z</time>
      </trkpt>
      <trkpt lat="46.01344" lon="4.0123">
        <ele>333</ele>
        <time>2024-12-08T07:40:31.620Z</time>
      </trkpt>
      <trkpt lat="46.01344" lon="4.01233">
        <ele>333</ele>
        <time>2024-12-08T07:40:32.619Z</time>
      </trkpt>
      <trkpt lat="46.01345" lon="4.01235">
        <ele>332</ele>
        <time>2024-12-08T07:40:33.620Z</time>
      </trkpt>
      <trkpt lat="46.01345" lon="4.01237">
        <ele>332</ele>
        <time>2024-12-08T07:40:34.619Z</time>
      </trkpt>
      <trkpt lat="46.01346" lon="4.0124">
        <ele>332</ele>
        <time>2024-12-08T07:40:35.619Z</time>
      </trkpt>
      <trkpt lat="46.01346" lon="4.01243">
        <ele>332</ele>
        <time>2024-12-08T07:40:36.620Z</time>
      </trkpt>
      <trkpt lat="46.01346" lon="4.01245">
        <ele>332</ele>
        <time>2024-12-08T07:40:37.619Z</time>
      </trkpt>
      <trkpt lat="46.01347" lon="4.01247">
        <ele>332</ele>
        <time>2024-12-08T07:40:38.619Z</time>
      </trkpt>
      <trkpt lat="46.01347" lon="4.01251">
        <ele>332</ele>
        <time>2024-12-08T07:40:39.619Z</time>
      </trkpt>
      <trkpt lat="46.01348" lon="4.01253">
        <ele>332</ele>
        <time>2024-12-08T07:40:40.620Z</time>
      </trkpt>
      <trkpt lat="46.01348" lon="4.01256">
        <ele>332</ele>
        <time>2024-12-08T07:40:41.619Z</time>
      </trkpt>
      <trkpt lat="46.01348" lon="4.01258">
        <ele>332</ele>
        <time>2024-12-08T07:40:42.620Z</time>
      </trkpt>
      <trkpt lat="46.01349" lon="4.0126">
        <ele>332</ele>
        <time>2024-12-08T07:40:43.619Z</time>
      </trkpt>
      <trkpt lat="46.01349" lon="4.01263">
        <ele>332</ele>
        <time>2024-12-08T07:40:44.619Z</time>
      </trkpt>
      <trkpt lat="46.0135" lon="4.01265">
        <ele>332</ele>
        <time>2024-12-08T07:40:45.619Z</time>
      </trkpt>
      <trkpt lat="46.0135" lon="4.01267">
        <ele>333</ele>
        <time>2024-12-08T07:40:46.620Z</time>
      </trkpt>
      <trkpt lat="46.0135" lon="4.0127">
        <ele>333</ele>
        <time>2024-12-08T07:40:47.620Z</time>
      </trkpt>
      <trkpt lat="46.01351" lon="4.01272">
        <ele>333</ele>
        <time>2024-12-08T07:40:48.620Z</time>
      </trkpt>
      <trkpt lat="46.01351" lon="4.01275">
        <ele>333</ele>
        <time>2024-12-08T07:40:49.619Z</time>
      </trkpt>
      <trkpt lat="46.01352" lon="4.01278">
        <ele>333</ele>
        <time>2024-12-08T07:40:50.620Z</time>
      </trkpt>
      <trkpt lat="46.01352" lon="4.0128">
        <ele>332</ele>
        <time>2024-12-08T07:40:51.619Z</time>
      </trkpt>
      <trkpt lat="46.01353" lon="4.01282">
        <ele>332</ele>
        <time>2024-12-08T07:40:52.620Z</time>
      </trkpt>
      <trkpt lat="46.01353" lon="4.01285">
        <ele>332</ele>
        <time>2024-12-08T07:40:53.619Z</time>
      </trkpt>
      <trkpt lat="46.01353" lon="4.01287">
        <ele>332</ele>
        <time>2024-12-08T07:40:54.620Z</time>
      </trkpt>
      <trkpt lat="46.01354" lon="4.0129">
        <ele>332</ele>
        <time>2024-12-08T07:40:55.619Z</time>
      </trkpt>
      <trkpt lat="46.01354" lon="4.01292">
        <ele>332</ele>
        <time>2024-12-08T07:40:56.620Z</time>
      </trkpt>
      <trkpt lat="46.01354" lon="4.01296">
        <ele>332</ele>
        <time>2024-12-08T07:40:57.619Z</time>
      </trkpt>
      <trkpt lat="46.01355" lon="4.01298">
        <ele>332</ele>
        <time>2024-12-08T07:40:58.619Z</time>
      </trkpt>
      <trkpt lat="46.01355" lon="4.013">
        <ele>332</ele>
        <time>2024-12-08T07:40:59.620Z</time>
      </trkpt>
      <trkpt lat="46.01355" lon="4.01303">
        <ele>332</ele>
        <time>2024-12-08T07:41:00.619Z</time>
      </trkpt>
      <trkpt lat="46.01355" lon="4.01306">
        <ele>332</ele>
        <time>2024-12-08T07:41:01.620Z</time>
      </trkpt>
      <trkpt lat="46.01356" lon="4.01308">
        <ele>332</ele>
        <time>2024-12-08T07:41:02.619Z</time>
      </trkpt>
      <trkpt lat="46.01356" lon="4.01311">
        <ele>332</ele>
        <time>2024-12-08T07:41:03.620Z</time>
      </trkpt>
      <trkpt lat="46.01356" lon="4.01313">
        <ele>332</ele>
        <time>2024-12-08T07:41:04.619Z</time>
      </trkpt>
      <trkpt lat="46.01357" lon="4.01315">
        <ele>332</ele>
        <time>2024-12-08T07:41:05.620Z</time>
      </trkpt>
      <trkpt lat="46.01357" lon="4.01319">
        <ele>332</ele>
        <time>2024-12-08T07:41:06.619Z</time>
      </trkpt>
      <trkpt lat="46.01357" lon="4.01322">
        <ele>333</ele>
        <time>2024-12-08T07:41:07.620Z</time>
      </trkpt>
      <trkpt lat="46.01358" lon="4.01324">
        <ele>333</ele>
        <time>2024-12-08T07:41:08.619Z</time>
      </trkpt>
      <trkpt lat="46.01358" lon="4.01326">
        <ele>333</ele>
        <time>2024-12-08T07:41:09.619Z</time>
      </trkpt>
      <trkpt lat="46.01358" lon="4.01329">
        <ele>333</ele>
        <time>2024-12-08T07:41:10.619Z</time>
      </trkpt>
      <trkpt lat="46.01358" lon="4.01332">
        <ele>333</ele>
        <time>2024-12-08T07:41:11.619Z</time>
      </trkpt>
      <trkpt lat="46.01359" lon="4.01334">
        <ele>333</ele>
        <time>2024-12-08T07:41:12.619Z</time>
      </trkpt>
      <trkpt lat="46.01359" lon="4.01336">
        <ele>333</ele>
        <time>2024-12-08T07:41:13.620Z</time>
      </trkpt>
      <trkpt lat="46.0136" lon="4.01339">
        <ele>333</ele>
        <time>2024-12-08T07:41:14.620Z</time>
      </trkpt>
      <trkpt lat="46.0136" lon="4.01342">
        <ele>333</ele>
        <time>2024-12-08T07:41:15.619Z</time>
      </trkpt>
      <trkpt lat="46.0136" lon="4.01345">
        <ele>333</ele>
        <time>2024-12-08T07:41:16.620Z</time>
      </trkpt>
      <trkpt lat="46.0136" lon="4.01348">
        <ele>333</ele>
        <time>2024-12-08T07:41:17.620Z</time>
      </trkpt>
      <trkpt lat="46.0136" lon="4.0135">
        <ele>333</ele>
        <time>2024-12-08T07:41:18.620Z</time>
      </trkpt>
      <trkpt lat="46.0136" lon="4.01352">
        <ele>333</ele>
        <time>2024-12-08T07:41:19.619Z</time>
      </trkpt>
      <trkpt lat="46.01361" lon="4.01355">
        <ele>333</ele>
        <time>2024-12-08T07:41:20.619Z</time>
      </trkpt>
      <trkpt lat="46.01361" lon="4.01357">
        <ele>332</ele>
        <time>2024-12-08T07:41:21.619Z</time>
      </trkpt>
      <trkpt lat="46.01361" lon="4.0136">
        <ele>332</ele>
        <time>2024-12-08T07:41:22.620Z</time>
      </trkpt>
      <trkpt lat="46.01361" lon="4.01362">
        <ele>332</ele>
        <time>2024-12-08T07:41:23.619Z</time>
      </trkpt>
      <trkpt lat="46.01361" lon="4.01365">
        <ele>332</ele>
        <time>2024-12-08T07:41:24.619Z</time>
      </trkpt>
      <trkpt lat="46.01361" lon="4.01368">
        <ele>332</ele>
        <time>2024-12-08T07:41:25.619Z</time>
      </trkpt>
      <trkpt lat="46.01361" lon="4.0137">
        <ele>332</ele>
        <time>2024-12-08T07:41:26.620Z</time>
      </trkpt>
      <trkpt lat="46.01361" lon="4.01373">
        <ele>332</ele>
        <time>2024-12-08T07:41:27.619Z</time>
      </trkpt>
      <trkpt lat="46.01362" lon="4.01376">
        <ele>332</ele>
        <time>2024-12-08T07:41:28.619Z</time>
      </trkpt>
      <trkpt lat="46.01362" lon="4.01378">
        <ele>332</ele>
        <time>2024-12-08T07:41:29.620Z</time>
      </trkpt>
      <trkpt lat="46.01362" lon="4.0138">
        <ele>332</ele>
        <time>2024-12-08T07:41:30.619Z</time>
      </trkpt>
      <trkpt lat="46.01363" lon="4.01382">
        <ele>332</ele>
        <time>2024-12-08T07:41:31.619Z</time>
      </trkpt>
      <trkpt lat="46.01363" lon="4.01385">
        <ele>332</ele>
        <time>2024-12-08T07:41:32.619Z</time>
      </trkpt>
      <trkpt lat="46.01363" lon="4.01388">
        <ele>332</ele>
        <time>2024-12-08T07:41:33.619Z</time>
      </trkpt>
      <trkpt lat="46.01363" lon="4.01391">
        <ele>332</ele>
        <time>2024-12-08T07:41:34.620Z</time>
      </trkpt>
      <trkpt lat="46.01363" lon="4.01393">
        <ele>332</ele>
        <time>2024-12-08T07:41:35.620Z</time>
      </trkpt>
      <trkpt lat="46.01363" lon="4.01395">
        <ele>332</ele>
        <time>2024-12-08T07:41:36.619Z</time>
      </trkpt>
      <trkpt lat="46.01363" lon="4.01398">
        <ele>332</ele>
        <time>2024-12-08T07:41:37.619Z</time>
      </trkpt>
      <trkpt lat="46.01363" lon="4.01401">
        <ele>331</ele>
        <time>2024-12-08T07:41:38.619Z</time>
      </trkpt>
      <trkpt lat="46.01363" lon="4.01404">
        <ele>331</ele>
        <time>2024-12-08T07:41:39.620Z</time>
      </trkpt>
      <trkpt lat="46.01364" lon="4.01406">
        <ele>332</ele>
        <time>2024-12-08T07:41:40.620Z</time>
      </trkpt>
      <trkpt lat="46.01364" lon="4.01409">
        <ele>332</ele>
        <time>2024-12-08T07:41:41.619Z</time>
      </trkpt>
      <trkpt lat="46.01364" lon="4.01411">
        <ele>332</ele>
        <time>2024-12-08T07:41:42.619Z</time>
      </trkpt>
      <trkpt lat="46.01364" lon="4.01413">
        <ele>332</ele>
        <time>2024-12-08T07:41:43.619Z</time>
      </trkpt>
      <trkpt lat="46.01364" lon="4.01415">
        <ele>331</ele>
        <time>2024-12-08T07:41:44.619Z</time>
      </trkpt>
      <trkpt lat="46.01364" lon="4.01418">
        <ele>332</ele>
        <time>2024-12-08T07:41:45.619Z</time>
      </trkpt>
      <trkpt lat="46.01364" lon="4.01421">
        <ele>332</ele>
        <time>2024-12-08T07:41:46.619Z</time>
      </trkpt>
      <trkpt lat="46.01364" lon="4.01423">
        <ele>332</ele>
        <time>2024-12-08T07:41:47.619Z</time>
      </trkpt>
      <trkpt lat="46.01364" lon="4.01425">
        <ele>332</ele>
        <time>2024-12-08T07:41:48.620Z</time>
      </trkpt>
      <trkpt lat="46.01364" lon="4.01428">
        <ele>332</ele>
        <time>2024-12-08T07:41:49.619Z</time>
      </trkpt>
      <trkpt lat="46.01364" lon="4.01431">
        <ele>332</ele>
        <time>2024-12-08T07:41:50.619Z</time>
      </trkpt>
      <trkpt lat="46.01365" lon="4.01433">
        <ele>332</ele>
        <time>2024-12-08T07:41:51.620Z</time>
      </trkpt>
      <trkpt lat="46.01365" lon="4.01436">
        <ele>332</ele>
        <time>2024-12-08T07:41:52.619Z</time>
      </trkpt>
      <trkpt lat="46.01365" lon="4.01438">
        <ele>332</ele>
        <time>2024-12-08T07:41:53.620Z</time>
      </trkpt>
      <trkpt lat="46.01365" lon="4.01441">
        <ele>332</ele>
        <time>2024-12-08T07:41:54.619Z</time>
      </trkpt>
      <trkpt lat="46.01366" lon="4.01444">
        <ele>332</ele>
        <time>2024-12-08T07:41:55.620Z</time>
      </trkpt>
      <trkpt lat="46.01366" lon="4.01446">
        <ele>332</ele>
        <time>2024-12-08T07:41:56.619Z</time>
      </trkpt>
      <trkpt lat="46.01366" lon="4.01448">
        <ele>332</ele>
        <time>2024-12-08T07:41:57.619Z</time>
      </trkpt>
      <trkpt lat="46.01366" lon="4.01451">
        <ele>332</ele>
        <time>2024-12-08T07:41:58.619Z</time>
      </trkpt>
      <trkpt lat="46.01366" lon="4.01453">
        <ele>332</ele>
        <time>2024-12-08T07:41:59.619Z</time>
      </trkpt>
      <trkpt lat="46.01366" lon="4.01456">
        <ele>331</ele>
        <time>2024-12-08T07:42:00.619Z</time>
      </trkpt>
      <trkpt lat="46.01366" lon="4.01459">
        <ele>331</ele>
        <time>2024-12-08T07:42:01.620Z</time>
      </trkpt>
      <trkpt lat="46.01366" lon="4.01461">
        <ele>331</ele>
        <time>2024-12-08T07:42:02.619Z</time>
      </trkpt>
      <trkpt lat="46.01367" lon="4.01463">
        <ele>332</ele>
        <time>2024-12-08T07:42:03.620Z</time>
      </trkpt>
      <trkpt lat="46.01367" lon="4.01466">
        <ele>332</ele>
        <time>2024-12-08T07:42:04.620Z</time>
      </trkpt>
      <trkpt lat="46.01367" lon="4.01469">
        <ele>332</ele>
        <time>2024-12-08T07:42:05.620Z</time>
      </trkpt>
      <trkpt lat="46.01367" lon="4.01471">
        <ele>332</ele>
        <time>2024-12-08T07:42:06.620Z</time>
      </trkpt>
      <trkpt lat="46.01368" lon="4.01473">
        <ele>332</ele>
        <time>2024-12-08T07:42:07.619Z</time>
      </trkpt>
      <trkpt lat="46.01368" lon="4.01476">
        <ele>332</ele>
        <time>2024-12-08T07:42:08.620Z</time>
      </trkpt>
      <trkpt lat="46.01368" lon="4.01479">
        <ele>332</ele>
        <time>2024-12-08T07:42:09.620Z</time>
      </trkpt>
      <trkpt lat="46.01369" lon="4.01481">
        <ele>332</ele>
        <time>2024-12-08T07:42:10.619Z</time>
      </trkpt>
      <trkpt lat="46.01369" lon="4.01483">
        <ele>332</ele>
        <time>2024-12-08T07:42:11.619Z</time>
      </trkpt>
      <trkpt lat="46.0137" lon="4.01486">
        <ele>332</ele>
        <time>2024-12-08T07:42:12.620Z</time>
      </trkpt>
      <trkpt lat="46.0137" lon="4.01488">
        <ele>331</ele>
        <time>2024-12-08T07:42:13.619Z</time>
      </trkpt>
      <trkpt lat="46.01371" lon="4.01491">
        <ele>331</ele>
        <time>2024-12-08T07:42:14.620Z</time>
      </trkpt>
      <trkpt lat="46.01371" lon="4.01493">
        <ele>331</ele>
        <time>2024-12-08T07:42:15.619Z</time>
      </trkpt>
      <trkpt lat="46.01372" lon="4.01495">
        <ele>331</ele>
        <time>2024-12-08T07:42:16.620Z</time>
      </trkpt>
      <trkpt lat="46.01372" lon="4.01498">
        <ele>331</ele>
        <time>2024-12-08T07:42:17.619Z</time>
      </trkpt>
      <trkpt lat="46.01373" lon="4.015">
        <ele>331</ele>
        <time>2024-12-08T07:42:18.619Z</time>
      </trkpt>
      <trkpt lat="46.01373" lon="4.01502">
        <ele>331</ele>
        <time>2024-12-08T07:42:19.620Z</time>
      </trkpt>
      <trkpt lat="46.01374" lon="4.01505">
        <ele>332</ele>
        <time>2024-12-08T07:42:20.620Z</time>
      </trkpt>
      <trkpt lat="46.01374" lon="4.01507">
        <ele>332</ele>
        <time>2024-12-08T07:42:21.619Z</time>
      </trkpt>
      <trkpt lat="46.01375" lon="4.0151">
        <ele>331</ele>
        <time>2024-12-08T07:42:22.620Z</time>
      </trkpt>
      <trkpt lat="46.01376" lon="4.01512">
        <ele>331</ele>
        <time>2024-12-08T07:42:23.619Z</time>
      </trkpt>
      <trkpt lat="46.01376" lon="4.01514">
        <ele>331</ele>
        <time>2024-12-08T07:42:24.619Z</time>
      </trkpt>
      <trkpt lat="46.01377" lon="4.01517">
        <ele>331</ele>
        <time>2024-12-08T07:42:25.620Z</time>
      </trkpt>
      <trkpt lat="46.01378" lon="4.01519">
        <ele>332</ele>
        <time>2024-12-08T07:42:26.619Z</time>
      </trkpt>
      <trkpt lat="46.01379" lon="4.01521">
        <ele>332</ele>
        <time>2024-12-08T07:42:27.620Z</time>
      </trkpt>
      <trkpt lat="46.01379" lon="4.01524">
        <ele>332</ele>
        <time>2024-12-08T07:42:28.620Z</time>
      </trkpt>
      <trkpt lat="46.0138" lon="4.01526">
        <ele>331</ele>
        <time>2024-12-08T07:42:29.619Z</time>
      </trkpt>
      <trkpt lat="46.01381" lon="4.01529">
        <ele>331</ele>
        <time>2024-12-08T07:42:30.619Z</time>
      </trkpt>
      <trkpt lat="46.01381" lon="4.01531">
        <ele>331</ele>
        <time>2024-12-08T07:42:31.620Z</time>
      </trkpt>
      <trkpt lat="46.01382" lon="4.01534">
        <ele>331</ele>
        <time>2024-12-08T07:42:32.620Z</time>
      </trkpt>
      <trkpt lat="46.01382" lon="4.01536">
        <ele>331</ele>
        <time>2024-12-08T07:42:33.620Z</time>
      </trkpt>
      <trkpt lat="46.01383" lon="4.01538">
        <ele>331</ele>
        <time>2024-12-08T07:42:34.620Z</time>
      </trkpt>
      <trkpt lat="46.01384" lon="4.0154">
        <ele>331</ele>
        <time>2024-12-08T07:42:35.619Z</time>
      </trkpt>
      <trkpt lat="46.01385" lon="4.01543">
        <ele>331</ele>
        <time>2024-12-08T07:42:36.619Z</time>
      </trkpt>
      <trkpt lat="46.01385" lon="4.01545">
        <ele>331</ele>
        <time>2024-12-08T07:42:37.620Z</time>
      </trkpt>
      <trkpt lat="46.01386" lon="4.01547">
        <ele>331</ele>
        <time>2024-12-08T07:42:38.619Z</time>
      </trkpt>
      <trkpt lat="46.01387" lon="4.01549">
        <ele>331</ele>
        <time>2024-12-08T07:42:39.620Z</time>
      </trkpt>
      <trkpt lat="46.01388" lon="4.01552">
        <ele>331</ele>
        <time>2024-12-08T07:42:40.619Z</time>
      </trkpt>
      <trkpt lat="46.01388" lon="4.01554">
        <ele>331</ele>
        <time>2024-12-08T07:42:41.620Z</time>
      </trkpt>
      <trkpt lat="46.01389" lon="4.01557">
        <ele>331</ele>
        <time>2024-12-08T07:42:42.619Z</time>
      </trkpt>
      <trkpt lat="46.01389" lon="4.01559">
        <ele>332</ele>
        <time>2024-12-08T07:42:43.620Z</time>
      </trkpt>
      <trkpt lat="46.0139" lon="4.01561">
        <ele>331</ele>
        <time>2024-12-08T07:42:44.619Z</time>
      </trkpt>
      <trkpt lat="46.01391" lon="4.01564">
        <ele>331</ele>
        <time>2024-12-08T07:42:45.619Z</time>
      </trkpt>
      <trkpt lat="46.01392" lon="4.01567">
        <ele>331</ele>
        <time>2024-12-08T07:42:46.620Z</time>
      </trkpt>
      <trkpt lat="46.01393" lon="4.01569">
        <ele>331</ele>
        <time>2024-12-08T07:42:47.619Z</time>
      </trkpt>
      <trkpt lat="46.01394" lon="4.01571">
        <ele>331</ele>
        <time>2024-12-08T07:42:48.619Z</time>
      </trkpt>
      <trkpt lat="46.01395" lon="4.01573">
        <ele>331</ele>
        <time>2024-12-08T07:42:49.620Z</time>
      </trkpt>
      <trkpt lat="46.01396" lon="4.01576">
        <ele>331</ele>
        <time>2024-12-08T07:42:50.620Z</time>
      </trkpt>
      <trkpt lat="46.01397" lon="4.01578">
        <ele>331</ele>
        <time>2024-12-08T07:42:51.620Z</time>
      </trkpt>
      <trkpt lat="46.01397" lon="4.0158">
        <ele>331</ele>
        <time>2024-12-08T07:42:52.619Z</time>
      </trkpt>
      <trkpt lat="46.01398" lon="4.01582">
        <ele>331</ele>
        <time>2024-12-08T07:42:53.619Z</time>
      </trkpt>
      <trkpt lat="46.01399" lon="4.01585">
        <ele>331</ele>
        <time>2024-12-08T07:42:54.619Z</time>
      </trkpt>
      <trkpt lat="46.014" lon="4.01587">
        <ele>331</ele>
        <time>2024-12-08T07:42:55.619Z</time>
      </trkpt>
      <trkpt lat="46.01401" lon="4.01589">
        <ele>331</ele>
        <time>2024-12-08T07:42:56.620Z</time>
      </trkpt>
      <trkpt lat="46.01402" lon="4.01591">
        <ele>330</ele>
        <time>2024-12-08T07:42:57.619Z</time>
      </trkpt>
      <trkpt lat="46.01403" lon="4.01594">
        <ele>330</ele>
        <time>2024-12-08T07:42:58.619Z</time>
      </trkpt>
      <trkpt lat="46.01404" lon="4.01596">
        <ele>330</ele>
        <time>2024-12-08T07:42:59.619Z</time>
      </trkpt>
      <trkpt lat="46.01404" lon="4.01598">
        <ele>330</ele>
        <time>2024-12-08T07:43:00.619Z</time>
      </trkpt>
      <trkpt lat="46.01405" lon="4.01601">
        <ele>330</ele>
        <time>2024-12-08T07:43:01.619Z</time>
      </trkpt>
      <trkpt lat="46.01406" lon="4.01603">
        <ele>330</ele>
        <time>2024-12-08T07:43:02.619Z</time>
      </trkpt>
      <trkpt lat="46.01407" lon="4.01605">
        <ele>329</ele>
        <time>2024-12-08T07:43:03.619Z</time>
      </trkpt>
      <trkpt lat="46.01408" lon="4.01608">
        <ele>329</ele>
        <time>2024-12-08T07:43:04.620Z</time>
      </trkpt>
      <trkpt lat="46.01409" lon="4.0161">
        <ele>329</ele>
        <time>2024-12-08T07:43:05.619Z</time>
      </trkpt>
      <trkpt lat="46.0141" lon="4.01611">
        <ele>329</ele>
        <time>2024-12-08T07:43:06.619Z</time>
      </trkpt>
      <trkpt lat="46.01411" lon="4.01613">
        <ele>330</ele>
        <time>2024-12-08T07:43:07.620Z</time>
      </trkpt>
      <trkpt lat="46.01413" lon="4.01615">
        <ele>329</ele>
        <time>2024-12-08T07:43:08.619Z</time>
      </trkpt>
      <trkpt lat="46.01414" lon="4.01617">
        <ele>329</ele>
        <time>2024-12-08T07:43:09.620Z</time>
      </trkpt>
      <trkpt lat="46.01415" lon="4.01619">
        <ele>329</ele>
        <time>2024-12-08T07:43:10.619Z</time>
      </trkpt>
      <trkpt lat="46.01416" lon="4.01621">
        <ele>329</ele>
        <time>2024-12-08T07:43:11.619Z</time>
      </trkpt>
      <trkpt lat="46.01417" lon="4.01623">
        <ele>329</ele>
        <time>2024-12-08T07:43:12.620Z</time>
      </trkpt>
      <trkpt lat="46.01418" lon="4.01625">
        <ele>329</ele>
        <time>2024-12-08T07:43:13.619Z</time>
      </trkpt>
      <trkpt lat="46.01419" lon="4.01627">
        <ele>329</ele>
        <time>2024-12-08T07:43:14.620Z</time>
      </trkpt>
      <trkpt lat="46.0142" lon="4.01629">
        <ele>330</ele>
        <time>2024-12-08T07:43:15.619Z</time>
      </trkpt>
      <trkpt lat="46.01421" lon="4.01631">
        <ele>330</ele>
        <time>2024-12-08T07:43:16.619Z</time>
      </trkpt>
      <trkpt lat="46.01422" lon="4.01633">
        <ele>330</ele>
        <time>2024-12-08T07:43:17.619Z</time>
      </trkpt>
      <trkpt lat="46.01423" lon="4.01635">
        <ele>330</ele>
        <time>2024-12-08T07:43:18.619Z</time>
      </trkpt>
      <trkpt lat="46.01424" lon="4.01637">
        <ele>329</ele>
        <time>2024-12-08T07:43:19.619Z</time>
      </trkpt>
      <trkpt lat="46.01425" lon="4.01639">
        <ele>329</ele>
        <time>2024-12-08T07:43:20.620Z</time>
      </trkpt>
      <trkpt lat="46.01426" lon="4.01641">
        <ele>329</ele>
        <time>2024-12-08T07:43:21.620Z</time>
      </trkpt>
      <trkpt lat="46.01428" lon="4.01644">
        <ele>329</ele>
        <time>2024-12-08T07:43:22.619Z</time>
      </trkpt>
      <trkpt lat="46.01429" lon="4.01645">
        <ele>329</ele>
        <time>2024-12-08T07:43:23.619Z</time>
      </trkpt>
      <trkpt lat="46.0143" lon="4.01647">
        <ele>329</ele>
        <time>2024-12-08T07:43:24.619Z</time>
      </trkpt>
      <trkpt lat="46.01431" lon="4.0165">
        <ele>329</ele>
        <time>2024-12-08T07:43:25.620Z</time>
      </trkpt>
      <trkpt lat="46.01432" lon="4.01651">
        <ele>329</ele>
        <time>2024-12-08T07:43:26.620Z</time>
      </trkpt>
      <trkpt lat="46.01433" lon="4.01653">
        <ele>329</ele>
        <time>2024-12-08T07:43:27.619Z</time>
      </trkpt>
      <trkpt lat="46.01434" lon="4.01655">
        <ele>329</ele>
        <time>2024-12-08T07:43:28.619Z</time>
      </trkpt>
      <trkpt lat="46.01435" lon="4.01657">
        <ele>329</ele>
        <time>2024-12-08T07:43:29.620Z</time>
      </trkpt>
      <trkpt lat="46.01435" lon="4.01658">
        <ele>329</ele>
        <time>2024-12-08T07:43:30.620Z</time>
      </trkpt>
      <trkpt lat="46.01435" lon="4.01658">
        <ele>329</ele>
        <time>2024-12-08T07:43:31.619Z</time>
      </trkpt>
      <trkpt lat="46.01436" lon="4.01658">
        <ele>329</ele>
        <time>2024-12-08T07:43:32.620Z</time>
      </trkpt>
      <trkpt lat="46.01436" lon="4.01659">
        <ele>329</ele>
        <time>2024-12-08T07:43:33.619Z</time>
      </trkpt>
      <trkpt lat="46.01436" lon="4.0166">
        <ele>329</ele>
        <time>2024-12-08T07:43:34.620Z</time>
      </trkpt>
      <trkpt lat="46.01437" lon="4.01661">
        <ele>329</ele>
        <time>2024-12-08T07:43:35.619Z</time>
      </trkpt>
      <trkpt lat="46.01437" lon="4.01663">
        <ele>329</ele>
        <time>2024-12-08T07:43:36.619Z</time>
      </trkpt>
      <trkpt lat="46.01438" lon="4.01665">
        <ele>328</ele>
        <time>2024-12-08T07:43:37.619Z</time>
      </trkpt>
      <trkpt lat="46.01439" lon="4.01667">
        <ele>328</ele>
        <time>2024-12-08T07:43:38.619Z</time>
      </trkpt>
      <trkpt lat="46.0144" lon="4.01669">
        <ele>328</ele>
        <time>2024-12-08T07:43:39.620Z</time>
      </trkpt>
      <trkpt lat="46.01441" lon="4.01672">
        <ele>328</ele>
        <time>2024-12-08T07:43:40.620Z</time>
      </trkpt>
      <trkpt lat="46.01442" lon="4.01674">
        <ele>328</ele>
        <time>2024-12-08T07:43:41.620Z</time>
      </trkpt>
      <trkpt lat="46.01443" lon="4.01676">
        <ele>329</ele>
        <time>2024-12-08T07:43:42.619Z</time>
      </trkpt>
      <trkpt lat="46.01444" lon="4.01678">
        <ele>329</ele>
        <time>2024-12-08T07:43:43.620Z</time>
      </trkpt>
      <trkpt lat="46.01445" lon="4.0168">
        <ele>329</ele>
        <time>2024-12-08T07:43:44.620Z</time>
      </trkpt>
      <trkpt lat="46.01446" lon="4.01682">
        <ele>329</ele>
        <time>2024-12-08T07:43:45.619Z</time>
      </trkpt>
      <trkpt lat="46.01447" lon="4.01685">
        <ele>329</ele>
        <time>2024-12-08T07:43:46.620Z</time>
      </trkpt>
      <trkpt lat="46.01448" lon="4.01687">
        <ele>329</ele>
        <time>2024-12-08T07:43:47.620Z</time>
      </trkpt>
      <trkpt lat="46.01449" lon="4.0169">
        <ele>329</ele>
        <time>2024-12-08T07:43:48.620Z</time>
      </trkpt>
      <trkpt lat="46.0145" lon="4.01693">
        <ele>329</ele>
        <time>2024-12-08T07:43:49.620Z</time>
      </trkpt>
      <trkpt lat="46.01451" lon="4.01695">
        <ele>329</ele>
        <time>2024-12-08T07:43:50.619Z</time>
      </trkpt>
      <trkpt lat="46.01452" lon="4.01697">
        <ele>329</ele>
        <time>2024-12-08T07:43:51.620Z</time>
      </trkpt>
      <trkpt lat="46.01453" lon="4.01699">
        <ele>329</ele>
        <time>2024-12-08T07:43:52.620Z</time>
      </trkpt>
      <trkpt lat="46.01453" lon="4.01701">
        <ele>329</ele>
        <time>2024-12-08T07:43:53.619Z</time>
      </trkpt>
      <trkpt lat="46.01454" lon="4.01704">
        <ele>329</ele>
        <time>2024-12-08T07:43:54.620Z</time>
      </trkpt>
      <trkpt lat="46.01455" lon="4.01706">
        <ele>329</ele>
        <time>2024-12-08T07:43:55.620Z</time>
      </trkpt>
      <trkpt lat="46.01456" lon="4.01709">
        <ele>329</ele>
        <time>2024-12-08T07:43:56.619Z</time>
      </trkpt>
      <trkpt lat="46.01457" lon="4.01711">
        <ele>329</ele>
        <time>2024-12-08T07:43:57.619Z</time>
      </trkpt>
      <trkpt lat="46.01458" lon="4.01714">
        <ele>329</ele>
        <time>2024-12-08T07:43:58.619Z</time>
      </trkpt>
      <trkpt lat="46.01459" lon="4.01716">
        <ele>329</ele>
        <time>2024-12-08T07:43:59.619Z</time>
      </trkpt>
      <trkpt lat="46.01459" lon="4.01718">
        <ele>329</ele>
        <time>2024-12-08T07:44:00.620Z</time>
      </trkpt>
      <trkpt lat="46.0146" lon="4.0172">
        <ele>329</ele>
        <time>2024-12-08T07:44:01.619Z</time>
      </trkpt>
      <trkpt lat="46.01461" lon="4.01723">
        <ele>329</ele>
        <time>2024-12-08T07:44:02.619Z</time>
      </trkpt>
      <trkpt lat="46.01462" lon="4.01725">
        <ele>329</ele>
        <time>2024-12-08T07:44:03.620Z</time>
      </trkpt>
      <trkpt lat="46.01463" lon="4.01728">
        <ele>329</ele>
        <time>2024-12-08T07:44:04.620Z</time>
      </trkpt>
      <trkpt lat="46.01463" lon="4.01729">
        <ele>329</ele>
        <time>2024-12-08T07:44:05.619Z</time>
      </trkpt>
      <trkpt lat="46.01464" lon="4.01732">
        <ele>329</ele>
        <time>2024-12-08T07:44:06.619Z</time>
      </trkpt>
      <trkpt lat="46.01465" lon="4.01734">
        <ele>329</ele>
        <time>2024-12-08T07:44:07.619Z</time>
      </trkpt>
      <trkpt lat="46.01466" lon="4.01737">
        <ele>328</ele>
        <time>2024-12-08T07:44:08.620Z</time>
      </trkpt>
      <trkpt lat="46.01467" lon="4.01739">
        <ele>328</ele>
        <time>2024-12-08T07:44:09.620Z</time>
      </trkpt>
      <trkpt lat="46.01468" lon="4.01742">
        <ele>328</ele>
        <time>2024-12-08T07:44:10.620Z</time>
      </trkpt>
      <trkpt lat="46.01469" lon="4.01744">
        <ele>328</ele>
        <time>2024-12-08T07:44:11.619Z</time>
      </trkpt>
      <trkpt lat="46.0147" lon="4.01746">
        <ele>328</ele>
        <time>2024-12-08T07:44:12.619Z</time>
      </trkpt>
      <trkpt lat="46.01471" lon="4.01748">
        <ele>328</ele>
        <time>2024-12-08T07:44:13.619Z</time>
      </trkpt>
      <trkpt lat="46.01472" lon="4.0175">
        <ele>328</ele>
        <time>2024-12-08T07:44:14.619Z</time>
      </trkpt>
      <trkpt lat="46.01473" lon="4.01753">
        <ele>328</ele>
        <time>2024-12-08T07:44:15.619Z</time>
      </trkpt>
      <trkpt lat="46.01474" lon="4.01756">
        <ele>328</ele>
        <time>2024-12-08T07:44:16.620Z</time>
      </trkpt>
      <trkpt lat="46.01474" lon="4.01758">
        <ele>328</ele>
        <time>2024-12-08T07:44:17.619Z</time>
      </trkpt>
      <trkpt lat="46.01475" lon="4.0176">
        <ele>328</ele>
        <time>2024-12-08T07:44:18.619Z</time>
      </trkpt>
      <trkpt lat="46.01476" lon="4.01762">
        <ele>328</ele>
        <time>2024-12-08T07:44:19.620Z</time>
      </trkpt>
      <trkpt lat="46.01477" lon="4.01765">
        <ele>328</ele>
        <time>2024-12-08T07:44:20.619Z</time>
      </trkpt>
      <trkpt lat="46.01477" lon="4.01767">
        <ele>328</ele>
        <time>2024-12-08T07:44:21.619Z</time>
      </trkpt>
      <trkpt lat="46.01478" lon="4.0177">
        <ele>328</ele>
        <time>2024-12-08T07:44:22.620Z</time>
      </trkpt>
      <trkpt lat="46.01479" lon="4.01772">
        <ele>329</ele>
        <time>2024-12-08T07:44:23.620Z</time>
      </trkpt>
      <trkpt lat="46.0148" lon="4.01774">
        <ele>328</ele>
        <time>2024-12-08T07:44:24.620Z</time>
      </trkpt>
      <trkpt lat="46.01481" lon="4.01777">
        <ele>328</ele>
        <time>2024-12-08T07:44:25.619Z</time>
      </trkpt>
      <trkpt lat="46.01482" lon="4.01778">
        <ele>328</ele>
        <time>2024-12-08T07:44:26.620Z</time>
      </trkpt>
      <trkpt lat="46.01483" lon="4.01781">
        <ele>328</ele>
        <time>2024-12-08T07:44:27.620Z</time>
      </trkpt>
      <trkpt lat="46.01483" lon="4.01783">
        <ele>328</ele>
        <time>2024-12-08T07:44:28.620Z</time>
      </trkpt>
      <trkpt lat="46.01484" lon="4.01786">
        <ele>328</ele>
        <time>2024-12-08T07:44:29.620Z</time>
      </trkpt>
      <trkpt lat="46.01485" lon="4.01788">
        <ele>329</ele>
        <time>2024-12-08T07:44:30.620Z</time>
      </trkpt>
      <trkpt lat="46.01486" lon="4.0179">
        <ele>329</ele>
        <time>2024-12-08T07:44:31.619Z</time>
      </trkpt>
      <trkpt lat="46.01487" lon="4.01792">
        <ele>329</ele>
        <time>2024-12-08T07:44:32.619Z</time>
      </trkpt>
      <trkpt lat="46.01488" lon="4.01795">
        <ele>329</ele>
        <time>2024-12-08T07:44:33.619Z</time>
      </trkpt>
      <trkpt lat="46.01489" lon="4.01797">
        <ele>329</ele>
        <time>2024-12-08T07:44:34.619Z</time>
      </trkpt>
      <trkpt lat="46.0149" lon="4.018">
        <ele>329</ele>
        <time>2024-12-08T07:44:35.620Z</time>
      </trkpt>
      <trkpt lat="46.0149" lon="4.01801">
        <ele>329</ele>
        <time>2024-12-08T07:44:36.619Z</time>
      </trkpt>
      <trkpt lat="46.01491" lon="4.01804">
        <ele>329</ele>
        <time>2024-12-08T07:44:37.619Z</time>
      </trkpt>
      <trkpt lat="46.01492" lon="4.01806">
        <ele>329</ele>
        <time>2024-12-08T07:44:38.619Z</time>
      </trkpt>
      <trkpt lat="46.01492" lon="4.01808">
        <ele>329</ele>
        <time>2024-12-08T07:44:39.620Z</time>
      </trkpt>
      <trkpt lat="46.01493" lon="4.0181">
        <ele>329</ele>
        <time>2024-12-08T07:44:40.619Z</time>
      </trkpt>
      <trkpt lat="46.01494" lon="4.01813">
        <ele>328</ele>
        <time>2024-12-08T07:44:41.619Z</time>
      </trkpt>
      <trkpt lat="46.01495" lon="4.01815">
        <ele>328</ele>
        <time>2024-12-08T07:44:42.620Z</time>
      </trkpt>
      <trkpt lat="46.01496" lon="4.01817">
        <ele>328</ele>
        <time>2024-12-08T07:44:43.620Z</time>
      </trkpt>
      <trkpt lat="46.01496" lon="4.01819">
        <ele>328</ele>
        <time>2024-12-08T07:44:44.619Z</time>
      </trkpt>
      <trkpt lat="46.01497" lon="4.01822">
        <ele>328</ele>
        <time>2024-12-08T07:44:45.619Z</time>
      </trkpt>
      <trkpt lat="46.01498" lon="4.01824">
        <ele>329</ele>
        <time>2024-12-08T07:44:46.619Z</time>
      </trkpt>
      <trkpt lat="46.01499" lon="4.01827">
        <ele>329</ele>
        <time>2024-12-08T07:44:47.620Z</time>
      </trkpt>
      <trkpt lat="46.015" lon="4.01829">
        <ele>329</ele>
        <time>2024-12-08T07:44:48.620Z</time>
      </trkpt>
      <trkpt lat="46.01501" lon="4.01831">
        <ele>329</ele>
        <time>2024-12-08T07:44:49.619Z</time>
      </trkpt>
      <trkpt lat="46.01502" lon="4.01834">
        <ele>329</ele>
        <time>2024-12-08T07:44:50.619Z</time>
      </trkpt>
      <trkpt lat="46.01502" lon="4.01837">
        <ele>329</ele>
        <time>2024-12-08T07:44:51.620Z</time>
      </trkpt>
      <trkpt lat="46.01503" lon="4.01839">
        <ele>329</ele>
        <time>2024-12-08T07:44:52.619Z</time>
      </trkpt>
      <trkpt lat="46.01504" lon="4.01841">
        <ele>329</ele>
        <time>2024-12-08T07:44:53.619Z</time>
      </trkpt>
      <trkpt lat="46.01505" lon="4.01843">
        <ele>328</ele>
        <time>2024-12-08T07:44:54.619Z</time>
      </trkpt>
      <trkpt lat="46.01505" lon="4.01846">
        <ele>328</ele>
        <time>2024-12-08T07:44:55.619Z</time>
      </trkpt>
      <trkpt lat="46.01506" lon="4.01848">
        <ele>328</ele>
        <time>2024-12-08T07:44:56.620Z</time>
      </trkpt>
      <trkpt lat="46.01506" lon="4.01851">
        <ele>328</ele>
        <time>2024-12-08T07:44:57.619Z</time>
      </trkpt>
      <trkpt lat="46.01507" lon="4.01853">
        <ele>328</ele>
        <time>2024-12-08T07:44:58.620Z</time>
      </trkpt>
      <trkpt lat="46.01507" lon="4.01855">
        <ele>328</ele>
        <time>2024-12-08T07:44:59.620Z</time>
      </trkpt>
      <trkpt lat="46.01508" lon="4.01858">
        <ele>328</ele>
        <time>2024-12-08T07:45:00.619Z</time>
      </trkpt>
      <trkpt lat="46.01508" lon="4.01861">
        <ele>328</ele>
        <time>2024-12-08T07:45:01.620Z</time>
      </trkpt>
      <trkpt lat="46.01509" lon="4.01863">
        <ele>328</ele>
        <time>2024-12-08T07:45:02.619Z</time>
      </trkpt>
      <trkpt lat="46.0151" lon="4.01865">
        <ele>329</ele>
        <time>2024-12-08T07:45:03.619Z</time>
      </trkpt>
      <trkpt lat="46.01511" lon="4.01868">
        <ele>329</ele>
        <time>2024-12-08T07:45:04.620Z</time>
      </trkpt>
      <trkpt lat="46.01511" lon="4.0187">
        <ele>329</ele>
        <time>2024-12-08T07:45:05.619Z</time>
      </trkpt>
      <trkpt lat="46.01512" lon="4.01872">
        <ele>328</ele>
        <time>2024-12-08T07:45:06.619Z</time>
      </trkpt>
      <trkpt lat="46.01513" lon="4.01874">
        <ele>328</ele>
        <time>2024-12-08T07:45:07.620Z</time>
      </trkpt>
      <trkpt lat="46.01513" lon="4.01876">
        <ele>328</ele>
        <time>2024-12-08T07:45:08.619Z</time>
      </trkpt>
      <trkpt lat="46.01513" lon="4.01878">
        <ele>328</ele>
        <time>2024-12-08T07:45:09.619Z</time>
      </trkpt>
      <trkpt lat="46.01514" lon="4.0188">
        <ele>328</ele>
        <time>2024-12-08T07:45:10.620Z</time>
      </trkpt>
      <trkpt lat="46.01514" lon="4.01882">
        <ele>328</ele>
        <time>2024-12-08T07:45:11.620Z</time>
      </trkpt>
      <trkpt lat="46.01515" lon="4.01885">
        <ele>328</ele>
        <time>2024-12-08T07:45:12.619Z</time>
      </trkpt>
      <trkpt lat="46.01516" lon="4.01888">
        <ele>328</ele>
        <time>2024-12-08T07:45:13.620Z</time>
      </trkpt>
      <trkpt lat="46.01516" lon="4.0189">
        <ele>328</ele>
        <time>2024-12-08T07:45:14.619Z</time>
      </trkpt>
      <trkpt lat="46.01517" lon="4.01892">
        <ele>329</ele>
        <time>2024-12-08T07:45:15.620Z</time>
      </trkpt>
      <trkpt lat="46.01517" lon="4.01894">
        <ele>329</ele>
        <time>2024-12-08T07:45:16.619Z</time>
      </trkpt>
      <trkpt lat="46.01518" lon="4.01896">
        <ele>329</ele>
        <time>2024-12-08T07:45:17.619Z</time>
      </trkpt>
      <trkpt lat="46.01518" lon="4.01899">
        <ele>328</ele>
        <time>2024-12-08T07:45:18.619Z</time>
      </trkpt>
      <trkpt lat="46.01518" lon="4.019">
        <ele>328</ele>
        <time>2024-12-08T07:45:19.619Z</time>
      </trkpt>
      <trkpt lat="46.01519" lon="4.01903">
        <ele>328</ele>
        <time>2024-12-08T07:45:20.619Z</time>
      </trkpt>
      <trkpt lat="46.01519" lon="4.01905">
        <ele>327</ele>
        <time>2024-12-08T07:45:21.620Z</time>
      </trkpt>
      <trkpt lat="46.0152" lon="4.01907">
        <ele>327</ele>
        <time>2024-12-08T07:45:22.619Z</time>
      </trkpt>
      <trkpt lat="46.0152" lon="4.0191">
        <ele>327</ele>
        <time>2024-12-08T07:45:23.620Z</time>
      </trkpt>
      <trkpt lat="46.01521" lon="4.01912">
        <ele>327</ele>
        <time>2024-12-08T07:45:24.620Z</time>
      </trkpt>
      <trkpt lat="46.01521" lon="4.01915">
        <ele>327</ele>
        <time>2024-12-08T07:45:25.619Z</time>
      </trkpt>
      <trkpt lat="46.01522" lon="4.01917">
        <ele>327</ele>
        <time>2024-12-08T07:45:26.619Z</time>
      </trkpt>
      <trkpt lat="46.01522" lon="4.01919">
        <ele>328</ele>
        <time>2024-12-08T07:45:27.619Z</time>
      </trkpt>
      <trkpt lat="46.01523" lon="4.01921">
        <ele>328</ele>
        <time>2024-12-08T07:45:28.620Z</time>
      </trkpt>
      <trkpt lat="46.01523" lon="4.01923">
        <ele>328</ele>
        <time>2024-12-08T07:45:29.619Z</time>
      </trkpt>
      <trkpt lat="46.01524" lon="4.01925">
        <ele>328</ele>
        <time>2024-12-08T07:45:30.620Z</time>
      </trkpt>
      <trkpt lat="46.01524" lon="4.01927">
        <ele>328</ele>
        <time>2024-12-08T07:45:31.620Z</time>
      </trkpt>
      <trkpt lat="46.01525" lon="4.0193">
        <ele>328</ele>
        <time>2024-12-08T07:45:32.619Z</time>
      </trkpt>
      <trkpt lat="46.01525" lon="4.01932">
        <ele>328</ele>
        <time>2024-12-08T07:45:33.619Z</time>
      </trkpt>
      <trkpt lat="46.01526" lon="4.01934">
        <ele>328</ele>
        <time>2024-12-08T07:45:34.619Z</time>
      </trkpt>
      <trkpt lat="46.01526" lon="4.01936">
        <ele>328</ele>
        <time>2024-12-08T07:45:35.619Z</time>
      </trkpt>
      <trkpt lat="46.01527" lon="4.01938">
        <ele>329</ele>
        <time>2024-12-08T07:45:36.619Z</time>
      </trkpt>
      <trkpt lat="46.01527" lon="4.01941">
        <ele>329</ele>
        <time>2024-12-08T07:45:37.619Z</time>
      </trkpt>
      <trkpt lat="46.01527" lon="4.01942">
        <ele>329</ele>
        <time>2024-12-08T07:45:38.620Z</time>
      </trkpt>
      <trkpt lat="46.01528" lon="4.01944">
        <ele>329</ele>
        <time>2024-12-08T07:45:39.620Z</time>
      </trkpt>
      <trkpt lat="46.01529" lon="4.01947">
        <ele>329</ele>
        <time>2024-12-08T07:45:40.619Z</time>
      </trkpt>
      <trkpt lat="46.01529" lon="4.01949">
        <ele>329</ele>
        <time>2024-12-08T07:45:41.620Z</time>
      </trkpt>
      <trkpt lat="46.0153" lon="4.01951">
        <ele>329</ele>
        <time>2024-12-08T07:45:42.620Z</time>
      </trkpt>
      <trkpt lat="46.0153" lon="4.01953">
        <ele>329</ele>
        <time>2024-12-08T07:45:43.619Z</time>
      </trkpt>
      <trkpt lat="46.01531" lon="4.01955">
        <ele>329</ele>
        <time>2024-12-08T07:45:44.619Z</time>
      </trkpt>
      <trkpt lat="46.01532" lon="4.01957">
        <ele>328</ele>
        <time>2024-12-08T07:45:45.619Z</time>
      </trkpt>
      <trkpt lat="46.01532" lon="4.01959">
        <ele>328</ele>
        <time>2024-12-08T07:45:46.619Z</time>
      </trkpt>
      <trkpt lat="46.01533" lon="4.01961">
        <ele>329</ele>
        <time>2024-12-08T07:45:47.619Z</time>
      </trkpt>
      <trkpt lat="46.01533" lon="4.01963">
        <ele>329</ele>
        <time>2024-12-08T07:45:48.620Z</time>
      </trkpt>
      <trkpt lat="46.01534" lon="4.01966">
        <ele>329</ele>
        <time>2024-12-08T07:45:49.619Z</time>
      </trkpt>
      <trkpt lat="46.01535" lon="4.01968">
        <ele>329</ele>
        <time>2024-12-08T07:45:50.619Z</time>
      </trkpt>
      <trkpt lat="46.01535" lon="4.0197">
        <ele>329</ele>
        <time>2024-12-08T07:45:51.619Z</time>
      </trkpt>
      <trkpt lat="46.01536" lon="4.01972">
        <ele>329</ele>
        <time>2024-12-08T07:45:52.620Z</time>
      </trkpt>
      <trkpt lat="46.01536" lon="4.01973">
        <ele>329</ele>
        <time>2024-12-08T07:45:53.620Z</time>
      </trkpt>
      <trkpt lat="46.01537" lon="4.01975">
        <ele>329</ele>
        <time>2024-12-08T07:45:54.619Z</time>
      </trkpt>
      <trkpt lat="46.01538" lon="4.01977">
        <ele>329</ele>
        <time>2024-12-08T07:45:55.619Z</time>
      </trkpt>
      <trkpt lat="46.01538" lon="4.01979">
        <ele>329</ele>
        <time>2024-12-08T07:45:56.619Z</time>
      </trkpt>
      <trkpt lat="46.01539" lon="4.01981">
        <ele>328</ele>
        <time>2024-12-08T07:45:57.619Z</time>
      </trkpt>
      <trkpt lat="46.0154" lon="4.01983">
        <ele>328</ele>
        <time>2024-12-08T07:45:58.619Z</time>
      </trkpt>
      <trkpt lat="46.0154" lon="4.01985">
        <ele>328</ele>
        <time>2024-12-08T07:45:59.620Z</time>
      </trkpt>
      <trkpt lat="46.01541" lon="4.01987">
        <ele>329</ele>
        <time>2024-12-08T07:46:00.620Z</time>
      </trkpt>
      <trkpt lat="46.01542" lon="4.01989">
        <ele>329</ele>
        <time>2024-12-08T07:46:01.619Z</time>
      </trkpt>
      <trkpt lat="46.01543" lon="4.01991">
        <ele>329</ele>
        <time>2024-12-08T07:46:02.620Z</time>
      </trkpt>
      <trkpt lat="46.01544" lon="4.01993">
        <ele>329</ele>
        <time>2024-12-08T07:46:03.619Z</time>
      </trkpt>
      <trkpt lat="46.01544" lon="4.01995">
        <ele>329</ele>
        <time>2024-12-08T07:46:04.620Z</time>
      </trkpt>
      <trkpt lat="46.01545" lon="4.01996">
        <ele>329</ele>
        <time>2024-12-08T07:46:05.620Z</time>
      </trkpt>
      <trkpt lat="46.01546" lon="4.01998">
        <ele>329</ele>
        <time>2024-12-08T07:46:06.620Z</time>
      </trkpt>
      <trkpt lat="46.01547" lon="4.02">
        <ele>329</ele>
        <time>2024-12-08T07:46:07.619Z</time>
      </trkpt>
      <trkpt lat="46.01548" lon="4.02002">
        <ele>329</ele>
        <time>2024-12-08T07:46:08.620Z</time>
      </trkpt>
      <trkpt lat="46.01549" lon="4.02004">
        <ele>328</ele>
        <time>2024-12-08T07:46:09.619Z</time>
      </trkpt>
      <trkpt lat="46.01549" lon="4.02005">
        <ele>328</ele>
        <time>2024-12-08T07:46:10.620Z</time>
      </trkpt>
      <trkpt lat="46.0155" lon="4.02008">
        <ele>328</ele>
        <time>2024-12-08T07:46:11.620Z</time>
      </trkpt>
      <trkpt lat="46.01551" lon="4.02009">
        <ele>328</ele>
        <time>2024-12-08T07:46:12.620Z</time>
      </trkpt>
      <trkpt lat="46.01552" lon="4.02011">
        <ele>328</ele>
        <time>2024-12-08T07:46:13.620Z</time>
      </trkpt>
      <trkpt lat="46.01553" lon="4.02012">
        <ele>328</ele>
        <time>2024-12-08T07:46:14.619Z</time>
      </trkpt>
      <trkpt lat="46.01554" lon="4.02014">
        <ele>328</ele>
        <time>2024-12-08T07:46:15.619Z</time>
      </trkpt>
      <trkpt lat="46.01555" lon="4.02016">
        <ele>328</ele>
        <time>2024-12-08T07:46:16.620Z</time>
      </trkpt>
      <trkpt lat="46.01556" lon="4.02018">
        <ele>328</ele>
        <time>2024-12-08T07:46:17.619Z</time>
      </trkpt>
      <trkpt lat="46.01557" lon="4.02019">
        <ele>328</ele>
        <time>2024-12-08T07:46:18.619Z</time>
      </trkpt>
      <trkpt lat="46.01558" lon="4.0202">
        <ele>328</ele>
        <time>2024-12-08T07:46:19.619Z</time>
      </trkpt>
      <trkpt lat="46.0156" lon="4.02023">
        <ele>328</ele>
        <time>2024-12-08T07:46:20.619Z</time>
      </trkpt>
      <trkpt lat="46.01561" lon="4.02025">
        <ele>328</ele>
        <time>2024-12-08T07:46:21.619Z</time>
      </trkpt>
      <trkpt lat="46.01562" lon="4.02027">
        <ele>328</ele>
        <time>2024-12-08T07:46:22.620Z</time>
      </trkpt>
      <trkpt lat="46.01564" lon="4.02029">
        <ele>328</ele>
        <time>2024-12-08T07:46:23.619Z</time>
      </trkpt>
      <trkpt lat="46.01565" lon="4.02031">
        <ele>328</ele>
        <time>2024-12-08T07:46:24.619Z</time>
      </trkpt>
      <trkpt lat="46.01566" lon="4.02033">
        <ele>328</ele>
        <time>2024-12-08T07:46:25.620Z</time>
      </trkpt>
      <trkpt lat="46.01567" lon="4.02035">
        <ele>328</ele>
        <time>2024-12-08T07:46:26.619Z</time>
      </trkpt>
      <trkpt lat="46.01568" lon="4.02037">
        <ele>328</ele>
        <time>2024-12-08T07:46:27.619Z</time>
      </trkpt>
      <trkpt lat="46.01569" lon="4.02039">
        <ele>328</ele>
        <time>2024-12-08T07:46:28.619Z</time>
      </trkpt>
      <trkpt lat="46.0157" lon="4.02041">
        <ele>328</ele>
        <time>2024-12-08T07:46:29.620Z</time>
      </trkpt>
      <trkpt lat="46.01572" lon="4.02043">
        <ele>327</ele>
        <time>2024-12-08T07:46:30.620Z</time>
      </trkpt>
      <trkpt lat="46.01573" lon="4.02045">
        <ele>327</ele>
        <time>2024-12-08T07:46:31.619Z</time>
      </trkpt>
      <trkpt lat="46.01574" lon="4.02047">
        <ele>327</ele>
        <time>2024-12-08T07:46:32.619Z</time>
      </trkpt>
      <trkpt lat="46.01575" lon="4.02049">
        <ele>327</ele>
        <time>2024-12-08T07:46:33.620Z</time>
      </trkpt>
      <trkpt lat="46.01576" lon="4.02051">
        <ele>327</ele>
        <time>2024-12-08T07:46:34.620Z</time>
      </trkpt>
      <trkpt lat="46.01577" lon="4.02053">
        <ele>326</ele>
        <time>2024-12-08T07:46:35.619Z</time>
      </trkpt>
      <trkpt lat="46.01578" lon="4.02054">
        <ele>327</ele>
        <time>2024-12-08T07:46:36.620Z</time>
      </trkpt>
      <trkpt lat="46.01579" lon="4.02056">
        <ele>327</ele>
        <time>2024-12-08T07:46:37.620Z</time>
      </trkpt>
      <trkpt lat="46.01581" lon="4.02059">
        <ele>327</ele>
        <time>2024-12-08T07:46:38.620Z</time>
      </trkpt>
      <trkpt lat="46.01582" lon="4.0206">
        <ele>327</ele>
        <time>2024-12-08T07:46:39.619Z</time>
      </trkpt>
      <trkpt lat="46.01583" lon="4.02062">
        <ele>327</ele>
        <time>2024-12-08T07:46:40.619Z</time>
      </trkpt>
      <trkpt lat="46.01584" lon="4.02064">
        <ele>327</ele>
        <time>2024-12-08T07:46:41.619Z</time>
      </trkpt>
      <trkpt lat="46.01585" lon="4.02066">
        <ele>327</ele>
        <time>2024-12-08T07:46:42.619Z</time>
      </trkpt>
      <trkpt lat="46.01587" lon="4.02067">
        <ele>327</ele>
        <time>2024-12-08T07:46:43.620Z</time>
      </trkpt>
      <trkpt lat="46.01588" lon="4.0207">
        <ele>327</ele>
        <time>2024-12-08T07:46:44.619Z</time>
      </trkpt>
      <trkpt lat="46.01589" lon="4.02071">
        <ele>327</ele>
        <time>2024-12-08T07:46:45.619Z</time>
      </trkpt>
      <trkpt lat="46.0159" lon="4.02073">
        <ele>327</ele>
        <time>2024-12-08T07:46:46.619Z</time>
      </trkpt>
      <trkpt lat="46.01591" lon="4.02075">
        <ele>327</ele>
        <time>2024-12-08T07:46:47.620Z</time>
      </trkpt>
      <trkpt lat="46.01593" lon="4.02077">
        <ele>327</ele>
        <time>2024-12-08T07:46:48.620Z</time>
      </trkpt>
      <trkpt lat="46.01594" lon="4.02079">
        <ele>326</ele>
        <time>2024-12-08T07:46:49.619Z</time>
      </trkpt>
      <trkpt lat="46.01595" lon="4.02081">
        <ele>327</ele>
        <time>2024-12-08T07:46:50.619Z</time>
      </trkpt>
      <trkpt lat="46.01596" lon="4.02083">
        <ele>327</ele>
        <time>2024-12-08T07:46:51.619Z</time>
      </trkpt>
      <trkpt lat="46.01597" lon="4.02084">
        <ele>327</ele>
        <time>2024-12-08T07:46:52.620Z</time>
      </trkpt>
      <trkpt lat="46.01598" lon="4.02086">
        <ele>327</ele>
        <time>2024-12-08T07:46:53.619Z</time>
      </trkpt>
      <trkpt lat="46.01599" lon="4.02087">
        <ele>327</ele>
        <time>2024-12-08T07:46:54.619Z</time>
      </trkpt>
      <trkpt lat="46.016" lon="4.02089">
        <ele>327</ele>
        <time>2024-12-08T07:46:55.620Z</time>
      </trkpt>
      <trkpt lat="46.01602" lon="4.02091">
        <ele>327</ele>
        <time>2024-12-08T07:46:56.620Z</time>
      </trkpt>
      <trkpt lat="46.01603" lon="4.02093">
        <ele>327</ele>
        <time>2024-12-08T07:46:57.619Z</time>
      </trkpt>
      <trkpt lat="46.01604" lon="4.02094">
        <ele>327</ele>
        <time>2024-12-08T07:46:58.619Z</time>
      </trkpt>
      <trkpt lat="46.01605" lon="4.02096">
        <ele>327</ele>
        <time>2024-12-08T07:46:59.620Z</time>
      </trkpt>
      <trkpt lat="46.01607" lon="4.02098">
        <ele>327</ele>
        <time>2024-12-08T07:47:00.619Z</time>
      </trkpt>
      <trkpt lat="46.01608" lon="4.021">
        <ele>327</ele>
        <time>2024-12-08T07:47:01.619Z</time>
      </trkpt>
      <trkpt lat="46.0161" lon="4.02102">
        <ele>327</ele>
        <time>2024-12-08T07:47:02.619Z</time>
      </trkpt>
      <trkpt lat="46.0161" lon="4.02103">
        <ele>327</ele>
        <time>2024-12-08T07:47:03.620Z</time>
      </trkpt>
      <trkpt lat="46.01612" lon="4.02105">
        <ele>327</ele>
        <time>2024-12-08T07:47:04.619Z</time>
      </trkpt>
      <trkpt lat="46.01613" lon="4.02107">
        <ele>328</ele>
        <time>2024-12-08T07:47:05.620Z</time>
      </trkpt>
      <trkpt lat="46.01614" lon="4.02109">
        <ele>328</ele>
        <time>2024-12-08T07:47:06.619Z</time>
      </trkpt>
      <trkpt lat="46.01616" lon="4.0211">
        <ele>328</ele>
        <time>2024-12-08T07:47:07.619Z</time>
      </trkpt>
      <trkpt lat="46.01617" lon="4.02112">
        <ele>328</ele>
        <time>2024-12-08T07:47:08.619Z</time>
      </trkpt>
      <trkpt lat="46.01618" lon="4.02114">
        <ele>328</ele>
        <time>2024-12-08T07:47:09.620Z</time>
      </trkpt>
      <trkpt lat="46.01619" lon="4.02115">
        <ele>328</ele>
        <time>2024-12-08T07:47:10.620Z</time>
      </trkpt>
      <trkpt lat="46.01621" lon="4.02117">
        <ele>328</ele>
        <time>2024-12-08T07:47:11.619Z</time>
      </trkpt>
      <trkpt lat="46.01621" lon="4.02118">
        <ele>328</ele>
        <time>2024-12-08T07:47:12.619Z</time>
      </trkpt>
      <trkpt lat="46.01623" lon="4.02121">
        <ele>328</ele>
        <time>2024-12-08T07:47:13.620Z</time>
      </trkpt>
      <trkpt lat="46.01624" lon="4.02123">
        <ele>328</ele>
        <time>2024-12-08T07:47:14.619Z</time>
      </trkpt>
      <trkpt lat="46.01625" lon="4.02124">
        <ele>328</ele>
        <time>2024-12-08T07:47:15.619Z</time>
      </trkpt>
      <trkpt lat="46.01626" lon="4.02126">
        <ele>328</ele>
        <time>2024-12-08T07:47:16.619Z</time>
      </trkpt>
      <trkpt lat="46.01628" lon="4.02128">
        <ele>328</ele>
        <time>2024-12-08T07:47:17.619Z</time>
      </trkpt>
      <trkpt lat="46.01629" lon="4.0213">
        <ele>328</ele>
        <time>2024-12-08T07:47:18.619Z</time>
      </trkpt>
      <trkpt lat="46.0163" lon="4.02132">
        <ele>328</ele>
        <time>2024-12-08T07:47:19.619Z</time>
      </trkpt>
      <trkpt lat="46.01631" lon="4.02133">
        <ele>328</ele>
        <time>2024-12-08T07:47:20.619Z</time>
      </trkpt>
      <trkpt lat="46.01633" lon="4.02135">
        <ele>328</ele>
        <time>2024-12-08T07:47:21.619Z</time>
      </trkpt>
      <trkpt lat="46.01634" lon="4.02136">
        <ele>328</ele>
        <time>2024-12-08T07:47:22.620Z</time>
      </trkpt>
      <trkpt lat="46.01635" lon="4.02138">
        <ele>328</ele>
        <time>2024-12-08T07:47:23.619Z</time>
      </trkpt>
      <trkpt lat="46.01637" lon="4.0214">
        <ele>328</ele>
        <time>2024-12-08T07:47:24.620Z</time>
      </trkpt>
      <trkpt lat="46.01638" lon="4.02142">
        <ele>329</ele>
        <time>2024-12-08T07:47:25.619Z</time>
      </trkpt>
      <trkpt lat="46.01639" lon="4.02143">
        <ele>329</ele>
        <time>2024-12-08T07:47:26.619Z</time>
      </trkpt>
      <trkpt lat="46.01641" lon="4.02146">
        <ele>329</ele>
        <time>2024-12-08T07:47:27.619Z</time>
      </trkpt>
      <trkpt lat="46.01642" lon="4.02147">
        <ele>329</ele>
        <time>2024-12-08T07:47:28.620Z</time>
      </trkpt>
      <trkpt lat="46.01643" lon="4.02149">
        <ele>329</ele>
        <time>2024-12-08T07:47:29.619Z</time>
      </trkpt>
      <trkpt lat="46.01644" lon="4.02151">
        <ele>328</ele>
        <time>2024-12-08T07:47:30.619Z</time>
      </trkpt>
      <trkpt lat="46.01646" lon="4.02153">
        <ele>328</ele>
        <time>2024-12-08T07:47:31.619Z</time>
      </trkpt>
      <trkpt lat="46.01647" lon="4.02155">
        <ele>328</ele>
        <time>2024-12-08T07:47:32.620Z</time>
      </trkpt>
      <trkpt lat="46.01648" lon="4.02157">
        <ele>328</ele>
        <time>2024-12-08T07:47:33.619Z</time>
      </trkpt>
      <trkpt lat="46.01649" lon="4.02159">
        <ele>328</ele>
        <time>2024-12-08T07:47:34.619Z</time>
      </trkpt>
      <trkpt lat="46.0165" lon="4.0216">
        <ele>328</ele>
        <time>2024-12-08T07:47:35.619Z</time>
      </trkpt>
      <trkpt lat="46.01651" lon="4.02163">
        <ele>328</ele>
        <time>2024-12-08T07:47:36.620Z</time>
      </trkpt>
      <trkpt lat="46.01653" lon="4.02164">
        <ele>328</ele>
        <time>2024-12-08T07:47:37.619Z</time>
      </trkpt>
      <trkpt lat="46.01655" lon="4.02166">
        <ele>329</ele>
        <time>2024-12-08T07:47:38.620Z</time>
      </trkpt>
      <trkpt lat="46.01656" lon="4.02167">
        <ele>329</ele>
        <time>2024-12-08T07:47:39.619Z</time>
      </trkpt>
      <trkpt lat="46.01657" lon="4.02169">
        <ele>329</ele>
        <time>2024-12-08T07:47:40.619Z</time>
      </trkpt>
      <trkpt lat="46.01659" lon="4.02171">
        <ele>329</ele>
        <time>2024-12-08T07:47:41.620Z</time>
      </trkpt>
      <trkpt lat="46.0166" lon="4.02172">
        <ele>329</ele>
        <time>2024-12-08T07:47:42.619Z</time>
      </trkpt>
      <trkpt lat="46.01661" lon="4.02174">
        <ele>329</ele>
        <time>2024-12-08T07:47:43.620Z</time>
      </trkpt>
      <trkpt lat="46.01662" lon="4.02175">
        <ele>329</ele>
        <time>2024-12-08T07:47:44.619Z</time>
      </trkpt>
      <trkpt lat="46.01664" lon="4.02177">
        <ele>329</ele>
        <time>2024-12-08T07:47:45.620Z</time>
      </trkpt>
      <trkpt lat="46.01665" lon="4.02179">
        <ele>329</ele>
        <time>2024-12-08T07:47:46.620Z</time>
      </trkpt>
      <trkpt lat="46.01666" lon="4.02181">
        <ele>329</ele>
        <time>2024-12-08T07:47:47.619Z</time>
      </trkpt>
      <trkpt lat="46.01668" lon="4.02183">
        <ele>328</ele>
        <time>2024-12-08T07:47:48.619Z</time>
      </trkpt>
      <trkpt lat="46.01669" lon="4.02185">
        <ele>328</ele>
        <time>2024-12-08T07:47:49.619Z</time>
      </trkpt>
      <trkpt lat="46.0167" lon="4.02187">
        <ele>328</ele>
        <time>2024-12-08T07:47:50.620Z</time>
      </trkpt>
      <trkpt lat="46.01672" lon="4.02188">
        <ele>328</ele>
        <time>2024-12-08T07:47:51.620Z</time>
      </trkpt>
      <trkpt lat="46.01673" lon="4.0219">
        <ele>328</ele>
        <time>2024-12-08T07:47:52.620Z</time>
      </trkpt>
      <trkpt lat="46.01674" lon="4.02192">
        <ele>328</ele>
        <time>2024-12-08T07:47:53.620Z</time>
      </trkpt>
      <trkpt lat="46.01675" lon="4.02194">
        <ele>328</ele>
        <time>2024-12-08T07:47:54.620Z</time>
      </trkpt>
      <trkpt lat="46.01677" lon="4.02195">
        <ele>328</ele>
        <time>2024-12-08T07:47:55.619Z</time>
      </trkpt>
      <trkpt lat="46.01678" lon="4.02196">
        <ele>328</ele>
        <time>2024-12-08T07:47:56.620Z</time>
      </trkpt>
      <trkpt lat="46.01679" lon="4.02198">
        <ele>327</ele>
        <time>2024-12-08T07:47:57.620Z</time>
      </trkpt>
      <trkpt lat="46.0168" lon="4.022">
        <ele>327</ele>
        <time>2024-12-08T07:47:58.619Z</time>
      </trkpt>
      <trkpt lat="46.01682" lon="4.02201">
        <ele>327</ele>
        <time>2024-12-08T07:47:59.620Z</time>
      </trkpt>
      <trkpt lat="46.01683" lon="4.02203">
        <ele>327</ele>
        <time>2024-12-08T07:48:00.619Z</time>
      </trkpt>
      <trkpt lat="46.01684" lon="4.02205">
        <ele>327</ele>
        <time>2024-12-08T07:48:01.619Z</time>
      </trkpt>
      <trkpt lat="46.01686" lon="4.02206">
        <ele>327</ele>
        <time>2024-12-08T07:48:02.619Z</time>
      </trkpt>
      <trkpt lat="46.01687" lon="4.02208">
        <ele>327</ele>
        <time>2024-12-08T07:48:03.619Z</time>
      </trkpt>
      <trkpt lat="46.01689" lon="4.0221">
        <ele>327</ele>
        <time>2024-12-08T07:48:04.620Z</time>
      </trkpt>
      <trkpt lat="46.0169" lon="4.02211">
        <ele>327</ele>
        <time>2024-12-08T07:48:05.620Z</time>
      </trkpt>
      <trkpt lat="46.01691" lon="4.02213">
        <ele>327</ele>
        <time>2024-12-08T07:48:06.619Z</time>
      </trkpt>
      <trkpt lat="46.01693" lon="4.02214">
        <ele>328</ele>
        <time>2024-12-08T07:48:07.620Z</time>
      </trkpt>
      <trkpt lat="46.01694" lon="4.02216">
        <ele>328</ele>
        <time>2024-12-08T07:48:08.619Z</time>
      </trkpt>
      <trkpt lat="46.01695" lon="4.02217">
        <ele>328</ele>
        <time>2024-12-08T07:48:09.620Z</time>
      </trkpt>
      <trkpt lat="46.01697" lon="4.02219">
        <ele>328</ele>
        <time>2024-12-08T07:48:10.619Z</time>
      </trkpt>
      <trkpt lat="46.01698" lon="4.0222">
        <ele>328</ele>
        <time>2024-12-08T07:48:11.619Z</time>
      </trkpt>
      <trkpt lat="46.01699" lon="4.02222">
        <ele>328</ele>
        <time>2024-12-08T07:48:12.620Z</time>
      </trkpt>
      <trkpt lat="46.01701" lon="4.02223">
        <ele>328</ele>
        <time>2024-12-08T07:48:13.620Z</time>
      </trkpt>
      <trkpt lat="46.01703" lon="4.02225">
        <ele>328</ele>
        <time>2024-12-08T07:48:14.619Z</time>
      </trkpt>
      <trkpt lat="46.01704" lon="4.02227">
        <ele>328</ele>
        <time>2024-12-08T07:48:15.619Z</time>
      </trkpt>
      <trkpt lat="46.01705" lon="4.02229">
        <ele>328</ele>
        <time>2024-12-08T07:48:16.620Z</time>
      </trkpt>
      <trkpt lat="46.01707" lon="4.0223">
        <ele>328</ele>
        <time>2024-12-08T07:48:17.620Z</time>
      </trkpt>
      <trkpt lat="46.01708" lon="4.02231">
        <ele>328</ele>
        <time>2024-12-08T07:48:18.619Z</time>
      </trkpt>
      <trkpt lat="46.01709" lon="4.02233">
        <ele>328</ele>
        <time>2024-12-08T07:48:19.619Z</time>
      </trkpt>
      <trkpt lat="46.0171" lon="4.02234">
        <ele>328</ele>
        <time>2024-12-08T07:48:20.619Z</time>
      </trkpt>
      <trkpt lat="46.01712" lon="4.02235">
        <ele>329</ele>
        <time>2024-12-08T07:48:21.620Z</time>
      </trkpt>
      <trkpt lat="46.01714" lon="4.02237">
        <ele>329</ele>
        <time>2024-12-08T07:48:22.620Z</time>
      </trkpt>
      <trkpt lat="46.01715" lon="4.02239">
        <ele>329</ele>
        <time>2024-12-08T07:48:23.620Z</time>
      </trkpt>
      <trkpt lat="46.01716" lon="4.02241">
        <ele>329</ele>
        <time>2024-12-08T07:48:24.619Z</time>
      </trkpt>
      <trkpt lat="46.01718" lon="4.02243">
        <ele>329</ele>
        <time>2024-12-08T07:48:25.620Z</time>
      </trkpt>
      <trkpt lat="46.01719" lon="4.02245">
        <ele>329</ele>
        <time>2024-12-08T07:48:26.619Z</time>
      </trkpt>
      <trkpt lat="46.01721" lon="4.02246">
        <ele>328</ele>
        <time>2024-12-08T07:48:27.619Z</time>
      </trkpt>
      <trkpt lat="46.01722" lon="4.02248">
        <ele>328</ele>
        <time>2024-12-08T07:48:28.619Z</time>
      </trkpt>
      <trkpt lat="46.01723" lon="4.02249">
        <ele>328</ele>
        <time>2024-12-08T07:48:29.620Z</time>
      </trkpt>
      <trkpt lat="46.01724" lon="4.0225">
        <ele>328</ele>
        <time>2024-12-08T07:48:30.620Z</time>
      </trkpt>
      <trkpt lat="46.01726" lon="4.02252">
        <ele>328</ele>
        <time>2024-12-08T07:48:31.619Z</time>
      </trkpt>
      <trkpt lat="46.01728" lon="4.02254">
        <ele>328</ele>
        <time>2024-12-08T07:48:32.620Z</time>
      </trkpt>
      <trkpt lat="46.01729" lon="4.02255">
        <ele>328</ele>
        <time>2024-12-08T07:48:33.620Z</time>
      </trkpt>
      <trkpt lat="46.0173" lon="4.02257">
        <ele>328</ele>
        <time>2024-12-08T07:48:34.619Z</time>
      </trkpt>
      <trkpt lat="46.01732" lon="4.02258">
        <ele>328</ele>
        <time>2024-12-08T07:48:35.619Z</time>
      </trkpt>
      <trkpt lat="46.01733" lon="4.0226">
        <ele>328</ele>
        <time>2024-12-08T07:48:36.619Z</time>
      </trkpt>
      <trkpt lat="46.01735" lon="4.02262">
        <ele>329</ele>
        <time>2024-12-08T07:48:37.619Z</time>
      </trkpt>
      <trkpt lat="46.01736" lon="4.02263">
        <ele>329</ele>
        <time>2024-12-08T07:48:38.619Z</time>
      </trkpt>
      <trkpt lat="46.01738" lon="4.02265">
        <ele>329</ele>
        <time>2024-12-08T07:48:39.620Z</time>
      </trkpt>
      <trkpt lat="46.01739" lon="4.02266">
        <ele>329</ele>
        <time>2024-12-08T07:48:40.619Z</time>
      </trkpt>
      <trkpt lat="46.0174" lon="4.02268">
        <ele>330</ele>
        <time>2024-12-08T07:48:41.620Z</time>
      </trkpt>
      <trkpt lat="46.01742" lon="4.02269">
        <ele>329</ele>
        <time>2024-12-08T07:48:42.619Z</time>
      </trkpt>
      <trkpt lat="46.01743" lon="4.0227">
        <ele>329</ele>
        <time>2024-12-08T07:48:43.619Z</time>
      </trkpt>
      <trkpt lat="46.01744" lon="4.02271">
        <ele>329</ele>
        <time>2024-12-08T07:48:44.619Z</time>
      </trkpt>
      <trkpt lat="46.01746" lon="4.02273">
        <ele>329</ele>
        <time>2024-12-08T07:48:45.620Z</time>
      </trkpt>
      <trkpt lat="46.01748" lon="4.02274">
        <ele>329</ele>
        <time>2024-12-08T07:48:46.619Z</time>
      </trkpt>
      <trkpt lat="46.01749" lon="4.02275">
        <ele>330</ele>
        <time>2024-12-08T07:48:47.620Z</time>
      </trkpt>
      <trkpt lat="46.01751" lon="4.02277">
        <ele>330</ele>
        <time>2024-12-08T07:48:48.620Z</time>
      </trkpt>
      <trkpt lat="46.01753" lon="4.02279">
        <ele>330</ele>
        <time>2024-12-08T07:48:49.619Z</time>
      </trkpt>
      <trkpt lat="46.01754" lon="4.02281">
        <ele>330</ele>
        <time>2024-12-08T07:48:50.620Z</time>
      </trkpt>
      <trkpt lat="46.01756" lon="4.02282">
        <ele>329</ele>
        <time>2024-12-08T07:48:51.619Z</time>
      </trkpt>
      <trkpt lat="46.01757" lon="4.02283">
        <ele>329</ele>
        <time>2024-12-08T07:48:52.619Z</time>
      </trkpt>
      <trkpt lat="46.01758" lon="4.02284">
        <ele>329</ele>
        <time>2024-12-08T07:48:53.619Z</time>
      </trkpt>
      <trkpt lat="46.0176" lon="4.02286">
        <ele>329</ele>
        <time>2024-12-08T07:48:54.619Z</time>
      </trkpt>
      <trkpt lat="46.01761" lon="4.02288">
        <ele>329</ele>
        <time>2024-12-08T07:48:55.619Z</time>
      </trkpt>
      <trkpt lat="46.01763" lon="4.02289">
        <ele>329</ele>
        <time>2024-12-08T07:48:56.619Z</time>
      </trkpt>
      <trkpt lat="46.01765" lon="4.02291">
        <ele>329</ele>
        <time>2024-12-08T07:48:57.619Z</time>
      </trkpt>
      <trkpt lat="46.01766" lon="4.02293">
        <ele>329</ele>
        <time>2024-12-08T07:48:58.620Z</time>
      </trkpt>
      <trkpt lat="46.01767" lon="4.02295">
        <ele>329</ele>
        <time>2024-12-08T07:48:59.619Z</time>
      </trkpt>
      <trkpt lat="46.01769" lon="4.02297">
        <ele>328</ele>
        <time>2024-12-08T07:49:00.620Z</time>
      </trkpt>
      <trkpt lat="46.0177" lon="4.02298">
        <ele>328</ele>
        <time>2024-12-08T07:49:01.619Z</time>
      </trkpt>
      <trkpt lat="46.01771" lon="4.023">
        <ele>328</ele>
        <time>2024-12-08T07:49:02.619Z</time>
      </trkpt>
      <trkpt lat="46.01773" lon="4.02302">
        <ele>328</ele>
        <time>2024-12-08T07:49:03.620Z</time>
      </trkpt>
      <trkpt lat="46.01774" lon="4.02303">
        <ele>328</ele>
        <time>2024-12-08T07:49:04.619Z</time>
      </trkpt>
      <trkpt lat="46.01776" lon="4.02305">
        <ele>328</ele>
        <time>2024-12-08T07:49:05.620Z</time>
      </trkpt>
      <trkpt lat="46.01777" lon="4.02307">
        <ele>328</ele>
        <time>2024-12-08T07:49:06.619Z</time>
      </trkpt>
      <trkpt lat="46.01778" lon="4.02308">
        <ele>328</ele>
        <time>2024-12-08T07:49:07.620Z</time>
      </trkpt>
      <trkpt lat="46.0178" lon="4.0231">
        <ele>328</ele>
        <time>2024-12-08T07:49:08.619Z</time>
      </trkpt>
      <trkpt lat="46.01781" lon="4.02312">
        <ele>328</ele>
        <time>2024-12-08T07:49:09.620Z</time>
      </trkpt>
      <trkpt lat="46.01782" lon="4.02313">
        <ele>328</ele>
        <time>2024-12-08T07:49:10.619Z</time>
      </trkpt>
      <trkpt lat="46.01784" lon="4.02315">
        <ele>328</ele>
        <time>2024-12-08T07:49:11.619Z</time>
      </trkpt>
      <trkpt lat="46.01785" lon="4.02316">
        <ele>328</ele>
        <time>2024-12-08T07:49:12.619Z</time>
      </trkpt>
      <trkpt lat="46.01787" lon="4.02317">
        <ele>328</ele>
        <time>2024-12-08T07:49:13.620Z</time>
      </trkpt>
      <trkpt lat="46.01788" lon="4.02319">
        <ele>328</ele>
        <time>2024-12-08T07:49:14.619Z</time>
      </trkpt>
      <trkpt lat="46.0179" lon="4.02321">
        <ele>328</ele>
        <time>2024-12-08T07:49:15.620Z</time>
      </trkpt>
      <trkpt lat="46.01791" lon="4.02322">
        <ele>328</ele>
        <time>2024-12-08T07:49:16.619Z</time>
      </trkpt>
      <trkpt lat="46.01792" lon="4.02324">
        <ele>329</ele>
        <time>2024-12-08T07:49:17.620Z</time>
      </trkpt>
      <trkpt lat="46.01794" lon="4.02326">
        <ele>329</ele>
        <time>2024-12-08T07:49:18.619Z</time>
      </trkpt>
      <trkpt lat="46.01795" lon="4.02327">
        <ele>329</ele>
        <time>2024-12-08T07:49:19.619Z</time>
      </trkpt>
      <trkpt lat="46.01797" lon="4.02329">
        <ele>329</ele>
        <time>2024-12-08T07:49:20.620Z</time>
      </trkpt>
      <trkpt lat="46.01798" lon="4.0233">
        <ele>330</ele>
        <time>2024-12-08T07:49:21.620Z</time>
      </trkpt>
      <trkpt lat="46.01799" lon="4.02331">
        <ele>330</ele>
        <time>2024-12-08T07:49:22.619Z</time>
      </trkpt>
      <trkpt lat="46.018" lon="4.02332">
        <ele>329</ele>
        <time>2024-12-08T07:49:23.620Z</time>
      </trkpt>
      <trkpt lat="46.01802" lon="4.02334">
        <ele>329</ele>
        <time>2024-12-08T07:49:24.619Z</time>
      </trkpt>
      <trkpt lat="46.01803" lon="4.02336">
        <ele>329</ele>
        <time>2024-12-08T07:49:25.620Z</time>
      </trkpt>
      <trkpt lat="46.01805" lon="4.02338">
        <ele>329</ele>
        <time>2024-12-08T07:49:26.619Z</time>
      </trkpt>
      <trkpt lat="46.01806" lon="4.02339">
        <ele>329</ele>
        <time>2024-12-08T07:49:27.619Z</time>
      </trkpt>
      <trkpt lat="46.01807" lon="4.0234">
        <ele>329</ele>
        <time>2024-12-08T07:49:28.619Z</time>
      </trkpt>
      <trkpt lat="46.01809" lon="4.02342">
        <ele>329</ele>
        <time>2024-12-08T07:49:29.619Z</time>
      </trkpt>
      <trkpt lat="46.0181" lon="4.02344">
        <ele>329</ele>
        <time>2024-12-08T07:49:30.619Z</time>
      </trkpt>
      <trkpt lat="46.01812" lon="4.02345">
        <ele>329</ele>
        <time>2024-12-08T07:49:31.620Z</time>
      </trkpt>
      <trkpt lat="46.01813" lon="4.02346">
        <ele>329</ele>
        <time>2024-12-08T07:49:32.620Z</time>
      </trkpt>
      <trkpt lat="46.01815" lon="4.02348">
        <ele>329</ele>
        <time>2024-12-08T07:49:33.620Z</time>
      </trkpt>
      <trkpt lat="46.01816" lon="4.0235">
        <ele>329</ele>
        <time>2024-12-08T07:49:34.620Z</time>
      </trkpt>
      <trkpt lat="46.01818" lon="4.02352">
        <ele>329</ele>
        <time>2024-12-08T07:49:35.620Z</time>
      </trkpt>
      <trkpt lat="46.01819" lon="4.02354">
        <ele>329</ele>
        <time>2024-12-08T07:49:36.620Z</time>
      </trkpt>
      <trkpt lat="46.0182" lon="4.02355">
        <ele>329</ele>
        <time>2024-12-08T07:49:37.619Z</time>
      </trkpt>
      <trkpt lat="46.01822" lon="4.02358">
        <ele>329</ele>
        <time>2024-12-08T07:49:38.619Z</time>
      </trkpt>
      <trkpt lat="46.01824" lon="4.02359">
        <ele>329</ele>
        <time>2024-12-08T07:49:39.619Z</time>
      </trkpt>
      <trkpt lat="46.01825" lon="4.02361">
        <ele>329</ele>
        <time>2024-12-08T07:49:40.619Z</time>
      </trkpt>
      <trkpt lat="46.01826" lon="4.02363">
        <ele>329</ele>
        <time>2024-12-08T07:49:41.619Z</time>
      </trkpt>
      <trkpt lat="46.01827" lon="4.02364">
        <ele>328</ele>
        <time>2024-12-08T07:49:42.620Z</time>
      </trkpt>
      <trkpt lat="46.01829" lon="4.02367">
        <ele>328</ele>
        <time>2024-12-08T07:49:43.619Z</time>
      </trkpt>
      <trkpt lat="46.0183" lon="4.02369">
        <ele>328</ele>
        <time>2024-12-08T07:49:44.619Z</time>
      </trkpt>
      <trkpt lat="46.01832" lon="4.0237">
        <ele>328</ele>
        <time>2024-12-08T07:49:45.620Z</time>
      </trkpt>
      <trkpt lat="46.01833" lon="4.02372">
        <ele>328</ele>
        <time>2024-12-08T07:49:46.619Z</time>
      </trkpt>
      <trkpt lat="46.01835" lon="4.02374">
        <ele>328</ele>
        <time>2024-12-08T07:49:47.620Z</time>
      </trkpt>
      <trkpt lat="46.01837" lon="4.02375">
        <ele>328</ele>
        <time>2024-12-08T07:49:48.620Z</time>
      </trkpt>
      <trkpt lat="46.01838" lon="4.02377">
        <ele>328</ele>
        <time>2024-12-08T07:49:49.620Z</time>
      </trkpt>
      <trkpt lat="46.01839" lon="4.02379">
        <ele>328</ele>
        <time>2024-12-08T07:49:50.619Z</time>
      </trkpt>
      <trkpt lat="46.01841" lon="4.02381">
        <ele>328</ele>
        <time>2024-12-08T07:49:51.619Z</time>
      </trkpt>
      <trkpt lat="46.01843" lon="4.02383">
        <ele>328</ele>
        <time>2024-12-08T07:49:52.620Z</time>
      </trkpt>
      <trkpt lat="46.01844" lon="4.02385">
        <ele>328</ele>
        <time>2024-12-08T07:49:53.620Z</time>
      </trkpt>
      <trkpt lat="46.01845" lon="4.02387">
        <ele>328</ele>
        <time>2024-12-08T07:49:54.620Z</time>
      </trkpt>
      <trkpt lat="46.01846" lon="4.02388">
        <ele>328</ele>
        <time>2024-12-08T07:49:55.619Z</time>
      </trkpt>
      <trkpt lat="46.01848" lon="4.02391">
        <ele>328</ele>
        <time>2024-12-08T07:49:56.619Z</time>
      </trkpt>
      <trkpt lat="46.01849" lon="4.02393">
        <ele>328</ele>
        <time>2024-12-08T07:49:57.620Z</time>
      </trkpt>
      <trkpt lat="46.01851" lon="4.02395">
        <ele>328</ele>
        <time>2024-12-08T07:49:58.620Z</time>
      </trkpt>
      <trkpt lat="46.01852" lon="4.02397">
        <ele>329</ele>
        <time>2024-12-08T07:49:59.620Z</time>
      </trkpt>
      <trkpt lat="46.01853" lon="4.02398">
        <ele>329</ele>
        <time>2024-12-08T07:50:00.619Z</time>
      </trkpt>
      <trkpt lat="46.01854" lon="4.024">
        <ele>329</ele>
        <time>2024-12-08T07:50:01.619Z</time>
      </trkpt>
      <trkpt lat="46.01856" lon="4.02402">
        <ele>329</ele>
        <time>2024-12-08T07:50:02.619Z</time>
      </trkpt>
      <trkpt lat="46.01857" lon="4.02404">
        <ele>329</ele>
        <time>2024-12-08T07:50:03.620Z</time>
      </trkpt>
      <trkpt lat="46.01858" lon="4.02406">
        <ele>328</ele>
        <time>2024-12-08T07:50:04.619Z</time>
      </trkpt>
      <trkpt lat="46.01859" lon="4.02408">
        <ele>328</ele>
        <time>2024-12-08T07:50:05.620Z</time>
      </trkpt>
      <trkpt lat="46.01861" lon="4.0241">
        <ele>328</ele>
        <time>2024-12-08T07:50:06.620Z</time>
      </trkpt>
      <trkpt lat="46.01862" lon="4.02412">
        <ele>328</ele>
        <time>2024-12-08T07:50:07.620Z</time>
      </trkpt>
      <trkpt lat="46.01863" lon="4.02414">
        <ele>328</ele>
        <time>2024-12-08T07:50:08.620Z</time>
      </trkpt>
      <trkpt lat="46.01865" lon="4.02416">
        <ele>328</ele>
        <time>2024-12-08T07:50:09.619Z</time>
      </trkpt>
      <trkpt lat="46.01866" lon="4.02417">
        <ele>328</ele>
        <time>2024-12-08T07:50:10.620Z</time>
      </trkpt>
      <trkpt lat="46.01868" lon="4.02419">
        <ele>328</ele>
        <time>2024-12-08T07:50:11.619Z</time>
      </trkpt>
      <trkpt lat="46.01869" lon="4.0242">
        <ele>328</ele>
        <time>2024-12-08T07:50:12.620Z</time>
      </trkpt>
      <trkpt lat="46.0187" lon="4.02422">
        <ele>328</ele>
        <time>2024-12-08T07:50:13.619Z</time>
      </trkpt>
      <trkpt lat="46.01872" lon="4.02424">
        <ele>328</ele>
        <time>2024-12-08T07:50:14.619Z</time>
      </trkpt>
      <trkpt lat="46.01873" lon="4.02426">
        <ele>328</ele>
        <time>2024-12-08T07:50:15.619Z</time>
      </trkpt>
      <trkpt lat="46.01874" lon="4.02428">
        <ele>328</ele>
        <time>2024-12-08T07:50:16.619Z</time>
      </trkpt>
      <trkpt lat="46.01876" lon="4.0243">
        <ele>328</ele>
        <time>2024-12-08T07:50:17.619Z</time>
      </trkpt>
      <trkpt lat="46.01877" lon="4.02432">
        <ele>328</ele>
        <time>2024-12-08T07:50:18.619Z</time>
      </trkpt>
      <trkpt lat="46.01878" lon="4.02434">
        <ele>328</ele>
        <time>2024-12-08T07:50:19.619Z</time>
      </trkpt>
      <trkpt lat="46.01879" lon="4.02436">
        <ele>328</ele>
        <time>2024-12-08T07:50:20.620Z</time>
      </trkpt>
      <trkpt lat="46.0188" lon="4.02437">
        <ele>328</ele>
        <time>2024-12-08T07:50:21.619Z</time>
      </trkpt>
      <trkpt lat="46.01882" lon="4.02439">
        <ele>328</ele>
        <time>2024-12-08T07:50:22.619Z</time>
      </trkpt>
      <trkpt lat="46.01883" lon="4.02441">
        <ele>327</ele>
        <time>2024-12-08T07:50:23.620Z</time>
      </trkpt>
      <trkpt lat="46.01885" lon="4.02443">
        <ele>327</ele>
        <time>2024-12-08T07:50:24.619Z</time>
      </trkpt>
      <trkpt lat="46.01886" lon="4.02445">
        <ele>327</ele>
        <time>2024-12-08T07:50:25.620Z</time>
      </trkpt>
      <trkpt lat="46.01888" lon="4.02447">
        <ele>327</ele>
        <time>2024-12-08T07:50:26.619Z</time>
      </trkpt>
      <trkpt lat="46.01889" lon="4.02448">
        <ele>327</ele>
        <time>2024-12-08T07:50:27.620Z</time>
      </trkpt>
      <trkpt lat="46.0189" lon="4.0245">
        <ele>327</ele>
        <time>2024-12-08T07:50:28.619Z</time>
      </trkpt>
      <trkpt lat="46.01891" lon="4.02452">
        <ele>327</ele>
        <time>2024-12-08T07:50:29.619Z</time>
      </trkpt>
      <trkpt lat="46.01893" lon="4.02454">
        <ele>327</ele>
        <time>2024-12-08T07:50:30.619Z</time>
      </trkpt>
      <trkpt lat="46.01894" lon="4.02455">
        <ele>327</ele>
        <time>2024-12-08T07:50:31.619Z</time>
      </trkpt>
      <trkpt lat="46.01896" lon="4.02458">
        <ele>327</ele>
        <time>2024-12-08T07:50:32.619Z</time>
      </trkpt>
      <trkpt lat="46.01897" lon="4.0246">
        <ele>327</ele>
        <time>2024-12-08T07:50:33.620Z</time>
      </trkpt>
      <trkpt lat="46.01898" lon="4.02461">
        <ele>327</ele>
        <time>2024-12-08T07:50:34.619Z</time>
      </trkpt>
      <trkpt lat="46.019" lon="4.02463">
        <ele>326</ele>
        <time>2024-12-08T07:50:35.620Z</time>
      </trkpt>
      <trkpt lat="46.01901" lon="4.02465">
        <ele>326</ele>
        <time>2024-12-08T07:50:36.619Z</time>
      </trkpt>
      <trkpt lat="46.01903" lon="4.02467">
        <ele>326</ele>
        <time>2024-12-08T07:50:37.620Z</time>
      </trkpt>
      <trkpt lat="46.01904" lon="4.02469">
        <ele>326</ele>
        <time>2024-12-08T07:50:38.619Z</time>
      </trkpt>
      <trkpt lat="46.01905" lon="4.02471">
        <ele>326</ele>
        <time>2024-12-08T07:50:39.620Z</time>
      </trkpt>
      <trkpt lat="46.01907" lon="4.02473">
        <ele>326</ele>
        <time>2024-12-08T07:50:40.620Z</time>
      </trkpt>
      <trkpt lat="46.01908" lon="4.02475">
        <ele>326</ele>
        <time>2024-12-08T07:50:41.620Z</time>
      </trkpt>
      <trkpt lat="46.0191" lon="4.02477">
        <ele>326</ele>
        <time>2024-12-08T07:50:42.620Z</time>
      </trkpt>
      <trkpt lat="46.01911" lon="4.02479">
        <ele>326</ele>
        <time>2024-12-08T07:50:43.619Z</time>
      </trkpt>
      <trkpt lat="46.01912" lon="4.0248">
        <ele>326</ele>
        <time>2024-12-08T07:50:44.619Z</time>
      </trkpt>
      <trkpt lat="46.01914" lon="4.02482">
        <ele>327</ele>
        <time>2024-12-08T07:50:45.619Z</time>
      </trkpt>
      <trkpt lat="46.01915" lon="4.02484">
        <ele>327</ele>
        <time>2024-12-08T07:50:46.620Z</time>
      </trkpt>
      <trkpt lat="46.01916" lon="4.02487">
        <ele>327</ele>
        <time>2024-12-08T07:50:47.620Z</time>
      </trkpt>
      <trkpt lat="46.01917" lon="4.02489">
        <ele>326</ele>
        <time>2024-12-08T07:50:48.619Z</time>
      </trkpt>
      <trkpt lat="46.01919" lon="4.02491">
        <ele>326</ele>
        <time>2024-12-08T07:50:49.620Z</time>
      </trkpt>
      <trkpt lat="46.0192" lon="4.02493">
        <ele>326</ele>
        <time>2024-12-08T07:50:50.619Z</time>
      </trkpt>
      <trkpt lat="46.01921" lon="4.02495">
        <ele>326</ele>
        <time>2024-12-08T07:50:51.619Z</time>
      </trkpt>
      <trkpt lat="46.01922" lon="4.02497">
        <ele>326</ele>
        <time>2024-12-08T07:50:52.619Z</time>
      </trkpt>
      <trkpt lat="46.01923" lon="4.02499">
        <ele>326</ele>
        <time>2024-12-08T07:50:53.620Z</time>
      </trkpt>
      <trkpt lat="46.01924" lon="4.02501">
        <ele>326</ele>
        <time>2024-12-08T07:50:54.619Z</time>
      </trkpt>
      <trkpt lat="46.01926" lon="4.02504">
        <ele>326</ele>
        <time>2024-12-08T07:50:55.619Z</time>
      </trkpt>
      <trkpt lat="46.01927" lon="4.02506">
        <ele>326</ele>
        <time>2024-12-08T07:50:56.620Z</time>
      </trkpt>
      <trkpt lat="46.01928" lon="4.02507">
        <ele>326</ele>
        <time>2024-12-08T07:50:57.619Z</time>
      </trkpt>
      <trkpt lat="46.0193" lon="4.02509">
        <ele>326</ele>
        <time>2024-12-08T07:50:58.619Z</time>
      </trkpt>
      <trkpt lat="46.01931" lon="4.02511">
        <ele>326</ele>
        <time>2024-12-08T07:50:59.619Z</time>
      </trkpt>
      <trkpt lat="46.01933" lon="4.02513">
        <ele>326</ele>
        <time>2024-12-08T07:51:00.620Z</time>
      </trkpt>
      <trkpt lat="46.01934" lon="4.02515">
        <ele>326</ele>
        <time>2024-12-08T07:51:01.619Z</time>
      </trkpt>
      <trkpt lat="46.01935" lon="4.02517">
        <ele>326</ele>
        <time>2024-12-08T07:51:02.620Z</time>
      </trkpt>
      <trkpt lat="46.01937" lon="4.02519">
        <ele>326</ele>
        <time>2024-12-08T07:51:03.620Z</time>
      </trkpt>
      <trkpt lat="46.01938" lon="4.02521">
        <ele>326</ele>
        <time>2024-12-08T07:51:04.619Z</time>
      </trkpt>
      <trkpt lat="46.0194" lon="4.02522">
        <ele>326</ele>
        <time>2024-12-08T07:51:05.619Z</time>
      </trkpt>
      <trkpt lat="46.01941" lon="4.02524">
        <ele>326</ele>
        <time>2024-12-08T07:51:06.619Z</time>
      </trkpt>
      <trkpt lat="46.01942" lon="4.02526">
        <ele>326</ele>
        <time>2024-12-08T07:51:07.619Z</time>
      </trkpt>
      <trkpt lat="46.01944" lon="4.02528">
        <ele>326</ele>
        <time>2024-12-08T07:51:08.619Z</time>
      </trkpt>
      <trkpt lat="46.01945" lon="4.0253">
        <ele>326</ele>
        <time>2024-12-08T07:51:09.619Z</time>
      </trkpt>
      <trkpt lat="46.01946" lon="4.02532">
        <ele>325</ele>
        <time>2024-12-08T07:51:10.620Z</time>
      </trkpt>
      <trkpt lat="46.01948" lon="4.02534">
        <ele>325</ele>
        <time>2024-12-08T07:51:11.619Z</time>
      </trkpt>
      <trkpt lat="46.01949" lon="4.02536">
        <ele>325</ele>
        <time>2024-12-08T07:51:12.620Z</time>
      </trkpt>
      <trkpt lat="46.0195" lon="4.02538">
        <ele>325</ele>
        <time>2024-12-08T07:51:13.619Z</time>
      </trkpt>
      <trkpt lat="46.01952" lon="4.0254">
        <ele>325</ele>
        <time>2024-12-08T07:51:14.620Z</time>
      </trkpt>
      <trkpt lat="46.01952" lon="4.02541">
        <ele>325</ele>
        <time>2024-12-08T07:51:15.620Z</time>
      </trkpt>
      <trkpt lat="46.01954" lon="4.02544">
        <ele>325</ele>
        <time>2024-12-08T07:51:16.619Z</time>
      </trkpt>
      <trkpt lat="46.01955" lon="4.02545">
        <ele>326</ele>
        <time>2024-12-08T07:51:17.619Z</time>
      </trkpt>
      <trkpt lat="46.01957" lon="4.02547">
        <ele>326</ele>
        <time>2024-12-08T07:51:18.619Z</time>
      </trkpt>
      <trkpt lat="46.01958" lon="4.02549">
        <ele>326</ele>
        <time>2024-12-08T07:51:19.619Z</time>
      </trkpt>
      <trkpt lat="46.0196" lon="4.02551">
        <ele>326</ele>
        <time>2024-12-08T07:51:20.619Z</time>
      </trkpt>
      <trkpt lat="46.01961" lon="4.02553">
        <ele>326</ele>
        <time>2024-12-08T07:51:21.619Z</time>
      </trkpt>
      <trkpt lat="46.01962" lon="4.02554">
        <ele>326</ele>
        <time>2024-12-08T07:51:22.620Z</time>
      </trkpt>
      <trkpt lat="46.01964" lon="4.02556">
        <ele>326</ele>
        <time>2024-12-08T07:51:23.620Z</time>
      </trkpt>
      <trkpt lat="46.01965" lon="4.02558">
        <ele>326</ele>
        <time>2024-12-08T07:51:24.619Z</time>
      </trkpt>
      <trkpt lat="46.01967" lon="4.0256">
        <ele>326</ele>
        <time>2024-12-08T07:51:25.619Z</time>
      </trkpt>
      <trkpt lat="46.01968" lon="4.02562">
        <ele>325</ele>
        <time>2024-12-08T07:51:26.619Z</time>
      </trkpt>
      <trkpt lat="46.01969" lon="4.02563">
        <ele>325</ele>
        <time>2024-12-08T07:51:27.619Z</time>
      </trkpt>
      <trkpt lat="46.0197" lon="4.02565">
        <ele>325</ele>
        <time>2024-12-08T07:51:28.620Z</time>
      </trkpt>
      <trkpt lat="46.01972" lon="4.02567">
        <ele>325</ele>
        <time>2024-12-08T07:51:29.620Z</time>
      </trkpt>
      <trkpt lat="46.01973" lon="4.02568">
        <ele>325</ele>
        <time>2024-12-08T07:51:30.620Z</time>
      </trkpt>
      <trkpt lat="46.01975" lon="4.0257">
        <ele>325</ele>
        <time>2024-12-08T07:51:31.620Z</time>
      </trkpt>
      <trkpt lat="46.01976" lon="4.02571">
        <ele>325</ele>
        <time>2024-12-08T07:51:32.620Z</time>
      </trkpt>
      <trkpt lat="46.01978" lon="4.02574">
        <ele>325</ele>
        <time>2024-12-08T07:51:33.619Z</time>
      </trkpt>
      <trkpt lat="46.01979" lon="4.02575">
        <ele>325</ele>
        <time>2024-12-08T07:51:34.620Z</time>
      </trkpt>
      <trkpt lat="46.0198" lon="4.02577">
        <ele>325</ele>
        <time>2024-12-08T07:51:35.619Z</time>
      </trkpt>
      <trkpt lat="46.01982" lon="4.02579">
        <ele>325</ele>
        <time>2024-12-08T07:51:36.619Z</time>
      </trkpt>
      <trkpt lat="46.01983" lon="4.0258">
        <ele>325</ele>
        <time>2024-12-08T07:51:37.619Z</time>
      </trkpt>
      <trkpt lat="46.01984" lon="4.02582">
        <ele>325</ele>
        <time>2024-12-08T07:51:38.619Z</time>
      </trkpt>
      <trkpt lat="46.01986" lon="4.02584">
        <ele>325</ele>
        <time>2024-12-08T07:51:39.619Z</time>
      </trkpt>
      <trkpt lat="46.01987" lon="4.02586">
        <ele>325</ele>
        <time>2024-12-08T07:51:40.620Z</time>
      </trkpt>
      <trkpt lat="46.01989" lon="4.02588">
        <ele>325</ele>
        <time>2024-12-08T07:51:41.619Z</time>
      </trkpt>
      <trkpt lat="46.0199" lon="4.02589">
        <ele>325</ele>
        <time>2024-12-08T07:51:42.620Z</time>
      </trkpt>
      <trkpt lat="46.01991" lon="4.02591">
        <ele>325</ele>
        <time>2024-12-08T07:51:43.620Z</time>
      </trkpt>
      <trkpt lat="46.01993" lon="4.02593">
        <ele>325</ele>
        <time>2024-12-08T07:51:44.619Z</time>
      </trkpt>
      <trkpt lat="46.01994" lon="4.02595">
        <ele>325</ele>
        <time>2024-12-08T07:51:45.619Z</time>
      </trkpt>
      <trkpt lat="46.01995" lon="4.02596">
        <ele>325</ele>
        <time>2024-12-08T07:51:46.620Z</time>
      </trkpt>
      <trkpt lat="46.01997" lon="4.02598">
        <ele>324</ele>
        <time>2024-12-08T07:51:47.620Z</time>
      </trkpt>
      <trkpt lat="46.01998" lon="4.026">
        <ele>324</ele>
        <time>2024-12-08T07:51:48.620Z</time>
      </trkpt>
      <trkpt lat="46.02" lon="4.02602">
        <ele>325</ele>
        <time>2024-12-08T07:51:49.619Z</time>
      </trkpt>
      <trkpt lat="46.02001" lon="4.02604">
        <ele>325</ele>
        <time>2024-12-08T07:51:50.620Z</time>
      </trkpt>
      <trkpt lat="46.02002" lon="4.02605">
        <ele>325</ele>
        <time>2024-12-08T07:51:51.619Z</time>
      </trkpt>
      <trkpt lat="46.02003" lon="4.02608">
        <ele>325</ele>
        <time>2024-12-08T07:51:52.620Z</time>
      </trkpt>
      <trkpt lat="46.02005" lon="4.0261">
        <ele>325</ele>
        <time>2024-12-08T07:51:53.620Z</time>
      </trkpt>
      <trkpt lat="46.02006" lon="4.02612">
        <ele>325</ele>
        <time>2024-12-08T07:51:54.619Z</time>
      </trkpt>
      <trkpt lat="46.02007" lon="4.02613">
        <ele>325</ele>
        <time>2024-12-08T07:51:55.619Z</time>
      </trkpt>
      <trkpt lat="46.02008" lon="4.02615">
        <ele>325</ele>
        <time>2024-12-08T07:51:56.620Z</time>
      </trkpt>
      <trkpt lat="46.0201" lon="4.02617">
        <ele>325</ele>
        <time>2024-12-08T07:51:57.620Z</time>
      </trkpt>
      <trkpt lat="46.02011" lon="4.02619">
        <ele>325</ele>
        <time>2024-12-08T07:51:58.619Z</time>
      </trkpt>
      <trkpt lat="46.02012" lon="4.02621">
        <ele>325</ele>
        <time>2024-12-08T07:51:59.619Z</time>
      </trkpt>
      <trkpt lat="46.02013" lon="4.02623">
        <ele>325</ele>
        <time>2024-12-08T07:52:00.620Z</time>
      </trkpt>
      <trkpt lat="46.02014" lon="4.02625">
        <ele>325</ele>
        <time>2024-12-08T07:52:01.619Z</time>
      </trkpt>
      <trkpt lat="46.02016" lon="4.02627">
        <ele>325</ele>
        <time>2024-12-08T07:52:02.619Z</time>
      </trkpt>
      <trkpt lat="46.02017" lon="4.02629">
        <ele>325</ele>
        <time>2024-12-08T07:52:03.619Z</time>
      </trkpt>
      <trkpt lat="46.02018" lon="4.0263">
        <ele>325</ele>
        <time>2024-12-08T07:52:04.620Z</time>
      </trkpt>
      <trkpt lat="46.02019" lon="4.02633">
        <ele>325</ele>
        <time>2024-12-08T07:52:05.620Z</time>
      </trkpt>
      <trkpt lat="46.02021" lon="4.02634">
        <ele>325</ele>
        <time>2024-12-08T07:52:06.619Z</time>
      </trkpt>
      <trkpt lat="46.02022" lon="4.02636">
        <ele>325</ele>
        <time>2024-12-08T07:52:07.619Z</time>
      </trkpt>
      <trkpt lat="46.02023" lon="4.02638">
        <ele>325</ele>
        <time>2024-12-08T07:52:08.619Z</time>
      </trkpt>
      <trkpt lat="46.02024" lon="4.02639">
        <ele>325</ele>
        <time>2024-12-08T07:52:09.619Z</time>
      </trkpt>
      <trkpt lat="46.02025" lon="4.02642">
        <ele>325</ele>
        <time>2024-12-08T07:52:10.619Z</time>
      </trkpt>
      <trkpt lat="46.02026" lon="4.02643">
        <ele>325</ele>
        <time>2024-12-08T07:52:11.619Z</time>
      </trkpt>
      <trkpt lat="46.02027" lon="4.02645">
        <ele>325</ele>
        <time>2024-12-08T07:52:12.619Z</time>
      </trkpt>
      <trkpt lat="46.02028" lon="4.02647">
        <ele>325</ele>
        <time>2024-12-08T07:52:13.620Z</time>
      </trkpt>
      <trkpt lat="46.0203" lon="4.02649">
        <ele>325</ele>
        <time>2024-12-08T07:52:14.619Z</time>
      </trkpt>
      <trkpt lat="46.02031" lon="4.02651">
        <ele>325</ele>
        <time>2024-12-08T07:52:15.619Z</time>
      </trkpt>
      <trkpt lat="46.02032" lon="4.02653">
        <ele>325</ele>
        <time>2024-12-08T07:52:16.619Z</time>
      </trkpt>
      <trkpt lat="46.02033" lon="4.02655">
        <ele>324</ele>
        <time>2024-12-08T07:52:17.619Z</time>
      </trkpt>
      <trkpt lat="46.02034" lon="4.02657">
        <ele>324</ele>
        <time>2024-12-08T07:52:18.620Z</time>
      </trkpt>
      <trkpt lat="46.02035" lon="4.02658">
        <ele>324</ele>
        <time>2024-12-08T07:52:19.620Z</time>
      </trkpt>
      <trkpt lat="46.02037" lon="4.0266">
        <ele>324</ele>
        <time>2024-12-08T07:52:20.620Z</time>
      </trkpt>
      <trkpt lat="46.02038" lon="4.02662">
        <ele>324</ele>
        <time>2024-12-08T07:52:21.619Z</time>
      </trkpt>
      <trkpt lat="46.02039" lon="4.02664">
        <ele>323</ele>
        <time>2024-12-08T07:52:22.620Z</time>
      </trkpt>
      <trkpt lat="46.0204" lon="4.02666">
        <ele>323</ele>
        <time>2024-12-08T07:52:23.619Z</time>
      </trkpt>
      <trkpt lat="46.02041" lon="4.02669">
        <ele>323</ele>
        <time>2024-12-08T07:52:24.620Z</time>
      </trkpt>
      <trkpt lat="46.02042" lon="4.02671">
        <ele>323</ele>
        <time>2024-12-08T07:52:25.620Z</time>
      </trkpt>
      <trkpt lat="46.02043" lon="4.02674">
        <ele>323</ele>
        <time>2024-12-08T07:52:26.619Z</time>
      </trkpt>
      <trkpt lat="46.02044" lon="4.02675">
        <ele>323</ele>
        <time>2024-12-08T07:52:27.619Z</time>
      </trkpt>
      <trkpt lat="46.02045" lon="4.02678">
        <ele>323</ele>
        <time>2024-12-08T07:52:28.620Z</time>
      </trkpt>
      <trkpt lat="46.02046" lon="4.0268">
        <ele>323</ele>
        <time>2024-12-08T07:52:29.619Z</time>
      </trkpt>
      <trkpt lat="46.02047" lon="4.02682">
        <ele>322</ele>
        <time>2024-12-08T07:52:30.620Z</time>
      </trkpt>
      <trkpt lat="46.02048" lon="4.02683">
        <ele>322</ele>
        <time>2024-12-08T07:52:31.619Z</time>
      </trkpt>
      <trkpt lat="46.02049" lon="4.02686">
        <ele>322</ele>
        <time>2024-12-08T07:52:32.620Z</time>
      </trkpt>
      <trkpt lat="46.0205" lon="4.02688">
        <ele>322</ele>
        <time>2024-12-08T07:52:33.619Z</time>
      </trkpt>
      <trkpt lat="46.02051" lon="4.0269">
        <ele>322</ele>
        <time>2024-12-08T07:52:34.619Z</time>
      </trkpt>
      <trkpt lat="46.02052" lon="4.02692">
        <ele>322</ele>
        <time>2024-12-08T07:52:35.620Z</time>
      </trkpt>
      <trkpt lat="46.02053" lon="4.02694">
        <ele>322</ele>
        <time>2024-12-08T07:52:36.620Z</time>
      </trkpt>
      <trkpt lat="46.02054" lon="4.02696">
        <ele>322</ele>
        <time>2024-12-08T07:52:37.619Z</time>
      </trkpt>
      <trkpt lat="46.02055" lon="4.02698">
        <ele>322</ele>
        <time>2024-12-08T07:52:38.620Z</time>
      </trkpt>
      <trkpt lat="46.02056" lon="4.027">
        <ele>322</ele>
        <time>2024-12-08T07:52:39.619Z</time>
      </trkpt>
      <trkpt lat="46.02057" lon="4.02702">
        <ele>321</ele>
        <time>2024-12-08T07:52:40.619Z</time>
      </trkpt>
      <trkpt lat="46.02059" lon="4.02705">
        <ele>321</ele>
        <time>2024-12-08T07:52:41.619Z</time>
      </trkpt>
      <trkpt lat="46.0206" lon="4.02707">
        <ele>321</ele>
        <time>2024-12-08T07:52:42.620Z</time>
      </trkpt>
      <trkpt lat="46.02061" lon="4.02709">
        <ele>321</ele>
        <time>2024-12-08T07:52:43.620Z</time>
      </trkpt>
      <trkpt lat="46.02062" lon="4.02711">
        <ele>321</ele>
        <time>2024-12-08T07:52:44.620Z</time>
      </trkpt>
      <trkpt lat="46.02063" lon="4.02713">
        <ele>321</ele>
        <time>2024-12-08T07:52:45.620Z</time>
      </trkpt>
      <trkpt lat="46.02064" lon="4.02715">
        <ele>321</ele>
        <time>2024-12-08T07:52:46.620Z</time>
      </trkpt>
      <trkpt lat="46.02065" lon="4.02717">
        <ele>321</ele>
        <time>2024-12-08T07:52:47.619Z</time>
      </trkpt>
      <trkpt lat="46.02066" lon="4.02719">
        <ele>321</ele>
        <time>2024-12-08T07:52:48.620Z</time>
      </trkpt>
      <trkpt lat="46.02067" lon="4.02721">
        <ele>321</ele>
        <time>2024-12-08T07:52:49.619Z</time>
      </trkpt>
      <trkpt lat="46.02068" lon="4.02723">
        <ele>320</ele>
        <time>2024-12-08T07:52:50.620Z</time>
      </trkpt>
      <trkpt lat="46.02069" lon="4.02726">
        <ele>320</ele>
        <time>2024-12-08T07:52:51.619Z</time>
      </trkpt>
      <trkpt lat="46.0207" lon="4.02728">
        <ele>320</ele>
        <time>2024-12-08T07:52:52.619Z</time>
      </trkpt>
      <trkpt lat="46.02071" lon="4.0273">
        <ele>321</ele>
        <time>2024-12-08T07:52:53.619Z</time>
      </trkpt>
      <trkpt lat="46.02072" lon="4.02732">
        <ele>321</ele>
        <time>2024-12-08T07:52:54.620Z</time>
      </trkpt>
      <trkpt lat="46.02073" lon="4.02734">
        <ele>321</ele>
        <time>2024-12-08T07:52:55.620Z</time>
      </trkpt>
      <trkpt lat="46.02074" lon="4.02736">
        <ele>321</ele>
        <time>2024-12-08T07:52:56.619Z</time>
      </trkpt>
      <trkpt lat="46.02075" lon="4.02738">
        <ele>321</ele>
        <time>2024-12-08T07:52:57.619Z</time>
      </trkpt>
      <trkpt lat="46.02076" lon="4.0274">
        <ele>320</ele>
        <time>2024-12-08T07:52:58.619Z</time>
      </trkpt>
      <trkpt lat="46.02078" lon="4.02742">
        <ele>320</ele>
        <time>2024-12-08T07:52:59.620Z</time>
      </trkpt>
      <trkpt lat="46.02079" lon="4.02744">
        <ele>321</ele>
        <time>2024-12-08T07:53:00.619Z</time>
      </trkpt>
      <trkpt lat="46.0208" lon="4.02746">
        <ele>321</ele>
        <time>2024-12-08T07:53:01.619Z</time>
      </trkpt>
      <trkpt lat="46.02081" lon="4.02748">
        <ele>321</ele>
        <time>2024-12-08T07:53:02.619Z</time>
      </trkpt>
      <trkpt lat="46.02082" lon="4.0275">
        <ele>321</ele>
        <time>2024-12-08T07:53:03.620Z</time>
      </trkpt>
      <trkpt lat="46.02083" lon="4.02752">
        <ele>321</ele>
        <time>2024-12-08T07:53:04.619Z</time>
      </trkpt>
      <trkpt lat="46.02084" lon="4.02754">
        <ele>321</ele>
        <time>2024-12-08T07:53:05.619Z</time>
      </trkpt>
      <trkpt lat="46.02085" lon="4.02757">
        <ele>321</ele>
        <time>2024-12-08T07:53:06.619Z</time>
      </trkpt>
      <trkpt lat="46.02086" lon="4.02758">
        <ele>321</ele>
        <time>2024-12-08T07:53:07.620Z</time>
      </trkpt>
      <trkpt lat="46.02087" lon="4.02761">
        <ele>320</ele>
        <time>2024-12-08T07:53:08.620Z</time>
      </trkpt>
      <trkpt lat="46.02088" lon="4.02763">
        <ele>320</ele>
        <time>2024-12-08T07:53:09.619Z</time>
      </trkpt>
      <trkpt lat="46.02089" lon="4.02765">
        <ele>320</ele>
        <time>2024-12-08T07:53:10.619Z</time>
      </trkpt>
      <trkpt lat="46.0209" lon="4.02767">
        <ele>320</ele>
        <time>2024-12-08T07:53:11.620Z</time>
      </trkpt>
      <trkpt lat="46.02091" lon="4.02769">
        <ele>320</ele>
        <time>2024-12-08T07:53:12.620Z</time>
      </trkpt>
      <trkpt lat="46.02093" lon="4.02771">
        <ele>320</ele>
        <time>2024-12-08T07:53:13.620Z</time>
      </trkpt>
      <trkpt lat="46.02094" lon="4.02773">
        <ele>320</ele>
        <time>2024-12-08T07:53:14.619Z</time>
      </trkpt>
      <trkpt lat="46.02095" lon="4.02775">
        <ele>320</ele>
        <time>2024-12-08T07:53:15.620Z</time>
      </trkpt>
      <trkpt lat="46.02096" lon="4.02777">
        <ele>320</ele>
        <time>2024-12-08T07:53:16.620Z</time>
      </trkpt>
      <trkpt lat="46.02097" lon="4.02779">
        <ele>320</ele>
        <time>2024-12-08T07:53:17.619Z</time>
      </trkpt>
      <trkpt lat="46.02098" lon="4.02781">
        <ele>320</ele>
        <time>2024-12-08T07:53:18.619Z</time>
      </trkpt>
      <trkpt lat="46.021" lon="4.02783">
        <ele>320</ele>
        <time>2024-12-08T07:53:19.620Z</time>
      </trkpt>
      <trkpt lat="46.02101" lon="4.02785">
        <ele>320</ele>
        <time>2024-12-08T07:53:20.619Z</time>
      </trkpt>
      <trkpt lat="46.02102" lon="4.02787">
        <ele>320</ele>
        <time>2024-12-08T07:53:21.619Z</time>
      </trkpt>
      <trkpt lat="46.02103" lon="4.02789">
        <ele>320</ele>
        <time>2024-12-08T07:53:22.619Z</time>
      </trkpt>
      <trkpt lat="46.02105" lon="4.02792">
        <ele>320</ele>
        <time>2024-12-08T07:53:23.619Z</time>
      </trkpt>
      <trkpt lat="46.02106" lon="4.02794">
        <ele>320</ele>
        <time>2024-12-08T07:53:24.620Z</time>
      </trkpt>
      <trkpt lat="46.02107" lon="4.02796">
        <ele>320</ele>
        <time>2024-12-08T07:53:25.619Z</time>
      </trkpt>
      <trkpt lat="46.02108" lon="4.02798">
        <ele>320</ele>
        <time>2024-12-08T07:53:26.620Z</time>
      </trkpt>
      <trkpt lat="46.02109" lon="4.028">
        <ele>320</ele>
        <time>2024-12-08T07:53:27.619Z</time>
      </trkpt>
      <trkpt lat="46.0211" lon="4.02802">
        <ele>320</ele>
        <time>2024-12-08T07:53:28.619Z</time>
      </trkpt>
      <trkpt lat="46.02111" lon="4.02804">
        <ele>320</ele>
        <time>2024-12-08T07:53:29.619Z</time>
      </trkpt>
      <trkpt lat="46.02112" lon="4.02806">
        <ele>320</ele>
        <time>2024-12-08T07:53:30.619Z</time>
      </trkpt>
      <trkpt lat="46.02113" lon="4.02808">
        <ele>320</ele>
        <time>2024-12-08T07:53:31.619Z</time>
      </trkpt>
      <trkpt lat="46.02114" lon="4.0281">
        <ele>319</ele>
        <time>2024-12-08T07:53:32.619Z</time>
      </trkpt>
      <trkpt lat="46.02115" lon="4.02812">
        <ele>319</ele>
        <time>2024-12-08T07:53:33.620Z</time>
      </trkpt>
      <trkpt lat="46.02116" lon="4.02814">
        <ele>319</ele>
        <time>2024-12-08T07:53:34.619Z</time>
      </trkpt>
      <trkpt lat="46.02117" lon="4.02816">
        <ele>319</ele>
        <time>2024-12-08T07:53:35.619Z</time>
      </trkpt>
      <trkpt lat="46.02118" lon="4.02818">
        <ele>319</ele>
        <time>2024-12-08T07:53:36.620Z</time>
      </trkpt>
      <trkpt lat="46.02119" lon="4.0282">
        <ele>319</ele>
        <time>2024-12-08T07:53:37.619Z</time>
      </trkpt>
      <trkpt lat="46.02121" lon="4.02822">
        <ele>319</ele>
        <time>2024-12-08T07:53:38.620Z</time>
      </trkpt>
      <trkpt lat="46.02122" lon="4.02824">
        <ele>319</ele>
        <time>2024-12-08T07:53:39.619Z</time>
      </trkpt>
      <trkpt lat="46.02123" lon="4.02826">
        <ele>319</ele>
        <time>2024-12-08T07:53:40.619Z</time>
      </trkpt>
      <trkpt lat="46.02123" lon="4.02828">
        <ele>318</ele>
        <time>2024-12-08T07:53:41.619Z</time>
      </trkpt>
      <trkpt lat="46.02124" lon="4.0283">
        <ele>318</ele>
        <time>2024-12-08T07:53:42.620Z</time>
      </trkpt>
      <trkpt lat="46.02125" lon="4.02833">
        <ele>318</ele>
        <time>2024-12-08T07:53:43.619Z</time>
      </trkpt>
      <trkpt lat="46.02126" lon="4.02835">
        <ele>317</ele>
        <time>2024-12-08T07:53:44.620Z</time>
      </trkpt>
      <trkpt lat="46.02128" lon="4.02837">
        <ele>318</ele>
        <time>2024-12-08T07:53:45.619Z</time>
      </trkpt>
      <trkpt lat="46.02129" lon="4.02838">
        <ele>318</ele>
        <time>2024-12-08T07:53:46.619Z</time>
      </trkpt>
      <trkpt lat="46.0213" lon="4.0284">
        <ele>318</ele>
        <time>2024-12-08T07:53:47.620Z</time>
      </trkpt>
      <trkpt lat="46.02131" lon="4.02842">
        <ele>318</ele>
        <time>2024-12-08T07:53:48.619Z</time>
      </trkpt>
      <trkpt lat="46.02132" lon="4.02844">
        <ele>318</ele>
        <time>2024-12-08T07:53:49.619Z</time>
      </trkpt>
      <trkpt lat="46.02133" lon="4.02846">
        <ele>318</ele>
        <time>2024-12-08T07:53:50.619Z</time>
      </trkpt>
      <trkpt lat="46.02134" lon="4.02849">
        <ele>318</ele>
        <time>2024-12-08T07:53:51.620Z</time>
      </trkpt>
      <trkpt lat="46.02135" lon="4.02851">
        <ele>318</ele>
        <time>2024-12-08T07:53:52.619Z</time>
      </trkpt>
      <trkpt lat="46.02137" lon="4.02853">
        <ele>317</ele>
        <time>2024-12-08T07:53:53.619Z</time>
      </trkpt>
      <trkpt lat="46.02138" lon="4.02855">
        <ele>317</ele>
        <time>2024-12-08T07:53:54.620Z</time>
      </trkpt>
      <trkpt lat="46.02139" lon="4.02857">
        <ele>317</ele>
        <time>2024-12-08T07:53:55.620Z</time>
      </trkpt>
      <trkpt lat="46.02139" lon="4.02858">
        <ele>317</ele>
        <time>2024-12-08T07:53:56.620Z</time>
      </trkpt>
      <trkpt lat="46.02141" lon="4.02861">
        <ele>318</ele>
        <time>2024-12-08T07:53:57.619Z</time>
      </trkpt>
      <trkpt lat="46.02142" lon="4.02863">
        <ele>318</ele>
        <time>2024-12-08T07:53:58.619Z</time>
      </trkpt>
      <trkpt lat="46.02143" lon="4.02865">
        <ele>318</ele>
        <time>2024-12-08T07:53:59.619Z</time>
      </trkpt>
      <trkpt lat="46.02144" lon="4.02867">
        <ele>318</ele>
        <time>2024-12-08T07:54:00.619Z</time>
      </trkpt>
      <trkpt lat="46.02145" lon="4.02869">
        <ele>317</ele>
        <time>2024-12-08T07:54:01.619Z</time>
      </trkpt>
      <trkpt lat="46.02146" lon="4.02871">
        <ele>317</ele>
        <time>2024-12-08T07:54:02.620Z</time>
      </trkpt>
      <trkpt lat="46.02147" lon="4.02873">
        <ele>316</ele>
        <time>2024-12-08T07:54:03.619Z</time>
      </trkpt>
      <trkpt lat="46.02148" lon="4.02875">
        <ele>316</ele>
        <time>2024-12-08T07:54:04.619Z</time>
      </trkpt>
      <trkpt lat="46.02149" lon="4.02877">
        <ele>316</ele>
        <time>2024-12-08T07:54:05.619Z</time>
      </trkpt>
      <trkpt lat="46.0215" lon="4.02879">
        <ele>316</ele>
        <time>2024-12-08T07:54:06.619Z</time>
      </trkpt>
      <trkpt lat="46.02152" lon="4.02881">
        <ele>316</ele>
        <time>2024-12-08T07:54:07.619Z</time>
      </trkpt>
      <trkpt lat="46.02153" lon="4.02883">
        <ele>316</ele>
        <time>2024-12-08T07:54:08.619Z</time>
      </trkpt>
      <trkpt lat="46.02154" lon="4.02885">
        <ele>316</ele>
        <time>2024-12-08T07:54:09.619Z</time>
      </trkpt>
      <trkpt lat="46.02155" lon="4.02886">
        <ele>316</ele>
        <time>2024-12-08T07:54:10.619Z</time>
      </trkpt>
      <trkpt lat="46.02156" lon="4.02889">
        <ele>316</ele>
        <time>2024-12-08T07:54:11.620Z</time>
      </trkpt>
      <trkpt lat="46.02158" lon="4.02891">
        <ele>316</ele>
        <time>2024-12-08T07:54:12.619Z</time>
      </trkpt>
      <trkpt lat="46.02159" lon="4.02893">
        <ele>316</ele>
        <time>2024-12-08T07:54:13.620Z</time>
      </trkpt>
      <trkpt lat="46.0216" lon="4.02895">
        <ele>316</ele>
        <time>2024-12-08T07:54:14.619Z</time>
      </trkpt>
      <trkpt lat="46.02161" lon="4.02897">
        <ele>316</ele>
        <time>2024-12-08T07:54:15.619Z</time>
      </trkpt>
      <trkpt lat="46.02162" lon="4.02899">
        <ele>316</ele>
        <time>2024-12-08T07:54:16.620Z</time>
      </trkpt>
      <trkpt lat="46.02163" lon="4.02901">
        <ele>316</ele>
        <time>2024-12-08T07:54:17.619Z</time>
      </trkpt>
      <trkpt lat="46.02164" lon="4.02903">
        <ele>316</ele>
        <time>2024-12-08T07:54:18.620Z</time>
      </trkpt>
      <trkpt lat="46.02165" lon="4.02905">
        <ele>316</ele>
        <time>2024-12-08T07:54:19.619Z</time>
      </trkpt>
      <trkpt lat="46.02166" lon="4.02908">
        <ele>316</ele>
        <time>2024-12-08T07:54:20.620Z</time>
      </trkpt>
      <trkpt lat="46.02167" lon="4.0291">
        <ele>316</ele>
        <time>2024-12-08T07:54:21.619Z</time>
      </trkpt>
      <trkpt lat="46.02167" lon="4.02912">
        <ele>316</ele>
        <time>2024-12-08T07:54:22.619Z</time>
      </trkpt>
      <trkpt lat="46.02168" lon="4.02914">
        <ele>316</ele>
        <time>2024-12-08T07:54:23.619Z</time>
      </trkpt>
      <trkpt lat="46.02169" lon="4.02916">
        <ele>317</ele>
        <time>2024-12-08T07:54:24.619Z</time>
      </trkpt>
      <trkpt lat="46.02169" lon="4.02919">
        <ele>317</ele>
        <time>2024-12-08T07:54:25.619Z</time>
      </trkpt>
      <trkpt lat="46.0217" lon="4.02921">
        <ele>317</ele>
        <time>2024-12-08T07:54:26.620Z</time>
      </trkpt>
      <trkpt lat="46.02171" lon="4.02923">
        <ele>317</ele>
        <time>2024-12-08T07:54:27.619Z</time>
      </trkpt>
      <trkpt lat="46.02172" lon="4.02926">
        <ele>317</ele>
        <time>2024-12-08T07:54:28.620Z</time>
      </trkpt>
      <trkpt lat="46.02172" lon="4.02928">
        <ele>316</ele>
        <time>2024-12-08T07:54:29.620Z</time>
      </trkpt>
      <trkpt lat="46.02173" lon="4.0293">
        <ele>316</ele>
        <time>2024-12-08T07:54:30.619Z</time>
      </trkpt>
      <trkpt lat="46.02174" lon="4.02932">
        <ele>316</ele>
        <time>2024-12-08T07:54:31.619Z</time>
      </trkpt>
      <trkpt lat="46.02174" lon="4.02934">
        <ele>316</ele>
        <time>2024-12-08T07:54:32.619Z</time>
      </trkpt>
      <trkpt lat="46.02175" lon="4.02936">
        <ele>316</ele>
        <time>2024-12-08T07:54:33.620Z</time>
      </trkpt>
      <trkpt lat="46.02176" lon="4.02938">
        <ele>316</ele>
        <time>2024-12-08T07:54:34.619Z</time>
      </trkpt>
      <trkpt lat="46.02177" lon="4.0294">
        <ele>316</ele>
        <time>2024-12-08T07:54:35.619Z</time>
      </trkpt>
      <trkpt lat="46.02177" lon="4.02943">
        <ele>316</ele>
        <time>2024-12-08T07:54:36.620Z</time>
      </trkpt>
      <trkpt lat="46.02178" lon="4.02944">
        <ele>316</ele>
        <time>2024-12-08T07:54:37.619Z</time>
      </trkpt>
      <trkpt lat="46.02179" lon="4.02947">
        <ele>316</ele>
        <time>2024-12-08T07:54:38.620Z</time>
      </trkpt>
      <trkpt lat="46.02179" lon="4.02949">
        <ele>316</ele>
        <time>2024-12-08T07:54:39.620Z</time>
      </trkpt>
      <trkpt lat="46.0218" lon="4.02951">
        <ele>316</ele>
        <time>2024-12-08T07:54:40.619Z</time>
      </trkpt>
      <trkpt lat="46.0218" lon="4.02953">
        <ele>317</ele>
        <time>2024-12-08T07:54:41.620Z</time>
      </trkpt>
      <trkpt lat="46.02181" lon="4.02955">
        <ele>316</ele>
        <time>2024-12-08T07:54:42.619Z</time>
      </trkpt>
      <trkpt lat="46.02182" lon="4.02958">
        <ele>316</ele>
        <time>2024-12-08T07:54:43.619Z</time>
      </trkpt>
      <trkpt lat="46.02183" lon="4.0296">
        <ele>316</ele>
        <time>2024-12-08T07:54:44.620Z</time>
      </trkpt>
      <trkpt lat="46.02183" lon="4.02962">
        <ele>316</ele>
        <time>2024-12-08T07:54:45.620Z</time>
      </trkpt>
      <trkpt lat="46.02184" lon="4.02964">
        <ele>317</ele>
        <time>2024-12-08T07:54:46.619Z</time>
      </trkpt>
      <trkpt lat="46.02185" lon="4.02967">
        <ele>316</ele>
        <time>2024-12-08T07:54:47.620Z</time>
      </trkpt>
      <trkpt lat="46.02185" lon="4.02969">
        <ele>316</ele>
        <time>2024-12-08T07:54:48.620Z</time>
      </trkpt>
      <trkpt lat="46.02186" lon="4.02971">
        <ele>316</ele>
        <time>2024-12-08T07:54:49.620Z</time>
      </trkpt>
      <trkpt lat="46.02187" lon="4.02973">
        <ele>316</ele>
        <time>2024-12-08T07:54:50.620Z</time>
      </trkpt>
      <trkpt lat="46.02188" lon="4.02975">
        <ele>316</ele>
        <time>2024-12-08T07:54:51.619Z</time>
      </trkpt>
      <trkpt lat="46.02188" lon="4.02977">
        <ele>316</ele>
        <time>2024-12-08T07:54:52.620Z</time>
      </trkpt>
      <trkpt lat="46.02189" lon="4.0298">
        <ele>317</ele>
        <time>2024-12-08T07:54:53.619Z</time>
      </trkpt>
      <trkpt lat="46.0219" lon="4.02982">
        <ele>317</ele>
        <time>2024-12-08T07:54:54.620Z</time>
      </trkpt>
      <trkpt lat="46.0219" lon="4.02984">
        <ele>317</ele>
        <time>2024-12-08T07:54:55.620Z</time>
      </trkpt>
      <trkpt lat="46.02191" lon="4.02987">
        <ele>317</ele>
        <time>2024-12-08T07:54:56.619Z</time>
      </trkpt>
      <trkpt lat="46.02192" lon="4.02989">
        <ele>317</ele>
        <time>2024-12-08T07:54:57.620Z</time>
      </trkpt>
      <trkpt lat="46.02192" lon="4.02992">
        <ele>317</ele>
        <time>2024-12-08T07:54:58.620Z</time>
      </trkpt>
      <trkpt lat="46.02193" lon="4.02994">
        <ele>317</ele>
        <time>2024-12-08T07:54:59.619Z</time>
      </trkpt>
      <trkpt lat="46.02194" lon="4.02996">
        <ele>317</ele>
        <time>2024-12-08T07:55:00.620Z</time>
      </trkpt>
      <trkpt lat="46.02195" lon="4.02998">
        <ele>317</ele>
        <time>2024-12-08T07:55:01.620Z</time>
      </trkpt>
      <trkpt lat="46.02196" lon="4.03001">
        <ele>317</ele>
        <time>2024-12-08T07:55:02.619Z</time>
      </trkpt>
      <trkpt lat="46.02196" lon="4.03003">
        <ele>317</ele>
        <time>2024-12-08T07:55:03.620Z</time>
      </trkpt>
      <trkpt lat="46.02197" lon="4.03005">
        <ele>317</ele>
        <time>2024-12-08T07:55:04.620Z</time>
      </trkpt>
      <trkpt lat="46.02198" lon="4.03007">
        <ele>316</ele>
        <time>2024-12-08T07:55:05.620Z</time>
      </trkpt>
      <trkpt lat="46.02199" lon="4.0301">
        <ele>316</ele>
        <time>2024-12-08T07:55:06.619Z</time>
      </trkpt>
      <trkpt lat="46.02199" lon="4.03012">
        <ele>316</ele>
        <time>2024-12-08T07:55:07.620Z</time>
      </trkpt>
      <trkpt lat="46.022" lon="4.03014">
        <ele>316</ele>
        <time>2024-12-08T07:55:08.619Z</time>
      </trkpt>
      <trkpt lat="46.02201" lon="4.03017">
        <ele>316</ele>
        <time>2024-12-08T07:55:09.619Z</time>
      </trkpt>
      <trkpt lat="46.02201" lon="4.03019">
        <ele>316</ele>
        <time>2024-12-08T07:55:10.619Z</time>
      </trkpt>
      <trkpt lat="46.02202" lon="4.03022">
        <ele>316</ele>
        <time>2024-12-08T07:55:11.620Z</time>
      </trkpt>
      <trkpt lat="46.02203" lon="4.03024">
        <ele>316</ele>
        <time>2024-12-08T07:55:12.620Z</time>
      </trkpt>
      <trkpt lat="46.02203" lon="4.03026">
        <ele>316</ele>
        <time>2024-12-08T07:55:13.619Z</time>
      </trkpt>
      <trkpt lat="46.02204" lon="4.03028">
        <ele>316</ele>
        <time>2024-12-08T07:55:14.620Z</time>
      </trkpt>
      <trkpt lat="46.02205" lon="4.03031">
        <ele>316</ele>
        <time>2024-12-08T07:55:15.620Z</time>
      </trkpt>
      <trkpt lat="46.02206" lon="4.03033">
        <ele>316</ele>
        <time>2024-12-08T07:55:16.619Z</time>
      </trkpt>
      <trkpt lat="46.02206" lon="4.03035">
        <ele>316</ele>
        <time>2024-12-08T07:55:17.619Z</time>
      </trkpt>
      <trkpt lat="46.02207" lon="4.03037">
        <ele>316</ele>
        <time>2024-12-08T07:55:18.619Z</time>
      </trkpt>
      <trkpt lat="46.02208" lon="4.0304">
        <ele>316</ele>
        <time>2024-12-08T07:55:19.620Z</time>
      </trkpt>
      <trkpt lat="46.02209" lon="4.03043">
        <ele>316</ele>
        <time>2024-12-08T07:55:20.619Z</time>
      </trkpt>
      <trkpt lat="46.02209" lon="4.03045">
        <ele>316</ele>
        <time>2024-12-08T07:55:21.619Z</time>
      </trkpt>
      <trkpt lat="46.0221" lon="4.03047">
        <ele>316</ele>
        <time>2024-12-08T07:55:22.619Z</time>
      </trkpt>
      <trkpt lat="46.02211" lon="4.0305">
        <ele>316</ele>
        <time>2024-12-08T07:55:23.620Z</time>
      </trkpt>
      <trkpt lat="46.02212" lon="4.03053">
        <ele>316</ele>
        <time>2024-12-08T07:55:24.619Z</time>
      </trkpt>
      <trkpt lat="46.02213" lon="4.03055">
        <ele>315</ele>
        <time>2024-12-08T07:55:25.619Z</time>
      </trkpt>
      <trkpt lat="46.02213" lon="4.03057">
        <ele>315</ele>
        <time>2024-12-08T07:55:26.619Z</time>
      </trkpt>
      <trkpt lat="46.02214" lon="4.03059">
        <ele>315</ele>
        <time>2024-12-08T07:55:27.620Z</time>
      </trkpt>
      <trkpt lat="46.02215" lon="4.03062">
        <ele>315</ele>
        <time>2024-12-08T07:55:28.620Z</time>
      </trkpt>
      <trkpt lat="46.02216" lon="4.03064">
        <ele>315</ele>
        <time>2024-12-08T07:55:29.620Z</time>
      </trkpt>
      <trkpt lat="46.02216" lon="4.03067">
        <ele>315</ele>
        <time>2024-12-08T07:55:30.620Z</time>
      </trkpt>
      <trkpt lat="46.02217" lon="4.03069">
        <ele>315</ele>
        <time>2024-12-08T07:55:31.619Z</time>
      </trkpt>
      <trkpt lat="46.02218" lon="4.03072">
        <ele>315</ele>
        <time>2024-12-08T07:55:32.620Z</time>
      </trkpt>
      <trkpt lat="46.02219" lon="4.03074">
        <ele>315</ele>
        <time>2024-12-08T07:55:33.619Z</time>
      </trkpt>
      <trkpt lat="46.02219" lon="4.03077">
        <ele>315</ele>
        <time>2024-12-08T07:55:34.619Z</time>
      </trkpt>
      <trkpt lat="46.0222" lon="4.03079">
        <ele>315</ele>
        <time>2024-12-08T07:55:35.619Z</time>
      </trkpt>
      <trkpt lat="46.02221" lon="4.03081">
        <ele>315</ele>
        <time>2024-12-08T07:55:36.619Z</time>
      </trkpt>
      <trkpt lat="46.02222" lon="4.03083">
        <ele>315</ele>
        <time>2024-12-08T07:55:37.619Z</time>
      </trkpt>
      <trkpt lat="46.02222" lon="4.03086">
        <ele>315</ele>
        <time>2024-12-08T07:55:38.620Z</time>
      </trkpt>
      <trkpt lat="46.02223" lon="4.03088">
        <ele>315</ele>
        <time>2024-12-08T07:55:39.619Z</time>
      </trkpt>
      <trkpt lat="46.02224" lon="4.03091">
        <ele>315</ele>
        <time>2024-12-08T07:55:40.620Z</time>
      </trkpt>
      <trkpt lat="46.02225" lon="4.03093">
        <ele>315</ele>
        <time>2024-12-08T07:55:41.620Z</time>
      </trkpt>
      <trkpt lat="46.02226" lon="4.03096">
        <ele>315</ele>
        <time>2024-12-08T07:55:42.619Z</time>
      </trkpt>
      <trkpt lat="46.02227" lon="4.03098">
        <ele>315</ele>
        <time>2024-12-08T07:55:43.619Z</time>
      </trkpt>
      <trkpt lat="46.02227" lon="4.03101">
        <ele>315</ele>
        <time>2024-12-08T07:55:44.620Z</time>
      </trkpt>
      <trkpt lat="46.02228" lon="4.03103">
        <ele>315</ele>
        <time>2024-12-08T07:55:45.620Z</time>
      </trkpt>
      <trkpt lat="46.02229" lon="4.03105">
        <ele>315</ele>
        <time>2024-12-08T07:55:46.620Z</time>
      </trkpt>
      <trkpt lat="46.02229" lon="4.03107">
        <ele>315</ele>
        <time>2024-12-08T07:55:47.620Z</time>
      </trkpt>
      <trkpt lat="46.0223" lon="4.03109">
        <ele>315</ele>
        <time>2024-12-08T07:55:48.620Z</time>
      </trkpt>
      <trkpt lat="46.0223" lon="4.03112">
        <ele>315</ele>
        <time>2024-12-08T07:55:49.620Z</time>
      </trkpt>
      <trkpt lat="46.02231" lon="4.03114">
        <ele>314</ele>
        <time>2024-12-08T07:55:50.620Z</time>
      </trkpt>
      <trkpt lat="46.02232" lon="4.03117">
        <ele>314</ele>
        <time>2024-12-08T07:55:51.619Z</time>
      </trkpt>
      <trkpt lat="46.02232" lon="4.0312">
        <ele>314</ele>
        <time>2024-12-08T07:55:52.619Z</time>
      </trkpt>
      <trkpt lat="46.02233" lon="4.03122">
        <ele>313</ele>
        <time>2024-12-08T07:55:53.619Z</time>
      </trkpt>
      <trkpt lat="46.02233" lon="4.03124">
        <ele>313</ele>
        <time>2024-12-08T07:55:54.619Z</time>
      </trkpt>
      <trkpt lat="46.02234" lon="4.03126">
        <ele>314</ele>
        <time>2024-12-08T07:55:55.619Z</time>
      </trkpt>
      <trkpt lat="46.02235" lon="4.03128">
        <ele>314</ele>
        <time>2024-12-08T07:55:56.620Z</time>
      </trkpt>
      <trkpt lat="46.02235" lon="4.03131">
        <ele>314</ele>
        <time>2024-12-08T07:55:57.619Z</time>
      </trkpt>
      <trkpt lat="46.02236" lon="4.03133">
        <ele>314</ele>
        <time>2024-12-08T07:55:58.620Z</time>
      </trkpt>
      <trkpt lat="46.02237" lon="4.03135">
        <ele>314</ele>
        <time>2024-12-08T07:55:59.619Z</time>
      </trkpt>
      <trkpt lat="46.02237" lon="4.03137">
        <ele>314</ele>
        <time>2024-12-08T07:56:00.619Z</time>
      </trkpt>
      <trkpt lat="46.02238" lon="4.0314">
        <ele>314</ele>
        <time>2024-12-08T07:56:01.619Z</time>
      </trkpt>
      <trkpt lat="46.02239" lon="4.03143">
        <ele>314</ele>
        <time>2024-12-08T07:56:02.620Z</time>
      </trkpt>
      <trkpt lat="46.02239" lon="4.03145">
        <ele>314</ele>
        <time>2024-12-08T07:56:03.619Z</time>
      </trkpt>
      <trkpt lat="46.0224" lon="4.03147">
        <ele>314</ele>
        <time>2024-12-08T07:56:04.620Z</time>
      </trkpt>
      <trkpt lat="46.0224" lon="4.0315">
        <ele>314</ele>
        <time>2024-12-08T07:56:05.619Z</time>
      </trkpt>
      <trkpt lat="46.02241" lon="4.03152">
        <ele>314</ele>
        <time>2024-12-08T07:56:06.620Z</time>
      </trkpt>
      <trkpt lat="46.02242" lon="4.03154">
        <ele>314</ele>
        <time>2024-12-08T07:56:07.620Z</time>
      </trkpt>
      <trkpt lat="46.02242" lon="4.03157">
        <ele>314</ele>
        <time>2024-12-08T07:56:08.619Z</time>
      </trkpt>
      <trkpt lat="46.02243" lon="4.03159">
        <ele>314</ele>
        <time>2024-12-08T07:56:09.619Z</time>
      </trkpt>
      <trkpt lat="46.02244" lon="4.03162">
        <ele>314</ele>
        <time>2024-12-08T07:56:10.619Z</time>
      </trkpt>
      <trkpt lat="46.02245" lon="4.03165">
        <ele>313</ele>
        <time>2024-12-08T07:56:11.620Z</time>
      </trkpt>
      <trkpt lat="46.02246" lon="4.03167">
        <ele>313</ele>
        <time>2024-12-08T07:56:12.619Z</time>
      </trkpt>
      <trkpt lat="46.02246" lon="4.03169">
        <ele>313</ele>
        <time>2024-12-08T07:56:13.619Z</time>
      </trkpt>
      <trkpt lat="46.02247" lon="4.03172">
        <ele>313</ele>
        <time>2024-12-08T07:56:14.620Z</time>
      </trkpt>
      <trkpt lat="46.02247" lon="4.03174">
        <ele>314</ele>
        <time>2024-12-08T07:56:15.620Z</time>
      </trkpt>
      <trkpt lat="46.02248" lon="4.03176">
        <ele>314</ele>
        <time>2024-12-08T07:56:16.619Z</time>
      </trkpt>
      <trkpt lat="46.02249" lon="4.03179">
        <ele>314</ele>
        <time>2024-12-08T07:56:17.619Z</time>
      </trkpt>
      <trkpt lat="46.02249" lon="4.03181">
        <ele>314</ele>
        <time>2024-12-08T07:56:18.620Z</time>
      </trkpt>
      <trkpt lat="46.0225" lon="4.03184">
        <ele>314</ele>
        <time>2024-12-08T07:56:19.619Z</time>
      </trkpt>
      <trkpt lat="46.02251" lon="4.03187">
        <ele>314</ele>
        <time>2024-12-08T07:56:20.619Z</time>
      </trkpt>
      <trkpt lat="46.02251" lon="4.0319">
        <ele>314</ele>
        <time>2024-12-08T07:56:21.619Z</time>
      </trkpt>
      <trkpt lat="46.02252" lon="4.03192">
        <ele>314</ele>
        <time>2024-12-08T07:56:22.619Z</time>
      </trkpt>
      <trkpt lat="46.02253" lon="4.03195">
        <ele>314</ele>
        <time>2024-12-08T07:56:23.620Z</time>
      </trkpt>
      <trkpt lat="46.02253" lon="4.03197">
        <ele>314</ele>
        <time>2024-12-08T07:56:24.619Z</time>
      </trkpt>
      <trkpt lat="46.02254" lon="4.032">
        <ele>314</ele>
        <time>2024-12-08T07:56:25.619Z</time>
      </trkpt>
      <trkpt lat="46.02254" lon="4.03202">
        <ele>314</ele>
        <time>2024-12-08T07:56:26.619Z</time>
      </trkpt>
      <trkpt lat="46.02255" lon="4.03204">
        <ele>315</ele>
        <time>2024-12-08T07:56:27.619Z</time>
      </trkpt>
      <trkpt lat="46.02256" lon="4.03207">
        <ele>315</ele>
        <time>2024-12-08T07:56:28.620Z</time>
      </trkpt>
      <trkpt lat="46.02257" lon="4.0321">
        <ele>315</ele>
        <time>2024-12-08T07:56:29.620Z</time>
      </trkpt>
      <trkpt lat="46.02257" lon="4.03212">
        <ele>315</ele>
        <time>2024-12-08T07:56:30.619Z</time>
      </trkpt>
      <trkpt lat="46.02258" lon="4.03214">
        <ele>315</ele>
        <time>2024-12-08T07:56:31.619Z</time>
      </trkpt>
      <trkpt lat="46.02259" lon="4.03217">
        <ele>315</ele>
        <time>2024-12-08T07:56:32.619Z</time>
      </trkpt>
      <trkpt lat="46.0226" lon="4.0322">
        <ele>315</ele>
        <time>2024-12-08T07:56:33.619Z</time>
      </trkpt>
      <trkpt lat="46.02261" lon="4.03222">
        <ele>315</ele>
        <time>2024-12-08T07:56:34.620Z</time>
      </trkpt>
      <trkpt lat="46.02261" lon="4.03224">
        <ele>315</ele>
        <time>2024-12-08T07:56:35.619Z</time>
      </trkpt>
      <trkpt lat="46.02262" lon="4.03226">
        <ele>315</ele>
        <time>2024-12-08T07:56:36.620Z</time>
      </trkpt>
      <trkpt lat="46.02263" lon="4.03228">
        <ele>315</ele>
        <time>2024-12-08T07:56:37.619Z</time>
      </trkpt>
      <trkpt lat="46.02263" lon="4.03231">
        <ele>315</ele>
        <time>2024-12-08T07:56:38.620Z</time>
      </trkpt>
      <trkpt lat="46.02264" lon="4.03234">
        <ele>315</ele>
        <time>2024-12-08T07:56:39.619Z</time>
      </trkpt>
      <trkpt lat="46.02265" lon="4.03236">
        <ele>315</ele>
        <time>2024-12-08T07:56:40.620Z</time>
      </trkpt>
      <trkpt lat="46.02266" lon="4.03239">
        <ele>314</ele>
        <time>2024-12-08T07:56:41.619Z</time>
      </trkpt>
      <trkpt lat="46.02267" lon="4.03242">
        <ele>314</ele>
        <time>2024-12-08T07:56:42.619Z</time>
      </trkpt>
      <trkpt lat="46.02267" lon="4.03244">
        <ele>314</ele>
        <time>2024-12-08T07:56:43.620Z</time>
      </trkpt>
      <trkpt lat="46.02268" lon="4.03246">
        <ele>313</ele>
        <time>2024-12-08T07:56:44.619Z</time>
      </trkpt>
      <trkpt lat="46.02269" lon="4.03249">
        <ele>313</ele>
        <time>2024-12-08T07:56:45.620Z</time>
      </trkpt>
      <trkpt lat="46.0227" lon="4.03251">
        <ele>313</ele>
        <time>2024-12-08T07:56:46.620Z</time>
      </trkpt>
      <trkpt lat="46.02271" lon="4.03254">
        <ele>313</ele>
        <time>2024-12-08T07:56:47.620Z</time>
      </trkpt>
      <trkpt lat="46.02271" lon="4.03257">
        <ele>313</ele>
        <time>2024-12-08T07:56:48.620Z</time>
      </trkpt>
      <trkpt lat="46.02272" lon="4.03259">
        <ele>313</ele>
        <time>2024-12-08T07:56:49.620Z</time>
      </trkpt>
      <trkpt lat="46.02272" lon="4.03262">
        <ele>313</ele>
        <time>2024-12-08T07:56:50.619Z</time>
      </trkpt>
      <trkpt lat="46.02273" lon="4.03265">
        <ele>313</ele>
        <time>2024-12-08T07:56:51.620Z</time>
      </trkpt>
      <trkpt lat="46.02273" lon="4.03267">
        <ele>313</ele>
        <time>2024-12-08T07:56:52.619Z</time>
      </trkpt>
      <trkpt lat="46.02274" lon="4.03269">
        <ele>313</ele>
        <time>2024-12-08T07:56:53.619Z</time>
      </trkpt>
      <trkpt lat="46.02275" lon="4.03271">
        <ele>313</ele>
        <time>2024-12-08T07:56:54.619Z</time>
      </trkpt>
      <trkpt lat="46.02276" lon="4.03274">
        <ele>313</ele>
        <time>2024-12-08T07:56:55.619Z</time>
      </trkpt>
      <trkpt lat="46.02276" lon="4.03276">
        <ele>313</ele>
        <time>2024-12-08T07:56:56.620Z</time>
      </trkpt>
      <trkpt lat="46.02277" lon="4.03278">
        <ele>313</ele>
        <time>2024-12-08T07:56:57.619Z</time>
      </trkpt>
      <trkpt lat="46.02278" lon="4.0328">
        <ele>313</ele>
        <time>2024-12-08T07:56:58.620Z</time>
      </trkpt>
      <trkpt lat="46.02278" lon="4.03283">
        <ele>313</ele>
        <time>2024-12-08T07:56:59.619Z</time>
      </trkpt>
      <trkpt lat="46.02279" lon="4.03285">
        <ele>313</ele>
        <time>2024-12-08T07:57:00.620Z</time>
      </trkpt>
      <trkpt lat="46.0228" lon="4.03288">
        <ele>314</ele>
        <time>2024-12-08T07:57:01.620Z</time>
      </trkpt>
      <trkpt lat="46.0228" lon="4.03289">
        <ele>314</ele>
        <time>2024-12-08T07:57:02.620Z</time>
      </trkpt>
      <trkpt lat="46.02281" lon="4.03292">
        <ele>314</ele>
        <time>2024-12-08T07:57:03.619Z</time>
      </trkpt>
      <trkpt lat="46.02282" lon="4.03294">
        <ele>314</ele>
        <time>2024-12-08T07:57:04.619Z</time>
      </trkpt>
      <trkpt lat="46.02283" lon="4.03297">
        <ele>314</ele>
        <time>2024-12-08T07:57:05.619Z</time>
      </trkpt>
      <trkpt lat="46.02284" lon="4.03299">
        <ele>314</ele>
        <time>2024-12-08T07:57:06.619Z</time>
      </trkpt>
      <trkpt lat="46.02285" lon="4.03301">
        <ele>314</ele>
        <time>2024-12-08T07:57:07.619Z</time>
      </trkpt>
      <trkpt lat="46.02286" lon="4.03304">
        <ele>315</ele>
        <time>2024-12-08T07:57:08.619Z</time>
      </trkpt>
      <trkpt lat="46.02287" lon="4.03306">
        <ele>315</ele>
        <time>2024-12-08T07:57:09.619Z</time>
      </trkpt>
      <trkpt lat="46.02288" lon="4.03308">
        <ele>315</ele>
        <time>2024-12-08T07:57:10.619Z</time>
      </trkpt>
      <trkpt lat="46.02288" lon="4.0331">
        <ele>315</ele>
        <time>2024-12-08T07:57:11.619Z</time>
      </trkpt>
      <trkpt lat="46.02289" lon="4.03312">
        <ele>315</ele>
        <time>2024-12-08T07:57:12.620Z</time>
      </trkpt>
      <trkpt lat="46.0229" lon="4.03314">
        <ele>315</ele>
        <time>2024-12-08T07:57:13.619Z</time>
      </trkpt>
      <trkpt lat="46.02291" lon="4.03317">
        <ele>315</ele>
        <time>2024-12-08T07:57:14.620Z</time>
      </trkpt>
      <trkpt lat="46.02292" lon="4.0332">
        <ele>315</ele>
        <time>2024-12-08T07:57:15.620Z</time>
      </trkpt>
      <trkpt lat="46.02292" lon="4.03322">
        <ele>315</ele>
        <time>2024-12-08T07:57:16.619Z</time>
      </trkpt>
      <trkpt lat="46.02293" lon="4.03325">
        <ele>315</ele>
        <time>2024-12-08T07:57:17.619Z</time>
      </trkpt>
      <trkpt lat="46.02294" lon="4.03327">
        <ele>315</ele>
        <time>2024-12-08T07:57:18.619Z</time>
      </trkpt>
      <trkpt lat="46.02295" lon="4.03329">
        <ele>315</ele>
        <time>2024-12-08T07:57:19.620Z</time>
      </trkpt>
      <trkpt lat="46.02296" lon="4.03332">
        <ele>314</ele>
        <time>2024-12-08T07:57:20.620Z</time>
      </trkpt>
      <trkpt lat="46.02297" lon="4.03334">
        <ele>314</ele>
        <time>2024-12-08T07:57:21.619Z</time>
      </trkpt>
      <trkpt lat="46.02298" lon="4.03336">
        <ele>314</ele>
        <time>2024-12-08T07:57:22.620Z</time>
      </trkpt>
      <trkpt lat="46.02299" lon="4.03339">
        <ele>314</ele>
        <time>2024-12-08T07:57:23.620Z</time>
      </trkpt>
      <trkpt lat="46.023" lon="4.03341">
        <ele>314</ele>
        <time>2024-12-08T07:57:24.619Z</time>
      </trkpt>
      <trkpt lat="46.02301" lon="4.03344">
        <ele>313</ele>
        <time>2024-12-08T07:57:25.619Z</time>
      </trkpt>
      <trkpt lat="46.02301" lon="4.03347">
        <ele>313</ele>
        <time>2024-12-08T07:57:26.619Z</time>
      </trkpt>
      <trkpt lat="46.02302" lon="4.03349">
        <ele>313</ele>
        <time>2024-12-08T07:57:27.619Z</time>
      </trkpt>
      <trkpt lat="46.02302" lon="4.03351">
        <ele>313</ele>
        <time>2024-12-08T07:57:28.619Z</time>
      </trkpt>
      <trkpt lat="46.02303" lon="4.03353">
        <ele>313</ele>
        <time>2024-12-08T07:57:29.619Z</time>
      </trkpt>
      <trkpt lat="46.02304" lon="4.03355">
        <ele>313</ele>
        <time>2024-12-08T07:57:30.620Z</time>
      </trkpt>
      <trkpt lat="46.02305" lon="4.03358">
        <ele>313</ele>
        <time>2024-12-08T07:57:31.619Z</time>
      </trkpt>
      <trkpt lat="46.02306" lon="4.0336">
        <ele>313</ele>
        <time>2024-12-08T07:57:32.620Z</time>
      </trkpt>
      <trkpt lat="46.02307" lon="4.03363">
        <ele>313</ele>
        <time>2024-12-08T07:57:33.619Z</time>
      </trkpt>
      <trkpt lat="46.02307" lon="4.03365">
        <ele>313</ele>
        <time>2024-12-08T07:57:34.619Z</time>
      </trkpt>
      <trkpt lat="46.02308" lon="4.03368">
        <ele>313</ele>
        <time>2024-12-08T07:57:35.619Z</time>
      </trkpt>
      <trkpt lat="46.02309" lon="4.0337">
        <ele>313</ele>
        <time>2024-12-08T07:57:36.620Z</time>
      </trkpt>
      <trkpt lat="46.0231" lon="4.03372">
        <ele>313</ele>
        <time>2024-12-08T07:57:37.619Z</time>
      </trkpt>
      <trkpt lat="46.0231" lon="4.03375">
        <ele>313</ele>
        <time>2024-12-08T07:57:38.620Z</time>
      </trkpt>
      <trkpt lat="46.02311" lon="4.03377">
        <ele>314</ele>
        <time>2024-12-08T07:57:39.619Z</time>
      </trkpt>
      <trkpt lat="46.02312" lon="4.03379">
        <ele>314</ele>
        <time>2024-12-08T07:57:40.619Z</time>
      </trkpt>
      <trkpt lat="46.02312" lon="4.03382">
        <ele>314</ele>
        <time>2024-12-08T07:57:41.619Z</time>
      </trkpt>
      <trkpt lat="46.02313" lon="4.03385">
        <ele>313</ele>
        <time>2024-12-08T07:57:42.619Z</time>
      </trkpt>
      <trkpt lat="46.02314" lon="4.03387">
        <ele>313</ele>
        <time>2024-12-08T07:57:43.619Z</time>
      </trkpt>
      <trkpt lat="46.02314" lon="4.0339">
        <ele>313</ele>
        <time>2024-12-08T07:57:44.619Z</time>
      </trkpt>
      <trkpt lat="46.02315" lon="4.03392">
        <ele>313</ele>
        <time>2024-12-08T07:57:45.619Z</time>
      </trkpt>
      <trkpt lat="46.02316" lon="4.03394">
        <ele>313</ele>
        <time>2024-12-08T07:57:46.619Z</time>
      </trkpt>
      <trkpt lat="46.02316" lon="4.03397">
        <ele>314</ele>
        <time>2024-12-08T07:57:47.620Z</time>
      </trkpt>
      <trkpt lat="46.02317" lon="4.03399">
        <ele>314</ele>
        <time>2024-12-08T07:57:48.619Z</time>
      </trkpt>
      <trkpt lat="46.02317" lon="4.03402">
        <ele>314</ele>
        <time>2024-12-08T07:57:49.619Z</time>
      </trkpt>
      <trkpt lat="46.02318" lon="4.03404">
        <ele>314</ele>
        <time>2024-12-08T07:57:50.619Z</time>
      </trkpt>
      <trkpt lat="46.02319" lon="4.03406">
        <ele>314</ele>
        <time>2024-12-08T07:57:51.619Z</time>
      </trkpt>
      <trkpt lat="46.02319" lon="4.03408">
        <ele>314</ele>
        <time>2024-12-08T07:57:52.620Z</time>
      </trkpt>
      <trkpt lat="46.0232" lon="4.03411">
        <ele>315</ele>
        <time>2024-12-08T07:57:53.619Z</time>
      </trkpt>
      <trkpt lat="46.02321" lon="4.03413">
        <ele>315</ele>
        <time>2024-12-08T07:57:54.619Z</time>
      </trkpt>
      <trkpt lat="46.02322" lon="4.03416">
        <ele>315</ele>
        <time>2024-12-08T07:57:55.620Z</time>
      </trkpt>
      <trkpt lat="46.02323" lon="4.03418">
        <ele>315</ele>
        <time>2024-12-08T07:57:56.619Z</time>
      </trkpt>
      <trkpt lat="46.02323" lon="4.03421">
        <ele>315</ele>
        <time>2024-12-08T07:57:57.619Z</time>
      </trkpt>
      <trkpt lat="46.02324" lon="4.03423">
        <ele>315</ele>
        <time>2024-12-08T07:57:58.620Z</time>
      </trkpt>
      <trkpt lat="46.02324" lon="4.03426">
        <ele>315</ele>
        <time>2024-12-08T07:57:59.619Z</time>
      </trkpt>
      <trkpt lat="46.02325" lon="4.03428">
        <ele>315</ele>
        <time>2024-12-08T07:58:00.619Z</time>
      </trkpt>
      <trkpt lat="46.02325" lon="4.0343">
        <ele>314</ele>
        <time>2024-12-08T07:58:01.620Z</time>
      </trkpt>
      <trkpt lat="46.02326" lon="4.03432">
        <ele>314</ele>
        <time>2024-12-08T07:58:02.619Z</time>
      </trkpt>
      <trkpt lat="46.02326" lon="4.03434">
        <ele>314</ele>
        <time>2024-12-08T07:58:03.619Z</time>
      </trkpt>
      <trkpt lat="46.02327" lon="4.03437">
        <ele>314</ele>
        <time>2024-12-08T07:58:04.620Z</time>
      </trkpt>
      <trkpt lat="46.02328" lon="4.03439">
        <ele>314</ele>
        <time>2024-12-08T07:58:05.619Z</time>
      </trkpt>
      <trkpt lat="46.02328" lon="4.03441">
        <ele>314</ele>
        <time>2024-12-08T07:58:06.620Z</time>
      </trkpt>
      <trkpt lat="46.02329" lon="4.03444">
        <ele>314</ele>
        <time>2024-12-08T07:58:07.620Z</time>
      </trkpt>
      <trkpt lat="46.02329" lon="4.03446">
        <ele>314</ele>
        <time>2024-12-08T07:58:08.619Z</time>
      </trkpt>
      <trkpt lat="46.0233" lon="4.03448">
        <ele>314</ele>
        <time>2024-12-08T07:58:09.619Z</time>
      </trkpt>
      <trkpt lat="46.02331" lon="4.0345">
        <ele>314</ele>
        <time>2024-12-08T07:58:10.619Z</time>
      </trkpt>
      <trkpt lat="46.02331" lon="4.03453">
        <ele>315</ele>
        <time>2024-12-08T07:58:11.620Z</time>
      </trkpt>
      <trkpt lat="46.02332" lon="4.03455">
        <ele>315</ele>
        <time>2024-12-08T07:58:12.619Z</time>
      </trkpt>
      <trkpt lat="46.02333" lon="4.03458">
        <ele>315</ele>
        <time>2024-12-08T07:58:13.619Z</time>
      </trkpt>
      <trkpt lat="46.02333" lon="4.0346">
        <ele>315</ele>
        <time>2024-12-08T07:58:14.619Z</time>
      </trkpt>
      <trkpt lat="46.02334" lon="4.03462">
        <ele>315</ele>
        <time>2024-12-08T07:58:15.619Z</time>
      </trkpt>
      <trkpt lat="46.02334" lon="4.03465">
        <ele>315</ele>
        <time>2024-12-08T07:58:16.619Z</time>
      </trkpt>
      <trkpt lat="46.02335" lon="4.03467">
        <ele>315</ele>
        <time>2024-12-08T07:58:17.620Z</time>
      </trkpt>
      <trkpt lat="46.02336" lon="4.0347">
        <ele>314</ele>
        <time>2024-12-08T07:58:18.619Z</time>
      </trkpt>
      <trkpt lat="46.02336" lon="4.03472">
        <ele>314</ele>
        <time>2024-12-08T07:58:19.620Z</time>
      </trkpt>
      <trkpt lat="46.02337" lon="4.03475">
        <ele>314</ele>
        <time>2024-12-08T07:58:20.620Z</time>
      </trkpt>
      <trkpt lat="46.02338" lon="4.03477">
        <ele>314</ele>
        <time>2024-12-08T07:58:21.619Z</time>
      </trkpt>
      <trkpt lat="46.02339" lon="4.03479">
        <ele>314</ele>
        <time>2024-12-08T07:58:22.620Z</time>
      </trkpt>
      <trkpt lat="46.0234" lon="4.03481">
        <ele>314</ele>
        <time>2024-12-08T07:58:23.619Z</time>
      </trkpt>
      <trkpt lat="46.02341" lon="4.03484">
        <ele>313</ele>
        <time>2024-12-08T07:58:24.619Z</time>
      </trkpt>
      <trkpt lat="46.02342" lon="4.03487">
        <ele>313</ele>
        <time>2024-12-08T07:58:25.619Z</time>
      </trkpt>
      <trkpt lat="46.02342" lon="4.03489">
        <ele>313</ele>
        <time>2024-12-08T07:58:26.620Z</time>
      </trkpt>
      <trkpt lat="46.02342" lon="4.03492">
        <ele>314</ele>
        <time>2024-12-08T07:58:27.619Z</time>
      </trkpt>
      <trkpt lat="46.02343" lon="4.03494">
        <ele>314</ele>
        <time>2024-12-08T07:58:28.620Z</time>
      </trkpt>
      <trkpt lat="46.02344" lon="4.03496">
        <ele>314</ele>
        <time>2024-12-08T07:58:29.620Z</time>
      </trkpt>
      <trkpt lat="46.02344" lon="4.03499">
        <ele>314</ele>
        <time>2024-12-08T07:58:30.619Z</time>
      </trkpt>
      <trkpt lat="46.02345" lon="4.03501">
        <ele>314</ele>
        <time>2024-12-08T07:58:31.619Z</time>
      </trkpt>
      <trkpt lat="46.02346" lon="4.03503">
        <ele>314</ele>
        <time>2024-12-08T07:58:32.620Z</time>
      </trkpt>
      <trkpt lat="46.02346" lon="4.03505">
        <ele>314</ele>
        <time>2024-12-08T07:58:33.619Z</time>
      </trkpt>
      <trkpt lat="46.02347" lon="4.03508">
        <ele>314</ele>
        <time>2024-12-08T07:58:34.620Z</time>
      </trkpt>
      <trkpt lat="46.02348" lon="4.0351">
        <ele>314</ele>
        <time>2024-12-08T07:58:35.619Z</time>
      </trkpt>
      <trkpt lat="46.02349" lon="4.03513">
        <ele>314</ele>
        <time>2024-12-08T07:58:36.619Z</time>
      </trkpt>
      <trkpt lat="46.02349" lon="4.03515">
        <ele>314</ele>
        <time>2024-12-08T07:58:37.619Z</time>
      </trkpt>
      <trkpt lat="46.02349" lon="4.03517">
        <ele>315</ele>
        <time>2024-12-08T07:58:38.619Z</time>
      </trkpt>
      <trkpt lat="46.0235" lon="4.0352">
        <ele>315</ele>
        <time>2024-12-08T07:58:39.620Z</time>
      </trkpt>
      <trkpt lat="46.0235" lon="4.03523">
        <ele>315</ele>
        <time>2024-12-08T07:58:40.619Z</time>
      </trkpt>
      <trkpt lat="46.02351" lon="4.03524">
        <ele>315</ele>
        <time>2024-12-08T07:58:41.620Z</time>
      </trkpt>
      <trkpt lat="46.02351" lon="4.03527">
        <ele>315</ele>
        <time>2024-12-08T07:58:42.620Z</time>
      </trkpt>
      <trkpt lat="46.02352" lon="4.03529">
        <ele>315</ele>
        <time>2024-12-08T07:58:43.619Z</time>
      </trkpt>
      <trkpt lat="46.02353" lon="4.03531">
        <ele>315</ele>
        <time>2024-12-08T07:58:44.619Z</time>
      </trkpt>
      <trkpt lat="46.02354" lon="4.03533">
        <ele>315</ele>
        <time>2024-12-08T07:58:45.620Z</time>
      </trkpt>
      <trkpt lat="46.02355" lon="4.03535">
        <ele>315</ele>
        <time>2024-12-08T07:58:46.620Z</time>
      </trkpt>
      <trkpt lat="46.02355" lon="4.03538">
        <ele>315</ele>
        <time>2024-12-08T07:58:47.620Z</time>
      </trkpt>
      <trkpt lat="46.02356" lon="4.0354">
        <ele>315</ele>
        <time>2024-12-08T07:58:48.620Z</time>
      </trkpt>
      <trkpt lat="46.02357" lon="4.03543">
        <ele>315</ele>
        <time>2024-12-08T07:58:49.620Z</time>
      </trkpt>
      <trkpt lat="46.02357" lon="4.03546">
        <ele>315</ele>
        <time>2024-12-08T07:58:50.619Z</time>
      </trkpt>
      <trkpt lat="46.02358" lon="4.03548">
        <ele>315</ele>
        <time>2024-12-08T07:58:51.620Z</time>
      </trkpt>
      <trkpt lat="46.02359" lon="4.0355">
        <ele>316</ele>
        <time>2024-12-08T07:58:52.619Z</time>
      </trkpt>
      <trkpt lat="46.0236" lon="4.03553">
        <ele>316</ele>
        <time>2024-12-08T07:58:53.620Z</time>
      </trkpt>
      <trkpt lat="46.02361" lon="4.03555">
        <ele>316</ele>
        <time>2024-12-08T07:58:54.619Z</time>
      </trkpt>
      <trkpt lat="46.02362" lon="4.03557">
        <ele>316</ele>
        <time>2024-12-08T07:58:55.620Z</time>
      </trkpt>
      <trkpt lat="46.02363" lon="4.03558">
        <ele>316</ele>
        <time>2024-12-08T07:58:56.619Z</time>
      </trkpt>
      <trkpt lat="46.02364" lon="4.03561">
        <ele>316</ele>
        <time>2024-12-08T07:58:57.619Z</time>
      </trkpt>
      <trkpt lat="46.02364" lon="4.03563">
        <ele>316</ele>
        <time>2024-12-08T07:58:58.619Z</time>
      </trkpt>
      <trkpt lat="46.02365" lon="4.03566">
        <ele>316</ele>
        <time>2024-12-08T07:58:59.619Z</time>
      </trkpt>
      <trkpt lat="46.02366" lon="4.03568">
        <ele>316</ele>
        <time>2024-12-08T07:59:00.620Z</time>
      </trkpt>
      <trkpt lat="46.02367" lon="4.03571">
        <ele>315</ele>
        <time>2024-12-08T07:59:01.619Z</time>
      </trkpt>
      <trkpt lat="46.02367" lon="4.03574">
        <ele>315</ele>
        <time>2024-12-08T07:59:02.619Z</time>
      </trkpt>
      <trkpt lat="46.02367" lon="4.03576">
        <ele>315</ele>
        <time>2024-12-08T07:59:03.619Z</time>
      </trkpt>
      <trkpt lat="46.02368" lon="4.03578">
        <ele>315</ele>
        <time>2024-12-08T07:59:04.619Z</time>
      </trkpt>
      <trkpt lat="46.02368" lon="4.0358">
        <ele>315</ele>
        <time>2024-12-08T07:59:05.620Z</time>
      </trkpt>
      <trkpt lat="46.02369" lon="4.03583">
        <ele>315</ele>
        <time>2024-12-08T07:59:06.619Z</time>
      </trkpt>
      <trkpt lat="46.0237" lon="4.03585">
        <ele>315</ele>
        <time>2024-12-08T07:59:07.620Z</time>
      </trkpt>
      <trkpt lat="46.0237" lon="4.03588">
        <ele>315</ele>
        <time>2024-12-08T07:59:08.619Z</time>
      </trkpt>
      <trkpt lat="46.02371" lon="4.0359">
        <ele>314</ele>
        <time>2024-12-08T07:59:09.619Z</time>
      </trkpt>
      <trkpt lat="46.02371" lon="4.03593">
        <ele>315</ele>
        <time>2024-12-08T07:59:10.620Z</time>
      </trkpt>
      <trkpt lat="46.02372" lon="4.03596">
        <ele>315</ele>
        <time>2024-12-08T07:59:11.619Z</time>
      </trkpt>
      <trkpt lat="46.02373" lon="4.03599">
        <ele>315</ele>
        <time>2024-12-08T07:59:12.619Z</time>
      </trkpt>
      <trkpt lat="46.02374" lon="4.03601">
        <ele>315</ele>
        <time>2024-12-08T07:59:13.619Z</time>
      </trkpt>
      <trkpt lat="46.02374" lon="4.03603">
        <ele>315</ele>
        <time>2024-12-08T07:59:14.620Z</time>
      </trkpt>
      <trkpt lat="46.02375" lon="4.03606">
        <ele>315</ele>
        <time>2024-12-08T07:59:15.619Z</time>
      </trkpt>
      <trkpt lat="46.02376" lon="4.03608">
        <ele>315</ele>
        <time>2024-12-08T07:59:16.619Z</time>
      </trkpt>
      <trkpt lat="46.02376" lon="4.0361">
        <ele>316</ele>
        <time>2024-12-08T07:59:17.619Z</time>
      </trkpt>
      <trkpt lat="46.02377" lon="4.03613">
        <ele>316</ele>
        <time>2024-12-08T07:59:18.620Z</time>
      </trkpt>
      <trkpt lat="46.02377" lon="4.03615">
        <ele>315</ele>
        <time>2024-12-08T07:59:19.619Z</time>
      </trkpt>
      <trkpt lat="46.02378" lon="4.03618">
        <ele>315</ele>
        <time>2024-12-08T07:59:20.619Z</time>
      </trkpt>
      <trkpt lat="46.02379" lon="4.03621">
        <ele>315</ele>
        <time>2024-12-08T07:59:21.620Z</time>
      </trkpt>
      <trkpt lat="46.02379" lon="4.03623">
        <ele>316</ele>
        <time>2024-12-08T07:59:22.619Z</time>
      </trkpt>
      <trkpt lat="46.0238" lon="4.03625">
        <ele>316</ele>
        <time>2024-12-08T07:59:23.620Z</time>
      </trkpt>
      <trkpt lat="46.02381" lon="4.03628">
        <ele>316</ele>
        <time>2024-12-08T07:59:24.619Z</time>
      </trkpt>
      <trkpt lat="46.02381" lon="4.0363">
        <ele>316</ele>
        <time>2024-12-08T07:59:25.619Z</time>
      </trkpt>
      <trkpt lat="46.02382" lon="4.03632">
        <ele>316</ele>
        <time>2024-12-08T07:59:26.620Z</time>
      </trkpt>
      <trkpt lat="46.02383" lon="4.03634">
        <ele>316</ele>
        <time>2024-12-08T07:59:27.619Z</time>
      </trkpt>
      <trkpt lat="46.02383" lon="4.03637">
        <ele>316</ele>
        <time>2024-12-08T07:59:28.619Z</time>
      </trkpt>
      <trkpt lat="46.02384" lon="4.0364">
        <ele>316</ele>
        <time>2024-12-08T07:59:29.620Z</time>
      </trkpt>
      <trkpt lat="46.02385" lon="4.03643">
        <ele>316</ele>
        <time>2024-12-08T07:59:30.619Z</time>
      </trkpt>
      <trkpt lat="46.02385" lon="4.03645">
        <ele>315</ele>
        <time>2024-12-08T07:59:31.620Z</time>
      </trkpt>
      <trkpt lat="46.02386" lon="4.03647">
        <ele>315</ele>
        <time>2024-12-08T07:59:32.620Z</time>
      </trkpt>
      <trkpt lat="46.02387" lon="4.0365">
        <ele>315</ele>
        <time>2024-12-08T07:59:33.619Z</time>
      </trkpt>
      <trkpt lat="46.02388" lon="4.03653">
        <ele>314</ele>
        <time>2024-12-08T07:59:34.620Z</time>
      </trkpt>
      <trkpt lat="46.02388" lon="4.03654">
        <ele>314</ele>
        <time>2024-12-08T07:59:35.619Z</time>
      </trkpt>
      <trkpt lat="46.02389" lon="4.03656">
        <ele>314</ele>
        <time>2024-12-08T07:59:36.619Z</time>
      </trkpt>
      <trkpt lat="46.0239" lon="4.03659">
        <ele>314</ele>
        <time>2024-12-08T07:59:37.620Z</time>
      </trkpt>
      <trkpt lat="46.0239" lon="4.03661">
        <ele>314</ele>
        <time>2024-12-08T07:59:38.619Z</time>
      </trkpt>
      <trkpt lat="46.02391" lon="4.03664">
        <ele>314</ele>
        <time>2024-12-08T07:59:39.619Z</time>
      </trkpt>
      <trkpt lat="46.02392" lon="4.03666">
        <ele>314</ele>
        <time>2024-12-08T07:59:40.619Z</time>
      </trkpt>
      <trkpt lat="46.02392" lon="4.03668">
        <ele>314</ele>
        <time>2024-12-08T07:59:41.620Z</time>
      </trkpt>
      <trkpt lat="46.02393" lon="4.0367">
        <ele>314</ele>
        <time>2024-12-08T07:59:42.619Z</time>
      </trkpt>
      <trkpt lat="46.02394" lon="4.03672">
        <ele>313</ele>
        <time>2024-12-08T07:59:43.619Z</time>
      </trkpt>
      <trkpt lat="46.02395" lon="4.03675">
        <ele>313</ele>
        <time>2024-12-08T07:59:44.619Z</time>
      </trkpt>
      <trkpt lat="46.02395" lon="4.03677">
        <ele>313</ele>
        <time>2024-12-08T07:59:45.619Z</time>
      </trkpt>
      <trkpt lat="46.02396" lon="4.03679">
        <ele>313</ele>
        <time>2024-12-08T07:59:46.619Z</time>
      </trkpt>
      <trkpt lat="46.02397" lon="4.03681">
        <ele>313</ele>
        <time>2024-12-08T07:59:47.620Z</time>
      </trkpt>
      <trkpt lat="46.02398" lon="4.03684">
        <ele>313</ele>
        <time>2024-12-08T07:59:48.620Z</time>
      </trkpt>
      <trkpt lat="46.02399" lon="4.03686">
        <ele>313</ele>
        <time>2024-12-08T07:59:49.619Z</time>
      </trkpt>
      <trkpt lat="46.02399" lon="4.03689">
        <ele>313</ele>
        <time>2024-12-08T07:59:50.619Z</time>
      </trkpt>
      <trkpt lat="46.024" lon="4.03691">
        <ele>313</ele>
        <time>2024-12-08T07:59:51.620Z</time>
      </trkpt>
      <trkpt lat="46.02401" lon="4.03694">
        <ele>313</ele>
        <time>2024-12-08T07:59:52.619Z</time>
      </trkpt>
      <trkpt lat="46.02402" lon="4.03696">
        <ele>313</ele>
        <time>2024-12-08T07:59:53.620Z</time>
      </trkpt>
      <trkpt lat="46.02402" lon="4.03698">
        <ele>313</ele>
        <time>2024-12-08T07:59:54.619Z</time>
      </trkpt>
      <trkpt lat="46.02403" lon="4.037">
        <ele>313</ele>
        <time>2024-12-08T07:59:55.619Z</time>
      </trkpt>
      <trkpt lat="46.02403" lon="4.03703">
        <ele>313</ele>
        <time>2024-12-08T07:59:56.620Z</time>
      </trkpt>
      <trkpt lat="46.02404" lon="4.03706">
        <ele>313</ele>
        <time>2024-12-08T07:59:57.619Z</time>
      </trkpt>
      <trkpt lat="46.02405" lon="4.03708">
        <ele>313</ele>
        <time>2024-12-08T07:59:58.620Z</time>
      </trkpt>
      <trkpt lat="46.02406" lon="4.0371">
        <ele>313</ele>
        <time>2024-12-08T07:59:59.619Z</time>
      </trkpt>
      <trkpt lat="46.02406" lon="4.03713">
        <ele>314</ele>
        <time>2024-12-08T08:00:00.619Z</time>
      </trkpt>
      <trkpt lat="46.02407" lon="4.03716">
        <ele>314</ele>
        <time>2024-12-08T08:00:01.620Z</time>
      </trkpt>
      <trkpt lat="46.02408" lon="4.03718">
        <ele>314</ele>
        <time>2024-12-08T08:00:02.620Z</time>
      </trkpt>
      <trkpt lat="46.02408" lon="4.0372">
        <ele>314</ele>
        <time>2024-12-08T08:00:03.620Z</time>
      </trkpt>
      <trkpt lat="46.02409" lon="4.03722">
        <ele>314</ele>
        <time>2024-12-08T08:00:04.620Z</time>
      </trkpt>
      <trkpt lat="46.0241" lon="4.03725">
        <ele>314</ele>
        <time>2024-12-08T08:00:05.620Z</time>
      </trkpt>
      <trkpt lat="46.02411" lon="4.03727">
        <ele>314</ele>
        <time>2024-12-08T08:00:06.619Z</time>
      </trkpt>
      <trkpt lat="46.02412" lon="4.0373">
        <ele>314</ele>
        <time>2024-12-08T08:00:07.619Z</time>
      </trkpt>
      <trkpt lat="46.02413" lon="4.03732">
        <ele>314</ele>
        <time>2024-12-08T08:00:08.620Z</time>
      </trkpt>
      <trkpt lat="46.02414" lon="4.03735">
        <ele>314</ele>
        <time>2024-12-08T08:00:09.619Z</time>
      </trkpt>
      <trkpt lat="46.02415" lon="4.03737">
        <ele>315</ele>
        <time>2024-12-08T08:00:10.620Z</time>
      </trkpt>
      <trkpt lat="46.02416" lon="4.0374">
        <ele>314</ele>
        <time>2024-12-08T08:00:11.620Z</time>
      </trkpt>
      <trkpt lat="46.02416" lon="4.03742">
        <ele>314</ele>
        <time>2024-12-08T08:00:12.620Z</time>
      </trkpt>
      <trkpt lat="46.02417" lon="4.03744">
        <ele>314</ele>
        <time>2024-12-08T08:00:13.620Z</time>
      </trkpt>
      <trkpt lat="46.02418" lon="4.03746">
        <ele>314</ele>
        <time>2024-12-08T08:00:14.620Z</time>
      </trkpt>
      <trkpt lat="46.02419" lon="4.03748">
        <ele>314</ele>
        <time>2024-12-08T08:00:15.619Z</time>
      </trkpt>
      <trkpt lat="46.0242" lon="4.03751">
        <ele>314</ele>
        <time>2024-12-08T08:00:16.620Z</time>
      </trkpt>
      <trkpt lat="46.0242" lon="4.03753">
        <ele>314</ele>
        <time>2024-12-08T08:00:17.620Z</time>
      </trkpt>
      <trkpt lat="46.02421" lon="4.03756">
        <ele>314</ele>
        <time>2024-12-08T08:00:18.620Z</time>
      </trkpt>
      <trkpt lat="46.02422" lon="4.03759">
        <ele>314</ele>
        <time>2024-12-08T08:00:19.619Z</time>
      </trkpt>
      <trkpt lat="46.02423" lon="4.03761">
        <ele>314</ele>
        <time>2024-12-08T08:00:20.620Z</time>
      </trkpt>
      <trkpt lat="46.02424" lon="4.03763">
        <ele>314</ele>
        <time>2024-12-08T08:00:21.620Z</time>
      </trkpt>
      <trkpt lat="46.02424" lon="4.03766">
        <ele>314</ele>
        <time>2024-12-08T08:00:22.620Z</time>
      </trkpt>
      <trkpt lat="46.02425" lon="4.03768">
        <ele>314</ele>
        <time>2024-12-08T08:00:23.620Z</time>
      </trkpt>
      <trkpt lat="46.02426" lon="4.0377">
        <ele>314</ele>
        <time>2024-12-08T08:00:24.620Z</time>
      </trkpt>
      <trkpt lat="46.02427" lon="4.03773">
        <ele>314</ele>
        <time>2024-12-08T08:00:25.619Z</time>
      </trkpt>
      <trkpt lat="46.02428" lon="4.03775">
        <ele>314</ele>
        <time>2024-12-08T08:00:26.620Z</time>
      </trkpt>
      <trkpt lat="46.02428" lon="4.03777">
        <ele>313</ele>
        <time>2024-12-08T08:00:27.619Z</time>
      </trkpt>
      <trkpt lat="46.0243" lon="4.0378">
        <ele>313</ele>
        <time>2024-12-08T08:00:28.620Z</time>
      </trkpt>
      <trkpt lat="46.02431" lon="4.03782">
        <ele>313</ele>
        <time>2024-12-08T08:00:29.620Z</time>
      </trkpt>
      <trkpt lat="46.02431" lon="4.03785">
        <ele>313</ele>
        <time>2024-12-08T08:00:30.619Z</time>
      </trkpt>
      <trkpt lat="46.02432" lon="4.03787">
        <ele>313</ele>
        <time>2024-12-08T08:00:31.619Z</time>
      </trkpt>
      <trkpt lat="46.02433" lon="4.03789">
        <ele>313</ele>
        <time>2024-12-08T08:00:32.619Z</time>
      </trkpt>
      <trkpt lat="46.02434" lon="4.03791">
        <ele>313</ele>
        <time>2024-12-08T08:00:33.619Z</time>
      </trkpt>
      <trkpt lat="46.02435" lon="4.03794">
        <ele>314</ele>
        <time>2024-12-08T08:00:34.619Z</time>
      </trkpt>
      <trkpt lat="46.02436" lon="4.03796">
        <ele>314</ele>
        <time>2024-12-08T08:00:35.619Z</time>
      </trkpt>
      <trkpt lat="46.02437" lon="4.03798">
        <ele>314</ele>
        <time>2024-12-08T08:00:36.619Z</time>
      </trkpt>
      <trkpt lat="46.02438" lon="4.03801">
        <ele>314</ele>
        <time>2024-12-08T08:00:37.619Z</time>
      </trkpt>
      <trkpt lat="46.02439" lon="4.03803">
        <ele>314</ele>
        <time>2024-12-08T08:00:38.620Z</time>
      </trkpt>
      <trkpt lat="46.02439" lon="4.03805">
        <ele>314</ele>
        <time>2024-12-08T08:00:39.619Z</time>
      </trkpt>
      <trkpt lat="46.0244" lon="4.03808">
        <ele>314</ele>
        <time>2024-12-08T08:00:40.619Z</time>
      </trkpt>
      <trkpt lat="46.02441" lon="4.0381">
        <ele>314</ele>
        <time>2024-12-08T08:00:41.619Z</time>
      </trkpt>
      <trkpt lat="46.02441" lon="4.03812">
        <ele>313</ele>
        <time>2024-12-08T08:00:42.619Z</time>
      </trkpt>
      <trkpt lat="46.02442" lon="4.03815">
        <ele>313</ele>
        <time>2024-12-08T08:00:43.619Z</time>
      </trkpt>
      <trkpt lat="46.02443" lon="4.03817">
        <ele>313</ele>
        <time>2024-12-08T08:00:44.620Z</time>
      </trkpt>
      <trkpt lat="46.02443" lon="4.03819">
        <ele>313</ele>
        <time>2024-12-08T08:00:45.619Z</time>
      </trkpt>
      <trkpt lat="46.02445" lon="4.03822">
        <ele>313</ele>
        <time>2024-12-08T08:00:46.620Z</time>
      </trkpt>
      <trkpt lat="46.02446" lon="4.03825">
        <ele>312</ele>
        <time>2024-12-08T08:00:47.620Z</time>
      </trkpt>
      <trkpt lat="46.02447" lon="4.03827">
        <ele>312</ele>
        <time>2024-12-08T08:00:48.620Z</time>
      </trkpt>
      <trkpt lat="46.02448" lon="4.03829">
        <ele>312</ele>
        <time>2024-12-08T08:00:49.620Z</time>
      </trkpt>
      <trkpt lat="46.02448" lon="4.03831">
        <ele>312</ele>
        <time>2024-12-08T08:00:50.619Z</time>
      </trkpt>
      <trkpt lat="46.0245" lon="4.03834">
        <ele>312</ele>
        <time>2024-12-08T08:00:51.619Z</time>
      </trkpt>
      <trkpt lat="46.0245" lon="4.03836">
        <ele>312</ele>
        <time>2024-12-08T08:00:52.620Z</time>
      </trkpt>
      <trkpt lat="46.02451" lon="4.03838">
        <ele>312</ele>
        <time>2024-12-08T08:00:53.619Z</time>
      </trkpt>
      <trkpt lat="46.02452" lon="4.0384">
        <ele>312</ele>
        <time>2024-12-08T08:00:54.620Z</time>
      </trkpt>
      <trkpt lat="46.02453" lon="4.03843">
        <ele>312</ele>
        <time>2024-12-08T08:00:55.619Z</time>
      </trkpt>
      <trkpt lat="46.02454" lon="4.03845">
        <ele>312</ele>
        <time>2024-12-08T08:00:56.619Z</time>
      </trkpt>
      <trkpt lat="46.02455" lon="4.03847">
        <ele>312</ele>
        <time>2024-12-08T08:00:57.619Z</time>
      </trkpt>
      <trkpt lat="46.02455" lon="4.03849">
        <ele>312</ele>
        <time>2024-12-08T08:00:58.620Z</time>
      </trkpt>
      <trkpt lat="46.02456" lon="4.03852">
        <ele>311</ele>
        <time>2024-12-08T08:00:59.619Z</time>
      </trkpt>
      <trkpt lat="46.02457" lon="4.03854">
        <ele>311</ele>
        <time>2024-12-08T08:01:00.619Z</time>
      </trkpt>
      <trkpt lat="46.02458" lon="4.03856">
        <ele>311</ele>
        <time>2024-12-08T08:01:01.619Z</time>
      </trkpt>
      <trkpt lat="46.02459" lon="4.03858">
        <ele>311</ele>
        <time>2024-12-08T08:01:02.620Z</time>
      </trkpt>
      <trkpt lat="46.02459" lon="4.0386">
        <ele>311</ele>
        <time>2024-12-08T08:01:03.619Z</time>
      </trkpt>
      <trkpt lat="46.02461" lon="4.03863">
        <ele>311</ele>
        <time>2024-12-08T08:01:04.620Z</time>
      </trkpt>
      <trkpt lat="46.02462" lon="4.03865">
        <ele>311</ele>
        <time>2024-12-08T08:01:05.620Z</time>
      </trkpt>
      <trkpt lat="46.02463" lon="4.03867">
        <ele>311</ele>
        <time>2024-12-08T08:01:06.619Z</time>
      </trkpt>
      <trkpt lat="46.02464" lon="4.03869">
        <ele>311</ele>
        <time>2024-12-08T08:01:07.620Z</time>
      </trkpt>
      <trkpt lat="46.02465" lon="4.03872">
        <ele>311</ele>
        <time>2024-12-08T08:01:08.620Z</time>
      </trkpt>
      <trkpt lat="46.02465" lon="4.03874">
        <ele>311</ele>
        <time>2024-12-08T08:01:09.620Z</time>
      </trkpt>
      <trkpt lat="46.02467" lon="4.03876">
        <ele>311</ele>
        <time>2024-12-08T08:01:10.619Z</time>
      </trkpt>
      <trkpt lat="46.02467" lon="4.03878">
        <ele>311</ele>
        <time>2024-12-08T08:01:11.620Z</time>
      </trkpt>
      <trkpt lat="46.02468" lon="4.03881">
        <ele>311</ele>
        <time>2024-12-08T08:01:12.619Z</time>
      </trkpt>
      <trkpt lat="46.02469" lon="4.03884">
        <ele>312</ele>
        <time>2024-12-08T08:01:13.619Z</time>
      </trkpt>
      <trkpt lat="46.0247" lon="4.03886">
        <ele>312</ele>
        <time>2024-12-08T08:01:14.619Z</time>
      </trkpt>
      <trkpt lat="46.02471" lon="4.03888">
        <ele>312</ele>
        <time>2024-12-08T08:01:15.620Z</time>
      </trkpt>
      <trkpt lat="46.02472" lon="4.0389">
        <ele>312</ele>
        <time>2024-12-08T08:01:16.620Z</time>
      </trkpt>
      <trkpt lat="46.02473" lon="4.03893">
        <ele>312</ele>
        <time>2024-12-08T08:01:17.620Z</time>
      </trkpt>
      <trkpt lat="46.02474" lon="4.03895">
        <ele>312</ele>
        <time>2024-12-08T08:01:18.620Z</time>
      </trkpt>
      <trkpt lat="46.02475" lon="4.03897">
        <ele>312</ele>
        <time>2024-12-08T08:01:19.619Z</time>
      </trkpt>
      <trkpt lat="46.02476" lon="4.03899">
        <ele>312</ele>
        <time>2024-12-08T08:01:20.619Z</time>
      </trkpt>
      <trkpt lat="46.02477" lon="4.03901">
        <ele>312</ele>
        <time>2024-12-08T08:01:21.619Z</time>
      </trkpt>
      <trkpt lat="46.02478" lon="4.03904">
        <ele>312</ele>
        <time>2024-12-08T08:01:22.619Z</time>
      </trkpt>
      <trkpt lat="46.02479" lon="4.03906">
        <ele>313</ele>
        <time>2024-12-08T08:01:23.620Z</time>
      </trkpt>
      <trkpt lat="46.0248" lon="4.03908">
        <ele>313</ele>
        <time>2024-12-08T08:01:24.619Z</time>
      </trkpt>
      <trkpt lat="46.02481" lon="4.0391">
        <ele>313</ele>
        <time>2024-12-08T08:01:25.620Z</time>
      </trkpt>
      <trkpt lat="46.02481" lon="4.03913">
        <ele>313</ele>
        <time>2024-12-08T08:01:26.619Z</time>
      </trkpt>
      <trkpt lat="46.02482" lon="4.03915">
        <ele>313</ele>
        <time>2024-12-08T08:01:27.619Z</time>
      </trkpt>
      <trkpt lat="46.02484" lon="4.03918">
        <ele>313</ele>
        <time>2024-12-08T08:01:28.619Z</time>
      </trkpt>
      <trkpt lat="46.02484" lon="4.0392">
        <ele>314</ele>
        <time>2024-12-08T08:01:29.620Z</time>
      </trkpt>
      <trkpt lat="46.02486" lon="4.03923">
        <ele>314</ele>
        <time>2024-12-08T08:01:30.619Z</time>
      </trkpt>
      <trkpt lat="46.02486" lon="4.03925">
        <ele>314</ele>
        <time>2024-12-08T08:01:31.620Z</time>
      </trkpt>
      <trkpt lat="46.02487" lon="4.03927">
        <ele>314</ele>
        <time>2024-12-08T08:01:32.619Z</time>
      </trkpt>
      <trkpt lat="46.02488" lon="4.03929">
        <ele>314</ele>
        <time>2024-12-08T08:01:33.619Z</time>
      </trkpt>
      <trkpt lat="46.02489" lon="4.03932">
        <ele>314</ele>
        <time>2024-12-08T08:01:34.620Z</time>
      </trkpt>
      <trkpt lat="46.0249" lon="4.03934">
        <ele>314</ele>
        <time>2024-12-08T08:01:35.619Z</time>
      </trkpt>
      <trkpt lat="46.02492" lon="4.03936">
        <ele>314</ele>
        <time>2024-12-08T08:01:36.619Z</time>
      </trkpt>
      <trkpt lat="46.02493" lon="4.03939">
        <ele>314</ele>
        <time>2024-12-08T08:01:37.620Z</time>
      </trkpt>
      <trkpt lat="46.02493" lon="4.03941">
        <ele>313</ele>
        <time>2024-12-08T08:01:38.620Z</time>
      </trkpt>
      <trkpt lat="46.02494" lon="4.03943">
        <ele>313</ele>
        <time>2024-12-08T08:01:39.619Z</time>
      </trkpt>
      <trkpt lat="46.02496" lon="4.03946">
        <ele>313</ele>
        <time>2024-12-08T08:01:40.620Z</time>
      </trkpt>
      <trkpt lat="46.02497" lon="4.03948">
        <ele>313</ele>
        <time>2024-12-08T08:01:41.620Z</time>
      </trkpt>
      <trkpt lat="46.02497" lon="4.0395">
        <ele>313</ele>
        <time>2024-12-08T08:01:42.619Z</time>
      </trkpt>
      <trkpt lat="46.02498" lon="4.03953">
        <ele>313</ele>
        <time>2024-12-08T08:01:43.620Z</time>
      </trkpt>
      <trkpt lat="46.025" lon="4.03955">
        <ele>313</ele>
        <time>2024-12-08T08:01:44.620Z</time>
      </trkpt>
      <trkpt lat="46.02501" lon="4.03957">
        <ele>313</ele>
        <time>2024-12-08T08:01:45.620Z</time>
      </trkpt>
      <trkpt lat="46.02502" lon="4.03959">
        <ele>313</ele>
        <time>2024-12-08T08:01:46.620Z</time>
      </trkpt>
      <trkpt lat="46.02503" lon="4.03961">
        <ele>313</ele>
        <time>2024-12-08T08:01:47.620Z</time>
      </trkpt>
      <trkpt lat="46.02504" lon="4.03964">
        <ele>313</ele>
        <time>2024-12-08T08:01:48.619Z</time>
      </trkpt>
      <trkpt lat="46.02505" lon="4.03966">
        <ele>313</ele>
        <time>2024-12-08T08:01:49.619Z</time>
      </trkpt>
      <trkpt lat="46.02506" lon="4.03969">
        <ele>313</ele>
        <time>2024-12-08T08:01:50.620Z</time>
      </trkpt>
      <trkpt lat="46.02506" lon="4.03971">
        <ele>313</ele>
        <time>2024-12-08T08:01:51.619Z</time>
      </trkpt>
      <trkpt lat="46.02508" lon="4.03973">
        <ele>313</ele>
        <time>2024-12-08T08:01:52.619Z</time>
      </trkpt>
      <trkpt lat="46.02509" lon="4.03976">
        <ele>313</ele>
        <time>2024-12-08T08:01:53.620Z</time>
      </trkpt>
      <trkpt lat="46.0251" lon="4.03978">
        <ele>313</ele>
        <time>2024-12-08T08:01:54.620Z</time>
      </trkpt>
      <trkpt lat="46.02511" lon="4.0398">
        <ele>313</ele>
        <time>2024-12-08T08:01:55.619Z</time>
      </trkpt>
      <trkpt lat="46.02512" lon="4.03981">
        <ele>312</ele>
        <time>2024-12-08T08:01:56.619Z</time>
      </trkpt>
      <trkpt lat="46.02513" lon="4.03984">
        <ele>312</ele>
        <time>2024-12-08T08:01:57.619Z</time>
      </trkpt>
      <trkpt lat="46.02514" lon="4.03986">
        <ele>312</ele>
        <time>2024-12-08T08:01:58.619Z</time>
      </trkpt>
      <trkpt lat="46.02516" lon="4.03988">
        <ele>312</ele>
        <time>2024-12-08T08:01:59.619Z</time>
      </trkpt>
      <trkpt lat="46.02517" lon="4.0399">
        <ele>312</ele>
        <time>2024-12-08T08:02:00.619Z</time>
      </trkpt>
      <trkpt lat="46.02518" lon="4.03992">
        <ele>312</ele>
        <time>2024-12-08T08:02:01.619Z</time>
      </trkpt>
      <trkpt lat="46.02519" lon="4.03994">
        <ele>312</ele>
        <time>2024-12-08T08:02:02.620Z</time>
      </trkpt>
      <trkpt lat="46.0252" lon="4.03996">
        <ele>312</ele>
        <time>2024-12-08T08:02:03.619Z</time>
      </trkpt>
      <trkpt lat="46.02521" lon="4.03998">
        <ele>312</ele>
        <time>2024-12-08T08:02:04.620Z</time>
      </trkpt>
      <trkpt lat="46.02523" lon="4.04">
        <ele>312</ele>
        <time>2024-12-08T08:02:05.619Z</time>
      </trkpt>
      <trkpt lat="46.02524" lon="4.04002">
        <ele>312</ele>
        <time>2024-12-08T08:02:06.620Z</time>
      </trkpt>
      <trkpt lat="46.02525" lon="4.04004">
        <ele>312</ele>
        <time>2024-12-08T08:02:07.619Z</time>
      </trkpt>
      <trkpt lat="46.02526" lon="4.04006">
        <ele>312</ele>
        <time>2024-12-08T08:02:08.620Z</time>
      </trkpt>
      <trkpt lat="46.02528" lon="4.04007">
        <ele>312</ele>
        <time>2024-12-08T08:02:09.619Z</time>
      </trkpt>
      <trkpt lat="46.02529" lon="4.04009">
        <ele>312</ele>
        <time>2024-12-08T08:02:10.619Z</time>
      </trkpt>
      <trkpt lat="46.0253" lon="4.04011">
        <ele>312</ele>
        <time>2024-12-08T08:02:11.619Z</time>
      </trkpt>
      <trkpt lat="46.02532" lon="4.04013">
        <ele>312</ele>
        <time>2024-12-08T08:02:12.620Z</time>
      </trkpt>
      <trkpt lat="46.02533" lon="4.04015">
        <ele>312</ele>
        <time>2024-12-08T08:02:13.619Z</time>
      </trkpt>
      <trkpt lat="46.02535" lon="4.04016">
        <ele>312</ele>
        <time>2024-12-08T08:02:14.619Z</time>
      </trkpt>
      <trkpt lat="46.02536" lon="4.04019">
        <ele>312</ele>
        <time>2024-12-08T08:02:15.619Z</time>
      </trkpt>
      <trkpt lat="46.02538" lon="4.0402">
        <ele>312</ele>
        <time>2024-12-08T08:02:16.620Z</time>
      </trkpt>
      <trkpt lat="46.02539" lon="4.04022">
        <ele>312</ele>
        <time>2024-12-08T08:02:17.619Z</time>
      </trkpt>
      <trkpt lat="46.02541" lon="4.04023">
        <ele>312</ele>
        <time>2024-12-08T08:02:18.619Z</time>
      </trkpt>
      <trkpt lat="46.02542" lon="4.04025">
        <ele>312</ele>
        <time>2024-12-08T08:02:19.620Z</time>
      </trkpt>
      <trkpt lat="46.02544" lon="4.04027">
        <ele>312</ele>
        <time>2024-12-08T08:02:20.620Z</time>
      </trkpt>
      <trkpt lat="46.02545" lon="4.04029">
        <ele>311</ele>
        <time>2024-12-08T08:02:21.620Z</time>
      </trkpt>
      <trkpt lat="46.02546" lon="4.0403">
        <ele>311</ele>
        <time>2024-12-08T08:02:22.619Z</time>
      </trkpt>
      <trkpt lat="46.02548" lon="4.04032">
        <ele>311</ele>
        <time>2024-12-08T08:02:23.619Z</time>
      </trkpt>
      <trkpt lat="46.0255" lon="4.04034">
        <ele>311</ele>
        <time>2024-12-08T08:02:24.620Z</time>
      </trkpt>
      <trkpt lat="46.02551" lon="4.04035">
        <ele>311</ele>
        <time>2024-12-08T08:02:25.620Z</time>
      </trkpt>
      <trkpt lat="46.02553" lon="4.04037">
        <ele>311</ele>
        <time>2024-12-08T08:02:26.619Z</time>
      </trkpt>
      <trkpt lat="46.02554" lon="4.04039">
        <ele>311</ele>
        <time>2024-12-08T08:02:27.619Z</time>
      </trkpt>
      <trkpt lat="46.02556" lon="4.04041">
        <ele>311</ele>
        <time>2024-12-08T08:02:28.620Z</time>
      </trkpt>
      <trkpt lat="46.02558" lon="4.04042">
        <ele>310</ele>
        <time>2024-12-08T08:02:29.619Z</time>
      </trkpt>
      <trkpt lat="46.02559" lon="4.04044">
        <ele>310</ele>
        <time>2024-12-08T08:02:30.620Z</time>
      </trkpt>
      <trkpt lat="46.0256" lon="4.04045">
        <ele>310</ele>
        <time>2024-12-08T08:02:31.620Z</time>
      </trkpt>
      <trkpt lat="46.02561" lon="4.04046">
        <ele>310</ele>
        <time>2024-12-08T08:02:32.619Z</time>
      </trkpt>
      <trkpt lat="46.02563" lon="4.04048">
        <ele>310</ele>
        <time>2024-12-08T08:02:33.620Z</time>
      </trkpt>
      <trkpt lat="46.02564" lon="4.04049">
        <ele>310</ele>
        <time>2024-12-08T08:02:34.620Z</time>
      </trkpt>
      <trkpt lat="46.02566" lon="4.04051">
        <ele>309</ele>
        <time>2024-12-08T08:02:35.619Z</time>
      </trkpt>
      <trkpt lat="46.02567" lon="4.04053">
        <ele>309</ele>
        <time>2024-12-08T08:02:36.619Z</time>
      </trkpt>
      <trkpt lat="46.02569" lon="4.04054">
        <ele>309</ele>
        <time>2024-12-08T08:02:37.619Z</time>
      </trkpt>
      <trkpt lat="46.02571" lon="4.04056">
        <ele>308</ele>
        <time>2024-12-08T08:02:38.620Z</time>
      </trkpt>
      <trkpt lat="46.02572" lon="4.04057">
        <ele>308</ele>
        <time>2024-12-08T08:02:39.619Z</time>
      </trkpt>
      <trkpt lat="46.02574" lon="4.04058">
        <ele>308</ele>
        <time>2024-12-08T08:02:40.619Z</time>
      </trkpt>
      <trkpt lat="46.02575" lon="4.04059">
        <ele>307</ele>
        <time>2024-12-08T08:02:41.619Z</time>
      </trkpt>
      <trkpt lat="46.02577" lon="4.04061">
        <ele>307</ele>
        <time>2024-12-08T08:02:42.620Z</time>
      </trkpt>
      <trkpt lat="46.02579" lon="4.04063">
        <ele>307</ele>
        <time>2024-12-08T08:02:43.619Z</time>
      </trkpt>
      <trkpt lat="46.0258" lon="4.04064">
        <ele>306</ele>
        <time>2024-12-08T08:02:44.619Z</time>
      </trkpt>
      <trkpt lat="46.02582" lon="4.04065">
        <ele>306</ele>
        <time>2024-12-08T08:02:45.619Z</time>
      </trkpt>
      <trkpt lat="46.02583" lon="4.04067">
        <ele>306</ele>
        <time>2024-12-08T08:02:46.619Z</time>
      </trkpt>
      <trkpt lat="46.02585" lon="4.04068">
        <ele>306</ele>
        <time>2024-12-08T08:02:47.620Z</time>
      </trkpt>
      <trkpt lat="46.02587" lon="4.0407">
        <ele>306</ele>
        <time>2024-12-08T08:02:48.619Z</time>
      </trkpt>
      <trkpt lat="46.02588" lon="4.04072">
        <ele>306</ele>
        <time>2024-12-08T08:02:49.620Z</time>
      </trkpt>
      <trkpt lat="46.0259" lon="4.04073">
        <ele>307</ele>
        <time>2024-12-08T08:02:50.619Z</time>
      </trkpt>
      <trkpt lat="46.02591" lon="4.04075">
        <ele>307</ele>
        <time>2024-12-08T08:02:51.620Z</time>
      </trkpt>
      <trkpt lat="46.02593" lon="4.04077">
        <ele>306</ele>
        <time>2024-12-08T08:02:52.620Z</time>
      </trkpt>
      <trkpt lat="46.02594" lon="4.04078">
        <ele>306</ele>
        <time>2024-12-08T08:02:53.620Z</time>
      </trkpt>
      <trkpt lat="46.02595" lon="4.04079">
        <ele>306</ele>
        <time>2024-12-08T08:02:54.619Z</time>
      </trkpt>
      <trkpt lat="46.02597" lon="4.0408">
        <ele>306</ele>
        <time>2024-12-08T08:02:55.620Z</time>
      </trkpt>
      <trkpt lat="46.02598" lon="4.04082">
        <ele>306</ele>
        <time>2024-12-08T08:02:56.619Z</time>
      </trkpt>
      <trkpt lat="46.026" lon="4.04084">
        <ele>306</ele>
        <time>2024-12-08T08:02:57.619Z</time>
      </trkpt>
      <trkpt lat="46.02601" lon="4.04085">
        <ele>306</ele>
        <time>2024-12-08T08:02:58.619Z</time>
      </trkpt>
      <trkpt lat="46.02602" lon="4.04087">
        <ele>306</ele>
        <time>2024-12-08T08:02:59.619Z</time>
      </trkpt>
      <trkpt lat="46.02604" lon="4.04089">
        <ele>306</ele>
        <time>2024-12-08T08:03:00.619Z</time>
      </trkpt>
      <trkpt lat="46.02605" lon="4.0409">
        <ele>306</ele>
        <time>2024-12-08T08:03:01.619Z</time>
      </trkpt>
      <trkpt lat="46.02607" lon="4.04091">
        <ele>306</ele>
        <time>2024-12-08T08:03:02.619Z</time>
      </trkpt>
      <trkpt lat="46.02608" lon="4.04093">
        <ele>306</ele>
        <time>2024-12-08T08:03:03.619Z</time>
      </trkpt>
      <trkpt lat="46.0261" lon="4.04095">
        <ele>306</ele>
        <time>2024-12-08T08:03:04.620Z</time>
      </trkpt>
      <trkpt lat="46.02611" lon="4.04096">
        <ele>305</ele>
        <time>2024-12-08T08:03:05.619Z</time>
      </trkpt>
      <trkpt lat="46.02613" lon="4.04098">
        <ele>305</ele>
        <time>2024-12-08T08:03:06.619Z</time>
      </trkpt>
      <trkpt lat="46.02614" lon="4.041">
        <ele>305</ele>
        <time>2024-12-08T08:03:07.619Z</time>
      </trkpt>
      <trkpt lat="46.02616" lon="4.04101">
        <ele>305</ele>
        <time>2024-12-08T08:03:08.619Z</time>
      </trkpt>
      <trkpt lat="46.02618" lon="4.04103">
        <ele>304</ele>
        <time>2024-12-08T08:03:09.620Z</time>
      </trkpt>
      <trkpt lat="46.02619" lon="4.04105">
        <ele>304</ele>
        <time>2024-12-08T08:03:10.620Z</time>
      </trkpt>
      <trkpt lat="46.0262" lon="4.04106">
        <ele>304</ele>
        <time>2024-12-08T08:03:11.620Z</time>
      </trkpt>
      <trkpt lat="46.02621" lon="4.04108">
        <ele>304</ele>
        <time>2024-12-08T08:03:12.619Z</time>
      </trkpt>
      <trkpt lat="46.02622" lon="4.0411">
        <ele>303</ele>
        <time>2024-12-08T08:03:13.619Z</time>
      </trkpt>
      <trkpt lat="46.02624" lon="4.04112">
        <ele>303</ele>
        <time>2024-12-08T08:03:14.619Z</time>
      </trkpt>
      <trkpt lat="46.02625" lon="4.04114">
        <ele>303</ele>
        <time>2024-12-08T08:03:15.620Z</time>
      </trkpt>
      <trkpt lat="46.02626" lon="4.04116">
        <ele>303</ele>
        <time>2024-12-08T08:03:16.619Z</time>
      </trkpt>
      <trkpt lat="46.02627" lon="4.04118">
        <ele>303</ele>
        <time>2024-12-08T08:03:17.619Z</time>
      </trkpt>
      <trkpt lat="46.02628" lon="4.0412">
        <ele>303</ele>
        <time>2024-12-08T08:03:18.619Z</time>
      </trkpt>
      <trkpt lat="46.0263" lon="4.04122">
        <ele>303</ele>
        <time>2024-12-08T08:03:19.620Z</time>
      </trkpt>
      <trkpt lat="46.02631" lon="4.04124">
        <ele>303</ele>
        <time>2024-12-08T08:03:20.620Z</time>
      </trkpt>
      <trkpt lat="46.02633" lon="4.04126">
        <ele>303</ele>
        <time>2024-12-08T08:03:21.619Z</time>
      </trkpt>
      <trkpt lat="46.02634" lon="4.04127">
        <ele>302</ele>
        <time>2024-12-08T08:03:22.620Z</time>
      </trkpt>
      <trkpt lat="46.02636" lon="4.04129">
        <ele>302</ele>
        <time>2024-12-08T08:03:23.619Z</time>
      </trkpt>
      <trkpt lat="46.02637" lon="4.04131">
        <ele>302</ele>
        <time>2024-12-08T08:03:24.619Z</time>
      </trkpt>
      <trkpt lat="46.02639" lon="4.04133">
        <ele>301</ele>
        <time>2024-12-08T08:03:25.619Z</time>
      </trkpt>
      <trkpt lat="46.0264" lon="4.04135">
        <ele>301</ele>
        <time>2024-12-08T08:03:26.619Z</time>
      </trkpt>
      <trkpt lat="46.02642" lon="4.04137">
        <ele>301</ele>
        <time>2024-12-08T08:03:27.619Z</time>
      </trkpt>
      <trkpt lat="46.02643" lon="4.04139">
        <ele>300</ele>
        <time>2024-12-08T08:03:28.619Z</time>
      </trkpt>
      <trkpt lat="46.02645" lon="4.04141">
        <ele>300</ele>
        <time>2024-12-08T08:03:29.619Z</time>
      </trkpt>
      <trkpt lat="46.02646" lon="4.04143">
        <ele>300</ele>
        <time>2024-12-08T08:03:30.619Z</time>
      </trkpt>
      <trkpt lat="46.02647" lon="4.04145">
        <ele>300</ele>
        <time>2024-12-08T08:03:31.620Z</time>
      </trkpt>
      <trkpt lat="46.02649" lon="4.04147">
        <ele>300</ele>
        <time>2024-12-08T08:03:32.619Z</time>
      </trkpt>
      <trkpt lat="46.0265" lon="4.04149">
        <ele>299</ele>
        <time>2024-12-08T08:03:33.619Z</time>
      </trkpt>
      <trkpt lat="46.02652" lon="4.04152">
        <ele>299</ele>
        <time>2024-12-08T08:03:34.619Z</time>
      </trkpt>
      <trkpt lat="46.02653" lon="4.04154">
        <ele>299</ele>
        <time>2024-12-08T08:03:35.619Z</time>
      </trkpt>
      <trkpt lat="46.02654" lon="4.04156">
        <ele>299</ele>
        <time>2024-12-08T08:03:36.619Z</time>
      </trkpt>
      <trkpt lat="46.02655" lon="4.04157">
        <ele>299</ele>
        <time>2024-12-08T08:03:37.620Z</time>
      </trkpt>
      <trkpt lat="46.02656" lon="4.04159">
        <ele>298</ele>
        <time>2024-12-08T08:03:38.620Z</time>
      </trkpt>
      <trkpt lat="46.02658" lon="4.04162">
        <ele>298</ele>
        <time>2024-12-08T08:03:39.619Z</time>
      </trkpt>
      <trkpt lat="46.02659" lon="4.04164">
        <ele>298</ele>
        <time>2024-12-08T08:03:40.619Z</time>
      </trkpt>
      <trkpt lat="46.0266" lon="4.04166">
        <ele>298</ele>
        <time>2024-12-08T08:03:41.620Z</time>
      </trkpt>
      <trkpt lat="46.02661" lon="4.04168">
        <ele>298</ele>
        <time>2024-12-08T08:03:42.620Z</time>
      </trkpt>
      <trkpt lat="46.02662" lon="4.0417">
        <ele>298</ele>
        <time>2024-12-08T08:03:43.619Z</time>
      </trkpt>
      <trkpt lat="46.02664" lon="4.04172">
        <ele>298</ele>
        <time>2024-12-08T08:03:44.620Z</time>
      </trkpt>
      <trkpt lat="46.02665" lon="4.04174">
        <ele>298</ele>
        <time>2024-12-08T08:03:45.619Z</time>
      </trkpt>
      <trkpt lat="46.02666" lon="4.04176">
        <ele>298</ele>
        <time>2024-12-08T08:03:46.619Z</time>
      </trkpt>
      <trkpt lat="46.02667" lon="4.04178">
        <ele>298</ele>
        <time>2024-12-08T08:03:47.619Z</time>
      </trkpt>
      <trkpt lat="46.02668" lon="4.0418">
        <ele>298</ele>
        <time>2024-12-08T08:03:48.619Z</time>
      </trkpt>
      <trkpt lat="46.02669" lon="4.04182">
        <ele>298</ele>
        <time>2024-12-08T08:03:49.620Z</time>
      </trkpt>
      <trkpt lat="46.0267" lon="4.04185">
        <ele>297</ele>
        <time>2024-12-08T08:03:50.620Z</time>
      </trkpt>
      <trkpt lat="46.02671" lon="4.04187">
        <ele>297</ele>
        <time>2024-12-08T08:03:51.620Z</time>
      </trkpt>
      <trkpt lat="46.02673" lon="4.04189">
        <ele>297</ele>
        <time>2024-12-08T08:03:52.620Z</time>
      </trkpt>
      <trkpt lat="46.02674" lon="4.04191">
        <ele>297</ele>
        <time>2024-12-08T08:03:53.619Z</time>
      </trkpt>
      <trkpt lat="46.02675" lon="4.04194">
        <ele>297</ele>
        <time>2024-12-08T08:03:54.619Z</time>
      </trkpt>
      <trkpt lat="46.02676" lon="4.04196">
        <ele>297</ele>
        <time>2024-12-08T08:03:55.620Z</time>
      </trkpt>
      <trkpt lat="46.02677" lon="4.04198">
        <ele>296</ele>
        <time>2024-12-08T08:03:56.620Z</time>
      </trkpt>
      <trkpt lat="46.02679" lon="4.042">
        <ele>296</ele>
        <time>2024-12-08T08:03:57.619Z</time>
      </trkpt>
      <trkpt lat="46.0268" lon="4.04203">
        <ele>295</ele>
        <time>2024-12-08T08:03:58.619Z</time>
      </trkpt>
      <trkpt lat="46.02681" lon="4.04205">
        <ele>295</ele>
        <time>2024-12-08T08:03:59.619Z</time>
      </trkpt>
      <trkpt lat="46.02682" lon="4.04207">
        <ele>295</ele>
        <time>2024-12-08T08:04:00.620Z</time>
      </trkpt>
      <trkpt lat="46.02684" lon="4.04209">
        <ele>295</ele>
        <time>2024-12-08T08:04:01.619Z</time>
      </trkpt>
      <trkpt lat="46.02685" lon="4.04211">
        <ele>295</ele>
        <time>2024-12-08T08:04:02.620Z</time>
      </trkpt>
      <trkpt lat="46.02687" lon="4.04213">
        <ele>295</ele>
        <time>2024-12-08T08:04:03.619Z</time>
      </trkpt>
      <trkpt lat="46.02688" lon="4.04215">
        <ele>295</ele>
        <time>2024-12-08T08:04:04.619Z</time>
      </trkpt>
      <trkpt lat="46.0269" lon="4.04217">
        <ele>295</ele>
        <time>2024-12-08T08:04:05.620Z</time>
      </trkpt>
      <trkpt lat="46.02691" lon="4.04219">
        <ele>295</ele>
        <time>2024-12-08T08:04:06.620Z</time>
      </trkpt>
      <trkpt lat="46.02692" lon="4.04221">
        <ele>295</ele>
        <time>2024-12-08T08:04:07.619Z</time>
      </trkpt>
      <trkpt lat="46.02694" lon="4.04223">
        <ele>295</ele>
        <time>2024-12-08T08:04:08.620Z</time>
      </trkpt>
      <trkpt lat="46.02695" lon="4.04225">
        <ele>294</ele>
        <time>2024-12-08T08:04:09.619Z</time>
      </trkpt>
      <trkpt lat="46.02697" lon="4.04227">
        <ele>294</ele>
        <time>2024-12-08T08:04:10.619Z</time>
      </trkpt>
      <trkpt lat="46.02699" lon="4.04228">
        <ele>294</ele>
        <time>2024-12-08T08:04:11.620Z</time>
      </trkpt>
      <trkpt lat="46.027" lon="4.0423">
        <ele>293</ele>
        <time>2024-12-08T08:04:12.619Z</time>
      </trkpt>
      <trkpt lat="46.02702" lon="4.04231">
        <ele>294</ele>
        <time>2024-12-08T08:04:13.619Z</time>
      </trkpt>
      <trkpt lat="46.02703" lon="4.04233">
        <ele>294</ele>
        <time>2024-12-08T08:04:14.619Z</time>
      </trkpt>
      <trkpt lat="46.02705" lon="4.04234">
        <ele>294</ele>
        <time>2024-12-08T08:04:15.620Z</time>
      </trkpt>
      <trkpt lat="46.02707" lon="4.04236">
        <ele>294</ele>
        <time>2024-12-08T08:04:16.619Z</time>
      </trkpt>
      <trkpt lat="46.02709" lon="4.04237">
        <ele>294</ele>
        <time>2024-12-08T08:04:17.620Z</time>
      </trkpt>
      <trkpt lat="46.02711" lon="4.04237">
        <ele>294</ele>
        <time>2024-12-08T08:04:18.620Z</time>
      </trkpt>
      <trkpt lat="46.02712" lon="4.04238">
        <ele>294</ele>
        <time>2024-12-08T08:04:19.619Z</time>
      </trkpt>
      <trkpt lat="46.02714" lon="4.04239">
        <ele>294</ele>
        <time>2024-12-08T08:04:20.619Z</time>
      </trkpt>
      <trkpt lat="46.02716" lon="4.04239">
        <ele>294</ele>
        <time>2024-12-08T08:04:21.620Z</time>
      </trkpt>
      <trkpt lat="46.02718" lon="4.0424">
        <ele>294</ele>
        <time>2024-12-08T08:04:22.619Z</time>
      </trkpt>
      <trkpt lat="46.0272" lon="4.04241">
        <ele>293</ele>
        <time>2024-12-08T08:04:23.619Z</time>
      </trkpt>
      <trkpt lat="46.02722" lon="4.04242">
        <ele>293</ele>
        <time>2024-12-08T08:04:24.620Z</time>
      </trkpt>
      <trkpt lat="46.02724" lon="4.04243">
        <ele>293</ele>
        <time>2024-12-08T08:04:25.620Z</time>
      </trkpt>
      <trkpt lat="46.02725" lon="4.04245">
        <ele>293</ele>
        <time>2024-12-08T08:04:26.619Z</time>
      </trkpt>
      <trkpt lat="46.02727" lon="4.04247">
        <ele>292</ele>
        <time>2024-12-08T08:04:27.619Z</time>
      </trkpt>
      <trkpt lat="46.02728" lon="4.04249">
        <ele>292</ele>
        <time>2024-12-08T08:04:28.620Z</time>
      </trkpt>
      <trkpt lat="46.02729" lon="4.04251">
        <ele>293</ele>
        <time>2024-12-08T08:04:29.619Z</time>
      </trkpt>
      <trkpt lat="46.0273" lon="4.04254">
        <ele>293</ele>
        <time>2024-12-08T08:04:30.620Z</time>
      </trkpt>
      <trkpt lat="46.02731" lon="4.04256">
        <ele>293</ele>
        <time>2024-12-08T08:04:31.620Z</time>
      </trkpt>
      <trkpt lat="46.02731" lon="4.04259">
        <ele>293</ele>
        <time>2024-12-08T08:04:32.619Z</time>
      </trkpt>
      <trkpt lat="46.02732" lon="4.04261">
        <ele>293</ele>
        <time>2024-12-08T08:04:33.619Z</time>
      </trkpt>
      <trkpt lat="46.02732" lon="4.04264">
        <ele>293</ele>
        <time>2024-12-08T08:04:34.619Z</time>
      </trkpt>
      <trkpt lat="46.02733" lon="4.04266">
        <ele>292</ele>
        <time>2024-12-08T08:04:35.619Z</time>
      </trkpt>
      <trkpt lat="46.02733" lon="4.04269">
        <ele>292</ele>
        <time>2024-12-08T08:04:36.619Z</time>
      </trkpt>
      <trkpt lat="46.02733" lon="4.04271">
        <ele>292</ele>
        <time>2024-12-08T08:04:37.619Z</time>
      </trkpt>
      <trkpt lat="46.02734" lon="4.04274">
        <ele>293</ele>
        <time>2024-12-08T08:04:38.620Z</time>
      </trkpt>
      <trkpt lat="46.02735" lon="4.04276">
        <ele>293</ele>
        <time>2024-12-08T08:04:39.619Z</time>
      </trkpt>
      <trkpt lat="46.02735" lon="4.04279">
        <ele>293</ele>
        <time>2024-12-08T08:04:40.619Z</time>
      </trkpt>
      <trkpt lat="46.02735" lon="4.04282">
        <ele>294</ele>
        <time>2024-12-08T08:04:41.619Z</time>
      </trkpt>
      <trkpt lat="46.02735" lon="4.04284">
        <ele>294</ele>
        <time>2024-12-08T08:04:42.619Z</time>
      </trkpt>
      <trkpt lat="46.02736" lon="4.04286">
        <ele>294</ele>
        <time>2024-12-08T08:04:43.619Z</time>
      </trkpt>
      <trkpt lat="46.02737" lon="4.04288">
        <ele>295</ele>
        <time>2024-12-08T08:04:44.620Z</time>
      </trkpt>
      <trkpt lat="46.02737" lon="4.04289">
        <ele>295</ele>
        <time>2024-12-08T08:04:45.620Z</time>
      </trkpt>
      <trkpt lat="46.02738" lon="4.04292">
        <ele>295</ele>
        <time>2024-12-08T08:04:46.620Z</time>
      </trkpt>
      <trkpt lat="46.02738" lon="4.04294">
        <ele>295</ele>
        <time>2024-12-08T08:04:47.619Z</time>
      </trkpt>
      <trkpt lat="46.02739" lon="4.04297">
        <ele>295</ele>
        <time>2024-12-08T08:04:48.619Z</time>
      </trkpt>
      <trkpt lat="46.02739" lon="4.043">
        <ele>295</ele>
        <time>2024-12-08T08:04:49.619Z</time>
      </trkpt>
      <trkpt lat="46.02743" lon="4.04314">
        <ele>295</ele>
        <time>2024-12-08T08:04:54.619Z</time>
      </trkpt>
      <trkpt lat="46.02744" lon="4.04317">
        <ele>295</ele>
        <time>2024-12-08T08:04:55.620Z</time>
      </trkpt>
      <trkpt lat="46.02745" lon="4.04321">
        <ele>294</ele>
        <time>2024-12-08T08:04:56.619Z</time>
      </trkpt>
      <trkpt lat="46.02746" lon="4.04324">
        <ele>294</ele>
        <time>2024-12-08T08:04:57.620Z</time>
      </trkpt>
      <trkpt lat="46.02745" lon="4.04327">
        <ele>295</ele>
        <time>2024-12-08T08:04:58.619Z</time>
      </trkpt>
      <trkpt lat="46.02745" lon="4.0433">
        <ele>296</ele>
        <time>2024-12-08T08:04:59.619Z</time>
      </trkpt>
      <trkpt lat="46.02745" lon="4.04332">
        <ele>297</ele>
        <time>2024-12-08T08:05:00.620Z</time>
      </trkpt>
      <trkpt lat="46.02745" lon="4.04335">
        <ele>297</ele>
        <time>2024-12-08T08:05:01.619Z</time>
      </trkpt>
      <trkpt lat="46.02745" lon="4.04337">
        <ele>297</ele>
        <time>2024-12-08T08:05:02.620Z</time>
      </trkpt>
      <trkpt lat="46.02745" lon="4.04339">
        <ele>296</ele>
        <time>2024-12-08T08:05:03.620Z</time>
      </trkpt>
      <trkpt lat="46.02745" lon="4.04342">
        <ele>296</ele>
        <time>2024-12-08T08:05:04.620Z</time>
      </trkpt>
      <trkpt lat="46.02745" lon="4.04344">
        <ele>295</ele>
        <time>2024-12-08T08:05:05.619Z</time>
      </trkpt>
      <trkpt lat="46.02746" lon="4.04347">
        <ele>295</ele>
        <time>2024-12-08T08:05:06.620Z</time>
      </trkpt>
      <trkpt lat="46.02746" lon="4.04349">
        <ele>294</ele>
        <time>2024-12-08T08:05:07.620Z</time>
      </trkpt>
      <trkpt lat="46.02746" lon="4.04352">
        <ele>293</ele>
        <time>2024-12-08T08:05:08.619Z</time>
      </trkpt>
      <trkpt lat="46.02746" lon="4.04355">
        <ele>293</ele>
        <time>2024-12-08T08:05:09.620Z</time>
      </trkpt>
      <trkpt lat="46.02747" lon="4.04357">
        <ele>293</ele>
        <time>2024-12-08T08:05:10.619Z</time>
      </trkpt>
      <trkpt lat="46.02747" lon="4.0436">
        <ele>293</ele>
        <time>2024-12-08T08:05:11.620Z</time>
      </trkpt>
      <trkpt lat="46.02747" lon="4.04363">
        <ele>293</ele>
        <time>2024-12-08T08:05:12.620Z</time>
      </trkpt>
      <trkpt lat="46.02747" lon="4.04365">
        <ele>292</ele>
        <time>2024-12-08T08:05:13.619Z</time>
      </trkpt>
      <trkpt lat="46.02747" lon="4.04368">
        <ele>292</ele>
        <time>2024-12-08T08:05:14.619Z</time>
      </trkpt>
      <trkpt lat="46.02747" lon="4.04371">
        <ele>292</ele>
        <time>2024-12-08T08:05:15.620Z</time>
      </trkpt>
      <trkpt lat="46.02747" lon="4.04374">
        <ele>292</ele>
        <time>2024-12-08T08:05:16.619Z</time>
      </trkpt>
      <trkpt lat="46.02747" lon="4.04376">
        <ele>292</ele>
        <time>2024-12-08T08:05:17.620Z</time>
      </trkpt>
      <trkpt lat="46.02747" lon="4.04379">
        <ele>292</ele>
        <time>2024-12-08T08:05:18.619Z</time>
      </trkpt>
      <trkpt lat="46.02747" lon="4.04382">
        <ele>292</ele>
        <time>2024-12-08T08:05:19.619Z</time>
      </trkpt>
      <trkpt lat="46.02748" lon="4.04385">
        <ele>292</ele>
        <time>2024-12-08T08:05:20.620Z</time>
      </trkpt>
      <trkpt lat="46.02748" lon="4.04388">
        <ele>293</ele>
        <time>2024-12-08T08:05:21.619Z</time>
      </trkpt>
      <trkpt lat="46.02748" lon="4.04391">
        <ele>293</ele>
        <time>2024-12-08T08:05:22.619Z</time>
      </trkpt>
      <trkpt lat="46.02749" lon="4.04393">
        <ele>293</ele>
        <time>2024-12-08T08:05:23.619Z</time>
      </trkpt>
      <trkpt lat="46.02749" lon="4.04396">
        <ele>292</ele>
        <time>2024-12-08T08:05:24.619Z</time>
      </trkpt>
      <trkpt lat="46.02749" lon="4.04399">
        <ele>292</ele>
        <time>2024-12-08T08:05:25.619Z</time>
      </trkpt>
      <trkpt lat="46.02749" lon="4.04401">
        <ele>292</ele>
        <time>2024-12-08T08:05:26.620Z</time>
      </trkpt>
      <trkpt lat="46.0275" lon="4.04404">
        <ele>292</ele>
        <time>2024-12-08T08:05:27.620Z</time>
      </trkpt>
      <trkpt lat="46.0275" lon="4.04406">
        <ele>292</ele>
        <time>2024-12-08T08:05:28.619Z</time>
      </trkpt>
      <trkpt lat="46.0275" lon="4.04409">
        <ele>291</ele>
        <time>2024-12-08T08:05:29.620Z</time>
      </trkpt>
      <trkpt lat="46.0275" lon="4.04412">
        <ele>291</ele>
        <time>2024-12-08T08:05:30.619Z</time>
      </trkpt>
      <trkpt lat="46.0275" lon="4.04415">
        <ele>292</ele>
        <time>2024-12-08T08:05:31.619Z</time>
      </trkpt>
      <trkpt lat="46.02751" lon="4.04417">
        <ele>292</ele>
        <time>2024-12-08T08:05:32.619Z</time>
      </trkpt>
      <trkpt lat="46.02751" lon="4.0442">
        <ele>292</ele>
        <time>2024-12-08T08:05:33.619Z</time>
      </trkpt>
      <trkpt lat="46.02751" lon="4.04423">
        <ele>292</ele>
        <time>2024-12-08T08:05:34.620Z</time>
      </trkpt>
      <trkpt lat="46.02751" lon="4.04426">
        <ele>292</ele>
        <time>2024-12-08T08:05:35.619Z</time>
      </trkpt>
      <trkpt lat="46.02751" lon="4.04429">
        <ele>292</ele>
        <time>2024-12-08T08:05:36.620Z</time>
      </trkpt>
      <trkpt lat="46.02752" lon="4.04432">
        <ele>292</ele>
        <time>2024-12-08T08:05:37.620Z</time>
      </trkpt>
      <trkpt lat="46.02752" lon="4.04434">
        <ele>291</ele>
        <time>2024-12-08T08:05:38.620Z</time>
      </trkpt>
      <trkpt lat="46.02752" lon="4.04437">
        <ele>291</ele>
        <time>2024-12-08T08:05:39.620Z</time>
      </trkpt>
      <trkpt lat="46.02752" lon="4.0444">
        <ele>291</ele>
        <time>2024-12-08T08:05:40.620Z</time>
      </trkpt>
      <trkpt lat="46.02752" lon="4.04442">
        <ele>291</ele>
        <time>2024-12-08T08:05:41.619Z</time>
      </trkpt>
      <trkpt lat="46.02752" lon="4.04445">
        <ele>291</ele>
        <time>2024-12-08T08:05:42.619Z</time>
      </trkpt>
      <trkpt lat="46.02752" lon="4.04448">
        <ele>291</ele>
        <time>2024-12-08T08:05:43.620Z</time>
      </trkpt>
      <trkpt lat="46.02752" lon="4.04451">
        <ele>291</ele>
        <time>2024-12-08T08:05:44.619Z</time>
      </trkpt>
      <trkpt lat="46.02753" lon="4.04453">
        <ele>291</ele>
        <time>2024-12-08T08:05:45.619Z</time>
      </trkpt>
      <trkpt lat="46.02753" lon="4.04456">
        <ele>291</ele>
        <time>2024-12-08T08:05:46.620Z</time>
      </trkpt>
      <trkpt lat="46.02753" lon="4.04458">
        <ele>290</ele>
        <time>2024-12-08T08:05:47.619Z</time>
      </trkpt>
      <trkpt lat="46.02753" lon="4.04461">
        <ele>291</ele>
        <time>2024-12-08T08:05:48.619Z</time>
      </trkpt>
      <trkpt lat="46.02753" lon="4.04464">
        <ele>291</ele>
        <time>2024-12-08T08:05:49.619Z</time>
      </trkpt>
      <trkpt lat="46.02753" lon="4.04467">
        <ele>291</ele>
        <time>2024-12-08T08:05:50.620Z</time>
      </trkpt>
      <trkpt lat="46.02753" lon="4.0447">
        <ele>291</ele>
        <time>2024-12-08T08:05:51.620Z</time>
      </trkpt>
      <trkpt lat="46.02753" lon="4.04473">
        <ele>291</ele>
        <time>2024-12-08T08:05:52.620Z</time>
      </trkpt>
      <trkpt lat="46.02753" lon="4.04475">
        <ele>290</ele>
        <time>2024-12-08T08:05:53.620Z</time>
      </trkpt>
      <trkpt lat="46.02754" lon="4.04478">
        <ele>290</ele>
        <time>2024-12-08T08:05:54.619Z</time>
      </trkpt>
      <trkpt lat="46.02754" lon="4.04481">
        <ele>290</ele>
        <time>2024-12-08T08:05:55.619Z</time>
      </trkpt>
      <trkpt lat="46.02754" lon="4.04484">
        <ele>290</ele>
        <time>2024-12-08T08:05:56.619Z</time>
      </trkpt>
      <trkpt lat="46.02753" lon="4.04487">
        <ele>290</ele>
        <time>2024-12-08T08:05:57.620Z</time>
      </trkpt>
      <trkpt lat="46.02753" lon="4.0449">
        <ele>290</ele>
        <time>2024-12-08T08:05:58.620Z</time>
      </trkpt>
      <trkpt lat="46.02753" lon="4.04492">
        <ele>290</ele>
        <time>2024-12-08T08:05:59.619Z</time>
      </trkpt>
      <trkpt lat="46.02753" lon="4.04495">
        <ele>290</ele>
        <time>2024-12-08T08:06:00.619Z</time>
      </trkpt>
      <trkpt lat="46.02753" lon="4.04498">
        <ele>290</ele>
        <time>2024-12-08T08:06:01.619Z</time>
      </trkpt>
      <trkpt lat="46.02753" lon="4.04501">
        <ele>290</ele>
        <time>2024-12-08T08:06:02.619Z</time>
      </trkpt>
      <trkpt lat="46.02754" lon="4.04503">
        <ele>290</ele>
        <time>2024-12-08T08:06:03.619Z</time>
      </trkpt>
      <trkpt lat="46.02754" lon="4.04506">
        <ele>290</ele>
        <time>2024-12-08T08:06:04.619Z</time>
      </trkpt>
      <trkpt lat="46.02754" lon="4.04509">
        <ele>290</ele>
        <time>2024-12-08T08:06:05.619Z</time>
      </trkpt>
      <trkpt lat="46.02755" lon="4.04511">
        <ele>290</ele>
        <time>2024-12-08T08:06:06.620Z</time>
      </trkpt>
      <trkpt lat="46.02755" lon="4.04514">
        <ele>290</ele>
        <time>2024-12-08T08:06:07.620Z</time>
      </trkpt>
      <trkpt lat="46.02755" lon="4.04517">
        <ele>290</ele>
        <time>2024-12-08T08:06:08.620Z</time>
      </trkpt>
      <trkpt lat="46.02755" lon="4.04519">
        <ele>290</ele>
        <time>2024-12-08T08:06:09.620Z</time>
      </trkpt>
      <trkpt lat="46.02755" lon="4.04522">
        <ele>290</ele>
        <time>2024-12-08T08:06:10.619Z</time>
      </trkpt>
      <trkpt lat="46.02755" lon="4.04525">
        <ele>290</ele>
        <time>2024-12-08T08:06:11.620Z</time>
      </trkpt>
      <trkpt lat="46.02755" lon="4.04528">
        <ele>290</ele>
        <time>2024-12-08T08:06:12.619Z</time>
      </trkpt>
      <trkpt lat="46.02754" lon="4.0453">
        <ele>290</ele>
        <time>2024-12-08T08:06:13.620Z</time>
      </trkpt>
      <trkpt lat="46.02755" lon="4.04533">
        <ele>290</ele>
        <time>2024-12-08T08:06:14.619Z</time>
      </trkpt>
      <trkpt lat="46.02755" lon="4.04536">
        <ele>291</ele>
        <time>2024-12-08T08:06:15.620Z</time>
      </trkpt>
      <trkpt lat="46.02755" lon="4.04539">
        <ele>291</ele>
        <time>2024-12-08T08:06:16.619Z</time>
      </trkpt>
      <trkpt lat="46.02755" lon="4.04542">
        <ele>291</ele>
        <time>2024-12-08T08:06:17.619Z</time>
      </trkpt>
      <trkpt lat="46.02755" lon="4.04544">
        <ele>291</ele>
        <time>2024-12-08T08:06:18.620Z</time>
      </trkpt>
      <trkpt lat="46.02755" lon="4.04547">
        <ele>291</ele>
        <time>2024-12-08T08:06:19.620Z</time>
      </trkpt>
      <trkpt lat="46.02755" lon="4.0455">
        <ele>291</ele>
        <time>2024-12-08T08:06:20.620Z</time>
      </trkpt>
      <trkpt lat="46.02755" lon="4.04553">
        <ele>291</ele>
        <time>2024-12-08T08:06:21.619Z</time>
      </trkpt>
      <trkpt lat="46.02755" lon="4.04556">
        <ele>291</ele>
        <time>2024-12-08T08:06:22.619Z</time>
      </trkpt>
      <trkpt lat="46.02756" lon="4.04558">
        <ele>291</ele>
        <time>2024-12-08T08:06:23.619Z</time>
      </trkpt>
      <trkpt lat="46.02756" lon="4.04561">
        <ele>291</ele>
        <time>2024-12-08T08:06:24.620Z</time>
      </trkpt>
      <trkpt lat="46.02756" lon="4.04564">
        <ele>291</ele>
        <time>2024-12-08T08:06:25.620Z</time>
      </trkpt>
      <trkpt lat="46.02756" lon="4.04566">
        <ele>291</ele>
        <time>2024-12-08T08:06:26.619Z</time>
      </trkpt>
      <trkpt lat="46.02756" lon="4.04569">
        <ele>291</ele>
        <time>2024-12-08T08:06:27.619Z</time>
      </trkpt>
      <trkpt lat="46.02756" lon="4.04572">
        <ele>291</ele>
        <time>2024-12-08T08:06:28.619Z</time>
      </trkpt>
      <trkpt lat="46.02756" lon="4.04575">
        <ele>290</ele>
        <time>2024-12-08T08:06:29.620Z</time>
      </trkpt>
      <trkpt lat="46.02756" lon="4.04578">
        <ele>290</ele>
        <time>2024-12-08T08:06:30.619Z</time>
      </trkpt>
      <trkpt lat="46.02756" lon="4.0458">
        <ele>290</ele>
        <time>2024-12-08T08:06:31.619Z</time>
      </trkpt>
      <trkpt lat="46.02756" lon="4.04583">
        <ele>290</ele>
        <time>2024-12-08T08:06:32.619Z</time>
      </trkpt>
      <trkpt lat="46.02756" lon="4.04586">
        <ele>290</ele>
        <time>2024-12-08T08:06:33.619Z</time>
      </trkpt>
      <trkpt lat="46.02757" lon="4.04589">
        <ele>290</ele>
        <time>2024-12-08T08:06:34.619Z</time>
      </trkpt>
      <trkpt lat="46.02757" lon="4.04592">
        <ele>290</ele>
        <time>2024-12-08T08:06:35.619Z</time>
      </trkpt>
      <trkpt lat="46.02757" lon="4.04595">
        <ele>290</ele>
        <time>2024-12-08T08:06:36.620Z</time>
      </trkpt>
      <trkpt lat="46.02757" lon="4.04598">
        <ele>290</ele>
        <time>2024-12-08T08:06:37.620Z</time>
      </trkpt>
      <trkpt lat="46.02757" lon="4.04601">
        <ele>290</ele>
        <time>2024-12-08T08:06:38.619Z</time>
      </trkpt>
      <trkpt lat="46.02757" lon="4.04604">
        <ele>290</ele>
        <time>2024-12-08T08:06:39.619Z</time>
      </trkpt>
      <trkpt lat="46.02757" lon="4.04607">
        <ele>290</ele>
        <time>2024-12-08T08:06:40.619Z</time>
      </trkpt>
      <trkpt lat="46.02757" lon="4.0461">
        <ele>290</ele>
        <time>2024-12-08T08:06:41.620Z</time>
      </trkpt>
      <trkpt lat="46.02757" lon="4.04612">
        <ele>290</ele>
        <time>2024-12-08T08:06:42.620Z</time>
      </trkpt>
      <trkpt lat="46.02757" lon="4.04615">
        <ele>290</ele>
        <time>2024-12-08T08:06:43.619Z</time>
      </trkpt>
      <trkpt lat="46.02757" lon="4.04618">
        <ele>290</ele>
        <time>2024-12-08T08:06:44.619Z</time>
      </trkpt>
      <trkpt lat="46.02757" lon="4.04621">
        <ele>290</ele>
        <time>2024-12-08T08:06:45.620Z</time>
      </trkpt>
      <trkpt lat="46.02757" lon="4.04624">
        <ele>291</ele>
        <time>2024-12-08T08:06:46.620Z</time>
      </trkpt>
      <trkpt lat="46.02757" lon="4.04627">
        <ele>291</ele>
        <time>2024-12-08T08:06:47.619Z</time>
      </trkpt>
      <trkpt lat="46.02757" lon="4.04629">
        <ele>290</ele>
        <time>2024-12-08T08:06:48.619Z</time>
      </trkpt>
      <trkpt lat="46.02757" lon="4.04632">
        <ele>290</ele>
        <time>2024-12-08T08:06:49.619Z</time>
      </trkpt>
      <trkpt lat="46.02757" lon="4.04635">
        <ele>290</ele>
        <time>2024-12-08T08:06:50.619Z</time>
      </trkpt>
      <trkpt lat="46.02757" lon="4.04638">
        <ele>290</ele>
        <time>2024-12-08T08:06:51.620Z</time>
      </trkpt>
      <trkpt lat="46.02757" lon="4.04641">
        <ele>290</ele>
        <time>2024-12-08T08:06:52.620Z</time>
      </trkpt>
      <trkpt lat="46.02757" lon="4.04644">
        <ele>290</ele>
        <time>2024-12-08T08:06:53.619Z</time>
      </trkpt>
      <trkpt lat="46.02757" lon="4.04646">
        <ele>290</ele>
        <time>2024-12-08T08:06:54.620Z</time>
      </trkpt>
      <trkpt lat="46.02758" lon="4.04649">
        <ele>290</ele>
        <time>2024-12-08T08:06:55.620Z</time>
      </trkpt>
      <trkpt lat="46.02758" lon="4.04652">
        <ele>290</ele>
        <time>2024-12-08T08:06:56.619Z</time>
      </trkpt>
      <trkpt lat="46.02758" lon="4.04655">
        <ele>290</ele>
        <time>2024-12-08T08:06:57.619Z</time>
      </trkpt>
      <trkpt lat="46.02758" lon="4.04658">
        <ele>290</ele>
        <time>2024-12-08T08:06:58.620Z</time>
      </trkpt>
      <trkpt lat="46.02758" lon="4.04661">
        <ele>290</ele>
        <time>2024-12-08T08:06:59.620Z</time>
      </trkpt>
      <trkpt lat="46.02758" lon="4.04664">
        <ele>290</ele>
        <time>2024-12-08T08:07:00.619Z</time>
      </trkpt>
      <trkpt lat="46.02758" lon="4.04667">
        <ele>289</ele>
        <time>2024-12-08T08:07:01.619Z</time>
      </trkpt>
      <trkpt lat="46.02758" lon="4.0467">
        <ele>289</ele>
        <time>2024-12-08T08:07:02.620Z</time>
      </trkpt>
      <trkpt lat="46.02758" lon="4.04673">
        <ele>290</ele>
        <time>2024-12-08T08:07:03.620Z</time>
      </trkpt>
      <trkpt lat="46.02759" lon="4.04676">
        <ele>290</ele>
        <time>2024-12-08T08:07:04.619Z</time>
      </trkpt>
      <trkpt lat="46.02759" lon="4.04679">
        <ele>290</ele>
        <time>2024-12-08T08:07:05.619Z</time>
      </trkpt>
      <trkpt lat="46.02759" lon="4.04682">
        <ele>290</ele>
        <time>2024-12-08T08:07:06.620Z</time>
      </trkpt>
      <trkpt lat="46.02759" lon="4.04685">
        <ele>290</ele>
        <time>2024-12-08T08:07:07.619Z</time>
      </trkpt>
      <trkpt lat="46.02759" lon="4.04688">
        <ele>290</ele>
        <time>2024-12-08T08:07:08.620Z</time>
      </trkpt>
      <trkpt lat="46.02759" lon="4.0469">
        <ele>290</ele>
        <time>2024-12-08T08:07:09.619Z</time>
      </trkpt>
      <trkpt lat="46.02759" lon="4.04693">
        <ele>290</ele>
        <time>2024-12-08T08:07:10.619Z</time>
      </trkpt>
      <trkpt lat="46.02759" lon="4.04696">
        <ele>290</ele>
        <time>2024-12-08T08:07:11.619Z</time>
      </trkpt>
      <trkpt lat="46.02759" lon="4.04699">
        <ele>290</ele>
        <time>2024-12-08T08:07:12.619Z</time>
      </trkpt>
      <trkpt lat="46.02759" lon="4.04702">
        <ele>290</ele>
        <time>2024-12-08T08:07:13.619Z</time>
      </trkpt>
      <trkpt lat="46.02759" lon="4.04705">
        <ele>290</ele>
        <time>2024-12-08T08:07:14.619Z</time>
      </trkpt>
      <trkpt lat="46.0276" lon="4.04708">
        <ele>290</ele>
        <time>2024-12-08T08:07:15.619Z</time>
      </trkpt>
      <trkpt lat="46.0276" lon="4.0471">
        <ele>290</ele>
        <time>2024-12-08T08:07:16.620Z</time>
      </trkpt>
      <trkpt lat="46.0276" lon="4.04713">
        <ele>290</ele>
        <time>2024-12-08T08:07:17.620Z</time>
      </trkpt>
      <trkpt lat="46.0276" lon="4.04716">
        <ele>290</ele>
        <time>2024-12-08T08:07:18.619Z</time>
      </trkpt>
      <trkpt lat="46.0276" lon="4.04719">
        <ele>290</ele>
        <time>2024-12-08T08:07:19.619Z</time>
      </trkpt>
      <trkpt lat="46.0276" lon="4.04721">
        <ele>289</ele>
        <time>2024-12-08T08:07:20.619Z</time>
      </trkpt>
      <trkpt lat="46.0276" lon="4.04724">
        <ele>289</ele>
        <time>2024-12-08T08:07:21.619Z</time>
      </trkpt>
      <trkpt lat="46.0276" lon="4.04727">
        <ele>289</ele>
        <time>2024-12-08T08:07:22.619Z</time>
      </trkpt>
      <trkpt lat="46.0276" lon="4.04729">
        <ele>289</ele>
        <time>2024-12-08T08:07:23.619Z</time>
      </trkpt>
      <trkpt lat="46.0276" lon="4.04732">
        <ele>289</ele>
        <time>2024-12-08T08:07:24.620Z</time>
      </trkpt>
      <trkpt lat="46.0276" lon="4.04735">
        <ele>289</ele>
        <time>2024-12-08T08:07:25.619Z</time>
      </trkpt>
      <trkpt lat="46.0276" lon="4.04738">
        <ele>289</ele>
        <time>2024-12-08T08:07:26.620Z</time>
      </trkpt>
      <trkpt lat="46.02761" lon="4.0474">
        <ele>289</ele>
        <time>2024-12-08T08:07:27.619Z</time>
      </trkpt>
      <trkpt lat="46.02761" lon="4.04743">
        <ele>288</ele>
        <time>2024-12-08T08:07:28.620Z</time>
      </trkpt>
      <trkpt lat="46.02761" lon="4.04745">
        <ele>288</ele>
        <time>2024-12-08T08:07:29.619Z</time>
      </trkpt>
      <trkpt lat="46.02761" lon="4.04748">
        <ele>288</ele>
        <time>2024-12-08T08:07:30.620Z</time>
      </trkpt>
      <trkpt lat="46.02761" lon="4.04751">
        <ele>288</ele>
        <time>2024-12-08T08:07:31.620Z</time>
      </trkpt>
      <trkpt lat="46.02761" lon="4.04754">
        <ele>288</ele>
        <time>2024-12-08T08:07:32.620Z</time>
      </trkpt>
      <trkpt lat="46.02761" lon="4.04757">
        <ele>287</ele>
        <time>2024-12-08T08:07:33.620Z</time>
      </trkpt>
      <trkpt lat="46.02761" lon="4.04759">
        <ele>287</ele>
        <time>2024-12-08T08:07:34.620Z</time>
      </trkpt>
      <trkpt lat="46.02761" lon="4.04762">
        <ele>287</ele>
        <time>2024-12-08T08:07:35.619Z</time>
      </trkpt>
      <trkpt lat="46.02761" lon="4.04764">
        <ele>287</ele>
        <time>2024-12-08T08:07:36.619Z</time>
      </trkpt>
      <trkpt lat="46.02761" lon="4.04767">
        <ele>288</ele>
        <time>2024-12-08T08:07:37.619Z</time>
      </trkpt>
      <trkpt lat="46.02761" lon="4.0477">
        <ele>288</ele>
        <time>2024-12-08T08:07:38.619Z</time>
      </trkpt>
      <trkpt lat="46.02761" lon="4.04773">
        <ele>288</ele>
        <time>2024-12-08T08:07:39.619Z</time>
      </trkpt>
      <trkpt lat="46.02761" lon="4.04776">
        <ele>288</ele>
        <time>2024-12-08T08:07:40.620Z</time>
      </trkpt>
      <trkpt lat="46.02761" lon="4.04778">
        <ele>288</ele>
        <time>2024-12-08T08:07:41.620Z</time>
      </trkpt>
      <trkpt lat="46.02761" lon="4.0478">
        <ele>288</ele>
        <time>2024-12-08T08:07:42.619Z</time>
      </trkpt>
      <trkpt lat="46.02762" lon="4.04783">
        <ele>288</ele>
        <time>2024-12-08T08:07:43.619Z</time>
      </trkpt>
      <trkpt lat="46.02762" lon="4.04785">
        <ele>288</ele>
        <time>2024-12-08T08:07:44.619Z</time>
      </trkpt>
      <trkpt lat="46.02761" lon="4.04788">
        <ele>287</ele>
        <time>2024-12-08T08:07:45.620Z</time>
      </trkpt>
      <trkpt lat="46.02761" lon="4.0479">
        <ele>287</ele>
        <time>2024-12-08T08:07:46.620Z</time>
      </trkpt>
      <trkpt lat="46.02761" lon="4.04793">
        <ele>287</ele>
        <time>2024-12-08T08:07:47.620Z</time>
      </trkpt>
      <trkpt lat="46.02761" lon="4.04796">
        <ele>287</ele>
        <time>2024-12-08T08:07:48.620Z</time>
      </trkpt>
      <trkpt lat="46.02761" lon="4.04798">
        <ele>287</ele>
        <time>2024-12-08T08:07:49.619Z</time>
      </trkpt>
      <trkpt lat="46.02761" lon="4.04801">
        <ele>287</ele>
        <time>2024-12-08T08:07:50.619Z</time>
      </trkpt>
      <trkpt lat="46.02761" lon="4.04804">
        <ele>287</ele>
        <time>2024-12-08T08:07:51.619Z</time>
      </trkpt>
      <trkpt lat="46.02761" lon="4.04807">
        <ele>288</ele>
        <time>2024-12-08T08:07:52.620Z</time>
      </trkpt>
      <trkpt lat="46.0276" lon="4.0481">
        <ele>288</ele>
        <time>2024-12-08T08:07:53.620Z</time>
      </trkpt>
      <trkpt lat="46.0276" lon="4.04812">
        <ele>288</ele>
        <time>2024-12-08T08:07:54.619Z</time>
      </trkpt>
      <trkpt lat="46.0276" lon="4.04814">
        <ele>288</ele>
        <time>2024-12-08T08:07:55.619Z</time>
      </trkpt>
      <trkpt lat="46.0276" lon="4.04817">
        <ele>288</ele>
        <time>2024-12-08T08:07:56.619Z</time>
      </trkpt>
      <trkpt lat="46.02759" lon="4.04819">
        <ele>288</ele>
        <time>2024-12-08T08:07:57.619Z</time>
      </trkpt>
      <trkpt lat="46.02758" lon="4.04822">
        <ele>288</ele>
        <time>2024-12-08T08:07:58.619Z</time>
      </trkpt>
      <trkpt lat="46.02757" lon="4.04824">
        <ele>288</ele>
        <time>2024-12-08T08:07:59.619Z</time>
      </trkpt>
      <trkpt lat="46.02755" lon="4.04826">
        <ele>288</ele>
        <time>2024-12-08T08:08:00.619Z</time>
      </trkpt>
      <trkpt lat="46.02754" lon="4.04829">
        <ele>288</ele>
        <time>2024-12-08T08:08:01.620Z</time>
      </trkpt>
      <trkpt lat="46.02753" lon="4.04831">
        <ele>288</ele>
        <time>2024-12-08T08:08:02.619Z</time>
      </trkpt>
      <trkpt lat="46.02753" lon="4.04833">
        <ele>288</ele>
        <time>2024-12-08T08:08:03.619Z</time>
      </trkpt>
      <trkpt lat="46.02752" lon="4.04835">
        <ele>288</ele>
        <time>2024-12-08T08:08:04.619Z</time>
      </trkpt>
      <trkpt lat="46.02751" lon="4.04837">
        <ele>288</ele>
        <time>2024-12-08T08:08:05.620Z</time>
      </trkpt>
      <trkpt lat="46.0275" lon="4.0484">
        <ele>287</ele>
        <time>2024-12-08T08:08:06.620Z</time>
      </trkpt>
      <trkpt lat="46.0275" lon="4.04842">
        <ele>287</ele>
        <time>2024-12-08T08:08:07.620Z</time>
      </trkpt>
      <trkpt lat="46.02749" lon="4.04844">
        <ele>287</ele>
        <time>2024-12-08T08:08:08.619Z</time>
      </trkpt>
      <trkpt lat="46.02748" lon="4.04847">
        <ele>288</ele>
        <time>2024-12-08T08:08:09.619Z</time>
      </trkpt>
      <trkpt lat="46.02747" lon="4.04849">
        <ele>288</ele>
        <time>2024-12-08T08:08:10.619Z</time>
      </trkpt>
      <trkpt lat="46.02747" lon="4.04851">
        <ele>288</ele>
        <time>2024-12-08T08:08:11.620Z</time>
      </trkpt>
      <trkpt lat="46.02746" lon="4.04853">
        <ele>288</ele>
        <time>2024-12-08T08:08:12.619Z</time>
      </trkpt>
      <trkpt lat="46.02746" lon="4.04855">
        <ele>288</ele>
        <time>2024-12-08T08:08:13.619Z</time>
      </trkpt>
      <trkpt lat="46.02746" lon="4.04857">
        <ele>288</ele>
        <time>2024-12-08T08:08:14.620Z</time>
      </trkpt>
      <trkpt lat="46.02747" lon="4.04859">
        <ele>288</ele>
        <time>2024-12-08T08:08:15.619Z</time>
      </trkpt>
      <trkpt lat="46.02747" lon="4.04861">
        <ele>288</ele>
        <time>2024-12-08T08:08:16.620Z</time>
      </trkpt>
      <trkpt lat="46.02747" lon="4.04864">
        <ele>288</ele>
        <time>2024-12-08T08:08:17.620Z</time>
      </trkpt>
      <trkpt lat="46.02746" lon="4.04866">
        <ele>288</ele>
        <time>2024-12-08T08:08:18.620Z</time>
      </trkpt>
      <trkpt lat="46.02746" lon="4.04868">
        <ele>288</ele>
        <time>2024-12-08T08:08:19.620Z</time>
      </trkpt>
      <trkpt lat="46.02745" lon="4.0487">
        <ele>288</ele>
        <time>2024-12-08T08:08:20.619Z</time>
      </trkpt>
      <trkpt lat="46.02744" lon="4.04873">
        <ele>288</ele>
        <time>2024-12-08T08:08:21.619Z</time>
      </trkpt>
      <trkpt lat="46.02744" lon="4.04875">
        <ele>289</ele>
        <time>2024-12-08T08:08:22.619Z</time>
      </trkpt>
      <trkpt lat="46.02743" lon="4.04878">
        <ele>289</ele>
        <time>2024-12-08T08:08:23.620Z</time>
      </trkpt>
      <trkpt lat="46.02742" lon="4.0488">
        <ele>289</ele>
        <time>2024-12-08T08:08:24.620Z</time>
      </trkpt>
      <trkpt lat="46.02741" lon="4.04883">
        <ele>290</ele>
        <time>2024-12-08T08:08:25.620Z</time>
      </trkpt>
      <trkpt lat="46.0274" lon="4.04885">
        <ele>290</ele>
        <time>2024-12-08T08:08:26.620Z</time>
      </trkpt>
      <trkpt lat="46.0274" lon="4.04887">
        <ele>290</ele>
        <time>2024-12-08T08:08:27.619Z</time>
      </trkpt>
      <trkpt lat="46.02739" lon="4.0489">
        <ele>290</ele>
        <time>2024-12-08T08:08:28.620Z</time>
      </trkpt>
      <trkpt lat="46.02737" lon="4.04892">
        <ele>291</ele>
        <time>2024-12-08T08:08:29.619Z</time>
      </trkpt>
      <trkpt lat="46.02737" lon="4.04894">
        <ele>291</ele>
        <time>2024-12-08T08:08:30.619Z</time>
      </trkpt>
      <trkpt lat="46.02736" lon="4.04897">
        <ele>291</ele>
        <time>2024-12-08T08:08:31.619Z</time>
      </trkpt>
      <trkpt lat="46.02735" lon="4.04899">
        <ele>291</ele>
        <time>2024-12-08T08:08:32.619Z</time>
      </trkpt>
      <trkpt lat="46.02735" lon="4.04902">
        <ele>291</ele>
        <time>2024-12-08T08:08:33.620Z</time>
      </trkpt>
      <trkpt lat="46.02734" lon="4.04904">
        <ele>292</ele>
        <time>2024-12-08T08:08:34.619Z</time>
      </trkpt>
      <trkpt lat="46.02734" lon="4.04907">
        <ele>292</ele>
        <time>2024-12-08T08:08:35.619Z</time>
      </trkpt>
      <trkpt lat="46.02734" lon="4.04909">
        <ele>292</ele>
        <time>2024-12-08T08:08:36.619Z</time>
      </trkpt>
      <trkpt lat="46.02733" lon="4.04912">
        <ele>292</ele>
        <time>2024-12-08T08:08:37.620Z</time>
      </trkpt>
      <trkpt lat="46.02733" lon="4.04915">
        <ele>292</ele>
        <time>2024-12-08T08:08:38.619Z</time>
      </trkpt>
      <trkpt lat="46.02732" lon="4.04917">
        <ele>292</ele>
        <time>2024-12-08T08:08:39.620Z</time>
      </trkpt>
      <trkpt lat="46.02732" lon="4.04919">
        <ele>292</ele>
        <time>2024-12-08T08:08:40.619Z</time>
      </trkpt>
      <trkpt lat="46.0273" lon="4.0492">
        <ele>292</ele>
        <time>2024-12-08T08:08:41.619Z</time>
      </trkpt>
      <trkpt lat="46.02729" lon="4.04922">
        <ele>292</ele>
        <time>2024-12-08T08:08:42.619Z</time>
      </trkpt>
      <trkpt lat="46.02727" lon="4.04924">
        <ele>292</ele>
        <time>2024-12-08T08:08:43.620Z</time>
      </trkpt>
      <trkpt lat="46.02726" lon="4.04926">
        <ele>293</ele>
        <time>2024-12-08T08:08:44.619Z</time>
      </trkpt>
      <trkpt lat="46.02724" lon="4.04928">
        <ele>293</ele>
        <time>2024-12-08T08:08:45.619Z</time>
      </trkpt>
      <trkpt lat="46.02723" lon="4.0493">
        <ele>293</ele>
        <time>2024-12-08T08:08:46.619Z</time>
      </trkpt>
      <trkpt lat="46.02722" lon="4.04932">
        <ele>293</ele>
        <time>2024-12-08T08:08:47.619Z</time>
      </trkpt>
      <trkpt lat="46.02721" lon="4.04933">
        <ele>293</ele>
        <time>2024-12-08T08:08:48.620Z</time>
      </trkpt>
      <trkpt lat="46.02719" lon="4.04935">
        <ele>294</ele>
        <time>2024-12-08T08:08:49.620Z</time>
      </trkpt>
      <trkpt lat="46.02718" lon="4.04937">
        <ele>294</ele>
        <time>2024-12-08T08:08:50.620Z</time>
      </trkpt>
      <trkpt lat="46.02717" lon="4.04938">
        <ele>294</ele>
        <time>2024-12-08T08:08:51.619Z</time>
      </trkpt>
      <trkpt lat="46.02716" lon="4.04939">
        <ele>294</ele>
        <time>2024-12-08T08:08:52.619Z</time>
      </trkpt>
      <trkpt lat="46.02716" lon="4.04941">
        <ele>294</ele>
        <time>2024-12-08T08:08:53.619Z</time>
      </trkpt>
      <trkpt lat="46.02715" lon="4.04943">
        <ele>294</ele>
        <time>2024-12-08T08:08:54.620Z</time>
      </trkpt>
      <trkpt lat="46.02715" lon="4.04945">
        <ele>294</ele>
        <time>2024-12-08T08:08:55.619Z</time>
      </trkpt>
      <trkpt lat="46.02714" lon="4.04947">
        <ele>294</ele>
        <time>2024-12-08T08:08:56.619Z</time>
      </trkpt>
      <trkpt lat="46.02714" lon="4.04949">
        <ele>294</ele>
        <time>2024-12-08T08:08:57.619Z</time>
      </trkpt>
      <trkpt lat="46.02712" lon="4.04951">
        <ele>294</ele>
        <time>2024-12-08T08:08:58.619Z</time>
      </trkpt>
      <trkpt lat="46.0271" lon="4.04955">
        <ele>294</ele>
        <time>2024-12-08T08:08:59.619Z</time>
      </trkpt>
      <trkpt lat="46.0271" lon="4.04958">
        <ele>294</ele>
        <time>2024-12-08T08:09:00.619Z</time>
      </trkpt>
      <trkpt lat="46.0271" lon="4.0496">
        <ele>294</ele>
        <time>2024-12-08T08:09:01.619Z</time>
      </trkpt>
      <trkpt lat="46.02709" lon="4.04963">
        <ele>294</ele>
        <time>2024-12-08T08:09:02.619Z</time>
      </trkpt>
      <trkpt lat="46.02708" lon="4.04965">
        <ele>293</ele>
        <time>2024-12-08T08:09:03.619Z</time>
      </trkpt>
      <trkpt lat="46.02708" lon="4.04967">
        <ele>293</ele>
        <time>2024-12-08T08:09:04.619Z</time>
      </trkpt>
      <trkpt lat="46.02706" lon="4.04969">
        <ele>293</ele>
        <time>2024-12-08T08:09:05.619Z</time>
      </trkpt>
      <trkpt lat="46.02705" lon="4.04971">
        <ele>293</ele>
        <time>2024-12-08T08:09:06.620Z</time>
      </trkpt>
      <trkpt lat="46.02704" lon="4.04973">
        <ele>293</ele>
        <time>2024-12-08T08:09:07.620Z</time>
      </trkpt>
      <trkpt lat="46.02703" lon="4.04976">
        <ele>293</ele>
        <time>2024-12-08T08:09:08.620Z</time>
      </trkpt>
      <trkpt lat="46.02702" lon="4.04978">
        <ele>293</ele>
        <time>2024-12-08T08:09:09.619Z</time>
      </trkpt>
      <trkpt lat="46.02701" lon="4.0498">
        <ele>292</ele>
        <time>2024-12-08T08:09:10.619Z</time>
      </trkpt>
      <trkpt lat="46.027" lon="4.04983">
        <ele>292</ele>
        <time>2024-12-08T08:09:11.619Z</time>
      </trkpt>
      <trkpt lat="46.02699" lon="4.04985">
        <ele>292</ele>
        <time>2024-12-08T08:09:12.619Z</time>
      </trkpt>
      <trkpt lat="46.02698" lon="4.04987">
        <ele>292</ele>
        <time>2024-12-08T08:09:13.619Z</time>
      </trkpt>
      <trkpt lat="46.02697" lon="4.04989">
        <ele>292</ele>
        <time>2024-12-08T08:09:14.619Z</time>
      </trkpt>
      <trkpt lat="46.02696" lon="4.04991">
        <ele>292</ele>
        <time>2024-12-08T08:09:15.619Z</time>
      </trkpt>
      <trkpt lat="46.02696" lon="4.04993">
        <ele>292</ele>
        <time>2024-12-08T08:09:16.619Z</time>
      </trkpt>
      <trkpt lat="46.02695" lon="4.04995">
        <ele>292</ele>
        <time>2024-12-08T08:09:17.619Z</time>
      </trkpt>
      <trkpt lat="46.02694" lon="4.04997">
        <ele>292</ele>
        <time>2024-12-08T08:09:18.619Z</time>
      </trkpt>
      <trkpt lat="46.02693" lon="4.04999">
        <ele>292</ele>
        <time>2024-12-08T08:09:19.619Z</time>
      </trkpt>
      <trkpt lat="46.02692" lon="4.05001">
        <ele>293</ele>
        <time>2024-12-08T08:09:20.619Z</time>
      </trkpt>
      <trkpt lat="46.02691" lon="4.05003">
        <ele>293</ele>
        <time>2024-12-08T08:09:21.619Z</time>
      </trkpt>
      <trkpt lat="46.02691" lon="4.05005">
        <ele>293</ele>
        <time>2024-12-08T08:09:22.620Z</time>
      </trkpt>
      <trkpt lat="46.0269" lon="4.05007">
        <ele>293</ele>
        <time>2024-12-08T08:09:23.619Z</time>
      </trkpt>
      <trkpt lat="46.02689" lon="4.05009">
        <ele>293</ele>
        <time>2024-12-08T08:09:24.619Z</time>
      </trkpt>
      <trkpt lat="46.02689" lon="4.05012">
        <ele>293</ele>
        <time>2024-12-08T08:09:25.619Z</time>
      </trkpt>
      <trkpt lat="46.02688" lon="4.05015">
        <ele>293</ele>
        <time>2024-12-08T08:09:26.620Z</time>
      </trkpt>
      <trkpt lat="46.02687" lon="4.05017">
        <ele>294</ele>
        <time>2024-12-08T08:09:27.620Z</time>
      </trkpt>
      <trkpt lat="46.02686" lon="4.0502">
        <ele>294</ele>
        <time>2024-12-08T08:09:28.619Z</time>
      </trkpt>
      <trkpt lat="46.02685" lon="4.05022">
        <ele>294</ele>
        <time>2024-12-08T08:09:29.619Z</time>
      </trkpt>
      <trkpt lat="46.02684" lon="4.05024">
        <ele>294</ele>
        <time>2024-12-08T08:09:30.620Z</time>
      </trkpt>
      <trkpt lat="46.02684" lon="4.05026">
        <ele>294</ele>
        <time>2024-12-08T08:09:31.620Z</time>
      </trkpt>
      <trkpt lat="46.02683" lon="4.05028">
        <ele>293</ele>
        <time>2024-12-08T08:09:32.619Z</time>
      </trkpt>
      <trkpt lat="46.02683" lon="4.05031">
        <ele>293</ele>
        <time>2024-12-08T08:09:33.620Z</time>
      </trkpt>
      <trkpt lat="46.02682" lon="4.05033">
        <ele>293</ele>
        <time>2024-12-08T08:09:34.619Z</time>
      </trkpt>
      <trkpt lat="46.02681" lon="4.05036">
        <ele>293</ele>
        <time>2024-12-08T08:09:35.620Z</time>
      </trkpt>
      <trkpt lat="46.02681" lon="4.05038">
        <ele>293</ele>
        <time>2024-12-08T08:09:36.619Z</time>
      </trkpt>
      <trkpt lat="46.0268" lon="4.0504">
        <ele>292</ele>
        <time>2024-12-08T08:09:37.619Z</time>
      </trkpt>
      <trkpt lat="46.02679" lon="4.05043">
        <ele>292</ele>
        <time>2024-12-08T08:09:38.620Z</time>
      </trkpt>
      <trkpt lat="46.02679" lon="4.05045">
        <ele>292</ele>
        <time>2024-12-08T08:09:39.619Z</time>
      </trkpt>
      <trkpt lat="46.02678" lon="4.05048">
        <ele>292</ele>
        <time>2024-12-08T08:09:40.619Z</time>
      </trkpt>
      <trkpt lat="46.02677" lon="4.0505">
        <ele>292</ele>
        <time>2024-12-08T08:09:41.619Z</time>
      </trkpt>
      <trkpt lat="46.02676" lon="4.05053">
        <ele>292</ele>
        <time>2024-12-08T08:09:42.620Z</time>
      </trkpt>
      <trkpt lat="46.02676" lon="4.05055">
        <ele>292</ele>
        <time>2024-12-08T08:09:43.619Z</time>
      </trkpt>
      <trkpt lat="46.02675" lon="4.05057">
        <ele>292</ele>
        <time>2024-12-08T08:09:44.619Z</time>
      </trkpt>
      <trkpt lat="46.02674" lon="4.0506">
        <ele>292</ele>
        <time>2024-12-08T08:09:45.619Z</time>
      </trkpt>
      <trkpt lat="46.02674" lon="4.05062">
        <ele>291</ele>
        <time>2024-12-08T08:09:46.619Z</time>
      </trkpt>
      <trkpt lat="46.02673" lon="4.05065">
        <ele>291</ele>
        <time>2024-12-08T08:09:47.620Z</time>
      </trkpt>
      <trkpt lat="46.02672" lon="4.05068">
        <ele>291</ele>
        <time>2024-12-08T08:09:48.619Z</time>
      </trkpt>
      <trkpt lat="46.02672" lon="4.0507">
        <ele>291</ele>
        <time>2024-12-08T08:09:49.619Z</time>
      </trkpt>
      <trkpt lat="46.02672" lon="4.05073">
        <ele>292</ele>
        <time>2024-12-08T08:09:50.620Z</time>
      </trkpt>
      <trkpt lat="46.02672" lon="4.05076">
        <ele>292</ele>
        <time>2024-12-08T08:09:51.619Z</time>
      </trkpt>
      <trkpt lat="46.02671" lon="4.05079">
        <ele>292</ele>
        <time>2024-12-08T08:09:52.619Z</time>
      </trkpt>
      <trkpt lat="46.02671" lon="4.05081">
        <ele>292</ele>
        <time>2024-12-08T08:09:53.619Z</time>
      </trkpt>
      <trkpt lat="46.0267" lon="4.05084">
        <ele>292</ele>
        <time>2024-12-08T08:09:54.619Z</time>
      </trkpt>
      <trkpt lat="46.02669" lon="4.05086">
        <ele>292</ele>
        <time>2024-12-08T08:09:55.619Z</time>
      </trkpt>
      <trkpt lat="46.02669" lon="4.05088">
        <ele>292</ele>
        <time>2024-12-08T08:09:56.619Z</time>
      </trkpt>
      <trkpt lat="46.02668" lon="4.05092">
        <ele>292</ele>
        <time>2024-12-08T08:09:57.620Z</time>
      </trkpt>
      <trkpt lat="46.02668" lon="4.05095">
        <ele>292</ele>
        <time>2024-12-08T08:09:58.619Z</time>
      </trkpt>
      <trkpt lat="46.02667" lon="4.05098">
        <ele>292</ele>
        <time>2024-12-08T08:09:59.619Z</time>
      </trkpt>
      <trkpt lat="46.02667" lon="4.051">
        <ele>292</ele>
        <time>2024-12-08T08:10:00.619Z</time>
      </trkpt>
      <trkpt lat="46.02666" lon="4.05103">
        <ele>292</ele>
        <time>2024-12-08T08:10:01.619Z</time>
      </trkpt>
      <trkpt lat="46.02666" lon="4.05105">
        <ele>291</ele>
        <time>2024-12-08T08:10:02.620Z</time>
      </trkpt>
      <trkpt lat="46.02666" lon="4.05107">
        <ele>291</ele>
        <time>2024-12-08T08:10:03.619Z</time>
      </trkpt>
      <trkpt lat="46.02665" lon="4.0511">
        <ele>292</ele>
        <time>2024-12-08T08:10:04.619Z</time>
      </trkpt>
      <trkpt lat="46.02665" lon="4.05113">
        <ele>292</ele>
        <time>2024-12-08T08:10:05.620Z</time>
      </trkpt>
      <trkpt lat="46.02664" lon="4.05115">
        <ele>292</ele>
        <time>2024-12-08T08:10:06.619Z</time>
      </trkpt>
      <trkpt lat="46.02664" lon="4.05118">
        <ele>292</ele>
        <time>2024-12-08T08:10:07.620Z</time>
      </trkpt>
      <trkpt lat="46.02663" lon="4.0512">
        <ele>293</ele>
        <time>2024-12-08T08:10:08.619Z</time>
      </trkpt>
      <trkpt lat="46.02663" lon="4.05123">
        <ele>293</ele>
        <time>2024-12-08T08:10:09.619Z</time>
      </trkpt>
      <trkpt lat="46.02662" lon="4.05125">
        <ele>293</ele>
        <time>2024-12-08T08:10:10.619Z</time>
      </trkpt>
      <trkpt lat="46.02662" lon="4.05127">
        <ele>293</ele>
        <time>2024-12-08T08:10:11.619Z</time>
      </trkpt>
      <trkpt lat="46.02661" lon="4.05129">
        <ele>293</ele>
        <time>2024-12-08T08:10:12.619Z</time>
      </trkpt>
      <trkpt lat="46.0266" lon="4.05131">
        <ele>293</ele>
        <time>2024-12-08T08:10:13.619Z</time>
      </trkpt>
      <trkpt lat="46.02659" lon="4.05133">
        <ele>293</ele>
        <time>2024-12-08T08:10:14.619Z</time>
      </trkpt>
      <trkpt lat="46.02658" lon="4.05135">
        <ele>293</ele>
        <time>2024-12-08T08:10:15.619Z</time>
      </trkpt>
      <trkpt lat="46.02657" lon="4.05138">
        <ele>293</ele>
        <time>2024-12-08T08:10:16.619Z</time>
      </trkpt>
      <trkpt lat="46.02656" lon="4.0514">
        <ele>294</ele>
        <time>2024-12-08T08:10:17.619Z</time>
      </trkpt>
      <trkpt lat="46.02656" lon="4.05143">
        <ele>294</ele>
        <time>2024-12-08T08:10:18.620Z</time>
      </trkpt>
      <trkpt lat="46.02655" lon="4.05145">
        <ele>294</ele>
        <time>2024-12-08T08:10:19.619Z</time>
      </trkpt>
      <trkpt lat="46.02655" lon="4.05148">
        <ele>294</ele>
        <time>2024-12-08T08:10:20.619Z</time>
      </trkpt>
      <trkpt lat="46.02654" lon="4.0515">
        <ele>294</ele>
        <time>2024-12-08T08:10:21.619Z</time>
      </trkpt>
      <trkpt lat="46.02654" lon="4.05152">
        <ele>294</ele>
        <time>2024-12-08T08:10:22.620Z</time>
      </trkpt>
      <trkpt lat="46.02653" lon="4.05154">
        <ele>294</ele>
        <time>2024-12-08T08:10:23.619Z</time>
      </trkpt>
      <trkpt lat="46.02652" lon="4.05157">
        <ele>294</ele>
        <time>2024-12-08T08:10:24.620Z</time>
      </trkpt>
      <trkpt lat="46.02652" lon="4.05159">
        <ele>294</ele>
        <time>2024-12-08T08:10:25.619Z</time>
      </trkpt>
      <trkpt lat="46.02652" lon="4.05161">
        <ele>294</ele>
        <time>2024-12-08T08:10:26.620Z</time>
      </trkpt>
      <trkpt lat="46.02652" lon="4.05164">
        <ele>294</ele>
        <time>2024-12-08T08:10:27.620Z</time>
      </trkpt>
      <trkpt lat="46.02652" lon="4.05166">
        <ele>293</ele>
        <time>2024-12-08T08:10:28.619Z</time>
      </trkpt>
      <trkpt lat="46.02652" lon="4.05169">
        <ele>293</ele>
        <time>2024-12-08T08:10:29.619Z</time>
      </trkpt>
      <trkpt lat="46.02652" lon="4.05172">
        <ele>293</ele>
        <time>2024-12-08T08:10:30.619Z</time>
      </trkpt>
      <trkpt lat="46.02652" lon="4.05174">
        <ele>293</ele>
        <time>2024-12-08T08:10:31.620Z</time>
      </trkpt>
      <trkpt lat="46.02652" lon="4.05176">
        <ele>293</ele>
        <time>2024-12-08T08:10:32.620Z</time>
      </trkpt>
      <trkpt lat="46.02652" lon="4.05178">
        <ele>293</ele>
        <time>2024-12-08T08:10:33.620Z</time>
      </trkpt>
      <trkpt lat="46.02651" lon="4.05181">
        <ele>293</ele>
        <time>2024-12-08T08:10:34.619Z</time>
      </trkpt>
      <trkpt lat="46.02652" lon="4.05183">
        <ele>293</ele>
        <time>2024-12-08T08:10:35.619Z</time>
      </trkpt>
      <trkpt lat="46.02652" lon="4.05185">
        <ele>293</ele>
        <time>2024-12-08T08:10:36.620Z</time>
      </trkpt>
      <trkpt lat="46.02652" lon="4.05188">
        <ele>293</ele>
        <time>2024-12-08T08:10:37.620Z</time>
      </trkpt>
      <trkpt lat="46.02653" lon="4.0519">
        <ele>293</ele>
        <time>2024-12-08T08:10:38.620Z</time>
      </trkpt>
      <trkpt lat="46.02653" lon="4.05192">
        <ele>293</ele>
        <time>2024-12-08T08:10:39.619Z</time>
      </trkpt>
      <trkpt lat="46.02653" lon="4.05195">
        <ele>293</ele>
        <time>2024-12-08T08:10:40.619Z</time>
      </trkpt>
      <trkpt lat="46.02653" lon="4.05197">
        <ele>293</ele>
        <time>2024-12-08T08:10:41.620Z</time>
      </trkpt>
      <trkpt lat="46.02653" lon="4.052">
        <ele>293</ele>
        <time>2024-12-08T08:10:42.619Z</time>
      </trkpt>
      <trkpt lat="46.02653" lon="4.05202">
        <ele>293</ele>
        <time>2024-12-08T08:10:43.619Z</time>
      </trkpt>
      <trkpt lat="46.02652" lon="4.05205">
        <ele>293</ele>
        <time>2024-12-08T08:10:44.620Z</time>
      </trkpt>
      <trkpt lat="46.02652" lon="4.05208">
        <ele>293</ele>
        <time>2024-12-08T08:10:45.619Z</time>
      </trkpt>
      <trkpt lat="46.02652" lon="4.05211">
        <ele>293</ele>
        <time>2024-12-08T08:10:46.619Z</time>
      </trkpt>
      <trkpt lat="46.02652" lon="4.05213">
        <ele>294</ele>
        <time>2024-12-08T08:10:47.619Z</time>
      </trkpt>
      <trkpt lat="46.02652" lon="4.05215">
        <ele>294</ele>
        <time>2024-12-08T08:10:48.620Z</time>
      </trkpt>
      <trkpt lat="46.02652" lon="4.05218">
        <ele>293</ele>
        <time>2024-12-08T08:10:49.620Z</time>
      </trkpt>
      <trkpt lat="46.02652" lon="4.0522">
        <ele>293</ele>
        <time>2024-12-08T08:10:50.619Z</time>
      </trkpt>
      <trkpt lat="46.02652" lon="4.05223">
        <ele>293</ele>
        <time>2024-12-08T08:10:51.620Z</time>
      </trkpt>
      <trkpt lat="46.02652" lon="4.05225">
        <ele>293</ele>
        <time>2024-12-08T08:10:52.619Z</time>
      </trkpt>
      <trkpt lat="46.02652" lon="4.05228">
        <ele>293</ele>
        <time>2024-12-08T08:10:53.620Z</time>
      </trkpt>
      <trkpt lat="46.02651" lon="4.0523">
        <ele>293</ele>
        <time>2024-12-08T08:10:54.619Z</time>
      </trkpt>
      <trkpt lat="46.02651" lon="4.05232">
        <ele>293</ele>
        <time>2024-12-08T08:10:55.619Z</time>
      </trkpt>
      <trkpt lat="46.02651" lon="4.05235">
        <ele>293</ele>
        <time>2024-12-08T08:10:56.619Z</time>
      </trkpt>
      <trkpt lat="46.02651" lon="4.05236">
        <ele>292</ele>
        <time>2024-12-08T08:10:57.619Z</time>
      </trkpt>
      <trkpt lat="46.02652" lon="4.05237">
        <ele>292</ele>
        <time>2024-12-08T08:10:58.619Z</time>
      </trkpt>
      <trkpt lat="46.02654" lon="4.05238">
        <ele>292</ele>
        <time>2024-12-08T08:10:59.619Z</time>
      </trkpt>
      <trkpt lat="46.02655" lon="4.05239">
        <ele>292</ele>
        <time>2024-12-08T08:11:00.620Z</time>
      </trkpt>
      <trkpt lat="46.02657" lon="4.0524">
        <ele>292</ele>
        <time>2024-12-08T08:11:01.619Z</time>
      </trkpt>
      <trkpt lat="46.02658" lon="4.05241">
        <ele>292</ele>
        <time>2024-12-08T08:11:02.620Z</time>
      </trkpt>
    </trkseg>
  </trk>
</gpx>